<?xml version="1.0" encoding="UTF-8" standalone="no" ?>
<gpx xmlns="http://www.topografix.com/GPX/1/1" xmlns:xsi="http://www.w3.org/2001/XMLSchema-instance" xsi:schemaLocation="http://www.topografix.com/GPX/1/1 http://www.topografix.com/GPX/1/1/gpx.xsd" version="1.1" creator="VisuGPX - https://www.visugpx.com">
  <metadata>
    <name>13 - D+ - Marseille</name>
    <desc><![CDATA[13 - D+ - Marseille - Circuit des 3 demoiselles - Passages difficiles - Gardiole - Aven des Marseillais - col de la Fenêtre - cirque des Pètelins - crête de l'Estret]]></desc>
  </metadata>
  <trk>
    <name><![CDATA[Cassis - Gardiole - aven marseillais - Pételin 2025-10-18-01]]></name>
    <trkseg>
      <trkpt lat="43.23712" lon="5.49996">
        <ele>276.8</ele>
        <time>2025-10-18T07:00:33Z</time>
      </trkpt>
      <trkpt lat="43.23712" lon="5.49996">
        <ele>276.8</ele>
        <time>2025-10-18T07:00:34Z</time>
      </trkpt>
      <trkpt lat="43.23712" lon="5.49996">
        <ele>276.8</ele>
        <time>2025-10-18T07:00:35Z</time>
      </trkpt>
      <trkpt lat="43.23712" lon="5.49996">
        <ele>276.8</ele>
        <time>2025-10-18T07:00:36Z</time>
      </trkpt>
      <trkpt lat="43.23712" lon="5.49996">
        <ele>276.8</ele>
        <time>2025-10-18T07:00:37Z</time>
      </trkpt>
      <trkpt lat="43.23712" lon="5.49996">
        <ele>276.7</ele>
        <time>2025-10-18T07:00:38Z</time>
      </trkpt>
      <trkpt lat="43.23712" lon="5.49996">
        <ele>276.8</ele>
        <time>2025-10-18T07:00:39Z</time>
      </trkpt>
      <trkpt lat="43.23712" lon="5.49996">
        <ele>276.8</ele>
        <time>2025-10-18T07:00:40Z</time>
      </trkpt>
      <trkpt lat="43.23712" lon="5.49996">
        <ele>276.8</ele>
        <time>2025-10-18T07:00:41Z</time>
      </trkpt>
      <trkpt lat="43.23711" lon="5.49996">
        <ele>276.8</ele>
        <time>2025-10-18T07:00:42Z</time>
      </trkpt>
      <trkpt lat="43.23712" lon="5.49996">
        <ele>276.8</ele>
        <time>2025-10-18T07:00:43Z</time>
      </trkpt>
      <trkpt lat="43.23711" lon="5.49996">
        <ele>276.9</ele>
        <time>2025-10-18T07:00:44Z</time>
      </trkpt>
      <trkpt lat="43.23711" lon="5.49997">
        <ele>276.9</ele>
        <time>2025-10-18T07:00:45Z</time>
      </trkpt>
      <trkpt lat="43.23711" lon="5.49997">
        <ele>276.9</ele>
        <time>2025-10-18T07:00:46Z</time>
      </trkpt>
      <trkpt lat="43.23711" lon="5.49997">
        <ele>276.9</ele>
        <time>2025-10-18T07:00:47Z</time>
      </trkpt>
      <trkpt lat="43.23711" lon="5.49997">
        <ele>276.9</ele>
        <time>2025-10-18T07:00:48Z</time>
      </trkpt>
      <trkpt lat="43.23711" lon="5.49996">
        <ele>276.9</ele>
        <time>2025-10-18T07:00:49Z</time>
      </trkpt>
      <trkpt lat="43.23711" lon="5.49997">
        <ele>276.9</ele>
        <time>2025-10-18T07:00:50Z</time>
      </trkpt>
      <trkpt lat="43.23712" lon="5.49996">
        <ele>276.8</ele>
        <time>2025-10-18T07:00:51Z</time>
      </trkpt>
      <trkpt lat="43.23712" lon="5.49996">
        <ele>276.8</ele>
        <time>2025-10-18T07:00:52Z</time>
      </trkpt>
      <trkpt lat="43.23712" lon="5.49996">
        <ele>276.9</ele>
        <time>2025-10-18T07:00:53Z</time>
      </trkpt>
      <trkpt lat="43.23712" lon="5.49996">
        <ele>276.8</ele>
        <time>2025-10-18T07:00:54Z</time>
      </trkpt>
      <trkpt lat="43.23712" lon="5.49996">
        <ele>276.8</ele>
        <time>2025-10-18T07:00:55Z</time>
      </trkpt>
      <trkpt lat="43.23712" lon="5.49996">
        <ele>276.8</ele>
        <time>2025-10-18T07:00:56Z</time>
      </trkpt>
      <trkpt lat="43.23713" lon="5.49996">
        <ele>276.7</ele>
        <time>2025-10-18T07:00:57Z</time>
      </trkpt>
      <trkpt lat="43.23713" lon="5.49996">
        <ele>276.7</ele>
        <time>2025-10-18T07:00:58Z</time>
      </trkpt>
      <trkpt lat="43.23712" lon="5.49996">
        <ele>276.7</ele>
        <time>2025-10-18T07:00:59Z</time>
      </trkpt>
      <trkpt lat="43.23712" lon="5.49995">
        <ele>276.8</ele>
        <time>2025-10-18T07:01:00Z</time>
      </trkpt>
      <trkpt lat="43.23712" lon="5.49996">
        <ele>276.7</ele>
        <time>2025-10-18T07:01:01Z</time>
      </trkpt>
      <trkpt lat="43.23712" lon="5.49996">
        <ele>276.7</ele>
        <time>2025-10-18T07:01:02Z</time>
      </trkpt>
      <trkpt lat="43.23712" lon="5.49996">
        <ele>276.6</ele>
        <time>2025-10-18T07:01:03Z</time>
      </trkpt>
      <trkpt lat="43.23712" lon="5.49995">
        <ele>276.6</ele>
        <time>2025-10-18T07:01:04Z</time>
      </trkpt>
      <trkpt lat="43.23713" lon="5.49994">
        <ele>276.5</ele>
        <time>2025-10-18T07:01:05Z</time>
      </trkpt>
      <trkpt lat="43.23713" lon="5.49995">
        <ele>276.4</ele>
        <time>2025-10-18T07:01:06Z</time>
      </trkpt>
      <trkpt lat="43.23713" lon="5.49995">
        <ele>276.4</ele>
        <time>2025-10-18T07:01:07Z</time>
      </trkpt>
      <trkpt lat="43.23714" lon="5.49995">
        <ele>276.4</ele>
        <time>2025-10-18T07:01:08Z</time>
      </trkpt>
      <trkpt lat="43.23714" lon="5.49995">
        <ele>276.5</ele>
        <time>2025-10-18T07:01:09Z</time>
      </trkpt>
      <trkpt lat="43.23714" lon="5.49995">
        <ele>276.5</ele>
        <time>2025-10-18T07:01:10Z</time>
      </trkpt>
      <trkpt lat="43.23714" lon="5.49995">
        <ele>276.6</ele>
        <time>2025-10-18T07:01:11Z</time>
      </trkpt>
      <trkpt lat="43.23714" lon="5.49995">
        <ele>276.6</ele>
        <time>2025-10-18T07:01:12Z</time>
      </trkpt>
      <trkpt lat="43.23714" lon="5.49995">
        <ele>276.5</ele>
        <time>2025-10-18T07:01:13Z</time>
      </trkpt>
      <trkpt lat="43.23714" lon="5.49995">
        <ele>276.5</ele>
        <time>2025-10-18T07:01:14Z</time>
      </trkpt>
      <trkpt lat="43.23715" lon="5.49995">
        <ele>276.5</ele>
        <time>2025-10-18T07:01:15Z</time>
      </trkpt>
      <trkpt lat="43.23715" lon="5.49995">
        <ele>276.6</ele>
        <time>2025-10-18T07:01:16Z</time>
      </trkpt>
      <trkpt lat="43.23715" lon="5.49995">
        <ele>276.6</ele>
        <time>2025-10-18T07:01:17Z</time>
      </trkpt>
      <trkpt lat="43.23715" lon="5.49995">
        <ele>276.6</ele>
        <time>2025-10-18T07:01:18Z</time>
      </trkpt>
      <trkpt lat="43.23715" lon="5.49995">
        <ele>276.5</ele>
        <time>2025-10-18T07:01:19Z</time>
      </trkpt>
      <trkpt lat="43.23715" lon="5.49995">
        <ele>276.5</ele>
        <time>2025-10-18T07:01:20Z</time>
      </trkpt>
      <trkpt lat="43.23715" lon="5.49995">
        <ele>276.5</ele>
        <time>2025-10-18T07:01:21Z</time>
      </trkpt>
      <trkpt lat="43.23715" lon="5.49995">
        <ele>276.5</ele>
        <time>2025-10-18T07:01:22Z</time>
      </trkpt>
      <trkpt lat="43.23715" lon="5.49995">
        <ele>276.4</ele>
        <time>2025-10-18T07:01:23Z</time>
      </trkpt>
      <trkpt lat="43.23715" lon="5.49995">
        <ele>276.3</ele>
        <time>2025-10-18T07:01:24Z</time>
      </trkpt>
      <trkpt lat="43.23715" lon="5.49994">
        <ele>276.3</ele>
        <time>2025-10-18T07:01:25Z</time>
      </trkpt>
      <trkpt lat="43.23715" lon="5.49994">
        <ele>276.3</ele>
        <time>2025-10-18T07:01:26Z</time>
      </trkpt>
      <trkpt lat="43.23715" lon="5.49994">
        <ele>276.2</ele>
        <time>2025-10-18T07:01:27Z</time>
      </trkpt>
      <trkpt lat="43.23715" lon="5.49994">
        <ele>276.2</ele>
        <time>2025-10-18T07:01:28Z</time>
      </trkpt>
      <trkpt lat="43.23715" lon="5.49994">
        <ele>276.2</ele>
        <time>2025-10-18T07:01:29Z</time>
      </trkpt>
      <trkpt lat="43.23715" lon="5.49994">
        <ele>276.2</ele>
        <time>2025-10-18T07:01:30Z</time>
      </trkpt>
      <trkpt lat="43.23715" lon="5.49994">
        <ele>276.2</ele>
        <time>2025-10-18T07:01:31Z</time>
      </trkpt>
      <trkpt lat="43.23715" lon="5.49994">
        <ele>276.2</ele>
        <time>2025-10-18T07:01:32Z</time>
      </trkpt>
      <trkpt lat="43.23715" lon="5.49994">
        <ele>276.2</ele>
        <time>2025-10-18T07:01:33Z</time>
      </trkpt>
      <trkpt lat="43.23715" lon="5.49994">
        <ele>276.2</ele>
        <time>2025-10-18T07:01:34Z</time>
      </trkpt>
      <trkpt lat="43.23715" lon="5.49994">
        <ele>276.2</ele>
        <time>2025-10-18T07:01:35Z</time>
      </trkpt>
      <trkpt lat="43.23715" lon="5.49993">
        <ele>276.3</ele>
        <time>2025-10-18T07:01:36Z</time>
      </trkpt>
      <trkpt lat="43.23716" lon="5.49993">
        <ele>276.3</ele>
        <time>2025-10-18T07:01:37Z</time>
      </trkpt>
      <trkpt lat="43.23716" lon="5.49993">
        <ele>276.3</ele>
        <time>2025-10-18T07:01:38Z</time>
      </trkpt>
      <trkpt lat="43.23716" lon="5.49993">
        <ele>276.4</ele>
        <time>2025-10-18T07:01:39Z</time>
      </trkpt>
      <trkpt lat="43.23716" lon="5.49993">
        <ele>276.5</ele>
        <time>2025-10-18T07:01:40Z</time>
      </trkpt>
      <trkpt lat="43.23716" lon="5.49993">
        <ele>276.5</ele>
        <time>2025-10-18T07:01:41Z</time>
      </trkpt>
      <trkpt lat="43.23716" lon="5.49994">
        <ele>276.6</ele>
        <time>2025-10-18T07:01:42Z</time>
      </trkpt>
      <trkpt lat="43.23716" lon="5.49994">
        <ele>276.6</ele>
        <time>2025-10-18T07:01:43Z</time>
      </trkpt>
      <trkpt lat="43.23716" lon="5.49994">
        <ele>276.5</ele>
        <time>2025-10-18T07:01:44Z</time>
      </trkpt>
      <trkpt lat="43.23716" lon="5.49994">
        <ele>276.5</ele>
        <time>2025-10-18T07:01:45Z</time>
      </trkpt>
      <trkpt lat="43.23716" lon="5.49994">
        <ele>276.5</ele>
        <time>2025-10-18T07:01:46Z</time>
      </trkpt>
      <trkpt lat="43.23716" lon="5.49994">
        <ele>276.5</ele>
        <time>2025-10-18T07:01:47Z</time>
      </trkpt>
      <trkpt lat="43.23716" lon="5.49994">
        <ele>276.6</ele>
        <time>2025-10-18T07:01:48Z</time>
      </trkpt>
      <trkpt lat="43.23715" lon="5.49994">
        <ele>276.5</ele>
        <time>2025-10-18T07:01:49Z</time>
      </trkpt>
      <trkpt lat="43.23715" lon="5.49994">
        <ele>276.5</ele>
        <time>2025-10-18T07:01:50Z</time>
      </trkpt>
      <trkpt lat="43.23715" lon="5.49994">
        <ele>276.5</ele>
        <time>2025-10-18T07:01:51Z</time>
      </trkpt>
      <trkpt lat="43.23715" lon="5.49994">
        <ele>276.5</ele>
        <time>2025-10-18T07:01:52Z</time>
      </trkpt>
      <trkpt lat="43.23715" lon="5.49994">
        <ele>276.5</ele>
        <time>2025-10-18T07:01:53Z</time>
      </trkpt>
      <trkpt lat="43.23715" lon="5.49994">
        <ele>276.5</ele>
        <time>2025-10-18T07:01:54Z</time>
      </trkpt>
      <trkpt lat="43.23715" lon="5.49994">
        <ele>276.6</ele>
        <time>2025-10-18T07:01:55Z</time>
      </trkpt>
      <trkpt lat="43.23715" lon="5.49994">
        <ele>276.5</ele>
        <time>2025-10-18T07:01:56Z</time>
      </trkpt>
      <trkpt lat="43.23715" lon="5.49994">
        <ele>276.5</ele>
        <time>2025-10-18T07:01:57Z</time>
      </trkpt>
      <trkpt lat="43.23715" lon="5.49994">
        <ele>276.5</ele>
        <time>2025-10-18T07:01:58Z</time>
      </trkpt>
      <trkpt lat="43.23715" lon="5.49994">
        <ele>276.5</ele>
        <time>2025-10-18T07:01:59Z</time>
      </trkpt>
      <trkpt lat="43.23715" lon="5.49994">
        <ele>276.4</ele>
        <time>2025-10-18T07:02:00Z</time>
      </trkpt>
      <trkpt lat="43.23715" lon="5.49994">
        <ele>276.4</ele>
        <time>2025-10-18T07:02:01Z</time>
      </trkpt>
      <trkpt lat="43.23715" lon="5.49994">
        <ele>276.4</ele>
        <time>2025-10-18T07:02:02Z</time>
      </trkpt>
      <trkpt lat="43.23715" lon="5.49995">
        <ele>276.4</ele>
        <time>2025-10-18T07:02:03Z</time>
      </trkpt>
      <trkpt lat="43.23715" lon="5.49994">
        <ele>276.5</ele>
        <time>2025-10-18T07:02:04Z</time>
      </trkpt>
      <trkpt lat="43.23715" lon="5.49994">
        <ele>276.5</ele>
        <time>2025-10-18T07:02:05Z</time>
      </trkpt>
      <trkpt lat="43.23715" lon="5.49994">
        <ele>276.5</ele>
        <time>2025-10-18T07:02:06Z</time>
      </trkpt>
      <trkpt lat="43.23715" lon="5.49994">
        <ele>276.5</ele>
        <time>2025-10-18T07:02:07Z</time>
      </trkpt>
      <trkpt lat="43.23715" lon="5.49994">
        <ele>276.6</ele>
        <time>2025-10-18T07:02:08Z</time>
      </trkpt>
      <trkpt lat="43.23715" lon="5.49994">
        <ele>276.6</ele>
        <time>2025-10-18T07:02:09Z</time>
      </trkpt>
      <trkpt lat="43.23715" lon="5.49994">
        <ele>276.6</ele>
        <time>2025-10-18T07:02:10Z</time>
      </trkpt>
      <trkpt lat="43.23715" lon="5.49994">
        <ele>276.7</ele>
        <time>2025-10-18T07:02:11Z</time>
      </trkpt>
      <trkpt lat="43.23715" lon="5.49994">
        <ele>276.6</ele>
        <time>2025-10-18T07:02:12Z</time>
      </trkpt>
      <trkpt lat="43.23715" lon="5.49994">
        <ele>276.6</ele>
        <time>2025-10-18T07:02:13Z</time>
      </trkpt>
      <trkpt lat="43.23715" lon="5.49994">
        <ele>276.6</ele>
        <time>2025-10-18T07:02:14Z</time>
      </trkpt>
      <trkpt lat="43.23715" lon="5.49994">
        <ele>276.6</ele>
        <time>2025-10-18T07:02:15Z</time>
      </trkpt>
      <trkpt lat="43.23715" lon="5.49994">
        <ele>276.6</ele>
        <time>2025-10-18T07:02:16Z</time>
      </trkpt>
      <trkpt lat="43.23714" lon="5.49994">
        <ele>276.6</ele>
        <time>2025-10-18T07:02:17Z</time>
      </trkpt>
      <trkpt lat="43.23714" lon="5.49994">
        <ele>276.6</ele>
        <time>2025-10-18T07:02:18Z</time>
      </trkpt>
      <trkpt lat="43.23714" lon="5.49994">
        <ele>276.6</ele>
        <time>2025-10-18T07:02:19Z</time>
      </trkpt>
      <trkpt lat="43.23714" lon="5.49994">
        <ele>276.6</ele>
        <time>2025-10-18T07:02:20Z</time>
      </trkpt>
      <trkpt lat="43.23714" lon="5.49994">
        <ele>276.6</ele>
        <time>2025-10-18T07:02:21Z</time>
      </trkpt>
      <trkpt lat="43.23715" lon="5.49994">
        <ele>276.6</ele>
        <time>2025-10-18T07:02:22Z</time>
      </trkpt>
      <trkpt lat="43.23715" lon="5.49994">
        <ele>276.5</ele>
        <time>2025-10-18T07:02:23Z</time>
      </trkpt>
      <trkpt lat="43.23715" lon="5.49994">
        <ele>276.5</ele>
        <time>2025-10-18T07:02:24Z</time>
      </trkpt>
      <trkpt lat="43.23715" lon="5.49994">
        <ele>276.6</ele>
        <time>2025-10-18T07:02:25Z</time>
      </trkpt>
      <trkpt lat="43.23715" lon="5.49994">
        <ele>276.6</ele>
        <time>2025-10-18T07:02:26Z</time>
      </trkpt>
      <trkpt lat="43.23715" lon="5.49993">
        <ele>276.6</ele>
        <time>2025-10-18T07:02:27Z</time>
      </trkpt>
      <trkpt lat="43.23715" lon="5.49992">
        <ele>276.5</ele>
        <time>2025-10-18T07:02:28Z</time>
      </trkpt>
      <trkpt lat="43.23714" lon="5.49992">
        <ele>276.5</ele>
        <time>2025-10-18T07:02:29Z</time>
      </trkpt>
      <trkpt lat="43.23713" lon="5.49992">
        <ele>276.5</ele>
        <time>2025-10-18T07:02:30Z</time>
      </trkpt>
      <trkpt lat="43.23713" lon="5.49992">
        <ele>276.4</ele>
        <time>2025-10-18T07:02:31Z</time>
      </trkpt>
      <trkpt lat="43.23713" lon="5.49992">
        <ele>276.4</ele>
        <time>2025-10-18T07:02:32Z</time>
      </trkpt>
      <trkpt lat="43.23713" lon="5.49992">
        <ele>276.4</ele>
        <time>2025-10-18T07:02:33Z</time>
      </trkpt>
      <trkpt lat="43.23712" lon="5.49991">
        <ele>276.4</ele>
        <time>2025-10-18T07:02:34Z</time>
      </trkpt>
      <trkpt lat="43.23712" lon="5.49991">
        <ele>276.4</ele>
        <time>2025-10-18T07:02:35Z</time>
      </trkpt>
      <trkpt lat="43.23712" lon="5.49991">
        <ele>276.4</ele>
        <time>2025-10-18T07:02:36Z</time>
      </trkpt>
      <trkpt lat="43.23712" lon="5.49991">
        <ele>276.3</ele>
        <time>2025-10-18T07:02:37Z</time>
      </trkpt>
      <trkpt lat="43.23712" lon="5.49991">
        <ele>276.3</ele>
        <time>2025-10-18T07:02:38Z</time>
      </trkpt>
      <trkpt lat="43.23711" lon="5.49991">
        <ele>276.3</ele>
        <time>2025-10-18T07:02:39Z</time>
      </trkpt>
      <trkpt lat="43.23711" lon="5.49991">
        <ele>276.3</ele>
        <time>2025-10-18T07:02:40Z</time>
      </trkpt>
      <trkpt lat="43.23711" lon="5.49991">
        <ele>276.4</ele>
        <time>2025-10-18T07:02:41Z</time>
      </trkpt>
      <trkpt lat="43.23711" lon="5.49991">
        <ele>276.4</ele>
        <time>2025-10-18T07:02:42Z</time>
      </trkpt>
      <trkpt lat="43.23711" lon="5.49991">
        <ele>276.5</ele>
        <time>2025-10-18T07:02:43Z</time>
      </trkpt>
      <trkpt lat="43.23711" lon="5.49991">
        <ele>276.5</ele>
        <time>2025-10-18T07:02:44Z</time>
      </trkpt>
      <trkpt lat="43.23711" lon="5.49992">
        <ele>276.5</ele>
        <time>2025-10-18T07:02:45Z</time>
      </trkpt>
      <trkpt lat="43.2371" lon="5.49992">
        <ele>276.4</ele>
        <time>2025-10-18T07:02:46Z</time>
      </trkpt>
      <trkpt lat="43.23711" lon="5.49992">
        <ele>276.4</ele>
        <time>2025-10-18T07:02:47Z</time>
      </trkpt>
      <trkpt lat="43.2371" lon="5.49992">
        <ele>276.4</ele>
        <time>2025-10-18T07:02:48Z</time>
      </trkpt>
      <trkpt lat="43.2371" lon="5.49992">
        <ele>276.4</ele>
        <time>2025-10-18T07:02:49Z</time>
      </trkpt>
      <trkpt lat="43.2371" lon="5.49992">
        <ele>276.4</ele>
        <time>2025-10-18T07:02:50Z</time>
      </trkpt>
      <trkpt lat="43.2371" lon="5.49992">
        <ele>276.5</ele>
        <time>2025-10-18T07:02:51Z</time>
      </trkpt>
      <trkpt lat="43.2371" lon="5.49992">
        <ele>276.5</ele>
        <time>2025-10-18T07:02:52Z</time>
      </trkpt>
      <trkpt lat="43.2371" lon="5.49992">
        <ele>276.5</ele>
        <time>2025-10-18T07:02:53Z</time>
      </trkpt>
      <trkpt lat="43.23709" lon="5.49992">
        <ele>276.5</ele>
        <time>2025-10-18T07:02:54Z</time>
      </trkpt>
      <trkpt lat="43.23709" lon="5.49992">
        <ele>276.5</ele>
        <time>2025-10-18T07:02:55Z</time>
      </trkpt>
      <trkpt lat="43.23709" lon="5.49992">
        <ele>276.6</ele>
        <time>2025-10-18T07:02:56Z</time>
      </trkpt>
      <trkpt lat="43.2371" lon="5.49992">
        <ele>276.6</ele>
        <time>2025-10-18T07:02:57Z</time>
      </trkpt>
      <trkpt lat="43.2371" lon="5.49992">
        <ele>276.6</ele>
        <time>2025-10-18T07:02:58Z</time>
      </trkpt>
      <trkpt lat="43.2371" lon="5.49992">
        <ele>276.6</ele>
        <time>2025-10-18T07:02:59Z</time>
      </trkpt>
      <trkpt lat="43.23711" lon="5.49992">
        <ele>276.6</ele>
        <time>2025-10-18T07:03:00Z</time>
      </trkpt>
      <trkpt lat="43.23711" lon="5.49992">
        <ele>276.6</ele>
        <time>2025-10-18T07:03:01Z</time>
      </trkpt>
      <trkpt lat="43.23711" lon="5.49992">
        <ele>276.6</ele>
        <time>2025-10-18T07:03:02Z</time>
      </trkpt>
      <trkpt lat="43.23712" lon="5.49991">
        <ele>276.6</ele>
        <time>2025-10-18T07:03:03Z</time>
      </trkpt>
      <trkpt lat="43.23712" lon="5.49991">
        <ele>276.7</ele>
        <time>2025-10-18T07:03:04Z</time>
      </trkpt>
      <trkpt lat="43.23712" lon="5.49991">
        <ele>276.6</ele>
        <time>2025-10-18T07:03:05Z</time>
      </trkpt>
      <trkpt lat="43.23712" lon="5.4999">
        <ele>276.5</ele>
        <time>2025-10-18T07:03:06Z</time>
      </trkpt>
      <trkpt lat="43.23712" lon="5.4999">
        <ele>276.5</ele>
        <time>2025-10-18T07:03:07Z</time>
      </trkpt>
      <trkpt lat="43.23712" lon="5.4999">
        <ele>276.4</ele>
        <time>2025-10-18T07:03:08Z</time>
      </trkpt>
      <trkpt lat="43.23712" lon="5.49991">
        <ele>276.4</ele>
        <time>2025-10-18T07:03:09Z</time>
      </trkpt>
      <trkpt lat="43.23712" lon="5.49992">
        <ele>276.4</ele>
        <time>2025-10-18T07:03:10Z</time>
      </trkpt>
      <trkpt lat="43.23712" lon="5.49993">
        <ele>276.4</ele>
        <time>2025-10-18T07:03:11Z</time>
      </trkpt>
      <trkpt lat="43.23711" lon="5.49993">
        <ele>276.3</ele>
        <time>2025-10-18T07:03:12Z</time>
      </trkpt>
      <trkpt lat="43.23711" lon="5.49994">
        <ele>276.3</ele>
        <time>2025-10-18T07:03:13Z</time>
      </trkpt>
      <trkpt lat="43.23711" lon="5.49995">
        <ele>276.3</ele>
        <time>2025-10-18T07:03:14Z</time>
      </trkpt>
      <trkpt lat="43.23711" lon="5.49996">
        <ele>276.2</ele>
        <time>2025-10-18T07:03:15Z</time>
      </trkpt>
      <trkpt lat="43.23711" lon="5.49997">
        <ele>276.2</ele>
        <time>2025-10-18T07:03:16Z</time>
      </trkpt>
      <trkpt lat="43.23711" lon="5.49997">
        <ele>276.3</ele>
        <time>2025-10-18T07:03:17Z</time>
      </trkpt>
      <trkpt lat="43.23711" lon="5.49998">
        <ele>276.3</ele>
        <time>2025-10-18T07:03:18Z</time>
      </trkpt>
      <trkpt lat="43.23711" lon="5.49998">
        <ele>276.3</ele>
        <time>2025-10-18T07:03:19Z</time>
      </trkpt>
      <trkpt lat="43.23711" lon="5.49999">
        <ele>276.3</ele>
        <time>2025-10-18T07:03:20Z</time>
      </trkpt>
      <trkpt lat="43.23712" lon="5.49999">
        <ele>276.3</ele>
        <time>2025-10-18T07:03:21Z</time>
      </trkpt>
      <trkpt lat="43.23712" lon="5.49999">
        <ele>276.3</ele>
        <time>2025-10-18T07:03:22Z</time>
      </trkpt>
      <trkpt lat="43.23712" lon="5.49999">
        <ele>276.3</ele>
        <time>2025-10-18T07:03:23Z</time>
      </trkpt>
      <trkpt lat="43.23712" lon="5.5">
        <ele>276.3</ele>
        <time>2025-10-18T07:03:24Z</time>
      </trkpt>
      <trkpt lat="43.23713" lon="5.5">
        <ele>276.4</ele>
        <time>2025-10-18T07:03:25Z</time>
      </trkpt>
      <trkpt lat="43.23713" lon="5.5">
        <ele>276.4</ele>
        <time>2025-10-18T07:03:26Z</time>
      </trkpt>
      <trkpt lat="43.23713" lon="5.5">
        <ele>276.4</ele>
        <time>2025-10-18T07:03:27Z</time>
      </trkpt>
      <trkpt lat="43.23713" lon="5.5">
        <ele>276.4</ele>
        <time>2025-10-18T07:03:28Z</time>
      </trkpt>
      <trkpt lat="43.23713" lon="5.5">
        <ele>276.4</ele>
        <time>2025-10-18T07:03:29Z</time>
      </trkpt>
      <trkpt lat="43.23713" lon="5.5">
        <ele>276.4</ele>
        <time>2025-10-18T07:03:30Z</time>
      </trkpt>
      <trkpt lat="43.23713" lon="5.5">
        <ele>276.4</ele>
        <time>2025-10-18T07:03:31Z</time>
      </trkpt>
      <trkpt lat="43.23713" lon="5.50001">
        <ele>276.4</ele>
        <time>2025-10-18T07:03:32Z</time>
      </trkpt>
      <trkpt lat="43.23713" lon="5.50001">
        <ele>276.3</ele>
        <time>2025-10-18T07:03:33Z</time>
      </trkpt>
      <trkpt lat="43.23713" lon="5.50001">
        <ele>276.3</ele>
        <time>2025-10-18T07:03:34Z</time>
      </trkpt>
      <trkpt lat="43.23713" lon="5.50001">
        <ele>276.3</ele>
        <time>2025-10-18T07:03:35Z</time>
      </trkpt>
      <trkpt lat="43.23714" lon="5.50001">
        <ele>276.3</ele>
        <time>2025-10-18T07:03:36Z</time>
      </trkpt>
      <trkpt lat="43.23714" lon="5.50001">
        <ele>276.4</ele>
        <time>2025-10-18T07:03:37Z</time>
      </trkpt>
      <trkpt lat="43.23714" lon="5.50001">
        <ele>276.4</ele>
        <time>2025-10-18T07:03:38Z</time>
      </trkpt>
      <trkpt lat="43.23713" lon="5.50001">
        <ele>276.5</ele>
        <time>2025-10-18T07:03:39Z</time>
      </trkpt>
      <trkpt lat="43.23714" lon="5.50001">
        <ele>276.5</ele>
        <time>2025-10-18T07:03:40Z</time>
      </trkpt>
      <trkpt lat="43.23714" lon="5.50001">
        <ele>276.4</ele>
        <time>2025-10-18T07:03:41Z</time>
      </trkpt>
      <trkpt lat="43.23714" lon="5.50001">
        <ele>276.4</ele>
        <time>2025-10-18T07:03:42Z</time>
      </trkpt>
      <trkpt lat="43.23714" lon="5.50001">
        <ele>276.4</ele>
        <time>2025-10-18T07:03:43Z</time>
      </trkpt>
      <trkpt lat="43.23714" lon="5.50001">
        <ele>276.4</ele>
        <time>2025-10-18T07:03:44Z</time>
      </trkpt>
      <trkpt lat="43.23714" lon="5.50001">
        <ele>276.5</ele>
        <time>2025-10-18T07:03:45Z</time>
      </trkpt>
      <trkpt lat="43.23714" lon="5.50001">
        <ele>276.5</ele>
        <time>2025-10-18T07:03:46Z</time>
      </trkpt>
      <trkpt lat="43.23714" lon="5.50002">
        <ele>276.5</ele>
        <time>2025-10-18T07:03:47Z</time>
      </trkpt>
      <trkpt lat="43.23714" lon="5.50002">
        <ele>276.6</ele>
        <time>2025-10-18T07:03:48Z</time>
      </trkpt>
      <trkpt lat="43.23714" lon="5.50002">
        <ele>276.6</ele>
        <time>2025-10-18T07:03:49Z</time>
      </trkpt>
      <trkpt lat="43.23714" lon="5.50002">
        <ele>276.6</ele>
        <time>2025-10-18T07:03:50Z</time>
      </trkpt>
      <trkpt lat="43.23714" lon="5.50002">
        <ele>276.6</ele>
        <time>2025-10-18T07:03:51Z</time>
      </trkpt>
      <trkpt lat="43.23714" lon="5.50002">
        <ele>276.6</ele>
        <time>2025-10-18T07:03:52Z</time>
      </trkpt>
      <trkpt lat="43.23714" lon="5.50002">
        <ele>276.6</ele>
        <time>2025-10-18T07:03:53Z</time>
      </trkpt>
      <trkpt lat="43.23714" lon="5.50001">
        <ele>276.6</ele>
        <time>2025-10-18T07:03:54Z</time>
      </trkpt>
      <trkpt lat="43.23714" lon="5.50002">
        <ele>276.5</ele>
        <time>2025-10-18T07:03:55Z</time>
      </trkpt>
      <trkpt lat="43.23715" lon="5.50002">
        <ele>276.4</ele>
        <time>2025-10-18T07:03:56Z</time>
      </trkpt>
      <trkpt lat="43.23715" lon="5.50002">
        <ele>276.5</ele>
        <time>2025-10-18T07:03:57Z</time>
      </trkpt>
      <trkpt lat="43.23714" lon="5.50002">
        <ele>276.5</ele>
        <time>2025-10-18T07:03:58Z</time>
      </trkpt>
      <trkpt lat="43.23715" lon="5.50002">
        <ele>276.5</ele>
        <time>2025-10-18T07:03:59Z</time>
      </trkpt>
      <trkpt lat="43.23715" lon="5.50002">
        <ele>276.5</ele>
        <time>2025-10-18T07:04:00Z</time>
      </trkpt>
      <trkpt lat="43.23715" lon="5.50002">
        <ele>276.4</ele>
        <time>2025-10-18T07:04:01Z</time>
      </trkpt>
      <trkpt lat="43.23715" lon="5.50002">
        <ele>276.4</ele>
        <time>2025-10-18T07:04:02Z</time>
      </trkpt>
      <trkpt lat="43.23715" lon="5.50002">
        <ele>276.3</ele>
        <time>2025-10-18T07:04:03Z</time>
      </trkpt>
      <trkpt lat="43.23715" lon="5.50002">
        <ele>276.3</ele>
        <time>2025-10-18T07:04:04Z</time>
      </trkpt>
      <trkpt lat="43.23715" lon="5.50002">
        <ele>276.3</ele>
        <time>2025-10-18T07:04:05Z</time>
      </trkpt>
      <trkpt lat="43.23715" lon="5.50002">
        <ele>276.3</ele>
        <time>2025-10-18T07:04:06Z</time>
      </trkpt>
      <trkpt lat="43.23715" lon="5.50002">
        <ele>276.3</ele>
        <time>2025-10-18T07:04:07Z</time>
      </trkpt>
      <trkpt lat="43.23715" lon="5.50001">
        <ele>276.4</ele>
        <time>2025-10-18T07:04:08Z</time>
      </trkpt>
      <trkpt lat="43.23715" lon="5.50001">
        <ele>276.3</ele>
        <time>2025-10-18T07:04:09Z</time>
      </trkpt>
      <trkpt lat="43.23715" lon="5.50002">
        <ele>276.3</ele>
        <time>2025-10-18T07:04:10Z</time>
      </trkpt>
      <trkpt lat="43.23715" lon="5.50002">
        <ele>276.2</ele>
        <time>2025-10-18T07:04:11Z</time>
      </trkpt>
      <trkpt lat="43.23715" lon="5.50001">
        <ele>276.2</ele>
        <time>2025-10-18T07:04:12Z</time>
      </trkpt>
      <trkpt lat="43.23715" lon="5.50001">
        <ele>276.2</ele>
        <time>2025-10-18T07:04:13Z</time>
      </trkpt>
      <trkpt lat="43.23715" lon="5.50001">
        <ele>276.2</ele>
        <time>2025-10-18T07:04:14Z</time>
      </trkpt>
      <trkpt lat="43.23715" lon="5.50001">
        <ele>276.2</ele>
        <time>2025-10-18T07:04:15Z</time>
      </trkpt>
      <trkpt lat="43.23715" lon="5.50001">
        <ele>276.2</ele>
        <time>2025-10-18T07:04:16Z</time>
      </trkpt>
      <trkpt lat="43.23715" lon="5.50001">
        <ele>276.2</ele>
        <time>2025-10-18T07:04:17Z</time>
      </trkpt>
      <trkpt lat="43.23715" lon="5.50001">
        <ele>276.1</ele>
        <time>2025-10-18T07:04:18Z</time>
      </trkpt>
      <trkpt lat="43.23715" lon="5.50001">
        <ele>276.2</ele>
        <time>2025-10-18T07:04:19Z</time>
      </trkpt>
      <trkpt lat="43.23715" lon="5.50001">
        <ele>276.2</ele>
        <time>2025-10-18T07:04:20Z</time>
      </trkpt>
      <trkpt lat="43.23715" lon="5.50001">
        <ele>276.2</ele>
        <time>2025-10-18T07:04:21Z</time>
      </trkpt>
      <trkpt lat="43.23715" lon="5.50001">
        <ele>276.3</ele>
        <time>2025-10-18T07:04:22Z</time>
      </trkpt>
      <trkpt lat="43.23715" lon="5.50001">
        <ele>276.2</ele>
        <time>2025-10-18T07:04:23Z</time>
      </trkpt>
      <trkpt lat="43.23715" lon="5.50001">
        <ele>276.3</ele>
        <time>2025-10-18T07:04:24Z</time>
      </trkpt>
      <trkpt lat="43.23715" lon="5.50001">
        <ele>276.2</ele>
        <time>2025-10-18T07:04:25Z</time>
      </trkpt>
      <trkpt lat="43.23715" lon="5.50002">
        <ele>276.2</ele>
        <time>2025-10-18T07:04:26Z</time>
      </trkpt>
      <trkpt lat="43.23715" lon="5.50002">
        <ele>276.2</ele>
        <time>2025-10-18T07:04:27Z</time>
      </trkpt>
      <trkpt lat="43.23715" lon="5.50002">
        <ele>276.2</ele>
        <time>2025-10-18T07:04:28Z</time>
      </trkpt>
      <trkpt lat="43.23715" lon="5.50002">
        <ele>276.1</ele>
        <time>2025-10-18T07:04:29Z</time>
      </trkpt>
      <trkpt lat="43.23715" lon="5.50003">
        <ele>276.1</ele>
        <time>2025-10-18T07:04:30Z</time>
      </trkpt>
      <trkpt lat="43.23715" lon="5.50003">
        <ele>276.1</ele>
        <time>2025-10-18T07:04:31Z</time>
      </trkpt>
      <trkpt lat="43.23715" lon="5.50003">
        <ele>276.1</ele>
        <time>2025-10-18T07:04:32Z</time>
      </trkpt>
      <trkpt lat="43.23715" lon="5.50004">
        <ele>276.1</ele>
        <time>2025-10-18T07:04:33Z</time>
      </trkpt>
      <trkpt lat="43.23715" lon="5.50004">
        <ele>276.1</ele>
        <time>2025-10-18T07:04:34Z</time>
      </trkpt>
      <trkpt lat="43.23715" lon="5.50004">
        <ele>276.3</ele>
        <time>2025-10-18T07:04:35Z</time>
      </trkpt>
      <trkpt lat="43.23715" lon="5.50004">
        <ele>276.2</ele>
        <time>2025-10-18T07:04:36Z</time>
      </trkpt>
      <trkpt lat="43.23715" lon="5.50005">
        <ele>276.3</ele>
        <time>2025-10-18T07:04:37Z</time>
      </trkpt>
      <trkpt lat="43.23715" lon="5.50005">
        <ele>276.4</ele>
        <time>2025-10-18T07:04:38Z</time>
      </trkpt>
      <trkpt lat="43.23715" lon="5.50005">
        <ele>276.4</ele>
        <time>2025-10-18T07:04:39Z</time>
      </trkpt>
      <trkpt lat="43.23715" lon="5.50005">
        <ele>276.4</ele>
        <time>2025-10-18T07:04:40Z</time>
      </trkpt>
      <trkpt lat="43.23715" lon="5.50005">
        <ele>276.4</ele>
        <time>2025-10-18T07:04:41Z</time>
      </trkpt>
      <trkpt lat="43.23715" lon="5.50005">
        <ele>276.4</ele>
        <time>2025-10-18T07:04:42Z</time>
      </trkpt>
      <trkpt lat="43.23715" lon="5.50005">
        <ele>276.4</ele>
        <time>2025-10-18T07:04:43Z</time>
      </trkpt>
      <trkpt lat="43.23715" lon="5.50005">
        <ele>276.4</ele>
        <time>2025-10-18T07:04:44Z</time>
      </trkpt>
      <trkpt lat="43.23715" lon="5.50006">
        <ele>276.4</ele>
        <time>2025-10-18T07:04:45Z</time>
      </trkpt>
      <trkpt lat="43.23715" lon="5.50006">
        <ele>276.3</ele>
        <time>2025-10-18T07:04:46Z</time>
      </trkpt>
      <trkpt lat="43.23715" lon="5.50006">
        <ele>276.3</ele>
        <time>2025-10-18T07:04:47Z</time>
      </trkpt>
      <trkpt lat="43.23715" lon="5.50006">
        <ele>276.3</ele>
        <time>2025-10-18T07:04:48Z</time>
      </trkpt>
      <trkpt lat="43.23715" lon="5.50006">
        <ele>276.3</ele>
        <time>2025-10-18T07:04:49Z</time>
      </trkpt>
      <trkpt lat="43.23715" lon="5.50006">
        <ele>276.3</ele>
        <time>2025-10-18T07:04:50Z</time>
      </trkpt>
      <trkpt lat="43.23715" lon="5.50006">
        <ele>276.4</ele>
        <time>2025-10-18T07:04:51Z</time>
      </trkpt>
      <trkpt lat="43.23715" lon="5.50006">
        <ele>276.5</ele>
        <time>2025-10-18T07:04:52Z</time>
      </trkpt>
      <trkpt lat="43.23715" lon="5.50006">
        <ele>276.5</ele>
        <time>2025-10-18T07:04:53Z</time>
      </trkpt>
      <trkpt lat="43.23715" lon="5.50006">
        <ele>276.5</ele>
        <time>2025-10-18T07:04:54Z</time>
      </trkpt>
      <trkpt lat="43.23715" lon="5.50007">
        <ele>276.5</ele>
        <time>2025-10-18T07:04:55Z</time>
      </trkpt>
      <trkpt lat="43.23715" lon="5.50007">
        <ele>276.5</ele>
        <time>2025-10-18T07:04:56Z</time>
      </trkpt>
      <trkpt lat="43.23715" lon="5.50007">
        <ele>276.6</ele>
        <time>2025-10-18T07:04:57Z</time>
      </trkpt>
      <trkpt lat="43.23715" lon="5.50007">
        <ele>276.6</ele>
        <time>2025-10-18T07:04:58Z</time>
      </trkpt>
      <trkpt lat="43.23715" lon="5.50007">
        <ele>276.6</ele>
        <time>2025-10-18T07:04:59Z</time>
      </trkpt>
      <trkpt lat="43.23715" lon="5.50007">
        <ele>276.6</ele>
        <time>2025-10-18T07:05:00Z</time>
      </trkpt>
      <trkpt lat="43.23715" lon="5.50007">
        <ele>276.6</ele>
        <time>2025-10-18T07:05:01Z</time>
      </trkpt>
      <trkpt lat="43.23715" lon="5.50007">
        <ele>276.6</ele>
        <time>2025-10-18T07:05:02Z</time>
      </trkpt>
      <trkpt lat="43.23715" lon="5.50007">
        <ele>276.6</ele>
        <time>2025-10-18T07:05:03Z</time>
      </trkpt>
      <trkpt lat="43.23715" lon="5.50007">
        <ele>276.6</ele>
        <time>2025-10-18T07:05:04Z</time>
      </trkpt>
      <trkpt lat="43.23715" lon="5.50007">
        <ele>276.6</ele>
        <time>2025-10-18T07:05:05Z</time>
      </trkpt>
      <trkpt lat="43.23715" lon="5.50006">
        <ele>276.6</ele>
        <time>2025-10-18T07:05:06Z</time>
      </trkpt>
      <trkpt lat="43.23715" lon="5.50006">
        <ele>276.6</ele>
        <time>2025-10-18T07:05:07Z</time>
      </trkpt>
      <trkpt lat="43.23715" lon="5.50005">
        <ele>276.6</ele>
        <time>2025-10-18T07:05:08Z</time>
      </trkpt>
      <trkpt lat="43.23715" lon="5.50005">
        <ele>276.5</ele>
        <time>2025-10-18T07:05:09Z</time>
      </trkpt>
      <trkpt lat="43.23715" lon="5.50005">
        <ele>276.5</ele>
        <time>2025-10-18T07:05:10Z</time>
      </trkpt>
      <trkpt lat="43.23715" lon="5.50005">
        <ele>276.4</ele>
        <time>2025-10-18T07:05:11Z</time>
      </trkpt>
      <trkpt lat="43.23715" lon="5.50005">
        <ele>276.4</ele>
        <time>2025-10-18T07:05:12Z</time>
      </trkpt>
      <trkpt lat="43.23715" lon="5.50005">
        <ele>276.4</ele>
        <time>2025-10-18T07:05:13Z</time>
      </trkpt>
      <trkpt lat="43.23715" lon="5.50005">
        <ele>276.4</ele>
        <time>2025-10-18T07:05:14Z</time>
      </trkpt>
      <trkpt lat="43.23715" lon="5.50005">
        <ele>276.4</ele>
        <time>2025-10-18T07:05:15Z</time>
      </trkpt>
      <trkpt lat="43.23715" lon="5.50005">
        <ele>276.5</ele>
        <time>2025-10-18T07:05:16Z</time>
      </trkpt>
      <trkpt lat="43.23715" lon="5.50005">
        <ele>276.5</ele>
        <time>2025-10-18T07:05:17Z</time>
      </trkpt>
      <trkpt lat="43.23716" lon="5.50005">
        <ele>276.4</ele>
        <time>2025-10-18T07:05:18Z</time>
      </trkpt>
      <trkpt lat="43.23716" lon="5.50004">
        <ele>276.4</ele>
        <time>2025-10-18T07:05:19Z</time>
      </trkpt>
      <trkpt lat="43.23716" lon="5.50004">
        <ele>276.4</ele>
        <time>2025-10-18T07:05:20Z</time>
      </trkpt>
      <trkpt lat="43.23716" lon="5.50004">
        <ele>276.4</ele>
        <time>2025-10-18T07:05:21Z</time>
      </trkpt>
      <trkpt lat="43.23716" lon="5.50004">
        <ele>276.3</ele>
        <time>2025-10-18T07:05:22Z</time>
      </trkpt>
      <trkpt lat="43.23716" lon="5.50004">
        <ele>276.4</ele>
        <time>2025-10-18T07:05:23Z</time>
      </trkpt>
      <trkpt lat="43.23716" lon="5.50004">
        <ele>276.3</ele>
        <time>2025-10-18T07:05:24Z</time>
      </trkpt>
      <trkpt lat="43.23716" lon="5.50004">
        <ele>276.2</ele>
        <time>2025-10-18T07:05:25Z</time>
      </trkpt>
      <trkpt lat="43.23716" lon="5.50004">
        <ele>276.2</ele>
        <time>2025-10-18T07:05:26Z</time>
      </trkpt>
      <trkpt lat="43.23716" lon="5.50003">
        <ele>276.2</ele>
        <time>2025-10-18T07:05:27Z</time>
      </trkpt>
      <trkpt lat="43.23716" lon="5.50003">
        <ele>276.2</ele>
        <time>2025-10-18T07:05:28Z</time>
      </trkpt>
      <trkpt lat="43.23716" lon="5.50003">
        <ele>276.2</ele>
        <time>2025-10-18T07:05:29Z</time>
      </trkpt>
      <trkpt lat="43.23716" lon="5.50003">
        <ele>276.2</ele>
        <time>2025-10-18T07:05:30Z</time>
      </trkpt>
      <trkpt lat="43.23716" lon="5.50003">
        <ele>276.2</ele>
        <time>2025-10-18T07:05:31Z</time>
      </trkpt>
      <trkpt lat="43.23716" lon="5.50003">
        <ele>276.2</ele>
        <time>2025-10-18T07:05:32Z</time>
      </trkpt>
      <trkpt lat="43.23716" lon="5.50003">
        <ele>276.2</ele>
        <time>2025-10-18T07:05:33Z</time>
      </trkpt>
      <trkpt lat="43.23716" lon="5.50003">
        <ele>276.3</ele>
        <time>2025-10-18T07:05:34Z</time>
      </trkpt>
      <trkpt lat="43.23716" lon="5.50002">
        <ele>276.3</ele>
        <time>2025-10-18T07:05:35Z</time>
      </trkpt>
      <trkpt lat="43.23716" lon="5.50002">
        <ele>276.3</ele>
        <time>2025-10-18T07:05:36Z</time>
      </trkpt>
      <trkpt lat="43.23716" lon="5.50002">
        <ele>276.3</ele>
        <time>2025-10-18T07:05:37Z</time>
      </trkpt>
      <trkpt lat="43.23716" lon="5.50002">
        <ele>276.3</ele>
        <time>2025-10-18T07:05:38Z</time>
      </trkpt>
      <trkpt lat="43.23716" lon="5.50002">
        <ele>276.2</ele>
        <time>2025-10-18T07:05:39Z</time>
      </trkpt>
      <trkpt lat="43.23716" lon="5.50002">
        <ele>276.1</ele>
        <time>2025-10-18T07:05:40Z</time>
      </trkpt>
      <trkpt lat="43.23716" lon="5.50002">
        <ele>276</ele>
        <time>2025-10-18T07:05:41Z</time>
      </trkpt>
      <trkpt lat="43.23716" lon="5.50002">
        <ele>276</ele>
        <time>2025-10-18T07:05:42Z</time>
      </trkpt>
      <trkpt lat="43.23716" lon="5.50002">
        <ele>276</ele>
        <time>2025-10-18T07:05:43Z</time>
      </trkpt>
      <trkpt lat="43.23716" lon="5.50002">
        <ele>275.9</ele>
        <time>2025-10-18T07:05:44Z</time>
      </trkpt>
      <trkpt lat="43.23716" lon="5.50002">
        <ele>275.9</ele>
        <time>2025-10-18T07:05:45Z</time>
      </trkpt>
      <trkpt lat="43.23716" lon="5.50002">
        <ele>275.9</ele>
        <time>2025-10-18T07:05:46Z</time>
      </trkpt>
      <trkpt lat="43.23716" lon="5.50002">
        <ele>275.9</ele>
        <time>2025-10-18T07:05:47Z</time>
      </trkpt>
      <trkpt lat="43.23716" lon="5.50001">
        <ele>275.8</ele>
        <time>2025-10-18T07:05:48Z</time>
      </trkpt>
      <trkpt lat="43.23716" lon="5.50001">
        <ele>275.8</ele>
        <time>2025-10-18T07:05:49Z</time>
      </trkpt>
      <trkpt lat="43.23716" lon="5.50001">
        <ele>275.8</ele>
        <time>2025-10-18T07:05:50Z</time>
      </trkpt>
      <trkpt lat="43.23716" lon="5.50001">
        <ele>275.8</ele>
        <time>2025-10-18T07:05:51Z</time>
      </trkpt>
      <trkpt lat="43.23716" lon="5.50001">
        <ele>275.8</ele>
        <time>2025-10-18T07:05:52Z</time>
      </trkpt>
      <trkpt lat="43.23716" lon="5.50001">
        <ele>275.8</ele>
        <time>2025-10-18T07:05:53Z</time>
      </trkpt>
      <trkpt lat="43.23716" lon="5.50001">
        <ele>275.8</ele>
        <time>2025-10-18T07:05:54Z</time>
      </trkpt>
      <trkpt lat="43.23716" lon="5.50001">
        <ele>275.8</ele>
        <time>2025-10-18T07:05:55Z</time>
      </trkpt>
      <trkpt lat="43.23716" lon="5.50001">
        <ele>276</ele>
        <time>2025-10-18T07:05:56Z</time>
      </trkpt>
      <trkpt lat="43.23716" lon="5.50001">
        <ele>276</ele>
        <time>2025-10-18T07:05:57Z</time>
      </trkpt>
      <trkpt lat="43.23716" lon="5.50001">
        <ele>276</ele>
        <time>2025-10-18T07:05:58Z</time>
      </trkpt>
      <trkpt lat="43.23716" lon="5.50001">
        <ele>276</ele>
        <time>2025-10-18T07:05:59Z</time>
      </trkpt>
      <trkpt lat="43.23716" lon="5.5">
        <ele>275.9</ele>
        <time>2025-10-18T07:06:00Z</time>
      </trkpt>
      <trkpt lat="43.23716" lon="5.5">
        <ele>275.9</ele>
        <time>2025-10-18T07:06:01Z</time>
      </trkpt>
      <trkpt lat="43.23716" lon="5.5">
        <ele>275.9</ele>
        <time>2025-10-18T07:06:02Z</time>
      </trkpt>
      <trkpt lat="43.23716" lon="5.5">
        <ele>275.9</ele>
        <time>2025-10-18T07:06:03Z</time>
      </trkpt>
      <trkpt lat="43.23716" lon="5.5">
        <ele>275.9</ele>
        <time>2025-10-18T07:06:04Z</time>
      </trkpt>
      <trkpt lat="43.23716" lon="5.5">
        <ele>275.9</ele>
        <time>2025-10-18T07:06:05Z</time>
      </trkpt>
      <trkpt lat="43.23716" lon="5.5">
        <ele>276.1</ele>
        <time>2025-10-18T07:06:06Z</time>
      </trkpt>
      <trkpt lat="43.23716" lon="5.5">
        <ele>275.9</ele>
        <time>2025-10-18T07:06:07Z</time>
      </trkpt>
      <trkpt lat="43.23716" lon="5.5">
        <ele>275.8</ele>
        <time>2025-10-18T07:06:08Z</time>
      </trkpt>
      <trkpt lat="43.23716" lon="5.5">
        <ele>275.8</ele>
        <time>2025-10-18T07:06:09Z</time>
      </trkpt>
      <trkpt lat="43.23716" lon="5.5">
        <ele>275.8</ele>
        <time>2025-10-18T07:06:10Z</time>
      </trkpt>
      <trkpt lat="43.23716" lon="5.5">
        <ele>275.9</ele>
        <time>2025-10-18T07:06:11Z</time>
      </trkpt>
      <trkpt lat="43.23716" lon="5.5">
        <ele>276</ele>
        <time>2025-10-18T07:06:12Z</time>
      </trkpt>
      <trkpt lat="43.23716" lon="5.5">
        <ele>276.1</ele>
        <time>2025-10-18T07:06:13Z</time>
      </trkpt>
      <trkpt lat="43.23716" lon="5.5">
        <ele>276.1</ele>
        <time>2025-10-18T07:06:14Z</time>
      </trkpt>
      <trkpt lat="43.23716" lon="5.5">
        <ele>276.1</ele>
        <time>2025-10-18T07:06:15Z</time>
      </trkpt>
      <trkpt lat="43.23716" lon="5.5">
        <ele>276.2</ele>
        <time>2025-10-18T07:06:16Z</time>
      </trkpt>
      <trkpt lat="43.23716" lon="5.5">
        <ele>276.2</ele>
        <time>2025-10-18T07:06:17Z</time>
      </trkpt>
      <trkpt lat="43.23716" lon="5.5">
        <ele>276.2</ele>
        <time>2025-10-18T07:06:18Z</time>
      </trkpt>
      <trkpt lat="43.23716" lon="5.5">
        <ele>276.2</ele>
        <time>2025-10-18T07:06:19Z</time>
      </trkpt>
      <trkpt lat="43.23716" lon="5.49999">
        <ele>276.2</ele>
        <time>2025-10-18T07:06:20Z</time>
      </trkpt>
      <trkpt lat="43.23716" lon="5.49999">
        <ele>276.2</ele>
        <time>2025-10-18T07:06:21Z</time>
      </trkpt>
      <trkpt lat="43.23716" lon="5.5">
        <ele>276.2</ele>
        <time>2025-10-18T07:06:22Z</time>
      </trkpt>
      <trkpt lat="43.23716" lon="5.5">
        <ele>276.2</ele>
        <time>2025-10-18T07:06:23Z</time>
      </trkpt>
      <trkpt lat="43.23716" lon="5.5">
        <ele>276.2</ele>
        <time>2025-10-18T07:06:24Z</time>
      </trkpt>
      <trkpt lat="43.23716" lon="5.5">
        <ele>276.2</ele>
        <time>2025-10-18T07:06:25Z</time>
      </trkpt>
      <trkpt lat="43.23716" lon="5.5">
        <ele>276.2</ele>
        <time>2025-10-18T07:06:26Z</time>
      </trkpt>
      <trkpt lat="43.23716" lon="5.5">
        <ele>276.2</ele>
        <time>2025-10-18T07:06:27Z</time>
      </trkpt>
      <trkpt lat="43.23716" lon="5.5">
        <ele>276.2</ele>
        <time>2025-10-18T07:06:28Z</time>
      </trkpt>
      <trkpt lat="43.23716" lon="5.5">
        <ele>276.2</ele>
        <time>2025-10-18T07:06:29Z</time>
      </trkpt>
      <trkpt lat="43.23716" lon="5.5">
        <ele>276.1</ele>
        <time>2025-10-18T07:06:30Z</time>
      </trkpt>
      <trkpt lat="43.23716" lon="5.5">
        <ele>276.1</ele>
        <time>2025-10-18T07:06:31Z</time>
      </trkpt>
      <trkpt lat="43.23716" lon="5.5">
        <ele>276.1</ele>
        <time>2025-10-18T07:06:32Z</time>
      </trkpt>
      <trkpt lat="43.23716" lon="5.5">
        <ele>276.1</ele>
        <time>2025-10-18T07:06:33Z</time>
      </trkpt>
      <trkpt lat="43.23716" lon="5.5">
        <ele>276.1</ele>
        <time>2025-10-18T07:06:34Z</time>
      </trkpt>
      <trkpt lat="43.23716" lon="5.5">
        <ele>276.1</ele>
        <time>2025-10-18T07:06:35Z</time>
      </trkpt>
      <trkpt lat="43.23716" lon="5.5">
        <ele>276.1</ele>
        <time>2025-10-18T07:06:36Z</time>
      </trkpt>
      <trkpt lat="43.23716" lon="5.5">
        <ele>276.1</ele>
        <time>2025-10-18T07:06:37Z</time>
      </trkpt>
      <trkpt lat="43.23716" lon="5.5">
        <ele>276.2</ele>
        <time>2025-10-18T07:06:38Z</time>
      </trkpt>
      <trkpt lat="43.23716" lon="5.5">
        <ele>276.1</ele>
        <time>2025-10-18T07:06:39Z</time>
      </trkpt>
      <trkpt lat="43.23716" lon="5.5">
        <ele>276.1</ele>
        <time>2025-10-18T07:06:40Z</time>
      </trkpt>
      <trkpt lat="43.23716" lon="5.5">
        <ele>276.1</ele>
        <time>2025-10-18T07:06:41Z</time>
      </trkpt>
      <trkpt lat="43.23716" lon="5.5">
        <ele>276</ele>
        <time>2025-10-18T07:06:42Z</time>
      </trkpt>
      <trkpt lat="43.23716" lon="5.49999">
        <ele>276</ele>
        <time>2025-10-18T07:06:43Z</time>
      </trkpt>
      <trkpt lat="43.23716" lon="5.49999">
        <ele>276</ele>
        <time>2025-10-18T07:06:44Z</time>
      </trkpt>
      <trkpt lat="43.23716" lon="5.49999">
        <ele>275.9</ele>
        <time>2025-10-18T07:06:45Z</time>
      </trkpt>
      <trkpt lat="43.23716" lon="5.49999">
        <ele>275.9</ele>
        <time>2025-10-18T07:06:46Z</time>
      </trkpt>
      <trkpt lat="43.23716" lon="5.49999">
        <ele>276</ele>
        <time>2025-10-18T07:06:47Z</time>
      </trkpt>
      <trkpt lat="43.23716" lon="5.49999">
        <ele>276</ele>
        <time>2025-10-18T07:06:48Z</time>
      </trkpt>
      <trkpt lat="43.23716" lon="5.49999">
        <ele>276</ele>
        <time>2025-10-18T07:06:49Z</time>
      </trkpt>
      <trkpt lat="43.23716" lon="5.49999">
        <ele>276.1</ele>
        <time>2025-10-18T07:06:50Z</time>
      </trkpt>
      <trkpt lat="43.23716" lon="5.49999">
        <ele>276.1</ele>
        <time>2025-10-18T07:06:51Z</time>
      </trkpt>
      <trkpt lat="43.23716" lon="5.49998">
        <ele>276.1</ele>
        <time>2025-10-18T07:06:52Z</time>
      </trkpt>
      <trkpt lat="43.23716" lon="5.49998">
        <ele>276</ele>
        <time>2025-10-18T07:06:53Z</time>
      </trkpt>
      <trkpt lat="43.23716" lon="5.49998">
        <ele>276</ele>
        <time>2025-10-18T07:06:54Z</time>
      </trkpt>
      <trkpt lat="43.23716" lon="5.49998">
        <ele>275.9</ele>
        <time>2025-10-18T07:06:55Z</time>
      </trkpt>
      <trkpt lat="43.23716" lon="5.49998">
        <ele>275.9</ele>
        <time>2025-10-18T07:06:56Z</time>
      </trkpt>
      <trkpt lat="43.23716" lon="5.49998">
        <ele>275.9</ele>
        <time>2025-10-18T07:06:57Z</time>
      </trkpt>
      <trkpt lat="43.23716" lon="5.49998">
        <ele>275.9</ele>
        <time>2025-10-18T07:06:58Z</time>
      </trkpt>
      <trkpt lat="43.23716" lon="5.49998">
        <ele>275.9</ele>
        <time>2025-10-18T07:06:59Z</time>
      </trkpt>
      <trkpt lat="43.23716" lon="5.49998">
        <ele>275.8</ele>
        <time>2025-10-18T07:07:00Z</time>
      </trkpt>
      <trkpt lat="43.23716" lon="5.49998">
        <ele>275.9</ele>
        <time>2025-10-18T07:07:01Z</time>
      </trkpt>
      <trkpt lat="43.23716" lon="5.49998">
        <ele>275.9</ele>
        <time>2025-10-18T07:07:02Z</time>
      </trkpt>
      <trkpt lat="43.23716" lon="5.49998">
        <ele>275.9</ele>
        <time>2025-10-18T07:07:03Z</time>
      </trkpt>
      <trkpt lat="43.23716" lon="5.49998">
        <ele>275.9</ele>
        <time>2025-10-18T07:07:04Z</time>
      </trkpt>
      <trkpt lat="43.23716" lon="5.49998">
        <ele>275.9</ele>
        <time>2025-10-18T07:07:05Z</time>
      </trkpt>
      <trkpt lat="43.23716" lon="5.49998">
        <ele>275.9</ele>
        <time>2025-10-18T07:07:06Z</time>
      </trkpt>
      <trkpt lat="43.23716" lon="5.49998">
        <ele>275.9</ele>
        <time>2025-10-18T07:07:07Z</time>
      </trkpt>
      <trkpt lat="43.23716" lon="5.49998">
        <ele>275.9</ele>
        <time>2025-10-18T07:07:08Z</time>
      </trkpt>
      <trkpt lat="43.23716" lon="5.49998">
        <ele>275.9</ele>
        <time>2025-10-18T07:07:09Z</time>
      </trkpt>
      <trkpt lat="43.23716" lon="5.49998">
        <ele>275.9</ele>
        <time>2025-10-18T07:07:10Z</time>
      </trkpt>
      <trkpt lat="43.23716" lon="5.49998">
        <ele>275.9</ele>
        <time>2025-10-18T07:07:11Z</time>
      </trkpt>
      <trkpt lat="43.23716" lon="5.49998">
        <ele>275.9</ele>
        <time>2025-10-18T07:07:12Z</time>
      </trkpt>
      <trkpt lat="43.23716" lon="5.49998">
        <ele>275.9</ele>
        <time>2025-10-18T07:07:13Z</time>
      </trkpt>
      <trkpt lat="43.23716" lon="5.49998">
        <ele>275.8</ele>
        <time>2025-10-18T07:07:14Z</time>
      </trkpt>
      <trkpt lat="43.23716" lon="5.49998">
        <ele>275.9</ele>
        <time>2025-10-18T07:07:15Z</time>
      </trkpt>
      <trkpt lat="43.23717" lon="5.49998">
        <ele>275.9</ele>
        <time>2025-10-18T07:07:16Z</time>
      </trkpt>
      <trkpt lat="43.23717" lon="5.49998">
        <ele>275.9</ele>
        <time>2025-10-18T07:07:17Z</time>
      </trkpt>
      <trkpt lat="43.23717" lon="5.49998">
        <ele>275.9</ele>
        <time>2025-10-18T07:07:18Z</time>
      </trkpt>
      <trkpt lat="43.23717" lon="5.49998">
        <ele>275.9</ele>
        <time>2025-10-18T07:07:19Z</time>
      </trkpt>
      <trkpt lat="43.23717" lon="5.49998">
        <ele>275.9</ele>
        <time>2025-10-18T07:07:20Z</time>
      </trkpt>
      <trkpt lat="43.23717" lon="5.49998">
        <ele>275.9</ele>
        <time>2025-10-18T07:07:21Z</time>
      </trkpt>
      <trkpt lat="43.23717" lon="5.49998">
        <ele>275.9</ele>
        <time>2025-10-18T07:07:22Z</time>
      </trkpt>
      <trkpt lat="43.23717" lon="5.49998">
        <ele>275.9</ele>
        <time>2025-10-18T07:07:23Z</time>
      </trkpt>
      <trkpt lat="43.23716" lon="5.49998">
        <ele>275.9</ele>
        <time>2025-10-18T07:07:24Z</time>
      </trkpt>
      <trkpt lat="43.23716" lon="5.49998">
        <ele>275.8</ele>
        <time>2025-10-18T07:07:25Z</time>
      </trkpt>
      <trkpt lat="43.23717" lon="5.49998">
        <ele>275.8</ele>
        <time>2025-10-18T07:07:26Z</time>
      </trkpt>
      <trkpt lat="43.23717" lon="5.49998">
        <ele>275.8</ele>
        <time>2025-10-18T07:07:27Z</time>
      </trkpt>
      <trkpt lat="43.23716" lon="5.49998">
        <ele>275.7</ele>
        <time>2025-10-18T07:07:28Z</time>
      </trkpt>
      <trkpt lat="43.23716" lon="5.49998">
        <ele>275.7</ele>
        <time>2025-10-18T07:07:29Z</time>
      </trkpt>
      <trkpt lat="43.23716" lon="5.49998">
        <ele>275.7</ele>
        <time>2025-10-18T07:07:30Z</time>
      </trkpt>
      <trkpt lat="43.23716" lon="5.49998">
        <ele>275.8</ele>
        <time>2025-10-18T07:07:31Z</time>
      </trkpt>
      <trkpt lat="43.23716" lon="5.49998">
        <ele>275.7</ele>
        <time>2025-10-18T07:07:32Z</time>
      </trkpt>
      <trkpt lat="43.23716" lon="5.49998">
        <ele>275.8</ele>
        <time>2025-10-18T07:07:33Z</time>
      </trkpt>
      <trkpt lat="43.23716" lon="5.49998">
        <ele>275.8</ele>
        <time>2025-10-18T07:07:34Z</time>
      </trkpt>
      <trkpt lat="43.23716" lon="5.49998">
        <ele>275.8</ele>
        <time>2025-10-18T07:07:35Z</time>
      </trkpt>
      <trkpt lat="43.23716" lon="5.49998">
        <ele>275.8</ele>
        <time>2025-10-18T07:07:36Z</time>
      </trkpt>
      <trkpt lat="43.23716" lon="5.49998">
        <ele>275.8</ele>
        <time>2025-10-18T07:07:37Z</time>
      </trkpt>
      <trkpt lat="43.23716" lon="5.49998">
        <ele>275.9</ele>
        <time>2025-10-18T07:07:38Z</time>
      </trkpt>
      <trkpt lat="43.23717" lon="5.49998">
        <ele>275.9</ele>
        <time>2025-10-18T07:07:39Z</time>
      </trkpt>
      <trkpt lat="43.23717" lon="5.49999">
        <ele>275.9</ele>
        <time>2025-10-18T07:07:40Z</time>
      </trkpt>
      <trkpt lat="43.23717" lon="5.49999">
        <ele>275.9</ele>
        <time>2025-10-18T07:07:41Z</time>
      </trkpt>
      <trkpt lat="43.23717" lon="5.49999">
        <ele>275.9</ele>
        <time>2025-10-18T07:07:42Z</time>
      </trkpt>
      <trkpt lat="43.23717" lon="5.49999">
        <ele>275.8</ele>
        <time>2025-10-18T07:07:43Z</time>
      </trkpt>
      <trkpt lat="43.23717" lon="5.49999">
        <ele>275.8</ele>
        <time>2025-10-18T07:07:44Z</time>
      </trkpt>
      <trkpt lat="43.23717" lon="5.49999">
        <ele>275.8</ele>
        <time>2025-10-18T07:07:45Z</time>
      </trkpt>
      <trkpt lat="43.23717" lon="5.49999">
        <ele>275.8</ele>
        <time>2025-10-18T07:07:46Z</time>
      </trkpt>
      <trkpt lat="43.23717" lon="5.49999">
        <ele>275.7</ele>
        <time>2025-10-18T07:07:47Z</time>
      </trkpt>
      <trkpt lat="43.23717" lon="5.49999">
        <ele>275.7</ele>
        <time>2025-10-18T07:07:48Z</time>
      </trkpt>
      <trkpt lat="43.23717" lon="5.49999">
        <ele>275.7</ele>
        <time>2025-10-18T07:07:49Z</time>
      </trkpt>
      <trkpt lat="43.23717" lon="5.49998">
        <ele>275.8</ele>
        <time>2025-10-18T07:07:50Z</time>
      </trkpt>
      <trkpt lat="43.23717" lon="5.49997">
        <ele>275.9</ele>
        <time>2025-10-18T07:07:51Z</time>
      </trkpt>
      <trkpt lat="43.23716" lon="5.49996">
        <ele>275.9</ele>
        <time>2025-10-18T07:07:52Z</time>
      </trkpt>
      <trkpt lat="43.23716" lon="5.49995">
        <ele>275.8</ele>
        <time>2025-10-18T07:07:53Z</time>
      </trkpt>
      <trkpt lat="43.23716" lon="5.49994">
        <ele>275.9</ele>
        <time>2025-10-18T07:07:54Z</time>
      </trkpt>
      <trkpt lat="43.23716" lon="5.49993">
        <ele>275.8</ele>
        <time>2025-10-18T07:07:55Z</time>
      </trkpt>
      <trkpt lat="43.23715" lon="5.49992">
        <ele>275.9</ele>
        <time>2025-10-18T07:07:56Z</time>
      </trkpt>
      <trkpt lat="43.23715" lon="5.49991">
        <ele>275.9</ele>
        <time>2025-10-18T07:07:57Z</time>
      </trkpt>
      <trkpt lat="43.23715" lon="5.49991">
        <ele>275.9</ele>
        <time>2025-10-18T07:07:58Z</time>
      </trkpt>
      <trkpt lat="43.23715" lon="5.49991">
        <ele>275.9</ele>
        <time>2025-10-18T07:07:59Z</time>
      </trkpt>
      <trkpt lat="43.23715" lon="5.4999">
        <ele>275.8</ele>
        <time>2025-10-18T07:08:00Z</time>
      </trkpt>
      <trkpt lat="43.23716" lon="5.4999">
        <ele>275.8</ele>
        <time>2025-10-18T07:08:01Z</time>
      </trkpt>
      <trkpt lat="43.23715" lon="5.49989">
        <ele>275.8</ele>
        <time>2025-10-18T07:08:02Z</time>
      </trkpt>
      <trkpt lat="43.23715" lon="5.49989">
        <ele>275.8</ele>
        <time>2025-10-18T07:08:03Z</time>
      </trkpt>
      <trkpt lat="43.23716" lon="5.49988">
        <ele>275.8</ele>
        <time>2025-10-18T07:08:04Z</time>
      </trkpt>
      <trkpt lat="43.23716" lon="5.49988">
        <ele>275.9</ele>
        <time>2025-10-18T07:08:05Z</time>
      </trkpt>
      <trkpt lat="43.23715" lon="5.49988">
        <ele>275.9</ele>
        <time>2025-10-18T07:08:06Z</time>
      </trkpt>
      <trkpt lat="43.23715" lon="5.49988">
        <ele>275.9</ele>
        <time>2025-10-18T07:08:07Z</time>
      </trkpt>
      <trkpt lat="43.23716" lon="5.49987">
        <ele>275.9</ele>
        <time>2025-10-18T07:08:08Z</time>
      </trkpt>
      <trkpt lat="43.23716" lon="5.49987">
        <ele>275.9</ele>
        <time>2025-10-18T07:08:09Z</time>
      </trkpt>
      <trkpt lat="43.23716" lon="5.49986">
        <ele>275.9</ele>
        <time>2025-10-18T07:08:10Z</time>
      </trkpt>
      <trkpt lat="43.23716" lon="5.49985">
        <ele>276</ele>
        <time>2025-10-18T07:08:11Z</time>
      </trkpt>
      <trkpt lat="43.23715" lon="5.49984">
        <ele>276</ele>
        <time>2025-10-18T07:08:12Z</time>
      </trkpt>
      <trkpt lat="43.23716" lon="5.49983">
        <ele>276.1</ele>
        <time>2025-10-18T07:08:13Z</time>
      </trkpt>
      <trkpt lat="43.23716" lon="5.49982">
        <ele>276.1</ele>
        <time>2025-10-18T07:08:14Z</time>
      </trkpt>
      <trkpt lat="43.23716" lon="5.49982">
        <ele>276.2</ele>
        <time>2025-10-18T07:08:15Z</time>
      </trkpt>
      <trkpt lat="43.23716" lon="5.4998">
        <ele>276.2</ele>
        <time>2025-10-18T07:08:16Z</time>
      </trkpt>
      <trkpt lat="43.23716" lon="5.49979">
        <ele>276.2</ele>
        <time>2025-10-18T07:08:17Z</time>
      </trkpt>
      <trkpt lat="43.23716" lon="5.49978">
        <ele>276.2</ele>
        <time>2025-10-18T07:08:18Z</time>
      </trkpt>
      <trkpt lat="43.23716" lon="5.49977">
        <ele>276.2</ele>
        <time>2025-10-18T07:08:19Z</time>
      </trkpt>
      <trkpt lat="43.23716" lon="5.49976">
        <ele>276.2</ele>
        <time>2025-10-18T07:08:20Z</time>
      </trkpt>
      <trkpt lat="43.23716" lon="5.49975">
        <ele>276.1</ele>
        <time>2025-10-18T07:08:21Z</time>
      </trkpt>
      <trkpt lat="43.23715" lon="5.49975">
        <ele>276.1</ele>
        <time>2025-10-18T07:08:22Z</time>
      </trkpt>
      <trkpt lat="43.23715" lon="5.49974">
        <ele>276.1</ele>
        <time>2025-10-18T07:08:23Z</time>
      </trkpt>
      <trkpt lat="43.23715" lon="5.49973">
        <ele>276</ele>
        <time>2025-10-18T07:08:24Z</time>
      </trkpt>
      <trkpt lat="43.23715" lon="5.49972">
        <ele>276</ele>
        <time>2025-10-18T07:08:25Z</time>
      </trkpt>
      <trkpt lat="43.23715" lon="5.4997">
        <ele>275.9</ele>
        <time>2025-10-18T07:08:26Z</time>
      </trkpt>
      <trkpt lat="43.23716" lon="5.49969">
        <ele>276</ele>
        <time>2025-10-18T07:08:27Z</time>
      </trkpt>
      <trkpt lat="43.23715" lon="5.49968">
        <ele>276.2</ele>
        <time>2025-10-18T07:08:28Z</time>
      </trkpt>
      <trkpt lat="43.23715" lon="5.49967">
        <ele>276.1</ele>
        <time>2025-10-18T07:08:29Z</time>
      </trkpt>
      <trkpt lat="43.23715" lon="5.49966">
        <ele>276.1</ele>
        <time>2025-10-18T07:08:30Z</time>
      </trkpt>
      <trkpt lat="43.23715" lon="5.49965">
        <ele>276.1</ele>
        <time>2025-10-18T07:08:31Z</time>
      </trkpt>
      <trkpt lat="43.23715" lon="5.49964">
        <ele>276.1</ele>
        <time>2025-10-18T07:08:32Z</time>
      </trkpt>
      <trkpt lat="43.23715" lon="5.49962">
        <ele>276.1</ele>
        <time>2025-10-18T07:08:33Z</time>
      </trkpt>
      <trkpt lat="43.23715" lon="5.49961">
        <ele>276.2</ele>
        <time>2025-10-18T07:08:34Z</time>
      </trkpt>
      <trkpt lat="43.23715" lon="5.4996">
        <ele>276.2</ele>
        <time>2025-10-18T07:08:35Z</time>
      </trkpt>
      <trkpt lat="43.23715" lon="5.49958">
        <ele>276</ele>
        <time>2025-10-18T07:08:36Z</time>
      </trkpt>
      <trkpt lat="43.23715" lon="5.49957">
        <ele>275.9</ele>
        <time>2025-10-18T07:08:37Z</time>
      </trkpt>
      <trkpt lat="43.23714" lon="5.49955">
        <ele>275.9</ele>
        <time>2025-10-18T07:08:38Z</time>
      </trkpt>
      <trkpt lat="43.23714" lon="5.49954">
        <ele>275.9</ele>
        <time>2025-10-18T07:08:39Z</time>
      </trkpt>
      <trkpt lat="43.23714" lon="5.49953">
        <ele>275.9</ele>
        <time>2025-10-18T07:08:40Z</time>
      </trkpt>
      <trkpt lat="43.23714" lon="5.49952">
        <ele>275.9</ele>
        <time>2025-10-18T07:08:41Z</time>
      </trkpt>
      <trkpt lat="43.23714" lon="5.4995">
        <ele>275.9</ele>
        <time>2025-10-18T07:08:42Z</time>
      </trkpt>
      <trkpt lat="43.23714" lon="5.49949">
        <ele>275.9</ele>
        <time>2025-10-18T07:08:43Z</time>
      </trkpt>
      <trkpt lat="43.23714" lon="5.49947">
        <ele>275.8</ele>
        <time>2025-10-18T07:08:44Z</time>
      </trkpt>
      <trkpt lat="43.23713" lon="5.49946">
        <ele>275.9</ele>
        <time>2025-10-18T07:08:45Z</time>
      </trkpt>
      <trkpt lat="43.23713" lon="5.49944">
        <ele>275.8</ele>
        <time>2025-10-18T07:08:46Z</time>
      </trkpt>
      <trkpt lat="43.23712" lon="5.49943">
        <ele>275.9</ele>
        <time>2025-10-18T07:08:47Z</time>
      </trkpt>
      <trkpt lat="43.23712" lon="5.49942">
        <ele>275.7</ele>
        <time>2025-10-18T07:08:48Z</time>
      </trkpt>
      <trkpt lat="43.23712" lon="5.49941">
        <ele>275.6</ele>
        <time>2025-10-18T07:08:49Z</time>
      </trkpt>
      <trkpt lat="43.23712" lon="5.49939">
        <ele>275.5</ele>
        <time>2025-10-18T07:08:50Z</time>
      </trkpt>
      <trkpt lat="43.23712" lon="5.49938">
        <ele>275.4</ele>
        <time>2025-10-18T07:08:51Z</time>
      </trkpt>
      <trkpt lat="43.23711" lon="5.49937">
        <ele>275.4</ele>
        <time>2025-10-18T07:08:52Z</time>
      </trkpt>
      <trkpt lat="43.23711" lon="5.49936">
        <ele>275.2</ele>
        <time>2025-10-18T07:08:53Z</time>
      </trkpt>
      <trkpt lat="43.23711" lon="5.49935">
        <ele>275</ele>
        <time>2025-10-18T07:08:54Z</time>
      </trkpt>
      <trkpt lat="43.2371" lon="5.49934">
        <ele>274.9</ele>
        <time>2025-10-18T07:08:55Z</time>
      </trkpt>
      <trkpt lat="43.23709" lon="5.49933">
        <ele>274.8</ele>
        <time>2025-10-18T07:08:56Z</time>
      </trkpt>
      <trkpt lat="43.23708" lon="5.49933">
        <ele>274.8</ele>
        <time>2025-10-18T07:08:57Z</time>
      </trkpt>
      <trkpt lat="43.23708" lon="5.49934">
        <ele>274.8</ele>
        <time>2025-10-18T07:08:58Z</time>
      </trkpt>
      <trkpt lat="43.23707" lon="5.49934">
        <ele>274.7</ele>
        <time>2025-10-18T07:08:59Z</time>
      </trkpt>
      <trkpt lat="43.23706" lon="5.49935">
        <ele>274.7</ele>
        <time>2025-10-18T07:09:00Z</time>
      </trkpt>
      <trkpt lat="43.23705" lon="5.49935">
        <ele>274.7</ele>
        <time>2025-10-18T07:09:01Z</time>
      </trkpt>
      <trkpt lat="43.23704" lon="5.49936">
        <ele>274.6</ele>
        <time>2025-10-18T07:09:02Z</time>
      </trkpt>
      <trkpt lat="43.23703" lon="5.49937">
        <ele>274.6</ele>
        <time>2025-10-18T07:09:03Z</time>
      </trkpt>
      <trkpt lat="43.23702" lon="5.49937">
        <ele>274.4</ele>
        <time>2025-10-18T07:09:04Z</time>
      </trkpt>
      <trkpt lat="43.23701" lon="5.49938">
        <ele>274.3</ele>
        <time>2025-10-18T07:09:05Z</time>
      </trkpt>
      <trkpt lat="43.237" lon="5.49938">
        <ele>274.3</ele>
        <time>2025-10-18T07:09:06Z</time>
      </trkpt>
      <trkpt lat="43.23699" lon="5.49939">
        <ele>274.4</ele>
        <time>2025-10-18T07:09:07Z</time>
      </trkpt>
      <trkpt lat="43.23698" lon="5.4994">
        <ele>274.4</ele>
        <time>2025-10-18T07:09:08Z</time>
      </trkpt>
      <trkpt lat="43.23697" lon="5.4994">
        <ele>274.4</ele>
        <time>2025-10-18T07:09:09Z</time>
      </trkpt>
      <trkpt lat="43.23696" lon="5.49941">
        <ele>274.4</ele>
        <time>2025-10-18T07:09:10Z</time>
      </trkpt>
      <trkpt lat="43.23695" lon="5.49941">
        <ele>274.2</ele>
        <time>2025-10-18T07:09:11Z</time>
      </trkpt>
      <trkpt lat="43.23694" lon="5.49941">
        <ele>274.2</ele>
        <time>2025-10-18T07:09:12Z</time>
      </trkpt>
      <trkpt lat="43.23693" lon="5.49942">
        <ele>274.2</ele>
        <time>2025-10-18T07:09:13Z</time>
      </trkpt>
      <trkpt lat="43.23692" lon="5.49942">
        <ele>274.2</ele>
        <time>2025-10-18T07:09:14Z</time>
      </trkpt>
      <trkpt lat="43.23691" lon="5.49943">
        <ele>274.3</ele>
        <time>2025-10-18T07:09:15Z</time>
      </trkpt>
      <trkpt lat="43.2369" lon="5.49944">
        <ele>274.3</ele>
        <time>2025-10-18T07:09:16Z</time>
      </trkpt>
      <trkpt lat="43.23689" lon="5.49944">
        <ele>274.3</ele>
        <time>2025-10-18T07:09:17Z</time>
      </trkpt>
      <trkpt lat="43.23688" lon="5.49945">
        <ele>274.2</ele>
        <time>2025-10-18T07:09:18Z</time>
      </trkpt>
      <trkpt lat="43.23687" lon="5.49946">
        <ele>274.2</ele>
        <time>2025-10-18T07:09:19Z</time>
      </trkpt>
      <trkpt lat="43.23686" lon="5.49946">
        <ele>274.2</ele>
        <time>2025-10-18T07:09:20Z</time>
      </trkpt>
      <trkpt lat="43.23684" lon="5.49946">
        <ele>274.1</ele>
        <time>2025-10-18T07:09:21Z</time>
      </trkpt>
      <trkpt lat="43.23683" lon="5.49947">
        <ele>274.1</ele>
        <time>2025-10-18T07:09:22Z</time>
      </trkpt>
      <trkpt lat="43.23682" lon="5.49947">
        <ele>274.1</ele>
        <time>2025-10-18T07:09:23Z</time>
      </trkpt>
      <trkpt lat="43.23681" lon="5.49948">
        <ele>274.1</ele>
        <time>2025-10-18T07:09:24Z</time>
      </trkpt>
      <trkpt lat="43.2368" lon="5.49949">
        <ele>274.1</ele>
        <time>2025-10-18T07:09:25Z</time>
      </trkpt>
      <trkpt lat="43.23679" lon="5.4995">
        <ele>274.1</ele>
        <time>2025-10-18T07:09:26Z</time>
      </trkpt>
      <trkpt lat="43.23678" lon="5.4995">
        <ele>274</ele>
        <time>2025-10-18T07:09:27Z</time>
      </trkpt>
      <trkpt lat="43.23677" lon="5.49951">
        <ele>273.9</ele>
        <time>2025-10-18T07:09:28Z</time>
      </trkpt>
      <trkpt lat="43.23676" lon="5.49951">
        <ele>273.8</ele>
        <time>2025-10-18T07:09:29Z</time>
      </trkpt>
      <trkpt lat="43.23675" lon="5.49952">
        <ele>273.7</ele>
        <time>2025-10-18T07:09:30Z</time>
      </trkpt>
      <trkpt lat="43.23674" lon="5.49952">
        <ele>273.7</ele>
        <time>2025-10-18T07:09:31Z</time>
      </trkpt>
      <trkpt lat="43.23673" lon="5.49953">
        <ele>273.6</ele>
        <time>2025-10-18T07:09:32Z</time>
      </trkpt>
      <trkpt lat="43.23672" lon="5.49954">
        <ele>273.5</ele>
        <time>2025-10-18T07:09:33Z</time>
      </trkpt>
      <trkpt lat="43.23671" lon="5.49954">
        <ele>273.5</ele>
        <time>2025-10-18T07:09:34Z</time>
      </trkpt>
      <trkpt lat="43.2367" lon="5.49955">
        <ele>273.4</ele>
        <time>2025-10-18T07:09:35Z</time>
      </trkpt>
      <trkpt lat="43.23669" lon="5.49955">
        <ele>273.4</ele>
        <time>2025-10-18T07:09:36Z</time>
      </trkpt>
      <trkpt lat="43.23668" lon="5.49956">
        <ele>273.3</ele>
        <time>2025-10-18T07:09:37Z</time>
      </trkpt>
      <trkpt lat="43.23667" lon="5.49956">
        <ele>273.1</ele>
        <time>2025-10-18T07:09:38Z</time>
      </trkpt>
      <trkpt lat="43.23666" lon="5.49956">
        <ele>272.9</ele>
        <time>2025-10-18T07:09:39Z</time>
      </trkpt>
      <trkpt lat="43.23665" lon="5.49957">
        <ele>272.8</ele>
        <time>2025-10-18T07:09:40Z</time>
      </trkpt>
      <trkpt lat="43.23664" lon="5.49957">
        <ele>272.7</ele>
        <time>2025-10-18T07:09:41Z</time>
      </trkpt>
      <trkpt lat="43.23662" lon="5.49957">
        <ele>272.6</ele>
        <time>2025-10-18T07:09:42Z</time>
      </trkpt>
      <trkpt lat="43.23661" lon="5.49958">
        <ele>272.5</ele>
        <time>2025-10-18T07:09:43Z</time>
      </trkpt>
      <trkpt lat="43.2366" lon="5.49958">
        <ele>272.4</ele>
        <time>2025-10-18T07:09:44Z</time>
      </trkpt>
      <trkpt lat="43.23659" lon="5.49958">
        <ele>272.4</ele>
        <time>2025-10-18T07:09:45Z</time>
      </trkpt>
      <trkpt lat="43.23658" lon="5.49959">
        <ele>272.4</ele>
        <time>2025-10-18T07:09:46Z</time>
      </trkpt>
      <trkpt lat="43.23657" lon="5.49959">
        <ele>272.4</ele>
        <time>2025-10-18T07:09:47Z</time>
      </trkpt>
      <trkpt lat="43.23656" lon="5.49959">
        <ele>272.3</ele>
        <time>2025-10-18T07:09:48Z</time>
      </trkpt>
      <trkpt lat="43.23654" lon="5.49959">
        <ele>272.2</ele>
        <time>2025-10-18T07:09:49Z</time>
      </trkpt>
      <trkpt lat="43.23653" lon="5.4996">
        <ele>272.2</ele>
        <time>2025-10-18T07:09:50Z</time>
      </trkpt>
      <trkpt lat="43.23652" lon="5.4996">
        <ele>272.1</ele>
        <time>2025-10-18T07:09:51Z</time>
      </trkpt>
      <trkpt lat="43.23651" lon="5.49961">
        <ele>272.1</ele>
        <time>2025-10-18T07:09:52Z</time>
      </trkpt>
      <trkpt lat="43.2365" lon="5.49961">
        <ele>272</ele>
        <time>2025-10-18T07:09:53Z</time>
      </trkpt>
      <trkpt lat="43.23649" lon="5.49961">
        <ele>271.8</ele>
        <time>2025-10-18T07:09:54Z</time>
      </trkpt>
      <trkpt lat="43.23648" lon="5.49962">
        <ele>271.7</ele>
        <time>2025-10-18T07:09:55Z</time>
      </trkpt>
      <trkpt lat="43.23647" lon="5.49962">
        <ele>271.6</ele>
        <time>2025-10-18T07:09:56Z</time>
      </trkpt>
      <trkpt lat="43.23646" lon="5.49963">
        <ele>271.6</ele>
        <time>2025-10-18T07:09:57Z</time>
      </trkpt>
      <trkpt lat="43.23645" lon="5.49963">
        <ele>271.7</ele>
        <time>2025-10-18T07:09:58Z</time>
      </trkpt>
      <trkpt lat="43.23644" lon="5.49964">
        <ele>271.7</ele>
        <time>2025-10-18T07:09:59Z</time>
      </trkpt>
      <trkpt lat="43.23643" lon="5.49965">
        <ele>271.7</ele>
        <time>2025-10-18T07:10:00Z</time>
      </trkpt>
      <trkpt lat="43.23642" lon="5.49965">
        <ele>271.7</ele>
        <time>2025-10-18T07:10:01Z</time>
      </trkpt>
      <trkpt lat="43.23641" lon="5.49966">
        <ele>271.7</ele>
        <time>2025-10-18T07:10:02Z</time>
      </trkpt>
      <trkpt lat="43.2364" lon="5.49966">
        <ele>271.5</ele>
        <time>2025-10-18T07:10:03Z</time>
      </trkpt>
      <trkpt lat="43.23638" lon="5.49967">
        <ele>271.4</ele>
        <time>2025-10-18T07:10:04Z</time>
      </trkpt>
      <trkpt lat="43.23637" lon="5.49967">
        <ele>271.4</ele>
        <time>2025-10-18T07:10:05Z</time>
      </trkpt>
      <trkpt lat="43.23636" lon="5.49968">
        <ele>271.4</ele>
        <time>2025-10-18T07:10:06Z</time>
      </trkpt>
      <trkpt lat="43.23635" lon="5.49968">
        <ele>271.3</ele>
        <time>2025-10-18T07:10:07Z</time>
      </trkpt>
      <trkpt lat="43.23633" lon="5.49968">
        <ele>271.3</ele>
        <time>2025-10-18T07:10:08Z</time>
      </trkpt>
      <trkpt lat="43.23633" lon="5.49969">
        <ele>271.2</ele>
        <time>2025-10-18T07:10:09Z</time>
      </trkpt>
      <trkpt lat="43.23631" lon="5.4997">
        <ele>271.1</ele>
        <time>2025-10-18T07:10:10Z</time>
      </trkpt>
      <trkpt lat="43.2363" lon="5.4997">
        <ele>271.1</ele>
        <time>2025-10-18T07:10:11Z</time>
      </trkpt>
      <trkpt lat="43.23629" lon="5.49971">
        <ele>271</ele>
        <time>2025-10-18T07:10:12Z</time>
      </trkpt>
      <trkpt lat="43.23628" lon="5.49972">
        <ele>271</ele>
        <time>2025-10-18T07:10:13Z</time>
      </trkpt>
      <trkpt lat="43.23627" lon="5.49973">
        <ele>270.9</ele>
        <time>2025-10-18T07:10:14Z</time>
      </trkpt>
      <trkpt lat="43.23626" lon="5.49973">
        <ele>271</ele>
        <time>2025-10-18T07:10:15Z</time>
      </trkpt>
      <trkpt lat="43.23625" lon="5.49974">
        <ele>271.1</ele>
        <time>2025-10-18T07:10:16Z</time>
      </trkpt>
      <trkpt lat="43.23624" lon="5.49975">
        <ele>271.1</ele>
        <time>2025-10-18T07:10:17Z</time>
      </trkpt>
      <trkpt lat="43.23623" lon="5.49975">
        <ele>271.1</ele>
        <time>2025-10-18T07:10:18Z</time>
      </trkpt>
      <trkpt lat="43.23622" lon="5.49976">
        <ele>271</ele>
        <time>2025-10-18T07:10:19Z</time>
      </trkpt>
      <trkpt lat="43.23621" lon="5.49977">
        <ele>270.9</ele>
        <time>2025-10-18T07:10:20Z</time>
      </trkpt>
      <trkpt lat="43.23619" lon="5.49977">
        <ele>270.9</ele>
        <time>2025-10-18T07:10:21Z</time>
      </trkpt>
      <trkpt lat="43.23618" lon="5.49978">
        <ele>270.8</ele>
        <time>2025-10-18T07:10:22Z</time>
      </trkpt>
      <trkpt lat="43.23617" lon="5.49978">
        <ele>270.8</ele>
        <time>2025-10-18T07:10:23Z</time>
      </trkpt>
      <trkpt lat="43.23616" lon="5.49979">
        <ele>270.7</ele>
        <time>2025-10-18T07:10:24Z</time>
      </trkpt>
      <trkpt lat="43.23615" lon="5.49979">
        <ele>270.6</ele>
        <time>2025-10-18T07:10:25Z</time>
      </trkpt>
      <trkpt lat="43.23614" lon="5.4998">
        <ele>270.5</ele>
        <time>2025-10-18T07:10:26Z</time>
      </trkpt>
      <trkpt lat="43.23612" lon="5.4998">
        <ele>270.4</ele>
        <time>2025-10-18T07:10:27Z</time>
      </trkpt>
      <trkpt lat="43.23611" lon="5.4998">
        <ele>270.4</ele>
        <time>2025-10-18T07:10:28Z</time>
      </trkpt>
      <trkpt lat="43.2361" lon="5.49981">
        <ele>270.3</ele>
        <time>2025-10-18T07:10:29Z</time>
      </trkpt>
      <trkpt lat="43.23609" lon="5.49981">
        <ele>270.3</ele>
        <time>2025-10-18T07:10:30Z</time>
      </trkpt>
      <trkpt lat="43.23608" lon="5.49982">
        <ele>270.2</ele>
        <time>2025-10-18T07:10:31Z</time>
      </trkpt>
      <trkpt lat="43.23606" lon="5.49982">
        <ele>270.1</ele>
        <time>2025-10-18T07:10:32Z</time>
      </trkpt>
      <trkpt lat="43.23605" lon="5.49983">
        <ele>270.1</ele>
        <time>2025-10-18T07:10:33Z</time>
      </trkpt>
      <trkpt lat="43.23604" lon="5.49983">
        <ele>270</ele>
        <time>2025-10-18T07:10:34Z</time>
      </trkpt>
      <trkpt lat="43.23603" lon="5.49983">
        <ele>270</ele>
        <time>2025-10-18T07:10:35Z</time>
      </trkpt>
      <trkpt lat="43.23602" lon="5.49984">
        <ele>269.9</ele>
        <time>2025-10-18T07:10:36Z</time>
      </trkpt>
      <trkpt lat="43.23601" lon="5.49984">
        <ele>269.9</ele>
        <time>2025-10-18T07:10:37Z</time>
      </trkpt>
      <trkpt lat="43.236" lon="5.49985">
        <ele>269.9</ele>
        <time>2025-10-18T07:10:38Z</time>
      </trkpt>
      <trkpt lat="43.23599" lon="5.49985">
        <ele>269.9</ele>
        <time>2025-10-18T07:10:39Z</time>
      </trkpt>
      <trkpt lat="43.23597" lon="5.49985">
        <ele>269.9</ele>
        <time>2025-10-18T07:10:40Z</time>
      </trkpt>
      <trkpt lat="43.23596" lon="5.49985">
        <ele>269.7</ele>
        <time>2025-10-18T07:10:41Z</time>
      </trkpt>
      <trkpt lat="43.23595" lon="5.49985">
        <ele>269.7</ele>
        <time>2025-10-18T07:10:42Z</time>
      </trkpt>
      <trkpt lat="43.23594" lon="5.49985">
        <ele>269.6</ele>
        <time>2025-10-18T07:10:43Z</time>
      </trkpt>
      <trkpt lat="43.23593" lon="5.49985">
        <ele>269.6</ele>
        <time>2025-10-18T07:10:44Z</time>
      </trkpt>
      <trkpt lat="43.23591" lon="5.49985">
        <ele>269.5</ele>
        <time>2025-10-18T07:10:45Z</time>
      </trkpt>
      <trkpt lat="43.2359" lon="5.49985">
        <ele>269.4</ele>
        <time>2025-10-18T07:10:46Z</time>
      </trkpt>
      <trkpt lat="43.23589" lon="5.49985">
        <ele>269.3</ele>
        <time>2025-10-18T07:10:47Z</time>
      </trkpt>
      <trkpt lat="43.23588" lon="5.49985">
        <ele>269.2</ele>
        <time>2025-10-18T07:10:48Z</time>
      </trkpt>
      <trkpt lat="43.23586" lon="5.49985">
        <ele>269.2</ele>
        <time>2025-10-18T07:10:49Z</time>
      </trkpt>
      <trkpt lat="43.23585" lon="5.49985">
        <ele>269.2</ele>
        <time>2025-10-18T07:10:50Z</time>
      </trkpt>
      <trkpt lat="43.23584" lon="5.49985">
        <ele>269.1</ele>
        <time>2025-10-18T07:10:51Z</time>
      </trkpt>
      <trkpt lat="43.23583" lon="5.49985">
        <ele>269</ele>
        <time>2025-10-18T07:10:52Z</time>
      </trkpt>
      <trkpt lat="43.23582" lon="5.49985">
        <ele>269</ele>
        <time>2025-10-18T07:10:53Z</time>
      </trkpt>
      <trkpt lat="43.23581" lon="5.49985">
        <ele>269.1</ele>
        <time>2025-10-18T07:10:54Z</time>
      </trkpt>
      <trkpt lat="43.2358" lon="5.49984">
        <ele>268.9</ele>
        <time>2025-10-18T07:10:55Z</time>
      </trkpt>
      <trkpt lat="43.23578" lon="5.49984">
        <ele>268.8</ele>
        <time>2025-10-18T07:10:56Z</time>
      </trkpt>
      <trkpt lat="43.23577" lon="5.49984">
        <ele>268.7</ele>
        <time>2025-10-18T07:10:57Z</time>
      </trkpt>
      <trkpt lat="43.23576" lon="5.49983">
        <ele>268.7</ele>
        <time>2025-10-18T07:10:58Z</time>
      </trkpt>
      <trkpt lat="43.23574" lon="5.49984">
        <ele>268.7</ele>
        <time>2025-10-18T07:10:59Z</time>
      </trkpt>
      <trkpt lat="43.23573" lon="5.49984">
        <ele>268.7</ele>
        <time>2025-10-18T07:11:00Z</time>
      </trkpt>
      <trkpt lat="43.23572" lon="5.49984">
        <ele>268.7</ele>
        <time>2025-10-18T07:11:01Z</time>
      </trkpt>
      <trkpt lat="43.23571" lon="5.49983">
        <ele>268.7</ele>
        <time>2025-10-18T07:11:02Z</time>
      </trkpt>
      <trkpt lat="43.2357" lon="5.49983">
        <ele>268.7</ele>
        <time>2025-10-18T07:11:03Z</time>
      </trkpt>
      <trkpt lat="43.23569" lon="5.49983">
        <ele>268.7</ele>
        <time>2025-10-18T07:11:04Z</time>
      </trkpt>
      <trkpt lat="43.23567" lon="5.49983">
        <ele>268.6</ele>
        <time>2025-10-18T07:11:05Z</time>
      </trkpt>
      <trkpt lat="43.23566" lon="5.49983">
        <ele>268.5</ele>
        <time>2025-10-18T07:11:06Z</time>
      </trkpt>
      <trkpt lat="43.23565" lon="5.49982">
        <ele>268.5</ele>
        <time>2025-10-18T07:11:07Z</time>
      </trkpt>
      <trkpt lat="43.23563" lon="5.49982">
        <ele>268.4</ele>
        <time>2025-10-18T07:11:08Z</time>
      </trkpt>
      <trkpt lat="43.23562" lon="5.49982">
        <ele>268.4</ele>
        <time>2025-10-18T07:11:09Z</time>
      </trkpt>
      <trkpt lat="43.23561" lon="5.49982">
        <ele>268.3</ele>
        <time>2025-10-18T07:11:10Z</time>
      </trkpt>
      <trkpt lat="43.2356" lon="5.49982">
        <ele>268.3</ele>
        <time>2025-10-18T07:11:11Z</time>
      </trkpt>
      <trkpt lat="43.23559" lon="5.49982">
        <ele>268.3</ele>
        <time>2025-10-18T07:11:12Z</time>
      </trkpt>
      <trkpt lat="43.23557" lon="5.49982">
        <ele>268.3</ele>
        <time>2025-10-18T07:11:13Z</time>
      </trkpt>
      <trkpt lat="43.23556" lon="5.49981">
        <ele>268.1</ele>
        <time>2025-10-18T07:11:14Z</time>
      </trkpt>
      <trkpt lat="43.23555" lon="5.49981">
        <ele>268.1</ele>
        <time>2025-10-18T07:11:15Z</time>
      </trkpt>
      <trkpt lat="43.23554" lon="5.49982">
        <ele>268</ele>
        <time>2025-10-18T07:11:16Z</time>
      </trkpt>
      <trkpt lat="43.23552" lon="5.49982">
        <ele>268</ele>
        <time>2025-10-18T07:11:17Z</time>
      </trkpt>
      <trkpt lat="43.23551" lon="5.49982">
        <ele>268</ele>
        <time>2025-10-18T07:11:18Z</time>
      </trkpt>
      <trkpt lat="43.2355" lon="5.49983">
        <ele>267.9</ele>
        <time>2025-10-18T07:11:19Z</time>
      </trkpt>
      <trkpt lat="43.23549" lon="5.49983">
        <ele>267.8</ele>
        <time>2025-10-18T07:11:20Z</time>
      </trkpt>
      <trkpt lat="43.23548" lon="5.49983">
        <ele>267.8</ele>
        <time>2025-10-18T07:11:21Z</time>
      </trkpt>
      <trkpt lat="43.23547" lon="5.49984">
        <ele>267.7</ele>
        <time>2025-10-18T07:11:22Z</time>
      </trkpt>
      <trkpt lat="43.23545" lon="5.49984">
        <ele>267.6</ele>
        <time>2025-10-18T07:11:23Z</time>
      </trkpt>
      <trkpt lat="43.23544" lon="5.49984">
        <ele>267.5</ele>
        <time>2025-10-18T07:11:24Z</time>
      </trkpt>
      <trkpt lat="43.23543" lon="5.49985">
        <ele>267.5</ele>
        <time>2025-10-18T07:11:25Z</time>
      </trkpt>
      <trkpt lat="43.23542" lon="5.49985">
        <ele>267.4</ele>
        <time>2025-10-18T07:11:26Z</time>
      </trkpt>
      <trkpt lat="43.2354" lon="5.49986">
        <ele>267.4</ele>
        <time>2025-10-18T07:11:27Z</time>
      </trkpt>
      <trkpt lat="43.23539" lon="5.49987">
        <ele>267.3</ele>
        <time>2025-10-18T07:11:28Z</time>
      </trkpt>
      <trkpt lat="43.23538" lon="5.49988">
        <ele>267.3</ele>
        <time>2025-10-18T07:11:29Z</time>
      </trkpt>
      <trkpt lat="43.23537" lon="5.49989">
        <ele>267.3</ele>
        <time>2025-10-18T07:11:30Z</time>
      </trkpt>
      <trkpt lat="43.23536" lon="5.4999">
        <ele>267.3</ele>
        <time>2025-10-18T07:11:31Z</time>
      </trkpt>
      <trkpt lat="43.23535" lon="5.49991">
        <ele>267.3</ele>
        <time>2025-10-18T07:11:32Z</time>
      </trkpt>
      <trkpt lat="43.23534" lon="5.49992">
        <ele>267.4</ele>
        <time>2025-10-18T07:11:33Z</time>
      </trkpt>
      <trkpt lat="43.23533" lon="5.49993">
        <ele>267.2</ele>
        <time>2025-10-18T07:11:34Z</time>
      </trkpt>
      <trkpt lat="43.23532" lon="5.49994">
        <ele>267.1</ele>
        <time>2025-10-18T07:11:35Z</time>
      </trkpt>
      <trkpt lat="43.23531" lon="5.49995">
        <ele>267.1</ele>
        <time>2025-10-18T07:11:36Z</time>
      </trkpt>
      <trkpt lat="43.2353" lon="5.49996">
        <ele>267.1</ele>
        <time>2025-10-18T07:11:37Z</time>
      </trkpt>
      <trkpt lat="43.23529" lon="5.49997">
        <ele>267</ele>
        <time>2025-10-18T07:11:38Z</time>
      </trkpt>
      <trkpt lat="43.23528" lon="5.49998">
        <ele>267</ele>
        <time>2025-10-18T07:11:39Z</time>
      </trkpt>
      <trkpt lat="43.23527" lon="5.49999">
        <ele>267</ele>
        <time>2025-10-18T07:11:40Z</time>
      </trkpt>
      <trkpt lat="43.23526" lon="5.5">
        <ele>267</ele>
        <time>2025-10-18T07:11:41Z</time>
      </trkpt>
      <trkpt lat="43.23525" lon="5.50001">
        <ele>267</ele>
        <time>2025-10-18T07:11:42Z</time>
      </trkpt>
      <trkpt lat="43.23524" lon="5.50002">
        <ele>267</ele>
        <time>2025-10-18T07:11:43Z</time>
      </trkpt>
      <trkpt lat="43.23523" lon="5.50002">
        <ele>266.9</ele>
        <time>2025-10-18T07:11:44Z</time>
      </trkpt>
      <trkpt lat="43.23522" lon="5.50003">
        <ele>266.8</ele>
        <time>2025-10-18T07:11:45Z</time>
      </trkpt>
      <trkpt lat="43.23521" lon="5.50004">
        <ele>266.8</ele>
        <time>2025-10-18T07:11:46Z</time>
      </trkpt>
      <trkpt lat="43.2352" lon="5.50005">
        <ele>266.7</ele>
        <time>2025-10-18T07:11:47Z</time>
      </trkpt>
      <trkpt lat="43.23519" lon="5.50006">
        <ele>266.6</ele>
        <time>2025-10-18T07:11:48Z</time>
      </trkpt>
      <trkpt lat="43.23518" lon="5.50007">
        <ele>266.6</ele>
        <time>2025-10-18T07:11:49Z</time>
      </trkpt>
      <trkpt lat="43.23517" lon="5.50008">
        <ele>266.5</ele>
        <time>2025-10-18T07:11:50Z</time>
      </trkpt>
      <trkpt lat="43.23516" lon="5.50009">
        <ele>266.5</ele>
        <time>2025-10-18T07:11:51Z</time>
      </trkpt>
      <trkpt lat="43.23515" lon="5.50009">
        <ele>266.5</ele>
        <time>2025-10-18T07:11:52Z</time>
      </trkpt>
      <trkpt lat="43.23514" lon="5.5001">
        <ele>266.4</ele>
        <time>2025-10-18T07:11:53Z</time>
      </trkpt>
      <trkpt lat="43.23513" lon="5.50011">
        <ele>266.4</ele>
        <time>2025-10-18T07:11:54Z</time>
      </trkpt>
      <trkpt lat="43.23512" lon="5.50012">
        <ele>266.4</ele>
        <time>2025-10-18T07:11:55Z</time>
      </trkpt>
      <trkpt lat="43.23511" lon="5.50012">
        <ele>266.3</ele>
        <time>2025-10-18T07:11:56Z</time>
      </trkpt>
      <trkpt lat="43.2351" lon="5.50013">
        <ele>266.3</ele>
        <time>2025-10-18T07:11:57Z</time>
      </trkpt>
      <trkpt lat="43.23509" lon="5.50014">
        <ele>266.3</ele>
        <time>2025-10-18T07:11:58Z</time>
      </trkpt>
      <trkpt lat="43.23508" lon="5.50015">
        <ele>266.2</ele>
        <time>2025-10-18T07:11:59Z</time>
      </trkpt>
      <trkpt lat="43.23507" lon="5.50016">
        <ele>266.2</ele>
        <time>2025-10-18T07:12:00Z</time>
      </trkpt>
      <trkpt lat="43.23505" lon="5.50017">
        <ele>266.1</ele>
        <time>2025-10-18T07:12:01Z</time>
      </trkpt>
      <trkpt lat="43.23504" lon="5.50017">
        <ele>265.9</ele>
        <time>2025-10-18T07:12:02Z</time>
      </trkpt>
      <trkpt lat="43.23503" lon="5.50018">
        <ele>265.7</ele>
        <time>2025-10-18T07:12:03Z</time>
      </trkpt>
      <trkpt lat="43.23502" lon="5.50018">
        <ele>265.7</ele>
        <time>2025-10-18T07:12:04Z</time>
      </trkpt>
      <trkpt lat="43.23501" lon="5.50019">
        <ele>265.8</ele>
        <time>2025-10-18T07:12:05Z</time>
      </trkpt>
      <trkpt lat="43.235" lon="5.5002">
        <ele>265.9</ele>
        <time>2025-10-18T07:12:06Z</time>
      </trkpt>
      <trkpt lat="43.23498" lon="5.5002">
        <ele>265.9</ele>
        <time>2025-10-18T07:12:07Z</time>
      </trkpt>
      <trkpt lat="43.23497" lon="5.50021">
        <ele>265.8</ele>
        <time>2025-10-18T07:12:08Z</time>
      </trkpt>
      <trkpt lat="43.23496" lon="5.50021">
        <ele>265.8</ele>
        <time>2025-10-18T07:12:09Z</time>
      </trkpt>
      <trkpt lat="43.23495" lon="5.50022">
        <ele>265.7</ele>
        <time>2025-10-18T07:12:10Z</time>
      </trkpt>
      <trkpt lat="43.23494" lon="5.50022">
        <ele>265.7</ele>
        <time>2025-10-18T07:12:11Z</time>
      </trkpt>
      <trkpt lat="43.23493" lon="5.50023">
        <ele>265.7</ele>
        <time>2025-10-18T07:12:12Z</time>
      </trkpt>
      <trkpt lat="43.23492" lon="5.50024">
        <ele>265.7</ele>
        <time>2025-10-18T07:12:13Z</time>
      </trkpt>
      <trkpt lat="43.23491" lon="5.50024">
        <ele>265.7</ele>
        <time>2025-10-18T07:12:14Z</time>
      </trkpt>
      <trkpt lat="43.2349" lon="5.50024">
        <ele>265.7</ele>
        <time>2025-10-18T07:12:15Z</time>
      </trkpt>
      <trkpt lat="43.23489" lon="5.50025">
        <ele>265.7</ele>
        <time>2025-10-18T07:12:16Z</time>
      </trkpt>
      <trkpt lat="43.23488" lon="5.50025">
        <ele>265.6</ele>
        <time>2025-10-18T07:12:17Z</time>
      </trkpt>
      <trkpt lat="43.23486" lon="5.50026">
        <ele>265.6</ele>
        <time>2025-10-18T07:12:18Z</time>
      </trkpt>
      <trkpt lat="43.23485" lon="5.50026">
        <ele>265.5</ele>
        <time>2025-10-18T07:12:19Z</time>
      </trkpt>
      <trkpt lat="43.23484" lon="5.50026">
        <ele>265.6</ele>
        <time>2025-10-18T07:12:20Z</time>
      </trkpt>
      <trkpt lat="43.23483" lon="5.50027">
        <ele>265.5</ele>
        <time>2025-10-18T07:12:21Z</time>
      </trkpt>
      <trkpt lat="43.23482" lon="5.50027">
        <ele>265.4</ele>
        <time>2025-10-18T07:12:22Z</time>
      </trkpt>
      <trkpt lat="43.23481" lon="5.50028">
        <ele>265.3</ele>
        <time>2025-10-18T07:12:23Z</time>
      </trkpt>
      <trkpt lat="43.23479" lon="5.50028">
        <ele>265.2</ele>
        <time>2025-10-18T07:12:24Z</time>
      </trkpt>
      <trkpt lat="43.23478" lon="5.50029">
        <ele>265.2</ele>
        <time>2025-10-18T07:12:25Z</time>
      </trkpt>
      <trkpt lat="43.23477" lon="5.50029">
        <ele>265.2</ele>
        <time>2025-10-18T07:12:26Z</time>
      </trkpt>
      <trkpt lat="43.23476" lon="5.5003">
        <ele>265.1</ele>
        <time>2025-10-18T07:12:27Z</time>
      </trkpt>
      <trkpt lat="43.23474" lon="5.5003">
        <ele>265.1</ele>
        <time>2025-10-18T07:12:28Z</time>
      </trkpt>
      <trkpt lat="43.23473" lon="5.50031">
        <ele>265.1</ele>
        <time>2025-10-18T07:12:29Z</time>
      </trkpt>
      <trkpt lat="43.23472" lon="5.50031">
        <ele>265.2</ele>
        <time>2025-10-18T07:12:30Z</time>
      </trkpt>
      <trkpt lat="43.23471" lon="5.50032">
        <ele>265.3</ele>
        <time>2025-10-18T07:12:31Z</time>
      </trkpt>
      <trkpt lat="43.2347" lon="5.50032">
        <ele>265.3</ele>
        <time>2025-10-18T07:12:32Z</time>
      </trkpt>
      <trkpt lat="43.23469" lon="5.50033">
        <ele>265.2</ele>
        <time>2025-10-18T07:12:33Z</time>
      </trkpt>
      <trkpt lat="43.23468" lon="5.50033">
        <ele>265.2</ele>
        <time>2025-10-18T07:12:34Z</time>
      </trkpt>
      <trkpt lat="43.23467" lon="5.50034">
        <ele>265.1</ele>
        <time>2025-10-18T07:12:35Z</time>
      </trkpt>
      <trkpt lat="43.23466" lon="5.50035">
        <ele>265.1</ele>
        <time>2025-10-18T07:12:36Z</time>
      </trkpt>
      <trkpt lat="43.23465" lon="5.50036">
        <ele>265</ele>
        <time>2025-10-18T07:12:37Z</time>
      </trkpt>
      <trkpt lat="43.23464" lon="5.50036">
        <ele>265.1</ele>
        <time>2025-10-18T07:12:38Z</time>
      </trkpt>
      <trkpt lat="43.23463" lon="5.50037">
        <ele>265.1</ele>
        <time>2025-10-18T07:12:39Z</time>
      </trkpt>
      <trkpt lat="43.23462" lon="5.50038">
        <ele>265.1</ele>
        <time>2025-10-18T07:12:40Z</time>
      </trkpt>
      <trkpt lat="43.23462" lon="5.5004">
        <ele>265.1</ele>
        <time>2025-10-18T07:12:41Z</time>
      </trkpt>
      <trkpt lat="43.23461" lon="5.50041">
        <ele>265.1</ele>
        <time>2025-10-18T07:12:42Z</time>
      </trkpt>
      <trkpt lat="43.2346" lon="5.50042">
        <ele>265.1</ele>
        <time>2025-10-18T07:12:43Z</time>
      </trkpt>
      <trkpt lat="43.23459" lon="5.50043">
        <ele>265.1</ele>
        <time>2025-10-18T07:12:44Z</time>
      </trkpt>
      <trkpt lat="43.23459" lon="5.50044">
        <ele>265.2</ele>
        <time>2025-10-18T07:12:45Z</time>
      </trkpt>
      <trkpt lat="43.23458" lon="5.50046">
        <ele>265.1</ele>
        <time>2025-10-18T07:12:46Z</time>
      </trkpt>
      <trkpt lat="43.23457" lon="5.50047">
        <ele>265.1</ele>
        <time>2025-10-18T07:12:47Z</time>
      </trkpt>
      <trkpt lat="43.23457" lon="5.50049">
        <ele>265.1</ele>
        <time>2025-10-18T07:12:48Z</time>
      </trkpt>
      <trkpt lat="43.23457" lon="5.5005">
        <ele>265.2</ele>
        <time>2025-10-18T07:12:49Z</time>
      </trkpt>
      <trkpt lat="43.23456" lon="5.50051">
        <ele>265.3</ele>
        <time>2025-10-18T07:12:50Z</time>
      </trkpt>
      <trkpt lat="43.23456" lon="5.50053">
        <ele>265.3</ele>
        <time>2025-10-18T07:12:51Z</time>
      </trkpt>
      <trkpt lat="43.23455" lon="5.50054">
        <ele>265.3</ele>
        <time>2025-10-18T07:12:52Z</time>
      </trkpt>
      <trkpt lat="43.23455" lon="5.50055">
        <ele>265.1</ele>
        <time>2025-10-18T07:12:53Z</time>
      </trkpt>
      <trkpt lat="43.23454" lon="5.50057">
        <ele>264.9</ele>
        <time>2025-10-18T07:12:54Z</time>
      </trkpt>
      <trkpt lat="43.23454" lon="5.50058">
        <ele>264.8</ele>
        <time>2025-10-18T07:12:55Z</time>
      </trkpt>
      <trkpt lat="43.23453" lon="5.50059">
        <ele>264.8</ele>
        <time>2025-10-18T07:12:56Z</time>
      </trkpt>
      <trkpt lat="43.23453" lon="5.5006">
        <ele>264.7</ele>
        <time>2025-10-18T07:12:57Z</time>
      </trkpt>
      <trkpt lat="43.23452" lon="5.50061">
        <ele>264.7</ele>
        <time>2025-10-18T07:12:58Z</time>
      </trkpt>
      <trkpt lat="43.23452" lon="5.50063">
        <ele>264.7</ele>
        <time>2025-10-18T07:12:59Z</time>
      </trkpt>
      <trkpt lat="43.23451" lon="5.50064">
        <ele>264.7</ele>
        <time>2025-10-18T07:13:00Z</time>
      </trkpt>
      <trkpt lat="43.23451" lon="5.50065">
        <ele>264.6</ele>
        <time>2025-10-18T07:13:01Z</time>
      </trkpt>
      <trkpt lat="43.2345" lon="5.50066">
        <ele>264.6</ele>
        <time>2025-10-18T07:13:02Z</time>
      </trkpt>
      <trkpt lat="43.23449" lon="5.50067">
        <ele>264.7</ele>
        <time>2025-10-18T07:13:03Z</time>
      </trkpt>
      <trkpt lat="43.23448" lon="5.50067">
        <ele>264.8</ele>
        <time>2025-10-18T07:13:04Z</time>
      </trkpt>
      <trkpt lat="43.23447" lon="5.50067">
        <ele>264.9</ele>
        <time>2025-10-18T07:13:05Z</time>
      </trkpt>
      <trkpt lat="43.23446" lon="5.50068">
        <ele>264.9</ele>
        <time>2025-10-18T07:13:06Z</time>
      </trkpt>
      <trkpt lat="43.23445" lon="5.50068">
        <ele>264.9</ele>
        <time>2025-10-18T07:13:07Z</time>
      </trkpt>
      <trkpt lat="43.23444" lon="5.50069">
        <ele>265</ele>
        <time>2025-10-18T07:13:08Z</time>
      </trkpt>
      <trkpt lat="43.23443" lon="5.50069">
        <ele>265</ele>
        <time>2025-10-18T07:13:09Z</time>
      </trkpt>
      <trkpt lat="43.23442" lon="5.5007">
        <ele>264.9</ele>
        <time>2025-10-18T07:13:10Z</time>
      </trkpt>
      <trkpt lat="43.23441" lon="5.5007">
        <ele>264.9</ele>
        <time>2025-10-18T07:13:11Z</time>
      </trkpt>
      <trkpt lat="43.2344" lon="5.50071">
        <ele>264.9</ele>
        <time>2025-10-18T07:13:12Z</time>
      </trkpt>
      <trkpt lat="43.23439" lon="5.50071">
        <ele>264.8</ele>
        <time>2025-10-18T07:13:13Z</time>
      </trkpt>
      <trkpt lat="43.23438" lon="5.50072">
        <ele>264.8</ele>
        <time>2025-10-18T07:13:14Z</time>
      </trkpt>
      <trkpt lat="43.23437" lon="5.50073">
        <ele>264.8</ele>
        <time>2025-10-18T07:13:15Z</time>
      </trkpt>
      <trkpt lat="43.23436" lon="5.50073">
        <ele>264.8</ele>
        <time>2025-10-18T07:13:16Z</time>
      </trkpt>
      <trkpt lat="43.23435" lon="5.50074">
        <ele>264.7</ele>
        <time>2025-10-18T07:13:17Z</time>
      </trkpt>
      <trkpt lat="43.23435" lon="5.50075">
        <ele>264.6</ele>
        <time>2025-10-18T07:13:18Z</time>
      </trkpt>
      <trkpt lat="43.23434" lon="5.50076">
        <ele>264.5</ele>
        <time>2025-10-18T07:13:19Z</time>
      </trkpt>
      <trkpt lat="43.23433" lon="5.50077">
        <ele>264.5</ele>
        <time>2025-10-18T07:13:20Z</time>
      </trkpt>
      <trkpt lat="43.23432" lon="5.50078">
        <ele>264.5</ele>
        <time>2025-10-18T07:13:21Z</time>
      </trkpt>
      <trkpt lat="43.23431" lon="5.50079">
        <ele>264.4</ele>
        <time>2025-10-18T07:13:22Z</time>
      </trkpt>
      <trkpt lat="43.23431" lon="5.5008">
        <ele>264.3</ele>
        <time>2025-10-18T07:13:23Z</time>
      </trkpt>
      <trkpt lat="43.23429" lon="5.50081">
        <ele>264.3</ele>
        <time>2025-10-18T07:13:24Z</time>
      </trkpt>
      <trkpt lat="43.23428" lon="5.50081">
        <ele>264.2</ele>
        <time>2025-10-18T07:13:25Z</time>
      </trkpt>
      <trkpt lat="43.23428" lon="5.50082">
        <ele>264.2</ele>
        <time>2025-10-18T07:13:26Z</time>
      </trkpt>
      <trkpt lat="43.23427" lon="5.50083">
        <ele>264.2</ele>
        <time>2025-10-18T07:13:27Z</time>
      </trkpt>
      <trkpt lat="43.23426" lon="5.50084">
        <ele>264.2</ele>
        <time>2025-10-18T07:13:28Z</time>
      </trkpt>
      <trkpt lat="43.23425" lon="5.50085">
        <ele>264.3</ele>
        <time>2025-10-18T07:13:29Z</time>
      </trkpt>
      <trkpt lat="43.23424" lon="5.50086">
        <ele>264.2</ele>
        <time>2025-10-18T07:13:30Z</time>
      </trkpt>
      <trkpt lat="43.23423" lon="5.50087">
        <ele>264.2</ele>
        <time>2025-10-18T07:13:31Z</time>
      </trkpt>
      <trkpt lat="43.23423" lon="5.50087">
        <ele>264.2</ele>
        <time>2025-10-18T07:13:32Z</time>
      </trkpt>
      <trkpt lat="43.23422" lon="5.50088">
        <ele>264.1</ele>
        <time>2025-10-18T07:13:33Z</time>
      </trkpt>
      <trkpt lat="43.23421" lon="5.50088">
        <ele>264.1</ele>
        <time>2025-10-18T07:13:34Z</time>
      </trkpt>
      <trkpt lat="43.2342" lon="5.50088">
        <ele>264.2</ele>
        <time>2025-10-18T07:13:35Z</time>
      </trkpt>
      <trkpt lat="43.2342" lon="5.50089">
        <ele>264.2</ele>
        <time>2025-10-18T07:13:36Z</time>
      </trkpt>
      <trkpt lat="43.23419" lon="5.5009">
        <ele>264.2</ele>
        <time>2025-10-18T07:13:37Z</time>
      </trkpt>
      <trkpt lat="43.23418" lon="5.5009">
        <ele>264.2</ele>
        <time>2025-10-18T07:13:38Z</time>
      </trkpt>
      <trkpt lat="43.23417" lon="5.5009">
        <ele>264.2</ele>
        <time>2025-10-18T07:13:39Z</time>
      </trkpt>
      <trkpt lat="43.23416" lon="5.50091">
        <ele>264.2</ele>
        <time>2025-10-18T07:13:40Z</time>
      </trkpt>
      <trkpt lat="43.23415" lon="5.50092">
        <ele>264.2</ele>
        <time>2025-10-18T07:13:41Z</time>
      </trkpt>
      <trkpt lat="43.23414" lon="5.50092">
        <ele>264.1</ele>
        <time>2025-10-18T07:13:42Z</time>
      </trkpt>
      <trkpt lat="43.23413" lon="5.50093">
        <ele>264</ele>
        <time>2025-10-18T07:13:43Z</time>
      </trkpt>
      <trkpt lat="43.23412" lon="5.50093">
        <ele>264</ele>
        <time>2025-10-18T07:13:44Z</time>
      </trkpt>
      <trkpt lat="43.23412" lon="5.50095">
        <ele>264</ele>
        <time>2025-10-18T07:13:45Z</time>
      </trkpt>
      <trkpt lat="43.23411" lon="5.50096">
        <ele>263.9</ele>
        <time>2025-10-18T07:13:46Z</time>
      </trkpt>
      <trkpt lat="43.2341" lon="5.50097">
        <ele>263.9</ele>
        <time>2025-10-18T07:13:47Z</time>
      </trkpt>
      <trkpt lat="43.23409" lon="5.50097">
        <ele>264.1</ele>
        <time>2025-10-18T07:13:48Z</time>
      </trkpt>
      <trkpt lat="43.23408" lon="5.50097">
        <ele>264.1</ele>
        <time>2025-10-18T07:13:49Z</time>
      </trkpt>
      <trkpt lat="43.23407" lon="5.50098">
        <ele>264.1</ele>
        <time>2025-10-18T07:13:50Z</time>
      </trkpt>
      <trkpt lat="43.23405" lon="5.50098">
        <ele>264.1</ele>
        <time>2025-10-18T07:13:51Z</time>
      </trkpt>
      <trkpt lat="43.23404" lon="5.50099">
        <ele>264.1</ele>
        <time>2025-10-18T07:13:52Z</time>
      </trkpt>
      <trkpt lat="43.23403" lon="5.50099">
        <ele>264.1</ele>
        <time>2025-10-18T07:13:53Z</time>
      </trkpt>
      <trkpt lat="43.23402" lon="5.501">
        <ele>264.1</ele>
        <time>2025-10-18T07:13:54Z</time>
      </trkpt>
      <trkpt lat="43.23401" lon="5.50101">
        <ele>264.1</ele>
        <time>2025-10-18T07:13:55Z</time>
      </trkpt>
      <trkpt lat="43.23401" lon="5.50102">
        <ele>264.1</ele>
        <time>2025-10-18T07:13:56Z</time>
      </trkpt>
      <trkpt lat="43.23399" lon="5.50103">
        <ele>264</ele>
        <time>2025-10-18T07:13:57Z</time>
      </trkpt>
      <trkpt lat="43.23399" lon="5.50103">
        <ele>264</ele>
        <time>2025-10-18T07:13:58Z</time>
      </trkpt>
      <trkpt lat="43.23398" lon="5.50104">
        <ele>263.9</ele>
        <time>2025-10-18T07:13:59Z</time>
      </trkpt>
      <trkpt lat="43.23396" lon="5.50104">
        <ele>263.9</ele>
        <time>2025-10-18T07:14:00Z</time>
      </trkpt>
      <trkpt lat="43.23395" lon="5.50105">
        <ele>263.9</ele>
        <time>2025-10-18T07:14:01Z</time>
      </trkpt>
      <trkpt lat="43.23394" lon="5.50106">
        <ele>263.8</ele>
        <time>2025-10-18T07:14:02Z</time>
      </trkpt>
      <trkpt lat="43.23393" lon="5.50106">
        <ele>263.8</ele>
        <time>2025-10-18T07:14:03Z</time>
      </trkpt>
      <trkpt lat="43.23393" lon="5.50107">
        <ele>263.7</ele>
        <time>2025-10-18T07:14:04Z</time>
      </trkpt>
      <trkpt lat="43.23392" lon="5.50107">
        <ele>263.7</ele>
        <time>2025-10-18T07:14:05Z</time>
      </trkpt>
      <trkpt lat="43.23391" lon="5.50108">
        <ele>263.7</ele>
        <time>2025-10-18T07:14:06Z</time>
      </trkpt>
      <trkpt lat="43.2339" lon="5.50108">
        <ele>263.6</ele>
        <time>2025-10-18T07:14:07Z</time>
      </trkpt>
      <trkpt lat="43.23389" lon="5.50109">
        <ele>263.5</ele>
        <time>2025-10-18T07:14:08Z</time>
      </trkpt>
      <trkpt lat="43.23389" lon="5.5011">
        <ele>263.4</ele>
        <time>2025-10-18T07:14:09Z</time>
      </trkpt>
      <trkpt lat="43.23388" lon="5.50111">
        <ele>263.4</ele>
        <time>2025-10-18T07:14:10Z</time>
      </trkpt>
      <trkpt lat="43.23387" lon="5.50112">
        <ele>263.3</ele>
        <time>2025-10-18T07:14:11Z</time>
      </trkpt>
      <trkpt lat="43.23386" lon="5.50112">
        <ele>263.4</ele>
        <time>2025-10-18T07:14:12Z</time>
      </trkpt>
      <trkpt lat="43.23385" lon="5.50113">
        <ele>263.4</ele>
        <time>2025-10-18T07:14:13Z</time>
      </trkpt>
      <trkpt lat="43.23384" lon="5.50114">
        <ele>263.4</ele>
        <time>2025-10-18T07:14:14Z</time>
      </trkpt>
      <trkpt lat="43.23383" lon="5.50114">
        <ele>263.4</ele>
        <time>2025-10-18T07:14:15Z</time>
      </trkpt>
      <trkpt lat="43.23382" lon="5.50115">
        <ele>263.3</ele>
        <time>2025-10-18T07:14:16Z</time>
      </trkpt>
      <trkpt lat="43.23381" lon="5.50115">
        <ele>263.2</ele>
        <time>2025-10-18T07:14:17Z</time>
      </trkpt>
      <trkpt lat="43.23381" lon="5.50116">
        <ele>263</ele>
        <time>2025-10-18T07:14:18Z</time>
      </trkpt>
      <trkpt lat="43.2338" lon="5.50117">
        <ele>262.9</ele>
        <time>2025-10-18T07:14:19Z</time>
      </trkpt>
      <trkpt lat="43.23379" lon="5.50118">
        <ele>262.8</ele>
        <time>2025-10-18T07:14:20Z</time>
      </trkpt>
      <trkpt lat="43.23378" lon="5.50118">
        <ele>262.7</ele>
        <time>2025-10-18T07:14:21Z</time>
      </trkpt>
      <trkpt lat="43.23377" lon="5.50118">
        <ele>262.7</ele>
        <time>2025-10-18T07:14:22Z</time>
      </trkpt>
      <trkpt lat="43.23376" lon="5.50118">
        <ele>262.6</ele>
        <time>2025-10-18T07:14:23Z</time>
      </trkpt>
      <trkpt lat="43.23375" lon="5.50119">
        <ele>262.6</ele>
        <time>2025-10-18T07:14:24Z</time>
      </trkpt>
      <trkpt lat="43.23374" lon="5.50119">
        <ele>262.6</ele>
        <time>2025-10-18T07:14:25Z</time>
      </trkpt>
      <trkpt lat="43.23373" lon="5.50119">
        <ele>262.6</ele>
        <time>2025-10-18T07:14:26Z</time>
      </trkpt>
      <trkpt lat="43.23372" lon="5.5012">
        <ele>262.6</ele>
        <time>2025-10-18T07:14:27Z</time>
      </trkpt>
      <trkpt lat="43.23371" lon="5.5012">
        <ele>262.6</ele>
        <time>2025-10-18T07:14:28Z</time>
      </trkpt>
      <trkpt lat="43.2337" lon="5.50119">
        <ele>262.4</ele>
        <time>2025-10-18T07:14:29Z</time>
      </trkpt>
      <trkpt lat="43.23369" lon="5.50119">
        <ele>262.3</ele>
        <time>2025-10-18T07:14:30Z</time>
      </trkpt>
      <trkpt lat="43.23368" lon="5.50119">
        <ele>262.2</ele>
        <time>2025-10-18T07:14:31Z</time>
      </trkpt>
      <trkpt lat="43.23367" lon="5.50119">
        <ele>262.2</ele>
        <time>2025-10-18T07:14:32Z</time>
      </trkpt>
      <trkpt lat="43.23366" lon="5.50118">
        <ele>262.1</ele>
        <time>2025-10-18T07:14:33Z</time>
      </trkpt>
      <trkpt lat="43.23365" lon="5.50118">
        <ele>261.9</ele>
        <time>2025-10-18T07:14:34Z</time>
      </trkpt>
      <trkpt lat="43.23364" lon="5.50118">
        <ele>261.8</ele>
        <time>2025-10-18T07:14:35Z</time>
      </trkpt>
      <trkpt lat="43.23363" lon="5.50119">
        <ele>261.7</ele>
        <time>2025-10-18T07:14:36Z</time>
      </trkpt>
      <trkpt lat="43.23362" lon="5.50119">
        <ele>261.6</ele>
        <time>2025-10-18T07:14:37Z</time>
      </trkpt>
      <trkpt lat="43.23361" lon="5.50119">
        <ele>261.5</ele>
        <time>2025-10-18T07:14:38Z</time>
      </trkpt>
      <trkpt lat="43.23361" lon="5.50119">
        <ele>261.4</ele>
        <time>2025-10-18T07:14:39Z</time>
      </trkpt>
      <trkpt lat="43.2336" lon="5.50119">
        <ele>261.3</ele>
        <time>2025-10-18T07:14:40Z</time>
      </trkpt>
      <trkpt lat="43.2336" lon="5.50119">
        <ele>261.2</ele>
        <time>2025-10-18T07:14:41Z</time>
      </trkpt>
      <trkpt lat="43.23359" lon="5.50119">
        <ele>261.3</ele>
        <time>2025-10-18T07:14:42Z</time>
      </trkpt>
      <trkpt lat="43.23358" lon="5.50119">
        <ele>261.3</ele>
        <time>2025-10-18T07:14:43Z</time>
      </trkpt>
      <trkpt lat="43.23357" lon="5.5012">
        <ele>261.3</ele>
        <time>2025-10-18T07:14:44Z</time>
      </trkpt>
      <trkpt lat="43.23357" lon="5.5012">
        <ele>261.2</ele>
        <time>2025-10-18T07:14:45Z</time>
      </trkpt>
      <trkpt lat="43.23356" lon="5.50119">
        <ele>261.1</ele>
        <time>2025-10-18T07:14:46Z</time>
      </trkpt>
      <trkpt lat="43.23355" lon="5.50119">
        <ele>261</ele>
        <time>2025-10-18T07:14:47Z</time>
      </trkpt>
      <trkpt lat="43.23355" lon="5.50119">
        <ele>261</ele>
        <time>2025-10-18T07:14:48Z</time>
      </trkpt>
      <trkpt lat="43.23354" lon="5.50119">
        <ele>260.9</ele>
        <time>2025-10-18T07:14:49Z</time>
      </trkpt>
      <trkpt lat="43.23353" lon="5.50119">
        <ele>260.7</ele>
        <time>2025-10-18T07:14:50Z</time>
      </trkpt>
      <trkpt lat="43.23353" lon="5.50119">
        <ele>260.5</ele>
        <time>2025-10-18T07:14:51Z</time>
      </trkpt>
      <trkpt lat="43.23352" lon="5.50118">
        <ele>260.3</ele>
        <time>2025-10-18T07:14:52Z</time>
      </trkpt>
      <trkpt lat="43.23351" lon="5.50117">
        <ele>260.2</ele>
        <time>2025-10-18T07:14:53Z</time>
      </trkpt>
      <trkpt lat="43.23351" lon="5.50117">
        <ele>260.1</ele>
        <time>2025-10-18T07:14:54Z</time>
      </trkpt>
      <trkpt lat="43.2335" lon="5.50116">
        <ele>259.9</ele>
        <time>2025-10-18T07:14:55Z</time>
      </trkpt>
      <trkpt lat="43.2335" lon="5.50116">
        <ele>259.7</ele>
        <time>2025-10-18T07:14:56Z</time>
      </trkpt>
      <trkpt lat="43.23349" lon="5.50115">
        <ele>259.5</ele>
        <time>2025-10-18T07:14:57Z</time>
      </trkpt>
      <trkpt lat="43.23349" lon="5.50115">
        <ele>259.4</ele>
        <time>2025-10-18T07:14:58Z</time>
      </trkpt>
      <trkpt lat="43.23348" lon="5.50115">
        <ele>259.3</ele>
        <time>2025-10-18T07:14:59Z</time>
      </trkpt>
      <trkpt lat="43.23348" lon="5.50115">
        <ele>259.2</ele>
        <time>2025-10-18T07:15:00Z</time>
      </trkpt>
      <trkpt lat="43.23347" lon="5.50114">
        <ele>259.1</ele>
        <time>2025-10-18T07:15:01Z</time>
      </trkpt>
      <trkpt lat="43.23346" lon="5.50114">
        <ele>259.1</ele>
        <time>2025-10-18T07:15:02Z</time>
      </trkpt>
      <trkpt lat="43.23345" lon="5.50114">
        <ele>258.9</ele>
        <time>2025-10-18T07:15:03Z</time>
      </trkpt>
      <trkpt lat="43.23345" lon="5.50114">
        <ele>258.9</ele>
        <time>2025-10-18T07:15:04Z</time>
      </trkpt>
      <trkpt lat="43.23344" lon="5.50114">
        <ele>258.8</ele>
        <time>2025-10-18T07:15:05Z</time>
      </trkpt>
      <trkpt lat="43.23344" lon="5.50114">
        <ele>258.7</ele>
        <time>2025-10-18T07:15:06Z</time>
      </trkpt>
      <trkpt lat="43.23344" lon="5.50114">
        <ele>258.6</ele>
        <time>2025-10-18T07:15:07Z</time>
      </trkpt>
      <trkpt lat="43.23344" lon="5.50115">
        <ele>258.5</ele>
        <time>2025-10-18T07:15:08Z</time>
      </trkpt>
      <trkpt lat="43.23344" lon="5.50115">
        <ele>258.4</ele>
        <time>2025-10-18T07:15:09Z</time>
      </trkpt>
      <trkpt lat="43.23343" lon="5.50115">
        <ele>258.3</ele>
        <time>2025-10-18T07:15:10Z</time>
      </trkpt>
      <trkpt lat="43.23343" lon="5.50115">
        <ele>258.2</ele>
        <time>2025-10-18T07:15:11Z</time>
      </trkpt>
      <trkpt lat="43.23343" lon="5.50115">
        <ele>258.2</ele>
        <time>2025-10-18T07:15:12Z</time>
      </trkpt>
      <trkpt lat="43.23342" lon="5.50115">
        <ele>258.1</ele>
        <time>2025-10-18T07:15:13Z</time>
      </trkpt>
      <trkpt lat="43.23342" lon="5.50115">
        <ele>258.1</ele>
        <time>2025-10-18T07:15:14Z</time>
      </trkpt>
      <trkpt lat="43.23342" lon="5.50115">
        <ele>258</ele>
        <time>2025-10-18T07:15:15Z</time>
      </trkpt>
      <trkpt lat="43.23342" lon="5.50115">
        <ele>258</ele>
        <time>2025-10-18T07:15:16Z</time>
      </trkpt>
      <trkpt lat="43.23342" lon="5.50115">
        <ele>257.9</ele>
        <time>2025-10-18T07:15:17Z</time>
      </trkpt>
      <trkpt lat="43.23342" lon="5.50115">
        <ele>257.9</ele>
        <time>2025-10-18T07:15:18Z</time>
      </trkpt>
      <trkpt lat="43.23342" lon="5.50115">
        <ele>257.9</ele>
        <time>2025-10-18T07:15:19Z</time>
      </trkpt>
      <trkpt lat="43.23341" lon="5.50116">
        <ele>257.8</ele>
        <time>2025-10-18T07:15:20Z</time>
      </trkpt>
      <trkpt lat="43.23341" lon="5.50116">
        <ele>257.7</ele>
        <time>2025-10-18T07:15:21Z</time>
      </trkpt>
      <trkpt lat="43.23341" lon="5.50116">
        <ele>257.7</ele>
        <time>2025-10-18T07:15:22Z</time>
      </trkpt>
      <trkpt lat="43.23341" lon="5.50116">
        <ele>257.7</ele>
        <time>2025-10-18T07:15:23Z</time>
      </trkpt>
      <trkpt lat="43.23341" lon="5.50116">
        <ele>257.7</ele>
        <time>2025-10-18T07:15:24Z</time>
      </trkpt>
      <trkpt lat="43.23341" lon="5.50116">
        <ele>257.7</ele>
        <time>2025-10-18T07:15:25Z</time>
      </trkpt>
      <trkpt lat="43.2334" lon="5.50116">
        <ele>257.6</ele>
        <time>2025-10-18T07:15:26Z</time>
      </trkpt>
      <trkpt lat="43.2334" lon="5.50116">
        <ele>257.5</ele>
        <time>2025-10-18T07:15:27Z</time>
      </trkpt>
      <trkpt lat="43.2334" lon="5.50116">
        <ele>257.4</ele>
        <time>2025-10-18T07:15:28Z</time>
      </trkpt>
      <trkpt lat="43.23339" lon="5.50116">
        <ele>257.3</ele>
        <time>2025-10-18T07:15:29Z</time>
      </trkpt>
      <trkpt lat="43.23339" lon="5.50115">
        <ele>257.3</ele>
        <time>2025-10-18T07:15:30Z</time>
      </trkpt>
      <trkpt lat="43.23339" lon="5.50115">
        <ele>257.3</ele>
        <time>2025-10-18T07:15:31Z</time>
      </trkpt>
      <trkpt lat="43.23338" lon="5.50115">
        <ele>257.2</ele>
        <time>2025-10-18T07:15:32Z</time>
      </trkpt>
      <trkpt lat="43.23338" lon="5.50115">
        <ele>257.1</ele>
        <time>2025-10-18T07:15:33Z</time>
      </trkpt>
      <trkpt lat="43.23338" lon="5.50115">
        <ele>257</ele>
        <time>2025-10-18T07:15:34Z</time>
      </trkpt>
      <trkpt lat="43.23338" lon="5.50115">
        <ele>256.9</ele>
        <time>2025-10-18T07:15:35Z</time>
      </trkpt>
      <trkpt lat="43.23337" lon="5.50114">
        <ele>256.8</ele>
        <time>2025-10-18T07:15:36Z</time>
      </trkpt>
      <trkpt lat="43.23337" lon="5.50113">
        <ele>256.7</ele>
        <time>2025-10-18T07:15:37Z</time>
      </trkpt>
      <trkpt lat="43.23337" lon="5.50113">
        <ele>256.6</ele>
        <time>2025-10-18T07:15:38Z</time>
      </trkpt>
      <trkpt lat="43.23337" lon="5.50112">
        <ele>256.5</ele>
        <time>2025-10-18T07:15:39Z</time>
      </trkpt>
      <trkpt lat="43.23336" lon="5.50112">
        <ele>256.3</ele>
        <time>2025-10-18T07:15:40Z</time>
      </trkpt>
      <trkpt lat="43.23335" lon="5.50112">
        <ele>256.2</ele>
        <time>2025-10-18T07:15:41Z</time>
      </trkpt>
      <trkpt lat="43.23335" lon="5.50111">
        <ele>256</ele>
        <time>2025-10-18T07:15:42Z</time>
      </trkpt>
      <trkpt lat="43.23335" lon="5.50111">
        <ele>255.9</ele>
        <time>2025-10-18T07:15:43Z</time>
      </trkpt>
      <trkpt lat="43.23335" lon="5.50112">
        <ele>255.8</ele>
        <time>2025-10-18T07:15:44Z</time>
      </trkpt>
      <trkpt lat="43.23335" lon="5.50112">
        <ele>255.7</ele>
        <time>2025-10-18T07:15:45Z</time>
      </trkpt>
      <trkpt lat="43.23334" lon="5.50112">
        <ele>255.4</ele>
        <time>2025-10-18T07:15:46Z</time>
      </trkpt>
      <trkpt lat="43.23334" lon="5.50112">
        <ele>255.2</ele>
        <time>2025-10-18T07:15:47Z</time>
      </trkpt>
      <trkpt lat="43.23334" lon="5.50112">
        <ele>255.2</ele>
        <time>2025-10-18T07:15:48Z</time>
      </trkpt>
      <trkpt lat="43.23334" lon="5.50112">
        <ele>255.1</ele>
        <time>2025-10-18T07:15:49Z</time>
      </trkpt>
      <trkpt lat="43.23334" lon="5.50112">
        <ele>254.9</ele>
        <time>2025-10-18T07:15:50Z</time>
      </trkpt>
      <trkpt lat="43.23334" lon="5.50112">
        <ele>254.8</ele>
        <time>2025-10-18T07:15:51Z</time>
      </trkpt>
      <trkpt lat="43.23333" lon="5.50111">
        <ele>254.7</ele>
        <time>2025-10-18T07:15:52Z</time>
      </trkpt>
      <trkpt lat="43.23333" lon="5.50112">
        <ele>254.6</ele>
        <time>2025-10-18T07:15:53Z</time>
      </trkpt>
      <trkpt lat="43.23333" lon="5.50112">
        <ele>254.6</ele>
        <time>2025-10-18T07:15:54Z</time>
      </trkpt>
      <trkpt lat="43.23333" lon="5.50112">
        <ele>254.6</ele>
        <time>2025-10-18T07:15:55Z</time>
      </trkpt>
      <trkpt lat="43.23332" lon="5.50112">
        <ele>254.6</ele>
        <time>2025-10-18T07:15:56Z</time>
      </trkpt>
      <trkpt lat="43.23332" lon="5.50112">
        <ele>254.5</ele>
        <time>2025-10-18T07:15:57Z</time>
      </trkpt>
      <trkpt lat="43.23331" lon="5.50112">
        <ele>254.4</ele>
        <time>2025-10-18T07:15:58Z</time>
      </trkpt>
      <trkpt lat="43.23331" lon="5.50112">
        <ele>254.2</ele>
        <time>2025-10-18T07:15:59Z</time>
      </trkpt>
      <trkpt lat="43.23331" lon="5.50112">
        <ele>254.1</ele>
        <time>2025-10-18T07:16:00Z</time>
      </trkpt>
      <trkpt lat="43.2333" lon="5.50112">
        <ele>254.1</ele>
        <time>2025-10-18T07:16:01Z</time>
      </trkpt>
      <trkpt lat="43.2333" lon="5.50112">
        <ele>254</ele>
        <time>2025-10-18T07:16:02Z</time>
      </trkpt>
      <trkpt lat="43.2333" lon="5.50111">
        <ele>253.9</ele>
        <time>2025-10-18T07:16:03Z</time>
      </trkpt>
      <trkpt lat="43.2333" lon="5.50111">
        <ele>253.8</ele>
        <time>2025-10-18T07:16:04Z</time>
      </trkpt>
      <trkpt lat="43.23329" lon="5.50111">
        <ele>253.6</ele>
        <time>2025-10-18T07:16:05Z</time>
      </trkpt>
      <trkpt lat="43.23329" lon="5.50111">
        <ele>253.4</ele>
        <time>2025-10-18T07:16:06Z</time>
      </trkpt>
      <trkpt lat="43.23328" lon="5.50111">
        <ele>253.3</ele>
        <time>2025-10-18T07:16:07Z</time>
      </trkpt>
      <trkpt lat="43.23328" lon="5.50111">
        <ele>253.2</ele>
        <time>2025-10-18T07:16:08Z</time>
      </trkpt>
      <trkpt lat="43.23328" lon="5.50111">
        <ele>253</ele>
        <time>2025-10-18T07:16:09Z</time>
      </trkpt>
      <trkpt lat="43.23327" lon="5.50111">
        <ele>252.8</ele>
        <time>2025-10-18T07:16:10Z</time>
      </trkpt>
      <trkpt lat="43.23327" lon="5.50111">
        <ele>252.7</ele>
        <time>2025-10-18T07:16:11Z</time>
      </trkpt>
      <trkpt lat="43.23327" lon="5.5011">
        <ele>251.9</ele>
        <time>2025-10-18T07:16:12Z</time>
      </trkpt>
      <trkpt lat="43.23326" lon="5.5011">
        <ele>251.7</ele>
        <time>2025-10-18T07:16:13Z</time>
      </trkpt>
      <trkpt lat="43.23326" lon="5.5011">
        <ele>251.6</ele>
        <time>2025-10-18T07:16:14Z</time>
      </trkpt>
      <trkpt lat="43.23326" lon="5.5011">
        <ele>251.5</ele>
        <time>2025-10-18T07:16:15Z</time>
      </trkpt>
      <trkpt lat="43.23325" lon="5.5011">
        <ele>251.4</ele>
        <time>2025-10-18T07:16:16Z</time>
      </trkpt>
      <trkpt lat="43.23325" lon="5.5011">
        <ele>251.2</ele>
        <time>2025-10-18T07:16:17Z</time>
      </trkpt>
      <trkpt lat="43.23325" lon="5.5011">
        <ele>251.1</ele>
        <time>2025-10-18T07:16:18Z</time>
      </trkpt>
      <trkpt lat="43.23325" lon="5.50111">
        <ele>251.1</ele>
        <time>2025-10-18T07:16:19Z</time>
      </trkpt>
      <trkpt lat="43.23324" lon="5.50111">
        <ele>251</ele>
        <time>2025-10-18T07:16:20Z</time>
      </trkpt>
      <trkpt lat="43.23324" lon="5.50111">
        <ele>250.9</ele>
        <time>2025-10-18T07:16:21Z</time>
      </trkpt>
      <trkpt lat="43.23324" lon="5.50111">
        <ele>250.7</ele>
        <time>2025-10-18T07:16:22Z</time>
      </trkpt>
      <trkpt lat="43.23324" lon="5.50111">
        <ele>250.6</ele>
        <time>2025-10-18T07:16:23Z</time>
      </trkpt>
      <trkpt lat="43.23324" lon="5.50111">
        <ele>250.5</ele>
        <time>2025-10-18T07:16:24Z</time>
      </trkpt>
      <trkpt lat="43.23323" lon="5.50111">
        <ele>250.5</ele>
        <time>2025-10-18T07:16:25Z</time>
      </trkpt>
      <trkpt lat="43.23323" lon="5.50111">
        <ele>250.3</ele>
        <time>2025-10-18T07:16:26Z</time>
      </trkpt>
      <trkpt lat="43.23323" lon="5.50111">
        <ele>250.2</ele>
        <time>2025-10-18T07:16:27Z</time>
      </trkpt>
      <trkpt lat="43.23322" lon="5.50111">
        <ele>250.1</ele>
        <time>2025-10-18T07:16:28Z</time>
      </trkpt>
      <trkpt lat="43.23322" lon="5.50111">
        <ele>250</ele>
        <time>2025-10-18T07:16:29Z</time>
      </trkpt>
      <trkpt lat="43.23322" lon="5.50112">
        <ele>249.9</ele>
        <time>2025-10-18T07:16:30Z</time>
      </trkpt>
      <trkpt lat="43.23321" lon="5.50112">
        <ele>249.8</ele>
        <time>2025-10-18T07:16:31Z</time>
      </trkpt>
      <trkpt lat="43.23321" lon="5.50112">
        <ele>249.7</ele>
        <time>2025-10-18T07:16:32Z</time>
      </trkpt>
      <trkpt lat="43.23321" lon="5.50112">
        <ele>249.6</ele>
        <time>2025-10-18T07:16:33Z</time>
      </trkpt>
      <trkpt lat="43.23321" lon="5.50112">
        <ele>249.5</ele>
        <time>2025-10-18T07:16:34Z</time>
      </trkpt>
      <trkpt lat="43.23321" lon="5.50112">
        <ele>249.4</ele>
        <time>2025-10-18T07:16:35Z</time>
      </trkpt>
      <trkpt lat="43.23321" lon="5.50112">
        <ele>249.3</ele>
        <time>2025-10-18T07:16:36Z</time>
      </trkpt>
      <trkpt lat="43.2332" lon="5.50112">
        <ele>249.3</ele>
        <time>2025-10-18T07:16:37Z</time>
      </trkpt>
      <trkpt lat="43.2332" lon="5.50112">
        <ele>249.2</ele>
        <time>2025-10-18T07:16:38Z</time>
      </trkpt>
      <trkpt lat="43.2332" lon="5.50111">
        <ele>249.1</ele>
        <time>2025-10-18T07:16:39Z</time>
      </trkpt>
      <trkpt lat="43.23319" lon="5.50111">
        <ele>249</ele>
        <time>2025-10-18T07:16:40Z</time>
      </trkpt>
      <trkpt lat="43.23318" lon="5.5011">
        <ele>248.8</ele>
        <time>2025-10-18T07:16:41Z</time>
      </trkpt>
      <trkpt lat="43.23318" lon="5.50111">
        <ele>248.6</ele>
        <time>2025-10-18T07:16:42Z</time>
      </trkpt>
      <trkpt lat="43.23318" lon="5.50111">
        <ele>248.4</ele>
        <time>2025-10-18T07:16:43Z</time>
      </trkpt>
      <trkpt lat="43.23317" lon="5.50112">
        <ele>248.2</ele>
        <time>2025-10-18T07:16:44Z</time>
      </trkpt>
      <trkpt lat="43.23317" lon="5.50113">
        <ele>248</ele>
        <time>2025-10-18T07:16:45Z</time>
      </trkpt>
      <trkpt lat="43.23317" lon="5.50113">
        <ele>247.8</ele>
        <time>2025-10-18T07:16:46Z</time>
      </trkpt>
      <trkpt lat="43.23317" lon="5.50113">
        <ele>247.7</ele>
        <time>2025-10-18T07:16:47Z</time>
      </trkpt>
      <trkpt lat="43.23317" lon="5.50113">
        <ele>247.5</ele>
        <time>2025-10-18T07:16:48Z</time>
      </trkpt>
      <trkpt lat="43.23316" lon="5.50113">
        <ele>247.4</ele>
        <time>2025-10-18T07:16:49Z</time>
      </trkpt>
      <trkpt lat="43.23316" lon="5.50113">
        <ele>247.3</ele>
        <time>2025-10-18T07:16:50Z</time>
      </trkpt>
      <trkpt lat="43.23315" lon="5.50113">
        <ele>247.2</ele>
        <time>2025-10-18T07:16:51Z</time>
      </trkpt>
      <trkpt lat="43.23315" lon="5.50113">
        <ele>247</ele>
        <time>2025-10-18T07:16:52Z</time>
      </trkpt>
      <trkpt lat="43.23314" lon="5.50112">
        <ele>246.9</ele>
        <time>2025-10-18T07:16:53Z</time>
      </trkpt>
      <trkpt lat="43.23313" lon="5.50112">
        <ele>246.7</ele>
        <time>2025-10-18T07:16:54Z</time>
      </trkpt>
      <trkpt lat="43.23312" lon="5.50111">
        <ele>246.5</ele>
        <time>2025-10-18T07:16:55Z</time>
      </trkpt>
      <trkpt lat="43.23312" lon="5.50111">
        <ele>246.3</ele>
        <time>2025-10-18T07:16:56Z</time>
      </trkpt>
      <trkpt lat="43.23311" lon="5.50111">
        <ele>246.1</ele>
        <time>2025-10-18T07:16:57Z</time>
      </trkpt>
      <trkpt lat="43.23311" lon="5.50111">
        <ele>245.9</ele>
        <time>2025-10-18T07:16:58Z</time>
      </trkpt>
      <trkpt lat="43.2331" lon="5.5011">
        <ele>245.7</ele>
        <time>2025-10-18T07:16:59Z</time>
      </trkpt>
      <trkpt lat="43.23309" lon="5.5011">
        <ele>245.6</ele>
        <time>2025-10-18T07:17:00Z</time>
      </trkpt>
      <trkpt lat="43.23309" lon="5.5011">
        <ele>245.3</ele>
        <time>2025-10-18T07:17:01Z</time>
      </trkpt>
      <trkpt lat="43.23308" lon="5.5011">
        <ele>245.1</ele>
        <time>2025-10-18T07:17:02Z</time>
      </trkpt>
      <trkpt lat="43.23308" lon="5.5011">
        <ele>245</ele>
        <time>2025-10-18T07:17:03Z</time>
      </trkpt>
      <trkpt lat="43.23308" lon="5.5011">
        <ele>244.9</ele>
        <time>2025-10-18T07:17:04Z</time>
      </trkpt>
      <trkpt lat="43.23308" lon="5.5011">
        <ele>244.8</ele>
        <time>2025-10-18T07:17:05Z</time>
      </trkpt>
      <trkpt lat="43.23308" lon="5.5011">
        <ele>244.7</ele>
        <time>2025-10-18T07:17:06Z</time>
      </trkpt>
      <trkpt lat="43.23308" lon="5.5011">
        <ele>244.7</ele>
        <time>2025-10-18T07:17:07Z</time>
      </trkpt>
      <trkpt lat="43.23308" lon="5.5011">
        <ele>244.7</ele>
        <time>2025-10-18T07:17:08Z</time>
      </trkpt>
      <trkpt lat="43.23308" lon="5.5011">
        <ele>244.6</ele>
        <time>2025-10-18T07:17:09Z</time>
      </trkpt>
      <trkpt lat="43.23308" lon="5.5011">
        <ele>244.5</ele>
        <time>2025-10-18T07:17:10Z</time>
      </trkpt>
      <trkpt lat="43.23308" lon="5.5011">
        <ele>244.4</ele>
        <time>2025-10-18T07:17:11Z</time>
      </trkpt>
      <trkpt lat="43.23308" lon="5.5011">
        <ele>244.4</ele>
        <time>2025-10-18T07:17:12Z</time>
      </trkpt>
      <trkpt lat="43.23308" lon="5.5011">
        <ele>244.4</ele>
        <time>2025-10-18T07:17:13Z</time>
      </trkpt>
      <trkpt lat="43.23308" lon="5.5011">
        <ele>244.4</ele>
        <time>2025-10-18T07:17:14Z</time>
      </trkpt>
      <trkpt lat="43.23308" lon="5.5011">
        <ele>244.5</ele>
        <time>2025-10-18T07:17:15Z</time>
      </trkpt>
      <trkpt lat="43.23308" lon="5.5011">
        <ele>244.4</ele>
        <time>2025-10-18T07:17:16Z</time>
      </trkpt>
      <trkpt lat="43.23308" lon="5.5011">
        <ele>244.4</ele>
        <time>2025-10-18T07:17:17Z</time>
      </trkpt>
      <trkpt lat="43.23307" lon="5.5011">
        <ele>244.4</ele>
        <time>2025-10-18T07:17:18Z</time>
      </trkpt>
      <trkpt lat="43.23307" lon="5.5011">
        <ele>244.4</ele>
        <time>2025-10-18T07:17:19Z</time>
      </trkpt>
      <trkpt lat="43.23307" lon="5.50111">
        <ele>244.3</ele>
        <time>2025-10-18T07:17:20Z</time>
      </trkpt>
      <trkpt lat="43.23306" lon="5.50111">
        <ele>244.2</ele>
        <time>2025-10-18T07:17:21Z</time>
      </trkpt>
      <trkpt lat="43.23307" lon="5.50111">
        <ele>244.1</ele>
        <time>2025-10-18T07:17:22Z</time>
      </trkpt>
      <trkpt lat="43.23306" lon="5.50111">
        <ele>244.1</ele>
        <time>2025-10-18T07:17:23Z</time>
      </trkpt>
      <trkpt lat="43.23306" lon="5.50111">
        <ele>244</ele>
        <time>2025-10-18T07:17:24Z</time>
      </trkpt>
      <trkpt lat="43.23305" lon="5.50111">
        <ele>244</ele>
        <time>2025-10-18T07:17:25Z</time>
      </trkpt>
      <trkpt lat="43.23305" lon="5.50111">
        <ele>243.9</ele>
        <time>2025-10-18T07:17:26Z</time>
      </trkpt>
      <trkpt lat="43.23305" lon="5.50112">
        <ele>243.8</ele>
        <time>2025-10-18T07:17:27Z</time>
      </trkpt>
      <trkpt lat="43.23306" lon="5.50112">
        <ele>243.7</ele>
        <time>2025-10-18T07:17:28Z</time>
      </trkpt>
      <trkpt lat="43.23306" lon="5.50112">
        <ele>243.7</ele>
        <time>2025-10-18T07:17:29Z</time>
      </trkpt>
      <trkpt lat="43.23305" lon="5.50112">
        <ele>243.6</ele>
        <time>2025-10-18T07:17:30Z</time>
      </trkpt>
      <trkpt lat="43.23305" lon="5.50112">
        <ele>243.4</ele>
        <time>2025-10-18T07:17:31Z</time>
      </trkpt>
      <trkpt lat="43.23305" lon="5.50111">
        <ele>243.3</ele>
        <time>2025-10-18T07:17:32Z</time>
      </trkpt>
      <trkpt lat="43.23305" lon="5.50111">
        <ele>243.2</ele>
        <time>2025-10-18T07:17:33Z</time>
      </trkpt>
      <trkpt lat="43.23305" lon="5.5011">
        <ele>243.1</ele>
        <time>2025-10-18T07:17:34Z</time>
      </trkpt>
      <trkpt lat="43.23304" lon="5.5011">
        <ele>243</ele>
        <time>2025-10-18T07:17:35Z</time>
      </trkpt>
      <trkpt lat="43.23303" lon="5.50111">
        <ele>242.8</ele>
        <time>2025-10-18T07:17:36Z</time>
      </trkpt>
      <trkpt lat="43.23303" lon="5.50111">
        <ele>242.7</ele>
        <time>2025-10-18T07:17:37Z</time>
      </trkpt>
      <trkpt lat="43.23302" lon="5.50112">
        <ele>242.6</ele>
        <time>2025-10-18T07:17:38Z</time>
      </trkpt>
      <trkpt lat="43.23302" lon="5.50113">
        <ele>242.4</ele>
        <time>2025-10-18T07:17:39Z</time>
      </trkpt>
      <trkpt lat="43.23301" lon="5.50113">
        <ele>242.3</ele>
        <time>2025-10-18T07:17:40Z</time>
      </trkpt>
      <trkpt lat="43.233" lon="5.50113">
        <ele>242.1</ele>
        <time>2025-10-18T07:17:41Z</time>
      </trkpt>
      <trkpt lat="43.23299" lon="5.50114">
        <ele>241.9</ele>
        <time>2025-10-18T07:17:42Z</time>
      </trkpt>
      <trkpt lat="43.23299" lon="5.50114">
        <ele>241.7</ele>
        <time>2025-10-18T07:17:43Z</time>
      </trkpt>
      <trkpt lat="43.23298" lon="5.50114">
        <ele>241.6</ele>
        <time>2025-10-18T07:17:44Z</time>
      </trkpt>
      <trkpt lat="43.23297" lon="5.50114">
        <ele>241.5</ele>
        <time>2025-10-18T07:17:45Z</time>
      </trkpt>
      <trkpt lat="43.23297" lon="5.50114">
        <ele>241.4</ele>
        <time>2025-10-18T07:17:46Z</time>
      </trkpt>
      <trkpt lat="43.23296" lon="5.50115">
        <ele>241.3</ele>
        <time>2025-10-18T07:17:47Z</time>
      </trkpt>
      <trkpt lat="43.23296" lon="5.50115">
        <ele>241.2</ele>
        <time>2025-10-18T07:17:48Z</time>
      </trkpt>
      <trkpt lat="43.23296" lon="5.50115">
        <ele>241</ele>
        <time>2025-10-18T07:17:49Z</time>
      </trkpt>
      <trkpt lat="43.23295" lon="5.50115">
        <ele>240.9</ele>
        <time>2025-10-18T07:17:50Z</time>
      </trkpt>
      <trkpt lat="43.23295" lon="5.50115">
        <ele>240.9</ele>
        <time>2025-10-18T07:17:51Z</time>
      </trkpt>
      <trkpt lat="43.23294" lon="5.50115">
        <ele>240.8</ele>
        <time>2025-10-18T07:17:52Z</time>
      </trkpt>
      <trkpt lat="43.23294" lon="5.50116">
        <ele>240.7</ele>
        <time>2025-10-18T07:17:53Z</time>
      </trkpt>
      <trkpt lat="43.23293" lon="5.50116">
        <ele>240.6</ele>
        <time>2025-10-18T07:17:54Z</time>
      </trkpt>
      <trkpt lat="43.23293" lon="5.50116">
        <ele>240.4</ele>
        <time>2025-10-18T07:17:55Z</time>
      </trkpt>
      <trkpt lat="43.23293" lon="5.50116">
        <ele>240.3</ele>
        <time>2025-10-18T07:17:56Z</time>
      </trkpt>
      <trkpt lat="43.23293" lon="5.50116">
        <ele>240.1</ele>
        <time>2025-10-18T07:17:57Z</time>
      </trkpt>
      <trkpt lat="43.23293" lon="5.50116">
        <ele>240</ele>
        <time>2025-10-18T07:17:58Z</time>
      </trkpt>
      <trkpt lat="43.23293" lon="5.50116">
        <ele>239.9</ele>
        <time>2025-10-18T07:17:59Z</time>
      </trkpt>
      <trkpt lat="43.23293" lon="5.50116">
        <ele>239.8</ele>
        <time>2025-10-18T07:18:00Z</time>
      </trkpt>
      <trkpt lat="43.23293" lon="5.50116">
        <ele>239.8</ele>
        <time>2025-10-18T07:18:01Z</time>
      </trkpt>
      <trkpt lat="43.23293" lon="5.50116">
        <ele>239.7</ele>
        <time>2025-10-18T07:18:02Z</time>
      </trkpt>
      <trkpt lat="43.23293" lon="5.50117">
        <ele>239.7</ele>
        <time>2025-10-18T07:18:03Z</time>
      </trkpt>
      <trkpt lat="43.23293" lon="5.50117">
        <ele>239.7</ele>
        <time>2025-10-18T07:18:04Z</time>
      </trkpt>
      <trkpt lat="43.23292" lon="5.50117">
        <ele>239.7</ele>
        <time>2025-10-18T07:18:05Z</time>
      </trkpt>
      <trkpt lat="43.23292" lon="5.50117">
        <ele>239.6</ele>
        <time>2025-10-18T07:18:06Z</time>
      </trkpt>
      <trkpt lat="43.23292" lon="5.50117">
        <ele>239.5</ele>
        <time>2025-10-18T07:18:07Z</time>
      </trkpt>
      <trkpt lat="43.23291" lon="5.50117">
        <ele>239.4</ele>
        <time>2025-10-18T07:18:08Z</time>
      </trkpt>
      <trkpt lat="43.23291" lon="5.50117">
        <ele>239.3</ele>
        <time>2025-10-18T07:18:09Z</time>
      </trkpt>
      <trkpt lat="43.23291" lon="5.50117">
        <ele>239.2</ele>
        <time>2025-10-18T07:18:10Z</time>
      </trkpt>
      <trkpt lat="43.23291" lon="5.50117">
        <ele>239.2</ele>
        <time>2025-10-18T07:18:11Z</time>
      </trkpt>
      <trkpt lat="43.23291" lon="5.50117">
        <ele>239.2</ele>
        <time>2025-10-18T07:18:12Z</time>
      </trkpt>
      <trkpt lat="43.23291" lon="5.50117">
        <ele>239.2</ele>
        <time>2025-10-18T07:18:13Z</time>
      </trkpt>
      <trkpt lat="43.23291" lon="5.50117">
        <ele>239.2</ele>
        <time>2025-10-18T07:18:14Z</time>
      </trkpt>
      <trkpt lat="43.23291" lon="5.50117">
        <ele>239.1</ele>
        <time>2025-10-18T07:18:15Z</time>
      </trkpt>
      <trkpt lat="43.23291" lon="5.50117">
        <ele>239.1</ele>
        <time>2025-10-18T07:18:16Z</time>
      </trkpt>
      <trkpt lat="43.2329" lon="5.50118">
        <ele>239</ele>
        <time>2025-10-18T07:18:17Z</time>
      </trkpt>
      <trkpt lat="43.2329" lon="5.50118">
        <ele>239</ele>
        <time>2025-10-18T07:18:18Z</time>
      </trkpt>
      <trkpt lat="43.2329" lon="5.50118">
        <ele>239</ele>
        <time>2025-10-18T07:18:19Z</time>
      </trkpt>
      <trkpt lat="43.2329" lon="5.50118">
        <ele>238.7</ele>
        <time>2025-10-18T07:18:20Z</time>
      </trkpt>
      <trkpt lat="43.2329" lon="5.50119">
        <ele>238.6</ele>
        <time>2025-10-18T07:18:21Z</time>
      </trkpt>
      <trkpt lat="43.2329" lon="5.50119">
        <ele>238.5</ele>
        <time>2025-10-18T07:18:22Z</time>
      </trkpt>
      <trkpt lat="43.2329" lon="5.50119">
        <ele>238.3</ele>
        <time>2025-10-18T07:18:23Z</time>
      </trkpt>
      <trkpt lat="43.23289" lon="5.50119">
        <ele>238.3</ele>
        <time>2025-10-18T07:18:24Z</time>
      </trkpt>
      <trkpt lat="43.23289" lon="5.50119">
        <ele>238.3</ele>
        <time>2025-10-18T07:18:25Z</time>
      </trkpt>
      <trkpt lat="43.23289" lon="5.50119">
        <ele>238.4</ele>
        <time>2025-10-18T07:18:26Z</time>
      </trkpt>
      <trkpt lat="43.23289" lon="5.50119">
        <ele>238.3</ele>
        <time>2025-10-18T07:18:27Z</time>
      </trkpt>
      <trkpt lat="43.23289" lon="5.50119">
        <ele>238.3</ele>
        <time>2025-10-18T07:18:28Z</time>
      </trkpt>
      <trkpt lat="43.23289" lon="5.50119">
        <ele>238.2</ele>
        <time>2025-10-18T07:18:29Z</time>
      </trkpt>
      <trkpt lat="43.23288" lon="5.50119">
        <ele>238.2</ele>
        <time>2025-10-18T07:18:30Z</time>
      </trkpt>
      <trkpt lat="43.23288" lon="5.50119">
        <ele>238.2</ele>
        <time>2025-10-18T07:18:31Z</time>
      </trkpt>
      <trkpt lat="43.23288" lon="5.50119">
        <ele>238.1</ele>
        <time>2025-10-18T07:18:32Z</time>
      </trkpt>
      <trkpt lat="43.23288" lon="5.50119">
        <ele>237.9</ele>
        <time>2025-10-18T07:18:33Z</time>
      </trkpt>
      <trkpt lat="43.23288" lon="5.50119">
        <ele>237.8</ele>
        <time>2025-10-18T07:18:34Z</time>
      </trkpt>
      <trkpt lat="43.23288" lon="5.50119">
        <ele>237.7</ele>
        <time>2025-10-18T07:18:35Z</time>
      </trkpt>
      <trkpt lat="43.23288" lon="5.50119">
        <ele>237.6</ele>
        <time>2025-10-18T07:18:36Z</time>
      </trkpt>
      <trkpt lat="43.23288" lon="5.50119">
        <ele>237.5</ele>
        <time>2025-10-18T07:18:37Z</time>
      </trkpt>
      <trkpt lat="43.23288" lon="5.50119">
        <ele>237.5</ele>
        <time>2025-10-18T07:18:38Z</time>
      </trkpt>
      <trkpt lat="43.23288" lon="5.50119">
        <ele>237.3</ele>
        <time>2025-10-18T07:18:39Z</time>
      </trkpt>
      <trkpt lat="43.23288" lon="5.50119">
        <ele>237.3</ele>
        <time>2025-10-18T07:18:40Z</time>
      </trkpt>
      <trkpt lat="43.23288" lon="5.50119">
        <ele>237.2</ele>
        <time>2025-10-18T07:18:41Z</time>
      </trkpt>
      <trkpt lat="43.23288" lon="5.50119">
        <ele>237.1</ele>
        <time>2025-10-18T07:18:42Z</time>
      </trkpt>
      <trkpt lat="43.23288" lon="5.50118">
        <ele>237.1</ele>
        <time>2025-10-18T07:18:43Z</time>
      </trkpt>
      <trkpt lat="43.23287" lon="5.50119">
        <ele>237</ele>
        <time>2025-10-18T07:18:44Z</time>
      </trkpt>
      <trkpt lat="43.23287" lon="5.50119">
        <ele>236.9</ele>
        <time>2025-10-18T07:18:45Z</time>
      </trkpt>
      <trkpt lat="43.23287" lon="5.50118">
        <ele>236.8</ele>
        <time>2025-10-18T07:18:46Z</time>
      </trkpt>
      <trkpt lat="43.23286" lon="5.50118">
        <ele>236.8</ele>
        <time>2025-10-18T07:18:47Z</time>
      </trkpt>
      <trkpt lat="43.23286" lon="5.50117">
        <ele>236.6</ele>
        <time>2025-10-18T07:18:48Z</time>
      </trkpt>
      <trkpt lat="43.23286" lon="5.50117">
        <ele>236.5</ele>
        <time>2025-10-18T07:18:49Z</time>
      </trkpt>
      <trkpt lat="43.23285" lon="5.50118">
        <ele>236.3</ele>
        <time>2025-10-18T07:18:50Z</time>
      </trkpt>
      <trkpt lat="43.23285" lon="5.50118">
        <ele>236.2</ele>
        <time>2025-10-18T07:18:51Z</time>
      </trkpt>
      <trkpt lat="43.23285" lon="5.50118">
        <ele>236.1</ele>
        <time>2025-10-18T07:18:52Z</time>
      </trkpt>
      <trkpt lat="43.23285" lon="5.50118">
        <ele>235.9</ele>
        <time>2025-10-18T07:18:53Z</time>
      </trkpt>
      <trkpt lat="43.23285" lon="5.50118">
        <ele>235.8</ele>
        <time>2025-10-18T07:18:54Z</time>
      </trkpt>
      <trkpt lat="43.23285" lon="5.50119">
        <ele>235.8</ele>
        <time>2025-10-18T07:18:55Z</time>
      </trkpt>
      <trkpt lat="43.23285" lon="5.50119">
        <ele>235.8</ele>
        <time>2025-10-18T07:18:56Z</time>
      </trkpt>
      <trkpt lat="43.23285" lon="5.50119">
        <ele>235.8</ele>
        <time>2025-10-18T07:18:57Z</time>
      </trkpt>
      <trkpt lat="43.23285" lon="5.50119">
        <ele>235.7</ele>
        <time>2025-10-18T07:18:58Z</time>
      </trkpt>
      <trkpt lat="43.23285" lon="5.50119">
        <ele>235.7</ele>
        <time>2025-10-18T07:18:59Z</time>
      </trkpt>
      <trkpt lat="43.23284" lon="5.50118">
        <ele>235.6</ele>
        <time>2025-10-18T07:19:00Z</time>
      </trkpt>
      <trkpt lat="43.23284" lon="5.50118">
        <ele>235.5</ele>
        <time>2025-10-18T07:19:01Z</time>
      </trkpt>
      <trkpt lat="43.23284" lon="5.50118">
        <ele>235.3</ele>
        <time>2025-10-18T07:19:02Z</time>
      </trkpt>
      <trkpt lat="43.23284" lon="5.50117">
        <ele>235.3</ele>
        <time>2025-10-18T07:19:03Z</time>
      </trkpt>
      <trkpt lat="43.23284" lon="5.50116">
        <ele>235.1</ele>
        <time>2025-10-18T07:19:04Z</time>
      </trkpt>
      <trkpt lat="43.23284" lon="5.50116">
        <ele>235</ele>
        <time>2025-10-18T07:19:05Z</time>
      </trkpt>
      <trkpt lat="43.23283" lon="5.50116">
        <ele>234.9</ele>
        <time>2025-10-18T07:19:06Z</time>
      </trkpt>
      <trkpt lat="43.23283" lon="5.50116">
        <ele>234.7</ele>
        <time>2025-10-18T07:19:07Z</time>
      </trkpt>
      <trkpt lat="43.23283" lon="5.50116">
        <ele>234.6</ele>
        <time>2025-10-18T07:19:08Z</time>
      </trkpt>
      <trkpt lat="43.23283" lon="5.50116">
        <ele>234.5</ele>
        <time>2025-10-18T07:19:09Z</time>
      </trkpt>
      <trkpt lat="43.23283" lon="5.50116">
        <ele>234.4</ele>
        <time>2025-10-18T07:19:10Z</time>
      </trkpt>
      <trkpt lat="43.23283" lon="5.50117">
        <ele>234.2</ele>
        <time>2025-10-18T07:19:11Z</time>
      </trkpt>
      <trkpt lat="43.23283" lon="5.50117">
        <ele>234.1</ele>
        <time>2025-10-18T07:19:12Z</time>
      </trkpt>
      <trkpt lat="43.23283" lon="5.50117">
        <ele>234.1</ele>
        <time>2025-10-18T07:19:13Z</time>
      </trkpt>
      <trkpt lat="43.23283" lon="5.50117">
        <ele>234</ele>
        <time>2025-10-18T07:19:14Z</time>
      </trkpt>
      <trkpt lat="43.23283" lon="5.50117">
        <ele>233.9</ele>
        <time>2025-10-18T07:19:15Z</time>
      </trkpt>
      <trkpt lat="43.23283" lon="5.50117">
        <ele>233.9</ele>
        <time>2025-10-18T07:19:16Z</time>
      </trkpt>
      <trkpt lat="43.23283" lon="5.50118">
        <ele>233.9</ele>
        <time>2025-10-18T07:19:17Z</time>
      </trkpt>
      <trkpt lat="43.23283" lon="5.50117">
        <ele>233.8</ele>
        <time>2025-10-18T07:19:18Z</time>
      </trkpt>
      <trkpt lat="43.23283" lon="5.50117">
        <ele>233.8</ele>
        <time>2025-10-18T07:19:19Z</time>
      </trkpt>
      <trkpt lat="43.23283" lon="5.50117">
        <ele>233.7</ele>
        <time>2025-10-18T07:19:20Z</time>
      </trkpt>
      <trkpt lat="43.23282" lon="5.50117">
        <ele>233.7</ele>
        <time>2025-10-18T07:19:21Z</time>
      </trkpt>
      <trkpt lat="43.23282" lon="5.50117">
        <ele>233.7</ele>
        <time>2025-10-18T07:19:22Z</time>
      </trkpt>
      <trkpt lat="43.23282" lon="5.50117">
        <ele>233.6</ele>
        <time>2025-10-18T07:19:23Z</time>
      </trkpt>
      <trkpt lat="43.23282" lon="5.50117">
        <ele>233.5</ele>
        <time>2025-10-18T07:19:24Z</time>
      </trkpt>
      <trkpt lat="43.23281" lon="5.50117">
        <ele>233.4</ele>
        <time>2025-10-18T07:19:25Z</time>
      </trkpt>
      <trkpt lat="43.23281" lon="5.50116">
        <ele>233.4</ele>
        <time>2025-10-18T07:19:26Z</time>
      </trkpt>
      <trkpt lat="43.2328" lon="5.50116">
        <ele>233.3</ele>
        <time>2025-10-18T07:19:27Z</time>
      </trkpt>
      <trkpt lat="43.2328" lon="5.50115">
        <ele>233.2</ele>
        <time>2025-10-18T07:19:28Z</time>
      </trkpt>
      <trkpt lat="43.2328" lon="5.50115">
        <ele>233.1</ele>
        <time>2025-10-18T07:19:29Z</time>
      </trkpt>
      <trkpt lat="43.23279" lon="5.50116">
        <ele>232.9</ele>
        <time>2025-10-18T07:19:30Z</time>
      </trkpt>
      <trkpt lat="43.23279" lon="5.50116">
        <ele>232.6</ele>
        <time>2025-10-18T07:19:31Z</time>
      </trkpt>
      <trkpt lat="43.23278" lon="5.50116">
        <ele>232.3</ele>
        <time>2025-10-18T07:19:32Z</time>
      </trkpt>
      <trkpt lat="43.23278" lon="5.50115">
        <ele>232.2</ele>
        <time>2025-10-18T07:19:33Z</time>
      </trkpt>
      <trkpt lat="43.23278" lon="5.50115">
        <ele>232.2</ele>
        <time>2025-10-18T07:19:34Z</time>
      </trkpt>
      <trkpt lat="43.23278" lon="5.50115">
        <ele>232.1</ele>
        <time>2025-10-18T07:19:35Z</time>
      </trkpt>
      <trkpt lat="43.23278" lon="5.50115">
        <ele>232.1</ele>
        <time>2025-10-18T07:19:36Z</time>
      </trkpt>
      <trkpt lat="43.23278" lon="5.50115">
        <ele>232</ele>
        <time>2025-10-18T07:19:37Z</time>
      </trkpt>
      <trkpt lat="43.23278" lon="5.50114">
        <ele>232</ele>
        <time>2025-10-18T07:19:38Z</time>
      </trkpt>
      <trkpt lat="43.23277" lon="5.50115">
        <ele>232</ele>
        <time>2025-10-18T07:19:39Z</time>
      </trkpt>
      <trkpt lat="43.23277" lon="5.50115">
        <ele>231.9</ele>
        <time>2025-10-18T07:19:40Z</time>
      </trkpt>
      <trkpt lat="43.23276" lon="5.50115">
        <ele>231.9</ele>
        <time>2025-10-18T07:19:41Z</time>
      </trkpt>
      <trkpt lat="43.23276" lon="5.50115">
        <ele>231.8</ele>
        <time>2025-10-18T07:19:42Z</time>
      </trkpt>
      <trkpt lat="43.23277" lon="5.50116">
        <ele>231.7</ele>
        <time>2025-10-18T07:19:43Z</time>
      </trkpt>
      <trkpt lat="43.23276" lon="5.50115">
        <ele>231.7</ele>
        <time>2025-10-18T07:19:44Z</time>
      </trkpt>
      <trkpt lat="43.23276" lon="5.50115">
        <ele>231.6</ele>
        <time>2025-10-18T07:19:45Z</time>
      </trkpt>
      <trkpt lat="43.23276" lon="5.50115">
        <ele>231.6</ele>
        <time>2025-10-18T07:19:46Z</time>
      </trkpt>
      <trkpt lat="43.23276" lon="5.50115">
        <ele>231.5</ele>
        <time>2025-10-18T07:19:47Z</time>
      </trkpt>
      <trkpt lat="43.23276" lon="5.50116">
        <ele>231.5</ele>
        <time>2025-10-18T07:19:48Z</time>
      </trkpt>
      <trkpt lat="43.23275" lon="5.50116">
        <ele>231.4</ele>
        <time>2025-10-18T07:19:49Z</time>
      </trkpt>
      <trkpt lat="43.23275" lon="5.50116">
        <ele>231.2</ele>
        <time>2025-10-18T07:19:50Z</time>
      </trkpt>
      <trkpt lat="43.23275" lon="5.50116">
        <ele>231.1</ele>
        <time>2025-10-18T07:19:51Z</time>
      </trkpt>
      <trkpt lat="43.23274" lon="5.50116">
        <ele>231</ele>
        <time>2025-10-18T07:19:52Z</time>
      </trkpt>
      <trkpt lat="43.23273" lon="5.50116">
        <ele>230.9</ele>
        <time>2025-10-18T07:19:53Z</time>
      </trkpt>
      <trkpt lat="43.23273" lon="5.50116">
        <ele>230.8</ele>
        <time>2025-10-18T07:19:54Z</time>
      </trkpt>
      <trkpt lat="43.23273" lon="5.50117">
        <ele>230.7</ele>
        <time>2025-10-18T07:19:55Z</time>
      </trkpt>
      <trkpt lat="43.23273" lon="5.50117">
        <ele>230.6</ele>
        <time>2025-10-18T07:19:56Z</time>
      </trkpt>
      <trkpt lat="43.23273" lon="5.50116">
        <ele>230.5</ele>
        <time>2025-10-18T07:19:57Z</time>
      </trkpt>
      <trkpt lat="43.23273" lon="5.50116">
        <ele>230.4</ele>
        <time>2025-10-18T07:19:58Z</time>
      </trkpt>
      <trkpt lat="43.23273" lon="5.50115">
        <ele>230.3</ele>
        <time>2025-10-18T07:19:59Z</time>
      </trkpt>
      <trkpt lat="43.23273" lon="5.50115">
        <ele>230.2</ele>
        <time>2025-10-18T07:20:00Z</time>
      </trkpt>
      <trkpt lat="43.23272" lon="5.50115">
        <ele>230</ele>
        <time>2025-10-18T07:20:01Z</time>
      </trkpt>
      <trkpt lat="43.23272" lon="5.50115">
        <ele>229.8</ele>
        <time>2025-10-18T07:20:02Z</time>
      </trkpt>
      <trkpt lat="43.23272" lon="5.50115">
        <ele>229.7</ele>
        <time>2025-10-18T07:20:03Z</time>
      </trkpt>
      <trkpt lat="43.23271" lon="5.50115">
        <ele>229.6</ele>
        <time>2025-10-18T07:20:04Z</time>
      </trkpt>
      <trkpt lat="43.23271" lon="5.50116">
        <ele>229.4</ele>
        <time>2025-10-18T07:20:05Z</time>
      </trkpt>
      <trkpt lat="43.23271" lon="5.50116">
        <ele>229.3</ele>
        <time>2025-10-18T07:20:06Z</time>
      </trkpt>
      <trkpt lat="43.2327" lon="5.50115">
        <ele>229</ele>
        <time>2025-10-18T07:20:07Z</time>
      </trkpt>
      <trkpt lat="43.2327" lon="5.50115">
        <ele>228.7</ele>
        <time>2025-10-18T07:20:08Z</time>
      </trkpt>
      <trkpt lat="43.2327" lon="5.50115">
        <ele>228.5</ele>
        <time>2025-10-18T07:20:09Z</time>
      </trkpt>
      <trkpt lat="43.2327" lon="5.50114">
        <ele>228.4</ele>
        <time>2025-10-18T07:20:10Z</time>
      </trkpt>
      <trkpt lat="43.2327" lon="5.50114">
        <ele>228.3</ele>
        <time>2025-10-18T07:20:11Z</time>
      </trkpt>
      <trkpt lat="43.2327" lon="5.50114">
        <ele>228.2</ele>
        <time>2025-10-18T07:20:12Z</time>
      </trkpt>
      <trkpt lat="43.23269" lon="5.50113">
        <ele>228</ele>
        <time>2025-10-18T07:20:13Z</time>
      </trkpt>
      <trkpt lat="43.23269" lon="5.50113">
        <ele>227.8</ele>
        <time>2025-10-18T07:20:14Z</time>
      </trkpt>
      <trkpt lat="43.23268" lon="5.50112">
        <ele>227.5</ele>
        <time>2025-10-18T07:20:15Z</time>
      </trkpt>
      <trkpt lat="43.23268" lon="5.50112">
        <ele>227.3</ele>
        <time>2025-10-18T07:20:16Z</time>
      </trkpt>
      <trkpt lat="43.23268" lon="5.50112">
        <ele>227.2</ele>
        <time>2025-10-18T07:20:17Z</time>
      </trkpt>
      <trkpt lat="43.23267" lon="5.50112">
        <ele>227</ele>
        <time>2025-10-18T07:20:18Z</time>
      </trkpt>
      <trkpt lat="43.23267" lon="5.50112">
        <ele>226.9</ele>
        <time>2025-10-18T07:20:19Z</time>
      </trkpt>
      <trkpt lat="43.23267" lon="5.50112">
        <ele>226.8</ele>
        <time>2025-10-18T07:20:20Z</time>
      </trkpt>
      <trkpt lat="43.23267" lon="5.50112">
        <ele>226.7</ele>
        <time>2025-10-18T07:20:21Z</time>
      </trkpt>
      <trkpt lat="43.23267" lon="5.50112">
        <ele>226.6</ele>
        <time>2025-10-18T07:20:22Z</time>
      </trkpt>
      <trkpt lat="43.23267" lon="5.50112">
        <ele>226.5</ele>
        <time>2025-10-18T07:20:23Z</time>
      </trkpt>
      <trkpt lat="43.23266" lon="5.50112">
        <ele>226.4</ele>
        <time>2025-10-18T07:20:24Z</time>
      </trkpt>
      <trkpt lat="43.23266" lon="5.50113">
        <ele>226.3</ele>
        <time>2025-10-18T07:20:25Z</time>
      </trkpt>
      <trkpt lat="43.23266" lon="5.50113">
        <ele>226.3</ele>
        <time>2025-10-18T07:20:26Z</time>
      </trkpt>
      <trkpt lat="43.23265" lon="5.50114">
        <ele>226.2</ele>
        <time>2025-10-18T07:20:27Z</time>
      </trkpt>
      <trkpt lat="43.23265" lon="5.50114">
        <ele>226.1</ele>
        <time>2025-10-18T07:20:28Z</time>
      </trkpt>
      <trkpt lat="43.23265" lon="5.50113">
        <ele>226</ele>
        <time>2025-10-18T07:20:29Z</time>
      </trkpt>
      <trkpt lat="43.23265" lon="5.50112">
        <ele>225.9</ele>
        <time>2025-10-18T07:20:30Z</time>
      </trkpt>
      <trkpt lat="43.23264" lon="5.50112">
        <ele>225.7</ele>
        <time>2025-10-18T07:20:31Z</time>
      </trkpt>
      <trkpt lat="43.23264" lon="5.50111">
        <ele>225.6</ele>
        <time>2025-10-18T07:20:32Z</time>
      </trkpt>
      <trkpt lat="43.23263" lon="5.50111">
        <ele>225.4</ele>
        <time>2025-10-18T07:20:33Z</time>
      </trkpt>
      <trkpt lat="43.23263" lon="5.50111">
        <ele>225.3</ele>
        <time>2025-10-18T07:20:34Z</time>
      </trkpt>
      <trkpt lat="43.23262" lon="5.50111">
        <ele>225.1</ele>
        <time>2025-10-18T07:20:35Z</time>
      </trkpt>
      <trkpt lat="43.23261" lon="5.50112">
        <ele>224.9</ele>
        <time>2025-10-18T07:20:36Z</time>
      </trkpt>
      <trkpt lat="43.23261" lon="5.50112">
        <ele>224.8</ele>
        <time>2025-10-18T07:20:37Z</time>
      </trkpt>
      <trkpt lat="43.23261" lon="5.50112">
        <ele>224.7</ele>
        <time>2025-10-18T07:20:38Z</time>
      </trkpt>
      <trkpt lat="43.2326" lon="5.50112">
        <ele>224.6</ele>
        <time>2025-10-18T07:20:39Z</time>
      </trkpt>
      <trkpt lat="43.2326" lon="5.50113">
        <ele>224.5</ele>
        <time>2025-10-18T07:20:40Z</time>
      </trkpt>
      <trkpt lat="43.2326" lon="5.50113">
        <ele>224.4</ele>
        <time>2025-10-18T07:20:41Z</time>
      </trkpt>
      <trkpt lat="43.2326" lon="5.50113">
        <ele>224.3</ele>
        <time>2025-10-18T07:20:42Z</time>
      </trkpt>
      <trkpt lat="43.2326" lon="5.50113">
        <ele>224.2</ele>
        <time>2025-10-18T07:20:43Z</time>
      </trkpt>
      <trkpt lat="43.2326" lon="5.50113">
        <ele>224.1</ele>
        <time>2025-10-18T07:20:44Z</time>
      </trkpt>
      <trkpt lat="43.2326" lon="5.50113">
        <ele>224</ele>
        <time>2025-10-18T07:20:45Z</time>
      </trkpt>
      <trkpt lat="43.2326" lon="5.50113">
        <ele>224</ele>
        <time>2025-10-18T07:20:46Z</time>
      </trkpt>
      <trkpt lat="43.2326" lon="5.50114">
        <ele>223.9</ele>
        <time>2025-10-18T07:20:47Z</time>
      </trkpt>
      <trkpt lat="43.2326" lon="5.50114">
        <ele>223.9</ele>
        <time>2025-10-18T07:20:48Z</time>
      </trkpt>
      <trkpt lat="43.2326" lon="5.50114">
        <ele>223.8</ele>
        <time>2025-10-18T07:20:49Z</time>
      </trkpt>
      <trkpt lat="43.2326" lon="5.50114">
        <ele>223.7</ele>
        <time>2025-10-18T07:20:50Z</time>
      </trkpt>
      <trkpt lat="43.2326" lon="5.50114">
        <ele>223.6</ele>
        <time>2025-10-18T07:20:51Z</time>
      </trkpt>
      <trkpt lat="43.2326" lon="5.50114">
        <ele>223.6</ele>
        <time>2025-10-18T07:20:52Z</time>
      </trkpt>
      <trkpt lat="43.23259" lon="5.50114">
        <ele>223.4</ele>
        <time>2025-10-18T07:20:53Z</time>
      </trkpt>
      <trkpt lat="43.23259" lon="5.50115">
        <ele>223.3</ele>
        <time>2025-10-18T07:20:54Z</time>
      </trkpt>
      <trkpt lat="43.23259" lon="5.50115">
        <ele>223.2</ele>
        <time>2025-10-18T07:20:55Z</time>
      </trkpt>
      <trkpt lat="43.23259" lon="5.50115">
        <ele>223.2</ele>
        <time>2025-10-18T07:20:56Z</time>
      </trkpt>
      <trkpt lat="43.23259" lon="5.50114">
        <ele>223.1</ele>
        <time>2025-10-18T07:20:57Z</time>
      </trkpt>
      <trkpt lat="43.23259" lon="5.50114">
        <ele>223</ele>
        <time>2025-10-18T07:20:58Z</time>
      </trkpt>
      <trkpt lat="43.23258" lon="5.50114">
        <ele>222.9</ele>
        <time>2025-10-18T07:20:59Z</time>
      </trkpt>
      <trkpt lat="43.23258" lon="5.50114">
        <ele>222.8</ele>
        <time>2025-10-18T07:21:00Z</time>
      </trkpt>
      <trkpt lat="43.23259" lon="5.50114">
        <ele>222.8</ele>
        <time>2025-10-18T07:21:01Z</time>
      </trkpt>
      <trkpt lat="43.23259" lon="5.50114">
        <ele>222.7</ele>
        <time>2025-10-18T07:21:02Z</time>
      </trkpt>
      <trkpt lat="43.23259" lon="5.50114">
        <ele>222.7</ele>
        <time>2025-10-18T07:21:03Z</time>
      </trkpt>
      <trkpt lat="43.23259" lon="5.50114">
        <ele>222.6</ele>
        <time>2025-10-18T07:21:04Z</time>
      </trkpt>
      <trkpt lat="43.23259" lon="5.50114">
        <ele>222.6</ele>
        <time>2025-10-18T07:21:05Z</time>
      </trkpt>
      <trkpt lat="43.23258" lon="5.50114">
        <ele>222.5</ele>
        <time>2025-10-18T07:21:06Z</time>
      </trkpt>
      <trkpt lat="43.23257" lon="5.50114">
        <ele>222.4</ele>
        <time>2025-10-18T07:21:07Z</time>
      </trkpt>
      <trkpt lat="43.23257" lon="5.50114">
        <ele>222.3</ele>
        <time>2025-10-18T07:21:08Z</time>
      </trkpt>
      <trkpt lat="43.23257" lon="5.50114">
        <ele>222.3</ele>
        <time>2025-10-18T07:21:09Z</time>
      </trkpt>
      <trkpt lat="43.23256" lon="5.50114">
        <ele>222.1</ele>
        <time>2025-10-18T07:21:10Z</time>
      </trkpt>
      <trkpt lat="43.23256" lon="5.50113">
        <ele>221.9</ele>
        <time>2025-10-18T07:21:11Z</time>
      </trkpt>
      <trkpt lat="43.23255" lon="5.50113">
        <ele>221.6</ele>
        <time>2025-10-18T07:21:12Z</time>
      </trkpt>
      <trkpt lat="43.23254" lon="5.50114">
        <ele>221.4</ele>
        <time>2025-10-18T07:21:13Z</time>
      </trkpt>
      <trkpt lat="43.23253" lon="5.50114">
        <ele>221.2</ele>
        <time>2025-10-18T07:21:14Z</time>
      </trkpt>
      <trkpt lat="43.23252" lon="5.50115">
        <ele>220.9</ele>
        <time>2025-10-18T07:21:15Z</time>
      </trkpt>
      <trkpt lat="43.23251" lon="5.50115">
        <ele>220.6</ele>
        <time>2025-10-18T07:21:16Z</time>
      </trkpt>
      <trkpt lat="43.2325" lon="5.50115">
        <ele>220.4</ele>
        <time>2025-10-18T07:21:17Z</time>
      </trkpt>
      <trkpt lat="43.23249" lon="5.50115">
        <ele>220.2</ele>
        <time>2025-10-18T07:21:18Z</time>
      </trkpt>
      <trkpt lat="43.23248" lon="5.50114">
        <ele>219.9</ele>
        <time>2025-10-18T07:21:19Z</time>
      </trkpt>
      <trkpt lat="43.23248" lon="5.50114">
        <ele>219.8</ele>
        <time>2025-10-18T07:21:20Z</time>
      </trkpt>
      <trkpt lat="43.23247" lon="5.50114">
        <ele>219.6</ele>
        <time>2025-10-18T07:21:21Z</time>
      </trkpt>
      <trkpt lat="43.23247" lon="5.50114">
        <ele>219.5</ele>
        <time>2025-10-18T07:21:22Z</time>
      </trkpt>
      <trkpt lat="43.23247" lon="5.50114">
        <ele>219.3</ele>
        <time>2025-10-18T07:21:23Z</time>
      </trkpt>
      <trkpt lat="43.23246" lon="5.50114">
        <ele>219.2</ele>
        <time>2025-10-18T07:21:24Z</time>
      </trkpt>
      <trkpt lat="43.23246" lon="5.50114">
        <ele>219.1</ele>
        <time>2025-10-18T07:21:25Z</time>
      </trkpt>
      <trkpt lat="43.23246" lon="5.50114">
        <ele>219.1</ele>
        <time>2025-10-18T07:21:26Z</time>
      </trkpt>
      <trkpt lat="43.23245" lon="5.50114">
        <ele>219.1</ele>
        <time>2025-10-18T07:21:27Z</time>
      </trkpt>
      <trkpt lat="43.23245" lon="5.50114">
        <ele>219</ele>
        <time>2025-10-18T07:21:28Z</time>
      </trkpt>
      <trkpt lat="43.23245" lon="5.50114">
        <ele>219</ele>
        <time>2025-10-18T07:21:29Z</time>
      </trkpt>
      <trkpt lat="43.23245" lon="5.50114">
        <ele>218.9</ele>
        <time>2025-10-18T07:21:30Z</time>
      </trkpt>
      <trkpt lat="43.23245" lon="5.50114">
        <ele>218.9</ele>
        <time>2025-10-18T07:21:31Z</time>
      </trkpt>
      <trkpt lat="43.23244" lon="5.50114">
        <ele>218.8</ele>
        <time>2025-10-18T07:21:32Z</time>
      </trkpt>
      <trkpt lat="43.23244" lon="5.50114">
        <ele>218.8</ele>
        <time>2025-10-18T07:21:33Z</time>
      </trkpt>
      <trkpt lat="43.23245" lon="5.50114">
        <ele>218.9</ele>
        <time>2025-10-18T07:21:34Z</time>
      </trkpt>
      <trkpt lat="43.23244" lon="5.50113">
        <ele>218.9</ele>
        <time>2025-10-18T07:21:35Z</time>
      </trkpt>
      <trkpt lat="43.23243" lon="5.50113">
        <ele>218.9</ele>
        <time>2025-10-18T07:21:36Z</time>
      </trkpt>
      <trkpt lat="43.23241" lon="5.50113">
        <ele>218.8</ele>
        <time>2025-10-18T07:21:37Z</time>
      </trkpt>
      <trkpt lat="43.2324" lon="5.50113">
        <ele>218.8</ele>
        <time>2025-10-18T07:21:38Z</time>
      </trkpt>
      <trkpt lat="43.23239" lon="5.50113">
        <ele>218.7</ele>
        <time>2025-10-18T07:21:39Z</time>
      </trkpt>
      <trkpt lat="43.23238" lon="5.50113">
        <ele>218.7</ele>
        <time>2025-10-18T07:21:40Z</time>
      </trkpt>
      <trkpt lat="43.23237" lon="5.50114">
        <ele>218.7</ele>
        <time>2025-10-18T07:21:41Z</time>
      </trkpt>
      <trkpt lat="43.23236" lon="5.50114">
        <ele>218.5</ele>
        <time>2025-10-18T07:21:42Z</time>
      </trkpt>
      <trkpt lat="43.23235" lon="5.50115">
        <ele>218.4</ele>
        <time>2025-10-18T07:21:43Z</time>
      </trkpt>
      <trkpt lat="43.23235" lon="5.50116">
        <ele>218.3</ele>
        <time>2025-10-18T07:21:44Z</time>
      </trkpt>
      <trkpt lat="43.23235" lon="5.50117">
        <ele>218.3</ele>
        <time>2025-10-18T07:21:45Z</time>
      </trkpt>
      <trkpt lat="43.23234" lon="5.50119">
        <ele>218.2</ele>
        <time>2025-10-18T07:21:46Z</time>
      </trkpt>
      <trkpt lat="43.23233" lon="5.50119">
        <ele>218.1</ele>
        <time>2025-10-18T07:21:47Z</time>
      </trkpt>
      <trkpt lat="43.23232" lon="5.50119">
        <ele>218</ele>
        <time>2025-10-18T07:21:48Z</time>
      </trkpt>
      <trkpt lat="43.23231" lon="5.5012">
        <ele>218</ele>
        <time>2025-10-18T07:21:49Z</time>
      </trkpt>
      <trkpt lat="43.23231" lon="5.50121">
        <ele>218</ele>
        <time>2025-10-18T07:21:50Z</time>
      </trkpt>
      <trkpt lat="43.2323" lon="5.50122">
        <ele>218</ele>
        <time>2025-10-18T07:21:51Z</time>
      </trkpt>
      <trkpt lat="43.2323" lon="5.50123">
        <ele>218</ele>
        <time>2025-10-18T07:21:52Z</time>
      </trkpt>
      <trkpt lat="43.23231" lon="5.50123">
        <ele>217.9</ele>
        <time>2025-10-18T07:21:53Z</time>
      </trkpt>
      <trkpt lat="43.2323" lon="5.50123">
        <ele>217.9</ele>
        <time>2025-10-18T07:21:54Z</time>
      </trkpt>
      <trkpt lat="43.23229" lon="5.50123">
        <ele>217.9</ele>
        <time>2025-10-18T07:21:55Z</time>
      </trkpt>
      <trkpt lat="43.23228" lon="5.50123">
        <ele>217.9</ele>
        <time>2025-10-18T07:21:56Z</time>
      </trkpt>
      <trkpt lat="43.23227" lon="5.50123">
        <ele>217.9</ele>
        <time>2025-10-18T07:21:57Z</time>
      </trkpt>
      <trkpt lat="43.23226" lon="5.50123">
        <ele>217.8</ele>
        <time>2025-10-18T07:21:58Z</time>
      </trkpt>
      <trkpt lat="43.23224" lon="5.50124">
        <ele>217.8</ele>
        <time>2025-10-18T07:21:59Z</time>
      </trkpt>
      <trkpt lat="43.23223" lon="5.50124">
        <ele>217.8</ele>
        <time>2025-10-18T07:22:00Z</time>
      </trkpt>
      <trkpt lat="43.23222" lon="5.50124">
        <ele>217.7</ele>
        <time>2025-10-18T07:22:01Z</time>
      </trkpt>
      <trkpt lat="43.23221" lon="5.50124">
        <ele>217.6</ele>
        <time>2025-10-18T07:22:02Z</time>
      </trkpt>
      <trkpt lat="43.2322" lon="5.50124">
        <ele>217.6</ele>
        <time>2025-10-18T07:22:03Z</time>
      </trkpt>
      <trkpt lat="43.23219" lon="5.50124">
        <ele>217.6</ele>
        <time>2025-10-18T07:22:04Z</time>
      </trkpt>
      <trkpt lat="43.23217" lon="5.50124">
        <ele>217.7</ele>
        <time>2025-10-18T07:22:05Z</time>
      </trkpt>
      <trkpt lat="43.23216" lon="5.50124">
        <ele>217.6</ele>
        <time>2025-10-18T07:22:06Z</time>
      </trkpt>
      <trkpt lat="43.23214" lon="5.50124">
        <ele>217.5</ele>
        <time>2025-10-18T07:22:07Z</time>
      </trkpt>
      <trkpt lat="43.23213" lon="5.50123">
        <ele>217.4</ele>
        <time>2025-10-18T07:22:08Z</time>
      </trkpt>
      <trkpt lat="43.23211" lon="5.50123">
        <ele>217.5</ele>
        <time>2025-10-18T07:22:09Z</time>
      </trkpt>
      <trkpt lat="43.2321" lon="5.50123">
        <ele>217.5</ele>
        <time>2025-10-18T07:22:10Z</time>
      </trkpt>
      <trkpt lat="43.23208" lon="5.50122">
        <ele>217.5</ele>
        <time>2025-10-18T07:22:11Z</time>
      </trkpt>
      <trkpt lat="43.23207" lon="5.50122">
        <ele>217.4</ele>
        <time>2025-10-18T07:22:12Z</time>
      </trkpt>
      <trkpt lat="43.23206" lon="5.50122">
        <ele>217.3</ele>
        <time>2025-10-18T07:22:13Z</time>
      </trkpt>
      <trkpt lat="43.23205" lon="5.50122">
        <ele>217.4</ele>
        <time>2025-10-18T07:22:14Z</time>
      </trkpt>
      <trkpt lat="43.23204" lon="5.50122">
        <ele>217.4</ele>
        <time>2025-10-18T07:22:15Z</time>
      </trkpt>
      <trkpt lat="43.23203" lon="5.50121">
        <ele>217.4</ele>
        <time>2025-10-18T07:22:16Z</time>
      </trkpt>
      <trkpt lat="43.23202" lon="5.50121">
        <ele>217.4</ele>
        <time>2025-10-18T07:22:17Z</time>
      </trkpt>
      <trkpt lat="43.232" lon="5.5012">
        <ele>217.4</ele>
        <time>2025-10-18T07:22:18Z</time>
      </trkpt>
      <trkpt lat="43.23199" lon="5.50119">
        <ele>217.4</ele>
        <time>2025-10-18T07:22:19Z</time>
      </trkpt>
      <trkpt lat="43.23198" lon="5.5012">
        <ele>217.4</ele>
        <time>2025-10-18T07:22:20Z</time>
      </trkpt>
      <trkpt lat="43.23197" lon="5.50119">
        <ele>217.4</ele>
        <time>2025-10-18T07:22:21Z</time>
      </trkpt>
      <trkpt lat="43.23196" lon="5.50119">
        <ele>217.4</ele>
        <time>2025-10-18T07:22:22Z</time>
      </trkpt>
      <trkpt lat="43.23195" lon="5.50119">
        <ele>217.5</ele>
        <time>2025-10-18T07:22:23Z</time>
      </trkpt>
      <trkpt lat="43.23194" lon="5.50118">
        <ele>217.4</ele>
        <time>2025-10-18T07:22:24Z</time>
      </trkpt>
      <trkpt lat="43.23193" lon="5.50118">
        <ele>217.4</ele>
        <time>2025-10-18T07:22:25Z</time>
      </trkpt>
      <trkpt lat="43.23192" lon="5.50118">
        <ele>217.3</ele>
        <time>2025-10-18T07:22:26Z</time>
      </trkpt>
      <trkpt lat="43.23191" lon="5.50118">
        <ele>217.2</ele>
        <time>2025-10-18T07:22:27Z</time>
      </trkpt>
      <trkpt lat="43.2319" lon="5.50118">
        <ele>217.1</ele>
        <time>2025-10-18T07:22:28Z</time>
      </trkpt>
      <trkpt lat="43.23189" lon="5.50118">
        <ele>217.1</ele>
        <time>2025-10-18T07:22:29Z</time>
      </trkpt>
      <trkpt lat="43.23187" lon="5.50118">
        <ele>216.9</ele>
        <time>2025-10-18T07:22:30Z</time>
      </trkpt>
      <trkpt lat="43.23186" lon="5.50118">
        <ele>216.8</ele>
        <time>2025-10-18T07:22:31Z</time>
      </trkpt>
      <trkpt lat="43.23184" lon="5.50118">
        <ele>216.7</ele>
        <time>2025-10-18T07:22:32Z</time>
      </trkpt>
      <trkpt lat="43.23183" lon="5.50119">
        <ele>216.7</ele>
        <time>2025-10-18T07:22:33Z</time>
      </trkpt>
      <trkpt lat="43.23182" lon="5.50119">
        <ele>216.7</ele>
        <time>2025-10-18T07:22:34Z</time>
      </trkpt>
      <trkpt lat="43.23181" lon="5.50119">
        <ele>216.7</ele>
        <time>2025-10-18T07:22:35Z</time>
      </trkpt>
      <trkpt lat="43.23179" lon="5.50119">
        <ele>216.7</ele>
        <time>2025-10-18T07:22:36Z</time>
      </trkpt>
      <trkpt lat="43.23178" lon="5.5012">
        <ele>216.8</ele>
        <time>2025-10-18T07:22:37Z</time>
      </trkpt>
      <trkpt lat="43.23177" lon="5.5012">
        <ele>216.8</ele>
        <time>2025-10-18T07:22:38Z</time>
      </trkpt>
      <trkpt lat="43.23176" lon="5.5012">
        <ele>216.8</ele>
        <time>2025-10-18T07:22:39Z</time>
      </trkpt>
      <trkpt lat="43.23175" lon="5.50121">
        <ele>216.8</ele>
        <time>2025-10-18T07:22:40Z</time>
      </trkpt>
      <trkpt lat="43.23174" lon="5.50122">
        <ele>216.8</ele>
        <time>2025-10-18T07:22:41Z</time>
      </trkpt>
      <trkpt lat="43.23173" lon="5.50122">
        <ele>216.8</ele>
        <time>2025-10-18T07:22:42Z</time>
      </trkpt>
      <trkpt lat="43.23172" lon="5.50123">
        <ele>216.8</ele>
        <time>2025-10-18T07:22:43Z</time>
      </trkpt>
      <trkpt lat="43.23171" lon="5.50124">
        <ele>216.8</ele>
        <time>2025-10-18T07:22:44Z</time>
      </trkpt>
      <trkpt lat="43.2317" lon="5.50124">
        <ele>216.8</ele>
        <time>2025-10-18T07:22:45Z</time>
      </trkpt>
      <trkpt lat="43.23168" lon="5.50125">
        <ele>216.8</ele>
        <time>2025-10-18T07:22:46Z</time>
      </trkpt>
      <trkpt lat="43.23167" lon="5.50125">
        <ele>216.8</ele>
        <time>2025-10-18T07:22:47Z</time>
      </trkpt>
      <trkpt lat="43.23166" lon="5.50126">
        <ele>216.8</ele>
        <time>2025-10-18T07:22:48Z</time>
      </trkpt>
      <trkpt lat="43.23165" lon="5.50126">
        <ele>216.8</ele>
        <time>2025-10-18T07:22:49Z</time>
      </trkpt>
      <trkpt lat="43.23164" lon="5.50127">
        <ele>216.7</ele>
        <time>2025-10-18T07:22:50Z</time>
      </trkpt>
      <trkpt lat="43.23163" lon="5.50127">
        <ele>216.8</ele>
        <time>2025-10-18T07:22:51Z</time>
      </trkpt>
      <trkpt lat="43.23163" lon="5.50127">
        <ele>216.8</ele>
        <time>2025-10-18T07:22:52Z</time>
      </trkpt>
      <trkpt lat="43.23161" lon="5.50127">
        <ele>216.8</ele>
        <time>2025-10-18T07:22:53Z</time>
      </trkpt>
      <trkpt lat="43.2316" lon="5.50128">
        <ele>216.6</ele>
        <time>2025-10-18T07:22:54Z</time>
      </trkpt>
      <trkpt lat="43.23159" lon="5.50128">
        <ele>216.5</ele>
        <time>2025-10-18T07:22:55Z</time>
      </trkpt>
      <trkpt lat="43.23157" lon="5.50128">
        <ele>216.4</ele>
        <time>2025-10-18T07:22:56Z</time>
      </trkpt>
      <trkpt lat="43.23157" lon="5.50129">
        <ele>216.4</ele>
        <time>2025-10-18T07:22:57Z</time>
      </trkpt>
      <trkpt lat="43.23155" lon="5.50129">
        <ele>216.5</ele>
        <time>2025-10-18T07:22:58Z</time>
      </trkpt>
      <trkpt lat="43.23155" lon="5.50129">
        <ele>216.4</ele>
        <time>2025-10-18T07:22:59Z</time>
      </trkpt>
      <trkpt lat="43.23155" lon="5.50129">
        <ele>216.4</ele>
        <time>2025-10-18T07:23:00Z</time>
      </trkpt>
      <trkpt lat="43.23154" lon="5.50129">
        <ele>216.5</ele>
        <time>2025-10-18T07:23:01Z</time>
      </trkpt>
      <trkpt lat="43.23153" lon="5.50129">
        <ele>216.5</ele>
        <time>2025-10-18T07:23:02Z</time>
      </trkpt>
      <trkpt lat="43.23154" lon="5.5013">
        <ele>216.5</ele>
        <time>2025-10-18T07:23:03Z</time>
      </trkpt>
      <trkpt lat="43.23154" lon="5.50129">
        <ele>216.5</ele>
        <time>2025-10-18T07:23:04Z</time>
      </trkpt>
      <trkpt lat="43.23154" lon="5.50129">
        <ele>216.5</ele>
        <time>2025-10-18T07:23:05Z</time>
      </trkpt>
      <trkpt lat="43.23153" lon="5.50129">
        <ele>216.5</ele>
        <time>2025-10-18T07:23:06Z</time>
      </trkpt>
      <trkpt lat="43.23153" lon="5.50129">
        <ele>216.5</ele>
        <time>2025-10-18T07:23:07Z</time>
      </trkpt>
      <trkpt lat="43.23152" lon="5.5013">
        <ele>216.5</ele>
        <time>2025-10-18T07:23:08Z</time>
      </trkpt>
      <trkpt lat="43.23152" lon="5.5013">
        <ele>216.4</ele>
        <time>2025-10-18T07:23:09Z</time>
      </trkpt>
      <trkpt lat="43.23152" lon="5.5013">
        <ele>216.3</ele>
        <time>2025-10-18T07:23:10Z</time>
      </trkpt>
      <trkpt lat="43.23151" lon="5.5013">
        <ele>216.3</ele>
        <time>2025-10-18T07:23:11Z</time>
      </trkpt>
      <trkpt lat="43.23151" lon="5.5013">
        <ele>216.3</ele>
        <time>2025-10-18T07:23:12Z</time>
      </trkpt>
      <trkpt lat="43.23151" lon="5.5013">
        <ele>216.3</ele>
        <time>2025-10-18T07:23:13Z</time>
      </trkpt>
      <trkpt lat="43.23151" lon="5.5013">
        <ele>216.2</ele>
        <time>2025-10-18T07:23:14Z</time>
      </trkpt>
      <trkpt lat="43.23151" lon="5.50131">
        <ele>216.3</ele>
        <time>2025-10-18T07:23:15Z</time>
      </trkpt>
      <trkpt lat="43.2315" lon="5.50131">
        <ele>216.2</ele>
        <time>2025-10-18T07:23:16Z</time>
      </trkpt>
      <trkpt lat="43.2315" lon="5.5013">
        <ele>216.2</ele>
        <time>2025-10-18T07:23:17Z</time>
      </trkpt>
      <trkpt lat="43.23149" lon="5.5013">
        <ele>216.2</ele>
        <time>2025-10-18T07:23:18Z</time>
      </trkpt>
      <trkpt lat="43.23149" lon="5.5013">
        <ele>216.2</ele>
        <time>2025-10-18T07:23:19Z</time>
      </trkpt>
      <trkpt lat="43.23148" lon="5.5013">
        <ele>216.1</ele>
        <time>2025-10-18T07:23:20Z</time>
      </trkpt>
      <trkpt lat="43.23148" lon="5.5013">
        <ele>216.1</ele>
        <time>2025-10-18T07:23:21Z</time>
      </trkpt>
      <trkpt lat="43.23148" lon="5.50129">
        <ele>216.1</ele>
        <time>2025-10-18T07:23:22Z</time>
      </trkpt>
      <trkpt lat="43.23148" lon="5.50129">
        <ele>216.1</ele>
        <time>2025-10-18T07:23:23Z</time>
      </trkpt>
      <trkpt lat="43.23148" lon="5.50129">
        <ele>216.1</ele>
        <time>2025-10-18T07:23:24Z</time>
      </trkpt>
      <trkpt lat="43.23148" lon="5.50129">
        <ele>216.1</ele>
        <time>2025-10-18T07:23:25Z</time>
      </trkpt>
      <trkpt lat="43.23149" lon="5.50129">
        <ele>216.2</ele>
        <time>2025-10-18T07:23:26Z</time>
      </trkpt>
      <trkpt lat="43.23149" lon="5.50129">
        <ele>216.2</ele>
        <time>2025-10-18T07:23:27Z</time>
      </trkpt>
      <trkpt lat="43.23149" lon="5.50129">
        <ele>216.3</ele>
        <time>2025-10-18T07:23:28Z</time>
      </trkpt>
      <trkpt lat="43.23149" lon="5.50129">
        <ele>216.4</ele>
        <time>2025-10-18T07:23:29Z</time>
      </trkpt>
      <trkpt lat="43.2315" lon="5.50129">
        <ele>216.3</ele>
        <time>2025-10-18T07:23:30Z</time>
      </trkpt>
      <trkpt lat="43.2315" lon="5.50129">
        <ele>216.2</ele>
        <time>2025-10-18T07:23:31Z</time>
      </trkpt>
      <trkpt lat="43.2315" lon="5.50129">
        <ele>216.1</ele>
        <time>2025-10-18T07:23:32Z</time>
      </trkpt>
      <trkpt lat="43.2315" lon="5.50129">
        <ele>216.2</ele>
        <time>2025-10-18T07:23:33Z</time>
      </trkpt>
      <trkpt lat="43.2315" lon="5.50129">
        <ele>216.2</ele>
        <time>2025-10-18T07:23:34Z</time>
      </trkpt>
      <trkpt lat="43.23149" lon="5.50129">
        <ele>216.2</ele>
        <time>2025-10-18T07:23:35Z</time>
      </trkpt>
      <trkpt lat="43.23149" lon="5.50129">
        <ele>216.1</ele>
        <time>2025-10-18T07:23:36Z</time>
      </trkpt>
      <trkpt lat="43.23149" lon="5.50129">
        <ele>216.1</ele>
        <time>2025-10-18T07:23:37Z</time>
      </trkpt>
      <trkpt lat="43.23149" lon="5.50129">
        <ele>216.1</ele>
        <time>2025-10-18T07:23:38Z</time>
      </trkpt>
      <trkpt lat="43.23149" lon="5.50129">
        <ele>216.1</ele>
        <time>2025-10-18T07:23:39Z</time>
      </trkpt>
      <trkpt lat="43.2315" lon="5.50129">
        <ele>216.1</ele>
        <time>2025-10-18T07:23:40Z</time>
      </trkpt>
      <trkpt lat="43.2315" lon="5.50128">
        <ele>216.2</ele>
        <time>2025-10-18T07:23:41Z</time>
      </trkpt>
      <trkpt lat="43.2315" lon="5.50129">
        <ele>216.2</ele>
        <time>2025-10-18T07:23:42Z</time>
      </trkpt>
      <trkpt lat="43.2315" lon="5.50128">
        <ele>216.2</ele>
        <time>2025-10-18T07:23:43Z</time>
      </trkpt>
      <trkpt lat="43.2315" lon="5.50128">
        <ele>216.3</ele>
        <time>2025-10-18T07:23:44Z</time>
      </trkpt>
      <trkpt lat="43.23151" lon="5.50128">
        <ele>216.3</ele>
        <time>2025-10-18T07:23:45Z</time>
      </trkpt>
      <trkpt lat="43.23151" lon="5.50128">
        <ele>216.2</ele>
        <time>2025-10-18T07:23:46Z</time>
      </trkpt>
      <trkpt lat="43.2315" lon="5.50128">
        <ele>216.3</ele>
        <time>2025-10-18T07:23:47Z</time>
      </trkpt>
      <trkpt lat="43.23151" lon="5.50128">
        <ele>216.2</ele>
        <time>2025-10-18T07:23:48Z</time>
      </trkpt>
      <trkpt lat="43.2315" lon="5.50128">
        <ele>216.2</ele>
        <time>2025-10-18T07:23:49Z</time>
      </trkpt>
      <trkpt lat="43.2315" lon="5.50128">
        <ele>216.1</ele>
        <time>2025-10-18T07:23:50Z</time>
      </trkpt>
      <trkpt lat="43.2315" lon="5.50128">
        <ele>216.1</ele>
        <time>2025-10-18T07:23:51Z</time>
      </trkpt>
      <trkpt lat="43.2315" lon="5.50128">
        <ele>216.2</ele>
        <time>2025-10-18T07:23:52Z</time>
      </trkpt>
      <trkpt lat="43.2315" lon="5.50128">
        <ele>216.2</ele>
        <time>2025-10-18T07:23:53Z</time>
      </trkpt>
      <trkpt lat="43.2315" lon="5.50128">
        <ele>216.1</ele>
        <time>2025-10-18T07:23:54Z</time>
      </trkpt>
      <trkpt lat="43.2315" lon="5.50128">
        <ele>216.2</ele>
        <time>2025-10-18T07:23:55Z</time>
      </trkpt>
      <trkpt lat="43.23149" lon="5.50128">
        <ele>216.2</ele>
        <time>2025-10-18T07:23:56Z</time>
      </trkpt>
      <trkpt lat="43.23149" lon="5.50128">
        <ele>216.3</ele>
        <time>2025-10-18T07:23:57Z</time>
      </trkpt>
      <trkpt lat="43.23149" lon="5.50129">
        <ele>216.4</ele>
        <time>2025-10-18T07:23:58Z</time>
      </trkpt>
      <trkpt lat="43.23149" lon="5.50129">
        <ele>216.4</ele>
        <time>2025-10-18T07:23:59Z</time>
      </trkpt>
      <trkpt lat="43.23149" lon="5.50129">
        <ele>216.4</ele>
        <time>2025-10-18T07:24:00Z</time>
      </trkpt>
      <trkpt lat="43.23148" lon="5.50129">
        <ele>216.3</ele>
        <time>2025-10-18T07:24:01Z</time>
      </trkpt>
      <trkpt lat="43.23148" lon="5.50129">
        <ele>216.2</ele>
        <time>2025-10-18T07:24:02Z</time>
      </trkpt>
      <trkpt lat="43.23148" lon="5.5013">
        <ele>216.2</ele>
        <time>2025-10-18T07:24:03Z</time>
      </trkpt>
      <trkpt lat="43.23148" lon="5.5013">
        <ele>216.2</ele>
        <time>2025-10-18T07:24:04Z</time>
      </trkpt>
      <trkpt lat="43.23148" lon="5.50129">
        <ele>216.2</ele>
        <time>2025-10-18T07:24:05Z</time>
      </trkpt>
      <trkpt lat="43.23148" lon="5.50129">
        <ele>216.2</ele>
        <time>2025-10-18T07:24:06Z</time>
      </trkpt>
      <trkpt lat="43.23148" lon="5.50128">
        <ele>216.2</ele>
        <time>2025-10-18T07:24:07Z</time>
      </trkpt>
      <trkpt lat="43.23147" lon="5.50128">
        <ele>216.2</ele>
        <time>2025-10-18T07:24:08Z</time>
      </trkpt>
      <trkpt lat="43.23146" lon="5.50128">
        <ele>216.2</ele>
        <time>2025-10-18T07:24:09Z</time>
      </trkpt>
      <trkpt lat="43.23145" lon="5.50128">
        <ele>216.3</ele>
        <time>2025-10-18T07:24:10Z</time>
      </trkpt>
      <trkpt lat="43.23144" lon="5.50129">
        <ele>216.3</ele>
        <time>2025-10-18T07:24:11Z</time>
      </trkpt>
      <trkpt lat="43.23144" lon="5.50129">
        <ele>216.4</ele>
        <time>2025-10-18T07:24:12Z</time>
      </trkpt>
      <trkpt lat="43.23143" lon="5.50128">
        <ele>216.4</ele>
        <time>2025-10-18T07:24:13Z</time>
      </trkpt>
      <trkpt lat="43.23143" lon="5.50128">
        <ele>216.4</ele>
        <time>2025-10-18T07:24:14Z</time>
      </trkpt>
      <trkpt lat="43.23143" lon="5.50128">
        <ele>216.4</ele>
        <time>2025-10-18T07:24:15Z</time>
      </trkpt>
      <trkpt lat="43.23143" lon="5.50129">
        <ele>216.4</ele>
        <time>2025-10-18T07:24:16Z</time>
      </trkpt>
      <trkpt lat="43.23142" lon="5.5013">
        <ele>216.5</ele>
        <time>2025-10-18T07:24:17Z</time>
      </trkpt>
      <trkpt lat="43.23141" lon="5.50131">
        <ele>216.5</ele>
        <time>2025-10-18T07:24:18Z</time>
      </trkpt>
      <trkpt lat="43.23141" lon="5.50131">
        <ele>216.5</ele>
        <time>2025-10-18T07:24:19Z</time>
      </trkpt>
      <trkpt lat="43.2314" lon="5.50132">
        <ele>216.5</ele>
        <time>2025-10-18T07:24:20Z</time>
      </trkpt>
      <trkpt lat="43.2314" lon="5.50132">
        <ele>216.4</ele>
        <time>2025-10-18T07:24:21Z</time>
      </trkpt>
      <trkpt lat="43.2314" lon="5.50132">
        <ele>216.5</ele>
        <time>2025-10-18T07:24:22Z</time>
      </trkpt>
      <trkpt lat="43.23139" lon="5.50132">
        <ele>216.5</ele>
        <time>2025-10-18T07:24:23Z</time>
      </trkpt>
      <trkpt lat="43.23139" lon="5.50132">
        <ele>216.5</ele>
        <time>2025-10-18T07:24:24Z</time>
      </trkpt>
      <trkpt lat="43.23139" lon="5.50132">
        <ele>216.4</ele>
        <time>2025-10-18T07:24:25Z</time>
      </trkpt>
      <trkpt lat="43.23139" lon="5.50132">
        <ele>216.4</ele>
        <time>2025-10-18T07:24:26Z</time>
      </trkpt>
      <trkpt lat="43.23139" lon="5.50132">
        <ele>216.4</ele>
        <time>2025-10-18T07:24:27Z</time>
      </trkpt>
      <trkpt lat="43.23139" lon="5.50132">
        <ele>216.3</ele>
        <time>2025-10-18T07:24:28Z</time>
      </trkpt>
      <trkpt lat="43.23139" lon="5.50132">
        <ele>216.3</ele>
        <time>2025-10-18T07:24:29Z</time>
      </trkpt>
      <trkpt lat="43.23138" lon="5.50132">
        <ele>216.4</ele>
        <time>2025-10-18T07:24:30Z</time>
      </trkpt>
      <trkpt lat="43.23138" lon="5.50133">
        <ele>216.4</ele>
        <time>2025-10-18T07:24:31Z</time>
      </trkpt>
      <trkpt lat="43.23138" lon="5.50133">
        <ele>216.5</ele>
        <time>2025-10-18T07:24:32Z</time>
      </trkpt>
      <trkpt lat="43.23138" lon="5.50133">
        <ele>216.4</ele>
        <time>2025-10-18T07:24:33Z</time>
      </trkpt>
      <trkpt lat="43.23138" lon="5.50133">
        <ele>216.4</ele>
        <time>2025-10-18T07:24:34Z</time>
      </trkpt>
      <trkpt lat="43.23138" lon="5.50134">
        <ele>216.5</ele>
        <time>2025-10-18T07:24:35Z</time>
      </trkpt>
      <trkpt lat="43.23138" lon="5.50133">
        <ele>216.5</ele>
        <time>2025-10-18T07:24:36Z</time>
      </trkpt>
      <trkpt lat="43.23138" lon="5.50133">
        <ele>216.6</ele>
        <time>2025-10-18T07:24:37Z</time>
      </trkpt>
      <trkpt lat="43.23138" lon="5.50133">
        <ele>216.6</ele>
        <time>2025-10-18T07:24:38Z</time>
      </trkpt>
      <trkpt lat="43.23138" lon="5.50133">
        <ele>216.6</ele>
        <time>2025-10-18T07:24:39Z</time>
      </trkpt>
      <trkpt lat="43.23138" lon="5.50132">
        <ele>216.6</ele>
        <time>2025-10-18T07:24:40Z</time>
      </trkpt>
      <trkpt lat="43.23138" lon="5.50132">
        <ele>216.7</ele>
        <time>2025-10-18T07:24:41Z</time>
      </trkpt>
      <trkpt lat="43.23139" lon="5.50131">
        <ele>216.6</ele>
        <time>2025-10-18T07:24:42Z</time>
      </trkpt>
      <trkpt lat="43.23139" lon="5.50131">
        <ele>216.5</ele>
        <time>2025-10-18T07:24:43Z</time>
      </trkpt>
      <trkpt lat="43.23139" lon="5.50131">
        <ele>216.5</ele>
        <time>2025-10-18T07:24:44Z</time>
      </trkpt>
      <trkpt lat="43.2314" lon="5.50131">
        <ele>216.4</ele>
        <time>2025-10-18T07:24:45Z</time>
      </trkpt>
      <trkpt lat="43.2314" lon="5.5013">
        <ele>216.5</ele>
        <time>2025-10-18T07:24:46Z</time>
      </trkpt>
      <trkpt lat="43.2314" lon="5.5013">
        <ele>216.3</ele>
        <time>2025-10-18T07:24:47Z</time>
      </trkpt>
      <trkpt lat="43.23141" lon="5.5013">
        <ele>216.3</ele>
        <time>2025-10-18T07:24:48Z</time>
      </trkpt>
      <trkpt lat="43.23142" lon="5.5013">
        <ele>216.3</ele>
        <time>2025-10-18T07:24:49Z</time>
      </trkpt>
      <trkpt lat="43.23142" lon="5.5013">
        <ele>216.4</ele>
        <time>2025-10-18T07:24:50Z</time>
      </trkpt>
      <trkpt lat="43.23142" lon="5.5013">
        <ele>216.4</ele>
        <time>2025-10-18T07:24:51Z</time>
      </trkpt>
      <trkpt lat="43.23142" lon="5.5013">
        <ele>216.4</ele>
        <time>2025-10-18T07:24:52Z</time>
      </trkpt>
      <trkpt lat="43.23142" lon="5.5013">
        <ele>216.3</ele>
        <time>2025-10-18T07:24:53Z</time>
      </trkpt>
      <trkpt lat="43.23142" lon="5.50129">
        <ele>216.3</ele>
        <time>2025-10-18T07:24:54Z</time>
      </trkpt>
      <trkpt lat="43.23142" lon="5.50129">
        <ele>216.3</ele>
        <time>2025-10-18T07:24:55Z</time>
      </trkpt>
      <trkpt lat="43.23141" lon="5.50128">
        <ele>216.3</ele>
        <time>2025-10-18T07:24:56Z</time>
      </trkpt>
      <trkpt lat="43.23141" lon="5.50128">
        <ele>216.3</ele>
        <time>2025-10-18T07:24:57Z</time>
      </trkpt>
      <trkpt lat="43.23141" lon="5.50128">
        <ele>216.4</ele>
        <time>2025-10-18T07:24:58Z</time>
      </trkpt>
      <trkpt lat="43.2314" lon="5.50128">
        <ele>216.4</ele>
        <time>2025-10-18T07:24:59Z</time>
      </trkpt>
      <trkpt lat="43.2314" lon="5.50127">
        <ele>216.3</ele>
        <time>2025-10-18T07:25:00Z</time>
      </trkpt>
      <trkpt lat="43.23139" lon="5.50127">
        <ele>216.2</ele>
        <time>2025-10-18T07:25:01Z</time>
      </trkpt>
      <trkpt lat="43.23139" lon="5.50127">
        <ele>216.1</ele>
        <time>2025-10-18T07:25:02Z</time>
      </trkpt>
      <trkpt lat="43.23138" lon="5.50127">
        <ele>216.1</ele>
        <time>2025-10-18T07:25:03Z</time>
      </trkpt>
      <trkpt lat="43.23138" lon="5.50127">
        <ele>216.2</ele>
        <time>2025-10-18T07:25:04Z</time>
      </trkpt>
      <trkpt lat="43.23138" lon="5.50127">
        <ele>216.3</ele>
        <time>2025-10-18T07:25:05Z</time>
      </trkpt>
      <trkpt lat="43.23137" lon="5.50127">
        <ele>216.4</ele>
        <time>2025-10-18T07:25:06Z</time>
      </trkpt>
      <trkpt lat="43.23137" lon="5.50126">
        <ele>216.5</ele>
        <time>2025-10-18T07:25:07Z</time>
      </trkpt>
      <trkpt lat="43.23137" lon="5.50126">
        <ele>216.6</ele>
        <time>2025-10-18T07:25:08Z</time>
      </trkpt>
      <trkpt lat="43.23136" lon="5.50126">
        <ele>216.7</ele>
        <time>2025-10-18T07:25:09Z</time>
      </trkpt>
      <trkpt lat="43.23136" lon="5.50126">
        <ele>216.8</ele>
        <time>2025-10-18T07:25:10Z</time>
      </trkpt>
      <trkpt lat="43.23136" lon="5.50126">
        <ele>217</ele>
        <time>2025-10-18T07:25:11Z</time>
      </trkpt>
      <trkpt lat="43.23136" lon="5.50125">
        <ele>217.1</ele>
        <time>2025-10-18T07:25:12Z</time>
      </trkpt>
      <trkpt lat="43.23135" lon="5.50124">
        <ele>217.1</ele>
        <time>2025-10-18T07:25:13Z</time>
      </trkpt>
      <trkpt lat="43.23135" lon="5.50123">
        <ele>217.2</ele>
        <time>2025-10-18T07:25:14Z</time>
      </trkpt>
      <trkpt lat="43.23134" lon="5.50123">
        <ele>217.3</ele>
        <time>2025-10-18T07:25:15Z</time>
      </trkpt>
      <trkpt lat="43.23133" lon="5.50122">
        <ele>217.4</ele>
        <time>2025-10-18T07:25:16Z</time>
      </trkpt>
      <trkpt lat="43.23132" lon="5.50122">
        <ele>217.6</ele>
        <time>2025-10-18T07:25:17Z</time>
      </trkpt>
      <trkpt lat="43.23132" lon="5.50121">
        <ele>217.9</ele>
        <time>2025-10-18T07:25:18Z</time>
      </trkpt>
      <trkpt lat="43.23131" lon="5.50121">
        <ele>218.1</ele>
        <time>2025-10-18T07:25:19Z</time>
      </trkpt>
      <trkpt lat="43.23131" lon="5.50121">
        <ele>218.3</ele>
        <time>2025-10-18T07:25:20Z</time>
      </trkpt>
      <trkpt lat="43.2313" lon="5.5012">
        <ele>218.4</ele>
        <time>2025-10-18T07:25:21Z</time>
      </trkpt>
      <trkpt lat="43.2313" lon="5.5012">
        <ele>218.6</ele>
        <time>2025-10-18T07:25:22Z</time>
      </trkpt>
      <trkpt lat="43.23129" lon="5.5012">
        <ele>218.8</ele>
        <time>2025-10-18T07:25:23Z</time>
      </trkpt>
      <trkpt lat="43.23129" lon="5.5012">
        <ele>218.9</ele>
        <time>2025-10-18T07:25:24Z</time>
      </trkpt>
      <trkpt lat="43.23129" lon="5.5012">
        <ele>219</ele>
        <time>2025-10-18T07:25:25Z</time>
      </trkpt>
      <trkpt lat="43.2313" lon="5.5012">
        <ele>219.1</ele>
        <time>2025-10-18T07:25:26Z</time>
      </trkpt>
      <trkpt lat="43.23129" lon="5.5012">
        <ele>219.2</ele>
        <time>2025-10-18T07:25:27Z</time>
      </trkpt>
      <trkpt lat="43.23129" lon="5.5012">
        <ele>219.3</ele>
        <time>2025-10-18T07:25:28Z</time>
      </trkpt>
      <trkpt lat="43.23128" lon="5.5012">
        <ele>219.3</ele>
        <time>2025-10-18T07:25:29Z</time>
      </trkpt>
      <trkpt lat="43.23128" lon="5.5012">
        <ele>219.4</ele>
        <time>2025-10-18T07:25:30Z</time>
      </trkpt>
      <trkpt lat="43.23127" lon="5.5012">
        <ele>219.5</ele>
        <time>2025-10-18T07:25:31Z</time>
      </trkpt>
      <trkpt lat="43.23127" lon="5.5012">
        <ele>219.6</ele>
        <time>2025-10-18T07:25:32Z</time>
      </trkpt>
      <trkpt lat="43.23127" lon="5.5012">
        <ele>219.8</ele>
        <time>2025-10-18T07:25:33Z</time>
      </trkpt>
      <trkpt lat="43.23126" lon="5.5012">
        <ele>220</ele>
        <time>2025-10-18T07:25:34Z</time>
      </trkpt>
      <trkpt lat="43.23125" lon="5.5012">
        <ele>220.2</ele>
        <time>2025-10-18T07:25:35Z</time>
      </trkpt>
      <trkpt lat="43.23125" lon="5.5012">
        <ele>220.4</ele>
        <time>2025-10-18T07:25:36Z</time>
      </trkpt>
      <trkpt lat="43.23124" lon="5.50119">
        <ele>220.4</ele>
        <time>2025-10-18T07:25:37Z</time>
      </trkpt>
      <trkpt lat="43.23123" lon="5.50119">
        <ele>220.5</ele>
        <time>2025-10-18T07:25:38Z</time>
      </trkpt>
      <trkpt lat="43.23123" lon="5.50119">
        <ele>220.6</ele>
        <time>2025-10-18T07:25:39Z</time>
      </trkpt>
      <trkpt lat="43.23122" lon="5.50119">
        <ele>220.8</ele>
        <time>2025-10-18T07:25:40Z</time>
      </trkpt>
      <trkpt lat="43.23122" lon="5.50119">
        <ele>220.9</ele>
        <time>2025-10-18T07:25:41Z</time>
      </trkpt>
      <trkpt lat="43.23121" lon="5.50119">
        <ele>221</ele>
        <time>2025-10-18T07:25:42Z</time>
      </trkpt>
      <trkpt lat="43.23121" lon="5.50119">
        <ele>221.2</ele>
        <time>2025-10-18T07:25:43Z</time>
      </trkpt>
      <trkpt lat="43.2312" lon="5.50119">
        <ele>221.4</ele>
        <time>2025-10-18T07:25:44Z</time>
      </trkpt>
      <trkpt lat="43.2312" lon="5.50119">
        <ele>221.5</ele>
        <time>2025-10-18T07:25:45Z</time>
      </trkpt>
      <trkpt lat="43.2312" lon="5.50119">
        <ele>221.6</ele>
        <time>2025-10-18T07:25:46Z</time>
      </trkpt>
      <trkpt lat="43.23119" lon="5.50119">
        <ele>221.7</ele>
        <time>2025-10-18T07:25:47Z</time>
      </trkpt>
      <trkpt lat="43.23119" lon="5.50118">
        <ele>221.8</ele>
        <time>2025-10-18T07:25:48Z</time>
      </trkpt>
      <trkpt lat="43.23118" lon="5.50118">
        <ele>221.9</ele>
        <time>2025-10-18T07:25:49Z</time>
      </trkpt>
      <trkpt lat="43.23118" lon="5.50118">
        <ele>221.9</ele>
        <time>2025-10-18T07:25:50Z</time>
      </trkpt>
      <trkpt lat="43.23117" lon="5.50117">
        <ele>222.1</ele>
        <time>2025-10-18T07:25:51Z</time>
      </trkpt>
      <trkpt lat="43.23117" lon="5.50117">
        <ele>222.2</ele>
        <time>2025-10-18T07:25:52Z</time>
      </trkpt>
      <trkpt lat="43.23117" lon="5.50117">
        <ele>222.3</ele>
        <time>2025-10-18T07:25:53Z</time>
      </trkpt>
      <trkpt lat="43.23117" lon="5.50117">
        <ele>222.5</ele>
        <time>2025-10-18T07:25:54Z</time>
      </trkpt>
      <trkpt lat="43.23117" lon="5.50117">
        <ele>222.5</ele>
        <time>2025-10-18T07:25:55Z</time>
      </trkpt>
      <trkpt lat="43.23117" lon="5.50116">
        <ele>222.6</ele>
        <time>2025-10-18T07:25:56Z</time>
      </trkpt>
      <trkpt lat="43.23117" lon="5.50116">
        <ele>222.6</ele>
        <time>2025-10-18T07:25:57Z</time>
      </trkpt>
      <trkpt lat="43.23117" lon="5.50116">
        <ele>222.7</ele>
        <time>2025-10-18T07:25:58Z</time>
      </trkpt>
      <trkpt lat="43.23117" lon="5.50116">
        <ele>222.8</ele>
        <time>2025-10-18T07:25:59Z</time>
      </trkpt>
      <trkpt lat="43.23117" lon="5.50116">
        <ele>222.9</ele>
        <time>2025-10-18T07:26:00Z</time>
      </trkpt>
      <trkpt lat="43.23117" lon="5.50117">
        <ele>223</ele>
        <time>2025-10-18T07:26:01Z</time>
      </trkpt>
      <trkpt lat="43.23117" lon="5.50117">
        <ele>223.1</ele>
        <time>2025-10-18T07:26:02Z</time>
      </trkpt>
      <trkpt lat="43.23117" lon="5.50117">
        <ele>223.3</ele>
        <time>2025-10-18T07:26:03Z</time>
      </trkpt>
      <trkpt lat="43.23117" lon="5.50118">
        <ele>223.4</ele>
        <time>2025-10-18T07:26:04Z</time>
      </trkpt>
      <trkpt lat="43.23117" lon="5.50118">
        <ele>223.3</ele>
        <time>2025-10-18T07:26:05Z</time>
      </trkpt>
      <trkpt lat="43.23118" lon="5.50118">
        <ele>223.3</ele>
        <time>2025-10-18T07:26:06Z</time>
      </trkpt>
      <trkpt lat="43.23118" lon="5.50118">
        <ele>223.3</ele>
        <time>2025-10-18T07:26:07Z</time>
      </trkpt>
      <trkpt lat="43.23118" lon="5.50118">
        <ele>223.3</ele>
        <time>2025-10-18T07:26:08Z</time>
      </trkpt>
      <trkpt lat="43.23118" lon="5.50118">
        <ele>223.3</ele>
        <time>2025-10-18T07:26:09Z</time>
      </trkpt>
      <trkpt lat="43.23118" lon="5.50117">
        <ele>223.3</ele>
        <time>2025-10-18T07:26:10Z</time>
      </trkpt>
      <trkpt lat="43.23118" lon="5.50117">
        <ele>223.4</ele>
        <time>2025-10-18T07:26:11Z</time>
      </trkpt>
      <trkpt lat="43.23117" lon="5.50117">
        <ele>223.6</ele>
        <time>2025-10-18T07:26:12Z</time>
      </trkpt>
      <trkpt lat="43.23117" lon="5.50117">
        <ele>223.8</ele>
        <time>2025-10-18T07:26:13Z</time>
      </trkpt>
      <trkpt lat="43.23117" lon="5.50116">
        <ele>223.9</ele>
        <time>2025-10-18T07:26:14Z</time>
      </trkpt>
      <trkpt lat="43.23117" lon="5.50116">
        <ele>223.9</ele>
        <time>2025-10-18T07:26:15Z</time>
      </trkpt>
      <trkpt lat="43.23117" lon="5.50115">
        <ele>223.9</ele>
        <time>2025-10-18T07:26:16Z</time>
      </trkpt>
      <trkpt lat="43.23117" lon="5.50115">
        <ele>224</ele>
        <time>2025-10-18T07:26:17Z</time>
      </trkpt>
      <trkpt lat="43.23116" lon="5.50114">
        <ele>224</ele>
        <time>2025-10-18T07:26:18Z</time>
      </trkpt>
      <trkpt lat="43.23116" lon="5.50114">
        <ele>224.1</ele>
        <time>2025-10-18T07:26:19Z</time>
      </trkpt>
      <trkpt lat="43.23116" lon="5.50113">
        <ele>224.2</ele>
        <time>2025-10-18T07:26:20Z</time>
      </trkpt>
      <trkpt lat="43.23115" lon="5.50112">
        <ele>224.4</ele>
        <time>2025-10-18T07:26:21Z</time>
      </trkpt>
      <trkpt lat="43.23114" lon="5.50112">
        <ele>224.5</ele>
        <time>2025-10-18T07:26:22Z</time>
      </trkpt>
      <trkpt lat="43.23114" lon="5.50111">
        <ele>224.7</ele>
        <time>2025-10-18T07:26:23Z</time>
      </trkpt>
      <trkpt lat="43.23114" lon="5.5011">
        <ele>224.8</ele>
        <time>2025-10-18T07:26:24Z</time>
      </trkpt>
      <trkpt lat="43.23113" lon="5.5011">
        <ele>224.9</ele>
        <time>2025-10-18T07:26:25Z</time>
      </trkpt>
      <trkpt lat="43.23113" lon="5.50109">
        <ele>225</ele>
        <time>2025-10-18T07:26:26Z</time>
      </trkpt>
      <trkpt lat="43.23112" lon="5.50109">
        <ele>225.2</ele>
        <time>2025-10-18T07:26:27Z</time>
      </trkpt>
      <trkpt lat="43.23112" lon="5.50108">
        <ele>225.3</ele>
        <time>2025-10-18T07:26:28Z</time>
      </trkpt>
      <trkpt lat="43.23111" lon="5.50108">
        <ele>225.5</ele>
        <time>2025-10-18T07:26:29Z</time>
      </trkpt>
      <trkpt lat="43.23111" lon="5.50107">
        <ele>225.5</ele>
        <time>2025-10-18T07:26:30Z</time>
      </trkpt>
      <trkpt lat="43.2311" lon="5.50106">
        <ele>225.6</ele>
        <time>2025-10-18T07:26:31Z</time>
      </trkpt>
      <trkpt lat="43.2311" lon="5.50106">
        <ele>225.6</ele>
        <time>2025-10-18T07:26:32Z</time>
      </trkpt>
      <trkpt lat="43.2311" lon="5.50106">
        <ele>225.5</ele>
        <time>2025-10-18T07:26:33Z</time>
      </trkpt>
      <trkpt lat="43.23109" lon="5.50105">
        <ele>225.6</ele>
        <time>2025-10-18T07:26:34Z</time>
      </trkpt>
      <trkpt lat="43.23108" lon="5.50104">
        <ele>225.7</ele>
        <time>2025-10-18T07:26:35Z</time>
      </trkpt>
      <trkpt lat="43.23107" lon="5.50104">
        <ele>226</ele>
        <time>2025-10-18T07:26:36Z</time>
      </trkpt>
      <trkpt lat="43.23107" lon="5.50104">
        <ele>226.1</ele>
        <time>2025-10-18T07:26:37Z</time>
      </trkpt>
      <trkpt lat="43.23107" lon="5.50104">
        <ele>226.2</ele>
        <time>2025-10-18T07:26:38Z</time>
      </trkpt>
      <trkpt lat="43.23106" lon="5.50103">
        <ele>226.3</ele>
        <time>2025-10-18T07:26:39Z</time>
      </trkpt>
      <trkpt lat="43.23105" lon="5.50103">
        <ele>226.5</ele>
        <time>2025-10-18T07:26:40Z</time>
      </trkpt>
      <trkpt lat="43.23104" lon="5.50102">
        <ele>226.7</ele>
        <time>2025-10-18T07:26:41Z</time>
      </trkpt>
      <trkpt lat="43.23104" lon="5.50102">
        <ele>226.8</ele>
        <time>2025-10-18T07:26:42Z</time>
      </trkpt>
      <trkpt lat="43.23104" lon="5.50101">
        <ele>227</ele>
        <time>2025-10-18T07:26:43Z</time>
      </trkpt>
      <trkpt lat="43.23103" lon="5.50101">
        <ele>227.2</ele>
        <time>2025-10-18T07:26:44Z</time>
      </trkpt>
      <trkpt lat="43.23102" lon="5.50101">
        <ele>227.4</ele>
        <time>2025-10-18T07:26:45Z</time>
      </trkpt>
      <trkpt lat="43.23101" lon="5.501">
        <ele>227.5</ele>
        <time>2025-10-18T07:26:46Z</time>
      </trkpt>
      <trkpt lat="43.23101" lon="5.501">
        <ele>227.7</ele>
        <time>2025-10-18T07:26:47Z</time>
      </trkpt>
      <trkpt lat="43.231" lon="5.501">
        <ele>227.7</ele>
        <time>2025-10-18T07:26:48Z</time>
      </trkpt>
      <trkpt lat="43.231" lon="5.501">
        <ele>227.9</ele>
        <time>2025-10-18T07:26:49Z</time>
      </trkpt>
      <trkpt lat="43.23099" lon="5.501">
        <ele>228.1</ele>
        <time>2025-10-18T07:26:50Z</time>
      </trkpt>
      <trkpt lat="43.23098" lon="5.501">
        <ele>228.2</ele>
        <time>2025-10-18T07:26:51Z</time>
      </trkpt>
      <trkpt lat="43.23098" lon="5.501">
        <ele>228.4</ele>
        <time>2025-10-18T07:26:52Z</time>
      </trkpt>
      <trkpt lat="43.23097" lon="5.501">
        <ele>228.4</ele>
        <time>2025-10-18T07:26:53Z</time>
      </trkpt>
      <trkpt lat="43.23096" lon="5.501">
        <ele>228.6</ele>
        <time>2025-10-18T07:26:54Z</time>
      </trkpt>
      <trkpt lat="43.23095" lon="5.501">
        <ele>228.7</ele>
        <time>2025-10-18T07:26:55Z</time>
      </trkpt>
      <trkpt lat="43.23095" lon="5.501">
        <ele>228.9</ele>
        <time>2025-10-18T07:26:56Z</time>
      </trkpt>
      <trkpt lat="43.23094" lon="5.501">
        <ele>229.1</ele>
        <time>2025-10-18T07:26:57Z</time>
      </trkpt>
      <trkpt lat="43.23093" lon="5.501">
        <ele>229.2</ele>
        <time>2025-10-18T07:26:58Z</time>
      </trkpt>
      <trkpt lat="43.23092" lon="5.501">
        <ele>229.3</ele>
        <time>2025-10-18T07:26:59Z</time>
      </trkpt>
      <trkpt lat="43.23092" lon="5.501">
        <ele>229.5</ele>
        <time>2025-10-18T07:27:00Z</time>
      </trkpt>
      <trkpt lat="43.23091" lon="5.501">
        <ele>229.7</ele>
        <time>2025-10-18T07:27:01Z</time>
      </trkpt>
      <trkpt lat="43.2309" lon="5.50101">
        <ele>229.9</ele>
        <time>2025-10-18T07:27:02Z</time>
      </trkpt>
      <trkpt lat="43.2309" lon="5.50101">
        <ele>230.1</ele>
        <time>2025-10-18T07:27:03Z</time>
      </trkpt>
      <trkpt lat="43.23089" lon="5.50101">
        <ele>230.2</ele>
        <time>2025-10-18T07:27:04Z</time>
      </trkpt>
      <trkpt lat="43.23089" lon="5.50102">
        <ele>230.4</ele>
        <time>2025-10-18T07:27:05Z</time>
      </trkpt>
      <trkpt lat="43.23088" lon="5.50102">
        <ele>230.5</ele>
        <time>2025-10-18T07:27:06Z</time>
      </trkpt>
      <trkpt lat="43.23087" lon="5.50102">
        <ele>230.6</ele>
        <time>2025-10-18T07:27:07Z</time>
      </trkpt>
      <trkpt lat="43.23086" lon="5.50102">
        <ele>230.8</ele>
        <time>2025-10-18T07:27:08Z</time>
      </trkpt>
      <trkpt lat="43.23086" lon="5.50102">
        <ele>230.9</ele>
        <time>2025-10-18T07:27:09Z</time>
      </trkpt>
      <trkpt lat="43.23086" lon="5.50103">
        <ele>231</ele>
        <time>2025-10-18T07:27:10Z</time>
      </trkpt>
      <trkpt lat="43.23086" lon="5.50102">
        <ele>231.2</ele>
        <time>2025-10-18T07:27:11Z</time>
      </trkpt>
      <trkpt lat="43.23085" lon="5.50103">
        <ele>231.4</ele>
        <time>2025-10-18T07:27:12Z</time>
      </trkpt>
      <trkpt lat="43.23085" lon="5.50103">
        <ele>231.6</ele>
        <time>2025-10-18T07:27:13Z</time>
      </trkpt>
      <trkpt lat="43.23084" lon="5.50103">
        <ele>231.7</ele>
        <time>2025-10-18T07:27:14Z</time>
      </trkpt>
      <trkpt lat="43.23084" lon="5.50103">
        <ele>231.8</ele>
        <time>2025-10-18T07:27:15Z</time>
      </trkpt>
      <trkpt lat="43.23083" lon="5.50103">
        <ele>232.1</ele>
        <time>2025-10-18T07:27:16Z</time>
      </trkpt>
      <trkpt lat="43.23083" lon="5.50104">
        <ele>232.3</ele>
        <time>2025-10-18T07:27:17Z</time>
      </trkpt>
      <trkpt lat="43.23082" lon="5.50104">
        <ele>232.5</ele>
        <time>2025-10-18T07:27:18Z</time>
      </trkpt>
      <trkpt lat="43.23082" lon="5.50104">
        <ele>232.6</ele>
        <time>2025-10-18T07:27:19Z</time>
      </trkpt>
      <trkpt lat="43.23082" lon="5.50105">
        <ele>232.8</ele>
        <time>2025-10-18T07:27:20Z</time>
      </trkpt>
      <trkpt lat="43.23081" lon="5.50105">
        <ele>232.9</ele>
        <time>2025-10-18T07:27:21Z</time>
      </trkpt>
      <trkpt lat="43.23081" lon="5.50106">
        <ele>233.1</ele>
        <time>2025-10-18T07:27:22Z</time>
      </trkpt>
      <trkpt lat="43.2308" lon="5.50106">
        <ele>233.2</ele>
        <time>2025-10-18T07:27:23Z</time>
      </trkpt>
      <trkpt lat="43.2308" lon="5.50106">
        <ele>233.3</ele>
        <time>2025-10-18T07:27:24Z</time>
      </trkpt>
      <trkpt lat="43.23079" lon="5.50107">
        <ele>233.4</ele>
        <time>2025-10-18T07:27:25Z</time>
      </trkpt>
      <trkpt lat="43.23079" lon="5.50107">
        <ele>233.5</ele>
        <time>2025-10-18T07:27:26Z</time>
      </trkpt>
      <trkpt lat="43.23078" lon="5.50108">
        <ele>233.6</ele>
        <time>2025-10-18T07:27:27Z</time>
      </trkpt>
      <trkpt lat="43.23078" lon="5.50108">
        <ele>233.7</ele>
        <time>2025-10-18T07:27:28Z</time>
      </trkpt>
      <trkpt lat="43.23077" lon="5.50108">
        <ele>233.8</ele>
        <time>2025-10-18T07:27:29Z</time>
      </trkpt>
      <trkpt lat="43.23077" lon="5.50108">
        <ele>233.9</ele>
        <time>2025-10-18T07:27:30Z</time>
      </trkpt>
      <trkpt lat="43.23076" lon="5.50108">
        <ele>234.1</ele>
        <time>2025-10-18T07:27:31Z</time>
      </trkpt>
      <trkpt lat="43.23076" lon="5.50108">
        <ele>234.2</ele>
        <time>2025-10-18T07:27:32Z</time>
      </trkpt>
      <trkpt lat="43.23075" lon="5.50108">
        <ele>234.3</ele>
        <time>2025-10-18T07:27:33Z</time>
      </trkpt>
      <trkpt lat="43.23075" lon="5.50108">
        <ele>234.5</ele>
        <time>2025-10-18T07:27:34Z</time>
      </trkpt>
      <trkpt lat="43.23074" lon="5.50109">
        <ele>234.7</ele>
        <time>2025-10-18T07:27:35Z</time>
      </trkpt>
      <trkpt lat="43.23074" lon="5.50109">
        <ele>234.8</ele>
        <time>2025-10-18T07:27:36Z</time>
      </trkpt>
      <trkpt lat="43.23073" lon="5.5011">
        <ele>235</ele>
        <time>2025-10-18T07:27:37Z</time>
      </trkpt>
      <trkpt lat="43.23072" lon="5.5011">
        <ele>235.1</ele>
        <time>2025-10-18T07:27:38Z</time>
      </trkpt>
      <trkpt lat="43.23072" lon="5.50111">
        <ele>235.2</ele>
        <time>2025-10-18T07:27:39Z</time>
      </trkpt>
      <trkpt lat="43.23071" lon="5.50112">
        <ele>235.2</ele>
        <time>2025-10-18T07:27:40Z</time>
      </trkpt>
      <trkpt lat="43.2307" lon="5.50113">
        <ele>235.3</ele>
        <time>2025-10-18T07:27:41Z</time>
      </trkpt>
      <trkpt lat="43.2307" lon="5.50113">
        <ele>235.4</ele>
        <time>2025-10-18T07:27:42Z</time>
      </trkpt>
      <trkpt lat="43.2307" lon="5.50114">
        <ele>235.5</ele>
        <time>2025-10-18T07:27:43Z</time>
      </trkpt>
      <trkpt lat="43.23069" lon="5.50114">
        <ele>235.6</ele>
        <time>2025-10-18T07:27:44Z</time>
      </trkpt>
      <trkpt lat="43.23068" lon="5.50115">
        <ele>235.7</ele>
        <time>2025-10-18T07:27:45Z</time>
      </trkpt>
      <trkpt lat="43.23068" lon="5.50116">
        <ele>235.9</ele>
        <time>2025-10-18T07:27:46Z</time>
      </trkpt>
      <trkpt lat="43.23067" lon="5.50116">
        <ele>236</ele>
        <time>2025-10-18T07:27:47Z</time>
      </trkpt>
      <trkpt lat="43.23067" lon="5.50116">
        <ele>236.1</ele>
        <time>2025-10-18T07:27:48Z</time>
      </trkpt>
      <trkpt lat="43.23066" lon="5.50116">
        <ele>236.2</ele>
        <time>2025-10-18T07:27:49Z</time>
      </trkpt>
      <trkpt lat="43.23065" lon="5.50115">
        <ele>236.2</ele>
        <time>2025-10-18T07:27:50Z</time>
      </trkpt>
      <trkpt lat="43.23064" lon="5.50116">
        <ele>236.3</ele>
        <time>2025-10-18T07:27:51Z</time>
      </trkpt>
      <trkpt lat="43.23063" lon="5.50116">
        <ele>236.4</ele>
        <time>2025-10-18T07:27:52Z</time>
      </trkpt>
      <trkpt lat="43.23062" lon="5.50116">
        <ele>236.5</ele>
        <time>2025-10-18T07:27:53Z</time>
      </trkpt>
      <trkpt lat="43.23061" lon="5.50116">
        <ele>236.6</ele>
        <time>2025-10-18T07:27:54Z</time>
      </trkpt>
      <trkpt lat="43.23061" lon="5.50116">
        <ele>236.7</ele>
        <time>2025-10-18T07:27:55Z</time>
      </trkpt>
      <trkpt lat="43.2306" lon="5.50117">
        <ele>236.8</ele>
        <time>2025-10-18T07:27:56Z</time>
      </trkpt>
      <trkpt lat="43.23059" lon="5.50118">
        <ele>236.9</ele>
        <time>2025-10-18T07:27:57Z</time>
      </trkpt>
      <trkpt lat="43.23058" lon="5.50118">
        <ele>237</ele>
        <time>2025-10-18T07:27:58Z</time>
      </trkpt>
      <trkpt lat="43.23057" lon="5.50119">
        <ele>237.1</ele>
        <time>2025-10-18T07:27:59Z</time>
      </trkpt>
      <trkpt lat="43.23057" lon="5.50119">
        <ele>237.4</ele>
        <time>2025-10-18T07:28:00Z</time>
      </trkpt>
      <trkpt lat="43.23056" lon="5.50119">
        <ele>237.6</ele>
        <time>2025-10-18T07:28:01Z</time>
      </trkpt>
      <trkpt lat="43.23055" lon="5.5012">
        <ele>237.8</ele>
        <time>2025-10-18T07:28:02Z</time>
      </trkpt>
      <trkpt lat="43.23055" lon="5.50121">
        <ele>237.9</ele>
        <time>2025-10-18T07:28:03Z</time>
      </trkpt>
      <trkpt lat="43.23054" lon="5.50121">
        <ele>238</ele>
        <time>2025-10-18T07:28:04Z</time>
      </trkpt>
      <trkpt lat="43.23053" lon="5.50122">
        <ele>238.1</ele>
        <time>2025-10-18T07:28:05Z</time>
      </trkpt>
      <trkpt lat="43.23052" lon="5.50122">
        <ele>238.3</ele>
        <time>2025-10-18T07:28:06Z</time>
      </trkpt>
      <trkpt lat="43.23051" lon="5.50122">
        <ele>238.5</ele>
        <time>2025-10-18T07:28:07Z</time>
      </trkpt>
      <trkpt lat="43.2305" lon="5.50122">
        <ele>238.6</ele>
        <time>2025-10-18T07:28:08Z</time>
      </trkpt>
      <trkpt lat="43.23049" lon="5.50123">
        <ele>238.7</ele>
        <time>2025-10-18T07:28:09Z</time>
      </trkpt>
      <trkpt lat="43.23048" lon="5.50123">
        <ele>238.8</ele>
        <time>2025-10-18T07:28:10Z</time>
      </trkpt>
      <trkpt lat="43.23047" lon="5.50124">
        <ele>238.9</ele>
        <time>2025-10-18T07:28:11Z</time>
      </trkpt>
      <trkpt lat="43.23046" lon="5.50125">
        <ele>239.1</ele>
        <time>2025-10-18T07:28:12Z</time>
      </trkpt>
      <trkpt lat="43.23045" lon="5.50125">
        <ele>239.2</ele>
        <time>2025-10-18T07:28:13Z</time>
      </trkpt>
      <trkpt lat="43.23044" lon="5.50126">
        <ele>239.2</ele>
        <time>2025-10-18T07:28:14Z</time>
      </trkpt>
      <trkpt lat="43.23043" lon="5.50126">
        <ele>239.4</ele>
        <time>2025-10-18T07:28:15Z</time>
      </trkpt>
      <trkpt lat="43.23042" lon="5.50126">
        <ele>239.5</ele>
        <time>2025-10-18T07:28:16Z</time>
      </trkpt>
      <trkpt lat="43.23042" lon="5.50127">
        <ele>239.6</ele>
        <time>2025-10-18T07:28:17Z</time>
      </trkpt>
      <trkpt lat="43.23041" lon="5.50127">
        <ele>239.7</ele>
        <time>2025-10-18T07:28:18Z</time>
      </trkpt>
      <trkpt lat="43.2304" lon="5.50128">
        <ele>239.8</ele>
        <time>2025-10-18T07:28:19Z</time>
      </trkpt>
      <trkpt lat="43.23039" lon="5.50129">
        <ele>239.9</ele>
        <time>2025-10-18T07:28:20Z</time>
      </trkpt>
      <trkpt lat="43.23038" lon="5.50129">
        <ele>240</ele>
        <time>2025-10-18T07:28:21Z</time>
      </trkpt>
      <trkpt lat="43.23037" lon="5.5013">
        <ele>240.1</ele>
        <time>2025-10-18T07:28:22Z</time>
      </trkpt>
      <trkpt lat="43.23037" lon="5.5013">
        <ele>240.4</ele>
        <time>2025-10-18T07:28:23Z</time>
      </trkpt>
      <trkpt lat="43.23036" lon="5.5013">
        <ele>240.5</ele>
        <time>2025-10-18T07:28:24Z</time>
      </trkpt>
      <trkpt lat="43.23035" lon="5.5013">
        <ele>240.8</ele>
        <time>2025-10-18T07:28:25Z</time>
      </trkpt>
      <trkpt lat="43.23035" lon="5.50131">
        <ele>241</ele>
        <time>2025-10-18T07:28:26Z</time>
      </trkpt>
      <trkpt lat="43.23034" lon="5.50131">
        <ele>241.1</ele>
        <time>2025-10-18T07:28:27Z</time>
      </trkpt>
      <trkpt lat="43.23034" lon="5.50131">
        <ele>241.3</ele>
        <time>2025-10-18T07:28:28Z</time>
      </trkpt>
      <trkpt lat="43.23033" lon="5.50132">
        <ele>241.5</ele>
        <time>2025-10-18T07:28:29Z</time>
      </trkpt>
      <trkpt lat="43.23032" lon="5.50132">
        <ele>241.6</ele>
        <time>2025-10-18T07:28:30Z</time>
      </trkpt>
      <trkpt lat="43.23032" lon="5.50132">
        <ele>241.8</ele>
        <time>2025-10-18T07:28:31Z</time>
      </trkpt>
      <trkpt lat="43.23032" lon="5.50133">
        <ele>241.9</ele>
        <time>2025-10-18T07:28:32Z</time>
      </trkpt>
      <trkpt lat="43.23031" lon="5.50133">
        <ele>242.1</ele>
        <time>2025-10-18T07:28:33Z</time>
      </trkpt>
      <trkpt lat="43.2303" lon="5.50133">
        <ele>242.2</ele>
        <time>2025-10-18T07:28:34Z</time>
      </trkpt>
      <trkpt lat="43.2303" lon="5.50133">
        <ele>242.3</ele>
        <time>2025-10-18T07:28:35Z</time>
      </trkpt>
      <trkpt lat="43.23029" lon="5.50134">
        <ele>242.4</ele>
        <time>2025-10-18T07:28:36Z</time>
      </trkpt>
      <trkpt lat="43.23029" lon="5.50134">
        <ele>242.5</ele>
        <time>2025-10-18T07:28:37Z</time>
      </trkpt>
      <trkpt lat="43.23028" lon="5.50134">
        <ele>242.6</ele>
        <time>2025-10-18T07:28:38Z</time>
      </trkpt>
      <trkpt lat="43.23028" lon="5.50135">
        <ele>242.8</ele>
        <time>2025-10-18T07:28:39Z</time>
      </trkpt>
      <trkpt lat="43.23027" lon="5.50136">
        <ele>242.8</ele>
        <time>2025-10-18T07:28:40Z</time>
      </trkpt>
      <trkpt lat="43.23027" lon="5.50136">
        <ele>243</ele>
        <time>2025-10-18T07:28:41Z</time>
      </trkpt>
      <trkpt lat="43.23026" lon="5.50137">
        <ele>243.1</ele>
        <time>2025-10-18T07:28:42Z</time>
      </trkpt>
      <trkpt lat="43.23025" lon="5.50137">
        <ele>243.2</ele>
        <time>2025-10-18T07:28:43Z</time>
      </trkpt>
      <trkpt lat="43.23024" lon="5.50139">
        <ele>243.3</ele>
        <time>2025-10-18T07:28:44Z</time>
      </trkpt>
      <trkpt lat="43.23023" lon="5.50139">
        <ele>243.5</ele>
        <time>2025-10-18T07:28:45Z</time>
      </trkpt>
      <trkpt lat="43.23023" lon="5.50139">
        <ele>243.7</ele>
        <time>2025-10-18T07:28:46Z</time>
      </trkpt>
      <trkpt lat="43.23022" lon="5.5014">
        <ele>243.9</ele>
        <time>2025-10-18T07:28:47Z</time>
      </trkpt>
      <trkpt lat="43.23021" lon="5.5014">
        <ele>244.1</ele>
        <time>2025-10-18T07:28:48Z</time>
      </trkpt>
      <trkpt lat="43.2302" lon="5.50141">
        <ele>244.2</ele>
        <time>2025-10-18T07:28:49Z</time>
      </trkpt>
      <trkpt lat="43.23019" lon="5.50142">
        <ele>244.3</ele>
        <time>2025-10-18T07:28:50Z</time>
      </trkpt>
      <trkpt lat="43.23019" lon="5.50143">
        <ele>244.4</ele>
        <time>2025-10-18T07:28:51Z</time>
      </trkpt>
      <trkpt lat="43.23018" lon="5.50144">
        <ele>244.6</ele>
        <time>2025-10-18T07:28:52Z</time>
      </trkpt>
      <trkpt lat="43.23017" lon="5.50146">
        <ele>244.7</ele>
        <time>2025-10-18T07:28:53Z</time>
      </trkpt>
      <trkpt lat="43.23017" lon="5.50147">
        <ele>244.9</ele>
        <time>2025-10-18T07:28:54Z</time>
      </trkpt>
      <trkpt lat="43.23016" lon="5.50147">
        <ele>245</ele>
        <time>2025-10-18T07:28:55Z</time>
      </trkpt>
      <trkpt lat="43.23015" lon="5.50148">
        <ele>245.1</ele>
        <time>2025-10-18T07:28:56Z</time>
      </trkpt>
      <trkpt lat="43.23014" lon="5.50149">
        <ele>245.3</ele>
        <time>2025-10-18T07:28:57Z</time>
      </trkpt>
      <trkpt lat="43.23013" lon="5.50149">
        <ele>245.5</ele>
        <time>2025-10-18T07:28:58Z</time>
      </trkpt>
      <trkpt lat="43.23013" lon="5.5015">
        <ele>245.7</ele>
        <time>2025-10-18T07:28:59Z</time>
      </trkpt>
      <trkpt lat="43.23012" lon="5.5015">
        <ele>245.9</ele>
        <time>2025-10-18T07:29:00Z</time>
      </trkpt>
      <trkpt lat="43.23012" lon="5.50151">
        <ele>246.1</ele>
        <time>2025-10-18T07:29:01Z</time>
      </trkpt>
      <trkpt lat="43.23011" lon="5.50151">
        <ele>246.3</ele>
        <time>2025-10-18T07:29:02Z</time>
      </trkpt>
      <trkpt lat="43.2301" lon="5.50151">
        <ele>246.5</ele>
        <time>2025-10-18T07:29:03Z</time>
      </trkpt>
      <trkpt lat="43.2301" lon="5.50151">
        <ele>246.6</ele>
        <time>2025-10-18T07:29:04Z</time>
      </trkpt>
      <trkpt lat="43.2301" lon="5.50152">
        <ele>246.8</ele>
        <time>2025-10-18T07:29:05Z</time>
      </trkpt>
      <trkpt lat="43.23009" lon="5.50152">
        <ele>247</ele>
        <time>2025-10-18T07:29:06Z</time>
      </trkpt>
      <trkpt lat="43.23009" lon="5.50153">
        <ele>247.3</ele>
        <time>2025-10-18T07:29:07Z</time>
      </trkpt>
      <trkpt lat="43.23008" lon="5.50153">
        <ele>247.5</ele>
        <time>2025-10-18T07:29:08Z</time>
      </trkpt>
      <trkpt lat="43.23007" lon="5.50154">
        <ele>247.6</ele>
        <time>2025-10-18T07:29:09Z</time>
      </trkpt>
      <trkpt lat="43.23007" lon="5.50154">
        <ele>247.8</ele>
        <time>2025-10-18T07:29:10Z</time>
      </trkpt>
      <trkpt lat="43.23007" lon="5.50154">
        <ele>247.9</ele>
        <time>2025-10-18T07:29:11Z</time>
      </trkpt>
      <trkpt lat="43.23006" lon="5.50154">
        <ele>248.1</ele>
        <time>2025-10-18T07:29:12Z</time>
      </trkpt>
      <trkpt lat="43.23005" lon="5.50154">
        <ele>248.3</ele>
        <time>2025-10-18T07:29:13Z</time>
      </trkpt>
      <trkpt lat="43.23004" lon="5.50155">
        <ele>248.5</ele>
        <time>2025-10-18T07:29:14Z</time>
      </trkpt>
      <trkpt lat="43.23004" lon="5.50155">
        <ele>248.6</ele>
        <time>2025-10-18T07:29:15Z</time>
      </trkpt>
      <trkpt lat="43.23003" lon="5.50155">
        <ele>248.7</ele>
        <time>2025-10-18T07:29:16Z</time>
      </trkpt>
      <trkpt lat="43.23002" lon="5.50154">
        <ele>248.8</ele>
        <time>2025-10-18T07:29:17Z</time>
      </trkpt>
      <trkpt lat="43.23001" lon="5.50154">
        <ele>248.9</ele>
        <time>2025-10-18T07:29:18Z</time>
      </trkpt>
      <trkpt lat="43.23001" lon="5.50154">
        <ele>249</ele>
        <time>2025-10-18T07:29:19Z</time>
      </trkpt>
      <trkpt lat="43.23" lon="5.50154">
        <ele>249</ele>
        <time>2025-10-18T07:29:20Z</time>
      </trkpt>
      <trkpt lat="43.22999" lon="5.50155">
        <ele>249.1</ele>
        <time>2025-10-18T07:29:21Z</time>
      </trkpt>
      <trkpt lat="43.22998" lon="5.50156">
        <ele>249.2</ele>
        <time>2025-10-18T07:29:22Z</time>
      </trkpt>
      <trkpt lat="43.22997" lon="5.50156">
        <ele>249.3</ele>
        <time>2025-10-18T07:29:23Z</time>
      </trkpt>
      <trkpt lat="43.22997" lon="5.50157">
        <ele>249.4</ele>
        <time>2025-10-18T07:29:24Z</time>
      </trkpt>
      <trkpt lat="43.22996" lon="5.50158">
        <ele>249.5</ele>
        <time>2025-10-18T07:29:25Z</time>
      </trkpt>
      <trkpt lat="43.22996" lon="5.50159">
        <ele>249.7</ele>
        <time>2025-10-18T07:29:26Z</time>
      </trkpt>
      <trkpt lat="43.22995" lon="5.5016">
        <ele>249.9</ele>
        <time>2025-10-18T07:29:27Z</time>
      </trkpt>
      <trkpt lat="43.22994" lon="5.5016">
        <ele>250.1</ele>
        <time>2025-10-18T07:29:28Z</time>
      </trkpt>
      <trkpt lat="43.22994" lon="5.50161">
        <ele>250.3</ele>
        <time>2025-10-18T07:29:29Z</time>
      </trkpt>
      <trkpt lat="43.22993" lon="5.50162">
        <ele>250.6</ele>
        <time>2025-10-18T07:29:30Z</time>
      </trkpt>
      <trkpt lat="43.22992" lon="5.50163">
        <ele>250.8</ele>
        <time>2025-10-18T07:29:31Z</time>
      </trkpt>
      <trkpt lat="43.22992" lon="5.50163">
        <ele>251</ele>
        <time>2025-10-18T07:29:32Z</time>
      </trkpt>
      <trkpt lat="43.22991" lon="5.50165">
        <ele>251.1</ele>
        <time>2025-10-18T07:29:33Z</time>
      </trkpt>
      <trkpt lat="43.22991" lon="5.50165">
        <ele>251.4</ele>
        <time>2025-10-18T07:29:34Z</time>
      </trkpt>
      <trkpt lat="43.22991" lon="5.50166">
        <ele>251.6</ele>
        <time>2025-10-18T07:29:35Z</time>
      </trkpt>
      <trkpt lat="43.2299" lon="5.50167">
        <ele>251.7</ele>
        <time>2025-10-18T07:29:36Z</time>
      </trkpt>
      <trkpt lat="43.22989" lon="5.50167">
        <ele>251.9</ele>
        <time>2025-10-18T07:29:37Z</time>
      </trkpt>
      <trkpt lat="43.22989" lon="5.50167">
        <ele>252</ele>
        <time>2025-10-18T07:29:38Z</time>
      </trkpt>
      <trkpt lat="43.22988" lon="5.50168">
        <ele>252.3</ele>
        <time>2025-10-18T07:29:39Z</time>
      </trkpt>
      <trkpt lat="43.22987" lon="5.50169">
        <ele>252.4</ele>
        <time>2025-10-18T07:29:40Z</time>
      </trkpt>
      <trkpt lat="43.22987" lon="5.50169">
        <ele>252.6</ele>
        <time>2025-10-18T07:29:41Z</time>
      </trkpt>
      <trkpt lat="43.22987" lon="5.5017">
        <ele>252.7</ele>
        <time>2025-10-18T07:29:42Z</time>
      </trkpt>
      <trkpt lat="43.22987" lon="5.5017">
        <ele>252.9</ele>
        <time>2025-10-18T07:29:43Z</time>
      </trkpt>
      <trkpt lat="43.22986" lon="5.50171">
        <ele>253</ele>
        <time>2025-10-18T07:29:44Z</time>
      </trkpt>
      <trkpt lat="43.22986" lon="5.50172">
        <ele>253.1</ele>
        <time>2025-10-18T07:29:45Z</time>
      </trkpt>
      <trkpt lat="43.22986" lon="5.50173">
        <ele>253.3</ele>
        <time>2025-10-18T07:29:46Z</time>
      </trkpt>
      <trkpt lat="43.22986" lon="5.50174">
        <ele>253.5</ele>
        <time>2025-10-18T07:29:47Z</time>
      </trkpt>
      <trkpt lat="43.22985" lon="5.50175">
        <ele>253.6</ele>
        <time>2025-10-18T07:29:48Z</time>
      </trkpt>
      <trkpt lat="43.22985" lon="5.50176">
        <ele>253.7</ele>
        <time>2025-10-18T07:29:49Z</time>
      </trkpt>
      <trkpt lat="43.22985" lon="5.50177">
        <ele>253.7</ele>
        <time>2025-10-18T07:29:50Z</time>
      </trkpt>
      <trkpt lat="43.22984" lon="5.50177">
        <ele>253.9</ele>
        <time>2025-10-18T07:29:51Z</time>
      </trkpt>
      <trkpt lat="43.22984" lon="5.50178">
        <ele>254.1</ele>
        <time>2025-10-18T07:29:52Z</time>
      </trkpt>
      <trkpt lat="43.22984" lon="5.50179">
        <ele>254.3</ele>
        <time>2025-10-18T07:29:53Z</time>
      </trkpt>
      <trkpt lat="43.22983" lon="5.50179">
        <ele>254.4</ele>
        <time>2025-10-18T07:29:54Z</time>
      </trkpt>
      <trkpt lat="43.22983" lon="5.5018">
        <ele>254.6</ele>
        <time>2025-10-18T07:29:55Z</time>
      </trkpt>
      <trkpt lat="43.22982" lon="5.50181">
        <ele>254.8</ele>
        <time>2025-10-18T07:29:56Z</time>
      </trkpt>
      <trkpt lat="43.22982" lon="5.50182">
        <ele>254.9</ele>
        <time>2025-10-18T07:29:57Z</time>
      </trkpt>
      <trkpt lat="43.22982" lon="5.50182">
        <ele>255.1</ele>
        <time>2025-10-18T07:29:58Z</time>
      </trkpt>
      <trkpt lat="43.22981" lon="5.50183">
        <ele>255.3</ele>
        <time>2025-10-18T07:29:59Z</time>
      </trkpt>
      <trkpt lat="43.22981" lon="5.50184">
        <ele>255.5</ele>
        <time>2025-10-18T07:30:00Z</time>
      </trkpt>
      <trkpt lat="43.22981" lon="5.50185">
        <ele>255.7</ele>
        <time>2025-10-18T07:30:01Z</time>
      </trkpt>
      <trkpt lat="43.2298" lon="5.50186">
        <ele>255.8</ele>
        <time>2025-10-18T07:30:02Z</time>
      </trkpt>
      <trkpt lat="43.2298" lon="5.50187">
        <ele>255.9</ele>
        <time>2025-10-18T07:30:03Z</time>
      </trkpt>
      <trkpt lat="43.2298" lon="5.50187">
        <ele>256</ele>
        <time>2025-10-18T07:30:04Z</time>
      </trkpt>
      <trkpt lat="43.2298" lon="5.50188">
        <ele>256.1</ele>
        <time>2025-10-18T07:30:05Z</time>
      </trkpt>
      <trkpt lat="43.2298" lon="5.50189">
        <ele>256.2</ele>
        <time>2025-10-18T07:30:06Z</time>
      </trkpt>
      <trkpt lat="43.2298" lon="5.5019">
        <ele>256.3</ele>
        <time>2025-10-18T07:30:07Z</time>
      </trkpt>
      <trkpt lat="43.22979" lon="5.50191">
        <ele>256.5</ele>
        <time>2025-10-18T07:30:08Z</time>
      </trkpt>
      <trkpt lat="43.22978" lon="5.50192">
        <ele>256.6</ele>
        <time>2025-10-18T07:30:09Z</time>
      </trkpt>
      <trkpt lat="43.22978" lon="5.50193">
        <ele>256.8</ele>
        <time>2025-10-18T07:30:10Z</time>
      </trkpt>
      <trkpt lat="43.22978" lon="5.50194">
        <ele>256.9</ele>
        <time>2025-10-18T07:30:11Z</time>
      </trkpt>
      <trkpt lat="43.22978" lon="5.50195">
        <ele>257.1</ele>
        <time>2025-10-18T07:30:12Z</time>
      </trkpt>
      <trkpt lat="43.22978" lon="5.50197">
        <ele>257.2</ele>
        <time>2025-10-18T07:30:13Z</time>
      </trkpt>
      <trkpt lat="43.22977" lon="5.50198">
        <ele>257.3</ele>
        <time>2025-10-18T07:30:14Z</time>
      </trkpt>
      <trkpt lat="43.22977" lon="5.50199">
        <ele>257.3</ele>
        <time>2025-10-18T07:30:15Z</time>
      </trkpt>
      <trkpt lat="43.22976" lon="5.502">
        <ele>257.5</ele>
        <time>2025-10-18T07:30:16Z</time>
      </trkpt>
      <trkpt lat="43.22976" lon="5.502">
        <ele>257.6</ele>
        <time>2025-10-18T07:30:17Z</time>
      </trkpt>
      <trkpt lat="43.22976" lon="5.50201">
        <ele>257.8</ele>
        <time>2025-10-18T07:30:18Z</time>
      </trkpt>
      <trkpt lat="43.22976" lon="5.50202">
        <ele>258</ele>
        <time>2025-10-18T07:30:19Z</time>
      </trkpt>
      <trkpt lat="43.22975" lon="5.50202">
        <ele>258.3</ele>
        <time>2025-10-18T07:30:20Z</time>
      </trkpt>
      <trkpt lat="43.22975" lon="5.50203">
        <ele>258.5</ele>
        <time>2025-10-18T07:30:21Z</time>
      </trkpt>
      <trkpt lat="43.22974" lon="5.50204">
        <ele>258.6</ele>
        <time>2025-10-18T07:30:22Z</time>
      </trkpt>
      <trkpt lat="43.22974" lon="5.50205">
        <ele>258.8</ele>
        <time>2025-10-18T07:30:23Z</time>
      </trkpt>
      <trkpt lat="43.22973" lon="5.50207">
        <ele>258.9</ele>
        <time>2025-10-18T07:30:24Z</time>
      </trkpt>
      <trkpt lat="43.22973" lon="5.50208">
        <ele>259.1</ele>
        <time>2025-10-18T07:30:25Z</time>
      </trkpt>
      <trkpt lat="43.22972" lon="5.50209">
        <ele>259.3</ele>
        <time>2025-10-18T07:30:26Z</time>
      </trkpt>
      <trkpt lat="43.22972" lon="5.50209">
        <ele>259.6</ele>
        <time>2025-10-18T07:30:27Z</time>
      </trkpt>
      <trkpt lat="43.22971" lon="5.50211">
        <ele>259.8</ele>
        <time>2025-10-18T07:30:28Z</time>
      </trkpt>
      <trkpt lat="43.22971" lon="5.50212">
        <ele>259.9</ele>
        <time>2025-10-18T07:30:29Z</time>
      </trkpt>
      <trkpt lat="43.2297" lon="5.50212">
        <ele>260</ele>
        <time>2025-10-18T07:30:30Z</time>
      </trkpt>
      <trkpt lat="43.2297" lon="5.50213">
        <ele>260.1</ele>
        <time>2025-10-18T07:30:31Z</time>
      </trkpt>
      <trkpt lat="43.2297" lon="5.50214">
        <ele>260.2</ele>
        <time>2025-10-18T07:30:32Z</time>
      </trkpt>
      <trkpt lat="43.2297" lon="5.50215">
        <ele>260.3</ele>
        <time>2025-10-18T07:30:33Z</time>
      </trkpt>
      <trkpt lat="43.2297" lon="5.50216">
        <ele>260.5</ele>
        <time>2025-10-18T07:30:34Z</time>
      </trkpt>
      <trkpt lat="43.2297" lon="5.50217">
        <ele>260.7</ele>
        <time>2025-10-18T07:30:35Z</time>
      </trkpt>
      <trkpt lat="43.2297" lon="5.50218">
        <ele>260.8</ele>
        <time>2025-10-18T07:30:36Z</time>
      </trkpt>
      <trkpt lat="43.22969" lon="5.50219">
        <ele>261</ele>
        <time>2025-10-18T07:30:37Z</time>
      </trkpt>
      <trkpt lat="43.22969" lon="5.50219">
        <ele>261.2</ele>
        <time>2025-10-18T07:30:38Z</time>
      </trkpt>
      <trkpt lat="43.22968" lon="5.5022">
        <ele>261.3</ele>
        <time>2025-10-18T07:30:39Z</time>
      </trkpt>
      <trkpt lat="43.22968" lon="5.50221">
        <ele>261.5</ele>
        <time>2025-10-18T07:30:40Z</time>
      </trkpt>
      <trkpt lat="43.22967" lon="5.50222">
        <ele>261.7</ele>
        <time>2025-10-18T07:30:41Z</time>
      </trkpt>
      <trkpt lat="43.22967" lon="5.50223">
        <ele>261.8</ele>
        <time>2025-10-18T07:30:42Z</time>
      </trkpt>
      <trkpt lat="43.22967" lon="5.50224">
        <ele>262.1</ele>
        <time>2025-10-18T07:30:43Z</time>
      </trkpt>
      <trkpt lat="43.22966" lon="5.50224">
        <ele>262.1</ele>
        <time>2025-10-18T07:30:44Z</time>
      </trkpt>
      <trkpt lat="43.22966" lon="5.50225">
        <ele>262.2</ele>
        <time>2025-10-18T07:30:45Z</time>
      </trkpt>
      <trkpt lat="43.22965" lon="5.50226">
        <ele>262.3</ele>
        <time>2025-10-18T07:30:46Z</time>
      </trkpt>
      <trkpt lat="43.22965" lon="5.50226">
        <ele>262.3</ele>
        <time>2025-10-18T07:30:47Z</time>
      </trkpt>
      <trkpt lat="43.22965" lon="5.50226">
        <ele>262.4</ele>
        <time>2025-10-18T07:30:48Z</time>
      </trkpt>
      <trkpt lat="43.22965" lon="5.50227">
        <ele>262.5</ele>
        <time>2025-10-18T07:30:49Z</time>
      </trkpt>
      <trkpt lat="43.22964" lon="5.50228">
        <ele>262.6</ele>
        <time>2025-10-18T07:30:50Z</time>
      </trkpt>
      <trkpt lat="43.22964" lon="5.50228">
        <ele>262.7</ele>
        <time>2025-10-18T07:30:51Z</time>
      </trkpt>
      <trkpt lat="43.22963" lon="5.50229">
        <ele>262.8</ele>
        <time>2025-10-18T07:30:52Z</time>
      </trkpt>
      <trkpt lat="43.22963" lon="5.5023">
        <ele>262.9</ele>
        <time>2025-10-18T07:30:53Z</time>
      </trkpt>
      <trkpt lat="43.22963" lon="5.5023">
        <ele>263</ele>
        <time>2025-10-18T07:30:54Z</time>
      </trkpt>
      <trkpt lat="43.22962" lon="5.50231">
        <ele>263</ele>
        <time>2025-10-18T07:30:55Z</time>
      </trkpt>
      <trkpt lat="43.22962" lon="5.50232">
        <ele>263.1</ele>
        <time>2025-10-18T07:30:56Z</time>
      </trkpt>
      <trkpt lat="43.22962" lon="5.50233">
        <ele>263.3</ele>
        <time>2025-10-18T07:30:57Z</time>
      </trkpt>
      <trkpt lat="43.22962" lon="5.50233">
        <ele>263.4</ele>
        <time>2025-10-18T07:30:58Z</time>
      </trkpt>
      <trkpt lat="43.22962" lon="5.50234">
        <ele>263.6</ele>
        <time>2025-10-18T07:30:59Z</time>
      </trkpt>
      <trkpt lat="43.22961" lon="5.50235">
        <ele>263.7</ele>
        <time>2025-10-18T07:31:00Z</time>
      </trkpt>
      <trkpt lat="43.22961" lon="5.50236">
        <ele>263.8</ele>
        <time>2025-10-18T07:31:01Z</time>
      </trkpt>
      <trkpt lat="43.22961" lon="5.50237">
        <ele>263.8</ele>
        <time>2025-10-18T07:31:02Z</time>
      </trkpt>
      <trkpt lat="43.22961" lon="5.50237">
        <ele>263.9</ele>
        <time>2025-10-18T07:31:03Z</time>
      </trkpt>
      <trkpt lat="43.2296" lon="5.50238">
        <ele>264</ele>
        <time>2025-10-18T07:31:04Z</time>
      </trkpt>
      <trkpt lat="43.2296" lon="5.50239">
        <ele>264.1</ele>
        <time>2025-10-18T07:31:05Z</time>
      </trkpt>
      <trkpt lat="43.2296" lon="5.50239">
        <ele>264.1</ele>
        <time>2025-10-18T07:31:06Z</time>
      </trkpt>
      <trkpt lat="43.2296" lon="5.50239">
        <ele>264.4</ele>
        <time>2025-10-18T07:31:07Z</time>
      </trkpt>
      <trkpt lat="43.2296" lon="5.50239">
        <ele>264.4</ele>
        <time>2025-10-18T07:31:08Z</time>
      </trkpt>
      <trkpt lat="43.2296" lon="5.50239">
        <ele>264.3</ele>
        <time>2025-10-18T07:31:09Z</time>
      </trkpt>
      <trkpt lat="43.2296" lon="5.50238">
        <ele>264.4</ele>
        <time>2025-10-18T07:31:10Z</time>
      </trkpt>
      <trkpt lat="43.2296" lon="5.50238">
        <ele>264.5</ele>
        <time>2025-10-18T07:31:11Z</time>
      </trkpt>
      <trkpt lat="43.2296" lon="5.50238">
        <ele>264.6</ele>
        <time>2025-10-18T07:31:12Z</time>
      </trkpt>
      <trkpt lat="43.2296" lon="5.50238">
        <ele>264.7</ele>
        <time>2025-10-18T07:31:13Z</time>
      </trkpt>
      <trkpt lat="43.2296" lon="5.50238">
        <ele>264.8</ele>
        <time>2025-10-18T07:31:14Z</time>
      </trkpt>
      <trkpt lat="43.2296" lon="5.50238">
        <ele>264.8</ele>
        <time>2025-10-18T07:31:15Z</time>
      </trkpt>
      <trkpt lat="43.22959" lon="5.50239">
        <ele>264.8</ele>
        <time>2025-10-18T07:31:16Z</time>
      </trkpt>
      <trkpt lat="43.22959" lon="5.50239">
        <ele>264.8</ele>
        <time>2025-10-18T07:31:17Z</time>
      </trkpt>
      <trkpt lat="43.22958" lon="5.50239">
        <ele>264.8</ele>
        <time>2025-10-18T07:31:18Z</time>
      </trkpt>
      <trkpt lat="43.22958" lon="5.50239">
        <ele>264.8</ele>
        <time>2025-10-18T07:31:19Z</time>
      </trkpt>
      <trkpt lat="43.22958" lon="5.5024">
        <ele>264.8</ele>
        <time>2025-10-18T07:31:20Z</time>
      </trkpt>
      <trkpt lat="43.22958" lon="5.5024">
        <ele>264.8</ele>
        <time>2025-10-18T07:31:21Z</time>
      </trkpt>
      <trkpt lat="43.22957" lon="5.5024">
        <ele>264.8</ele>
        <time>2025-10-18T07:31:22Z</time>
      </trkpt>
      <trkpt lat="43.22957" lon="5.5024">
        <ele>264.8</ele>
        <time>2025-10-18T07:31:23Z</time>
      </trkpt>
      <trkpt lat="43.22957" lon="5.5024">
        <ele>264.8</ele>
        <time>2025-10-18T07:31:24Z</time>
      </trkpt>
      <trkpt lat="43.22957" lon="5.5024">
        <ele>264.8</ele>
        <time>2025-10-18T07:31:25Z</time>
      </trkpt>
      <trkpt lat="43.22956" lon="5.5024">
        <ele>264.8</ele>
        <time>2025-10-18T07:31:26Z</time>
      </trkpt>
      <trkpt lat="43.22956" lon="5.5024">
        <ele>264.8</ele>
        <time>2025-10-18T07:31:27Z</time>
      </trkpt>
      <trkpt lat="43.22956" lon="5.50241">
        <ele>264.8</ele>
        <time>2025-10-18T07:31:28Z</time>
      </trkpt>
      <trkpt lat="43.22956" lon="5.50241">
        <ele>264.7</ele>
        <time>2025-10-18T07:31:29Z</time>
      </trkpt>
      <trkpt lat="43.22956" lon="5.50241">
        <ele>264.8</ele>
        <time>2025-10-18T07:31:30Z</time>
      </trkpt>
      <trkpt lat="43.22956" lon="5.50241">
        <ele>264.8</ele>
        <time>2025-10-18T07:31:31Z</time>
      </trkpt>
      <trkpt lat="43.22956" lon="5.50241">
        <ele>264.9</ele>
        <time>2025-10-18T07:31:32Z</time>
      </trkpt>
      <trkpt lat="43.22956" lon="5.50241">
        <ele>264.9</ele>
        <time>2025-10-18T07:31:33Z</time>
      </trkpt>
      <trkpt lat="43.22956" lon="5.50241">
        <ele>264.9</ele>
        <time>2025-10-18T07:31:34Z</time>
      </trkpt>
      <trkpt lat="43.22956" lon="5.50241">
        <ele>264.9</ele>
        <time>2025-10-18T07:31:35Z</time>
      </trkpt>
      <trkpt lat="43.22956" lon="5.50241">
        <ele>264.8</ele>
        <time>2025-10-18T07:31:36Z</time>
      </trkpt>
      <trkpt lat="43.22956" lon="5.50241">
        <ele>264.8</ele>
        <time>2025-10-18T07:31:37Z</time>
      </trkpt>
      <trkpt lat="43.22956" lon="5.50241">
        <ele>264.8</ele>
        <time>2025-10-18T07:31:38Z</time>
      </trkpt>
      <trkpt lat="43.22956" lon="5.50241">
        <ele>264.7</ele>
        <time>2025-10-18T07:31:39Z</time>
      </trkpt>
      <trkpt lat="43.22956" lon="5.50242">
        <ele>264.7</ele>
        <time>2025-10-18T07:31:40Z</time>
      </trkpt>
      <trkpt lat="43.22955" lon="5.50242">
        <ele>264.7</ele>
        <time>2025-10-18T07:31:41Z</time>
      </trkpt>
      <trkpt lat="43.22955" lon="5.50242">
        <ele>264.6</ele>
        <time>2025-10-18T07:31:42Z</time>
      </trkpt>
      <trkpt lat="43.22955" lon="5.50242">
        <ele>264.6</ele>
        <time>2025-10-18T07:31:43Z</time>
      </trkpt>
      <trkpt lat="43.22955" lon="5.50242">
        <ele>264.6</ele>
        <time>2025-10-18T07:31:44Z</time>
      </trkpt>
      <trkpt lat="43.22955" lon="5.50242">
        <ele>264.6</ele>
        <time>2025-10-18T07:31:45Z</time>
      </trkpt>
      <trkpt lat="43.22955" lon="5.50242">
        <ele>264.6</ele>
        <time>2025-10-18T07:31:46Z</time>
      </trkpt>
      <trkpt lat="43.22955" lon="5.50242">
        <ele>264.6</ele>
        <time>2025-10-18T07:31:47Z</time>
      </trkpt>
      <trkpt lat="43.22955" lon="5.50242">
        <ele>264.5</ele>
        <time>2025-10-18T07:31:48Z</time>
      </trkpt>
      <trkpt lat="43.22955" lon="5.50242">
        <ele>264.5</ele>
        <time>2025-10-18T07:31:49Z</time>
      </trkpt>
      <trkpt lat="43.22955" lon="5.50242">
        <ele>264.7</ele>
        <time>2025-10-18T07:31:50Z</time>
      </trkpt>
      <trkpt lat="43.22955" lon="5.50242">
        <ele>264.7</ele>
        <time>2025-10-18T07:31:51Z</time>
      </trkpt>
      <trkpt lat="43.22955" lon="5.50242">
        <ele>264.7</ele>
        <time>2025-10-18T07:31:52Z</time>
      </trkpt>
      <trkpt lat="43.22955" lon="5.50242">
        <ele>264.7</ele>
        <time>2025-10-18T07:31:53Z</time>
      </trkpt>
      <trkpt lat="43.22955" lon="5.50242">
        <ele>264.7</ele>
        <time>2025-10-18T07:31:54Z</time>
      </trkpt>
      <trkpt lat="43.22955" lon="5.50242">
        <ele>264.8</ele>
        <time>2025-10-18T07:31:55Z</time>
      </trkpt>
      <trkpt lat="43.22956" lon="5.50242">
        <ele>264.7</ele>
        <time>2025-10-18T07:31:56Z</time>
      </trkpt>
      <trkpt lat="43.22956" lon="5.50242">
        <ele>264.7</ele>
        <time>2025-10-18T07:31:57Z</time>
      </trkpt>
      <trkpt lat="43.22956" lon="5.50242">
        <ele>264.7</ele>
        <time>2025-10-18T07:31:58Z</time>
      </trkpt>
      <trkpt lat="43.22956" lon="5.50241">
        <ele>264.7</ele>
        <time>2025-10-18T07:31:59Z</time>
      </trkpt>
      <trkpt lat="43.22956" lon="5.50241">
        <ele>264.8</ele>
        <time>2025-10-18T07:32:00Z</time>
      </trkpt>
      <trkpt lat="43.22956" lon="5.50241">
        <ele>264.8</ele>
        <time>2025-10-18T07:32:01Z</time>
      </trkpt>
      <trkpt lat="43.22956" lon="5.50241">
        <ele>264.9</ele>
        <time>2025-10-18T07:32:02Z</time>
      </trkpt>
      <trkpt lat="43.22956" lon="5.50241">
        <ele>264.9</ele>
        <time>2025-10-18T07:32:03Z</time>
      </trkpt>
      <trkpt lat="43.22956" lon="5.50241">
        <ele>265</ele>
        <time>2025-10-18T07:32:04Z</time>
      </trkpt>
      <trkpt lat="43.22956" lon="5.50241">
        <ele>265.1</ele>
        <time>2025-10-18T07:32:05Z</time>
      </trkpt>
      <trkpt lat="43.22956" lon="5.50241">
        <ele>265.1</ele>
        <time>2025-10-18T07:32:06Z</time>
      </trkpt>
      <trkpt lat="43.22956" lon="5.50241">
        <ele>265.1</ele>
        <time>2025-10-18T07:32:07Z</time>
      </trkpt>
      <trkpt lat="43.22956" lon="5.50241">
        <ele>265</ele>
        <time>2025-10-18T07:32:08Z</time>
      </trkpt>
      <trkpt lat="43.22957" lon="5.50241">
        <ele>265.1</ele>
        <time>2025-10-18T07:32:09Z</time>
      </trkpt>
      <trkpt lat="43.22957" lon="5.50241">
        <ele>265.1</ele>
        <time>2025-10-18T07:32:10Z</time>
      </trkpt>
      <trkpt lat="43.22957" lon="5.50241">
        <ele>265.2</ele>
        <time>2025-10-18T07:32:11Z</time>
      </trkpt>
      <trkpt lat="43.22957" lon="5.50241">
        <ele>265.2</ele>
        <time>2025-10-18T07:32:12Z</time>
      </trkpt>
      <trkpt lat="43.22957" lon="5.50242">
        <ele>265.2</ele>
        <time>2025-10-18T07:32:13Z</time>
      </trkpt>
      <trkpt lat="43.22957" lon="5.50241">
        <ele>265.2</ele>
        <time>2025-10-18T07:32:14Z</time>
      </trkpt>
      <trkpt lat="43.22957" lon="5.50242">
        <ele>265.2</ele>
        <time>2025-10-18T07:32:15Z</time>
      </trkpt>
      <trkpt lat="43.22957" lon="5.50242">
        <ele>265.2</ele>
        <time>2025-10-18T07:32:16Z</time>
      </trkpt>
      <trkpt lat="43.22957" lon="5.50241">
        <ele>265.1</ele>
        <time>2025-10-18T07:32:17Z</time>
      </trkpt>
      <trkpt lat="43.22957" lon="5.50241">
        <ele>265.1</ele>
        <time>2025-10-18T07:32:18Z</time>
      </trkpt>
      <trkpt lat="43.22957" lon="5.50241">
        <ele>265.1</ele>
        <time>2025-10-18T07:32:19Z</time>
      </trkpt>
      <trkpt lat="43.22957" lon="5.50241">
        <ele>265.1</ele>
        <time>2025-10-18T07:32:20Z</time>
      </trkpt>
      <trkpt lat="43.22957" lon="5.50241">
        <ele>265.1</ele>
        <time>2025-10-18T07:32:21Z</time>
      </trkpt>
      <trkpt lat="43.22957" lon="5.50242">
        <ele>265</ele>
        <time>2025-10-18T07:32:22Z</time>
      </trkpt>
      <trkpt lat="43.22957" lon="5.50243">
        <ele>265.1</ele>
        <time>2025-10-18T07:32:23Z</time>
      </trkpt>
      <trkpt lat="43.22956" lon="5.50243">
        <ele>265.2</ele>
        <time>2025-10-18T07:32:24Z</time>
      </trkpt>
      <trkpt lat="43.22956" lon="5.50244">
        <ele>265.2</ele>
        <time>2025-10-18T07:32:25Z</time>
      </trkpt>
      <trkpt lat="43.22956" lon="5.50244">
        <ele>265.2</ele>
        <time>2025-10-18T07:32:26Z</time>
      </trkpt>
      <trkpt lat="43.22956" lon="5.50245">
        <ele>265.3</ele>
        <time>2025-10-18T07:32:27Z</time>
      </trkpt>
      <trkpt lat="43.22955" lon="5.50245">
        <ele>265.3</ele>
        <time>2025-10-18T07:32:28Z</time>
      </trkpt>
      <trkpt lat="43.22955" lon="5.50245">
        <ele>265.3</ele>
        <time>2025-10-18T07:32:29Z</time>
      </trkpt>
      <trkpt lat="43.22955" lon="5.50246">
        <ele>265.3</ele>
        <time>2025-10-18T07:32:30Z</time>
      </trkpt>
      <trkpt lat="43.22955" lon="5.50247">
        <ele>265.3</ele>
        <time>2025-10-18T07:32:31Z</time>
      </trkpt>
      <trkpt lat="43.22955" lon="5.50247">
        <ele>265.3</ele>
        <time>2025-10-18T07:32:32Z</time>
      </trkpt>
      <trkpt lat="43.22955" lon="5.50248">
        <ele>265.4</ele>
        <time>2025-10-18T07:32:33Z</time>
      </trkpt>
      <trkpt lat="43.22954" lon="5.50249">
        <ele>265.5</ele>
        <time>2025-10-18T07:32:34Z</time>
      </trkpt>
      <trkpt lat="43.22954" lon="5.50249">
        <ele>265.5</ele>
        <time>2025-10-18T07:32:35Z</time>
      </trkpt>
      <trkpt lat="43.22954" lon="5.5025">
        <ele>265.5</ele>
        <time>2025-10-18T07:32:36Z</time>
      </trkpt>
      <trkpt lat="43.22954" lon="5.50251">
        <ele>265.7</ele>
        <time>2025-10-18T07:32:37Z</time>
      </trkpt>
      <trkpt lat="43.22954" lon="5.50251">
        <ele>265.7</ele>
        <time>2025-10-18T07:32:38Z</time>
      </trkpt>
      <trkpt lat="43.22953" lon="5.50251">
        <ele>265.7</ele>
        <time>2025-10-18T07:32:39Z</time>
      </trkpt>
      <trkpt lat="43.22953" lon="5.50251">
        <ele>265.8</ele>
        <time>2025-10-18T07:32:40Z</time>
      </trkpt>
      <trkpt lat="43.22953" lon="5.50252">
        <ele>265.9</ele>
        <time>2025-10-18T07:32:41Z</time>
      </trkpt>
      <trkpt lat="43.22953" lon="5.50253">
        <ele>266</ele>
        <time>2025-10-18T07:32:42Z</time>
      </trkpt>
      <trkpt lat="43.22952" lon="5.50253">
        <ele>266</ele>
        <time>2025-10-18T07:32:43Z</time>
      </trkpt>
      <trkpt lat="43.22951" lon="5.50254">
        <ele>266.1</ele>
        <time>2025-10-18T07:32:44Z</time>
      </trkpt>
      <trkpt lat="43.22951" lon="5.50255">
        <ele>266.2</ele>
        <time>2025-10-18T07:32:45Z</time>
      </trkpt>
      <trkpt lat="43.2295" lon="5.50255">
        <ele>266.3</ele>
        <time>2025-10-18T07:32:46Z</time>
      </trkpt>
      <trkpt lat="43.2295" lon="5.50255">
        <ele>266.4</ele>
        <time>2025-10-18T07:32:47Z</time>
      </trkpt>
      <trkpt lat="43.2295" lon="5.50255">
        <ele>266.5</ele>
        <time>2025-10-18T07:32:48Z</time>
      </trkpt>
      <trkpt lat="43.22949" lon="5.50255">
        <ele>266.5</ele>
        <time>2025-10-18T07:32:49Z</time>
      </trkpt>
      <trkpt lat="43.22949" lon="5.50255">
        <ele>266.7</ele>
        <time>2025-10-18T07:32:50Z</time>
      </trkpt>
      <trkpt lat="43.22949" lon="5.50256">
        <ele>266.8</ele>
        <time>2025-10-18T07:32:51Z</time>
      </trkpt>
      <trkpt lat="43.22948" lon="5.50256">
        <ele>266.8</ele>
        <time>2025-10-18T07:32:52Z</time>
      </trkpt>
      <trkpt lat="43.22947" lon="5.50257">
        <ele>267</ele>
        <time>2025-10-18T07:32:53Z</time>
      </trkpt>
      <trkpt lat="43.22947" lon="5.50258">
        <ele>267.2</ele>
        <time>2025-10-18T07:32:54Z</time>
      </trkpt>
      <trkpt lat="43.22946" lon="5.50259">
        <ele>267.3</ele>
        <time>2025-10-18T07:32:55Z</time>
      </trkpt>
      <trkpt lat="43.22946" lon="5.50259">
        <ele>267.3</ele>
        <time>2025-10-18T07:32:56Z</time>
      </trkpt>
      <trkpt lat="43.22945" lon="5.5026">
        <ele>267.4</ele>
        <time>2025-10-18T07:32:57Z</time>
      </trkpt>
      <trkpt lat="43.22945" lon="5.50261">
        <ele>267.5</ele>
        <time>2025-10-18T07:32:58Z</time>
      </trkpt>
      <trkpt lat="43.22944" lon="5.50262">
        <ele>267.6</ele>
        <time>2025-10-18T07:32:59Z</time>
      </trkpt>
      <trkpt lat="43.22944" lon="5.50262">
        <ele>267.8</ele>
        <time>2025-10-18T07:33:00Z</time>
      </trkpt>
      <trkpt lat="43.22944" lon="5.50263">
        <ele>267.9</ele>
        <time>2025-10-18T07:33:01Z</time>
      </trkpt>
      <trkpt lat="43.22944" lon="5.50263">
        <ele>268</ele>
        <time>2025-10-18T07:33:02Z</time>
      </trkpt>
      <trkpt lat="43.22944" lon="5.50263">
        <ele>268.1</ele>
        <time>2025-10-18T07:33:03Z</time>
      </trkpt>
      <trkpt lat="43.22944" lon="5.50263">
        <ele>268.1</ele>
        <time>2025-10-18T07:33:04Z</time>
      </trkpt>
      <trkpt lat="43.22943" lon="5.50263">
        <ele>268.1</ele>
        <time>2025-10-18T07:33:05Z</time>
      </trkpt>
      <trkpt lat="43.22943" lon="5.50263">
        <ele>268.1</ele>
        <time>2025-10-18T07:33:06Z</time>
      </trkpt>
      <trkpt lat="43.22943" lon="5.50264">
        <ele>268.2</ele>
        <time>2025-10-18T07:33:07Z</time>
      </trkpt>
      <trkpt lat="43.22942" lon="5.50264">
        <ele>268.2</ele>
        <time>2025-10-18T07:33:08Z</time>
      </trkpt>
      <trkpt lat="43.22942" lon="5.50265">
        <ele>268.3</ele>
        <time>2025-10-18T07:33:09Z</time>
      </trkpt>
      <trkpt lat="43.22941" lon="5.50266">
        <ele>268.3</ele>
        <time>2025-10-18T07:33:10Z</time>
      </trkpt>
      <trkpt lat="43.2294" lon="5.50267">
        <ele>268.4</ele>
        <time>2025-10-18T07:33:11Z</time>
      </trkpt>
      <trkpt lat="43.2294" lon="5.50268">
        <ele>268.5</ele>
        <time>2025-10-18T07:33:12Z</time>
      </trkpt>
      <trkpt lat="43.22939" lon="5.50269">
        <ele>268.6</ele>
        <time>2025-10-18T07:33:13Z</time>
      </trkpt>
      <trkpt lat="43.22939" lon="5.5027">
        <ele>268.6</ele>
        <time>2025-10-18T07:33:14Z</time>
      </trkpt>
      <trkpt lat="43.22939" lon="5.50271">
        <ele>268.7</ele>
        <time>2025-10-18T07:33:15Z</time>
      </trkpt>
      <trkpt lat="43.22939" lon="5.50272">
        <ele>268.7</ele>
        <time>2025-10-18T07:33:16Z</time>
      </trkpt>
      <trkpt lat="43.22938" lon="5.50273">
        <ele>268.8</ele>
        <time>2025-10-18T07:33:17Z</time>
      </trkpt>
      <trkpt lat="43.22937" lon="5.50273">
        <ele>268.9</ele>
        <time>2025-10-18T07:33:18Z</time>
      </trkpt>
      <trkpt lat="43.22937" lon="5.50274">
        <ele>269</ele>
        <time>2025-10-18T07:33:19Z</time>
      </trkpt>
      <trkpt lat="43.22937" lon="5.50275">
        <ele>269</ele>
        <time>2025-10-18T07:33:20Z</time>
      </trkpt>
      <trkpt lat="43.22936" lon="5.50276">
        <ele>269.2</ele>
        <time>2025-10-18T07:33:21Z</time>
      </trkpt>
      <trkpt lat="43.22935" lon="5.50277">
        <ele>269.3</ele>
        <time>2025-10-18T07:33:22Z</time>
      </trkpt>
      <trkpt lat="43.22935" lon="5.50278">
        <ele>269.4</ele>
        <time>2025-10-18T07:33:23Z</time>
      </trkpt>
      <trkpt lat="43.22934" lon="5.5028">
        <ele>269.6</ele>
        <time>2025-10-18T07:33:24Z</time>
      </trkpt>
      <trkpt lat="43.22934" lon="5.50281">
        <ele>269.7</ele>
        <time>2025-10-18T07:33:25Z</time>
      </trkpt>
      <trkpt lat="43.22933" lon="5.50281">
        <ele>269.9</ele>
        <time>2025-10-18T07:33:26Z</time>
      </trkpt>
      <trkpt lat="43.22933" lon="5.50282">
        <ele>270.1</ele>
        <time>2025-10-18T07:33:27Z</time>
      </trkpt>
      <trkpt lat="43.22932" lon="5.50282">
        <ele>270.2</ele>
        <time>2025-10-18T07:33:28Z</time>
      </trkpt>
      <trkpt lat="43.22931" lon="5.50283">
        <ele>270.4</ele>
        <time>2025-10-18T07:33:29Z</time>
      </trkpt>
      <trkpt lat="43.22931" lon="5.50283">
        <ele>270.5</ele>
        <time>2025-10-18T07:33:30Z</time>
      </trkpt>
      <trkpt lat="43.2293" lon="5.50284">
        <ele>270.6</ele>
        <time>2025-10-18T07:33:31Z</time>
      </trkpt>
      <trkpt lat="43.22929" lon="5.50285">
        <ele>270.7</ele>
        <time>2025-10-18T07:33:32Z</time>
      </trkpt>
      <trkpt lat="43.22929" lon="5.50286">
        <ele>270.7</ele>
        <time>2025-10-18T07:33:33Z</time>
      </trkpt>
      <trkpt lat="43.22929" lon="5.50286">
        <ele>270.8</ele>
        <time>2025-10-18T07:33:34Z</time>
      </trkpt>
      <trkpt lat="43.22928" lon="5.50287">
        <ele>271</ele>
        <time>2025-10-18T07:33:35Z</time>
      </trkpt>
      <trkpt lat="43.22928" lon="5.50288">
        <ele>271.1</ele>
        <time>2025-10-18T07:33:36Z</time>
      </trkpt>
      <trkpt lat="43.22927" lon="5.50289">
        <ele>271.2</ele>
        <time>2025-10-18T07:33:37Z</time>
      </trkpt>
      <trkpt lat="43.22927" lon="5.5029">
        <ele>271.3</ele>
        <time>2025-10-18T07:33:38Z</time>
      </trkpt>
      <trkpt lat="43.22926" lon="5.50291">
        <ele>271.3</ele>
        <time>2025-10-18T07:33:39Z</time>
      </trkpt>
      <trkpt lat="43.22925" lon="5.50292">
        <ele>271.5</ele>
        <time>2025-10-18T07:33:40Z</time>
      </trkpt>
      <trkpt lat="43.22925" lon="5.50292">
        <ele>271.7</ele>
        <time>2025-10-18T07:33:41Z</time>
      </trkpt>
      <trkpt lat="43.22924" lon="5.50293">
        <ele>271.8</ele>
        <time>2025-10-18T07:33:42Z</time>
      </trkpt>
      <trkpt lat="43.22923" lon="5.50294">
        <ele>272</ele>
        <time>2025-10-18T07:33:43Z</time>
      </trkpt>
      <trkpt lat="43.22923" lon="5.50295">
        <ele>272.2</ele>
        <time>2025-10-18T07:33:44Z</time>
      </trkpt>
      <trkpt lat="43.22922" lon="5.50296">
        <ele>272.2</ele>
        <time>2025-10-18T07:33:45Z</time>
      </trkpt>
      <trkpt lat="43.22922" lon="5.50297">
        <ele>272.4</ele>
        <time>2025-10-18T07:33:46Z</time>
      </trkpt>
      <trkpt lat="43.22921" lon="5.50298">
        <ele>272.5</ele>
        <time>2025-10-18T07:33:47Z</time>
      </trkpt>
      <trkpt lat="43.2292" lon="5.50299">
        <ele>272.6</ele>
        <time>2025-10-18T07:33:48Z</time>
      </trkpt>
      <trkpt lat="43.22919" lon="5.503">
        <ele>272.8</ele>
        <time>2025-10-18T07:33:49Z</time>
      </trkpt>
      <trkpt lat="43.22918" lon="5.503">
        <ele>272.9</ele>
        <time>2025-10-18T07:33:50Z</time>
      </trkpt>
      <trkpt lat="43.22917" lon="5.50301">
        <ele>273</ele>
        <time>2025-10-18T07:33:51Z</time>
      </trkpt>
      <trkpt lat="43.22917" lon="5.50302">
        <ele>273.1</ele>
        <time>2025-10-18T07:33:52Z</time>
      </trkpt>
      <trkpt lat="43.22916" lon="5.50303">
        <ele>273.2</ele>
        <time>2025-10-18T07:33:53Z</time>
      </trkpt>
      <trkpt lat="43.22916" lon="5.50303">
        <ele>273.2</ele>
        <time>2025-10-18T07:33:54Z</time>
      </trkpt>
      <trkpt lat="43.22915" lon="5.50303">
        <ele>273.3</ele>
        <time>2025-10-18T07:33:55Z</time>
      </trkpt>
      <trkpt lat="43.22914" lon="5.50304">
        <ele>273.3</ele>
        <time>2025-10-18T07:33:56Z</time>
      </trkpt>
      <trkpt lat="43.22913" lon="5.50305">
        <ele>273.4</ele>
        <time>2025-10-18T07:33:57Z</time>
      </trkpt>
      <trkpt lat="43.22913" lon="5.50306">
        <ele>273.5</ele>
        <time>2025-10-18T07:33:58Z</time>
      </trkpt>
      <trkpt lat="43.22912" lon="5.50307">
        <ele>273.5</ele>
        <time>2025-10-18T07:33:59Z</time>
      </trkpt>
      <trkpt lat="43.22912" lon="5.50308">
        <ele>273.6</ele>
        <time>2025-10-18T07:34:00Z</time>
      </trkpt>
      <trkpt lat="43.22911" lon="5.50309">
        <ele>273.6</ele>
        <time>2025-10-18T07:34:01Z</time>
      </trkpt>
      <trkpt lat="43.2291" lon="5.5031">
        <ele>273.7</ele>
        <time>2025-10-18T07:34:02Z</time>
      </trkpt>
      <trkpt lat="43.2291" lon="5.50311">
        <ele>273.9</ele>
        <time>2025-10-18T07:34:03Z</time>
      </trkpt>
      <trkpt lat="43.22909" lon="5.50311">
        <ele>274</ele>
        <time>2025-10-18T07:34:04Z</time>
      </trkpt>
      <trkpt lat="43.22908" lon="5.50312">
        <ele>274</ele>
        <time>2025-10-18T07:34:05Z</time>
      </trkpt>
      <trkpt lat="43.22907" lon="5.50313">
        <ele>274.3</ele>
        <time>2025-10-18T07:34:06Z</time>
      </trkpt>
      <trkpt lat="43.22907" lon="5.50314">
        <ele>274.5</ele>
        <time>2025-10-18T07:34:07Z</time>
      </trkpt>
      <trkpt lat="43.22906" lon="5.50315">
        <ele>274.7</ele>
        <time>2025-10-18T07:34:08Z</time>
      </trkpt>
      <trkpt lat="43.22905" lon="5.50316">
        <ele>274.7</ele>
        <time>2025-10-18T07:34:09Z</time>
      </trkpt>
      <trkpt lat="43.22905" lon="5.50318">
        <ele>274.7</ele>
        <time>2025-10-18T07:34:10Z</time>
      </trkpt>
      <trkpt lat="43.22904" lon="5.50319">
        <ele>274.8</ele>
        <time>2025-10-18T07:34:11Z</time>
      </trkpt>
      <trkpt lat="43.22904" lon="5.5032">
        <ele>274.9</ele>
        <time>2025-10-18T07:34:12Z</time>
      </trkpt>
      <trkpt lat="43.22904" lon="5.50321">
        <ele>275</ele>
        <time>2025-10-18T07:34:13Z</time>
      </trkpt>
      <trkpt lat="43.22904" lon="5.50323">
        <ele>275</ele>
        <time>2025-10-18T07:34:14Z</time>
      </trkpt>
      <trkpt lat="43.22903" lon="5.50324">
        <ele>275</ele>
        <time>2025-10-18T07:34:15Z</time>
      </trkpt>
      <trkpt lat="43.22903" lon="5.50325">
        <ele>275</ele>
        <time>2025-10-18T07:34:16Z</time>
      </trkpt>
      <trkpt lat="43.22901" lon="5.50325">
        <ele>275</ele>
        <time>2025-10-18T07:34:17Z</time>
      </trkpt>
      <trkpt lat="43.229" lon="5.50326">
        <ele>275.2</ele>
        <time>2025-10-18T07:34:18Z</time>
      </trkpt>
      <trkpt lat="43.229" lon="5.50327">
        <ele>275.3</ele>
        <time>2025-10-18T07:34:19Z</time>
      </trkpt>
      <trkpt lat="43.22899" lon="5.50328">
        <ele>275.5</ele>
        <time>2025-10-18T07:34:20Z</time>
      </trkpt>
      <trkpt lat="43.22898" lon="5.50329">
        <ele>275.6</ele>
        <time>2025-10-18T07:34:21Z</time>
      </trkpt>
      <trkpt lat="43.22898" lon="5.50329">
        <ele>275.7</ele>
        <time>2025-10-18T07:34:22Z</time>
      </trkpt>
      <trkpt lat="43.22897" lon="5.5033">
        <ele>275.9</ele>
        <time>2025-10-18T07:34:23Z</time>
      </trkpt>
      <trkpt lat="43.22896" lon="5.50331">
        <ele>276</ele>
        <time>2025-10-18T07:34:24Z</time>
      </trkpt>
      <trkpt lat="43.22896" lon="5.50332">
        <ele>276.2</ele>
        <time>2025-10-18T07:34:25Z</time>
      </trkpt>
      <trkpt lat="43.22895" lon="5.50334">
        <ele>276.3</ele>
        <time>2025-10-18T07:34:26Z</time>
      </trkpt>
      <trkpt lat="43.22894" lon="5.50334">
        <ele>276.5</ele>
        <time>2025-10-18T07:34:27Z</time>
      </trkpt>
      <trkpt lat="43.22894" lon="5.50335">
        <ele>276.6</ele>
        <time>2025-10-18T07:34:28Z</time>
      </trkpt>
      <trkpt lat="43.22893" lon="5.50336">
        <ele>276.7</ele>
        <time>2025-10-18T07:34:29Z</time>
      </trkpt>
      <trkpt lat="43.22892" lon="5.50337">
        <ele>276.9</ele>
        <time>2025-10-18T07:34:30Z</time>
      </trkpt>
      <trkpt lat="43.22891" lon="5.50339">
        <ele>277</ele>
        <time>2025-10-18T07:34:31Z</time>
      </trkpt>
      <trkpt lat="43.22891" lon="5.5034">
        <ele>277.1</ele>
        <time>2025-10-18T07:34:32Z</time>
      </trkpt>
      <trkpt lat="43.2289" lon="5.50341">
        <ele>277.3</ele>
        <time>2025-10-18T07:34:33Z</time>
      </trkpt>
      <trkpt lat="43.22889" lon="5.50341">
        <ele>277.4</ele>
        <time>2025-10-18T07:34:34Z</time>
      </trkpt>
      <trkpt lat="43.22888" lon="5.50343">
        <ele>277.5</ele>
        <time>2025-10-18T07:34:35Z</time>
      </trkpt>
      <trkpt lat="43.22887" lon="5.50343">
        <ele>277.6</ele>
        <time>2025-10-18T07:34:36Z</time>
      </trkpt>
      <trkpt lat="43.22886" lon="5.50344">
        <ele>277.7</ele>
        <time>2025-10-18T07:34:37Z</time>
      </trkpt>
      <trkpt lat="43.22885" lon="5.50345">
        <ele>277.8</ele>
        <time>2025-10-18T07:34:38Z</time>
      </trkpt>
      <trkpt lat="43.22884" lon="5.50346">
        <ele>278</ele>
        <time>2025-10-18T07:34:39Z</time>
      </trkpt>
      <trkpt lat="43.22884" lon="5.50346">
        <ele>278.1</ele>
        <time>2025-10-18T07:34:40Z</time>
      </trkpt>
      <trkpt lat="43.22883" lon="5.50347">
        <ele>278.3</ele>
        <time>2025-10-18T07:34:41Z</time>
      </trkpt>
      <trkpt lat="43.22882" lon="5.50347">
        <ele>278.4</ele>
        <time>2025-10-18T07:34:42Z</time>
      </trkpt>
      <trkpt lat="43.22882" lon="5.50347">
        <ele>278.5</ele>
        <time>2025-10-18T07:34:43Z</time>
      </trkpt>
      <trkpt lat="43.22882" lon="5.50347">
        <ele>278.6</ele>
        <time>2025-10-18T07:34:44Z</time>
      </trkpt>
      <trkpt lat="43.22882" lon="5.50347">
        <ele>278.6</ele>
        <time>2025-10-18T07:34:45Z</time>
      </trkpt>
      <trkpt lat="43.22882" lon="5.50348">
        <ele>278.7</ele>
        <time>2025-10-18T07:34:46Z</time>
      </trkpt>
      <trkpt lat="43.22882" lon="5.50347">
        <ele>278.8</ele>
        <time>2025-10-18T07:34:47Z</time>
      </trkpt>
      <trkpt lat="43.22882" lon="5.50347">
        <ele>278.8</ele>
        <time>2025-10-18T07:34:48Z</time>
      </trkpt>
      <trkpt lat="43.22882" lon="5.50347">
        <ele>278.9</ele>
        <time>2025-10-18T07:34:49Z</time>
      </trkpt>
      <trkpt lat="43.22881" lon="5.50347">
        <ele>278.9</ele>
        <time>2025-10-18T07:34:50Z</time>
      </trkpt>
      <trkpt lat="43.22881" lon="5.50347">
        <ele>279</ele>
        <time>2025-10-18T07:34:51Z</time>
      </trkpt>
      <trkpt lat="43.22881" lon="5.50347">
        <ele>279</ele>
        <time>2025-10-18T07:34:52Z</time>
      </trkpt>
      <trkpt lat="43.22881" lon="5.50348">
        <ele>279</ele>
        <time>2025-10-18T07:34:53Z</time>
      </trkpt>
      <trkpt lat="43.22881" lon="5.50349">
        <ele>279</ele>
        <time>2025-10-18T07:34:54Z</time>
      </trkpt>
      <trkpt lat="43.22881" lon="5.50349">
        <ele>279</ele>
        <time>2025-10-18T07:34:55Z</time>
      </trkpt>
      <trkpt lat="43.22881" lon="5.50349">
        <ele>279</ele>
        <time>2025-10-18T07:34:56Z</time>
      </trkpt>
      <trkpt lat="43.22881" lon="5.50349">
        <ele>279</ele>
        <time>2025-10-18T07:34:57Z</time>
      </trkpt>
      <trkpt lat="43.22881" lon="5.50349">
        <ele>279</ele>
        <time>2025-10-18T07:34:58Z</time>
      </trkpt>
      <trkpt lat="43.22881" lon="5.50349">
        <ele>279</ele>
        <time>2025-10-18T07:34:59Z</time>
      </trkpt>
      <trkpt lat="43.22881" lon="5.5035">
        <ele>279.1</ele>
        <time>2025-10-18T07:35:00Z</time>
      </trkpt>
      <trkpt lat="43.22881" lon="5.5035">
        <ele>279</ele>
        <time>2025-10-18T07:35:01Z</time>
      </trkpt>
      <trkpt lat="43.22881" lon="5.5035">
        <ele>278.9</ele>
        <time>2025-10-18T07:35:02Z</time>
      </trkpt>
      <trkpt lat="43.2288" lon="5.50351">
        <ele>278.9</ele>
        <time>2025-10-18T07:35:03Z</time>
      </trkpt>
      <trkpt lat="43.2288" lon="5.50352">
        <ele>278.9</ele>
        <time>2025-10-18T07:35:04Z</time>
      </trkpt>
      <trkpt lat="43.22879" lon="5.50353">
        <ele>278.9</ele>
        <time>2025-10-18T07:35:05Z</time>
      </trkpt>
      <trkpt lat="43.22879" lon="5.50354">
        <ele>278.9</ele>
        <time>2025-10-18T07:35:06Z</time>
      </trkpt>
      <trkpt lat="43.22878" lon="5.50354">
        <ele>278.9</ele>
        <time>2025-10-18T07:35:07Z</time>
      </trkpt>
      <trkpt lat="43.22877" lon="5.50356">
        <ele>278.9</ele>
        <time>2025-10-18T07:35:08Z</time>
      </trkpt>
      <trkpt lat="43.22877" lon="5.50357">
        <ele>278.9</ele>
        <time>2025-10-18T07:35:09Z</time>
      </trkpt>
      <trkpt lat="43.22876" lon="5.50357">
        <ele>279</ele>
        <time>2025-10-18T07:35:10Z</time>
      </trkpt>
      <trkpt lat="43.22875" lon="5.50357">
        <ele>279</ele>
        <time>2025-10-18T07:35:11Z</time>
      </trkpt>
      <trkpt lat="43.22875" lon="5.50357">
        <ele>279</ele>
        <time>2025-10-18T07:35:12Z</time>
      </trkpt>
      <trkpt lat="43.22874" lon="5.50358">
        <ele>278.9</ele>
        <time>2025-10-18T07:35:13Z</time>
      </trkpt>
      <trkpt lat="43.22874" lon="5.50358">
        <ele>278.8</ele>
        <time>2025-10-18T07:35:14Z</time>
      </trkpt>
      <trkpt lat="43.22873" lon="5.50359">
        <ele>278.8</ele>
        <time>2025-10-18T07:35:15Z</time>
      </trkpt>
      <trkpt lat="43.22873" lon="5.50359">
        <ele>278.9</ele>
        <time>2025-10-18T07:35:16Z</time>
      </trkpt>
      <trkpt lat="43.22873" lon="5.50359">
        <ele>278.8</ele>
        <time>2025-10-18T07:35:17Z</time>
      </trkpt>
      <trkpt lat="43.22873" lon="5.50358">
        <ele>278.9</ele>
        <time>2025-10-18T07:35:18Z</time>
      </trkpt>
      <trkpt lat="43.22873" lon="5.50358">
        <ele>278.9</ele>
        <time>2025-10-18T07:35:19Z</time>
      </trkpt>
      <trkpt lat="43.22873" lon="5.50359">
        <ele>278.9</ele>
        <time>2025-10-18T07:35:20Z</time>
      </trkpt>
      <trkpt lat="43.22873" lon="5.50359">
        <ele>279</ele>
        <time>2025-10-18T07:35:21Z</time>
      </trkpt>
      <trkpt lat="43.22873" lon="5.50359">
        <ele>279</ele>
        <time>2025-10-18T07:35:22Z</time>
      </trkpt>
      <trkpt lat="43.22873" lon="5.50359">
        <ele>279</ele>
        <time>2025-10-18T07:35:23Z</time>
      </trkpt>
      <trkpt lat="43.22873" lon="5.50359">
        <ele>279</ele>
        <time>2025-10-18T07:35:24Z</time>
      </trkpt>
      <trkpt lat="43.22873" lon="5.50359">
        <ele>279.1</ele>
        <time>2025-10-18T07:35:25Z</time>
      </trkpt>
      <trkpt lat="43.22873" lon="5.50359">
        <ele>279.1</ele>
        <time>2025-10-18T07:35:26Z</time>
      </trkpt>
      <trkpt lat="43.22873" lon="5.50358">
        <ele>279.1</ele>
        <time>2025-10-18T07:35:27Z</time>
      </trkpt>
      <trkpt lat="43.22873" lon="5.50358">
        <ele>279.1</ele>
        <time>2025-10-18T07:35:28Z</time>
      </trkpt>
      <trkpt lat="43.22873" lon="5.50358">
        <ele>279.2</ele>
        <time>2025-10-18T07:35:29Z</time>
      </trkpt>
      <trkpt lat="43.22873" lon="5.50358">
        <ele>279.2</ele>
        <time>2025-10-18T07:35:30Z</time>
      </trkpt>
      <trkpt lat="43.22873" lon="5.50358">
        <ele>279.2</ele>
        <time>2025-10-18T07:35:31Z</time>
      </trkpt>
      <trkpt lat="43.22873" lon="5.50358">
        <ele>279.2</ele>
        <time>2025-10-18T07:35:32Z</time>
      </trkpt>
      <trkpt lat="43.22873" lon="5.50358">
        <ele>279.1</ele>
        <time>2025-10-18T07:35:33Z</time>
      </trkpt>
      <trkpt lat="43.22873" lon="5.50358">
        <ele>279.3</ele>
        <time>2025-10-18T07:35:34Z</time>
      </trkpt>
      <trkpt lat="43.22873" lon="5.50358">
        <ele>279.2</ele>
        <time>2025-10-18T07:35:35Z</time>
      </trkpt>
      <trkpt lat="43.22873" lon="5.50358">
        <ele>279.1</ele>
        <time>2025-10-18T07:35:36Z</time>
      </trkpt>
      <trkpt lat="43.22874" lon="5.50358">
        <ele>279.1</ele>
        <time>2025-10-18T07:35:37Z</time>
      </trkpt>
      <trkpt lat="43.22874" lon="5.50358">
        <ele>279.1</ele>
        <time>2025-10-18T07:35:38Z</time>
      </trkpt>
      <trkpt lat="43.22874" lon="5.50358">
        <ele>279.1</ele>
        <time>2025-10-18T07:35:39Z</time>
      </trkpt>
      <trkpt lat="43.22874" lon="5.50358">
        <ele>279</ele>
        <time>2025-10-18T07:35:40Z</time>
      </trkpt>
      <trkpt lat="43.22874" lon="5.50358">
        <ele>279</ele>
        <time>2025-10-18T07:35:41Z</time>
      </trkpt>
      <trkpt lat="43.22874" lon="5.50358">
        <ele>279</ele>
        <time>2025-10-18T07:35:42Z</time>
      </trkpt>
      <trkpt lat="43.22874" lon="5.50358">
        <ele>279</ele>
        <time>2025-10-18T07:35:43Z</time>
      </trkpt>
      <trkpt lat="43.22874" lon="5.50358">
        <ele>279</ele>
        <time>2025-10-18T07:35:44Z</time>
      </trkpt>
      <trkpt lat="43.22874" lon="5.50358">
        <ele>279</ele>
        <time>2025-10-18T07:35:45Z</time>
      </trkpt>
      <trkpt lat="43.22874" lon="5.50358">
        <ele>279</ele>
        <time>2025-10-18T07:35:46Z</time>
      </trkpt>
      <trkpt lat="43.22874" lon="5.50358">
        <ele>279.1</ele>
        <time>2025-10-18T07:35:47Z</time>
      </trkpt>
      <trkpt lat="43.22873" lon="5.50358">
        <ele>279.1</ele>
        <time>2025-10-18T07:35:48Z</time>
      </trkpt>
      <trkpt lat="43.22873" lon="5.50359">
        <ele>279.2</ele>
        <time>2025-10-18T07:35:49Z</time>
      </trkpt>
      <trkpt lat="43.22873" lon="5.50359">
        <ele>279.1</ele>
        <time>2025-10-18T07:35:50Z</time>
      </trkpt>
      <trkpt lat="43.22873" lon="5.50359">
        <ele>279.1</ele>
        <time>2025-10-18T07:35:51Z</time>
      </trkpt>
      <trkpt lat="43.22873" lon="5.50359">
        <ele>279.1</ele>
        <time>2025-10-18T07:35:52Z</time>
      </trkpt>
      <trkpt lat="43.22873" lon="5.50359">
        <ele>279.1</ele>
        <time>2025-10-18T07:35:53Z</time>
      </trkpt>
      <trkpt lat="43.22873" lon="5.50359">
        <ele>279</ele>
        <time>2025-10-18T07:35:54Z</time>
      </trkpt>
      <trkpt lat="43.22873" lon="5.50359">
        <ele>278.9</ele>
        <time>2025-10-18T07:35:55Z</time>
      </trkpt>
      <trkpt lat="43.22873" lon="5.50359">
        <ele>278.9</ele>
        <time>2025-10-18T07:35:56Z</time>
      </trkpt>
      <trkpt lat="43.22873" lon="5.50359">
        <ele>278.9</ele>
        <time>2025-10-18T07:35:57Z</time>
      </trkpt>
      <trkpt lat="43.22873" lon="5.50359">
        <ele>278.8</ele>
        <time>2025-10-18T07:35:58Z</time>
      </trkpt>
      <trkpt lat="43.22872" lon="5.50359">
        <ele>278.8</ele>
        <time>2025-10-18T07:35:59Z</time>
      </trkpt>
      <trkpt lat="43.22872" lon="5.50359">
        <ele>278.8</ele>
        <time>2025-10-18T07:36:00Z</time>
      </trkpt>
      <trkpt lat="43.22872" lon="5.50359">
        <ele>279</ele>
        <time>2025-10-18T07:36:01Z</time>
      </trkpt>
      <trkpt lat="43.22872" lon="5.50359">
        <ele>279</ele>
        <time>2025-10-18T07:36:02Z</time>
      </trkpt>
      <trkpt lat="43.22873" lon="5.50359">
        <ele>279.1</ele>
        <time>2025-10-18T07:36:03Z</time>
      </trkpt>
      <trkpt lat="43.22873" lon="5.50359">
        <ele>279.1</ele>
        <time>2025-10-18T07:36:04Z</time>
      </trkpt>
      <trkpt lat="43.22873" lon="5.50359">
        <ele>279.2</ele>
        <time>2025-10-18T07:36:05Z</time>
      </trkpt>
      <trkpt lat="43.22873" lon="5.50359">
        <ele>279.2</ele>
        <time>2025-10-18T07:36:06Z</time>
      </trkpt>
      <trkpt lat="43.22873" lon="5.50359">
        <ele>279.2</ele>
        <time>2025-10-18T07:36:07Z</time>
      </trkpt>
      <trkpt lat="43.22873" lon="5.50359">
        <ele>279.3</ele>
        <time>2025-10-18T07:36:08Z</time>
      </trkpt>
      <trkpt lat="43.22873" lon="5.50359">
        <ele>279.2</ele>
        <time>2025-10-18T07:36:09Z</time>
      </trkpt>
      <trkpt lat="43.22873" lon="5.50359">
        <ele>279.1</ele>
        <time>2025-10-18T07:36:10Z</time>
      </trkpt>
      <trkpt lat="43.22873" lon="5.50359">
        <ele>279.1</ele>
        <time>2025-10-18T07:36:11Z</time>
      </trkpt>
      <trkpt lat="43.22873" lon="5.50359">
        <ele>279.1</ele>
        <time>2025-10-18T07:36:12Z</time>
      </trkpt>
      <trkpt lat="43.22873" lon="5.50359">
        <ele>279</ele>
        <time>2025-10-18T07:36:13Z</time>
      </trkpt>
      <trkpt lat="43.22873" lon="5.50359">
        <ele>279</ele>
        <time>2025-10-18T07:36:14Z</time>
      </trkpt>
      <trkpt lat="43.22873" lon="5.50359">
        <ele>279</ele>
        <time>2025-10-18T07:36:15Z</time>
      </trkpt>
      <trkpt lat="43.22874" lon="5.50359">
        <ele>278.9</ele>
        <time>2025-10-18T07:36:16Z</time>
      </trkpt>
      <trkpt lat="43.22874" lon="5.50359">
        <ele>278.9</ele>
        <time>2025-10-18T07:36:17Z</time>
      </trkpt>
      <trkpt lat="43.22874" lon="5.5036">
        <ele>278.9</ele>
        <time>2025-10-18T07:36:18Z</time>
      </trkpt>
      <trkpt lat="43.22874" lon="5.5036">
        <ele>278.9</ele>
        <time>2025-10-18T07:36:19Z</time>
      </trkpt>
      <trkpt lat="43.22874" lon="5.5036">
        <ele>278.9</ele>
        <time>2025-10-18T07:36:20Z</time>
      </trkpt>
      <trkpt lat="43.22874" lon="5.5036">
        <ele>278.9</ele>
        <time>2025-10-18T07:36:21Z</time>
      </trkpt>
      <trkpt lat="43.22874" lon="5.5036">
        <ele>278.9</ele>
        <time>2025-10-18T07:36:22Z</time>
      </trkpt>
      <trkpt lat="43.22874" lon="5.5036">
        <ele>278.9</ele>
        <time>2025-10-18T07:36:23Z</time>
      </trkpt>
      <trkpt lat="43.22875" lon="5.5036">
        <ele>278.8</ele>
        <time>2025-10-18T07:36:24Z</time>
      </trkpt>
      <trkpt lat="43.22874" lon="5.5036">
        <ele>278.9</ele>
        <time>2025-10-18T07:36:25Z</time>
      </trkpt>
      <trkpt lat="43.22874" lon="5.5036">
        <ele>278.8</ele>
        <time>2025-10-18T07:36:26Z</time>
      </trkpt>
      <trkpt lat="43.22874" lon="5.5036">
        <ele>278.8</ele>
        <time>2025-10-18T07:36:27Z</time>
      </trkpt>
      <trkpt lat="43.22874" lon="5.50361">
        <ele>278.8</ele>
        <time>2025-10-18T07:36:28Z</time>
      </trkpt>
      <trkpt lat="43.22874" lon="5.50361">
        <ele>278.9</ele>
        <time>2025-10-18T07:36:29Z</time>
      </trkpt>
      <trkpt lat="43.22874" lon="5.50362">
        <ele>278.8</ele>
        <time>2025-10-18T07:36:30Z</time>
      </trkpt>
      <trkpt lat="43.22874" lon="5.50362">
        <ele>278.7</ele>
        <time>2025-10-18T07:36:31Z</time>
      </trkpt>
      <trkpt lat="43.22873" lon="5.50362">
        <ele>278.8</ele>
        <time>2025-10-18T07:36:32Z</time>
      </trkpt>
      <trkpt lat="43.22873" lon="5.50362">
        <ele>278.8</ele>
        <time>2025-10-18T07:36:33Z</time>
      </trkpt>
      <trkpt lat="43.22873" lon="5.50362">
        <ele>278.8</ele>
        <time>2025-10-18T07:36:34Z</time>
      </trkpt>
      <trkpt lat="43.22873" lon="5.50362">
        <ele>278.8</ele>
        <time>2025-10-18T07:36:35Z</time>
      </trkpt>
      <trkpt lat="43.22873" lon="5.50362">
        <ele>278.8</ele>
        <time>2025-10-18T07:36:36Z</time>
      </trkpt>
      <trkpt lat="43.22873" lon="5.50362">
        <ele>278.8</ele>
        <time>2025-10-18T07:36:37Z</time>
      </trkpt>
      <trkpt lat="43.22873" lon="5.50362">
        <ele>278.7</ele>
        <time>2025-10-18T07:36:38Z</time>
      </trkpt>
      <trkpt lat="43.22873" lon="5.50362">
        <ele>278.6</ele>
        <time>2025-10-18T07:36:39Z</time>
      </trkpt>
      <trkpt lat="43.22873" lon="5.50362">
        <ele>278.6</ele>
        <time>2025-10-18T07:36:40Z</time>
      </trkpt>
      <trkpt lat="43.22873" lon="5.50362">
        <ele>278.6</ele>
        <time>2025-10-18T07:36:41Z</time>
      </trkpt>
      <trkpt lat="43.22873" lon="5.50361">
        <ele>278.5</ele>
        <time>2025-10-18T07:36:42Z</time>
      </trkpt>
      <trkpt lat="43.22873" lon="5.50362">
        <ele>278.5</ele>
        <time>2025-10-18T07:36:43Z</time>
      </trkpt>
      <trkpt lat="43.22873" lon="5.50362">
        <ele>278.6</ele>
        <time>2025-10-18T07:36:44Z</time>
      </trkpt>
      <trkpt lat="43.22873" lon="5.50362">
        <ele>278.7</ele>
        <time>2025-10-18T07:36:45Z</time>
      </trkpt>
      <trkpt lat="43.22873" lon="5.50362">
        <ele>278.7</ele>
        <time>2025-10-18T07:36:46Z</time>
      </trkpt>
      <trkpt lat="43.22873" lon="5.50362">
        <ele>278.7</ele>
        <time>2025-10-18T07:36:47Z</time>
      </trkpt>
      <trkpt lat="43.22873" lon="5.50362">
        <ele>278.7</ele>
        <time>2025-10-18T07:36:48Z</time>
      </trkpt>
      <trkpt lat="43.22873" lon="5.50362">
        <ele>278.8</ele>
        <time>2025-10-18T07:36:49Z</time>
      </trkpt>
      <trkpt lat="43.22873" lon="5.50362">
        <ele>278.8</ele>
        <time>2025-10-18T07:36:50Z</time>
      </trkpt>
      <trkpt lat="43.22873" lon="5.50362">
        <ele>278.8</ele>
        <time>2025-10-18T07:36:51Z</time>
      </trkpt>
      <trkpt lat="43.22873" lon="5.50363">
        <ele>278.8</ele>
        <time>2025-10-18T07:36:52Z</time>
      </trkpt>
      <trkpt lat="43.22873" lon="5.50363">
        <ele>278.8</ele>
        <time>2025-10-18T07:36:53Z</time>
      </trkpt>
      <trkpt lat="43.22873" lon="5.50363">
        <ele>278.8</ele>
        <time>2025-10-18T07:36:54Z</time>
      </trkpt>
      <trkpt lat="43.22873" lon="5.50363">
        <ele>278.7</ele>
        <time>2025-10-18T07:36:55Z</time>
      </trkpt>
      <trkpt lat="43.22874" lon="5.50363">
        <ele>278.7</ele>
        <time>2025-10-18T07:36:56Z</time>
      </trkpt>
      <trkpt lat="43.22874" lon="5.50363">
        <ele>278.7</ele>
        <time>2025-10-18T07:36:57Z</time>
      </trkpt>
      <trkpt lat="43.22874" lon="5.50363">
        <ele>278.8</ele>
        <time>2025-10-18T07:36:58Z</time>
      </trkpt>
      <trkpt lat="43.22874" lon="5.50363">
        <ele>278.8</ele>
        <time>2025-10-18T07:36:59Z</time>
      </trkpt>
      <trkpt lat="43.22874" lon="5.50363">
        <ele>278.8</ele>
        <time>2025-10-18T07:37:00Z</time>
      </trkpt>
      <trkpt lat="43.22874" lon="5.50363">
        <ele>278.9</ele>
        <time>2025-10-18T07:37:01Z</time>
      </trkpt>
      <trkpt lat="43.22873" lon="5.50363">
        <ele>278.9</ele>
        <time>2025-10-18T07:37:02Z</time>
      </trkpt>
      <trkpt lat="43.22873" lon="5.50363">
        <ele>278.9</ele>
        <time>2025-10-18T07:37:03Z</time>
      </trkpt>
      <trkpt lat="43.22873" lon="5.50362">
        <ele>278.9</ele>
        <time>2025-10-18T07:37:04Z</time>
      </trkpt>
      <trkpt lat="43.22873" lon="5.50363">
        <ele>278.9</ele>
        <time>2025-10-18T07:37:05Z</time>
      </trkpt>
      <trkpt lat="43.22873" lon="5.50362">
        <ele>278.9</ele>
        <time>2025-10-18T07:37:06Z</time>
      </trkpt>
      <trkpt lat="43.22873" lon="5.50362">
        <ele>278.9</ele>
        <time>2025-10-18T07:37:07Z</time>
      </trkpt>
      <trkpt lat="43.22873" lon="5.50362">
        <ele>278.8</ele>
        <time>2025-10-18T07:37:08Z</time>
      </trkpt>
      <trkpt lat="43.22873" lon="5.50362">
        <ele>278.8</ele>
        <time>2025-10-18T07:37:09Z</time>
      </trkpt>
      <trkpt lat="43.22873" lon="5.50362">
        <ele>278.7</ele>
        <time>2025-10-18T07:37:10Z</time>
      </trkpt>
      <trkpt lat="43.22873" lon="5.50361">
        <ele>278.7</ele>
        <time>2025-10-18T07:37:11Z</time>
      </trkpt>
      <trkpt lat="43.22873" lon="5.50361">
        <ele>278.7</ele>
        <time>2025-10-18T07:37:12Z</time>
      </trkpt>
      <trkpt lat="43.22873" lon="5.50361">
        <ele>278.8</ele>
        <time>2025-10-18T07:37:13Z</time>
      </trkpt>
      <trkpt lat="43.22873" lon="5.50361">
        <ele>278.8</ele>
        <time>2025-10-18T07:37:14Z</time>
      </trkpt>
      <trkpt lat="43.22873" lon="5.50361">
        <ele>278.8</ele>
        <time>2025-10-18T07:37:15Z</time>
      </trkpt>
      <trkpt lat="43.22873" lon="5.50361">
        <ele>278.8</ele>
        <time>2025-10-18T07:37:16Z</time>
      </trkpt>
      <trkpt lat="43.22872" lon="5.50361">
        <ele>278.8</ele>
        <time>2025-10-18T07:37:17Z</time>
      </trkpt>
      <trkpt lat="43.22872" lon="5.5036">
        <ele>278.8</ele>
        <time>2025-10-18T07:37:18Z</time>
      </trkpt>
      <trkpt lat="43.22872" lon="5.5036">
        <ele>278.7</ele>
        <time>2025-10-18T07:37:19Z</time>
      </trkpt>
      <trkpt lat="43.22872" lon="5.5036">
        <ele>278.7</ele>
        <time>2025-10-18T07:37:20Z</time>
      </trkpt>
      <trkpt lat="43.22872" lon="5.5036">
        <ele>278.7</ele>
        <time>2025-10-18T07:37:21Z</time>
      </trkpt>
      <trkpt lat="43.22872" lon="5.5036">
        <ele>278.8</ele>
        <time>2025-10-18T07:37:22Z</time>
      </trkpt>
      <trkpt lat="43.22872" lon="5.5036">
        <ele>278.8</ele>
        <time>2025-10-18T07:37:23Z</time>
      </trkpt>
      <trkpt lat="43.22872" lon="5.5036">
        <ele>278.8</ele>
        <time>2025-10-18T07:37:24Z</time>
      </trkpt>
      <trkpt lat="43.22871" lon="5.5036">
        <ele>278.8</ele>
        <time>2025-10-18T07:37:25Z</time>
      </trkpt>
      <trkpt lat="43.22871" lon="5.5036">
        <ele>278.8</ele>
        <time>2025-10-18T07:37:26Z</time>
      </trkpt>
      <trkpt lat="43.22871" lon="5.5036">
        <ele>278.9</ele>
        <time>2025-10-18T07:37:27Z</time>
      </trkpt>
      <trkpt lat="43.22871" lon="5.5036">
        <ele>278.9</ele>
        <time>2025-10-18T07:37:28Z</time>
      </trkpt>
      <trkpt lat="43.22871" lon="5.5036">
        <ele>279</ele>
        <time>2025-10-18T07:37:29Z</time>
      </trkpt>
      <trkpt lat="43.22871" lon="5.5036">
        <ele>279</ele>
        <time>2025-10-18T07:37:30Z</time>
      </trkpt>
      <trkpt lat="43.22871" lon="5.5036">
        <ele>279</ele>
        <time>2025-10-18T07:37:31Z</time>
      </trkpt>
      <trkpt lat="43.22871" lon="5.5036">
        <ele>279</ele>
        <time>2025-10-18T07:37:32Z</time>
      </trkpt>
      <trkpt lat="43.22871" lon="5.5036">
        <ele>279</ele>
        <time>2025-10-18T07:37:33Z</time>
      </trkpt>
      <trkpt lat="43.22871" lon="5.5036">
        <ele>279</ele>
        <time>2025-10-18T07:37:34Z</time>
      </trkpt>
      <trkpt lat="43.22871" lon="5.50359">
        <ele>279</ele>
        <time>2025-10-18T07:37:35Z</time>
      </trkpt>
      <trkpt lat="43.22871" lon="5.50359">
        <ele>279</ele>
        <time>2025-10-18T07:37:36Z</time>
      </trkpt>
      <trkpt lat="43.2287" lon="5.50359">
        <ele>279</ele>
        <time>2025-10-18T07:37:37Z</time>
      </trkpt>
      <trkpt lat="43.2287" lon="5.50359">
        <ele>279</ele>
        <time>2025-10-18T07:37:38Z</time>
      </trkpt>
      <trkpt lat="43.2287" lon="5.50359">
        <ele>279</ele>
        <time>2025-10-18T07:37:39Z</time>
      </trkpt>
      <trkpt lat="43.2287" lon="5.50359">
        <ele>279</ele>
        <time>2025-10-18T07:37:40Z</time>
      </trkpt>
      <trkpt lat="43.2287" lon="5.50359">
        <ele>278.9</ele>
        <time>2025-10-18T07:37:41Z</time>
      </trkpt>
      <trkpt lat="43.2287" lon="5.50359">
        <ele>278.8</ele>
        <time>2025-10-18T07:37:42Z</time>
      </trkpt>
      <trkpt lat="43.2287" lon="5.50359">
        <ele>278.8</ele>
        <time>2025-10-18T07:37:43Z</time>
      </trkpt>
      <trkpt lat="43.2287" lon="5.50359">
        <ele>278.8</ele>
        <time>2025-10-18T07:37:44Z</time>
      </trkpt>
      <trkpt lat="43.2287" lon="5.50359">
        <ele>278.9</ele>
        <time>2025-10-18T07:37:45Z</time>
      </trkpt>
      <trkpt lat="43.2287" lon="5.50358">
        <ele>278.9</ele>
        <time>2025-10-18T07:37:46Z</time>
      </trkpt>
      <trkpt lat="43.2287" lon="5.50358">
        <ele>278.8</ele>
        <time>2025-10-18T07:37:47Z</time>
      </trkpt>
      <trkpt lat="43.2287" lon="5.50358">
        <ele>278.9</ele>
        <time>2025-10-18T07:37:48Z</time>
      </trkpt>
      <trkpt lat="43.2287" lon="5.50358">
        <ele>278.8</ele>
        <time>2025-10-18T07:37:49Z</time>
      </trkpt>
      <trkpt lat="43.2287" lon="5.50358">
        <ele>278.8</ele>
        <time>2025-10-18T07:37:50Z</time>
      </trkpt>
      <trkpt lat="43.2287" lon="5.50358">
        <ele>278.8</ele>
        <time>2025-10-18T07:37:51Z</time>
      </trkpt>
      <trkpt lat="43.2287" lon="5.50358">
        <ele>278.8</ele>
        <time>2025-10-18T07:37:52Z</time>
      </trkpt>
      <trkpt lat="43.2287" lon="5.50358">
        <ele>278.8</ele>
        <time>2025-10-18T07:37:53Z</time>
      </trkpt>
      <trkpt lat="43.2287" lon="5.50358">
        <ele>278.8</ele>
        <time>2025-10-18T07:37:54Z</time>
      </trkpt>
      <trkpt lat="43.2287" lon="5.50358">
        <ele>278.8</ele>
        <time>2025-10-18T07:37:55Z</time>
      </trkpt>
      <trkpt lat="43.22871" lon="5.50358">
        <ele>278.7</ele>
        <time>2025-10-18T07:37:56Z</time>
      </trkpt>
      <trkpt lat="43.22871" lon="5.50358">
        <ele>278.8</ele>
        <time>2025-10-18T07:37:57Z</time>
      </trkpt>
      <trkpt lat="43.22871" lon="5.50358">
        <ele>278.7</ele>
        <time>2025-10-18T07:37:58Z</time>
      </trkpt>
      <trkpt lat="43.22871" lon="5.50358">
        <ele>278.8</ele>
        <time>2025-10-18T07:37:59Z</time>
      </trkpt>
      <trkpt lat="43.22871" lon="5.50359">
        <ele>278.8</ele>
        <time>2025-10-18T07:38:00Z</time>
      </trkpt>
      <trkpt lat="43.22871" lon="5.50359">
        <ele>278.8</ele>
        <time>2025-10-18T07:38:01Z</time>
      </trkpt>
      <trkpt lat="43.22871" lon="5.50359">
        <ele>278.7</ele>
        <time>2025-10-18T07:38:02Z</time>
      </trkpt>
      <trkpt lat="43.22871" lon="5.50359">
        <ele>278.7</ele>
        <time>2025-10-18T07:38:03Z</time>
      </trkpt>
      <trkpt lat="43.22871" lon="5.50359">
        <ele>278.7</ele>
        <time>2025-10-18T07:38:04Z</time>
      </trkpt>
      <trkpt lat="43.22871" lon="5.50359">
        <ele>278.7</ele>
        <time>2025-10-18T07:38:05Z</time>
      </trkpt>
      <trkpt lat="43.22871" lon="5.50359">
        <ele>278.6</ele>
        <time>2025-10-18T07:38:06Z</time>
      </trkpt>
      <trkpt lat="43.22871" lon="5.50359">
        <ele>278.7</ele>
        <time>2025-10-18T07:38:07Z</time>
      </trkpt>
      <trkpt lat="43.22871" lon="5.50359">
        <ele>278.7</ele>
        <time>2025-10-18T07:38:08Z</time>
      </trkpt>
      <trkpt lat="43.22871" lon="5.50359">
        <ele>278.7</ele>
        <time>2025-10-18T07:38:09Z</time>
      </trkpt>
      <trkpt lat="43.22871" lon="5.50359">
        <ele>278.7</ele>
        <time>2025-10-18T07:38:10Z</time>
      </trkpt>
      <trkpt lat="43.22871" lon="5.50359">
        <ele>278.8</ele>
        <time>2025-10-18T07:38:11Z</time>
      </trkpt>
      <trkpt lat="43.22871" lon="5.50359">
        <ele>278.8</ele>
        <time>2025-10-18T07:38:12Z</time>
      </trkpt>
      <trkpt lat="43.22871" lon="5.5036">
        <ele>278.8</ele>
        <time>2025-10-18T07:38:13Z</time>
      </trkpt>
      <trkpt lat="43.22871" lon="5.5036">
        <ele>278.9</ele>
        <time>2025-10-18T07:38:14Z</time>
      </trkpt>
      <trkpt lat="43.22871" lon="5.5036">
        <ele>278.9</ele>
        <time>2025-10-18T07:38:15Z</time>
      </trkpt>
      <trkpt lat="43.22871" lon="5.5036">
        <ele>278.9</ele>
        <time>2025-10-18T07:38:16Z</time>
      </trkpt>
      <trkpt lat="43.22871" lon="5.50361">
        <ele>278.9</ele>
        <time>2025-10-18T07:38:17Z</time>
      </trkpt>
      <trkpt lat="43.22871" lon="5.50361">
        <ele>279</ele>
        <time>2025-10-18T07:38:18Z</time>
      </trkpt>
      <trkpt lat="43.22871" lon="5.50361">
        <ele>279</ele>
        <time>2025-10-18T07:38:19Z</time>
      </trkpt>
      <trkpt lat="43.22871" lon="5.50361">
        <ele>279</ele>
        <time>2025-10-18T07:38:20Z</time>
      </trkpt>
      <trkpt lat="43.22871" lon="5.50361">
        <ele>279</ele>
        <time>2025-10-18T07:38:21Z</time>
      </trkpt>
      <trkpt lat="43.22871" lon="5.50361">
        <ele>278.9</ele>
        <time>2025-10-18T07:38:22Z</time>
      </trkpt>
      <trkpt lat="43.22871" lon="5.50362">
        <ele>279</ele>
        <time>2025-10-18T07:38:23Z</time>
      </trkpt>
      <trkpt lat="43.22871" lon="5.50362">
        <ele>278.9</ele>
        <time>2025-10-18T07:38:24Z</time>
      </trkpt>
      <trkpt lat="43.22871" lon="5.50362">
        <ele>279</ele>
        <time>2025-10-18T07:38:25Z</time>
      </trkpt>
      <trkpt lat="43.22871" lon="5.50362">
        <ele>279.1</ele>
        <time>2025-10-18T07:38:26Z</time>
      </trkpt>
      <trkpt lat="43.22871" lon="5.50362">
        <ele>279.1</ele>
        <time>2025-10-18T07:38:27Z</time>
      </trkpt>
      <trkpt lat="43.22871" lon="5.50362">
        <ele>279.1</ele>
        <time>2025-10-18T07:38:28Z</time>
      </trkpt>
      <trkpt lat="43.22871" lon="5.50362">
        <ele>279.1</ele>
        <time>2025-10-18T07:38:29Z</time>
      </trkpt>
      <trkpt lat="43.22871" lon="5.50362">
        <ele>279.1</ele>
        <time>2025-10-18T07:38:30Z</time>
      </trkpt>
      <trkpt lat="43.22871" lon="5.50362">
        <ele>279.1</ele>
        <time>2025-10-18T07:38:31Z</time>
      </trkpt>
      <trkpt lat="43.22871" lon="5.50363">
        <ele>279.1</ele>
        <time>2025-10-18T07:38:32Z</time>
      </trkpt>
      <trkpt lat="43.22872" lon="5.50363">
        <ele>279.1</ele>
        <time>2025-10-18T07:38:33Z</time>
      </trkpt>
      <trkpt lat="43.22872" lon="5.50363">
        <ele>279</ele>
        <time>2025-10-18T07:38:34Z</time>
      </trkpt>
      <trkpt lat="43.22872" lon="5.50363">
        <ele>279</ele>
        <time>2025-10-18T07:38:35Z</time>
      </trkpt>
      <trkpt lat="43.22872" lon="5.50363">
        <ele>279</ele>
        <time>2025-10-18T07:38:36Z</time>
      </trkpt>
      <trkpt lat="43.22872" lon="5.50363">
        <ele>279</ele>
        <time>2025-10-18T07:38:37Z</time>
      </trkpt>
      <trkpt lat="43.22872" lon="5.50363">
        <ele>279</ele>
        <time>2025-10-18T07:38:38Z</time>
      </trkpt>
      <trkpt lat="43.22872" lon="5.50363">
        <ele>278.9</ele>
        <time>2025-10-18T07:38:39Z</time>
      </trkpt>
      <trkpt lat="43.22872" lon="5.50363">
        <ele>278.9</ele>
        <time>2025-10-18T07:38:40Z</time>
      </trkpt>
      <trkpt lat="43.22872" lon="5.50363">
        <ele>279</ele>
        <time>2025-10-18T07:38:41Z</time>
      </trkpt>
      <trkpt lat="43.22872" lon="5.50363">
        <ele>279</ele>
        <time>2025-10-18T07:38:42Z</time>
      </trkpt>
      <trkpt lat="43.22872" lon="5.50363">
        <ele>279.1</ele>
        <time>2025-10-18T07:38:43Z</time>
      </trkpt>
      <trkpt lat="43.22872" lon="5.50364">
        <ele>279.1</ele>
        <time>2025-10-18T07:38:44Z</time>
      </trkpt>
      <trkpt lat="43.22873" lon="5.50364">
        <ele>279</ele>
        <time>2025-10-18T07:38:45Z</time>
      </trkpt>
      <trkpt lat="43.22873" lon="5.50364">
        <ele>279.1</ele>
        <time>2025-10-18T07:38:46Z</time>
      </trkpt>
      <trkpt lat="43.22873" lon="5.50364">
        <ele>279.1</ele>
        <time>2025-10-18T07:38:47Z</time>
      </trkpt>
      <trkpt lat="43.22873" lon="5.50364">
        <ele>279.1</ele>
        <time>2025-10-18T07:38:48Z</time>
      </trkpt>
      <trkpt lat="43.22873" lon="5.50364">
        <ele>279.1</ele>
        <time>2025-10-18T07:38:49Z</time>
      </trkpt>
      <trkpt lat="43.22873" lon="5.50364">
        <ele>279.1</ele>
        <time>2025-10-18T07:38:50Z</time>
      </trkpt>
      <trkpt lat="43.22873" lon="5.50364">
        <ele>279.1</ele>
        <time>2025-10-18T07:38:51Z</time>
      </trkpt>
      <trkpt lat="43.22873" lon="5.50364">
        <ele>279.1</ele>
        <time>2025-10-18T07:38:52Z</time>
      </trkpt>
      <trkpt lat="43.22874" lon="5.50364">
        <ele>279.1</ele>
        <time>2025-10-18T07:38:53Z</time>
      </trkpt>
      <trkpt lat="43.22874" lon="5.50364">
        <ele>279.1</ele>
        <time>2025-10-18T07:38:54Z</time>
      </trkpt>
      <trkpt lat="43.22874" lon="5.50364">
        <ele>279.1</ele>
        <time>2025-10-18T07:38:55Z</time>
      </trkpt>
      <trkpt lat="43.22874" lon="5.50364">
        <ele>279</ele>
        <time>2025-10-18T07:38:56Z</time>
      </trkpt>
      <trkpt lat="43.22874" lon="5.50364">
        <ele>279</ele>
        <time>2025-10-18T07:38:57Z</time>
      </trkpt>
      <trkpt lat="43.22874" lon="5.50364">
        <ele>278.9</ele>
        <time>2025-10-18T07:38:58Z</time>
      </trkpt>
      <trkpt lat="43.22874" lon="5.50364">
        <ele>278.9</ele>
        <time>2025-10-18T07:38:59Z</time>
      </trkpt>
      <trkpt lat="43.22874" lon="5.50364">
        <ele>278.8</ele>
        <time>2025-10-18T07:39:00Z</time>
      </trkpt>
      <trkpt lat="43.22874" lon="5.50364">
        <ele>278.8</ele>
        <time>2025-10-18T07:39:01Z</time>
      </trkpt>
      <trkpt lat="43.22874" lon="5.50364">
        <ele>278.7</ele>
        <time>2025-10-18T07:39:02Z</time>
      </trkpt>
      <trkpt lat="43.22873" lon="5.50365">
        <ele>278.7</ele>
        <time>2025-10-18T07:39:03Z</time>
      </trkpt>
      <trkpt lat="43.22872" lon="5.50366">
        <ele>278.7</ele>
        <time>2025-10-18T07:39:04Z</time>
      </trkpt>
      <trkpt lat="43.22872" lon="5.50366">
        <ele>278.8</ele>
        <time>2025-10-18T07:39:05Z</time>
      </trkpt>
      <trkpt lat="43.22871" lon="5.50367">
        <ele>278.8</ele>
        <time>2025-10-18T07:39:06Z</time>
      </trkpt>
      <trkpt lat="43.22871" lon="5.50367">
        <ele>278.9</ele>
        <time>2025-10-18T07:39:07Z</time>
      </trkpt>
      <trkpt lat="43.2287" lon="5.50368">
        <ele>278.9</ele>
        <time>2025-10-18T07:39:08Z</time>
      </trkpt>
      <trkpt lat="43.22869" lon="5.50369">
        <ele>279</ele>
        <time>2025-10-18T07:39:09Z</time>
      </trkpt>
      <trkpt lat="43.22868" lon="5.5037">
        <ele>279.1</ele>
        <time>2025-10-18T07:39:10Z</time>
      </trkpt>
      <trkpt lat="43.22867" lon="5.50371">
        <ele>279.2</ele>
        <time>2025-10-18T07:39:11Z</time>
      </trkpt>
      <trkpt lat="43.22867" lon="5.50372">
        <ele>279.3</ele>
        <time>2025-10-18T07:39:12Z</time>
      </trkpt>
      <trkpt lat="43.22866" lon="5.50372">
        <ele>279.5</ele>
        <time>2025-10-18T07:39:13Z</time>
      </trkpt>
      <trkpt lat="43.22865" lon="5.50373">
        <ele>279.6</ele>
        <time>2025-10-18T07:39:14Z</time>
      </trkpt>
      <trkpt lat="43.22865" lon="5.50373">
        <ele>279.7</ele>
        <time>2025-10-18T07:39:15Z</time>
      </trkpt>
      <trkpt lat="43.22864" lon="5.50374">
        <ele>279.9</ele>
        <time>2025-10-18T07:39:16Z</time>
      </trkpt>
      <trkpt lat="43.22864" lon="5.50374">
        <ele>279.9</ele>
        <time>2025-10-18T07:39:17Z</time>
      </trkpt>
      <trkpt lat="43.22863" lon="5.50374">
        <ele>279.9</ele>
        <time>2025-10-18T07:39:18Z</time>
      </trkpt>
      <trkpt lat="43.22862" lon="5.50375">
        <ele>279.9</ele>
        <time>2025-10-18T07:39:19Z</time>
      </trkpt>
      <trkpt lat="43.22862" lon="5.50376">
        <ele>279.9</ele>
        <time>2025-10-18T07:39:20Z</time>
      </trkpt>
      <trkpt lat="43.22861" lon="5.50376">
        <ele>279.9</ele>
        <time>2025-10-18T07:39:21Z</time>
      </trkpt>
      <trkpt lat="43.2286" lon="5.50377">
        <ele>280</ele>
        <time>2025-10-18T07:39:22Z</time>
      </trkpt>
      <trkpt lat="43.22859" lon="5.50378">
        <ele>280.3</ele>
        <time>2025-10-18T07:39:23Z</time>
      </trkpt>
      <trkpt lat="43.22858" lon="5.50379">
        <ele>280.4</ele>
        <time>2025-10-18T07:39:24Z</time>
      </trkpt>
      <trkpt lat="43.22857" lon="5.5038">
        <ele>280.7</ele>
        <time>2025-10-18T07:39:25Z</time>
      </trkpt>
      <trkpt lat="43.22856" lon="5.50381">
        <ele>280.7</ele>
        <time>2025-10-18T07:39:26Z</time>
      </trkpt>
      <trkpt lat="43.22855" lon="5.50381">
        <ele>280.8</ele>
        <time>2025-10-18T07:39:27Z</time>
      </trkpt>
      <trkpt lat="43.22854" lon="5.50381">
        <ele>280.9</ele>
        <time>2025-10-18T07:39:28Z</time>
      </trkpt>
      <trkpt lat="43.22854" lon="5.50382">
        <ele>281.1</ele>
        <time>2025-10-18T07:39:29Z</time>
      </trkpt>
      <trkpt lat="43.22853" lon="5.50382">
        <ele>281.3</ele>
        <time>2025-10-18T07:39:30Z</time>
      </trkpt>
      <trkpt lat="43.22852" lon="5.50383">
        <ele>281.5</ele>
        <time>2025-10-18T07:39:31Z</time>
      </trkpt>
      <trkpt lat="43.22851" lon="5.50383">
        <ele>281.6</ele>
        <time>2025-10-18T07:39:32Z</time>
      </trkpt>
      <trkpt lat="43.2285" lon="5.50385">
        <ele>281.7</ele>
        <time>2025-10-18T07:39:33Z</time>
      </trkpt>
      <trkpt lat="43.22849" lon="5.50385">
        <ele>281.8</ele>
        <time>2025-10-18T07:39:34Z</time>
      </trkpt>
      <trkpt lat="43.22849" lon="5.50386">
        <ele>282</ele>
        <time>2025-10-18T07:39:35Z</time>
      </trkpt>
      <trkpt lat="43.22848" lon="5.50387">
        <ele>282.1</ele>
        <time>2025-10-18T07:39:36Z</time>
      </trkpt>
      <trkpt lat="43.22847" lon="5.50388">
        <ele>282.2</ele>
        <time>2025-10-18T07:39:37Z</time>
      </trkpt>
      <trkpt lat="43.22847" lon="5.50389">
        <ele>282.3</ele>
        <time>2025-10-18T07:39:38Z</time>
      </trkpt>
      <trkpt lat="43.22846" lon="5.5039">
        <ele>282.4</ele>
        <time>2025-10-18T07:39:39Z</time>
      </trkpt>
      <trkpt lat="43.22845" lon="5.50391">
        <ele>282.5</ele>
        <time>2025-10-18T07:39:40Z</time>
      </trkpt>
      <trkpt lat="43.22844" lon="5.50392">
        <ele>282.7</ele>
        <time>2025-10-18T07:39:41Z</time>
      </trkpt>
      <trkpt lat="43.22844" lon="5.50393">
        <ele>282.9</ele>
        <time>2025-10-18T07:39:42Z</time>
      </trkpt>
      <trkpt lat="43.22843" lon="5.50394">
        <ele>283</ele>
        <time>2025-10-18T07:39:43Z</time>
      </trkpt>
      <trkpt lat="43.22843" lon="5.50395">
        <ele>283.1</ele>
        <time>2025-10-18T07:39:44Z</time>
      </trkpt>
      <trkpt lat="43.22843" lon="5.50396">
        <ele>283.2</ele>
        <time>2025-10-18T07:39:45Z</time>
      </trkpt>
      <trkpt lat="43.22842" lon="5.50396">
        <ele>283.3</ele>
        <time>2025-10-18T07:39:46Z</time>
      </trkpt>
      <trkpt lat="43.22842" lon="5.50397">
        <ele>283.5</ele>
        <time>2025-10-18T07:39:47Z</time>
      </trkpt>
      <trkpt lat="43.22841" lon="5.50398">
        <ele>283.6</ele>
        <time>2025-10-18T07:39:48Z</time>
      </trkpt>
      <trkpt lat="43.2284" lon="5.50398">
        <ele>283.7</ele>
        <time>2025-10-18T07:39:49Z</time>
      </trkpt>
      <trkpt lat="43.2284" lon="5.504">
        <ele>283.8</ele>
        <time>2025-10-18T07:39:50Z</time>
      </trkpt>
      <trkpt lat="43.22839" lon="5.50401">
        <ele>283.8</ele>
        <time>2025-10-18T07:39:51Z</time>
      </trkpt>
      <trkpt lat="43.22838" lon="5.50401">
        <ele>283.9</ele>
        <time>2025-10-18T07:39:52Z</time>
      </trkpt>
      <trkpt lat="43.22837" lon="5.50402">
        <ele>284</ele>
        <time>2025-10-18T07:39:53Z</time>
      </trkpt>
      <trkpt lat="43.22836" lon="5.50403">
        <ele>284.1</ele>
        <time>2025-10-18T07:39:54Z</time>
      </trkpt>
      <trkpt lat="43.22836" lon="5.50404">
        <ele>284.2</ele>
        <time>2025-10-18T07:39:55Z</time>
      </trkpt>
      <trkpt lat="43.22835" lon="5.50404">
        <ele>284.3</ele>
        <time>2025-10-18T07:39:56Z</time>
      </trkpt>
      <trkpt lat="43.22834" lon="5.50405">
        <ele>284.4</ele>
        <time>2025-10-18T07:39:57Z</time>
      </trkpt>
      <trkpt lat="43.22833" lon="5.50406">
        <ele>284.4</ele>
        <time>2025-10-18T07:39:58Z</time>
      </trkpt>
      <trkpt lat="43.22832" lon="5.50406">
        <ele>284.5</ele>
        <time>2025-10-18T07:39:59Z</time>
      </trkpt>
      <trkpt lat="43.22831" lon="5.50407">
        <ele>284.5</ele>
        <time>2025-10-18T07:40:00Z</time>
      </trkpt>
      <trkpt lat="43.2283" lon="5.50408">
        <ele>284.6</ele>
        <time>2025-10-18T07:40:01Z</time>
      </trkpt>
      <trkpt lat="43.2283" lon="5.50408">
        <ele>284.7</ele>
        <time>2025-10-18T07:40:02Z</time>
      </trkpt>
      <trkpt lat="43.22829" lon="5.50409">
        <ele>284.8</ele>
        <time>2025-10-18T07:40:03Z</time>
      </trkpt>
      <trkpt lat="43.22828" lon="5.5041">
        <ele>284.9</ele>
        <time>2025-10-18T07:40:04Z</time>
      </trkpt>
      <trkpt lat="43.22827" lon="5.50411">
        <ele>285</ele>
        <time>2025-10-18T07:40:05Z</time>
      </trkpt>
      <trkpt lat="43.22826" lon="5.50412">
        <ele>285.1</ele>
        <time>2025-10-18T07:40:06Z</time>
      </trkpt>
      <trkpt lat="43.22825" lon="5.50412">
        <ele>285.3</ele>
        <time>2025-10-18T07:40:07Z</time>
      </trkpt>
      <trkpt lat="43.22825" lon="5.50413">
        <ele>285.4</ele>
        <time>2025-10-18T07:40:08Z</time>
      </trkpt>
      <trkpt lat="43.22824" lon="5.50414">
        <ele>285.6</ele>
        <time>2025-10-18T07:40:09Z</time>
      </trkpt>
      <trkpt lat="43.22823" lon="5.50415">
        <ele>285.7</ele>
        <time>2025-10-18T07:40:10Z</time>
      </trkpt>
      <trkpt lat="43.22822" lon="5.50415">
        <ele>285.9</ele>
        <time>2025-10-18T07:40:11Z</time>
      </trkpt>
      <trkpt lat="43.22822" lon="5.50416">
        <ele>285.9</ele>
        <time>2025-10-18T07:40:12Z</time>
      </trkpt>
      <trkpt lat="43.22821" lon="5.50417">
        <ele>286</ele>
        <time>2025-10-18T07:40:13Z</time>
      </trkpt>
      <trkpt lat="43.2282" lon="5.50418">
        <ele>286.2</ele>
        <time>2025-10-18T07:40:14Z</time>
      </trkpt>
      <trkpt lat="43.2282" lon="5.50418">
        <ele>286.3</ele>
        <time>2025-10-18T07:40:15Z</time>
      </trkpt>
      <trkpt lat="43.22819" lon="5.50419">
        <ele>286.4</ele>
        <time>2025-10-18T07:40:16Z</time>
      </trkpt>
      <trkpt lat="43.22818" lon="5.50419">
        <ele>286.4</ele>
        <time>2025-10-18T07:40:17Z</time>
      </trkpt>
      <trkpt lat="43.22817" lon="5.50419">
        <ele>286.5</ele>
        <time>2025-10-18T07:40:18Z</time>
      </trkpt>
      <trkpt lat="43.22816" lon="5.5042">
        <ele>286.6</ele>
        <time>2025-10-18T07:40:19Z</time>
      </trkpt>
      <trkpt lat="43.22815" lon="5.5042">
        <ele>286.7</ele>
        <time>2025-10-18T07:40:20Z</time>
      </trkpt>
      <trkpt lat="43.22815" lon="5.50421">
        <ele>286.8</ele>
        <time>2025-10-18T07:40:21Z</time>
      </trkpt>
      <trkpt lat="43.22814" lon="5.50422">
        <ele>287</ele>
        <time>2025-10-18T07:40:22Z</time>
      </trkpt>
      <trkpt lat="43.22813" lon="5.50423">
        <ele>287</ele>
        <time>2025-10-18T07:40:23Z</time>
      </trkpt>
      <trkpt lat="43.22813" lon="5.50423">
        <ele>287.2</ele>
        <time>2025-10-18T07:40:24Z</time>
      </trkpt>
      <trkpt lat="43.22812" lon="5.50423">
        <ele>287.3</ele>
        <time>2025-10-18T07:40:25Z</time>
      </trkpt>
      <trkpt lat="43.22812" lon="5.50423">
        <ele>287.4</ele>
        <time>2025-10-18T07:40:26Z</time>
      </trkpt>
      <trkpt lat="43.22811" lon="5.50423">
        <ele>287.6</ele>
        <time>2025-10-18T07:40:27Z</time>
      </trkpt>
      <trkpt lat="43.2281" lon="5.50423">
        <ele>287.7</ele>
        <time>2025-10-18T07:40:28Z</time>
      </trkpt>
      <trkpt lat="43.2281" lon="5.50424">
        <ele>287.8</ele>
        <time>2025-10-18T07:40:29Z</time>
      </trkpt>
      <trkpt lat="43.22809" lon="5.50424">
        <ele>287.9</ele>
        <time>2025-10-18T07:40:30Z</time>
      </trkpt>
      <trkpt lat="43.22808" lon="5.50424">
        <ele>288.1</ele>
        <time>2025-10-18T07:40:31Z</time>
      </trkpt>
      <trkpt lat="43.22807" lon="5.50425">
        <ele>288.2</ele>
        <time>2025-10-18T07:40:32Z</time>
      </trkpt>
      <trkpt lat="43.22806" lon="5.50425">
        <ele>288.3</ele>
        <time>2025-10-18T07:40:33Z</time>
      </trkpt>
      <trkpt lat="43.22806" lon="5.50425">
        <ele>288.4</ele>
        <time>2025-10-18T07:40:34Z</time>
      </trkpt>
      <trkpt lat="43.22805" lon="5.50426">
        <ele>288.7</ele>
        <time>2025-10-18T07:40:35Z</time>
      </trkpt>
      <trkpt lat="43.22804" lon="5.50426">
        <ele>288.8</ele>
        <time>2025-10-18T07:40:36Z</time>
      </trkpt>
      <trkpt lat="43.22803" lon="5.50426">
        <ele>289</ele>
        <time>2025-10-18T07:40:37Z</time>
      </trkpt>
      <trkpt lat="43.22802" lon="5.50426">
        <ele>289.1</ele>
        <time>2025-10-18T07:40:38Z</time>
      </trkpt>
      <trkpt lat="43.22801" lon="5.50426">
        <ele>289.3</ele>
        <time>2025-10-18T07:40:39Z</time>
      </trkpt>
      <trkpt lat="43.22801" lon="5.50426">
        <ele>289.5</ele>
        <time>2025-10-18T07:40:40Z</time>
      </trkpt>
      <trkpt lat="43.228" lon="5.50426">
        <ele>289.6</ele>
        <time>2025-10-18T07:40:41Z</time>
      </trkpt>
      <trkpt lat="43.228" lon="5.50427">
        <ele>289.6</ele>
        <time>2025-10-18T07:40:42Z</time>
      </trkpt>
      <trkpt lat="43.22799" lon="5.50427">
        <ele>289.6</ele>
        <time>2025-10-18T07:40:43Z</time>
      </trkpt>
      <trkpt lat="43.22798" lon="5.50427">
        <ele>289.7</ele>
        <time>2025-10-18T07:40:44Z</time>
      </trkpt>
      <trkpt lat="43.22798" lon="5.50428">
        <ele>289.8</ele>
        <time>2025-10-18T07:40:45Z</time>
      </trkpt>
      <trkpt lat="43.22797" lon="5.50428">
        <ele>290</ele>
        <time>2025-10-18T07:40:46Z</time>
      </trkpt>
      <trkpt lat="43.22796" lon="5.50429">
        <ele>290.2</ele>
        <time>2025-10-18T07:40:47Z</time>
      </trkpt>
      <trkpt lat="43.22796" lon="5.50429">
        <ele>290.3</ele>
        <time>2025-10-18T07:40:48Z</time>
      </trkpt>
      <trkpt lat="43.22795" lon="5.50429">
        <ele>290.4</ele>
        <time>2025-10-18T07:40:49Z</time>
      </trkpt>
      <trkpt lat="43.22795" lon="5.50429">
        <ele>290.5</ele>
        <time>2025-10-18T07:40:50Z</time>
      </trkpt>
      <trkpt lat="43.22794" lon="5.5043">
        <ele>290.6</ele>
        <time>2025-10-18T07:40:51Z</time>
      </trkpt>
      <trkpt lat="43.22793" lon="5.50429">
        <ele>290.6</ele>
        <time>2025-10-18T07:40:52Z</time>
      </trkpt>
      <trkpt lat="43.22792" lon="5.50429">
        <ele>290.7</ele>
        <time>2025-10-18T07:40:53Z</time>
      </trkpt>
      <trkpt lat="43.22792" lon="5.50429">
        <ele>290.7</ele>
        <time>2025-10-18T07:40:54Z</time>
      </trkpt>
      <trkpt lat="43.22791" lon="5.5043">
        <ele>290.7</ele>
        <time>2025-10-18T07:40:55Z</time>
      </trkpt>
      <trkpt lat="43.2279" lon="5.50431">
        <ele>290.8</ele>
        <time>2025-10-18T07:40:56Z</time>
      </trkpt>
      <trkpt lat="43.2279" lon="5.50431">
        <ele>290.9</ele>
        <time>2025-10-18T07:40:57Z</time>
      </trkpt>
      <trkpt lat="43.22789" lon="5.50432">
        <ele>291</ele>
        <time>2025-10-18T07:40:58Z</time>
      </trkpt>
      <trkpt lat="43.22788" lon="5.50432">
        <ele>291.1</ele>
        <time>2025-10-18T07:40:59Z</time>
      </trkpt>
      <trkpt lat="43.22787" lon="5.50433">
        <ele>291.2</ele>
        <time>2025-10-18T07:41:00Z</time>
      </trkpt>
      <trkpt lat="43.22787" lon="5.50433">
        <ele>291.3</ele>
        <time>2025-10-18T07:41:01Z</time>
      </trkpt>
      <trkpt lat="43.22786" lon="5.50434">
        <ele>291.4</ele>
        <time>2025-10-18T07:41:02Z</time>
      </trkpt>
      <trkpt lat="43.22786" lon="5.50435">
        <ele>291.4</ele>
        <time>2025-10-18T07:41:03Z</time>
      </trkpt>
      <trkpt lat="43.22785" lon="5.50436">
        <ele>291.5</ele>
        <time>2025-10-18T07:41:04Z</time>
      </trkpt>
      <trkpt lat="43.22784" lon="5.50437">
        <ele>291.7</ele>
        <time>2025-10-18T07:41:05Z</time>
      </trkpt>
      <trkpt lat="43.22784" lon="5.50437">
        <ele>291.8</ele>
        <time>2025-10-18T07:41:06Z</time>
      </trkpt>
      <trkpt lat="43.22783" lon="5.50437">
        <ele>292</ele>
        <time>2025-10-18T07:41:07Z</time>
      </trkpt>
      <trkpt lat="43.22782" lon="5.50438">
        <ele>292.1</ele>
        <time>2025-10-18T07:41:08Z</time>
      </trkpt>
      <trkpt lat="43.22781" lon="5.50438">
        <ele>292.1</ele>
        <time>2025-10-18T07:41:09Z</time>
      </trkpt>
      <trkpt lat="43.22781" lon="5.50438">
        <ele>292.2</ele>
        <time>2025-10-18T07:41:10Z</time>
      </trkpt>
      <trkpt lat="43.2278" lon="5.50439">
        <ele>292.3</ele>
        <time>2025-10-18T07:41:11Z</time>
      </trkpt>
      <trkpt lat="43.22779" lon="5.50439">
        <ele>292.4</ele>
        <time>2025-10-18T07:41:12Z</time>
      </trkpt>
      <trkpt lat="43.22779" lon="5.5044">
        <ele>292.5</ele>
        <time>2025-10-18T07:41:13Z</time>
      </trkpt>
      <trkpt lat="43.22777" lon="5.5044">
        <ele>292.6</ele>
        <time>2025-10-18T07:41:14Z</time>
      </trkpt>
      <trkpt lat="43.22776" lon="5.5044">
        <ele>292.7</ele>
        <time>2025-10-18T07:41:15Z</time>
      </trkpt>
      <trkpt lat="43.22775" lon="5.5044">
        <ele>292.9</ele>
        <time>2025-10-18T07:41:16Z</time>
      </trkpt>
      <trkpt lat="43.22775" lon="5.5044">
        <ele>293.1</ele>
        <time>2025-10-18T07:41:17Z</time>
      </trkpt>
      <trkpt lat="43.22774" lon="5.5044">
        <ele>293.2</ele>
        <time>2025-10-18T07:41:18Z</time>
      </trkpt>
      <trkpt lat="43.22773" lon="5.50441">
        <ele>293.3</ele>
        <time>2025-10-18T07:41:19Z</time>
      </trkpt>
      <trkpt lat="43.22772" lon="5.50441">
        <ele>293.4</ele>
        <time>2025-10-18T07:41:20Z</time>
      </trkpt>
      <trkpt lat="43.22772" lon="5.50442">
        <ele>293.5</ele>
        <time>2025-10-18T07:41:21Z</time>
      </trkpt>
      <trkpt lat="43.22771" lon="5.50442">
        <ele>293.6</ele>
        <time>2025-10-18T07:41:22Z</time>
      </trkpt>
      <trkpt lat="43.2277" lon="5.50443">
        <ele>293.7</ele>
        <time>2025-10-18T07:41:23Z</time>
      </trkpt>
      <trkpt lat="43.22769" lon="5.50443">
        <ele>293.7</ele>
        <time>2025-10-18T07:41:24Z</time>
      </trkpt>
      <trkpt lat="43.22768" lon="5.50443">
        <ele>293.8</ele>
        <time>2025-10-18T07:41:25Z</time>
      </trkpt>
      <trkpt lat="43.22767" lon="5.50443">
        <ele>293.9</ele>
        <time>2025-10-18T07:41:26Z</time>
      </trkpt>
      <trkpt lat="43.22766" lon="5.50443">
        <ele>294</ele>
        <time>2025-10-18T07:41:27Z</time>
      </trkpt>
      <trkpt lat="43.22765" lon="5.50443">
        <ele>294.3</ele>
        <time>2025-10-18T07:41:28Z</time>
      </trkpt>
      <trkpt lat="43.22765" lon="5.50442">
        <ele>294.3</ele>
        <time>2025-10-18T07:41:29Z</time>
      </trkpt>
      <trkpt lat="43.22764" lon="5.50442">
        <ele>294.4</ele>
        <time>2025-10-18T07:41:30Z</time>
      </trkpt>
      <trkpt lat="43.22763" lon="5.50442">
        <ele>294.5</ele>
        <time>2025-10-18T07:41:31Z</time>
      </trkpt>
      <trkpt lat="43.22762" lon="5.50442">
        <ele>294.5</ele>
        <time>2025-10-18T07:41:32Z</time>
      </trkpt>
      <trkpt lat="43.22762" lon="5.50442">
        <ele>294.7</ele>
        <time>2025-10-18T07:41:33Z</time>
      </trkpt>
      <trkpt lat="43.22761" lon="5.50442">
        <ele>294.8</ele>
        <time>2025-10-18T07:41:34Z</time>
      </trkpt>
      <trkpt lat="43.22761" lon="5.50442">
        <ele>294.9</ele>
        <time>2025-10-18T07:41:35Z</time>
      </trkpt>
      <trkpt lat="43.2276" lon="5.50442">
        <ele>295</ele>
        <time>2025-10-18T07:41:36Z</time>
      </trkpt>
      <trkpt lat="43.22759" lon="5.50442">
        <ele>295.1</ele>
        <time>2025-10-18T07:41:37Z</time>
      </trkpt>
      <trkpt lat="43.22758" lon="5.50441">
        <ele>295.2</ele>
        <time>2025-10-18T07:41:38Z</time>
      </trkpt>
      <trkpt lat="43.22758" lon="5.50441">
        <ele>295.4</ele>
        <time>2025-10-18T07:41:39Z</time>
      </trkpt>
      <trkpt lat="43.22757" lon="5.50441">
        <ele>295.5</ele>
        <time>2025-10-18T07:41:40Z</time>
      </trkpt>
      <trkpt lat="43.22756" lon="5.5044">
        <ele>295.6</ele>
        <time>2025-10-18T07:41:41Z</time>
      </trkpt>
      <trkpt lat="43.22755" lon="5.50441">
        <ele>295.7</ele>
        <time>2025-10-18T07:41:42Z</time>
      </trkpt>
      <trkpt lat="43.22755" lon="5.50441">
        <ele>295.8</ele>
        <time>2025-10-18T07:41:43Z</time>
      </trkpt>
      <trkpt lat="43.22754" lon="5.50441">
        <ele>296</ele>
        <time>2025-10-18T07:41:44Z</time>
      </trkpt>
      <trkpt lat="43.22753" lon="5.5044">
        <ele>296.1</ele>
        <time>2025-10-18T07:41:45Z</time>
      </trkpt>
      <trkpt lat="43.22752" lon="5.5044">
        <ele>296.2</ele>
        <time>2025-10-18T07:41:46Z</time>
      </trkpt>
      <trkpt lat="43.22752" lon="5.5044">
        <ele>296.3</ele>
        <time>2025-10-18T07:41:47Z</time>
      </trkpt>
      <trkpt lat="43.22751" lon="5.50439">
        <ele>296.3</ele>
        <time>2025-10-18T07:41:48Z</time>
      </trkpt>
      <trkpt lat="43.22751" lon="5.50439">
        <ele>296.4</ele>
        <time>2025-10-18T07:41:49Z</time>
      </trkpt>
      <trkpt lat="43.2275" lon="5.50438">
        <ele>296.4</ele>
        <time>2025-10-18T07:41:50Z</time>
      </trkpt>
      <trkpt lat="43.2275" lon="5.50438">
        <ele>296.5</ele>
        <time>2025-10-18T07:41:51Z</time>
      </trkpt>
      <trkpt lat="43.22749" lon="5.50438">
        <ele>296.5</ele>
        <time>2025-10-18T07:41:52Z</time>
      </trkpt>
      <trkpt lat="43.22749" lon="5.50437">
        <ele>296.5</ele>
        <time>2025-10-18T07:41:53Z</time>
      </trkpt>
      <trkpt lat="43.22748" lon="5.50436">
        <ele>296.6</ele>
        <time>2025-10-18T07:41:54Z</time>
      </trkpt>
      <trkpt lat="43.22748" lon="5.50436">
        <ele>296.6</ele>
        <time>2025-10-18T07:41:55Z</time>
      </trkpt>
      <trkpt lat="43.22748" lon="5.50436">
        <ele>296.7</ele>
        <time>2025-10-18T07:41:56Z</time>
      </trkpt>
      <trkpt lat="43.22748" lon="5.50435">
        <ele>296.7</ele>
        <time>2025-10-18T07:41:57Z</time>
      </trkpt>
      <trkpt lat="43.22747" lon="5.50435">
        <ele>296.8</ele>
        <time>2025-10-18T07:41:58Z</time>
      </trkpt>
      <trkpt lat="43.22747" lon="5.50435">
        <ele>296.8</ele>
        <time>2025-10-18T07:41:59Z</time>
      </trkpt>
      <trkpt lat="43.22747" lon="5.50434">
        <ele>296.8</ele>
        <time>2025-10-18T07:42:00Z</time>
      </trkpt>
      <trkpt lat="43.22747" lon="5.50434">
        <ele>296.9</ele>
        <time>2025-10-18T07:42:01Z</time>
      </trkpt>
      <trkpt lat="43.22747" lon="5.50435">
        <ele>296.9</ele>
        <time>2025-10-18T07:42:02Z</time>
      </trkpt>
      <trkpt lat="43.22747" lon="5.50435">
        <ele>296.9</ele>
        <time>2025-10-18T07:42:03Z</time>
      </trkpt>
      <trkpt lat="43.22747" lon="5.50434">
        <ele>296.8</ele>
        <time>2025-10-18T07:42:04Z</time>
      </trkpt>
      <trkpt lat="43.22747" lon="5.50433">
        <ele>296.8</ele>
        <time>2025-10-18T07:42:05Z</time>
      </trkpt>
      <trkpt lat="43.22747" lon="5.50433">
        <ele>296.8</ele>
        <time>2025-10-18T07:42:06Z</time>
      </trkpt>
      <trkpt lat="43.22746" lon="5.50432">
        <ele>296.9</ele>
        <time>2025-10-18T07:42:07Z</time>
      </trkpt>
      <trkpt lat="43.22746" lon="5.50432">
        <ele>296.9</ele>
        <time>2025-10-18T07:42:08Z</time>
      </trkpt>
      <trkpt lat="43.22746" lon="5.50432">
        <ele>297</ele>
        <time>2025-10-18T07:42:09Z</time>
      </trkpt>
      <trkpt lat="43.22746" lon="5.50432">
        <ele>297</ele>
        <time>2025-10-18T07:42:10Z</time>
      </trkpt>
      <trkpt lat="43.22746" lon="5.50432">
        <ele>297</ele>
        <time>2025-10-18T07:42:11Z</time>
      </trkpt>
      <trkpt lat="43.22746" lon="5.50432">
        <ele>296.9</ele>
        <time>2025-10-18T07:42:12Z</time>
      </trkpt>
      <trkpt lat="43.22746" lon="5.50431">
        <ele>297</ele>
        <time>2025-10-18T07:42:13Z</time>
      </trkpt>
      <trkpt lat="43.22746" lon="5.50431">
        <ele>297</ele>
        <time>2025-10-18T07:42:14Z</time>
      </trkpt>
      <trkpt lat="43.22746" lon="5.50432">
        <ele>297</ele>
        <time>2025-10-18T07:42:15Z</time>
      </trkpt>
      <trkpt lat="43.22746" lon="5.50432">
        <ele>297</ele>
        <time>2025-10-18T07:42:16Z</time>
      </trkpt>
      <trkpt lat="43.22746" lon="5.50432">
        <ele>296.9</ele>
        <time>2025-10-18T07:42:17Z</time>
      </trkpt>
      <trkpt lat="43.22746" lon="5.50431">
        <ele>297</ele>
        <time>2025-10-18T07:42:18Z</time>
      </trkpt>
      <trkpt lat="43.22746" lon="5.50431">
        <ele>297</ele>
        <time>2025-10-18T07:42:19Z</time>
      </trkpt>
      <trkpt lat="43.22746" lon="5.5043">
        <ele>297.1</ele>
        <time>2025-10-18T07:42:20Z</time>
      </trkpt>
      <trkpt lat="43.22746" lon="5.50429">
        <ele>297.1</ele>
        <time>2025-10-18T07:42:21Z</time>
      </trkpt>
      <trkpt lat="43.22746" lon="5.50429">
        <ele>297.1</ele>
        <time>2025-10-18T07:42:22Z</time>
      </trkpt>
      <trkpt lat="43.22746" lon="5.50428">
        <ele>297.2</ele>
        <time>2025-10-18T07:42:23Z</time>
      </trkpt>
      <trkpt lat="43.22746" lon="5.50426">
        <ele>297.2</ele>
        <time>2025-10-18T07:42:24Z</time>
      </trkpt>
      <trkpt lat="43.22746" lon="5.50425">
        <ele>297.1</ele>
        <time>2025-10-18T07:42:25Z</time>
      </trkpt>
      <trkpt lat="43.22746" lon="5.50423">
        <ele>297.1</ele>
        <time>2025-10-18T07:42:26Z</time>
      </trkpt>
      <trkpt lat="43.22746" lon="5.50423">
        <ele>297.1</ele>
        <time>2025-10-18T07:42:27Z</time>
      </trkpt>
      <trkpt lat="43.22746" lon="5.50422">
        <ele>297.1</ele>
        <time>2025-10-18T07:42:28Z</time>
      </trkpt>
      <trkpt lat="43.22746" lon="5.50421">
        <ele>297.2</ele>
        <time>2025-10-18T07:42:29Z</time>
      </trkpt>
      <trkpt lat="43.22746" lon="5.5042">
        <ele>297.2</ele>
        <time>2025-10-18T07:42:30Z</time>
      </trkpt>
      <trkpt lat="43.22746" lon="5.50419">
        <ele>297.3</ele>
        <time>2025-10-18T07:42:31Z</time>
      </trkpt>
      <trkpt lat="43.22746" lon="5.50418">
        <ele>297.3</ele>
        <time>2025-10-18T07:42:32Z</time>
      </trkpt>
      <trkpt lat="43.22746" lon="5.50416">
        <ele>297.4</ele>
        <time>2025-10-18T07:42:33Z</time>
      </trkpt>
      <trkpt lat="43.22746" lon="5.50415">
        <ele>297.4</ele>
        <time>2025-10-18T07:42:34Z</time>
      </trkpt>
      <trkpt lat="43.22747" lon="5.50414">
        <ele>297.4</ele>
        <time>2025-10-18T07:42:35Z</time>
      </trkpt>
      <trkpt lat="43.22747" lon="5.50413">
        <ele>297.3</ele>
        <time>2025-10-18T07:42:36Z</time>
      </trkpt>
      <trkpt lat="43.22748" lon="5.50412">
        <ele>297.3</ele>
        <time>2025-10-18T07:42:37Z</time>
      </trkpt>
      <trkpt lat="43.22748" lon="5.50411">
        <ele>297.4</ele>
        <time>2025-10-18T07:42:38Z</time>
      </trkpt>
      <trkpt lat="43.22749" lon="5.5041">
        <ele>297.5</ele>
        <time>2025-10-18T07:42:39Z</time>
      </trkpt>
      <trkpt lat="43.2275" lon="5.50409">
        <ele>297.5</ele>
        <time>2025-10-18T07:42:40Z</time>
      </trkpt>
      <trkpt lat="43.2275" lon="5.50408">
        <ele>297.6</ele>
        <time>2025-10-18T07:42:41Z</time>
      </trkpt>
      <trkpt lat="43.22751" lon="5.50406">
        <ele>297.7</ele>
        <time>2025-10-18T07:42:42Z</time>
      </trkpt>
      <trkpt lat="43.22752" lon="5.50405">
        <ele>297.7</ele>
        <time>2025-10-18T07:42:43Z</time>
      </trkpt>
      <trkpt lat="43.22752" lon="5.50404">
        <ele>297.6</ele>
        <time>2025-10-18T07:42:44Z</time>
      </trkpt>
      <trkpt lat="43.22753" lon="5.50403">
        <ele>297.6</ele>
        <time>2025-10-18T07:42:45Z</time>
      </trkpt>
      <trkpt lat="43.22754" lon="5.50402">
        <ele>297.5</ele>
        <time>2025-10-18T07:42:46Z</time>
      </trkpt>
      <trkpt lat="43.22754" lon="5.50401">
        <ele>297.7</ele>
        <time>2025-10-18T07:42:47Z</time>
      </trkpt>
      <trkpt lat="43.22755" lon="5.50399">
        <ele>297.8</ele>
        <time>2025-10-18T07:42:48Z</time>
      </trkpt>
      <trkpt lat="43.22755" lon="5.50398">
        <ele>297.8</ele>
        <time>2025-10-18T07:42:49Z</time>
      </trkpt>
      <trkpt lat="43.22756" lon="5.50396">
        <ele>297.9</ele>
        <time>2025-10-18T07:42:50Z</time>
      </trkpt>
      <trkpt lat="43.22756" lon="5.50395">
        <ele>297.9</ele>
        <time>2025-10-18T07:42:51Z</time>
      </trkpt>
      <trkpt lat="43.22756" lon="5.50394">
        <ele>298</ele>
        <time>2025-10-18T07:42:52Z</time>
      </trkpt>
      <trkpt lat="43.22756" lon="5.50392">
        <ele>298</ele>
        <time>2025-10-18T07:42:53Z</time>
      </trkpt>
      <trkpt lat="43.22756" lon="5.50391">
        <ele>298.1</ele>
        <time>2025-10-18T07:42:54Z</time>
      </trkpt>
      <trkpt lat="43.22757" lon="5.50389">
        <ele>298.1</ele>
        <time>2025-10-18T07:42:55Z</time>
      </trkpt>
      <trkpt lat="43.22756" lon="5.50388">
        <ele>298.1</ele>
        <time>2025-10-18T07:42:56Z</time>
      </trkpt>
      <trkpt lat="43.22756" lon="5.50386">
        <ele>298.1</ele>
        <time>2025-10-18T07:42:57Z</time>
      </trkpt>
      <trkpt lat="43.22756" lon="5.50385">
        <ele>298.2</ele>
        <time>2025-10-18T07:42:58Z</time>
      </trkpt>
      <trkpt lat="43.22756" lon="5.50383">
        <ele>298.3</ele>
        <time>2025-10-18T07:42:59Z</time>
      </trkpt>
      <trkpt lat="43.22755" lon="5.50381">
        <ele>298.4</ele>
        <time>2025-10-18T07:43:00Z</time>
      </trkpt>
      <trkpt lat="43.22755" lon="5.5038">
        <ele>298.5</ele>
        <time>2025-10-18T07:43:01Z</time>
      </trkpt>
      <trkpt lat="43.22754" lon="5.50378">
        <ele>298.5</ele>
        <time>2025-10-18T07:43:02Z</time>
      </trkpt>
      <trkpt lat="43.22754" lon="5.50377">
        <ele>298.7</ele>
        <time>2025-10-18T07:43:03Z</time>
      </trkpt>
      <trkpt lat="43.22754" lon="5.50375">
        <ele>298.9</ele>
        <time>2025-10-18T07:43:04Z</time>
      </trkpt>
      <trkpt lat="43.22754" lon="5.50374">
        <ele>299.1</ele>
        <time>2025-10-18T07:43:05Z</time>
      </trkpt>
      <trkpt lat="43.22753" lon="5.50372">
        <ele>299.3</ele>
        <time>2025-10-18T07:43:06Z</time>
      </trkpt>
      <trkpt lat="43.22753" lon="5.50371">
        <ele>299.3</ele>
        <time>2025-10-18T07:43:07Z</time>
      </trkpt>
      <trkpt lat="43.22752" lon="5.50369">
        <ele>299.5</ele>
        <time>2025-10-18T07:43:08Z</time>
      </trkpt>
      <trkpt lat="43.22752" lon="5.50368">
        <ele>299.8</ele>
        <time>2025-10-18T07:43:09Z</time>
      </trkpt>
      <trkpt lat="43.22751" lon="5.50366">
        <ele>299.9</ele>
        <time>2025-10-18T07:43:10Z</time>
      </trkpt>
      <trkpt lat="43.22751" lon="5.50365">
        <ele>300</ele>
        <time>2025-10-18T07:43:11Z</time>
      </trkpt>
      <trkpt lat="43.2275" lon="5.50363">
        <ele>300</ele>
        <time>2025-10-18T07:43:12Z</time>
      </trkpt>
      <trkpt lat="43.2275" lon="5.50361">
        <ele>300.2</ele>
        <time>2025-10-18T07:43:13Z</time>
      </trkpt>
      <trkpt lat="43.22749" lon="5.5036">
        <ele>300.2</ele>
        <time>2025-10-18T07:43:14Z</time>
      </trkpt>
      <trkpt lat="43.22749" lon="5.50358">
        <ele>300.2</ele>
        <time>2025-10-18T07:43:15Z</time>
      </trkpt>
      <trkpt lat="43.22748" lon="5.50356">
        <ele>300.3</ele>
        <time>2025-10-18T07:43:16Z</time>
      </trkpt>
      <trkpt lat="43.22748" lon="5.50355">
        <ele>300.3</ele>
        <time>2025-10-18T07:43:17Z</time>
      </trkpt>
      <trkpt lat="43.22748" lon="5.50353">
        <ele>300.4</ele>
        <time>2025-10-18T07:43:18Z</time>
      </trkpt>
      <trkpt lat="43.22747" lon="5.50352">
        <ele>300.5</ele>
        <time>2025-10-18T07:43:19Z</time>
      </trkpt>
      <trkpt lat="43.22747" lon="5.5035">
        <ele>300.7</ele>
        <time>2025-10-18T07:43:20Z</time>
      </trkpt>
      <trkpt lat="43.22747" lon="5.50349">
        <ele>300.8</ele>
        <time>2025-10-18T07:43:21Z</time>
      </trkpt>
      <trkpt lat="43.22747" lon="5.50347">
        <ele>300.9</ele>
        <time>2025-10-18T07:43:22Z</time>
      </trkpt>
      <trkpt lat="43.22747" lon="5.50346">
        <ele>301</ele>
        <time>2025-10-18T07:43:23Z</time>
      </trkpt>
      <trkpt lat="43.22747" lon="5.50344">
        <ele>301.1</ele>
        <time>2025-10-18T07:43:24Z</time>
      </trkpt>
      <trkpt lat="43.22747" lon="5.50343">
        <ele>301.2</ele>
        <time>2025-10-18T07:43:25Z</time>
      </trkpt>
      <trkpt lat="43.22747" lon="5.50341">
        <ele>301.3</ele>
        <time>2025-10-18T07:43:26Z</time>
      </trkpt>
      <trkpt lat="43.22747" lon="5.5034">
        <ele>301.4</ele>
        <time>2025-10-18T07:43:27Z</time>
      </trkpt>
      <trkpt lat="43.22747" lon="5.50339">
        <ele>301.6</ele>
        <time>2025-10-18T07:43:28Z</time>
      </trkpt>
      <trkpt lat="43.22747" lon="5.50338">
        <ele>301.7</ele>
        <time>2025-10-18T07:43:29Z</time>
      </trkpt>
      <trkpt lat="43.22747" lon="5.50337">
        <ele>301.8</ele>
        <time>2025-10-18T07:43:30Z</time>
      </trkpt>
      <trkpt lat="43.22748" lon="5.50335">
        <ele>301.9</ele>
        <time>2025-10-18T07:43:31Z</time>
      </trkpt>
      <trkpt lat="43.22748" lon="5.50334">
        <ele>301.9</ele>
        <time>2025-10-18T07:43:32Z</time>
      </trkpt>
      <trkpt lat="43.22748" lon="5.50332">
        <ele>302</ele>
        <time>2025-10-18T07:43:33Z</time>
      </trkpt>
      <trkpt lat="43.22748" lon="5.50331">
        <ele>302.1</ele>
        <time>2025-10-18T07:43:34Z</time>
      </trkpt>
      <trkpt lat="43.22748" lon="5.5033">
        <ele>302.3</ele>
        <time>2025-10-18T07:43:35Z</time>
      </trkpt>
      <trkpt lat="43.22749" lon="5.5033">
        <ele>302.4</ele>
        <time>2025-10-18T07:43:36Z</time>
      </trkpt>
      <trkpt lat="43.22749" lon="5.50329">
        <ele>302.5</ele>
        <time>2025-10-18T07:43:37Z</time>
      </trkpt>
      <trkpt lat="43.22749" lon="5.50328">
        <ele>302.5</ele>
        <time>2025-10-18T07:43:38Z</time>
      </trkpt>
      <trkpt lat="43.22749" lon="5.50328">
        <ele>302.7</ele>
        <time>2025-10-18T07:43:39Z</time>
      </trkpt>
      <trkpt lat="43.22749" lon="5.50327">
        <ele>302.8</ele>
        <time>2025-10-18T07:43:40Z</time>
      </trkpt>
      <trkpt lat="43.22749" lon="5.50326">
        <ele>303</ele>
        <time>2025-10-18T07:43:41Z</time>
      </trkpt>
      <trkpt lat="43.2275" lon="5.50325">
        <ele>303.1</ele>
        <time>2025-10-18T07:43:42Z</time>
      </trkpt>
      <trkpt lat="43.2275" lon="5.50324">
        <ele>303.3</ele>
        <time>2025-10-18T07:43:43Z</time>
      </trkpt>
      <trkpt lat="43.2275" lon="5.50322">
        <ele>303.4</ele>
        <time>2025-10-18T07:43:44Z</time>
      </trkpt>
      <trkpt lat="43.2275" lon="5.50321">
        <ele>303.6</ele>
        <time>2025-10-18T07:43:45Z</time>
      </trkpt>
      <trkpt lat="43.2275" lon="5.5032">
        <ele>303.7</ele>
        <time>2025-10-18T07:43:46Z</time>
      </trkpt>
      <trkpt lat="43.22751" lon="5.50319">
        <ele>303.7</ele>
        <time>2025-10-18T07:43:47Z</time>
      </trkpt>
      <trkpt lat="43.22751" lon="5.50318">
        <ele>303.8</ele>
        <time>2025-10-18T07:43:48Z</time>
      </trkpt>
      <trkpt lat="43.22751" lon="5.50317">
        <ele>304</ele>
        <time>2025-10-18T07:43:49Z</time>
      </trkpt>
      <trkpt lat="43.22751" lon="5.50316">
        <ele>304.1</ele>
        <time>2025-10-18T07:43:50Z</time>
      </trkpt>
      <trkpt lat="43.22751" lon="5.50315">
        <ele>304.2</ele>
        <time>2025-10-18T07:43:51Z</time>
      </trkpt>
      <trkpt lat="43.2275" lon="5.50313">
        <ele>304.3</ele>
        <time>2025-10-18T07:43:52Z</time>
      </trkpt>
      <trkpt lat="43.22751" lon="5.50312">
        <ele>304.4</ele>
        <time>2025-10-18T07:43:53Z</time>
      </trkpt>
      <trkpt lat="43.22751" lon="5.50311">
        <ele>304.5</ele>
        <time>2025-10-18T07:43:54Z</time>
      </trkpt>
      <trkpt lat="43.22751" lon="5.5031">
        <ele>304.5</ele>
        <time>2025-10-18T07:43:55Z</time>
      </trkpt>
      <trkpt lat="43.22752" lon="5.50309">
        <ele>304.7</ele>
        <time>2025-10-18T07:43:56Z</time>
      </trkpt>
      <trkpt lat="43.22752" lon="5.50308">
        <ele>304.8</ele>
        <time>2025-10-18T07:43:57Z</time>
      </trkpt>
      <trkpt lat="43.22753" lon="5.50307">
        <ele>304.9</ele>
        <time>2025-10-18T07:43:58Z</time>
      </trkpt>
      <trkpt lat="43.22753" lon="5.50306">
        <ele>305.1</ele>
        <time>2025-10-18T07:43:59Z</time>
      </trkpt>
      <trkpt lat="43.22753" lon="5.50305">
        <ele>305.2</ele>
        <time>2025-10-18T07:44:00Z</time>
      </trkpt>
      <trkpt lat="43.22754" lon="5.50304">
        <ele>305.3</ele>
        <time>2025-10-18T07:44:01Z</time>
      </trkpt>
      <trkpt lat="43.22754" lon="5.50303">
        <ele>305.5</ele>
        <time>2025-10-18T07:44:02Z</time>
      </trkpt>
      <trkpt lat="43.22754" lon="5.50302">
        <ele>305.6</ele>
        <time>2025-10-18T07:44:03Z</time>
      </trkpt>
      <trkpt lat="43.22754" lon="5.50301">
        <ele>305.7</ele>
        <time>2025-10-18T07:44:04Z</time>
      </trkpt>
      <trkpt lat="43.22754" lon="5.503">
        <ele>305.8</ele>
        <time>2025-10-18T07:44:05Z</time>
      </trkpt>
      <trkpt lat="43.22754" lon="5.50299">
        <ele>305.9</ele>
        <time>2025-10-18T07:44:06Z</time>
      </trkpt>
      <trkpt lat="43.22753" lon="5.50298">
        <ele>306</ele>
        <time>2025-10-18T07:44:07Z</time>
      </trkpt>
      <trkpt lat="43.22753" lon="5.50297">
        <ele>306.2</ele>
        <time>2025-10-18T07:44:08Z</time>
      </trkpt>
      <trkpt lat="43.22753" lon="5.50296">
        <ele>306.4</ele>
        <time>2025-10-18T07:44:09Z</time>
      </trkpt>
      <trkpt lat="43.22753" lon="5.50296">
        <ele>306.5</ele>
        <time>2025-10-18T07:44:10Z</time>
      </trkpt>
      <trkpt lat="43.22754" lon="5.50295">
        <ele>306.6</ele>
        <time>2025-10-18T07:44:11Z</time>
      </trkpt>
      <trkpt lat="43.22755" lon="5.50293">
        <ele>306.8</ele>
        <time>2025-10-18T07:44:12Z</time>
      </trkpt>
      <trkpt lat="43.22755" lon="5.50292">
        <ele>306.9</ele>
        <time>2025-10-18T07:44:13Z</time>
      </trkpt>
      <trkpt lat="43.22755" lon="5.50291">
        <ele>307</ele>
        <time>2025-10-18T07:44:14Z</time>
      </trkpt>
      <trkpt lat="43.22755" lon="5.5029">
        <ele>307.1</ele>
        <time>2025-10-18T07:44:15Z</time>
      </trkpt>
      <trkpt lat="43.22756" lon="5.50288">
        <ele>307.3</ele>
        <time>2025-10-18T07:44:16Z</time>
      </trkpt>
      <trkpt lat="43.22756" lon="5.50287">
        <ele>307.4</ele>
        <time>2025-10-18T07:44:17Z</time>
      </trkpt>
      <trkpt lat="43.22756" lon="5.50286">
        <ele>307.5</ele>
        <time>2025-10-18T07:44:18Z</time>
      </trkpt>
      <trkpt lat="43.22757" lon="5.50285">
        <ele>307.5</ele>
        <time>2025-10-18T07:44:19Z</time>
      </trkpt>
      <trkpt lat="43.22757" lon="5.50284">
        <ele>307.6</ele>
        <time>2025-10-18T07:44:20Z</time>
      </trkpt>
      <trkpt lat="43.22758" lon="5.50283">
        <ele>307.7</ele>
        <time>2025-10-18T07:44:21Z</time>
      </trkpt>
      <trkpt lat="43.22758" lon="5.50282">
        <ele>307.8</ele>
        <time>2025-10-18T07:44:22Z</time>
      </trkpt>
      <trkpt lat="43.22758" lon="5.50281">
        <ele>307.9</ele>
        <time>2025-10-18T07:44:23Z</time>
      </trkpt>
      <trkpt lat="43.22758" lon="5.5028">
        <ele>308</ele>
        <time>2025-10-18T07:44:24Z</time>
      </trkpt>
      <trkpt lat="43.22758" lon="5.50279">
        <ele>308.1</ele>
        <time>2025-10-18T07:44:25Z</time>
      </trkpt>
      <trkpt lat="43.22759" lon="5.50278">
        <ele>308.3</ele>
        <time>2025-10-18T07:44:26Z</time>
      </trkpt>
      <trkpt lat="43.22759" lon="5.50276">
        <ele>308.4</ele>
        <time>2025-10-18T07:44:27Z</time>
      </trkpt>
      <trkpt lat="43.22759" lon="5.50275">
        <ele>308.5</ele>
        <time>2025-10-18T07:44:28Z</time>
      </trkpt>
      <trkpt lat="43.2276" lon="5.50273">
        <ele>308.5</ele>
        <time>2025-10-18T07:44:29Z</time>
      </trkpt>
      <trkpt lat="43.22761" lon="5.50272">
        <ele>308.6</ele>
        <time>2025-10-18T07:44:30Z</time>
      </trkpt>
      <trkpt lat="43.22761" lon="5.5027">
        <ele>308.6</ele>
        <time>2025-10-18T07:44:31Z</time>
      </trkpt>
      <trkpt lat="43.22761" lon="5.50269">
        <ele>308.8</ele>
        <time>2025-10-18T07:44:32Z</time>
      </trkpt>
      <trkpt lat="43.22761" lon="5.50268">
        <ele>308.8</ele>
        <time>2025-10-18T07:44:33Z</time>
      </trkpt>
      <trkpt lat="43.22761" lon="5.50267">
        <ele>308.9</ele>
        <time>2025-10-18T07:44:34Z</time>
      </trkpt>
      <trkpt lat="43.22761" lon="5.50266">
        <ele>309</ele>
        <time>2025-10-18T07:44:35Z</time>
      </trkpt>
      <trkpt lat="43.22761" lon="5.50265">
        <ele>309</ele>
        <time>2025-10-18T07:44:36Z</time>
      </trkpt>
      <trkpt lat="43.22761" lon="5.50263">
        <ele>309.1</ele>
        <time>2025-10-18T07:44:37Z</time>
      </trkpt>
      <trkpt lat="43.22761" lon="5.50261">
        <ele>309.1</ele>
        <time>2025-10-18T07:44:38Z</time>
      </trkpt>
      <trkpt lat="43.22761" lon="5.50259">
        <ele>309.3</ele>
        <time>2025-10-18T07:44:39Z</time>
      </trkpt>
      <trkpt lat="43.22762" lon="5.50258">
        <ele>309.4</ele>
        <time>2025-10-18T07:44:40Z</time>
      </trkpt>
      <trkpt lat="43.22762" lon="5.50257">
        <ele>309.5</ele>
        <time>2025-10-18T07:44:41Z</time>
      </trkpt>
      <trkpt lat="43.22762" lon="5.50256">
        <ele>309.5</ele>
        <time>2025-10-18T07:44:42Z</time>
      </trkpt>
      <trkpt lat="43.22762" lon="5.50255">
        <ele>309.6</ele>
        <time>2025-10-18T07:44:43Z</time>
      </trkpt>
      <trkpt lat="43.22763" lon="5.50254">
        <ele>309.7</ele>
        <time>2025-10-18T07:44:44Z</time>
      </trkpt>
      <trkpt lat="43.22763" lon="5.50253">
        <ele>309.7</ele>
        <time>2025-10-18T07:44:45Z</time>
      </trkpt>
      <trkpt lat="43.22764" lon="5.50252">
        <ele>309.8</ele>
        <time>2025-10-18T07:44:46Z</time>
      </trkpt>
      <trkpt lat="43.22764" lon="5.50251">
        <ele>310</ele>
        <time>2025-10-18T07:44:47Z</time>
      </trkpt>
      <trkpt lat="43.22765" lon="5.50249">
        <ele>310</ele>
        <time>2025-10-18T07:44:48Z</time>
      </trkpt>
      <trkpt lat="43.22765" lon="5.50248">
        <ele>310.2</ele>
        <time>2025-10-18T07:44:49Z</time>
      </trkpt>
      <trkpt lat="43.22765" lon="5.50247">
        <ele>310.3</ele>
        <time>2025-10-18T07:44:50Z</time>
      </trkpt>
      <trkpt lat="43.22765" lon="5.50245">
        <ele>310.4</ele>
        <time>2025-10-18T07:44:51Z</time>
      </trkpt>
      <trkpt lat="43.22765" lon="5.50244">
        <ele>310.5</ele>
        <time>2025-10-18T07:44:52Z</time>
      </trkpt>
      <trkpt lat="43.22766" lon="5.50243">
        <ele>310.5</ele>
        <time>2025-10-18T07:44:53Z</time>
      </trkpt>
      <trkpt lat="43.22766" lon="5.50242">
        <ele>310.7</ele>
        <time>2025-10-18T07:44:54Z</time>
      </trkpt>
      <trkpt lat="43.22767" lon="5.5024">
        <ele>310.7</ele>
        <time>2025-10-18T07:44:55Z</time>
      </trkpt>
      <trkpt lat="43.22767" lon="5.50239">
        <ele>310.8</ele>
        <time>2025-10-18T07:44:56Z</time>
      </trkpt>
      <trkpt lat="43.22768" lon="5.50237">
        <ele>310.9</ele>
        <time>2025-10-18T07:44:57Z</time>
      </trkpt>
      <trkpt lat="43.22769" lon="5.50236">
        <ele>311</ele>
        <time>2025-10-18T07:44:58Z</time>
      </trkpt>
      <trkpt lat="43.22769" lon="5.50235">
        <ele>311.1</ele>
        <time>2025-10-18T07:44:59Z</time>
      </trkpt>
      <trkpt lat="43.22769" lon="5.50233">
        <ele>311.2</ele>
        <time>2025-10-18T07:45:00Z</time>
      </trkpt>
      <trkpt lat="43.22769" lon="5.50232">
        <ele>311.3</ele>
        <time>2025-10-18T07:45:01Z</time>
      </trkpt>
      <trkpt lat="43.22769" lon="5.50231">
        <ele>311.3</ele>
        <time>2025-10-18T07:45:02Z</time>
      </trkpt>
      <trkpt lat="43.22769" lon="5.5023">
        <ele>311.3</ele>
        <time>2025-10-18T07:45:03Z</time>
      </trkpt>
      <trkpt lat="43.22769" lon="5.50229">
        <ele>311.3</ele>
        <time>2025-10-18T07:45:04Z</time>
      </trkpt>
      <trkpt lat="43.2277" lon="5.50227">
        <ele>311.4</ele>
        <time>2025-10-18T07:45:05Z</time>
      </trkpt>
      <trkpt lat="43.2277" lon="5.50226">
        <ele>311.5</ele>
        <time>2025-10-18T07:45:06Z</time>
      </trkpt>
      <trkpt lat="43.2277" lon="5.50226">
        <ele>311.6</ele>
        <time>2025-10-18T07:45:07Z</time>
      </trkpt>
      <trkpt lat="43.2277" lon="5.50225">
        <ele>311.7</ele>
        <time>2025-10-18T07:45:08Z</time>
      </trkpt>
      <trkpt lat="43.22771" lon="5.50224">
        <ele>311.8</ele>
        <time>2025-10-18T07:45:09Z</time>
      </trkpt>
      <trkpt lat="43.22771" lon="5.50222">
        <ele>312</ele>
        <time>2025-10-18T07:45:10Z</time>
      </trkpt>
      <trkpt lat="43.22771" lon="5.50221">
        <ele>312.1</ele>
        <time>2025-10-18T07:45:11Z</time>
      </trkpt>
      <trkpt lat="43.22771" lon="5.5022">
        <ele>312.2</ele>
        <time>2025-10-18T07:45:12Z</time>
      </trkpt>
      <trkpt lat="43.22771" lon="5.50219">
        <ele>312.3</ele>
        <time>2025-10-18T07:45:13Z</time>
      </trkpt>
      <trkpt lat="43.22771" lon="5.50218">
        <ele>312.4</ele>
        <time>2025-10-18T07:45:14Z</time>
      </trkpt>
      <trkpt lat="43.22771" lon="5.50216">
        <ele>312.5</ele>
        <time>2025-10-18T07:45:15Z</time>
      </trkpt>
      <trkpt lat="43.22771" lon="5.50215">
        <ele>312.7</ele>
        <time>2025-10-18T07:45:16Z</time>
      </trkpt>
      <trkpt lat="43.22771" lon="5.50214">
        <ele>312.8</ele>
        <time>2025-10-18T07:45:17Z</time>
      </trkpt>
      <trkpt lat="43.22772" lon="5.50213">
        <ele>312.9</ele>
        <time>2025-10-18T07:45:18Z</time>
      </trkpt>
      <trkpt lat="43.22773" lon="5.50211">
        <ele>312.9</ele>
        <time>2025-10-18T07:45:19Z</time>
      </trkpt>
      <trkpt lat="43.22773" lon="5.5021">
        <ele>313</ele>
        <time>2025-10-18T07:45:20Z</time>
      </trkpt>
      <trkpt lat="43.22773" lon="5.50208">
        <ele>313.2</ele>
        <time>2025-10-18T07:45:21Z</time>
      </trkpt>
      <trkpt lat="43.22774" lon="5.50206">
        <ele>313.4</ele>
        <time>2025-10-18T07:45:22Z</time>
      </trkpt>
      <trkpt lat="43.22774" lon="5.50205">
        <ele>313.6</ele>
        <time>2025-10-18T07:45:23Z</time>
      </trkpt>
      <trkpt lat="43.22774" lon="5.50204">
        <ele>313.7</ele>
        <time>2025-10-18T07:45:24Z</time>
      </trkpt>
      <trkpt lat="43.22773" lon="5.50203">
        <ele>313.8</ele>
        <time>2025-10-18T07:45:25Z</time>
      </trkpt>
      <trkpt lat="43.22773" lon="5.50202">
        <ele>314</ele>
        <time>2025-10-18T07:45:26Z</time>
      </trkpt>
      <trkpt lat="43.22773" lon="5.50201">
        <ele>314.1</ele>
        <time>2025-10-18T07:45:27Z</time>
      </trkpt>
      <trkpt lat="43.22774" lon="5.502">
        <ele>314.3</ele>
        <time>2025-10-18T07:45:28Z</time>
      </trkpt>
      <trkpt lat="43.22774" lon="5.50199">
        <ele>314.5</ele>
        <time>2025-10-18T07:45:29Z</time>
      </trkpt>
      <trkpt lat="43.22773" lon="5.50198">
        <ele>314.6</ele>
        <time>2025-10-18T07:45:30Z</time>
      </trkpt>
      <trkpt lat="43.22774" lon="5.50196">
        <ele>314.7</ele>
        <time>2025-10-18T07:45:31Z</time>
      </trkpt>
      <trkpt lat="43.22774" lon="5.50195">
        <ele>314.9</ele>
        <time>2025-10-18T07:45:32Z</time>
      </trkpt>
      <trkpt lat="43.22774" lon="5.50194">
        <ele>315.1</ele>
        <time>2025-10-18T07:45:33Z</time>
      </trkpt>
      <trkpt lat="43.22774" lon="5.50192">
        <ele>315.2</ele>
        <time>2025-10-18T07:45:34Z</time>
      </trkpt>
      <trkpt lat="43.22774" lon="5.50191">
        <ele>315.4</ele>
        <time>2025-10-18T07:45:35Z</time>
      </trkpt>
      <trkpt lat="43.22775" lon="5.50191">
        <ele>315.5</ele>
        <time>2025-10-18T07:45:36Z</time>
      </trkpt>
      <trkpt lat="43.22774" lon="5.50189">
        <ele>315.6</ele>
        <time>2025-10-18T07:45:37Z</time>
      </trkpt>
      <trkpt lat="43.22775" lon="5.50188">
        <ele>315.6</ele>
        <time>2025-10-18T07:45:38Z</time>
      </trkpt>
      <trkpt lat="43.22774" lon="5.50186">
        <ele>315.6</ele>
        <time>2025-10-18T07:45:39Z</time>
      </trkpt>
      <trkpt lat="43.22775" lon="5.50185">
        <ele>315.8</ele>
        <time>2025-10-18T07:45:40Z</time>
      </trkpt>
      <trkpt lat="43.22774" lon="5.50183">
        <ele>315.8</ele>
        <time>2025-10-18T07:45:41Z</time>
      </trkpt>
      <trkpt lat="43.22774" lon="5.50182">
        <ele>316.1</ele>
        <time>2025-10-18T07:45:42Z</time>
      </trkpt>
      <trkpt lat="43.22774" lon="5.5018">
        <ele>316.2</ele>
        <time>2025-10-18T07:45:43Z</time>
      </trkpt>
      <trkpt lat="43.22774" lon="5.50179">
        <ele>316.3</ele>
        <time>2025-10-18T07:45:44Z</time>
      </trkpt>
      <trkpt lat="43.22773" lon="5.50178">
        <ele>316.5</ele>
        <time>2025-10-18T07:45:45Z</time>
      </trkpt>
      <trkpt lat="43.22773" lon="5.50176">
        <ele>316.5</ele>
        <time>2025-10-18T07:45:46Z</time>
      </trkpt>
      <trkpt lat="43.22772" lon="5.50175">
        <ele>316.7</ele>
        <time>2025-10-18T07:45:47Z</time>
      </trkpt>
      <trkpt lat="43.22772" lon="5.50174">
        <ele>316.8</ele>
        <time>2025-10-18T07:45:48Z</time>
      </trkpt>
      <trkpt lat="43.22772" lon="5.50172">
        <ele>316.9</ele>
        <time>2025-10-18T07:45:49Z</time>
      </trkpt>
      <trkpt lat="43.22772" lon="5.50171">
        <ele>316.9</ele>
        <time>2025-10-18T07:45:50Z</time>
      </trkpt>
      <trkpt lat="43.22772" lon="5.5017">
        <ele>317</ele>
        <time>2025-10-18T07:45:51Z</time>
      </trkpt>
      <trkpt lat="43.22772" lon="5.50169">
        <ele>317.1</ele>
        <time>2025-10-18T07:45:52Z</time>
      </trkpt>
      <trkpt lat="43.22772" lon="5.50168">
        <ele>317.2</ele>
        <time>2025-10-18T07:45:53Z</time>
      </trkpt>
      <trkpt lat="43.22772" lon="5.50166">
        <ele>317.4</ele>
        <time>2025-10-18T07:45:54Z</time>
      </trkpt>
      <trkpt lat="43.22772" lon="5.50165">
        <ele>317.5</ele>
        <time>2025-10-18T07:45:55Z</time>
      </trkpt>
      <trkpt lat="43.22772" lon="5.50164">
        <ele>317.7</ele>
        <time>2025-10-18T07:45:56Z</time>
      </trkpt>
      <trkpt lat="43.22772" lon="5.50162">
        <ele>317.8</ele>
        <time>2025-10-18T07:45:57Z</time>
      </trkpt>
      <trkpt lat="43.22771" lon="5.50162">
        <ele>317.9</ele>
        <time>2025-10-18T07:45:58Z</time>
      </trkpt>
      <trkpt lat="43.22771" lon="5.5016">
        <ele>318.1</ele>
        <time>2025-10-18T07:45:59Z</time>
      </trkpt>
      <trkpt lat="43.2277" lon="5.50159">
        <ele>318.2</ele>
        <time>2025-10-18T07:46:00Z</time>
      </trkpt>
      <trkpt lat="43.2277" lon="5.50158">
        <ele>318.3</ele>
        <time>2025-10-18T07:46:01Z</time>
      </trkpt>
      <trkpt lat="43.2277" lon="5.50156">
        <ele>318.5</ele>
        <time>2025-10-18T07:46:02Z</time>
      </trkpt>
      <trkpt lat="43.22771" lon="5.50155">
        <ele>318.7</ele>
        <time>2025-10-18T07:46:03Z</time>
      </trkpt>
      <trkpt lat="43.22771" lon="5.50153">
        <ele>318.8</ele>
        <time>2025-10-18T07:46:04Z</time>
      </trkpt>
      <trkpt lat="43.22771" lon="5.50152">
        <ele>318.9</ele>
        <time>2025-10-18T07:46:05Z</time>
      </trkpt>
      <trkpt lat="43.2277" lon="5.50151">
        <ele>319.1</ele>
        <time>2025-10-18T07:46:06Z</time>
      </trkpt>
      <trkpt lat="43.2277" lon="5.50149">
        <ele>319.2</ele>
        <time>2025-10-18T07:46:07Z</time>
      </trkpt>
      <trkpt lat="43.2277" lon="5.50147">
        <ele>319.4</ele>
        <time>2025-10-18T07:46:08Z</time>
      </trkpt>
      <trkpt lat="43.2277" lon="5.50145">
        <ele>319.5</ele>
        <time>2025-10-18T07:46:09Z</time>
      </trkpt>
      <trkpt lat="43.2277" lon="5.50142">
        <ele>319.6</ele>
        <time>2025-10-18T07:46:10Z</time>
      </trkpt>
      <trkpt lat="43.2277" lon="5.5014">
        <ele>319.6</ele>
        <time>2025-10-18T07:46:11Z</time>
      </trkpt>
      <trkpt lat="43.2277" lon="5.50139">
        <ele>319.7</ele>
        <time>2025-10-18T07:46:12Z</time>
      </trkpt>
      <trkpt lat="43.2277" lon="5.50137">
        <ele>319.8</ele>
        <time>2025-10-18T07:46:13Z</time>
      </trkpt>
      <trkpt lat="43.2277" lon="5.50135">
        <ele>320</ele>
        <time>2025-10-18T07:46:14Z</time>
      </trkpt>
      <trkpt lat="43.22769" lon="5.50134">
        <ele>320.2</ele>
        <time>2025-10-18T07:46:15Z</time>
      </trkpt>
      <trkpt lat="43.22769" lon="5.50132">
        <ele>320.4</ele>
        <time>2025-10-18T07:46:16Z</time>
      </trkpt>
      <trkpt lat="43.22768" lon="5.50131">
        <ele>320.5</ele>
        <time>2025-10-18T07:46:17Z</time>
      </trkpt>
      <trkpt lat="43.22768" lon="5.50129">
        <ele>320.6</ele>
        <time>2025-10-18T07:46:18Z</time>
      </trkpt>
      <trkpt lat="43.22768" lon="5.50127">
        <ele>320.6</ele>
        <time>2025-10-18T07:46:19Z</time>
      </trkpt>
      <trkpt lat="43.22768" lon="5.50126">
        <ele>320.7</ele>
        <time>2025-10-18T07:46:20Z</time>
      </trkpt>
      <trkpt lat="43.22767" lon="5.50124">
        <ele>320.8</ele>
        <time>2025-10-18T07:46:21Z</time>
      </trkpt>
      <trkpt lat="43.22767" lon="5.50123">
        <ele>320.8</ele>
        <time>2025-10-18T07:46:22Z</time>
      </trkpt>
      <trkpt lat="43.22766" lon="5.50121">
        <ele>320.9</ele>
        <time>2025-10-18T07:46:23Z</time>
      </trkpt>
      <trkpt lat="43.22766" lon="5.50119">
        <ele>320.9</ele>
        <time>2025-10-18T07:46:24Z</time>
      </trkpt>
      <trkpt lat="43.22765" lon="5.50117">
        <ele>321</ele>
        <time>2025-10-18T07:46:25Z</time>
      </trkpt>
      <trkpt lat="43.22765" lon="5.50116">
        <ele>321</ele>
        <time>2025-10-18T07:46:26Z</time>
      </trkpt>
      <trkpt lat="43.22764" lon="5.50114">
        <ele>321.1</ele>
        <time>2025-10-18T07:46:27Z</time>
      </trkpt>
      <trkpt lat="43.22764" lon="5.50113">
        <ele>321.2</ele>
        <time>2025-10-18T07:46:28Z</time>
      </trkpt>
      <trkpt lat="43.22763" lon="5.50111">
        <ele>321.2</ele>
        <time>2025-10-18T07:46:29Z</time>
      </trkpt>
      <trkpt lat="43.22763" lon="5.5011">
        <ele>321.2</ele>
        <time>2025-10-18T07:46:30Z</time>
      </trkpt>
      <trkpt lat="43.22762" lon="5.50108">
        <ele>321.3</ele>
        <time>2025-10-18T07:46:31Z</time>
      </trkpt>
      <trkpt lat="43.22761" lon="5.50107">
        <ele>321.4</ele>
        <time>2025-10-18T07:46:32Z</time>
      </trkpt>
      <trkpt lat="43.22761" lon="5.50105">
        <ele>321.4</ele>
        <time>2025-10-18T07:46:33Z</time>
      </trkpt>
      <trkpt lat="43.2276" lon="5.50104">
        <ele>321.5</ele>
        <time>2025-10-18T07:46:34Z</time>
      </trkpt>
      <trkpt lat="43.22759" lon="5.50102">
        <ele>321.5</ele>
        <time>2025-10-18T07:46:35Z</time>
      </trkpt>
      <trkpt lat="43.22759" lon="5.50101">
        <ele>321.6</ele>
        <time>2025-10-18T07:46:36Z</time>
      </trkpt>
      <trkpt lat="43.22758" lon="5.501">
        <ele>321.6</ele>
        <time>2025-10-18T07:46:37Z</time>
      </trkpt>
      <trkpt lat="43.22758" lon="5.50098">
        <ele>321.6</ele>
        <time>2025-10-18T07:46:38Z</time>
      </trkpt>
      <trkpt lat="43.22757" lon="5.50097">
        <ele>321.7</ele>
        <time>2025-10-18T07:46:39Z</time>
      </trkpt>
      <trkpt lat="43.22756" lon="5.50095">
        <ele>321.8</ele>
        <time>2025-10-18T07:46:40Z</time>
      </trkpt>
      <trkpt lat="43.22756" lon="5.50094">
        <ele>321.9</ele>
        <time>2025-10-18T07:46:41Z</time>
      </trkpt>
      <trkpt lat="43.22755" lon="5.50093">
        <ele>321.9</ele>
        <time>2025-10-18T07:46:42Z</time>
      </trkpt>
      <trkpt lat="43.22754" lon="5.50091">
        <ele>321.9</ele>
        <time>2025-10-18T07:46:43Z</time>
      </trkpt>
      <trkpt lat="43.22754" lon="5.5009">
        <ele>321.9</ele>
        <time>2025-10-18T07:46:44Z</time>
      </trkpt>
      <trkpt lat="43.22753" lon="5.50089">
        <ele>322</ele>
        <time>2025-10-18T07:46:45Z</time>
      </trkpt>
      <trkpt lat="43.22752" lon="5.50087">
        <ele>322</ele>
        <time>2025-10-18T07:46:46Z</time>
      </trkpt>
      <trkpt lat="43.22752" lon="5.50086">
        <ele>322.1</ele>
        <time>2025-10-18T07:46:47Z</time>
      </trkpt>
      <trkpt lat="43.22751" lon="5.50084">
        <ele>322.1</ele>
        <time>2025-10-18T07:46:48Z</time>
      </trkpt>
      <trkpt lat="43.2275" lon="5.50083">
        <ele>322.1</ele>
        <time>2025-10-18T07:46:49Z</time>
      </trkpt>
      <trkpt lat="43.2275" lon="5.50081">
        <ele>322.1</ele>
        <time>2025-10-18T07:46:50Z</time>
      </trkpt>
      <trkpt lat="43.22749" lon="5.5008">
        <ele>322.1</ele>
        <time>2025-10-18T07:46:51Z</time>
      </trkpt>
      <trkpt lat="43.22748" lon="5.50078">
        <ele>322.1</ele>
        <time>2025-10-18T07:46:52Z</time>
      </trkpt>
      <trkpt lat="43.22747" lon="5.50077">
        <ele>322.1</ele>
        <time>2025-10-18T07:46:53Z</time>
      </trkpt>
      <trkpt lat="43.22747" lon="5.50076">
        <ele>322.2</ele>
        <time>2025-10-18T07:46:54Z</time>
      </trkpt>
      <trkpt lat="43.22746" lon="5.50074">
        <ele>322.3</ele>
        <time>2025-10-18T07:46:55Z</time>
      </trkpt>
      <trkpt lat="43.22745" lon="5.50073">
        <ele>322.3</ele>
        <time>2025-10-18T07:46:56Z</time>
      </trkpt>
      <trkpt lat="43.22744" lon="5.50072">
        <ele>322.3</ele>
        <time>2025-10-18T07:46:57Z</time>
      </trkpt>
      <trkpt lat="43.22744" lon="5.50071">
        <ele>322.4</ele>
        <time>2025-10-18T07:46:58Z</time>
      </trkpt>
      <trkpt lat="43.22743" lon="5.50069">
        <ele>322.4</ele>
        <time>2025-10-18T07:46:59Z</time>
      </trkpt>
      <trkpt lat="43.22742" lon="5.50068">
        <ele>322.4</ele>
        <time>2025-10-18T07:47:00Z</time>
      </trkpt>
      <trkpt lat="43.22741" lon="5.50066">
        <ele>322.4</ele>
        <time>2025-10-18T07:47:01Z</time>
      </trkpt>
      <trkpt lat="43.22741" lon="5.50065">
        <ele>322.4</ele>
        <time>2025-10-18T07:47:02Z</time>
      </trkpt>
      <trkpt lat="43.2274" lon="5.50064">
        <ele>322.2</ele>
        <time>2025-10-18T07:47:03Z</time>
      </trkpt>
      <trkpt lat="43.22739" lon="5.50063">
        <ele>322.2</ele>
        <time>2025-10-18T07:47:04Z</time>
      </trkpt>
      <trkpt lat="43.22739" lon="5.50061">
        <ele>322.1</ele>
        <time>2025-10-18T07:47:05Z</time>
      </trkpt>
      <trkpt lat="43.22738" lon="5.5006">
        <ele>322.1</ele>
        <time>2025-10-18T07:47:06Z</time>
      </trkpt>
      <trkpt lat="43.22737" lon="5.50059">
        <ele>322.2</ele>
        <time>2025-10-18T07:47:07Z</time>
      </trkpt>
      <trkpt lat="43.22736" lon="5.50057">
        <ele>322</ele>
        <time>2025-10-18T07:47:08Z</time>
      </trkpt>
      <trkpt lat="43.22735" lon="5.50056">
        <ele>322</ele>
        <time>2025-10-18T07:47:09Z</time>
      </trkpt>
      <trkpt lat="43.22735" lon="5.50055">
        <ele>321.9</ele>
        <time>2025-10-18T07:47:10Z</time>
      </trkpt>
      <trkpt lat="43.22734" lon="5.50053">
        <ele>322</ele>
        <time>2025-10-18T07:47:11Z</time>
      </trkpt>
      <trkpt lat="43.22734" lon="5.50052">
        <ele>322</ele>
        <time>2025-10-18T07:47:12Z</time>
      </trkpt>
      <trkpt lat="43.22733" lon="5.5005">
        <ele>322</ele>
        <time>2025-10-18T07:47:13Z</time>
      </trkpt>
      <trkpt lat="43.22732" lon="5.50049">
        <ele>322</ele>
        <time>2025-10-18T07:47:14Z</time>
      </trkpt>
      <trkpt lat="43.22731" lon="5.50048">
        <ele>322.1</ele>
        <time>2025-10-18T07:47:15Z</time>
      </trkpt>
      <trkpt lat="43.2273" lon="5.50047">
        <ele>322.1</ele>
        <time>2025-10-18T07:47:16Z</time>
      </trkpt>
      <trkpt lat="43.2273" lon="5.50045">
        <ele>322.1</ele>
        <time>2025-10-18T07:47:17Z</time>
      </trkpt>
      <trkpt lat="43.22729" lon="5.50044">
        <ele>322.1</ele>
        <time>2025-10-18T07:47:18Z</time>
      </trkpt>
      <trkpt lat="43.22728" lon="5.50043">
        <ele>322</ele>
        <time>2025-10-18T07:47:19Z</time>
      </trkpt>
      <trkpt lat="43.22728" lon="5.50042">
        <ele>321.9</ele>
        <time>2025-10-18T07:47:20Z</time>
      </trkpt>
      <trkpt lat="43.22727" lon="5.5004">
        <ele>321.9</ele>
        <time>2025-10-18T07:47:21Z</time>
      </trkpt>
      <trkpt lat="43.22726" lon="5.50039">
        <ele>321.8</ele>
        <time>2025-10-18T07:47:22Z</time>
      </trkpt>
      <trkpt lat="43.22726" lon="5.50037">
        <ele>321.8</ele>
        <time>2025-10-18T07:47:23Z</time>
      </trkpt>
      <trkpt lat="43.22725" lon="5.50036">
        <ele>321.9</ele>
        <time>2025-10-18T07:47:24Z</time>
      </trkpt>
      <trkpt lat="43.22724" lon="5.50034">
        <ele>321.9</ele>
        <time>2025-10-18T07:47:25Z</time>
      </trkpt>
      <trkpt lat="43.22724" lon="5.50033">
        <ele>321.9</ele>
        <time>2025-10-18T07:47:26Z</time>
      </trkpt>
      <trkpt lat="43.22723" lon="5.50032">
        <ele>322</ele>
        <time>2025-10-18T07:47:27Z</time>
      </trkpt>
      <trkpt lat="43.22723" lon="5.5003">
        <ele>322.1</ele>
        <time>2025-10-18T07:47:28Z</time>
      </trkpt>
      <trkpt lat="43.22722" lon="5.50029">
        <ele>322.2</ele>
        <time>2025-10-18T07:47:29Z</time>
      </trkpt>
      <trkpt lat="43.22722" lon="5.50027">
        <ele>322.2</ele>
        <time>2025-10-18T07:47:30Z</time>
      </trkpt>
      <trkpt lat="43.22721" lon="5.50025">
        <ele>322.2</ele>
        <time>2025-10-18T07:47:31Z</time>
      </trkpt>
      <trkpt lat="43.2272" lon="5.50024">
        <ele>322.2</ele>
        <time>2025-10-18T07:47:32Z</time>
      </trkpt>
      <trkpt lat="43.2272" lon="5.50022">
        <ele>322.2</ele>
        <time>2025-10-18T07:47:33Z</time>
      </trkpt>
      <trkpt lat="43.22719" lon="5.5002">
        <ele>322.1</ele>
        <time>2025-10-18T07:47:34Z</time>
      </trkpt>
      <trkpt lat="43.22718" lon="5.50019">
        <ele>322.2</ele>
        <time>2025-10-18T07:47:35Z</time>
      </trkpt>
      <trkpt lat="43.22718" lon="5.50017">
        <ele>322.2</ele>
        <time>2025-10-18T07:47:36Z</time>
      </trkpt>
      <trkpt lat="43.22718" lon="5.50015">
        <ele>322.2</ele>
        <time>2025-10-18T07:47:37Z</time>
      </trkpt>
      <trkpt lat="43.22717" lon="5.50013">
        <ele>322.2</ele>
        <time>2025-10-18T07:47:38Z</time>
      </trkpt>
      <trkpt lat="43.22716" lon="5.50011">
        <ele>322.2</ele>
        <time>2025-10-18T07:47:39Z</time>
      </trkpt>
      <trkpt lat="43.22716" lon="5.5001">
        <ele>322.2</ele>
        <time>2025-10-18T07:47:40Z</time>
      </trkpt>
      <trkpt lat="43.22715" lon="5.50008">
        <ele>322.2</ele>
        <time>2025-10-18T07:47:41Z</time>
      </trkpt>
      <trkpt lat="43.22715" lon="5.50007">
        <ele>322.2</ele>
        <time>2025-10-18T07:47:42Z</time>
      </trkpt>
      <trkpt lat="43.22714" lon="5.50005">
        <ele>322.2</ele>
        <time>2025-10-18T07:47:43Z</time>
      </trkpt>
      <trkpt lat="43.22714" lon="5.50003">
        <ele>322.2</ele>
        <time>2025-10-18T07:47:44Z</time>
      </trkpt>
      <trkpt lat="43.22713" lon="5.50002">
        <ele>322.2</ele>
        <time>2025-10-18T07:47:45Z</time>
      </trkpt>
      <trkpt lat="43.22713" lon="5.5">
        <ele>322.2</ele>
        <time>2025-10-18T07:47:46Z</time>
      </trkpt>
      <trkpt lat="43.22712" lon="5.49999">
        <ele>322.2</ele>
        <time>2025-10-18T07:47:47Z</time>
      </trkpt>
      <trkpt lat="43.22712" lon="5.49997">
        <ele>322.1</ele>
        <time>2025-10-18T07:47:48Z</time>
      </trkpt>
      <trkpt lat="43.22711" lon="5.49995">
        <ele>322.1</ele>
        <time>2025-10-18T07:47:49Z</time>
      </trkpt>
      <trkpt lat="43.22711" lon="5.49994">
        <ele>322.1</ele>
        <time>2025-10-18T07:47:50Z</time>
      </trkpt>
      <trkpt lat="43.2271" lon="5.49992">
        <ele>322.1</ele>
        <time>2025-10-18T07:47:51Z</time>
      </trkpt>
      <trkpt lat="43.22709" lon="5.49991">
        <ele>322</ele>
        <time>2025-10-18T07:47:52Z</time>
      </trkpt>
      <trkpt lat="43.22708" lon="5.49989">
        <ele>322.2</ele>
        <time>2025-10-18T07:47:53Z</time>
      </trkpt>
      <trkpt lat="43.22708" lon="5.49988">
        <ele>322.2</ele>
        <time>2025-10-18T07:47:54Z</time>
      </trkpt>
      <trkpt lat="43.22707" lon="5.49986">
        <ele>322.2</ele>
        <time>2025-10-18T07:47:55Z</time>
      </trkpt>
      <trkpt lat="43.22707" lon="5.49984">
        <ele>322.1</ele>
        <time>2025-10-18T07:47:56Z</time>
      </trkpt>
      <trkpt lat="43.22706" lon="5.49983">
        <ele>322</ele>
        <time>2025-10-18T07:47:57Z</time>
      </trkpt>
      <trkpt lat="43.22706" lon="5.49981">
        <ele>321.7</ele>
        <time>2025-10-18T07:47:58Z</time>
      </trkpt>
      <trkpt lat="43.22705" lon="5.4998">
        <ele>321.6</ele>
        <time>2025-10-18T07:47:59Z</time>
      </trkpt>
      <trkpt lat="43.22705" lon="5.49978">
        <ele>321.6</ele>
        <time>2025-10-18T07:48:00Z</time>
      </trkpt>
      <trkpt lat="43.22704" lon="5.49977">
        <ele>321.6</ele>
        <time>2025-10-18T07:48:01Z</time>
      </trkpt>
      <trkpt lat="43.22704" lon="5.49975">
        <ele>321.5</ele>
        <time>2025-10-18T07:48:02Z</time>
      </trkpt>
      <trkpt lat="43.22704" lon="5.49973">
        <ele>321.6</ele>
        <time>2025-10-18T07:48:03Z</time>
      </trkpt>
      <trkpt lat="43.22703" lon="5.49972">
        <ele>321.6</ele>
        <time>2025-10-18T07:48:04Z</time>
      </trkpt>
      <trkpt lat="43.22702" lon="5.49971">
        <ele>321.6</ele>
        <time>2025-10-18T07:48:05Z</time>
      </trkpt>
      <trkpt lat="43.22702" lon="5.49969">
        <ele>321.7</ele>
        <time>2025-10-18T07:48:06Z</time>
      </trkpt>
      <trkpt lat="43.22701" lon="5.49968">
        <ele>321.7</ele>
        <time>2025-10-18T07:48:07Z</time>
      </trkpt>
      <trkpt lat="43.227" lon="5.49966">
        <ele>321.7</ele>
        <time>2025-10-18T07:48:08Z</time>
      </trkpt>
      <trkpt lat="43.227" lon="5.49965">
        <ele>321.6</ele>
        <time>2025-10-18T07:48:09Z</time>
      </trkpt>
      <trkpt lat="43.22699" lon="5.49963">
        <ele>321.6</ele>
        <time>2025-10-18T07:48:10Z</time>
      </trkpt>
      <trkpt lat="43.22699" lon="5.49962">
        <ele>321.5</ele>
        <time>2025-10-18T07:48:11Z</time>
      </trkpt>
      <trkpt lat="43.22698" lon="5.4996">
        <ele>321.5</ele>
        <time>2025-10-18T07:48:12Z</time>
      </trkpt>
      <trkpt lat="43.22697" lon="5.49959">
        <ele>321.4</ele>
        <time>2025-10-18T07:48:13Z</time>
      </trkpt>
      <trkpt lat="43.22697" lon="5.49958">
        <ele>321.4</ele>
        <time>2025-10-18T07:48:14Z</time>
      </trkpt>
      <trkpt lat="43.22696" lon="5.49956">
        <ele>321.4</ele>
        <time>2025-10-18T07:48:15Z</time>
      </trkpt>
      <trkpt lat="43.22695" lon="5.49955">
        <ele>321.3</ele>
        <time>2025-10-18T07:48:16Z</time>
      </trkpt>
      <trkpt lat="43.22695" lon="5.49954">
        <ele>321.3</ele>
        <time>2025-10-18T07:48:17Z</time>
      </trkpt>
      <trkpt lat="43.22694" lon="5.49952">
        <ele>321.4</ele>
        <time>2025-10-18T07:48:18Z</time>
      </trkpt>
      <trkpt lat="43.22693" lon="5.49951">
        <ele>321.2</ele>
        <time>2025-10-18T07:48:19Z</time>
      </trkpt>
      <trkpt lat="43.22693" lon="5.49949">
        <ele>321.1</ele>
        <time>2025-10-18T07:48:20Z</time>
      </trkpt>
      <trkpt lat="43.22692" lon="5.49948">
        <ele>321.1</ele>
        <time>2025-10-18T07:48:21Z</time>
      </trkpt>
      <trkpt lat="43.22692" lon="5.49946">
        <ele>321</ele>
        <time>2025-10-18T07:48:22Z</time>
      </trkpt>
      <trkpt lat="43.22691" lon="5.49944">
        <ele>321</ele>
        <time>2025-10-18T07:48:23Z</time>
      </trkpt>
      <trkpt lat="43.22691" lon="5.49942">
        <ele>321</ele>
        <time>2025-10-18T07:48:24Z</time>
      </trkpt>
      <trkpt lat="43.2269" lon="5.49941">
        <ele>321</ele>
        <time>2025-10-18T07:48:25Z</time>
      </trkpt>
      <trkpt lat="43.2269" lon="5.4994">
        <ele>321</ele>
        <time>2025-10-18T07:48:26Z</time>
      </trkpt>
      <trkpt lat="43.22689" lon="5.49938">
        <ele>321</ele>
        <time>2025-10-18T07:48:27Z</time>
      </trkpt>
      <trkpt lat="43.22688" lon="5.49937">
        <ele>321</ele>
        <time>2025-10-18T07:48:28Z</time>
      </trkpt>
      <trkpt lat="43.22688" lon="5.49935">
        <ele>320.9</ele>
        <time>2025-10-18T07:48:29Z</time>
      </trkpt>
      <trkpt lat="43.22687" lon="5.49934">
        <ele>320.9</ele>
        <time>2025-10-18T07:48:30Z</time>
      </trkpt>
      <trkpt lat="43.22686" lon="5.49933">
        <ele>320.9</ele>
        <time>2025-10-18T07:48:31Z</time>
      </trkpt>
      <trkpt lat="43.22686" lon="5.49931">
        <ele>320.8</ele>
        <time>2025-10-18T07:48:32Z</time>
      </trkpt>
      <trkpt lat="43.22686" lon="5.49929">
        <ele>320.7</ele>
        <time>2025-10-18T07:48:33Z</time>
      </trkpt>
      <trkpt lat="43.22685" lon="5.49928">
        <ele>320.8</ele>
        <time>2025-10-18T07:48:34Z</time>
      </trkpt>
      <trkpt lat="43.22685" lon="5.49926">
        <ele>320.7</ele>
        <time>2025-10-18T07:48:35Z</time>
      </trkpt>
      <trkpt lat="43.22685" lon="5.49924">
        <ele>320.7</ele>
        <time>2025-10-18T07:48:36Z</time>
      </trkpt>
      <trkpt lat="43.22684" lon="5.49923">
        <ele>320.8</ele>
        <time>2025-10-18T07:48:37Z</time>
      </trkpt>
      <trkpt lat="43.22684" lon="5.49922">
        <ele>320.8</ele>
        <time>2025-10-18T07:48:38Z</time>
      </trkpt>
      <trkpt lat="43.22684" lon="5.4992">
        <ele>320.8</ele>
        <time>2025-10-18T07:48:39Z</time>
      </trkpt>
      <trkpt lat="43.22683" lon="5.49919">
        <ele>320.8</ele>
        <time>2025-10-18T07:48:40Z</time>
      </trkpt>
      <trkpt lat="43.22683" lon="5.49918">
        <ele>320.8</ele>
        <time>2025-10-18T07:48:41Z</time>
      </trkpt>
      <trkpt lat="43.22682" lon="5.49916">
        <ele>320.8</ele>
        <time>2025-10-18T07:48:42Z</time>
      </trkpt>
      <trkpt lat="43.22682" lon="5.49915">
        <ele>320.8</ele>
        <time>2025-10-18T07:48:43Z</time>
      </trkpt>
      <trkpt lat="43.22682" lon="5.49913">
        <ele>320.7</ele>
        <time>2025-10-18T07:48:44Z</time>
      </trkpt>
      <trkpt lat="43.22681" lon="5.49911">
        <ele>320.5</ele>
        <time>2025-10-18T07:48:45Z</time>
      </trkpt>
      <trkpt lat="43.22681" lon="5.4991">
        <ele>320.4</ele>
        <time>2025-10-18T07:48:46Z</time>
      </trkpt>
      <trkpt lat="43.22681" lon="5.49908">
        <ele>320.3</ele>
        <time>2025-10-18T07:48:47Z</time>
      </trkpt>
      <trkpt lat="43.22681" lon="5.49907">
        <ele>320.2</ele>
        <time>2025-10-18T07:48:48Z</time>
      </trkpt>
      <trkpt lat="43.22681" lon="5.49906">
        <ele>320.2</ele>
        <time>2025-10-18T07:48:49Z</time>
      </trkpt>
      <trkpt lat="43.22681" lon="5.49904">
        <ele>320.1</ele>
        <time>2025-10-18T07:48:50Z</time>
      </trkpt>
      <trkpt lat="43.2268" lon="5.49903">
        <ele>320.1</ele>
        <time>2025-10-18T07:48:51Z</time>
      </trkpt>
      <trkpt lat="43.2268" lon="5.49902">
        <ele>320.2</ele>
        <time>2025-10-18T07:48:52Z</time>
      </trkpt>
      <trkpt lat="43.2268" lon="5.49901">
        <ele>320.1</ele>
        <time>2025-10-18T07:48:53Z</time>
      </trkpt>
      <trkpt lat="43.2268" lon="5.49899">
        <ele>320.2</ele>
        <time>2025-10-18T07:48:54Z</time>
      </trkpt>
      <trkpt lat="43.2268" lon="5.49898">
        <ele>320.7</ele>
        <time>2025-10-18T07:48:55Z</time>
      </trkpt>
      <trkpt lat="43.2268" lon="5.49896">
        <ele>320.6</ele>
        <time>2025-10-18T07:48:56Z</time>
      </trkpt>
      <trkpt lat="43.2268" lon="5.49895">
        <ele>320.5</ele>
        <time>2025-10-18T07:48:57Z</time>
      </trkpt>
      <trkpt lat="43.22681" lon="5.49894">
        <ele>320.5</ele>
        <time>2025-10-18T07:48:58Z</time>
      </trkpt>
      <trkpt lat="43.22681" lon="5.49892">
        <ele>320.4</ele>
        <time>2025-10-18T07:48:59Z</time>
      </trkpt>
      <trkpt lat="43.22681" lon="5.49891">
        <ele>320.3</ele>
        <time>2025-10-18T07:49:00Z</time>
      </trkpt>
      <trkpt lat="43.22681" lon="5.49889">
        <ele>320.2</ele>
        <time>2025-10-18T07:49:01Z</time>
      </trkpt>
      <trkpt lat="43.22681" lon="5.49887">
        <ele>320.1</ele>
        <time>2025-10-18T07:49:02Z</time>
      </trkpt>
      <trkpt lat="43.22681" lon="5.49886">
        <ele>320.1</ele>
        <time>2025-10-18T07:49:03Z</time>
      </trkpt>
      <trkpt lat="43.22681" lon="5.49884">
        <ele>320</ele>
        <time>2025-10-18T07:49:04Z</time>
      </trkpt>
      <trkpt lat="43.22682" lon="5.49882">
        <ele>320</ele>
        <time>2025-10-18T07:49:05Z</time>
      </trkpt>
      <trkpt lat="43.22682" lon="5.49881">
        <ele>320</ele>
        <time>2025-10-18T07:49:06Z</time>
      </trkpt>
      <trkpt lat="43.22682" lon="5.4988">
        <ele>320</ele>
        <time>2025-10-18T07:49:07Z</time>
      </trkpt>
      <trkpt lat="43.22683" lon="5.49878">
        <ele>319.9</ele>
        <time>2025-10-18T07:49:08Z</time>
      </trkpt>
      <trkpt lat="43.22683" lon="5.49877">
        <ele>319.9</ele>
        <time>2025-10-18T07:49:09Z</time>
      </trkpt>
      <trkpt lat="43.22683" lon="5.49875">
        <ele>319.8</ele>
        <time>2025-10-18T07:49:10Z</time>
      </trkpt>
      <trkpt lat="43.22684" lon="5.49874">
        <ele>319.8</ele>
        <time>2025-10-18T07:49:11Z</time>
      </trkpt>
      <trkpt lat="43.22684" lon="5.49872">
        <ele>319.7</ele>
        <time>2025-10-18T07:49:12Z</time>
      </trkpt>
      <trkpt lat="43.22685" lon="5.49871">
        <ele>319.7</ele>
        <time>2025-10-18T07:49:13Z</time>
      </trkpt>
      <trkpt lat="43.22685" lon="5.49869">
        <ele>319.7</ele>
        <time>2025-10-18T07:49:14Z</time>
      </trkpt>
      <trkpt lat="43.22685" lon="5.49868">
        <ele>319.7</ele>
        <time>2025-10-18T07:49:15Z</time>
      </trkpt>
      <trkpt lat="43.22686" lon="5.49866">
        <ele>319.7</ele>
        <time>2025-10-18T07:49:16Z</time>
      </trkpt>
      <trkpt lat="43.22686" lon="5.49865">
        <ele>319.6</ele>
        <time>2025-10-18T07:49:17Z</time>
      </trkpt>
      <trkpt lat="43.22687" lon="5.49863">
        <ele>319.5</ele>
        <time>2025-10-18T07:49:18Z</time>
      </trkpt>
      <trkpt lat="43.22687" lon="5.49862">
        <ele>319.5</ele>
        <time>2025-10-18T07:49:19Z</time>
      </trkpt>
      <trkpt lat="43.22688" lon="5.49861">
        <ele>319.4</ele>
        <time>2025-10-18T07:49:20Z</time>
      </trkpt>
      <trkpt lat="43.22688" lon="5.4986">
        <ele>319.5</ele>
        <time>2025-10-18T07:49:21Z</time>
      </trkpt>
      <trkpt lat="43.22689" lon="5.49859">
        <ele>319.6</ele>
        <time>2025-10-18T07:49:22Z</time>
      </trkpt>
      <trkpt lat="43.2269" lon="5.49857">
        <ele>319.6</ele>
        <time>2025-10-18T07:49:23Z</time>
      </trkpt>
      <trkpt lat="43.2269" lon="5.49856">
        <ele>319.5</ele>
        <time>2025-10-18T07:49:24Z</time>
      </trkpt>
      <trkpt lat="43.22691" lon="5.49855">
        <ele>319.4</ele>
        <time>2025-10-18T07:49:25Z</time>
      </trkpt>
      <trkpt lat="43.22692" lon="5.49854">
        <ele>319.3</ele>
        <time>2025-10-18T07:49:26Z</time>
      </trkpt>
      <trkpt lat="43.22693" lon="5.49852">
        <ele>319.2</ele>
        <time>2025-10-18T07:49:27Z</time>
      </trkpt>
      <trkpt lat="43.22693" lon="5.49851">
        <ele>319.2</ele>
        <time>2025-10-18T07:49:28Z</time>
      </trkpt>
      <trkpt lat="43.22694" lon="5.49849">
        <ele>319.1</ele>
        <time>2025-10-18T07:49:29Z</time>
      </trkpt>
      <trkpt lat="43.22695" lon="5.49848">
        <ele>319.2</ele>
        <time>2025-10-18T07:49:30Z</time>
      </trkpt>
      <trkpt lat="43.22696" lon="5.49847">
        <ele>319.2</ele>
        <time>2025-10-18T07:49:31Z</time>
      </trkpt>
      <trkpt lat="43.22697" lon="5.49846">
        <ele>319.2</ele>
        <time>2025-10-18T07:49:32Z</time>
      </trkpt>
      <trkpt lat="43.22698" lon="5.49845">
        <ele>319.3</ele>
        <time>2025-10-18T07:49:33Z</time>
      </trkpt>
      <trkpt lat="43.22699" lon="5.49843">
        <ele>319.3</ele>
        <time>2025-10-18T07:49:34Z</time>
      </trkpt>
      <trkpt lat="43.227" lon="5.49842">
        <ele>319.3</ele>
        <time>2025-10-18T07:49:35Z</time>
      </trkpt>
      <trkpt lat="43.22701" lon="5.49841">
        <ele>319.3</ele>
        <time>2025-10-18T07:49:36Z</time>
      </trkpt>
      <trkpt lat="43.22701" lon="5.4984">
        <ele>319.4</ele>
        <time>2025-10-18T07:49:37Z</time>
      </trkpt>
      <trkpt lat="43.22701" lon="5.49838">
        <ele>319.4</ele>
        <time>2025-10-18T07:49:38Z</time>
      </trkpt>
      <trkpt lat="43.22702" lon="5.49837">
        <ele>319.5</ele>
        <time>2025-10-18T07:49:39Z</time>
      </trkpt>
      <trkpt lat="43.22703" lon="5.49835">
        <ele>319.5</ele>
        <time>2025-10-18T07:49:40Z</time>
      </trkpt>
      <trkpt lat="43.22703" lon="5.49834">
        <ele>319.6</ele>
        <time>2025-10-18T07:49:41Z</time>
      </trkpt>
      <trkpt lat="43.22704" lon="5.49833">
        <ele>319.6</ele>
        <time>2025-10-18T07:49:42Z</time>
      </trkpt>
      <trkpt lat="43.22705" lon="5.49832">
        <ele>319.6</ele>
        <time>2025-10-18T07:49:43Z</time>
      </trkpt>
      <trkpt lat="43.22705" lon="5.4983">
        <ele>319.7</ele>
        <time>2025-10-18T07:49:44Z</time>
      </trkpt>
      <trkpt lat="43.22706" lon="5.49829">
        <ele>319.7</ele>
        <time>2025-10-18T07:49:45Z</time>
      </trkpt>
      <trkpt lat="43.22707" lon="5.49828">
        <ele>319.7</ele>
        <time>2025-10-18T07:49:46Z</time>
      </trkpt>
      <trkpt lat="43.22707" lon="5.49827">
        <ele>319.7</ele>
        <time>2025-10-18T07:49:47Z</time>
      </trkpt>
      <trkpt lat="43.22708" lon="5.49825">
        <ele>319.7</ele>
        <time>2025-10-18T07:49:48Z</time>
      </trkpt>
      <trkpt lat="43.22709" lon="5.49824">
        <ele>319.7</ele>
        <time>2025-10-18T07:49:49Z</time>
      </trkpt>
      <trkpt lat="43.22709" lon="5.49823">
        <ele>319.8</ele>
        <time>2025-10-18T07:49:50Z</time>
      </trkpt>
      <trkpt lat="43.2271" lon="5.49822">
        <ele>319.8</ele>
        <time>2025-10-18T07:49:51Z</time>
      </trkpt>
      <trkpt lat="43.2271" lon="5.49821">
        <ele>319.8</ele>
        <time>2025-10-18T07:49:52Z</time>
      </trkpt>
      <trkpt lat="43.22711" lon="5.49819">
        <ele>319.8</ele>
        <time>2025-10-18T07:49:53Z</time>
      </trkpt>
      <trkpt lat="43.22712" lon="5.49818">
        <ele>319.8</ele>
        <time>2025-10-18T07:49:54Z</time>
      </trkpt>
      <trkpt lat="43.22712" lon="5.49817">
        <ele>319.8</ele>
        <time>2025-10-18T07:49:55Z</time>
      </trkpt>
      <trkpt lat="43.22713" lon="5.49815">
        <ele>319.9</ele>
        <time>2025-10-18T07:49:56Z</time>
      </trkpt>
      <trkpt lat="43.22714" lon="5.49814">
        <ele>319.8</ele>
        <time>2025-10-18T07:49:57Z</time>
      </trkpt>
      <trkpt lat="43.22714" lon="5.49813">
        <ele>319.9</ele>
        <time>2025-10-18T07:49:58Z</time>
      </trkpt>
      <trkpt lat="43.22715" lon="5.49812">
        <ele>320</ele>
        <time>2025-10-18T07:49:59Z</time>
      </trkpt>
      <trkpt lat="43.22716" lon="5.49811">
        <ele>320</ele>
        <time>2025-10-18T07:50:00Z</time>
      </trkpt>
      <trkpt lat="43.22717" lon="5.49809">
        <ele>319.9</ele>
        <time>2025-10-18T07:50:01Z</time>
      </trkpt>
      <trkpt lat="43.22718" lon="5.49808">
        <ele>319.9</ele>
        <time>2025-10-18T07:50:02Z</time>
      </trkpt>
      <trkpt lat="43.22718" lon="5.49806">
        <ele>319.9</ele>
        <time>2025-10-18T07:50:03Z</time>
      </trkpt>
      <trkpt lat="43.22719" lon="5.49805">
        <ele>319.9</ele>
        <time>2025-10-18T07:50:04Z</time>
      </trkpt>
      <trkpt lat="43.2272" lon="5.49803">
        <ele>320</ele>
        <time>2025-10-18T07:50:05Z</time>
      </trkpt>
      <trkpt lat="43.22721" lon="5.49802">
        <ele>320</ele>
        <time>2025-10-18T07:50:06Z</time>
      </trkpt>
      <trkpt lat="43.22721" lon="5.49801">
        <ele>320.2</ele>
        <time>2025-10-18T07:50:07Z</time>
      </trkpt>
      <trkpt lat="43.22722" lon="5.498">
        <ele>320.2</ele>
        <time>2025-10-18T07:50:08Z</time>
      </trkpt>
      <trkpt lat="43.22723" lon="5.49798">
        <ele>320.3</ele>
        <time>2025-10-18T07:50:09Z</time>
      </trkpt>
      <trkpt lat="43.22723" lon="5.49797">
        <ele>320.2</ele>
        <time>2025-10-18T07:50:10Z</time>
      </trkpt>
      <trkpt lat="43.22724" lon="5.49795">
        <ele>320.1</ele>
        <time>2025-10-18T07:50:11Z</time>
      </trkpt>
      <trkpt lat="43.22725" lon="5.49794">
        <ele>320.1</ele>
        <time>2025-10-18T07:50:12Z</time>
      </trkpt>
      <trkpt lat="43.22725" lon="5.49793">
        <ele>320.1</ele>
        <time>2025-10-18T07:50:13Z</time>
      </trkpt>
      <trkpt lat="43.22726" lon="5.49791">
        <ele>320.1</ele>
        <time>2025-10-18T07:50:14Z</time>
      </trkpt>
      <trkpt lat="43.22727" lon="5.49789">
        <ele>320.1</ele>
        <time>2025-10-18T07:50:15Z</time>
      </trkpt>
      <trkpt lat="43.22727" lon="5.49788">
        <ele>320.2</ele>
        <time>2025-10-18T07:50:16Z</time>
      </trkpt>
      <trkpt lat="43.22728" lon="5.49786">
        <ele>320.1</ele>
        <time>2025-10-18T07:50:17Z</time>
      </trkpt>
      <trkpt lat="43.22729" lon="5.49785">
        <ele>320.2</ele>
        <time>2025-10-18T07:50:18Z</time>
      </trkpt>
      <trkpt lat="43.2273" lon="5.49783">
        <ele>320.3</ele>
        <time>2025-10-18T07:50:19Z</time>
      </trkpt>
      <trkpt lat="43.2273" lon="5.49782">
        <ele>320.4</ele>
        <time>2025-10-18T07:50:20Z</time>
      </trkpt>
      <trkpt lat="43.22731" lon="5.4978">
        <ele>320.3</ele>
        <time>2025-10-18T07:50:21Z</time>
      </trkpt>
      <trkpt lat="43.22732" lon="5.49779">
        <ele>320.3</ele>
        <time>2025-10-18T07:50:22Z</time>
      </trkpt>
      <trkpt lat="43.22733" lon="5.49778">
        <ele>320.1</ele>
        <time>2025-10-18T07:50:23Z</time>
      </trkpt>
      <trkpt lat="43.22733" lon="5.49776">
        <ele>320</ele>
        <time>2025-10-18T07:50:24Z</time>
      </trkpt>
      <trkpt lat="43.22734" lon="5.49775">
        <ele>320</ele>
        <time>2025-10-18T07:50:25Z</time>
      </trkpt>
      <trkpt lat="43.22734" lon="5.49774">
        <ele>319.9</ele>
        <time>2025-10-18T07:50:26Z</time>
      </trkpt>
      <trkpt lat="43.22735" lon="5.49772">
        <ele>319.9</ele>
        <time>2025-10-18T07:50:27Z</time>
      </trkpt>
      <trkpt lat="43.22735" lon="5.49771">
        <ele>319.8</ele>
        <time>2025-10-18T07:50:28Z</time>
      </trkpt>
      <trkpt lat="43.22735" lon="5.4977">
        <ele>319.6</ele>
        <time>2025-10-18T07:50:29Z</time>
      </trkpt>
      <trkpt lat="43.22736" lon="5.49769">
        <ele>319.5</ele>
        <time>2025-10-18T07:50:30Z</time>
      </trkpt>
      <trkpt lat="43.22736" lon="5.49768">
        <ele>319.3</ele>
        <time>2025-10-18T07:50:31Z</time>
      </trkpt>
      <trkpt lat="43.22737" lon="5.49766">
        <ele>319.1</ele>
        <time>2025-10-18T07:50:32Z</time>
      </trkpt>
      <trkpt lat="43.22737" lon="5.49765">
        <ele>318.9</ele>
        <time>2025-10-18T07:50:33Z</time>
      </trkpt>
      <trkpt lat="43.22738" lon="5.49763">
        <ele>318.7</ele>
        <time>2025-10-18T07:50:34Z</time>
      </trkpt>
      <trkpt lat="43.22738" lon="5.49762">
        <ele>318.5</ele>
        <time>2025-10-18T07:50:35Z</time>
      </trkpt>
      <trkpt lat="43.22738" lon="5.49761">
        <ele>318.3</ele>
        <time>2025-10-18T07:50:36Z</time>
      </trkpt>
      <trkpt lat="43.22739" lon="5.4976">
        <ele>318.1</ele>
        <time>2025-10-18T07:50:37Z</time>
      </trkpt>
      <trkpt lat="43.22739" lon="5.49759">
        <ele>318</ele>
        <time>2025-10-18T07:50:38Z</time>
      </trkpt>
      <trkpt lat="43.2274" lon="5.49758">
        <ele>317.8</ele>
        <time>2025-10-18T07:50:39Z</time>
      </trkpt>
      <trkpt lat="43.2274" lon="5.49756">
        <ele>317.6</ele>
        <time>2025-10-18T07:50:40Z</time>
      </trkpt>
      <trkpt lat="43.22741" lon="5.49755">
        <ele>317.3</ele>
        <time>2025-10-18T07:50:41Z</time>
      </trkpt>
      <trkpt lat="43.22741" lon="5.49754">
        <ele>317.3</ele>
        <time>2025-10-18T07:50:42Z</time>
      </trkpt>
      <trkpt lat="43.22742" lon="5.49753">
        <ele>317.1</ele>
        <time>2025-10-18T07:50:43Z</time>
      </trkpt>
      <trkpt lat="43.22742" lon="5.49751">
        <ele>316.9</ele>
        <time>2025-10-18T07:50:44Z</time>
      </trkpt>
      <trkpt lat="43.22743" lon="5.4975">
        <ele>316.8</ele>
        <time>2025-10-18T07:50:45Z</time>
      </trkpt>
      <trkpt lat="43.22743" lon="5.49748">
        <ele>316.7</ele>
        <time>2025-10-18T07:50:46Z</time>
      </trkpt>
      <trkpt lat="43.22743" lon="5.49747">
        <ele>316.5</ele>
        <time>2025-10-18T07:50:47Z</time>
      </trkpt>
      <trkpt lat="43.22743" lon="5.49746">
        <ele>316.4</ele>
        <time>2025-10-18T07:50:48Z</time>
      </trkpt>
      <trkpt lat="43.22743" lon="5.49744">
        <ele>316.4</ele>
        <time>2025-10-18T07:50:49Z</time>
      </trkpt>
      <trkpt lat="43.22744" lon="5.49743">
        <ele>316.2</ele>
        <time>2025-10-18T07:50:50Z</time>
      </trkpt>
      <trkpt lat="43.22744" lon="5.49742">
        <ele>316.1</ele>
        <time>2025-10-18T07:50:51Z</time>
      </trkpt>
      <trkpt lat="43.22744" lon="5.4974">
        <ele>316</ele>
        <time>2025-10-18T07:50:52Z</time>
      </trkpt>
      <trkpt lat="43.22744" lon="5.49739">
        <ele>315.8</ele>
        <time>2025-10-18T07:50:53Z</time>
      </trkpt>
      <trkpt lat="43.22744" lon="5.49738">
        <ele>315.6</ele>
        <time>2025-10-18T07:50:54Z</time>
      </trkpt>
      <trkpt lat="43.22744" lon="5.49736">
        <ele>315.4</ele>
        <time>2025-10-18T07:50:55Z</time>
      </trkpt>
      <trkpt lat="43.22745" lon="5.49735">
        <ele>315.3</ele>
        <time>2025-10-18T07:50:56Z</time>
      </trkpt>
      <trkpt lat="43.22745" lon="5.49733">
        <ele>315.1</ele>
        <time>2025-10-18T07:50:57Z</time>
      </trkpt>
      <trkpt lat="43.22745" lon="5.49731">
        <ele>315</ele>
        <time>2025-10-18T07:50:58Z</time>
      </trkpt>
      <trkpt lat="43.22745" lon="5.4973">
        <ele>314.9</ele>
        <time>2025-10-18T07:50:59Z</time>
      </trkpt>
      <trkpt lat="43.22745" lon="5.49729">
        <ele>314.7</ele>
        <time>2025-10-18T07:51:00Z</time>
      </trkpt>
      <trkpt lat="43.22745" lon="5.49727">
        <ele>314.6</ele>
        <time>2025-10-18T07:51:01Z</time>
      </trkpt>
      <trkpt lat="43.22746" lon="5.49726">
        <ele>314.5</ele>
        <time>2025-10-18T07:51:02Z</time>
      </trkpt>
      <trkpt lat="43.22746" lon="5.49724">
        <ele>314.4</ele>
        <time>2025-10-18T07:51:03Z</time>
      </trkpt>
      <trkpt lat="43.22746" lon="5.49723">
        <ele>314.3</ele>
        <time>2025-10-18T07:51:04Z</time>
      </trkpt>
      <trkpt lat="43.22747" lon="5.49721">
        <ele>314.2</ele>
        <time>2025-10-18T07:51:05Z</time>
      </trkpt>
      <trkpt lat="43.22747" lon="5.49719">
        <ele>314</ele>
        <time>2025-10-18T07:51:06Z</time>
      </trkpt>
      <trkpt lat="43.22748" lon="5.49718">
        <ele>313.8</ele>
        <time>2025-10-18T07:51:07Z</time>
      </trkpt>
      <trkpt lat="43.22748" lon="5.49716">
        <ele>313.7</ele>
        <time>2025-10-18T07:51:08Z</time>
      </trkpt>
      <trkpt lat="43.22748" lon="5.49715">
        <ele>313.6</ele>
        <time>2025-10-18T07:51:09Z</time>
      </trkpt>
      <trkpt lat="43.22748" lon="5.49713">
        <ele>313.4</ele>
        <time>2025-10-18T07:51:10Z</time>
      </trkpt>
      <trkpt lat="43.22748" lon="5.49712">
        <ele>313.3</ele>
        <time>2025-10-18T07:51:11Z</time>
      </trkpt>
      <trkpt lat="43.22748" lon="5.49711">
        <ele>313.2</ele>
        <time>2025-10-18T07:51:12Z</time>
      </trkpt>
      <trkpt lat="43.22748" lon="5.4971">
        <ele>313.1</ele>
        <time>2025-10-18T07:51:13Z</time>
      </trkpt>
      <trkpt lat="43.22748" lon="5.4971">
        <ele>313.2</ele>
        <time>2025-10-18T07:51:14Z</time>
      </trkpt>
      <trkpt lat="43.22748" lon="5.49709">
        <ele>313.1</ele>
        <time>2025-10-18T07:51:15Z</time>
      </trkpt>
      <trkpt lat="43.22748" lon="5.49709">
        <ele>313</ele>
        <time>2025-10-18T07:51:16Z</time>
      </trkpt>
      <trkpt lat="43.22748" lon="5.49709">
        <ele>313</ele>
        <time>2025-10-18T07:51:17Z</time>
      </trkpt>
      <trkpt lat="43.22748" lon="5.49709">
        <ele>312.9</ele>
        <time>2025-10-18T07:51:18Z</time>
      </trkpt>
      <trkpt lat="43.22748" lon="5.49708">
        <ele>313</ele>
        <time>2025-10-18T07:51:19Z</time>
      </trkpt>
      <trkpt lat="43.22748" lon="5.49708">
        <ele>313.1</ele>
        <time>2025-10-18T07:51:20Z</time>
      </trkpt>
      <trkpt lat="43.22748" lon="5.49708">
        <ele>313.1</ele>
        <time>2025-10-18T07:51:21Z</time>
      </trkpt>
      <trkpt lat="43.22748" lon="5.49708">
        <ele>313.1</ele>
        <time>2025-10-18T07:51:22Z</time>
      </trkpt>
      <trkpt lat="43.22748" lon="5.49708">
        <ele>313</ele>
        <time>2025-10-18T07:51:23Z</time>
      </trkpt>
      <trkpt lat="43.22748" lon="5.49708">
        <ele>312.9</ele>
        <time>2025-10-18T07:51:24Z</time>
      </trkpt>
      <trkpt lat="43.22748" lon="5.49708">
        <ele>312.8</ele>
        <time>2025-10-18T07:51:25Z</time>
      </trkpt>
      <trkpt lat="43.22748" lon="5.49708">
        <ele>312.9</ele>
        <time>2025-10-18T07:51:26Z</time>
      </trkpt>
      <trkpt lat="43.22748" lon="5.49708">
        <ele>312.9</ele>
        <time>2025-10-18T07:51:27Z</time>
      </trkpt>
      <trkpt lat="43.22748" lon="5.49708">
        <ele>312.9</ele>
        <time>2025-10-18T07:51:28Z</time>
      </trkpt>
      <trkpt lat="43.22748" lon="5.49708">
        <ele>312.7</ele>
        <time>2025-10-18T07:51:29Z</time>
      </trkpt>
      <trkpt lat="43.22748" lon="5.49707">
        <ele>312.8</ele>
        <time>2025-10-18T07:51:30Z</time>
      </trkpt>
      <trkpt lat="43.22748" lon="5.49707">
        <ele>312.8</ele>
        <time>2025-10-18T07:51:31Z</time>
      </trkpt>
      <trkpt lat="43.22748" lon="5.49707">
        <ele>312.7</ele>
        <time>2025-10-18T07:51:32Z</time>
      </trkpt>
      <trkpt lat="43.22748" lon="5.49707">
        <ele>312.7</ele>
        <time>2025-10-18T07:51:33Z</time>
      </trkpt>
      <trkpt lat="43.22749" lon="5.49707">
        <ele>312.6</ele>
        <time>2025-10-18T07:51:34Z</time>
      </trkpt>
      <trkpt lat="43.22749" lon="5.49707">
        <ele>312.5</ele>
        <time>2025-10-18T07:51:35Z</time>
      </trkpt>
      <trkpt lat="43.22749" lon="5.49707">
        <ele>312.6</ele>
        <time>2025-10-18T07:51:36Z</time>
      </trkpt>
      <trkpt lat="43.22749" lon="5.49707">
        <ele>312.6</ele>
        <time>2025-10-18T07:51:37Z</time>
      </trkpt>
      <trkpt lat="43.22749" lon="5.49707">
        <ele>312.6</ele>
        <time>2025-10-18T07:51:38Z</time>
      </trkpt>
      <trkpt lat="43.22749" lon="5.49707">
        <ele>312.6</ele>
        <time>2025-10-18T07:51:39Z</time>
      </trkpt>
      <trkpt lat="43.22749" lon="5.49707">
        <ele>312.5</ele>
        <time>2025-10-18T07:51:40Z</time>
      </trkpt>
      <trkpt lat="43.22749" lon="5.49707">
        <ele>312.5</ele>
        <time>2025-10-18T07:51:41Z</time>
      </trkpt>
      <trkpt lat="43.22749" lon="5.49707">
        <ele>312.5</ele>
        <time>2025-10-18T07:51:42Z</time>
      </trkpt>
      <trkpt lat="43.22749" lon="5.49707">
        <ele>312.5</ele>
        <time>2025-10-18T07:51:43Z</time>
      </trkpt>
      <trkpt lat="43.22749" lon="5.49707">
        <ele>312.5</ele>
        <time>2025-10-18T07:51:44Z</time>
      </trkpt>
      <trkpt lat="43.22749" lon="5.49707">
        <ele>312.5</ele>
        <time>2025-10-18T07:51:45Z</time>
      </trkpt>
      <trkpt lat="43.22749" lon="5.49707">
        <ele>312.5</ele>
        <time>2025-10-18T07:51:46Z</time>
      </trkpt>
      <trkpt lat="43.22749" lon="5.49707">
        <ele>312.5</ele>
        <time>2025-10-18T07:51:47Z</time>
      </trkpt>
      <trkpt lat="43.22749" lon="5.49707">
        <ele>312.5</ele>
        <time>2025-10-18T07:51:48Z</time>
      </trkpt>
      <trkpt lat="43.22749" lon="5.49707">
        <ele>312.5</ele>
        <time>2025-10-18T07:51:49Z</time>
      </trkpt>
      <trkpt lat="43.22749" lon="5.49708">
        <ele>312.5</ele>
        <time>2025-10-18T07:51:50Z</time>
      </trkpt>
      <trkpt lat="43.22749" lon="5.49708">
        <ele>312.4</ele>
        <time>2025-10-18T07:51:51Z</time>
      </trkpt>
      <trkpt lat="43.22749" lon="5.49708">
        <ele>312.4</ele>
        <time>2025-10-18T07:51:52Z</time>
      </trkpt>
      <trkpt lat="43.22749" lon="5.49708">
        <ele>312.2</ele>
        <time>2025-10-18T07:51:53Z</time>
      </trkpt>
      <trkpt lat="43.22749" lon="5.49708">
        <ele>312.2</ele>
        <time>2025-10-18T07:51:54Z</time>
      </trkpt>
      <trkpt lat="43.22749" lon="5.49708">
        <ele>312.2</ele>
        <time>2025-10-18T07:51:55Z</time>
      </trkpt>
      <trkpt lat="43.22749" lon="5.49708">
        <ele>312.2</ele>
        <time>2025-10-18T07:51:56Z</time>
      </trkpt>
      <trkpt lat="43.22749" lon="5.49708">
        <ele>312.1</ele>
        <time>2025-10-18T07:51:57Z</time>
      </trkpt>
      <trkpt lat="43.22749" lon="5.49708">
        <ele>312.1</ele>
        <time>2025-10-18T07:51:58Z</time>
      </trkpt>
      <trkpt lat="43.22749" lon="5.49708">
        <ele>312.1</ele>
        <time>2025-10-18T07:51:59Z</time>
      </trkpt>
      <trkpt lat="43.22749" lon="5.49708">
        <ele>312.1</ele>
        <time>2025-10-18T07:52:00Z</time>
      </trkpt>
      <trkpt lat="43.22749" lon="5.49708">
        <ele>312.1</ele>
        <time>2025-10-18T07:52:01Z</time>
      </trkpt>
      <trkpt lat="43.22749" lon="5.49708">
        <ele>312</ele>
        <time>2025-10-18T07:52:02Z</time>
      </trkpt>
      <trkpt lat="43.22749" lon="5.49708">
        <ele>312.1</ele>
        <time>2025-10-18T07:52:03Z</time>
      </trkpt>
      <trkpt lat="43.22749" lon="5.49708">
        <ele>312.1</ele>
        <time>2025-10-18T07:52:04Z</time>
      </trkpt>
      <trkpt lat="43.2275" lon="5.49708">
        <ele>312.1</ele>
        <time>2025-10-18T07:52:05Z</time>
      </trkpt>
      <trkpt lat="43.2275" lon="5.49709">
        <ele>312.1</ele>
        <time>2025-10-18T07:52:06Z</time>
      </trkpt>
      <trkpt lat="43.2275" lon="5.49709">
        <ele>312.1</ele>
        <time>2025-10-18T07:52:07Z</time>
      </trkpt>
      <trkpt lat="43.2275" lon="5.49709">
        <ele>312</ele>
        <time>2025-10-18T07:52:08Z</time>
      </trkpt>
      <trkpt lat="43.2275" lon="5.49709">
        <ele>312</ele>
        <time>2025-10-18T07:52:09Z</time>
      </trkpt>
      <trkpt lat="43.2275" lon="5.49709">
        <ele>312</ele>
        <time>2025-10-18T07:52:10Z</time>
      </trkpt>
      <trkpt lat="43.2275" lon="5.49709">
        <ele>312</ele>
        <time>2025-10-18T07:52:11Z</time>
      </trkpt>
      <trkpt lat="43.2275" lon="5.49709">
        <ele>312</ele>
        <time>2025-10-18T07:52:12Z</time>
      </trkpt>
      <trkpt lat="43.2275" lon="5.49709">
        <ele>312</ele>
        <time>2025-10-18T07:52:13Z</time>
      </trkpt>
      <trkpt lat="43.2275" lon="5.49709">
        <ele>312</ele>
        <time>2025-10-18T07:52:14Z</time>
      </trkpt>
      <trkpt lat="43.2275" lon="5.49709">
        <ele>312</ele>
        <time>2025-10-18T07:52:15Z</time>
      </trkpt>
      <trkpt lat="43.2275" lon="5.49709">
        <ele>311.9</ele>
        <time>2025-10-18T07:52:16Z</time>
      </trkpt>
      <trkpt lat="43.2275" lon="5.49709">
        <ele>311.9</ele>
        <time>2025-10-18T07:52:17Z</time>
      </trkpt>
      <trkpt lat="43.2275" lon="5.49709">
        <ele>311.9</ele>
        <time>2025-10-18T07:52:18Z</time>
      </trkpt>
      <trkpt lat="43.2275" lon="5.4971">
        <ele>311.9</ele>
        <time>2025-10-18T07:52:19Z</time>
      </trkpt>
      <trkpt lat="43.2275" lon="5.4971">
        <ele>311.8</ele>
        <time>2025-10-18T07:52:20Z</time>
      </trkpt>
      <trkpt lat="43.2275" lon="5.49709">
        <ele>311.8</ele>
        <time>2025-10-18T07:52:21Z</time>
      </trkpt>
      <trkpt lat="43.2275" lon="5.49709">
        <ele>311.8</ele>
        <time>2025-10-18T07:52:22Z</time>
      </trkpt>
      <trkpt lat="43.2275" lon="5.49709">
        <ele>311.8</ele>
        <time>2025-10-18T07:52:23Z</time>
      </trkpt>
      <trkpt lat="43.2275" lon="5.49709">
        <ele>311.8</ele>
        <time>2025-10-18T07:52:24Z</time>
      </trkpt>
      <trkpt lat="43.2275" lon="5.49709">
        <ele>311.7</ele>
        <time>2025-10-18T07:52:25Z</time>
      </trkpt>
      <trkpt lat="43.2275" lon="5.49709">
        <ele>311.7</ele>
        <time>2025-10-18T07:52:26Z</time>
      </trkpt>
      <trkpt lat="43.2275" lon="5.49709">
        <ele>311.7</ele>
        <time>2025-10-18T07:52:27Z</time>
      </trkpt>
      <trkpt lat="43.2275" lon="5.49709">
        <ele>311.7</ele>
        <time>2025-10-18T07:52:28Z</time>
      </trkpt>
      <trkpt lat="43.2275" lon="5.49709">
        <ele>311.6</ele>
        <time>2025-10-18T07:52:29Z</time>
      </trkpt>
      <trkpt lat="43.2275" lon="5.49709">
        <ele>311.6</ele>
        <time>2025-10-18T07:52:30Z</time>
      </trkpt>
      <trkpt lat="43.2275" lon="5.49709">
        <ele>311.5</ele>
        <time>2025-10-18T07:52:31Z</time>
      </trkpt>
      <trkpt lat="43.2275" lon="5.49709">
        <ele>311.5</ele>
        <time>2025-10-18T07:52:32Z</time>
      </trkpt>
      <trkpt lat="43.2275" lon="5.49709">
        <ele>311.5</ele>
        <time>2025-10-18T07:52:33Z</time>
      </trkpt>
      <trkpt lat="43.2275" lon="5.49709">
        <ele>311.4</ele>
        <time>2025-10-18T07:52:34Z</time>
      </trkpt>
      <trkpt lat="43.2275" lon="5.49709">
        <ele>311.4</ele>
        <time>2025-10-18T07:52:35Z</time>
      </trkpt>
      <trkpt lat="43.2275" lon="5.49709">
        <ele>311.5</ele>
        <time>2025-10-18T07:52:36Z</time>
      </trkpt>
      <trkpt lat="43.2275" lon="5.49708">
        <ele>311.5</ele>
        <time>2025-10-18T07:52:37Z</time>
      </trkpt>
      <trkpt lat="43.2275" lon="5.49708">
        <ele>311.5</ele>
        <time>2025-10-18T07:52:38Z</time>
      </trkpt>
      <trkpt lat="43.2275" lon="5.49708">
        <ele>311.4</ele>
        <time>2025-10-18T07:52:39Z</time>
      </trkpt>
      <trkpt lat="43.22749" lon="5.49708">
        <ele>311.4</ele>
        <time>2025-10-18T07:52:40Z</time>
      </trkpt>
      <trkpt lat="43.22749" lon="5.49708">
        <ele>311.4</ele>
        <time>2025-10-18T07:52:41Z</time>
      </trkpt>
      <trkpt lat="43.22749" lon="5.49708">
        <ele>311.4</ele>
        <time>2025-10-18T07:52:42Z</time>
      </trkpt>
      <trkpt lat="43.22749" lon="5.49708">
        <ele>311.2</ele>
        <time>2025-10-18T07:52:43Z</time>
      </trkpt>
      <trkpt lat="43.22749" lon="5.49707">
        <ele>311.2</ele>
        <time>2025-10-18T07:52:44Z</time>
      </trkpt>
      <trkpt lat="43.22749" lon="5.49707">
        <ele>311.2</ele>
        <time>2025-10-18T07:52:45Z</time>
      </trkpt>
      <trkpt lat="43.22749" lon="5.49707">
        <ele>311.2</ele>
        <time>2025-10-18T07:52:46Z</time>
      </trkpt>
      <trkpt lat="43.22749" lon="5.49707">
        <ele>311.1</ele>
        <time>2025-10-18T07:52:47Z</time>
      </trkpt>
      <trkpt lat="43.22749" lon="5.49707">
        <ele>311.1</ele>
        <time>2025-10-18T07:52:48Z</time>
      </trkpt>
      <trkpt lat="43.22749" lon="5.49707">
        <ele>311.1</ele>
        <time>2025-10-18T07:52:49Z</time>
      </trkpt>
      <trkpt lat="43.22749" lon="5.49707">
        <ele>311.1</ele>
        <time>2025-10-18T07:52:50Z</time>
      </trkpt>
      <trkpt lat="43.22749" lon="5.49707">
        <ele>311.1</ele>
        <time>2025-10-18T07:52:51Z</time>
      </trkpt>
      <trkpt lat="43.22749" lon="5.49707">
        <ele>311</ele>
        <time>2025-10-18T07:52:52Z</time>
      </trkpt>
      <trkpt lat="43.22749" lon="5.49707">
        <ele>311</ele>
        <time>2025-10-18T07:52:53Z</time>
      </trkpt>
      <trkpt lat="43.22749" lon="5.49707">
        <ele>311</ele>
        <time>2025-10-18T07:52:54Z</time>
      </trkpt>
      <trkpt lat="43.22749" lon="5.49707">
        <ele>311.1</ele>
        <time>2025-10-18T07:52:55Z</time>
      </trkpt>
      <trkpt lat="43.22749" lon="5.49707">
        <ele>311.1</ele>
        <time>2025-10-18T07:52:56Z</time>
      </trkpt>
      <trkpt lat="43.22749" lon="5.49707">
        <ele>311.2</ele>
        <time>2025-10-18T07:52:57Z</time>
      </trkpt>
      <trkpt lat="43.22749" lon="5.49707">
        <ele>311.2</ele>
        <time>2025-10-18T07:52:58Z</time>
      </trkpt>
      <trkpt lat="43.22749" lon="5.49706">
        <ele>311.2</ele>
        <time>2025-10-18T07:52:59Z</time>
      </trkpt>
      <trkpt lat="43.22749" lon="5.49707">
        <ele>311.2</ele>
        <time>2025-10-18T07:53:00Z</time>
      </trkpt>
      <trkpt lat="43.22749" lon="5.49707">
        <ele>311.3</ele>
        <time>2025-10-18T07:53:01Z</time>
      </trkpt>
      <trkpt lat="43.22749" lon="5.49707">
        <ele>311.3</ele>
        <time>2025-10-18T07:53:02Z</time>
      </trkpt>
      <trkpt lat="43.22749" lon="5.49707">
        <ele>311.4</ele>
        <time>2025-10-18T07:53:03Z</time>
      </trkpt>
      <trkpt lat="43.22749" lon="5.49707">
        <ele>311.4</ele>
        <time>2025-10-18T07:53:04Z</time>
      </trkpt>
      <trkpt lat="43.22749" lon="5.49707">
        <ele>311.4</ele>
        <time>2025-10-18T07:53:05Z</time>
      </trkpt>
      <trkpt lat="43.22749" lon="5.49707">
        <ele>311.4</ele>
        <time>2025-10-18T07:53:06Z</time>
      </trkpt>
      <trkpt lat="43.22749" lon="5.49707">
        <ele>311.4</ele>
        <time>2025-10-18T07:53:07Z</time>
      </trkpt>
      <trkpt lat="43.22749" lon="5.49707">
        <ele>311.3</ele>
        <time>2025-10-18T07:53:08Z</time>
      </trkpt>
      <trkpt lat="43.22749" lon="5.49707">
        <ele>311.3</ele>
        <time>2025-10-18T07:53:09Z</time>
      </trkpt>
      <trkpt lat="43.22749" lon="5.49707">
        <ele>311.3</ele>
        <time>2025-10-18T07:53:10Z</time>
      </trkpt>
      <trkpt lat="43.22749" lon="5.49707">
        <ele>311.3</ele>
        <time>2025-10-18T07:53:11Z</time>
      </trkpt>
      <trkpt lat="43.22749" lon="5.49707">
        <ele>311.3</ele>
        <time>2025-10-18T07:53:12Z</time>
      </trkpt>
      <trkpt lat="43.22749" lon="5.49707">
        <ele>311.3</ele>
        <time>2025-10-18T07:53:13Z</time>
      </trkpt>
      <trkpt lat="43.22749" lon="5.49707">
        <ele>311.3</ele>
        <time>2025-10-18T07:53:14Z</time>
      </trkpt>
      <trkpt lat="43.22749" lon="5.49707">
        <ele>311.2</ele>
        <time>2025-10-18T07:53:15Z</time>
      </trkpt>
      <trkpt lat="43.22749" lon="5.49707">
        <ele>311.1</ele>
        <time>2025-10-18T07:53:16Z</time>
      </trkpt>
      <trkpt lat="43.22749" lon="5.49706">
        <ele>311</ele>
        <time>2025-10-18T07:53:17Z</time>
      </trkpt>
      <trkpt lat="43.22749" lon="5.49706">
        <ele>310.9</ele>
        <time>2025-10-18T07:53:18Z</time>
      </trkpt>
      <trkpt lat="43.22748" lon="5.49706">
        <ele>310.8</ele>
        <time>2025-10-18T07:53:19Z</time>
      </trkpt>
      <trkpt lat="43.22748" lon="5.49706">
        <ele>310.9</ele>
        <time>2025-10-18T07:53:20Z</time>
      </trkpt>
      <trkpt lat="43.22748" lon="5.49705">
        <ele>310.9</ele>
        <time>2025-10-18T07:53:21Z</time>
      </trkpt>
      <trkpt lat="43.22749" lon="5.49704">
        <ele>310.9</ele>
        <time>2025-10-18T07:53:22Z</time>
      </trkpt>
      <trkpt lat="43.22749" lon="5.49702">
        <ele>310.9</ele>
        <time>2025-10-18T07:53:23Z</time>
      </trkpt>
      <trkpt lat="43.22749" lon="5.497">
        <ele>310.8</ele>
        <time>2025-10-18T07:53:24Z</time>
      </trkpt>
      <trkpt lat="43.22749" lon="5.49699">
        <ele>310.7</ele>
        <time>2025-10-18T07:53:25Z</time>
      </trkpt>
      <trkpt lat="43.22749" lon="5.49698">
        <ele>310.7</ele>
        <time>2025-10-18T07:53:26Z</time>
      </trkpt>
      <trkpt lat="43.22749" lon="5.49697">
        <ele>310.6</ele>
        <time>2025-10-18T07:53:27Z</time>
      </trkpt>
      <trkpt lat="43.2275" lon="5.49696">
        <ele>310.6</ele>
        <time>2025-10-18T07:53:28Z</time>
      </trkpt>
      <trkpt lat="43.2275" lon="5.49695">
        <ele>310.5</ele>
        <time>2025-10-18T07:53:29Z</time>
      </trkpt>
      <trkpt lat="43.2275" lon="5.49695">
        <ele>310.4</ele>
        <time>2025-10-18T07:53:30Z</time>
      </trkpt>
      <trkpt lat="43.2275" lon="5.49693">
        <ele>310.4</ele>
        <time>2025-10-18T07:53:31Z</time>
      </trkpt>
      <trkpt lat="43.2275" lon="5.49692">
        <ele>310.3</ele>
        <time>2025-10-18T07:53:32Z</time>
      </trkpt>
      <trkpt lat="43.2275" lon="5.49691">
        <ele>310.3</ele>
        <time>2025-10-18T07:53:33Z</time>
      </trkpt>
      <trkpt lat="43.2275" lon="5.49689">
        <ele>310.3</ele>
        <time>2025-10-18T07:53:34Z</time>
      </trkpt>
      <trkpt lat="43.22751" lon="5.49688">
        <ele>310.3</ele>
        <time>2025-10-18T07:53:35Z</time>
      </trkpt>
      <trkpt lat="43.22751" lon="5.49686">
        <ele>310.3</ele>
        <time>2025-10-18T07:53:36Z</time>
      </trkpt>
      <trkpt lat="43.22751" lon="5.49685">
        <ele>310.3</ele>
        <time>2025-10-18T07:53:37Z</time>
      </trkpt>
      <trkpt lat="43.22751" lon="5.49683">
        <ele>310.3</ele>
        <time>2025-10-18T07:53:38Z</time>
      </trkpt>
      <trkpt lat="43.22752" lon="5.49682">
        <ele>310.4</ele>
        <time>2025-10-18T07:53:39Z</time>
      </trkpt>
      <trkpt lat="43.22752" lon="5.49681">
        <ele>310.5</ele>
        <time>2025-10-18T07:53:40Z</time>
      </trkpt>
      <trkpt lat="43.22752" lon="5.4968">
        <ele>310.5</ele>
        <time>2025-10-18T07:53:41Z</time>
      </trkpt>
      <trkpt lat="43.22752" lon="5.49679">
        <ele>310.6</ele>
        <time>2025-10-18T07:53:42Z</time>
      </trkpt>
      <trkpt lat="43.22753" lon="5.49678">
        <ele>310.6</ele>
        <time>2025-10-18T07:53:43Z</time>
      </trkpt>
      <trkpt lat="43.22753" lon="5.49677">
        <ele>310.6</ele>
        <time>2025-10-18T07:53:44Z</time>
      </trkpt>
      <trkpt lat="43.22753" lon="5.49676">
        <ele>310.7</ele>
        <time>2025-10-18T07:53:45Z</time>
      </trkpt>
      <trkpt lat="43.22753" lon="5.49675">
        <ele>310.9</ele>
        <time>2025-10-18T07:53:46Z</time>
      </trkpt>
      <trkpt lat="43.22753" lon="5.49673">
        <ele>310.8</ele>
        <time>2025-10-18T07:53:47Z</time>
      </trkpt>
      <trkpt lat="43.22753" lon="5.49672">
        <ele>310.8</ele>
        <time>2025-10-18T07:53:48Z</time>
      </trkpt>
      <trkpt lat="43.22753" lon="5.49671">
        <ele>310.9</ele>
        <time>2025-10-18T07:53:49Z</time>
      </trkpt>
      <trkpt lat="43.22754" lon="5.4967">
        <ele>311</ele>
        <time>2025-10-18T07:53:50Z</time>
      </trkpt>
      <trkpt lat="43.22754" lon="5.49669">
        <ele>311.1</ele>
        <time>2025-10-18T07:53:51Z</time>
      </trkpt>
      <trkpt lat="43.22754" lon="5.49668">
        <ele>311.1</ele>
        <time>2025-10-18T07:53:52Z</time>
      </trkpt>
      <trkpt lat="43.22754" lon="5.49666">
        <ele>311.2</ele>
        <time>2025-10-18T07:53:53Z</time>
      </trkpt>
      <trkpt lat="43.22755" lon="5.49666">
        <ele>311.3</ele>
        <time>2025-10-18T07:53:54Z</time>
      </trkpt>
      <trkpt lat="43.22755" lon="5.49665">
        <ele>311.4</ele>
        <time>2025-10-18T07:53:55Z</time>
      </trkpt>
      <trkpt lat="43.22755" lon="5.49664">
        <ele>311.5</ele>
        <time>2025-10-18T07:53:56Z</time>
      </trkpt>
      <trkpt lat="43.22755" lon="5.49663">
        <ele>311.6</ele>
        <time>2025-10-18T07:53:57Z</time>
      </trkpt>
      <trkpt lat="43.22755" lon="5.49662">
        <ele>311.6</ele>
        <time>2025-10-18T07:53:58Z</time>
      </trkpt>
      <trkpt lat="43.22755" lon="5.49661">
        <ele>311.6</ele>
        <time>2025-10-18T07:53:59Z</time>
      </trkpt>
      <trkpt lat="43.22756" lon="5.4966">
        <ele>311.7</ele>
        <time>2025-10-18T07:54:00Z</time>
      </trkpt>
      <trkpt lat="43.22756" lon="5.49659">
        <ele>311.8</ele>
        <time>2025-10-18T07:54:01Z</time>
      </trkpt>
      <trkpt lat="43.22756" lon="5.49658">
        <ele>311.9</ele>
        <time>2025-10-18T07:54:02Z</time>
      </trkpt>
      <trkpt lat="43.22756" lon="5.49657">
        <ele>311.9</ele>
        <time>2025-10-18T07:54:03Z</time>
      </trkpt>
      <trkpt lat="43.22756" lon="5.49656">
        <ele>312.1</ele>
        <time>2025-10-18T07:54:04Z</time>
      </trkpt>
      <trkpt lat="43.22756" lon="5.49655">
        <ele>312.2</ele>
        <time>2025-10-18T07:54:05Z</time>
      </trkpt>
      <trkpt lat="43.22756" lon="5.49654">
        <ele>312.3</ele>
        <time>2025-10-18T07:54:06Z</time>
      </trkpt>
      <trkpt lat="43.22756" lon="5.49653">
        <ele>312.4</ele>
        <time>2025-10-18T07:54:07Z</time>
      </trkpt>
      <trkpt lat="43.22756" lon="5.49652">
        <ele>312.4</ele>
        <time>2025-10-18T07:54:08Z</time>
      </trkpt>
      <trkpt lat="43.22756" lon="5.49651">
        <ele>312.6</ele>
        <time>2025-10-18T07:54:09Z</time>
      </trkpt>
      <trkpt lat="43.22756" lon="5.4965">
        <ele>312.7</ele>
        <time>2025-10-18T07:54:10Z</time>
      </trkpt>
      <trkpt lat="43.22756" lon="5.49649">
        <ele>312.8</ele>
        <time>2025-10-18T07:54:11Z</time>
      </trkpt>
      <trkpt lat="43.22756" lon="5.49648">
        <ele>312.9</ele>
        <time>2025-10-18T07:54:12Z</time>
      </trkpt>
      <trkpt lat="43.22756" lon="5.49647">
        <ele>313</ele>
        <time>2025-10-18T07:54:13Z</time>
      </trkpt>
      <trkpt lat="43.22756" lon="5.49645">
        <ele>313.1</ele>
        <time>2025-10-18T07:54:14Z</time>
      </trkpt>
      <trkpt lat="43.22756" lon="5.49645">
        <ele>313.2</ele>
        <time>2025-10-18T07:54:15Z</time>
      </trkpt>
      <trkpt lat="43.22755" lon="5.49644">
        <ele>313.2</ele>
        <time>2025-10-18T07:54:16Z</time>
      </trkpt>
      <trkpt lat="43.22755" lon="5.49644">
        <ele>313.3</ele>
        <time>2025-10-18T07:54:17Z</time>
      </trkpt>
      <trkpt lat="43.22755" lon="5.49643">
        <ele>313.3</ele>
        <time>2025-10-18T07:54:18Z</time>
      </trkpt>
      <trkpt lat="43.22755" lon="5.49642">
        <ele>313.3</ele>
        <time>2025-10-18T07:54:19Z</time>
      </trkpt>
      <trkpt lat="43.22755" lon="5.49641">
        <ele>313.4</ele>
        <time>2025-10-18T07:54:20Z</time>
      </trkpt>
      <trkpt lat="43.22755" lon="5.49641">
        <ele>313.4</ele>
        <time>2025-10-18T07:54:21Z</time>
      </trkpt>
      <trkpt lat="43.22755" lon="5.49641">
        <ele>313.5</ele>
        <time>2025-10-18T07:54:22Z</time>
      </trkpt>
      <trkpt lat="43.22755" lon="5.49641">
        <ele>313.6</ele>
        <time>2025-10-18T07:54:23Z</time>
      </trkpt>
      <trkpt lat="43.22755" lon="5.4964">
        <ele>313.7</ele>
        <time>2025-10-18T07:54:24Z</time>
      </trkpt>
      <trkpt lat="43.22755" lon="5.49639">
        <ele>313.7</ele>
        <time>2025-10-18T07:54:25Z</time>
      </trkpt>
      <trkpt lat="43.22755" lon="5.49638">
        <ele>313.8</ele>
        <time>2025-10-18T07:54:26Z</time>
      </trkpt>
      <trkpt lat="43.22755" lon="5.49636">
        <ele>313.9</ele>
        <time>2025-10-18T07:54:27Z</time>
      </trkpt>
      <trkpt lat="43.22755" lon="5.49635">
        <ele>314</ele>
        <time>2025-10-18T07:54:28Z</time>
      </trkpt>
      <trkpt lat="43.22755" lon="5.49633">
        <ele>314</ele>
        <time>2025-10-18T07:54:29Z</time>
      </trkpt>
      <trkpt lat="43.22755" lon="5.49632">
        <ele>314.2</ele>
        <time>2025-10-18T07:54:30Z</time>
      </trkpt>
      <trkpt lat="43.22755" lon="5.4963">
        <ele>314.3</ele>
        <time>2025-10-18T07:54:31Z</time>
      </trkpt>
      <trkpt lat="43.22755" lon="5.49629">
        <ele>314.5</ele>
        <time>2025-10-18T07:54:32Z</time>
      </trkpt>
      <trkpt lat="43.22755" lon="5.49627">
        <ele>314.6</ele>
        <time>2025-10-18T07:54:33Z</time>
      </trkpt>
      <trkpt lat="43.22755" lon="5.49626">
        <ele>314.7</ele>
        <time>2025-10-18T07:54:34Z</time>
      </trkpt>
      <trkpt lat="43.22755" lon="5.49624">
        <ele>314.9</ele>
        <time>2025-10-18T07:54:35Z</time>
      </trkpt>
      <trkpt lat="43.22755" lon="5.49622">
        <ele>315</ele>
        <time>2025-10-18T07:54:36Z</time>
      </trkpt>
      <trkpt lat="43.22756" lon="5.4962">
        <ele>315.2</ele>
        <time>2025-10-18T07:54:37Z</time>
      </trkpt>
      <trkpt lat="43.22756" lon="5.49619">
        <ele>315.2</ele>
        <time>2025-10-18T07:54:38Z</time>
      </trkpt>
      <trkpt lat="43.22756" lon="5.49618">
        <ele>315.5</ele>
        <time>2025-10-18T07:54:39Z</time>
      </trkpt>
      <trkpt lat="43.22756" lon="5.49616">
        <ele>315.7</ele>
        <time>2025-10-18T07:54:40Z</time>
      </trkpt>
      <trkpt lat="43.22757" lon="5.49615">
        <ele>315.8</ele>
        <time>2025-10-18T07:54:41Z</time>
      </trkpt>
      <trkpt lat="43.22757" lon="5.49614">
        <ele>316</ele>
        <time>2025-10-18T07:54:42Z</time>
      </trkpt>
      <trkpt lat="43.22757" lon="5.49613">
        <ele>316.1</ele>
        <time>2025-10-18T07:54:43Z</time>
      </trkpt>
      <trkpt lat="43.22757" lon="5.49612">
        <ele>316.2</ele>
        <time>2025-10-18T07:54:44Z</time>
      </trkpt>
      <trkpt lat="43.22757" lon="5.4961">
        <ele>316.4</ele>
        <time>2025-10-18T07:54:45Z</time>
      </trkpt>
      <trkpt lat="43.22757" lon="5.49609">
        <ele>316.6</ele>
        <time>2025-10-18T07:54:46Z</time>
      </trkpt>
      <trkpt lat="43.22757" lon="5.49608">
        <ele>316.8</ele>
        <time>2025-10-18T07:54:47Z</time>
      </trkpt>
      <trkpt lat="43.22757" lon="5.49607">
        <ele>317</ele>
        <time>2025-10-18T07:54:48Z</time>
      </trkpt>
      <trkpt lat="43.22757" lon="5.49606">
        <ele>317.2</ele>
        <time>2025-10-18T07:54:49Z</time>
      </trkpt>
      <trkpt lat="43.22757" lon="5.49605">
        <ele>317.5</ele>
        <time>2025-10-18T07:54:50Z</time>
      </trkpt>
      <trkpt lat="43.22757" lon="5.49604">
        <ele>317.7</ele>
        <time>2025-10-18T07:54:51Z</time>
      </trkpt>
      <trkpt lat="43.22757" lon="5.49603">
        <ele>317.8</ele>
        <time>2025-10-18T07:54:52Z</time>
      </trkpt>
      <trkpt lat="43.22757" lon="5.49602">
        <ele>317.9</ele>
        <time>2025-10-18T07:54:53Z</time>
      </trkpt>
      <trkpt lat="43.22757" lon="5.49601">
        <ele>318</ele>
        <time>2025-10-18T07:54:54Z</time>
      </trkpt>
      <trkpt lat="43.22757" lon="5.496">
        <ele>318.1</ele>
        <time>2025-10-18T07:54:55Z</time>
      </trkpt>
      <trkpt lat="43.22757" lon="5.49599">
        <ele>318.2</ele>
        <time>2025-10-18T07:54:56Z</time>
      </trkpt>
      <trkpt lat="43.22757" lon="5.49598">
        <ele>318.3</ele>
        <time>2025-10-18T07:54:57Z</time>
      </trkpt>
      <trkpt lat="43.22757" lon="5.49597">
        <ele>318.4</ele>
        <time>2025-10-18T07:54:58Z</time>
      </trkpt>
      <trkpt lat="43.22757" lon="5.49597">
        <ele>318.6</ele>
        <time>2025-10-18T07:54:59Z</time>
      </trkpt>
      <trkpt lat="43.22757" lon="5.49596">
        <ele>318.7</ele>
        <time>2025-10-18T07:55:00Z</time>
      </trkpt>
      <trkpt lat="43.22757" lon="5.49595">
        <ele>318.8</ele>
        <time>2025-10-18T07:55:01Z</time>
      </trkpt>
      <trkpt lat="43.22757" lon="5.49594">
        <ele>319</ele>
        <time>2025-10-18T07:55:02Z</time>
      </trkpt>
      <trkpt lat="43.22757" lon="5.49593">
        <ele>319.2</ele>
        <time>2025-10-18T07:55:03Z</time>
      </trkpt>
      <trkpt lat="43.22757" lon="5.49592">
        <ele>319.3</ele>
        <time>2025-10-18T07:55:04Z</time>
      </trkpt>
      <trkpt lat="43.22757" lon="5.49591">
        <ele>319.5</ele>
        <time>2025-10-18T07:55:05Z</time>
      </trkpt>
      <trkpt lat="43.22756" lon="5.4959">
        <ele>319.6</ele>
        <time>2025-10-18T07:55:06Z</time>
      </trkpt>
      <trkpt lat="43.22756" lon="5.49589">
        <ele>319.6</ele>
        <time>2025-10-18T07:55:07Z</time>
      </trkpt>
      <trkpt lat="43.22756" lon="5.49588">
        <ele>319.7</ele>
        <time>2025-10-18T07:55:08Z</time>
      </trkpt>
      <trkpt lat="43.22756" lon="5.49587">
        <ele>319.8</ele>
        <time>2025-10-18T07:55:09Z</time>
      </trkpt>
      <trkpt lat="43.22756" lon="5.49586">
        <ele>319.9</ele>
        <time>2025-10-18T07:55:10Z</time>
      </trkpt>
      <trkpt lat="43.22755" lon="5.49585">
        <ele>320</ele>
        <time>2025-10-18T07:55:11Z</time>
      </trkpt>
      <trkpt lat="43.22755" lon="5.49584">
        <ele>320.2</ele>
        <time>2025-10-18T07:55:12Z</time>
      </trkpt>
      <trkpt lat="43.22755" lon="5.49583">
        <ele>320.3</ele>
        <time>2025-10-18T07:55:13Z</time>
      </trkpt>
      <trkpt lat="43.22755" lon="5.49582">
        <ele>320.5</ele>
        <time>2025-10-18T07:55:14Z</time>
      </trkpt>
      <trkpt lat="43.22755" lon="5.49581">
        <ele>320.6</ele>
        <time>2025-10-18T07:55:15Z</time>
      </trkpt>
      <trkpt lat="43.22755" lon="5.4958">
        <ele>320.7</ele>
        <time>2025-10-18T07:55:16Z</time>
      </trkpt>
      <trkpt lat="43.22755" lon="5.49579">
        <ele>320.8</ele>
        <time>2025-10-18T07:55:17Z</time>
      </trkpt>
      <trkpt lat="43.22755" lon="5.49578">
        <ele>320.9</ele>
        <time>2025-10-18T07:55:18Z</time>
      </trkpt>
      <trkpt lat="43.22755" lon="5.49577">
        <ele>321.1</ele>
        <time>2025-10-18T07:55:19Z</time>
      </trkpt>
      <trkpt lat="43.22755" lon="5.49576">
        <ele>321.2</ele>
        <time>2025-10-18T07:55:20Z</time>
      </trkpt>
      <trkpt lat="43.22755" lon="5.49575">
        <ele>321.4</ele>
        <time>2025-10-18T07:55:21Z</time>
      </trkpt>
      <trkpt lat="43.22755" lon="5.49574">
        <ele>321.6</ele>
        <time>2025-10-18T07:55:22Z</time>
      </trkpt>
      <trkpt lat="43.22755" lon="5.49573">
        <ele>321.7</ele>
        <time>2025-10-18T07:55:23Z</time>
      </trkpt>
      <trkpt lat="43.22755" lon="5.49572">
        <ele>321.8</ele>
        <time>2025-10-18T07:55:24Z</time>
      </trkpt>
      <trkpt lat="43.22755" lon="5.49571">
        <ele>321.8</ele>
        <time>2025-10-18T07:55:25Z</time>
      </trkpt>
      <trkpt lat="43.22755" lon="5.4957">
        <ele>321.9</ele>
        <time>2025-10-18T07:55:26Z</time>
      </trkpt>
      <trkpt lat="43.22755" lon="5.49569">
        <ele>322.1</ele>
        <time>2025-10-18T07:55:27Z</time>
      </trkpt>
      <trkpt lat="43.22755" lon="5.49567">
        <ele>322.2</ele>
        <time>2025-10-18T07:55:28Z</time>
      </trkpt>
      <trkpt lat="43.22755" lon="5.49566">
        <ele>322.2</ele>
        <time>2025-10-18T07:55:29Z</time>
      </trkpt>
      <trkpt lat="43.22754" lon="5.49565">
        <ele>322.3</ele>
        <time>2025-10-18T07:55:30Z</time>
      </trkpt>
      <trkpt lat="43.22754" lon="5.49564">
        <ele>322.4</ele>
        <time>2025-10-18T07:55:31Z</time>
      </trkpt>
      <trkpt lat="43.22754" lon="5.49563">
        <ele>322.4</ele>
        <time>2025-10-18T07:55:32Z</time>
      </trkpt>
      <trkpt lat="43.22754" lon="5.49562">
        <ele>322.6</ele>
        <time>2025-10-18T07:55:33Z</time>
      </trkpt>
      <trkpt lat="43.22754" lon="5.49561">
        <ele>322.7</ele>
        <time>2025-10-18T07:55:34Z</time>
      </trkpt>
      <trkpt lat="43.22753" lon="5.49559">
        <ele>322.8</ele>
        <time>2025-10-18T07:55:35Z</time>
      </trkpt>
      <trkpt lat="43.22753" lon="5.49558">
        <ele>322.9</ele>
        <time>2025-10-18T07:55:36Z</time>
      </trkpt>
      <trkpt lat="43.22753" lon="5.49557">
        <ele>323.1</ele>
        <time>2025-10-18T07:55:37Z</time>
      </trkpt>
      <trkpt lat="43.22752" lon="5.49556">
        <ele>323.2</ele>
        <time>2025-10-18T07:55:38Z</time>
      </trkpt>
      <trkpt lat="43.22752" lon="5.49555">
        <ele>323.3</ele>
        <time>2025-10-18T07:55:39Z</time>
      </trkpt>
      <trkpt lat="43.22752" lon="5.49553">
        <ele>323.4</ele>
        <time>2025-10-18T07:55:40Z</time>
      </trkpt>
      <trkpt lat="43.22752" lon="5.49552">
        <ele>323.4</ele>
        <time>2025-10-18T07:55:41Z</time>
      </trkpt>
      <trkpt lat="43.22752" lon="5.49551">
        <ele>323.6</ele>
        <time>2025-10-18T07:55:42Z</time>
      </trkpt>
      <trkpt lat="43.22752" lon="5.4955">
        <ele>323.7</ele>
        <time>2025-10-18T07:55:43Z</time>
      </trkpt>
      <trkpt lat="43.22751" lon="5.49549">
        <ele>323.8</ele>
        <time>2025-10-18T07:55:44Z</time>
      </trkpt>
      <trkpt lat="43.22751" lon="5.49548">
        <ele>323.9</ele>
        <time>2025-10-18T07:55:45Z</time>
      </trkpt>
      <trkpt lat="43.22751" lon="5.49547">
        <ele>324</ele>
        <time>2025-10-18T07:55:46Z</time>
      </trkpt>
      <trkpt lat="43.22751" lon="5.49546">
        <ele>324.2</ele>
        <time>2025-10-18T07:55:47Z</time>
      </trkpt>
      <trkpt lat="43.22751" lon="5.49545">
        <ele>324.3</ele>
        <time>2025-10-18T07:55:48Z</time>
      </trkpt>
      <trkpt lat="43.2275" lon="5.49543">
        <ele>324.4</ele>
        <time>2025-10-18T07:55:49Z</time>
      </trkpt>
      <trkpt lat="43.2275" lon="5.49543">
        <ele>324.5</ele>
        <time>2025-10-18T07:55:50Z</time>
      </trkpt>
      <trkpt lat="43.2275" lon="5.49542">
        <ele>324.6</ele>
        <time>2025-10-18T07:55:51Z</time>
      </trkpt>
      <trkpt lat="43.2275" lon="5.49541">
        <ele>324.7</ele>
        <time>2025-10-18T07:55:52Z</time>
      </trkpt>
      <trkpt lat="43.2275" lon="5.4954">
        <ele>324.8</ele>
        <time>2025-10-18T07:55:53Z</time>
      </trkpt>
      <trkpt lat="43.22749" lon="5.49539">
        <ele>324.8</ele>
        <time>2025-10-18T07:55:54Z</time>
      </trkpt>
      <trkpt lat="43.22749" lon="5.49538">
        <ele>324.9</ele>
        <time>2025-10-18T07:55:55Z</time>
      </trkpt>
      <trkpt lat="43.22749" lon="5.49537">
        <ele>325</ele>
        <time>2025-10-18T07:55:56Z</time>
      </trkpt>
      <trkpt lat="43.22749" lon="5.49536">
        <ele>325.1</ele>
        <time>2025-10-18T07:55:57Z</time>
      </trkpt>
      <trkpt lat="43.22749" lon="5.49534">
        <ele>325.2</ele>
        <time>2025-10-18T07:55:58Z</time>
      </trkpt>
      <trkpt lat="43.22748" lon="5.49533">
        <ele>325.2</ele>
        <time>2025-10-18T07:55:59Z</time>
      </trkpt>
      <trkpt lat="43.22748" lon="5.49533">
        <ele>325.3</ele>
        <time>2025-10-18T07:56:00Z</time>
      </trkpt>
      <trkpt lat="43.22747" lon="5.49532">
        <ele>325.4</ele>
        <time>2025-10-18T07:56:01Z</time>
      </trkpt>
      <trkpt lat="43.22746" lon="5.49532">
        <ele>325.5</ele>
        <time>2025-10-18T07:56:02Z</time>
      </trkpt>
      <trkpt lat="43.22746" lon="5.49531">
        <ele>325.7</ele>
        <time>2025-10-18T07:56:03Z</time>
      </trkpt>
      <trkpt lat="43.22746" lon="5.49531">
        <ele>325.9</ele>
        <time>2025-10-18T07:56:04Z</time>
      </trkpt>
      <trkpt lat="43.22745" lon="5.49531">
        <ele>326.1</ele>
        <time>2025-10-18T07:56:05Z</time>
      </trkpt>
      <trkpt lat="43.22745" lon="5.4953">
        <ele>326.1</ele>
        <time>2025-10-18T07:56:06Z</time>
      </trkpt>
      <trkpt lat="43.22744" lon="5.4953">
        <ele>326.2</ele>
        <time>2025-10-18T07:56:07Z</time>
      </trkpt>
      <trkpt lat="43.22743" lon="5.4953">
        <ele>326.1</ele>
        <time>2025-10-18T07:56:08Z</time>
      </trkpt>
      <trkpt lat="43.22742" lon="5.4953">
        <ele>326.1</ele>
        <time>2025-10-18T07:56:09Z</time>
      </trkpt>
      <trkpt lat="43.22742" lon="5.49529">
        <ele>326.1</ele>
        <time>2025-10-18T07:56:10Z</time>
      </trkpt>
      <trkpt lat="43.22741" lon="5.49528">
        <ele>325.9</ele>
        <time>2025-10-18T07:56:11Z</time>
      </trkpt>
      <trkpt lat="43.2274" lon="5.49528">
        <ele>325.8</ele>
        <time>2025-10-18T07:56:12Z</time>
      </trkpt>
      <trkpt lat="43.22739" lon="5.49527">
        <ele>325.8</ele>
        <time>2025-10-18T07:56:13Z</time>
      </trkpt>
      <trkpt lat="43.22738" lon="5.49527">
        <ele>325.7</ele>
        <time>2025-10-18T07:56:14Z</time>
      </trkpt>
      <trkpt lat="43.22737" lon="5.49526">
        <ele>325.7</ele>
        <time>2025-10-18T07:56:15Z</time>
      </trkpt>
      <trkpt lat="43.22737" lon="5.49525">
        <ele>325.7</ele>
        <time>2025-10-18T07:56:16Z</time>
      </trkpt>
      <trkpt lat="43.22736" lon="5.49524">
        <ele>325.7</ele>
        <time>2025-10-18T07:56:17Z</time>
      </trkpt>
      <trkpt lat="43.22735" lon="5.49524">
        <ele>325.7</ele>
        <time>2025-10-18T07:56:18Z</time>
      </trkpt>
      <trkpt lat="43.22734" lon="5.49524">
        <ele>325.8</ele>
        <time>2025-10-18T07:56:19Z</time>
      </trkpt>
      <trkpt lat="43.22734" lon="5.49524">
        <ele>325.8</ele>
        <time>2025-10-18T07:56:20Z</time>
      </trkpt>
      <trkpt lat="43.22733" lon="5.49523">
        <ele>325.8</ele>
        <time>2025-10-18T07:56:21Z</time>
      </trkpt>
      <trkpt lat="43.22732" lon="5.49523">
        <ele>325.9</ele>
        <time>2025-10-18T07:56:22Z</time>
      </trkpt>
      <trkpt lat="43.22732" lon="5.49522">
        <ele>326</ele>
        <time>2025-10-18T07:56:23Z</time>
      </trkpt>
      <trkpt lat="43.22731" lon="5.49521">
        <ele>326</ele>
        <time>2025-10-18T07:56:24Z</time>
      </trkpt>
      <trkpt lat="43.2273" lon="5.4952">
        <ele>326.1</ele>
        <time>2025-10-18T07:56:25Z</time>
      </trkpt>
      <trkpt lat="43.2273" lon="5.49519">
        <ele>326.2</ele>
        <time>2025-10-18T07:56:26Z</time>
      </trkpt>
      <trkpt lat="43.22729" lon="5.49518">
        <ele>326.2</ele>
        <time>2025-10-18T07:56:27Z</time>
      </trkpt>
      <trkpt lat="43.22728" lon="5.49517">
        <ele>326.3</ele>
        <time>2025-10-18T07:56:28Z</time>
      </trkpt>
      <trkpt lat="43.22728" lon="5.49517">
        <ele>326.3</ele>
        <time>2025-10-18T07:56:29Z</time>
      </trkpt>
      <trkpt lat="43.22727" lon="5.49516">
        <ele>326.4</ele>
        <time>2025-10-18T07:56:30Z</time>
      </trkpt>
      <trkpt lat="43.22726" lon="5.49515">
        <ele>326.5</ele>
        <time>2025-10-18T07:56:31Z</time>
      </trkpt>
      <trkpt lat="43.22725" lon="5.49514">
        <ele>326.5</ele>
        <time>2025-10-18T07:56:32Z</time>
      </trkpt>
      <trkpt lat="43.22724" lon="5.49514">
        <ele>326.6</ele>
        <time>2025-10-18T07:56:33Z</time>
      </trkpt>
      <trkpt lat="43.22723" lon="5.49513">
        <ele>326.6</ele>
        <time>2025-10-18T07:56:34Z</time>
      </trkpt>
      <trkpt lat="43.22722" lon="5.49513">
        <ele>326.6</ele>
        <time>2025-10-18T07:56:35Z</time>
      </trkpt>
      <trkpt lat="43.22722" lon="5.49512">
        <ele>326.6</ele>
        <time>2025-10-18T07:56:36Z</time>
      </trkpt>
      <trkpt lat="43.22721" lon="5.49512">
        <ele>326.6</ele>
        <time>2025-10-18T07:56:37Z</time>
      </trkpt>
      <trkpt lat="43.2272" lon="5.49511">
        <ele>326.6</ele>
        <time>2025-10-18T07:56:38Z</time>
      </trkpt>
      <trkpt lat="43.22719" lon="5.49511">
        <ele>326.6</ele>
        <time>2025-10-18T07:56:39Z</time>
      </trkpt>
      <trkpt lat="43.22718" lon="5.4951">
        <ele>326.6</ele>
        <time>2025-10-18T07:56:40Z</time>
      </trkpt>
      <trkpt lat="43.22717" lon="5.4951">
        <ele>326.7</ele>
        <time>2025-10-18T07:56:41Z</time>
      </trkpt>
      <trkpt lat="43.22716" lon="5.49509">
        <ele>326.7</ele>
        <time>2025-10-18T07:56:42Z</time>
      </trkpt>
      <trkpt lat="43.22715" lon="5.49508">
        <ele>326.7</ele>
        <time>2025-10-18T07:56:43Z</time>
      </trkpt>
      <trkpt lat="43.22715" lon="5.49507">
        <ele>326.7</ele>
        <time>2025-10-18T07:56:44Z</time>
      </trkpt>
      <trkpt lat="43.22714" lon="5.49506">
        <ele>326.8</ele>
        <time>2025-10-18T07:56:45Z</time>
      </trkpt>
      <trkpt lat="43.22713" lon="5.49506">
        <ele>326.8</ele>
        <time>2025-10-18T07:56:46Z</time>
      </trkpt>
      <trkpt lat="43.22712" lon="5.49505">
        <ele>326.8</ele>
        <time>2025-10-18T07:56:47Z</time>
      </trkpt>
      <trkpt lat="43.22711" lon="5.49504">
        <ele>326.9</ele>
        <time>2025-10-18T07:56:48Z</time>
      </trkpt>
      <trkpt lat="43.2271" lon="5.49503">
        <ele>327</ele>
        <time>2025-10-18T07:56:49Z</time>
      </trkpt>
      <trkpt lat="43.22709" lon="5.49502">
        <ele>327</ele>
        <time>2025-10-18T07:56:50Z</time>
      </trkpt>
      <trkpt lat="43.22709" lon="5.49502">
        <ele>327.1</ele>
        <time>2025-10-18T07:56:51Z</time>
      </trkpt>
      <trkpt lat="43.22708" lon="5.49501">
        <ele>327.1</ele>
        <time>2025-10-18T07:56:52Z</time>
      </trkpt>
      <trkpt lat="43.22707" lon="5.49501">
        <ele>327.1</ele>
        <time>2025-10-18T07:56:53Z</time>
      </trkpt>
      <trkpt lat="43.22706" lon="5.495">
        <ele>327.1</ele>
        <time>2025-10-18T07:56:54Z</time>
      </trkpt>
      <trkpt lat="43.22705" lon="5.49499">
        <ele>327.1</ele>
        <time>2025-10-18T07:56:55Z</time>
      </trkpt>
      <trkpt lat="43.22705" lon="5.49498">
        <ele>327.1</ele>
        <time>2025-10-18T07:56:56Z</time>
      </trkpt>
      <trkpt lat="43.22704" lon="5.49497">
        <ele>327.1</ele>
        <time>2025-10-18T07:56:57Z</time>
      </trkpt>
      <trkpt lat="43.22703" lon="5.49496">
        <ele>327.1</ele>
        <time>2025-10-18T07:56:58Z</time>
      </trkpt>
      <trkpt lat="43.22702" lon="5.49495">
        <ele>327.1</ele>
        <time>2025-10-18T07:56:59Z</time>
      </trkpt>
      <trkpt lat="43.22701" lon="5.49495">
        <ele>327.2</ele>
        <time>2025-10-18T07:57:00Z</time>
      </trkpt>
      <trkpt lat="43.22701" lon="5.49493">
        <ele>327.1</ele>
        <time>2025-10-18T07:57:01Z</time>
      </trkpt>
      <trkpt lat="43.227" lon="5.49492">
        <ele>327.1</ele>
        <time>2025-10-18T07:57:02Z</time>
      </trkpt>
      <trkpt lat="43.22699" lon="5.49492">
        <ele>327.1</ele>
        <time>2025-10-18T07:57:03Z</time>
      </trkpt>
      <trkpt lat="43.22699" lon="5.49491">
        <ele>327.1</ele>
        <time>2025-10-18T07:57:04Z</time>
      </trkpt>
      <trkpt lat="43.22698" lon="5.4949">
        <ele>327.1</ele>
        <time>2025-10-18T07:57:05Z</time>
      </trkpt>
      <trkpt lat="43.22697" lon="5.49489">
        <ele>327</ele>
        <time>2025-10-18T07:57:06Z</time>
      </trkpt>
      <trkpt lat="43.22696" lon="5.49488">
        <ele>326.9</ele>
        <time>2025-10-18T07:57:07Z</time>
      </trkpt>
      <trkpt lat="43.22695" lon="5.49487">
        <ele>326.9</ele>
        <time>2025-10-18T07:57:08Z</time>
      </trkpt>
      <trkpt lat="43.22694" lon="5.49486">
        <ele>326.9</ele>
        <time>2025-10-18T07:57:09Z</time>
      </trkpt>
      <trkpt lat="43.22694" lon="5.49485">
        <ele>326.8</ele>
        <time>2025-10-18T07:57:10Z</time>
      </trkpt>
      <trkpt lat="43.22693" lon="5.49485">
        <ele>326.9</ele>
        <time>2025-10-18T07:57:11Z</time>
      </trkpt>
      <trkpt lat="43.22692" lon="5.49484">
        <ele>326.9</ele>
        <time>2025-10-18T07:57:12Z</time>
      </trkpt>
      <trkpt lat="43.22691" lon="5.49483">
        <ele>326.9</ele>
        <time>2025-10-18T07:57:13Z</time>
      </trkpt>
      <trkpt lat="43.22691" lon="5.49482">
        <ele>326.9</ele>
        <time>2025-10-18T07:57:14Z</time>
      </trkpt>
      <trkpt lat="43.2269" lon="5.49481">
        <ele>326.8</ele>
        <time>2025-10-18T07:57:15Z</time>
      </trkpt>
      <trkpt lat="43.22689" lon="5.49481">
        <ele>326.8</ele>
        <time>2025-10-18T07:57:16Z</time>
      </trkpt>
      <trkpt lat="43.22688" lon="5.4948">
        <ele>326.8</ele>
        <time>2025-10-18T07:57:17Z</time>
      </trkpt>
      <trkpt lat="43.22687" lon="5.49479">
        <ele>326.7</ele>
        <time>2025-10-18T07:57:18Z</time>
      </trkpt>
      <trkpt lat="43.22686" lon="5.49478">
        <ele>326.7</ele>
        <time>2025-10-18T07:57:19Z</time>
      </trkpt>
      <trkpt lat="43.22686" lon="5.49477">
        <ele>326.7</ele>
        <time>2025-10-18T07:57:20Z</time>
      </trkpt>
      <trkpt lat="43.22685" lon="5.49476">
        <ele>326.6</ele>
        <time>2025-10-18T07:57:21Z</time>
      </trkpt>
      <trkpt lat="43.22684" lon="5.49475">
        <ele>326.6</ele>
        <time>2025-10-18T07:57:22Z</time>
      </trkpt>
      <trkpt lat="43.22684" lon="5.49474">
        <ele>326.6</ele>
        <time>2025-10-18T07:57:23Z</time>
      </trkpt>
      <trkpt lat="43.22683" lon="5.49472">
        <ele>326.6</ele>
        <time>2025-10-18T07:57:24Z</time>
      </trkpt>
      <trkpt lat="43.22683" lon="5.49472">
        <ele>326.4</ele>
        <time>2025-10-18T07:57:25Z</time>
      </trkpt>
      <trkpt lat="43.22682" lon="5.49471">
        <ele>326.3</ele>
        <time>2025-10-18T07:57:26Z</time>
      </trkpt>
      <trkpt lat="43.22681" lon="5.4947">
        <ele>326.2</ele>
        <time>2025-10-18T07:57:27Z</time>
      </trkpt>
      <trkpt lat="43.22681" lon="5.49469">
        <ele>326.2</ele>
        <time>2025-10-18T07:57:28Z</time>
      </trkpt>
      <trkpt lat="43.2268" lon="5.49468">
        <ele>326.3</ele>
        <time>2025-10-18T07:57:29Z</time>
      </trkpt>
      <trkpt lat="43.22679" lon="5.49467">
        <ele>326.3</ele>
        <time>2025-10-18T07:57:30Z</time>
      </trkpt>
      <trkpt lat="43.22678" lon="5.49466">
        <ele>326.3</ele>
        <time>2025-10-18T07:57:31Z</time>
      </trkpt>
      <trkpt lat="43.22678" lon="5.49465">
        <ele>326.3</ele>
        <time>2025-10-18T07:57:32Z</time>
      </trkpt>
      <trkpt lat="43.22677" lon="5.49464">
        <ele>326.3</ele>
        <time>2025-10-18T07:57:33Z</time>
      </trkpt>
      <trkpt lat="43.22676" lon="5.49463">
        <ele>326.2</ele>
        <time>2025-10-18T07:57:34Z</time>
      </trkpt>
      <trkpt lat="43.22676" lon="5.49462">
        <ele>326.1</ele>
        <time>2025-10-18T07:57:35Z</time>
      </trkpt>
      <trkpt lat="43.22676" lon="5.49461">
        <ele>326.1</ele>
        <time>2025-10-18T07:57:36Z</time>
      </trkpt>
      <trkpt lat="43.22675" lon="5.4946">
        <ele>326.1</ele>
        <time>2025-10-18T07:57:37Z</time>
      </trkpt>
      <trkpt lat="43.22675" lon="5.49459">
        <ele>326.1</ele>
        <time>2025-10-18T07:57:38Z</time>
      </trkpt>
      <trkpt lat="43.22674" lon="5.49458">
        <ele>326.1</ele>
        <time>2025-10-18T07:57:39Z</time>
      </trkpt>
      <trkpt lat="43.22673" lon="5.49457">
        <ele>326.1</ele>
        <time>2025-10-18T07:57:40Z</time>
      </trkpt>
      <trkpt lat="43.22672" lon="5.49456">
        <ele>326.2</ele>
        <time>2025-10-18T07:57:41Z</time>
      </trkpt>
      <trkpt lat="43.22672" lon="5.49455">
        <ele>326.2</ele>
        <time>2025-10-18T07:57:42Z</time>
      </trkpt>
      <trkpt lat="43.22671" lon="5.49454">
        <ele>326.2</ele>
        <time>2025-10-18T07:57:43Z</time>
      </trkpt>
      <trkpt lat="43.2267" lon="5.49453">
        <ele>326.2</ele>
        <time>2025-10-18T07:57:44Z</time>
      </trkpt>
      <trkpt lat="43.2267" lon="5.49452">
        <ele>326.2</ele>
        <time>2025-10-18T07:57:45Z</time>
      </trkpt>
      <trkpt lat="43.22669" lon="5.49451">
        <ele>326.2</ele>
        <time>2025-10-18T07:57:46Z</time>
      </trkpt>
      <trkpt lat="43.22669" lon="5.4945">
        <ele>326.2</ele>
        <time>2025-10-18T07:57:47Z</time>
      </trkpt>
      <trkpt lat="43.22668" lon="5.49449">
        <ele>326</ele>
        <time>2025-10-18T07:57:48Z</time>
      </trkpt>
      <trkpt lat="43.22667" lon="5.49448">
        <ele>325.9</ele>
        <time>2025-10-18T07:57:49Z</time>
      </trkpt>
      <trkpt lat="43.22667" lon="5.49447">
        <ele>325.8</ele>
        <time>2025-10-18T07:57:50Z</time>
      </trkpt>
      <trkpt lat="43.22666" lon="5.49446">
        <ele>325.7</ele>
        <time>2025-10-18T07:57:51Z</time>
      </trkpt>
      <trkpt lat="43.22666" lon="5.49445">
        <ele>325.7</ele>
        <time>2025-10-18T07:57:52Z</time>
      </trkpt>
      <trkpt lat="43.22665" lon="5.49443">
        <ele>325.7</ele>
        <time>2025-10-18T07:57:53Z</time>
      </trkpt>
      <trkpt lat="43.22664" lon="5.49442">
        <ele>325.6</ele>
        <time>2025-10-18T07:57:54Z</time>
      </trkpt>
      <trkpt lat="43.22664" lon="5.49441">
        <ele>325.6</ele>
        <time>2025-10-18T07:57:55Z</time>
      </trkpt>
      <trkpt lat="43.22663" lon="5.49439">
        <ele>325.6</ele>
        <time>2025-10-18T07:57:56Z</time>
      </trkpt>
      <trkpt lat="43.22663" lon="5.49438">
        <ele>325.5</ele>
        <time>2025-10-18T07:57:57Z</time>
      </trkpt>
      <trkpt lat="43.22662" lon="5.49437">
        <ele>325.5</ele>
        <time>2025-10-18T07:57:58Z</time>
      </trkpt>
      <trkpt lat="43.22662" lon="5.49436">
        <ele>325.5</ele>
        <time>2025-10-18T07:57:59Z</time>
      </trkpt>
      <trkpt lat="43.22661" lon="5.49435">
        <ele>325.4</ele>
        <time>2025-10-18T07:58:00Z</time>
      </trkpt>
      <trkpt lat="43.22661" lon="5.49434">
        <ele>325.5</ele>
        <time>2025-10-18T07:58:01Z</time>
      </trkpt>
      <trkpt lat="43.2266" lon="5.49432">
        <ele>325.4</ele>
        <time>2025-10-18T07:58:02Z</time>
      </trkpt>
      <trkpt lat="43.2266" lon="5.49431">
        <ele>325.4</ele>
        <time>2025-10-18T07:58:03Z</time>
      </trkpt>
      <trkpt lat="43.22659" lon="5.4943">
        <ele>325.4</ele>
        <time>2025-10-18T07:58:04Z</time>
      </trkpt>
      <trkpt lat="43.22659" lon="5.49428">
        <ele>325.4</ele>
        <time>2025-10-18T07:58:05Z</time>
      </trkpt>
      <trkpt lat="43.22658" lon="5.49427">
        <ele>325.3</ele>
        <time>2025-10-18T07:58:06Z</time>
      </trkpt>
      <trkpt lat="43.22658" lon="5.49426">
        <ele>325.3</ele>
        <time>2025-10-18T07:58:07Z</time>
      </trkpt>
      <trkpt lat="43.22657" lon="5.49425">
        <ele>325.2</ele>
        <time>2025-10-18T07:58:08Z</time>
      </trkpt>
      <trkpt lat="43.22657" lon="5.49423">
        <ele>325.1</ele>
        <time>2025-10-18T07:58:09Z</time>
      </trkpt>
      <trkpt lat="43.22657" lon="5.49421">
        <ele>325.1</ele>
        <time>2025-10-18T07:58:10Z</time>
      </trkpt>
      <trkpt lat="43.22657" lon="5.4942">
        <ele>325.1</ele>
        <time>2025-10-18T07:58:11Z</time>
      </trkpt>
      <trkpt lat="43.22657" lon="5.49419">
        <ele>325</ele>
        <time>2025-10-18T07:58:12Z</time>
      </trkpt>
      <trkpt lat="43.22656" lon="5.49417">
        <ele>324.9</ele>
        <time>2025-10-18T07:58:13Z</time>
      </trkpt>
      <trkpt lat="43.22656" lon="5.49416">
        <ele>324.8</ele>
        <time>2025-10-18T07:58:14Z</time>
      </trkpt>
      <trkpt lat="43.22656" lon="5.49415">
        <ele>324.7</ele>
        <time>2025-10-18T07:58:15Z</time>
      </trkpt>
      <trkpt lat="43.22655" lon="5.49413">
        <ele>324.6</ele>
        <time>2025-10-18T07:58:16Z</time>
      </trkpt>
      <trkpt lat="43.22655" lon="5.49412">
        <ele>324.6</ele>
        <time>2025-10-18T07:58:17Z</time>
      </trkpt>
      <trkpt lat="43.22656" lon="5.4941">
        <ele>324.6</ele>
        <time>2025-10-18T07:58:18Z</time>
      </trkpt>
      <trkpt lat="43.22656" lon="5.49409">
        <ele>324.6</ele>
        <time>2025-10-18T07:58:19Z</time>
      </trkpt>
      <trkpt lat="43.22656" lon="5.49407">
        <ele>324.6</ele>
        <time>2025-10-18T07:58:20Z</time>
      </trkpt>
      <trkpt lat="43.22656" lon="5.49406">
        <ele>324.5</ele>
        <time>2025-10-18T07:58:21Z</time>
      </trkpt>
      <trkpt lat="43.22656" lon="5.49404">
        <ele>324.5</ele>
        <time>2025-10-18T07:58:22Z</time>
      </trkpt>
      <trkpt lat="43.22655" lon="5.49403">
        <ele>324.6</ele>
        <time>2025-10-18T07:58:23Z</time>
      </trkpt>
      <trkpt lat="43.22655" lon="5.49401">
        <ele>324.5</ele>
        <time>2025-10-18T07:58:24Z</time>
      </trkpt>
      <trkpt lat="43.22655" lon="5.494">
        <ele>324.5</ele>
        <time>2025-10-18T07:58:25Z</time>
      </trkpt>
      <trkpt lat="43.22654" lon="5.49399">
        <ele>324.4</ele>
        <time>2025-10-18T07:58:26Z</time>
      </trkpt>
      <trkpt lat="43.22654" lon="5.49397">
        <ele>324.4</ele>
        <time>2025-10-18T07:58:27Z</time>
      </trkpt>
      <trkpt lat="43.22654" lon="5.49396">
        <ele>324.4</ele>
        <time>2025-10-18T07:58:28Z</time>
      </trkpt>
      <trkpt lat="43.22654" lon="5.49394">
        <ele>324.3</ele>
        <time>2025-10-18T07:58:29Z</time>
      </trkpt>
      <trkpt lat="43.22654" lon="5.49393">
        <ele>324.3</ele>
        <time>2025-10-18T07:58:30Z</time>
      </trkpt>
      <trkpt lat="43.22654" lon="5.49391">
        <ele>324.2</ele>
        <time>2025-10-18T07:58:31Z</time>
      </trkpt>
      <trkpt lat="43.22653" lon="5.4939">
        <ele>324.2</ele>
        <time>2025-10-18T07:58:32Z</time>
      </trkpt>
      <trkpt lat="43.22653" lon="5.49389">
        <ele>324.2</ele>
        <time>2025-10-18T07:58:33Z</time>
      </trkpt>
      <trkpt lat="43.22653" lon="5.49387">
        <ele>324.1</ele>
        <time>2025-10-18T07:58:34Z</time>
      </trkpt>
      <trkpt lat="43.22652" lon="5.49386">
        <ele>324</ele>
        <time>2025-10-18T07:58:35Z</time>
      </trkpt>
      <trkpt lat="43.22652" lon="5.49385">
        <ele>324</ele>
        <time>2025-10-18T07:58:36Z</time>
      </trkpt>
      <trkpt lat="43.22652" lon="5.49383">
        <ele>323.9</ele>
        <time>2025-10-18T07:58:37Z</time>
      </trkpt>
      <trkpt lat="43.22651" lon="5.49382">
        <ele>323.8</ele>
        <time>2025-10-18T07:58:38Z</time>
      </trkpt>
      <trkpt lat="43.2265" lon="5.4938">
        <ele>323.8</ele>
        <time>2025-10-18T07:58:39Z</time>
      </trkpt>
      <trkpt lat="43.2265" lon="5.49379">
        <ele>323.7</ele>
        <time>2025-10-18T07:58:40Z</time>
      </trkpt>
      <trkpt lat="43.22649" lon="5.49378">
        <ele>323.6</ele>
        <time>2025-10-18T07:58:41Z</time>
      </trkpt>
      <trkpt lat="43.22649" lon="5.49377">
        <ele>323.6</ele>
        <time>2025-10-18T07:58:42Z</time>
      </trkpt>
      <trkpt lat="43.22648" lon="5.49376">
        <ele>323.5</ele>
        <time>2025-10-18T07:58:43Z</time>
      </trkpt>
      <trkpt lat="43.22647" lon="5.49375">
        <ele>323.4</ele>
        <time>2025-10-18T07:58:44Z</time>
      </trkpt>
      <trkpt lat="43.22647" lon="5.49374">
        <ele>323.4</ele>
        <time>2025-10-18T07:58:45Z</time>
      </trkpt>
      <trkpt lat="43.22647" lon="5.49374">
        <ele>323.4</ele>
        <time>2025-10-18T07:58:46Z</time>
      </trkpt>
      <trkpt lat="43.22647" lon="5.49373">
        <ele>323.3</ele>
        <time>2025-10-18T07:58:47Z</time>
      </trkpt>
      <trkpt lat="43.22646" lon="5.49371">
        <ele>323.3</ele>
        <time>2025-10-18T07:58:48Z</time>
      </trkpt>
      <trkpt lat="43.22645" lon="5.49371">
        <ele>323.3</ele>
        <time>2025-10-18T07:58:49Z</time>
      </trkpt>
      <trkpt lat="43.22644" lon="5.4937">
        <ele>323.4</ele>
        <time>2025-10-18T07:58:50Z</time>
      </trkpt>
      <trkpt lat="43.22643" lon="5.49369">
        <ele>323.4</ele>
        <time>2025-10-18T07:58:51Z</time>
      </trkpt>
      <trkpt lat="43.22642" lon="5.49368">
        <ele>323.5</ele>
        <time>2025-10-18T07:58:52Z</time>
      </trkpt>
      <trkpt lat="43.22641" lon="5.49367">
        <ele>323.6</ele>
        <time>2025-10-18T07:58:53Z</time>
      </trkpt>
      <trkpt lat="43.2264" lon="5.49366">
        <ele>323.6</ele>
        <time>2025-10-18T07:58:54Z</time>
      </trkpt>
      <trkpt lat="43.2264" lon="5.49365">
        <ele>323.8</ele>
        <time>2025-10-18T07:58:55Z</time>
      </trkpt>
      <trkpt lat="43.22639" lon="5.49364">
        <ele>323.8</ele>
        <time>2025-10-18T07:58:56Z</time>
      </trkpt>
      <trkpt lat="43.22639" lon="5.49363">
        <ele>323.9</ele>
        <time>2025-10-18T07:58:57Z</time>
      </trkpt>
      <trkpt lat="43.22638" lon="5.49363">
        <ele>323.9</ele>
        <time>2025-10-18T07:58:58Z</time>
      </trkpt>
      <trkpt lat="43.22636" lon="5.49362">
        <ele>324</ele>
        <time>2025-10-18T07:58:59Z</time>
      </trkpt>
      <trkpt lat="43.22635" lon="5.49361">
        <ele>324</ele>
        <time>2025-10-18T07:59:00Z</time>
      </trkpt>
      <trkpt lat="43.22634" lon="5.4936">
        <ele>324.1</ele>
        <time>2025-10-18T07:59:01Z</time>
      </trkpt>
      <trkpt lat="43.22634" lon="5.4936">
        <ele>324.2</ele>
        <time>2025-10-18T07:59:02Z</time>
      </trkpt>
      <trkpt lat="43.22633" lon="5.49359">
        <ele>324.3</ele>
        <time>2025-10-18T07:59:03Z</time>
      </trkpt>
      <trkpt lat="43.22632" lon="5.49358">
        <ele>324.4</ele>
        <time>2025-10-18T07:59:04Z</time>
      </trkpt>
      <trkpt lat="43.22631" lon="5.49358">
        <ele>324.6</ele>
        <time>2025-10-18T07:59:05Z</time>
      </trkpt>
      <trkpt lat="43.2263" lon="5.49357">
        <ele>324.7</ele>
        <time>2025-10-18T07:59:06Z</time>
      </trkpt>
      <trkpt lat="43.22629" lon="5.49357">
        <ele>324.8</ele>
        <time>2025-10-18T07:59:07Z</time>
      </trkpt>
      <trkpt lat="43.22628" lon="5.49356">
        <ele>325</ele>
        <time>2025-10-18T07:59:08Z</time>
      </trkpt>
      <trkpt lat="43.22627" lon="5.49356">
        <ele>325.1</ele>
        <time>2025-10-18T07:59:09Z</time>
      </trkpt>
      <trkpt lat="43.22626" lon="5.49356">
        <ele>325.2</ele>
        <time>2025-10-18T07:59:10Z</time>
      </trkpt>
      <trkpt lat="43.22625" lon="5.49355">
        <ele>325.3</ele>
        <time>2025-10-18T07:59:11Z</time>
      </trkpt>
      <trkpt lat="43.22624" lon="5.49355">
        <ele>325.4</ele>
        <time>2025-10-18T07:59:12Z</time>
      </trkpt>
      <trkpt lat="43.22623" lon="5.49354">
        <ele>325.6</ele>
        <time>2025-10-18T07:59:13Z</time>
      </trkpt>
      <trkpt lat="43.22622" lon="5.49354">
        <ele>325.7</ele>
        <time>2025-10-18T07:59:14Z</time>
      </trkpt>
      <trkpt lat="43.2262" lon="5.49353">
        <ele>325.8</ele>
        <time>2025-10-18T07:59:15Z</time>
      </trkpt>
      <trkpt lat="43.22619" lon="5.49353">
        <ele>326</ele>
        <time>2025-10-18T07:59:16Z</time>
      </trkpt>
      <trkpt lat="43.22618" lon="5.49353">
        <ele>326.1</ele>
        <time>2025-10-18T07:59:17Z</time>
      </trkpt>
      <trkpt lat="43.22617" lon="5.49353">
        <ele>326.3</ele>
        <time>2025-10-18T07:59:18Z</time>
      </trkpt>
      <trkpt lat="43.22616" lon="5.49353">
        <ele>326.4</ele>
        <time>2025-10-18T07:59:19Z</time>
      </trkpt>
      <trkpt lat="43.22615" lon="5.49353">
        <ele>326.6</ele>
        <time>2025-10-18T07:59:20Z</time>
      </trkpt>
      <trkpt lat="43.22614" lon="5.49353">
        <ele>326.8</ele>
        <time>2025-10-18T07:59:21Z</time>
      </trkpt>
      <trkpt lat="43.22613" lon="5.49352">
        <ele>326.9</ele>
        <time>2025-10-18T07:59:22Z</time>
      </trkpt>
      <trkpt lat="43.22612" lon="5.49353">
        <ele>327</ele>
        <time>2025-10-18T07:59:23Z</time>
      </trkpt>
      <trkpt lat="43.22611" lon="5.49353">
        <ele>327</ele>
        <time>2025-10-18T07:59:24Z</time>
      </trkpt>
      <trkpt lat="43.22611" lon="5.49353">
        <ele>327.2</ele>
        <time>2025-10-18T07:59:25Z</time>
      </trkpt>
      <trkpt lat="43.2261" lon="5.49353">
        <ele>327.3</ele>
        <time>2025-10-18T07:59:26Z</time>
      </trkpt>
      <trkpt lat="43.22608" lon="5.49353">
        <ele>327.4</ele>
        <time>2025-10-18T07:59:27Z</time>
      </trkpt>
      <trkpt lat="43.22607" lon="5.49353">
        <ele>327.4</ele>
        <time>2025-10-18T07:59:28Z</time>
      </trkpt>
      <trkpt lat="43.22607" lon="5.49354">
        <ele>327.5</ele>
        <time>2025-10-18T07:59:29Z</time>
      </trkpt>
      <trkpt lat="43.22606" lon="5.49354">
        <ele>327.6</ele>
        <time>2025-10-18T07:59:30Z</time>
      </trkpt>
      <trkpt lat="43.22606" lon="5.49354">
        <ele>327.6</ele>
        <time>2025-10-18T07:59:31Z</time>
      </trkpt>
      <trkpt lat="43.22605" lon="5.49354">
        <ele>327.8</ele>
        <time>2025-10-18T07:59:32Z</time>
      </trkpt>
      <trkpt lat="43.22604" lon="5.49353">
        <ele>327.9</ele>
        <time>2025-10-18T07:59:33Z</time>
      </trkpt>
      <trkpt lat="43.22603" lon="5.49353">
        <ele>328</ele>
        <time>2025-10-18T07:59:34Z</time>
      </trkpt>
      <trkpt lat="43.22603" lon="5.49353">
        <ele>328.1</ele>
        <time>2025-10-18T07:59:35Z</time>
      </trkpt>
      <trkpt lat="43.22602" lon="5.49353">
        <ele>328.2</ele>
        <time>2025-10-18T07:59:36Z</time>
      </trkpt>
      <trkpt lat="43.22601" lon="5.49353">
        <ele>328.1</ele>
        <time>2025-10-18T07:59:37Z</time>
      </trkpt>
      <trkpt lat="43.226" lon="5.49354">
        <ele>328.2</ele>
        <time>2025-10-18T07:59:38Z</time>
      </trkpt>
      <trkpt lat="43.22599" lon="5.49355">
        <ele>328.2</ele>
        <time>2025-10-18T07:59:39Z</time>
      </trkpt>
      <trkpt lat="43.22598" lon="5.49355">
        <ele>328.3</ele>
        <time>2025-10-18T07:59:40Z</time>
      </trkpt>
      <trkpt lat="43.22597" lon="5.49355">
        <ele>328.2</ele>
        <time>2025-10-18T07:59:41Z</time>
      </trkpt>
      <trkpt lat="43.22596" lon="5.49356">
        <ele>328.2</ele>
        <time>2025-10-18T07:59:42Z</time>
      </trkpt>
      <trkpt lat="43.22595" lon="5.49356">
        <ele>328.2</ele>
        <time>2025-10-18T07:59:43Z</time>
      </trkpt>
      <trkpt lat="43.22594" lon="5.49356">
        <ele>328.2</ele>
        <time>2025-10-18T07:59:44Z</time>
      </trkpt>
      <trkpt lat="43.22593" lon="5.49357">
        <ele>328.2</ele>
        <time>2025-10-18T07:59:45Z</time>
      </trkpt>
      <trkpt lat="43.22592" lon="5.49357">
        <ele>328.1</ele>
        <time>2025-10-18T07:59:46Z</time>
      </trkpt>
      <trkpt lat="43.22591" lon="5.49357">
        <ele>328.1</ele>
        <time>2025-10-18T07:59:47Z</time>
      </trkpt>
      <trkpt lat="43.2259" lon="5.49357">
        <ele>328.1</ele>
        <time>2025-10-18T07:59:48Z</time>
      </trkpt>
      <trkpt lat="43.22589" lon="5.49358">
        <ele>328.1</ele>
        <time>2025-10-18T07:59:49Z</time>
      </trkpt>
      <trkpt lat="43.22588" lon="5.49358">
        <ele>328.1</ele>
        <time>2025-10-18T07:59:50Z</time>
      </trkpt>
      <trkpt lat="43.22587" lon="5.49358">
        <ele>328.1</ele>
        <time>2025-10-18T07:59:51Z</time>
      </trkpt>
      <trkpt lat="43.22586" lon="5.49358">
        <ele>328.1</ele>
        <time>2025-10-18T07:59:52Z</time>
      </trkpt>
      <trkpt lat="43.22584" lon="5.49359">
        <ele>328.2</ele>
        <time>2025-10-18T07:59:53Z</time>
      </trkpt>
      <trkpt lat="43.22583" lon="5.49359">
        <ele>328</ele>
        <time>2025-10-18T07:59:54Z</time>
      </trkpt>
      <trkpt lat="43.22583" lon="5.4936">
        <ele>327.8</ele>
        <time>2025-10-18T07:59:55Z</time>
      </trkpt>
      <trkpt lat="43.22582" lon="5.49361">
        <ele>327.8</ele>
        <time>2025-10-18T07:59:56Z</time>
      </trkpt>
      <trkpt lat="43.22581" lon="5.49362">
        <ele>327.7</ele>
        <time>2025-10-18T07:59:57Z</time>
      </trkpt>
      <trkpt lat="43.2258" lon="5.49363">
        <ele>327.7</ele>
        <time>2025-10-18T07:59:58Z</time>
      </trkpt>
      <trkpt lat="43.22579" lon="5.49363">
        <ele>327.6</ele>
        <time>2025-10-18T07:59:59Z</time>
      </trkpt>
      <trkpt lat="43.22578" lon="5.49364">
        <ele>327.6</ele>
        <time>2025-10-18T08:00:00Z</time>
      </trkpt>
      <trkpt lat="43.22577" lon="5.49365">
        <ele>327.5</ele>
        <time>2025-10-18T08:00:01Z</time>
      </trkpt>
      <trkpt lat="43.22576" lon="5.49366">
        <ele>327.4</ele>
        <time>2025-10-18T08:00:02Z</time>
      </trkpt>
      <trkpt lat="43.22574" lon="5.49366">
        <ele>327.4</ele>
        <time>2025-10-18T08:00:03Z</time>
      </trkpt>
      <trkpt lat="43.22573" lon="5.49367">
        <ele>327.3</ele>
        <time>2025-10-18T08:00:04Z</time>
      </trkpt>
      <trkpt lat="43.22573" lon="5.49368">
        <ele>327.2</ele>
        <time>2025-10-18T08:00:05Z</time>
      </trkpt>
      <trkpt lat="43.22572" lon="5.49369">
        <ele>327.1</ele>
        <time>2025-10-18T08:00:06Z</time>
      </trkpt>
      <trkpt lat="43.22571" lon="5.4937">
        <ele>326.7</ele>
        <time>2025-10-18T08:00:07Z</time>
      </trkpt>
      <trkpt lat="43.2257" lon="5.49371">
        <ele>326.7</ele>
        <time>2025-10-18T08:00:08Z</time>
      </trkpt>
      <trkpt lat="43.2257" lon="5.49372">
        <ele>326.6</ele>
        <time>2025-10-18T08:00:09Z</time>
      </trkpt>
      <trkpt lat="43.22569" lon="5.49373">
        <ele>326.5</ele>
        <time>2025-10-18T08:00:10Z</time>
      </trkpt>
      <trkpt lat="43.22568" lon="5.49374">
        <ele>326.4</ele>
        <time>2025-10-18T08:00:11Z</time>
      </trkpt>
      <trkpt lat="43.22567" lon="5.49375">
        <ele>326.3</ele>
        <time>2025-10-18T08:00:12Z</time>
      </trkpt>
      <trkpt lat="43.22567" lon="5.49376">
        <ele>326.2</ele>
        <time>2025-10-18T08:00:13Z</time>
      </trkpt>
      <trkpt lat="43.22566" lon="5.49377">
        <ele>326.1</ele>
        <time>2025-10-18T08:00:14Z</time>
      </trkpt>
      <trkpt lat="43.22565" lon="5.49379">
        <ele>325.8</ele>
        <time>2025-10-18T08:00:15Z</time>
      </trkpt>
      <trkpt lat="43.22565" lon="5.4938">
        <ele>325.6</ele>
        <time>2025-10-18T08:00:16Z</time>
      </trkpt>
      <trkpt lat="43.22564" lon="5.49381">
        <ele>325.5</ele>
        <time>2025-10-18T08:00:17Z</time>
      </trkpt>
      <trkpt lat="43.22563" lon="5.49382">
        <ele>325.4</ele>
        <time>2025-10-18T08:00:18Z</time>
      </trkpt>
      <trkpt lat="43.22563" lon="5.49383">
        <ele>325.3</ele>
        <time>2025-10-18T08:00:19Z</time>
      </trkpt>
      <trkpt lat="43.22563" lon="5.49384">
        <ele>325.2</ele>
        <time>2025-10-18T08:00:20Z</time>
      </trkpt>
      <trkpt lat="43.22562" lon="5.49386">
        <ele>325.1</ele>
        <time>2025-10-18T08:00:21Z</time>
      </trkpt>
      <trkpt lat="43.22561" lon="5.49387">
        <ele>325</ele>
        <time>2025-10-18T08:00:22Z</time>
      </trkpt>
      <trkpt lat="43.22561" lon="5.49388">
        <ele>325</ele>
        <time>2025-10-18T08:00:23Z</time>
      </trkpt>
      <trkpt lat="43.2256" lon="5.49389">
        <ele>324.9</ele>
        <time>2025-10-18T08:00:24Z</time>
      </trkpt>
      <trkpt lat="43.2256" lon="5.49391">
        <ele>324.7</ele>
        <time>2025-10-18T08:00:25Z</time>
      </trkpt>
      <trkpt lat="43.22559" lon="5.49392">
        <ele>324.6</ele>
        <time>2025-10-18T08:00:26Z</time>
      </trkpt>
      <trkpt lat="43.22559" lon="5.49394">
        <ele>324.4</ele>
        <time>2025-10-18T08:00:27Z</time>
      </trkpt>
      <trkpt lat="43.22558" lon="5.49395">
        <ele>324.3</ele>
        <time>2025-10-18T08:00:28Z</time>
      </trkpt>
      <trkpt lat="43.22558" lon="5.49395">
        <ele>324</ele>
        <time>2025-10-18T08:00:29Z</time>
      </trkpt>
      <trkpt lat="43.22558" lon="5.49396">
        <ele>323.8</ele>
        <time>2025-10-18T08:00:30Z</time>
      </trkpt>
      <trkpt lat="43.22558" lon="5.49396">
        <ele>323.7</ele>
        <time>2025-10-18T08:00:31Z</time>
      </trkpt>
      <trkpt lat="43.22558" lon="5.49396">
        <ele>323.6</ele>
        <time>2025-10-18T08:00:32Z</time>
      </trkpt>
      <trkpt lat="43.22558" lon="5.49396">
        <ele>323.5</ele>
        <time>2025-10-18T08:00:33Z</time>
      </trkpt>
      <trkpt lat="43.22558" lon="5.49396">
        <ele>323.4</ele>
        <time>2025-10-18T08:00:34Z</time>
      </trkpt>
      <trkpt lat="43.22558" lon="5.49396">
        <ele>323.3</ele>
        <time>2025-10-18T08:00:35Z</time>
      </trkpt>
      <trkpt lat="43.22559" lon="5.49396">
        <ele>323.3</ele>
        <time>2025-10-18T08:00:36Z</time>
      </trkpt>
      <trkpt lat="43.22559" lon="5.49395">
        <ele>323.3</ele>
        <time>2025-10-18T08:00:37Z</time>
      </trkpt>
      <trkpt lat="43.22559" lon="5.49394">
        <ele>323.3</ele>
        <time>2025-10-18T08:00:38Z</time>
      </trkpt>
      <trkpt lat="43.2256" lon="5.49393">
        <ele>323.4</ele>
        <time>2025-10-18T08:00:39Z</time>
      </trkpt>
      <trkpt lat="43.2256" lon="5.49392">
        <ele>323.5</ele>
        <time>2025-10-18T08:00:40Z</time>
      </trkpt>
      <trkpt lat="43.2256" lon="5.49391">
        <ele>323.5</ele>
        <time>2025-10-18T08:00:41Z</time>
      </trkpt>
      <trkpt lat="43.22561" lon="5.49391">
        <ele>323.5</ele>
        <time>2025-10-18T08:00:42Z</time>
      </trkpt>
      <trkpt lat="43.22561" lon="5.4939">
        <ele>323.5</ele>
        <time>2025-10-18T08:00:43Z</time>
      </trkpt>
      <trkpt lat="43.22562" lon="5.49389">
        <ele>323.5</ele>
        <time>2025-10-18T08:00:44Z</time>
      </trkpt>
      <trkpt lat="43.22562" lon="5.49388">
        <ele>323.6</ele>
        <time>2025-10-18T08:00:45Z</time>
      </trkpt>
      <trkpt lat="43.22563" lon="5.49387">
        <ele>323.6</ele>
        <time>2025-10-18T08:00:46Z</time>
      </trkpt>
      <trkpt lat="43.22563" lon="5.49387">
        <ele>323.7</ele>
        <time>2025-10-18T08:00:47Z</time>
      </trkpt>
      <trkpt lat="43.22564" lon="5.49386">
        <ele>323.8</ele>
        <time>2025-10-18T08:00:48Z</time>
      </trkpt>
      <trkpt lat="43.22564" lon="5.49385">
        <ele>323.8</ele>
        <time>2025-10-18T08:00:49Z</time>
      </trkpt>
      <trkpt lat="43.22565" lon="5.49384">
        <ele>323.9</ele>
        <time>2025-10-18T08:00:50Z</time>
      </trkpt>
      <trkpt lat="43.22565" lon="5.49383">
        <ele>324.1</ele>
        <time>2025-10-18T08:00:51Z</time>
      </trkpt>
      <trkpt lat="43.22565" lon="5.49382">
        <ele>324.2</ele>
        <time>2025-10-18T08:00:52Z</time>
      </trkpt>
      <trkpt lat="43.22566" lon="5.49381">
        <ele>324.3</ele>
        <time>2025-10-18T08:00:53Z</time>
      </trkpt>
      <trkpt lat="43.22567" lon="5.4938">
        <ele>324.4</ele>
        <time>2025-10-18T08:00:54Z</time>
      </trkpt>
      <trkpt lat="43.22567" lon="5.49379">
        <ele>324.4</ele>
        <time>2025-10-18T08:00:55Z</time>
      </trkpt>
      <trkpt lat="43.22568" lon="5.49378">
        <ele>324.5</ele>
        <time>2025-10-18T08:00:56Z</time>
      </trkpt>
      <trkpt lat="43.22568" lon="5.49377">
        <ele>324.6</ele>
        <time>2025-10-18T08:00:57Z</time>
      </trkpt>
      <trkpt lat="43.22569" lon="5.49376">
        <ele>324.7</ele>
        <time>2025-10-18T08:00:58Z</time>
      </trkpt>
      <trkpt lat="43.22569" lon="5.49375">
        <ele>324.7</ele>
        <time>2025-10-18T08:00:59Z</time>
      </trkpt>
      <trkpt lat="43.22569" lon="5.49374">
        <ele>324.9</ele>
        <time>2025-10-18T08:01:00Z</time>
      </trkpt>
      <trkpt lat="43.22569" lon="5.49373">
        <ele>325</ele>
        <time>2025-10-18T08:01:01Z</time>
      </trkpt>
      <trkpt lat="43.2257" lon="5.49373">
        <ele>325.3</ele>
        <time>2025-10-18T08:01:02Z</time>
      </trkpt>
      <trkpt lat="43.22571" lon="5.49372">
        <ele>325.3</ele>
        <time>2025-10-18T08:01:03Z</time>
      </trkpt>
      <trkpt lat="43.22571" lon="5.49371">
        <ele>325.3</ele>
        <time>2025-10-18T08:01:04Z</time>
      </trkpt>
      <trkpt lat="43.22572" lon="5.4937">
        <ele>325.4</ele>
        <time>2025-10-18T08:01:05Z</time>
      </trkpt>
      <trkpt lat="43.22573" lon="5.49369">
        <ele>325.5</ele>
        <time>2025-10-18T08:01:06Z</time>
      </trkpt>
      <trkpt lat="43.22574" lon="5.49369">
        <ele>325.6</ele>
        <time>2025-10-18T08:01:07Z</time>
      </trkpt>
      <trkpt lat="43.22574" lon="5.49368">
        <ele>325.7</ele>
        <time>2025-10-18T08:01:08Z</time>
      </trkpt>
      <trkpt lat="43.22574" lon="5.49367">
        <ele>325.8</ele>
        <time>2025-10-18T08:01:09Z</time>
      </trkpt>
      <trkpt lat="43.22575" lon="5.49366">
        <ele>325.9</ele>
        <time>2025-10-18T08:01:10Z</time>
      </trkpt>
      <trkpt lat="43.22575" lon="5.49366">
        <ele>326</ele>
        <time>2025-10-18T08:01:11Z</time>
      </trkpt>
      <trkpt lat="43.22576" lon="5.49365">
        <ele>326</ele>
        <time>2025-10-18T08:01:12Z</time>
      </trkpt>
      <trkpt lat="43.22577" lon="5.49365">
        <ele>326.2</ele>
        <time>2025-10-18T08:01:13Z</time>
      </trkpt>
      <trkpt lat="43.22578" lon="5.49365">
        <ele>326.2</ele>
        <time>2025-10-18T08:01:14Z</time>
      </trkpt>
      <trkpt lat="43.22578" lon="5.49364">
        <ele>326.2</ele>
        <time>2025-10-18T08:01:15Z</time>
      </trkpt>
      <trkpt lat="43.22579" lon="5.49363">
        <ele>326.3</ele>
        <time>2025-10-18T08:01:16Z</time>
      </trkpt>
      <trkpt lat="43.2258" lon="5.49363">
        <ele>326.3</ele>
        <time>2025-10-18T08:01:17Z</time>
      </trkpt>
      <trkpt lat="43.22581" lon="5.49363">
        <ele>326.3</ele>
        <time>2025-10-18T08:01:18Z</time>
      </trkpt>
      <trkpt lat="43.22582" lon="5.49363">
        <ele>326.4</ele>
        <time>2025-10-18T08:01:19Z</time>
      </trkpt>
      <trkpt lat="43.22583" lon="5.49362">
        <ele>326.4</ele>
        <time>2025-10-18T08:01:20Z</time>
      </trkpt>
      <trkpt lat="43.22584" lon="5.49362">
        <ele>326.4</ele>
        <time>2025-10-18T08:01:21Z</time>
      </trkpt>
      <trkpt lat="43.22585" lon="5.49361">
        <ele>326.4</ele>
        <time>2025-10-18T08:01:22Z</time>
      </trkpt>
      <trkpt lat="43.22585" lon="5.49361">
        <ele>326.4</ele>
        <time>2025-10-18T08:01:23Z</time>
      </trkpt>
      <trkpt lat="43.22586" lon="5.4936">
        <ele>326.4</ele>
        <time>2025-10-18T08:01:24Z</time>
      </trkpt>
      <trkpt lat="43.22587" lon="5.4936">
        <ele>326.5</ele>
        <time>2025-10-18T08:01:25Z</time>
      </trkpt>
      <trkpt lat="43.22588" lon="5.4936">
        <ele>326.5</ele>
        <time>2025-10-18T08:01:26Z</time>
      </trkpt>
      <trkpt lat="43.22589" lon="5.4936">
        <ele>326.4</ele>
        <time>2025-10-18T08:01:27Z</time>
      </trkpt>
      <trkpt lat="43.22589" lon="5.4936">
        <ele>326.4</ele>
        <time>2025-10-18T08:01:28Z</time>
      </trkpt>
      <trkpt lat="43.2259" lon="5.49359">
        <ele>326.5</ele>
        <time>2025-10-18T08:01:29Z</time>
      </trkpt>
      <trkpt lat="43.22591" lon="5.49359">
        <ele>326.5</ele>
        <time>2025-10-18T08:01:30Z</time>
      </trkpt>
      <trkpt lat="43.22592" lon="5.49359">
        <ele>326.4</ele>
        <time>2025-10-18T08:01:31Z</time>
      </trkpt>
      <trkpt lat="43.22593" lon="5.49359">
        <ele>326.4</ele>
        <time>2025-10-18T08:01:32Z</time>
      </trkpt>
      <trkpt lat="43.22594" lon="5.49359">
        <ele>326.5</ele>
        <time>2025-10-18T08:01:33Z</time>
      </trkpt>
      <trkpt lat="43.22595" lon="5.49359">
        <ele>326.5</ele>
        <time>2025-10-18T08:01:34Z</time>
      </trkpt>
      <trkpt lat="43.22596" lon="5.49359">
        <ele>326.5</ele>
        <time>2025-10-18T08:01:35Z</time>
      </trkpt>
      <trkpt lat="43.22597" lon="5.49358">
        <ele>326.6</ele>
        <time>2025-10-18T08:01:36Z</time>
      </trkpt>
      <trkpt lat="43.22598" lon="5.49358">
        <ele>326.6</ele>
        <time>2025-10-18T08:01:37Z</time>
      </trkpt>
      <trkpt lat="43.22599" lon="5.49358">
        <ele>326.6</ele>
        <time>2025-10-18T08:01:38Z</time>
      </trkpt>
      <trkpt lat="43.226" lon="5.49357">
        <ele>326.6</ele>
        <time>2025-10-18T08:01:39Z</time>
      </trkpt>
      <trkpt lat="43.22601" lon="5.49357">
        <ele>326.5</ele>
        <time>2025-10-18T08:01:40Z</time>
      </trkpt>
      <trkpt lat="43.22602" lon="5.49357">
        <ele>326.6</ele>
        <time>2025-10-18T08:01:41Z</time>
      </trkpt>
      <trkpt lat="43.22602" lon="5.49356">
        <ele>326.6</ele>
        <time>2025-10-18T08:01:42Z</time>
      </trkpt>
      <trkpt lat="43.22603" lon="5.49357">
        <ele>326.5</ele>
        <time>2025-10-18T08:01:43Z</time>
      </trkpt>
      <trkpt lat="43.22605" lon="5.49356">
        <ele>326.3</ele>
        <time>2025-10-18T08:01:44Z</time>
      </trkpt>
      <trkpt lat="43.22606" lon="5.49355">
        <ele>326.2</ele>
        <time>2025-10-18T08:01:45Z</time>
      </trkpt>
      <trkpt lat="43.22607" lon="5.49355">
        <ele>326</ele>
        <time>2025-10-18T08:01:46Z</time>
      </trkpt>
      <trkpt lat="43.22608" lon="5.49355">
        <ele>325.9</ele>
        <time>2025-10-18T08:01:47Z</time>
      </trkpt>
      <trkpt lat="43.22609" lon="5.49354">
        <ele>325.7</ele>
        <time>2025-10-18T08:01:48Z</time>
      </trkpt>
      <trkpt lat="43.2261" lon="5.49354">
        <ele>325.5</ele>
        <time>2025-10-18T08:01:49Z</time>
      </trkpt>
      <trkpt lat="43.22611" lon="5.49354">
        <ele>325.3</ele>
        <time>2025-10-18T08:01:50Z</time>
      </trkpt>
      <trkpt lat="43.22612" lon="5.49353">
        <ele>325.1</ele>
        <time>2025-10-18T08:01:51Z</time>
      </trkpt>
      <trkpt lat="43.22613" lon="5.49353">
        <ele>325.1</ele>
        <time>2025-10-18T08:01:52Z</time>
      </trkpt>
      <trkpt lat="43.22614" lon="5.49353">
        <ele>324.9</ele>
        <time>2025-10-18T08:01:53Z</time>
      </trkpt>
      <trkpt lat="43.22615" lon="5.49353">
        <ele>324.8</ele>
        <time>2025-10-18T08:01:54Z</time>
      </trkpt>
      <trkpt lat="43.22616" lon="5.49353">
        <ele>324.6</ele>
        <time>2025-10-18T08:01:55Z</time>
      </trkpt>
      <trkpt lat="43.22617" lon="5.49353">
        <ele>324.4</ele>
        <time>2025-10-18T08:01:56Z</time>
      </trkpt>
      <trkpt lat="43.22618" lon="5.49354">
        <ele>324.2</ele>
        <time>2025-10-18T08:01:57Z</time>
      </trkpt>
      <trkpt lat="43.22619" lon="5.49354">
        <ele>324.1</ele>
        <time>2025-10-18T08:01:58Z</time>
      </trkpt>
      <trkpt lat="43.2262" lon="5.49354">
        <ele>323.9</ele>
        <time>2025-10-18T08:01:59Z</time>
      </trkpt>
      <trkpt lat="43.22621" lon="5.49355">
        <ele>323.8</ele>
        <time>2025-10-18T08:02:00Z</time>
      </trkpt>
      <trkpt lat="43.22622" lon="5.49356">
        <ele>323.6</ele>
        <time>2025-10-18T08:02:01Z</time>
      </trkpt>
      <trkpt lat="43.22623" lon="5.49357">
        <ele>323.4</ele>
        <time>2025-10-18T08:02:02Z</time>
      </trkpt>
      <trkpt lat="43.22624" lon="5.49358">
        <ele>323.1</ele>
        <time>2025-10-18T08:02:03Z</time>
      </trkpt>
      <trkpt lat="43.22625" lon="5.49358">
        <ele>322.9</ele>
        <time>2025-10-18T08:02:04Z</time>
      </trkpt>
      <trkpt lat="43.22625" lon="5.49359">
        <ele>322.7</ele>
        <time>2025-10-18T08:02:05Z</time>
      </trkpt>
      <trkpt lat="43.22626" lon="5.49359">
        <ele>322.6</ele>
        <time>2025-10-18T08:02:06Z</time>
      </trkpt>
      <trkpt lat="43.22627" lon="5.4936">
        <ele>322.4</ele>
        <time>2025-10-18T08:02:07Z</time>
      </trkpt>
      <trkpt lat="43.22627" lon="5.4936">
        <ele>322.2</ele>
        <time>2025-10-18T08:02:08Z</time>
      </trkpt>
      <trkpt lat="43.22628" lon="5.4936">
        <ele>322</ele>
        <time>2025-10-18T08:02:09Z</time>
      </trkpt>
      <trkpt lat="43.22628" lon="5.49359">
        <ele>321.8</ele>
        <time>2025-10-18T08:02:10Z</time>
      </trkpt>
      <trkpt lat="43.22628" lon="5.4936">
        <ele>321.8</ele>
        <time>2025-10-18T08:02:11Z</time>
      </trkpt>
      <trkpt lat="43.22629" lon="5.4936">
        <ele>321.8</ele>
        <time>2025-10-18T08:02:12Z</time>
      </trkpt>
      <trkpt lat="43.22629" lon="5.4936">
        <ele>321.8</ele>
        <time>2025-10-18T08:02:13Z</time>
      </trkpt>
      <trkpt lat="43.22629" lon="5.4936">
        <ele>321.7</ele>
        <time>2025-10-18T08:02:14Z</time>
      </trkpt>
      <trkpt lat="43.22629" lon="5.4936">
        <ele>321.8</ele>
        <time>2025-10-18T08:02:15Z</time>
      </trkpt>
      <trkpt lat="43.22629" lon="5.4936">
        <ele>321.7</ele>
        <time>2025-10-18T08:02:16Z</time>
      </trkpt>
      <trkpt lat="43.22629" lon="5.4936">
        <ele>321.7</ele>
        <time>2025-10-18T08:02:17Z</time>
      </trkpt>
      <trkpt lat="43.22629" lon="5.4936">
        <ele>321.7</ele>
        <time>2025-10-18T08:02:18Z</time>
      </trkpt>
      <trkpt lat="43.22629" lon="5.4936">
        <ele>321.7</ele>
        <time>2025-10-18T08:02:19Z</time>
      </trkpt>
      <trkpt lat="43.22629" lon="5.4936">
        <ele>321.7</ele>
        <time>2025-10-18T08:02:20Z</time>
      </trkpt>
      <trkpt lat="43.2263" lon="5.4936">
        <ele>321.6</ele>
        <time>2025-10-18T08:02:21Z</time>
      </trkpt>
      <trkpt lat="43.2263" lon="5.4936">
        <ele>321.6</ele>
        <time>2025-10-18T08:02:22Z</time>
      </trkpt>
      <trkpt lat="43.2263" lon="5.4936">
        <ele>321.5</ele>
        <time>2025-10-18T08:02:23Z</time>
      </trkpt>
      <trkpt lat="43.2263" lon="5.4936">
        <ele>321.5</ele>
        <time>2025-10-18T08:02:24Z</time>
      </trkpt>
      <trkpt lat="43.2263" lon="5.4936">
        <ele>321.5</ele>
        <time>2025-10-18T08:02:25Z</time>
      </trkpt>
      <trkpt lat="43.2263" lon="5.4936">
        <ele>321.4</ele>
        <time>2025-10-18T08:02:26Z</time>
      </trkpt>
      <trkpt lat="43.2263" lon="5.4936">
        <ele>321.4</ele>
        <time>2025-10-18T08:02:27Z</time>
      </trkpt>
      <trkpt lat="43.2263" lon="5.4936">
        <ele>321.4</ele>
        <time>2025-10-18T08:02:28Z</time>
      </trkpt>
      <trkpt lat="43.2263" lon="5.49359">
        <ele>321.4</ele>
        <time>2025-10-18T08:02:29Z</time>
      </trkpt>
      <trkpt lat="43.2263" lon="5.49359">
        <ele>321.4</ele>
        <time>2025-10-18T08:02:30Z</time>
      </trkpt>
      <trkpt lat="43.2263" lon="5.49358">
        <ele>321.4</ele>
        <time>2025-10-18T08:02:31Z</time>
      </trkpt>
      <trkpt lat="43.2263" lon="5.49358">
        <ele>321.3</ele>
        <time>2025-10-18T08:02:32Z</time>
      </trkpt>
      <trkpt lat="43.22631" lon="5.49357">
        <ele>321.4</ele>
        <time>2025-10-18T08:02:33Z</time>
      </trkpt>
      <trkpt lat="43.22631" lon="5.49356">
        <ele>321.3</ele>
        <time>2025-10-18T08:02:34Z</time>
      </trkpt>
      <trkpt lat="43.22631" lon="5.49356">
        <ele>321.3</ele>
        <time>2025-10-18T08:02:35Z</time>
      </trkpt>
      <trkpt lat="43.22632" lon="5.49356">
        <ele>321.3</ele>
        <time>2025-10-18T08:02:36Z</time>
      </trkpt>
      <trkpt lat="43.22632" lon="5.49355">
        <ele>321.3</ele>
        <time>2025-10-18T08:02:37Z</time>
      </trkpt>
      <trkpt lat="43.22632" lon="5.49355">
        <ele>321.3</ele>
        <time>2025-10-18T08:02:38Z</time>
      </trkpt>
      <trkpt lat="43.22633" lon="5.49355">
        <ele>321.3</ele>
        <time>2025-10-18T08:02:39Z</time>
      </trkpt>
      <trkpt lat="43.22633" lon="5.49354">
        <ele>321.3</ele>
        <time>2025-10-18T08:02:40Z</time>
      </trkpt>
      <trkpt lat="43.22633" lon="5.49354">
        <ele>321.3</ele>
        <time>2025-10-18T08:02:41Z</time>
      </trkpt>
      <trkpt lat="43.22633" lon="5.49354">
        <ele>321.3</ele>
        <time>2025-10-18T08:02:42Z</time>
      </trkpt>
      <trkpt lat="43.22634" lon="5.49353">
        <ele>321.3</ele>
        <time>2025-10-18T08:02:43Z</time>
      </trkpt>
      <trkpt lat="43.22634" lon="5.49353">
        <ele>321.3</ele>
        <time>2025-10-18T08:02:44Z</time>
      </trkpt>
      <trkpt lat="43.22634" lon="5.49352">
        <ele>321.4</ele>
        <time>2025-10-18T08:02:45Z</time>
      </trkpt>
      <trkpt lat="43.22634" lon="5.49352">
        <ele>321.4</ele>
        <time>2025-10-18T08:02:46Z</time>
      </trkpt>
      <trkpt lat="43.22634" lon="5.49352">
        <ele>321.4</ele>
        <time>2025-10-18T08:02:47Z</time>
      </trkpt>
      <trkpt lat="43.22635" lon="5.49351">
        <ele>321.6</ele>
        <time>2025-10-18T08:02:48Z</time>
      </trkpt>
      <trkpt lat="43.22635" lon="5.4935">
        <ele>321.6</ele>
        <time>2025-10-18T08:02:49Z</time>
      </trkpt>
      <trkpt lat="43.22634" lon="5.4935">
        <ele>321.8</ele>
        <time>2025-10-18T08:02:50Z</time>
      </trkpt>
      <trkpt lat="43.22634" lon="5.4935">
        <ele>321.9</ele>
        <time>2025-10-18T08:02:51Z</time>
      </trkpt>
      <trkpt lat="43.22634" lon="5.49349">
        <ele>321.9</ele>
        <time>2025-10-18T08:02:52Z</time>
      </trkpt>
      <trkpt lat="43.22634" lon="5.49348">
        <ele>322</ele>
        <time>2025-10-18T08:02:53Z</time>
      </trkpt>
      <trkpt lat="43.22634" lon="5.49348">
        <ele>322</ele>
        <time>2025-10-18T08:02:54Z</time>
      </trkpt>
      <trkpt lat="43.22634" lon="5.49347">
        <ele>322.1</ele>
        <time>2025-10-18T08:02:55Z</time>
      </trkpt>
      <trkpt lat="43.22634" lon="5.49346">
        <ele>322.1</ele>
        <time>2025-10-18T08:02:56Z</time>
      </trkpt>
      <trkpt lat="43.22634" lon="5.49345">
        <ele>322.1</ele>
        <time>2025-10-18T08:02:57Z</time>
      </trkpt>
      <trkpt lat="43.22634" lon="5.49344">
        <ele>322.2</ele>
        <time>2025-10-18T08:02:58Z</time>
      </trkpt>
      <trkpt lat="43.22634" lon="5.49343">
        <ele>322.3</ele>
        <time>2025-10-18T08:02:59Z</time>
      </trkpt>
      <trkpt lat="43.22635" lon="5.49342">
        <ele>322.5</ele>
        <time>2025-10-18T08:03:00Z</time>
      </trkpt>
      <trkpt lat="43.22635" lon="5.49342">
        <ele>322.6</ele>
        <time>2025-10-18T08:03:01Z</time>
      </trkpt>
      <trkpt lat="43.22635" lon="5.49341">
        <ele>322.7</ele>
        <time>2025-10-18T08:03:02Z</time>
      </trkpt>
      <trkpt lat="43.22636" lon="5.4934">
        <ele>322.9</ele>
        <time>2025-10-18T08:03:03Z</time>
      </trkpt>
      <trkpt lat="43.22636" lon="5.49339">
        <ele>323.1</ele>
        <time>2025-10-18T08:03:04Z</time>
      </trkpt>
      <trkpt lat="43.22636" lon="5.49339">
        <ele>323.2</ele>
        <time>2025-10-18T08:03:05Z</time>
      </trkpt>
      <trkpt lat="43.22636" lon="5.49338">
        <ele>323.3</ele>
        <time>2025-10-18T08:03:06Z</time>
      </trkpt>
      <trkpt lat="43.22636" lon="5.49337">
        <ele>323.3</ele>
        <time>2025-10-18T08:03:07Z</time>
      </trkpt>
      <trkpt lat="43.22637" lon="5.49336">
        <ele>323.5</ele>
        <time>2025-10-18T08:03:08Z</time>
      </trkpt>
      <trkpt lat="43.22637" lon="5.49335">
        <ele>323.5</ele>
        <time>2025-10-18T08:03:09Z</time>
      </trkpt>
      <trkpt lat="43.22637" lon="5.49335">
        <ele>323.5</ele>
        <time>2025-10-18T08:03:10Z</time>
      </trkpt>
      <trkpt lat="43.22638" lon="5.49334">
        <ele>323.6</ele>
        <time>2025-10-18T08:03:11Z</time>
      </trkpt>
      <trkpt lat="43.22638" lon="5.49333">
        <ele>323.6</ele>
        <time>2025-10-18T08:03:12Z</time>
      </trkpt>
      <trkpt lat="43.22638" lon="5.49332">
        <ele>323.6</ele>
        <time>2025-10-18T08:03:13Z</time>
      </trkpt>
      <trkpt lat="43.22639" lon="5.49331">
        <ele>323.8</ele>
        <time>2025-10-18T08:03:14Z</time>
      </trkpt>
      <trkpt lat="43.22639" lon="5.49331">
        <ele>324</ele>
        <time>2025-10-18T08:03:15Z</time>
      </trkpt>
      <trkpt lat="43.22639" lon="5.4933">
        <ele>324.1</ele>
        <time>2025-10-18T08:03:16Z</time>
      </trkpt>
      <trkpt lat="43.22639" lon="5.49329">
        <ele>324.2</ele>
        <time>2025-10-18T08:03:17Z</time>
      </trkpt>
      <trkpt lat="43.2264" lon="5.49329">
        <ele>324.3</ele>
        <time>2025-10-18T08:03:18Z</time>
      </trkpt>
      <trkpt lat="43.2264" lon="5.49328">
        <ele>324.4</ele>
        <time>2025-10-18T08:03:19Z</time>
      </trkpt>
      <trkpt lat="43.2264" lon="5.49327">
        <ele>324.4</ele>
        <time>2025-10-18T08:03:20Z</time>
      </trkpt>
      <trkpt lat="43.22641" lon="5.49327">
        <ele>324.4</ele>
        <time>2025-10-18T08:03:21Z</time>
      </trkpt>
      <trkpt lat="43.22641" lon="5.49326">
        <ele>324.5</ele>
        <time>2025-10-18T08:03:22Z</time>
      </trkpt>
      <trkpt lat="43.22641" lon="5.49326">
        <ele>324.5</ele>
        <time>2025-10-18T08:03:23Z</time>
      </trkpt>
      <trkpt lat="43.22641" lon="5.49326">
        <ele>324.6</ele>
        <time>2025-10-18T08:03:24Z</time>
      </trkpt>
      <trkpt lat="43.22641" lon="5.49325">
        <ele>324.6</ele>
        <time>2025-10-18T08:03:25Z</time>
      </trkpt>
      <trkpt lat="43.22641" lon="5.49325">
        <ele>324.7</ele>
        <time>2025-10-18T08:03:26Z</time>
      </trkpt>
      <trkpt lat="43.22642" lon="5.49324">
        <ele>324.7</ele>
        <time>2025-10-18T08:03:27Z</time>
      </trkpt>
      <trkpt lat="43.22642" lon="5.49324">
        <ele>324.7</ele>
        <time>2025-10-18T08:03:28Z</time>
      </trkpt>
      <trkpt lat="43.22642" lon="5.49323">
        <ele>324.7</ele>
        <time>2025-10-18T08:03:29Z</time>
      </trkpt>
      <trkpt lat="43.22642" lon="5.49322">
        <ele>324.7</ele>
        <time>2025-10-18T08:03:30Z</time>
      </trkpt>
      <trkpt lat="43.22642" lon="5.49321">
        <ele>324.8</ele>
        <time>2025-10-18T08:03:31Z</time>
      </trkpt>
      <trkpt lat="43.22643" lon="5.4932">
        <ele>324.8</ele>
        <time>2025-10-18T08:03:32Z</time>
      </trkpt>
      <trkpt lat="43.22643" lon="5.49319">
        <ele>324.9</ele>
        <time>2025-10-18T08:03:33Z</time>
      </trkpt>
      <trkpt lat="43.22642" lon="5.49318">
        <ele>324.9</ele>
        <time>2025-10-18T08:03:34Z</time>
      </trkpt>
      <trkpt lat="43.22642" lon="5.49317">
        <ele>325</ele>
        <time>2025-10-18T08:03:35Z</time>
      </trkpt>
      <trkpt lat="43.22642" lon="5.49317">
        <ele>325.1</ele>
        <time>2025-10-18T08:03:36Z</time>
      </trkpt>
      <trkpt lat="43.22642" lon="5.49317">
        <ele>325.2</ele>
        <time>2025-10-18T08:03:37Z</time>
      </trkpt>
      <trkpt lat="43.22642" lon="5.49317">
        <ele>325.3</ele>
        <time>2025-10-18T08:03:38Z</time>
      </trkpt>
      <trkpt lat="43.22642" lon="5.49316">
        <ele>325.4</ele>
        <time>2025-10-18T08:03:39Z</time>
      </trkpt>
      <trkpt lat="43.22642" lon="5.49316">
        <ele>325.4</ele>
        <time>2025-10-18T08:03:40Z</time>
      </trkpt>
      <trkpt lat="43.22642" lon="5.49316">
        <ele>325.5</ele>
        <time>2025-10-18T08:03:41Z</time>
      </trkpt>
      <trkpt lat="43.22642" lon="5.49315">
        <ele>325.5</ele>
        <time>2025-10-18T08:03:42Z</time>
      </trkpt>
      <trkpt lat="43.22642" lon="5.49315">
        <ele>325.5</ele>
        <time>2025-10-18T08:03:43Z</time>
      </trkpt>
      <trkpt lat="43.22642" lon="5.49315">
        <ele>325.5</ele>
        <time>2025-10-18T08:03:44Z</time>
      </trkpt>
      <trkpt lat="43.22642" lon="5.49315">
        <ele>325.5</ele>
        <time>2025-10-18T08:03:45Z</time>
      </trkpt>
      <trkpt lat="43.22642" lon="5.49314">
        <ele>325.5</ele>
        <time>2025-10-18T08:03:46Z</time>
      </trkpt>
      <trkpt lat="43.22642" lon="5.49314">
        <ele>325.4</ele>
        <time>2025-10-18T08:03:47Z</time>
      </trkpt>
      <trkpt lat="43.22642" lon="5.49314">
        <ele>325.4</ele>
        <time>2025-10-18T08:03:48Z</time>
      </trkpt>
      <trkpt lat="43.22642" lon="5.49314">
        <ele>325.5</ele>
        <time>2025-10-18T08:03:49Z</time>
      </trkpt>
      <trkpt lat="43.22642" lon="5.49313">
        <ele>325.5</ele>
        <time>2025-10-18T08:03:50Z</time>
      </trkpt>
      <trkpt lat="43.22642" lon="5.49313">
        <ele>325.5</ele>
        <time>2025-10-18T08:03:51Z</time>
      </trkpt>
      <trkpt lat="43.22642" lon="5.49312">
        <ele>325.5</ele>
        <time>2025-10-18T08:03:52Z</time>
      </trkpt>
      <trkpt lat="43.22642" lon="5.49312">
        <ele>325.5</ele>
        <time>2025-10-18T08:03:53Z</time>
      </trkpt>
      <trkpt lat="43.22642" lon="5.49311">
        <ele>325.6</ele>
        <time>2025-10-18T08:03:54Z</time>
      </trkpt>
      <trkpt lat="43.22642" lon="5.4931">
        <ele>325.7</ele>
        <time>2025-10-18T08:03:55Z</time>
      </trkpt>
      <trkpt lat="43.22642" lon="5.49309">
        <ele>325.9</ele>
        <time>2025-10-18T08:03:56Z</time>
      </trkpt>
      <trkpt lat="43.22642" lon="5.49308">
        <ele>325.9</ele>
        <time>2025-10-18T08:03:57Z</time>
      </trkpt>
      <trkpt lat="43.22642" lon="5.49306">
        <ele>326</ele>
        <time>2025-10-18T08:03:58Z</time>
      </trkpt>
      <trkpt lat="43.22642" lon="5.49305">
        <ele>326.1</ele>
        <time>2025-10-18T08:03:59Z</time>
      </trkpt>
      <trkpt lat="43.22641" lon="5.49304">
        <ele>326.2</ele>
        <time>2025-10-18T08:04:00Z</time>
      </trkpt>
      <trkpt lat="43.22641" lon="5.49304">
        <ele>326.3</ele>
        <time>2025-10-18T08:04:01Z</time>
      </trkpt>
      <trkpt lat="43.22641" lon="5.49304">
        <ele>326.4</ele>
        <time>2025-10-18T08:04:02Z</time>
      </trkpt>
      <trkpt lat="43.22641" lon="5.49304">
        <ele>326.5</ele>
        <time>2025-10-18T08:04:03Z</time>
      </trkpt>
      <trkpt lat="43.22641" lon="5.49304">
        <ele>326.6</ele>
        <time>2025-10-18T08:04:04Z</time>
      </trkpt>
      <trkpt lat="43.22641" lon="5.49303">
        <ele>326.7</ele>
        <time>2025-10-18T08:04:05Z</time>
      </trkpt>
      <trkpt lat="43.22641" lon="5.49304">
        <ele>326.8</ele>
        <time>2025-10-18T08:04:06Z</time>
      </trkpt>
      <trkpt lat="43.22641" lon="5.49304">
        <ele>326.8</ele>
        <time>2025-10-18T08:04:07Z</time>
      </trkpt>
      <trkpt lat="43.22641" lon="5.49304">
        <ele>326.8</ele>
        <time>2025-10-18T08:04:08Z</time>
      </trkpt>
      <trkpt lat="43.22641" lon="5.49303">
        <ele>326.8</ele>
        <time>2025-10-18T08:04:09Z</time>
      </trkpt>
      <trkpt lat="43.22641" lon="5.49303">
        <ele>326.9</ele>
        <time>2025-10-18T08:04:10Z</time>
      </trkpt>
      <trkpt lat="43.2264" lon="5.49302">
        <ele>327</ele>
        <time>2025-10-18T08:04:11Z</time>
      </trkpt>
      <trkpt lat="43.2264" lon="5.49301">
        <ele>327.2</ele>
        <time>2025-10-18T08:04:12Z</time>
      </trkpt>
      <trkpt lat="43.22639" lon="5.493">
        <ele>327.3</ele>
        <time>2025-10-18T08:04:13Z</time>
      </trkpt>
      <trkpt lat="43.22639" lon="5.49299">
        <ele>327.4</ele>
        <time>2025-10-18T08:04:14Z</time>
      </trkpt>
      <trkpt lat="43.22639" lon="5.49298">
        <ele>327.6</ele>
        <time>2025-10-18T08:04:15Z</time>
      </trkpt>
      <trkpt lat="43.22639" lon="5.49297">
        <ele>327.8</ele>
        <time>2025-10-18T08:04:16Z</time>
      </trkpt>
      <trkpt lat="43.22638" lon="5.49297">
        <ele>328</ele>
        <time>2025-10-18T08:04:17Z</time>
      </trkpt>
      <trkpt lat="43.22638" lon="5.49296">
        <ele>328.2</ele>
        <time>2025-10-18T08:04:18Z</time>
      </trkpt>
      <trkpt lat="43.22637" lon="5.49296">
        <ele>328.3</ele>
        <time>2025-10-18T08:04:19Z</time>
      </trkpt>
      <trkpt lat="43.22637" lon="5.49295">
        <ele>328.4</ele>
        <time>2025-10-18T08:04:20Z</time>
      </trkpt>
      <trkpt lat="43.22637" lon="5.49295">
        <ele>328.6</ele>
        <time>2025-10-18T08:04:21Z</time>
      </trkpt>
      <trkpt lat="43.22636" lon="5.49293">
        <ele>328.6</ele>
        <time>2025-10-18T08:04:22Z</time>
      </trkpt>
      <trkpt lat="43.22636" lon="5.49293">
        <ele>328.7</ele>
        <time>2025-10-18T08:04:23Z</time>
      </trkpt>
      <trkpt lat="43.22635" lon="5.49292">
        <ele>328.9</ele>
        <time>2025-10-18T08:04:24Z</time>
      </trkpt>
      <trkpt lat="43.22635" lon="5.49292">
        <ele>329</ele>
        <time>2025-10-18T08:04:25Z</time>
      </trkpt>
      <trkpt lat="43.22634" lon="5.49291">
        <ele>329.2</ele>
        <time>2025-10-18T08:04:26Z</time>
      </trkpt>
      <trkpt lat="43.22634" lon="5.4929">
        <ele>329.3</ele>
        <time>2025-10-18T08:04:27Z</time>
      </trkpt>
      <trkpt lat="43.22634" lon="5.49289">
        <ele>329.5</ele>
        <time>2025-10-18T08:04:28Z</time>
      </trkpt>
      <trkpt lat="43.22633" lon="5.49289">
        <ele>329.5</ele>
        <time>2025-10-18T08:04:29Z</time>
      </trkpt>
      <trkpt lat="43.22633" lon="5.49287">
        <ele>329.7</ele>
        <time>2025-10-18T08:04:30Z</time>
      </trkpt>
      <trkpt lat="43.22632" lon="5.49287">
        <ele>329.9</ele>
        <time>2025-10-18T08:04:31Z</time>
      </trkpt>
      <trkpt lat="43.22632" lon="5.49286">
        <ele>329.9</ele>
        <time>2025-10-18T08:04:32Z</time>
      </trkpt>
      <trkpt lat="43.22631" lon="5.49285">
        <ele>330.1</ele>
        <time>2025-10-18T08:04:33Z</time>
      </trkpt>
      <trkpt lat="43.22631" lon="5.49284">
        <ele>330.2</ele>
        <time>2025-10-18T08:04:34Z</time>
      </trkpt>
      <trkpt lat="43.22631" lon="5.49283">
        <ele>330.4</ele>
        <time>2025-10-18T08:04:35Z</time>
      </trkpt>
      <trkpt lat="43.2263" lon="5.49282">
        <ele>330.6</ele>
        <time>2025-10-18T08:04:36Z</time>
      </trkpt>
      <trkpt lat="43.22629" lon="5.49281">
        <ele>330.7</ele>
        <time>2025-10-18T08:04:37Z</time>
      </trkpt>
      <trkpt lat="43.22629" lon="5.4928">
        <ele>330.8</ele>
        <time>2025-10-18T08:04:38Z</time>
      </trkpt>
      <trkpt lat="43.22628" lon="5.4928">
        <ele>331</ele>
        <time>2025-10-18T08:04:39Z</time>
      </trkpt>
      <trkpt lat="43.22628" lon="5.49279">
        <ele>331.1</ele>
        <time>2025-10-18T08:04:40Z</time>
      </trkpt>
      <trkpt lat="43.22627" lon="5.49279">
        <ele>331.3</ele>
        <time>2025-10-18T08:04:41Z</time>
      </trkpt>
      <trkpt lat="43.22627" lon="5.49278">
        <ele>331.5</ele>
        <time>2025-10-18T08:04:42Z</time>
      </trkpt>
      <trkpt lat="43.22626" lon="5.49277">
        <ele>331.6</ele>
        <time>2025-10-18T08:04:43Z</time>
      </trkpt>
      <trkpt lat="43.22625" lon="5.49277">
        <ele>331.8</ele>
        <time>2025-10-18T08:04:44Z</time>
      </trkpt>
      <trkpt lat="43.22625" lon="5.49276">
        <ele>331.9</ele>
        <time>2025-10-18T08:04:45Z</time>
      </trkpt>
      <trkpt lat="43.22625" lon="5.49276">
        <ele>331.9</ele>
        <time>2025-10-18T08:04:46Z</time>
      </trkpt>
      <trkpt lat="43.22625" lon="5.49274">
        <ele>332</ele>
        <time>2025-10-18T08:04:47Z</time>
      </trkpt>
      <trkpt lat="43.22625" lon="5.49273">
        <ele>332.2</ele>
        <time>2025-10-18T08:04:48Z</time>
      </trkpt>
      <trkpt lat="43.22625" lon="5.49272">
        <ele>332.3</ele>
        <time>2025-10-18T08:04:49Z</time>
      </trkpt>
      <trkpt lat="43.22625" lon="5.49271">
        <ele>332.4</ele>
        <time>2025-10-18T08:04:50Z</time>
      </trkpt>
      <trkpt lat="43.22625" lon="5.4927">
        <ele>332.5</ele>
        <time>2025-10-18T08:04:51Z</time>
      </trkpt>
      <trkpt lat="43.22625" lon="5.49269">
        <ele>332.7</ele>
        <time>2025-10-18T08:04:52Z</time>
      </trkpt>
      <trkpt lat="43.22625" lon="5.49268">
        <ele>332.8</ele>
        <time>2025-10-18T08:04:53Z</time>
      </trkpt>
      <trkpt lat="43.22625" lon="5.49267">
        <ele>332.9</ele>
        <time>2025-10-18T08:04:54Z</time>
      </trkpt>
      <trkpt lat="43.22625" lon="5.49266">
        <ele>333</ele>
        <time>2025-10-18T08:04:55Z</time>
      </trkpt>
      <trkpt lat="43.22625" lon="5.49265">
        <ele>333.3</ele>
        <time>2025-10-18T08:04:56Z</time>
      </trkpt>
      <trkpt lat="43.22624" lon="5.49263">
        <ele>333.4</ele>
        <time>2025-10-18T08:04:57Z</time>
      </trkpt>
      <trkpt lat="43.22624" lon="5.49262">
        <ele>333.5</ele>
        <time>2025-10-18T08:04:58Z</time>
      </trkpt>
      <trkpt lat="43.22623" lon="5.49262">
        <ele>333.6</ele>
        <time>2025-10-18T08:04:59Z</time>
      </trkpt>
      <trkpt lat="43.22623" lon="5.49261">
        <ele>333.7</ele>
        <time>2025-10-18T08:05:00Z</time>
      </trkpt>
      <trkpt lat="43.22623" lon="5.49261">
        <ele>333.8</ele>
        <time>2025-10-18T08:05:01Z</time>
      </trkpt>
      <trkpt lat="43.22623" lon="5.49261">
        <ele>333.8</ele>
        <time>2025-10-18T08:05:02Z</time>
      </trkpt>
      <trkpt lat="43.22623" lon="5.49261">
        <ele>333.9</ele>
        <time>2025-10-18T08:05:03Z</time>
      </trkpt>
      <trkpt lat="43.22623" lon="5.49261">
        <ele>334</ele>
        <time>2025-10-18T08:05:04Z</time>
      </trkpt>
      <trkpt lat="43.22623" lon="5.4926">
        <ele>334</ele>
        <time>2025-10-18T08:05:05Z</time>
      </trkpt>
      <trkpt lat="43.22623" lon="5.4926">
        <ele>334.1</ele>
        <time>2025-10-18T08:05:06Z</time>
      </trkpt>
      <trkpt lat="43.22623" lon="5.4926">
        <ele>334.2</ele>
        <time>2025-10-18T08:05:07Z</time>
      </trkpt>
      <trkpt lat="43.22624" lon="5.4926">
        <ele>334.1</ele>
        <time>2025-10-18T08:05:08Z</time>
      </trkpt>
      <trkpt lat="43.22624" lon="5.49259">
        <ele>334.1</ele>
        <time>2025-10-18T08:05:09Z</time>
      </trkpt>
      <trkpt lat="43.22625" lon="5.49258">
        <ele>334.1</ele>
        <time>2025-10-18T08:05:10Z</time>
      </trkpt>
      <trkpt lat="43.22625" lon="5.49257">
        <ele>334.1</ele>
        <time>2025-10-18T08:05:11Z</time>
      </trkpt>
      <trkpt lat="43.22625" lon="5.49257">
        <ele>334.1</ele>
        <time>2025-10-18T08:05:12Z</time>
      </trkpt>
      <trkpt lat="43.22625" lon="5.49256">
        <ele>334.2</ele>
        <time>2025-10-18T08:05:13Z</time>
      </trkpt>
      <trkpt lat="43.22625" lon="5.49255">
        <ele>334.3</ele>
        <time>2025-10-18T08:05:14Z</time>
      </trkpt>
      <trkpt lat="43.22625" lon="5.49254">
        <ele>334.4</ele>
        <time>2025-10-18T08:05:15Z</time>
      </trkpt>
      <trkpt lat="43.22625" lon="5.49253">
        <ele>334.5</ele>
        <time>2025-10-18T08:05:16Z</time>
      </trkpt>
      <trkpt lat="43.22625" lon="5.49252">
        <ele>334.5</ele>
        <time>2025-10-18T08:05:17Z</time>
      </trkpt>
      <trkpt lat="43.22625" lon="5.49251">
        <ele>334.6</ele>
        <time>2025-10-18T08:05:18Z</time>
      </trkpt>
      <trkpt lat="43.22625" lon="5.4925">
        <ele>334.6</ele>
        <time>2025-10-18T08:05:19Z</time>
      </trkpt>
      <trkpt lat="43.22624" lon="5.49249">
        <ele>334.7</ele>
        <time>2025-10-18T08:05:20Z</time>
      </trkpt>
      <trkpt lat="43.22624" lon="5.49248">
        <ele>334.7</ele>
        <time>2025-10-18T08:05:21Z</time>
      </trkpt>
      <trkpt lat="43.22624" lon="5.49247">
        <ele>334.8</ele>
        <time>2025-10-18T08:05:22Z</time>
      </trkpt>
      <trkpt lat="43.22624" lon="5.49246">
        <ele>334.9</ele>
        <time>2025-10-18T08:05:23Z</time>
      </trkpt>
      <trkpt lat="43.22624" lon="5.49245">
        <ele>335</ele>
        <time>2025-10-18T08:05:24Z</time>
      </trkpt>
      <trkpt lat="43.22623" lon="5.49244">
        <ele>335.1</ele>
        <time>2025-10-18T08:05:25Z</time>
      </trkpt>
      <trkpt lat="43.22623" lon="5.49243">
        <ele>335.4</ele>
        <time>2025-10-18T08:05:26Z</time>
      </trkpt>
      <trkpt lat="43.22623" lon="5.49242">
        <ele>335.6</ele>
        <time>2025-10-18T08:05:27Z</time>
      </trkpt>
      <trkpt lat="43.22623" lon="5.4924">
        <ele>335.8</ele>
        <time>2025-10-18T08:05:28Z</time>
      </trkpt>
      <trkpt lat="43.22623" lon="5.49239">
        <ele>335.9</ele>
        <time>2025-10-18T08:05:29Z</time>
      </trkpt>
      <trkpt lat="43.22622" lon="5.49238">
        <ele>336.1</ele>
        <time>2025-10-18T08:05:30Z</time>
      </trkpt>
      <trkpt lat="43.22622" lon="5.49237">
        <ele>336.2</ele>
        <time>2025-10-18T08:05:31Z</time>
      </trkpt>
      <trkpt lat="43.22622" lon="5.49236">
        <ele>336.3</ele>
        <time>2025-10-18T08:05:32Z</time>
      </trkpt>
      <trkpt lat="43.22622" lon="5.49234">
        <ele>336.4</ele>
        <time>2025-10-18T08:05:33Z</time>
      </trkpt>
      <trkpt lat="43.22622" lon="5.49234">
        <ele>336.5</ele>
        <time>2025-10-18T08:05:34Z</time>
      </trkpt>
      <trkpt lat="43.22622" lon="5.49232">
        <ele>336.5</ele>
        <time>2025-10-18T08:05:35Z</time>
      </trkpt>
      <trkpt lat="43.22622" lon="5.49231">
        <ele>336.6</ele>
        <time>2025-10-18T08:05:36Z</time>
      </trkpt>
      <trkpt lat="43.22622" lon="5.4923">
        <ele>336.8</ele>
        <time>2025-10-18T08:05:37Z</time>
      </trkpt>
      <trkpt lat="43.22621" lon="5.49229">
        <ele>336.9</ele>
        <time>2025-10-18T08:05:38Z</time>
      </trkpt>
      <trkpt lat="43.22621" lon="5.49228">
        <ele>337</ele>
        <time>2025-10-18T08:05:39Z</time>
      </trkpt>
      <trkpt lat="43.22621" lon="5.49226">
        <ele>337.1</ele>
        <time>2025-10-18T08:05:40Z</time>
      </trkpt>
      <trkpt lat="43.22621" lon="5.49226">
        <ele>337.1</ele>
        <time>2025-10-18T08:05:41Z</time>
      </trkpt>
      <trkpt lat="43.22621" lon="5.49225">
        <ele>337.3</ele>
        <time>2025-10-18T08:05:42Z</time>
      </trkpt>
      <trkpt lat="43.2262" lon="5.49224">
        <ele>337.3</ele>
        <time>2025-10-18T08:05:43Z</time>
      </trkpt>
      <trkpt lat="43.2262" lon="5.49222">
        <ele>337.4</ele>
        <time>2025-10-18T08:05:44Z</time>
      </trkpt>
      <trkpt lat="43.2262" lon="5.49221">
        <ele>337.6</ele>
        <time>2025-10-18T08:05:45Z</time>
      </trkpt>
      <trkpt lat="43.22619" lon="5.4922">
        <ele>337.7</ele>
        <time>2025-10-18T08:05:46Z</time>
      </trkpt>
      <trkpt lat="43.22619" lon="5.49219">
        <ele>337.7</ele>
        <time>2025-10-18T08:05:47Z</time>
      </trkpt>
      <trkpt lat="43.22619" lon="5.49218">
        <ele>337.7</ele>
        <time>2025-10-18T08:05:48Z</time>
      </trkpt>
      <trkpt lat="43.22619" lon="5.49217">
        <ele>337.8</ele>
        <time>2025-10-18T08:05:49Z</time>
      </trkpt>
      <trkpt lat="43.22618" lon="5.49216">
        <ele>337.9</ele>
        <time>2025-10-18T08:05:50Z</time>
      </trkpt>
      <trkpt lat="43.22618" lon="5.49215">
        <ele>338</ele>
        <time>2025-10-18T08:05:51Z</time>
      </trkpt>
      <trkpt lat="43.22618" lon="5.49214">
        <ele>338.1</ele>
        <time>2025-10-18T08:05:52Z</time>
      </trkpt>
      <trkpt lat="43.22618" lon="5.49212">
        <ele>338.2</ele>
        <time>2025-10-18T08:05:53Z</time>
      </trkpt>
      <trkpt lat="43.22618" lon="5.49211">
        <ele>338.3</ele>
        <time>2025-10-18T08:05:54Z</time>
      </trkpt>
      <trkpt lat="43.22618" lon="5.4921">
        <ele>338.3</ele>
        <time>2025-10-18T08:05:55Z</time>
      </trkpt>
      <trkpt lat="43.22617" lon="5.49209">
        <ele>338.4</ele>
        <time>2025-10-18T08:05:56Z</time>
      </trkpt>
      <trkpt lat="43.22618" lon="5.49208">
        <ele>338.4</ele>
        <time>2025-10-18T08:05:57Z</time>
      </trkpt>
      <trkpt lat="43.22617" lon="5.49208">
        <ele>338.3</ele>
        <time>2025-10-18T08:05:58Z</time>
      </trkpt>
      <trkpt lat="43.22618" lon="5.49208">
        <ele>338.5</ele>
        <time>2025-10-18T08:05:59Z</time>
      </trkpt>
      <trkpt lat="43.22618" lon="5.49208">
        <ele>338.6</ele>
        <time>2025-10-18T08:06:00Z</time>
      </trkpt>
      <trkpt lat="43.22618" lon="5.49208">
        <ele>338.6</ele>
        <time>2025-10-18T08:06:01Z</time>
      </trkpt>
      <trkpt lat="43.22618" lon="5.49207">
        <ele>338.7</ele>
        <time>2025-10-18T08:06:02Z</time>
      </trkpt>
      <trkpt lat="43.22617" lon="5.49206">
        <ele>338.7</ele>
        <time>2025-10-18T08:06:03Z</time>
      </trkpt>
      <trkpt lat="43.22617" lon="5.49205">
        <ele>338.7</ele>
        <time>2025-10-18T08:06:04Z</time>
      </trkpt>
      <trkpt lat="43.22617" lon="5.49204">
        <ele>338.8</ele>
        <time>2025-10-18T08:06:05Z</time>
      </trkpt>
      <trkpt lat="43.22616" lon="5.49204">
        <ele>338.8</ele>
        <time>2025-10-18T08:06:06Z</time>
      </trkpt>
      <trkpt lat="43.22616" lon="5.49203">
        <ele>338.8</ele>
        <time>2025-10-18T08:06:07Z</time>
      </trkpt>
      <trkpt lat="43.22616" lon="5.49203">
        <ele>338.8</ele>
        <time>2025-10-18T08:06:08Z</time>
      </trkpt>
      <trkpt lat="43.22616" lon="5.49203">
        <ele>338.8</ele>
        <time>2025-10-18T08:06:09Z</time>
      </trkpt>
      <trkpt lat="43.22615" lon="5.49203">
        <ele>338.7</ele>
        <time>2025-10-18T08:06:10Z</time>
      </trkpt>
      <trkpt lat="43.22616" lon="5.49203">
        <ele>338.7</ele>
        <time>2025-10-18T08:06:11Z</time>
      </trkpt>
      <trkpt lat="43.22615" lon="5.49202">
        <ele>338.7</ele>
        <time>2025-10-18T08:06:12Z</time>
      </trkpt>
      <trkpt lat="43.22615" lon="5.49202">
        <ele>338.7</ele>
        <time>2025-10-18T08:06:13Z</time>
      </trkpt>
      <trkpt lat="43.22615" lon="5.49201">
        <ele>338.7</ele>
        <time>2025-10-18T08:06:14Z</time>
      </trkpt>
      <trkpt lat="43.22615" lon="5.49201">
        <ele>338.7</ele>
        <time>2025-10-18T08:06:15Z</time>
      </trkpt>
      <trkpt lat="43.22615" lon="5.49201">
        <ele>338.8</ele>
        <time>2025-10-18T08:06:16Z</time>
      </trkpt>
      <trkpt lat="43.22615" lon="5.49201">
        <ele>338.7</ele>
        <time>2025-10-18T08:06:17Z</time>
      </trkpt>
      <trkpt lat="43.22615" lon="5.49201">
        <ele>338.7</ele>
        <time>2025-10-18T08:06:18Z</time>
      </trkpt>
      <trkpt lat="43.22615" lon="5.49201">
        <ele>338.7</ele>
        <time>2025-10-18T08:06:19Z</time>
      </trkpt>
      <trkpt lat="43.22615" lon="5.492">
        <ele>338.6</ele>
        <time>2025-10-18T08:06:20Z</time>
      </trkpt>
      <trkpt lat="43.22615" lon="5.492">
        <ele>338.6</ele>
        <time>2025-10-18T08:06:21Z</time>
      </trkpt>
      <trkpt lat="43.22615" lon="5.492">
        <ele>338.6</ele>
        <time>2025-10-18T08:06:22Z</time>
      </trkpt>
      <trkpt lat="43.22615" lon="5.492">
        <ele>338.6</ele>
        <time>2025-10-18T08:06:23Z</time>
      </trkpt>
      <trkpt lat="43.22615" lon="5.492">
        <ele>338.7</ele>
        <time>2025-10-18T08:06:24Z</time>
      </trkpt>
      <trkpt lat="43.22615" lon="5.492">
        <ele>338.5</ele>
        <time>2025-10-18T08:06:25Z</time>
      </trkpt>
      <trkpt lat="43.22615" lon="5.492">
        <ele>338.4</ele>
        <time>2025-10-18T08:06:26Z</time>
      </trkpt>
      <trkpt lat="43.22615" lon="5.49199">
        <ele>338.4</ele>
        <time>2025-10-18T08:06:27Z</time>
      </trkpt>
      <trkpt lat="43.22614" lon="5.49198">
        <ele>338.5</ele>
        <time>2025-10-18T08:06:28Z</time>
      </trkpt>
      <trkpt lat="43.22614" lon="5.49198">
        <ele>338.5</ele>
        <time>2025-10-18T08:06:29Z</time>
      </trkpt>
      <trkpt lat="43.22614" lon="5.49197">
        <ele>338.6</ele>
        <time>2025-10-18T08:06:30Z</time>
      </trkpt>
      <trkpt lat="43.22613" lon="5.49196">
        <ele>338.6</ele>
        <time>2025-10-18T08:06:31Z</time>
      </trkpt>
      <trkpt lat="43.22613" lon="5.49196">
        <ele>338.7</ele>
        <time>2025-10-18T08:06:32Z</time>
      </trkpt>
      <trkpt lat="43.22613" lon="5.49195">
        <ele>338.6</ele>
        <time>2025-10-18T08:06:33Z</time>
      </trkpt>
      <trkpt lat="43.22613" lon="5.49195">
        <ele>338.6</ele>
        <time>2025-10-18T08:06:34Z</time>
      </trkpt>
      <trkpt lat="43.22612" lon="5.49194">
        <ele>338.6</ele>
        <time>2025-10-18T08:06:35Z</time>
      </trkpt>
      <trkpt lat="43.22612" lon="5.49193">
        <ele>338.6</ele>
        <time>2025-10-18T08:06:36Z</time>
      </trkpt>
      <trkpt lat="43.22612" lon="5.49193">
        <ele>338.5</ele>
        <time>2025-10-18T08:06:37Z</time>
      </trkpt>
      <trkpt lat="43.22612" lon="5.49194">
        <ele>338.5</ele>
        <time>2025-10-18T08:06:38Z</time>
      </trkpt>
      <trkpt lat="43.22612" lon="5.49193">
        <ele>338.5</ele>
        <time>2025-10-18T08:06:39Z</time>
      </trkpt>
      <trkpt lat="43.22612" lon="5.49193">
        <ele>338.4</ele>
        <time>2025-10-18T08:06:40Z</time>
      </trkpt>
      <trkpt lat="43.22612" lon="5.49193">
        <ele>338.3</ele>
        <time>2025-10-18T08:06:41Z</time>
      </trkpt>
      <trkpt lat="43.22612" lon="5.49192">
        <ele>338.3</ele>
        <time>2025-10-18T08:06:42Z</time>
      </trkpt>
      <trkpt lat="43.22612" lon="5.49191">
        <ele>338.2</ele>
        <time>2025-10-18T08:06:43Z</time>
      </trkpt>
      <trkpt lat="43.22612" lon="5.4919">
        <ele>338.3</ele>
        <time>2025-10-18T08:06:44Z</time>
      </trkpt>
      <trkpt lat="43.22612" lon="5.4919">
        <ele>338.3</ele>
        <time>2025-10-18T08:06:45Z</time>
      </trkpt>
      <trkpt lat="43.22612" lon="5.4919">
        <ele>338.3</ele>
        <time>2025-10-18T08:06:46Z</time>
      </trkpt>
      <trkpt lat="43.22612" lon="5.4919">
        <ele>338.3</ele>
        <time>2025-10-18T08:06:47Z</time>
      </trkpt>
      <trkpt lat="43.22611" lon="5.49189">
        <ele>338.3</ele>
        <time>2025-10-18T08:06:48Z</time>
      </trkpt>
      <trkpt lat="43.22611" lon="5.49189">
        <ele>338.3</ele>
        <time>2025-10-18T08:06:49Z</time>
      </trkpt>
      <trkpt lat="43.22611" lon="5.49189">
        <ele>338.3</ele>
        <time>2025-10-18T08:06:50Z</time>
      </trkpt>
      <trkpt lat="43.22611" lon="5.49189">
        <ele>338.3</ele>
        <time>2025-10-18T08:06:51Z</time>
      </trkpt>
      <trkpt lat="43.22611" lon="5.49189">
        <ele>338.3</ele>
        <time>2025-10-18T08:06:52Z</time>
      </trkpt>
      <trkpt lat="43.22611" lon="5.49189">
        <ele>338.4</ele>
        <time>2025-10-18T08:06:53Z</time>
      </trkpt>
      <trkpt lat="43.22611" lon="5.49189">
        <ele>338.4</ele>
        <time>2025-10-18T08:06:54Z</time>
      </trkpt>
      <trkpt lat="43.22611" lon="5.49189">
        <ele>338.4</ele>
        <time>2025-10-18T08:06:55Z</time>
      </trkpt>
      <trkpt lat="43.22611" lon="5.49189">
        <ele>338.4</ele>
        <time>2025-10-18T08:06:56Z</time>
      </trkpt>
      <trkpt lat="43.22611" lon="5.49189">
        <ele>338.4</ele>
        <time>2025-10-18T08:06:57Z</time>
      </trkpt>
      <trkpt lat="43.22611" lon="5.49189">
        <ele>338.3</ele>
        <time>2025-10-18T08:06:58Z</time>
      </trkpt>
      <trkpt lat="43.22611" lon="5.49189">
        <ele>338.3</ele>
        <time>2025-10-18T08:06:59Z</time>
      </trkpt>
      <trkpt lat="43.22611" lon="5.49189">
        <ele>338.3</ele>
        <time>2025-10-18T08:07:00Z</time>
      </trkpt>
      <trkpt lat="43.2261" lon="5.49189">
        <ele>338.3</ele>
        <time>2025-10-18T08:07:01Z</time>
      </trkpt>
      <trkpt lat="43.2261" lon="5.49189">
        <ele>338.4</ele>
        <time>2025-10-18T08:07:02Z</time>
      </trkpt>
      <trkpt lat="43.2261" lon="5.49189">
        <ele>338.3</ele>
        <time>2025-10-18T08:07:03Z</time>
      </trkpt>
      <trkpt lat="43.2261" lon="5.49189">
        <ele>338.3</ele>
        <time>2025-10-18T08:07:04Z</time>
      </trkpt>
      <trkpt lat="43.2261" lon="5.49188">
        <ele>338.2</ele>
        <time>2025-10-18T08:07:05Z</time>
      </trkpt>
      <trkpt lat="43.2261" lon="5.49188">
        <ele>338.2</ele>
        <time>2025-10-18T08:07:06Z</time>
      </trkpt>
      <trkpt lat="43.2261" lon="5.49187">
        <ele>338.2</ele>
        <time>2025-10-18T08:07:07Z</time>
      </trkpt>
      <trkpt lat="43.2261" lon="5.49187">
        <ele>338.3</ele>
        <time>2025-10-18T08:07:08Z</time>
      </trkpt>
      <trkpt lat="43.2261" lon="5.49186">
        <ele>338.1</ele>
        <time>2025-10-18T08:07:09Z</time>
      </trkpt>
      <trkpt lat="43.2261" lon="5.49185">
        <ele>338</ele>
        <time>2025-10-18T08:07:10Z</time>
      </trkpt>
      <trkpt lat="43.2261" lon="5.49185">
        <ele>338</ele>
        <time>2025-10-18T08:07:11Z</time>
      </trkpt>
      <trkpt lat="43.2261" lon="5.49185">
        <ele>338</ele>
        <time>2025-10-18T08:07:12Z</time>
      </trkpt>
      <trkpt lat="43.2261" lon="5.49184">
        <ele>338</ele>
        <time>2025-10-18T08:07:13Z</time>
      </trkpt>
      <trkpt lat="43.2261" lon="5.49184">
        <ele>338</ele>
        <time>2025-10-18T08:07:14Z</time>
      </trkpt>
      <trkpt lat="43.2261" lon="5.49184">
        <ele>338</ele>
        <time>2025-10-18T08:07:15Z</time>
      </trkpt>
      <trkpt lat="43.2261" lon="5.49184">
        <ele>338.1</ele>
        <time>2025-10-18T08:07:16Z</time>
      </trkpt>
      <trkpt lat="43.22611" lon="5.49183">
        <ele>338.1</ele>
        <time>2025-10-18T08:07:17Z</time>
      </trkpt>
      <trkpt lat="43.22611" lon="5.49182">
        <ele>338.1</ele>
        <time>2025-10-18T08:07:18Z</time>
      </trkpt>
      <trkpt lat="43.22611" lon="5.49182">
        <ele>338.2</ele>
        <time>2025-10-18T08:07:19Z</time>
      </trkpt>
      <trkpt lat="43.22611" lon="5.49181">
        <ele>338.2</ele>
        <time>2025-10-18T08:07:20Z</time>
      </trkpt>
      <trkpt lat="43.22611" lon="5.4918">
        <ele>338.1</ele>
        <time>2025-10-18T08:07:21Z</time>
      </trkpt>
      <trkpt lat="43.22612" lon="5.49179">
        <ele>338.1</ele>
        <time>2025-10-18T08:07:22Z</time>
      </trkpt>
      <trkpt lat="43.22612" lon="5.49178">
        <ele>338.1</ele>
        <time>2025-10-18T08:07:23Z</time>
      </trkpt>
      <trkpt lat="43.22612" lon="5.49177">
        <ele>338.1</ele>
        <time>2025-10-18T08:07:24Z</time>
      </trkpt>
      <trkpt lat="43.22612" lon="5.49176">
        <ele>338.1</ele>
        <time>2025-10-18T08:07:25Z</time>
      </trkpt>
      <trkpt lat="43.22612" lon="5.49175">
        <ele>338.2</ele>
        <time>2025-10-18T08:07:26Z</time>
      </trkpt>
      <trkpt lat="43.22612" lon="5.49174">
        <ele>338.2</ele>
        <time>2025-10-18T08:07:27Z</time>
      </trkpt>
      <trkpt lat="43.22613" lon="5.49173">
        <ele>338.1</ele>
        <time>2025-10-18T08:07:28Z</time>
      </trkpt>
      <trkpt lat="43.22613" lon="5.49172">
        <ele>338.1</ele>
        <time>2025-10-18T08:07:29Z</time>
      </trkpt>
      <trkpt lat="43.22614" lon="5.49171">
        <ele>338.1</ele>
        <time>2025-10-18T08:07:30Z</time>
      </trkpt>
      <trkpt lat="43.22614" lon="5.49171">
        <ele>338.2</ele>
        <time>2025-10-18T08:07:31Z</time>
      </trkpt>
      <trkpt lat="43.22615" lon="5.4917">
        <ele>338.2</ele>
        <time>2025-10-18T08:07:32Z</time>
      </trkpt>
      <trkpt lat="43.22616" lon="5.49169">
        <ele>338.1</ele>
        <time>2025-10-18T08:07:33Z</time>
      </trkpt>
      <trkpt lat="43.22616" lon="5.49168">
        <ele>338.1</ele>
        <time>2025-10-18T08:07:34Z</time>
      </trkpt>
      <trkpt lat="43.22617" lon="5.49168">
        <ele>338.2</ele>
        <time>2025-10-18T08:07:35Z</time>
      </trkpt>
      <trkpt lat="43.22617" lon="5.49167">
        <ele>338.3</ele>
        <time>2025-10-18T08:07:36Z</time>
      </trkpt>
      <trkpt lat="43.22618" lon="5.49166">
        <ele>338.4</ele>
        <time>2025-10-18T08:07:37Z</time>
      </trkpt>
      <trkpt lat="43.22618" lon="5.49165">
        <ele>338.4</ele>
        <time>2025-10-18T08:07:38Z</time>
      </trkpt>
      <trkpt lat="43.22618" lon="5.49164">
        <ele>338.5</ele>
        <time>2025-10-18T08:07:39Z</time>
      </trkpt>
      <trkpt lat="43.22618" lon="5.49164">
        <ele>338.6</ele>
        <time>2025-10-18T08:07:40Z</time>
      </trkpt>
      <trkpt lat="43.22618" lon="5.49164">
        <ele>338.6</ele>
        <time>2025-10-18T08:07:41Z</time>
      </trkpt>
      <trkpt lat="43.22618" lon="5.49164">
        <ele>338.6</ele>
        <time>2025-10-18T08:07:42Z</time>
      </trkpt>
      <trkpt lat="43.22618" lon="5.49164">
        <ele>338.7</ele>
        <time>2025-10-18T08:07:43Z</time>
      </trkpt>
      <trkpt lat="43.22619" lon="5.49164">
        <ele>338.7</ele>
        <time>2025-10-18T08:07:44Z</time>
      </trkpt>
      <trkpt lat="43.22619" lon="5.49164">
        <ele>338.7</ele>
        <time>2025-10-18T08:07:45Z</time>
      </trkpt>
      <trkpt lat="43.22619" lon="5.49164">
        <ele>338.6</ele>
        <time>2025-10-18T08:07:46Z</time>
      </trkpt>
      <trkpt lat="43.22619" lon="5.49163">
        <ele>338.6</ele>
        <time>2025-10-18T08:07:47Z</time>
      </trkpt>
      <trkpt lat="43.22619" lon="5.49163">
        <ele>338.6</ele>
        <time>2025-10-18T08:07:48Z</time>
      </trkpt>
      <trkpt lat="43.22619" lon="5.49163">
        <ele>338.7</ele>
        <time>2025-10-18T08:07:49Z</time>
      </trkpt>
      <trkpt lat="43.22619" lon="5.49163">
        <ele>338.8</ele>
        <time>2025-10-18T08:07:50Z</time>
      </trkpt>
      <trkpt lat="43.22619" lon="5.49163">
        <ele>338.8</ele>
        <time>2025-10-18T08:07:51Z</time>
      </trkpt>
      <trkpt lat="43.22619" lon="5.49163">
        <ele>338.8</ele>
        <time>2025-10-18T08:07:52Z</time>
      </trkpt>
      <trkpt lat="43.22619" lon="5.49162">
        <ele>338.9</ele>
        <time>2025-10-18T08:07:53Z</time>
      </trkpt>
      <trkpt lat="43.22618" lon="5.49162">
        <ele>338.8</ele>
        <time>2025-10-18T08:07:54Z</time>
      </trkpt>
      <trkpt lat="43.22618" lon="5.49162">
        <ele>338.7</ele>
        <time>2025-10-18T08:07:55Z</time>
      </trkpt>
      <trkpt lat="43.22617" lon="5.49161">
        <ele>338.7</ele>
        <time>2025-10-18T08:07:56Z</time>
      </trkpt>
      <trkpt lat="43.22617" lon="5.49161">
        <ele>338.8</ele>
        <time>2025-10-18T08:07:57Z</time>
      </trkpt>
      <trkpt lat="43.22616" lon="5.49161">
        <ele>338.7</ele>
        <time>2025-10-18T08:07:58Z</time>
      </trkpt>
      <trkpt lat="43.22616" lon="5.4916">
        <ele>338.6</ele>
        <time>2025-10-18T08:07:59Z</time>
      </trkpt>
      <trkpt lat="43.22616" lon="5.4916">
        <ele>338.6</ele>
        <time>2025-10-18T08:08:00Z</time>
      </trkpt>
      <trkpt lat="43.22615" lon="5.4916">
        <ele>338.4</ele>
        <time>2025-10-18T08:08:01Z</time>
      </trkpt>
      <trkpt lat="43.22615" lon="5.49159">
        <ele>338.3</ele>
        <time>2025-10-18T08:08:02Z</time>
      </trkpt>
      <trkpt lat="43.22615" lon="5.49159">
        <ele>338.1</ele>
        <time>2025-10-18T08:08:03Z</time>
      </trkpt>
      <trkpt lat="43.22614" lon="5.49158">
        <ele>337.9</ele>
        <time>2025-10-18T08:08:04Z</time>
      </trkpt>
      <trkpt lat="43.22614" lon="5.49158">
        <ele>337.6</ele>
        <time>2025-10-18T08:08:05Z</time>
      </trkpt>
      <trkpt lat="43.22614" lon="5.49158">
        <ele>337.5</ele>
        <time>2025-10-18T08:08:06Z</time>
      </trkpt>
      <trkpt lat="43.22614" lon="5.49157">
        <ele>337.4</ele>
        <time>2025-10-18T08:08:07Z</time>
      </trkpt>
      <trkpt lat="43.22613" lon="5.49157">
        <ele>337.3</ele>
        <time>2025-10-18T08:08:08Z</time>
      </trkpt>
      <trkpt lat="43.22613" lon="5.49157">
        <ele>337.2</ele>
        <time>2025-10-18T08:08:09Z</time>
      </trkpt>
      <trkpt lat="43.22613" lon="5.49157">
        <ele>337.1</ele>
        <time>2025-10-18T08:08:10Z</time>
      </trkpt>
      <trkpt lat="43.22613" lon="5.49157">
        <ele>337</ele>
        <time>2025-10-18T08:08:11Z</time>
      </trkpt>
      <trkpt lat="43.22613" lon="5.49157">
        <ele>337</ele>
        <time>2025-10-18T08:08:12Z</time>
      </trkpt>
      <trkpt lat="43.22613" lon="5.49157">
        <ele>336.9</ele>
        <time>2025-10-18T08:08:13Z</time>
      </trkpt>
      <trkpt lat="43.22613" lon="5.49157">
        <ele>337</ele>
        <time>2025-10-18T08:08:14Z</time>
      </trkpt>
      <trkpt lat="43.22613" lon="5.49157">
        <ele>337</ele>
        <time>2025-10-18T08:08:15Z</time>
      </trkpt>
      <trkpt lat="43.22613" lon="5.49157">
        <ele>337</ele>
        <time>2025-10-18T08:08:16Z</time>
      </trkpt>
      <trkpt lat="43.22613" lon="5.49157">
        <ele>337</ele>
        <time>2025-10-18T08:08:17Z</time>
      </trkpt>
      <trkpt lat="43.22613" lon="5.49157">
        <ele>337</ele>
        <time>2025-10-18T08:08:18Z</time>
      </trkpt>
      <trkpt lat="43.22613" lon="5.49157">
        <ele>337</ele>
        <time>2025-10-18T08:08:19Z</time>
      </trkpt>
      <trkpt lat="43.22613" lon="5.49156">
        <ele>336.9</ele>
        <time>2025-10-18T08:08:20Z</time>
      </trkpt>
      <trkpt lat="43.22613" lon="5.49156">
        <ele>336.9</ele>
        <time>2025-10-18T08:08:21Z</time>
      </trkpt>
      <trkpt lat="43.22613" lon="5.49155">
        <ele>336.9</ele>
        <time>2025-10-18T08:08:22Z</time>
      </trkpt>
      <trkpt lat="43.22613" lon="5.49155">
        <ele>336.9</ele>
        <time>2025-10-18T08:08:23Z</time>
      </trkpt>
      <trkpt lat="43.22613" lon="5.49154">
        <ele>336.9</ele>
        <time>2025-10-18T08:08:24Z</time>
      </trkpt>
      <trkpt lat="43.22613" lon="5.49153">
        <ele>336.8</ele>
        <time>2025-10-18T08:08:25Z</time>
      </trkpt>
      <trkpt lat="43.22613" lon="5.49152">
        <ele>336.8</ele>
        <time>2025-10-18T08:08:26Z</time>
      </trkpt>
      <trkpt lat="43.22613" lon="5.49151">
        <ele>336.7</ele>
        <time>2025-10-18T08:08:27Z</time>
      </trkpt>
      <trkpt lat="43.22614" lon="5.4915">
        <ele>336.7</ele>
        <time>2025-10-18T08:08:28Z</time>
      </trkpt>
      <trkpt lat="43.22614" lon="5.49149">
        <ele>336.7</ele>
        <time>2025-10-18T08:08:29Z</time>
      </trkpt>
      <trkpt lat="43.22614" lon="5.49148">
        <ele>336.7</ele>
        <time>2025-10-18T08:08:30Z</time>
      </trkpt>
      <trkpt lat="43.22614" lon="5.49147">
        <ele>336.6</ele>
        <time>2025-10-18T08:08:31Z</time>
      </trkpt>
      <trkpt lat="43.22614" lon="5.49146">
        <ele>336.5</ele>
        <time>2025-10-18T08:08:32Z</time>
      </trkpt>
      <trkpt lat="43.22614" lon="5.49145">
        <ele>336.4</ele>
        <time>2025-10-18T08:08:33Z</time>
      </trkpt>
      <trkpt lat="43.22615" lon="5.49145">
        <ele>336.5</ele>
        <time>2025-10-18T08:08:34Z</time>
      </trkpt>
      <trkpt lat="43.22615" lon="5.49144">
        <ele>336.5</ele>
        <time>2025-10-18T08:08:35Z</time>
      </trkpt>
      <trkpt lat="43.22615" lon="5.49143">
        <ele>336.4</ele>
        <time>2025-10-18T08:08:36Z</time>
      </trkpt>
      <trkpt lat="43.22615" lon="5.49142">
        <ele>336.4</ele>
        <time>2025-10-18T08:08:37Z</time>
      </trkpt>
      <trkpt lat="43.22614" lon="5.49142">
        <ele>336.4</ele>
        <time>2025-10-18T08:08:38Z</time>
      </trkpt>
      <trkpt lat="43.22614" lon="5.49141">
        <ele>336.4</ele>
        <time>2025-10-18T08:08:39Z</time>
      </trkpt>
      <trkpt lat="43.22614" lon="5.49141">
        <ele>336.3</ele>
        <time>2025-10-18T08:08:40Z</time>
      </trkpt>
      <trkpt lat="43.22614" lon="5.4914">
        <ele>336.3</ele>
        <time>2025-10-18T08:08:41Z</time>
      </trkpt>
      <trkpt lat="43.22614" lon="5.49139">
        <ele>336.2</ele>
        <time>2025-10-18T08:08:42Z</time>
      </trkpt>
      <trkpt lat="43.22614" lon="5.49139">
        <ele>336.1</ele>
        <time>2025-10-18T08:08:43Z</time>
      </trkpt>
      <trkpt lat="43.22613" lon="5.49139">
        <ele>336</ele>
        <time>2025-10-18T08:08:44Z</time>
      </trkpt>
      <trkpt lat="43.22614" lon="5.49138">
        <ele>335.9</ele>
        <time>2025-10-18T08:08:45Z</time>
      </trkpt>
      <trkpt lat="43.22614" lon="5.49138">
        <ele>335.8</ele>
        <time>2025-10-18T08:08:46Z</time>
      </trkpt>
      <trkpt lat="43.22614" lon="5.49137">
        <ele>335.7</ele>
        <time>2025-10-18T08:08:47Z</time>
      </trkpt>
      <trkpt lat="43.22614" lon="5.49136">
        <ele>335.5</ele>
        <time>2025-10-18T08:08:48Z</time>
      </trkpt>
      <trkpt lat="43.22614" lon="5.49136">
        <ele>335.4</ele>
        <time>2025-10-18T08:08:49Z</time>
      </trkpt>
      <trkpt lat="43.22615" lon="5.49135">
        <ele>335.4</ele>
        <time>2025-10-18T08:08:50Z</time>
      </trkpt>
      <trkpt lat="43.22615" lon="5.49135">
        <ele>335.4</ele>
        <time>2025-10-18T08:08:51Z</time>
      </trkpt>
      <trkpt lat="43.22616" lon="5.49134">
        <ele>335.4</ele>
        <time>2025-10-18T08:08:52Z</time>
      </trkpt>
      <trkpt lat="43.22616" lon="5.49133">
        <ele>335.4</ele>
        <time>2025-10-18T08:08:53Z</time>
      </trkpt>
      <trkpt lat="43.22616" lon="5.49132">
        <ele>335.4</ele>
        <time>2025-10-18T08:08:54Z</time>
      </trkpt>
      <trkpt lat="43.22617" lon="5.49132">
        <ele>335.5</ele>
        <time>2025-10-18T08:08:55Z</time>
      </trkpt>
      <trkpt lat="43.22617" lon="5.49131">
        <ele>335.5</ele>
        <time>2025-10-18T08:08:56Z</time>
      </trkpt>
      <trkpt lat="43.22618" lon="5.49129">
        <ele>335.5</ele>
        <time>2025-10-18T08:08:57Z</time>
      </trkpt>
      <trkpt lat="43.22618" lon="5.49128">
        <ele>335.5</ele>
        <time>2025-10-18T08:08:58Z</time>
      </trkpt>
      <trkpt lat="43.22618" lon="5.49127">
        <ele>335.4</ele>
        <time>2025-10-18T08:08:59Z</time>
      </trkpt>
      <trkpt lat="43.22618" lon="5.49125">
        <ele>335.4</ele>
        <time>2025-10-18T08:09:00Z</time>
      </trkpt>
      <trkpt lat="43.22619" lon="5.49124">
        <ele>335.3</ele>
        <time>2025-10-18T08:09:01Z</time>
      </trkpt>
      <trkpt lat="43.22619" lon="5.49123">
        <ele>335.3</ele>
        <time>2025-10-18T08:09:02Z</time>
      </trkpt>
      <trkpt lat="43.22619" lon="5.49122">
        <ele>335.4</ele>
        <time>2025-10-18T08:09:03Z</time>
      </trkpt>
      <trkpt lat="43.22619" lon="5.49121">
        <ele>335.4</ele>
        <time>2025-10-18T08:09:04Z</time>
      </trkpt>
      <trkpt lat="43.2262" lon="5.4912">
        <ele>335.3</ele>
        <time>2025-10-18T08:09:05Z</time>
      </trkpt>
      <trkpt lat="43.2262" lon="5.49118">
        <ele>335.3</ele>
        <time>2025-10-18T08:09:06Z</time>
      </trkpt>
      <trkpt lat="43.2262" lon="5.49117">
        <ele>335.3</ele>
        <time>2025-10-18T08:09:07Z</time>
      </trkpt>
      <trkpt lat="43.2262" lon="5.49116">
        <ele>335.3</ele>
        <time>2025-10-18T08:09:08Z</time>
      </trkpt>
      <trkpt lat="43.22621" lon="5.49115">
        <ele>335.2</ele>
        <time>2025-10-18T08:09:09Z</time>
      </trkpt>
      <trkpt lat="43.22621" lon="5.49114">
        <ele>335.2</ele>
        <time>2025-10-18T08:09:10Z</time>
      </trkpt>
      <trkpt lat="43.22622" lon="5.49113">
        <ele>334.6</ele>
        <time>2025-10-18T08:09:11Z</time>
      </trkpt>
      <trkpt lat="43.22622" lon="5.49112">
        <ele>334.7</ele>
        <time>2025-10-18T08:09:12Z</time>
      </trkpt>
      <trkpt lat="43.22622" lon="5.49112">
        <ele>334.8</ele>
        <time>2025-10-18T08:09:13Z</time>
      </trkpt>
      <trkpt lat="43.22623" lon="5.49111">
        <ele>334.8</ele>
        <time>2025-10-18T08:09:14Z</time>
      </trkpt>
      <trkpt lat="43.22623" lon="5.4911">
        <ele>334.8</ele>
        <time>2025-10-18T08:09:15Z</time>
      </trkpt>
      <trkpt lat="43.22623" lon="5.49109">
        <ele>334.8</ele>
        <time>2025-10-18T08:09:16Z</time>
      </trkpt>
      <trkpt lat="43.22623" lon="5.49108">
        <ele>334.8</ele>
        <time>2025-10-18T08:09:17Z</time>
      </trkpt>
      <trkpt lat="43.22624" lon="5.49108">
        <ele>334.8</ele>
        <time>2025-10-18T08:09:18Z</time>
      </trkpt>
      <trkpt lat="43.22624" lon="5.49107">
        <ele>334.8</ele>
        <time>2025-10-18T08:09:19Z</time>
      </trkpt>
      <trkpt lat="43.22624" lon="5.49106">
        <ele>334.8</ele>
        <time>2025-10-18T08:09:20Z</time>
      </trkpt>
      <trkpt lat="43.22624" lon="5.49106">
        <ele>334.8</ele>
        <time>2025-10-18T08:09:21Z</time>
      </trkpt>
      <trkpt lat="43.22625" lon="5.49105">
        <ele>334.8</ele>
        <time>2025-10-18T08:09:22Z</time>
      </trkpt>
      <trkpt lat="43.22625" lon="5.49104">
        <ele>334.9</ele>
        <time>2025-10-18T08:09:23Z</time>
      </trkpt>
      <trkpt lat="43.22625" lon="5.49103">
        <ele>334.8</ele>
        <time>2025-10-18T08:09:24Z</time>
      </trkpt>
      <trkpt lat="43.22625" lon="5.49102">
        <ele>334.8</ele>
        <time>2025-10-18T08:09:25Z</time>
      </trkpt>
      <trkpt lat="43.22626" lon="5.49101">
        <ele>334.7</ele>
        <time>2025-10-18T08:09:26Z</time>
      </trkpt>
      <trkpt lat="43.22626" lon="5.491">
        <ele>334.6</ele>
        <time>2025-10-18T08:09:27Z</time>
      </trkpt>
      <trkpt lat="43.22626" lon="5.49099">
        <ele>334.7</ele>
        <time>2025-10-18T08:09:28Z</time>
      </trkpt>
      <trkpt lat="43.22626" lon="5.49098">
        <ele>334.7</ele>
        <time>2025-10-18T08:09:29Z</time>
      </trkpt>
      <trkpt lat="43.22627" lon="5.49098">
        <ele>334.7</ele>
        <time>2025-10-18T08:09:30Z</time>
      </trkpt>
      <trkpt lat="43.22627" lon="5.49097">
        <ele>334.7</ele>
        <time>2025-10-18T08:09:31Z</time>
      </trkpt>
      <trkpt lat="43.22627" lon="5.49096">
        <ele>334.7</ele>
        <time>2025-10-18T08:09:32Z</time>
      </trkpt>
      <trkpt lat="43.22627" lon="5.49095">
        <ele>334.6</ele>
        <time>2025-10-18T08:09:33Z</time>
      </trkpt>
      <trkpt lat="43.22628" lon="5.49093">
        <ele>334.6</ele>
        <time>2025-10-18T08:09:34Z</time>
      </trkpt>
      <trkpt lat="43.22628" lon="5.49092">
        <ele>334.4</ele>
        <time>2025-10-18T08:09:35Z</time>
      </trkpt>
      <trkpt lat="43.22627" lon="5.49091">
        <ele>334.3</ele>
        <time>2025-10-18T08:09:36Z</time>
      </trkpt>
      <trkpt lat="43.22627" lon="5.4909">
        <ele>334.3</ele>
        <time>2025-10-18T08:09:37Z</time>
      </trkpt>
      <trkpt lat="43.22627" lon="5.49089">
        <ele>334.3</ele>
        <time>2025-10-18T08:09:38Z</time>
      </trkpt>
      <trkpt lat="43.22627" lon="5.49089">
        <ele>334.4</ele>
        <time>2025-10-18T08:09:39Z</time>
      </trkpt>
      <trkpt lat="43.22626" lon="5.49088">
        <ele>334.5</ele>
        <time>2025-10-18T08:09:40Z</time>
      </trkpt>
      <trkpt lat="43.22626" lon="5.49087">
        <ele>334.6</ele>
        <time>2025-10-18T08:09:41Z</time>
      </trkpt>
      <trkpt lat="43.22625" lon="5.49087">
        <ele>334.7</ele>
        <time>2025-10-18T08:09:42Z</time>
      </trkpt>
      <trkpt lat="43.22625" lon="5.49086">
        <ele>334.7</ele>
        <time>2025-10-18T08:09:43Z</time>
      </trkpt>
      <trkpt lat="43.22624" lon="5.49085">
        <ele>334.8</ele>
        <time>2025-10-18T08:09:44Z</time>
      </trkpt>
      <trkpt lat="43.22624" lon="5.49084">
        <ele>334.8</ele>
        <time>2025-10-18T08:09:45Z</time>
      </trkpt>
      <trkpt lat="43.22623" lon="5.49084">
        <ele>334.9</ele>
        <time>2025-10-18T08:09:46Z</time>
      </trkpt>
      <trkpt lat="43.22623" lon="5.49083">
        <ele>334.9</ele>
        <time>2025-10-18T08:09:47Z</time>
      </trkpt>
      <trkpt lat="43.22622" lon="5.49083">
        <ele>334.9</ele>
        <time>2025-10-18T08:09:48Z</time>
      </trkpt>
      <trkpt lat="43.22622" lon="5.49082">
        <ele>335</ele>
        <time>2025-10-18T08:09:49Z</time>
      </trkpt>
      <trkpt lat="43.22621" lon="5.49082">
        <ele>335.1</ele>
        <time>2025-10-18T08:09:50Z</time>
      </trkpt>
      <trkpt lat="43.2262" lon="5.49082">
        <ele>335.2</ele>
        <time>2025-10-18T08:09:51Z</time>
      </trkpt>
      <trkpt lat="43.2262" lon="5.49081">
        <ele>335.2</ele>
        <time>2025-10-18T08:09:52Z</time>
      </trkpt>
      <trkpt lat="43.22619" lon="5.49081">
        <ele>335.2</ele>
        <time>2025-10-18T08:09:53Z</time>
      </trkpt>
      <trkpt lat="43.22618" lon="5.49081">
        <ele>335.3</ele>
        <time>2025-10-18T08:09:54Z</time>
      </trkpt>
      <trkpt lat="43.22617" lon="5.49081">
        <ele>335.4</ele>
        <time>2025-10-18T08:09:55Z</time>
      </trkpt>
      <trkpt lat="43.22617" lon="5.4908">
        <ele>335.6</ele>
        <time>2025-10-18T08:09:56Z</time>
      </trkpt>
      <trkpt lat="43.22616" lon="5.4908">
        <ele>335.6</ele>
        <time>2025-10-18T08:09:57Z</time>
      </trkpt>
      <trkpt lat="43.22616" lon="5.4908">
        <ele>335.7</ele>
        <time>2025-10-18T08:09:58Z</time>
      </trkpt>
      <trkpt lat="43.22614" lon="5.4908">
        <ele>335.7</ele>
        <time>2025-10-18T08:09:59Z</time>
      </trkpt>
      <trkpt lat="43.22614" lon="5.4908">
        <ele>335.8</ele>
        <time>2025-10-18T08:10:00Z</time>
      </trkpt>
      <trkpt lat="43.22613" lon="5.49079">
        <ele>335.9</ele>
        <time>2025-10-18T08:10:01Z</time>
      </trkpt>
      <trkpt lat="43.22612" lon="5.49079">
        <ele>336</ele>
        <time>2025-10-18T08:10:02Z</time>
      </trkpt>
      <trkpt lat="43.22611" lon="5.49079">
        <ele>336</ele>
        <time>2025-10-18T08:10:03Z</time>
      </trkpt>
      <trkpt lat="43.2261" lon="5.49078">
        <ele>336.1</ele>
        <time>2025-10-18T08:10:04Z</time>
      </trkpt>
      <trkpt lat="43.22609" lon="5.49078">
        <ele>336.2</ele>
        <time>2025-10-18T08:10:05Z</time>
      </trkpt>
      <trkpt lat="43.22608" lon="5.49077">
        <ele>336.2</ele>
        <time>2025-10-18T08:10:06Z</time>
      </trkpt>
      <trkpt lat="43.22607" lon="5.49077">
        <ele>336.3</ele>
        <time>2025-10-18T08:10:07Z</time>
      </trkpt>
      <trkpt lat="43.22606" lon="5.49076">
        <ele>336.3</ele>
        <time>2025-10-18T08:10:08Z</time>
      </trkpt>
      <trkpt lat="43.22606" lon="5.49075">
        <ele>336.3</ele>
        <time>2025-10-18T08:10:09Z</time>
      </trkpt>
      <trkpt lat="43.22605" lon="5.49074">
        <ele>336.4</ele>
        <time>2025-10-18T08:10:10Z</time>
      </trkpt>
      <trkpt lat="43.22605" lon="5.49073">
        <ele>336.5</ele>
        <time>2025-10-18T08:10:11Z</time>
      </trkpt>
      <trkpt lat="43.22605" lon="5.49073">
        <ele>336.5</ele>
        <time>2025-10-18T08:10:12Z</time>
      </trkpt>
      <trkpt lat="43.22604" lon="5.49072">
        <ele>336.7</ele>
        <time>2025-10-18T08:10:13Z</time>
      </trkpt>
      <trkpt lat="43.22603" lon="5.49072">
        <ele>336.8</ele>
        <time>2025-10-18T08:10:14Z</time>
      </trkpt>
      <trkpt lat="43.22603" lon="5.49071">
        <ele>336.7</ele>
        <time>2025-10-18T08:10:15Z</time>
      </trkpt>
      <trkpt lat="43.22603" lon="5.49071">
        <ele>336.8</ele>
        <time>2025-10-18T08:10:16Z</time>
      </trkpt>
      <trkpt lat="43.22603" lon="5.4907">
        <ele>336.8</ele>
        <time>2025-10-18T08:10:17Z</time>
      </trkpt>
      <trkpt lat="43.22604" lon="5.49069">
        <ele>336.9</ele>
        <time>2025-10-18T08:10:18Z</time>
      </trkpt>
      <trkpt lat="43.22604" lon="5.49069">
        <ele>337</ele>
        <time>2025-10-18T08:10:19Z</time>
      </trkpt>
      <trkpt lat="43.22603" lon="5.49068">
        <ele>337</ele>
        <time>2025-10-18T08:10:20Z</time>
      </trkpt>
      <trkpt lat="43.22603" lon="5.49068">
        <ele>337.1</ele>
        <time>2025-10-18T08:10:21Z</time>
      </trkpt>
      <trkpt lat="43.22603" lon="5.49068">
        <ele>337.1</ele>
        <time>2025-10-18T08:10:22Z</time>
      </trkpt>
      <trkpt lat="43.22603" lon="5.49068">
        <ele>337.1</ele>
        <time>2025-10-18T08:10:23Z</time>
      </trkpt>
      <trkpt lat="43.22603" lon="5.49068">
        <ele>337.1</ele>
        <time>2025-10-18T08:10:24Z</time>
      </trkpt>
      <trkpt lat="43.22603" lon="5.49067">
        <ele>337.1</ele>
        <time>2025-10-18T08:10:25Z</time>
      </trkpt>
      <trkpt lat="43.22603" lon="5.49067">
        <ele>337.1</ele>
        <time>2025-10-18T08:10:26Z</time>
      </trkpt>
      <trkpt lat="43.22604" lon="5.49067">
        <ele>337</ele>
        <time>2025-10-18T08:10:27Z</time>
      </trkpt>
      <trkpt lat="43.22604" lon="5.49066">
        <ele>337</ele>
        <time>2025-10-18T08:10:28Z</time>
      </trkpt>
      <trkpt lat="43.22604" lon="5.49066">
        <ele>337</ele>
        <time>2025-10-18T08:10:29Z</time>
      </trkpt>
      <trkpt lat="43.22604" lon="5.49066">
        <ele>337</ele>
        <time>2025-10-18T08:10:30Z</time>
      </trkpt>
      <trkpt lat="43.22604" lon="5.49066">
        <ele>337</ele>
        <time>2025-10-18T08:10:31Z</time>
      </trkpt>
      <trkpt lat="43.22604" lon="5.49066">
        <ele>337</ele>
        <time>2025-10-18T08:10:32Z</time>
      </trkpt>
      <trkpt lat="43.22604" lon="5.49066">
        <ele>337.1</ele>
        <time>2025-10-18T08:10:33Z</time>
      </trkpt>
      <trkpt lat="43.22604" lon="5.49066">
        <ele>337.1</ele>
        <time>2025-10-18T08:10:34Z</time>
      </trkpt>
      <trkpt lat="43.22604" lon="5.49066">
        <ele>337.1</ele>
        <time>2025-10-18T08:10:35Z</time>
      </trkpt>
      <trkpt lat="43.22604" lon="5.49066">
        <ele>337.1</ele>
        <time>2025-10-18T08:10:36Z</time>
      </trkpt>
      <trkpt lat="43.22604" lon="5.49066">
        <ele>337.1</ele>
        <time>2025-10-18T08:10:37Z</time>
      </trkpt>
      <trkpt lat="43.22604" lon="5.49066">
        <ele>337.1</ele>
        <time>2025-10-18T08:10:38Z</time>
      </trkpt>
      <trkpt lat="43.22604" lon="5.49066">
        <ele>337.1</ele>
        <time>2025-10-18T08:10:39Z</time>
      </trkpt>
      <trkpt lat="43.22604" lon="5.49065">
        <ele>337.1</ele>
        <time>2025-10-18T08:10:40Z</time>
      </trkpt>
      <trkpt lat="43.22604" lon="5.49065">
        <ele>337.1</ele>
        <time>2025-10-18T08:10:41Z</time>
      </trkpt>
      <trkpt lat="43.22604" lon="5.49065">
        <ele>337</ele>
        <time>2025-10-18T08:10:42Z</time>
      </trkpt>
      <trkpt lat="43.22604" lon="5.49065">
        <ele>337</ele>
        <time>2025-10-18T08:10:43Z</time>
      </trkpt>
      <trkpt lat="43.22604" lon="5.49065">
        <ele>337</ele>
        <time>2025-10-18T08:10:44Z</time>
      </trkpt>
      <trkpt lat="43.22604" lon="5.49064">
        <ele>337</ele>
        <time>2025-10-18T08:10:45Z</time>
      </trkpt>
      <trkpt lat="43.22604" lon="5.49064">
        <ele>337.1</ele>
        <time>2025-10-18T08:10:46Z</time>
      </trkpt>
      <trkpt lat="43.22603" lon="5.49063">
        <ele>337.2</ele>
        <time>2025-10-18T08:10:47Z</time>
      </trkpt>
      <trkpt lat="43.22603" lon="5.49063">
        <ele>337.1</ele>
        <time>2025-10-18T08:10:48Z</time>
      </trkpt>
      <trkpt lat="43.22602" lon="5.49063">
        <ele>337.1</ele>
        <time>2025-10-18T08:10:49Z</time>
      </trkpt>
      <trkpt lat="43.22602" lon="5.49062">
        <ele>337.2</ele>
        <time>2025-10-18T08:10:50Z</time>
      </trkpt>
      <trkpt lat="43.22602" lon="5.49062">
        <ele>337.2</ele>
        <time>2025-10-18T08:10:51Z</time>
      </trkpt>
      <trkpt lat="43.22602" lon="5.49062">
        <ele>337.2</ele>
        <time>2025-10-18T08:10:52Z</time>
      </trkpt>
      <trkpt lat="43.22602" lon="5.49062">
        <ele>337.3</ele>
        <time>2025-10-18T08:10:53Z</time>
      </trkpt>
      <trkpt lat="43.22602" lon="5.49062">
        <ele>337.3</ele>
        <time>2025-10-18T08:10:54Z</time>
      </trkpt>
      <trkpt lat="43.22602" lon="5.49061">
        <ele>337.3</ele>
        <time>2025-10-18T08:10:55Z</time>
      </trkpt>
      <trkpt lat="43.22602" lon="5.49061">
        <ele>337.2</ele>
        <time>2025-10-18T08:10:56Z</time>
      </trkpt>
      <trkpt lat="43.22601" lon="5.49061">
        <ele>337.3</ele>
        <time>2025-10-18T08:10:57Z</time>
      </trkpt>
      <trkpt lat="43.22601" lon="5.4906">
        <ele>337.2</ele>
        <time>2025-10-18T08:10:58Z</time>
      </trkpt>
      <trkpt lat="43.226" lon="5.4906">
        <ele>337.2</ele>
        <time>2025-10-18T08:10:59Z</time>
      </trkpt>
      <trkpt lat="43.226" lon="5.49059">
        <ele>337.2</ele>
        <time>2025-10-18T08:11:00Z</time>
      </trkpt>
      <trkpt lat="43.22599" lon="5.49058">
        <ele>337.2</ele>
        <time>2025-10-18T08:11:01Z</time>
      </trkpt>
      <trkpt lat="43.22599" lon="5.49058">
        <ele>337.3</ele>
        <time>2025-10-18T08:11:02Z</time>
      </trkpt>
      <trkpt lat="43.22598" lon="5.49058">
        <ele>337.3</ele>
        <time>2025-10-18T08:11:03Z</time>
      </trkpt>
      <trkpt lat="43.22598" lon="5.49057">
        <ele>337.3</ele>
        <time>2025-10-18T08:11:04Z</time>
      </trkpt>
      <trkpt lat="43.22597" lon="5.49057">
        <ele>337.5</ele>
        <time>2025-10-18T08:11:05Z</time>
      </trkpt>
      <trkpt lat="43.22597" lon="5.49056">
        <ele>337.6</ele>
        <time>2025-10-18T08:11:06Z</time>
      </trkpt>
      <trkpt lat="43.22597" lon="5.49055">
        <ele>337.7</ele>
        <time>2025-10-18T08:11:07Z</time>
      </trkpt>
      <trkpt lat="43.22596" lon="5.49054">
        <ele>337.7</ele>
        <time>2025-10-18T08:11:08Z</time>
      </trkpt>
      <trkpt lat="43.22596" lon="5.49054">
        <ele>337.8</ele>
        <time>2025-10-18T08:11:09Z</time>
      </trkpt>
      <trkpt lat="43.22596" lon="5.49053">
        <ele>337.9</ele>
        <time>2025-10-18T08:11:10Z</time>
      </trkpt>
      <trkpt lat="43.22595" lon="5.49052">
        <ele>337.9</ele>
        <time>2025-10-18T08:11:11Z</time>
      </trkpt>
      <trkpt lat="43.22595" lon="5.49051">
        <ele>338</ele>
        <time>2025-10-18T08:11:12Z</time>
      </trkpt>
      <trkpt lat="43.22594" lon="5.49051">
        <ele>338.1</ele>
        <time>2025-10-18T08:11:13Z</time>
      </trkpt>
      <trkpt lat="43.22594" lon="5.49051">
        <ele>338.1</ele>
        <time>2025-10-18T08:11:14Z</time>
      </trkpt>
      <trkpt lat="43.22594" lon="5.4905">
        <ele>338.2</ele>
        <time>2025-10-18T08:11:15Z</time>
      </trkpt>
      <trkpt lat="43.22593" lon="5.4905">
        <ele>338.5</ele>
        <time>2025-10-18T08:11:16Z</time>
      </trkpt>
      <trkpt lat="43.22592" lon="5.4905">
        <ele>338.6</ele>
        <time>2025-10-18T08:11:17Z</time>
      </trkpt>
      <trkpt lat="43.22591" lon="5.49049">
        <ele>338.7</ele>
        <time>2025-10-18T08:11:18Z</time>
      </trkpt>
      <trkpt lat="43.22591" lon="5.49048">
        <ele>338.9</ele>
        <time>2025-10-18T08:11:19Z</time>
      </trkpt>
      <trkpt lat="43.2259" lon="5.49048">
        <ele>339</ele>
        <time>2025-10-18T08:11:20Z</time>
      </trkpt>
      <trkpt lat="43.2259" lon="5.49048">
        <ele>339.1</ele>
        <time>2025-10-18T08:11:21Z</time>
      </trkpt>
      <trkpt lat="43.22589" lon="5.49047">
        <ele>339.2</ele>
        <time>2025-10-18T08:11:22Z</time>
      </trkpt>
      <trkpt lat="43.22588" lon="5.49046">
        <ele>339.2</ele>
        <time>2025-10-18T08:11:23Z</time>
      </trkpt>
      <trkpt lat="43.22588" lon="5.49045">
        <ele>339.1</ele>
        <time>2025-10-18T08:11:24Z</time>
      </trkpt>
      <trkpt lat="43.22587" lon="5.49045">
        <ele>339.3</ele>
        <time>2025-10-18T08:11:25Z</time>
      </trkpt>
      <trkpt lat="43.22587" lon="5.49045">
        <ele>339.3</ele>
        <time>2025-10-18T08:11:26Z</time>
      </trkpt>
      <trkpt lat="43.22586" lon="5.49044">
        <ele>339.4</ele>
        <time>2025-10-18T08:11:27Z</time>
      </trkpt>
      <trkpt lat="43.22586" lon="5.49043">
        <ele>339.4</ele>
        <time>2025-10-18T08:11:28Z</time>
      </trkpt>
      <trkpt lat="43.22585" lon="5.49042">
        <ele>339.5</ele>
        <time>2025-10-18T08:11:29Z</time>
      </trkpt>
      <trkpt lat="43.22585" lon="5.49041">
        <ele>339.6</ele>
        <time>2025-10-18T08:11:30Z</time>
      </trkpt>
      <trkpt lat="43.22585" lon="5.4904">
        <ele>339.7</ele>
        <time>2025-10-18T08:11:31Z</time>
      </trkpt>
      <trkpt lat="43.22585" lon="5.49039">
        <ele>339.8</ele>
        <time>2025-10-18T08:11:32Z</time>
      </trkpt>
      <trkpt lat="43.22584" lon="5.49039">
        <ele>339.9</ele>
        <time>2025-10-18T08:11:33Z</time>
      </trkpt>
      <trkpt lat="43.22583" lon="5.49038">
        <ele>340</ele>
        <time>2025-10-18T08:11:34Z</time>
      </trkpt>
      <trkpt lat="43.22583" lon="5.49037">
        <ele>340.2</ele>
        <time>2025-10-18T08:11:35Z</time>
      </trkpt>
      <trkpt lat="43.22582" lon="5.49037">
        <ele>340.3</ele>
        <time>2025-10-18T08:11:36Z</time>
      </trkpt>
      <trkpt lat="43.22581" lon="5.49036">
        <ele>340.4</ele>
        <time>2025-10-18T08:11:37Z</time>
      </trkpt>
      <trkpt lat="43.22581" lon="5.49036">
        <ele>340.5</ele>
        <time>2025-10-18T08:11:38Z</time>
      </trkpt>
      <trkpt lat="43.2258" lon="5.49035">
        <ele>340.5</ele>
        <time>2025-10-18T08:11:39Z</time>
      </trkpt>
      <trkpt lat="43.2258" lon="5.49034">
        <ele>340.7</ele>
        <time>2025-10-18T08:11:40Z</time>
      </trkpt>
      <trkpt lat="43.22579" lon="5.49033">
        <ele>340.8</ele>
        <time>2025-10-18T08:11:41Z</time>
      </trkpt>
      <trkpt lat="43.22579" lon="5.49033">
        <ele>340.9</ele>
        <time>2025-10-18T08:11:42Z</time>
      </trkpt>
      <trkpt lat="43.22579" lon="5.49033">
        <ele>341</ele>
        <time>2025-10-18T08:11:43Z</time>
      </trkpt>
      <trkpt lat="43.22579" lon="5.49031">
        <ele>341</ele>
        <time>2025-10-18T08:11:44Z</time>
      </trkpt>
      <trkpt lat="43.22579" lon="5.4903">
        <ele>341.1</ele>
        <time>2025-10-18T08:11:45Z</time>
      </trkpt>
      <trkpt lat="43.22578" lon="5.4903">
        <ele>341.3</ele>
        <time>2025-10-18T08:11:46Z</time>
      </trkpt>
      <trkpt lat="43.22578" lon="5.49029">
        <ele>341.5</ele>
        <time>2025-10-18T08:11:47Z</time>
      </trkpt>
      <trkpt lat="43.22578" lon="5.49028">
        <ele>341.6</ele>
        <time>2025-10-18T08:11:48Z</time>
      </trkpt>
      <trkpt lat="43.22578" lon="5.49027">
        <ele>341.6</ele>
        <time>2025-10-18T08:11:49Z</time>
      </trkpt>
      <trkpt lat="43.22577" lon="5.49026">
        <ele>341.8</ele>
        <time>2025-10-18T08:11:50Z</time>
      </trkpt>
      <trkpt lat="43.22577" lon="5.49024">
        <ele>341.7</ele>
        <time>2025-10-18T08:11:51Z</time>
      </trkpt>
      <trkpt lat="43.22576" lon="5.49024">
        <ele>341.8</ele>
        <time>2025-10-18T08:11:52Z</time>
      </trkpt>
      <trkpt lat="43.22576" lon="5.49023">
        <ele>341.8</ele>
        <time>2025-10-18T08:11:53Z</time>
      </trkpt>
      <trkpt lat="43.22575" lon="5.49022">
        <ele>341.8</ele>
        <time>2025-10-18T08:11:54Z</time>
      </trkpt>
      <trkpt lat="43.22575" lon="5.49021">
        <ele>341.9</ele>
        <time>2025-10-18T08:11:55Z</time>
      </trkpt>
      <trkpt lat="43.22574" lon="5.4902">
        <ele>342</ele>
        <time>2025-10-18T08:11:56Z</time>
      </trkpt>
      <trkpt lat="43.22573" lon="5.49019">
        <ele>342.1</ele>
        <time>2025-10-18T08:11:57Z</time>
      </trkpt>
      <trkpt lat="43.22573" lon="5.49018">
        <ele>342</ele>
        <time>2025-10-18T08:11:58Z</time>
      </trkpt>
      <trkpt lat="43.22572" lon="5.49017">
        <ele>342</ele>
        <time>2025-10-18T08:11:59Z</time>
      </trkpt>
      <trkpt lat="43.22572" lon="5.49017">
        <ele>342</ele>
        <time>2025-10-18T08:12:00Z</time>
      </trkpt>
      <trkpt lat="43.22571" lon="5.49016">
        <ele>342</ele>
        <time>2025-10-18T08:12:01Z</time>
      </trkpt>
      <trkpt lat="43.22571" lon="5.49015">
        <ele>341.8</ele>
        <time>2025-10-18T08:12:02Z</time>
      </trkpt>
      <trkpt lat="43.2257" lon="5.49014">
        <ele>341.7</ele>
        <time>2025-10-18T08:12:03Z</time>
      </trkpt>
      <trkpt lat="43.22569" lon="5.49013">
        <ele>341.6</ele>
        <time>2025-10-18T08:12:04Z</time>
      </trkpt>
      <trkpt lat="43.22569" lon="5.49012">
        <ele>341.4</ele>
        <time>2025-10-18T08:12:05Z</time>
      </trkpt>
      <trkpt lat="43.22569" lon="5.49011">
        <ele>341.3</ele>
        <time>2025-10-18T08:12:06Z</time>
      </trkpt>
      <trkpt lat="43.22568" lon="5.4901">
        <ele>341.3</ele>
        <time>2025-10-18T08:12:07Z</time>
      </trkpt>
      <trkpt lat="43.22568" lon="5.49008">
        <ele>341.3</ele>
        <time>2025-10-18T08:12:08Z</time>
      </trkpt>
      <trkpt lat="43.22568" lon="5.49007">
        <ele>341.2</ele>
        <time>2025-10-18T08:12:09Z</time>
      </trkpt>
      <trkpt lat="43.22568" lon="5.49006">
        <ele>341.2</ele>
        <time>2025-10-18T08:12:10Z</time>
      </trkpt>
      <trkpt lat="43.22568" lon="5.49005">
        <ele>341.2</ele>
        <time>2025-10-18T08:12:11Z</time>
      </trkpt>
      <trkpt lat="43.22568" lon="5.49003">
        <ele>341.2</ele>
        <time>2025-10-18T08:12:12Z</time>
      </trkpt>
      <trkpt lat="43.22568" lon="5.49002">
        <ele>341.2</ele>
        <time>2025-10-18T08:12:13Z</time>
      </trkpt>
      <trkpt lat="43.22567" lon="5.49001">
        <ele>341.2</ele>
        <time>2025-10-18T08:12:14Z</time>
      </trkpt>
      <trkpt lat="43.22567" lon="5.49">
        <ele>341.2</ele>
        <time>2025-10-18T08:12:15Z</time>
      </trkpt>
      <trkpt lat="43.22568" lon="5.48998">
        <ele>341.3</ele>
        <time>2025-10-18T08:12:16Z</time>
      </trkpt>
      <trkpt lat="43.22568" lon="5.48997">
        <ele>341.2</ele>
        <time>2025-10-18T08:12:17Z</time>
      </trkpt>
      <trkpt lat="43.22568" lon="5.48996">
        <ele>341.1</ele>
        <time>2025-10-18T08:12:18Z</time>
      </trkpt>
      <trkpt lat="43.22569" lon="5.48994">
        <ele>341</ele>
        <time>2025-10-18T08:12:19Z</time>
      </trkpt>
      <trkpt lat="43.22569" lon="5.48993">
        <ele>341</ele>
        <time>2025-10-18T08:12:20Z</time>
      </trkpt>
      <trkpt lat="43.22569" lon="5.48992">
        <ele>341</ele>
        <time>2025-10-18T08:12:21Z</time>
      </trkpt>
      <trkpt lat="43.22569" lon="5.4899">
        <ele>341.2</ele>
        <time>2025-10-18T08:12:22Z</time>
      </trkpt>
      <trkpt lat="43.22569" lon="5.48989">
        <ele>341.1</ele>
        <time>2025-10-18T08:12:23Z</time>
      </trkpt>
      <trkpt lat="43.22569" lon="5.48987">
        <ele>341.1</ele>
        <time>2025-10-18T08:12:24Z</time>
      </trkpt>
      <trkpt lat="43.22569" lon="5.48986">
        <ele>341.1</ele>
        <time>2025-10-18T08:12:25Z</time>
      </trkpt>
      <trkpt lat="43.2257" lon="5.48985">
        <ele>341.1</ele>
        <time>2025-10-18T08:12:26Z</time>
      </trkpt>
      <trkpt lat="43.2257" lon="5.48984">
        <ele>341</ele>
        <time>2025-10-18T08:12:27Z</time>
      </trkpt>
      <trkpt lat="43.22571" lon="5.48983">
        <ele>340.9</ele>
        <time>2025-10-18T08:12:28Z</time>
      </trkpt>
      <trkpt lat="43.22571" lon="5.48982">
        <ele>340.8</ele>
        <time>2025-10-18T08:12:29Z</time>
      </trkpt>
      <trkpt lat="43.22571" lon="5.4898">
        <ele>340.7</ele>
        <time>2025-10-18T08:12:30Z</time>
      </trkpt>
      <trkpt lat="43.22571" lon="5.48979">
        <ele>340.5</ele>
        <time>2025-10-18T08:12:31Z</time>
      </trkpt>
      <trkpt lat="43.22572" lon="5.48978">
        <ele>340.3</ele>
        <time>2025-10-18T08:12:32Z</time>
      </trkpt>
      <trkpt lat="43.22572" lon="5.48976">
        <ele>340.1</ele>
        <time>2025-10-18T08:12:33Z</time>
      </trkpt>
      <trkpt lat="43.22572" lon="5.48975">
        <ele>339.9</ele>
        <time>2025-10-18T08:12:34Z</time>
      </trkpt>
      <trkpt lat="43.22572" lon="5.48973">
        <ele>339.7</ele>
        <time>2025-10-18T08:12:35Z</time>
      </trkpt>
      <trkpt lat="43.22573" lon="5.48973">
        <ele>339.6</ele>
        <time>2025-10-18T08:12:36Z</time>
      </trkpt>
      <trkpt lat="43.22572" lon="5.48972">
        <ele>339.5</ele>
        <time>2025-10-18T08:12:37Z</time>
      </trkpt>
      <trkpt lat="43.22573" lon="5.48972">
        <ele>339.4</ele>
        <time>2025-10-18T08:12:38Z</time>
      </trkpt>
      <trkpt lat="43.22573" lon="5.48972">
        <ele>339.3</ele>
        <time>2025-10-18T08:12:39Z</time>
      </trkpt>
      <trkpt lat="43.22573" lon="5.48971">
        <ele>339.2</ele>
        <time>2025-10-18T08:12:40Z</time>
      </trkpt>
      <trkpt lat="43.22573" lon="5.48971">
        <ele>339.1</ele>
        <time>2025-10-18T08:12:41Z</time>
      </trkpt>
      <trkpt lat="43.22573" lon="5.48971">
        <ele>339.1</ele>
        <time>2025-10-18T08:12:42Z</time>
      </trkpt>
      <trkpt lat="43.22573" lon="5.48971">
        <ele>339</ele>
        <time>2025-10-18T08:12:43Z</time>
      </trkpt>
      <trkpt lat="43.22573" lon="5.48971">
        <ele>339.1</ele>
        <time>2025-10-18T08:12:44Z</time>
      </trkpt>
      <trkpt lat="43.22573" lon="5.48971">
        <ele>339.1</ele>
        <time>2025-10-18T08:12:45Z</time>
      </trkpt>
      <trkpt lat="43.22573" lon="5.48971">
        <ele>339</ele>
        <time>2025-10-18T08:12:46Z</time>
      </trkpt>
      <trkpt lat="43.22573" lon="5.48971">
        <ele>339</ele>
        <time>2025-10-18T08:12:47Z</time>
      </trkpt>
      <trkpt lat="43.22573" lon="5.48971">
        <ele>338.9</ele>
        <time>2025-10-18T08:12:48Z</time>
      </trkpt>
      <trkpt lat="43.22573" lon="5.48971">
        <ele>338.8</ele>
        <time>2025-10-18T08:12:49Z</time>
      </trkpt>
      <trkpt lat="43.22573" lon="5.48971">
        <ele>338.8</ele>
        <time>2025-10-18T08:12:50Z</time>
      </trkpt>
      <trkpt lat="43.22573" lon="5.48971">
        <ele>338.8</ele>
        <time>2025-10-18T08:12:51Z</time>
      </trkpt>
      <trkpt lat="43.22573" lon="5.48971">
        <ele>338.8</ele>
        <time>2025-10-18T08:12:52Z</time>
      </trkpt>
      <trkpt lat="43.22574" lon="5.48971">
        <ele>338.8</ele>
        <time>2025-10-18T08:12:53Z</time>
      </trkpt>
      <trkpt lat="43.22574" lon="5.48971">
        <ele>338.8</ele>
        <time>2025-10-18T08:12:54Z</time>
      </trkpt>
      <trkpt lat="43.22574" lon="5.48971">
        <ele>338.8</ele>
        <time>2025-10-18T08:12:55Z</time>
      </trkpt>
      <trkpt lat="43.22574" lon="5.48971">
        <ele>338.8</ele>
        <time>2025-10-18T08:12:56Z</time>
      </trkpt>
      <trkpt lat="43.22574" lon="5.48971">
        <ele>338.7</ele>
        <time>2025-10-18T08:12:57Z</time>
      </trkpt>
      <trkpt lat="43.22574" lon="5.48971">
        <ele>338.7</ele>
        <time>2025-10-18T08:12:58Z</time>
      </trkpt>
      <trkpt lat="43.22574" lon="5.48971">
        <ele>338.6</ele>
        <time>2025-10-18T08:12:59Z</time>
      </trkpt>
      <trkpt lat="43.22574" lon="5.4897">
        <ele>338.6</ele>
        <time>2025-10-18T08:13:00Z</time>
      </trkpt>
      <trkpt lat="43.22575" lon="5.4897">
        <ele>338.5</ele>
        <time>2025-10-18T08:13:01Z</time>
      </trkpt>
      <trkpt lat="43.22576" lon="5.48968">
        <ele>338.4</ele>
        <time>2025-10-18T08:13:02Z</time>
      </trkpt>
      <trkpt lat="43.22576" lon="5.48967">
        <ele>338.4</ele>
        <time>2025-10-18T08:13:03Z</time>
      </trkpt>
      <trkpt lat="43.22576" lon="5.48966">
        <ele>338.4</ele>
        <time>2025-10-18T08:13:04Z</time>
      </trkpt>
      <trkpt lat="43.22577" lon="5.48965">
        <ele>338.4</ele>
        <time>2025-10-18T08:13:05Z</time>
      </trkpt>
      <trkpt lat="43.22577" lon="5.48964">
        <ele>338.4</ele>
        <time>2025-10-18T08:13:06Z</time>
      </trkpt>
      <trkpt lat="43.22577" lon="5.48962">
        <ele>338.4</ele>
        <time>2025-10-18T08:13:07Z</time>
      </trkpt>
      <trkpt lat="43.22578" lon="5.48961">
        <ele>338.5</ele>
        <time>2025-10-18T08:13:08Z</time>
      </trkpt>
      <trkpt lat="43.22578" lon="5.4896">
        <ele>338.4</ele>
        <time>2025-10-18T08:13:09Z</time>
      </trkpt>
      <trkpt lat="43.22579" lon="5.48958">
        <ele>338.4</ele>
        <time>2025-10-18T08:13:10Z</time>
      </trkpt>
      <trkpt lat="43.22578" lon="5.48957">
        <ele>338.4</ele>
        <time>2025-10-18T08:13:11Z</time>
      </trkpt>
      <trkpt lat="43.22578" lon="5.48955">
        <ele>338.3</ele>
        <time>2025-10-18T08:13:12Z</time>
      </trkpt>
      <trkpt lat="43.22579" lon="5.48953">
        <ele>338.3</ele>
        <time>2025-10-18T08:13:13Z</time>
      </trkpt>
      <trkpt lat="43.22578" lon="5.48952">
        <ele>338.2</ele>
        <time>2025-10-18T08:13:14Z</time>
      </trkpt>
      <trkpt lat="43.22578" lon="5.4895">
        <ele>338.1</ele>
        <time>2025-10-18T08:13:15Z</time>
      </trkpt>
      <trkpt lat="43.22578" lon="5.48949">
        <ele>338.1</ele>
        <time>2025-10-18T08:13:16Z</time>
      </trkpt>
      <trkpt lat="43.22578" lon="5.48947">
        <ele>337.9</ele>
        <time>2025-10-18T08:13:17Z</time>
      </trkpt>
      <trkpt lat="43.22578" lon="5.48946">
        <ele>337.8</ele>
        <time>2025-10-18T08:13:18Z</time>
      </trkpt>
      <trkpt lat="43.22578" lon="5.48944">
        <ele>337.7</ele>
        <time>2025-10-18T08:13:19Z</time>
      </trkpt>
      <trkpt lat="43.22578" lon="5.48943">
        <ele>337.6</ele>
        <time>2025-10-18T08:13:20Z</time>
      </trkpt>
      <trkpt lat="43.22578" lon="5.48941">
        <ele>337.5</ele>
        <time>2025-10-18T08:13:21Z</time>
      </trkpt>
      <trkpt lat="43.22578" lon="5.4894">
        <ele>337.4</ele>
        <time>2025-10-18T08:13:22Z</time>
      </trkpt>
      <trkpt lat="43.22578" lon="5.48938">
        <ele>337.3</ele>
        <time>2025-10-18T08:13:23Z</time>
      </trkpt>
      <trkpt lat="43.22578" lon="5.48937">
        <ele>337.1</ele>
        <time>2025-10-18T08:13:24Z</time>
      </trkpt>
      <trkpt lat="43.22578" lon="5.48936">
        <ele>337</ele>
        <time>2025-10-18T08:13:25Z</time>
      </trkpt>
      <trkpt lat="43.22577" lon="5.48934">
        <ele>336.9</ele>
        <time>2025-10-18T08:13:26Z</time>
      </trkpt>
      <trkpt lat="43.22578" lon="5.48933">
        <ele>336.8</ele>
        <time>2025-10-18T08:13:27Z</time>
      </trkpt>
      <trkpt lat="43.22578" lon="5.48932">
        <ele>336.6</ele>
        <time>2025-10-18T08:13:28Z</time>
      </trkpt>
      <trkpt lat="43.22578" lon="5.4893">
        <ele>336.4</ele>
        <time>2025-10-18T08:13:29Z</time>
      </trkpt>
      <trkpt lat="43.22578" lon="5.48929">
        <ele>336.3</ele>
        <time>2025-10-18T08:13:30Z</time>
      </trkpt>
      <trkpt lat="43.22578" lon="5.48928">
        <ele>336.1</ele>
        <time>2025-10-18T08:13:31Z</time>
      </trkpt>
      <trkpt lat="43.22578" lon="5.48926">
        <ele>336</ele>
        <time>2025-10-18T08:13:32Z</time>
      </trkpt>
      <trkpt lat="43.22578" lon="5.48925">
        <ele>335.8</ele>
        <time>2025-10-18T08:13:33Z</time>
      </trkpt>
      <trkpt lat="43.22578" lon="5.48924">
        <ele>335.7</ele>
        <time>2025-10-18T08:13:34Z</time>
      </trkpt>
      <trkpt lat="43.22577" lon="5.48922">
        <ele>335.5</ele>
        <time>2025-10-18T08:13:35Z</time>
      </trkpt>
      <trkpt lat="43.22577" lon="5.48921">
        <ele>335.3</ele>
        <time>2025-10-18T08:13:36Z</time>
      </trkpt>
      <trkpt lat="43.22576" lon="5.4892">
        <ele>335.2</ele>
        <time>2025-10-18T08:13:37Z</time>
      </trkpt>
      <trkpt lat="43.22576" lon="5.48918">
        <ele>335.1</ele>
        <time>2025-10-18T08:13:38Z</time>
      </trkpt>
      <trkpt lat="43.22575" lon="5.48917">
        <ele>334.8</ele>
        <time>2025-10-18T08:13:39Z</time>
      </trkpt>
      <trkpt lat="43.22574" lon="5.48916">
        <ele>334.7</ele>
        <time>2025-10-18T08:13:40Z</time>
      </trkpt>
      <trkpt lat="43.22573" lon="5.48916">
        <ele>334.4</ele>
        <time>2025-10-18T08:13:41Z</time>
      </trkpt>
      <trkpt lat="43.22572" lon="5.48915">
        <ele>334.2</ele>
        <time>2025-10-18T08:13:42Z</time>
      </trkpt>
      <trkpt lat="43.22572" lon="5.48915">
        <ele>334</ele>
        <time>2025-10-18T08:13:43Z</time>
      </trkpt>
      <trkpt lat="43.2257" lon="5.48915">
        <ele>333.8</ele>
        <time>2025-10-18T08:13:44Z</time>
      </trkpt>
      <trkpt lat="43.22569" lon="5.48915">
        <ele>333.8</ele>
        <time>2025-10-18T08:13:45Z</time>
      </trkpt>
      <trkpt lat="43.22568" lon="5.48915">
        <ele>333.9</ele>
        <time>2025-10-18T08:13:46Z</time>
      </trkpt>
      <trkpt lat="43.22567" lon="5.48915">
        <ele>333.9</ele>
        <time>2025-10-18T08:13:47Z</time>
      </trkpt>
      <trkpt lat="43.22566" lon="5.48915">
        <ele>333.8</ele>
        <time>2025-10-18T08:13:48Z</time>
      </trkpt>
      <trkpt lat="43.22565" lon="5.48915">
        <ele>333.7</ele>
        <time>2025-10-18T08:13:49Z</time>
      </trkpt>
      <trkpt lat="43.22565" lon="5.48916">
        <ele>333.6</ele>
        <time>2025-10-18T08:13:50Z</time>
      </trkpt>
      <trkpt lat="43.22564" lon="5.48916">
        <ele>333.5</ele>
        <time>2025-10-18T08:13:51Z</time>
      </trkpt>
      <trkpt lat="43.22562" lon="5.48917">
        <ele>333.4</ele>
        <time>2025-10-18T08:13:52Z</time>
      </trkpt>
      <trkpt lat="43.22562" lon="5.48917">
        <ele>333.2</ele>
        <time>2025-10-18T08:13:53Z</time>
      </trkpt>
      <trkpt lat="43.22561" lon="5.48917">
        <ele>333.2</ele>
        <time>2025-10-18T08:13:54Z</time>
      </trkpt>
      <trkpt lat="43.2256" lon="5.48917">
        <ele>333.1</ele>
        <time>2025-10-18T08:13:55Z</time>
      </trkpt>
      <trkpt lat="43.22559" lon="5.48917">
        <ele>333</ele>
        <time>2025-10-18T08:13:56Z</time>
      </trkpt>
      <trkpt lat="43.22559" lon="5.48917">
        <ele>333</ele>
        <time>2025-10-18T08:13:57Z</time>
      </trkpt>
      <trkpt lat="43.22558" lon="5.48917">
        <ele>332.9</ele>
        <time>2025-10-18T08:13:58Z</time>
      </trkpt>
      <trkpt lat="43.22558" lon="5.48917">
        <ele>332.9</ele>
        <time>2025-10-18T08:13:59Z</time>
      </trkpt>
      <trkpt lat="43.22557" lon="5.48917">
        <ele>333</ele>
        <time>2025-10-18T08:14:00Z</time>
      </trkpt>
      <trkpt lat="43.22556" lon="5.48917">
        <ele>333.1</ele>
        <time>2025-10-18T08:14:01Z</time>
      </trkpt>
      <trkpt lat="43.22555" lon="5.48917">
        <ele>333.1</ele>
        <time>2025-10-18T08:14:02Z</time>
      </trkpt>
      <trkpt lat="43.22555" lon="5.48917">
        <ele>333.2</ele>
        <time>2025-10-18T08:14:03Z</time>
      </trkpt>
      <trkpt lat="43.22554" lon="5.48916">
        <ele>333.2</ele>
        <time>2025-10-18T08:14:04Z</time>
      </trkpt>
      <trkpt lat="43.22554" lon="5.48915">
        <ele>333.3</ele>
        <time>2025-10-18T08:14:05Z</time>
      </trkpt>
      <trkpt lat="43.22554" lon="5.48914">
        <ele>333.3</ele>
        <time>2025-10-18T08:14:06Z</time>
      </trkpt>
      <trkpt lat="43.22553" lon="5.48914">
        <ele>333.6</ele>
        <time>2025-10-18T08:14:07Z</time>
      </trkpt>
      <trkpt lat="43.22553" lon="5.48913">
        <ele>333.8</ele>
        <time>2025-10-18T08:14:08Z</time>
      </trkpt>
      <trkpt lat="43.22552" lon="5.48912">
        <ele>334</ele>
        <time>2025-10-18T08:14:09Z</time>
      </trkpt>
      <trkpt lat="43.22552" lon="5.48911">
        <ele>334.2</ele>
        <time>2025-10-18T08:14:10Z</time>
      </trkpt>
      <trkpt lat="43.22551" lon="5.48911">
        <ele>334.3</ele>
        <time>2025-10-18T08:14:11Z</time>
      </trkpt>
      <trkpt lat="43.22551" lon="5.4891">
        <ele>334.4</ele>
        <time>2025-10-18T08:14:12Z</time>
      </trkpt>
      <trkpt lat="43.2255" lon="5.48909">
        <ele>334.6</ele>
        <time>2025-10-18T08:14:13Z</time>
      </trkpt>
      <trkpt lat="43.2255" lon="5.48908">
        <ele>334.7</ele>
        <time>2025-10-18T08:14:14Z</time>
      </trkpt>
      <trkpt lat="43.2255" lon="5.48907">
        <ele>334.8</ele>
        <time>2025-10-18T08:14:15Z</time>
      </trkpt>
      <trkpt lat="43.2255" lon="5.48906">
        <ele>334.9</ele>
        <time>2025-10-18T08:14:16Z</time>
      </trkpt>
      <trkpt lat="43.22549" lon="5.48905">
        <ele>335</ele>
        <time>2025-10-18T08:14:17Z</time>
      </trkpt>
      <trkpt lat="43.22549" lon="5.48904">
        <ele>335.1</ele>
        <time>2025-10-18T08:14:18Z</time>
      </trkpt>
      <trkpt lat="43.22549" lon="5.48904">
        <ele>335.2</ele>
        <time>2025-10-18T08:14:19Z</time>
      </trkpt>
      <trkpt lat="43.22549" lon="5.48903">
        <ele>335.3</ele>
        <time>2025-10-18T08:14:20Z</time>
      </trkpt>
      <trkpt lat="43.22549" lon="5.48902">
        <ele>335.4</ele>
        <time>2025-10-18T08:14:21Z</time>
      </trkpt>
      <trkpt lat="43.22549" lon="5.48901">
        <ele>335.5</ele>
        <time>2025-10-18T08:14:22Z</time>
      </trkpt>
      <trkpt lat="43.22549" lon="5.489">
        <ele>335.6</ele>
        <time>2025-10-18T08:14:23Z</time>
      </trkpt>
      <trkpt lat="43.22549" lon="5.48899">
        <ele>335.7</ele>
        <time>2025-10-18T08:14:24Z</time>
      </trkpt>
      <trkpt lat="43.22549" lon="5.48898">
        <ele>335.9</ele>
        <time>2025-10-18T08:14:25Z</time>
      </trkpt>
      <trkpt lat="43.22548" lon="5.48897">
        <ele>336</ele>
        <time>2025-10-18T08:14:26Z</time>
      </trkpt>
      <trkpt lat="43.22548" lon="5.48896">
        <ele>336.2</ele>
        <time>2025-10-18T08:14:27Z</time>
      </trkpt>
      <trkpt lat="43.22548" lon="5.48894">
        <ele>336.4</ele>
        <time>2025-10-18T08:14:28Z</time>
      </trkpt>
      <trkpt lat="43.22548" lon="5.48893">
        <ele>336.5</ele>
        <time>2025-10-18T08:14:29Z</time>
      </trkpt>
      <trkpt lat="43.22548" lon="5.48893">
        <ele>336.6</ele>
        <time>2025-10-18T08:14:30Z</time>
      </trkpt>
      <trkpt lat="43.22547" lon="5.48892">
        <ele>336.7</ele>
        <time>2025-10-18T08:14:31Z</time>
      </trkpt>
      <trkpt lat="43.22547" lon="5.48891">
        <ele>336.7</ele>
        <time>2025-10-18T08:14:32Z</time>
      </trkpt>
      <trkpt lat="43.22546" lon="5.4889">
        <ele>336.8</ele>
        <time>2025-10-18T08:14:33Z</time>
      </trkpt>
      <trkpt lat="43.22546" lon="5.4889">
        <ele>336.8</ele>
        <time>2025-10-18T08:14:34Z</time>
      </trkpt>
      <trkpt lat="43.22546" lon="5.48889">
        <ele>336.9</ele>
        <time>2025-10-18T08:14:35Z</time>
      </trkpt>
      <trkpt lat="43.22547" lon="5.48888">
        <ele>337</ele>
        <time>2025-10-18T08:14:36Z</time>
      </trkpt>
      <trkpt lat="43.22547" lon="5.48887">
        <ele>337.1</ele>
        <time>2025-10-18T08:14:37Z</time>
      </trkpt>
      <trkpt lat="43.22547" lon="5.48886">
        <ele>337.3</ele>
        <time>2025-10-18T08:14:38Z</time>
      </trkpt>
      <trkpt lat="43.22547" lon="5.48885">
        <ele>337.4</ele>
        <time>2025-10-18T08:14:39Z</time>
      </trkpt>
      <trkpt lat="43.22547" lon="5.48884">
        <ele>337.4</ele>
        <time>2025-10-18T08:14:40Z</time>
      </trkpt>
      <trkpt lat="43.22547" lon="5.48883">
        <ele>337.5</ele>
        <time>2025-10-18T08:14:41Z</time>
      </trkpt>
      <trkpt lat="43.22547" lon="5.48882">
        <ele>337.6</ele>
        <time>2025-10-18T08:14:42Z</time>
      </trkpt>
      <trkpt lat="43.22546" lon="5.48881">
        <ele>337.7</ele>
        <time>2025-10-18T08:14:43Z</time>
      </trkpt>
      <trkpt lat="43.22546" lon="5.4888">
        <ele>337.8</ele>
        <time>2025-10-18T08:14:44Z</time>
      </trkpt>
      <trkpt lat="43.22546" lon="5.48879">
        <ele>337.9</ele>
        <time>2025-10-18T08:14:45Z</time>
      </trkpt>
      <trkpt lat="43.22546" lon="5.48878">
        <ele>338.1</ele>
        <time>2025-10-18T08:14:46Z</time>
      </trkpt>
      <trkpt lat="43.22545" lon="5.48876">
        <ele>338.2</ele>
        <time>2025-10-18T08:14:47Z</time>
      </trkpt>
      <trkpt lat="43.22544" lon="5.48875">
        <ele>338.2</ele>
        <time>2025-10-18T08:14:48Z</time>
      </trkpt>
      <trkpt lat="43.22544" lon="5.48874">
        <ele>338.4</ele>
        <time>2025-10-18T08:14:49Z</time>
      </trkpt>
      <trkpt lat="43.22544" lon="5.48874">
        <ele>338.4</ele>
        <time>2025-10-18T08:14:50Z</time>
      </trkpt>
      <trkpt lat="43.22543" lon="5.48873">
        <ele>338.5</ele>
        <time>2025-10-18T08:14:51Z</time>
      </trkpt>
      <trkpt lat="43.22543" lon="5.48873">
        <ele>338.7</ele>
        <time>2025-10-18T08:14:52Z</time>
      </trkpt>
      <trkpt lat="43.22542" lon="5.48872">
        <ele>338.8</ele>
        <time>2025-10-18T08:14:53Z</time>
      </trkpt>
      <trkpt lat="43.22542" lon="5.48872">
        <ele>338.8</ele>
        <time>2025-10-18T08:14:54Z</time>
      </trkpt>
      <trkpt lat="43.22541" lon="5.48872">
        <ele>338.9</ele>
        <time>2025-10-18T08:14:55Z</time>
      </trkpt>
      <trkpt lat="43.2254" lon="5.48871">
        <ele>338.8</ele>
        <time>2025-10-18T08:14:56Z</time>
      </trkpt>
      <trkpt lat="43.22539" lon="5.48871">
        <ele>338.8</ele>
        <time>2025-10-18T08:14:57Z</time>
      </trkpt>
      <trkpt lat="43.22538" lon="5.48871">
        <ele>338.9</ele>
        <time>2025-10-18T08:14:58Z</time>
      </trkpt>
      <trkpt lat="43.22538" lon="5.48871">
        <ele>339</ele>
        <time>2025-10-18T08:14:59Z</time>
      </trkpt>
      <trkpt lat="43.22537" lon="5.48871">
        <ele>339.1</ele>
        <time>2025-10-18T08:15:00Z</time>
      </trkpt>
      <trkpt lat="43.22536" lon="5.48871">
        <ele>339.2</ele>
        <time>2025-10-18T08:15:01Z</time>
      </trkpt>
      <trkpt lat="43.22535" lon="5.48871">
        <ele>339.3</ele>
        <time>2025-10-18T08:15:02Z</time>
      </trkpt>
      <trkpt lat="43.22535" lon="5.48871">
        <ele>339.4</ele>
        <time>2025-10-18T08:15:03Z</time>
      </trkpt>
      <trkpt lat="43.22535" lon="5.48871">
        <ele>339.4</ele>
        <time>2025-10-18T08:15:04Z</time>
      </trkpt>
      <trkpt lat="43.22534" lon="5.48871">
        <ele>339.5</ele>
        <time>2025-10-18T08:15:05Z</time>
      </trkpt>
      <trkpt lat="43.22533" lon="5.48871">
        <ele>339.5</ele>
        <time>2025-10-18T08:15:06Z</time>
      </trkpt>
      <trkpt lat="43.22532" lon="5.48871">
        <ele>339.6</ele>
        <time>2025-10-18T08:15:07Z</time>
      </trkpt>
      <trkpt lat="43.22531" lon="5.48871">
        <ele>339.7</ele>
        <time>2025-10-18T08:15:08Z</time>
      </trkpt>
      <trkpt lat="43.2253" lon="5.48871">
        <ele>339.9</ele>
        <time>2025-10-18T08:15:09Z</time>
      </trkpt>
      <trkpt lat="43.22529" lon="5.48871">
        <ele>340</ele>
        <time>2025-10-18T08:15:10Z</time>
      </trkpt>
      <trkpt lat="43.22528" lon="5.48872">
        <ele>340.1</ele>
        <time>2025-10-18T08:15:11Z</time>
      </trkpt>
      <trkpt lat="43.22527" lon="5.48872">
        <ele>340.2</ele>
        <time>2025-10-18T08:15:12Z</time>
      </trkpt>
      <trkpt lat="43.22526" lon="5.48872">
        <ele>340.2</ele>
        <time>2025-10-18T08:15:13Z</time>
      </trkpt>
      <trkpt lat="43.22525" lon="5.48873">
        <ele>340.3</ele>
        <time>2025-10-18T08:15:14Z</time>
      </trkpt>
      <trkpt lat="43.22524" lon="5.48873">
        <ele>340.3</ele>
        <time>2025-10-18T08:15:15Z</time>
      </trkpt>
      <trkpt lat="43.22523" lon="5.48874">
        <ele>340.2</ele>
        <time>2025-10-18T08:15:16Z</time>
      </trkpt>
      <trkpt lat="43.22522" lon="5.48874">
        <ele>340.3</ele>
        <time>2025-10-18T08:15:17Z</time>
      </trkpt>
      <trkpt lat="43.22522" lon="5.48875">
        <ele>340.4</ele>
        <time>2025-10-18T08:15:18Z</time>
      </trkpt>
      <trkpt lat="43.22521" lon="5.48875">
        <ele>340.5</ele>
        <time>2025-10-18T08:15:19Z</time>
      </trkpt>
      <trkpt lat="43.2252" lon="5.48875">
        <ele>340.5</ele>
        <time>2025-10-18T08:15:20Z</time>
      </trkpt>
      <trkpt lat="43.22519" lon="5.48876">
        <ele>340.5</ele>
        <time>2025-10-18T08:15:21Z</time>
      </trkpt>
      <trkpt lat="43.22518" lon="5.48876">
        <ele>340.5</ele>
        <time>2025-10-18T08:15:22Z</time>
      </trkpt>
      <trkpt lat="43.22517" lon="5.48876">
        <ele>340.6</ele>
        <time>2025-10-18T08:15:23Z</time>
      </trkpt>
      <trkpt lat="43.22516" lon="5.48877">
        <ele>340.6</ele>
        <time>2025-10-18T08:15:24Z</time>
      </trkpt>
      <trkpt lat="43.22515" lon="5.48878">
        <ele>340.6</ele>
        <time>2025-10-18T08:15:25Z</time>
      </trkpt>
      <trkpt lat="43.22515" lon="5.48879">
        <ele>340.7</ele>
        <time>2025-10-18T08:15:26Z</time>
      </trkpt>
      <trkpt lat="43.22514" lon="5.48879">
        <ele>340.8</ele>
        <time>2025-10-18T08:15:27Z</time>
      </trkpt>
      <trkpt lat="43.22513" lon="5.4888">
        <ele>340.7</ele>
        <time>2025-10-18T08:15:28Z</time>
      </trkpt>
      <trkpt lat="43.22512" lon="5.48881">
        <ele>340.7</ele>
        <time>2025-10-18T08:15:29Z</time>
      </trkpt>
      <trkpt lat="43.22512" lon="5.48882">
        <ele>340.7</ele>
        <time>2025-10-18T08:15:30Z</time>
      </trkpt>
      <trkpt lat="43.22511" lon="5.48883">
        <ele>340.7</ele>
        <time>2025-10-18T08:15:31Z</time>
      </trkpt>
      <trkpt lat="43.2251" lon="5.48883">
        <ele>340.7</ele>
        <time>2025-10-18T08:15:32Z</time>
      </trkpt>
      <trkpt lat="43.22509" lon="5.48884">
        <ele>340.7</ele>
        <time>2025-10-18T08:15:33Z</time>
      </trkpt>
      <trkpt lat="43.22508" lon="5.48884">
        <ele>340.7</ele>
        <time>2025-10-18T08:15:34Z</time>
      </trkpt>
      <trkpt lat="43.22507" lon="5.48884">
        <ele>340.8</ele>
        <time>2025-10-18T08:15:35Z</time>
      </trkpt>
      <trkpt lat="43.22506" lon="5.48885">
        <ele>340.8</ele>
        <time>2025-10-18T08:15:36Z</time>
      </trkpt>
      <trkpt lat="43.22506" lon="5.48885">
        <ele>340.8</ele>
        <time>2025-10-18T08:15:37Z</time>
      </trkpt>
      <trkpt lat="43.22505" lon="5.48885">
        <ele>340.8</ele>
        <time>2025-10-18T08:15:38Z</time>
      </trkpt>
      <trkpt lat="43.22503" lon="5.48886">
        <ele>340.8</ele>
        <time>2025-10-18T08:15:39Z</time>
      </trkpt>
      <trkpt lat="43.22502" lon="5.48886">
        <ele>340.7</ele>
        <time>2025-10-18T08:15:40Z</time>
      </trkpt>
      <trkpt lat="43.22501" lon="5.48886">
        <ele>340.8</ele>
        <time>2025-10-18T08:15:41Z</time>
      </trkpt>
      <trkpt lat="43.22501" lon="5.48887">
        <ele>340.8</ele>
        <time>2025-10-18T08:15:42Z</time>
      </trkpt>
      <trkpt lat="43.225" lon="5.48887">
        <ele>340.7</ele>
        <time>2025-10-18T08:15:43Z</time>
      </trkpt>
      <trkpt lat="43.22499" lon="5.48888">
        <ele>340.7</ele>
        <time>2025-10-18T08:15:44Z</time>
      </trkpt>
      <trkpt lat="43.22498" lon="5.48888">
        <ele>340.6</ele>
        <time>2025-10-18T08:15:45Z</time>
      </trkpt>
      <trkpt lat="43.22497" lon="5.48888">
        <ele>340.7</ele>
        <time>2025-10-18T08:15:46Z</time>
      </trkpt>
      <trkpt lat="43.22496" lon="5.48888">
        <ele>340.7</ele>
        <time>2025-10-18T08:15:47Z</time>
      </trkpt>
      <trkpt lat="43.22495" lon="5.48888">
        <ele>340.7</ele>
        <time>2025-10-18T08:15:48Z</time>
      </trkpt>
      <trkpt lat="43.22494" lon="5.48888">
        <ele>340.7</ele>
        <time>2025-10-18T08:15:49Z</time>
      </trkpt>
      <trkpt lat="43.22493" lon="5.48888">
        <ele>340.7</ele>
        <time>2025-10-18T08:15:50Z</time>
      </trkpt>
      <trkpt lat="43.22493" lon="5.48888">
        <ele>340.7</ele>
        <time>2025-10-18T08:15:51Z</time>
      </trkpt>
      <trkpt lat="43.22492" lon="5.48888">
        <ele>340.7</ele>
        <time>2025-10-18T08:15:52Z</time>
      </trkpt>
      <trkpt lat="43.22491" lon="5.48888">
        <ele>340.7</ele>
        <time>2025-10-18T08:15:53Z</time>
      </trkpt>
      <trkpt lat="43.2249" lon="5.48888">
        <ele>340.7</ele>
        <time>2025-10-18T08:15:54Z</time>
      </trkpt>
      <trkpt lat="43.2249" lon="5.48888">
        <ele>340.7</ele>
        <time>2025-10-18T08:15:55Z</time>
      </trkpt>
      <trkpt lat="43.22489" lon="5.48888">
        <ele>340.7</ele>
        <time>2025-10-18T08:15:56Z</time>
      </trkpt>
      <trkpt lat="43.22488" lon="5.48889">
        <ele>340.7</ele>
        <time>2025-10-18T08:15:57Z</time>
      </trkpt>
      <trkpt lat="43.22487" lon="5.48889">
        <ele>340.6</ele>
        <time>2025-10-18T08:15:58Z</time>
      </trkpt>
      <trkpt lat="43.22486" lon="5.48888">
        <ele>340.6</ele>
        <time>2025-10-18T08:15:59Z</time>
      </trkpt>
      <trkpt lat="43.22485" lon="5.48889">
        <ele>340.5</ele>
        <time>2025-10-18T08:16:00Z</time>
      </trkpt>
      <trkpt lat="43.22484" lon="5.48889">
        <ele>340.5</ele>
        <time>2025-10-18T08:16:01Z</time>
      </trkpt>
      <trkpt lat="43.22483" lon="5.48889">
        <ele>340.5</ele>
        <time>2025-10-18T08:16:02Z</time>
      </trkpt>
      <trkpt lat="43.22483" lon="5.48889">
        <ele>340.5</ele>
        <time>2025-10-18T08:16:03Z</time>
      </trkpt>
      <trkpt lat="43.22481" lon="5.48889">
        <ele>340.5</ele>
        <time>2025-10-18T08:16:04Z</time>
      </trkpt>
      <trkpt lat="43.2248" lon="5.4889">
        <ele>340.4</ele>
        <time>2025-10-18T08:16:05Z</time>
      </trkpt>
      <trkpt lat="43.22479" lon="5.4889">
        <ele>340.4</ele>
        <time>2025-10-18T08:16:06Z</time>
      </trkpt>
      <trkpt lat="43.22479" lon="5.48891">
        <ele>340.4</ele>
        <time>2025-10-18T08:16:07Z</time>
      </trkpt>
      <trkpt lat="43.22478" lon="5.48891">
        <ele>340.4</ele>
        <time>2025-10-18T08:16:08Z</time>
      </trkpt>
      <trkpt lat="43.22477" lon="5.48892">
        <ele>340.3</ele>
        <time>2025-10-18T08:16:09Z</time>
      </trkpt>
      <trkpt lat="43.22476" lon="5.48891">
        <ele>340.3</ele>
        <time>2025-10-18T08:16:10Z</time>
      </trkpt>
      <trkpt lat="43.22475" lon="5.48891">
        <ele>340.3</ele>
        <time>2025-10-18T08:16:11Z</time>
      </trkpt>
      <trkpt lat="43.22474" lon="5.48892">
        <ele>340.3</ele>
        <time>2025-10-18T08:16:12Z</time>
      </trkpt>
      <trkpt lat="43.22473" lon="5.48891">
        <ele>340.2</ele>
        <time>2025-10-18T08:16:13Z</time>
      </trkpt>
      <trkpt lat="43.22472" lon="5.48891">
        <ele>340.2</ele>
        <time>2025-10-18T08:16:14Z</time>
      </trkpt>
      <trkpt lat="43.22472" lon="5.48892">
        <ele>340.2</ele>
        <time>2025-10-18T08:16:15Z</time>
      </trkpt>
      <trkpt lat="43.22471" lon="5.48893">
        <ele>340.2</ele>
        <time>2025-10-18T08:16:16Z</time>
      </trkpt>
      <trkpt lat="43.2247" lon="5.48892">
        <ele>340.3</ele>
        <time>2025-10-18T08:16:17Z</time>
      </trkpt>
      <trkpt lat="43.22469" lon="5.48892">
        <ele>340.4</ele>
        <time>2025-10-18T08:16:18Z</time>
      </trkpt>
      <trkpt lat="43.22468" lon="5.48891">
        <ele>340.5</ele>
        <time>2025-10-18T08:16:19Z</time>
      </trkpt>
      <trkpt lat="43.22467" lon="5.48891">
        <ele>340.5</ele>
        <time>2025-10-18T08:16:20Z</time>
      </trkpt>
      <trkpt lat="43.22466" lon="5.48891">
        <ele>340.6</ele>
        <time>2025-10-18T08:16:21Z</time>
      </trkpt>
      <trkpt lat="43.22465" lon="5.48891">
        <ele>340.7</ele>
        <time>2025-10-18T08:16:22Z</time>
      </trkpt>
      <trkpt lat="43.22464" lon="5.48891">
        <ele>340.7</ele>
        <time>2025-10-18T08:16:23Z</time>
      </trkpt>
      <trkpt lat="43.22463" lon="5.48891">
        <ele>340.8</ele>
        <time>2025-10-18T08:16:24Z</time>
      </trkpt>
      <trkpt lat="43.22462" lon="5.4889">
        <ele>340.9</ele>
        <time>2025-10-18T08:16:25Z</time>
      </trkpt>
      <trkpt lat="43.22461" lon="5.4889">
        <ele>340.9</ele>
        <time>2025-10-18T08:16:26Z</time>
      </trkpt>
      <trkpt lat="43.2246" lon="5.4889">
        <ele>341</ele>
        <time>2025-10-18T08:16:27Z</time>
      </trkpt>
      <trkpt lat="43.2246" lon="5.4889">
        <ele>341</ele>
        <time>2025-10-18T08:16:28Z</time>
      </trkpt>
      <trkpt lat="43.22459" lon="5.4889">
        <ele>341</ele>
        <time>2025-10-18T08:16:29Z</time>
      </trkpt>
      <trkpt lat="43.22458" lon="5.4889">
        <ele>341</ele>
        <time>2025-10-18T08:16:30Z</time>
      </trkpt>
      <trkpt lat="43.22457" lon="5.48889">
        <ele>340.9</ele>
        <time>2025-10-18T08:16:31Z</time>
      </trkpt>
      <trkpt lat="43.22457" lon="5.48888">
        <ele>340.9</ele>
        <time>2025-10-18T08:16:32Z</time>
      </trkpt>
      <trkpt lat="43.22456" lon="5.48888">
        <ele>340.8</ele>
        <time>2025-10-18T08:16:33Z</time>
      </trkpt>
      <trkpt lat="43.22456" lon="5.48888">
        <ele>340.8</ele>
        <time>2025-10-18T08:16:34Z</time>
      </trkpt>
      <trkpt lat="43.22455" lon="5.48887">
        <ele>340.8</ele>
        <time>2025-10-18T08:16:35Z</time>
      </trkpt>
      <trkpt lat="43.22455" lon="5.48887">
        <ele>341</ele>
        <time>2025-10-18T08:16:36Z</time>
      </trkpt>
      <trkpt lat="43.22454" lon="5.48887">
        <ele>341</ele>
        <time>2025-10-18T08:16:37Z</time>
      </trkpt>
      <trkpt lat="43.22454" lon="5.48886">
        <ele>341.1</ele>
        <time>2025-10-18T08:16:38Z</time>
      </trkpt>
      <trkpt lat="43.22453" lon="5.48885">
        <ele>341.2</ele>
        <time>2025-10-18T08:16:39Z</time>
      </trkpt>
      <trkpt lat="43.22453" lon="5.48884">
        <ele>341.4</ele>
        <time>2025-10-18T08:16:40Z</time>
      </trkpt>
      <trkpt lat="43.22452" lon="5.48883">
        <ele>341.5</ele>
        <time>2025-10-18T08:16:41Z</time>
      </trkpt>
      <trkpt lat="43.22451" lon="5.48882">
        <ele>341.8</ele>
        <time>2025-10-18T08:16:42Z</time>
      </trkpt>
      <trkpt lat="43.2245" lon="5.48881">
        <ele>341.9</ele>
        <time>2025-10-18T08:16:43Z</time>
      </trkpt>
      <trkpt lat="43.2245" lon="5.48881">
        <ele>342.1</ele>
        <time>2025-10-18T08:16:44Z</time>
      </trkpt>
      <trkpt lat="43.22449" lon="5.48881">
        <ele>342.2</ele>
        <time>2025-10-18T08:16:45Z</time>
      </trkpt>
      <trkpt lat="43.22448" lon="5.4888">
        <ele>342.3</ele>
        <time>2025-10-18T08:16:46Z</time>
      </trkpt>
      <trkpt lat="43.22448" lon="5.4888">
        <ele>342.4</ele>
        <time>2025-10-18T08:16:47Z</time>
      </trkpt>
      <trkpt lat="43.22447" lon="5.48879">
        <ele>342.6</ele>
        <time>2025-10-18T08:16:48Z</time>
      </trkpt>
      <trkpt lat="43.22446" lon="5.48879">
        <ele>342.8</ele>
        <time>2025-10-18T08:16:49Z</time>
      </trkpt>
      <trkpt lat="43.22446" lon="5.48879">
        <ele>342.9</ele>
        <time>2025-10-18T08:16:50Z</time>
      </trkpt>
      <trkpt lat="43.22445" lon="5.48878">
        <ele>342.9</ele>
        <time>2025-10-18T08:16:51Z</time>
      </trkpt>
      <trkpt lat="43.22445" lon="5.48878">
        <ele>343</ele>
        <time>2025-10-18T08:16:52Z</time>
      </trkpt>
      <trkpt lat="43.22445" lon="5.48877">
        <ele>343</ele>
        <time>2025-10-18T08:16:53Z</time>
      </trkpt>
      <trkpt lat="43.22445" lon="5.48877">
        <ele>343.2</ele>
        <time>2025-10-18T08:16:54Z</time>
      </trkpt>
      <trkpt lat="43.22445" lon="5.48876">
        <ele>343.4</ele>
        <time>2025-10-18T08:16:55Z</time>
      </trkpt>
      <trkpt lat="43.22445" lon="5.48875">
        <ele>343.5</ele>
        <time>2025-10-18T08:16:56Z</time>
      </trkpt>
      <trkpt lat="43.22445" lon="5.48874">
        <ele>343.5</ele>
        <time>2025-10-18T08:16:57Z</time>
      </trkpt>
      <trkpt lat="43.22445" lon="5.48873">
        <ele>343.6</ele>
        <time>2025-10-18T08:16:58Z</time>
      </trkpt>
      <trkpt lat="43.22444" lon="5.48873">
        <ele>343.7</ele>
        <time>2025-10-18T08:16:59Z</time>
      </trkpt>
      <trkpt lat="43.22444" lon="5.48872">
        <ele>343.8</ele>
        <time>2025-10-18T08:17:00Z</time>
      </trkpt>
      <trkpt lat="43.22444" lon="5.48871">
        <ele>343.9</ele>
        <time>2025-10-18T08:17:01Z</time>
      </trkpt>
      <trkpt lat="43.22443" lon="5.48871">
        <ele>344</ele>
        <time>2025-10-18T08:17:02Z</time>
      </trkpt>
      <trkpt lat="43.22443" lon="5.4887">
        <ele>344.2</ele>
        <time>2025-10-18T08:17:03Z</time>
      </trkpt>
      <trkpt lat="43.22442" lon="5.4887">
        <ele>344.2</ele>
        <time>2025-10-18T08:17:04Z</time>
      </trkpt>
      <trkpt lat="43.22442" lon="5.48869">
        <ele>344.3</ele>
        <time>2025-10-18T08:17:05Z</time>
      </trkpt>
      <trkpt lat="43.22441" lon="5.48868">
        <ele>344.4</ele>
        <time>2025-10-18T08:17:06Z</time>
      </trkpt>
      <trkpt lat="43.22441" lon="5.48868">
        <ele>344.6</ele>
        <time>2025-10-18T08:17:07Z</time>
      </trkpt>
      <trkpt lat="43.22441" lon="5.48867">
        <ele>344.7</ele>
        <time>2025-10-18T08:17:08Z</time>
      </trkpt>
      <trkpt lat="43.22441" lon="5.48866">
        <ele>344.9</ele>
        <time>2025-10-18T08:17:09Z</time>
      </trkpt>
      <trkpt lat="43.2244" lon="5.48865">
        <ele>345.1</ele>
        <time>2025-10-18T08:17:10Z</time>
      </trkpt>
      <trkpt lat="43.2244" lon="5.48865">
        <ele>345.2</ele>
        <time>2025-10-18T08:17:11Z</time>
      </trkpt>
      <trkpt lat="43.22439" lon="5.48864">
        <ele>345.3</ele>
        <time>2025-10-18T08:17:12Z</time>
      </trkpt>
      <trkpt lat="43.22439" lon="5.48863">
        <ele>345.4</ele>
        <time>2025-10-18T08:17:13Z</time>
      </trkpt>
      <trkpt lat="43.22439" lon="5.48863">
        <ele>345.5</ele>
        <time>2025-10-18T08:17:14Z</time>
      </trkpt>
      <trkpt lat="43.22439" lon="5.48862">
        <ele>345.6</ele>
        <time>2025-10-18T08:17:15Z</time>
      </trkpt>
      <trkpt lat="43.22438" lon="5.48861">
        <ele>345.7</ele>
        <time>2025-10-18T08:17:16Z</time>
      </trkpt>
      <trkpt lat="43.22438" lon="5.48861">
        <ele>345.8</ele>
        <time>2025-10-18T08:17:17Z</time>
      </trkpt>
      <trkpt lat="43.22438" lon="5.4886">
        <ele>346</ele>
        <time>2025-10-18T08:17:18Z</time>
      </trkpt>
      <trkpt lat="43.22437" lon="5.48859">
        <ele>346</ele>
        <time>2025-10-18T08:17:19Z</time>
      </trkpt>
      <trkpt lat="43.22437" lon="5.48858">
        <ele>346.1</ele>
        <time>2025-10-18T08:17:20Z</time>
      </trkpt>
      <trkpt lat="43.22436" lon="5.48856">
        <ele>346.3</ele>
        <time>2025-10-18T08:17:21Z</time>
      </trkpt>
      <trkpt lat="43.22436" lon="5.48855">
        <ele>346.2</ele>
        <time>2025-10-18T08:17:22Z</time>
      </trkpt>
      <trkpt lat="43.22435" lon="5.48854">
        <ele>346.3</ele>
        <time>2025-10-18T08:17:23Z</time>
      </trkpt>
      <trkpt lat="43.22435" lon="5.48854">
        <ele>346.4</ele>
        <time>2025-10-18T08:17:24Z</time>
      </trkpt>
      <trkpt lat="43.22435" lon="5.48853">
        <ele>346.5</ele>
        <time>2025-10-18T08:17:25Z</time>
      </trkpt>
      <trkpt lat="43.22434" lon="5.48851">
        <ele>346.6</ele>
        <time>2025-10-18T08:17:26Z</time>
      </trkpt>
      <trkpt lat="43.22434" lon="5.4885">
        <ele>346.7</ele>
        <time>2025-10-18T08:17:27Z</time>
      </trkpt>
      <trkpt lat="43.22434" lon="5.48849">
        <ele>346.8</ele>
        <time>2025-10-18T08:17:28Z</time>
      </trkpt>
      <trkpt lat="43.22434" lon="5.48848">
        <ele>346.9</ele>
        <time>2025-10-18T08:17:29Z</time>
      </trkpt>
      <trkpt lat="43.22433" lon="5.48847">
        <ele>346.9</ele>
        <time>2025-10-18T08:17:30Z</time>
      </trkpt>
      <trkpt lat="43.22433" lon="5.48846">
        <ele>347</ele>
        <time>2025-10-18T08:17:31Z</time>
      </trkpt>
      <trkpt lat="43.22433" lon="5.48845">
        <ele>347.1</ele>
        <time>2025-10-18T08:17:32Z</time>
      </trkpt>
      <trkpt lat="43.22433" lon="5.48844">
        <ele>347.2</ele>
        <time>2025-10-18T08:17:33Z</time>
      </trkpt>
      <trkpt lat="43.22433" lon="5.48843">
        <ele>347.3</ele>
        <time>2025-10-18T08:17:34Z</time>
      </trkpt>
      <trkpt lat="43.22433" lon="5.48842">
        <ele>347.5</ele>
        <time>2025-10-18T08:17:35Z</time>
      </trkpt>
      <trkpt lat="43.22432" lon="5.48841">
        <ele>347.6</ele>
        <time>2025-10-18T08:17:36Z</time>
      </trkpt>
      <trkpt lat="43.22432" lon="5.4884">
        <ele>347.6</ele>
        <time>2025-10-18T08:17:37Z</time>
      </trkpt>
      <trkpt lat="43.22432" lon="5.48838">
        <ele>347.6</ele>
        <time>2025-10-18T08:17:38Z</time>
      </trkpt>
      <trkpt lat="43.22431" lon="5.48837">
        <ele>347.7</ele>
        <time>2025-10-18T08:17:39Z</time>
      </trkpt>
      <trkpt lat="43.22431" lon="5.48835">
        <ele>347.8</ele>
        <time>2025-10-18T08:17:40Z</time>
      </trkpt>
      <trkpt lat="43.22431" lon="5.48834">
        <ele>348</ele>
        <time>2025-10-18T08:17:41Z</time>
      </trkpt>
      <trkpt lat="43.22431" lon="5.48833">
        <ele>348.1</ele>
        <time>2025-10-18T08:17:42Z</time>
      </trkpt>
      <trkpt lat="43.2243" lon="5.48832">
        <ele>348.1</ele>
        <time>2025-10-18T08:17:43Z</time>
      </trkpt>
      <trkpt lat="43.2243" lon="5.48831">
        <ele>348.2</ele>
        <time>2025-10-18T08:17:44Z</time>
      </trkpt>
      <trkpt lat="43.2243" lon="5.4883">
        <ele>348.2</ele>
        <time>2025-10-18T08:17:45Z</time>
      </trkpt>
      <trkpt lat="43.22429" lon="5.48829">
        <ele>348.3</ele>
        <time>2025-10-18T08:17:46Z</time>
      </trkpt>
      <trkpt lat="43.22429" lon="5.48828">
        <ele>348.4</ele>
        <time>2025-10-18T08:17:47Z</time>
      </trkpt>
      <trkpt lat="43.22429" lon="5.48826">
        <ele>348.5</ele>
        <time>2025-10-18T08:17:48Z</time>
      </trkpt>
      <trkpt lat="43.22429" lon="5.48825">
        <ele>348.6</ele>
        <time>2025-10-18T08:17:49Z</time>
      </trkpt>
      <trkpt lat="43.22428" lon="5.48824">
        <ele>348.6</ele>
        <time>2025-10-18T08:17:50Z</time>
      </trkpt>
      <trkpt lat="43.22428" lon="5.48823">
        <ele>348.7</ele>
        <time>2025-10-18T08:17:51Z</time>
      </trkpt>
      <trkpt lat="43.22428" lon="5.48822">
        <ele>348.8</ele>
        <time>2025-10-18T08:17:52Z</time>
      </trkpt>
      <trkpt lat="43.22427" lon="5.48821">
        <ele>348.8</ele>
        <time>2025-10-18T08:17:53Z</time>
      </trkpt>
      <trkpt lat="43.22427" lon="5.4882">
        <ele>349</ele>
        <time>2025-10-18T08:17:54Z</time>
      </trkpt>
      <trkpt lat="43.22427" lon="5.48819">
        <ele>349.1</ele>
        <time>2025-10-18T08:17:55Z</time>
      </trkpt>
      <trkpt lat="43.22427" lon="5.48818">
        <ele>349.2</ele>
        <time>2025-10-18T08:17:56Z</time>
      </trkpt>
      <trkpt lat="43.22427" lon="5.48817">
        <ele>349.3</ele>
        <time>2025-10-18T08:17:57Z</time>
      </trkpt>
      <trkpt lat="43.22426" lon="5.48816">
        <ele>349.5</ele>
        <time>2025-10-18T08:17:58Z</time>
      </trkpt>
      <trkpt lat="43.22426" lon="5.48815">
        <ele>349.6</ele>
        <time>2025-10-18T08:17:59Z</time>
      </trkpt>
      <trkpt lat="43.22426" lon="5.48814">
        <ele>349.7</ele>
        <time>2025-10-18T08:18:00Z</time>
      </trkpt>
      <trkpt lat="43.22425" lon="5.48812">
        <ele>349.8</ele>
        <time>2025-10-18T08:18:01Z</time>
      </trkpt>
      <trkpt lat="43.22425" lon="5.48812">
        <ele>349.8</ele>
        <time>2025-10-18T08:18:02Z</time>
      </trkpt>
      <trkpt lat="43.22425" lon="5.4881">
        <ele>349.9</ele>
        <time>2025-10-18T08:18:03Z</time>
      </trkpt>
      <trkpt lat="43.22424" lon="5.48809">
        <ele>349.9</ele>
        <time>2025-10-18T08:18:04Z</time>
      </trkpt>
      <trkpt lat="43.22424" lon="5.48807">
        <ele>350</ele>
        <time>2025-10-18T08:18:05Z</time>
      </trkpt>
      <trkpt lat="43.22424" lon="5.48806">
        <ele>350.1</ele>
        <time>2025-10-18T08:18:06Z</time>
      </trkpt>
      <trkpt lat="43.22424" lon="5.48804">
        <ele>350.1</ele>
        <time>2025-10-18T08:18:07Z</time>
      </trkpt>
      <trkpt lat="43.22423" lon="5.48803">
        <ele>350.1</ele>
        <time>2025-10-18T08:18:08Z</time>
      </trkpt>
      <trkpt lat="43.22423" lon="5.48802">
        <ele>350.2</ele>
        <time>2025-10-18T08:18:09Z</time>
      </trkpt>
      <trkpt lat="43.22423" lon="5.48801">
        <ele>350.3</ele>
        <time>2025-10-18T08:18:10Z</time>
      </trkpt>
      <trkpt lat="43.22422" lon="5.488">
        <ele>350.4</ele>
        <time>2025-10-18T08:18:11Z</time>
      </trkpt>
      <trkpt lat="43.22422" lon="5.48799">
        <ele>350.5</ele>
        <time>2025-10-18T08:18:12Z</time>
      </trkpt>
      <trkpt lat="43.22422" lon="5.48798">
        <ele>350.6</ele>
        <time>2025-10-18T08:18:13Z</time>
      </trkpt>
      <trkpt lat="43.22422" lon="5.48796">
        <ele>350.7</ele>
        <time>2025-10-18T08:18:14Z</time>
      </trkpt>
      <trkpt lat="43.22421" lon="5.48795">
        <ele>350.8</ele>
        <time>2025-10-18T08:18:15Z</time>
      </trkpt>
      <trkpt lat="43.22421" lon="5.48794">
        <ele>350.9</ele>
        <time>2025-10-18T08:18:16Z</time>
      </trkpt>
      <trkpt lat="43.22421" lon="5.48793">
        <ele>351</ele>
        <time>2025-10-18T08:18:17Z</time>
      </trkpt>
      <trkpt lat="43.2242" lon="5.48792">
        <ele>351.1</ele>
        <time>2025-10-18T08:18:18Z</time>
      </trkpt>
      <trkpt lat="43.22419" lon="5.48791">
        <ele>351.2</ele>
        <time>2025-10-18T08:18:19Z</time>
      </trkpt>
      <trkpt lat="43.22418" lon="5.4879">
        <ele>351.3</ele>
        <time>2025-10-18T08:18:20Z</time>
      </trkpt>
      <trkpt lat="43.22418" lon="5.48789">
        <ele>351.4</ele>
        <time>2025-10-18T08:18:21Z</time>
      </trkpt>
      <trkpt lat="43.22418" lon="5.48788">
        <ele>351.5</ele>
        <time>2025-10-18T08:18:22Z</time>
      </trkpt>
      <trkpt lat="43.22418" lon="5.48787">
        <ele>351.6</ele>
        <time>2025-10-18T08:18:23Z</time>
      </trkpt>
      <trkpt lat="43.22417" lon="5.48786">
        <ele>351.6</ele>
        <time>2025-10-18T08:18:24Z</time>
      </trkpt>
      <trkpt lat="43.22417" lon="5.48785">
        <ele>351.7</ele>
        <time>2025-10-18T08:18:25Z</time>
      </trkpt>
      <trkpt lat="43.22416" lon="5.48784">
        <ele>351.8</ele>
        <time>2025-10-18T08:18:26Z</time>
      </trkpt>
      <trkpt lat="43.22416" lon="5.48783">
        <ele>351.8</ele>
        <time>2025-10-18T08:18:27Z</time>
      </trkpt>
      <trkpt lat="43.22415" lon="5.48782">
        <ele>351.9</ele>
        <time>2025-10-18T08:18:28Z</time>
      </trkpt>
      <trkpt lat="43.22415" lon="5.48781">
        <ele>352</ele>
        <time>2025-10-18T08:18:29Z</time>
      </trkpt>
      <trkpt lat="43.22415" lon="5.4878">
        <ele>352.1</ele>
        <time>2025-10-18T08:18:30Z</time>
      </trkpt>
      <trkpt lat="43.22415" lon="5.48779">
        <ele>352.3</ele>
        <time>2025-10-18T08:18:31Z</time>
      </trkpt>
      <trkpt lat="43.22414" lon="5.48778">
        <ele>352.4</ele>
        <time>2025-10-18T08:18:32Z</time>
      </trkpt>
      <trkpt lat="43.22414" lon="5.48777">
        <ele>352.4</ele>
        <time>2025-10-18T08:18:33Z</time>
      </trkpt>
      <trkpt lat="43.22414" lon="5.48776">
        <ele>352.7</ele>
        <time>2025-10-18T08:18:34Z</time>
      </trkpt>
      <trkpt lat="43.22414" lon="5.48775">
        <ele>352.9</ele>
        <time>2025-10-18T08:18:35Z</time>
      </trkpt>
      <trkpt lat="43.22414" lon="5.48774">
        <ele>353</ele>
        <time>2025-10-18T08:18:36Z</time>
      </trkpt>
      <trkpt lat="43.22414" lon="5.48773">
        <ele>353.1</ele>
        <time>2025-10-18T08:18:37Z</time>
      </trkpt>
      <trkpt lat="43.22413" lon="5.48771">
        <ele>353.3</ele>
        <time>2025-10-18T08:18:38Z</time>
      </trkpt>
      <trkpt lat="43.22413" lon="5.4877">
        <ele>353.3</ele>
        <time>2025-10-18T08:18:39Z</time>
      </trkpt>
      <trkpt lat="43.22413" lon="5.48769">
        <ele>353.4</ele>
        <time>2025-10-18T08:18:40Z</time>
      </trkpt>
      <trkpt lat="43.22413" lon="5.48768">
        <ele>353.5</ele>
        <time>2025-10-18T08:18:41Z</time>
      </trkpt>
      <trkpt lat="43.22413" lon="5.48767">
        <ele>353.6</ele>
        <time>2025-10-18T08:18:42Z</time>
      </trkpt>
      <trkpt lat="43.22413" lon="5.48766">
        <ele>353.7</ele>
        <time>2025-10-18T08:18:43Z</time>
      </trkpt>
      <trkpt lat="43.22412" lon="5.48765">
        <ele>353.7</ele>
        <time>2025-10-18T08:18:44Z</time>
      </trkpt>
      <trkpt lat="43.22412" lon="5.48764">
        <ele>353.8</ele>
        <time>2025-10-18T08:18:45Z</time>
      </trkpt>
      <trkpt lat="43.22412" lon="5.48763">
        <ele>353.9</ele>
        <time>2025-10-18T08:18:46Z</time>
      </trkpt>
      <trkpt lat="43.22412" lon="5.48762">
        <ele>354.1</ele>
        <time>2025-10-18T08:18:47Z</time>
      </trkpt>
      <trkpt lat="43.22411" lon="5.48761">
        <ele>354.1</ele>
        <time>2025-10-18T08:18:48Z</time>
      </trkpt>
      <trkpt lat="43.22411" lon="5.48759">
        <ele>354.2</ele>
        <time>2025-10-18T08:18:49Z</time>
      </trkpt>
      <trkpt lat="43.22411" lon="5.48758">
        <ele>354.5</ele>
        <time>2025-10-18T08:18:50Z</time>
      </trkpt>
      <trkpt lat="43.22411" lon="5.48757">
        <ele>354.6</ele>
        <time>2025-10-18T08:18:51Z</time>
      </trkpt>
      <trkpt lat="43.22411" lon="5.48756">
        <ele>354.7</ele>
        <time>2025-10-18T08:18:52Z</time>
      </trkpt>
      <trkpt lat="43.2241" lon="5.48755">
        <ele>354.7</ele>
        <time>2025-10-18T08:18:53Z</time>
      </trkpt>
      <trkpt lat="43.2241" lon="5.48754">
        <ele>354.8</ele>
        <time>2025-10-18T08:18:54Z</time>
      </trkpt>
      <trkpt lat="43.2241" lon="5.48752">
        <ele>354.9</ele>
        <time>2025-10-18T08:18:55Z</time>
      </trkpt>
      <trkpt lat="43.22409" lon="5.48751">
        <ele>355</ele>
        <time>2025-10-18T08:18:56Z</time>
      </trkpt>
      <trkpt lat="43.22409" lon="5.4875">
        <ele>355.2</ele>
        <time>2025-10-18T08:18:57Z</time>
      </trkpt>
      <trkpt lat="43.22409" lon="5.48749">
        <ele>355.2</ele>
        <time>2025-10-18T08:18:58Z</time>
      </trkpt>
      <trkpt lat="43.22408" lon="5.48748">
        <ele>355.2</ele>
        <time>2025-10-18T08:18:59Z</time>
      </trkpt>
      <trkpt lat="43.22408" lon="5.48747">
        <ele>355.2</ele>
        <time>2025-10-18T08:19:00Z</time>
      </trkpt>
      <trkpt lat="43.22408" lon="5.48746">
        <ele>355.3</ele>
        <time>2025-10-18T08:19:01Z</time>
      </trkpt>
      <trkpt lat="43.22408" lon="5.48745">
        <ele>355.4</ele>
        <time>2025-10-18T08:19:02Z</time>
      </trkpt>
      <trkpt lat="43.22408" lon="5.48744">
        <ele>355.4</ele>
        <time>2025-10-18T08:19:03Z</time>
      </trkpt>
      <trkpt lat="43.22408" lon="5.48743">
        <ele>355.5</ele>
        <time>2025-10-18T08:19:04Z</time>
      </trkpt>
      <trkpt lat="43.22408" lon="5.48742">
        <ele>355.6</ele>
        <time>2025-10-18T08:19:05Z</time>
      </trkpt>
      <trkpt lat="43.22408" lon="5.48741">
        <ele>355.6</ele>
        <time>2025-10-18T08:19:06Z</time>
      </trkpt>
      <trkpt lat="43.22409" lon="5.48739">
        <ele>355.7</ele>
        <time>2025-10-18T08:19:07Z</time>
      </trkpt>
      <trkpt lat="43.22408" lon="5.48739">
        <ele>355.8</ele>
        <time>2025-10-18T08:19:08Z</time>
      </trkpt>
      <trkpt lat="43.22408" lon="5.48738">
        <ele>355.9</ele>
        <time>2025-10-18T08:19:09Z</time>
      </trkpt>
      <trkpt lat="43.22409" lon="5.48737">
        <ele>356</ele>
        <time>2025-10-18T08:19:10Z</time>
      </trkpt>
      <trkpt lat="43.22409" lon="5.48736">
        <ele>356</ele>
        <time>2025-10-18T08:19:11Z</time>
      </trkpt>
      <trkpt lat="43.22409" lon="5.48735">
        <ele>356.1</ele>
        <time>2025-10-18T08:19:12Z</time>
      </trkpt>
      <trkpt lat="43.22409" lon="5.48733">
        <ele>356.2</ele>
        <time>2025-10-18T08:19:13Z</time>
      </trkpt>
      <trkpt lat="43.22409" lon="5.48732">
        <ele>356.3</ele>
        <time>2025-10-18T08:19:14Z</time>
      </trkpt>
      <trkpt lat="43.22409" lon="5.48731">
        <ele>356.4</ele>
        <time>2025-10-18T08:19:15Z</time>
      </trkpt>
      <trkpt lat="43.22409" lon="5.4873">
        <ele>356.5</ele>
        <time>2025-10-18T08:19:16Z</time>
      </trkpt>
      <trkpt lat="43.22409" lon="5.48729">
        <ele>356.7</ele>
        <time>2025-10-18T08:19:17Z</time>
      </trkpt>
      <trkpt lat="43.2241" lon="5.48728">
        <ele>356.8</ele>
        <time>2025-10-18T08:19:18Z</time>
      </trkpt>
      <trkpt lat="43.2241" lon="5.48727">
        <ele>356.9</ele>
        <time>2025-10-18T08:19:19Z</time>
      </trkpt>
      <trkpt lat="43.2241" lon="5.48726">
        <ele>356.9</ele>
        <time>2025-10-18T08:19:20Z</time>
      </trkpt>
      <trkpt lat="43.2241" lon="5.48725">
        <ele>356.9</ele>
        <time>2025-10-18T08:19:21Z</time>
      </trkpt>
      <trkpt lat="43.2241" lon="5.48724">
        <ele>357</ele>
        <time>2025-10-18T08:19:22Z</time>
      </trkpt>
      <trkpt lat="43.2241" lon="5.48723">
        <ele>357.1</ele>
        <time>2025-10-18T08:19:23Z</time>
      </trkpt>
      <trkpt lat="43.22411" lon="5.48723">
        <ele>357.1</ele>
        <time>2025-10-18T08:19:24Z</time>
      </trkpt>
      <trkpt lat="43.22411" lon="5.48723">
        <ele>357.2</ele>
        <time>2025-10-18T08:19:25Z</time>
      </trkpt>
      <trkpt lat="43.22411" lon="5.48723">
        <ele>357.2</ele>
        <time>2025-10-18T08:19:26Z</time>
      </trkpt>
      <trkpt lat="43.22411" lon="5.48722">
        <ele>357.2</ele>
        <time>2025-10-18T08:19:27Z</time>
      </trkpt>
      <trkpt lat="43.22411" lon="5.48721">
        <ele>357.3</ele>
        <time>2025-10-18T08:19:28Z</time>
      </trkpt>
      <trkpt lat="43.22412" lon="5.48719">
        <ele>357.2</ele>
        <time>2025-10-18T08:19:29Z</time>
      </trkpt>
      <trkpt lat="43.22412" lon="5.48718">
        <ele>357.3</ele>
        <time>2025-10-18T08:19:30Z</time>
      </trkpt>
      <trkpt lat="43.22413" lon="5.48717">
        <ele>357.3</ele>
        <time>2025-10-18T08:19:31Z</time>
      </trkpt>
      <trkpt lat="43.22413" lon="5.48716">
        <ele>357.4</ele>
        <time>2025-10-18T08:19:32Z</time>
      </trkpt>
      <trkpt lat="43.22413" lon="5.48715">
        <ele>357.4</ele>
        <time>2025-10-18T08:19:33Z</time>
      </trkpt>
      <trkpt lat="43.22414" lon="5.48714">
        <ele>357.5</ele>
        <time>2025-10-18T08:19:34Z</time>
      </trkpt>
      <trkpt lat="43.22415" lon="5.48713">
        <ele>357.5</ele>
        <time>2025-10-18T08:19:35Z</time>
      </trkpt>
      <trkpt lat="43.22415" lon="5.48711">
        <ele>357.6</ele>
        <time>2025-10-18T08:19:36Z</time>
      </trkpt>
      <trkpt lat="43.22416" lon="5.4871">
        <ele>357.6</ele>
        <time>2025-10-18T08:19:37Z</time>
      </trkpt>
      <trkpt lat="43.22416" lon="5.48709">
        <ele>357.5</ele>
        <time>2025-10-18T08:19:38Z</time>
      </trkpt>
      <trkpt lat="43.22417" lon="5.48707">
        <ele>357.4</ele>
        <time>2025-10-18T08:19:39Z</time>
      </trkpt>
      <trkpt lat="43.22417" lon="5.48706">
        <ele>357.3</ele>
        <time>2025-10-18T08:19:40Z</time>
      </trkpt>
      <trkpt lat="43.22417" lon="5.48705">
        <ele>357.3</ele>
        <time>2025-10-18T08:19:41Z</time>
      </trkpt>
      <trkpt lat="43.22418" lon="5.48704">
        <ele>357.4</ele>
        <time>2025-10-18T08:19:42Z</time>
      </trkpt>
      <trkpt lat="43.22418" lon="5.48703">
        <ele>357.4</ele>
        <time>2025-10-18T08:19:43Z</time>
      </trkpt>
      <trkpt lat="43.22418" lon="5.48702">
        <ele>357.5</ele>
        <time>2025-10-18T08:19:44Z</time>
      </trkpt>
      <trkpt lat="43.22419" lon="5.48701">
        <ele>357.5</ele>
        <time>2025-10-18T08:19:45Z</time>
      </trkpt>
      <trkpt lat="43.22419" lon="5.48699">
        <ele>357.5</ele>
        <time>2025-10-18T08:19:46Z</time>
      </trkpt>
      <trkpt lat="43.22419" lon="5.48698">
        <ele>357.6</ele>
        <time>2025-10-18T08:19:47Z</time>
      </trkpt>
      <trkpt lat="43.2242" lon="5.48697">
        <ele>357.7</ele>
        <time>2025-10-18T08:19:48Z</time>
      </trkpt>
      <trkpt lat="43.2242" lon="5.48696">
        <ele>357.8</ele>
        <time>2025-10-18T08:19:49Z</time>
      </trkpt>
      <trkpt lat="43.22421" lon="5.48695">
        <ele>357.9</ele>
        <time>2025-10-18T08:19:50Z</time>
      </trkpt>
      <trkpt lat="43.22421" lon="5.48694">
        <ele>357.9</ele>
        <time>2025-10-18T08:19:51Z</time>
      </trkpt>
      <trkpt lat="43.22421" lon="5.48693">
        <ele>358.1</ele>
        <time>2025-10-18T08:19:52Z</time>
      </trkpt>
      <trkpt lat="43.22422" lon="5.48692">
        <ele>358.2</ele>
        <time>2025-10-18T08:19:53Z</time>
      </trkpt>
      <trkpt lat="43.22422" lon="5.48691">
        <ele>358.4</ele>
        <time>2025-10-18T08:19:54Z</time>
      </trkpt>
      <trkpt lat="43.22423" lon="5.48689">
        <ele>358.5</ele>
        <time>2025-10-18T08:19:55Z</time>
      </trkpt>
      <trkpt lat="43.22423" lon="5.48688">
        <ele>358.6</ele>
        <time>2025-10-18T08:19:56Z</time>
      </trkpt>
      <trkpt lat="43.22423" lon="5.48687">
        <ele>358.6</ele>
        <time>2025-10-18T08:19:57Z</time>
      </trkpt>
      <trkpt lat="43.22423" lon="5.48686">
        <ele>358.7</ele>
        <time>2025-10-18T08:19:58Z</time>
      </trkpt>
      <trkpt lat="43.22424" lon="5.48685">
        <ele>358.7</ele>
        <time>2025-10-18T08:19:59Z</time>
      </trkpt>
      <trkpt lat="43.22424" lon="5.48684">
        <ele>358.8</ele>
        <time>2025-10-18T08:20:00Z</time>
      </trkpt>
      <trkpt lat="43.22424" lon="5.48683">
        <ele>358.8</ele>
        <time>2025-10-18T08:20:01Z</time>
      </trkpt>
      <trkpt lat="43.22424" lon="5.48682">
        <ele>359</ele>
        <time>2025-10-18T08:20:02Z</time>
      </trkpt>
      <trkpt lat="43.22424" lon="5.48681">
        <ele>359</ele>
        <time>2025-10-18T08:20:03Z</time>
      </trkpt>
      <trkpt lat="43.22424" lon="5.4868">
        <ele>359</ele>
        <time>2025-10-18T08:20:04Z</time>
      </trkpt>
      <trkpt lat="43.22425" lon="5.48678">
        <ele>359</ele>
        <time>2025-10-18T08:20:05Z</time>
      </trkpt>
      <trkpt lat="43.22425" lon="5.48677">
        <ele>359</ele>
        <time>2025-10-18T08:20:06Z</time>
      </trkpt>
      <trkpt lat="43.22425" lon="5.48676">
        <ele>359.2</ele>
        <time>2025-10-18T08:20:07Z</time>
      </trkpt>
      <trkpt lat="43.22426" lon="5.48675">
        <ele>359.2</ele>
        <time>2025-10-18T08:20:08Z</time>
      </trkpt>
      <trkpt lat="43.22426" lon="5.48674">
        <ele>359.4</ele>
        <time>2025-10-18T08:20:09Z</time>
      </trkpt>
      <trkpt lat="43.22427" lon="5.48673">
        <ele>359.5</ele>
        <time>2025-10-18T08:20:10Z</time>
      </trkpt>
      <trkpt lat="43.22427" lon="5.48672">
        <ele>359.7</ele>
        <time>2025-10-18T08:20:11Z</time>
      </trkpt>
      <trkpt lat="43.22428" lon="5.48671">
        <ele>359.9</ele>
        <time>2025-10-18T08:20:12Z</time>
      </trkpt>
      <trkpt lat="43.22428" lon="5.4867">
        <ele>360</ele>
        <time>2025-10-18T08:20:13Z</time>
      </trkpt>
      <trkpt lat="43.22429" lon="5.48668">
        <ele>360.1</ele>
        <time>2025-10-18T08:20:14Z</time>
      </trkpt>
      <trkpt lat="43.22429" lon="5.48667">
        <ele>360.3</ele>
        <time>2025-10-18T08:20:15Z</time>
      </trkpt>
      <trkpt lat="43.22429" lon="5.48666">
        <ele>360.4</ele>
        <time>2025-10-18T08:20:16Z</time>
      </trkpt>
      <trkpt lat="43.2243" lon="5.48665">
        <ele>360.5</ele>
        <time>2025-10-18T08:20:17Z</time>
      </trkpt>
      <trkpt lat="43.2243" lon="5.48664">
        <ele>360.7</ele>
        <time>2025-10-18T08:20:18Z</time>
      </trkpt>
      <trkpt lat="43.22431" lon="5.48663">
        <ele>360.8</ele>
        <time>2025-10-18T08:20:19Z</time>
      </trkpt>
      <trkpt lat="43.22431" lon="5.48662">
        <ele>360.9</ele>
        <time>2025-10-18T08:20:20Z</time>
      </trkpt>
      <trkpt lat="43.22431" lon="5.48661">
        <ele>361</ele>
        <time>2025-10-18T08:20:21Z</time>
      </trkpt>
      <trkpt lat="43.22431" lon="5.4866">
        <ele>361.1</ele>
        <time>2025-10-18T08:20:22Z</time>
      </trkpt>
      <trkpt lat="43.22432" lon="5.48658">
        <ele>361.2</ele>
        <time>2025-10-18T08:20:23Z</time>
      </trkpt>
      <trkpt lat="43.22433" lon="5.48657">
        <ele>361.3</ele>
        <time>2025-10-18T08:20:24Z</time>
      </trkpt>
      <trkpt lat="43.22433" lon="5.48656">
        <ele>361.4</ele>
        <time>2025-10-18T08:20:25Z</time>
      </trkpt>
      <trkpt lat="43.22433" lon="5.48655">
        <ele>361.5</ele>
        <time>2025-10-18T08:20:26Z</time>
      </trkpt>
      <trkpt lat="43.22433" lon="5.48654">
        <ele>361.6</ele>
        <time>2025-10-18T08:20:27Z</time>
      </trkpt>
      <trkpt lat="43.22434" lon="5.48654">
        <ele>361.8</ele>
        <time>2025-10-18T08:20:28Z</time>
      </trkpt>
      <trkpt lat="43.22434" lon="5.48653">
        <ele>361.9</ele>
        <time>2025-10-18T08:20:29Z</time>
      </trkpt>
      <trkpt lat="43.22434" lon="5.48652">
        <ele>362</ele>
        <time>2025-10-18T08:20:30Z</time>
      </trkpt>
      <trkpt lat="43.22434" lon="5.48651">
        <ele>362.1</ele>
        <time>2025-10-18T08:20:31Z</time>
      </trkpt>
      <trkpt lat="43.22435" lon="5.4865">
        <ele>362.1</ele>
        <time>2025-10-18T08:20:32Z</time>
      </trkpt>
      <trkpt lat="43.22435" lon="5.48649">
        <ele>362.2</ele>
        <time>2025-10-18T08:20:33Z</time>
      </trkpt>
      <trkpt lat="43.22435" lon="5.48648">
        <ele>362.3</ele>
        <time>2025-10-18T08:20:34Z</time>
      </trkpt>
      <trkpt lat="43.22436" lon="5.48646">
        <ele>362.4</ele>
        <time>2025-10-18T08:20:35Z</time>
      </trkpt>
      <trkpt lat="43.22437" lon="5.48645">
        <ele>362.5</ele>
        <time>2025-10-18T08:20:36Z</time>
      </trkpt>
      <trkpt lat="43.22437" lon="5.48644">
        <ele>362.6</ele>
        <time>2025-10-18T08:20:37Z</time>
      </trkpt>
      <trkpt lat="43.22438" lon="5.48643">
        <ele>362.6</ele>
        <time>2025-10-18T08:20:38Z</time>
      </trkpt>
      <trkpt lat="43.22438" lon="5.48642">
        <ele>362.6</ele>
        <time>2025-10-18T08:20:39Z</time>
      </trkpt>
      <trkpt lat="43.22438" lon="5.48641">
        <ele>362.7</ele>
        <time>2025-10-18T08:20:40Z</time>
      </trkpt>
      <trkpt lat="43.22439" lon="5.4864">
        <ele>362.7</ele>
        <time>2025-10-18T08:20:41Z</time>
      </trkpt>
      <trkpt lat="43.2244" lon="5.48639">
        <ele>362.7</ele>
        <time>2025-10-18T08:20:42Z</time>
      </trkpt>
      <trkpt lat="43.2244" lon="5.48638">
        <ele>362.7</ele>
        <time>2025-10-18T08:20:43Z</time>
      </trkpt>
      <trkpt lat="43.22441" lon="5.48638">
        <ele>362.6</ele>
        <time>2025-10-18T08:20:44Z</time>
      </trkpt>
      <trkpt lat="43.22442" lon="5.48637">
        <ele>362.7</ele>
        <time>2025-10-18T08:20:45Z</time>
      </trkpt>
      <trkpt lat="43.22442" lon="5.48636">
        <ele>362.7</ele>
        <time>2025-10-18T08:20:46Z</time>
      </trkpt>
      <trkpt lat="43.22443" lon="5.48635">
        <ele>362.8</ele>
        <time>2025-10-18T08:20:47Z</time>
      </trkpt>
      <trkpt lat="43.22444" lon="5.48634">
        <ele>362.9</ele>
        <time>2025-10-18T08:20:48Z</time>
      </trkpt>
      <trkpt lat="43.22444" lon="5.48633">
        <ele>362.9</ele>
        <time>2025-10-18T08:20:49Z</time>
      </trkpt>
      <trkpt lat="43.22444" lon="5.48632">
        <ele>362.9</ele>
        <time>2025-10-18T08:20:50Z</time>
      </trkpt>
      <trkpt lat="43.22445" lon="5.48632">
        <ele>363</ele>
        <time>2025-10-18T08:20:51Z</time>
      </trkpt>
      <trkpt lat="43.22446" lon="5.48631">
        <ele>363</ele>
        <time>2025-10-18T08:20:52Z</time>
      </trkpt>
      <trkpt lat="43.22446" lon="5.48631">
        <ele>363.1</ele>
        <time>2025-10-18T08:20:53Z</time>
      </trkpt>
      <trkpt lat="43.22447" lon="5.4863">
        <ele>363</ele>
        <time>2025-10-18T08:20:54Z</time>
      </trkpt>
      <trkpt lat="43.22447" lon="5.4863">
        <ele>363.1</ele>
        <time>2025-10-18T08:20:55Z</time>
      </trkpt>
      <trkpt lat="43.22448" lon="5.48629">
        <ele>363.4</ele>
        <time>2025-10-18T08:20:56Z</time>
      </trkpt>
      <trkpt lat="43.22448" lon="5.48628">
        <ele>363.4</ele>
        <time>2025-10-18T08:20:57Z</time>
      </trkpt>
      <trkpt lat="43.22449" lon="5.48627">
        <ele>363.6</ele>
        <time>2025-10-18T08:20:58Z</time>
      </trkpt>
      <trkpt lat="43.22449" lon="5.48626">
        <ele>363.8</ele>
        <time>2025-10-18T08:20:59Z</time>
      </trkpt>
      <trkpt lat="43.22449" lon="5.48626">
        <ele>363.9</ele>
        <time>2025-10-18T08:21:00Z</time>
      </trkpt>
      <trkpt lat="43.22449" lon="5.48625">
        <ele>364</ele>
        <time>2025-10-18T08:21:01Z</time>
      </trkpt>
      <trkpt lat="43.2245" lon="5.48623">
        <ele>364</ele>
        <time>2025-10-18T08:21:02Z</time>
      </trkpt>
      <trkpt lat="43.2245" lon="5.48622">
        <ele>364.1</ele>
        <time>2025-10-18T08:21:03Z</time>
      </trkpt>
      <trkpt lat="43.2245" lon="5.48621">
        <ele>364.1</ele>
        <time>2025-10-18T08:21:04Z</time>
      </trkpt>
      <trkpt lat="43.2245" lon="5.48621">
        <ele>364.2</ele>
        <time>2025-10-18T08:21:05Z</time>
      </trkpt>
      <trkpt lat="43.2245" lon="5.4862">
        <ele>364.2</ele>
        <time>2025-10-18T08:21:06Z</time>
      </trkpt>
      <trkpt lat="43.2245" lon="5.48619">
        <ele>364.3</ele>
        <time>2025-10-18T08:21:07Z</time>
      </trkpt>
      <trkpt lat="43.2245" lon="5.48618">
        <ele>364.3</ele>
        <time>2025-10-18T08:21:08Z</time>
      </trkpt>
      <trkpt lat="43.22449" lon="5.48617">
        <ele>364.5</ele>
        <time>2025-10-18T08:21:09Z</time>
      </trkpt>
      <trkpt lat="43.22449" lon="5.48616">
        <ele>364.6</ele>
        <time>2025-10-18T08:21:10Z</time>
      </trkpt>
      <trkpt lat="43.22449" lon="5.48615">
        <ele>364.7</ele>
        <time>2025-10-18T08:21:11Z</time>
      </trkpt>
      <trkpt lat="43.22448" lon="5.48614">
        <ele>364.8</ele>
        <time>2025-10-18T08:21:12Z</time>
      </trkpt>
      <trkpt lat="43.22448" lon="5.48613">
        <ele>365</ele>
        <time>2025-10-18T08:21:13Z</time>
      </trkpt>
      <trkpt lat="43.22448" lon="5.48612">
        <ele>365</ele>
        <time>2025-10-18T08:21:14Z</time>
      </trkpt>
      <trkpt lat="43.22447" lon="5.48611">
        <ele>365.1</ele>
        <time>2025-10-18T08:21:15Z</time>
      </trkpt>
      <trkpt lat="43.22447" lon="5.48609">
        <ele>365.1</ele>
        <time>2025-10-18T08:21:16Z</time>
      </trkpt>
      <trkpt lat="43.22447" lon="5.48608">
        <ele>365.2</ele>
        <time>2025-10-18T08:21:17Z</time>
      </trkpt>
      <trkpt lat="43.22446" lon="5.48607">
        <ele>365.3</ele>
        <time>2025-10-18T08:21:18Z</time>
      </trkpt>
      <trkpt lat="43.22446" lon="5.48606">
        <ele>365.3</ele>
        <time>2025-10-18T08:21:19Z</time>
      </trkpt>
      <trkpt lat="43.22446" lon="5.48605">
        <ele>365.5</ele>
        <time>2025-10-18T08:21:20Z</time>
      </trkpt>
      <trkpt lat="43.22445" lon="5.48604">
        <ele>365.6</ele>
        <time>2025-10-18T08:21:21Z</time>
      </trkpt>
      <trkpt lat="43.22445" lon="5.48603">
        <ele>365.7</ele>
        <time>2025-10-18T08:21:22Z</time>
      </trkpt>
      <trkpt lat="43.22445" lon="5.48602">
        <ele>365.7</ele>
        <time>2025-10-18T08:21:23Z</time>
      </trkpt>
      <trkpt lat="43.22444" lon="5.48601">
        <ele>365.8</ele>
        <time>2025-10-18T08:21:24Z</time>
      </trkpt>
      <trkpt lat="43.22444" lon="5.486">
        <ele>365.8</ele>
        <time>2025-10-18T08:21:25Z</time>
      </trkpt>
      <trkpt lat="43.22443" lon="5.48599">
        <ele>365.8</ele>
        <time>2025-10-18T08:21:26Z</time>
      </trkpt>
      <trkpt lat="43.22442" lon="5.48598">
        <ele>365.8</ele>
        <time>2025-10-18T08:21:27Z</time>
      </trkpt>
      <trkpt lat="43.22442" lon="5.48597">
        <ele>365.8</ele>
        <time>2025-10-18T08:21:28Z</time>
      </trkpt>
      <trkpt lat="43.22441" lon="5.48597">
        <ele>365.7</ele>
        <time>2025-10-18T08:21:29Z</time>
      </trkpt>
      <trkpt lat="43.22441" lon="5.48597">
        <ele>365.7</ele>
        <time>2025-10-18T08:21:30Z</time>
      </trkpt>
      <trkpt lat="43.22441" lon="5.48597">
        <ele>365.7</ele>
        <time>2025-10-18T08:21:31Z</time>
      </trkpt>
      <trkpt lat="43.2244" lon="5.48596">
        <ele>365.7</ele>
        <time>2025-10-18T08:21:32Z</time>
      </trkpt>
      <trkpt lat="43.22439" lon="5.48596">
        <ele>365.8</ele>
        <time>2025-10-18T08:21:33Z</time>
      </trkpt>
      <trkpt lat="43.22438" lon="5.48596">
        <ele>365.8</ele>
        <time>2025-10-18T08:21:34Z</time>
      </trkpt>
      <trkpt lat="43.22437" lon="5.48596">
        <ele>365.9</ele>
        <time>2025-10-18T08:21:35Z</time>
      </trkpt>
      <trkpt lat="43.22436" lon="5.48596">
        <ele>365.8</ele>
        <time>2025-10-18T08:21:36Z</time>
      </trkpt>
      <trkpt lat="43.22436" lon="5.48596">
        <ele>365.9</ele>
        <time>2025-10-18T08:21:37Z</time>
      </trkpt>
      <trkpt lat="43.22435" lon="5.48596">
        <ele>365.9</ele>
        <time>2025-10-18T08:21:38Z</time>
      </trkpt>
      <trkpt lat="43.22435" lon="5.48596">
        <ele>365.8</ele>
        <time>2025-10-18T08:21:39Z</time>
      </trkpt>
      <trkpt lat="43.22434" lon="5.48596">
        <ele>365.8</ele>
        <time>2025-10-18T08:21:40Z</time>
      </trkpt>
      <trkpt lat="43.22434" lon="5.48596">
        <ele>365.8</ele>
        <time>2025-10-18T08:21:41Z</time>
      </trkpt>
      <trkpt lat="43.22434" lon="5.48596">
        <ele>365.7</ele>
        <time>2025-10-18T08:21:42Z</time>
      </trkpt>
      <trkpt lat="43.22433" lon="5.48596">
        <ele>365.7</ele>
        <time>2025-10-18T08:21:43Z</time>
      </trkpt>
      <trkpt lat="43.22433" lon="5.48595">
        <ele>365.6</ele>
        <time>2025-10-18T08:21:44Z</time>
      </trkpt>
      <trkpt lat="43.22433" lon="5.48595">
        <ele>365.6</ele>
        <time>2025-10-18T08:21:45Z</time>
      </trkpt>
      <trkpt lat="43.22433" lon="5.48595">
        <ele>365.7</ele>
        <time>2025-10-18T08:21:46Z</time>
      </trkpt>
      <trkpt lat="43.22433" lon="5.48595">
        <ele>365.8</ele>
        <time>2025-10-18T08:21:47Z</time>
      </trkpt>
      <trkpt lat="43.22432" lon="5.48594">
        <ele>365.8</ele>
        <time>2025-10-18T08:21:48Z</time>
      </trkpt>
      <trkpt lat="43.22432" lon="5.48594">
        <ele>365.8</ele>
        <time>2025-10-18T08:21:49Z</time>
      </trkpt>
      <trkpt lat="43.22432" lon="5.48594">
        <ele>365.8</ele>
        <time>2025-10-18T08:21:50Z</time>
      </trkpt>
      <trkpt lat="43.22432" lon="5.48594">
        <ele>365.8</ele>
        <time>2025-10-18T08:21:51Z</time>
      </trkpt>
      <trkpt lat="43.22433" lon="5.48594">
        <ele>365.8</ele>
        <time>2025-10-18T08:21:52Z</time>
      </trkpt>
      <trkpt lat="43.22433" lon="5.48594">
        <ele>365.8</ele>
        <time>2025-10-18T08:21:53Z</time>
      </trkpt>
      <trkpt lat="43.22433" lon="5.48594">
        <ele>365.8</ele>
        <time>2025-10-18T08:21:54Z</time>
      </trkpt>
      <trkpt lat="43.22433" lon="5.48593">
        <ele>365.9</ele>
        <time>2025-10-18T08:21:55Z</time>
      </trkpt>
      <trkpt lat="43.22433" lon="5.48592">
        <ele>366</ele>
        <time>2025-10-18T08:21:56Z</time>
      </trkpt>
      <trkpt lat="43.22433" lon="5.48592">
        <ele>366.1</ele>
        <time>2025-10-18T08:21:57Z</time>
      </trkpt>
      <trkpt lat="43.22433" lon="5.48591">
        <ele>366.2</ele>
        <time>2025-10-18T08:21:58Z</time>
      </trkpt>
      <trkpt lat="43.22433" lon="5.48591">
        <ele>366.2</ele>
        <time>2025-10-18T08:21:59Z</time>
      </trkpt>
      <trkpt lat="43.22433" lon="5.4859">
        <ele>366.3</ele>
        <time>2025-10-18T08:22:00Z</time>
      </trkpt>
      <trkpt lat="43.22433" lon="5.4859">
        <ele>366.5</ele>
        <time>2025-10-18T08:22:01Z</time>
      </trkpt>
      <trkpt lat="43.22433" lon="5.4859">
        <ele>366.7</ele>
        <time>2025-10-18T08:22:02Z</time>
      </trkpt>
      <trkpt lat="43.22433" lon="5.4859">
        <ele>366.8</ele>
        <time>2025-10-18T08:22:03Z</time>
      </trkpt>
      <trkpt lat="43.22433" lon="5.4859">
        <ele>366.9</ele>
        <time>2025-10-18T08:22:04Z</time>
      </trkpt>
      <trkpt lat="43.22433" lon="5.4859">
        <ele>366.9</ele>
        <time>2025-10-18T08:22:05Z</time>
      </trkpt>
      <trkpt lat="43.22432" lon="5.4859">
        <ele>366.8</ele>
        <time>2025-10-18T08:22:06Z</time>
      </trkpt>
      <trkpt lat="43.22432" lon="5.4859">
        <ele>366.7</ele>
        <time>2025-10-18T08:22:07Z</time>
      </trkpt>
      <trkpt lat="43.22432" lon="5.48589">
        <ele>366.7</ele>
        <time>2025-10-18T08:22:08Z</time>
      </trkpt>
      <trkpt lat="43.22433" lon="5.48589">
        <ele>366.9</ele>
        <time>2025-10-18T08:22:09Z</time>
      </trkpt>
      <trkpt lat="43.22433" lon="5.48589">
        <ele>366.9</ele>
        <time>2025-10-18T08:22:10Z</time>
      </trkpt>
      <trkpt lat="43.22433" lon="5.48589">
        <ele>366.9</ele>
        <time>2025-10-18T08:22:11Z</time>
      </trkpt>
      <trkpt lat="43.22433" lon="5.48589">
        <ele>366.9</ele>
        <time>2025-10-18T08:22:12Z</time>
      </trkpt>
      <trkpt lat="43.22433" lon="5.48589">
        <ele>366.9</ele>
        <time>2025-10-18T08:22:13Z</time>
      </trkpt>
      <trkpt lat="43.22433" lon="5.48589">
        <ele>366.8</ele>
        <time>2025-10-18T08:22:14Z</time>
      </trkpt>
      <trkpt lat="43.22433" lon="5.48589">
        <ele>366.8</ele>
        <time>2025-10-18T08:22:15Z</time>
      </trkpt>
      <trkpt lat="43.22433" lon="5.48589">
        <ele>366.8</ele>
        <time>2025-10-18T08:22:16Z</time>
      </trkpt>
      <trkpt lat="43.22433" lon="5.48589">
        <ele>366.8</ele>
        <time>2025-10-18T08:22:17Z</time>
      </trkpt>
      <trkpt lat="43.22433" lon="5.48589">
        <ele>366.8</ele>
        <time>2025-10-18T08:22:18Z</time>
      </trkpt>
      <trkpt lat="43.22433" lon="5.48589">
        <ele>366.8</ele>
        <time>2025-10-18T08:22:19Z</time>
      </trkpt>
      <trkpt lat="43.22433" lon="5.48589">
        <ele>366.8</ele>
        <time>2025-10-18T08:22:20Z</time>
      </trkpt>
      <trkpt lat="43.22433" lon="5.48589">
        <ele>366.8</ele>
        <time>2025-10-18T08:22:21Z</time>
      </trkpt>
      <trkpt lat="43.22433" lon="5.48589">
        <ele>366.8</ele>
        <time>2025-10-18T08:22:22Z</time>
      </trkpt>
      <trkpt lat="43.22433" lon="5.48589">
        <ele>366.8</ele>
        <time>2025-10-18T08:22:23Z</time>
      </trkpt>
      <trkpt lat="43.22433" lon="5.48589">
        <ele>366.8</ele>
        <time>2025-10-18T08:22:24Z</time>
      </trkpt>
      <trkpt lat="43.22433" lon="5.48589">
        <ele>366.8</ele>
        <time>2025-10-18T08:22:25Z</time>
      </trkpt>
      <trkpt lat="43.22433" lon="5.48589">
        <ele>366.7</ele>
        <time>2025-10-18T08:22:26Z</time>
      </trkpt>
      <trkpt lat="43.22433" lon="5.48589">
        <ele>366.7</ele>
        <time>2025-10-18T08:22:27Z</time>
      </trkpt>
      <trkpt lat="43.22433" lon="5.48589">
        <ele>366.6</ele>
        <time>2025-10-18T08:22:28Z</time>
      </trkpt>
      <trkpt lat="43.22433" lon="5.48589">
        <ele>366.6</ele>
        <time>2025-10-18T08:22:29Z</time>
      </trkpt>
      <trkpt lat="43.22433" lon="5.48589">
        <ele>366.6</ele>
        <time>2025-10-18T08:22:30Z</time>
      </trkpt>
      <trkpt lat="43.22433" lon="5.48588">
        <ele>366.6</ele>
        <time>2025-10-18T08:22:31Z</time>
      </trkpt>
      <trkpt lat="43.22432" lon="5.48588">
        <ele>366.6</ele>
        <time>2025-10-18T08:22:32Z</time>
      </trkpt>
      <trkpt lat="43.22432" lon="5.48588">
        <ele>366.6</ele>
        <time>2025-10-18T08:22:33Z</time>
      </trkpt>
      <trkpt lat="43.22432" lon="5.48588">
        <ele>366.7</ele>
        <time>2025-10-18T08:22:34Z</time>
      </trkpt>
      <trkpt lat="43.22432" lon="5.48588">
        <ele>366.6</ele>
        <time>2025-10-18T08:22:35Z</time>
      </trkpt>
      <trkpt lat="43.22432" lon="5.48588">
        <ele>366.6</ele>
        <time>2025-10-18T08:22:36Z</time>
      </trkpt>
      <trkpt lat="43.22432" lon="5.48588">
        <ele>366.6</ele>
        <time>2025-10-18T08:22:37Z</time>
      </trkpt>
      <trkpt lat="43.22431" lon="5.48588">
        <ele>366.6</ele>
        <time>2025-10-18T08:22:38Z</time>
      </trkpt>
      <trkpt lat="43.22431" lon="5.48588">
        <ele>366.7</ele>
        <time>2025-10-18T08:22:39Z</time>
      </trkpt>
      <trkpt lat="43.22431" lon="5.48589">
        <ele>366.7</ele>
        <time>2025-10-18T08:22:40Z</time>
      </trkpt>
      <trkpt lat="43.22431" lon="5.4859">
        <ele>366.6</ele>
        <time>2025-10-18T08:22:41Z</time>
      </trkpt>
      <trkpt lat="43.22431" lon="5.4859">
        <ele>366.5</ele>
        <time>2025-10-18T08:22:42Z</time>
      </trkpt>
      <trkpt lat="43.22431" lon="5.4859">
        <ele>366.4</ele>
        <time>2025-10-18T08:22:43Z</time>
      </trkpt>
      <trkpt lat="43.22431" lon="5.4859">
        <ele>366.3</ele>
        <time>2025-10-18T08:22:44Z</time>
      </trkpt>
      <trkpt lat="43.2243" lon="5.4859">
        <ele>366.2</ele>
        <time>2025-10-18T08:22:45Z</time>
      </trkpt>
      <trkpt lat="43.2243" lon="5.48591">
        <ele>366.2</ele>
        <time>2025-10-18T08:22:46Z</time>
      </trkpt>
      <trkpt lat="43.22429" lon="5.48591">
        <ele>366.1</ele>
        <time>2025-10-18T08:22:47Z</time>
      </trkpt>
      <trkpt lat="43.22429" lon="5.48592">
        <ele>365.7</ele>
        <time>2025-10-18T08:22:48Z</time>
      </trkpt>
      <trkpt lat="43.22428" lon="5.48593">
        <ele>365.5</ele>
        <time>2025-10-18T08:22:49Z</time>
      </trkpt>
      <trkpt lat="43.22428" lon="5.48593">
        <ele>365.3</ele>
        <time>2025-10-18T08:22:50Z</time>
      </trkpt>
      <trkpt lat="43.22427" lon="5.48593">
        <ele>365.1</ele>
        <time>2025-10-18T08:22:51Z</time>
      </trkpt>
      <trkpt lat="43.22426" lon="5.48593">
        <ele>365.1</ele>
        <time>2025-10-18T08:22:52Z</time>
      </trkpt>
      <trkpt lat="43.22426" lon="5.48593">
        <ele>365.1</ele>
        <time>2025-10-18T08:22:53Z</time>
      </trkpt>
      <trkpt lat="43.22426" lon="5.48594">
        <ele>365</ele>
        <time>2025-10-18T08:22:54Z</time>
      </trkpt>
      <trkpt lat="43.22426" lon="5.48594">
        <ele>364.9</ele>
        <time>2025-10-18T08:22:55Z</time>
      </trkpt>
      <trkpt lat="43.22426" lon="5.48594">
        <ele>364.8</ele>
        <time>2025-10-18T08:22:56Z</time>
      </trkpt>
      <trkpt lat="43.22426" lon="5.48595">
        <ele>364.7</ele>
        <time>2025-10-18T08:22:57Z</time>
      </trkpt>
      <trkpt lat="43.22426" lon="5.48595">
        <ele>364.6</ele>
        <time>2025-10-18T08:22:58Z</time>
      </trkpt>
      <trkpt lat="43.22426" lon="5.48595">
        <ele>364.7</ele>
        <time>2025-10-18T08:22:59Z</time>
      </trkpt>
      <trkpt lat="43.22426" lon="5.48595">
        <ele>364.7</ele>
        <time>2025-10-18T08:23:00Z</time>
      </trkpt>
      <trkpt lat="43.22426" lon="5.48596">
        <ele>364.7</ele>
        <time>2025-10-18T08:23:01Z</time>
      </trkpt>
      <trkpt lat="43.22426" lon="5.48596">
        <ele>364.7</ele>
        <time>2025-10-18T08:23:02Z</time>
      </trkpt>
      <trkpt lat="43.22425" lon="5.48596">
        <ele>364.8</ele>
        <time>2025-10-18T08:23:03Z</time>
      </trkpt>
      <trkpt lat="43.22425" lon="5.48596">
        <ele>364.8</ele>
        <time>2025-10-18T08:23:04Z</time>
      </trkpt>
      <trkpt lat="43.22425" lon="5.48596">
        <ele>364.8</ele>
        <time>2025-10-18T08:23:05Z</time>
      </trkpt>
      <trkpt lat="43.22425" lon="5.48596">
        <ele>364.8</ele>
        <time>2025-10-18T08:23:06Z</time>
      </trkpt>
      <trkpt lat="43.22425" lon="5.48597">
        <ele>364.8</ele>
        <time>2025-10-18T08:23:07Z</time>
      </trkpt>
      <trkpt lat="43.22425" lon="5.48597">
        <ele>364.8</ele>
        <time>2025-10-18T08:23:08Z</time>
      </trkpt>
      <trkpt lat="43.22425" lon="5.48597">
        <ele>364.7</ele>
        <time>2025-10-18T08:23:09Z</time>
      </trkpt>
      <trkpt lat="43.22425" lon="5.48597">
        <ele>364.8</ele>
        <time>2025-10-18T08:23:10Z</time>
      </trkpt>
      <trkpt lat="43.22425" lon="5.48597">
        <ele>364.6</ele>
        <time>2025-10-18T08:23:11Z</time>
      </trkpt>
      <trkpt lat="43.22425" lon="5.48597">
        <ele>364.8</ele>
        <time>2025-10-18T08:23:12Z</time>
      </trkpt>
      <trkpt lat="43.22425" lon="5.48597">
        <ele>364.7</ele>
        <time>2025-10-18T08:23:13Z</time>
      </trkpt>
      <trkpt lat="43.22425" lon="5.48597">
        <ele>364.6</ele>
        <time>2025-10-18T08:23:14Z</time>
      </trkpt>
      <trkpt lat="43.22425" lon="5.48598">
        <ele>364.6</ele>
        <time>2025-10-18T08:23:15Z</time>
      </trkpt>
      <trkpt lat="43.22425" lon="5.48598">
        <ele>364.5</ele>
        <time>2025-10-18T08:23:16Z</time>
      </trkpt>
      <trkpt lat="43.22425" lon="5.48598">
        <ele>364.5</ele>
        <time>2025-10-18T08:23:17Z</time>
      </trkpt>
      <trkpt lat="43.22425" lon="5.48597">
        <ele>364.5</ele>
        <time>2025-10-18T08:23:18Z</time>
      </trkpt>
      <trkpt lat="43.22424" lon="5.48597">
        <ele>364.4</ele>
        <time>2025-10-18T08:23:19Z</time>
      </trkpt>
      <trkpt lat="43.22424" lon="5.48597">
        <ele>364.3</ele>
        <time>2025-10-18T08:23:20Z</time>
      </trkpt>
      <trkpt lat="43.22423" lon="5.48598">
        <ele>364.3</ele>
        <time>2025-10-18T08:23:21Z</time>
      </trkpt>
      <trkpt lat="43.22423" lon="5.48598">
        <ele>364.3</ele>
        <time>2025-10-18T08:23:22Z</time>
      </trkpt>
      <trkpt lat="43.22423" lon="5.48598">
        <ele>364.2</ele>
        <time>2025-10-18T08:23:23Z</time>
      </trkpt>
      <trkpt lat="43.22422" lon="5.48598">
        <ele>364.1</ele>
        <time>2025-10-18T08:23:24Z</time>
      </trkpt>
      <trkpt lat="43.22422" lon="5.48598">
        <ele>364.1</ele>
        <time>2025-10-18T08:23:25Z</time>
      </trkpt>
      <trkpt lat="43.22422" lon="5.48598">
        <ele>364.1</ele>
        <time>2025-10-18T08:23:26Z</time>
      </trkpt>
      <trkpt lat="43.22422" lon="5.48598">
        <ele>364</ele>
        <time>2025-10-18T08:23:27Z</time>
      </trkpt>
      <trkpt lat="43.22421" lon="5.48598">
        <ele>363.8</ele>
        <time>2025-10-18T08:23:28Z</time>
      </trkpt>
      <trkpt lat="43.2242" lon="5.48598">
        <ele>363.7</ele>
        <time>2025-10-18T08:23:29Z</time>
      </trkpt>
      <trkpt lat="43.22419" lon="5.48598">
        <ele>363.6</ele>
        <time>2025-10-18T08:23:30Z</time>
      </trkpt>
      <trkpt lat="43.22418" lon="5.48599">
        <ele>363.6</ele>
        <time>2025-10-18T08:23:31Z</time>
      </trkpt>
      <trkpt lat="43.22417" lon="5.48599">
        <ele>363.5</ele>
        <time>2025-10-18T08:23:32Z</time>
      </trkpt>
      <trkpt lat="43.22416" lon="5.486">
        <ele>363.5</ele>
        <time>2025-10-18T08:23:33Z</time>
      </trkpt>
      <trkpt lat="43.22415" lon="5.48601">
        <ele>363.4</ele>
        <time>2025-10-18T08:23:34Z</time>
      </trkpt>
      <trkpt lat="43.22414" lon="5.48601">
        <ele>363.3</ele>
        <time>2025-10-18T08:23:35Z</time>
      </trkpt>
      <trkpt lat="43.22413" lon="5.48601">
        <ele>363.2</ele>
        <time>2025-10-18T08:23:36Z</time>
      </trkpt>
      <trkpt lat="43.22412" lon="5.48602">
        <ele>363.1</ele>
        <time>2025-10-18T08:23:37Z</time>
      </trkpt>
      <trkpt lat="43.22411" lon="5.48602">
        <ele>363</ele>
        <time>2025-10-18T08:23:38Z</time>
      </trkpt>
      <trkpt lat="43.22411" lon="5.48603">
        <ele>362.7</ele>
        <time>2025-10-18T08:23:39Z</time>
      </trkpt>
      <trkpt lat="43.22411" lon="5.48604">
        <ele>362.6</ele>
        <time>2025-10-18T08:23:40Z</time>
      </trkpt>
      <trkpt lat="43.22411" lon="5.48604">
        <ele>362.4</ele>
        <time>2025-10-18T08:23:41Z</time>
      </trkpt>
      <trkpt lat="43.2241" lon="5.48604">
        <ele>362.2</ele>
        <time>2025-10-18T08:23:42Z</time>
      </trkpt>
      <trkpt lat="43.22409" lon="5.48605">
        <ele>362</ele>
        <time>2025-10-18T08:23:43Z</time>
      </trkpt>
      <trkpt lat="43.22408" lon="5.48605">
        <ele>361.8</ele>
        <time>2025-10-18T08:23:44Z</time>
      </trkpt>
      <trkpt lat="43.22407" lon="5.48604">
        <ele>361.6</ele>
        <time>2025-10-18T08:23:45Z</time>
      </trkpt>
      <trkpt lat="43.22405" lon="5.48604">
        <ele>361.5</ele>
        <time>2025-10-18T08:23:46Z</time>
      </trkpt>
      <trkpt lat="43.22405" lon="5.48604">
        <ele>361.4</ele>
        <time>2025-10-18T08:23:47Z</time>
      </trkpt>
      <trkpt lat="43.22404" lon="5.48605">
        <ele>361.4</ele>
        <time>2025-10-18T08:23:48Z</time>
      </trkpt>
      <trkpt lat="43.22403" lon="5.48605">
        <ele>361.4</ele>
        <time>2025-10-18T08:23:49Z</time>
      </trkpt>
      <trkpt lat="43.22401" lon="5.48605">
        <ele>361.3</ele>
        <time>2025-10-18T08:23:50Z</time>
      </trkpt>
      <trkpt lat="43.224" lon="5.48606">
        <ele>361.1</ele>
        <time>2025-10-18T08:23:51Z</time>
      </trkpt>
      <trkpt lat="43.224" lon="5.48606">
        <ele>361</ele>
        <time>2025-10-18T08:23:52Z</time>
      </trkpt>
      <trkpt lat="43.22399" lon="5.48605">
        <ele>360.9</ele>
        <time>2025-10-18T08:23:53Z</time>
      </trkpt>
      <trkpt lat="43.22397" lon="5.48606">
        <ele>360.9</ele>
        <time>2025-10-18T08:23:54Z</time>
      </trkpt>
      <trkpt lat="43.22396" lon="5.48606">
        <ele>360.8</ele>
        <time>2025-10-18T08:23:55Z</time>
      </trkpt>
      <trkpt lat="43.22395" lon="5.48605">
        <ele>360.8</ele>
        <time>2025-10-18T08:23:56Z</time>
      </trkpt>
      <trkpt lat="43.22394" lon="5.48605">
        <ele>360.8</ele>
        <time>2025-10-18T08:23:57Z</time>
      </trkpt>
      <trkpt lat="43.22393" lon="5.48605">
        <ele>360.7</ele>
        <time>2025-10-18T08:23:58Z</time>
      </trkpt>
      <trkpt lat="43.22393" lon="5.48605">
        <ele>360.7</ele>
        <time>2025-10-18T08:23:59Z</time>
      </trkpt>
      <trkpt lat="43.22391" lon="5.48605">
        <ele>360.6</ele>
        <time>2025-10-18T08:24:00Z</time>
      </trkpt>
      <trkpt lat="43.22391" lon="5.48605">
        <ele>360.5</ele>
        <time>2025-10-18T08:24:01Z</time>
      </trkpt>
      <trkpt lat="43.2239" lon="5.48605">
        <ele>360.5</ele>
        <time>2025-10-18T08:24:02Z</time>
      </trkpt>
      <trkpt lat="43.22389" lon="5.48605">
        <ele>360.3</ele>
        <time>2025-10-18T08:24:03Z</time>
      </trkpt>
      <trkpt lat="43.22389" lon="5.48605">
        <ele>360.3</ele>
        <time>2025-10-18T08:24:04Z</time>
      </trkpt>
      <trkpt lat="43.22389" lon="5.48604">
        <ele>360.2</ele>
        <time>2025-10-18T08:24:05Z</time>
      </trkpt>
      <trkpt lat="43.22389" lon="5.48604">
        <ele>360</ele>
        <time>2025-10-18T08:24:06Z</time>
      </trkpt>
      <trkpt lat="43.22389" lon="5.48604">
        <ele>359.9</ele>
        <time>2025-10-18T08:24:07Z</time>
      </trkpt>
      <trkpt lat="43.22389" lon="5.48603">
        <ele>359.8</ele>
        <time>2025-10-18T08:24:08Z</time>
      </trkpt>
      <trkpt lat="43.22389" lon="5.48603">
        <ele>359.8</ele>
        <time>2025-10-18T08:24:09Z</time>
      </trkpt>
      <trkpt lat="43.22389" lon="5.48604">
        <ele>359.7</ele>
        <time>2025-10-18T08:24:10Z</time>
      </trkpt>
      <trkpt lat="43.22388" lon="5.48603">
        <ele>359.7</ele>
        <time>2025-10-18T08:24:11Z</time>
      </trkpt>
      <trkpt lat="43.22387" lon="5.48603">
        <ele>359.6</ele>
        <time>2025-10-18T08:24:12Z</time>
      </trkpt>
      <trkpt lat="43.22387" lon="5.48603">
        <ele>359.6</ele>
        <time>2025-10-18T08:24:13Z</time>
      </trkpt>
      <trkpt lat="43.22386" lon="5.48602">
        <ele>359.7</ele>
        <time>2025-10-18T08:24:14Z</time>
      </trkpt>
      <trkpt lat="43.22386" lon="5.48603">
        <ele>359.7</ele>
        <time>2025-10-18T08:24:15Z</time>
      </trkpt>
      <trkpt lat="43.22385" lon="5.48603">
        <ele>359.8</ele>
        <time>2025-10-18T08:24:16Z</time>
      </trkpt>
      <trkpt lat="43.22384" lon="5.48603">
        <ele>359.8</ele>
        <time>2025-10-18T08:24:17Z</time>
      </trkpt>
      <trkpt lat="43.22383" lon="5.48602">
        <ele>359.9</ele>
        <time>2025-10-18T08:24:18Z</time>
      </trkpt>
      <trkpt lat="43.22382" lon="5.48603">
        <ele>359.9</ele>
        <time>2025-10-18T08:24:19Z</time>
      </trkpt>
      <trkpt lat="43.22381" lon="5.48603">
        <ele>359.8</ele>
        <time>2025-10-18T08:24:20Z</time>
      </trkpt>
      <trkpt lat="43.2238" lon="5.48603">
        <ele>359.7</ele>
        <time>2025-10-18T08:24:21Z</time>
      </trkpt>
      <trkpt lat="43.22379" lon="5.48603">
        <ele>359.6</ele>
        <time>2025-10-18T08:24:22Z</time>
      </trkpt>
      <trkpt lat="43.22378" lon="5.48603">
        <ele>359.5</ele>
        <time>2025-10-18T08:24:23Z</time>
      </trkpt>
      <trkpt lat="43.22377" lon="5.48604">
        <ele>359.4</ele>
        <time>2025-10-18T08:24:24Z</time>
      </trkpt>
      <trkpt lat="43.22376" lon="5.48604">
        <ele>359.4</ele>
        <time>2025-10-18T08:24:25Z</time>
      </trkpt>
      <trkpt lat="43.22375" lon="5.48604">
        <ele>359.3</ele>
        <time>2025-10-18T08:24:26Z</time>
      </trkpt>
      <trkpt lat="43.22374" lon="5.48604">
        <ele>359.3</ele>
        <time>2025-10-18T08:24:27Z</time>
      </trkpt>
      <trkpt lat="43.22373" lon="5.48604">
        <ele>359.1</ele>
        <time>2025-10-18T08:24:28Z</time>
      </trkpt>
      <trkpt lat="43.22372" lon="5.48604">
        <ele>359</ele>
        <time>2025-10-18T08:24:29Z</time>
      </trkpt>
      <trkpt lat="43.2237" lon="5.48604">
        <ele>358.9</ele>
        <time>2025-10-18T08:24:30Z</time>
      </trkpt>
      <trkpt lat="43.22369" lon="5.48604">
        <ele>358.7</ele>
        <time>2025-10-18T08:24:31Z</time>
      </trkpt>
      <trkpt lat="43.22368" lon="5.48604">
        <ele>358.6</ele>
        <time>2025-10-18T08:24:32Z</time>
      </trkpt>
      <trkpt lat="43.22367" lon="5.48604">
        <ele>358.5</ele>
        <time>2025-10-18T08:24:33Z</time>
      </trkpt>
      <trkpt lat="43.22366" lon="5.48604">
        <ele>358.4</ele>
        <time>2025-10-18T08:24:34Z</time>
      </trkpt>
      <trkpt lat="43.22365" lon="5.48604">
        <ele>358.4</ele>
        <time>2025-10-18T08:24:35Z</time>
      </trkpt>
      <trkpt lat="43.22364" lon="5.48604">
        <ele>358.3</ele>
        <time>2025-10-18T08:24:36Z</time>
      </trkpt>
      <trkpt lat="43.22364" lon="5.48604">
        <ele>358.2</ele>
        <time>2025-10-18T08:24:37Z</time>
      </trkpt>
      <trkpt lat="43.22363" lon="5.48604">
        <ele>358.1</ele>
        <time>2025-10-18T08:24:38Z</time>
      </trkpt>
      <trkpt lat="43.22363" lon="5.48603">
        <ele>358</ele>
        <time>2025-10-18T08:24:39Z</time>
      </trkpt>
      <trkpt lat="43.22363" lon="5.48603">
        <ele>357.9</ele>
        <time>2025-10-18T08:24:40Z</time>
      </trkpt>
      <trkpt lat="43.22363" lon="5.48603">
        <ele>357.9</ele>
        <time>2025-10-18T08:24:41Z</time>
      </trkpt>
      <trkpt lat="43.22363" lon="5.48603">
        <ele>357.9</ele>
        <time>2025-10-18T08:24:42Z</time>
      </trkpt>
      <trkpt lat="43.22363" lon="5.48603">
        <ele>357.9</ele>
        <time>2025-10-18T08:24:43Z</time>
      </trkpt>
      <trkpt lat="43.22363" lon="5.48603">
        <ele>357.9</ele>
        <time>2025-10-18T08:24:44Z</time>
      </trkpt>
      <trkpt lat="43.22363" lon="5.48603">
        <ele>357.9</ele>
        <time>2025-10-18T08:24:45Z</time>
      </trkpt>
      <trkpt lat="43.22363" lon="5.48603">
        <ele>357.9</ele>
        <time>2025-10-18T08:24:46Z</time>
      </trkpt>
      <trkpt lat="43.22363" lon="5.48603">
        <ele>357.9</ele>
        <time>2025-10-18T08:24:47Z</time>
      </trkpt>
      <trkpt lat="43.22363" lon="5.48603">
        <ele>357.9</ele>
        <time>2025-10-18T08:24:48Z</time>
      </trkpt>
      <trkpt lat="43.22363" lon="5.48602">
        <ele>357.9</ele>
        <time>2025-10-18T08:24:49Z</time>
      </trkpt>
      <trkpt lat="43.22363" lon="5.48602">
        <ele>357.9</ele>
        <time>2025-10-18T08:24:50Z</time>
      </trkpt>
      <trkpt lat="43.22363" lon="5.48602">
        <ele>357.9</ele>
        <time>2025-10-18T08:24:51Z</time>
      </trkpt>
      <trkpt lat="43.22363" lon="5.48602">
        <ele>358</ele>
        <time>2025-10-18T08:24:52Z</time>
      </trkpt>
      <trkpt lat="43.22363" lon="5.48602">
        <ele>358</ele>
        <time>2025-10-18T08:24:53Z</time>
      </trkpt>
      <trkpt lat="43.22363" lon="5.48602">
        <ele>358.1</ele>
        <time>2025-10-18T08:24:54Z</time>
      </trkpt>
      <trkpt lat="43.22363" lon="5.48602">
        <ele>358.1</ele>
        <time>2025-10-18T08:24:55Z</time>
      </trkpt>
      <trkpt lat="43.22363" lon="5.48602">
        <ele>358</ele>
        <time>2025-10-18T08:24:56Z</time>
      </trkpt>
      <trkpt lat="43.22363" lon="5.48602">
        <ele>357.9</ele>
        <time>2025-10-18T08:24:57Z</time>
      </trkpt>
      <trkpt lat="43.22363" lon="5.48602">
        <ele>357.8</ele>
        <time>2025-10-18T08:24:58Z</time>
      </trkpt>
      <trkpt lat="43.22363" lon="5.48602">
        <ele>357.7</ele>
        <time>2025-10-18T08:24:59Z</time>
      </trkpt>
      <trkpt lat="43.22363" lon="5.48602">
        <ele>357.7</ele>
        <time>2025-10-18T08:25:00Z</time>
      </trkpt>
      <trkpt lat="43.22363" lon="5.48602">
        <ele>357.7</ele>
        <time>2025-10-18T08:25:01Z</time>
      </trkpt>
      <trkpt lat="43.22363" lon="5.48603">
        <ele>357.8</ele>
        <time>2025-10-18T08:25:02Z</time>
      </trkpt>
      <trkpt lat="43.22362" lon="5.48603">
        <ele>357.7</ele>
        <time>2025-10-18T08:25:03Z</time>
      </trkpt>
      <trkpt lat="43.22362" lon="5.48603">
        <ele>357.8</ele>
        <time>2025-10-18T08:25:04Z</time>
      </trkpt>
      <trkpt lat="43.22362" lon="5.48602">
        <ele>357.8</ele>
        <time>2025-10-18T08:25:05Z</time>
      </trkpt>
      <trkpt lat="43.22362" lon="5.48602">
        <ele>357.8</ele>
        <time>2025-10-18T08:25:06Z</time>
      </trkpt>
      <trkpt lat="43.22362" lon="5.48603">
        <ele>357.7</ele>
        <time>2025-10-18T08:25:07Z</time>
      </trkpt>
      <trkpt lat="43.22362" lon="5.48603">
        <ele>357.8</ele>
        <time>2025-10-18T08:25:08Z</time>
      </trkpt>
      <trkpt lat="43.22362" lon="5.48603">
        <ele>357.7</ele>
        <time>2025-10-18T08:25:09Z</time>
      </trkpt>
      <trkpt lat="43.22362" lon="5.48603">
        <ele>357.7</ele>
        <time>2025-10-18T08:25:10Z</time>
      </trkpt>
      <trkpt lat="43.22362" lon="5.48603">
        <ele>357.7</ele>
        <time>2025-10-18T08:25:11Z</time>
      </trkpt>
      <trkpt lat="43.22362" lon="5.48603">
        <ele>357.6</ele>
        <time>2025-10-18T08:25:12Z</time>
      </trkpt>
      <trkpt lat="43.22362" lon="5.48603">
        <ele>357.5</ele>
        <time>2025-10-18T08:25:13Z</time>
      </trkpt>
      <trkpt lat="43.22362" lon="5.48604">
        <ele>357.6</ele>
        <time>2025-10-18T08:25:14Z</time>
      </trkpt>
      <trkpt lat="43.22362" lon="5.48604">
        <ele>357.6</ele>
        <time>2025-10-18T08:25:15Z</time>
      </trkpt>
      <trkpt lat="43.22362" lon="5.48604">
        <ele>357.6</ele>
        <time>2025-10-18T08:25:16Z</time>
      </trkpt>
      <trkpt lat="43.22362" lon="5.48604">
        <ele>357.6</ele>
        <time>2025-10-18T08:25:17Z</time>
      </trkpt>
      <trkpt lat="43.22362" lon="5.48605">
        <ele>357.6</ele>
        <time>2025-10-18T08:25:18Z</time>
      </trkpt>
      <trkpt lat="43.22362" lon="5.48605">
        <ele>357.6</ele>
        <time>2025-10-18T08:25:19Z</time>
      </trkpt>
      <trkpt lat="43.22362" lon="5.48605">
        <ele>357.5</ele>
        <time>2025-10-18T08:25:20Z</time>
      </trkpt>
      <trkpt lat="43.22362" lon="5.48605">
        <ele>357.7</ele>
        <time>2025-10-18T08:25:21Z</time>
      </trkpt>
      <trkpt lat="43.22362" lon="5.48605">
        <ele>357.8</ele>
        <time>2025-10-18T08:25:22Z</time>
      </trkpt>
      <trkpt lat="43.22362" lon="5.48605">
        <ele>357.8</ele>
        <time>2025-10-18T08:25:23Z</time>
      </trkpt>
      <trkpt lat="43.22361" lon="5.48604">
        <ele>357.7</ele>
        <time>2025-10-18T08:25:24Z</time>
      </trkpt>
      <trkpt lat="43.22361" lon="5.48605">
        <ele>357.7</ele>
        <time>2025-10-18T08:25:25Z</time>
      </trkpt>
      <trkpt lat="43.22361" lon="5.48605">
        <ele>357.7</ele>
        <time>2025-10-18T08:25:26Z</time>
      </trkpt>
      <trkpt lat="43.22361" lon="5.48605">
        <ele>357.6</ele>
        <time>2025-10-18T08:25:27Z</time>
      </trkpt>
      <trkpt lat="43.22361" lon="5.48605">
        <ele>357.6</ele>
        <time>2025-10-18T08:25:28Z</time>
      </trkpt>
      <trkpt lat="43.22361" lon="5.48605">
        <ele>357.7</ele>
        <time>2025-10-18T08:25:29Z</time>
      </trkpt>
      <trkpt lat="43.22361" lon="5.48605">
        <ele>357.7</ele>
        <time>2025-10-18T08:25:30Z</time>
      </trkpt>
      <trkpt lat="43.22361" lon="5.48605">
        <ele>357.7</ele>
        <time>2025-10-18T08:25:31Z</time>
      </trkpt>
      <trkpt lat="43.22361" lon="5.48604">
        <ele>357.7</ele>
        <time>2025-10-18T08:25:32Z</time>
      </trkpt>
      <trkpt lat="43.2236" lon="5.48604">
        <ele>357.7</ele>
        <time>2025-10-18T08:25:33Z</time>
      </trkpt>
      <trkpt lat="43.22361" lon="5.48604">
        <ele>357.7</ele>
        <time>2025-10-18T08:25:34Z</time>
      </trkpt>
      <trkpt lat="43.22361" lon="5.48604">
        <ele>357.7</ele>
        <time>2025-10-18T08:25:35Z</time>
      </trkpt>
      <trkpt lat="43.22361" lon="5.48604">
        <ele>357.8</ele>
        <time>2025-10-18T08:25:36Z</time>
      </trkpt>
      <trkpt lat="43.22361" lon="5.48604">
        <ele>357.8</ele>
        <time>2025-10-18T08:25:37Z</time>
      </trkpt>
      <trkpt lat="43.22361" lon="5.48604">
        <ele>357.8</ele>
        <time>2025-10-18T08:25:38Z</time>
      </trkpt>
      <trkpt lat="43.2236" lon="5.48603">
        <ele>357.8</ele>
        <time>2025-10-18T08:25:39Z</time>
      </trkpt>
      <trkpt lat="43.2236" lon="5.48604">
        <ele>357.8</ele>
        <time>2025-10-18T08:25:40Z</time>
      </trkpt>
      <trkpt lat="43.2236" lon="5.48604">
        <ele>357.7</ele>
        <time>2025-10-18T08:25:41Z</time>
      </trkpt>
      <trkpt lat="43.2236" lon="5.48604">
        <ele>357.6</ele>
        <time>2025-10-18T08:25:42Z</time>
      </trkpt>
      <trkpt lat="43.2236" lon="5.48604">
        <ele>357.5</ele>
        <time>2025-10-18T08:25:43Z</time>
      </trkpt>
      <trkpt lat="43.2236" lon="5.48604">
        <ele>357.6</ele>
        <time>2025-10-18T08:25:44Z</time>
      </trkpt>
      <trkpt lat="43.2236" lon="5.48604">
        <ele>357.6</ele>
        <time>2025-10-18T08:25:45Z</time>
      </trkpt>
      <trkpt lat="43.2236" lon="5.48604">
        <ele>357.6</ele>
        <time>2025-10-18T08:25:46Z</time>
      </trkpt>
      <trkpt lat="43.2236" lon="5.48603">
        <ele>357.6</ele>
        <time>2025-10-18T08:25:47Z</time>
      </trkpt>
      <trkpt lat="43.2236" lon="5.48603">
        <ele>357.6</ele>
        <time>2025-10-18T08:25:48Z</time>
      </trkpt>
      <trkpt lat="43.2236" lon="5.48603">
        <ele>357.6</ele>
        <time>2025-10-18T08:25:49Z</time>
      </trkpt>
      <trkpt lat="43.2236" lon="5.48603">
        <ele>357.5</ele>
        <time>2025-10-18T08:25:50Z</time>
      </trkpt>
      <trkpt lat="43.2236" lon="5.48603">
        <ele>357.5</ele>
        <time>2025-10-18T08:25:51Z</time>
      </trkpt>
      <trkpt lat="43.2236" lon="5.48603">
        <ele>357.5</ele>
        <time>2025-10-18T08:25:52Z</time>
      </trkpt>
      <trkpt lat="43.2236" lon="5.48603">
        <ele>357.6</ele>
        <time>2025-10-18T08:25:53Z</time>
      </trkpt>
      <trkpt lat="43.2236" lon="5.48603">
        <ele>357.6</ele>
        <time>2025-10-18T08:25:54Z</time>
      </trkpt>
      <trkpt lat="43.2236" lon="5.48603">
        <ele>357.6</ele>
        <time>2025-10-18T08:25:55Z</time>
      </trkpt>
      <trkpt lat="43.2236" lon="5.48603">
        <ele>357.6</ele>
        <time>2025-10-18T08:25:56Z</time>
      </trkpt>
      <trkpt lat="43.2236" lon="5.48603">
        <ele>357.6</ele>
        <time>2025-10-18T08:25:57Z</time>
      </trkpt>
      <trkpt lat="43.2236" lon="5.48603">
        <ele>357.5</ele>
        <time>2025-10-18T08:25:58Z</time>
      </trkpt>
      <trkpt lat="43.2236" lon="5.48603">
        <ele>357.5</ele>
        <time>2025-10-18T08:25:59Z</time>
      </trkpt>
      <trkpt lat="43.2236" lon="5.48603">
        <ele>357.5</ele>
        <time>2025-10-18T08:26:00Z</time>
      </trkpt>
      <trkpt lat="43.2236" lon="5.48603">
        <ele>357.5</ele>
        <time>2025-10-18T08:26:01Z</time>
      </trkpt>
      <trkpt lat="43.2236" lon="5.48603">
        <ele>357.6</ele>
        <time>2025-10-18T08:26:02Z</time>
      </trkpt>
      <trkpt lat="43.2236" lon="5.48603">
        <ele>357.6</ele>
        <time>2025-10-18T08:26:03Z</time>
      </trkpt>
      <trkpt lat="43.2236" lon="5.48603">
        <ele>357.6</ele>
        <time>2025-10-18T08:26:04Z</time>
      </trkpt>
      <trkpt lat="43.2236" lon="5.48603">
        <ele>357.6</ele>
        <time>2025-10-18T08:26:05Z</time>
      </trkpt>
      <trkpt lat="43.2236" lon="5.48604">
        <ele>357.7</ele>
        <time>2025-10-18T08:26:06Z</time>
      </trkpt>
      <trkpt lat="43.2236" lon="5.48604">
        <ele>357.7</ele>
        <time>2025-10-18T08:26:07Z</time>
      </trkpt>
      <trkpt lat="43.2236" lon="5.48604">
        <ele>357.7</ele>
        <time>2025-10-18T08:26:08Z</time>
      </trkpt>
      <trkpt lat="43.2236" lon="5.48604">
        <ele>357.7</ele>
        <time>2025-10-18T08:26:09Z</time>
      </trkpt>
      <trkpt lat="43.2236" lon="5.48604">
        <ele>357.7</ele>
        <time>2025-10-18T08:26:10Z</time>
      </trkpt>
      <trkpt lat="43.2236" lon="5.48604">
        <ele>357.6</ele>
        <time>2025-10-18T08:26:11Z</time>
      </trkpt>
      <trkpt lat="43.2236" lon="5.48604">
        <ele>357.6</ele>
        <time>2025-10-18T08:26:12Z</time>
      </trkpt>
      <trkpt lat="43.2236" lon="5.48604">
        <ele>357.7</ele>
        <time>2025-10-18T08:26:13Z</time>
      </trkpt>
      <trkpt lat="43.2236" lon="5.48605">
        <ele>357.7</ele>
        <time>2025-10-18T08:26:14Z</time>
      </trkpt>
      <trkpt lat="43.2236" lon="5.48605">
        <ele>357.7</ele>
        <time>2025-10-18T08:26:15Z</time>
      </trkpt>
      <trkpt lat="43.2236" lon="5.48605">
        <ele>357.8</ele>
        <time>2025-10-18T08:26:16Z</time>
      </trkpt>
      <trkpt lat="43.2236" lon="5.48605">
        <ele>357.8</ele>
        <time>2025-10-18T08:26:17Z</time>
      </trkpt>
      <trkpt lat="43.2236" lon="5.48605">
        <ele>357.8</ele>
        <time>2025-10-18T08:26:18Z</time>
      </trkpt>
      <trkpt lat="43.2236" lon="5.48605">
        <ele>357.8</ele>
        <time>2025-10-18T08:26:19Z</time>
      </trkpt>
      <trkpt lat="43.2236" lon="5.48606">
        <ele>357.8</ele>
        <time>2025-10-18T08:26:20Z</time>
      </trkpt>
      <trkpt lat="43.2236" lon="5.48606">
        <ele>357.8</ele>
        <time>2025-10-18T08:26:21Z</time>
      </trkpt>
      <trkpt lat="43.22359" lon="5.48606">
        <ele>357.8</ele>
        <time>2025-10-18T08:26:22Z</time>
      </trkpt>
      <trkpt lat="43.2236" lon="5.48606">
        <ele>357.8</ele>
        <time>2025-10-18T08:26:23Z</time>
      </trkpt>
      <trkpt lat="43.2236" lon="5.48606">
        <ele>357.7</ele>
        <time>2025-10-18T08:26:24Z</time>
      </trkpt>
      <trkpt lat="43.2236" lon="5.48606">
        <ele>357.6</ele>
        <time>2025-10-18T08:26:25Z</time>
      </trkpt>
      <trkpt lat="43.2236" lon="5.48606">
        <ele>357.7</ele>
        <time>2025-10-18T08:26:26Z</time>
      </trkpt>
      <trkpt lat="43.2236" lon="5.48606">
        <ele>357.7</ele>
        <time>2025-10-18T08:26:27Z</time>
      </trkpt>
      <trkpt lat="43.2236" lon="5.48606">
        <ele>357.7</ele>
        <time>2025-10-18T08:26:28Z</time>
      </trkpt>
      <trkpt lat="43.22359" lon="5.48606">
        <ele>357.7</ele>
        <time>2025-10-18T08:26:29Z</time>
      </trkpt>
      <trkpt lat="43.22359" lon="5.48606">
        <ele>357.7</ele>
        <time>2025-10-18T08:26:30Z</time>
      </trkpt>
      <trkpt lat="43.2236" lon="5.48605">
        <ele>357.7</ele>
        <time>2025-10-18T08:26:31Z</time>
      </trkpt>
      <trkpt lat="43.2236" lon="5.48605">
        <ele>357.8</ele>
        <time>2025-10-18T08:26:32Z</time>
      </trkpt>
      <trkpt lat="43.22359" lon="5.48605">
        <ele>357.8</ele>
        <time>2025-10-18T08:26:33Z</time>
      </trkpt>
      <trkpt lat="43.22359" lon="5.48606">
        <ele>357.8</ele>
        <time>2025-10-18T08:26:34Z</time>
      </trkpt>
      <trkpt lat="43.22359" lon="5.48606">
        <ele>357.8</ele>
        <time>2025-10-18T08:26:35Z</time>
      </trkpt>
      <trkpt lat="43.22359" lon="5.48605">
        <ele>357.7</ele>
        <time>2025-10-18T08:26:36Z</time>
      </trkpt>
      <trkpt lat="43.2236" lon="5.48605">
        <ele>357.7</ele>
        <time>2025-10-18T08:26:37Z</time>
      </trkpt>
      <trkpt lat="43.2236" lon="5.48605">
        <ele>357.7</ele>
        <time>2025-10-18T08:26:38Z</time>
      </trkpt>
      <trkpt lat="43.22359" lon="5.48605">
        <ele>357.7</ele>
        <time>2025-10-18T08:26:39Z</time>
      </trkpt>
      <trkpt lat="43.22359" lon="5.48604">
        <ele>357.7</ele>
        <time>2025-10-18T08:26:40Z</time>
      </trkpt>
      <trkpt lat="43.22358" lon="5.48604">
        <ele>357.7</ele>
        <time>2025-10-18T08:26:41Z</time>
      </trkpt>
      <trkpt lat="43.22358" lon="5.48604">
        <ele>357.7</ele>
        <time>2025-10-18T08:26:42Z</time>
      </trkpt>
      <trkpt lat="43.22357" lon="5.48604">
        <ele>357.6</ele>
        <time>2025-10-18T08:26:43Z</time>
      </trkpt>
      <trkpt lat="43.22357" lon="5.48603">
        <ele>357.6</ele>
        <time>2025-10-18T08:26:44Z</time>
      </trkpt>
      <trkpt lat="43.22356" lon="5.48602">
        <ele>357.5</ele>
        <time>2025-10-18T08:26:45Z</time>
      </trkpt>
      <trkpt lat="43.22355" lon="5.48602">
        <ele>357.4</ele>
        <time>2025-10-18T08:26:46Z</time>
      </trkpt>
      <trkpt lat="43.22355" lon="5.48602">
        <ele>357.3</ele>
        <time>2025-10-18T08:26:47Z</time>
      </trkpt>
      <trkpt lat="43.22354" lon="5.48602">
        <ele>357.2</ele>
        <time>2025-10-18T08:26:48Z</time>
      </trkpt>
      <trkpt lat="43.22353" lon="5.48602">
        <ele>357.1</ele>
        <time>2025-10-18T08:26:49Z</time>
      </trkpt>
      <trkpt lat="43.22353" lon="5.48602">
        <ele>357.1</ele>
        <time>2025-10-18T08:26:50Z</time>
      </trkpt>
      <trkpt lat="43.22352" lon="5.48601">
        <ele>357</ele>
        <time>2025-10-18T08:26:51Z</time>
      </trkpt>
      <trkpt lat="43.22352" lon="5.48601">
        <ele>357.1</ele>
        <time>2025-10-18T08:26:52Z</time>
      </trkpt>
      <trkpt lat="43.22351" lon="5.48601">
        <ele>357.1</ele>
        <time>2025-10-18T08:26:53Z</time>
      </trkpt>
      <trkpt lat="43.2235" lon="5.486">
        <ele>357</ele>
        <time>2025-10-18T08:26:54Z</time>
      </trkpt>
      <trkpt lat="43.2235" lon="5.486">
        <ele>357</ele>
        <time>2025-10-18T08:26:55Z</time>
      </trkpt>
      <trkpt lat="43.22349" lon="5.486">
        <ele>357</ele>
        <time>2025-10-18T08:26:56Z</time>
      </trkpt>
      <trkpt lat="43.22348" lon="5.486">
        <ele>357</ele>
        <time>2025-10-18T08:26:57Z</time>
      </trkpt>
      <trkpt lat="43.22347" lon="5.48599">
        <ele>356.9</ele>
        <time>2025-10-18T08:26:58Z</time>
      </trkpt>
      <trkpt lat="43.22346" lon="5.48599">
        <ele>356.9</ele>
        <time>2025-10-18T08:26:59Z</time>
      </trkpt>
      <trkpt lat="43.22345" lon="5.48599">
        <ele>356.8</ele>
        <time>2025-10-18T08:27:00Z</time>
      </trkpt>
      <trkpt lat="43.22344" lon="5.48598">
        <ele>356.7</ele>
        <time>2025-10-18T08:27:01Z</time>
      </trkpt>
      <trkpt lat="43.22344" lon="5.48597">
        <ele>356.7</ele>
        <time>2025-10-18T08:27:02Z</time>
      </trkpt>
      <trkpt lat="43.22342" lon="5.48597">
        <ele>356.6</ele>
        <time>2025-10-18T08:27:03Z</time>
      </trkpt>
      <trkpt lat="43.22341" lon="5.48597">
        <ele>356.4</ele>
        <time>2025-10-18T08:27:04Z</time>
      </trkpt>
      <trkpt lat="43.2234" lon="5.48596">
        <ele>356.3</ele>
        <time>2025-10-18T08:27:05Z</time>
      </trkpt>
      <trkpt lat="43.22339" lon="5.48595">
        <ele>356.2</ele>
        <time>2025-10-18T08:27:06Z</time>
      </trkpt>
      <trkpt lat="43.22338" lon="5.48595">
        <ele>356</ele>
        <time>2025-10-18T08:27:07Z</time>
      </trkpt>
      <trkpt lat="43.22337" lon="5.48595">
        <ele>355.9</ele>
        <time>2025-10-18T08:27:08Z</time>
      </trkpt>
      <trkpt lat="43.22337" lon="5.48594">
        <ele>355.7</ele>
        <time>2025-10-18T08:27:09Z</time>
      </trkpt>
      <trkpt lat="43.22336" lon="5.48594">
        <ele>355.6</ele>
        <time>2025-10-18T08:27:10Z</time>
      </trkpt>
      <trkpt lat="43.22335" lon="5.48594">
        <ele>355.5</ele>
        <time>2025-10-18T08:27:11Z</time>
      </trkpt>
      <trkpt lat="43.22334" lon="5.48594">
        <ele>355.4</ele>
        <time>2025-10-18T08:27:12Z</time>
      </trkpt>
      <trkpt lat="43.22333" lon="5.48594">
        <ele>355.3</ele>
        <time>2025-10-18T08:27:13Z</time>
      </trkpt>
      <trkpt lat="43.22332" lon="5.48593">
        <ele>355.2</ele>
        <time>2025-10-18T08:27:14Z</time>
      </trkpt>
      <trkpt lat="43.22331" lon="5.48593">
        <ele>355.1</ele>
        <time>2025-10-18T08:27:15Z</time>
      </trkpt>
      <trkpt lat="43.2233" lon="5.48593">
        <ele>355</ele>
        <time>2025-10-18T08:27:16Z</time>
      </trkpt>
      <trkpt lat="43.2233" lon="5.48593">
        <ele>354.9</ele>
        <time>2025-10-18T08:27:17Z</time>
      </trkpt>
      <trkpt lat="43.22329" lon="5.48593">
        <ele>354.9</ele>
        <time>2025-10-18T08:27:18Z</time>
      </trkpt>
      <trkpt lat="43.22329" lon="5.48594">
        <ele>354.8</ele>
        <time>2025-10-18T08:27:19Z</time>
      </trkpt>
      <trkpt lat="43.22329" lon="5.48594">
        <ele>354.8</ele>
        <time>2025-10-18T08:27:20Z</time>
      </trkpt>
      <trkpt lat="43.22329" lon="5.48594">
        <ele>354.7</ele>
        <time>2025-10-18T08:27:21Z</time>
      </trkpt>
      <trkpt lat="43.22328" lon="5.48594">
        <ele>354.7</ele>
        <time>2025-10-18T08:27:22Z</time>
      </trkpt>
      <trkpt lat="43.22328" lon="5.48594">
        <ele>354.6</ele>
        <time>2025-10-18T08:27:23Z</time>
      </trkpt>
      <trkpt lat="43.22328" lon="5.48594">
        <ele>354.6</ele>
        <time>2025-10-18T08:27:24Z</time>
      </trkpt>
      <trkpt lat="43.22328" lon="5.48594">
        <ele>354.6</ele>
        <time>2025-10-18T08:27:25Z</time>
      </trkpt>
      <trkpt lat="43.22328" lon="5.48593">
        <ele>354.6</ele>
        <time>2025-10-18T08:27:26Z</time>
      </trkpt>
      <trkpt lat="43.22328" lon="5.48593">
        <ele>354.7</ele>
        <time>2025-10-18T08:27:27Z</time>
      </trkpt>
      <trkpt lat="43.22328" lon="5.48593">
        <ele>354.7</ele>
        <time>2025-10-18T08:27:28Z</time>
      </trkpt>
      <trkpt lat="43.22328" lon="5.48594">
        <ele>354.8</ele>
        <time>2025-10-18T08:27:29Z</time>
      </trkpt>
      <trkpt lat="43.22327" lon="5.48594">
        <ele>354.8</ele>
        <time>2025-10-18T08:27:30Z</time>
      </trkpt>
      <trkpt lat="43.22327" lon="5.48595">
        <ele>354.8</ele>
        <time>2025-10-18T08:27:31Z</time>
      </trkpt>
      <trkpt lat="43.22326" lon="5.48596">
        <ele>354.7</ele>
        <time>2025-10-18T08:27:32Z</time>
      </trkpt>
      <trkpt lat="43.22326" lon="5.48597">
        <ele>354.7</ele>
        <time>2025-10-18T08:27:33Z</time>
      </trkpt>
      <trkpt lat="43.22325" lon="5.48598">
        <ele>354.6</ele>
        <time>2025-10-18T08:27:34Z</time>
      </trkpt>
      <trkpt lat="43.22325" lon="5.48598">
        <ele>354.5</ele>
        <time>2025-10-18T08:27:35Z</time>
      </trkpt>
      <trkpt lat="43.22325" lon="5.48599">
        <ele>354.4</ele>
        <time>2025-10-18T08:27:36Z</time>
      </trkpt>
      <trkpt lat="43.22325" lon="5.486">
        <ele>354.4</ele>
        <time>2025-10-18T08:27:37Z</time>
      </trkpt>
      <trkpt lat="43.22325" lon="5.48601">
        <ele>354.5</ele>
        <time>2025-10-18T08:27:38Z</time>
      </trkpt>
      <trkpt lat="43.22324" lon="5.48601">
        <ele>354.3</ele>
        <time>2025-10-18T08:27:39Z</time>
      </trkpt>
      <trkpt lat="43.22324" lon="5.48602">
        <ele>354.3</ele>
        <time>2025-10-18T08:27:40Z</time>
      </trkpt>
      <trkpt lat="43.22323" lon="5.48603">
        <ele>354.2</ele>
        <time>2025-10-18T08:27:41Z</time>
      </trkpt>
      <trkpt lat="43.22323" lon="5.48604">
        <ele>354.2</ele>
        <time>2025-10-18T08:27:42Z</time>
      </trkpt>
      <trkpt lat="43.22323" lon="5.48605">
        <ele>354.1</ele>
        <time>2025-10-18T08:27:43Z</time>
      </trkpt>
      <trkpt lat="43.22323" lon="5.48606">
        <ele>354.1</ele>
        <time>2025-10-18T08:27:44Z</time>
      </trkpt>
      <trkpt lat="43.22322" lon="5.48607">
        <ele>354.1</ele>
        <time>2025-10-18T08:27:45Z</time>
      </trkpt>
      <trkpt lat="43.22322" lon="5.48608">
        <ele>354.1</ele>
        <time>2025-10-18T08:27:46Z</time>
      </trkpt>
      <trkpt lat="43.22322" lon="5.48609">
        <ele>354</ele>
        <time>2025-10-18T08:27:47Z</time>
      </trkpt>
      <trkpt lat="43.22321" lon="5.4861">
        <ele>353.9</ele>
        <time>2025-10-18T08:27:48Z</time>
      </trkpt>
      <trkpt lat="43.22321" lon="5.48611">
        <ele>353.9</ele>
        <time>2025-10-18T08:27:49Z</time>
      </trkpt>
      <trkpt lat="43.22321" lon="5.48612">
        <ele>353.9</ele>
        <time>2025-10-18T08:27:50Z</time>
      </trkpt>
      <trkpt lat="43.22321" lon="5.48613">
        <ele>353.8</ele>
        <time>2025-10-18T08:27:51Z</time>
      </trkpt>
      <trkpt lat="43.2232" lon="5.48615">
        <ele>353.8</ele>
        <time>2025-10-18T08:27:52Z</time>
      </trkpt>
      <trkpt lat="43.2232" lon="5.48616">
        <ele>353.8</ele>
        <time>2025-10-18T08:27:53Z</time>
      </trkpt>
      <trkpt lat="43.22319" lon="5.48617">
        <ele>353.8</ele>
        <time>2025-10-18T08:27:54Z</time>
      </trkpt>
      <trkpt lat="43.22319" lon="5.48619">
        <ele>353.7</ele>
        <time>2025-10-18T08:27:55Z</time>
      </trkpt>
      <trkpt lat="43.22318" lon="5.4862">
        <ele>353.7</ele>
        <time>2025-10-18T08:27:56Z</time>
      </trkpt>
      <trkpt lat="43.22318" lon="5.48621">
        <ele>353.6</ele>
        <time>2025-10-18T08:27:57Z</time>
      </trkpt>
      <trkpt lat="43.22318" lon="5.48622">
        <ele>353.5</ele>
        <time>2025-10-18T08:27:58Z</time>
      </trkpt>
      <trkpt lat="43.22317" lon="5.48623">
        <ele>353.4</ele>
        <time>2025-10-18T08:27:59Z</time>
      </trkpt>
      <trkpt lat="43.22317" lon="5.48624">
        <ele>353.3</ele>
        <time>2025-10-18T08:28:00Z</time>
      </trkpt>
      <trkpt lat="43.22316" lon="5.48625">
        <ele>353.2</ele>
        <time>2025-10-18T08:28:01Z</time>
      </trkpt>
      <trkpt lat="43.22316" lon="5.48626">
        <ele>353.1</ele>
        <time>2025-10-18T08:28:02Z</time>
      </trkpt>
      <trkpt lat="43.22315" lon="5.48627">
        <ele>353</ele>
        <time>2025-10-18T08:28:03Z</time>
      </trkpt>
      <trkpt lat="43.22315" lon="5.48628">
        <ele>352.9</ele>
        <time>2025-10-18T08:28:04Z</time>
      </trkpt>
      <trkpt lat="43.22315" lon="5.48629">
        <ele>352.8</ele>
        <time>2025-10-18T08:28:05Z</time>
      </trkpt>
      <trkpt lat="43.22315" lon="5.4863">
        <ele>352.7</ele>
        <time>2025-10-18T08:28:06Z</time>
      </trkpt>
      <trkpt lat="43.22315" lon="5.4863">
        <ele>352.5</ele>
        <time>2025-10-18T08:28:07Z</time>
      </trkpt>
      <trkpt lat="43.22315" lon="5.48631">
        <ele>352.4</ele>
        <time>2025-10-18T08:28:08Z</time>
      </trkpt>
      <trkpt lat="43.22315" lon="5.48632">
        <ele>352.3</ele>
        <time>2025-10-18T08:28:09Z</time>
      </trkpt>
      <trkpt lat="43.22314" lon="5.48633">
        <ele>352.2</ele>
        <time>2025-10-18T08:28:10Z</time>
      </trkpt>
      <trkpt lat="43.22314" lon="5.48634">
        <ele>352.1</ele>
        <time>2025-10-18T08:28:11Z</time>
      </trkpt>
      <trkpt lat="43.22313" lon="5.48635">
        <ele>351.9</ele>
        <time>2025-10-18T08:28:12Z</time>
      </trkpt>
      <trkpt lat="43.22312" lon="5.48636">
        <ele>351.8</ele>
        <time>2025-10-18T08:28:13Z</time>
      </trkpt>
      <trkpt lat="43.22312" lon="5.48638">
        <ele>351.6</ele>
        <time>2025-10-18T08:28:14Z</time>
      </trkpt>
      <trkpt lat="43.22312" lon="5.48639">
        <ele>351.6</ele>
        <time>2025-10-18T08:28:15Z</time>
      </trkpt>
      <trkpt lat="43.22311" lon="5.4864">
        <ele>351.5</ele>
        <time>2025-10-18T08:28:16Z</time>
      </trkpt>
      <trkpt lat="43.22311" lon="5.48641">
        <ele>351.3</ele>
        <time>2025-10-18T08:28:17Z</time>
      </trkpt>
      <trkpt lat="43.22311" lon="5.48642">
        <ele>351.2</ele>
        <time>2025-10-18T08:28:18Z</time>
      </trkpt>
      <trkpt lat="43.22311" lon="5.48643">
        <ele>351</ele>
        <time>2025-10-18T08:28:19Z</time>
      </trkpt>
      <trkpt lat="43.2231" lon="5.48644">
        <ele>350.9</ele>
        <time>2025-10-18T08:28:20Z</time>
      </trkpt>
      <trkpt lat="43.2231" lon="5.48645">
        <ele>350.9</ele>
        <time>2025-10-18T08:28:21Z</time>
      </trkpt>
      <trkpt lat="43.22309" lon="5.48646">
        <ele>350.9</ele>
        <time>2025-10-18T08:28:22Z</time>
      </trkpt>
      <trkpt lat="43.22309" lon="5.48647">
        <ele>350.8</ele>
        <time>2025-10-18T08:28:23Z</time>
      </trkpt>
      <trkpt lat="43.22308" lon="5.48648">
        <ele>350.6</ele>
        <time>2025-10-18T08:28:24Z</time>
      </trkpt>
      <trkpt lat="43.22308" lon="5.48648">
        <ele>350.5</ele>
        <time>2025-10-18T08:28:25Z</time>
      </trkpt>
      <trkpt lat="43.22308" lon="5.48649">
        <ele>350.4</ele>
        <time>2025-10-18T08:28:26Z</time>
      </trkpt>
      <trkpt lat="43.22308" lon="5.4865">
        <ele>350.3</ele>
        <time>2025-10-18T08:28:27Z</time>
      </trkpt>
      <trkpt lat="43.22308" lon="5.4865">
        <ele>350.3</ele>
        <time>2025-10-18T08:28:28Z</time>
      </trkpt>
      <trkpt lat="43.22307" lon="5.48651">
        <ele>350.2</ele>
        <time>2025-10-18T08:28:29Z</time>
      </trkpt>
      <trkpt lat="43.22307" lon="5.48652">
        <ele>350</ele>
        <time>2025-10-18T08:28:30Z</time>
      </trkpt>
      <trkpt lat="43.22306" lon="5.48653">
        <ele>350</ele>
        <time>2025-10-18T08:28:31Z</time>
      </trkpt>
      <trkpt lat="43.22306" lon="5.48654">
        <ele>350</ele>
        <time>2025-10-18T08:28:32Z</time>
      </trkpt>
      <trkpt lat="43.22306" lon="5.48655">
        <ele>349.8</ele>
        <time>2025-10-18T08:28:33Z</time>
      </trkpt>
      <trkpt lat="43.22305" lon="5.48656">
        <ele>349.8</ele>
        <time>2025-10-18T08:28:34Z</time>
      </trkpt>
      <trkpt lat="43.22304" lon="5.48657">
        <ele>349.7</ele>
        <time>2025-10-18T08:28:35Z</time>
      </trkpt>
      <trkpt lat="43.22304" lon="5.48658">
        <ele>349.6</ele>
        <time>2025-10-18T08:28:36Z</time>
      </trkpt>
      <trkpt lat="43.22303" lon="5.48659">
        <ele>349.5</ele>
        <time>2025-10-18T08:28:37Z</time>
      </trkpt>
      <trkpt lat="43.22302" lon="5.4866">
        <ele>349.5</ele>
        <time>2025-10-18T08:28:38Z</time>
      </trkpt>
      <trkpt lat="43.22302" lon="5.48661">
        <ele>349.4</ele>
        <time>2025-10-18T08:28:39Z</time>
      </trkpt>
      <trkpt lat="43.22302" lon="5.48662">
        <ele>349.4</ele>
        <time>2025-10-18T08:28:40Z</time>
      </trkpt>
      <trkpt lat="43.22301" lon="5.48662">
        <ele>349.4</ele>
        <time>2025-10-18T08:28:41Z</time>
      </trkpt>
      <trkpt lat="43.22301" lon="5.48663">
        <ele>349.4</ele>
        <time>2025-10-18T08:28:42Z</time>
      </trkpt>
      <trkpt lat="43.22301" lon="5.48664">
        <ele>349.4</ele>
        <time>2025-10-18T08:28:43Z</time>
      </trkpt>
      <trkpt lat="43.22301" lon="5.48664">
        <ele>349.3</ele>
        <time>2025-10-18T08:28:44Z</time>
      </trkpt>
      <trkpt lat="43.22301" lon="5.48664">
        <ele>349.3</ele>
        <time>2025-10-18T08:28:45Z</time>
      </trkpt>
      <trkpt lat="43.22301" lon="5.48664">
        <ele>349.3</ele>
        <time>2025-10-18T08:28:46Z</time>
      </trkpt>
      <trkpt lat="43.223" lon="5.48664">
        <ele>349.3</ele>
        <time>2025-10-18T08:28:47Z</time>
      </trkpt>
      <trkpt lat="43.22301" lon="5.48665">
        <ele>349.3</ele>
        <time>2025-10-18T08:28:48Z</time>
      </trkpt>
      <trkpt lat="43.22301" lon="5.48665">
        <ele>349.3</ele>
        <time>2025-10-18T08:28:49Z</time>
      </trkpt>
      <trkpt lat="43.223" lon="5.48665">
        <ele>349.2</ele>
        <time>2025-10-18T08:28:50Z</time>
      </trkpt>
      <trkpt lat="43.223" lon="5.48667">
        <ele>349.2</ele>
        <time>2025-10-18T08:28:51Z</time>
      </trkpt>
      <trkpt lat="43.223" lon="5.48668">
        <ele>349.1</ele>
        <time>2025-10-18T08:28:52Z</time>
      </trkpt>
      <trkpt lat="43.223" lon="5.48669">
        <ele>349.1</ele>
        <time>2025-10-18T08:28:53Z</time>
      </trkpt>
      <trkpt lat="43.223" lon="5.4867">
        <ele>349</ele>
        <time>2025-10-18T08:28:54Z</time>
      </trkpt>
      <trkpt lat="43.22299" lon="5.48671">
        <ele>349</ele>
        <time>2025-10-18T08:28:55Z</time>
      </trkpt>
      <trkpt lat="43.22299" lon="5.48672">
        <ele>349</ele>
        <time>2025-10-18T08:28:56Z</time>
      </trkpt>
      <trkpt lat="43.22298" lon="5.48673">
        <ele>348.9</ele>
        <time>2025-10-18T08:28:57Z</time>
      </trkpt>
      <trkpt lat="43.22297" lon="5.48674">
        <ele>348.8</ele>
        <time>2025-10-18T08:28:58Z</time>
      </trkpt>
      <trkpt lat="43.22297" lon="5.48675">
        <ele>348.7</ele>
        <time>2025-10-18T08:28:59Z</time>
      </trkpt>
      <trkpt lat="43.22296" lon="5.48676">
        <ele>348.6</ele>
        <time>2025-10-18T08:29:00Z</time>
      </trkpt>
      <trkpt lat="43.22296" lon="5.48677">
        <ele>348.5</ele>
        <time>2025-10-18T08:29:01Z</time>
      </trkpt>
      <trkpt lat="43.22295" lon="5.48679">
        <ele>348.4</ele>
        <time>2025-10-18T08:29:02Z</time>
      </trkpt>
      <trkpt lat="43.22295" lon="5.4868">
        <ele>348.4</ele>
        <time>2025-10-18T08:29:03Z</time>
      </trkpt>
      <trkpt lat="43.22294" lon="5.48681">
        <ele>348.4</ele>
        <time>2025-10-18T08:29:04Z</time>
      </trkpt>
      <trkpt lat="43.22294" lon="5.48683">
        <ele>348.3</ele>
        <time>2025-10-18T08:29:05Z</time>
      </trkpt>
      <trkpt lat="43.22293" lon="5.48684">
        <ele>348.2</ele>
        <time>2025-10-18T08:29:06Z</time>
      </trkpt>
      <trkpt lat="43.22293" lon="5.48685">
        <ele>348.1</ele>
        <time>2025-10-18T08:29:07Z</time>
      </trkpt>
      <trkpt lat="43.22293" lon="5.48686">
        <ele>348</ele>
        <time>2025-10-18T08:29:08Z</time>
      </trkpt>
      <trkpt lat="43.22292" lon="5.48687">
        <ele>347.9</ele>
        <time>2025-10-18T08:29:09Z</time>
      </trkpt>
      <trkpt lat="43.22292" lon="5.48688">
        <ele>347.9</ele>
        <time>2025-10-18T08:29:10Z</time>
      </trkpt>
      <trkpt lat="43.22291" lon="5.48689">
        <ele>347.8</ele>
        <time>2025-10-18T08:29:11Z</time>
      </trkpt>
      <trkpt lat="43.22291" lon="5.48691">
        <ele>347.6</ele>
        <time>2025-10-18T08:29:12Z</time>
      </trkpt>
      <trkpt lat="43.22291" lon="5.48692">
        <ele>347.5</ele>
        <time>2025-10-18T08:29:13Z</time>
      </trkpt>
      <trkpt lat="43.22291" lon="5.48693">
        <ele>347.3</ele>
        <time>2025-10-18T08:29:14Z</time>
      </trkpt>
      <trkpt lat="43.22291" lon="5.48694">
        <ele>347.1</ele>
        <time>2025-10-18T08:29:15Z</time>
      </trkpt>
      <trkpt lat="43.22291" lon="5.48696">
        <ele>347</ele>
        <time>2025-10-18T08:29:16Z</time>
      </trkpt>
      <trkpt lat="43.22291" lon="5.48697">
        <ele>346.9</ele>
        <time>2025-10-18T08:29:17Z</time>
      </trkpt>
      <trkpt lat="43.22291" lon="5.48698">
        <ele>346.8</ele>
        <time>2025-10-18T08:29:18Z</time>
      </trkpt>
      <trkpt lat="43.22291" lon="5.48699">
        <ele>346.6</ele>
        <time>2025-10-18T08:29:19Z</time>
      </trkpt>
      <trkpt lat="43.22291" lon="5.48699">
        <ele>346.5</ele>
        <time>2025-10-18T08:29:20Z</time>
      </trkpt>
      <trkpt lat="43.22291" lon="5.487">
        <ele>346.4</ele>
        <time>2025-10-18T08:29:21Z</time>
      </trkpt>
      <trkpt lat="43.22291" lon="5.48701">
        <ele>346.3</ele>
        <time>2025-10-18T08:29:22Z</time>
      </trkpt>
      <trkpt lat="43.22291" lon="5.48702">
        <ele>346.3</ele>
        <time>2025-10-18T08:29:23Z</time>
      </trkpt>
      <trkpt lat="43.2229" lon="5.48703">
        <ele>346.2</ele>
        <time>2025-10-18T08:29:24Z</time>
      </trkpt>
      <trkpt lat="43.2229" lon="5.48705">
        <ele>346.1</ele>
        <time>2025-10-18T08:29:25Z</time>
      </trkpt>
      <trkpt lat="43.22289" lon="5.48706">
        <ele>346</ele>
        <time>2025-10-18T08:29:26Z</time>
      </trkpt>
      <trkpt lat="43.22289" lon="5.48707">
        <ele>345.8</ele>
        <time>2025-10-18T08:29:27Z</time>
      </trkpt>
      <trkpt lat="43.22289" lon="5.48708">
        <ele>345.7</ele>
        <time>2025-10-18T08:29:28Z</time>
      </trkpt>
      <trkpt lat="43.22289" lon="5.48709">
        <ele>345.6</ele>
        <time>2025-10-18T08:29:29Z</time>
      </trkpt>
      <trkpt lat="43.22288" lon="5.4871">
        <ele>345.4</ele>
        <time>2025-10-18T08:29:30Z</time>
      </trkpt>
      <trkpt lat="43.22288" lon="5.48711">
        <ele>345.2</ele>
        <time>2025-10-18T08:29:31Z</time>
      </trkpt>
      <trkpt lat="43.22288" lon="5.48712">
        <ele>345.1</ele>
        <time>2025-10-18T08:29:32Z</time>
      </trkpt>
      <trkpt lat="43.22287" lon="5.48713">
        <ele>344.9</ele>
        <time>2025-10-18T08:29:33Z</time>
      </trkpt>
      <trkpt lat="43.22287" lon="5.48714">
        <ele>344.8</ele>
        <time>2025-10-18T08:29:34Z</time>
      </trkpt>
      <trkpt lat="43.22287" lon="5.48715">
        <ele>344.6</ele>
        <time>2025-10-18T08:29:35Z</time>
      </trkpt>
      <trkpt lat="43.22286" lon="5.48716">
        <ele>344.5</ele>
        <time>2025-10-18T08:29:36Z</time>
      </trkpt>
      <trkpt lat="43.22286" lon="5.48717">
        <ele>344.3</ele>
        <time>2025-10-18T08:29:37Z</time>
      </trkpt>
      <trkpt lat="43.22286" lon="5.48717">
        <ele>344.3</ele>
        <time>2025-10-18T08:29:38Z</time>
      </trkpt>
      <trkpt lat="43.22286" lon="5.48717">
        <ele>344.1</ele>
        <time>2025-10-18T08:29:39Z</time>
      </trkpt>
      <trkpt lat="43.22286" lon="5.48717">
        <ele>344.1</ele>
        <time>2025-10-18T08:29:40Z</time>
      </trkpt>
      <trkpt lat="43.22286" lon="5.48718">
        <ele>344</ele>
        <time>2025-10-18T08:29:41Z</time>
      </trkpt>
      <trkpt lat="43.22285" lon="5.48719">
        <ele>344</ele>
        <time>2025-10-18T08:29:42Z</time>
      </trkpt>
      <trkpt lat="43.22285" lon="5.4872">
        <ele>343.9</ele>
        <time>2025-10-18T08:29:43Z</time>
      </trkpt>
      <trkpt lat="43.22284" lon="5.48721">
        <ele>343.9</ele>
        <time>2025-10-18T08:29:44Z</time>
      </trkpt>
      <trkpt lat="43.22284" lon="5.48722">
        <ele>343.8</ele>
        <time>2025-10-18T08:29:45Z</time>
      </trkpt>
      <trkpt lat="43.22284" lon="5.48723">
        <ele>343.8</ele>
        <time>2025-10-18T08:29:46Z</time>
      </trkpt>
      <trkpt lat="43.22284" lon="5.48723">
        <ele>343.7</ele>
        <time>2025-10-18T08:29:47Z</time>
      </trkpt>
      <trkpt lat="43.22284" lon="5.48724">
        <ele>343.6</ele>
        <time>2025-10-18T08:29:48Z</time>
      </trkpt>
      <trkpt lat="43.22283" lon="5.48725">
        <ele>343.5</ele>
        <time>2025-10-18T08:29:49Z</time>
      </trkpt>
      <trkpt lat="43.22283" lon="5.48726">
        <ele>343.4</ele>
        <time>2025-10-18T08:29:50Z</time>
      </trkpt>
      <trkpt lat="43.22283" lon="5.48727">
        <ele>343.3</ele>
        <time>2025-10-18T08:29:51Z</time>
      </trkpt>
      <trkpt lat="43.22283" lon="5.48728">
        <ele>343</ele>
        <time>2025-10-18T08:29:52Z</time>
      </trkpt>
      <trkpt lat="43.22283" lon="5.48729">
        <ele>342.9</ele>
        <time>2025-10-18T08:29:53Z</time>
      </trkpt>
      <trkpt lat="43.22282" lon="5.4873">
        <ele>342.8</ele>
        <time>2025-10-18T08:29:54Z</time>
      </trkpt>
      <trkpt lat="43.22282" lon="5.48731">
        <ele>342.7</ele>
        <time>2025-10-18T08:29:55Z</time>
      </trkpt>
      <trkpt lat="43.22281" lon="5.48731">
        <ele>342.7</ele>
        <time>2025-10-18T08:29:56Z</time>
      </trkpt>
      <trkpt lat="43.22281" lon="5.48732">
        <ele>342.6</ele>
        <time>2025-10-18T08:29:57Z</time>
      </trkpt>
      <trkpt lat="43.22281" lon="5.48733">
        <ele>342.5</ele>
        <time>2025-10-18T08:29:58Z</time>
      </trkpt>
      <trkpt lat="43.22281" lon="5.48734">
        <ele>342.5</ele>
        <time>2025-10-18T08:29:59Z</time>
      </trkpt>
      <trkpt lat="43.22281" lon="5.48735">
        <ele>342.4</ele>
        <time>2025-10-18T08:30:00Z</time>
      </trkpt>
      <trkpt lat="43.2228" lon="5.48736">
        <ele>342.3</ele>
        <time>2025-10-18T08:30:01Z</time>
      </trkpt>
      <trkpt lat="43.2228" lon="5.48738">
        <ele>342.1</ele>
        <time>2025-10-18T08:30:02Z</time>
      </trkpt>
      <trkpt lat="43.22279" lon="5.48739">
        <ele>342</ele>
        <time>2025-10-18T08:30:03Z</time>
      </trkpt>
      <trkpt lat="43.22279" lon="5.4874">
        <ele>341.9</ele>
        <time>2025-10-18T08:30:04Z</time>
      </trkpt>
      <trkpt lat="43.22279" lon="5.48741">
        <ele>341.8</ele>
        <time>2025-10-18T08:30:05Z</time>
      </trkpt>
      <trkpt lat="43.22279" lon="5.48742">
        <ele>341.8</ele>
        <time>2025-10-18T08:30:06Z</time>
      </trkpt>
      <trkpt lat="43.22279" lon="5.48743">
        <ele>341.7</ele>
        <time>2025-10-18T08:30:07Z</time>
      </trkpt>
      <trkpt lat="43.22279" lon="5.48744">
        <ele>341.7</ele>
        <time>2025-10-18T08:30:08Z</time>
      </trkpt>
      <trkpt lat="43.22279" lon="5.48745">
        <ele>341.7</ele>
        <time>2025-10-18T08:30:09Z</time>
      </trkpt>
      <trkpt lat="43.22278" lon="5.48746">
        <ele>341.6</ele>
        <time>2025-10-18T08:30:10Z</time>
      </trkpt>
      <trkpt lat="43.22278" lon="5.48747">
        <ele>341.6</ele>
        <time>2025-10-18T08:30:11Z</time>
      </trkpt>
      <trkpt lat="43.22277" lon="5.48748">
        <ele>341.6</ele>
        <time>2025-10-18T08:30:12Z</time>
      </trkpt>
      <trkpt lat="43.22277" lon="5.48749">
        <ele>341.5</ele>
        <time>2025-10-18T08:30:13Z</time>
      </trkpt>
      <trkpt lat="43.22276" lon="5.4875">
        <ele>341.5</ele>
        <time>2025-10-18T08:30:14Z</time>
      </trkpt>
      <trkpt lat="43.22275" lon="5.48751">
        <ele>341.4</ele>
        <time>2025-10-18T08:30:15Z</time>
      </trkpt>
      <trkpt lat="43.22275" lon="5.48752">
        <ele>341.3</ele>
        <time>2025-10-18T08:30:16Z</time>
      </trkpt>
      <trkpt lat="43.22275" lon="5.48753">
        <ele>341.2</ele>
        <time>2025-10-18T08:30:17Z</time>
      </trkpt>
      <trkpt lat="43.22274" lon="5.48754">
        <ele>341</ele>
        <time>2025-10-18T08:30:18Z</time>
      </trkpt>
      <trkpt lat="43.22274" lon="5.48756">
        <ele>341</ele>
        <time>2025-10-18T08:30:19Z</time>
      </trkpt>
      <trkpt lat="43.22274" lon="5.48757">
        <ele>340.9</ele>
        <time>2025-10-18T08:30:20Z</time>
      </trkpt>
      <trkpt lat="43.22273" lon="5.48758">
        <ele>340.9</ele>
        <time>2025-10-18T08:30:21Z</time>
      </trkpt>
      <trkpt lat="43.22273" lon="5.4876">
        <ele>340.7</ele>
        <time>2025-10-18T08:30:22Z</time>
      </trkpt>
      <trkpt lat="43.22273" lon="5.48761">
        <ele>340.7</ele>
        <time>2025-10-18T08:30:23Z</time>
      </trkpt>
      <trkpt lat="43.22272" lon="5.48761">
        <ele>340.6</ele>
        <time>2025-10-18T08:30:24Z</time>
      </trkpt>
      <trkpt lat="43.22271" lon="5.48763">
        <ele>340.5</ele>
        <time>2025-10-18T08:30:25Z</time>
      </trkpt>
      <trkpt lat="43.22271" lon="5.48764">
        <ele>340.5</ele>
        <time>2025-10-18T08:30:26Z</time>
      </trkpt>
      <trkpt lat="43.22271" lon="5.48765">
        <ele>340.4</ele>
        <time>2025-10-18T08:30:27Z</time>
      </trkpt>
      <trkpt lat="43.2227" lon="5.48766">
        <ele>340.4</ele>
        <time>2025-10-18T08:30:28Z</time>
      </trkpt>
      <trkpt lat="43.2227" lon="5.48767">
        <ele>340.3</ele>
        <time>2025-10-18T08:30:29Z</time>
      </trkpt>
      <trkpt lat="43.22269" lon="5.48768">
        <ele>340.2</ele>
        <time>2025-10-18T08:30:30Z</time>
      </trkpt>
      <trkpt lat="43.22269" lon="5.48769">
        <ele>340.1</ele>
        <time>2025-10-18T08:30:31Z</time>
      </trkpt>
      <trkpt lat="43.22268" lon="5.4877">
        <ele>340</ele>
        <time>2025-10-18T08:30:32Z</time>
      </trkpt>
      <trkpt lat="43.22268" lon="5.48771">
        <ele>339.8</ele>
        <time>2025-10-18T08:30:33Z</time>
      </trkpt>
      <trkpt lat="43.22267" lon="5.48772">
        <ele>339.8</ele>
        <time>2025-10-18T08:30:34Z</time>
      </trkpt>
      <trkpt lat="43.22267" lon="5.48773">
        <ele>339.7</ele>
        <time>2025-10-18T08:30:35Z</time>
      </trkpt>
      <trkpt lat="43.22267" lon="5.48774">
        <ele>339.6</ele>
        <time>2025-10-18T08:30:36Z</time>
      </trkpt>
      <trkpt lat="43.22266" lon="5.48775">
        <ele>339.5</ele>
        <time>2025-10-18T08:30:37Z</time>
      </trkpt>
      <trkpt lat="43.22266" lon="5.48776">
        <ele>339.4</ele>
        <time>2025-10-18T08:30:38Z</time>
      </trkpt>
      <trkpt lat="43.22266" lon="5.48777">
        <ele>339.4</ele>
        <time>2025-10-18T08:30:39Z</time>
      </trkpt>
      <trkpt lat="43.22266" lon="5.48779">
        <ele>339.3</ele>
        <time>2025-10-18T08:30:40Z</time>
      </trkpt>
      <trkpt lat="43.22265" lon="5.4878">
        <ele>339.1</ele>
        <time>2025-10-18T08:30:41Z</time>
      </trkpt>
      <trkpt lat="43.22265" lon="5.48782">
        <ele>339</ele>
        <time>2025-10-18T08:30:42Z</time>
      </trkpt>
      <trkpt lat="43.22264" lon="5.48783">
        <ele>338.9</ele>
        <time>2025-10-18T08:30:43Z</time>
      </trkpt>
      <trkpt lat="43.22264" lon="5.48784">
        <ele>338.8</ele>
        <time>2025-10-18T08:30:44Z</time>
      </trkpt>
      <trkpt lat="43.22263" lon="5.48785">
        <ele>338.6</ele>
        <time>2025-10-18T08:30:45Z</time>
      </trkpt>
      <trkpt lat="43.22263" lon="5.48786">
        <ele>338.6</ele>
        <time>2025-10-18T08:30:46Z</time>
      </trkpt>
      <trkpt lat="43.22262" lon="5.48787">
        <ele>338.4</ele>
        <time>2025-10-18T08:30:47Z</time>
      </trkpt>
      <trkpt lat="43.22262" lon="5.48788">
        <ele>338.4</ele>
        <time>2025-10-18T08:30:48Z</time>
      </trkpt>
      <trkpt lat="43.22261" lon="5.48789">
        <ele>338.3</ele>
        <time>2025-10-18T08:30:49Z</time>
      </trkpt>
      <trkpt lat="43.22261" lon="5.4879">
        <ele>338.1</ele>
        <time>2025-10-18T08:30:50Z</time>
      </trkpt>
      <trkpt lat="43.2226" lon="5.48792">
        <ele>338</ele>
        <time>2025-10-18T08:30:51Z</time>
      </trkpt>
      <trkpt lat="43.2226" lon="5.48793">
        <ele>337.9</ele>
        <time>2025-10-18T08:30:52Z</time>
      </trkpt>
      <trkpt lat="43.22259" lon="5.48794">
        <ele>337.8</ele>
        <time>2025-10-18T08:30:53Z</time>
      </trkpt>
      <trkpt lat="43.22259" lon="5.48795">
        <ele>337.7</ele>
        <time>2025-10-18T08:30:54Z</time>
      </trkpt>
      <trkpt lat="43.22258" lon="5.48796">
        <ele>337.6</ele>
        <time>2025-10-18T08:30:55Z</time>
      </trkpt>
      <trkpt lat="43.22257" lon="5.48798">
        <ele>337.5</ele>
        <time>2025-10-18T08:30:56Z</time>
      </trkpt>
      <trkpt lat="43.22257" lon="5.48799">
        <ele>337.5</ele>
        <time>2025-10-18T08:30:57Z</time>
      </trkpt>
      <trkpt lat="43.22256" lon="5.488">
        <ele>337.4</ele>
        <time>2025-10-18T08:30:58Z</time>
      </trkpt>
      <trkpt lat="43.22255" lon="5.48802">
        <ele>337.3</ele>
        <time>2025-10-18T08:30:59Z</time>
      </trkpt>
      <trkpt lat="43.22255" lon="5.48803">
        <ele>337.1</ele>
        <time>2025-10-18T08:31:00Z</time>
      </trkpt>
      <trkpt lat="43.22254" lon="5.48804">
        <ele>337.1</ele>
        <time>2025-10-18T08:31:01Z</time>
      </trkpt>
      <trkpt lat="43.22253" lon="5.48805">
        <ele>337</ele>
        <time>2025-10-18T08:31:02Z</time>
      </trkpt>
      <trkpt lat="43.22252" lon="5.48806">
        <ele>337</ele>
        <time>2025-10-18T08:31:03Z</time>
      </trkpt>
      <trkpt lat="43.22251" lon="5.48807">
        <ele>336.8</ele>
        <time>2025-10-18T08:31:04Z</time>
      </trkpt>
      <trkpt lat="43.2225" lon="5.48809">
        <ele>336.7</ele>
        <time>2025-10-18T08:31:05Z</time>
      </trkpt>
      <trkpt lat="43.22249" lon="5.4881">
        <ele>336.6</ele>
        <time>2025-10-18T08:31:06Z</time>
      </trkpt>
      <trkpt lat="43.22248" lon="5.48811">
        <ele>336.5</ele>
        <time>2025-10-18T08:31:07Z</time>
      </trkpt>
      <trkpt lat="43.22248" lon="5.48812">
        <ele>336.5</ele>
        <time>2025-10-18T08:31:08Z</time>
      </trkpt>
      <trkpt lat="43.22247" lon="5.48814">
        <ele>336.4</ele>
        <time>2025-10-18T08:31:09Z</time>
      </trkpt>
      <trkpt lat="43.22247" lon="5.48815">
        <ele>336.4</ele>
        <time>2025-10-18T08:31:10Z</time>
      </trkpt>
      <trkpt lat="43.22246" lon="5.48816">
        <ele>336.3</ele>
        <time>2025-10-18T08:31:11Z</time>
      </trkpt>
      <trkpt lat="43.22245" lon="5.48817">
        <ele>336.2</ele>
        <time>2025-10-18T08:31:12Z</time>
      </trkpt>
      <trkpt lat="43.22245" lon="5.48819">
        <ele>336.1</ele>
        <time>2025-10-18T08:31:13Z</time>
      </trkpt>
      <trkpt lat="43.22244" lon="5.4882">
        <ele>336</ele>
        <time>2025-10-18T08:31:14Z</time>
      </trkpt>
      <trkpt lat="43.22244" lon="5.4882">
        <ele>335.9</ele>
        <time>2025-10-18T08:31:15Z</time>
      </trkpt>
      <trkpt lat="43.22243" lon="5.4882">
        <ele>335.8</ele>
        <time>2025-10-18T08:31:16Z</time>
      </trkpt>
      <trkpt lat="43.22242" lon="5.48821">
        <ele>335.7</ele>
        <time>2025-10-18T08:31:17Z</time>
      </trkpt>
      <trkpt lat="43.22241" lon="5.48821">
        <ele>335.5</ele>
        <time>2025-10-18T08:31:18Z</time>
      </trkpt>
      <trkpt lat="43.2224" lon="5.48822">
        <ele>335.5</ele>
        <time>2025-10-18T08:31:19Z</time>
      </trkpt>
      <trkpt lat="43.22239" lon="5.48822">
        <ele>335.3</ele>
        <time>2025-10-18T08:31:20Z</time>
      </trkpt>
      <trkpt lat="43.22238" lon="5.48822">
        <ele>335.3</ele>
        <time>2025-10-18T08:31:21Z</time>
      </trkpt>
      <trkpt lat="43.22238" lon="5.48822">
        <ele>335.2</ele>
        <time>2025-10-18T08:31:22Z</time>
      </trkpt>
      <trkpt lat="43.22238" lon="5.48822">
        <ele>335.2</ele>
        <time>2025-10-18T08:31:23Z</time>
      </trkpt>
      <trkpt lat="43.22238" lon="5.48823">
        <ele>335.2</ele>
        <time>2025-10-18T08:31:24Z</time>
      </trkpt>
      <trkpt lat="43.22238" lon="5.48823">
        <ele>335.1</ele>
        <time>2025-10-18T08:31:25Z</time>
      </trkpt>
      <trkpt lat="43.22238" lon="5.48823">
        <ele>335.1</ele>
        <time>2025-10-18T08:31:26Z</time>
      </trkpt>
      <trkpt lat="43.22238" lon="5.48823">
        <ele>335.1</ele>
        <time>2025-10-18T08:31:27Z</time>
      </trkpt>
      <trkpt lat="43.22237" lon="5.48823">
        <ele>335</ele>
        <time>2025-10-18T08:31:28Z</time>
      </trkpt>
      <trkpt lat="43.22237" lon="5.48824">
        <ele>335</ele>
        <time>2025-10-18T08:31:29Z</time>
      </trkpt>
      <trkpt lat="43.22236" lon="5.48824">
        <ele>335</ele>
        <time>2025-10-18T08:31:30Z</time>
      </trkpt>
      <trkpt lat="43.22235" lon="5.48825">
        <ele>334.9</ele>
        <time>2025-10-18T08:31:31Z</time>
      </trkpt>
      <trkpt lat="43.22234" lon="5.48826">
        <ele>334.9</ele>
        <time>2025-10-18T08:31:32Z</time>
      </trkpt>
      <trkpt lat="43.22234" lon="5.48826">
        <ele>334.8</ele>
        <time>2025-10-18T08:31:33Z</time>
      </trkpt>
      <trkpt lat="43.22233" lon="5.48826">
        <ele>334.7</ele>
        <time>2025-10-18T08:31:34Z</time>
      </trkpt>
      <trkpt lat="43.22232" lon="5.48827">
        <ele>334.6</ele>
        <time>2025-10-18T08:31:35Z</time>
      </trkpt>
      <trkpt lat="43.22231" lon="5.48827">
        <ele>334.4</ele>
        <time>2025-10-18T08:31:36Z</time>
      </trkpt>
      <trkpt lat="43.2223" lon="5.48827">
        <ele>334.3</ele>
        <time>2025-10-18T08:31:37Z</time>
      </trkpt>
      <trkpt lat="43.22229" lon="5.48827">
        <ele>334.2</ele>
        <time>2025-10-18T08:31:38Z</time>
      </trkpt>
      <trkpt lat="43.22228" lon="5.48826">
        <ele>334.1</ele>
        <time>2025-10-18T08:31:39Z</time>
      </trkpt>
      <trkpt lat="43.22228" lon="5.48826">
        <ele>333.9</ele>
        <time>2025-10-18T08:31:40Z</time>
      </trkpt>
      <trkpt lat="43.22228" lon="5.48825">
        <ele>333.9</ele>
        <time>2025-10-18T08:31:41Z</time>
      </trkpt>
      <trkpt lat="43.22227" lon="5.48825">
        <ele>333.9</ele>
        <time>2025-10-18T08:31:42Z</time>
      </trkpt>
      <trkpt lat="43.22227" lon="5.48824">
        <ele>333.8</ele>
        <time>2025-10-18T08:31:43Z</time>
      </trkpt>
      <trkpt lat="43.22227" lon="5.48824">
        <ele>333.8</ele>
        <time>2025-10-18T08:31:44Z</time>
      </trkpt>
      <trkpt lat="43.22227" lon="5.48824">
        <ele>333.9</ele>
        <time>2025-10-18T08:31:45Z</time>
      </trkpt>
      <trkpt lat="43.22227" lon="5.48823">
        <ele>333.9</ele>
        <time>2025-10-18T08:31:46Z</time>
      </trkpt>
      <trkpt lat="43.22227" lon="5.48824">
        <ele>333.9</ele>
        <time>2025-10-18T08:31:47Z</time>
      </trkpt>
      <trkpt lat="43.22226" lon="5.48824">
        <ele>333.9</ele>
        <time>2025-10-18T08:31:48Z</time>
      </trkpt>
      <trkpt lat="43.22226" lon="5.48824">
        <ele>333.9</ele>
        <time>2025-10-18T08:31:49Z</time>
      </trkpt>
      <trkpt lat="43.22226" lon="5.48824">
        <ele>334</ele>
        <time>2025-10-18T08:31:50Z</time>
      </trkpt>
      <trkpt lat="43.22226" lon="5.48824">
        <ele>334</ele>
        <time>2025-10-18T08:31:51Z</time>
      </trkpt>
      <trkpt lat="43.22226" lon="5.48824">
        <ele>334.1</ele>
        <time>2025-10-18T08:31:52Z</time>
      </trkpt>
      <trkpt lat="43.22226" lon="5.48823">
        <ele>334.1</ele>
        <time>2025-10-18T08:31:53Z</time>
      </trkpt>
      <trkpt lat="43.22225" lon="5.48823">
        <ele>334</ele>
        <time>2025-10-18T08:31:54Z</time>
      </trkpt>
      <trkpt lat="43.22225" lon="5.48824">
        <ele>333.9</ele>
        <time>2025-10-18T08:31:55Z</time>
      </trkpt>
      <trkpt lat="43.22224" lon="5.48823">
        <ele>333.8</ele>
        <time>2025-10-18T08:31:56Z</time>
      </trkpt>
      <trkpt lat="43.22223" lon="5.48823">
        <ele>333.7</ele>
        <time>2025-10-18T08:31:57Z</time>
      </trkpt>
      <trkpt lat="43.22222" lon="5.48823">
        <ele>333.7</ele>
        <time>2025-10-18T08:31:58Z</time>
      </trkpt>
      <trkpt lat="43.22221" lon="5.48823">
        <ele>333.7</ele>
        <time>2025-10-18T08:31:59Z</time>
      </trkpt>
      <trkpt lat="43.2222" lon="5.48823">
        <ele>333.7</ele>
        <time>2025-10-18T08:32:00Z</time>
      </trkpt>
      <trkpt lat="43.22219" lon="5.48823">
        <ele>333.6</ele>
        <time>2025-10-18T08:32:01Z</time>
      </trkpt>
      <trkpt lat="43.22218" lon="5.48823">
        <ele>333.5</ele>
        <time>2025-10-18T08:32:02Z</time>
      </trkpt>
      <trkpt lat="43.22217" lon="5.48823">
        <ele>333.5</ele>
        <time>2025-10-18T08:32:03Z</time>
      </trkpt>
      <trkpt lat="43.22216" lon="5.48823">
        <ele>333.4</ele>
        <time>2025-10-18T08:32:04Z</time>
      </trkpt>
      <trkpt lat="43.22215" lon="5.48823">
        <ele>333.2</ele>
        <time>2025-10-18T08:32:05Z</time>
      </trkpt>
      <trkpt lat="43.22214" lon="5.48822">
        <ele>333.1</ele>
        <time>2025-10-18T08:32:06Z</time>
      </trkpt>
      <trkpt lat="43.22213" lon="5.48822">
        <ele>333.1</ele>
        <time>2025-10-18T08:32:07Z</time>
      </trkpt>
      <trkpt lat="43.22212" lon="5.48822">
        <ele>332.9</ele>
        <time>2025-10-18T08:32:08Z</time>
      </trkpt>
      <trkpt lat="43.22211" lon="5.48821">
        <ele>332.8</ele>
        <time>2025-10-18T08:32:09Z</time>
      </trkpt>
      <trkpt lat="43.2221" lon="5.4882">
        <ele>332.7</ele>
        <time>2025-10-18T08:32:10Z</time>
      </trkpt>
      <trkpt lat="43.22209" lon="5.4882">
        <ele>332.6</ele>
        <time>2025-10-18T08:32:11Z</time>
      </trkpt>
      <trkpt lat="43.22208" lon="5.48819">
        <ele>332.5</ele>
        <time>2025-10-18T08:32:12Z</time>
      </trkpt>
      <trkpt lat="43.22207" lon="5.48819">
        <ele>332.5</ele>
        <time>2025-10-18T08:32:13Z</time>
      </trkpt>
      <trkpt lat="43.22206" lon="5.4882">
        <ele>332.4</ele>
        <time>2025-10-18T08:32:14Z</time>
      </trkpt>
      <trkpt lat="43.22205" lon="5.4882">
        <ele>332.3</ele>
        <time>2025-10-18T08:32:15Z</time>
      </trkpt>
      <trkpt lat="43.22204" lon="5.4882">
        <ele>332.2</ele>
        <time>2025-10-18T08:32:16Z</time>
      </trkpt>
      <trkpt lat="43.22203" lon="5.4882">
        <ele>332.1</ele>
        <time>2025-10-18T08:32:17Z</time>
      </trkpt>
      <trkpt lat="43.22202" lon="5.4882">
        <ele>332</ele>
        <time>2025-10-18T08:32:18Z</time>
      </trkpt>
      <trkpt lat="43.22201" lon="5.4882">
        <ele>331.9</ele>
        <time>2025-10-18T08:32:19Z</time>
      </trkpt>
      <trkpt lat="43.22199" lon="5.48819">
        <ele>331.8</ele>
        <time>2025-10-18T08:32:20Z</time>
      </trkpt>
      <trkpt lat="43.22199" lon="5.48819">
        <ele>331.8</ele>
        <time>2025-10-18T08:32:21Z</time>
      </trkpt>
      <trkpt lat="43.22198" lon="5.48819">
        <ele>331.7</ele>
        <time>2025-10-18T08:32:22Z</time>
      </trkpt>
      <trkpt lat="43.22197" lon="5.48819">
        <ele>331.6</ele>
        <time>2025-10-18T08:32:23Z</time>
      </trkpt>
      <trkpt lat="43.22197" lon="5.48819">
        <ele>331.5</ele>
        <time>2025-10-18T08:32:24Z</time>
      </trkpt>
      <trkpt lat="43.22196" lon="5.48818">
        <ele>331.5</ele>
        <time>2025-10-18T08:32:25Z</time>
      </trkpt>
      <trkpt lat="43.22196" lon="5.48817">
        <ele>331.4</ele>
        <time>2025-10-18T08:32:26Z</time>
      </trkpt>
      <trkpt lat="43.22195" lon="5.48816">
        <ele>331.5</ele>
        <time>2025-10-18T08:32:27Z</time>
      </trkpt>
      <trkpt lat="43.22194" lon="5.48815">
        <ele>331.4</ele>
        <time>2025-10-18T08:32:28Z</time>
      </trkpt>
      <trkpt lat="43.22193" lon="5.48814">
        <ele>331.4</ele>
        <time>2025-10-18T08:32:29Z</time>
      </trkpt>
      <trkpt lat="43.22192" lon="5.48814">
        <ele>331.5</ele>
        <time>2025-10-18T08:32:30Z</time>
      </trkpt>
      <trkpt lat="43.22191" lon="5.48813">
        <ele>331.5</ele>
        <time>2025-10-18T08:32:31Z</time>
      </trkpt>
      <trkpt lat="43.2219" lon="5.48812">
        <ele>331.4</ele>
        <time>2025-10-18T08:32:32Z</time>
      </trkpt>
      <trkpt lat="43.2219" lon="5.48812">
        <ele>331.4</ele>
        <time>2025-10-18T08:32:33Z</time>
      </trkpt>
      <trkpt lat="43.22188" lon="5.48811">
        <ele>331.4</ele>
        <time>2025-10-18T08:32:34Z</time>
      </trkpt>
      <trkpt lat="43.22188" lon="5.48811">
        <ele>331.3</ele>
        <time>2025-10-18T08:32:35Z</time>
      </trkpt>
      <trkpt lat="43.22187" lon="5.4881">
        <ele>331.2</ele>
        <time>2025-10-18T08:32:36Z</time>
      </trkpt>
      <trkpt lat="43.22186" lon="5.4881">
        <ele>331.1</ele>
        <time>2025-10-18T08:32:37Z</time>
      </trkpt>
      <trkpt lat="43.22185" lon="5.48809">
        <ele>331</ele>
        <time>2025-10-18T08:32:38Z</time>
      </trkpt>
      <trkpt lat="43.22184" lon="5.48808">
        <ele>331</ele>
        <time>2025-10-18T08:32:39Z</time>
      </trkpt>
      <trkpt lat="43.22183" lon="5.48808">
        <ele>330.8</ele>
        <time>2025-10-18T08:32:40Z</time>
      </trkpt>
      <trkpt lat="43.22182" lon="5.48807">
        <ele>330.6</ele>
        <time>2025-10-18T08:32:41Z</time>
      </trkpt>
      <trkpt lat="43.22182" lon="5.48807">
        <ele>330.5</ele>
        <time>2025-10-18T08:32:42Z</time>
      </trkpt>
      <trkpt lat="43.22181" lon="5.48806">
        <ele>330.5</ele>
        <time>2025-10-18T08:32:43Z</time>
      </trkpt>
      <trkpt lat="43.2218" lon="5.48806">
        <ele>330.4</ele>
        <time>2025-10-18T08:32:44Z</time>
      </trkpt>
      <trkpt lat="43.2218" lon="5.48806">
        <ele>330.3</ele>
        <time>2025-10-18T08:32:45Z</time>
      </trkpt>
      <trkpt lat="43.22179" lon="5.48806">
        <ele>330.3</ele>
        <time>2025-10-18T08:32:46Z</time>
      </trkpt>
      <trkpt lat="43.22179" lon="5.48806">
        <ele>330.2</ele>
        <time>2025-10-18T08:32:47Z</time>
      </trkpt>
      <trkpt lat="43.22179" lon="5.48806">
        <ele>330.1</ele>
        <time>2025-10-18T08:32:48Z</time>
      </trkpt>
      <trkpt lat="43.22179" lon="5.48806">
        <ele>330</ele>
        <time>2025-10-18T08:32:49Z</time>
      </trkpt>
      <trkpt lat="43.22179" lon="5.48806">
        <ele>329.9</ele>
        <time>2025-10-18T08:32:50Z</time>
      </trkpt>
      <trkpt lat="43.22179" lon="5.48806">
        <ele>329.9</ele>
        <time>2025-10-18T08:32:51Z</time>
      </trkpt>
      <trkpt lat="43.22179" lon="5.48806">
        <ele>329.8</ele>
        <time>2025-10-18T08:32:52Z</time>
      </trkpt>
      <trkpt lat="43.22179" lon="5.48806">
        <ele>329.6</ele>
        <time>2025-10-18T08:32:53Z</time>
      </trkpt>
      <trkpt lat="43.22179" lon="5.48806">
        <ele>329.6</ele>
        <time>2025-10-18T08:32:54Z</time>
      </trkpt>
      <trkpt lat="43.22179" lon="5.48806">
        <ele>329.6</ele>
        <time>2025-10-18T08:32:55Z</time>
      </trkpt>
      <trkpt lat="43.22179" lon="5.48806">
        <ele>329.6</ele>
        <time>2025-10-18T08:32:56Z</time>
      </trkpt>
      <trkpt lat="43.22179" lon="5.48806">
        <ele>329.6</ele>
        <time>2025-10-18T08:32:57Z</time>
      </trkpt>
      <trkpt lat="43.22179" lon="5.48806">
        <ele>329.6</ele>
        <time>2025-10-18T08:32:58Z</time>
      </trkpt>
      <trkpt lat="43.22179" lon="5.48806">
        <ele>329.6</ele>
        <time>2025-10-18T08:32:59Z</time>
      </trkpt>
      <trkpt lat="43.22179" lon="5.48806">
        <ele>329.6</ele>
        <time>2025-10-18T08:33:00Z</time>
      </trkpt>
      <trkpt lat="43.22179" lon="5.48806">
        <ele>329.6</ele>
        <time>2025-10-18T08:33:01Z</time>
      </trkpt>
      <trkpt lat="43.22179" lon="5.48806">
        <ele>329.5</ele>
        <time>2025-10-18T08:33:02Z</time>
      </trkpt>
      <trkpt lat="43.22179" lon="5.48806">
        <ele>329.5</ele>
        <time>2025-10-18T08:33:03Z</time>
      </trkpt>
      <trkpt lat="43.22179" lon="5.48806">
        <ele>329.4</ele>
        <time>2025-10-18T08:33:04Z</time>
      </trkpt>
      <trkpt lat="43.22179" lon="5.48806">
        <ele>329.4</ele>
        <time>2025-10-18T08:33:05Z</time>
      </trkpt>
      <trkpt lat="43.22179" lon="5.48806">
        <ele>329.4</ele>
        <time>2025-10-18T08:33:06Z</time>
      </trkpt>
      <trkpt lat="43.22179" lon="5.48806">
        <ele>329.4</ele>
        <time>2025-10-18T08:33:07Z</time>
      </trkpt>
      <trkpt lat="43.22178" lon="5.48806">
        <ele>329.3</ele>
        <time>2025-10-18T08:33:08Z</time>
      </trkpt>
      <trkpt lat="43.22178" lon="5.48806">
        <ele>329.3</ele>
        <time>2025-10-18T08:33:09Z</time>
      </trkpt>
      <trkpt lat="43.22178" lon="5.48807">
        <ele>329.4</ele>
        <time>2025-10-18T08:33:10Z</time>
      </trkpt>
      <trkpt lat="43.22177" lon="5.48807">
        <ele>329.2</ele>
        <time>2025-10-18T08:33:11Z</time>
      </trkpt>
      <trkpt lat="43.22177" lon="5.48808">
        <ele>329.2</ele>
        <time>2025-10-18T08:33:12Z</time>
      </trkpt>
      <trkpt lat="43.22177" lon="5.48809">
        <ele>329</ele>
        <time>2025-10-18T08:33:13Z</time>
      </trkpt>
      <trkpt lat="43.22176" lon="5.4881">
        <ele>328.9</ele>
        <time>2025-10-18T08:33:14Z</time>
      </trkpt>
      <trkpt lat="43.22176" lon="5.48811">
        <ele>328.9</ele>
        <time>2025-10-18T08:33:15Z</time>
      </trkpt>
      <trkpt lat="43.22176" lon="5.48812">
        <ele>328.8</ele>
        <time>2025-10-18T08:33:16Z</time>
      </trkpt>
      <trkpt lat="43.22175" lon="5.48812">
        <ele>328.6</ele>
        <time>2025-10-18T08:33:17Z</time>
      </trkpt>
      <trkpt lat="43.22175" lon="5.48813">
        <ele>328.5</ele>
        <time>2025-10-18T08:33:18Z</time>
      </trkpt>
      <trkpt lat="43.22175" lon="5.48814">
        <ele>328.2</ele>
        <time>2025-10-18T08:33:19Z</time>
      </trkpt>
      <trkpt lat="43.22175" lon="5.48815">
        <ele>328</ele>
        <time>2025-10-18T08:33:20Z</time>
      </trkpt>
      <trkpt lat="43.22174" lon="5.48816">
        <ele>327.9</ele>
        <time>2025-10-18T08:33:21Z</time>
      </trkpt>
      <trkpt lat="43.22174" lon="5.48816">
        <ele>327.8</ele>
        <time>2025-10-18T08:33:22Z</time>
      </trkpt>
      <trkpt lat="43.22174" lon="5.48817">
        <ele>327.7</ele>
        <time>2025-10-18T08:33:23Z</time>
      </trkpt>
      <trkpt lat="43.22174" lon="5.48818">
        <ele>327.6</ele>
        <time>2025-10-18T08:33:24Z</time>
      </trkpt>
      <trkpt lat="43.22173" lon="5.48819">
        <ele>327.5</ele>
        <time>2025-10-18T08:33:25Z</time>
      </trkpt>
      <trkpt lat="43.22173" lon="5.48819">
        <ele>327.3</ele>
        <time>2025-10-18T08:33:26Z</time>
      </trkpt>
      <trkpt lat="43.22172" lon="5.4882">
        <ele>327.1</ele>
        <time>2025-10-18T08:33:27Z</time>
      </trkpt>
      <trkpt lat="43.22171" lon="5.48819">
        <ele>326.8</ele>
        <time>2025-10-18T08:33:28Z</time>
      </trkpt>
      <trkpt lat="43.2217" lon="5.48818">
        <ele>326.6</ele>
        <time>2025-10-18T08:33:29Z</time>
      </trkpt>
      <trkpt lat="43.2217" lon="5.48818">
        <ele>326.4</ele>
        <time>2025-10-18T08:33:30Z</time>
      </trkpt>
      <trkpt lat="43.22169" lon="5.48818">
        <ele>326.2</ele>
        <time>2025-10-18T08:33:31Z</time>
      </trkpt>
      <trkpt lat="43.22168" lon="5.48818">
        <ele>326</ele>
        <time>2025-10-18T08:33:32Z</time>
      </trkpt>
      <trkpt lat="43.22168" lon="5.48818">
        <ele>325.9</ele>
        <time>2025-10-18T08:33:33Z</time>
      </trkpt>
      <trkpt lat="43.22167" lon="5.48818">
        <ele>325.6</ele>
        <time>2025-10-18T08:33:34Z</time>
      </trkpt>
      <trkpt lat="43.22166" lon="5.48817">
        <ele>325.3</ele>
        <time>2025-10-18T08:33:35Z</time>
      </trkpt>
      <trkpt lat="43.22165" lon="5.48817">
        <ele>325.1</ele>
        <time>2025-10-18T08:33:36Z</time>
      </trkpt>
      <trkpt lat="43.22165" lon="5.48816">
        <ele>325</ele>
        <time>2025-10-18T08:33:37Z</time>
      </trkpt>
      <trkpt lat="43.22164" lon="5.48816">
        <ele>324.8</ele>
        <time>2025-10-18T08:33:38Z</time>
      </trkpt>
      <trkpt lat="43.22164" lon="5.48815">
        <ele>324.6</ele>
        <time>2025-10-18T08:33:39Z</time>
      </trkpt>
      <trkpt lat="43.22163" lon="5.48815">
        <ele>324.4</ele>
        <time>2025-10-18T08:33:40Z</time>
      </trkpt>
      <trkpt lat="43.22162" lon="5.48814">
        <ele>324.2</ele>
        <time>2025-10-18T08:33:41Z</time>
      </trkpt>
      <trkpt lat="43.22161" lon="5.48813">
        <ele>324</ele>
        <time>2025-10-18T08:33:42Z</time>
      </trkpt>
      <trkpt lat="43.22161" lon="5.48812">
        <ele>323.9</ele>
        <time>2025-10-18T08:33:43Z</time>
      </trkpt>
      <trkpt lat="43.2216" lon="5.48812">
        <ele>323.6</ele>
        <time>2025-10-18T08:33:44Z</time>
      </trkpt>
      <trkpt lat="43.22159" lon="5.48813">
        <ele>323.5</ele>
        <time>2025-10-18T08:33:45Z</time>
      </trkpt>
      <trkpt lat="43.22158" lon="5.48814">
        <ele>323.1</ele>
        <time>2025-10-18T08:33:46Z</time>
      </trkpt>
      <trkpt lat="43.22158" lon="5.48815">
        <ele>322.9</ele>
        <time>2025-10-18T08:33:47Z</time>
      </trkpt>
      <trkpt lat="43.22158" lon="5.48816">
        <ele>322.7</ele>
        <time>2025-10-18T08:33:48Z</time>
      </trkpt>
      <trkpt lat="43.22158" lon="5.48817">
        <ele>322.6</ele>
        <time>2025-10-18T08:33:49Z</time>
      </trkpt>
      <trkpt lat="43.22158" lon="5.48818">
        <ele>322.5</ele>
        <time>2025-10-18T08:33:50Z</time>
      </trkpt>
      <trkpt lat="43.22158" lon="5.48819">
        <ele>322.2</ele>
        <time>2025-10-18T08:33:51Z</time>
      </trkpt>
      <trkpt lat="43.22158" lon="5.48821">
        <ele>322</ele>
        <time>2025-10-18T08:33:52Z</time>
      </trkpt>
      <trkpt lat="43.22158" lon="5.48821">
        <ele>321.8</ele>
        <time>2025-10-18T08:33:53Z</time>
      </trkpt>
      <trkpt lat="43.22157" lon="5.48822">
        <ele>321.6</ele>
        <time>2025-10-18T08:33:54Z</time>
      </trkpt>
      <trkpt lat="43.22157" lon="5.48823">
        <ele>321.4</ele>
        <time>2025-10-18T08:33:55Z</time>
      </trkpt>
      <trkpt lat="43.22157" lon="5.48824">
        <ele>321.2</ele>
        <time>2025-10-18T08:33:56Z</time>
      </trkpt>
      <trkpt lat="43.22156" lon="5.48824">
        <ele>321.1</ele>
        <time>2025-10-18T08:33:57Z</time>
      </trkpt>
      <trkpt lat="43.22156" lon="5.48825">
        <ele>320.9</ele>
        <time>2025-10-18T08:33:58Z</time>
      </trkpt>
      <trkpt lat="43.22155" lon="5.48825">
        <ele>320.6</ele>
        <time>2025-10-18T08:33:59Z</time>
      </trkpt>
      <trkpt lat="43.22155" lon="5.48826">
        <ele>320.4</ele>
        <time>2025-10-18T08:34:00Z</time>
      </trkpt>
      <trkpt lat="43.22155" lon="5.48826">
        <ele>320.2</ele>
        <time>2025-10-18T08:34:01Z</time>
      </trkpt>
      <trkpt lat="43.22154" lon="5.48826">
        <ele>320</ele>
        <time>2025-10-18T08:34:02Z</time>
      </trkpt>
      <trkpt lat="43.22154" lon="5.48826">
        <ele>320</ele>
        <time>2025-10-18T08:34:03Z</time>
      </trkpt>
      <trkpt lat="43.22153" lon="5.48825">
        <ele>319.8</ele>
        <time>2025-10-18T08:34:04Z</time>
      </trkpt>
      <trkpt lat="43.22152" lon="5.48825">
        <ele>319.6</ele>
        <time>2025-10-18T08:34:05Z</time>
      </trkpt>
      <trkpt lat="43.22152" lon="5.48825">
        <ele>319.4</ele>
        <time>2025-10-18T08:34:06Z</time>
      </trkpt>
      <trkpt lat="43.22152" lon="5.48825">
        <ele>319.3</ele>
        <time>2025-10-18T08:34:07Z</time>
      </trkpt>
      <trkpt lat="43.22151" lon="5.48825">
        <ele>319.1</ele>
        <time>2025-10-18T08:34:08Z</time>
      </trkpt>
      <trkpt lat="43.22151" lon="5.48825">
        <ele>318.9</ele>
        <time>2025-10-18T08:34:09Z</time>
      </trkpt>
      <trkpt lat="43.2215" lon="5.48826">
        <ele>318.7</ele>
        <time>2025-10-18T08:34:10Z</time>
      </trkpt>
      <trkpt lat="43.2215" lon="5.48827">
        <ele>318.6</ele>
        <time>2025-10-18T08:34:11Z</time>
      </trkpt>
      <trkpt lat="43.22149" lon="5.48828">
        <ele>318.4</ele>
        <time>2025-10-18T08:34:12Z</time>
      </trkpt>
      <trkpt lat="43.22149" lon="5.48829">
        <ele>318.2</ele>
        <time>2025-10-18T08:34:13Z</time>
      </trkpt>
      <trkpt lat="43.22149" lon="5.4883">
        <ele>318</ele>
        <time>2025-10-18T08:34:14Z</time>
      </trkpt>
      <trkpt lat="43.22149" lon="5.48831">
        <ele>317.8</ele>
        <time>2025-10-18T08:34:15Z</time>
      </trkpt>
      <trkpt lat="43.22149" lon="5.48831">
        <ele>317.6</ele>
        <time>2025-10-18T08:34:16Z</time>
      </trkpt>
      <trkpt lat="43.22148" lon="5.48831">
        <ele>317.5</ele>
        <time>2025-10-18T08:34:17Z</time>
      </trkpt>
      <trkpt lat="43.22148" lon="5.48831">
        <ele>317.4</ele>
        <time>2025-10-18T08:34:18Z</time>
      </trkpt>
      <trkpt lat="43.22148" lon="5.48831">
        <ele>317.3</ele>
        <time>2025-10-18T08:34:19Z</time>
      </trkpt>
      <trkpt lat="43.22148" lon="5.48831">
        <ele>317.2</ele>
        <time>2025-10-18T08:34:20Z</time>
      </trkpt>
      <trkpt lat="43.22148" lon="5.48831">
        <ele>317.2</ele>
        <time>2025-10-18T08:34:21Z</time>
      </trkpt>
      <trkpt lat="43.22148" lon="5.48831">
        <ele>317.2</ele>
        <time>2025-10-18T08:34:22Z</time>
      </trkpt>
      <trkpt lat="43.22147" lon="5.48831">
        <ele>317.2</ele>
        <time>2025-10-18T08:34:23Z</time>
      </trkpt>
      <trkpt lat="43.22147" lon="5.48831">
        <ele>317.2</ele>
        <time>2025-10-18T08:34:24Z</time>
      </trkpt>
      <trkpt lat="43.22147" lon="5.48831">
        <ele>317.2</ele>
        <time>2025-10-18T08:34:25Z</time>
      </trkpt>
      <trkpt lat="43.22147" lon="5.48831">
        <ele>317.2</ele>
        <time>2025-10-18T08:34:26Z</time>
      </trkpt>
      <trkpt lat="43.22147" lon="5.48831">
        <ele>317.2</ele>
        <time>2025-10-18T08:34:27Z</time>
      </trkpt>
      <trkpt lat="43.22146" lon="5.4883">
        <ele>317.2</ele>
        <time>2025-10-18T08:34:28Z</time>
      </trkpt>
      <trkpt lat="43.22145" lon="5.4883">
        <ele>317.1</ele>
        <time>2025-10-18T08:34:29Z</time>
      </trkpt>
      <trkpt lat="43.22145" lon="5.48831">
        <ele>316.9</ele>
        <time>2025-10-18T08:34:30Z</time>
      </trkpt>
      <trkpt lat="43.22144" lon="5.48831">
        <ele>316.8</ele>
        <time>2025-10-18T08:34:31Z</time>
      </trkpt>
      <trkpt lat="43.22143" lon="5.48831">
        <ele>316.7</ele>
        <time>2025-10-18T08:34:32Z</time>
      </trkpt>
      <trkpt lat="43.22143" lon="5.4883">
        <ele>316.4</ele>
        <time>2025-10-18T08:34:33Z</time>
      </trkpt>
      <trkpt lat="43.22143" lon="5.4883">
        <ele>316.4</ele>
        <time>2025-10-18T08:34:34Z</time>
      </trkpt>
      <trkpt lat="43.22142" lon="5.48829">
        <ele>316.3</ele>
        <time>2025-10-18T08:34:35Z</time>
      </trkpt>
      <trkpt lat="43.22141" lon="5.48828">
        <ele>316.2</ele>
        <time>2025-10-18T08:34:36Z</time>
      </trkpt>
      <trkpt lat="43.22141" lon="5.48827">
        <ele>315.9</ele>
        <time>2025-10-18T08:34:37Z</time>
      </trkpt>
      <trkpt lat="43.2214" lon="5.48826">
        <ele>315.7</ele>
        <time>2025-10-18T08:34:38Z</time>
      </trkpt>
      <trkpt lat="43.22139" lon="5.48825">
        <ele>315.4</ele>
        <time>2025-10-18T08:34:39Z</time>
      </trkpt>
      <trkpt lat="43.22139" lon="5.48824">
        <ele>315.1</ele>
        <time>2025-10-18T08:34:40Z</time>
      </trkpt>
      <trkpt lat="43.22138" lon="5.48824">
        <ele>314.9</ele>
        <time>2025-10-18T08:34:41Z</time>
      </trkpt>
      <trkpt lat="43.22138" lon="5.48823">
        <ele>314.7</ele>
        <time>2025-10-18T08:34:42Z</time>
      </trkpt>
      <trkpt lat="43.22137" lon="5.48823">
        <ele>314.6</ele>
        <time>2025-10-18T08:34:43Z</time>
      </trkpt>
      <trkpt lat="43.22136" lon="5.48822">
        <ele>314.4</ele>
        <time>2025-10-18T08:34:44Z</time>
      </trkpt>
      <trkpt lat="43.22135" lon="5.48821">
        <ele>314.2</ele>
        <time>2025-10-18T08:34:45Z</time>
      </trkpt>
      <trkpt lat="43.22135" lon="5.48821">
        <ele>314.1</ele>
        <time>2025-10-18T08:34:46Z</time>
      </trkpt>
      <trkpt lat="43.22134" lon="5.4882">
        <ele>313.9</ele>
        <time>2025-10-18T08:34:47Z</time>
      </trkpt>
      <trkpt lat="43.22133" lon="5.48819">
        <ele>313.8</ele>
        <time>2025-10-18T08:34:48Z</time>
      </trkpt>
      <trkpt lat="43.22133" lon="5.48819">
        <ele>313.7</ele>
        <time>2025-10-18T08:34:49Z</time>
      </trkpt>
      <trkpt lat="43.22133" lon="5.48818">
        <ele>313.5</ele>
        <time>2025-10-18T08:34:50Z</time>
      </trkpt>
      <trkpt lat="43.22133" lon="5.48817">
        <ele>313.3</ele>
        <time>2025-10-18T08:34:51Z</time>
      </trkpt>
      <trkpt lat="43.22132" lon="5.48816">
        <ele>313.1</ele>
        <time>2025-10-18T08:34:52Z</time>
      </trkpt>
      <trkpt lat="43.22132" lon="5.48815">
        <ele>313</ele>
        <time>2025-10-18T08:34:53Z</time>
      </trkpt>
      <trkpt lat="43.22132" lon="5.48815">
        <ele>312.8</ele>
        <time>2025-10-18T08:34:54Z</time>
      </trkpt>
      <trkpt lat="43.22131" lon="5.48815">
        <ele>312.6</ele>
        <time>2025-10-18T08:34:55Z</time>
      </trkpt>
      <trkpt lat="43.2213" lon="5.48815">
        <ele>312.5</ele>
        <time>2025-10-18T08:34:56Z</time>
      </trkpt>
      <trkpt lat="43.22129" lon="5.48814">
        <ele>312.2</ele>
        <time>2025-10-18T08:34:57Z</time>
      </trkpt>
      <trkpt lat="43.22129" lon="5.48814">
        <ele>312</ele>
        <time>2025-10-18T08:34:58Z</time>
      </trkpt>
      <trkpt lat="43.22128" lon="5.48815">
        <ele>311.8</ele>
        <time>2025-10-18T08:34:59Z</time>
      </trkpt>
      <trkpt lat="43.22127" lon="5.48815">
        <ele>311.6</ele>
        <time>2025-10-18T08:35:00Z</time>
      </trkpt>
      <trkpt lat="43.22126" lon="5.48815">
        <ele>311.3</ele>
        <time>2025-10-18T08:35:01Z</time>
      </trkpt>
      <trkpt lat="43.22126" lon="5.48814">
        <ele>311</ele>
        <time>2025-10-18T08:35:02Z</time>
      </trkpt>
      <trkpt lat="43.22125" lon="5.48814">
        <ele>310.7</ele>
        <time>2025-10-18T08:35:03Z</time>
      </trkpt>
      <trkpt lat="43.22124" lon="5.48814">
        <ele>310.4</ele>
        <time>2025-10-18T08:35:04Z</time>
      </trkpt>
      <trkpt lat="43.22124" lon="5.48814">
        <ele>310.2</ele>
        <time>2025-10-18T08:35:05Z</time>
      </trkpt>
      <trkpt lat="43.22123" lon="5.48814">
        <ele>310</ele>
        <time>2025-10-18T08:35:06Z</time>
      </trkpt>
      <trkpt lat="43.22122" lon="5.48814">
        <ele>309.7</ele>
        <time>2025-10-18T08:35:07Z</time>
      </trkpt>
      <trkpt lat="43.22122" lon="5.48813">
        <ele>309.4</ele>
        <time>2025-10-18T08:35:08Z</time>
      </trkpt>
      <trkpt lat="43.22121" lon="5.48812">
        <ele>309.2</ele>
        <time>2025-10-18T08:35:09Z</time>
      </trkpt>
      <trkpt lat="43.2212" lon="5.48812">
        <ele>309</ele>
        <time>2025-10-18T08:35:10Z</time>
      </trkpt>
      <trkpt lat="43.2212" lon="5.48811">
        <ele>308.8</ele>
        <time>2025-10-18T08:35:11Z</time>
      </trkpt>
      <trkpt lat="43.2212" lon="5.4881">
        <ele>308.6</ele>
        <time>2025-10-18T08:35:12Z</time>
      </trkpt>
      <trkpt lat="43.22119" lon="5.4881">
        <ele>308.3</ele>
        <time>2025-10-18T08:35:13Z</time>
      </trkpt>
      <trkpt lat="43.22119" lon="5.48809">
        <ele>308.1</ele>
        <time>2025-10-18T08:35:14Z</time>
      </trkpt>
      <trkpt lat="43.22118" lon="5.48809">
        <ele>307.9</ele>
        <time>2025-10-18T08:35:15Z</time>
      </trkpt>
      <trkpt lat="43.22117" lon="5.48808">
        <ele>307.8</ele>
        <time>2025-10-18T08:35:16Z</time>
      </trkpt>
      <trkpt lat="43.22117" lon="5.48808">
        <ele>307.5</ele>
        <time>2025-10-18T08:35:17Z</time>
      </trkpt>
      <trkpt lat="43.22116" lon="5.48807">
        <ele>307.4</ele>
        <time>2025-10-18T08:35:18Z</time>
      </trkpt>
      <trkpt lat="43.22116" lon="5.48806">
        <ele>307.2</ele>
        <time>2025-10-18T08:35:19Z</time>
      </trkpt>
      <trkpt lat="43.22115" lon="5.48806">
        <ele>307</ele>
        <time>2025-10-18T08:35:20Z</time>
      </trkpt>
      <trkpt lat="43.22114" lon="5.48806">
        <ele>306.7</ele>
        <time>2025-10-18T08:35:21Z</time>
      </trkpt>
      <trkpt lat="43.22114" lon="5.48805">
        <ele>306.5</ele>
        <time>2025-10-18T08:35:22Z</time>
      </trkpt>
      <trkpt lat="43.22113" lon="5.48805">
        <ele>306.2</ele>
        <time>2025-10-18T08:35:23Z</time>
      </trkpt>
      <trkpt lat="43.22113" lon="5.48804">
        <ele>306.1</ele>
        <time>2025-10-18T08:35:24Z</time>
      </trkpt>
      <trkpt lat="43.22112" lon="5.48804">
        <ele>305.9</ele>
        <time>2025-10-18T08:35:25Z</time>
      </trkpt>
      <trkpt lat="43.22111" lon="5.48803">
        <ele>305.7</ele>
        <time>2025-10-18T08:35:26Z</time>
      </trkpt>
      <trkpt lat="43.22111" lon="5.48802">
        <ele>305.5</ele>
        <time>2025-10-18T08:35:27Z</time>
      </trkpt>
      <trkpt lat="43.22111" lon="5.48802">
        <ele>305.4</ele>
        <time>2025-10-18T08:35:28Z</time>
      </trkpt>
      <trkpt lat="43.2211" lon="5.48801">
        <ele>305.2</ele>
        <time>2025-10-18T08:35:29Z</time>
      </trkpt>
      <trkpt lat="43.2211" lon="5.48801">
        <ele>305.1</ele>
        <time>2025-10-18T08:35:30Z</time>
      </trkpt>
      <trkpt lat="43.22109" lon="5.48801">
        <ele>305</ele>
        <time>2025-10-18T08:35:31Z</time>
      </trkpt>
      <trkpt lat="43.22109" lon="5.48801">
        <ele>304.7</ele>
        <time>2025-10-18T08:35:32Z</time>
      </trkpt>
      <trkpt lat="43.22109" lon="5.48802">
        <ele>304.6</ele>
        <time>2025-10-18T08:35:33Z</time>
      </trkpt>
      <trkpt lat="43.22109" lon="5.48802">
        <ele>304.4</ele>
        <time>2025-10-18T08:35:34Z</time>
      </trkpt>
      <trkpt lat="43.22108" lon="5.48802">
        <ele>304.3</ele>
        <time>2025-10-18T08:35:35Z</time>
      </trkpt>
      <trkpt lat="43.22108" lon="5.48802">
        <ele>304.1</ele>
        <time>2025-10-18T08:35:36Z</time>
      </trkpt>
      <trkpt lat="43.22107" lon="5.48801">
        <ele>303.8</ele>
        <time>2025-10-18T08:35:37Z</time>
      </trkpt>
      <trkpt lat="43.22106" lon="5.48802">
        <ele>303.5</ele>
        <time>2025-10-18T08:35:38Z</time>
      </trkpt>
      <trkpt lat="43.22105" lon="5.48801">
        <ele>303.3</ele>
        <time>2025-10-18T08:35:39Z</time>
      </trkpt>
      <trkpt lat="43.22105" lon="5.48801">
        <ele>303.1</ele>
        <time>2025-10-18T08:35:40Z</time>
      </trkpt>
      <trkpt lat="43.22104" lon="5.488">
        <ele>302.9</ele>
        <time>2025-10-18T08:35:41Z</time>
      </trkpt>
      <trkpt lat="43.22103" lon="5.48799">
        <ele>302.8</ele>
        <time>2025-10-18T08:35:42Z</time>
      </trkpt>
      <trkpt lat="43.22103" lon="5.48799">
        <ele>302.6</ele>
        <time>2025-10-18T08:35:43Z</time>
      </trkpt>
      <trkpt lat="43.22102" lon="5.48798">
        <ele>302.4</ele>
        <time>2025-10-18T08:35:44Z</time>
      </trkpt>
      <trkpt lat="43.22102" lon="5.48797">
        <ele>302.2</ele>
        <time>2025-10-18T08:35:45Z</time>
      </trkpt>
      <trkpt lat="43.22101" lon="5.48796">
        <ele>302</ele>
        <time>2025-10-18T08:35:46Z</time>
      </trkpt>
      <trkpt lat="43.22101" lon="5.48795">
        <ele>301.8</ele>
        <time>2025-10-18T08:35:47Z</time>
      </trkpt>
      <trkpt lat="43.22101" lon="5.48794">
        <ele>301.7</ele>
        <time>2025-10-18T08:35:48Z</time>
      </trkpt>
      <trkpt lat="43.221" lon="5.48793">
        <ele>301.5</ele>
        <time>2025-10-18T08:35:49Z</time>
      </trkpt>
      <trkpt lat="43.221" lon="5.48792">
        <ele>301.4</ele>
        <time>2025-10-18T08:35:50Z</time>
      </trkpt>
      <trkpt lat="43.22099" lon="5.48791">
        <ele>301.3</ele>
        <time>2025-10-18T08:35:51Z</time>
      </trkpt>
      <trkpt lat="43.22098" lon="5.4879">
        <ele>301.1</ele>
        <time>2025-10-18T08:35:52Z</time>
      </trkpt>
      <trkpt lat="43.22098" lon="5.4879">
        <ele>301</ele>
        <time>2025-10-18T08:35:53Z</time>
      </trkpt>
      <trkpt lat="43.22097" lon="5.48789">
        <ele>300.8</ele>
        <time>2025-10-18T08:35:54Z</time>
      </trkpt>
      <trkpt lat="43.22097" lon="5.48789">
        <ele>300.6</ele>
        <time>2025-10-18T08:35:55Z</time>
      </trkpt>
      <trkpt lat="43.22096" lon="5.4879">
        <ele>300.5</ele>
        <time>2025-10-18T08:35:56Z</time>
      </trkpt>
      <trkpt lat="43.22096" lon="5.48791">
        <ele>300.3</ele>
        <time>2025-10-18T08:35:57Z</time>
      </trkpt>
      <trkpt lat="43.22095" lon="5.48792">
        <ele>300.1</ele>
        <time>2025-10-18T08:35:58Z</time>
      </trkpt>
      <trkpt lat="43.22095" lon="5.48793">
        <ele>299.9</ele>
        <time>2025-10-18T08:35:59Z</time>
      </trkpt>
      <trkpt lat="43.22095" lon="5.48794">
        <ele>299.7</ele>
        <time>2025-10-18T08:36:00Z</time>
      </trkpt>
      <trkpt lat="43.22095" lon="5.48795">
        <ele>299.6</ele>
        <time>2025-10-18T08:36:01Z</time>
      </trkpt>
      <trkpt lat="43.22094" lon="5.48795">
        <ele>299.4</ele>
        <time>2025-10-18T08:36:02Z</time>
      </trkpt>
      <trkpt lat="43.22094" lon="5.48794">
        <ele>299.2</ele>
        <time>2025-10-18T08:36:03Z</time>
      </trkpt>
      <trkpt lat="43.22093" lon="5.48793">
        <ele>299.1</ele>
        <time>2025-10-18T08:36:04Z</time>
      </trkpt>
      <trkpt lat="43.22093" lon="5.48792">
        <ele>298.9</ele>
        <time>2025-10-18T08:36:05Z</time>
      </trkpt>
      <trkpt lat="43.22092" lon="5.48792">
        <ele>298.7</ele>
        <time>2025-10-18T08:36:06Z</time>
      </trkpt>
      <trkpt lat="43.22092" lon="5.48791">
        <ele>298.6</ele>
        <time>2025-10-18T08:36:07Z</time>
      </trkpt>
      <trkpt lat="43.22091" lon="5.48791">
        <ele>298.5</ele>
        <time>2025-10-18T08:36:08Z</time>
      </trkpt>
      <trkpt lat="43.22091" lon="5.48791">
        <ele>298.4</ele>
        <time>2025-10-18T08:36:09Z</time>
      </trkpt>
      <trkpt lat="43.2209" lon="5.48791">
        <ele>298.3</ele>
        <time>2025-10-18T08:36:10Z</time>
      </trkpt>
      <trkpt lat="43.22089" lon="5.48791">
        <ele>298.2</ele>
        <time>2025-10-18T08:36:11Z</time>
      </trkpt>
      <trkpt lat="43.22089" lon="5.48792">
        <ele>297.9</ele>
        <time>2025-10-18T08:36:12Z</time>
      </trkpt>
      <trkpt lat="43.22088" lon="5.48792">
        <ele>297.7</ele>
        <time>2025-10-18T08:36:13Z</time>
      </trkpt>
      <trkpt lat="43.22088" lon="5.48793">
        <ele>297.4</ele>
        <time>2025-10-18T08:36:14Z</time>
      </trkpt>
      <trkpt lat="43.22087" lon="5.48794">
        <ele>297.2</ele>
        <time>2025-10-18T08:36:15Z</time>
      </trkpt>
      <trkpt lat="43.22087" lon="5.48794">
        <ele>297</ele>
        <time>2025-10-18T08:36:16Z</time>
      </trkpt>
      <trkpt lat="43.22086" lon="5.48795">
        <ele>296.8</ele>
        <time>2025-10-18T08:36:17Z</time>
      </trkpt>
      <trkpt lat="43.22086" lon="5.48795">
        <ele>296.7</ele>
        <time>2025-10-18T08:36:18Z</time>
      </trkpt>
      <trkpt lat="43.22085" lon="5.48795">
        <ele>296.5</ele>
        <time>2025-10-18T08:36:19Z</time>
      </trkpt>
      <trkpt lat="43.22085" lon="5.48794">
        <ele>296.4</ele>
        <time>2025-10-18T08:36:20Z</time>
      </trkpt>
      <trkpt lat="43.22084" lon="5.48794">
        <ele>296.1</ele>
        <time>2025-10-18T08:36:21Z</time>
      </trkpt>
      <trkpt lat="43.22084" lon="5.48793">
        <ele>295.9</ele>
        <time>2025-10-18T08:36:22Z</time>
      </trkpt>
      <trkpt lat="43.22083" lon="5.48792">
        <ele>295.6</ele>
        <time>2025-10-18T08:36:23Z</time>
      </trkpt>
      <trkpt lat="43.22083" lon="5.48792">
        <ele>295.4</ele>
        <time>2025-10-18T08:36:24Z</time>
      </trkpt>
      <trkpt lat="43.22083" lon="5.48791">
        <ele>295.2</ele>
        <time>2025-10-18T08:36:25Z</time>
      </trkpt>
      <trkpt lat="43.22082" lon="5.48791">
        <ele>295.1</ele>
        <time>2025-10-18T08:36:26Z</time>
      </trkpt>
      <trkpt lat="43.22082" lon="5.48791">
        <ele>294.8</ele>
        <time>2025-10-18T08:36:27Z</time>
      </trkpt>
      <trkpt lat="43.22081" lon="5.48791">
        <ele>294.6</ele>
        <time>2025-10-18T08:36:28Z</time>
      </trkpt>
      <trkpt lat="43.22081" lon="5.4879">
        <ele>294.4</ele>
        <time>2025-10-18T08:36:29Z</time>
      </trkpt>
      <trkpt lat="43.2208" lon="5.4879">
        <ele>294.2</ele>
        <time>2025-10-18T08:36:30Z</time>
      </trkpt>
      <trkpt lat="43.22079" lon="5.48789">
        <ele>294.1</ele>
        <time>2025-10-18T08:36:31Z</time>
      </trkpt>
      <trkpt lat="43.22079" lon="5.48789">
        <ele>293.9</ele>
        <time>2025-10-18T08:36:32Z</time>
      </trkpt>
      <trkpt lat="43.22079" lon="5.48788">
        <ele>293.8</ele>
        <time>2025-10-18T08:36:33Z</time>
      </trkpt>
      <trkpt lat="43.22078" lon="5.48788">
        <ele>293.5</ele>
        <time>2025-10-18T08:36:34Z</time>
      </trkpt>
      <trkpt lat="43.22077" lon="5.48787">
        <ele>293.3</ele>
        <time>2025-10-18T08:36:35Z</time>
      </trkpt>
      <trkpt lat="43.22077" lon="5.48787">
        <ele>293.2</ele>
        <time>2025-10-18T08:36:36Z</time>
      </trkpt>
      <trkpt lat="43.22076" lon="5.48787">
        <ele>293</ele>
        <time>2025-10-18T08:36:37Z</time>
      </trkpt>
      <trkpt lat="43.22075" lon="5.48787">
        <ele>292.8</ele>
        <time>2025-10-18T08:36:38Z</time>
      </trkpt>
      <trkpt lat="43.22075" lon="5.48787">
        <ele>292.6</ele>
        <time>2025-10-18T08:36:39Z</time>
      </trkpt>
      <trkpt lat="43.22074" lon="5.48787">
        <ele>292.5</ele>
        <time>2025-10-18T08:36:40Z</time>
      </trkpt>
      <trkpt lat="43.22073" lon="5.48786">
        <ele>292.3</ele>
        <time>2025-10-18T08:36:41Z</time>
      </trkpt>
      <trkpt lat="43.22073" lon="5.48786">
        <ele>292.1</ele>
        <time>2025-10-18T08:36:42Z</time>
      </trkpt>
      <trkpt lat="43.22072" lon="5.48786">
        <ele>292.1</ele>
        <time>2025-10-18T08:36:43Z</time>
      </trkpt>
      <trkpt lat="43.22071" lon="5.48785">
        <ele>291.9</ele>
        <time>2025-10-18T08:36:44Z</time>
      </trkpt>
      <trkpt lat="43.22071" lon="5.48785">
        <ele>291.8</ele>
        <time>2025-10-18T08:36:45Z</time>
      </trkpt>
      <trkpt lat="43.2207" lon="5.48785">
        <ele>291.7</ele>
        <time>2025-10-18T08:36:46Z</time>
      </trkpt>
      <trkpt lat="43.22069" lon="5.48785">
        <ele>291.5</ele>
        <time>2025-10-18T08:36:47Z</time>
      </trkpt>
      <trkpt lat="43.22069" lon="5.48786">
        <ele>291.2</ele>
        <time>2025-10-18T08:36:48Z</time>
      </trkpt>
      <trkpt lat="43.22069" lon="5.48786">
        <ele>290.9</ele>
        <time>2025-10-18T08:36:49Z</time>
      </trkpt>
      <trkpt lat="43.22068" lon="5.48787">
        <ele>290.7</ele>
        <time>2025-10-18T08:36:50Z</time>
      </trkpt>
      <trkpt lat="43.22067" lon="5.48787">
        <ele>290.6</ele>
        <time>2025-10-18T08:36:51Z</time>
      </trkpt>
      <trkpt lat="43.22067" lon="5.48788">
        <ele>290.4</ele>
        <time>2025-10-18T08:36:52Z</time>
      </trkpt>
      <trkpt lat="43.22067" lon="5.48788">
        <ele>290.2</ele>
        <time>2025-10-18T08:36:53Z</time>
      </trkpt>
      <trkpt lat="43.22066" lon="5.48787">
        <ele>290</ele>
        <time>2025-10-18T08:36:54Z</time>
      </trkpt>
      <trkpt lat="43.22066" lon="5.48787">
        <ele>289.9</ele>
        <time>2025-10-18T08:36:55Z</time>
      </trkpt>
      <trkpt lat="43.22065" lon="5.48786">
        <ele>289.7</ele>
        <time>2025-10-18T08:36:56Z</time>
      </trkpt>
      <trkpt lat="43.22065" lon="5.48786">
        <ele>289.6</ele>
        <time>2025-10-18T08:36:57Z</time>
      </trkpt>
      <trkpt lat="43.22064" lon="5.48785">
        <ele>289.5</ele>
        <time>2025-10-18T08:36:58Z</time>
      </trkpt>
      <trkpt lat="43.22064" lon="5.48785">
        <ele>289.4</ele>
        <time>2025-10-18T08:36:59Z</time>
      </trkpt>
      <trkpt lat="43.22063" lon="5.48784">
        <ele>289.3</ele>
        <time>2025-10-18T08:37:00Z</time>
      </trkpt>
      <trkpt lat="43.22063" lon="5.48784">
        <ele>289.1</ele>
        <time>2025-10-18T08:37:01Z</time>
      </trkpt>
      <trkpt lat="43.22063" lon="5.48784">
        <ele>289</ele>
        <time>2025-10-18T08:37:02Z</time>
      </trkpt>
      <trkpt lat="43.22062" lon="5.48783">
        <ele>288.7</ele>
        <time>2025-10-18T08:37:03Z</time>
      </trkpt>
      <trkpt lat="43.22061" lon="5.48783">
        <ele>288.5</ele>
        <time>2025-10-18T08:37:04Z</time>
      </trkpt>
      <trkpt lat="43.2206" lon="5.48783">
        <ele>288.4</ele>
        <time>2025-10-18T08:37:05Z</time>
      </trkpt>
      <trkpt lat="43.2206" lon="5.48784">
        <ele>288.2</ele>
        <time>2025-10-18T08:37:06Z</time>
      </trkpt>
      <trkpt lat="43.22059" lon="5.48784">
        <ele>288</ele>
        <time>2025-10-18T08:37:07Z</time>
      </trkpt>
      <trkpt lat="43.22059" lon="5.48784">
        <ele>287.7</ele>
        <time>2025-10-18T08:37:08Z</time>
      </trkpt>
      <trkpt lat="43.22058" lon="5.48783">
        <ele>287.5</ele>
        <time>2025-10-18T08:37:09Z</time>
      </trkpt>
      <trkpt lat="43.22057" lon="5.48783">
        <ele>287.3</ele>
        <time>2025-10-18T08:37:10Z</time>
      </trkpt>
      <trkpt lat="43.22057" lon="5.48783">
        <ele>287.1</ele>
        <time>2025-10-18T08:37:11Z</time>
      </trkpt>
      <trkpt lat="43.22056" lon="5.48784">
        <ele>287</ele>
        <time>2025-10-18T08:37:12Z</time>
      </trkpt>
      <trkpt lat="43.22056" lon="5.48784">
        <ele>286.8</ele>
        <time>2025-10-18T08:37:13Z</time>
      </trkpt>
      <trkpt lat="43.22055" lon="5.48783">
        <ele>286.5</ele>
        <time>2025-10-18T08:37:14Z</time>
      </trkpt>
      <trkpt lat="43.22055" lon="5.48783">
        <ele>286.3</ele>
        <time>2025-10-18T08:37:15Z</time>
      </trkpt>
      <trkpt lat="43.22054" lon="5.48782">
        <ele>286.1</ele>
        <time>2025-10-18T08:37:16Z</time>
      </trkpt>
      <trkpt lat="43.22054" lon="5.48781">
        <ele>285.9</ele>
        <time>2025-10-18T08:37:17Z</time>
      </trkpt>
      <trkpt lat="43.22054" lon="5.4878">
        <ele>285.8</ele>
        <time>2025-10-18T08:37:18Z</time>
      </trkpt>
      <trkpt lat="43.22053" lon="5.48779">
        <ele>285.6</ele>
        <time>2025-10-18T08:37:19Z</time>
      </trkpt>
      <trkpt lat="43.22053" lon="5.48778">
        <ele>285.3</ele>
        <time>2025-10-18T08:37:20Z</time>
      </trkpt>
      <trkpt lat="43.22052" lon="5.48778">
        <ele>285.1</ele>
        <time>2025-10-18T08:37:21Z</time>
      </trkpt>
      <trkpt lat="43.22051" lon="5.48778">
        <ele>284.9</ele>
        <time>2025-10-18T08:37:22Z</time>
      </trkpt>
      <trkpt lat="43.22051" lon="5.48779">
        <ele>284.7</ele>
        <time>2025-10-18T08:37:23Z</time>
      </trkpt>
      <trkpt lat="43.2205" lon="5.4878">
        <ele>284.6</ele>
        <time>2025-10-18T08:37:24Z</time>
      </trkpt>
      <trkpt lat="43.2205" lon="5.4878">
        <ele>284.4</ele>
        <time>2025-10-18T08:37:25Z</time>
      </trkpt>
      <trkpt lat="43.2205" lon="5.48781">
        <ele>284.3</ele>
        <time>2025-10-18T08:37:26Z</time>
      </trkpt>
      <trkpt lat="43.2205" lon="5.48781">
        <ele>284.3</ele>
        <time>2025-10-18T08:37:27Z</time>
      </trkpt>
      <trkpt lat="43.2205" lon="5.48782">
        <ele>284.1</ele>
        <time>2025-10-18T08:37:28Z</time>
      </trkpt>
      <trkpt lat="43.22049" lon="5.48782">
        <ele>283.9</ele>
        <time>2025-10-18T08:37:29Z</time>
      </trkpt>
      <trkpt lat="43.22048" lon="5.48783">
        <ele>283.8</ele>
        <time>2025-10-18T08:37:30Z</time>
      </trkpt>
      <trkpt lat="43.22048" lon="5.48783">
        <ele>283.7</ele>
        <time>2025-10-18T08:37:31Z</time>
      </trkpt>
      <trkpt lat="43.22047" lon="5.48784">
        <ele>283.5</ele>
        <time>2025-10-18T08:37:32Z</time>
      </trkpt>
      <trkpt lat="43.22047" lon="5.48784">
        <ele>283.4</ele>
        <time>2025-10-18T08:37:33Z</time>
      </trkpt>
      <trkpt lat="43.22047" lon="5.48785">
        <ele>283.3</ele>
        <time>2025-10-18T08:37:34Z</time>
      </trkpt>
      <trkpt lat="43.22046" lon="5.48785">
        <ele>283.3</ele>
        <time>2025-10-18T08:37:35Z</time>
      </trkpt>
      <trkpt lat="43.22046" lon="5.48786">
        <ele>283.2</ele>
        <time>2025-10-18T08:37:36Z</time>
      </trkpt>
      <trkpt lat="43.22046" lon="5.48786">
        <ele>283.2</ele>
        <time>2025-10-18T08:37:37Z</time>
      </trkpt>
      <trkpt lat="43.22046" lon="5.48786">
        <ele>283.1</ele>
        <time>2025-10-18T08:37:38Z</time>
      </trkpt>
      <trkpt lat="43.22046" lon="5.48787">
        <ele>283</ele>
        <time>2025-10-18T08:37:39Z</time>
      </trkpt>
      <trkpt lat="43.22046" lon="5.48787">
        <ele>282.9</ele>
        <time>2025-10-18T08:37:40Z</time>
      </trkpt>
      <trkpt lat="43.22046" lon="5.48787">
        <ele>282.8</ele>
        <time>2025-10-18T08:37:41Z</time>
      </trkpt>
      <trkpt lat="43.22046" lon="5.48787">
        <ele>282.8</ele>
        <time>2025-10-18T08:37:42Z</time>
      </trkpt>
      <trkpt lat="43.22046" lon="5.48787">
        <ele>282.8</ele>
        <time>2025-10-18T08:37:43Z</time>
      </trkpt>
      <trkpt lat="43.22046" lon="5.48787">
        <ele>282.7</ele>
        <time>2025-10-18T08:37:44Z</time>
      </trkpt>
      <trkpt lat="43.22046" lon="5.48787">
        <ele>282.7</ele>
        <time>2025-10-18T08:37:45Z</time>
      </trkpt>
      <trkpt lat="43.22045" lon="5.48787">
        <ele>282.7</ele>
        <time>2025-10-18T08:37:46Z</time>
      </trkpt>
      <trkpt lat="43.22045" lon="5.48787">
        <ele>282.7</ele>
        <time>2025-10-18T08:37:47Z</time>
      </trkpt>
      <trkpt lat="43.22045" lon="5.48786">
        <ele>282.6</ele>
        <time>2025-10-18T08:37:48Z</time>
      </trkpt>
      <trkpt lat="43.22044" lon="5.48786">
        <ele>282.5</ele>
        <time>2025-10-18T08:37:49Z</time>
      </trkpt>
      <trkpt lat="43.22044" lon="5.48785">
        <ele>282.4</ele>
        <time>2025-10-18T08:37:50Z</time>
      </trkpt>
      <trkpt lat="43.22044" lon="5.48784">
        <ele>282.3</ele>
        <time>2025-10-18T08:37:51Z</time>
      </trkpt>
      <trkpt lat="43.22043" lon="5.48783">
        <ele>282.2</ele>
        <time>2025-10-18T08:37:52Z</time>
      </trkpt>
      <trkpt lat="43.22042" lon="5.48784">
        <ele>281.9</ele>
        <time>2025-10-18T08:37:53Z</time>
      </trkpt>
      <trkpt lat="43.22041" lon="5.48783">
        <ele>281.7</ele>
        <time>2025-10-18T08:37:54Z</time>
      </trkpt>
      <trkpt lat="43.22041" lon="5.48783">
        <ele>281.5</ele>
        <time>2025-10-18T08:37:55Z</time>
      </trkpt>
      <trkpt lat="43.2204" lon="5.48782">
        <ele>281.3</ele>
        <time>2025-10-18T08:37:56Z</time>
      </trkpt>
      <trkpt lat="43.2204" lon="5.48782">
        <ele>281.1</ele>
        <time>2025-10-18T08:37:57Z</time>
      </trkpt>
      <trkpt lat="43.2204" lon="5.48781">
        <ele>281</ele>
        <time>2025-10-18T08:37:58Z</time>
      </trkpt>
      <trkpt lat="43.2204" lon="5.48781">
        <ele>280.9</ele>
        <time>2025-10-18T08:37:59Z</time>
      </trkpt>
      <trkpt lat="43.2204" lon="5.4878">
        <ele>280.9</ele>
        <time>2025-10-18T08:38:00Z</time>
      </trkpt>
      <trkpt lat="43.2204" lon="5.4878">
        <ele>280.8</ele>
        <time>2025-10-18T08:38:01Z</time>
      </trkpt>
      <trkpt lat="43.2204" lon="5.4878">
        <ele>280.8</ele>
        <time>2025-10-18T08:38:02Z</time>
      </trkpt>
      <trkpt lat="43.2204" lon="5.48779">
        <ele>280.7</ele>
        <time>2025-10-18T08:38:03Z</time>
      </trkpt>
      <trkpt lat="43.2204" lon="5.48779">
        <ele>280.6</ele>
        <time>2025-10-18T08:38:04Z</time>
      </trkpt>
      <trkpt lat="43.2204" lon="5.48778">
        <ele>280.5</ele>
        <time>2025-10-18T08:38:05Z</time>
      </trkpt>
      <trkpt lat="43.22039" lon="5.48778">
        <ele>280.4</ele>
        <time>2025-10-18T08:38:06Z</time>
      </trkpt>
      <trkpt lat="43.22039" lon="5.48777">
        <ele>280.3</ele>
        <time>2025-10-18T08:38:07Z</time>
      </trkpt>
      <trkpt lat="43.22039" lon="5.48776">
        <ele>280.1</ele>
        <time>2025-10-18T08:38:08Z</time>
      </trkpt>
      <trkpt lat="43.22038" lon="5.48775">
        <ele>280</ele>
        <time>2025-10-18T08:38:09Z</time>
      </trkpt>
      <trkpt lat="43.22037" lon="5.48775">
        <ele>279.8</ele>
        <time>2025-10-18T08:38:10Z</time>
      </trkpt>
      <trkpt lat="43.22036" lon="5.48776">
        <ele>279.7</ele>
        <time>2025-10-18T08:38:11Z</time>
      </trkpt>
      <trkpt lat="43.22036" lon="5.48777">
        <ele>279.5</ele>
        <time>2025-10-18T08:38:12Z</time>
      </trkpt>
      <trkpt lat="43.22035" lon="5.48777">
        <ele>279.4</ele>
        <time>2025-10-18T08:38:13Z</time>
      </trkpt>
      <trkpt lat="43.22035" lon="5.48778">
        <ele>279.2</ele>
        <time>2025-10-18T08:38:14Z</time>
      </trkpt>
      <trkpt lat="43.22035" lon="5.48778">
        <ele>279.1</ele>
        <time>2025-10-18T08:38:15Z</time>
      </trkpt>
      <trkpt lat="43.22034" lon="5.48778">
        <ele>279</ele>
        <time>2025-10-18T08:38:16Z</time>
      </trkpt>
      <trkpt lat="43.22033" lon="5.48778">
        <ele>278.7</ele>
        <time>2025-10-18T08:38:17Z</time>
      </trkpt>
      <trkpt lat="43.22033" lon="5.48778">
        <ele>278.6</ele>
        <time>2025-10-18T08:38:18Z</time>
      </trkpt>
      <trkpt lat="43.22032" lon="5.48778">
        <ele>278.4</ele>
        <time>2025-10-18T08:38:19Z</time>
      </trkpt>
      <trkpt lat="43.22031" lon="5.48778">
        <ele>278.2</ele>
        <time>2025-10-18T08:38:20Z</time>
      </trkpt>
      <trkpt lat="43.22031" lon="5.48778">
        <ele>278.1</ele>
        <time>2025-10-18T08:38:21Z</time>
      </trkpt>
      <trkpt lat="43.2203" lon="5.48779">
        <ele>277.9</ele>
        <time>2025-10-18T08:38:22Z</time>
      </trkpt>
      <trkpt lat="43.2203" lon="5.48779">
        <ele>277.8</ele>
        <time>2025-10-18T08:38:23Z</time>
      </trkpt>
      <trkpt lat="43.22029" lon="5.48779">
        <ele>277.7</ele>
        <time>2025-10-18T08:38:24Z</time>
      </trkpt>
      <trkpt lat="43.22028" lon="5.48779">
        <ele>277.6</ele>
        <time>2025-10-18T08:38:25Z</time>
      </trkpt>
      <trkpt lat="43.22028" lon="5.4878">
        <ele>277.4</ele>
        <time>2025-10-18T08:38:26Z</time>
      </trkpt>
      <trkpt lat="43.22028" lon="5.4878">
        <ele>277.3</ele>
        <time>2025-10-18T08:38:27Z</time>
      </trkpt>
      <trkpt lat="43.22028" lon="5.4878">
        <ele>277.2</ele>
        <time>2025-10-18T08:38:28Z</time>
      </trkpt>
      <trkpt lat="43.22028" lon="5.48781">
        <ele>277.1</ele>
        <time>2025-10-18T08:38:29Z</time>
      </trkpt>
      <trkpt lat="43.22028" lon="5.48781">
        <ele>277.1</ele>
        <time>2025-10-18T08:38:30Z</time>
      </trkpt>
      <trkpt lat="43.22028" lon="5.48781">
        <ele>277.1</ele>
        <time>2025-10-18T08:38:31Z</time>
      </trkpt>
      <trkpt lat="43.22028" lon="5.48781">
        <ele>277.1</ele>
        <time>2025-10-18T08:38:32Z</time>
      </trkpt>
      <trkpt lat="43.22028" lon="5.48781">
        <ele>277</ele>
        <time>2025-10-18T08:38:33Z</time>
      </trkpt>
      <trkpt lat="43.22028" lon="5.48781">
        <ele>277</ele>
        <time>2025-10-18T08:38:34Z</time>
      </trkpt>
      <trkpt lat="43.22028" lon="5.48781">
        <ele>277</ele>
        <time>2025-10-18T08:38:35Z</time>
      </trkpt>
      <trkpt lat="43.22028" lon="5.48782">
        <ele>277</ele>
        <time>2025-10-18T08:38:36Z</time>
      </trkpt>
      <trkpt lat="43.22028" lon="5.48782">
        <ele>277</ele>
        <time>2025-10-18T08:38:37Z</time>
      </trkpt>
      <trkpt lat="43.22028" lon="5.48782">
        <ele>276.9</ele>
        <time>2025-10-18T08:38:38Z</time>
      </trkpt>
      <trkpt lat="43.22028" lon="5.48782">
        <ele>276.9</ele>
        <time>2025-10-18T08:38:39Z</time>
      </trkpt>
      <trkpt lat="43.22028" lon="5.48782">
        <ele>276.9</ele>
        <time>2025-10-18T08:38:40Z</time>
      </trkpt>
      <trkpt lat="43.22028" lon="5.48782">
        <ele>276.9</ele>
        <time>2025-10-18T08:38:41Z</time>
      </trkpt>
      <trkpt lat="43.22027" lon="5.48782">
        <ele>276.9</ele>
        <time>2025-10-18T08:38:42Z</time>
      </trkpt>
      <trkpt lat="43.22027" lon="5.48782">
        <ele>276.8</ele>
        <time>2025-10-18T08:38:43Z</time>
      </trkpt>
      <trkpt lat="43.22026" lon="5.48782">
        <ele>276.8</ele>
        <time>2025-10-18T08:38:44Z</time>
      </trkpt>
      <trkpt lat="43.22025" lon="5.48782">
        <ele>276.7</ele>
        <time>2025-10-18T08:38:45Z</time>
      </trkpt>
      <trkpt lat="43.22025" lon="5.48782">
        <ele>276.6</ele>
        <time>2025-10-18T08:38:46Z</time>
      </trkpt>
      <trkpt lat="43.22024" lon="5.48783">
        <ele>276.5</ele>
        <time>2025-10-18T08:38:47Z</time>
      </trkpt>
      <trkpt lat="43.22023" lon="5.48784">
        <ele>276.5</ele>
        <time>2025-10-18T08:38:48Z</time>
      </trkpt>
      <trkpt lat="43.22022" lon="5.48784">
        <ele>276.4</ele>
        <time>2025-10-18T08:38:49Z</time>
      </trkpt>
      <trkpt lat="43.22022" lon="5.48784">
        <ele>275.4</ele>
        <time>2025-10-18T08:38:50Z</time>
      </trkpt>
      <trkpt lat="43.22021" lon="5.48784">
        <ele>275.4</ele>
        <time>2025-10-18T08:38:51Z</time>
      </trkpt>
      <trkpt lat="43.22021" lon="5.48783">
        <ele>275.5</ele>
        <time>2025-10-18T08:38:52Z</time>
      </trkpt>
      <trkpt lat="43.22021" lon="5.48782">
        <ele>275.5</ele>
        <time>2025-10-18T08:38:53Z</time>
      </trkpt>
      <trkpt lat="43.22021" lon="5.4878">
        <ele>275.5</ele>
        <time>2025-10-18T08:38:54Z</time>
      </trkpt>
      <trkpt lat="43.22022" lon="5.4878">
        <ele>275.5</ele>
        <time>2025-10-18T08:38:55Z</time>
      </trkpt>
      <trkpt lat="43.22022" lon="5.48779">
        <ele>275.5</ele>
        <time>2025-10-18T08:38:56Z</time>
      </trkpt>
      <trkpt lat="43.22023" lon="5.48777">
        <ele>275.5</ele>
        <time>2025-10-18T08:38:57Z</time>
      </trkpt>
      <trkpt lat="43.22023" lon="5.48776">
        <ele>275.6</ele>
        <time>2025-10-18T08:38:58Z</time>
      </trkpt>
      <trkpt lat="43.22023" lon="5.48775">
        <ele>275.5</ele>
        <time>2025-10-18T08:38:59Z</time>
      </trkpt>
      <trkpt lat="43.22024" lon="5.48774">
        <ele>275.5</ele>
        <time>2025-10-18T08:39:00Z</time>
      </trkpt>
      <trkpt lat="43.22025" lon="5.48773">
        <ele>275.5</ele>
        <time>2025-10-18T08:39:01Z</time>
      </trkpt>
      <trkpt lat="43.22025" lon="5.48772">
        <ele>275.4</ele>
        <time>2025-10-18T08:39:02Z</time>
      </trkpt>
      <trkpt lat="43.22026" lon="5.48771">
        <ele>275.4</ele>
        <time>2025-10-18T08:39:03Z</time>
      </trkpt>
      <trkpt lat="43.22027" lon="5.48769">
        <ele>275.4</ele>
        <time>2025-10-18T08:39:04Z</time>
      </trkpt>
      <trkpt lat="43.22027" lon="5.48768">
        <ele>275.4</ele>
        <time>2025-10-18T08:39:05Z</time>
      </trkpt>
      <trkpt lat="43.22028" lon="5.48767">
        <ele>275.4</ele>
        <time>2025-10-18T08:39:06Z</time>
      </trkpt>
      <trkpt lat="43.22029" lon="5.48767">
        <ele>275.3</ele>
        <time>2025-10-18T08:39:07Z</time>
      </trkpt>
      <trkpt lat="43.22029" lon="5.48766">
        <ele>275.3</ele>
        <time>2025-10-18T08:39:08Z</time>
      </trkpt>
      <trkpt lat="43.2203" lon="5.48765">
        <ele>275.3</ele>
        <time>2025-10-18T08:39:09Z</time>
      </trkpt>
      <trkpt lat="43.2203" lon="5.48764">
        <ele>275.3</ele>
        <time>2025-10-18T08:39:10Z</time>
      </trkpt>
      <trkpt lat="43.2203" lon="5.48764">
        <ele>275.3</ele>
        <time>2025-10-18T08:39:11Z</time>
      </trkpt>
      <trkpt lat="43.22031" lon="5.48763">
        <ele>275.3</ele>
        <time>2025-10-18T08:39:12Z</time>
      </trkpt>
      <trkpt lat="43.22031" lon="5.48762">
        <ele>275.5</ele>
        <time>2025-10-18T08:39:13Z</time>
      </trkpt>
      <trkpt lat="43.22032" lon="5.48761">
        <ele>275.6</ele>
        <time>2025-10-18T08:39:14Z</time>
      </trkpt>
      <trkpt lat="43.22032" lon="5.4876">
        <ele>275.6</ele>
        <time>2025-10-18T08:39:15Z</time>
      </trkpt>
      <trkpt lat="43.22033" lon="5.48759">
        <ele>275.5</ele>
        <time>2025-10-18T08:39:16Z</time>
      </trkpt>
      <trkpt lat="43.22033" lon="5.48758">
        <ele>275.5</ele>
        <time>2025-10-18T08:39:17Z</time>
      </trkpt>
      <trkpt lat="43.22034" lon="5.48756">
        <ele>275.5</ele>
        <time>2025-10-18T08:39:18Z</time>
      </trkpt>
      <trkpt lat="43.22034" lon="5.48756">
        <ele>275.6</ele>
        <time>2025-10-18T08:39:19Z</time>
      </trkpt>
      <trkpt lat="43.22035" lon="5.48755">
        <ele>275.6</ele>
        <time>2025-10-18T08:39:20Z</time>
      </trkpt>
      <trkpt lat="43.22035" lon="5.48754">
        <ele>275.5</ele>
        <time>2025-10-18T08:39:21Z</time>
      </trkpt>
      <trkpt lat="43.22036" lon="5.48753">
        <ele>275.6</ele>
        <time>2025-10-18T08:39:22Z</time>
      </trkpt>
      <trkpt lat="43.22036" lon="5.48753">
        <ele>275.6</ele>
        <time>2025-10-18T08:39:23Z</time>
      </trkpt>
      <trkpt lat="43.22036" lon="5.48752">
        <ele>275.6</ele>
        <time>2025-10-18T08:39:24Z</time>
      </trkpt>
      <trkpt lat="43.22037" lon="5.48751">
        <ele>275.5</ele>
        <time>2025-10-18T08:39:25Z</time>
      </trkpt>
      <trkpt lat="43.22037" lon="5.4875">
        <ele>275.6</ele>
        <time>2025-10-18T08:39:26Z</time>
      </trkpt>
      <trkpt lat="43.22037" lon="5.4875">
        <ele>275.7</ele>
        <time>2025-10-18T08:39:27Z</time>
      </trkpt>
      <trkpt lat="43.22037" lon="5.48749">
        <ele>275.7</ele>
        <time>2025-10-18T08:39:28Z</time>
      </trkpt>
      <trkpt lat="43.22038" lon="5.48748">
        <ele>275.8</ele>
        <time>2025-10-18T08:39:29Z</time>
      </trkpt>
      <trkpt lat="43.22038" lon="5.48747">
        <ele>275.8</ele>
        <time>2025-10-18T08:39:30Z</time>
      </trkpt>
      <trkpt lat="43.22039" lon="5.48746">
        <ele>275.9</ele>
        <time>2025-10-18T08:39:31Z</time>
      </trkpt>
      <trkpt lat="43.2204" lon="5.48745">
        <ele>275.9</ele>
        <time>2025-10-18T08:39:32Z</time>
      </trkpt>
      <trkpt lat="43.2204" lon="5.48744">
        <ele>275.9</ele>
        <time>2025-10-18T08:39:33Z</time>
      </trkpt>
      <trkpt lat="43.22041" lon="5.48742">
        <ele>276</ele>
        <time>2025-10-18T08:39:34Z</time>
      </trkpt>
      <trkpt lat="43.22042" lon="5.48741">
        <ele>276</ele>
        <time>2025-10-18T08:39:35Z</time>
      </trkpt>
      <trkpt lat="43.22043" lon="5.4874">
        <ele>276</ele>
        <time>2025-10-18T08:39:36Z</time>
      </trkpt>
      <trkpt lat="43.22043" lon="5.48739">
        <ele>276</ele>
        <time>2025-10-18T08:39:37Z</time>
      </trkpt>
      <trkpt lat="43.22044" lon="5.48738">
        <ele>276</ele>
        <time>2025-10-18T08:39:38Z</time>
      </trkpt>
      <trkpt lat="43.22045" lon="5.48737">
        <ele>276</ele>
        <time>2025-10-18T08:39:39Z</time>
      </trkpt>
      <trkpt lat="43.22046" lon="5.48736">
        <ele>276</ele>
        <time>2025-10-18T08:39:40Z</time>
      </trkpt>
      <trkpt lat="43.22047" lon="5.48735">
        <ele>276</ele>
        <time>2025-10-18T08:39:41Z</time>
      </trkpt>
      <trkpt lat="43.22047" lon="5.48734">
        <ele>276</ele>
        <time>2025-10-18T08:39:42Z</time>
      </trkpt>
      <trkpt lat="43.22048" lon="5.48733">
        <ele>275.9</ele>
        <time>2025-10-18T08:39:43Z</time>
      </trkpt>
      <trkpt lat="43.22048" lon="5.48733">
        <ele>275.9</ele>
        <time>2025-10-18T08:39:44Z</time>
      </trkpt>
      <trkpt lat="43.22049" lon="5.48731">
        <ele>275.9</ele>
        <time>2025-10-18T08:39:45Z</time>
      </trkpt>
      <trkpt lat="43.22049" lon="5.4873">
        <ele>275.9</ele>
        <time>2025-10-18T08:39:46Z</time>
      </trkpt>
      <trkpt lat="43.2205" lon="5.4873">
        <ele>275.8</ele>
        <time>2025-10-18T08:39:47Z</time>
      </trkpt>
      <trkpt lat="43.22051" lon="5.48729">
        <ele>275.8</ele>
        <time>2025-10-18T08:39:48Z</time>
      </trkpt>
      <trkpt lat="43.22051" lon="5.48728">
        <ele>275.9</ele>
        <time>2025-10-18T08:39:49Z</time>
      </trkpt>
      <trkpt lat="43.22051" lon="5.48727">
        <ele>275.9</ele>
        <time>2025-10-18T08:39:50Z</time>
      </trkpt>
      <trkpt lat="43.22052" lon="5.48726">
        <ele>275.9</ele>
        <time>2025-10-18T08:39:51Z</time>
      </trkpt>
      <trkpt lat="43.22052" lon="5.48725">
        <ele>275.9</ele>
        <time>2025-10-18T08:39:52Z</time>
      </trkpt>
      <trkpt lat="43.22053" lon="5.48725">
        <ele>275.9</ele>
        <time>2025-10-18T08:39:53Z</time>
      </trkpt>
      <trkpt lat="43.22054" lon="5.48724">
        <ele>276.1</ele>
        <time>2025-10-18T08:39:54Z</time>
      </trkpt>
      <trkpt lat="43.22054" lon="5.48723">
        <ele>276.1</ele>
        <time>2025-10-18T08:39:55Z</time>
      </trkpt>
      <trkpt lat="43.22055" lon="5.48723">
        <ele>276.3</ele>
        <time>2025-10-18T08:39:56Z</time>
      </trkpt>
      <trkpt lat="43.22055" lon="5.48722">
        <ele>276.3</ele>
        <time>2025-10-18T08:39:57Z</time>
      </trkpt>
      <trkpt lat="43.22055" lon="5.4872">
        <ele>276.4</ele>
        <time>2025-10-18T08:39:58Z</time>
      </trkpt>
      <trkpt lat="43.22056" lon="5.48719">
        <ele>276.4</ele>
        <time>2025-10-18T08:39:59Z</time>
      </trkpt>
      <trkpt lat="43.22056" lon="5.48718">
        <ele>276.5</ele>
        <time>2025-10-18T08:40:00Z</time>
      </trkpt>
      <trkpt lat="43.22057" lon="5.48717">
        <ele>276.4</ele>
        <time>2025-10-18T08:40:01Z</time>
      </trkpt>
      <trkpt lat="43.22057" lon="5.48716">
        <ele>276.4</ele>
        <time>2025-10-18T08:40:02Z</time>
      </trkpt>
      <trkpt lat="43.22058" lon="5.48715">
        <ele>276.3</ele>
        <time>2025-10-18T08:40:03Z</time>
      </trkpt>
      <trkpt lat="43.22059" lon="5.48714">
        <ele>276.3</ele>
        <time>2025-10-18T08:40:04Z</time>
      </trkpt>
      <trkpt lat="43.22059" lon="5.48713">
        <ele>276.3</ele>
        <time>2025-10-18T08:40:05Z</time>
      </trkpt>
      <trkpt lat="43.2206" lon="5.48712">
        <ele>276.2</ele>
        <time>2025-10-18T08:40:06Z</time>
      </trkpt>
      <trkpt lat="43.22061" lon="5.4871">
        <ele>276.2</ele>
        <time>2025-10-18T08:40:07Z</time>
      </trkpt>
      <trkpt lat="43.22061" lon="5.48709">
        <ele>276.2</ele>
        <time>2025-10-18T08:40:08Z</time>
      </trkpt>
      <trkpt lat="43.22061" lon="5.48708">
        <ele>276.2</ele>
        <time>2025-10-18T08:40:09Z</time>
      </trkpt>
      <trkpt lat="43.22062" lon="5.48707">
        <ele>276.3</ele>
        <time>2025-10-18T08:40:10Z</time>
      </trkpt>
      <trkpt lat="43.22062" lon="5.48705">
        <ele>276.3</ele>
        <time>2025-10-18T08:40:11Z</time>
      </trkpt>
      <trkpt lat="43.22063" lon="5.48704">
        <ele>276.4</ele>
        <time>2025-10-18T08:40:12Z</time>
      </trkpt>
      <trkpt lat="43.22064" lon="5.48703">
        <ele>276.4</ele>
        <time>2025-10-18T08:40:13Z</time>
      </trkpt>
      <trkpt lat="43.22064" lon="5.48701">
        <ele>276.5</ele>
        <time>2025-10-18T08:40:14Z</time>
      </trkpt>
      <trkpt lat="43.22065" lon="5.487">
        <ele>276.4</ele>
        <time>2025-10-18T08:40:15Z</time>
      </trkpt>
      <trkpt lat="43.22065" lon="5.48698">
        <ele>276.4</ele>
        <time>2025-10-18T08:40:16Z</time>
      </trkpt>
      <trkpt lat="43.22065" lon="5.48697">
        <ele>276.5</ele>
        <time>2025-10-18T08:40:17Z</time>
      </trkpt>
      <trkpt lat="43.22065" lon="5.48696">
        <ele>276.4</ele>
        <time>2025-10-18T08:40:18Z</time>
      </trkpt>
      <trkpt lat="43.22065" lon="5.48695">
        <ele>276.4</ele>
        <time>2025-10-18T08:40:19Z</time>
      </trkpt>
      <trkpt lat="43.22066" lon="5.48694">
        <ele>276.3</ele>
        <time>2025-10-18T08:40:20Z</time>
      </trkpt>
      <trkpt lat="43.22066" lon="5.48692">
        <ele>276.3</ele>
        <time>2025-10-18T08:40:21Z</time>
      </trkpt>
      <trkpt lat="43.22066" lon="5.48691">
        <ele>276.3</ele>
        <time>2025-10-18T08:40:22Z</time>
      </trkpt>
      <trkpt lat="43.22066" lon="5.4869">
        <ele>276.3</ele>
        <time>2025-10-18T08:40:23Z</time>
      </trkpt>
      <trkpt lat="43.22066" lon="5.48688">
        <ele>276.2</ele>
        <time>2025-10-18T08:40:24Z</time>
      </trkpt>
      <trkpt lat="43.22066" lon="5.48686">
        <ele>276.1</ele>
        <time>2025-10-18T08:40:25Z</time>
      </trkpt>
      <trkpt lat="43.22066" lon="5.48686">
        <ele>276.1</ele>
        <time>2025-10-18T08:40:26Z</time>
      </trkpt>
      <trkpt lat="43.22066" lon="5.48685">
        <ele>276.2</ele>
        <time>2025-10-18T08:40:27Z</time>
      </trkpt>
      <trkpt lat="43.22066" lon="5.48684">
        <ele>276.3</ele>
        <time>2025-10-18T08:40:28Z</time>
      </trkpt>
      <trkpt lat="43.22066" lon="5.48682">
        <ele>276.3</ele>
        <time>2025-10-18T08:40:29Z</time>
      </trkpt>
      <trkpt lat="43.22066" lon="5.48681">
        <ele>276.4</ele>
        <time>2025-10-18T08:40:30Z</time>
      </trkpt>
      <trkpt lat="43.22066" lon="5.48679">
        <ele>276.5</ele>
        <time>2025-10-18T08:40:31Z</time>
      </trkpt>
      <trkpt lat="43.22066" lon="5.48678">
        <ele>276.4</ele>
        <time>2025-10-18T08:40:32Z</time>
      </trkpt>
      <trkpt lat="43.22066" lon="5.48676">
        <ele>276.4</ele>
        <time>2025-10-18T08:40:33Z</time>
      </trkpt>
      <trkpt lat="43.22066" lon="5.48675">
        <ele>276.4</ele>
        <time>2025-10-18T08:40:34Z</time>
      </trkpt>
      <trkpt lat="43.22066" lon="5.48673">
        <ele>276.4</ele>
        <time>2025-10-18T08:40:35Z</time>
      </trkpt>
      <trkpt lat="43.22066" lon="5.48672">
        <ele>276.4</ele>
        <time>2025-10-18T08:40:36Z</time>
      </trkpt>
      <trkpt lat="43.22066" lon="5.48671">
        <ele>276.4</ele>
        <time>2025-10-18T08:40:37Z</time>
      </trkpt>
      <trkpt lat="43.22066" lon="5.4867">
        <ele>276.4</ele>
        <time>2025-10-18T08:40:38Z</time>
      </trkpt>
      <trkpt lat="43.22066" lon="5.48669">
        <ele>276.4</ele>
        <time>2025-10-18T08:40:39Z</time>
      </trkpt>
      <trkpt lat="43.22066" lon="5.48668">
        <ele>276.4</ele>
        <time>2025-10-18T08:40:40Z</time>
      </trkpt>
      <trkpt lat="43.22067" lon="5.48667">
        <ele>276.3</ele>
        <time>2025-10-18T08:40:41Z</time>
      </trkpt>
      <trkpt lat="43.22067" lon="5.48666">
        <ele>276.3</ele>
        <time>2025-10-18T08:40:42Z</time>
      </trkpt>
      <trkpt lat="43.22067" lon="5.48664">
        <ele>276.2</ele>
        <time>2025-10-18T08:40:43Z</time>
      </trkpt>
      <trkpt lat="43.22067" lon="5.48664">
        <ele>276.1</ele>
        <time>2025-10-18T08:40:44Z</time>
      </trkpt>
      <trkpt lat="43.22066" lon="5.48663">
        <ele>276.1</ele>
        <time>2025-10-18T08:40:45Z</time>
      </trkpt>
      <trkpt lat="43.22066" lon="5.48663">
        <ele>276</ele>
        <time>2025-10-18T08:40:46Z</time>
      </trkpt>
      <trkpt lat="43.22066" lon="5.48663">
        <ele>275.9</ele>
        <time>2025-10-18T08:40:47Z</time>
      </trkpt>
      <trkpt lat="43.22066" lon="5.48663">
        <ele>275.9</ele>
        <time>2025-10-18T08:40:48Z</time>
      </trkpt>
      <trkpt lat="43.22066" lon="5.48662">
        <ele>275.9</ele>
        <time>2025-10-18T08:40:49Z</time>
      </trkpt>
      <trkpt lat="43.22066" lon="5.48661">
        <ele>275.8</ele>
        <time>2025-10-18T08:40:50Z</time>
      </trkpt>
      <trkpt lat="43.22066" lon="5.4866">
        <ele>275.8</ele>
        <time>2025-10-18T08:40:51Z</time>
      </trkpt>
      <trkpt lat="43.22066" lon="5.4866">
        <ele>275.8</ele>
        <time>2025-10-18T08:40:52Z</time>
      </trkpt>
      <trkpt lat="43.22065" lon="5.48659">
        <ele>275.7</ele>
        <time>2025-10-18T08:40:53Z</time>
      </trkpt>
      <trkpt lat="43.22065" lon="5.48658">
        <ele>275.6</ele>
        <time>2025-10-18T08:40:54Z</time>
      </trkpt>
      <trkpt lat="43.22065" lon="5.48657">
        <ele>275.6</ele>
        <time>2025-10-18T08:40:55Z</time>
      </trkpt>
      <trkpt lat="43.22065" lon="5.48656">
        <ele>275.5</ele>
        <time>2025-10-18T08:40:56Z</time>
      </trkpt>
      <trkpt lat="43.22066" lon="5.48655">
        <ele>275.4</ele>
        <time>2025-10-18T08:40:57Z</time>
      </trkpt>
      <trkpt lat="43.22066" lon="5.48653">
        <ele>275.3</ele>
        <time>2025-10-18T08:40:58Z</time>
      </trkpt>
      <trkpt lat="43.22066" lon="5.48652">
        <ele>275.5</ele>
        <time>2025-10-18T08:40:59Z</time>
      </trkpt>
      <trkpt lat="43.22066" lon="5.48651">
        <ele>275.6</ele>
        <time>2025-10-18T08:41:00Z</time>
      </trkpt>
      <trkpt lat="43.22066" lon="5.48649">
        <ele>275.7</ele>
        <time>2025-10-18T08:41:01Z</time>
      </trkpt>
      <trkpt lat="43.22066" lon="5.48648">
        <ele>275.7</ele>
        <time>2025-10-18T08:41:02Z</time>
      </trkpt>
      <trkpt lat="43.22066" lon="5.48647">
        <ele>275.8</ele>
        <time>2025-10-18T08:41:03Z</time>
      </trkpt>
      <trkpt lat="43.22066" lon="5.48645">
        <ele>275.9</ele>
        <time>2025-10-18T08:41:04Z</time>
      </trkpt>
      <trkpt lat="43.22065" lon="5.48643">
        <ele>276</ele>
        <time>2025-10-18T08:41:05Z</time>
      </trkpt>
      <trkpt lat="43.22065" lon="5.48642">
        <ele>276</ele>
        <time>2025-10-18T08:41:06Z</time>
      </trkpt>
      <trkpt lat="43.22064" lon="5.48641">
        <ele>276.1</ele>
        <time>2025-10-18T08:41:07Z</time>
      </trkpt>
      <trkpt lat="43.22063" lon="5.48641">
        <ele>276.1</ele>
        <time>2025-10-18T08:41:08Z</time>
      </trkpt>
      <trkpt lat="43.22063" lon="5.48641">
        <ele>276.2</ele>
        <time>2025-10-18T08:41:09Z</time>
      </trkpt>
      <trkpt lat="43.22063" lon="5.4864">
        <ele>276.2</ele>
        <time>2025-10-18T08:41:10Z</time>
      </trkpt>
      <trkpt lat="43.22062" lon="5.4864">
        <ele>276.3</ele>
        <time>2025-10-18T08:41:11Z</time>
      </trkpt>
      <trkpt lat="43.22062" lon="5.4864">
        <ele>276.3</ele>
        <time>2025-10-18T08:41:12Z</time>
      </trkpt>
      <trkpt lat="43.22062" lon="5.4864">
        <ele>276.4</ele>
        <time>2025-10-18T08:41:13Z</time>
      </trkpt>
      <trkpt lat="43.22062" lon="5.4864">
        <ele>276.5</ele>
        <time>2025-10-18T08:41:14Z</time>
      </trkpt>
      <trkpt lat="43.22061" lon="5.4864">
        <ele>276.5</ele>
        <time>2025-10-18T08:41:15Z</time>
      </trkpt>
      <trkpt lat="43.2206" lon="5.4864">
        <ele>276.6</ele>
        <time>2025-10-18T08:41:16Z</time>
      </trkpt>
      <trkpt lat="43.22059" lon="5.48639">
        <ele>276.7</ele>
        <time>2025-10-18T08:41:17Z</time>
      </trkpt>
      <trkpt lat="43.22059" lon="5.48638">
        <ele>276.8</ele>
        <time>2025-10-18T08:41:18Z</time>
      </trkpt>
      <trkpt lat="43.22057" lon="5.48638">
        <ele>276.8</ele>
        <time>2025-10-18T08:41:19Z</time>
      </trkpt>
      <trkpt lat="43.22056" lon="5.48638">
        <ele>276.9</ele>
        <time>2025-10-18T08:41:20Z</time>
      </trkpt>
      <trkpt lat="43.22055" lon="5.48638">
        <ele>277</ele>
        <time>2025-10-18T08:41:21Z</time>
      </trkpt>
      <trkpt lat="43.22055" lon="5.48637">
        <ele>277</ele>
        <time>2025-10-18T08:41:22Z</time>
      </trkpt>
      <trkpt lat="43.22054" lon="5.48637">
        <ele>277</ele>
        <time>2025-10-18T08:41:23Z</time>
      </trkpt>
      <trkpt lat="43.22053" lon="5.48636">
        <ele>276.8</ele>
        <time>2025-10-18T08:41:24Z</time>
      </trkpt>
      <trkpt lat="43.22052" lon="5.48636">
        <ele>276.8</ele>
        <time>2025-10-18T08:41:25Z</time>
      </trkpt>
      <trkpt lat="43.22051" lon="5.48636">
        <ele>276.9</ele>
        <time>2025-10-18T08:41:26Z</time>
      </trkpt>
      <trkpt lat="43.22051" lon="5.48636">
        <ele>277</ele>
        <time>2025-10-18T08:41:27Z</time>
      </trkpt>
      <trkpt lat="43.2205" lon="5.48635">
        <ele>277</ele>
        <time>2025-10-18T08:41:28Z</time>
      </trkpt>
      <trkpt lat="43.22049" lon="5.48635">
        <ele>277</ele>
        <time>2025-10-18T08:41:29Z</time>
      </trkpt>
      <trkpt lat="43.22048" lon="5.48634">
        <ele>277</ele>
        <time>2025-10-18T08:41:30Z</time>
      </trkpt>
      <trkpt lat="43.22048" lon="5.48633">
        <ele>277.1</ele>
        <time>2025-10-18T08:41:31Z</time>
      </trkpt>
      <trkpt lat="43.22047" lon="5.48632">
        <ele>277.1</ele>
        <time>2025-10-18T08:41:32Z</time>
      </trkpt>
      <trkpt lat="43.22046" lon="5.48632">
        <ele>277.1</ele>
        <time>2025-10-18T08:41:33Z</time>
      </trkpt>
      <trkpt lat="43.22046" lon="5.48631">
        <ele>277.2</ele>
        <time>2025-10-18T08:41:34Z</time>
      </trkpt>
      <trkpt lat="43.22045" lon="5.4863">
        <ele>277.3</ele>
        <time>2025-10-18T08:41:35Z</time>
      </trkpt>
      <trkpt lat="43.22044" lon="5.4863">
        <ele>277.4</ele>
        <time>2025-10-18T08:41:36Z</time>
      </trkpt>
      <trkpt lat="43.22043" lon="5.48629">
        <ele>277.5</ele>
        <time>2025-10-18T08:41:37Z</time>
      </trkpt>
      <trkpt lat="43.22042" lon="5.48629">
        <ele>277.6</ele>
        <time>2025-10-18T08:41:38Z</time>
      </trkpt>
      <trkpt lat="43.22042" lon="5.48629">
        <ele>277.7</ele>
        <time>2025-10-18T08:41:39Z</time>
      </trkpt>
      <trkpt lat="43.22041" lon="5.48628">
        <ele>277.9</ele>
        <time>2025-10-18T08:41:40Z</time>
      </trkpt>
      <trkpt lat="43.22041" lon="5.48628">
        <ele>278</ele>
        <time>2025-10-18T08:41:41Z</time>
      </trkpt>
      <trkpt lat="43.2204" lon="5.48628">
        <ele>278.2</ele>
        <time>2025-10-18T08:41:42Z</time>
      </trkpt>
      <trkpt lat="43.22039" lon="5.48628">
        <ele>278.3</ele>
        <time>2025-10-18T08:41:43Z</time>
      </trkpt>
      <trkpt lat="43.22039" lon="5.48628">
        <ele>278.4</ele>
        <time>2025-10-18T08:41:44Z</time>
      </trkpt>
      <trkpt lat="43.22039" lon="5.48628">
        <ele>278.6</ele>
        <time>2025-10-18T08:41:45Z</time>
      </trkpt>
      <trkpt lat="43.22038" lon="5.48627">
        <ele>278.7</ele>
        <time>2025-10-18T08:41:46Z</time>
      </trkpt>
      <trkpt lat="43.22038" lon="5.48627">
        <ele>278.9</ele>
        <time>2025-10-18T08:41:47Z</time>
      </trkpt>
      <trkpt lat="43.22037" lon="5.48626">
        <ele>279</ele>
        <time>2025-10-18T08:41:48Z</time>
      </trkpt>
      <trkpt lat="43.22037" lon="5.48625">
        <ele>279.1</ele>
        <time>2025-10-18T08:41:49Z</time>
      </trkpt>
      <trkpt lat="43.22036" lon="5.48625">
        <ele>279.3</ele>
        <time>2025-10-18T08:41:50Z</time>
      </trkpt>
      <trkpt lat="43.22036" lon="5.48624">
        <ele>279.4</ele>
        <time>2025-10-18T08:41:51Z</time>
      </trkpt>
      <trkpt lat="43.22035" lon="5.48623">
        <ele>279.5</ele>
        <time>2025-10-18T08:41:52Z</time>
      </trkpt>
      <trkpt lat="43.22035" lon="5.48623">
        <ele>279.6</ele>
        <time>2025-10-18T08:41:53Z</time>
      </trkpt>
      <trkpt lat="43.22035" lon="5.48623">
        <ele>279.7</ele>
        <time>2025-10-18T08:41:54Z</time>
      </trkpt>
      <trkpt lat="43.22034" lon="5.48623">
        <ele>279.7</ele>
        <time>2025-10-18T08:41:55Z</time>
      </trkpt>
      <trkpt lat="43.22034" lon="5.48622">
        <ele>279.8</ele>
        <time>2025-10-18T08:41:56Z</time>
      </trkpt>
      <trkpt lat="43.22033" lon="5.48621">
        <ele>279.9</ele>
        <time>2025-10-18T08:41:57Z</time>
      </trkpt>
      <trkpt lat="43.22033" lon="5.48621">
        <ele>279.9</ele>
        <time>2025-10-18T08:41:58Z</time>
      </trkpt>
      <trkpt lat="43.22032" lon="5.4862">
        <ele>280</ele>
        <time>2025-10-18T08:41:59Z</time>
      </trkpt>
      <trkpt lat="43.22032" lon="5.4862">
        <ele>280.1</ele>
        <time>2025-10-18T08:42:00Z</time>
      </trkpt>
      <trkpt lat="43.22032" lon="5.4862">
        <ele>280.2</ele>
        <time>2025-10-18T08:42:01Z</time>
      </trkpt>
      <trkpt lat="43.22032" lon="5.4862">
        <ele>280.3</ele>
        <time>2025-10-18T08:42:02Z</time>
      </trkpt>
      <trkpt lat="43.22031" lon="5.48619">
        <ele>280.3</ele>
        <time>2025-10-18T08:42:03Z</time>
      </trkpt>
      <trkpt lat="43.22031" lon="5.48619">
        <ele>280.4</ele>
        <time>2025-10-18T08:42:04Z</time>
      </trkpt>
      <trkpt lat="43.22031" lon="5.48618">
        <ele>280.5</ele>
        <time>2025-10-18T08:42:05Z</time>
      </trkpt>
      <trkpt lat="43.2203" lon="5.48618">
        <ele>280.8</ele>
        <time>2025-10-18T08:42:06Z</time>
      </trkpt>
      <trkpt lat="43.22029" lon="5.48617">
        <ele>281</ele>
        <time>2025-10-18T08:42:07Z</time>
      </trkpt>
      <trkpt lat="43.22029" lon="5.48617">
        <ele>281.1</ele>
        <time>2025-10-18T08:42:08Z</time>
      </trkpt>
      <trkpt lat="43.22028" lon="5.48616">
        <ele>281.2</ele>
        <time>2025-10-18T08:42:09Z</time>
      </trkpt>
      <trkpt lat="43.22028" lon="5.48615">
        <ele>281.4</ele>
        <time>2025-10-18T08:42:10Z</time>
      </trkpt>
      <trkpt lat="43.22027" lon="5.48614">
        <ele>281.6</ele>
        <time>2025-10-18T08:42:11Z</time>
      </trkpt>
      <trkpt lat="43.22027" lon="5.48614">
        <ele>281.8</ele>
        <time>2025-10-18T08:42:12Z</time>
      </trkpt>
      <trkpt lat="43.22026" lon="5.48613">
        <ele>281.9</ele>
        <time>2025-10-18T08:42:13Z</time>
      </trkpt>
      <trkpt lat="43.22026" lon="5.48612">
        <ele>282</ele>
        <time>2025-10-18T08:42:14Z</time>
      </trkpt>
      <trkpt lat="43.22025" lon="5.48612">
        <ele>282.2</ele>
        <time>2025-10-18T08:42:15Z</time>
      </trkpt>
      <trkpt lat="43.22025" lon="5.48611">
        <ele>282.3</ele>
        <time>2025-10-18T08:42:16Z</time>
      </trkpt>
      <trkpt lat="43.22024" lon="5.4861">
        <ele>282.4</ele>
        <time>2025-10-18T08:42:17Z</time>
      </trkpt>
      <trkpt lat="43.22023" lon="5.48609">
        <ele>282.5</ele>
        <time>2025-10-18T08:42:18Z</time>
      </trkpt>
      <trkpt lat="43.22023" lon="5.48609">
        <ele>282.7</ele>
        <time>2025-10-18T08:42:19Z</time>
      </trkpt>
      <trkpt lat="43.22022" lon="5.48608">
        <ele>282.8</ele>
        <time>2025-10-18T08:42:20Z</time>
      </trkpt>
      <trkpt lat="43.22022" lon="5.48608">
        <ele>283</ele>
        <time>2025-10-18T08:42:21Z</time>
      </trkpt>
      <trkpt lat="43.22022" lon="5.48607">
        <ele>283.1</ele>
        <time>2025-10-18T08:42:22Z</time>
      </trkpt>
      <trkpt lat="43.22021" lon="5.48607">
        <ele>283.2</ele>
        <time>2025-10-18T08:42:23Z</time>
      </trkpt>
      <trkpt lat="43.2202" lon="5.48606">
        <ele>283.3</ele>
        <time>2025-10-18T08:42:24Z</time>
      </trkpt>
      <trkpt lat="43.22019" lon="5.48605">
        <ele>283.4</ele>
        <time>2025-10-18T08:42:25Z</time>
      </trkpt>
      <trkpt lat="43.22019" lon="5.48605">
        <ele>283.5</ele>
        <time>2025-10-18T08:42:26Z</time>
      </trkpt>
      <trkpt lat="43.22018" lon="5.48604">
        <ele>283.6</ele>
        <time>2025-10-18T08:42:27Z</time>
      </trkpt>
      <trkpt lat="43.22018" lon="5.48603">
        <ele>283.6</ele>
        <time>2025-10-18T08:42:28Z</time>
      </trkpt>
      <trkpt lat="43.22017" lon="5.48603">
        <ele>283.7</ele>
        <time>2025-10-18T08:42:29Z</time>
      </trkpt>
      <trkpt lat="43.22017" lon="5.48602">
        <ele>283.8</ele>
        <time>2025-10-18T08:42:30Z</time>
      </trkpt>
      <trkpt lat="43.22016" lon="5.48601">
        <ele>283.8</ele>
        <time>2025-10-18T08:42:31Z</time>
      </trkpt>
      <trkpt lat="43.22016" lon="5.486">
        <ele>283.9</ele>
        <time>2025-10-18T08:42:32Z</time>
      </trkpt>
      <trkpt lat="43.22015" lon="5.48599">
        <ele>284.1</ele>
        <time>2025-10-18T08:42:33Z</time>
      </trkpt>
      <trkpt lat="43.22015" lon="5.48598">
        <ele>284.1</ele>
        <time>2025-10-18T08:42:34Z</time>
      </trkpt>
      <trkpt lat="43.22015" lon="5.48597">
        <ele>284.2</ele>
        <time>2025-10-18T08:42:35Z</time>
      </trkpt>
      <trkpt lat="43.22014" lon="5.48596">
        <ele>284.4</ele>
        <time>2025-10-18T08:42:36Z</time>
      </trkpt>
      <trkpt lat="43.22014" lon="5.48595">
        <ele>284.5</ele>
        <time>2025-10-18T08:42:37Z</time>
      </trkpt>
      <trkpt lat="43.22014" lon="5.48594">
        <ele>284.6</ele>
        <time>2025-10-18T08:42:38Z</time>
      </trkpt>
      <trkpt lat="43.22014" lon="5.48593">
        <ele>284.7</ele>
        <time>2025-10-18T08:42:39Z</time>
      </trkpt>
      <trkpt lat="43.22014" lon="5.48592">
        <ele>284.7</ele>
        <time>2025-10-18T08:42:40Z</time>
      </trkpt>
      <trkpt lat="43.22013" lon="5.4859">
        <ele>284.8</ele>
        <time>2025-10-18T08:42:41Z</time>
      </trkpt>
      <trkpt lat="43.22013" lon="5.48589">
        <ele>284.9</ele>
        <time>2025-10-18T08:42:42Z</time>
      </trkpt>
      <trkpt lat="43.22013" lon="5.48588">
        <ele>285.1</ele>
        <time>2025-10-18T08:42:43Z</time>
      </trkpt>
      <trkpt lat="43.22013" lon="5.48586">
        <ele>285.3</ele>
        <time>2025-10-18T08:42:44Z</time>
      </trkpt>
      <trkpt lat="43.22012" lon="5.48585">
        <ele>285.4</ele>
        <time>2025-10-18T08:42:45Z</time>
      </trkpt>
      <trkpt lat="43.22012" lon="5.48584">
        <ele>285.6</ele>
        <time>2025-10-18T08:42:46Z</time>
      </trkpt>
      <trkpt lat="43.22011" lon="5.48583">
        <ele>285.7</ele>
        <time>2025-10-18T08:42:47Z</time>
      </trkpt>
      <trkpt lat="43.22011" lon="5.48582">
        <ele>285.8</ele>
        <time>2025-10-18T08:42:48Z</time>
      </trkpt>
      <trkpt lat="43.2201" lon="5.48581">
        <ele>285.9</ele>
        <time>2025-10-18T08:42:49Z</time>
      </trkpt>
      <trkpt lat="43.2201" lon="5.4858">
        <ele>286</ele>
        <time>2025-10-18T08:42:50Z</time>
      </trkpt>
      <trkpt lat="43.2201" lon="5.48578">
        <ele>286.1</ele>
        <time>2025-10-18T08:42:51Z</time>
      </trkpt>
      <trkpt lat="43.2201" lon="5.48577">
        <ele>286.3</ele>
        <time>2025-10-18T08:42:52Z</time>
      </trkpt>
      <trkpt lat="43.2201" lon="5.48576">
        <ele>286.4</ele>
        <time>2025-10-18T08:42:53Z</time>
      </trkpt>
      <trkpt lat="43.2201" lon="5.48574">
        <ele>286.4</ele>
        <time>2025-10-18T08:42:54Z</time>
      </trkpt>
      <trkpt lat="43.2201" lon="5.48573">
        <ele>286.4</ele>
        <time>2025-10-18T08:42:55Z</time>
      </trkpt>
      <trkpt lat="43.2201" lon="5.48572">
        <ele>286.5</ele>
        <time>2025-10-18T08:42:56Z</time>
      </trkpt>
      <trkpt lat="43.2201" lon="5.48571">
        <ele>286.6</ele>
        <time>2025-10-18T08:42:57Z</time>
      </trkpt>
      <trkpt lat="43.2201" lon="5.4857">
        <ele>286.6</ele>
        <time>2025-10-18T08:42:58Z</time>
      </trkpt>
      <trkpt lat="43.2201" lon="5.48569">
        <ele>286.7</ele>
        <time>2025-10-18T08:42:59Z</time>
      </trkpt>
      <trkpt lat="43.2201" lon="5.48568">
        <ele>286.8</ele>
        <time>2025-10-18T08:43:00Z</time>
      </trkpt>
      <trkpt lat="43.2201" lon="5.48567">
        <ele>286.9</ele>
        <time>2025-10-18T08:43:01Z</time>
      </trkpt>
      <trkpt lat="43.2201" lon="5.48565">
        <ele>287.1</ele>
        <time>2025-10-18T08:43:02Z</time>
      </trkpt>
      <trkpt lat="43.2201" lon="5.48564">
        <ele>287.3</ele>
        <time>2025-10-18T08:43:03Z</time>
      </trkpt>
      <trkpt lat="43.2201" lon="5.48563">
        <ele>287.4</ele>
        <time>2025-10-18T08:43:04Z</time>
      </trkpt>
      <trkpt lat="43.2201" lon="5.48562">
        <ele>287.5</ele>
        <time>2025-10-18T08:43:05Z</time>
      </trkpt>
      <trkpt lat="43.2201" lon="5.48562">
        <ele>287.6</ele>
        <time>2025-10-18T08:43:06Z</time>
      </trkpt>
      <trkpt lat="43.22009" lon="5.48561">
        <ele>287.6</ele>
        <time>2025-10-18T08:43:07Z</time>
      </trkpt>
      <trkpt lat="43.22009" lon="5.4856">
        <ele>287.6</ele>
        <time>2025-10-18T08:43:08Z</time>
      </trkpt>
      <trkpt lat="43.22009" lon="5.48559">
        <ele>287.6</ele>
        <time>2025-10-18T08:43:09Z</time>
      </trkpt>
      <trkpt lat="43.22009" lon="5.48557">
        <ele>287.6</ele>
        <time>2025-10-18T08:43:10Z</time>
      </trkpt>
      <trkpt lat="43.22008" lon="5.48556">
        <ele>287.5</ele>
        <time>2025-10-18T08:43:11Z</time>
      </trkpt>
      <trkpt lat="43.22008" lon="5.48554">
        <ele>287.5</ele>
        <time>2025-10-18T08:43:12Z</time>
      </trkpt>
      <trkpt lat="43.22008" lon="5.48553">
        <ele>287.5</ele>
        <time>2025-10-18T08:43:13Z</time>
      </trkpt>
      <trkpt lat="43.22008" lon="5.48551">
        <ele>287.4</ele>
        <time>2025-10-18T08:43:14Z</time>
      </trkpt>
      <trkpt lat="43.22007" lon="5.4855">
        <ele>287.3</ele>
        <time>2025-10-18T08:43:15Z</time>
      </trkpt>
      <trkpt lat="43.22007" lon="5.48549">
        <ele>287.2</ele>
        <time>2025-10-18T08:43:16Z</time>
      </trkpt>
      <trkpt lat="43.22007" lon="5.48548">
        <ele>287.1</ele>
        <time>2025-10-18T08:43:17Z</time>
      </trkpt>
      <trkpt lat="43.22007" lon="5.48546">
        <ele>287.1</ele>
        <time>2025-10-18T08:43:18Z</time>
      </trkpt>
      <trkpt lat="43.22007" lon="5.48545">
        <ele>287</ele>
        <time>2025-10-18T08:43:19Z</time>
      </trkpt>
      <trkpt lat="43.22007" lon="5.48544">
        <ele>287</ele>
        <time>2025-10-18T08:43:20Z</time>
      </trkpt>
      <trkpt lat="43.22007" lon="5.48543">
        <ele>287.1</ele>
        <time>2025-10-18T08:43:21Z</time>
      </trkpt>
      <trkpt lat="43.22007" lon="5.48541">
        <ele>287.1</ele>
        <time>2025-10-18T08:43:22Z</time>
      </trkpt>
      <trkpt lat="43.22007" lon="5.4854">
        <ele>287.1</ele>
        <time>2025-10-18T08:43:23Z</time>
      </trkpt>
      <trkpt lat="43.22006" lon="5.48539">
        <ele>287.1</ele>
        <time>2025-10-18T08:43:24Z</time>
      </trkpt>
      <trkpt lat="43.22006" lon="5.48538">
        <ele>287</ele>
        <time>2025-10-18T08:43:25Z</time>
      </trkpt>
      <trkpt lat="43.22006" lon="5.48537">
        <ele>286.9</ele>
        <time>2025-10-18T08:43:26Z</time>
      </trkpt>
      <trkpt lat="43.22006" lon="5.48535">
        <ele>286.9</ele>
        <time>2025-10-18T08:43:27Z</time>
      </trkpt>
      <trkpt lat="43.22005" lon="5.48534">
        <ele>286.8</ele>
        <time>2025-10-18T08:43:28Z</time>
      </trkpt>
      <trkpt lat="43.22006" lon="5.48533">
        <ele>286.8</ele>
        <time>2025-10-18T08:43:29Z</time>
      </trkpt>
      <trkpt lat="43.22005" lon="5.48532">
        <ele>286.8</ele>
        <time>2025-10-18T08:43:30Z</time>
      </trkpt>
      <trkpt lat="43.22005" lon="5.48531">
        <ele>286.9</ele>
        <time>2025-10-18T08:43:31Z</time>
      </trkpt>
      <trkpt lat="43.22005" lon="5.4853">
        <ele>287</ele>
        <time>2025-10-18T08:43:32Z</time>
      </trkpt>
      <trkpt lat="43.22005" lon="5.48529">
        <ele>286.9</ele>
        <time>2025-10-18T08:43:33Z</time>
      </trkpt>
      <trkpt lat="43.22005" lon="5.48528">
        <ele>286.9</ele>
        <time>2025-10-18T08:43:34Z</time>
      </trkpt>
      <trkpt lat="43.22005" lon="5.48527">
        <ele>286.9</ele>
        <time>2025-10-18T08:43:35Z</time>
      </trkpt>
      <trkpt lat="43.22005" lon="5.48526">
        <ele>287</ele>
        <time>2025-10-18T08:43:36Z</time>
      </trkpt>
      <trkpt lat="43.22005" lon="5.48525">
        <ele>287.1</ele>
        <time>2025-10-18T08:43:37Z</time>
      </trkpt>
      <trkpt lat="43.22005" lon="5.48524">
        <ele>287.1</ele>
        <time>2025-10-18T08:43:38Z</time>
      </trkpt>
      <trkpt lat="43.22005" lon="5.48524">
        <ele>287.1</ele>
        <time>2025-10-18T08:43:39Z</time>
      </trkpt>
      <trkpt lat="43.22004" lon="5.48523">
        <ele>287.1</ele>
        <time>2025-10-18T08:43:40Z</time>
      </trkpt>
      <trkpt lat="43.22004" lon="5.48522">
        <ele>287.1</ele>
        <time>2025-10-18T08:43:41Z</time>
      </trkpt>
      <trkpt lat="43.22004" lon="5.48522">
        <ele>287.1</ele>
        <time>2025-10-18T08:43:42Z</time>
      </trkpt>
      <trkpt lat="43.22004" lon="5.48522">
        <ele>287.1</ele>
        <time>2025-10-18T08:43:43Z</time>
      </trkpt>
      <trkpt lat="43.22004" lon="5.48521">
        <ele>287.1</ele>
        <time>2025-10-18T08:43:44Z</time>
      </trkpt>
      <trkpt lat="43.22004" lon="5.48521">
        <ele>287.1</ele>
        <time>2025-10-18T08:43:45Z</time>
      </trkpt>
      <trkpt lat="43.22003" lon="5.48519">
        <ele>287.1</ele>
        <time>2025-10-18T08:43:46Z</time>
      </trkpt>
      <trkpt lat="43.22003" lon="5.48517">
        <ele>287.2</ele>
        <time>2025-10-18T08:43:47Z</time>
      </trkpt>
      <trkpt lat="43.22002" lon="5.48516">
        <ele>287.2</ele>
        <time>2025-10-18T08:43:48Z</time>
      </trkpt>
      <trkpt lat="43.22002" lon="5.48515">
        <ele>287.3</ele>
        <time>2025-10-18T08:43:49Z</time>
      </trkpt>
      <trkpt lat="43.22001" lon="5.48514">
        <ele>287.4</ele>
        <time>2025-10-18T08:43:50Z</time>
      </trkpt>
      <trkpt lat="43.22001" lon="5.48513">
        <ele>287.4</ele>
        <time>2025-10-18T08:43:51Z</time>
      </trkpt>
      <trkpt lat="43.22001" lon="5.48512">
        <ele>287.5</ele>
        <time>2025-10-18T08:43:52Z</time>
      </trkpt>
      <trkpt lat="43.22" lon="5.48511">
        <ele>287.5</ele>
        <time>2025-10-18T08:43:53Z</time>
      </trkpt>
      <trkpt lat="43.21999" lon="5.4851">
        <ele>287.6</ele>
        <time>2025-10-18T08:43:54Z</time>
      </trkpt>
      <trkpt lat="43.21999" lon="5.48509">
        <ele>287.6</ele>
        <time>2025-10-18T08:43:55Z</time>
      </trkpt>
      <trkpt lat="43.21998" lon="5.48508">
        <ele>287.7</ele>
        <time>2025-10-18T08:43:56Z</time>
      </trkpt>
      <trkpt lat="43.21998" lon="5.48507">
        <ele>287.7</ele>
        <time>2025-10-18T08:43:57Z</time>
      </trkpt>
      <trkpt lat="43.21997" lon="5.48506">
        <ele>287.7</ele>
        <time>2025-10-18T08:43:58Z</time>
      </trkpt>
      <trkpt lat="43.21996" lon="5.48505">
        <ele>287.7</ele>
        <time>2025-10-18T08:43:59Z</time>
      </trkpt>
      <trkpt lat="43.21996" lon="5.48504">
        <ele>287.6</ele>
        <time>2025-10-18T08:44:00Z</time>
      </trkpt>
      <trkpt lat="43.21995" lon="5.48503">
        <ele>287.6</ele>
        <time>2025-10-18T08:44:01Z</time>
      </trkpt>
      <trkpt lat="43.21995" lon="5.48502">
        <ele>287.6</ele>
        <time>2025-10-18T08:44:02Z</time>
      </trkpt>
      <trkpt lat="43.21994" lon="5.48501">
        <ele>287.6</ele>
        <time>2025-10-18T08:44:03Z</time>
      </trkpt>
      <trkpt lat="43.21993" lon="5.485">
        <ele>287.6</ele>
        <time>2025-10-18T08:44:04Z</time>
      </trkpt>
      <trkpt lat="43.21993" lon="5.485">
        <ele>287.6</ele>
        <time>2025-10-18T08:44:05Z</time>
      </trkpt>
      <trkpt lat="43.21992" lon="5.485">
        <ele>287.6</ele>
        <time>2025-10-18T08:44:06Z</time>
      </trkpt>
      <trkpt lat="43.21991" lon="5.48499">
        <ele>287.6</ele>
        <time>2025-10-18T08:44:07Z</time>
      </trkpt>
      <trkpt lat="43.21991" lon="5.48499">
        <ele>287.6</ele>
        <time>2025-10-18T08:44:08Z</time>
      </trkpt>
      <trkpt lat="43.2199" lon="5.48498">
        <ele>287.5</ele>
        <time>2025-10-18T08:44:09Z</time>
      </trkpt>
      <trkpt lat="43.21989" lon="5.48497">
        <ele>287.5</ele>
        <time>2025-10-18T08:44:10Z</time>
      </trkpt>
      <trkpt lat="43.21988" lon="5.48496">
        <ele>287.5</ele>
        <time>2025-10-18T08:44:11Z</time>
      </trkpt>
      <trkpt lat="43.21987" lon="5.48495">
        <ele>287.4</ele>
        <time>2025-10-18T08:44:12Z</time>
      </trkpt>
      <trkpt lat="43.21986" lon="5.48494">
        <ele>287.3</ele>
        <time>2025-10-18T08:44:13Z</time>
      </trkpt>
      <trkpt lat="43.21986" lon="5.48494">
        <ele>287.3</ele>
        <time>2025-10-18T08:44:14Z</time>
      </trkpt>
      <trkpt lat="43.21985" lon="5.48493">
        <ele>287.3</ele>
        <time>2025-10-18T08:44:15Z</time>
      </trkpt>
      <trkpt lat="43.21984" lon="5.48493">
        <ele>287.1</ele>
        <time>2025-10-18T08:44:16Z</time>
      </trkpt>
      <trkpt lat="43.21983" lon="5.48492">
        <ele>287</ele>
        <time>2025-10-18T08:44:17Z</time>
      </trkpt>
      <trkpt lat="43.21982" lon="5.48492">
        <ele>286.9</ele>
        <time>2025-10-18T08:44:18Z</time>
      </trkpt>
      <trkpt lat="43.21981" lon="5.48491">
        <ele>286.7</ele>
        <time>2025-10-18T08:44:19Z</time>
      </trkpt>
      <trkpt lat="43.21979" lon="5.48491">
        <ele>286.7</ele>
        <time>2025-10-18T08:44:20Z</time>
      </trkpt>
      <trkpt lat="43.21978" lon="5.4849">
        <ele>286.7</ele>
        <time>2025-10-18T08:44:21Z</time>
      </trkpt>
      <trkpt lat="43.21978" lon="5.4849">
        <ele>286.7</ele>
        <time>2025-10-18T08:44:22Z</time>
      </trkpt>
      <trkpt lat="43.21977" lon="5.48489">
        <ele>286.7</ele>
        <time>2025-10-18T08:44:23Z</time>
      </trkpt>
      <trkpt lat="43.21976" lon="5.48489">
        <ele>286.7</ele>
        <time>2025-10-18T08:44:24Z</time>
      </trkpt>
      <trkpt lat="43.21975" lon="5.48488">
        <ele>286.7</ele>
        <time>2025-10-18T08:44:25Z</time>
      </trkpt>
      <trkpt lat="43.21974" lon="5.48488">
        <ele>286.6</ele>
        <time>2025-10-18T08:44:26Z</time>
      </trkpt>
      <trkpt lat="43.21973" lon="5.48487">
        <ele>286.6</ele>
        <time>2025-10-18T08:44:27Z</time>
      </trkpt>
      <trkpt lat="43.21973" lon="5.48487">
        <ele>286.5</ele>
        <time>2025-10-18T08:44:28Z</time>
      </trkpt>
      <trkpt lat="43.21972" lon="5.48486">
        <ele>286.5</ele>
        <time>2025-10-18T08:44:29Z</time>
      </trkpt>
      <trkpt lat="43.21971" lon="5.48485">
        <ele>286.4</ele>
        <time>2025-10-18T08:44:30Z</time>
      </trkpt>
      <trkpt lat="43.21971" lon="5.48485">
        <ele>286.3</ele>
        <time>2025-10-18T08:44:31Z</time>
      </trkpt>
      <trkpt lat="43.2197" lon="5.48484">
        <ele>286.2</ele>
        <time>2025-10-18T08:44:32Z</time>
      </trkpt>
      <trkpt lat="43.21969" lon="5.48484">
        <ele>286.1</ele>
        <time>2025-10-18T08:44:33Z</time>
      </trkpt>
      <trkpt lat="43.21968" lon="5.48483">
        <ele>286</ele>
        <time>2025-10-18T08:44:34Z</time>
      </trkpt>
      <trkpt lat="43.21968" lon="5.48483">
        <ele>286</ele>
        <time>2025-10-18T08:44:35Z</time>
      </trkpt>
      <trkpt lat="43.21967" lon="5.48483">
        <ele>286</ele>
        <time>2025-10-18T08:44:36Z</time>
      </trkpt>
      <trkpt lat="43.21966" lon="5.48482">
        <ele>286</ele>
        <time>2025-10-18T08:44:37Z</time>
      </trkpt>
      <trkpt lat="43.21965" lon="5.48482">
        <ele>286</ele>
        <time>2025-10-18T08:44:38Z</time>
      </trkpt>
      <trkpt lat="43.21964" lon="5.48482">
        <ele>285.9</ele>
        <time>2025-10-18T08:44:39Z</time>
      </trkpt>
      <trkpt lat="43.21963" lon="5.48481">
        <ele>285.9</ele>
        <time>2025-10-18T08:44:40Z</time>
      </trkpt>
      <trkpt lat="43.21963" lon="5.48481">
        <ele>285.8</ele>
        <time>2025-10-18T08:44:41Z</time>
      </trkpt>
      <trkpt lat="43.21962" lon="5.48481">
        <ele>285.8</ele>
        <time>2025-10-18T08:44:42Z</time>
      </trkpt>
      <trkpt lat="43.21961" lon="5.4848">
        <ele>285.9</ele>
        <time>2025-10-18T08:44:43Z</time>
      </trkpt>
      <trkpt lat="43.2196" lon="5.4848">
        <ele>285.9</ele>
        <time>2025-10-18T08:44:44Z</time>
      </trkpt>
      <trkpt lat="43.21959" lon="5.48479">
        <ele>285.9</ele>
        <time>2025-10-18T08:44:45Z</time>
      </trkpt>
      <trkpt lat="43.21959" lon="5.48478">
        <ele>285.9</ele>
        <time>2025-10-18T08:44:46Z</time>
      </trkpt>
      <trkpt lat="43.21958" lon="5.48478">
        <ele>286</ele>
        <time>2025-10-18T08:44:47Z</time>
      </trkpt>
      <trkpt lat="43.21957" lon="5.48477">
        <ele>286</ele>
        <time>2025-10-18T08:44:48Z</time>
      </trkpt>
      <trkpt lat="43.21957" lon="5.48476">
        <ele>286.1</ele>
        <time>2025-10-18T08:44:49Z</time>
      </trkpt>
      <trkpt lat="43.21956" lon="5.48475">
        <ele>286.1</ele>
        <time>2025-10-18T08:44:50Z</time>
      </trkpt>
      <trkpt lat="43.21956" lon="5.48474">
        <ele>286.2</ele>
        <time>2025-10-18T08:44:51Z</time>
      </trkpt>
      <trkpt lat="43.21955" lon="5.48474">
        <ele>286.1</ele>
        <time>2025-10-18T08:44:52Z</time>
      </trkpt>
      <trkpt lat="43.21955" lon="5.48473">
        <ele>286.1</ele>
        <time>2025-10-18T08:44:53Z</time>
      </trkpt>
      <trkpt lat="43.21954" lon="5.48472">
        <ele>286.1</ele>
        <time>2025-10-18T08:44:54Z</time>
      </trkpt>
      <trkpt lat="43.21954" lon="5.48472">
        <ele>286</ele>
        <time>2025-10-18T08:44:55Z</time>
      </trkpt>
      <trkpt lat="43.21953" lon="5.48471">
        <ele>286</ele>
        <time>2025-10-18T08:44:56Z</time>
      </trkpt>
      <trkpt lat="43.21953" lon="5.4847">
        <ele>286</ele>
        <time>2025-10-18T08:44:57Z</time>
      </trkpt>
      <trkpt lat="43.21953" lon="5.48469">
        <ele>286</ele>
        <time>2025-10-18T08:44:58Z</time>
      </trkpt>
      <trkpt lat="43.21952" lon="5.48469">
        <ele>285.9</ele>
        <time>2025-10-18T08:44:59Z</time>
      </trkpt>
      <trkpt lat="43.21952" lon="5.48468">
        <ele>285.9</ele>
        <time>2025-10-18T08:45:00Z</time>
      </trkpt>
      <trkpt lat="43.21951" lon="5.48467">
        <ele>285.8</ele>
        <time>2025-10-18T08:45:01Z</time>
      </trkpt>
      <trkpt lat="43.2195" lon="5.48467">
        <ele>285.8</ele>
        <time>2025-10-18T08:45:02Z</time>
      </trkpt>
      <trkpt lat="43.2195" lon="5.48466">
        <ele>285.8</ele>
        <time>2025-10-18T08:45:03Z</time>
      </trkpt>
      <trkpt lat="43.21949" lon="5.48465">
        <ele>285.7</ele>
        <time>2025-10-18T08:45:04Z</time>
      </trkpt>
      <trkpt lat="43.21949" lon="5.48464">
        <ele>285.7</ele>
        <time>2025-10-18T08:45:05Z</time>
      </trkpt>
      <trkpt lat="43.21949" lon="5.48463">
        <ele>285.6</ele>
        <time>2025-10-18T08:45:06Z</time>
      </trkpt>
      <trkpt lat="43.21948" lon="5.48463">
        <ele>285.5</ele>
        <time>2025-10-18T08:45:07Z</time>
      </trkpt>
      <trkpt lat="43.21947" lon="5.48462">
        <ele>285.4</ele>
        <time>2025-10-18T08:45:08Z</time>
      </trkpt>
      <trkpt lat="43.21946" lon="5.48462">
        <ele>285.3</ele>
        <time>2025-10-18T08:45:09Z</time>
      </trkpt>
      <trkpt lat="43.21945" lon="5.48461">
        <ele>285.2</ele>
        <time>2025-10-18T08:45:10Z</time>
      </trkpt>
      <trkpt lat="43.21945" lon="5.4846">
        <ele>285.1</ele>
        <time>2025-10-18T08:45:11Z</time>
      </trkpt>
      <trkpt lat="43.21944" lon="5.4846">
        <ele>284.9</ele>
        <time>2025-10-18T08:45:12Z</time>
      </trkpt>
      <trkpt lat="43.21943" lon="5.4846">
        <ele>284.8</ele>
        <time>2025-10-18T08:45:13Z</time>
      </trkpt>
      <trkpt lat="43.21943" lon="5.4846">
        <ele>284.8</ele>
        <time>2025-10-18T08:45:14Z</time>
      </trkpt>
      <trkpt lat="43.21943" lon="5.4846">
        <ele>284.7</ele>
        <time>2025-10-18T08:45:15Z</time>
      </trkpt>
      <trkpt lat="43.21943" lon="5.4846">
        <ele>284.7</ele>
        <time>2025-10-18T08:45:16Z</time>
      </trkpt>
      <trkpt lat="43.21943" lon="5.4846">
        <ele>284.7</ele>
        <time>2025-10-18T08:45:17Z</time>
      </trkpt>
      <trkpt lat="43.21943" lon="5.4846">
        <ele>284.6</ele>
        <time>2025-10-18T08:45:18Z</time>
      </trkpt>
      <trkpt lat="43.21942" lon="5.4846">
        <ele>284.5</ele>
        <time>2025-10-18T08:45:19Z</time>
      </trkpt>
      <trkpt lat="43.21942" lon="5.4846">
        <ele>284.5</ele>
        <time>2025-10-18T08:45:20Z</time>
      </trkpt>
      <trkpt lat="43.21942" lon="5.4846">
        <ele>284.4</ele>
        <time>2025-10-18T08:45:21Z</time>
      </trkpt>
      <trkpt lat="43.21942" lon="5.4846">
        <ele>284.3</ele>
        <time>2025-10-18T08:45:22Z</time>
      </trkpt>
      <trkpt lat="43.21942" lon="5.4846">
        <ele>284.2</ele>
        <time>2025-10-18T08:45:23Z</time>
      </trkpt>
      <trkpt lat="43.21942" lon="5.4846">
        <ele>284.3</ele>
        <time>2025-10-18T08:45:24Z</time>
      </trkpt>
      <trkpt lat="43.21942" lon="5.4846">
        <ele>284.2</ele>
        <time>2025-10-18T08:45:25Z</time>
      </trkpt>
      <trkpt lat="43.21942" lon="5.4846">
        <ele>284.2</ele>
        <time>2025-10-18T08:45:26Z</time>
      </trkpt>
      <trkpt lat="43.21942" lon="5.48459">
        <ele>284.2</ele>
        <time>2025-10-18T08:45:27Z</time>
      </trkpt>
      <trkpt lat="43.21942" lon="5.48459">
        <ele>284.2</ele>
        <time>2025-10-18T08:45:28Z</time>
      </trkpt>
      <trkpt lat="43.21941" lon="5.48459">
        <ele>284.3</ele>
        <time>2025-10-18T08:45:29Z</time>
      </trkpt>
      <trkpt lat="43.21942" lon="5.48459">
        <ele>284.3</ele>
        <time>2025-10-18T08:45:30Z</time>
      </trkpt>
      <trkpt lat="43.21942" lon="5.48459">
        <ele>284.3</ele>
        <time>2025-10-18T08:45:31Z</time>
      </trkpt>
      <trkpt lat="43.21942" lon="5.48459">
        <ele>284.3</ele>
        <time>2025-10-18T08:45:32Z</time>
      </trkpt>
      <trkpt lat="43.21942" lon="5.48459">
        <ele>284.4</ele>
        <time>2025-10-18T08:45:33Z</time>
      </trkpt>
      <trkpt lat="43.21942" lon="5.48459">
        <ele>284.4</ele>
        <time>2025-10-18T08:45:34Z</time>
      </trkpt>
      <trkpt lat="43.21941" lon="5.48459">
        <ele>284.3</ele>
        <time>2025-10-18T08:45:35Z</time>
      </trkpt>
      <trkpt lat="43.21941" lon="5.48459">
        <ele>284.3</ele>
        <time>2025-10-18T08:45:36Z</time>
      </trkpt>
      <trkpt lat="43.21941" lon="5.4846">
        <ele>284.3</ele>
        <time>2025-10-18T08:45:37Z</time>
      </trkpt>
      <trkpt lat="43.2194" lon="5.4846">
        <ele>284.4</ele>
        <time>2025-10-18T08:45:38Z</time>
      </trkpt>
      <trkpt lat="43.21939" lon="5.4846">
        <ele>284.2</ele>
        <time>2025-10-18T08:45:39Z</time>
      </trkpt>
      <trkpt lat="43.21939" lon="5.4846">
        <ele>284.2</ele>
        <time>2025-10-18T08:45:40Z</time>
      </trkpt>
      <trkpt lat="43.21938" lon="5.4846">
        <ele>284.1</ele>
        <time>2025-10-18T08:45:41Z</time>
      </trkpt>
      <trkpt lat="43.21937" lon="5.4846">
        <ele>284.1</ele>
        <time>2025-10-18T08:45:42Z</time>
      </trkpt>
      <trkpt lat="43.21936" lon="5.4846">
        <ele>284</ele>
        <time>2025-10-18T08:45:43Z</time>
      </trkpt>
      <trkpt lat="43.21936" lon="5.4846">
        <ele>283.9</ele>
        <time>2025-10-18T08:45:44Z</time>
      </trkpt>
      <trkpt lat="43.21935" lon="5.4846">
        <ele>283.8</ele>
        <time>2025-10-18T08:45:45Z</time>
      </trkpt>
      <trkpt lat="43.21935" lon="5.48458">
        <ele>283.6</ele>
        <time>2025-10-18T08:45:46Z</time>
      </trkpt>
      <trkpt lat="43.21934" lon="5.48457">
        <ele>283.5</ele>
        <time>2025-10-18T08:45:47Z</time>
      </trkpt>
      <trkpt lat="43.21933" lon="5.48457">
        <ele>283.4</ele>
        <time>2025-10-18T08:45:48Z</time>
      </trkpt>
      <trkpt lat="43.21933" lon="5.48457">
        <ele>283.3</ele>
        <time>2025-10-18T08:45:49Z</time>
      </trkpt>
      <trkpt lat="43.21932" lon="5.48457">
        <ele>283.2</ele>
        <time>2025-10-18T08:45:50Z</time>
      </trkpt>
      <trkpt lat="43.21931" lon="5.48457">
        <ele>283.2</ele>
        <time>2025-10-18T08:45:51Z</time>
      </trkpt>
      <trkpt lat="43.21932" lon="5.48457">
        <ele>283</ele>
        <time>2025-10-18T08:45:52Z</time>
      </trkpt>
      <trkpt lat="43.21931" lon="5.48457">
        <ele>282.9</ele>
        <time>2025-10-18T08:45:53Z</time>
      </trkpt>
      <trkpt lat="43.21931" lon="5.48456">
        <ele>282.7</ele>
        <time>2025-10-18T08:45:54Z</time>
      </trkpt>
      <trkpt lat="43.2193" lon="5.48456">
        <ele>282.4</ele>
        <time>2025-10-18T08:45:55Z</time>
      </trkpt>
      <trkpt lat="43.21929" lon="5.48455">
        <ele>282.2</ele>
        <time>2025-10-18T08:45:56Z</time>
      </trkpt>
      <trkpt lat="43.21929" lon="5.48454">
        <ele>282</ele>
        <time>2025-10-18T08:45:57Z</time>
      </trkpt>
      <trkpt lat="43.21928" lon="5.48453">
        <ele>281.9</ele>
        <time>2025-10-18T08:45:58Z</time>
      </trkpt>
      <trkpt lat="43.21927" lon="5.48451">
        <ele>281.8</ele>
        <time>2025-10-18T08:45:59Z</time>
      </trkpt>
      <trkpt lat="43.21926" lon="5.48451">
        <ele>281.7</ele>
        <time>2025-10-18T08:46:00Z</time>
      </trkpt>
      <trkpt lat="43.21925" lon="5.4845">
        <ele>281.6</ele>
        <time>2025-10-18T08:46:01Z</time>
      </trkpt>
      <trkpt lat="43.21925" lon="5.48449">
        <ele>281.5</ele>
        <time>2025-10-18T08:46:02Z</time>
      </trkpt>
      <trkpt lat="43.21924" lon="5.48449">
        <ele>281.4</ele>
        <time>2025-10-18T08:46:03Z</time>
      </trkpt>
      <trkpt lat="43.21923" lon="5.4845">
        <ele>281.3</ele>
        <time>2025-10-18T08:46:04Z</time>
      </trkpt>
      <trkpt lat="43.21923" lon="5.48449">
        <ele>281.2</ele>
        <time>2025-10-18T08:46:05Z</time>
      </trkpt>
      <trkpt lat="43.21923" lon="5.4845">
        <ele>281</ele>
        <time>2025-10-18T08:46:06Z</time>
      </trkpt>
      <trkpt lat="43.21923" lon="5.48449">
        <ele>280.9</ele>
        <time>2025-10-18T08:46:07Z</time>
      </trkpt>
      <trkpt lat="43.21923" lon="5.48449">
        <ele>280.8</ele>
        <time>2025-10-18T08:46:08Z</time>
      </trkpt>
      <trkpt lat="43.21923" lon="5.48449">
        <ele>280.8</ele>
        <time>2025-10-18T08:46:09Z</time>
      </trkpt>
      <trkpt lat="43.21923" lon="5.48449">
        <ele>280.7</ele>
        <time>2025-10-18T08:46:10Z</time>
      </trkpt>
      <trkpt lat="43.21923" lon="5.48449">
        <ele>280.7</ele>
        <time>2025-10-18T08:46:11Z</time>
      </trkpt>
      <trkpt lat="43.21923" lon="5.48449">
        <ele>280.7</ele>
        <time>2025-10-18T08:46:12Z</time>
      </trkpt>
      <trkpt lat="43.21923" lon="5.4845">
        <ele>280.7</ele>
        <time>2025-10-18T08:46:13Z</time>
      </trkpt>
      <trkpt lat="43.21923" lon="5.4845">
        <ele>280.6</ele>
        <time>2025-10-18T08:46:14Z</time>
      </trkpt>
      <trkpt lat="43.21923" lon="5.4845">
        <ele>280.5</ele>
        <time>2025-10-18T08:46:15Z</time>
      </trkpt>
      <trkpt lat="43.21923" lon="5.4845">
        <ele>280.5</ele>
        <time>2025-10-18T08:46:16Z</time>
      </trkpt>
      <trkpt lat="43.21923" lon="5.4845">
        <ele>280.6</ele>
        <time>2025-10-18T08:46:17Z</time>
      </trkpt>
      <trkpt lat="43.21923" lon="5.4845">
        <ele>280.6</ele>
        <time>2025-10-18T08:46:18Z</time>
      </trkpt>
      <trkpt lat="43.21923" lon="5.4845">
        <ele>280.7</ele>
        <time>2025-10-18T08:46:19Z</time>
      </trkpt>
      <trkpt lat="43.21923" lon="5.4845">
        <ele>280.6</ele>
        <time>2025-10-18T08:46:20Z</time>
      </trkpt>
      <trkpt lat="43.21923" lon="5.4845">
        <ele>280.6</ele>
        <time>2025-10-18T08:46:21Z</time>
      </trkpt>
      <trkpt lat="43.21923" lon="5.4845">
        <ele>280.6</ele>
        <time>2025-10-18T08:46:22Z</time>
      </trkpt>
      <trkpt lat="43.21923" lon="5.4845">
        <ele>280.6</ele>
        <time>2025-10-18T08:46:23Z</time>
      </trkpt>
      <trkpt lat="43.21923" lon="5.4845">
        <ele>280.6</ele>
        <time>2025-10-18T08:46:24Z</time>
      </trkpt>
      <trkpt lat="43.21923" lon="5.48451">
        <ele>280.6</ele>
        <time>2025-10-18T08:46:25Z</time>
      </trkpt>
      <trkpt lat="43.21922" lon="5.48451">
        <ele>280.6</ele>
        <time>2025-10-18T08:46:26Z</time>
      </trkpt>
      <trkpt lat="43.21922" lon="5.48451">
        <ele>280.5</ele>
        <time>2025-10-18T08:46:27Z</time>
      </trkpt>
      <trkpt lat="43.21922" lon="5.48452">
        <ele>280.5</ele>
        <time>2025-10-18T08:46:28Z</time>
      </trkpt>
      <trkpt lat="43.21922" lon="5.48452">
        <ele>280.5</ele>
        <time>2025-10-18T08:46:29Z</time>
      </trkpt>
      <trkpt lat="43.21921" lon="5.48452">
        <ele>280.4</ele>
        <time>2025-10-18T08:46:30Z</time>
      </trkpt>
      <trkpt lat="43.21921" lon="5.48452">
        <ele>280.4</ele>
        <time>2025-10-18T08:46:31Z</time>
      </trkpt>
      <trkpt lat="43.21921" lon="5.48452">
        <ele>280.3</ele>
        <time>2025-10-18T08:46:32Z</time>
      </trkpt>
      <trkpt lat="43.21921" lon="5.48452">
        <ele>280.1</ele>
        <time>2025-10-18T08:46:33Z</time>
      </trkpt>
      <trkpt lat="43.21921" lon="5.48452">
        <ele>280.1</ele>
        <time>2025-10-18T08:46:34Z</time>
      </trkpt>
      <trkpt lat="43.21921" lon="5.48452">
        <ele>280</ele>
        <time>2025-10-18T08:46:35Z</time>
      </trkpt>
      <trkpt lat="43.2192" lon="5.48452">
        <ele>280</ele>
        <time>2025-10-18T08:46:36Z</time>
      </trkpt>
      <trkpt lat="43.2192" lon="5.48452">
        <ele>280</ele>
        <time>2025-10-18T08:46:37Z</time>
      </trkpt>
      <trkpt lat="43.2192" lon="5.48452">
        <ele>280.1</ele>
        <time>2025-10-18T08:46:38Z</time>
      </trkpt>
      <trkpt lat="43.2192" lon="5.48452">
        <ele>280.1</ele>
        <time>2025-10-18T08:46:39Z</time>
      </trkpt>
      <trkpt lat="43.2192" lon="5.48452">
        <ele>280.2</ele>
        <time>2025-10-18T08:46:40Z</time>
      </trkpt>
      <trkpt lat="43.2192" lon="5.48452">
        <ele>280.2</ele>
        <time>2025-10-18T08:46:41Z</time>
      </trkpt>
      <trkpt lat="43.2192" lon="5.48452">
        <ele>280.2</ele>
        <time>2025-10-18T08:46:42Z</time>
      </trkpt>
      <trkpt lat="43.2192" lon="5.48452">
        <ele>280.3</ele>
        <time>2025-10-18T08:46:43Z</time>
      </trkpt>
      <trkpt lat="43.2192" lon="5.48452">
        <ele>280.3</ele>
        <time>2025-10-18T08:46:44Z</time>
      </trkpt>
      <trkpt lat="43.21919" lon="5.48452">
        <ele>280.3</ele>
        <time>2025-10-18T08:46:45Z</time>
      </trkpt>
      <trkpt lat="43.21919" lon="5.48452">
        <ele>280.2</ele>
        <time>2025-10-18T08:46:46Z</time>
      </trkpt>
      <trkpt lat="43.21919" lon="5.48452">
        <ele>280.2</ele>
        <time>2025-10-18T08:46:47Z</time>
      </trkpt>
      <trkpt lat="43.21919" lon="5.48452">
        <ele>280.3</ele>
        <time>2025-10-18T08:46:48Z</time>
      </trkpt>
      <trkpt lat="43.21919" lon="5.48452">
        <ele>280.3</ele>
        <time>2025-10-18T08:46:49Z</time>
      </trkpt>
      <trkpt lat="43.21919" lon="5.48452">
        <ele>280.3</ele>
        <time>2025-10-18T08:46:50Z</time>
      </trkpt>
      <trkpt lat="43.21919" lon="5.48452">
        <ele>280.2</ele>
        <time>2025-10-18T08:46:51Z</time>
      </trkpt>
      <trkpt lat="43.21919" lon="5.48452">
        <ele>280.2</ele>
        <time>2025-10-18T08:46:52Z</time>
      </trkpt>
      <trkpt lat="43.21919" lon="5.48452">
        <ele>280.2</ele>
        <time>2025-10-18T08:46:53Z</time>
      </trkpt>
      <trkpt lat="43.21919" lon="5.48452">
        <ele>280.2</ele>
        <time>2025-10-18T08:46:54Z</time>
      </trkpt>
      <trkpt lat="43.21919" lon="5.48452">
        <ele>280.2</ele>
        <time>2025-10-18T08:46:55Z</time>
      </trkpt>
      <trkpt lat="43.21919" lon="5.48452">
        <ele>280.2</ele>
        <time>2025-10-18T08:46:56Z</time>
      </trkpt>
      <trkpt lat="43.21919" lon="5.48452">
        <ele>280.2</ele>
        <time>2025-10-18T08:46:57Z</time>
      </trkpt>
      <trkpt lat="43.21919" lon="5.48452">
        <ele>280.2</ele>
        <time>2025-10-18T08:46:58Z</time>
      </trkpt>
      <trkpt lat="43.21919" lon="5.48452">
        <ele>280.2</ele>
        <time>2025-10-18T08:46:59Z</time>
      </trkpt>
      <trkpt lat="43.21919" lon="5.48452">
        <ele>280.1</ele>
        <time>2025-10-18T08:47:00Z</time>
      </trkpt>
      <trkpt lat="43.21919" lon="5.48452">
        <ele>280.1</ele>
        <time>2025-10-18T08:47:01Z</time>
      </trkpt>
      <trkpt lat="43.21919" lon="5.48452">
        <ele>280</ele>
        <time>2025-10-18T08:47:02Z</time>
      </trkpt>
      <trkpt lat="43.21919" lon="5.48452">
        <ele>280.1</ele>
        <time>2025-10-18T08:47:03Z</time>
      </trkpt>
      <trkpt lat="43.21919" lon="5.48452">
        <ele>280.1</ele>
        <time>2025-10-18T08:47:04Z</time>
      </trkpt>
      <trkpt lat="43.21919" lon="5.48452">
        <ele>280.1</ele>
        <time>2025-10-18T08:47:05Z</time>
      </trkpt>
      <trkpt lat="43.21919" lon="5.48452">
        <ele>280</ele>
        <time>2025-10-18T08:47:06Z</time>
      </trkpt>
      <trkpt lat="43.21919" lon="5.48451">
        <ele>280</ele>
        <time>2025-10-18T08:47:07Z</time>
      </trkpt>
      <trkpt lat="43.21918" lon="5.48451">
        <ele>279.9</ele>
        <time>2025-10-18T08:47:08Z</time>
      </trkpt>
      <trkpt lat="43.21918" lon="5.48452">
        <ele>279.9</ele>
        <time>2025-10-18T08:47:09Z</time>
      </trkpt>
      <trkpt lat="43.21918" lon="5.48452">
        <ele>279.8</ele>
        <time>2025-10-18T08:47:10Z</time>
      </trkpt>
      <trkpt lat="43.21918" lon="5.48452">
        <ele>279.8</ele>
        <time>2025-10-18T08:47:11Z</time>
      </trkpt>
      <trkpt lat="43.21918" lon="5.48452">
        <ele>279.8</ele>
        <time>2025-10-18T08:47:12Z</time>
      </trkpt>
      <trkpt lat="43.21918" lon="5.48452">
        <ele>279.8</ele>
        <time>2025-10-18T08:47:13Z</time>
      </trkpt>
      <trkpt lat="43.21918" lon="5.48452">
        <ele>279.8</ele>
        <time>2025-10-18T08:47:14Z</time>
      </trkpt>
      <trkpt lat="43.21919" lon="5.48452">
        <ele>279.7</ele>
        <time>2025-10-18T08:47:15Z</time>
      </trkpt>
      <trkpt lat="43.21919" lon="5.48452">
        <ele>279.8</ele>
        <time>2025-10-18T08:47:16Z</time>
      </trkpt>
      <trkpt lat="43.21919" lon="5.48452">
        <ele>279.8</ele>
        <time>2025-10-18T08:47:17Z</time>
      </trkpt>
      <trkpt lat="43.21919" lon="5.48452">
        <ele>279.9</ele>
        <time>2025-10-18T08:47:18Z</time>
      </trkpt>
      <trkpt lat="43.21919" lon="5.48452">
        <ele>279.9</ele>
        <time>2025-10-18T08:47:19Z</time>
      </trkpt>
      <trkpt lat="43.21919" lon="5.48452">
        <ele>279.8</ele>
        <time>2025-10-18T08:47:20Z</time>
      </trkpt>
      <trkpt lat="43.21919" lon="5.48451">
        <ele>279.9</ele>
        <time>2025-10-18T08:47:21Z</time>
      </trkpt>
      <trkpt lat="43.21919" lon="5.48451">
        <ele>280</ele>
        <time>2025-10-18T08:47:22Z</time>
      </trkpt>
      <trkpt lat="43.21919" lon="5.48451">
        <ele>280.1</ele>
        <time>2025-10-18T08:47:23Z</time>
      </trkpt>
      <trkpt lat="43.21919" lon="5.48451">
        <ele>280.1</ele>
        <time>2025-10-18T08:47:24Z</time>
      </trkpt>
      <trkpt lat="43.21919" lon="5.4845">
        <ele>280.1</ele>
        <time>2025-10-18T08:47:25Z</time>
      </trkpt>
      <trkpt lat="43.21919" lon="5.4845">
        <ele>280</ele>
        <time>2025-10-18T08:47:26Z</time>
      </trkpt>
      <trkpt lat="43.2192" lon="5.4845">
        <ele>280</ele>
        <time>2025-10-18T08:47:27Z</time>
      </trkpt>
      <trkpt lat="43.2192" lon="5.48451">
        <ele>280</ele>
        <time>2025-10-18T08:47:28Z</time>
      </trkpt>
      <trkpt lat="43.2192" lon="5.48451">
        <ele>279.9</ele>
        <time>2025-10-18T08:47:29Z</time>
      </trkpt>
      <trkpt lat="43.2192" lon="5.48451">
        <ele>279.9</ele>
        <time>2025-10-18T08:47:30Z</time>
      </trkpt>
      <trkpt lat="43.2192" lon="5.48451">
        <ele>279.9</ele>
        <time>2025-10-18T08:47:31Z</time>
      </trkpt>
      <trkpt lat="43.2192" lon="5.48451">
        <ele>280</ele>
        <time>2025-10-18T08:47:32Z</time>
      </trkpt>
      <trkpt lat="43.2192" lon="5.48451">
        <ele>279.9</ele>
        <time>2025-10-18T08:47:33Z</time>
      </trkpt>
      <trkpt lat="43.2192" lon="5.48451">
        <ele>279.9</ele>
        <time>2025-10-18T08:47:34Z</time>
      </trkpt>
      <trkpt lat="43.2192" lon="5.48451">
        <ele>279.9</ele>
        <time>2025-10-18T08:47:35Z</time>
      </trkpt>
      <trkpt lat="43.2192" lon="5.48451">
        <ele>279.9</ele>
        <time>2025-10-18T08:47:36Z</time>
      </trkpt>
      <trkpt lat="43.2192" lon="5.48452">
        <ele>279.9</ele>
        <time>2025-10-18T08:47:37Z</time>
      </trkpt>
      <trkpt lat="43.2192" lon="5.48452">
        <ele>280</ele>
        <time>2025-10-18T08:47:38Z</time>
      </trkpt>
      <trkpt lat="43.21919" lon="5.48451">
        <ele>280</ele>
        <time>2025-10-18T08:47:39Z</time>
      </trkpt>
      <trkpt lat="43.21919" lon="5.48451">
        <ele>280</ele>
        <time>2025-10-18T08:47:40Z</time>
      </trkpt>
      <trkpt lat="43.21919" lon="5.48451">
        <ele>280.1</ele>
        <time>2025-10-18T08:47:41Z</time>
      </trkpt>
      <trkpt lat="43.2192" lon="5.48451">
        <ele>280.1</ele>
        <time>2025-10-18T08:47:42Z</time>
      </trkpt>
      <trkpt lat="43.2192" lon="5.48451">
        <ele>280.1</ele>
        <time>2025-10-18T08:47:43Z</time>
      </trkpt>
      <trkpt lat="43.2192" lon="5.48451">
        <ele>280.1</ele>
        <time>2025-10-18T08:47:44Z</time>
      </trkpt>
      <trkpt lat="43.21919" lon="5.48451">
        <ele>280.1</ele>
        <time>2025-10-18T08:47:45Z</time>
      </trkpt>
      <trkpt lat="43.21919" lon="5.48451">
        <ele>280.2</ele>
        <time>2025-10-18T08:47:46Z</time>
      </trkpt>
      <trkpt lat="43.2192" lon="5.48451">
        <ele>280.2</ele>
        <time>2025-10-18T08:47:47Z</time>
      </trkpt>
      <trkpt lat="43.2192" lon="5.48451">
        <ele>280.2</ele>
        <time>2025-10-18T08:47:48Z</time>
      </trkpt>
      <trkpt lat="43.2192" lon="5.48451">
        <ele>280.2</ele>
        <time>2025-10-18T08:47:49Z</time>
      </trkpt>
      <trkpt lat="43.21921" lon="5.48451">
        <ele>280.2</ele>
        <time>2025-10-18T08:47:50Z</time>
      </trkpt>
      <trkpt lat="43.21921" lon="5.48451">
        <ele>280.3</ele>
        <time>2025-10-18T08:47:51Z</time>
      </trkpt>
      <trkpt lat="43.21922" lon="5.48451">
        <ele>280.3</ele>
        <time>2025-10-18T08:47:52Z</time>
      </trkpt>
      <trkpt lat="43.21922" lon="5.48451">
        <ele>280.4</ele>
        <time>2025-10-18T08:47:53Z</time>
      </trkpt>
      <trkpt lat="43.21923" lon="5.48451">
        <ele>280.4</ele>
        <time>2025-10-18T08:47:54Z</time>
      </trkpt>
      <trkpt lat="43.21924" lon="5.48451">
        <ele>280.4</ele>
        <time>2025-10-18T08:47:55Z</time>
      </trkpt>
      <trkpt lat="43.21924" lon="5.48452">
        <ele>280.5</ele>
        <time>2025-10-18T08:47:56Z</time>
      </trkpt>
      <trkpt lat="43.21926" lon="5.48452">
        <ele>280.6</ele>
        <time>2025-10-18T08:47:57Z</time>
      </trkpt>
      <trkpt lat="43.21927" lon="5.48452">
        <ele>280.7</ele>
        <time>2025-10-18T08:47:58Z</time>
      </trkpt>
      <trkpt lat="43.21927" lon="5.48452">
        <ele>280.8</ele>
        <time>2025-10-18T08:47:59Z</time>
      </trkpt>
      <trkpt lat="43.21929" lon="5.48452">
        <ele>280.9</ele>
        <time>2025-10-18T08:48:00Z</time>
      </trkpt>
      <trkpt lat="43.21929" lon="5.48451">
        <ele>281</ele>
        <time>2025-10-18T08:48:01Z</time>
      </trkpt>
      <trkpt lat="43.2193" lon="5.48451">
        <ele>281.2</ele>
        <time>2025-10-18T08:48:02Z</time>
      </trkpt>
      <trkpt lat="43.21931" lon="5.48452">
        <ele>281.3</ele>
        <time>2025-10-18T08:48:03Z</time>
      </trkpt>
      <trkpt lat="43.21932" lon="5.48452">
        <ele>281.5</ele>
        <time>2025-10-18T08:48:04Z</time>
      </trkpt>
      <trkpt lat="43.21932" lon="5.48452">
        <ele>281.7</ele>
        <time>2025-10-18T08:48:05Z</time>
      </trkpt>
      <trkpt lat="43.21933" lon="5.48453">
        <ele>281.9</ele>
        <time>2025-10-18T08:48:06Z</time>
      </trkpt>
      <trkpt lat="43.21933" lon="5.48454">
        <ele>282.1</ele>
        <time>2025-10-18T08:48:07Z</time>
      </trkpt>
      <trkpt lat="43.21934" lon="5.48454">
        <ele>282.4</ele>
        <time>2025-10-18T08:48:08Z</time>
      </trkpt>
      <trkpt lat="43.21935" lon="5.48454">
        <ele>282.6</ele>
        <time>2025-10-18T08:48:09Z</time>
      </trkpt>
      <trkpt lat="43.21935" lon="5.48455">
        <ele>282.7</ele>
        <time>2025-10-18T08:48:10Z</time>
      </trkpt>
      <trkpt lat="43.21936" lon="5.48455">
        <ele>282.9</ele>
        <time>2025-10-18T08:48:11Z</time>
      </trkpt>
      <trkpt lat="43.21936" lon="5.48455">
        <ele>283</ele>
        <time>2025-10-18T08:48:12Z</time>
      </trkpt>
      <trkpt lat="43.21937" lon="5.48455">
        <ele>283.1</ele>
        <time>2025-10-18T08:48:13Z</time>
      </trkpt>
      <trkpt lat="43.21937" lon="5.48456">
        <ele>283.2</ele>
        <time>2025-10-18T08:48:14Z</time>
      </trkpt>
      <trkpt lat="43.21937" lon="5.48456">
        <ele>283.4</ele>
        <time>2025-10-18T08:48:15Z</time>
      </trkpt>
      <trkpt lat="43.21937" lon="5.48456">
        <ele>283.4</ele>
        <time>2025-10-18T08:48:16Z</time>
      </trkpt>
      <trkpt lat="43.21938" lon="5.48456">
        <ele>283.5</ele>
        <time>2025-10-18T08:48:17Z</time>
      </trkpt>
      <trkpt lat="43.21938" lon="5.48457">
        <ele>283.7</ele>
        <time>2025-10-18T08:48:18Z</time>
      </trkpt>
      <trkpt lat="43.21938" lon="5.48457">
        <ele>283.7</ele>
        <time>2025-10-18T08:48:19Z</time>
      </trkpt>
      <trkpt lat="43.21938" lon="5.48458">
        <ele>283.9</ele>
        <time>2025-10-18T08:48:20Z</time>
      </trkpt>
      <trkpt lat="43.21938" lon="5.48459">
        <ele>283.9</ele>
        <time>2025-10-18T08:48:21Z</time>
      </trkpt>
      <trkpt lat="43.21938" lon="5.48459">
        <ele>284.1</ele>
        <time>2025-10-18T08:48:22Z</time>
      </trkpt>
      <trkpt lat="43.21938" lon="5.48459">
        <ele>284.3</ele>
        <time>2025-10-18T08:48:23Z</time>
      </trkpt>
      <trkpt lat="43.21938" lon="5.48459">
        <ele>284.4</ele>
        <time>2025-10-18T08:48:24Z</time>
      </trkpt>
      <trkpt lat="43.21938" lon="5.48459">
        <ele>284.5</ele>
        <time>2025-10-18T08:48:25Z</time>
      </trkpt>
      <trkpt lat="43.21938" lon="5.48459">
        <ele>284.5</ele>
        <time>2025-10-18T08:48:26Z</time>
      </trkpt>
      <trkpt lat="43.21938" lon="5.4846">
        <ele>284.6</ele>
        <time>2025-10-18T08:48:27Z</time>
      </trkpt>
      <trkpt lat="43.21938" lon="5.4846">
        <ele>284.6</ele>
        <time>2025-10-18T08:48:28Z</time>
      </trkpt>
      <trkpt lat="43.21938" lon="5.4846">
        <ele>284.6</ele>
        <time>2025-10-18T08:48:29Z</time>
      </trkpt>
      <trkpt lat="43.21938" lon="5.4846">
        <ele>284.6</ele>
        <time>2025-10-18T08:48:30Z</time>
      </trkpt>
      <trkpt lat="43.21938" lon="5.4846">
        <ele>284.6</ele>
        <time>2025-10-18T08:48:31Z</time>
      </trkpt>
      <trkpt lat="43.21938" lon="5.4846">
        <ele>284.5</ele>
        <time>2025-10-18T08:48:32Z</time>
      </trkpt>
      <trkpt lat="43.21938" lon="5.4846">
        <ele>284.5</ele>
        <time>2025-10-18T08:48:33Z</time>
      </trkpt>
      <trkpt lat="43.21938" lon="5.4846">
        <ele>284.5</ele>
        <time>2025-10-18T08:48:34Z</time>
      </trkpt>
      <trkpt lat="43.21938" lon="5.4846">
        <ele>284.6</ele>
        <time>2025-10-18T08:48:35Z</time>
      </trkpt>
      <trkpt lat="43.21938" lon="5.4846">
        <ele>284.6</ele>
        <time>2025-10-18T08:48:36Z</time>
      </trkpt>
      <trkpt lat="43.21938" lon="5.4846">
        <ele>284.7</ele>
        <time>2025-10-18T08:48:37Z</time>
      </trkpt>
      <trkpt lat="43.21938" lon="5.4846">
        <ele>284.7</ele>
        <time>2025-10-18T08:48:38Z</time>
      </trkpt>
      <trkpt lat="43.21938" lon="5.4846">
        <ele>284.7</ele>
        <time>2025-10-18T08:48:39Z</time>
      </trkpt>
      <trkpt lat="43.21938" lon="5.4846">
        <ele>284.7</ele>
        <time>2025-10-18T08:48:40Z</time>
      </trkpt>
      <trkpt lat="43.21938" lon="5.4846">
        <ele>284.7</ele>
        <time>2025-10-18T08:48:41Z</time>
      </trkpt>
      <trkpt lat="43.21938" lon="5.4846">
        <ele>284.7</ele>
        <time>2025-10-18T08:48:42Z</time>
      </trkpt>
      <trkpt lat="43.21938" lon="5.4846">
        <ele>284.8</ele>
        <time>2025-10-18T08:48:43Z</time>
      </trkpt>
      <trkpt lat="43.21938" lon="5.4846">
        <ele>284.7</ele>
        <time>2025-10-18T08:48:44Z</time>
      </trkpt>
      <trkpt lat="43.21938" lon="5.4846">
        <ele>284.7</ele>
        <time>2025-10-18T08:48:45Z</time>
      </trkpt>
      <trkpt lat="43.21938" lon="5.4846">
        <ele>284.8</ele>
        <time>2025-10-18T08:48:46Z</time>
      </trkpt>
      <trkpt lat="43.21938" lon="5.4846">
        <ele>284.7</ele>
        <time>2025-10-18T08:48:47Z</time>
      </trkpt>
      <trkpt lat="43.21938" lon="5.4846">
        <ele>284.7</ele>
        <time>2025-10-18T08:48:48Z</time>
      </trkpt>
      <trkpt lat="43.21938" lon="5.4846">
        <ele>284.7</ele>
        <time>2025-10-18T08:48:49Z</time>
      </trkpt>
      <trkpt lat="43.21938" lon="5.4846">
        <ele>284.5</ele>
        <time>2025-10-18T08:48:50Z</time>
      </trkpt>
      <trkpt lat="43.21938" lon="5.4846">
        <ele>284.5</ele>
        <time>2025-10-18T08:48:51Z</time>
      </trkpt>
      <trkpt lat="43.21938" lon="5.4846">
        <ele>284.6</ele>
        <time>2025-10-18T08:48:52Z</time>
      </trkpt>
      <trkpt lat="43.21938" lon="5.4846">
        <ele>284.6</ele>
        <time>2025-10-18T08:48:53Z</time>
      </trkpt>
      <trkpt lat="43.21938" lon="5.4846">
        <ele>284.7</ele>
        <time>2025-10-18T08:48:54Z</time>
      </trkpt>
      <trkpt lat="43.21938" lon="5.48461">
        <ele>284.8</ele>
        <time>2025-10-18T08:48:55Z</time>
      </trkpt>
      <trkpt lat="43.21938" lon="5.48461">
        <ele>284.8</ele>
        <time>2025-10-18T08:48:56Z</time>
      </trkpt>
      <trkpt lat="43.21938" lon="5.48461">
        <ele>284.8</ele>
        <time>2025-10-18T08:48:57Z</time>
      </trkpt>
      <trkpt lat="43.21939" lon="5.48461">
        <ele>284.8</ele>
        <time>2025-10-18T08:48:58Z</time>
      </trkpt>
      <trkpt lat="43.21939" lon="5.48461">
        <ele>284.8</ele>
        <time>2025-10-18T08:48:59Z</time>
      </trkpt>
      <trkpt lat="43.21939" lon="5.48461">
        <ele>284.8</ele>
        <time>2025-10-18T08:49:00Z</time>
      </trkpt>
      <trkpt lat="43.21939" lon="5.48461">
        <ele>284.9</ele>
        <time>2025-10-18T08:49:01Z</time>
      </trkpt>
      <trkpt lat="43.21939" lon="5.48461">
        <ele>284.8</ele>
        <time>2025-10-18T08:49:02Z</time>
      </trkpt>
      <trkpt lat="43.21939" lon="5.48461">
        <ele>284.8</ele>
        <time>2025-10-18T08:49:03Z</time>
      </trkpt>
      <trkpt lat="43.21939" lon="5.48461">
        <ele>284.8</ele>
        <time>2025-10-18T08:49:04Z</time>
      </trkpt>
      <trkpt lat="43.21939" lon="5.48461">
        <ele>284.8</ele>
        <time>2025-10-18T08:49:05Z</time>
      </trkpt>
      <trkpt lat="43.21939" lon="5.48461">
        <ele>284.8</ele>
        <time>2025-10-18T08:49:06Z</time>
      </trkpt>
      <trkpt lat="43.21939" lon="5.48461">
        <ele>284.8</ele>
        <time>2025-10-18T08:49:07Z</time>
      </trkpt>
      <trkpt lat="43.21939" lon="5.48461">
        <ele>284.9</ele>
        <time>2025-10-18T08:49:08Z</time>
      </trkpt>
      <trkpt lat="43.21939" lon="5.48461">
        <ele>284.9</ele>
        <time>2025-10-18T08:49:09Z</time>
      </trkpt>
      <trkpt lat="43.21939" lon="5.48461">
        <ele>284.9</ele>
        <time>2025-10-18T08:49:10Z</time>
      </trkpt>
      <trkpt lat="43.21939" lon="5.48461">
        <ele>284.9</ele>
        <time>2025-10-18T08:49:11Z</time>
      </trkpt>
      <trkpt lat="43.21939" lon="5.48461">
        <ele>284.8</ele>
        <time>2025-10-18T08:49:12Z</time>
      </trkpt>
      <trkpt lat="43.21939" lon="5.48461">
        <ele>284.9</ele>
        <time>2025-10-18T08:49:13Z</time>
      </trkpt>
      <trkpt lat="43.21939" lon="5.48461">
        <ele>284.8</ele>
        <time>2025-10-18T08:49:14Z</time>
      </trkpt>
      <trkpt lat="43.21939" lon="5.48461">
        <ele>284.8</ele>
        <time>2025-10-18T08:49:15Z</time>
      </trkpt>
      <trkpt lat="43.21939" lon="5.48461">
        <ele>284.8</ele>
        <time>2025-10-18T08:49:16Z</time>
      </trkpt>
      <trkpt lat="43.21939" lon="5.48461">
        <ele>284.7</ele>
        <time>2025-10-18T08:49:17Z</time>
      </trkpt>
      <trkpt lat="43.21939" lon="5.48461">
        <ele>284.7</ele>
        <time>2025-10-18T08:49:18Z</time>
      </trkpt>
      <trkpt lat="43.21939" lon="5.48461">
        <ele>284.7</ele>
        <time>2025-10-18T08:49:19Z</time>
      </trkpt>
      <trkpt lat="43.21939" lon="5.48462">
        <ele>284.7</ele>
        <time>2025-10-18T08:49:20Z</time>
      </trkpt>
      <trkpt lat="43.21939" lon="5.48462">
        <ele>284.8</ele>
        <time>2025-10-18T08:49:21Z</time>
      </trkpt>
      <trkpt lat="43.21939" lon="5.48462">
        <ele>284.8</ele>
        <time>2025-10-18T08:49:22Z</time>
      </trkpt>
      <trkpt lat="43.21939" lon="5.48462">
        <ele>284.8</ele>
        <time>2025-10-18T08:49:23Z</time>
      </trkpt>
      <trkpt lat="43.21939" lon="5.48462">
        <ele>284.9</ele>
        <time>2025-10-18T08:49:24Z</time>
      </trkpt>
      <trkpt lat="43.21939" lon="5.48461">
        <ele>284.8</ele>
        <time>2025-10-18T08:49:25Z</time>
      </trkpt>
      <trkpt lat="43.21939" lon="5.48461">
        <ele>284.8</ele>
        <time>2025-10-18T08:49:26Z</time>
      </trkpt>
      <trkpt lat="43.21939" lon="5.48461">
        <ele>284.8</ele>
        <time>2025-10-18T08:49:27Z</time>
      </trkpt>
      <trkpt lat="43.21939" lon="5.48461">
        <ele>284.7</ele>
        <time>2025-10-18T08:49:28Z</time>
      </trkpt>
      <trkpt lat="43.21939" lon="5.48461">
        <ele>284.7</ele>
        <time>2025-10-18T08:49:29Z</time>
      </trkpt>
      <trkpt lat="43.21939" lon="5.48461">
        <ele>284.7</ele>
        <time>2025-10-18T08:49:30Z</time>
      </trkpt>
      <trkpt lat="43.21939" lon="5.48461">
        <ele>284.7</ele>
        <time>2025-10-18T08:49:31Z</time>
      </trkpt>
      <trkpt lat="43.21939" lon="5.48461">
        <ele>284.7</ele>
        <time>2025-10-18T08:49:32Z</time>
      </trkpt>
      <trkpt lat="43.21939" lon="5.48461">
        <ele>284.6</ele>
        <time>2025-10-18T08:49:33Z</time>
      </trkpt>
      <trkpt lat="43.21939" lon="5.48461">
        <ele>284.6</ele>
        <time>2025-10-18T08:49:34Z</time>
      </trkpt>
      <trkpt lat="43.21939" lon="5.48461">
        <ele>284.6</ele>
        <time>2025-10-18T08:49:35Z</time>
      </trkpt>
      <trkpt lat="43.21939" lon="5.48461">
        <ele>284.6</ele>
        <time>2025-10-18T08:49:36Z</time>
      </trkpt>
      <trkpt lat="43.21939" lon="5.48461">
        <ele>284.6</ele>
        <time>2025-10-18T08:49:37Z</time>
      </trkpt>
      <trkpt lat="43.21939" lon="5.48461">
        <ele>284.7</ele>
        <time>2025-10-18T08:49:38Z</time>
      </trkpt>
      <trkpt lat="43.21939" lon="5.48461">
        <ele>284.7</ele>
        <time>2025-10-18T08:49:39Z</time>
      </trkpt>
      <trkpt lat="43.21939" lon="5.48461">
        <ele>284.7</ele>
        <time>2025-10-18T08:49:40Z</time>
      </trkpt>
      <trkpt lat="43.21939" lon="5.48462">
        <ele>284.6</ele>
        <time>2025-10-18T08:49:41Z</time>
      </trkpt>
      <trkpt lat="43.21939" lon="5.48462">
        <ele>284.7</ele>
        <time>2025-10-18T08:49:42Z</time>
      </trkpt>
      <trkpt lat="43.21939" lon="5.48462">
        <ele>284.7</ele>
        <time>2025-10-18T08:49:43Z</time>
      </trkpt>
      <trkpt lat="43.21939" lon="5.48462">
        <ele>284.8</ele>
        <time>2025-10-18T08:49:44Z</time>
      </trkpt>
      <trkpt lat="43.21939" lon="5.48462">
        <ele>284.8</ele>
        <time>2025-10-18T08:49:45Z</time>
      </trkpt>
      <trkpt lat="43.21939" lon="5.48462">
        <ele>284.7</ele>
        <time>2025-10-18T08:49:46Z</time>
      </trkpt>
      <trkpt lat="43.21939" lon="5.48462">
        <ele>284.7</ele>
        <time>2025-10-18T08:49:47Z</time>
      </trkpt>
      <trkpt lat="43.21939" lon="5.48462">
        <ele>284.7</ele>
        <time>2025-10-18T08:49:48Z</time>
      </trkpt>
      <trkpt lat="43.21939" lon="5.48462">
        <ele>284.7</ele>
        <time>2025-10-18T08:49:49Z</time>
      </trkpt>
      <trkpt lat="43.21939" lon="5.48462">
        <ele>284.8</ele>
        <time>2025-10-18T08:49:50Z</time>
      </trkpt>
      <trkpt lat="43.21939" lon="5.48462">
        <ele>284.8</ele>
        <time>2025-10-18T08:49:51Z</time>
      </trkpt>
      <trkpt lat="43.21939" lon="5.48461">
        <ele>284.8</ele>
        <time>2025-10-18T08:49:52Z</time>
      </trkpt>
      <trkpt lat="43.21939" lon="5.48461">
        <ele>284.9</ele>
        <time>2025-10-18T08:49:53Z</time>
      </trkpt>
      <trkpt lat="43.21939" lon="5.48461">
        <ele>284.8</ele>
        <time>2025-10-18T08:49:54Z</time>
      </trkpt>
      <trkpt lat="43.21939" lon="5.48461">
        <ele>284.8</ele>
        <time>2025-10-18T08:49:55Z</time>
      </trkpt>
      <trkpt lat="43.21939" lon="5.48461">
        <ele>284.7</ele>
        <time>2025-10-18T08:49:56Z</time>
      </trkpt>
      <trkpt lat="43.21939" lon="5.48461">
        <ele>284.7</ele>
        <time>2025-10-18T08:49:57Z</time>
      </trkpt>
      <trkpt lat="43.21939" lon="5.48461">
        <ele>284.6</ele>
        <time>2025-10-18T08:49:58Z</time>
      </trkpt>
      <trkpt lat="43.21939" lon="5.48461">
        <ele>284.6</ele>
        <time>2025-10-18T08:49:59Z</time>
      </trkpt>
      <trkpt lat="43.21939" lon="5.48461">
        <ele>284.6</ele>
        <time>2025-10-18T08:50:00Z</time>
      </trkpt>
      <trkpt lat="43.21939" lon="5.48462">
        <ele>284.5</ele>
        <time>2025-10-18T08:50:01Z</time>
      </trkpt>
      <trkpt lat="43.21939" lon="5.48462">
        <ele>284.5</ele>
        <time>2025-10-18T08:50:02Z</time>
      </trkpt>
      <trkpt lat="43.21939" lon="5.48462">
        <ele>284.6</ele>
        <time>2025-10-18T08:50:03Z</time>
      </trkpt>
      <trkpt lat="43.21939" lon="5.48462">
        <ele>284.6</ele>
        <time>2025-10-18T08:50:04Z</time>
      </trkpt>
      <trkpt lat="43.21939" lon="5.48462">
        <ele>284.6</ele>
        <time>2025-10-18T08:50:05Z</time>
      </trkpt>
      <trkpt lat="43.21939" lon="5.48462">
        <ele>284.6</ele>
        <time>2025-10-18T08:50:06Z</time>
      </trkpt>
      <trkpt lat="43.21939" lon="5.48462">
        <ele>284.5</ele>
        <time>2025-10-18T08:50:07Z</time>
      </trkpt>
      <trkpt lat="43.21939" lon="5.48462">
        <ele>284.5</ele>
        <time>2025-10-18T08:50:08Z</time>
      </trkpt>
      <trkpt lat="43.21939" lon="5.48462">
        <ele>284.6</ele>
        <time>2025-10-18T08:50:09Z</time>
      </trkpt>
      <trkpt lat="43.21939" lon="5.48462">
        <ele>284.6</ele>
        <time>2025-10-18T08:50:10Z</time>
      </trkpt>
      <trkpt lat="43.21939" lon="5.48462">
        <ele>284.6</ele>
        <time>2025-10-18T08:50:11Z</time>
      </trkpt>
      <trkpt lat="43.21939" lon="5.48462">
        <ele>284.5</ele>
        <time>2025-10-18T08:50:12Z</time>
      </trkpt>
      <trkpt lat="43.21939" lon="5.48462">
        <ele>284.5</ele>
        <time>2025-10-18T08:50:13Z</time>
      </trkpt>
      <trkpt lat="43.21939" lon="5.48462">
        <ele>284.5</ele>
        <time>2025-10-18T08:50:14Z</time>
      </trkpt>
      <trkpt lat="43.21939" lon="5.48462">
        <ele>284.6</ele>
        <time>2025-10-18T08:50:15Z</time>
      </trkpt>
      <trkpt lat="43.2194" lon="5.48462">
        <ele>284.6</ele>
        <time>2025-10-18T08:50:16Z</time>
      </trkpt>
      <trkpt lat="43.2194" lon="5.48462">
        <ele>284.6</ele>
        <time>2025-10-18T08:50:17Z</time>
      </trkpt>
      <trkpt lat="43.2194" lon="5.48462">
        <ele>284.6</ele>
        <time>2025-10-18T08:50:18Z</time>
      </trkpt>
      <trkpt lat="43.2194" lon="5.48462">
        <ele>284.6</ele>
        <time>2025-10-18T08:50:19Z</time>
      </trkpt>
      <trkpt lat="43.2194" lon="5.48462">
        <ele>284.6</ele>
        <time>2025-10-18T08:50:20Z</time>
      </trkpt>
      <trkpt lat="43.2194" lon="5.48462">
        <ele>284.6</ele>
        <time>2025-10-18T08:50:21Z</time>
      </trkpt>
      <trkpt lat="43.2194" lon="5.48462">
        <ele>284.6</ele>
        <time>2025-10-18T08:50:22Z</time>
      </trkpt>
      <trkpt lat="43.2194" lon="5.48462">
        <ele>284.6</ele>
        <time>2025-10-18T08:50:23Z</time>
      </trkpt>
      <trkpt lat="43.2194" lon="5.48462">
        <ele>284.6</ele>
        <time>2025-10-18T08:50:24Z</time>
      </trkpt>
      <trkpt lat="43.2194" lon="5.48462">
        <ele>284.6</ele>
        <time>2025-10-18T08:50:25Z</time>
      </trkpt>
      <trkpt lat="43.2194" lon="5.48462">
        <ele>284.5</ele>
        <time>2025-10-18T08:50:26Z</time>
      </trkpt>
      <trkpt lat="43.2194" lon="5.48462">
        <ele>284.6</ele>
        <time>2025-10-18T08:50:27Z</time>
      </trkpt>
      <trkpt lat="43.2194" lon="5.48462">
        <ele>284.6</ele>
        <time>2025-10-18T08:50:28Z</time>
      </trkpt>
      <trkpt lat="43.2194" lon="5.48462">
        <ele>284.6</ele>
        <time>2025-10-18T08:50:29Z</time>
      </trkpt>
      <trkpt lat="43.2194" lon="5.48462">
        <ele>284.5</ele>
        <time>2025-10-18T08:50:30Z</time>
      </trkpt>
      <trkpt lat="43.2194" lon="5.48462">
        <ele>284.6</ele>
        <time>2025-10-18T08:50:31Z</time>
      </trkpt>
      <trkpt lat="43.2194" lon="5.48462">
        <ele>284.5</ele>
        <time>2025-10-18T08:50:32Z</time>
      </trkpt>
      <trkpt lat="43.2194" lon="5.48462">
        <ele>284.4</ele>
        <time>2025-10-18T08:50:33Z</time>
      </trkpt>
      <trkpt lat="43.2194" lon="5.48462">
        <ele>284.4</ele>
        <time>2025-10-18T08:50:34Z</time>
      </trkpt>
      <trkpt lat="43.2194" lon="5.48462">
        <ele>284.3</ele>
        <time>2025-10-18T08:50:35Z</time>
      </trkpt>
      <trkpt lat="43.2194" lon="5.48462">
        <ele>284.3</ele>
        <time>2025-10-18T08:50:36Z</time>
      </trkpt>
      <trkpt lat="43.2194" lon="5.48462">
        <ele>284.3</ele>
        <time>2025-10-18T08:50:37Z</time>
      </trkpt>
      <trkpt lat="43.2194" lon="5.48462">
        <ele>284.3</ele>
        <time>2025-10-18T08:50:38Z</time>
      </trkpt>
      <trkpt lat="43.2194" lon="5.48462">
        <ele>284.3</ele>
        <time>2025-10-18T08:50:39Z</time>
      </trkpt>
      <trkpt lat="43.2194" lon="5.48462">
        <ele>284.3</ele>
        <time>2025-10-18T08:50:40Z</time>
      </trkpt>
      <trkpt lat="43.2194" lon="5.48462">
        <ele>284.3</ele>
        <time>2025-10-18T08:50:41Z</time>
      </trkpt>
      <trkpt lat="43.2194" lon="5.48462">
        <ele>284.3</ele>
        <time>2025-10-18T08:50:42Z</time>
      </trkpt>
      <trkpt lat="43.2194" lon="5.48462">
        <ele>284.3</ele>
        <time>2025-10-18T08:50:43Z</time>
      </trkpt>
      <trkpt lat="43.2194" lon="5.48462">
        <ele>284.2</ele>
        <time>2025-10-18T08:50:44Z</time>
      </trkpt>
      <trkpt lat="43.2194" lon="5.48462">
        <ele>284.2</ele>
        <time>2025-10-18T08:50:45Z</time>
      </trkpt>
      <trkpt lat="43.2194" lon="5.48462">
        <ele>284.1</ele>
        <time>2025-10-18T08:50:46Z</time>
      </trkpt>
      <trkpt lat="43.2194" lon="5.48462">
        <ele>284</ele>
        <time>2025-10-18T08:50:47Z</time>
      </trkpt>
      <trkpt lat="43.2194" lon="5.48462">
        <ele>284.1</ele>
        <time>2025-10-18T08:50:48Z</time>
      </trkpt>
      <trkpt lat="43.2194" lon="5.48461">
        <ele>284.1</ele>
        <time>2025-10-18T08:50:49Z</time>
      </trkpt>
      <trkpt lat="43.2194" lon="5.48461">
        <ele>284.1</ele>
        <time>2025-10-18T08:50:50Z</time>
      </trkpt>
      <trkpt lat="43.2194" lon="5.48461">
        <ele>284.1</ele>
        <time>2025-10-18T08:50:51Z</time>
      </trkpt>
      <trkpt lat="43.2194" lon="5.48461">
        <ele>284.1</ele>
        <time>2025-10-18T08:50:52Z</time>
      </trkpt>
      <trkpt lat="43.2194" lon="5.48461">
        <ele>284.1</ele>
        <time>2025-10-18T08:50:53Z</time>
      </trkpt>
      <trkpt lat="43.2194" lon="5.48461">
        <ele>284.1</ele>
        <time>2025-10-18T08:50:54Z</time>
      </trkpt>
      <trkpt lat="43.21939" lon="5.48461">
        <ele>284.1</ele>
        <time>2025-10-18T08:50:55Z</time>
      </trkpt>
      <trkpt lat="43.21939" lon="5.48461">
        <ele>284.1</ele>
        <time>2025-10-18T08:50:56Z</time>
      </trkpt>
      <trkpt lat="43.21939" lon="5.48461">
        <ele>284.1</ele>
        <time>2025-10-18T08:50:57Z</time>
      </trkpt>
      <trkpt lat="43.21939" lon="5.48461">
        <ele>284.1</ele>
        <time>2025-10-18T08:50:58Z</time>
      </trkpt>
      <trkpt lat="43.21939" lon="5.48461">
        <ele>284.1</ele>
        <time>2025-10-18T08:50:59Z</time>
      </trkpt>
      <trkpt lat="43.21939" lon="5.48461">
        <ele>284.1</ele>
        <time>2025-10-18T08:51:00Z</time>
      </trkpt>
      <trkpt lat="43.21939" lon="5.48461">
        <ele>284.1</ele>
        <time>2025-10-18T08:51:01Z</time>
      </trkpt>
      <trkpt lat="43.21939" lon="5.48461">
        <ele>284.1</ele>
        <time>2025-10-18T08:51:02Z</time>
      </trkpt>
      <trkpt lat="43.21939" lon="5.48461">
        <ele>284.1</ele>
        <time>2025-10-18T08:51:03Z</time>
      </trkpt>
      <trkpt lat="43.21939" lon="5.48461">
        <ele>284.2</ele>
        <time>2025-10-18T08:51:04Z</time>
      </trkpt>
      <trkpt lat="43.21939" lon="5.48461">
        <ele>284.3</ele>
        <time>2025-10-18T08:51:05Z</time>
      </trkpt>
      <trkpt lat="43.21939" lon="5.48461">
        <ele>284.3</ele>
        <time>2025-10-18T08:51:06Z</time>
      </trkpt>
      <trkpt lat="43.21939" lon="5.48461">
        <ele>284.3</ele>
        <time>2025-10-18T08:51:07Z</time>
      </trkpt>
      <trkpt lat="43.21939" lon="5.48461">
        <ele>284.3</ele>
        <time>2025-10-18T08:51:08Z</time>
      </trkpt>
      <trkpt lat="43.21939" lon="5.48461">
        <ele>284.3</ele>
        <time>2025-10-18T08:51:09Z</time>
      </trkpt>
      <trkpt lat="43.21939" lon="5.48461">
        <ele>284.3</ele>
        <time>2025-10-18T08:51:10Z</time>
      </trkpt>
      <trkpt lat="43.21939" lon="5.48461">
        <ele>284.3</ele>
        <time>2025-10-18T08:51:11Z</time>
      </trkpt>
      <trkpt lat="43.21939" lon="5.48461">
        <ele>284.2</ele>
        <time>2025-10-18T08:51:12Z</time>
      </trkpt>
      <trkpt lat="43.21939" lon="5.4846">
        <ele>284.2</ele>
        <time>2025-10-18T08:51:13Z</time>
      </trkpt>
      <trkpt lat="43.21939" lon="5.4846">
        <ele>284.1</ele>
        <time>2025-10-18T08:51:14Z</time>
      </trkpt>
      <trkpt lat="43.21939" lon="5.4846">
        <ele>284.1</ele>
        <time>2025-10-18T08:51:15Z</time>
      </trkpt>
      <trkpt lat="43.21939" lon="5.48461">
        <ele>284.1</ele>
        <time>2025-10-18T08:51:16Z</time>
      </trkpt>
      <trkpt lat="43.21939" lon="5.48461">
        <ele>284.1</ele>
        <time>2025-10-18T08:51:17Z</time>
      </trkpt>
      <trkpt lat="43.21939" lon="5.48461">
        <ele>284.2</ele>
        <time>2025-10-18T08:51:18Z</time>
      </trkpt>
      <trkpt lat="43.21939" lon="5.48461">
        <ele>284.2</ele>
        <time>2025-10-18T08:51:19Z</time>
      </trkpt>
      <trkpt lat="43.21939" lon="5.48461">
        <ele>284.2</ele>
        <time>2025-10-18T08:51:20Z</time>
      </trkpt>
      <trkpt lat="43.21939" lon="5.48461">
        <ele>284.3</ele>
        <time>2025-10-18T08:51:21Z</time>
      </trkpt>
      <trkpt lat="43.21939" lon="5.48461">
        <ele>284.2</ele>
        <time>2025-10-18T08:51:22Z</time>
      </trkpt>
      <trkpt lat="43.21939" lon="5.48461">
        <ele>284.2</ele>
        <time>2025-10-18T08:51:23Z</time>
      </trkpt>
      <trkpt lat="43.21939" lon="5.48461">
        <ele>284.3</ele>
        <time>2025-10-18T08:51:24Z</time>
      </trkpt>
      <trkpt lat="43.21939" lon="5.48461">
        <ele>284.3</ele>
        <time>2025-10-18T08:51:25Z</time>
      </trkpt>
      <trkpt lat="43.2194" lon="5.48461">
        <ele>284.5</ele>
        <time>2025-10-18T08:51:26Z</time>
      </trkpt>
      <trkpt lat="43.21941" lon="5.48461">
        <ele>284.5</ele>
        <time>2025-10-18T08:51:27Z</time>
      </trkpt>
      <trkpt lat="43.21942" lon="5.48461">
        <ele>284.6</ele>
        <time>2025-10-18T08:51:28Z</time>
      </trkpt>
      <trkpt lat="43.21942" lon="5.4846">
        <ele>284.6</ele>
        <time>2025-10-18T08:51:29Z</time>
      </trkpt>
      <trkpt lat="43.21943" lon="5.48459">
        <ele>284.5</ele>
        <time>2025-10-18T08:51:30Z</time>
      </trkpt>
      <trkpt lat="43.21943" lon="5.48459">
        <ele>284.5</ele>
        <time>2025-10-18T08:51:31Z</time>
      </trkpt>
      <trkpt lat="43.21944" lon="5.48459">
        <ele>284.4</ele>
        <time>2025-10-18T08:51:32Z</time>
      </trkpt>
      <trkpt lat="43.21944" lon="5.48458">
        <ele>284.3</ele>
        <time>2025-10-18T08:51:33Z</time>
      </trkpt>
      <trkpt lat="43.21944" lon="5.48458">
        <ele>284.3</ele>
        <time>2025-10-18T08:51:34Z</time>
      </trkpt>
      <trkpt lat="43.21944" lon="5.48457">
        <ele>284.3</ele>
        <time>2025-10-18T08:51:35Z</time>
      </trkpt>
      <trkpt lat="43.21944" lon="5.48457">
        <ele>284.2</ele>
        <time>2025-10-18T08:51:36Z</time>
      </trkpt>
      <trkpt lat="43.21944" lon="5.48456">
        <ele>284</ele>
        <time>2025-10-18T08:51:37Z</time>
      </trkpt>
      <trkpt lat="43.21944" lon="5.48456">
        <ele>283.8</ele>
        <time>2025-10-18T08:51:38Z</time>
      </trkpt>
      <trkpt lat="43.21944" lon="5.48456">
        <ele>283.6</ele>
        <time>2025-10-18T08:51:39Z</time>
      </trkpt>
      <trkpt lat="43.21944" lon="5.48456">
        <ele>283.5</ele>
        <time>2025-10-18T08:51:40Z</time>
      </trkpt>
      <trkpt lat="43.21945" lon="5.48456">
        <ele>283.4</ele>
        <time>2025-10-18T08:51:41Z</time>
      </trkpt>
      <trkpt lat="43.21945" lon="5.48456">
        <ele>283.3</ele>
        <time>2025-10-18T08:51:42Z</time>
      </trkpt>
      <trkpt lat="43.21945" lon="5.48457">
        <ele>283.3</ele>
        <time>2025-10-18T08:51:43Z</time>
      </trkpt>
      <trkpt lat="43.21945" lon="5.48457">
        <ele>283.3</ele>
        <time>2025-10-18T08:51:44Z</time>
      </trkpt>
      <trkpt lat="43.21945" lon="5.48457">
        <ele>283.3</ele>
        <time>2025-10-18T08:51:45Z</time>
      </trkpt>
      <trkpt lat="43.21945" lon="5.48457">
        <ele>283.2</ele>
        <time>2025-10-18T08:51:46Z</time>
      </trkpt>
      <trkpt lat="43.21945" lon="5.48457">
        <ele>283.2</ele>
        <time>2025-10-18T08:51:47Z</time>
      </trkpt>
      <trkpt lat="43.21945" lon="5.48456">
        <ele>283.2</ele>
        <time>2025-10-18T08:51:48Z</time>
      </trkpt>
      <trkpt lat="43.21944" lon="5.48456">
        <ele>283.1</ele>
        <time>2025-10-18T08:51:49Z</time>
      </trkpt>
      <trkpt lat="43.21944" lon="5.48456">
        <ele>283</ele>
        <time>2025-10-18T08:51:50Z</time>
      </trkpt>
      <trkpt lat="43.21944" lon="5.48456">
        <ele>282.8</ele>
        <time>2025-10-18T08:51:51Z</time>
      </trkpt>
      <trkpt lat="43.21943" lon="5.48457">
        <ele>282.6</ele>
        <time>2025-10-18T08:51:52Z</time>
      </trkpt>
      <trkpt lat="43.21943" lon="5.48456">
        <ele>282.5</ele>
        <time>2025-10-18T08:51:53Z</time>
      </trkpt>
      <trkpt lat="43.21943" lon="5.48456">
        <ele>282.4</ele>
        <time>2025-10-18T08:51:54Z</time>
      </trkpt>
      <trkpt lat="43.21943" lon="5.48455">
        <ele>282.3</ele>
        <time>2025-10-18T08:51:55Z</time>
      </trkpt>
      <trkpt lat="43.21943" lon="5.48455">
        <ele>282.3</ele>
        <time>2025-10-18T08:51:56Z</time>
      </trkpt>
      <trkpt lat="43.21943" lon="5.48455">
        <ele>282.2</ele>
        <time>2025-10-18T08:51:57Z</time>
      </trkpt>
      <trkpt lat="43.21943" lon="5.48455">
        <ele>282.2</ele>
        <time>2025-10-18T08:51:58Z</time>
      </trkpt>
      <trkpt lat="43.21943" lon="5.48455">
        <ele>282.2</ele>
        <time>2025-10-18T08:51:59Z</time>
      </trkpt>
      <trkpt lat="43.21943" lon="5.48455">
        <ele>282.1</ele>
        <time>2025-10-18T08:52:00Z</time>
      </trkpt>
      <trkpt lat="43.21943" lon="5.48455">
        <ele>282</ele>
        <time>2025-10-18T08:52:01Z</time>
      </trkpt>
      <trkpt lat="43.21943" lon="5.48455">
        <ele>282</ele>
        <time>2025-10-18T08:52:02Z</time>
      </trkpt>
      <trkpt lat="43.21943" lon="5.48455">
        <ele>282.1</ele>
        <time>2025-10-18T08:52:03Z</time>
      </trkpt>
      <trkpt lat="43.21943" lon="5.48454">
        <ele>282.1</ele>
        <time>2025-10-18T08:52:04Z</time>
      </trkpt>
      <trkpt lat="43.21943" lon="5.48454">
        <ele>282.1</ele>
        <time>2025-10-18T08:52:05Z</time>
      </trkpt>
      <trkpt lat="43.21943" lon="5.48454">
        <ele>282</ele>
        <time>2025-10-18T08:52:06Z</time>
      </trkpt>
      <trkpt lat="43.21943" lon="5.48454">
        <ele>282</ele>
        <time>2025-10-18T08:52:07Z</time>
      </trkpt>
      <trkpt lat="43.21943" lon="5.48454">
        <ele>282</ele>
        <time>2025-10-18T08:52:08Z</time>
      </trkpt>
      <trkpt lat="43.21943" lon="5.48454">
        <ele>281.9</ele>
        <time>2025-10-18T08:52:09Z</time>
      </trkpt>
      <trkpt lat="43.21943" lon="5.48454">
        <ele>281.9</ele>
        <time>2025-10-18T08:52:10Z</time>
      </trkpt>
      <trkpt lat="43.21943" lon="5.48454">
        <ele>282</ele>
        <time>2025-10-18T08:52:11Z</time>
      </trkpt>
      <trkpt lat="43.21943" lon="5.48454">
        <ele>282.1</ele>
        <time>2025-10-18T08:52:12Z</time>
      </trkpt>
      <trkpt lat="43.21943" lon="5.48454">
        <ele>282.1</ele>
        <time>2025-10-18T08:52:13Z</time>
      </trkpt>
      <trkpt lat="43.21942" lon="5.48454">
        <ele>282.1</ele>
        <time>2025-10-18T08:52:14Z</time>
      </trkpt>
      <trkpt lat="43.21942" lon="5.48454">
        <ele>282.1</ele>
        <time>2025-10-18T08:52:15Z</time>
      </trkpt>
      <trkpt lat="43.21942" lon="5.48454">
        <ele>282.1</ele>
        <time>2025-10-18T08:52:16Z</time>
      </trkpt>
      <trkpt lat="43.21942" lon="5.48454">
        <ele>282.1</ele>
        <time>2025-10-18T08:52:17Z</time>
      </trkpt>
      <trkpt lat="43.21943" lon="5.48454">
        <ele>282.1</ele>
        <time>2025-10-18T08:52:18Z</time>
      </trkpt>
      <trkpt lat="43.21943" lon="5.48454">
        <ele>282</ele>
        <time>2025-10-18T08:52:19Z</time>
      </trkpt>
      <trkpt lat="43.21943" lon="5.48454">
        <ele>282.1</ele>
        <time>2025-10-18T08:52:20Z</time>
      </trkpt>
      <trkpt lat="43.21943" lon="5.48454">
        <ele>282.2</ele>
        <time>2025-10-18T08:52:21Z</time>
      </trkpt>
      <trkpt lat="43.21943" lon="5.48454">
        <ele>282.2</ele>
        <time>2025-10-18T08:52:22Z</time>
      </trkpt>
      <trkpt lat="43.21943" lon="5.48454">
        <ele>282.3</ele>
        <time>2025-10-18T08:52:23Z</time>
      </trkpt>
      <trkpt lat="43.21943" lon="5.48454">
        <ele>282.3</ele>
        <time>2025-10-18T08:52:24Z</time>
      </trkpt>
      <trkpt lat="43.21943" lon="5.48454">
        <ele>282.3</ele>
        <time>2025-10-18T08:52:25Z</time>
      </trkpt>
      <trkpt lat="43.21944" lon="5.48454">
        <ele>282.2</ele>
        <time>2025-10-18T08:52:26Z</time>
      </trkpt>
      <trkpt lat="43.21944" lon="5.48455">
        <ele>282.2</ele>
        <time>2025-10-18T08:52:27Z</time>
      </trkpt>
      <trkpt lat="43.21944" lon="5.48455">
        <ele>282.2</ele>
        <time>2025-10-18T08:52:28Z</time>
      </trkpt>
      <trkpt lat="43.21944" lon="5.48455">
        <ele>282.2</ele>
        <time>2025-10-18T08:52:29Z</time>
      </trkpt>
      <trkpt lat="43.21944" lon="5.48455">
        <ele>282.2</ele>
        <time>2025-10-18T08:52:30Z</time>
      </trkpt>
      <trkpt lat="43.21944" lon="5.48455">
        <ele>282.2</ele>
        <time>2025-10-18T08:52:31Z</time>
      </trkpt>
      <trkpt lat="43.21944" lon="5.48455">
        <ele>282.2</ele>
        <time>2025-10-18T08:52:32Z</time>
      </trkpt>
      <trkpt lat="43.21944" lon="5.48455">
        <ele>282.2</ele>
        <time>2025-10-18T08:52:33Z</time>
      </trkpt>
      <trkpt lat="43.21944" lon="5.48455">
        <ele>282.2</ele>
        <time>2025-10-18T08:52:34Z</time>
      </trkpt>
      <trkpt lat="43.21944" lon="5.48455">
        <ele>282</ele>
        <time>2025-10-18T08:52:35Z</time>
      </trkpt>
      <trkpt lat="43.21944" lon="5.48455">
        <ele>282</ele>
        <time>2025-10-18T08:52:36Z</time>
      </trkpt>
      <trkpt lat="43.21944" lon="5.48455">
        <ele>281.9</ele>
        <time>2025-10-18T08:52:37Z</time>
      </trkpt>
      <trkpt lat="43.21944" lon="5.48455">
        <ele>281.8</ele>
        <time>2025-10-18T08:52:38Z</time>
      </trkpt>
      <trkpt lat="43.21944" lon="5.48455">
        <ele>281.8</ele>
        <time>2025-10-18T08:52:39Z</time>
      </trkpt>
      <trkpt lat="43.21944" lon="5.48455">
        <ele>281.7</ele>
        <time>2025-10-18T08:52:40Z</time>
      </trkpt>
      <trkpt lat="43.21944" lon="5.48455">
        <ele>281.8</ele>
        <time>2025-10-18T08:52:41Z</time>
      </trkpt>
      <trkpt lat="43.21944" lon="5.48455">
        <ele>281.9</ele>
        <time>2025-10-18T08:52:42Z</time>
      </trkpt>
      <trkpt lat="43.21944" lon="5.48455">
        <ele>281.9</ele>
        <time>2025-10-18T08:52:43Z</time>
      </trkpt>
      <trkpt lat="43.21944" lon="5.48455">
        <ele>281.9</ele>
        <time>2025-10-18T08:52:44Z</time>
      </trkpt>
      <trkpt lat="43.21944" lon="5.48455">
        <ele>281.8</ele>
        <time>2025-10-18T08:52:45Z</time>
      </trkpt>
      <trkpt lat="43.21943" lon="5.48455">
        <ele>281.9</ele>
        <time>2025-10-18T08:52:46Z</time>
      </trkpt>
      <trkpt lat="43.21943" lon="5.48455">
        <ele>281.9</ele>
        <time>2025-10-18T08:52:47Z</time>
      </trkpt>
      <trkpt lat="43.21943" lon="5.48455">
        <ele>282</ele>
        <time>2025-10-18T08:52:48Z</time>
      </trkpt>
      <trkpt lat="43.21943" lon="5.48455">
        <ele>282</ele>
        <time>2025-10-18T08:52:49Z</time>
      </trkpt>
      <trkpt lat="43.21943" lon="5.48455">
        <ele>282</ele>
        <time>2025-10-18T08:52:50Z</time>
      </trkpt>
      <trkpt lat="43.21943" lon="5.48455">
        <ele>282</ele>
        <time>2025-10-18T08:52:51Z</time>
      </trkpt>
      <trkpt lat="43.21943" lon="5.48455">
        <ele>282</ele>
        <time>2025-10-18T08:52:52Z</time>
      </trkpt>
      <trkpt lat="43.21942" lon="5.48455">
        <ele>281.9</ele>
        <time>2025-10-18T08:52:53Z</time>
      </trkpt>
      <trkpt lat="43.21942" lon="5.48455">
        <ele>281.9</ele>
        <time>2025-10-18T08:52:54Z</time>
      </trkpt>
      <trkpt lat="43.21943" lon="5.48455">
        <ele>281.9</ele>
        <time>2025-10-18T08:52:55Z</time>
      </trkpt>
      <trkpt lat="43.21943" lon="5.48455">
        <ele>282</ele>
        <time>2025-10-18T08:52:56Z</time>
      </trkpt>
      <trkpt lat="43.21943" lon="5.48455">
        <ele>282.1</ele>
        <time>2025-10-18T08:52:57Z</time>
      </trkpt>
      <trkpt lat="43.21943" lon="5.48455">
        <ele>282.2</ele>
        <time>2025-10-18T08:52:58Z</time>
      </trkpt>
      <trkpt lat="43.21943" lon="5.48455">
        <ele>282.2</ele>
        <time>2025-10-18T08:52:59Z</time>
      </trkpt>
      <trkpt lat="43.21943" lon="5.48455">
        <ele>282.3</ele>
        <time>2025-10-18T08:53:00Z</time>
      </trkpt>
      <trkpt lat="43.21943" lon="5.48455">
        <ele>282.3</ele>
        <time>2025-10-18T08:53:01Z</time>
      </trkpt>
      <trkpt lat="43.21943" lon="5.48455">
        <ele>282.3</ele>
        <time>2025-10-18T08:53:02Z</time>
      </trkpt>
      <trkpt lat="43.21943" lon="5.48455">
        <ele>282.3</ele>
        <time>2025-10-18T08:53:03Z</time>
      </trkpt>
      <trkpt lat="43.21943" lon="5.48455">
        <ele>282.3</ele>
        <time>2025-10-18T08:53:04Z</time>
      </trkpt>
      <trkpt lat="43.21943" lon="5.48455">
        <ele>282.2</ele>
        <time>2025-10-18T08:53:05Z</time>
      </trkpt>
      <trkpt lat="43.21943" lon="5.48455">
        <ele>282.2</ele>
        <time>2025-10-18T08:53:06Z</time>
      </trkpt>
      <trkpt lat="43.21943" lon="5.48455">
        <ele>282.2</ele>
        <time>2025-10-18T08:53:07Z</time>
      </trkpt>
      <trkpt lat="43.21943" lon="5.48455">
        <ele>282.2</ele>
        <time>2025-10-18T08:53:08Z</time>
      </trkpt>
      <trkpt lat="43.21943" lon="5.48454">
        <ele>282.2</ele>
        <time>2025-10-18T08:53:09Z</time>
      </trkpt>
      <trkpt lat="43.21944" lon="5.48454">
        <ele>282.2</ele>
        <time>2025-10-18T08:53:10Z</time>
      </trkpt>
      <trkpt lat="43.21943" lon="5.48454">
        <ele>282.1</ele>
        <time>2025-10-18T08:53:11Z</time>
      </trkpt>
      <trkpt lat="43.21943" lon="5.48455">
        <ele>282.1</ele>
        <time>2025-10-18T08:53:12Z</time>
      </trkpt>
      <trkpt lat="43.21943" lon="5.48455">
        <ele>282.1</ele>
        <time>2025-10-18T08:53:13Z</time>
      </trkpt>
      <trkpt lat="43.21943" lon="5.48455">
        <ele>282.1</ele>
        <time>2025-10-18T08:53:14Z</time>
      </trkpt>
      <trkpt lat="43.21943" lon="5.48455">
        <ele>282.1</ele>
        <time>2025-10-18T08:53:15Z</time>
      </trkpt>
      <trkpt lat="43.21943" lon="5.48455">
        <ele>282.1</ele>
        <time>2025-10-18T08:53:16Z</time>
      </trkpt>
      <trkpt lat="43.21943" lon="5.48455">
        <ele>282.1</ele>
        <time>2025-10-18T08:53:17Z</time>
      </trkpt>
      <trkpt lat="43.21943" lon="5.48455">
        <ele>282.1</ele>
        <time>2025-10-18T08:53:18Z</time>
      </trkpt>
      <trkpt lat="43.21943" lon="5.48455">
        <ele>282.1</ele>
        <time>2025-10-18T08:53:19Z</time>
      </trkpt>
      <trkpt lat="43.21944" lon="5.48455">
        <ele>282.1</ele>
        <time>2025-10-18T08:53:20Z</time>
      </trkpt>
      <trkpt lat="43.21944" lon="5.48454">
        <ele>282.2</ele>
        <time>2025-10-18T08:53:21Z</time>
      </trkpt>
      <trkpt lat="43.21944" lon="5.48454">
        <ele>282.2</ele>
        <time>2025-10-18T08:53:22Z</time>
      </trkpt>
      <trkpt lat="43.21944" lon="5.48454">
        <ele>282.2</ele>
        <time>2025-10-18T08:53:23Z</time>
      </trkpt>
      <trkpt lat="43.21944" lon="5.48454">
        <ele>282.2</ele>
        <time>2025-10-18T08:53:24Z</time>
      </trkpt>
      <trkpt lat="43.21944" lon="5.48454">
        <ele>282.2</ele>
        <time>2025-10-18T08:53:25Z</time>
      </trkpt>
      <trkpt lat="43.21944" lon="5.48454">
        <ele>282.1</ele>
        <time>2025-10-18T08:53:26Z</time>
      </trkpt>
      <trkpt lat="43.21944" lon="5.48454">
        <ele>282.1</ele>
        <time>2025-10-18T08:53:27Z</time>
      </trkpt>
      <trkpt lat="43.21944" lon="5.48454">
        <ele>282.1</ele>
        <time>2025-10-18T08:53:28Z</time>
      </trkpt>
      <trkpt lat="43.21944" lon="5.48454">
        <ele>282.2</ele>
        <time>2025-10-18T08:53:29Z</time>
      </trkpt>
      <trkpt lat="43.21945" lon="5.48454">
        <ele>282.3</ele>
        <time>2025-10-18T08:53:30Z</time>
      </trkpt>
      <trkpt lat="43.21945" lon="5.48454">
        <ele>282.3</ele>
        <time>2025-10-18T08:53:31Z</time>
      </trkpt>
      <trkpt lat="43.21945" lon="5.48453">
        <ele>282.3</ele>
        <time>2025-10-18T08:53:32Z</time>
      </trkpt>
      <trkpt lat="43.21945" lon="5.48453">
        <ele>282.3</ele>
        <time>2025-10-18T08:53:33Z</time>
      </trkpt>
      <trkpt lat="43.21945" lon="5.48453">
        <ele>282.3</ele>
        <time>2025-10-18T08:53:34Z</time>
      </trkpt>
      <trkpt lat="43.21945" lon="5.48453">
        <ele>282.3</ele>
        <time>2025-10-18T08:53:35Z</time>
      </trkpt>
      <trkpt lat="43.21945" lon="5.48453">
        <ele>282.3</ele>
        <time>2025-10-18T08:53:36Z</time>
      </trkpt>
      <trkpt lat="43.21945" lon="5.48452">
        <ele>282.3</ele>
        <time>2025-10-18T08:53:37Z</time>
      </trkpt>
      <trkpt lat="43.21945" lon="5.48452">
        <ele>282.2</ele>
        <time>2025-10-18T08:53:38Z</time>
      </trkpt>
      <trkpt lat="43.21946" lon="5.48451">
        <ele>282.1</ele>
        <time>2025-10-18T08:53:39Z</time>
      </trkpt>
      <trkpt lat="43.21946" lon="5.48451">
        <ele>282.1</ele>
        <time>2025-10-18T08:53:40Z</time>
      </trkpt>
      <trkpt lat="43.21946" lon="5.48451">
        <ele>282.1</ele>
        <time>2025-10-18T08:53:41Z</time>
      </trkpt>
      <trkpt lat="43.21946" lon="5.4845">
        <ele>282</ele>
        <time>2025-10-18T08:53:42Z</time>
      </trkpt>
      <trkpt lat="43.21946" lon="5.4845">
        <ele>282.2</ele>
        <time>2025-10-18T08:53:43Z</time>
      </trkpt>
      <trkpt lat="43.21947" lon="5.4845">
        <ele>282.3</ele>
        <time>2025-10-18T08:53:44Z</time>
      </trkpt>
      <trkpt lat="43.21947" lon="5.4845">
        <ele>282.4</ele>
        <time>2025-10-18T08:53:45Z</time>
      </trkpt>
      <trkpt lat="43.21947" lon="5.4845">
        <ele>282.3</ele>
        <time>2025-10-18T08:53:46Z</time>
      </trkpt>
      <trkpt lat="43.21948" lon="5.48449">
        <ele>282.3</ele>
        <time>2025-10-18T08:53:47Z</time>
      </trkpt>
      <trkpt lat="43.21948" lon="5.48449">
        <ele>282.2</ele>
        <time>2025-10-18T08:53:48Z</time>
      </trkpt>
      <trkpt lat="43.21948" lon="5.48449">
        <ele>282.2</ele>
        <time>2025-10-18T08:53:49Z</time>
      </trkpt>
      <trkpt lat="43.21949" lon="5.48449">
        <ele>282.1</ele>
        <time>2025-10-18T08:53:50Z</time>
      </trkpt>
      <trkpt lat="43.21949" lon="5.48448">
        <ele>282.1</ele>
        <time>2025-10-18T08:53:51Z</time>
      </trkpt>
      <trkpt lat="43.2195" lon="5.48447">
        <ele>282</ele>
        <time>2025-10-18T08:53:52Z</time>
      </trkpt>
      <trkpt lat="43.21951" lon="5.48447">
        <ele>282.1</ele>
        <time>2025-10-18T08:53:53Z</time>
      </trkpt>
      <trkpt lat="43.21951" lon="5.48447">
        <ele>282.1</ele>
        <time>2025-10-18T08:53:54Z</time>
      </trkpt>
      <trkpt lat="43.21951" lon="5.48446">
        <ele>282.1</ele>
        <time>2025-10-18T08:53:55Z</time>
      </trkpt>
      <trkpt lat="43.21952" lon="5.48447">
        <ele>281.9</ele>
        <time>2025-10-18T08:53:56Z</time>
      </trkpt>
      <trkpt lat="43.21952" lon="5.48447">
        <ele>281.8</ele>
        <time>2025-10-18T08:53:57Z</time>
      </trkpt>
      <trkpt lat="43.21952" lon="5.48447">
        <ele>281.7</ele>
        <time>2025-10-18T08:53:58Z</time>
      </trkpt>
      <trkpt lat="43.21952" lon="5.48447">
        <ele>281.7</ele>
        <time>2025-10-18T08:53:59Z</time>
      </trkpt>
      <trkpt lat="43.21952" lon="5.48447">
        <ele>281.7</ele>
        <time>2025-10-18T08:54:00Z</time>
      </trkpt>
      <trkpt lat="43.21952" lon="5.48446">
        <ele>281.7</ele>
        <time>2025-10-18T08:54:01Z</time>
      </trkpt>
      <trkpt lat="43.21952" lon="5.48446">
        <ele>281.7</ele>
        <time>2025-10-18T08:54:02Z</time>
      </trkpt>
      <trkpt lat="43.21952" lon="5.48446">
        <ele>281.7</ele>
        <time>2025-10-18T08:54:03Z</time>
      </trkpt>
      <trkpt lat="43.21952" lon="5.48446">
        <ele>281.7</ele>
        <time>2025-10-18T08:54:04Z</time>
      </trkpt>
      <trkpt lat="43.21952" lon="5.48446">
        <ele>281.7</ele>
        <time>2025-10-18T08:54:05Z</time>
      </trkpt>
      <trkpt lat="43.21952" lon="5.48447">
        <ele>281.7</ele>
        <time>2025-10-18T08:54:06Z</time>
      </trkpt>
      <trkpt lat="43.21952" lon="5.48447">
        <ele>281.8</ele>
        <time>2025-10-18T08:54:07Z</time>
      </trkpt>
      <trkpt lat="43.21953" lon="5.48446">
        <ele>281.8</ele>
        <time>2025-10-18T08:54:08Z</time>
      </trkpt>
      <trkpt lat="43.21953" lon="5.48446">
        <ele>281.7</ele>
        <time>2025-10-18T08:54:09Z</time>
      </trkpt>
      <trkpt lat="43.21953" lon="5.48445">
        <ele>281.7</ele>
        <time>2025-10-18T08:54:10Z</time>
      </trkpt>
      <trkpt lat="43.21953" lon="5.48444">
        <ele>281.6</ele>
        <time>2025-10-18T08:54:11Z</time>
      </trkpt>
      <trkpt lat="43.21953" lon="5.48444">
        <ele>281.5</ele>
        <time>2025-10-18T08:54:12Z</time>
      </trkpt>
      <trkpt lat="43.21953" lon="5.48444">
        <ele>281.3</ele>
        <time>2025-10-18T08:54:13Z</time>
      </trkpt>
      <trkpt lat="43.21953" lon="5.48444">
        <ele>281.2</ele>
        <time>2025-10-18T08:54:14Z</time>
      </trkpt>
      <trkpt lat="43.21954" lon="5.48443">
        <ele>281.1</ele>
        <time>2025-10-18T08:54:15Z</time>
      </trkpt>
      <trkpt lat="43.21954" lon="5.48443">
        <ele>281</ele>
        <time>2025-10-18T08:54:16Z</time>
      </trkpt>
      <trkpt lat="43.21954" lon="5.48443">
        <ele>280.8</ele>
        <time>2025-10-18T08:54:17Z</time>
      </trkpt>
      <trkpt lat="43.21954" lon="5.48443">
        <ele>280.8</ele>
        <time>2025-10-18T08:54:18Z</time>
      </trkpt>
      <trkpt lat="43.21954" lon="5.48443">
        <ele>280.9</ele>
        <time>2025-10-18T08:54:19Z</time>
      </trkpt>
      <trkpt lat="43.21954" lon="5.48443">
        <ele>280.8</ele>
        <time>2025-10-18T08:54:20Z</time>
      </trkpt>
      <trkpt lat="43.21954" lon="5.48443">
        <ele>280.6</ele>
        <time>2025-10-18T08:54:21Z</time>
      </trkpt>
      <trkpt lat="43.21954" lon="5.48443">
        <ele>280.5</ele>
        <time>2025-10-18T08:54:22Z</time>
      </trkpt>
      <trkpt lat="43.21954" lon="5.48443">
        <ele>280.4</ele>
        <time>2025-10-18T08:54:23Z</time>
      </trkpt>
      <trkpt lat="43.21954" lon="5.48442">
        <ele>280.3</ele>
        <time>2025-10-18T08:54:24Z</time>
      </trkpt>
      <trkpt lat="43.21955" lon="5.48442">
        <ele>280.2</ele>
        <time>2025-10-18T08:54:25Z</time>
      </trkpt>
      <trkpt lat="43.21955" lon="5.48441">
        <ele>280.1</ele>
        <time>2025-10-18T08:54:26Z</time>
      </trkpt>
      <trkpt lat="43.21955" lon="5.48441">
        <ele>280</ele>
        <time>2025-10-18T08:54:27Z</time>
      </trkpt>
      <trkpt lat="43.21955" lon="5.48441">
        <ele>279.9</ele>
        <time>2025-10-18T08:54:28Z</time>
      </trkpt>
      <trkpt lat="43.21955" lon="5.48441">
        <ele>279.8</ele>
        <time>2025-10-18T08:54:29Z</time>
      </trkpt>
      <trkpt lat="43.21955" lon="5.4844">
        <ele>279.7</ele>
        <time>2025-10-18T08:54:30Z</time>
      </trkpt>
      <trkpt lat="43.21955" lon="5.4844">
        <ele>279.7</ele>
        <time>2025-10-18T08:54:31Z</time>
      </trkpt>
      <trkpt lat="43.21955" lon="5.4844">
        <ele>279.6</ele>
        <time>2025-10-18T08:54:32Z</time>
      </trkpt>
      <trkpt lat="43.21954" lon="5.4844">
        <ele>279.6</ele>
        <time>2025-10-18T08:54:33Z</time>
      </trkpt>
      <trkpt lat="43.21954" lon="5.48439">
        <ele>279.6</ele>
        <time>2025-10-18T08:54:34Z</time>
      </trkpt>
      <trkpt lat="43.21955" lon="5.48439">
        <ele>279.6</ele>
        <time>2025-10-18T08:54:35Z</time>
      </trkpt>
      <trkpt lat="43.21955" lon="5.48439">
        <ele>279.5</ele>
        <time>2025-10-18T08:54:36Z</time>
      </trkpt>
      <trkpt lat="43.21955" lon="5.48439">
        <ele>279.5</ele>
        <time>2025-10-18T08:54:37Z</time>
      </trkpt>
      <trkpt lat="43.21955" lon="5.48439">
        <ele>279.5</ele>
        <time>2025-10-18T08:54:38Z</time>
      </trkpt>
      <trkpt lat="43.21955" lon="5.48439">
        <ele>279.4</ele>
        <time>2025-10-18T08:54:39Z</time>
      </trkpt>
      <trkpt lat="43.21954" lon="5.48439">
        <ele>279.4</ele>
        <time>2025-10-18T08:54:40Z</time>
      </trkpt>
      <trkpt lat="43.21954" lon="5.48439">
        <ele>279.3</ele>
        <time>2025-10-18T08:54:41Z</time>
      </trkpt>
      <trkpt lat="43.21954" lon="5.48438">
        <ele>279.3</ele>
        <time>2025-10-18T08:54:42Z</time>
      </trkpt>
      <trkpt lat="43.21954" lon="5.48438">
        <ele>279.1</ele>
        <time>2025-10-18T08:54:43Z</time>
      </trkpt>
      <trkpt lat="43.21953" lon="5.48438">
        <ele>279</ele>
        <time>2025-10-18T08:54:44Z</time>
      </trkpt>
      <trkpt lat="43.21954" lon="5.48438">
        <ele>278.8</ele>
        <time>2025-10-18T08:54:45Z</time>
      </trkpt>
      <trkpt lat="43.21953" lon="5.48437">
        <ele>278.7</ele>
        <time>2025-10-18T08:54:46Z</time>
      </trkpt>
      <trkpt lat="43.21952" lon="5.48437">
        <ele>278.6</ele>
        <time>2025-10-18T08:54:47Z</time>
      </trkpt>
      <trkpt lat="43.21951" lon="5.48437">
        <ele>278.4</ele>
        <time>2025-10-18T08:54:48Z</time>
      </trkpt>
      <trkpt lat="43.21951" lon="5.48438">
        <ele>278.2</ele>
        <time>2025-10-18T08:54:49Z</time>
      </trkpt>
      <trkpt lat="43.21951" lon="5.48438">
        <ele>278.1</ele>
        <time>2025-10-18T08:54:50Z</time>
      </trkpt>
      <trkpt lat="43.21951" lon="5.48438">
        <ele>278</ele>
        <time>2025-10-18T08:54:51Z</time>
      </trkpt>
      <trkpt lat="43.21951" lon="5.48439">
        <ele>277.9</ele>
        <time>2025-10-18T08:54:52Z</time>
      </trkpt>
      <trkpt lat="43.21951" lon="5.48439">
        <ele>277.8</ele>
        <time>2025-10-18T08:54:53Z</time>
      </trkpt>
      <trkpt lat="43.21951" lon="5.48439">
        <ele>277.8</ele>
        <time>2025-10-18T08:54:54Z</time>
      </trkpt>
      <trkpt lat="43.21951" lon="5.48439">
        <ele>277.7</ele>
        <time>2025-10-18T08:54:55Z</time>
      </trkpt>
      <trkpt lat="43.2195" lon="5.48439">
        <ele>277.6</ele>
        <time>2025-10-18T08:54:56Z</time>
      </trkpt>
      <trkpt lat="43.21949" lon="5.4844">
        <ele>277.6</ele>
        <time>2025-10-18T08:54:57Z</time>
      </trkpt>
      <trkpt lat="43.21949" lon="5.48441">
        <ele>277.5</ele>
        <time>2025-10-18T08:54:58Z</time>
      </trkpt>
      <trkpt lat="43.21948" lon="5.48441">
        <ele>277.5</ele>
        <time>2025-10-18T08:54:59Z</time>
      </trkpt>
      <trkpt lat="43.21948" lon="5.48441">
        <ele>277.5</ele>
        <time>2025-10-18T08:55:00Z</time>
      </trkpt>
      <trkpt lat="43.21947" lon="5.48441">
        <ele>277.5</ele>
        <time>2025-10-18T08:55:01Z</time>
      </trkpt>
      <trkpt lat="43.21946" lon="5.48441">
        <ele>277.4</ele>
        <time>2025-10-18T08:55:02Z</time>
      </trkpt>
      <trkpt lat="43.21945" lon="5.48441">
        <ele>277.3</ele>
        <time>2025-10-18T08:55:03Z</time>
      </trkpt>
      <trkpt lat="43.21945" lon="5.48441">
        <ele>277.3</ele>
        <time>2025-10-18T08:55:04Z</time>
      </trkpt>
      <trkpt lat="43.21944" lon="5.48441">
        <ele>277.3</ele>
        <time>2025-10-18T08:55:05Z</time>
      </trkpt>
      <trkpt lat="43.21944" lon="5.48442">
        <ele>277.2</ele>
        <time>2025-10-18T08:55:06Z</time>
      </trkpt>
      <trkpt lat="43.21943" lon="5.48442">
        <ele>277.2</ele>
        <time>2025-10-18T08:55:07Z</time>
      </trkpt>
      <trkpt lat="43.21943" lon="5.48442">
        <ele>276.9</ele>
        <time>2025-10-18T08:55:08Z</time>
      </trkpt>
      <trkpt lat="43.21943" lon="5.48442">
        <ele>276.9</ele>
        <time>2025-10-18T08:55:09Z</time>
      </trkpt>
      <trkpt lat="43.21942" lon="5.48442">
        <ele>276.9</ele>
        <time>2025-10-18T08:55:10Z</time>
      </trkpt>
      <trkpt lat="43.21942" lon="5.48442">
        <ele>276.8</ele>
        <time>2025-10-18T08:55:11Z</time>
      </trkpt>
      <trkpt lat="43.21942" lon="5.48442">
        <ele>276.7</ele>
        <time>2025-10-18T08:55:12Z</time>
      </trkpt>
      <trkpt lat="43.21941" lon="5.48442">
        <ele>276.5</ele>
        <time>2025-10-18T08:55:13Z</time>
      </trkpt>
      <trkpt lat="43.21941" lon="5.48442">
        <ele>276.5</ele>
        <time>2025-10-18T08:55:14Z</time>
      </trkpt>
      <trkpt lat="43.21941" lon="5.48442">
        <ele>276.3</ele>
        <time>2025-10-18T08:55:15Z</time>
      </trkpt>
      <trkpt lat="43.21941" lon="5.48442">
        <ele>276.2</ele>
        <time>2025-10-18T08:55:16Z</time>
      </trkpt>
      <trkpt lat="43.21941" lon="5.48442">
        <ele>276.1</ele>
        <time>2025-10-18T08:55:17Z</time>
      </trkpt>
      <trkpt lat="43.21941" lon="5.48441">
        <ele>276</ele>
        <time>2025-10-18T08:55:18Z</time>
      </trkpt>
      <trkpt lat="43.21941" lon="5.48441">
        <ele>275.9</ele>
        <time>2025-10-18T08:55:19Z</time>
      </trkpt>
      <trkpt lat="43.21941" lon="5.48441">
        <ele>275.9</ele>
        <time>2025-10-18T08:55:20Z</time>
      </trkpt>
      <trkpt lat="43.2194" lon="5.4844">
        <ele>275.9</ele>
        <time>2025-10-18T08:55:21Z</time>
      </trkpt>
      <trkpt lat="43.21941" lon="5.4844">
        <ele>275.8</ele>
        <time>2025-10-18T08:55:22Z</time>
      </trkpt>
      <trkpt lat="43.21941" lon="5.48439">
        <ele>275.7</ele>
        <time>2025-10-18T08:55:23Z</time>
      </trkpt>
      <trkpt lat="43.21941" lon="5.48438">
        <ele>275.6</ele>
        <time>2025-10-18T08:55:24Z</time>
      </trkpt>
      <trkpt lat="43.21941" lon="5.48437">
        <ele>275.5</ele>
        <time>2025-10-18T08:55:25Z</time>
      </trkpt>
      <trkpt lat="43.21941" lon="5.48437">
        <ele>275.4</ele>
        <time>2025-10-18T08:55:26Z</time>
      </trkpt>
      <trkpt lat="43.21941" lon="5.48436">
        <ele>275.4</ele>
        <time>2025-10-18T08:55:27Z</time>
      </trkpt>
      <trkpt lat="43.21941" lon="5.48436">
        <ele>275.2</ele>
        <time>2025-10-18T08:55:28Z</time>
      </trkpt>
      <trkpt lat="43.2194" lon="5.48435">
        <ele>275.1</ele>
        <time>2025-10-18T08:55:29Z</time>
      </trkpt>
      <trkpt lat="43.2194" lon="5.48435">
        <ele>275</ele>
        <time>2025-10-18T08:55:30Z</time>
      </trkpt>
      <trkpt lat="43.2194" lon="5.48435">
        <ele>274.9</ele>
        <time>2025-10-18T08:55:31Z</time>
      </trkpt>
      <trkpt lat="43.2194" lon="5.48435">
        <ele>274.8</ele>
        <time>2025-10-18T08:55:32Z</time>
      </trkpt>
      <trkpt lat="43.2194" lon="5.48435">
        <ele>274.8</ele>
        <time>2025-10-18T08:55:33Z</time>
      </trkpt>
      <trkpt lat="43.2194" lon="5.48435">
        <ele>274.7</ele>
        <time>2025-10-18T08:55:34Z</time>
      </trkpt>
      <trkpt lat="43.21941" lon="5.48435">
        <ele>274.7</ele>
        <time>2025-10-18T08:55:35Z</time>
      </trkpt>
      <trkpt lat="43.21941" lon="5.48434">
        <ele>274.7</ele>
        <time>2025-10-18T08:55:36Z</time>
      </trkpt>
      <trkpt lat="43.21942" lon="5.48434">
        <ele>274.7</ele>
        <time>2025-10-18T08:55:37Z</time>
      </trkpt>
      <trkpt lat="43.21942" lon="5.48434">
        <ele>274.7</ele>
        <time>2025-10-18T08:55:38Z</time>
      </trkpt>
      <trkpt lat="43.21942" lon="5.48434">
        <ele>274.6</ele>
        <time>2025-10-18T08:55:39Z</time>
      </trkpt>
      <trkpt lat="43.21943" lon="5.48433">
        <ele>274.6</ele>
        <time>2025-10-18T08:55:40Z</time>
      </trkpt>
      <trkpt lat="43.21943" lon="5.48432">
        <ele>274.4</ele>
        <time>2025-10-18T08:55:41Z</time>
      </trkpt>
      <trkpt lat="43.21943" lon="5.48432">
        <ele>274.2</ele>
        <time>2025-10-18T08:55:42Z</time>
      </trkpt>
      <trkpt lat="43.21944" lon="5.48432">
        <ele>274.1</ele>
        <time>2025-10-18T08:55:43Z</time>
      </trkpt>
      <trkpt lat="43.21944" lon="5.48431">
        <ele>273.9</ele>
        <time>2025-10-18T08:55:44Z</time>
      </trkpt>
      <trkpt lat="43.21944" lon="5.48431">
        <ele>273.8</ele>
        <time>2025-10-18T08:55:45Z</time>
      </trkpt>
      <trkpt lat="43.21944" lon="5.48431">
        <ele>273.8</ele>
        <time>2025-10-18T08:55:46Z</time>
      </trkpt>
      <trkpt lat="43.21944" lon="5.48431">
        <ele>273.7</ele>
        <time>2025-10-18T08:55:47Z</time>
      </trkpt>
      <trkpt lat="43.21944" lon="5.48431">
        <ele>273.7</ele>
        <time>2025-10-18T08:55:48Z</time>
      </trkpt>
      <trkpt lat="43.21945" lon="5.4843">
        <ele>273.6</ele>
        <time>2025-10-18T08:55:49Z</time>
      </trkpt>
      <trkpt lat="43.21945" lon="5.4843">
        <ele>273.5</ele>
        <time>2025-10-18T08:55:50Z</time>
      </trkpt>
      <trkpt lat="43.21945" lon="5.48431">
        <ele>273.4</ele>
        <time>2025-10-18T08:55:51Z</time>
      </trkpt>
      <trkpt lat="43.21945" lon="5.4843">
        <ele>273.4</ele>
        <time>2025-10-18T08:55:52Z</time>
      </trkpt>
      <trkpt lat="43.21945" lon="5.4843">
        <ele>273.3</ele>
        <time>2025-10-18T08:55:53Z</time>
      </trkpt>
      <trkpt lat="43.21946" lon="5.4843">
        <ele>273.1</ele>
        <time>2025-10-18T08:55:54Z</time>
      </trkpt>
      <trkpt lat="43.21946" lon="5.4843">
        <ele>273.1</ele>
        <time>2025-10-18T08:55:55Z</time>
      </trkpt>
      <trkpt lat="43.21946" lon="5.48431">
        <ele>273.1</ele>
        <time>2025-10-18T08:55:56Z</time>
      </trkpt>
      <trkpt lat="43.21946" lon="5.48431">
        <ele>273.1</ele>
        <time>2025-10-18T08:55:57Z</time>
      </trkpt>
      <trkpt lat="43.21946" lon="5.48431">
        <ele>273.1</ele>
        <time>2025-10-18T08:55:58Z</time>
      </trkpt>
      <trkpt lat="43.21946" lon="5.48431">
        <ele>273</ele>
        <time>2025-10-18T08:55:59Z</time>
      </trkpt>
      <trkpt lat="43.21946" lon="5.4843">
        <ele>273</ele>
        <time>2025-10-18T08:56:00Z</time>
      </trkpt>
      <trkpt lat="43.21946" lon="5.4843">
        <ele>273</ele>
        <time>2025-10-18T08:56:01Z</time>
      </trkpt>
      <trkpt lat="43.21947" lon="5.4843">
        <ele>273</ele>
        <time>2025-10-18T08:56:02Z</time>
      </trkpt>
      <trkpt lat="43.21947" lon="5.4843">
        <ele>272.9</ele>
        <time>2025-10-18T08:56:03Z</time>
      </trkpt>
      <trkpt lat="43.21947" lon="5.4843">
        <ele>272.9</ele>
        <time>2025-10-18T08:56:04Z</time>
      </trkpt>
      <trkpt lat="43.21947" lon="5.4843">
        <ele>272.9</ele>
        <time>2025-10-18T08:56:05Z</time>
      </trkpt>
      <trkpt lat="43.21947" lon="5.4843">
        <ele>272.9</ele>
        <time>2025-10-18T08:56:06Z</time>
      </trkpt>
      <trkpt lat="43.21947" lon="5.48429">
        <ele>272.9</ele>
        <time>2025-10-18T08:56:07Z</time>
      </trkpt>
      <trkpt lat="43.21947" lon="5.48429">
        <ele>272.8</ele>
        <time>2025-10-18T08:56:08Z</time>
      </trkpt>
      <trkpt lat="43.21947" lon="5.48429">
        <ele>272.7</ele>
        <time>2025-10-18T08:56:09Z</time>
      </trkpt>
      <trkpt lat="43.21947" lon="5.48429">
        <ele>272.5</ele>
        <time>2025-10-18T08:56:10Z</time>
      </trkpt>
      <trkpt lat="43.21946" lon="5.48428">
        <ele>272.3</ele>
        <time>2025-10-18T08:56:11Z</time>
      </trkpt>
      <trkpt lat="43.21945" lon="5.48428">
        <ele>272</ele>
        <time>2025-10-18T08:56:12Z</time>
      </trkpt>
      <trkpt lat="43.21945" lon="5.48427">
        <ele>271.9</ele>
        <time>2025-10-18T08:56:13Z</time>
      </trkpt>
      <trkpt lat="43.21945" lon="5.48427">
        <ele>271.8</ele>
        <time>2025-10-18T08:56:14Z</time>
      </trkpt>
      <trkpt lat="43.21945" lon="5.48427">
        <ele>271.7</ele>
        <time>2025-10-18T08:56:15Z</time>
      </trkpt>
      <trkpt lat="43.21945" lon="5.48427">
        <ele>271.6</ele>
        <time>2025-10-18T08:56:16Z</time>
      </trkpt>
      <trkpt lat="43.21945" lon="5.48427">
        <ele>271.5</ele>
        <time>2025-10-18T08:56:17Z</time>
      </trkpt>
      <trkpt lat="43.21945" lon="5.48427">
        <ele>271.5</ele>
        <time>2025-10-18T08:56:18Z</time>
      </trkpt>
      <trkpt lat="43.21945" lon="5.48426">
        <ele>271.4</ele>
        <time>2025-10-18T08:56:19Z</time>
      </trkpt>
      <trkpt lat="43.21945" lon="5.48426">
        <ele>271.3</ele>
        <time>2025-10-18T08:56:20Z</time>
      </trkpt>
      <trkpt lat="43.21946" lon="5.48425">
        <ele>271.3</ele>
        <time>2025-10-18T08:56:21Z</time>
      </trkpt>
      <trkpt lat="43.21946" lon="5.48425">
        <ele>271.2</ele>
        <time>2025-10-18T08:56:22Z</time>
      </trkpt>
      <trkpt lat="43.21946" lon="5.48424">
        <ele>271.2</ele>
        <time>2025-10-18T08:56:23Z</time>
      </trkpt>
      <trkpt lat="43.21947" lon="5.48425">
        <ele>271.1</ele>
        <time>2025-10-18T08:56:24Z</time>
      </trkpt>
      <trkpt lat="43.21947" lon="5.48425">
        <ele>271.1</ele>
        <time>2025-10-18T08:56:25Z</time>
      </trkpt>
      <trkpt lat="43.21947" lon="5.48425">
        <ele>271</ele>
        <time>2025-10-18T08:56:26Z</time>
      </trkpt>
      <trkpt lat="43.21947" lon="5.48424">
        <ele>270.9</ele>
        <time>2025-10-18T08:56:27Z</time>
      </trkpt>
      <trkpt lat="43.21948" lon="5.48425">
        <ele>270.8</ele>
        <time>2025-10-18T08:56:28Z</time>
      </trkpt>
      <trkpt lat="43.21948" lon="5.48425">
        <ele>270.8</ele>
        <time>2025-10-18T08:56:29Z</time>
      </trkpt>
      <trkpt lat="43.21948" lon="5.48424">
        <ele>270.7</ele>
        <time>2025-10-18T08:56:30Z</time>
      </trkpt>
      <trkpt lat="43.21949" lon="5.48424">
        <ele>270.6</ele>
        <time>2025-10-18T08:56:31Z</time>
      </trkpt>
      <trkpt lat="43.21949" lon="5.48424">
        <ele>270.5</ele>
        <time>2025-10-18T08:56:32Z</time>
      </trkpt>
      <trkpt lat="43.21949" lon="5.48424">
        <ele>270.4</ele>
        <time>2025-10-18T08:56:33Z</time>
      </trkpt>
      <trkpt lat="43.21949" lon="5.48424">
        <ele>270.4</ele>
        <time>2025-10-18T08:56:34Z</time>
      </trkpt>
      <trkpt lat="43.21949" lon="5.48424">
        <ele>270.3</ele>
        <time>2025-10-18T08:56:35Z</time>
      </trkpt>
      <trkpt lat="43.21949" lon="5.48424">
        <ele>270.2</ele>
        <time>2025-10-18T08:56:36Z</time>
      </trkpt>
      <trkpt lat="43.21949" lon="5.48424">
        <ele>270.1</ele>
        <time>2025-10-18T08:56:37Z</time>
      </trkpt>
      <trkpt lat="43.21949" lon="5.48424">
        <ele>270.1</ele>
        <time>2025-10-18T08:56:38Z</time>
      </trkpt>
      <trkpt lat="43.21949" lon="5.48424">
        <ele>270.1</ele>
        <time>2025-10-18T08:56:39Z</time>
      </trkpt>
      <trkpt lat="43.21949" lon="5.48424">
        <ele>270.1</ele>
        <time>2025-10-18T08:56:40Z</time>
      </trkpt>
      <trkpt lat="43.2195" lon="5.48423">
        <ele>270</ele>
        <time>2025-10-18T08:56:41Z</time>
      </trkpt>
      <trkpt lat="43.2195" lon="5.48422">
        <ele>270</ele>
        <time>2025-10-18T08:56:42Z</time>
      </trkpt>
      <trkpt lat="43.2195" lon="5.48421">
        <ele>269.8</ele>
        <time>2025-10-18T08:56:43Z</time>
      </trkpt>
      <trkpt lat="43.2195" lon="5.48421">
        <ele>269.6</ele>
        <time>2025-10-18T08:56:44Z</time>
      </trkpt>
      <trkpt lat="43.2195" lon="5.48421">
        <ele>269.5</ele>
        <time>2025-10-18T08:56:45Z</time>
      </trkpt>
      <trkpt lat="43.2195" lon="5.48421">
        <ele>269.4</ele>
        <time>2025-10-18T08:56:46Z</time>
      </trkpt>
      <trkpt lat="43.2195" lon="5.48421">
        <ele>269.4</ele>
        <time>2025-10-18T08:56:47Z</time>
      </trkpt>
      <trkpt lat="43.2195" lon="5.48421">
        <ele>269.3</ele>
        <time>2025-10-18T08:56:48Z</time>
      </trkpt>
      <trkpt lat="43.21951" lon="5.4842">
        <ele>269.2</ele>
        <time>2025-10-18T08:56:49Z</time>
      </trkpt>
      <trkpt lat="43.21951" lon="5.4842">
        <ele>269.2</ele>
        <time>2025-10-18T08:56:50Z</time>
      </trkpt>
      <trkpt lat="43.2195" lon="5.48419">
        <ele>269.1</ele>
        <time>2025-10-18T08:56:51Z</time>
      </trkpt>
      <trkpt lat="43.2195" lon="5.48419">
        <ele>268.9</ele>
        <time>2025-10-18T08:56:52Z</time>
      </trkpt>
      <trkpt lat="43.2195" lon="5.48419">
        <ele>268.8</ele>
        <time>2025-10-18T08:56:53Z</time>
      </trkpt>
      <trkpt lat="43.2195" lon="5.48419">
        <ele>268.7</ele>
        <time>2025-10-18T08:56:54Z</time>
      </trkpt>
      <trkpt lat="43.2195" lon="5.48419">
        <ele>268.6</ele>
        <time>2025-10-18T08:56:55Z</time>
      </trkpt>
      <trkpt lat="43.21949" lon="5.48419">
        <ele>268.5</ele>
        <time>2025-10-18T08:56:56Z</time>
      </trkpt>
      <trkpt lat="43.21949" lon="5.48419">
        <ele>268.3</ele>
        <time>2025-10-18T08:56:57Z</time>
      </trkpt>
      <trkpt lat="43.21949" lon="5.48419">
        <ele>268.1</ele>
        <time>2025-10-18T08:56:58Z</time>
      </trkpt>
      <trkpt lat="43.21948" lon="5.48419">
        <ele>267.9</ele>
        <time>2025-10-18T08:56:59Z</time>
      </trkpt>
      <trkpt lat="43.21948" lon="5.48418">
        <ele>267.8</ele>
        <time>2025-10-18T08:57:00Z</time>
      </trkpt>
      <trkpt lat="43.21948" lon="5.48417">
        <ele>267.6</ele>
        <time>2025-10-18T08:57:01Z</time>
      </trkpt>
      <trkpt lat="43.21949" lon="5.48417">
        <ele>267.5</ele>
        <time>2025-10-18T08:57:02Z</time>
      </trkpt>
      <trkpt lat="43.21949" lon="5.48416">
        <ele>267.3</ele>
        <time>2025-10-18T08:57:03Z</time>
      </trkpt>
      <trkpt lat="43.21949" lon="5.48415">
        <ele>267.1</ele>
        <time>2025-10-18T08:57:04Z</time>
      </trkpt>
      <trkpt lat="43.21949" lon="5.48414">
        <ele>267</ele>
        <time>2025-10-18T08:57:05Z</time>
      </trkpt>
      <trkpt lat="43.2195" lon="5.48414">
        <ele>267</ele>
        <time>2025-10-18T08:57:06Z</time>
      </trkpt>
      <trkpt lat="43.2195" lon="5.48413">
        <ele>266.9</ele>
        <time>2025-10-18T08:57:07Z</time>
      </trkpt>
      <trkpt lat="43.2195" lon="5.48413">
        <ele>266.7</ele>
        <time>2025-10-18T08:57:08Z</time>
      </trkpt>
      <trkpt lat="43.21951" lon="5.48412">
        <ele>266.5</ele>
        <time>2025-10-18T08:57:09Z</time>
      </trkpt>
      <trkpt lat="43.21951" lon="5.48411">
        <ele>266.4</ele>
        <time>2025-10-18T08:57:10Z</time>
      </trkpt>
      <trkpt lat="43.21952" lon="5.4841">
        <ele>266.3</ele>
        <time>2025-10-18T08:57:11Z</time>
      </trkpt>
      <trkpt lat="43.21952" lon="5.48409">
        <ele>266.1</ele>
        <time>2025-10-18T08:57:12Z</time>
      </trkpt>
      <trkpt lat="43.21952" lon="5.48408">
        <ele>266.2</ele>
        <time>2025-10-18T08:57:13Z</time>
      </trkpt>
      <trkpt lat="43.21952" lon="5.48407">
        <ele>266.1</ele>
        <time>2025-10-18T08:57:14Z</time>
      </trkpt>
      <trkpt lat="43.21953" lon="5.48406">
        <ele>266</ele>
        <time>2025-10-18T08:57:15Z</time>
      </trkpt>
      <trkpt lat="43.21953" lon="5.48404">
        <ele>265.9</ele>
        <time>2025-10-18T08:57:16Z</time>
      </trkpt>
      <trkpt lat="43.21954" lon="5.48403">
        <ele>265.9</ele>
        <time>2025-10-18T08:57:17Z</time>
      </trkpt>
      <trkpt lat="43.21954" lon="5.48402">
        <ele>265.9</ele>
        <time>2025-10-18T08:57:18Z</time>
      </trkpt>
      <trkpt lat="43.21955" lon="5.48401">
        <ele>265.9</ele>
        <time>2025-10-18T08:57:19Z</time>
      </trkpt>
      <trkpt lat="43.21955" lon="5.48399">
        <ele>265.9</ele>
        <time>2025-10-18T08:57:20Z</time>
      </trkpt>
      <trkpt lat="43.21955" lon="5.48398">
        <ele>265.9</ele>
        <time>2025-10-18T08:57:21Z</time>
      </trkpt>
      <trkpt lat="43.21955" lon="5.48397">
        <ele>265.8</ele>
        <time>2025-10-18T08:57:22Z</time>
      </trkpt>
      <trkpt lat="43.21955" lon="5.48396">
        <ele>265.8</ele>
        <time>2025-10-18T08:57:23Z</time>
      </trkpt>
      <trkpt lat="43.21955" lon="5.48395">
        <ele>265.8</ele>
        <time>2025-10-18T08:57:24Z</time>
      </trkpt>
      <trkpt lat="43.21955" lon="5.48394">
        <ele>265.7</ele>
        <time>2025-10-18T08:57:25Z</time>
      </trkpt>
      <trkpt lat="43.21955" lon="5.48392">
        <ele>265.7</ele>
        <time>2025-10-18T08:57:26Z</time>
      </trkpt>
      <trkpt lat="43.21955" lon="5.48392">
        <ele>265.7</ele>
        <time>2025-10-18T08:57:27Z</time>
      </trkpt>
      <trkpt lat="43.21956" lon="5.48391">
        <ele>265.6</ele>
        <time>2025-10-18T08:57:28Z</time>
      </trkpt>
      <trkpt lat="43.21956" lon="5.4839">
        <ele>265.7</ele>
        <time>2025-10-18T08:57:29Z</time>
      </trkpt>
      <trkpt lat="43.21956" lon="5.48388">
        <ele>265.7</ele>
        <time>2025-10-18T08:57:30Z</time>
      </trkpt>
      <trkpt lat="43.21956" lon="5.48387">
        <ele>265.7</ele>
        <time>2025-10-18T08:57:31Z</time>
      </trkpt>
      <trkpt lat="43.21956" lon="5.48385">
        <ele>265.7</ele>
        <time>2025-10-18T08:57:32Z</time>
      </trkpt>
      <trkpt lat="43.21957" lon="5.48384">
        <ele>265.8</ele>
        <time>2025-10-18T08:57:33Z</time>
      </trkpt>
      <trkpt lat="43.21956" lon="5.48383">
        <ele>265.8</ele>
        <time>2025-10-18T08:57:34Z</time>
      </trkpt>
      <trkpt lat="43.21956" lon="5.48382">
        <ele>265.8</ele>
        <time>2025-10-18T08:57:35Z</time>
      </trkpt>
      <trkpt lat="43.21956" lon="5.48381">
        <ele>265.8</ele>
        <time>2025-10-18T08:57:36Z</time>
      </trkpt>
      <trkpt lat="43.21956" lon="5.4838">
        <ele>265.7</ele>
        <time>2025-10-18T08:57:37Z</time>
      </trkpt>
      <trkpt lat="43.21956" lon="5.48379">
        <ele>265.7</ele>
        <time>2025-10-18T08:57:38Z</time>
      </trkpt>
      <trkpt lat="43.21956" lon="5.48377">
        <ele>265.7</ele>
        <time>2025-10-18T08:57:39Z</time>
      </trkpt>
      <trkpt lat="43.21955" lon="5.48376">
        <ele>265.9</ele>
        <time>2025-10-18T08:57:40Z</time>
      </trkpt>
      <trkpt lat="43.21955" lon="5.48375">
        <ele>266</ele>
        <time>2025-10-18T08:57:41Z</time>
      </trkpt>
      <trkpt lat="43.21955" lon="5.48374">
        <ele>266.1</ele>
        <time>2025-10-18T08:57:42Z</time>
      </trkpt>
      <trkpt lat="43.21954" lon="5.48373">
        <ele>266.2</ele>
        <time>2025-10-18T08:57:43Z</time>
      </trkpt>
      <trkpt lat="43.21954" lon="5.48371">
        <ele>266.2</ele>
        <time>2025-10-18T08:57:44Z</time>
      </trkpt>
      <trkpt lat="43.21953" lon="5.4837">
        <ele>266.3</ele>
        <time>2025-10-18T08:57:45Z</time>
      </trkpt>
      <trkpt lat="43.21953" lon="5.48369">
        <ele>266.3</ele>
        <time>2025-10-18T08:57:46Z</time>
      </trkpt>
      <trkpt lat="43.21953" lon="5.48368">
        <ele>266.2</ele>
        <time>2025-10-18T08:57:47Z</time>
      </trkpt>
      <trkpt lat="43.21953" lon="5.48367">
        <ele>266.2</ele>
        <time>2025-10-18T08:57:48Z</time>
      </trkpt>
      <trkpt lat="43.21953" lon="5.48366">
        <ele>266.2</ele>
        <time>2025-10-18T08:57:49Z</time>
      </trkpt>
      <trkpt lat="43.21953" lon="5.48365">
        <ele>266.1</ele>
        <time>2025-10-18T08:57:50Z</time>
      </trkpt>
      <trkpt lat="43.21953" lon="5.48363">
        <ele>266.1</ele>
        <time>2025-10-18T08:57:51Z</time>
      </trkpt>
      <trkpt lat="43.21953" lon="5.48362">
        <ele>266</ele>
        <time>2025-10-18T08:57:52Z</time>
      </trkpt>
      <trkpt lat="43.21953" lon="5.48361">
        <ele>265.9</ele>
        <time>2025-10-18T08:57:53Z</time>
      </trkpt>
      <trkpt lat="43.21953" lon="5.48359">
        <ele>265.8</ele>
        <time>2025-10-18T08:57:54Z</time>
      </trkpt>
      <trkpt lat="43.21952" lon="5.48358">
        <ele>265.6</ele>
        <time>2025-10-18T08:57:55Z</time>
      </trkpt>
      <trkpt lat="43.21952" lon="5.48357">
        <ele>265.4</ele>
        <time>2025-10-18T08:57:56Z</time>
      </trkpt>
      <trkpt lat="43.21952" lon="5.48356">
        <ele>265.3</ele>
        <time>2025-10-18T08:57:57Z</time>
      </trkpt>
      <trkpt lat="43.21952" lon="5.48355">
        <ele>265.2</ele>
        <time>2025-10-18T08:57:58Z</time>
      </trkpt>
      <trkpt lat="43.21952" lon="5.48354">
        <ele>265</ele>
        <time>2025-10-18T08:57:59Z</time>
      </trkpt>
      <trkpt lat="43.21951" lon="5.48353">
        <ele>264.8</ele>
        <time>2025-10-18T08:58:00Z</time>
      </trkpt>
      <trkpt lat="43.21951" lon="5.48351">
        <ele>264.6</ele>
        <time>2025-10-18T08:58:01Z</time>
      </trkpt>
      <trkpt lat="43.21951" lon="5.4835">
        <ele>264.5</ele>
        <time>2025-10-18T08:58:02Z</time>
      </trkpt>
      <trkpt lat="43.2195" lon="5.48349">
        <ele>264.4</ele>
        <time>2025-10-18T08:58:03Z</time>
      </trkpt>
      <trkpt lat="43.2195" lon="5.48348">
        <ele>264.4</ele>
        <time>2025-10-18T08:58:04Z</time>
      </trkpt>
      <trkpt lat="43.21949" lon="5.48347">
        <ele>264.4</ele>
        <time>2025-10-18T08:58:05Z</time>
      </trkpt>
      <trkpt lat="43.21949" lon="5.48346">
        <ele>264.4</ele>
        <time>2025-10-18T08:58:06Z</time>
      </trkpt>
      <trkpt lat="43.21949" lon="5.48346">
        <ele>264.3</ele>
        <time>2025-10-18T08:58:07Z</time>
      </trkpt>
      <trkpt lat="43.21949" lon="5.48345">
        <ele>264.3</ele>
        <time>2025-10-18T08:58:08Z</time>
      </trkpt>
      <trkpt lat="43.21949" lon="5.48344">
        <ele>264.3</ele>
        <time>2025-10-18T08:58:09Z</time>
      </trkpt>
      <trkpt lat="43.21949" lon="5.48343">
        <ele>264.2</ele>
        <time>2025-10-18T08:58:10Z</time>
      </trkpt>
      <trkpt lat="43.21949" lon="5.48342">
        <ele>264.1</ele>
        <time>2025-10-18T08:58:11Z</time>
      </trkpt>
      <trkpt lat="43.21949" lon="5.48341">
        <ele>264.1</ele>
        <time>2025-10-18T08:58:12Z</time>
      </trkpt>
      <trkpt lat="43.21948" lon="5.48339">
        <ele>264</ele>
        <time>2025-10-18T08:58:13Z</time>
      </trkpt>
      <trkpt lat="43.21948" lon="5.48339">
        <ele>263.9</ele>
        <time>2025-10-18T08:58:14Z</time>
      </trkpt>
      <trkpt lat="43.21948" lon="5.48338">
        <ele>263.8</ele>
        <time>2025-10-18T08:58:15Z</time>
      </trkpt>
      <trkpt lat="43.21947" lon="5.48337">
        <ele>263.8</ele>
        <time>2025-10-18T08:58:16Z</time>
      </trkpt>
      <trkpt lat="43.21947" lon="5.48336">
        <ele>263.6</ele>
        <time>2025-10-18T08:58:17Z</time>
      </trkpt>
      <trkpt lat="43.21947" lon="5.48335">
        <ele>263.5</ele>
        <time>2025-10-18T08:58:18Z</time>
      </trkpt>
      <trkpt lat="43.21947" lon="5.48334">
        <ele>263.4</ele>
        <time>2025-10-18T08:58:19Z</time>
      </trkpt>
      <trkpt lat="43.21946" lon="5.48332">
        <ele>263.3</ele>
        <time>2025-10-18T08:58:20Z</time>
      </trkpt>
      <trkpt lat="43.21946" lon="5.48332">
        <ele>263.2</ele>
        <time>2025-10-18T08:58:21Z</time>
      </trkpt>
      <trkpt lat="43.21945" lon="5.48331">
        <ele>263.1</ele>
        <time>2025-10-18T08:58:22Z</time>
      </trkpt>
      <trkpt lat="43.21945" lon="5.4833">
        <ele>263.1</ele>
        <time>2025-10-18T08:58:23Z</time>
      </trkpt>
      <trkpt lat="43.21945" lon="5.48329">
        <ele>263</ele>
        <time>2025-10-18T08:58:24Z</time>
      </trkpt>
      <trkpt lat="43.21944" lon="5.48328">
        <ele>263</ele>
        <time>2025-10-18T08:58:25Z</time>
      </trkpt>
      <trkpt lat="43.21944" lon="5.48327">
        <ele>262.9</ele>
        <time>2025-10-18T08:58:26Z</time>
      </trkpt>
      <trkpt lat="43.21944" lon="5.48326">
        <ele>262.8</ele>
        <time>2025-10-18T08:58:27Z</time>
      </trkpt>
      <trkpt lat="43.21944" lon="5.48325">
        <ele>262.7</ele>
        <time>2025-10-18T08:58:28Z</time>
      </trkpt>
      <trkpt lat="43.21944" lon="5.48324">
        <ele>262.6</ele>
        <time>2025-10-18T08:58:29Z</time>
      </trkpt>
      <trkpt lat="43.21944" lon="5.48324">
        <ele>262.5</ele>
        <time>2025-10-18T08:58:30Z</time>
      </trkpt>
      <trkpt lat="43.21944" lon="5.48323">
        <ele>262.4</ele>
        <time>2025-10-18T08:58:31Z</time>
      </trkpt>
      <trkpt lat="43.21944" lon="5.48322">
        <ele>262.4</ele>
        <time>2025-10-18T08:58:32Z</time>
      </trkpt>
      <trkpt lat="43.21944" lon="5.48322">
        <ele>262.3</ele>
        <time>2025-10-18T08:58:33Z</time>
      </trkpt>
      <trkpt lat="43.21945" lon="5.48321">
        <ele>262.2</ele>
        <time>2025-10-18T08:58:34Z</time>
      </trkpt>
      <trkpt lat="43.21945" lon="5.4832">
        <ele>262.1</ele>
        <time>2025-10-18T08:58:35Z</time>
      </trkpt>
      <trkpt lat="43.21945" lon="5.48319">
        <ele>261.8</ele>
        <time>2025-10-18T08:58:36Z</time>
      </trkpt>
      <trkpt lat="43.21945" lon="5.48318">
        <ele>261.6</ele>
        <time>2025-10-18T08:58:37Z</time>
      </trkpt>
      <trkpt lat="43.21944" lon="5.48318">
        <ele>261.3</ele>
        <time>2025-10-18T08:58:38Z</time>
      </trkpt>
      <trkpt lat="43.21943" lon="5.48318">
        <ele>261.1</ele>
        <time>2025-10-18T08:58:39Z</time>
      </trkpt>
      <trkpt lat="43.21943" lon="5.48318">
        <ele>260.9</ele>
        <time>2025-10-18T08:58:40Z</time>
      </trkpt>
      <trkpt lat="43.21942" lon="5.48319">
        <ele>260.8</ele>
        <time>2025-10-18T08:58:41Z</time>
      </trkpt>
      <trkpt lat="43.21942" lon="5.48319">
        <ele>260.7</ele>
        <time>2025-10-18T08:58:42Z</time>
      </trkpt>
      <trkpt lat="43.21942" lon="5.48319">
        <ele>260.6</ele>
        <time>2025-10-18T08:58:43Z</time>
      </trkpt>
      <trkpt lat="43.21941" lon="5.48318">
        <ele>260.7</ele>
        <time>2025-10-18T08:58:44Z</time>
      </trkpt>
      <trkpt lat="43.21941" lon="5.48317">
        <ele>260.6</ele>
        <time>2025-10-18T08:58:45Z</time>
      </trkpt>
      <trkpt lat="43.21941" lon="5.48317">
        <ele>260.5</ele>
        <time>2025-10-18T08:58:46Z</time>
      </trkpt>
      <trkpt lat="43.21941" lon="5.48316">
        <ele>260.5</ele>
        <time>2025-10-18T08:58:47Z</time>
      </trkpt>
      <trkpt lat="43.21941" lon="5.48315">
        <ele>260.3</ele>
        <time>2025-10-18T08:58:48Z</time>
      </trkpt>
      <trkpt lat="43.21941" lon="5.48315">
        <ele>260.2</ele>
        <time>2025-10-18T08:58:49Z</time>
      </trkpt>
      <trkpt lat="43.21941" lon="5.48315">
        <ele>260.1</ele>
        <time>2025-10-18T08:58:50Z</time>
      </trkpt>
      <trkpt lat="43.21941" lon="5.48315">
        <ele>260</ele>
        <time>2025-10-18T08:58:51Z</time>
      </trkpt>
      <trkpt lat="43.21941" lon="5.48315">
        <ele>259.9</ele>
        <time>2025-10-18T08:58:52Z</time>
      </trkpt>
      <trkpt lat="43.21941" lon="5.48315">
        <ele>259.8</ele>
        <time>2025-10-18T08:58:53Z</time>
      </trkpt>
      <trkpt lat="43.21941" lon="5.48315">
        <ele>259.7</ele>
        <time>2025-10-18T08:58:54Z</time>
      </trkpt>
      <trkpt lat="43.21941" lon="5.48315">
        <ele>259.6</ele>
        <time>2025-10-18T08:58:55Z</time>
      </trkpt>
      <trkpt lat="43.21941" lon="5.48315">
        <ele>259.5</ele>
        <time>2025-10-18T08:58:56Z</time>
      </trkpt>
      <trkpt lat="43.21941" lon="5.48316">
        <ele>259.4</ele>
        <time>2025-10-18T08:58:57Z</time>
      </trkpt>
      <trkpt lat="43.21941" lon="5.48315">
        <ele>259.4</ele>
        <time>2025-10-18T08:58:58Z</time>
      </trkpt>
      <trkpt lat="43.21941" lon="5.48315">
        <ele>259.4</ele>
        <time>2025-10-18T08:58:59Z</time>
      </trkpt>
      <trkpt lat="43.21941" lon="5.48315">
        <ele>259.4</ele>
        <time>2025-10-18T08:59:00Z</time>
      </trkpt>
      <trkpt lat="43.21942" lon="5.48314">
        <ele>259.3</ele>
        <time>2025-10-18T08:59:01Z</time>
      </trkpt>
      <trkpt lat="43.21942" lon="5.48313">
        <ele>259.3</ele>
        <time>2025-10-18T08:59:02Z</time>
      </trkpt>
      <trkpt lat="43.21942" lon="5.48313">
        <ele>259.2</ele>
        <time>2025-10-18T08:59:03Z</time>
      </trkpt>
      <trkpt lat="43.21942" lon="5.48313">
        <ele>259.2</ele>
        <time>2025-10-18T08:59:04Z</time>
      </trkpt>
      <trkpt lat="43.21942" lon="5.48312">
        <ele>259.1</ele>
        <time>2025-10-18T08:59:05Z</time>
      </trkpt>
      <trkpt lat="43.21942" lon="5.48312">
        <ele>259.1</ele>
        <time>2025-10-18T08:59:06Z</time>
      </trkpt>
      <trkpt lat="43.21942" lon="5.48312">
        <ele>259</ele>
        <time>2025-10-18T08:59:07Z</time>
      </trkpt>
      <trkpt lat="43.21942" lon="5.48312">
        <ele>259</ele>
        <time>2025-10-18T08:59:08Z</time>
      </trkpt>
      <trkpt lat="43.21942" lon="5.48312">
        <ele>259</ele>
        <time>2025-10-18T08:59:09Z</time>
      </trkpt>
      <trkpt lat="43.21941" lon="5.48311">
        <ele>259</ele>
        <time>2025-10-18T08:59:10Z</time>
      </trkpt>
      <trkpt lat="43.21941" lon="5.48311">
        <ele>258.9</ele>
        <time>2025-10-18T08:59:11Z</time>
      </trkpt>
      <trkpt lat="43.21941" lon="5.4831">
        <ele>258.8</ele>
        <time>2025-10-18T08:59:12Z</time>
      </trkpt>
      <trkpt lat="43.21941" lon="5.4831">
        <ele>258.8</ele>
        <time>2025-10-18T08:59:13Z</time>
      </trkpt>
      <trkpt lat="43.21941" lon="5.4831">
        <ele>258.7</ele>
        <time>2025-10-18T08:59:14Z</time>
      </trkpt>
      <trkpt lat="43.21941" lon="5.4831">
        <ele>258.6</ele>
        <time>2025-10-18T08:59:15Z</time>
      </trkpt>
      <trkpt lat="43.21941" lon="5.4831">
        <ele>258.5</ele>
        <time>2025-10-18T08:59:16Z</time>
      </trkpt>
      <trkpt lat="43.21941" lon="5.4831">
        <ele>258.4</ele>
        <time>2025-10-18T08:59:17Z</time>
      </trkpt>
      <trkpt lat="43.21941" lon="5.4831">
        <ele>258.4</ele>
        <time>2025-10-18T08:59:18Z</time>
      </trkpt>
      <trkpt lat="43.21941" lon="5.4831">
        <ele>258.4</ele>
        <time>2025-10-18T08:59:19Z</time>
      </trkpt>
      <trkpt lat="43.21941" lon="5.4831">
        <ele>258.4</ele>
        <time>2025-10-18T08:59:20Z</time>
      </trkpt>
      <trkpt lat="43.2194" lon="5.48309">
        <ele>258.3</ele>
        <time>2025-10-18T08:59:21Z</time>
      </trkpt>
      <trkpt lat="43.2194" lon="5.48309">
        <ele>258.2</ele>
        <time>2025-10-18T08:59:22Z</time>
      </trkpt>
      <trkpt lat="43.2194" lon="5.48309">
        <ele>258.1</ele>
        <time>2025-10-18T08:59:23Z</time>
      </trkpt>
      <trkpt lat="43.21939" lon="5.48309">
        <ele>258</ele>
        <time>2025-10-18T08:59:24Z</time>
      </trkpt>
      <trkpt lat="43.21939" lon="5.48309">
        <ele>257.8</ele>
        <time>2025-10-18T08:59:25Z</time>
      </trkpt>
      <trkpt lat="43.21939" lon="5.48308">
        <ele>257.7</ele>
        <time>2025-10-18T08:59:26Z</time>
      </trkpt>
      <trkpt lat="43.21939" lon="5.48307">
        <ele>257.5</ele>
        <time>2025-10-18T08:59:27Z</time>
      </trkpt>
      <trkpt lat="43.21939" lon="5.48306">
        <ele>257.3</ele>
        <time>2025-10-18T08:59:28Z</time>
      </trkpt>
      <trkpt lat="43.21939" lon="5.48306">
        <ele>257</ele>
        <time>2025-10-18T08:59:29Z</time>
      </trkpt>
      <trkpt lat="43.21939" lon="5.48306">
        <ele>256.9</ele>
        <time>2025-10-18T08:59:30Z</time>
      </trkpt>
      <trkpt lat="43.2194" lon="5.48305">
        <ele>256.7</ele>
        <time>2025-10-18T08:59:31Z</time>
      </trkpt>
      <trkpt lat="43.2194" lon="5.48305">
        <ele>256.6</ele>
        <time>2025-10-18T08:59:32Z</time>
      </trkpt>
      <trkpt lat="43.2194" lon="5.48304">
        <ele>256.4</ele>
        <time>2025-10-18T08:59:33Z</time>
      </trkpt>
      <trkpt lat="43.2194" lon="5.48304">
        <ele>256.3</ele>
        <time>2025-10-18T08:59:34Z</time>
      </trkpt>
      <trkpt lat="43.21939" lon="5.48303">
        <ele>256.1</ele>
        <time>2025-10-18T08:59:35Z</time>
      </trkpt>
      <trkpt lat="43.21939" lon="5.48303">
        <ele>256</ele>
        <time>2025-10-18T08:59:36Z</time>
      </trkpt>
      <trkpt lat="43.21939" lon="5.48303">
        <ele>255.8</ele>
        <time>2025-10-18T08:59:37Z</time>
      </trkpt>
      <trkpt lat="43.21939" lon="5.48303">
        <ele>255.6</ele>
        <time>2025-10-18T08:59:38Z</time>
      </trkpt>
      <trkpt lat="43.21939" lon="5.48303">
        <ele>255.5</ele>
        <time>2025-10-18T08:59:39Z</time>
      </trkpt>
      <trkpt lat="43.21939" lon="5.48303">
        <ele>255.4</ele>
        <time>2025-10-18T08:59:40Z</time>
      </trkpt>
      <trkpt lat="43.21938" lon="5.48303">
        <ele>255.2</ele>
        <time>2025-10-18T08:59:41Z</time>
      </trkpt>
      <trkpt lat="43.21938" lon="5.48303">
        <ele>255</ele>
        <time>2025-10-18T08:59:42Z</time>
      </trkpt>
      <trkpt lat="43.21937" lon="5.48303">
        <ele>254.8</ele>
        <time>2025-10-18T08:59:43Z</time>
      </trkpt>
      <trkpt lat="43.21937" lon="5.48303">
        <ele>254.7</ele>
        <time>2025-10-18T08:59:44Z</time>
      </trkpt>
      <trkpt lat="43.21936" lon="5.48304">
        <ele>254.6</ele>
        <time>2025-10-18T08:59:45Z</time>
      </trkpt>
      <trkpt lat="43.21936" lon="5.48304">
        <ele>254.6</ele>
        <time>2025-10-18T08:59:46Z</time>
      </trkpt>
      <trkpt lat="43.21936" lon="5.48303">
        <ele>254.5</ele>
        <time>2025-10-18T08:59:47Z</time>
      </trkpt>
      <trkpt lat="43.21936" lon="5.48303">
        <ele>254.4</ele>
        <time>2025-10-18T08:59:48Z</time>
      </trkpt>
      <trkpt lat="43.21935" lon="5.48303">
        <ele>254.4</ele>
        <time>2025-10-18T08:59:49Z</time>
      </trkpt>
      <trkpt lat="43.21935" lon="5.48304">
        <ele>254.3</ele>
        <time>2025-10-18T08:59:50Z</time>
      </trkpt>
      <trkpt lat="43.21935" lon="5.48304">
        <ele>254.1</ele>
        <time>2025-10-18T08:59:51Z</time>
      </trkpt>
      <trkpt lat="43.21935" lon="5.48304">
        <ele>254</ele>
        <time>2025-10-18T08:59:52Z</time>
      </trkpt>
      <trkpt lat="43.21935" lon="5.48304">
        <ele>254</ele>
        <time>2025-10-18T08:59:53Z</time>
      </trkpt>
      <trkpt lat="43.21935" lon="5.48304">
        <ele>254</ele>
        <time>2025-10-18T08:59:54Z</time>
      </trkpt>
      <trkpt lat="43.21935" lon="5.48303">
        <ele>254</ele>
        <time>2025-10-18T08:59:55Z</time>
      </trkpt>
      <trkpt lat="43.21935" lon="5.48303">
        <ele>253.9</ele>
        <time>2025-10-18T08:59:56Z</time>
      </trkpt>
      <trkpt lat="43.21935" lon="5.48303">
        <ele>253.8</ele>
        <time>2025-10-18T08:59:57Z</time>
      </trkpt>
      <trkpt lat="43.21935" lon="5.48303">
        <ele>253.8</ele>
        <time>2025-10-18T08:59:58Z</time>
      </trkpt>
      <trkpt lat="43.21935" lon="5.48303">
        <ele>253.8</ele>
        <time>2025-10-18T08:59:59Z</time>
      </trkpt>
      <trkpt lat="43.21935" lon="5.48303">
        <ele>253.8</ele>
        <time>2025-10-18T09:00:00Z</time>
      </trkpt>
      <trkpt lat="43.21935" lon="5.48303">
        <ele>253.8</ele>
        <time>2025-10-18T09:00:01Z</time>
      </trkpt>
      <trkpt lat="43.21935" lon="5.48302">
        <ele>253.8</ele>
        <time>2025-10-18T09:00:02Z</time>
      </trkpt>
      <trkpt lat="43.21935" lon="5.48302">
        <ele>253.9</ele>
        <time>2025-10-18T09:00:03Z</time>
      </trkpt>
      <trkpt lat="43.21935" lon="5.48302">
        <ele>253.9</ele>
        <time>2025-10-18T09:00:04Z</time>
      </trkpt>
      <trkpt lat="43.21935" lon="5.48302">
        <ele>253.9</ele>
        <time>2025-10-18T09:00:05Z</time>
      </trkpt>
      <trkpt lat="43.21935" lon="5.48302">
        <ele>253.9</ele>
        <time>2025-10-18T09:00:06Z</time>
      </trkpt>
      <trkpt lat="43.21935" lon="5.48302">
        <ele>253.8</ele>
        <time>2025-10-18T09:00:07Z</time>
      </trkpt>
      <trkpt lat="43.21935" lon="5.48302">
        <ele>253.8</ele>
        <time>2025-10-18T09:00:08Z</time>
      </trkpt>
      <trkpt lat="43.21934" lon="5.48302">
        <ele>253.7</ele>
        <time>2025-10-18T09:00:09Z</time>
      </trkpt>
      <trkpt lat="43.21934" lon="5.48302">
        <ele>253.7</ele>
        <time>2025-10-18T09:00:10Z</time>
      </trkpt>
      <trkpt lat="43.21934" lon="5.48302">
        <ele>253.7</ele>
        <time>2025-10-18T09:00:11Z</time>
      </trkpt>
      <trkpt lat="43.21934" lon="5.48302">
        <ele>253.7</ele>
        <time>2025-10-18T09:00:12Z</time>
      </trkpt>
      <trkpt lat="43.21934" lon="5.48302">
        <ele>253.7</ele>
        <time>2025-10-18T09:00:13Z</time>
      </trkpt>
      <trkpt lat="43.21934" lon="5.48302">
        <ele>253.7</ele>
        <time>2025-10-18T09:00:14Z</time>
      </trkpt>
      <trkpt lat="43.21934" lon="5.48302">
        <ele>253.7</ele>
        <time>2025-10-18T09:00:15Z</time>
      </trkpt>
      <trkpt lat="43.21934" lon="5.48302">
        <ele>253.7</ele>
        <time>2025-10-18T09:00:16Z</time>
      </trkpt>
      <trkpt lat="43.21934" lon="5.48302">
        <ele>253.7</ele>
        <time>2025-10-18T09:00:17Z</time>
      </trkpt>
      <trkpt lat="43.21934" lon="5.48302">
        <ele>253.7</ele>
        <time>2025-10-18T09:00:18Z</time>
      </trkpt>
      <trkpt lat="43.21933" lon="5.48302">
        <ele>253.7</ele>
        <time>2025-10-18T09:00:19Z</time>
      </trkpt>
      <trkpt lat="43.21933" lon="5.48302">
        <ele>253.7</ele>
        <time>2025-10-18T09:00:20Z</time>
      </trkpt>
      <trkpt lat="43.21933" lon="5.48302">
        <ele>253.6</ele>
        <time>2025-10-18T09:00:21Z</time>
      </trkpt>
      <trkpt lat="43.21933" lon="5.48302">
        <ele>253.5</ele>
        <time>2025-10-18T09:00:22Z</time>
      </trkpt>
      <trkpt lat="43.21933" lon="5.48301">
        <ele>253.4</ele>
        <time>2025-10-18T09:00:23Z</time>
      </trkpt>
      <trkpt lat="43.21933" lon="5.48301">
        <ele>253.4</ele>
        <time>2025-10-18T09:00:24Z</time>
      </trkpt>
      <trkpt lat="43.21933" lon="5.48301">
        <ele>253.3</ele>
        <time>2025-10-18T09:00:25Z</time>
      </trkpt>
      <trkpt lat="43.21933" lon="5.483">
        <ele>253.3</ele>
        <time>2025-10-18T09:00:26Z</time>
      </trkpt>
      <trkpt lat="43.21933" lon="5.483">
        <ele>253.2</ele>
        <time>2025-10-18T09:00:27Z</time>
      </trkpt>
      <trkpt lat="43.21933" lon="5.483">
        <ele>253.2</ele>
        <time>2025-10-18T09:00:28Z</time>
      </trkpt>
      <trkpt lat="43.21933" lon="5.483">
        <ele>253.2</ele>
        <time>2025-10-18T09:00:29Z</time>
      </trkpt>
      <trkpt lat="43.21933" lon="5.48301">
        <ele>253.1</ele>
        <time>2025-10-18T09:00:30Z</time>
      </trkpt>
      <trkpt lat="43.21933" lon="5.48302">
        <ele>253.2</ele>
        <time>2025-10-18T09:00:31Z</time>
      </trkpt>
      <trkpt lat="43.21932" lon="5.48302">
        <ele>253.3</ele>
        <time>2025-10-18T09:00:32Z</time>
      </trkpt>
      <trkpt lat="43.21932" lon="5.48302">
        <ele>253.3</ele>
        <time>2025-10-18T09:00:33Z</time>
      </trkpt>
      <trkpt lat="43.21932" lon="5.48302">
        <ele>253.2</ele>
        <time>2025-10-18T09:00:34Z</time>
      </trkpt>
      <trkpt lat="43.21932" lon="5.48302">
        <ele>253.2</ele>
        <time>2025-10-18T09:00:35Z</time>
      </trkpt>
      <trkpt lat="43.21932" lon="5.48302">
        <ele>253.2</ele>
        <time>2025-10-18T09:00:36Z</time>
      </trkpt>
      <trkpt lat="43.21932" lon="5.48303">
        <ele>253.2</ele>
        <time>2025-10-18T09:00:37Z</time>
      </trkpt>
      <trkpt lat="43.21932" lon="5.48302">
        <ele>253.2</ele>
        <time>2025-10-18T09:00:38Z</time>
      </trkpt>
      <trkpt lat="43.21932" lon="5.48302">
        <ele>253.3</ele>
        <time>2025-10-18T09:00:39Z</time>
      </trkpt>
      <trkpt lat="43.21931" lon="5.48302">
        <ele>253.3</ele>
        <time>2025-10-18T09:00:40Z</time>
      </trkpt>
      <trkpt lat="43.21931" lon="5.48302">
        <ele>253.2</ele>
        <time>2025-10-18T09:00:41Z</time>
      </trkpt>
      <trkpt lat="43.21931" lon="5.48302">
        <ele>253.2</ele>
        <time>2025-10-18T09:00:42Z</time>
      </trkpt>
      <trkpt lat="43.21931" lon="5.48302">
        <ele>253.1</ele>
        <time>2025-10-18T09:00:43Z</time>
      </trkpt>
      <trkpt lat="43.21931" lon="5.48302">
        <ele>253.1</ele>
        <time>2025-10-18T09:00:44Z</time>
      </trkpt>
      <trkpt lat="43.21931" lon="5.48302">
        <ele>253.1</ele>
        <time>2025-10-18T09:00:45Z</time>
      </trkpt>
      <trkpt lat="43.21931" lon="5.48302">
        <ele>253.1</ele>
        <time>2025-10-18T09:00:46Z</time>
      </trkpt>
      <trkpt lat="43.21931" lon="5.48302">
        <ele>253</ele>
        <time>2025-10-18T09:00:47Z</time>
      </trkpt>
      <trkpt lat="43.21931" lon="5.48302">
        <ele>253.1</ele>
        <time>2025-10-18T09:00:48Z</time>
      </trkpt>
      <trkpt lat="43.21931" lon="5.48303">
        <ele>253.1</ele>
        <time>2025-10-18T09:00:49Z</time>
      </trkpt>
      <trkpt lat="43.21931" lon="5.48303">
        <ele>253.1</ele>
        <time>2025-10-18T09:00:50Z</time>
      </trkpt>
      <trkpt lat="43.21931" lon="5.48303">
        <ele>253.1</ele>
        <time>2025-10-18T09:00:51Z</time>
      </trkpt>
      <trkpt lat="43.21931" lon="5.48302">
        <ele>253.2</ele>
        <time>2025-10-18T09:00:52Z</time>
      </trkpt>
      <trkpt lat="43.21931" lon="5.48302">
        <ele>253.1</ele>
        <time>2025-10-18T09:00:53Z</time>
      </trkpt>
      <trkpt lat="43.21932" lon="5.48301">
        <ele>253</ele>
        <time>2025-10-18T09:00:54Z</time>
      </trkpt>
      <trkpt lat="43.21932" lon="5.48301">
        <ele>252.9</ele>
        <time>2025-10-18T09:00:55Z</time>
      </trkpt>
      <trkpt lat="43.21932" lon="5.48301">
        <ele>252.9</ele>
        <time>2025-10-18T09:00:56Z</time>
      </trkpt>
      <trkpt lat="43.21932" lon="5.48301">
        <ele>253</ele>
        <time>2025-10-18T09:00:57Z</time>
      </trkpt>
      <trkpt lat="43.21932" lon="5.48301">
        <ele>253</ele>
        <time>2025-10-18T09:00:58Z</time>
      </trkpt>
      <trkpt lat="43.21932" lon="5.48301">
        <ele>253</ele>
        <time>2025-10-18T09:00:59Z</time>
      </trkpt>
      <trkpt lat="43.21932" lon="5.483">
        <ele>252.9</ele>
        <time>2025-10-18T09:01:00Z</time>
      </trkpt>
      <trkpt lat="43.21932" lon="5.483">
        <ele>252.8</ele>
        <time>2025-10-18T09:01:01Z</time>
      </trkpt>
      <trkpt lat="43.21932" lon="5.483">
        <ele>252.7</ele>
        <time>2025-10-18T09:01:02Z</time>
      </trkpt>
      <trkpt lat="43.21932" lon="5.483">
        <ele>252.7</ele>
        <time>2025-10-18T09:01:03Z</time>
      </trkpt>
      <trkpt lat="43.21932" lon="5.48299">
        <ele>252.5</ele>
        <time>2025-10-18T09:01:04Z</time>
      </trkpt>
      <trkpt lat="43.21932" lon="5.48298">
        <ele>252.4</ele>
        <time>2025-10-18T09:01:05Z</time>
      </trkpt>
      <trkpt lat="43.21932" lon="5.48297">
        <ele>252.3</ele>
        <time>2025-10-18T09:01:06Z</time>
      </trkpt>
      <trkpt lat="43.21932" lon="5.48296">
        <ele>252.2</ele>
        <time>2025-10-18T09:01:07Z</time>
      </trkpt>
      <trkpt lat="43.21932" lon="5.48296">
        <ele>252.1</ele>
        <time>2025-10-18T09:01:08Z</time>
      </trkpt>
      <trkpt lat="43.21932" lon="5.48295">
        <ele>252</ele>
        <time>2025-10-18T09:01:09Z</time>
      </trkpt>
      <trkpt lat="43.21932" lon="5.48296">
        <ele>251.9</ele>
        <time>2025-10-18T09:01:10Z</time>
      </trkpt>
      <trkpt lat="43.21932" lon="5.48295">
        <ele>251.8</ele>
        <time>2025-10-18T09:01:11Z</time>
      </trkpt>
      <trkpt lat="43.21932" lon="5.48295">
        <ele>251.7</ele>
        <time>2025-10-18T09:01:12Z</time>
      </trkpt>
      <trkpt lat="43.21931" lon="5.48295">
        <ele>251.7</ele>
        <time>2025-10-18T09:01:13Z</time>
      </trkpt>
      <trkpt lat="43.21931" lon="5.48294">
        <ele>251.7</ele>
        <time>2025-10-18T09:01:14Z</time>
      </trkpt>
      <trkpt lat="43.21931" lon="5.48294">
        <ele>251.6</ele>
        <time>2025-10-18T09:01:15Z</time>
      </trkpt>
      <trkpt lat="43.21932" lon="5.48293">
        <ele>251.6</ele>
        <time>2025-10-18T09:01:16Z</time>
      </trkpt>
      <trkpt lat="43.21931" lon="5.48293">
        <ele>251.4</ele>
        <time>2025-10-18T09:01:17Z</time>
      </trkpt>
      <trkpt lat="43.21931" lon="5.48293">
        <ele>251.3</ele>
        <time>2025-10-18T09:01:18Z</time>
      </trkpt>
      <trkpt lat="43.2193" lon="5.48293">
        <ele>251.1</ele>
        <time>2025-10-18T09:01:19Z</time>
      </trkpt>
      <trkpt lat="43.2193" lon="5.48292">
        <ele>250.8</ele>
        <time>2025-10-18T09:01:20Z</time>
      </trkpt>
      <trkpt lat="43.21929" lon="5.48292">
        <ele>250.5</ele>
        <time>2025-10-18T09:01:21Z</time>
      </trkpt>
      <trkpt lat="43.21929" lon="5.48292">
        <ele>250.3</ele>
        <time>2025-10-18T09:01:22Z</time>
      </trkpt>
      <trkpt lat="43.21929" lon="5.48292">
        <ele>250.2</ele>
        <time>2025-10-18T09:01:23Z</time>
      </trkpt>
      <trkpt lat="43.21929" lon="5.48292">
        <ele>250.1</ele>
        <time>2025-10-18T09:01:24Z</time>
      </trkpt>
      <trkpt lat="43.21929" lon="5.48292">
        <ele>249.9</ele>
        <time>2025-10-18T09:01:25Z</time>
      </trkpt>
      <trkpt lat="43.21929" lon="5.48292">
        <ele>249.8</ele>
        <time>2025-10-18T09:01:26Z</time>
      </trkpt>
      <trkpt lat="43.21929" lon="5.48291">
        <ele>249.6</ele>
        <time>2025-10-18T09:01:27Z</time>
      </trkpt>
      <trkpt lat="43.21929" lon="5.4829">
        <ele>249.5</ele>
        <time>2025-10-18T09:01:28Z</time>
      </trkpt>
      <trkpt lat="43.21929" lon="5.4829">
        <ele>249.3</ele>
        <time>2025-10-18T09:01:29Z</time>
      </trkpt>
      <trkpt lat="43.2193" lon="5.48289">
        <ele>249</ele>
        <time>2025-10-18T09:01:30Z</time>
      </trkpt>
      <trkpt lat="43.2193" lon="5.48288">
        <ele>248.8</ele>
        <time>2025-10-18T09:01:31Z</time>
      </trkpt>
      <trkpt lat="43.2193" lon="5.48286">
        <ele>248.6</ele>
        <time>2025-10-18T09:01:32Z</time>
      </trkpt>
      <trkpt lat="43.21931" lon="5.48286">
        <ele>248.5</ele>
        <time>2025-10-18T09:01:33Z</time>
      </trkpt>
      <trkpt lat="43.21931" lon="5.48285">
        <ele>248.3</ele>
        <time>2025-10-18T09:01:34Z</time>
      </trkpt>
      <trkpt lat="43.21932" lon="5.48285">
        <ele>248</ele>
        <time>2025-10-18T09:01:35Z</time>
      </trkpt>
      <trkpt lat="43.21933" lon="5.48286">
        <ele>247.8</ele>
        <time>2025-10-18T09:01:36Z</time>
      </trkpt>
      <trkpt lat="43.21935" lon="5.48286">
        <ele>247.6</ele>
        <time>2025-10-18T09:01:37Z</time>
      </trkpt>
      <trkpt lat="43.21936" lon="5.48287">
        <ele>247.4</ele>
        <time>2025-10-18T09:01:38Z</time>
      </trkpt>
      <trkpt lat="43.21937" lon="5.48287">
        <ele>247.2</ele>
        <time>2025-10-18T09:01:39Z</time>
      </trkpt>
      <trkpt lat="43.21938" lon="5.48286">
        <ele>247</ele>
        <time>2025-10-18T09:01:40Z</time>
      </trkpt>
      <trkpt lat="43.2194" lon="5.48287">
        <ele>246.8</ele>
        <time>2025-10-18T09:01:41Z</time>
      </trkpt>
      <trkpt lat="43.21941" lon="5.48287">
        <ele>246.7</ele>
        <time>2025-10-18T09:01:42Z</time>
      </trkpt>
      <trkpt lat="43.21943" lon="5.48287">
        <ele>246.6</ele>
        <time>2025-10-18T09:01:43Z</time>
      </trkpt>
      <trkpt lat="43.21944" lon="5.48287">
        <ele>246.5</ele>
        <time>2025-10-18T09:01:44Z</time>
      </trkpt>
      <trkpt lat="43.21945" lon="5.48288">
        <ele>246.4</ele>
        <time>2025-10-18T09:01:45Z</time>
      </trkpt>
      <trkpt lat="43.21947" lon="5.48288">
        <ele>246.5</ele>
        <time>2025-10-18T09:01:46Z</time>
      </trkpt>
      <trkpt lat="43.21948" lon="5.48288">
        <ele>246.4</ele>
        <time>2025-10-18T09:01:47Z</time>
      </trkpt>
      <trkpt lat="43.21949" lon="5.48287">
        <ele>246.4</ele>
        <time>2025-10-18T09:01:48Z</time>
      </trkpt>
      <trkpt lat="43.21949" lon="5.48287">
        <ele>246.4</ele>
        <time>2025-10-18T09:01:49Z</time>
      </trkpt>
      <trkpt lat="43.2195" lon="5.48288">
        <ele>246.5</ele>
        <time>2025-10-18T09:01:50Z</time>
      </trkpt>
      <trkpt lat="43.2195" lon="5.48287">
        <ele>246.5</ele>
        <time>2025-10-18T09:01:51Z</time>
      </trkpt>
      <trkpt lat="43.2195" lon="5.48287">
        <ele>246.6</ele>
        <time>2025-10-18T09:01:52Z</time>
      </trkpt>
      <trkpt lat="43.2195" lon="5.48287">
        <ele>246.7</ele>
        <time>2025-10-18T09:01:53Z</time>
      </trkpt>
      <trkpt lat="43.2195" lon="5.48287">
        <ele>246.7</ele>
        <time>2025-10-18T09:01:54Z</time>
      </trkpt>
      <trkpt lat="43.2195" lon="5.48287">
        <ele>246.8</ele>
        <time>2025-10-18T09:01:55Z</time>
      </trkpt>
      <trkpt lat="43.2195" lon="5.48287">
        <ele>246.8</ele>
        <time>2025-10-18T09:01:56Z</time>
      </trkpt>
      <trkpt lat="43.2195" lon="5.48287">
        <ele>246.8</ele>
        <time>2025-10-18T09:01:57Z</time>
      </trkpt>
      <trkpt lat="43.21951" lon="5.48287">
        <ele>246.8</ele>
        <time>2025-10-18T09:01:58Z</time>
      </trkpt>
      <trkpt lat="43.21952" lon="5.48287">
        <ele>246.8</ele>
        <time>2025-10-18T09:01:59Z</time>
      </trkpt>
      <trkpt lat="43.21952" lon="5.48287">
        <ele>246.8</ele>
        <time>2025-10-18T09:02:00Z</time>
      </trkpt>
      <trkpt lat="43.21952" lon="5.48287">
        <ele>246.9</ele>
        <time>2025-10-18T09:02:01Z</time>
      </trkpt>
      <trkpt lat="43.21953" lon="5.48286">
        <ele>246.8</ele>
        <time>2025-10-18T09:02:02Z</time>
      </trkpt>
      <trkpt lat="43.21953" lon="5.48287">
        <ele>246.8</ele>
        <time>2025-10-18T09:02:03Z</time>
      </trkpt>
      <trkpt lat="43.21953" lon="5.48287">
        <ele>246.9</ele>
        <time>2025-10-18T09:02:04Z</time>
      </trkpt>
      <trkpt lat="43.21953" lon="5.48287">
        <ele>246.9</ele>
        <time>2025-10-18T09:02:05Z</time>
      </trkpt>
      <trkpt lat="43.21952" lon="5.48287">
        <ele>247</ele>
        <time>2025-10-18T09:02:06Z</time>
      </trkpt>
      <trkpt lat="43.21952" lon="5.48287">
        <ele>247</ele>
        <time>2025-10-18T09:02:07Z</time>
      </trkpt>
      <trkpt lat="43.21953" lon="5.48288">
        <ele>247</ele>
        <time>2025-10-18T09:02:08Z</time>
      </trkpt>
      <trkpt lat="43.21953" lon="5.48288">
        <ele>247</ele>
        <time>2025-10-18T09:02:09Z</time>
      </trkpt>
      <trkpt lat="43.21953" lon="5.48288">
        <ele>247.1</ele>
        <time>2025-10-18T09:02:10Z</time>
      </trkpt>
      <trkpt lat="43.21953" lon="5.48288">
        <ele>247.1</ele>
        <time>2025-10-18T09:02:11Z</time>
      </trkpt>
      <trkpt lat="43.21953" lon="5.48289">
        <ele>247</ele>
        <time>2025-10-18T09:02:12Z</time>
      </trkpt>
      <trkpt lat="43.21952" lon="5.4829">
        <ele>247</ele>
        <time>2025-10-18T09:02:13Z</time>
      </trkpt>
      <trkpt lat="43.21952" lon="5.48291">
        <ele>247</ele>
        <time>2025-10-18T09:02:14Z</time>
      </trkpt>
      <trkpt lat="43.21952" lon="5.48291">
        <ele>247</ele>
        <time>2025-10-18T09:02:15Z</time>
      </trkpt>
      <trkpt lat="43.21952" lon="5.48291">
        <ele>246.9</ele>
        <time>2025-10-18T09:02:16Z</time>
      </trkpt>
      <trkpt lat="43.21952" lon="5.48292">
        <ele>247</ele>
        <time>2025-10-18T09:02:17Z</time>
      </trkpt>
      <trkpt lat="43.21952" lon="5.48292">
        <ele>247</ele>
        <time>2025-10-18T09:02:18Z</time>
      </trkpt>
      <trkpt lat="43.21952" lon="5.48292">
        <ele>247.1</ele>
        <time>2025-10-18T09:02:19Z</time>
      </trkpt>
      <trkpt lat="43.21952" lon="5.48292">
        <ele>247.1</ele>
        <time>2025-10-18T09:02:20Z</time>
      </trkpt>
      <trkpt lat="43.21952" lon="5.48292">
        <ele>247.1</ele>
        <time>2025-10-18T09:02:21Z</time>
      </trkpt>
      <trkpt lat="43.21952" lon="5.48292">
        <ele>247.1</ele>
        <time>2025-10-18T09:02:22Z</time>
      </trkpt>
      <trkpt lat="43.21952" lon="5.48292">
        <ele>247</ele>
        <time>2025-10-18T09:02:23Z</time>
      </trkpt>
      <trkpt lat="43.21952" lon="5.48292">
        <ele>247</ele>
        <time>2025-10-18T09:02:24Z</time>
      </trkpt>
      <trkpt lat="43.21952" lon="5.48292">
        <ele>246.9</ele>
        <time>2025-10-18T09:02:25Z</time>
      </trkpt>
      <trkpt lat="43.21952" lon="5.48292">
        <ele>246.9</ele>
        <time>2025-10-18T09:02:26Z</time>
      </trkpt>
      <trkpt lat="43.21952" lon="5.48292">
        <ele>246.8</ele>
        <time>2025-10-18T09:02:27Z</time>
      </trkpt>
      <trkpt lat="43.21952" lon="5.48292">
        <ele>246.8</ele>
        <time>2025-10-18T09:02:28Z</time>
      </trkpt>
      <trkpt lat="43.21952" lon="5.48292">
        <ele>246.8</ele>
        <time>2025-10-18T09:02:29Z</time>
      </trkpt>
      <trkpt lat="43.21952" lon="5.48292">
        <ele>246.8</ele>
        <time>2025-10-18T09:02:30Z</time>
      </trkpt>
      <trkpt lat="43.21952" lon="5.48292">
        <ele>246.8</ele>
        <time>2025-10-18T09:02:31Z</time>
      </trkpt>
      <trkpt lat="43.21952" lon="5.48291">
        <ele>246.8</ele>
        <time>2025-10-18T09:02:32Z</time>
      </trkpt>
      <trkpt lat="43.21952" lon="5.48291">
        <ele>246.8</ele>
        <time>2025-10-18T09:02:33Z</time>
      </trkpt>
      <trkpt lat="43.21952" lon="5.48291">
        <ele>246.8</ele>
        <time>2025-10-18T09:02:34Z</time>
      </trkpt>
      <trkpt lat="43.21952" lon="5.48291">
        <ele>246.8</ele>
        <time>2025-10-18T09:02:35Z</time>
      </trkpt>
      <trkpt lat="43.21952" lon="5.48291">
        <ele>246.7</ele>
        <time>2025-10-18T09:02:36Z</time>
      </trkpt>
      <trkpt lat="43.21952" lon="5.48292">
        <ele>246.7</ele>
        <time>2025-10-18T09:02:37Z</time>
      </trkpt>
      <trkpt lat="43.21952" lon="5.48291">
        <ele>246.8</ele>
        <time>2025-10-18T09:02:38Z</time>
      </trkpt>
      <trkpt lat="43.21952" lon="5.48291">
        <ele>246.7</ele>
        <time>2025-10-18T09:02:39Z</time>
      </trkpt>
      <trkpt lat="43.21952" lon="5.48292">
        <ele>246.7</ele>
        <time>2025-10-18T09:02:40Z</time>
      </trkpt>
      <trkpt lat="43.21952" lon="5.48293">
        <ele>246.7</ele>
        <time>2025-10-18T09:02:41Z</time>
      </trkpt>
      <trkpt lat="43.21953" lon="5.48292">
        <ele>246.7</ele>
        <time>2025-10-18T09:02:42Z</time>
      </trkpt>
      <trkpt lat="43.21953" lon="5.48293">
        <ele>246.7</ele>
        <time>2025-10-18T09:02:43Z</time>
      </trkpt>
      <trkpt lat="43.21953" lon="5.48293">
        <ele>246.6</ele>
        <time>2025-10-18T09:02:44Z</time>
      </trkpt>
      <trkpt lat="43.21953" lon="5.48292">
        <ele>246.6</ele>
        <time>2025-10-18T09:02:45Z</time>
      </trkpt>
      <trkpt lat="43.21954" lon="5.48292">
        <ele>246.6</ele>
        <time>2025-10-18T09:02:46Z</time>
      </trkpt>
      <trkpt lat="43.21955" lon="5.48292">
        <ele>246.6</ele>
        <time>2025-10-18T09:02:47Z</time>
      </trkpt>
      <trkpt lat="43.21955" lon="5.48291">
        <ele>246.7</ele>
        <time>2025-10-18T09:02:48Z</time>
      </trkpt>
      <trkpt lat="43.21956" lon="5.48291">
        <ele>246.7</ele>
        <time>2025-10-18T09:02:49Z</time>
      </trkpt>
      <trkpt lat="43.21956" lon="5.4829">
        <ele>246.7</ele>
        <time>2025-10-18T09:02:50Z</time>
      </trkpt>
      <trkpt lat="43.21957" lon="5.4829">
        <ele>246.8</ele>
        <time>2025-10-18T09:02:51Z</time>
      </trkpt>
      <trkpt lat="43.21957" lon="5.48289">
        <ele>246.7</ele>
        <time>2025-10-18T09:02:52Z</time>
      </trkpt>
      <trkpt lat="43.21957" lon="5.48289">
        <ele>246.6</ele>
        <time>2025-10-18T09:02:53Z</time>
      </trkpt>
      <trkpt lat="43.21957" lon="5.48289">
        <ele>246.5</ele>
        <time>2025-10-18T09:02:54Z</time>
      </trkpt>
      <trkpt lat="43.21958" lon="5.48289">
        <ele>246.4</ele>
        <time>2025-10-18T09:02:55Z</time>
      </trkpt>
      <trkpt lat="43.21958" lon="5.48289">
        <ele>246.4</ele>
        <time>2025-10-18T09:02:56Z</time>
      </trkpt>
      <trkpt lat="43.21959" lon="5.48288">
        <ele>246.3</ele>
        <time>2025-10-18T09:02:57Z</time>
      </trkpt>
      <trkpt lat="43.2196" lon="5.48288">
        <ele>246.3</ele>
        <time>2025-10-18T09:02:58Z</time>
      </trkpt>
      <trkpt lat="43.2196" lon="5.48288">
        <ele>246.3</ele>
        <time>2025-10-18T09:02:59Z</time>
      </trkpt>
      <trkpt lat="43.21961" lon="5.48288">
        <ele>246.2</ele>
        <time>2025-10-18T09:03:00Z</time>
      </trkpt>
      <trkpt lat="43.21961" lon="5.48288">
        <ele>246.2</ele>
        <time>2025-10-18T09:03:01Z</time>
      </trkpt>
      <trkpt lat="43.21961" lon="5.48287">
        <ele>246.2</ele>
        <time>2025-10-18T09:03:02Z</time>
      </trkpt>
      <trkpt lat="43.21962" lon="5.48287">
        <ele>246.3</ele>
        <time>2025-10-18T09:03:03Z</time>
      </trkpt>
      <trkpt lat="43.21962" lon="5.48286">
        <ele>246.3</ele>
        <time>2025-10-18T09:03:04Z</time>
      </trkpt>
      <trkpt lat="43.21963" lon="5.48286">
        <ele>246.4</ele>
        <time>2025-10-18T09:03:05Z</time>
      </trkpt>
      <trkpt lat="43.21964" lon="5.48285">
        <ele>246.5</ele>
        <time>2025-10-18T09:03:06Z</time>
      </trkpt>
      <trkpt lat="43.21965" lon="5.48285">
        <ele>246.7</ele>
        <time>2025-10-18T09:03:07Z</time>
      </trkpt>
      <trkpt lat="43.21965" lon="5.48285">
        <ele>246.7</ele>
        <time>2025-10-18T09:03:08Z</time>
      </trkpt>
      <trkpt lat="43.21965" lon="5.48284">
        <ele>246.9</ele>
        <time>2025-10-18T09:03:09Z</time>
      </trkpt>
      <trkpt lat="43.21966" lon="5.48284">
        <ele>247.1</ele>
        <time>2025-10-18T09:03:10Z</time>
      </trkpt>
      <trkpt lat="43.21966" lon="5.48284">
        <ele>247.3</ele>
        <time>2025-10-18T09:03:11Z</time>
      </trkpt>
      <trkpt lat="43.21966" lon="5.48284">
        <ele>247.5</ele>
        <time>2025-10-18T09:03:12Z</time>
      </trkpt>
      <trkpt lat="43.21967" lon="5.48284">
        <ele>247.6</ele>
        <time>2025-10-18T09:03:13Z</time>
      </trkpt>
      <trkpt lat="43.21967" lon="5.48284">
        <ele>247.9</ele>
        <time>2025-10-18T09:03:14Z</time>
      </trkpt>
      <trkpt lat="43.21967" lon="5.48285">
        <ele>248.1</ele>
        <time>2025-10-18T09:03:15Z</time>
      </trkpt>
      <trkpt lat="43.21968" lon="5.48284">
        <ele>248.3</ele>
        <time>2025-10-18T09:03:16Z</time>
      </trkpt>
      <trkpt lat="43.21967" lon="5.48284">
        <ele>248.5</ele>
        <time>2025-10-18T09:03:17Z</time>
      </trkpt>
      <trkpt lat="43.21967" lon="5.48284">
        <ele>248.6</ele>
        <time>2025-10-18T09:03:18Z</time>
      </trkpt>
      <trkpt lat="43.21967" lon="5.48283">
        <ele>248.7</ele>
        <time>2025-10-18T09:03:19Z</time>
      </trkpt>
      <trkpt lat="43.21967" lon="5.48283">
        <ele>248.8</ele>
        <time>2025-10-18T09:03:20Z</time>
      </trkpt>
      <trkpt lat="43.21967" lon="5.48282">
        <ele>249</ele>
        <time>2025-10-18T09:03:21Z</time>
      </trkpt>
      <trkpt lat="43.21967" lon="5.48282">
        <ele>249.2</ele>
        <time>2025-10-18T09:03:22Z</time>
      </trkpt>
      <trkpt lat="43.21967" lon="5.48283">
        <ele>249.3</ele>
        <time>2025-10-18T09:03:23Z</time>
      </trkpt>
      <trkpt lat="43.21968" lon="5.48283">
        <ele>249.4</ele>
        <time>2025-10-18T09:03:24Z</time>
      </trkpt>
      <trkpt lat="43.21968" lon="5.48284">
        <ele>249.4</ele>
        <time>2025-10-18T09:03:25Z</time>
      </trkpt>
      <trkpt lat="43.21969" lon="5.48284">
        <ele>249.7</ele>
        <time>2025-10-18T09:03:26Z</time>
      </trkpt>
      <trkpt lat="43.21969" lon="5.48285">
        <ele>250</ele>
        <time>2025-10-18T09:03:27Z</time>
      </trkpt>
      <trkpt lat="43.2197" lon="5.48285">
        <ele>250.1</ele>
        <time>2025-10-18T09:03:28Z</time>
      </trkpt>
      <trkpt lat="43.21971" lon="5.48286">
        <ele>250.3</ele>
        <time>2025-10-18T09:03:29Z</time>
      </trkpt>
      <trkpt lat="43.21971" lon="5.48286">
        <ele>250.5</ele>
        <time>2025-10-18T09:03:30Z</time>
      </trkpt>
      <trkpt lat="43.21972" lon="5.48287">
        <ele>250.7</ele>
        <time>2025-10-18T09:03:31Z</time>
      </trkpt>
      <trkpt lat="43.21973" lon="5.48287">
        <ele>251</ele>
        <time>2025-10-18T09:03:32Z</time>
      </trkpt>
      <trkpt lat="43.21974" lon="5.48287">
        <ele>251.1</ele>
        <time>2025-10-18T09:03:33Z</time>
      </trkpt>
      <trkpt lat="43.21974" lon="5.48286">
        <ele>251.4</ele>
        <time>2025-10-18T09:03:34Z</time>
      </trkpt>
      <trkpt lat="43.21975" lon="5.48287">
        <ele>251.6</ele>
        <time>2025-10-18T09:03:35Z</time>
      </trkpt>
      <trkpt lat="43.21976" lon="5.48287">
        <ele>251.7</ele>
        <time>2025-10-18T09:03:36Z</time>
      </trkpt>
      <trkpt lat="43.21977" lon="5.48286">
        <ele>251.8</ele>
        <time>2025-10-18T09:03:37Z</time>
      </trkpt>
      <trkpt lat="43.21977" lon="5.48287">
        <ele>251.9</ele>
        <time>2025-10-18T09:03:38Z</time>
      </trkpt>
      <trkpt lat="43.21978" lon="5.48286">
        <ele>252.2</ele>
        <time>2025-10-18T09:03:39Z</time>
      </trkpt>
      <trkpt lat="43.21979" lon="5.48286">
        <ele>252.3</ele>
        <time>2025-10-18T09:03:40Z</time>
      </trkpt>
      <trkpt lat="43.21979" lon="5.48285">
        <ele>252.5</ele>
        <time>2025-10-18T09:03:41Z</time>
      </trkpt>
      <trkpt lat="43.2198" lon="5.48285">
        <ele>252.7</ele>
        <time>2025-10-18T09:03:42Z</time>
      </trkpt>
      <trkpt lat="43.21981" lon="5.48285">
        <ele>252.9</ele>
        <time>2025-10-18T09:03:43Z</time>
      </trkpt>
      <trkpt lat="43.21981" lon="5.48284">
        <ele>253.1</ele>
        <time>2025-10-18T09:03:44Z</time>
      </trkpt>
      <trkpt lat="43.21981" lon="5.48285">
        <ele>253.2</ele>
        <time>2025-10-18T09:03:45Z</time>
      </trkpt>
      <trkpt lat="43.21982" lon="5.48284">
        <ele>253.4</ele>
        <time>2025-10-18T09:03:46Z</time>
      </trkpt>
      <trkpt lat="43.21983" lon="5.48284">
        <ele>253.5</ele>
        <time>2025-10-18T09:03:47Z</time>
      </trkpt>
      <trkpt lat="43.21984" lon="5.48284">
        <ele>253.7</ele>
        <time>2025-10-18T09:03:48Z</time>
      </trkpt>
      <trkpt lat="43.21984" lon="5.48283">
        <ele>253.9</ele>
        <time>2025-10-18T09:03:49Z</time>
      </trkpt>
      <trkpt lat="43.21985" lon="5.48283">
        <ele>254</ele>
        <time>2025-10-18T09:03:50Z</time>
      </trkpt>
      <trkpt lat="43.21985" lon="5.48283">
        <ele>254.2</ele>
        <time>2025-10-18T09:03:51Z</time>
      </trkpt>
      <trkpt lat="43.21986" lon="5.48283">
        <ele>254.3</ele>
        <time>2025-10-18T09:03:52Z</time>
      </trkpt>
      <trkpt lat="43.21986" lon="5.48284">
        <ele>254.5</ele>
        <time>2025-10-18T09:03:53Z</time>
      </trkpt>
      <trkpt lat="43.21987" lon="5.48283">
        <ele>254.7</ele>
        <time>2025-10-18T09:03:54Z</time>
      </trkpt>
      <trkpt lat="43.21987" lon="5.48283">
        <ele>254.8</ele>
        <time>2025-10-18T09:03:55Z</time>
      </trkpt>
      <trkpt lat="43.21988" lon="5.48284">
        <ele>255</ele>
        <time>2025-10-18T09:03:56Z</time>
      </trkpt>
      <trkpt lat="43.21988" lon="5.48284">
        <ele>255.1</ele>
        <time>2025-10-18T09:03:57Z</time>
      </trkpt>
      <trkpt lat="43.21989" lon="5.48284">
        <ele>255.3</ele>
        <time>2025-10-18T09:03:58Z</time>
      </trkpt>
      <trkpt lat="43.21989" lon="5.48284">
        <ele>255.4</ele>
        <time>2025-10-18T09:03:59Z</time>
      </trkpt>
      <trkpt lat="43.2199" lon="5.48285">
        <ele>255.5</ele>
        <time>2025-10-18T09:04:00Z</time>
      </trkpt>
      <trkpt lat="43.2199" lon="5.48284">
        <ele>255.7</ele>
        <time>2025-10-18T09:04:01Z</time>
      </trkpt>
      <trkpt lat="43.21991" lon="5.48285">
        <ele>255.9</ele>
        <time>2025-10-18T09:04:02Z</time>
      </trkpt>
      <trkpt lat="43.21991" lon="5.48285">
        <ele>256.1</ele>
        <time>2025-10-18T09:04:03Z</time>
      </trkpt>
      <trkpt lat="43.21992" lon="5.48285">
        <ele>256.3</ele>
        <time>2025-10-18T09:04:04Z</time>
      </trkpt>
      <trkpt lat="43.21992" lon="5.48285">
        <ele>256.6</ele>
        <time>2025-10-18T09:04:05Z</time>
      </trkpt>
      <trkpt lat="43.21993" lon="5.48285">
        <ele>256.7</ele>
        <time>2025-10-18T09:04:06Z</time>
      </trkpt>
      <trkpt lat="43.21993" lon="5.48285">
        <ele>256.9</ele>
        <time>2025-10-18T09:04:07Z</time>
      </trkpt>
      <trkpt lat="43.21993" lon="5.48285">
        <ele>257.1</ele>
        <time>2025-10-18T09:04:08Z</time>
      </trkpt>
      <trkpt lat="43.21994" lon="5.48285">
        <ele>257.4</ele>
        <time>2025-10-18T09:04:09Z</time>
      </trkpt>
      <trkpt lat="43.21994" lon="5.48285">
        <ele>257.6</ele>
        <time>2025-10-18T09:04:10Z</time>
      </trkpt>
      <trkpt lat="43.21994" lon="5.48286">
        <ele>257.7</ele>
        <time>2025-10-18T09:04:11Z</time>
      </trkpt>
      <trkpt lat="43.21994" lon="5.48286">
        <ele>257.9</ele>
        <time>2025-10-18T09:04:12Z</time>
      </trkpt>
      <trkpt lat="43.21995" lon="5.48286">
        <ele>258</ele>
        <time>2025-10-18T09:04:13Z</time>
      </trkpt>
      <trkpt lat="43.21995" lon="5.48287">
        <ele>258.3</ele>
        <time>2025-10-18T09:04:14Z</time>
      </trkpt>
      <trkpt lat="43.21995" lon="5.48286">
        <ele>258.4</ele>
        <time>2025-10-18T09:04:15Z</time>
      </trkpt>
      <trkpt lat="43.21995" lon="5.48286">
        <ele>258.5</ele>
        <time>2025-10-18T09:04:16Z</time>
      </trkpt>
      <trkpt lat="43.21994" lon="5.48286">
        <ele>258.5</ele>
        <time>2025-10-18T09:04:17Z</time>
      </trkpt>
      <trkpt lat="43.21994" lon="5.48286">
        <ele>258.5</ele>
        <time>2025-10-18T09:04:18Z</time>
      </trkpt>
      <trkpt lat="43.21994" lon="5.48286">
        <ele>258.5</ele>
        <time>2025-10-18T09:04:19Z</time>
      </trkpt>
      <trkpt lat="43.21994" lon="5.48285">
        <ele>258.6</ele>
        <time>2025-10-18T09:04:20Z</time>
      </trkpt>
      <trkpt lat="43.21994" lon="5.48285">
        <ele>258.6</ele>
        <time>2025-10-18T09:04:21Z</time>
      </trkpt>
      <trkpt lat="43.21994" lon="5.48286">
        <ele>258.7</ele>
        <time>2025-10-18T09:04:22Z</time>
      </trkpt>
      <trkpt lat="43.21994" lon="5.48287">
        <ele>258.8</ele>
        <time>2025-10-18T09:04:23Z</time>
      </trkpt>
      <trkpt lat="43.21994" lon="5.48287">
        <ele>258.8</ele>
        <time>2025-10-18T09:04:24Z</time>
      </trkpt>
      <trkpt lat="43.21994" lon="5.48288">
        <ele>258.9</ele>
        <time>2025-10-18T09:04:25Z</time>
      </trkpt>
      <trkpt lat="43.21994" lon="5.48289">
        <ele>258.9</ele>
        <time>2025-10-18T09:04:26Z</time>
      </trkpt>
      <trkpt lat="43.21994" lon="5.48289">
        <ele>258.9</ele>
        <time>2025-10-18T09:04:27Z</time>
      </trkpt>
      <trkpt lat="43.21994" lon="5.48289">
        <ele>258.9</ele>
        <time>2025-10-18T09:04:28Z</time>
      </trkpt>
      <trkpt lat="43.21994" lon="5.48289">
        <ele>258.9</ele>
        <time>2025-10-18T09:04:29Z</time>
      </trkpt>
      <trkpt lat="43.21994" lon="5.48289">
        <ele>258.8</ele>
        <time>2025-10-18T09:04:30Z</time>
      </trkpt>
      <trkpt lat="43.21994" lon="5.48289">
        <ele>258.8</ele>
        <time>2025-10-18T09:04:31Z</time>
      </trkpt>
      <trkpt lat="43.21994" lon="5.4829">
        <ele>258.8</ele>
        <time>2025-10-18T09:04:32Z</time>
      </trkpt>
      <trkpt lat="43.21995" lon="5.48289">
        <ele>258.8</ele>
        <time>2025-10-18T09:04:33Z</time>
      </trkpt>
      <trkpt lat="43.21995" lon="5.48288">
        <ele>258.8</ele>
        <time>2025-10-18T09:04:34Z</time>
      </trkpt>
      <trkpt lat="43.21995" lon="5.48287">
        <ele>258.8</ele>
        <time>2025-10-18T09:04:35Z</time>
      </trkpt>
      <trkpt lat="43.21995" lon="5.48287">
        <ele>258.7</ele>
        <time>2025-10-18T09:04:36Z</time>
      </trkpt>
      <trkpt lat="43.21995" lon="5.48287">
        <ele>258.6</ele>
        <time>2025-10-18T09:04:37Z</time>
      </trkpt>
      <trkpt lat="43.21994" lon="5.48287">
        <ele>258.5</ele>
        <time>2025-10-18T09:04:38Z</time>
      </trkpt>
      <trkpt lat="43.21994" lon="5.48287">
        <ele>258.4</ele>
        <time>2025-10-18T09:04:39Z</time>
      </trkpt>
      <trkpt lat="43.21994" lon="5.48286">
        <ele>258.3</ele>
        <time>2025-10-18T09:04:40Z</time>
      </trkpt>
      <trkpt lat="43.21993" lon="5.48286">
        <ele>258.1</ele>
        <time>2025-10-18T09:04:41Z</time>
      </trkpt>
      <trkpt lat="43.21993" lon="5.48286">
        <ele>257.9</ele>
        <time>2025-10-18T09:04:42Z</time>
      </trkpt>
      <trkpt lat="43.21992" lon="5.48285">
        <ele>257.8</ele>
        <time>2025-10-18T09:04:43Z</time>
      </trkpt>
      <trkpt lat="43.21992" lon="5.48285">
        <ele>257.6</ele>
        <time>2025-10-18T09:04:44Z</time>
      </trkpt>
      <trkpt lat="43.21992" lon="5.48284">
        <ele>257.4</ele>
        <time>2025-10-18T09:04:45Z</time>
      </trkpt>
      <trkpt lat="43.21991" lon="5.48284">
        <ele>257.3</ele>
        <time>2025-10-18T09:04:46Z</time>
      </trkpt>
      <trkpt lat="43.21991" lon="5.48284">
        <ele>257.1</ele>
        <time>2025-10-18T09:04:47Z</time>
      </trkpt>
      <trkpt lat="43.2199" lon="5.48284">
        <ele>256.9</ele>
        <time>2025-10-18T09:04:48Z</time>
      </trkpt>
      <trkpt lat="43.2199" lon="5.48284">
        <ele>256.7</ele>
        <time>2025-10-18T09:04:49Z</time>
      </trkpt>
      <trkpt lat="43.21989" lon="5.48284">
        <ele>256.6</ele>
        <time>2025-10-18T09:04:50Z</time>
      </trkpt>
      <trkpt lat="43.21989" lon="5.48284">
        <ele>256.5</ele>
        <time>2025-10-18T09:04:51Z</time>
      </trkpt>
      <trkpt lat="43.21988" lon="5.48284">
        <ele>256.3</ele>
        <time>2025-10-18T09:04:52Z</time>
      </trkpt>
      <trkpt lat="43.21988" lon="5.48284">
        <ele>256.2</ele>
        <time>2025-10-18T09:04:53Z</time>
      </trkpt>
      <trkpt lat="43.21988" lon="5.48284">
        <ele>256</ele>
        <time>2025-10-18T09:04:54Z</time>
      </trkpt>
      <trkpt lat="43.21988" lon="5.48283">
        <ele>255.8</ele>
        <time>2025-10-18T09:04:55Z</time>
      </trkpt>
      <trkpt lat="43.21987" lon="5.48283">
        <ele>255.7</ele>
        <time>2025-10-18T09:04:56Z</time>
      </trkpt>
      <trkpt lat="43.21987" lon="5.48283">
        <ele>255.5</ele>
        <time>2025-10-18T09:04:57Z</time>
      </trkpt>
      <trkpt lat="43.21986" lon="5.48283">
        <ele>255.3</ele>
        <time>2025-10-18T09:04:58Z</time>
      </trkpt>
      <trkpt lat="43.21986" lon="5.48283">
        <ele>255.1</ele>
        <time>2025-10-18T09:04:59Z</time>
      </trkpt>
      <trkpt lat="43.21985" lon="5.48282">
        <ele>254.9</ele>
        <time>2025-10-18T09:05:00Z</time>
      </trkpt>
      <trkpt lat="43.21985" lon="5.48283">
        <ele>254.8</ele>
        <time>2025-10-18T09:05:01Z</time>
      </trkpt>
      <trkpt lat="43.21985" lon="5.48283">
        <ele>254.6</ele>
        <time>2025-10-18T09:05:02Z</time>
      </trkpt>
      <trkpt lat="43.21984" lon="5.48283">
        <ele>254.4</ele>
        <time>2025-10-18T09:05:03Z</time>
      </trkpt>
      <trkpt lat="43.21983" lon="5.48284">
        <ele>254.2</ele>
        <time>2025-10-18T09:05:04Z</time>
      </trkpt>
      <trkpt lat="43.21982" lon="5.48284">
        <ele>254</ele>
        <time>2025-10-18T09:05:05Z</time>
      </trkpt>
      <trkpt lat="43.21982" lon="5.48285">
        <ele>253.8</ele>
        <time>2025-10-18T09:05:06Z</time>
      </trkpt>
      <trkpt lat="43.21981" lon="5.48284">
        <ele>253.6</ele>
        <time>2025-10-18T09:05:07Z</time>
      </trkpt>
      <trkpt lat="43.21981" lon="5.48284">
        <ele>253.4</ele>
        <time>2025-10-18T09:05:08Z</time>
      </trkpt>
      <trkpt lat="43.2198" lon="5.48284">
        <ele>253.2</ele>
        <time>2025-10-18T09:05:09Z</time>
      </trkpt>
      <trkpt lat="43.2198" lon="5.48284">
        <ele>253</ele>
        <time>2025-10-18T09:05:10Z</time>
      </trkpt>
      <trkpt lat="43.2198" lon="5.48284">
        <ele>252.8</ele>
        <time>2025-10-18T09:05:11Z</time>
      </trkpt>
      <trkpt lat="43.2198" lon="5.48284">
        <ele>252.7</ele>
        <time>2025-10-18T09:05:12Z</time>
      </trkpt>
      <trkpt lat="43.21979" lon="5.48284">
        <ele>252.6</ele>
        <time>2025-10-18T09:05:13Z</time>
      </trkpt>
      <trkpt lat="43.21979" lon="5.48285">
        <ele>252.5</ele>
        <time>2025-10-18T09:05:14Z</time>
      </trkpt>
      <trkpt lat="43.21978" lon="5.48285">
        <ele>252.4</ele>
        <time>2025-10-18T09:05:15Z</time>
      </trkpt>
      <trkpt lat="43.21978" lon="5.48286">
        <ele>252.3</ele>
        <time>2025-10-18T09:05:16Z</time>
      </trkpt>
      <trkpt lat="43.21978" lon="5.48285">
        <ele>252.1</ele>
        <time>2025-10-18T09:05:17Z</time>
      </trkpt>
      <trkpt lat="43.21977" lon="5.48285">
        <ele>252</ele>
        <time>2025-10-18T09:05:18Z</time>
      </trkpt>
      <trkpt lat="43.21977" lon="5.48285">
        <ele>251.9</ele>
        <time>2025-10-18T09:05:19Z</time>
      </trkpt>
      <trkpt lat="43.21977" lon="5.48285">
        <ele>251.7</ele>
        <time>2025-10-18T09:05:20Z</time>
      </trkpt>
      <trkpt lat="43.21976" lon="5.48284">
        <ele>251.5</ele>
        <time>2025-10-18T09:05:21Z</time>
      </trkpt>
      <trkpt lat="43.21976" lon="5.48284">
        <ele>251.3</ele>
        <time>2025-10-18T09:05:22Z</time>
      </trkpt>
      <trkpt lat="43.21975" lon="5.48285">
        <ele>251</ele>
        <time>2025-10-18T09:05:23Z</time>
      </trkpt>
      <trkpt lat="43.21975" lon="5.48285">
        <ele>250.9</ele>
        <time>2025-10-18T09:05:24Z</time>
      </trkpt>
      <trkpt lat="43.21975" lon="5.48284">
        <ele>250.7</ele>
        <time>2025-10-18T09:05:25Z</time>
      </trkpt>
      <trkpt lat="43.21975" lon="5.48284">
        <ele>250.6</ele>
        <time>2025-10-18T09:05:26Z</time>
      </trkpt>
      <trkpt lat="43.21975" lon="5.48284">
        <ele>250.5</ele>
        <time>2025-10-18T09:05:27Z</time>
      </trkpt>
      <trkpt lat="43.21975" lon="5.48285">
        <ele>250.4</ele>
        <time>2025-10-18T09:05:28Z</time>
      </trkpt>
      <trkpt lat="43.21975" lon="5.48285">
        <ele>250.3</ele>
        <time>2025-10-18T09:05:29Z</time>
      </trkpt>
      <trkpt lat="43.21975" lon="5.48285">
        <ele>250.2</ele>
        <time>2025-10-18T09:05:30Z</time>
      </trkpt>
      <trkpt lat="43.21975" lon="5.48285">
        <ele>250.1</ele>
        <time>2025-10-18T09:05:31Z</time>
      </trkpt>
      <trkpt lat="43.21974" lon="5.48285">
        <ele>250</ele>
        <time>2025-10-18T09:05:32Z</time>
      </trkpt>
      <trkpt lat="43.21974" lon="5.48284">
        <ele>249.9</ele>
        <time>2025-10-18T09:05:33Z</time>
      </trkpt>
      <trkpt lat="43.21975" lon="5.48283">
        <ele>249.8</ele>
        <time>2025-10-18T09:05:34Z</time>
      </trkpt>
      <trkpt lat="43.21974" lon="5.48283">
        <ele>249.7</ele>
        <time>2025-10-18T09:05:35Z</time>
      </trkpt>
      <trkpt lat="43.21974" lon="5.48282">
        <ele>249.6</ele>
        <time>2025-10-18T09:05:36Z</time>
      </trkpt>
      <trkpt lat="43.21974" lon="5.48282">
        <ele>249.5</ele>
        <time>2025-10-18T09:05:37Z</time>
      </trkpt>
      <trkpt lat="43.21975" lon="5.48282">
        <ele>249.3</ele>
        <time>2025-10-18T09:05:38Z</time>
      </trkpt>
      <trkpt lat="43.21975" lon="5.48281">
        <ele>249.1</ele>
        <time>2025-10-18T09:05:39Z</time>
      </trkpt>
      <trkpt lat="43.21976" lon="5.4828">
        <ele>249</ele>
        <time>2025-10-18T09:05:40Z</time>
      </trkpt>
      <trkpt lat="43.21976" lon="5.48281">
        <ele>248.9</ele>
        <time>2025-10-18T09:05:41Z</time>
      </trkpt>
      <trkpt lat="43.21977" lon="5.4828">
        <ele>248.9</ele>
        <time>2025-10-18T09:05:42Z</time>
      </trkpt>
      <trkpt lat="43.21978" lon="5.4828">
        <ele>248.9</ele>
        <time>2025-10-18T09:05:43Z</time>
      </trkpt>
      <trkpt lat="43.21978" lon="5.48279">
        <ele>248.9</ele>
        <time>2025-10-18T09:05:44Z</time>
      </trkpt>
      <trkpt lat="43.21979" lon="5.48279">
        <ele>248.8</ele>
        <time>2025-10-18T09:05:45Z</time>
      </trkpt>
      <trkpt lat="43.21979" lon="5.48278">
        <ele>248.8</ele>
        <time>2025-10-18T09:05:46Z</time>
      </trkpt>
      <trkpt lat="43.2198" lon="5.48277">
        <ele>248.8</ele>
        <time>2025-10-18T09:05:47Z</time>
      </trkpt>
      <trkpt lat="43.2198" lon="5.48276">
        <ele>248.8</ele>
        <time>2025-10-18T09:05:48Z</time>
      </trkpt>
      <trkpt lat="43.21981" lon="5.48275">
        <ele>248.8</ele>
        <time>2025-10-18T09:05:49Z</time>
      </trkpt>
      <trkpt lat="43.21981" lon="5.48274">
        <ele>248.8</ele>
        <time>2025-10-18T09:05:50Z</time>
      </trkpt>
      <trkpt lat="43.21981" lon="5.48274">
        <ele>248.8</ele>
        <time>2025-10-18T09:05:51Z</time>
      </trkpt>
      <trkpt lat="43.21982" lon="5.48273">
        <ele>248.8</ele>
        <time>2025-10-18T09:05:52Z</time>
      </trkpt>
      <trkpt lat="43.21982" lon="5.48273">
        <ele>248.8</ele>
        <time>2025-10-18T09:05:53Z</time>
      </trkpt>
      <trkpt lat="43.21983" lon="5.48272">
        <ele>248.8</ele>
        <time>2025-10-18T09:05:54Z</time>
      </trkpt>
      <trkpt lat="43.21983" lon="5.48271">
        <ele>249</ele>
        <time>2025-10-18T09:05:55Z</time>
      </trkpt>
      <trkpt lat="43.21984" lon="5.48271">
        <ele>249.1</ele>
        <time>2025-10-18T09:05:56Z</time>
      </trkpt>
      <trkpt lat="43.21984" lon="5.4827">
        <ele>249.1</ele>
        <time>2025-10-18T09:05:57Z</time>
      </trkpt>
      <trkpt lat="43.21985" lon="5.48269">
        <ele>249.2</ele>
        <time>2025-10-18T09:05:58Z</time>
      </trkpt>
      <trkpt lat="43.21986" lon="5.48269">
        <ele>249.2</ele>
        <time>2025-10-18T09:05:59Z</time>
      </trkpt>
      <trkpt lat="43.21986" lon="5.48268">
        <ele>249.2</ele>
        <time>2025-10-18T09:06:00Z</time>
      </trkpt>
      <trkpt lat="43.21987" lon="5.48268">
        <ele>249.2</ele>
        <time>2025-10-18T09:06:01Z</time>
      </trkpt>
      <trkpt lat="43.21987" lon="5.48268">
        <ele>249.2</ele>
        <time>2025-10-18T09:06:02Z</time>
      </trkpt>
      <trkpt lat="43.21988" lon="5.48268">
        <ele>249.2</ele>
        <time>2025-10-18T09:06:03Z</time>
      </trkpt>
      <trkpt lat="43.21989" lon="5.48268">
        <ele>249.1</ele>
        <time>2025-10-18T09:06:04Z</time>
      </trkpt>
      <trkpt lat="43.21989" lon="5.48268">
        <ele>249.1</ele>
        <time>2025-10-18T09:06:05Z</time>
      </trkpt>
      <trkpt lat="43.2199" lon="5.48267">
        <ele>249.1</ele>
        <time>2025-10-18T09:06:06Z</time>
      </trkpt>
      <trkpt lat="43.2199" lon="5.48267">
        <ele>249</ele>
        <time>2025-10-18T09:06:07Z</time>
      </trkpt>
      <trkpt lat="43.21991" lon="5.48267">
        <ele>248.9</ele>
        <time>2025-10-18T09:06:08Z</time>
      </trkpt>
      <trkpt lat="43.21992" lon="5.48266">
        <ele>248.8</ele>
        <time>2025-10-18T09:06:09Z</time>
      </trkpt>
      <trkpt lat="43.21992" lon="5.48266">
        <ele>248.7</ele>
        <time>2025-10-18T09:06:10Z</time>
      </trkpt>
      <trkpt lat="43.21993" lon="5.48265">
        <ele>248.6</ele>
        <time>2025-10-18T09:06:11Z</time>
      </trkpt>
      <trkpt lat="43.21994" lon="5.48264">
        <ele>248.6</ele>
        <time>2025-10-18T09:06:12Z</time>
      </trkpt>
      <trkpt lat="43.21995" lon="5.48263">
        <ele>248.5</ele>
        <time>2025-10-18T09:06:13Z</time>
      </trkpt>
      <trkpt lat="43.21995" lon="5.48262">
        <ele>248.4</ele>
        <time>2025-10-18T09:06:14Z</time>
      </trkpt>
      <trkpt lat="43.21995" lon="5.48262">
        <ele>248.3</ele>
        <time>2025-10-18T09:06:15Z</time>
      </trkpt>
      <trkpt lat="43.21995" lon="5.48261">
        <ele>248.2</ele>
        <time>2025-10-18T09:06:16Z</time>
      </trkpt>
      <trkpt lat="43.21996" lon="5.48261">
        <ele>248.2</ele>
        <time>2025-10-18T09:06:17Z</time>
      </trkpt>
      <trkpt lat="43.21996" lon="5.48261">
        <ele>248.2</ele>
        <time>2025-10-18T09:06:18Z</time>
      </trkpt>
      <trkpt lat="43.21997" lon="5.4826">
        <ele>248.3</ele>
        <time>2025-10-18T09:06:19Z</time>
      </trkpt>
      <trkpt lat="43.21997" lon="5.4826">
        <ele>248.2</ele>
        <time>2025-10-18T09:06:20Z</time>
      </trkpt>
      <trkpt lat="43.21998" lon="5.48259">
        <ele>248.2</ele>
        <time>2025-10-18T09:06:21Z</time>
      </trkpt>
      <trkpt lat="43.21999" lon="5.48259">
        <ele>248.2</ele>
        <time>2025-10-18T09:06:22Z</time>
      </trkpt>
      <trkpt lat="43.22" lon="5.48258">
        <ele>248.1</ele>
        <time>2025-10-18T09:06:23Z</time>
      </trkpt>
      <trkpt lat="43.22002" lon="5.48257">
        <ele>247.5</ele>
        <time>2025-10-18T09:06:24Z</time>
      </trkpt>
      <trkpt lat="43.22002" lon="5.48257">
        <ele>247.4</ele>
        <time>2025-10-18T09:06:25Z</time>
      </trkpt>
      <trkpt lat="43.22003" lon="5.48257">
        <ele>247.2</ele>
        <time>2025-10-18T09:06:26Z</time>
      </trkpt>
      <trkpt lat="43.22004" lon="5.48257">
        <ele>247</ele>
        <time>2025-10-18T09:06:27Z</time>
      </trkpt>
      <trkpt lat="43.22005" lon="5.48257">
        <ele>247</ele>
        <time>2025-10-18T09:06:28Z</time>
      </trkpt>
      <trkpt lat="43.22005" lon="5.48258">
        <ele>246.9</ele>
        <time>2025-10-18T09:06:29Z</time>
      </trkpt>
      <trkpt lat="43.22006" lon="5.48258">
        <ele>246.7</ele>
        <time>2025-10-18T09:06:30Z</time>
      </trkpt>
      <trkpt lat="43.22007" lon="5.48258">
        <ele>246.6</ele>
        <time>2025-10-18T09:06:31Z</time>
      </trkpt>
      <trkpt lat="43.22007" lon="5.48258">
        <ele>246.6</ele>
        <time>2025-10-18T09:06:32Z</time>
      </trkpt>
      <trkpt lat="43.22008" lon="5.48258">
        <ele>246.6</ele>
        <time>2025-10-18T09:06:33Z</time>
      </trkpt>
      <trkpt lat="43.2201" lon="5.48258">
        <ele>246.8</ele>
        <time>2025-10-18T09:06:34Z</time>
      </trkpt>
      <trkpt lat="43.22011" lon="5.48258">
        <ele>246.7</ele>
        <time>2025-10-18T09:06:35Z</time>
      </trkpt>
      <trkpt lat="43.22012" lon="5.48258">
        <ele>246.6</ele>
        <time>2025-10-18T09:06:36Z</time>
      </trkpt>
      <trkpt lat="43.22013" lon="5.48257">
        <ele>246.5</ele>
        <time>2025-10-18T09:06:37Z</time>
      </trkpt>
      <trkpt lat="43.22014" lon="5.48256">
        <ele>246.3</ele>
        <time>2025-10-18T09:06:38Z</time>
      </trkpt>
      <trkpt lat="43.22014" lon="5.48255">
        <ele>246.2</ele>
        <time>2025-10-18T09:06:39Z</time>
      </trkpt>
      <trkpt lat="43.22014" lon="5.48255">
        <ele>245.9</ele>
        <time>2025-10-18T09:06:40Z</time>
      </trkpt>
      <trkpt lat="43.22014" lon="5.48255">
        <ele>245.8</ele>
        <time>2025-10-18T09:06:41Z</time>
      </trkpt>
      <trkpt lat="43.22015" lon="5.48254">
        <ele>245.6</ele>
        <time>2025-10-18T09:06:42Z</time>
      </trkpt>
      <trkpt lat="43.22015" lon="5.48252">
        <ele>245.5</ele>
        <time>2025-10-18T09:06:43Z</time>
      </trkpt>
      <trkpt lat="43.22015" lon="5.48252">
        <ele>245.5</ele>
        <time>2025-10-18T09:06:44Z</time>
      </trkpt>
      <trkpt lat="43.22015" lon="5.48251">
        <ele>245.4</ele>
        <time>2025-10-18T09:06:45Z</time>
      </trkpt>
      <trkpt lat="43.22015" lon="5.4825">
        <ele>245.4</ele>
        <time>2025-10-18T09:06:46Z</time>
      </trkpt>
      <trkpt lat="43.22016" lon="5.48249">
        <ele>245.3</ele>
        <time>2025-10-18T09:06:47Z</time>
      </trkpt>
      <trkpt lat="43.22016" lon="5.48249">
        <ele>245.3</ele>
        <time>2025-10-18T09:06:48Z</time>
      </trkpt>
      <trkpt lat="43.22016" lon="5.48249">
        <ele>245.3</ele>
        <time>2025-10-18T09:06:49Z</time>
      </trkpt>
      <trkpt lat="43.22016" lon="5.48248">
        <ele>245.3</ele>
        <time>2025-10-18T09:06:50Z</time>
      </trkpt>
      <trkpt lat="43.22017" lon="5.48248">
        <ele>245.3</ele>
        <time>2025-10-18T09:06:51Z</time>
      </trkpt>
      <trkpt lat="43.22017" lon="5.48248">
        <ele>245.2</ele>
        <time>2025-10-18T09:06:52Z</time>
      </trkpt>
      <trkpt lat="43.22017" lon="5.48248">
        <ele>245.1</ele>
        <time>2025-10-18T09:06:53Z</time>
      </trkpt>
      <trkpt lat="43.22017" lon="5.48248">
        <ele>245.2</ele>
        <time>2025-10-18T09:06:54Z</time>
      </trkpt>
      <trkpt lat="43.22018" lon="5.48248">
        <ele>245.2</ele>
        <time>2025-10-18T09:06:55Z</time>
      </trkpt>
      <trkpt lat="43.22018" lon="5.48247">
        <ele>245.2</ele>
        <time>2025-10-18T09:06:56Z</time>
      </trkpt>
      <trkpt lat="43.22018" lon="5.48247">
        <ele>245.2</ele>
        <time>2025-10-18T09:06:57Z</time>
      </trkpt>
      <trkpt lat="43.22018" lon="5.48247">
        <ele>245.2</ele>
        <time>2025-10-18T09:06:58Z</time>
      </trkpt>
      <trkpt lat="43.22018" lon="5.48246">
        <ele>245.2</ele>
        <time>2025-10-18T09:06:59Z</time>
      </trkpt>
      <trkpt lat="43.22019" lon="5.48246">
        <ele>245.2</ele>
        <time>2025-10-18T09:07:00Z</time>
      </trkpt>
      <trkpt lat="43.22019" lon="5.48246">
        <ele>245.2</ele>
        <time>2025-10-18T09:07:01Z</time>
      </trkpt>
      <trkpt lat="43.22019" lon="5.48245">
        <ele>245.1</ele>
        <time>2025-10-18T09:07:02Z</time>
      </trkpt>
      <trkpt lat="43.22019" lon="5.48245">
        <ele>245</ele>
        <time>2025-10-18T09:07:03Z</time>
      </trkpt>
      <trkpt lat="43.22018" lon="5.48245">
        <ele>244.9</ele>
        <time>2025-10-18T09:07:04Z</time>
      </trkpt>
      <trkpt lat="43.22019" lon="5.48246">
        <ele>244.9</ele>
        <time>2025-10-18T09:07:05Z</time>
      </trkpt>
      <trkpt lat="43.22019" lon="5.48246">
        <ele>244.9</ele>
        <time>2025-10-18T09:07:06Z</time>
      </trkpt>
      <trkpt lat="43.22019" lon="5.48246">
        <ele>244.9</ele>
        <time>2025-10-18T09:07:07Z</time>
      </trkpt>
      <trkpt lat="43.22019" lon="5.48246">
        <ele>244.9</ele>
        <time>2025-10-18T09:07:08Z</time>
      </trkpt>
      <trkpt lat="43.22019" lon="5.48246">
        <ele>244.8</ele>
        <time>2025-10-18T09:07:09Z</time>
      </trkpt>
      <trkpt lat="43.22019" lon="5.48246">
        <ele>244.7</ele>
        <time>2025-10-18T09:07:10Z</time>
      </trkpt>
      <trkpt lat="43.22019" lon="5.48246">
        <ele>244.6</ele>
        <time>2025-10-18T09:07:11Z</time>
      </trkpt>
      <trkpt lat="43.22019" lon="5.48246">
        <ele>244.6</ele>
        <time>2025-10-18T09:07:12Z</time>
      </trkpt>
      <trkpt lat="43.22019" lon="5.48246">
        <ele>244.6</ele>
        <time>2025-10-18T09:07:13Z</time>
      </trkpt>
      <trkpt lat="43.22019" lon="5.48247">
        <ele>244.6</ele>
        <time>2025-10-18T09:07:14Z</time>
      </trkpt>
      <trkpt lat="43.22019" lon="5.48246">
        <ele>244.5</ele>
        <time>2025-10-18T09:07:15Z</time>
      </trkpt>
      <trkpt lat="43.22019" lon="5.48247">
        <ele>244.5</ele>
        <time>2025-10-18T09:07:16Z</time>
      </trkpt>
      <trkpt lat="43.22019" lon="5.48246">
        <ele>244.4</ele>
        <time>2025-10-18T09:07:17Z</time>
      </trkpt>
      <trkpt lat="43.22019" lon="5.48246">
        <ele>244.6</ele>
        <time>2025-10-18T09:07:18Z</time>
      </trkpt>
      <trkpt lat="43.22019" lon="5.48246">
        <ele>244.7</ele>
        <time>2025-10-18T09:07:19Z</time>
      </trkpt>
      <trkpt lat="43.22019" lon="5.48247">
        <ele>244.8</ele>
        <time>2025-10-18T09:07:20Z</time>
      </trkpt>
      <trkpt lat="43.2202" lon="5.48247">
        <ele>244.8</ele>
        <time>2025-10-18T09:07:21Z</time>
      </trkpt>
      <trkpt lat="43.2202" lon="5.48247">
        <ele>244.8</ele>
        <time>2025-10-18T09:07:22Z</time>
      </trkpt>
      <trkpt lat="43.22019" lon="5.48246">
        <ele>244.8</ele>
        <time>2025-10-18T09:07:23Z</time>
      </trkpt>
      <trkpt lat="43.22019" lon="5.48246">
        <ele>244.8</ele>
        <time>2025-10-18T09:07:24Z</time>
      </trkpt>
      <trkpt lat="43.22019" lon="5.48245">
        <ele>244.8</ele>
        <time>2025-10-18T09:07:25Z</time>
      </trkpt>
      <trkpt lat="43.22019" lon="5.48244">
        <ele>244.8</ele>
        <time>2025-10-18T09:07:26Z</time>
      </trkpt>
      <trkpt lat="43.22019" lon="5.48244">
        <ele>244.7</ele>
        <time>2025-10-18T09:07:27Z</time>
      </trkpt>
      <trkpt lat="43.22019" lon="5.48244">
        <ele>244.7</ele>
        <time>2025-10-18T09:07:28Z</time>
      </trkpt>
      <trkpt lat="43.22019" lon="5.48243">
        <ele>244.7</ele>
        <time>2025-10-18T09:07:29Z</time>
      </trkpt>
      <trkpt lat="43.22019" lon="5.48242">
        <ele>244.8</ele>
        <time>2025-10-18T09:07:30Z</time>
      </trkpt>
      <trkpt lat="43.22019" lon="5.48242">
        <ele>244.8</ele>
        <time>2025-10-18T09:07:31Z</time>
      </trkpt>
      <trkpt lat="43.22018" lon="5.48241">
        <ele>244.8</ele>
        <time>2025-10-18T09:07:32Z</time>
      </trkpt>
      <trkpt lat="43.22018" lon="5.48241">
        <ele>244.8</ele>
        <time>2025-10-18T09:07:33Z</time>
      </trkpt>
      <trkpt lat="43.22018" lon="5.48241">
        <ele>244.8</ele>
        <time>2025-10-18T09:07:34Z</time>
      </trkpt>
      <trkpt lat="43.22018" lon="5.48241">
        <ele>244.8</ele>
        <time>2025-10-18T09:07:35Z</time>
      </trkpt>
      <trkpt lat="43.22018" lon="5.48241">
        <ele>244.9</ele>
        <time>2025-10-18T09:07:36Z</time>
      </trkpt>
      <trkpt lat="43.22018" lon="5.48241">
        <ele>244.9</ele>
        <time>2025-10-18T09:07:37Z</time>
      </trkpt>
      <trkpt lat="43.22017" lon="5.48241">
        <ele>244.9</ele>
        <time>2025-10-18T09:07:38Z</time>
      </trkpt>
      <trkpt lat="43.22017" lon="5.4824">
        <ele>244.9</ele>
        <time>2025-10-18T09:07:39Z</time>
      </trkpt>
      <trkpt lat="43.22017" lon="5.4824">
        <ele>244.9</ele>
        <time>2025-10-18T09:07:40Z</time>
      </trkpt>
      <trkpt lat="43.22017" lon="5.4824">
        <ele>244.8</ele>
        <time>2025-10-18T09:07:41Z</time>
      </trkpt>
      <trkpt lat="43.22018" lon="5.4824">
        <ele>244.8</ele>
        <time>2025-10-18T09:07:42Z</time>
      </trkpt>
      <trkpt lat="43.22017" lon="5.4824">
        <ele>244.7</ele>
        <time>2025-10-18T09:07:43Z</time>
      </trkpt>
      <trkpt lat="43.22017" lon="5.4824">
        <ele>244.7</ele>
        <time>2025-10-18T09:07:44Z</time>
      </trkpt>
      <trkpt lat="43.22018" lon="5.4824">
        <ele>244.7</ele>
        <time>2025-10-18T09:07:45Z</time>
      </trkpt>
      <trkpt lat="43.22017" lon="5.48239">
        <ele>244.7</ele>
        <time>2025-10-18T09:07:46Z</time>
      </trkpt>
      <trkpt lat="43.22017" lon="5.48238">
        <ele>244.7</ele>
        <time>2025-10-18T09:07:47Z</time>
      </trkpt>
      <trkpt lat="43.22017" lon="5.48238">
        <ele>244.7</ele>
        <time>2025-10-18T09:07:48Z</time>
      </trkpt>
      <trkpt lat="43.22017" lon="5.48238">
        <ele>244.8</ele>
        <time>2025-10-18T09:07:49Z</time>
      </trkpt>
      <trkpt lat="43.22017" lon="5.48238">
        <ele>244.8</ele>
        <time>2025-10-18T09:07:50Z</time>
      </trkpt>
      <trkpt lat="43.22017" lon="5.48238">
        <ele>244.8</ele>
        <time>2025-10-18T09:07:51Z</time>
      </trkpt>
      <trkpt lat="43.22017" lon="5.48238">
        <ele>244.9</ele>
        <time>2025-10-18T09:07:52Z</time>
      </trkpt>
      <trkpt lat="43.22017" lon="5.48238">
        <ele>244.8</ele>
        <time>2025-10-18T09:07:53Z</time>
      </trkpt>
      <trkpt lat="43.22017" lon="5.48238">
        <ele>244.8</ele>
        <time>2025-10-18T09:07:54Z</time>
      </trkpt>
      <trkpt lat="43.22017" lon="5.48238">
        <ele>244.7</ele>
        <time>2025-10-18T09:07:55Z</time>
      </trkpt>
      <trkpt lat="43.22017" lon="5.48238">
        <ele>244.7</ele>
        <time>2025-10-18T09:07:56Z</time>
      </trkpt>
      <trkpt lat="43.22017" lon="5.48238">
        <ele>244.7</ele>
        <time>2025-10-18T09:07:57Z</time>
      </trkpt>
      <trkpt lat="43.22017" lon="5.48238">
        <ele>244.7</ele>
        <time>2025-10-18T09:07:58Z</time>
      </trkpt>
      <trkpt lat="43.22017" lon="5.48238">
        <ele>244.7</ele>
        <time>2025-10-18T09:07:59Z</time>
      </trkpt>
      <trkpt lat="43.22017" lon="5.48237">
        <ele>244.7</ele>
        <time>2025-10-18T09:08:00Z</time>
      </trkpt>
      <trkpt lat="43.22017" lon="5.48237">
        <ele>244.6</ele>
        <time>2025-10-18T09:08:01Z</time>
      </trkpt>
      <trkpt lat="43.22017" lon="5.48237">
        <ele>244.6</ele>
        <time>2025-10-18T09:08:02Z</time>
      </trkpt>
      <trkpt lat="43.22017" lon="5.48237">
        <ele>244.7</ele>
        <time>2025-10-18T09:08:03Z</time>
      </trkpt>
      <trkpt lat="43.22017" lon="5.48237">
        <ele>244.7</ele>
        <time>2025-10-18T09:08:04Z</time>
      </trkpt>
      <trkpt lat="43.22016" lon="5.48238">
        <ele>244.7</ele>
        <time>2025-10-18T09:08:05Z</time>
      </trkpt>
      <trkpt lat="43.22017" lon="5.4824">
        <ele>244.6</ele>
        <time>2025-10-18T09:08:06Z</time>
      </trkpt>
      <trkpt lat="43.22017" lon="5.48241">
        <ele>244.6</ele>
        <time>2025-10-18T09:08:07Z</time>
      </trkpt>
      <trkpt lat="43.22018" lon="5.48241">
        <ele>244.6</ele>
        <time>2025-10-18T09:08:08Z</time>
      </trkpt>
      <trkpt lat="43.22018" lon="5.48241">
        <ele>244.6</ele>
        <time>2025-10-18T09:08:09Z</time>
      </trkpt>
      <trkpt lat="43.22018" lon="5.48241">
        <ele>244.6</ele>
        <time>2025-10-18T09:08:10Z</time>
      </trkpt>
      <trkpt lat="43.22018" lon="5.48241">
        <ele>244.6</ele>
        <time>2025-10-18T09:08:11Z</time>
      </trkpt>
      <trkpt lat="43.22019" lon="5.48243">
        <ele>244.6</ele>
        <time>2025-10-18T09:08:12Z</time>
      </trkpt>
      <trkpt lat="43.22019" lon="5.48244">
        <ele>244.6</ele>
        <time>2025-10-18T09:08:13Z</time>
      </trkpt>
      <trkpt lat="43.22019" lon="5.48245">
        <ele>244.7</ele>
        <time>2025-10-18T09:08:14Z</time>
      </trkpt>
      <trkpt lat="43.2202" lon="5.48245">
        <ele>244.6</ele>
        <time>2025-10-18T09:08:15Z</time>
      </trkpt>
      <trkpt lat="43.2202" lon="5.48246">
        <ele>244.6</ele>
        <time>2025-10-18T09:08:16Z</time>
      </trkpt>
      <trkpt lat="43.2202" lon="5.48246">
        <ele>244.5</ele>
        <time>2025-10-18T09:08:17Z</time>
      </trkpt>
      <trkpt lat="43.2202" lon="5.48246">
        <ele>244.5</ele>
        <time>2025-10-18T09:08:18Z</time>
      </trkpt>
      <trkpt lat="43.2202" lon="5.48246">
        <ele>244.4</ele>
        <time>2025-10-18T09:08:19Z</time>
      </trkpt>
      <trkpt lat="43.22021" lon="5.48246">
        <ele>244.4</ele>
        <time>2025-10-18T09:08:20Z</time>
      </trkpt>
      <trkpt lat="43.22021" lon="5.48246">
        <ele>244.4</ele>
        <time>2025-10-18T09:08:21Z</time>
      </trkpt>
      <trkpt lat="43.22021" lon="5.48247">
        <ele>244.4</ele>
        <time>2025-10-18T09:08:22Z</time>
      </trkpt>
      <trkpt lat="43.22021" lon="5.48247">
        <ele>244.4</ele>
        <time>2025-10-18T09:08:23Z</time>
      </trkpt>
      <trkpt lat="43.22021" lon="5.48247">
        <ele>244.4</ele>
        <time>2025-10-18T09:08:24Z</time>
      </trkpt>
      <trkpt lat="43.22021" lon="5.48247">
        <ele>244.6</ele>
        <time>2025-10-18T09:08:25Z</time>
      </trkpt>
      <trkpt lat="43.22021" lon="5.48247">
        <ele>244.6</ele>
        <time>2025-10-18T09:08:26Z</time>
      </trkpt>
      <trkpt lat="43.22021" lon="5.48247">
        <ele>244.7</ele>
        <time>2025-10-18T09:08:27Z</time>
      </trkpt>
      <trkpt lat="43.22021" lon="5.48247">
        <ele>244.9</ele>
        <time>2025-10-18T09:08:28Z</time>
      </trkpt>
      <trkpt lat="43.22022" lon="5.48246">
        <ele>244.8</ele>
        <time>2025-10-18T09:08:29Z</time>
      </trkpt>
      <trkpt lat="43.22022" lon="5.48245">
        <ele>244.8</ele>
        <time>2025-10-18T09:08:30Z</time>
      </trkpt>
      <trkpt lat="43.22023" lon="5.48244">
        <ele>244.7</ele>
        <time>2025-10-18T09:08:31Z</time>
      </trkpt>
      <trkpt lat="43.22023" lon="5.48244">
        <ele>244.6</ele>
        <time>2025-10-18T09:08:32Z</time>
      </trkpt>
      <trkpt lat="43.22023" lon="5.48243">
        <ele>244.4</ele>
        <time>2025-10-18T09:08:33Z</time>
      </trkpt>
      <trkpt lat="43.22023" lon="5.48242">
        <ele>244.2</ele>
        <time>2025-10-18T09:08:34Z</time>
      </trkpt>
      <trkpt lat="43.22023" lon="5.48241">
        <ele>244</ele>
        <time>2025-10-18T09:08:35Z</time>
      </trkpt>
      <trkpt lat="43.22024" lon="5.4824">
        <ele>243.7</ele>
        <time>2025-10-18T09:08:36Z</time>
      </trkpt>
      <trkpt lat="43.22024" lon="5.48239">
        <ele>243.4</ele>
        <time>2025-10-18T09:08:37Z</time>
      </trkpt>
      <trkpt lat="43.22024" lon="5.48239">
        <ele>243</ele>
        <time>2025-10-18T09:08:38Z</time>
      </trkpt>
      <trkpt lat="43.22023" lon="5.48239">
        <ele>242.7</ele>
        <time>2025-10-18T09:08:39Z</time>
      </trkpt>
      <trkpt lat="43.22023" lon="5.48238">
        <ele>242.5</ele>
        <time>2025-10-18T09:08:40Z</time>
      </trkpt>
      <trkpt lat="43.22023" lon="5.48237">
        <ele>242.2</ele>
        <time>2025-10-18T09:08:41Z</time>
      </trkpt>
      <trkpt lat="43.22023" lon="5.48236">
        <ele>242</ele>
        <time>2025-10-18T09:08:42Z</time>
      </trkpt>
      <trkpt lat="43.22023" lon="5.48237">
        <ele>241.8</ele>
        <time>2025-10-18T09:08:43Z</time>
      </trkpt>
      <trkpt lat="43.22022" lon="5.48237">
        <ele>241.5</ele>
        <time>2025-10-18T09:08:44Z</time>
      </trkpt>
      <trkpt lat="43.22022" lon="5.48237">
        <ele>241.4</ele>
        <time>2025-10-18T09:08:45Z</time>
      </trkpt>
      <trkpt lat="43.22022" lon="5.48238">
        <ele>241.2</ele>
        <time>2025-10-18T09:08:46Z</time>
      </trkpt>
      <trkpt lat="43.22022" lon="5.48238">
        <ele>241.1</ele>
        <time>2025-10-18T09:08:47Z</time>
      </trkpt>
      <trkpt lat="43.22022" lon="5.48238">
        <ele>241</ele>
        <time>2025-10-18T09:08:48Z</time>
      </trkpt>
      <trkpt lat="43.22022" lon="5.48238">
        <ele>240.9</ele>
        <time>2025-10-18T09:08:49Z</time>
      </trkpt>
      <trkpt lat="43.22022" lon="5.48238">
        <ele>240.8</ele>
        <time>2025-10-18T09:08:50Z</time>
      </trkpt>
      <trkpt lat="43.22023" lon="5.48238">
        <ele>240.8</ele>
        <time>2025-10-18T09:08:51Z</time>
      </trkpt>
      <trkpt lat="43.22023" lon="5.48238">
        <ele>240.7</ele>
        <time>2025-10-18T09:08:52Z</time>
      </trkpt>
      <trkpt lat="43.22023" lon="5.48238">
        <ele>240.7</ele>
        <time>2025-10-18T09:08:53Z</time>
      </trkpt>
      <trkpt lat="43.22024" lon="5.48238">
        <ele>240.6</ele>
        <time>2025-10-18T09:08:54Z</time>
      </trkpt>
      <trkpt lat="43.22023" lon="5.48238">
        <ele>240.5</ele>
        <time>2025-10-18T09:08:55Z</time>
      </trkpt>
      <trkpt lat="43.22023" lon="5.48239">
        <ele>240.4</ele>
        <time>2025-10-18T09:08:56Z</time>
      </trkpt>
      <trkpt lat="43.22023" lon="5.48239">
        <ele>240.3</ele>
        <time>2025-10-18T09:08:57Z</time>
      </trkpt>
      <trkpt lat="43.22022" lon="5.4824">
        <ele>240.1</ele>
        <time>2025-10-18T09:08:58Z</time>
      </trkpt>
      <trkpt lat="43.22021" lon="5.4824">
        <ele>240</ele>
        <time>2025-10-18T09:08:59Z</time>
      </trkpt>
      <trkpt lat="43.22021" lon="5.4824">
        <ele>239.9</ele>
        <time>2025-10-18T09:09:00Z</time>
      </trkpt>
      <trkpt lat="43.2202" lon="5.4824">
        <ele>239.9</ele>
        <time>2025-10-18T09:09:01Z</time>
      </trkpt>
      <trkpt lat="43.2202" lon="5.4824">
        <ele>239.8</ele>
        <time>2025-10-18T09:09:02Z</time>
      </trkpt>
      <trkpt lat="43.2202" lon="5.4824">
        <ele>239.6</ele>
        <time>2025-10-18T09:09:03Z</time>
      </trkpt>
      <trkpt lat="43.2202" lon="5.48241">
        <ele>239.5</ele>
        <time>2025-10-18T09:09:04Z</time>
      </trkpt>
      <trkpt lat="43.2202" lon="5.48241">
        <ele>239.3</ele>
        <time>2025-10-18T09:09:05Z</time>
      </trkpt>
      <trkpt lat="43.2202" lon="5.48241">
        <ele>239.2</ele>
        <time>2025-10-18T09:09:06Z</time>
      </trkpt>
      <trkpt lat="43.2202" lon="5.48241">
        <ele>239.2</ele>
        <time>2025-10-18T09:09:07Z</time>
      </trkpt>
      <trkpt lat="43.2202" lon="5.48241">
        <ele>239.1</ele>
        <time>2025-10-18T09:09:08Z</time>
      </trkpt>
      <trkpt lat="43.2202" lon="5.48242">
        <ele>239.1</ele>
        <time>2025-10-18T09:09:09Z</time>
      </trkpt>
      <trkpt lat="43.2202" lon="5.48242">
        <ele>239</ele>
        <time>2025-10-18T09:09:10Z</time>
      </trkpt>
      <trkpt lat="43.22019" lon="5.48242">
        <ele>239</ele>
        <time>2025-10-18T09:09:11Z</time>
      </trkpt>
      <trkpt lat="43.22019" lon="5.48242">
        <ele>239</ele>
        <time>2025-10-18T09:09:12Z</time>
      </trkpt>
      <trkpt lat="43.22019" lon="5.48242">
        <ele>239</ele>
        <time>2025-10-18T09:09:13Z</time>
      </trkpt>
      <trkpt lat="43.22019" lon="5.48242">
        <ele>239</ele>
        <time>2025-10-18T09:09:14Z</time>
      </trkpt>
      <trkpt lat="43.22019" lon="5.48241">
        <ele>239</ele>
        <time>2025-10-18T09:09:15Z</time>
      </trkpt>
      <trkpt lat="43.22019" lon="5.48241">
        <ele>239</ele>
        <time>2025-10-18T09:09:16Z</time>
      </trkpt>
      <trkpt lat="43.22019" lon="5.48241">
        <ele>239</ele>
        <time>2025-10-18T09:09:17Z</time>
      </trkpt>
      <trkpt lat="43.22019" lon="5.4824">
        <ele>238.9</ele>
        <time>2025-10-18T09:09:18Z</time>
      </trkpt>
      <trkpt lat="43.22019" lon="5.48239">
        <ele>238.9</ele>
        <time>2025-10-18T09:09:19Z</time>
      </trkpt>
      <trkpt lat="43.22019" lon="5.48238">
        <ele>238.8</ele>
        <time>2025-10-18T09:09:20Z</time>
      </trkpt>
      <trkpt lat="43.2202" lon="5.48237">
        <ele>238.7</ele>
        <time>2025-10-18T09:09:21Z</time>
      </trkpt>
      <trkpt lat="43.2202" lon="5.48236">
        <ele>238.5</ele>
        <time>2025-10-18T09:09:22Z</time>
      </trkpt>
      <trkpt lat="43.2202" lon="5.48235">
        <ele>238.4</ele>
        <time>2025-10-18T09:09:23Z</time>
      </trkpt>
      <trkpt lat="43.2202" lon="5.48234">
        <ele>238.3</ele>
        <time>2025-10-18T09:09:24Z</time>
      </trkpt>
      <trkpt lat="43.2202" lon="5.48233">
        <ele>238</ele>
        <time>2025-10-18T09:09:25Z</time>
      </trkpt>
      <trkpt lat="43.2202" lon="5.48232">
        <ele>237.8</ele>
        <time>2025-10-18T09:09:26Z</time>
      </trkpt>
      <trkpt lat="43.22019" lon="5.48232">
        <ele>237.6</ele>
        <time>2025-10-18T09:09:27Z</time>
      </trkpt>
      <trkpt lat="43.22019" lon="5.4823">
        <ele>237.4</ele>
        <time>2025-10-18T09:09:28Z</time>
      </trkpt>
      <trkpt lat="43.22019" lon="5.4823">
        <ele>237.1</ele>
        <time>2025-10-18T09:09:29Z</time>
      </trkpt>
      <trkpt lat="43.2202" lon="5.48229">
        <ele>237</ele>
        <time>2025-10-18T09:09:30Z</time>
      </trkpt>
      <trkpt lat="43.2202" lon="5.48228">
        <ele>236.9</ele>
        <time>2025-10-18T09:09:31Z</time>
      </trkpt>
      <trkpt lat="43.2202" lon="5.48228">
        <ele>236.8</ele>
        <time>2025-10-18T09:09:32Z</time>
      </trkpt>
      <trkpt lat="43.2202" lon="5.48227">
        <ele>236.7</ele>
        <time>2025-10-18T09:09:33Z</time>
      </trkpt>
      <trkpt lat="43.2202" lon="5.48226">
        <ele>236.6</ele>
        <time>2025-10-18T09:09:34Z</time>
      </trkpt>
      <trkpt lat="43.2202" lon="5.48226">
        <ele>236.4</ele>
        <time>2025-10-18T09:09:35Z</time>
      </trkpt>
      <trkpt lat="43.22019" lon="5.48225">
        <ele>236.3</ele>
        <time>2025-10-18T09:09:36Z</time>
      </trkpt>
      <trkpt lat="43.2202" lon="5.48224">
        <ele>236</ele>
        <time>2025-10-18T09:09:37Z</time>
      </trkpt>
      <trkpt lat="43.2202" lon="5.48223">
        <ele>235.8</ele>
        <time>2025-10-18T09:09:38Z</time>
      </trkpt>
      <trkpt lat="43.2202" lon="5.48222">
        <ele>235.6</ele>
        <time>2025-10-18T09:09:39Z</time>
      </trkpt>
      <trkpt lat="43.2202" lon="5.48221">
        <ele>235.4</ele>
        <time>2025-10-18T09:09:40Z</time>
      </trkpt>
      <trkpt lat="43.2202" lon="5.4822">
        <ele>235.3</ele>
        <time>2025-10-18T09:09:41Z</time>
      </trkpt>
      <trkpt lat="43.2202" lon="5.4822">
        <ele>235.2</ele>
        <time>2025-10-18T09:09:42Z</time>
      </trkpt>
      <trkpt lat="43.2202" lon="5.48219">
        <ele>235.2</ele>
        <time>2025-10-18T09:09:43Z</time>
      </trkpt>
      <trkpt lat="43.22019" lon="5.48218">
        <ele>235.1</ele>
        <time>2025-10-18T09:09:44Z</time>
      </trkpt>
      <trkpt lat="43.22019" lon="5.48218">
        <ele>235.1</ele>
        <time>2025-10-18T09:09:45Z</time>
      </trkpt>
      <trkpt lat="43.22019" lon="5.48217">
        <ele>234.9</ele>
        <time>2025-10-18T09:09:46Z</time>
      </trkpt>
      <trkpt lat="43.22019" lon="5.48216">
        <ele>234.9</ele>
        <time>2025-10-18T09:09:47Z</time>
      </trkpt>
      <trkpt lat="43.22019" lon="5.48216">
        <ele>234.8</ele>
        <time>2025-10-18T09:09:48Z</time>
      </trkpt>
      <trkpt lat="43.22019" lon="5.48216">
        <ele>234.8</ele>
        <time>2025-10-18T09:09:49Z</time>
      </trkpt>
      <trkpt lat="43.22019" lon="5.48216">
        <ele>234.7</ele>
        <time>2025-10-18T09:09:50Z</time>
      </trkpt>
      <trkpt lat="43.22019" lon="5.48215">
        <ele>234.7</ele>
        <time>2025-10-18T09:09:51Z</time>
      </trkpt>
      <trkpt lat="43.22019" lon="5.48214">
        <ele>234.7</ele>
        <time>2025-10-18T09:09:52Z</time>
      </trkpt>
      <trkpt lat="43.22019" lon="5.48214">
        <ele>234.6</ele>
        <time>2025-10-18T09:09:53Z</time>
      </trkpt>
      <trkpt lat="43.22019" lon="5.48214">
        <ele>234.5</ele>
        <time>2025-10-18T09:09:54Z</time>
      </trkpt>
      <trkpt lat="43.22019" lon="5.48214">
        <ele>234.5</ele>
        <time>2025-10-18T09:09:55Z</time>
      </trkpt>
      <trkpt lat="43.22019" lon="5.48214">
        <ele>234.4</ele>
        <time>2025-10-18T09:09:56Z</time>
      </trkpt>
      <trkpt lat="43.22019" lon="5.48214">
        <ele>234.3</ele>
        <time>2025-10-18T09:09:57Z</time>
      </trkpt>
      <trkpt lat="43.22019" lon="5.48213">
        <ele>234.3</ele>
        <time>2025-10-18T09:09:58Z</time>
      </trkpt>
      <trkpt lat="43.22019" lon="5.48212">
        <ele>234.2</ele>
        <time>2025-10-18T09:09:59Z</time>
      </trkpt>
      <trkpt lat="43.22019" lon="5.48212">
        <ele>234.2</ele>
        <time>2025-10-18T09:10:00Z</time>
      </trkpt>
      <trkpt lat="43.22019" lon="5.48211">
        <ele>234.1</ele>
        <time>2025-10-18T09:10:01Z</time>
      </trkpt>
      <trkpt lat="43.22018" lon="5.48211">
        <ele>234</ele>
        <time>2025-10-18T09:10:02Z</time>
      </trkpt>
      <trkpt lat="43.22018" lon="5.48211">
        <ele>234</ele>
        <time>2025-10-18T09:10:03Z</time>
      </trkpt>
      <trkpt lat="43.22018" lon="5.48211">
        <ele>233.9</ele>
        <time>2025-10-18T09:10:04Z</time>
      </trkpt>
      <trkpt lat="43.22018" lon="5.48211">
        <ele>233.8</ele>
        <time>2025-10-18T09:10:05Z</time>
      </trkpt>
      <trkpt lat="43.22018" lon="5.4821">
        <ele>233.8</ele>
        <time>2025-10-18T09:10:06Z</time>
      </trkpt>
      <trkpt lat="43.22019" lon="5.48209">
        <ele>233.7</ele>
        <time>2025-10-18T09:10:07Z</time>
      </trkpt>
      <trkpt lat="43.22019" lon="5.48208">
        <ele>233.4</ele>
        <time>2025-10-18T09:10:08Z</time>
      </trkpt>
      <trkpt lat="43.22019" lon="5.48208">
        <ele>233.3</ele>
        <time>2025-10-18T09:10:09Z</time>
      </trkpt>
      <trkpt lat="43.22019" lon="5.48207">
        <ele>233.2</ele>
        <time>2025-10-18T09:10:10Z</time>
      </trkpt>
      <trkpt lat="43.22019" lon="5.48207">
        <ele>233.1</ele>
        <time>2025-10-18T09:10:11Z</time>
      </trkpt>
      <trkpt lat="43.22019" lon="5.48206">
        <ele>233</ele>
        <time>2025-10-18T09:10:12Z</time>
      </trkpt>
      <trkpt lat="43.22019" lon="5.48206">
        <ele>232.9</ele>
        <time>2025-10-18T09:10:13Z</time>
      </trkpt>
      <trkpt lat="43.2202" lon="5.48205">
        <ele>232.6</ele>
        <time>2025-10-18T09:10:14Z</time>
      </trkpt>
      <trkpt lat="43.2202" lon="5.48204">
        <ele>232.4</ele>
        <time>2025-10-18T09:10:15Z</time>
      </trkpt>
      <trkpt lat="43.2202" lon="5.48203">
        <ele>232.2</ele>
        <time>2025-10-18T09:10:16Z</time>
      </trkpt>
      <trkpt lat="43.2202" lon="5.48202">
        <ele>232.1</ele>
        <time>2025-10-18T09:10:17Z</time>
      </trkpt>
      <trkpt lat="43.2202" lon="5.48202">
        <ele>232</ele>
        <time>2025-10-18T09:10:18Z</time>
      </trkpt>
      <trkpt lat="43.22019" lon="5.48202">
        <ele>231.9</ele>
        <time>2025-10-18T09:10:19Z</time>
      </trkpt>
      <trkpt lat="43.22018" lon="5.48202">
        <ele>231.8</ele>
        <time>2025-10-18T09:10:20Z</time>
      </trkpt>
      <trkpt lat="43.22018" lon="5.48202">
        <ele>231.7</ele>
        <time>2025-10-18T09:10:21Z</time>
      </trkpt>
      <trkpt lat="43.22017" lon="5.48201">
        <ele>231.5</ele>
        <time>2025-10-18T09:10:22Z</time>
      </trkpt>
      <trkpt lat="43.22016" lon="5.48202">
        <ele>231.4</ele>
        <time>2025-10-18T09:10:23Z</time>
      </trkpt>
      <trkpt lat="43.22016" lon="5.48201">
        <ele>231.4</ele>
        <time>2025-10-18T09:10:24Z</time>
      </trkpt>
      <trkpt lat="43.22016" lon="5.48201">
        <ele>231.3</ele>
        <time>2025-10-18T09:10:25Z</time>
      </trkpt>
      <trkpt lat="43.22015" lon="5.48201">
        <ele>231.2</ele>
        <time>2025-10-18T09:10:26Z</time>
      </trkpt>
      <trkpt lat="43.22014" lon="5.48202">
        <ele>231.2</ele>
        <time>2025-10-18T09:10:27Z</time>
      </trkpt>
      <trkpt lat="43.22014" lon="5.48202">
        <ele>231.2</ele>
        <time>2025-10-18T09:10:28Z</time>
      </trkpt>
      <trkpt lat="43.22014" lon="5.48202">
        <ele>231.2</ele>
        <time>2025-10-18T09:10:29Z</time>
      </trkpt>
      <trkpt lat="43.22013" lon="5.48202">
        <ele>231.2</ele>
        <time>2025-10-18T09:10:30Z</time>
      </trkpt>
      <trkpt lat="43.22013" lon="5.48202">
        <ele>231.2</ele>
        <time>2025-10-18T09:10:31Z</time>
      </trkpt>
      <trkpt lat="43.22012" lon="5.48202">
        <ele>231.2</ele>
        <time>2025-10-18T09:10:32Z</time>
      </trkpt>
      <trkpt lat="43.22011" lon="5.48202">
        <ele>231.2</ele>
        <time>2025-10-18T09:10:33Z</time>
      </trkpt>
      <trkpt lat="43.22011" lon="5.48203">
        <ele>231.1</ele>
        <time>2025-10-18T09:10:34Z</time>
      </trkpt>
      <trkpt lat="43.2201" lon="5.48204">
        <ele>231</ele>
        <time>2025-10-18T09:10:35Z</time>
      </trkpt>
      <trkpt lat="43.2201" lon="5.48204">
        <ele>231</ele>
        <time>2025-10-18T09:10:36Z</time>
      </trkpt>
      <trkpt lat="43.2201" lon="5.48204">
        <ele>230.9</ele>
        <time>2025-10-18T09:10:37Z</time>
      </trkpt>
      <trkpt lat="43.22009" lon="5.48205">
        <ele>230.8</ele>
        <time>2025-10-18T09:10:38Z</time>
      </trkpt>
      <trkpt lat="43.22009" lon="5.48205">
        <ele>230.8</ele>
        <time>2025-10-18T09:10:39Z</time>
      </trkpt>
      <trkpt lat="43.22009" lon="5.48206">
        <ele>230.7</ele>
        <time>2025-10-18T09:10:40Z</time>
      </trkpt>
      <trkpt lat="43.22009" lon="5.48206">
        <ele>230.7</ele>
        <time>2025-10-18T09:10:41Z</time>
      </trkpt>
      <trkpt lat="43.22009" lon="5.48207">
        <ele>230.6</ele>
        <time>2025-10-18T09:10:42Z</time>
      </trkpt>
      <trkpt lat="43.22008" lon="5.48207">
        <ele>230.5</ele>
        <time>2025-10-18T09:10:43Z</time>
      </trkpt>
      <trkpt lat="43.22008" lon="5.48207">
        <ele>230.4</ele>
        <time>2025-10-18T09:10:44Z</time>
      </trkpt>
      <trkpt lat="43.22007" lon="5.48208">
        <ele>230.2</ele>
        <time>2025-10-18T09:10:45Z</time>
      </trkpt>
      <trkpt lat="43.22007" lon="5.48209">
        <ele>230</ele>
        <time>2025-10-18T09:10:46Z</time>
      </trkpt>
      <trkpt lat="43.22007" lon="5.48209">
        <ele>229.8</ele>
        <time>2025-10-18T09:10:47Z</time>
      </trkpt>
      <trkpt lat="43.22007" lon="5.4821">
        <ele>229.5</ele>
        <time>2025-10-18T09:10:48Z</time>
      </trkpt>
      <trkpt lat="43.22007" lon="5.4821">
        <ele>229.4</ele>
        <time>2025-10-18T09:10:49Z</time>
      </trkpt>
      <trkpt lat="43.22006" lon="5.48211">
        <ele>229.3</ele>
        <time>2025-10-18T09:10:50Z</time>
      </trkpt>
      <trkpt lat="43.22006" lon="5.48211">
        <ele>229.2</ele>
        <time>2025-10-18T09:10:51Z</time>
      </trkpt>
      <trkpt lat="43.22006" lon="5.48211">
        <ele>229.1</ele>
        <time>2025-10-18T09:10:52Z</time>
      </trkpt>
      <trkpt lat="43.22005" lon="5.48211">
        <ele>228.9</ele>
        <time>2025-10-18T09:10:53Z</time>
      </trkpt>
      <trkpt lat="43.22005" lon="5.48211">
        <ele>228.8</ele>
        <time>2025-10-18T09:10:54Z</time>
      </trkpt>
      <trkpt lat="43.22004" lon="5.48211">
        <ele>228.7</ele>
        <time>2025-10-18T09:10:55Z</time>
      </trkpt>
      <trkpt lat="43.22003" lon="5.48211">
        <ele>228.7</ele>
        <time>2025-10-18T09:10:56Z</time>
      </trkpt>
      <trkpt lat="43.22003" lon="5.48211">
        <ele>228.6</ele>
        <time>2025-10-18T09:10:57Z</time>
      </trkpt>
      <trkpt lat="43.22002" lon="5.48212">
        <ele>228.5</ele>
        <time>2025-10-18T09:10:58Z</time>
      </trkpt>
      <trkpt lat="43.22003" lon="5.48213">
        <ele>228.4</ele>
        <time>2025-10-18T09:10:59Z</time>
      </trkpt>
      <trkpt lat="43.22002" lon="5.48213">
        <ele>228.3</ele>
        <time>2025-10-18T09:11:00Z</time>
      </trkpt>
      <trkpt lat="43.22002" lon="5.48213">
        <ele>228.2</ele>
        <time>2025-10-18T09:11:01Z</time>
      </trkpt>
      <trkpt lat="43.22002" lon="5.48213">
        <ele>228.2</ele>
        <time>2025-10-18T09:11:02Z</time>
      </trkpt>
      <trkpt lat="43.22002" lon="5.48214">
        <ele>228.1</ele>
        <time>2025-10-18T09:11:03Z</time>
      </trkpt>
      <trkpt lat="43.22002" lon="5.48215">
        <ele>228.1</ele>
        <time>2025-10-18T09:11:04Z</time>
      </trkpt>
      <trkpt lat="43.22001" lon="5.48215">
        <ele>227.9</ele>
        <time>2025-10-18T09:11:05Z</time>
      </trkpt>
      <trkpt lat="43.22001" lon="5.48215">
        <ele>227.8</ele>
        <time>2025-10-18T09:11:06Z</time>
      </trkpt>
      <trkpt lat="43.22" lon="5.48216">
        <ele>227.8</ele>
        <time>2025-10-18T09:11:07Z</time>
      </trkpt>
      <trkpt lat="43.21999" lon="5.48216">
        <ele>227.8</ele>
        <time>2025-10-18T09:11:08Z</time>
      </trkpt>
      <trkpt lat="43.21999" lon="5.48216">
        <ele>227.7</ele>
        <time>2025-10-18T09:11:09Z</time>
      </trkpt>
      <trkpt lat="43.21998" lon="5.48217">
        <ele>227.9</ele>
        <time>2025-10-18T09:11:10Z</time>
      </trkpt>
      <trkpt lat="43.21998" lon="5.48217">
        <ele>227.9</ele>
        <time>2025-10-18T09:11:11Z</time>
      </trkpt>
      <trkpt lat="43.21997" lon="5.48217">
        <ele>227.8</ele>
        <time>2025-10-18T09:11:12Z</time>
      </trkpt>
      <trkpt lat="43.21996" lon="5.48218">
        <ele>227.8</ele>
        <time>2025-10-18T09:11:13Z</time>
      </trkpt>
      <trkpt lat="43.21995" lon="5.48218">
        <ele>227.8</ele>
        <time>2025-10-18T09:11:14Z</time>
      </trkpt>
      <trkpt lat="43.21995" lon="5.48218">
        <ele>227.7</ele>
        <time>2025-10-18T09:11:15Z</time>
      </trkpt>
      <trkpt lat="43.21994" lon="5.48219">
        <ele>227.7</ele>
        <time>2025-10-18T09:11:16Z</time>
      </trkpt>
      <trkpt lat="43.21993" lon="5.48219">
        <ele>227.6</ele>
        <time>2025-10-18T09:11:17Z</time>
      </trkpt>
      <trkpt lat="43.21993" lon="5.48219">
        <ele>227.5</ele>
        <time>2025-10-18T09:11:18Z</time>
      </trkpt>
      <trkpt lat="43.21993" lon="5.4822">
        <ele>227.5</ele>
        <time>2025-10-18T09:11:19Z</time>
      </trkpt>
      <trkpt lat="43.21992" lon="5.48219">
        <ele>227.4</ele>
        <time>2025-10-18T09:11:20Z</time>
      </trkpt>
      <trkpt lat="43.21992" lon="5.48219">
        <ele>227.4</ele>
        <time>2025-10-18T09:11:21Z</time>
      </trkpt>
      <trkpt lat="43.21991" lon="5.48219">
        <ele>227.4</ele>
        <time>2025-10-18T09:11:22Z</time>
      </trkpt>
      <trkpt lat="43.21991" lon="5.48218">
        <ele>227.3</ele>
        <time>2025-10-18T09:11:23Z</time>
      </trkpt>
      <trkpt lat="43.2199" lon="5.48218">
        <ele>227.2</ele>
        <time>2025-10-18T09:11:24Z</time>
      </trkpt>
      <trkpt lat="43.2199" lon="5.48219">
        <ele>227.2</ele>
        <time>2025-10-18T09:11:25Z</time>
      </trkpt>
      <trkpt lat="43.21989" lon="5.48219">
        <ele>227.1</ele>
        <time>2025-10-18T09:11:26Z</time>
      </trkpt>
      <trkpt lat="43.21989" lon="5.48218">
        <ele>227.1</ele>
        <time>2025-10-18T09:11:27Z</time>
      </trkpt>
      <trkpt lat="43.21989" lon="5.48218">
        <ele>227</ele>
        <time>2025-10-18T09:11:28Z</time>
      </trkpt>
      <trkpt lat="43.21988" lon="5.48217">
        <ele>226.9</ele>
        <time>2025-10-18T09:11:29Z</time>
      </trkpt>
      <trkpt lat="43.21987" lon="5.48217">
        <ele>226.8</ele>
        <time>2025-10-18T09:11:30Z</time>
      </trkpt>
      <trkpt lat="43.21986" lon="5.48217">
        <ele>226.7</ele>
        <time>2025-10-18T09:11:31Z</time>
      </trkpt>
      <trkpt lat="43.21986" lon="5.48217">
        <ele>226.5</ele>
        <time>2025-10-18T09:11:32Z</time>
      </trkpt>
      <trkpt lat="43.21985" lon="5.48216">
        <ele>226.5</ele>
        <time>2025-10-18T09:11:33Z</time>
      </trkpt>
      <trkpt lat="43.21984" lon="5.48216">
        <ele>226.4</ele>
        <time>2025-10-18T09:11:34Z</time>
      </trkpt>
      <trkpt lat="43.21984" lon="5.48216">
        <ele>226.4</ele>
        <time>2025-10-18T09:11:35Z</time>
      </trkpt>
      <trkpt lat="43.21983" lon="5.48215">
        <ele>226.3</ele>
        <time>2025-10-18T09:11:36Z</time>
      </trkpt>
      <trkpt lat="43.21982" lon="5.48215">
        <ele>226.3</ele>
        <time>2025-10-18T09:11:37Z</time>
      </trkpt>
      <trkpt lat="43.21982" lon="5.48215">
        <ele>226.3</ele>
        <time>2025-10-18T09:11:38Z</time>
      </trkpt>
      <trkpt lat="43.21981" lon="5.48214">
        <ele>226.3</ele>
        <time>2025-10-18T09:11:39Z</time>
      </trkpt>
      <trkpt lat="43.21981" lon="5.48214">
        <ele>226.3</ele>
        <time>2025-10-18T09:11:40Z</time>
      </trkpt>
      <trkpt lat="43.2198" lon="5.48214">
        <ele>226.4</ele>
        <time>2025-10-18T09:11:41Z</time>
      </trkpt>
      <trkpt lat="43.2198" lon="5.48214">
        <ele>226.5</ele>
        <time>2025-10-18T09:11:42Z</time>
      </trkpt>
      <trkpt lat="43.21979" lon="5.48214">
        <ele>226.5</ele>
        <time>2025-10-18T09:11:43Z</time>
      </trkpt>
      <trkpt lat="43.21979" lon="5.48214">
        <ele>226.4</ele>
        <time>2025-10-18T09:11:44Z</time>
      </trkpt>
      <trkpt lat="43.21978" lon="5.48214">
        <ele>226.2</ele>
        <time>2025-10-18T09:11:45Z</time>
      </trkpt>
      <trkpt lat="43.21978" lon="5.48214">
        <ele>226.2</ele>
        <time>2025-10-18T09:11:46Z</time>
      </trkpt>
      <trkpt lat="43.21977" lon="5.48214">
        <ele>226.1</ele>
        <time>2025-10-18T09:11:47Z</time>
      </trkpt>
      <trkpt lat="43.21977" lon="5.48214">
        <ele>226</ele>
        <time>2025-10-18T09:11:48Z</time>
      </trkpt>
      <trkpt lat="43.21977" lon="5.48214">
        <ele>226</ele>
        <time>2025-10-18T09:11:49Z</time>
      </trkpt>
      <trkpt lat="43.21977" lon="5.48214">
        <ele>226</ele>
        <time>2025-10-18T09:11:50Z</time>
      </trkpt>
      <trkpt lat="43.21977" lon="5.48213">
        <ele>225.9</ele>
        <time>2025-10-18T09:11:51Z</time>
      </trkpt>
      <trkpt lat="43.21976" lon="5.48213">
        <ele>225.9</ele>
        <time>2025-10-18T09:11:52Z</time>
      </trkpt>
      <trkpt lat="43.21976" lon="5.48212">
        <ele>225.9</ele>
        <time>2025-10-18T09:11:53Z</time>
      </trkpt>
      <trkpt lat="43.21976" lon="5.48212">
        <ele>225.9</ele>
        <time>2025-10-18T09:11:54Z</time>
      </trkpt>
      <trkpt lat="43.21975" lon="5.48212">
        <ele>226</ele>
        <time>2025-10-18T09:11:55Z</time>
      </trkpt>
      <trkpt lat="43.21975" lon="5.48212">
        <ele>226</ele>
        <time>2025-10-18T09:11:56Z</time>
      </trkpt>
      <trkpt lat="43.21974" lon="5.48212">
        <ele>226</ele>
        <time>2025-10-18T09:11:57Z</time>
      </trkpt>
      <trkpt lat="43.21974" lon="5.48212">
        <ele>226</ele>
        <time>2025-10-18T09:11:58Z</time>
      </trkpt>
      <trkpt lat="43.21973" lon="5.48212">
        <ele>226</ele>
        <time>2025-10-18T09:11:59Z</time>
      </trkpt>
      <trkpt lat="43.21973" lon="5.48212">
        <ele>226</ele>
        <time>2025-10-18T09:12:00Z</time>
      </trkpt>
      <trkpt lat="43.21972" lon="5.48212">
        <ele>225.9</ele>
        <time>2025-10-18T09:12:01Z</time>
      </trkpt>
      <trkpt lat="43.21972" lon="5.48212">
        <ele>225.9</ele>
        <time>2025-10-18T09:12:02Z</time>
      </trkpt>
      <trkpt lat="43.21971" lon="5.48212">
        <ele>225.8</ele>
        <time>2025-10-18T09:12:03Z</time>
      </trkpt>
      <trkpt lat="43.21971" lon="5.48212">
        <ele>225.7</ele>
        <time>2025-10-18T09:12:04Z</time>
      </trkpt>
      <trkpt lat="43.2197" lon="5.48212">
        <ele>225.7</ele>
        <time>2025-10-18T09:12:05Z</time>
      </trkpt>
      <trkpt lat="43.2197" lon="5.48213">
        <ele>225.6</ele>
        <time>2025-10-18T09:12:06Z</time>
      </trkpt>
      <trkpt lat="43.2197" lon="5.48213">
        <ele>225.4</ele>
        <time>2025-10-18T09:12:07Z</time>
      </trkpt>
      <trkpt lat="43.2197" lon="5.48214">
        <ele>225.3</ele>
        <time>2025-10-18T09:12:08Z</time>
      </trkpt>
      <trkpt lat="43.2197" lon="5.48215">
        <ele>225.2</ele>
        <time>2025-10-18T09:12:09Z</time>
      </trkpt>
      <trkpt lat="43.21969" lon="5.48215">
        <ele>225.1</ele>
        <time>2025-10-18T09:12:10Z</time>
      </trkpt>
      <trkpt lat="43.21969" lon="5.48216">
        <ele>225</ele>
        <time>2025-10-18T09:12:11Z</time>
      </trkpt>
      <trkpt lat="43.21969" lon="5.48217">
        <ele>224.9</ele>
        <time>2025-10-18T09:12:12Z</time>
      </trkpt>
      <trkpt lat="43.21968" lon="5.48217">
        <ele>224.8</ele>
        <time>2025-10-18T09:12:13Z</time>
      </trkpt>
      <trkpt lat="43.21968" lon="5.48217">
        <ele>224.6</ele>
        <time>2025-10-18T09:12:14Z</time>
      </trkpt>
      <trkpt lat="43.21967" lon="5.48218">
        <ele>224.5</ele>
        <time>2025-10-18T09:12:15Z</time>
      </trkpt>
      <trkpt lat="43.21967" lon="5.48219">
        <ele>224.4</ele>
        <time>2025-10-18T09:12:16Z</time>
      </trkpt>
      <trkpt lat="43.21966" lon="5.48219">
        <ele>224.3</ele>
        <time>2025-10-18T09:12:17Z</time>
      </trkpt>
      <trkpt lat="43.21966" lon="5.4822">
        <ele>224.1</ele>
        <time>2025-10-18T09:12:18Z</time>
      </trkpt>
      <trkpt lat="43.21965" lon="5.48221">
        <ele>224</ele>
        <time>2025-10-18T09:12:19Z</time>
      </trkpt>
      <trkpt lat="43.21965" lon="5.48221">
        <ele>223.9</ele>
        <time>2025-10-18T09:12:20Z</time>
      </trkpt>
      <trkpt lat="43.21964" lon="5.48222">
        <ele>223.7</ele>
        <time>2025-10-18T09:12:21Z</time>
      </trkpt>
      <trkpt lat="43.21964" lon="5.48222">
        <ele>223.5</ele>
        <time>2025-10-18T09:12:22Z</time>
      </trkpt>
      <trkpt lat="43.21963" lon="5.48223">
        <ele>223.4</ele>
        <time>2025-10-18T09:12:23Z</time>
      </trkpt>
      <trkpt lat="43.21963" lon="5.48223">
        <ele>223.2</ele>
        <time>2025-10-18T09:12:24Z</time>
      </trkpt>
      <trkpt lat="43.21962" lon="5.48223">
        <ele>223.1</ele>
        <time>2025-10-18T09:12:25Z</time>
      </trkpt>
      <trkpt lat="43.21962" lon="5.48223">
        <ele>223</ele>
        <time>2025-10-18T09:12:26Z</time>
      </trkpt>
      <trkpt lat="43.21961" lon="5.48223">
        <ele>222.9</ele>
        <time>2025-10-18T09:12:27Z</time>
      </trkpt>
      <trkpt lat="43.2196" lon="5.48224">
        <ele>222.7</ele>
        <time>2025-10-18T09:12:28Z</time>
      </trkpt>
      <trkpt lat="43.2196" lon="5.48224">
        <ele>222.6</ele>
        <time>2025-10-18T09:12:29Z</time>
      </trkpt>
      <trkpt lat="43.21959" lon="5.48224">
        <ele>222.4</ele>
        <time>2025-10-18T09:12:30Z</time>
      </trkpt>
      <trkpt lat="43.21958" lon="5.48225">
        <ele>222.2</ele>
        <time>2025-10-18T09:12:31Z</time>
      </trkpt>
      <trkpt lat="43.21958" lon="5.48225">
        <ele>222</ele>
        <time>2025-10-18T09:12:32Z</time>
      </trkpt>
      <trkpt lat="43.21957" lon="5.48226">
        <ele>221.9</ele>
        <time>2025-10-18T09:12:33Z</time>
      </trkpt>
      <trkpt lat="43.21957" lon="5.48226">
        <ele>221.9</ele>
        <time>2025-10-18T09:12:34Z</time>
      </trkpt>
      <trkpt lat="43.21956" lon="5.48227">
        <ele>221.8</ele>
        <time>2025-10-18T09:12:35Z</time>
      </trkpt>
      <trkpt lat="43.21956" lon="5.48228">
        <ele>221.8</ele>
        <time>2025-10-18T09:12:36Z</time>
      </trkpt>
      <trkpt lat="43.21955" lon="5.48229">
        <ele>221.6</ele>
        <time>2025-10-18T09:12:37Z</time>
      </trkpt>
      <trkpt lat="43.21955" lon="5.4823">
        <ele>221.5</ele>
        <time>2025-10-18T09:12:38Z</time>
      </trkpt>
      <trkpt lat="43.21954" lon="5.4823">
        <ele>221.5</ele>
        <time>2025-10-18T09:12:39Z</time>
      </trkpt>
      <trkpt lat="43.21954" lon="5.4823">
        <ele>221.4</ele>
        <time>2025-10-18T09:12:40Z</time>
      </trkpt>
      <trkpt lat="43.21953" lon="5.4823">
        <ele>221.3</ele>
        <time>2025-10-18T09:12:41Z</time>
      </trkpt>
      <trkpt lat="43.21953" lon="5.48231">
        <ele>221.2</ele>
        <time>2025-10-18T09:12:42Z</time>
      </trkpt>
      <trkpt lat="43.21952" lon="5.48231">
        <ele>221.1</ele>
        <time>2025-10-18T09:12:43Z</time>
      </trkpt>
      <trkpt lat="43.21951" lon="5.48232">
        <ele>221</ele>
        <time>2025-10-18T09:12:44Z</time>
      </trkpt>
      <trkpt lat="43.2195" lon="5.48232">
        <ele>221</ele>
        <time>2025-10-18T09:12:45Z</time>
      </trkpt>
      <trkpt lat="43.2195" lon="5.48232">
        <ele>220.9</ele>
        <time>2025-10-18T09:12:46Z</time>
      </trkpt>
      <trkpt lat="43.21949" lon="5.48232">
        <ele>220.8</ele>
        <time>2025-10-18T09:12:47Z</time>
      </trkpt>
      <trkpt lat="43.21948" lon="5.48232">
        <ele>220.7</ele>
        <time>2025-10-18T09:12:48Z</time>
      </trkpt>
      <trkpt lat="43.21948" lon="5.48232">
        <ele>220.7</ele>
        <time>2025-10-18T09:12:49Z</time>
      </trkpt>
      <trkpt lat="43.21947" lon="5.48232">
        <ele>220.6</ele>
        <time>2025-10-18T09:12:50Z</time>
      </trkpt>
      <trkpt lat="43.21947" lon="5.48232">
        <ele>220.6</ele>
        <time>2025-10-18T09:12:51Z</time>
      </trkpt>
      <trkpt lat="43.21946" lon="5.48232">
        <ele>220.5</ele>
        <time>2025-10-18T09:12:52Z</time>
      </trkpt>
      <trkpt lat="43.21946" lon="5.48232">
        <ele>220.4</ele>
        <time>2025-10-18T09:12:53Z</time>
      </trkpt>
      <trkpt lat="43.21946" lon="5.48232">
        <ele>220.3</ele>
        <time>2025-10-18T09:12:54Z</time>
      </trkpt>
      <trkpt lat="43.21945" lon="5.48232">
        <ele>220.3</ele>
        <time>2025-10-18T09:12:55Z</time>
      </trkpt>
      <trkpt lat="43.21945" lon="5.48232">
        <ele>220.2</ele>
        <time>2025-10-18T09:12:56Z</time>
      </trkpt>
      <trkpt lat="43.21944" lon="5.48232">
        <ele>220.2</ele>
        <time>2025-10-18T09:12:57Z</time>
      </trkpt>
      <trkpt lat="43.21943" lon="5.48232">
        <ele>219.9</ele>
        <time>2025-10-18T09:12:58Z</time>
      </trkpt>
      <trkpt lat="43.21943" lon="5.48233">
        <ele>219.7</ele>
        <time>2025-10-18T09:12:59Z</time>
      </trkpt>
      <trkpt lat="43.21942" lon="5.48232">
        <ele>219.6</ele>
        <time>2025-10-18T09:13:00Z</time>
      </trkpt>
      <trkpt lat="43.21942" lon="5.48232">
        <ele>219.4</ele>
        <time>2025-10-18T09:13:01Z</time>
      </trkpt>
      <trkpt lat="43.21941" lon="5.48231">
        <ele>219.3</ele>
        <time>2025-10-18T09:13:02Z</time>
      </trkpt>
      <trkpt lat="43.2194" lon="5.48231">
        <ele>219.3</ele>
        <time>2025-10-18T09:13:03Z</time>
      </trkpt>
      <trkpt lat="43.2194" lon="5.48231">
        <ele>219.2</ele>
        <time>2025-10-18T09:13:04Z</time>
      </trkpt>
      <trkpt lat="43.2194" lon="5.48231">
        <ele>219.1</ele>
        <time>2025-10-18T09:13:05Z</time>
      </trkpt>
      <trkpt lat="43.2194" lon="5.48231">
        <ele>219</ele>
        <time>2025-10-18T09:13:06Z</time>
      </trkpt>
      <trkpt lat="43.21939" lon="5.48231">
        <ele>218.9</ele>
        <time>2025-10-18T09:13:07Z</time>
      </trkpt>
      <trkpt lat="43.21939" lon="5.48231">
        <ele>218.8</ele>
        <time>2025-10-18T09:13:08Z</time>
      </trkpt>
      <trkpt lat="43.21939" lon="5.4823">
        <ele>218.7</ele>
        <time>2025-10-18T09:13:09Z</time>
      </trkpt>
      <trkpt lat="43.21938" lon="5.4823">
        <ele>218.7</ele>
        <time>2025-10-18T09:13:10Z</time>
      </trkpt>
      <trkpt lat="43.21938" lon="5.4823">
        <ele>218.7</ele>
        <time>2025-10-18T09:13:11Z</time>
      </trkpt>
      <trkpt lat="43.21937" lon="5.48229">
        <ele>218.6</ele>
        <time>2025-10-18T09:13:12Z</time>
      </trkpt>
      <trkpt lat="43.21937" lon="5.48229">
        <ele>218.5</ele>
        <time>2025-10-18T09:13:13Z</time>
      </trkpt>
      <trkpt lat="43.21937" lon="5.48228">
        <ele>218.4</ele>
        <time>2025-10-18T09:13:14Z</time>
      </trkpt>
      <trkpt lat="43.21936" lon="5.48228">
        <ele>218.3</ele>
        <time>2025-10-18T09:13:15Z</time>
      </trkpt>
      <trkpt lat="43.21936" lon="5.48228">
        <ele>218.3</ele>
        <time>2025-10-18T09:13:16Z</time>
      </trkpt>
      <trkpt lat="43.21935" lon="5.48227">
        <ele>218.1</ele>
        <time>2025-10-18T09:13:17Z</time>
      </trkpt>
      <trkpt lat="43.21935" lon="5.48227">
        <ele>218</ele>
        <time>2025-10-18T09:13:18Z</time>
      </trkpt>
      <trkpt lat="43.21934" lon="5.48226">
        <ele>217.9</ele>
        <time>2025-10-18T09:13:19Z</time>
      </trkpt>
      <trkpt lat="43.21934" lon="5.48224">
        <ele>217.8</ele>
        <time>2025-10-18T09:13:20Z</time>
      </trkpt>
      <trkpt lat="43.21933" lon="5.48224">
        <ele>217.7</ele>
        <time>2025-10-18T09:13:21Z</time>
      </trkpt>
      <trkpt lat="43.21933" lon="5.48223">
        <ele>217.5</ele>
        <time>2025-10-18T09:13:22Z</time>
      </trkpt>
      <trkpt lat="43.21933" lon="5.48223">
        <ele>217.4</ele>
        <time>2025-10-18T09:13:23Z</time>
      </trkpt>
      <trkpt lat="43.21932" lon="5.48223">
        <ele>217.2</ele>
        <time>2025-10-18T09:13:24Z</time>
      </trkpt>
      <trkpt lat="43.21932" lon="5.48222">
        <ele>217.1</ele>
        <time>2025-10-18T09:13:25Z</time>
      </trkpt>
      <trkpt lat="43.21931" lon="5.48222">
        <ele>217</ele>
        <time>2025-10-18T09:13:26Z</time>
      </trkpt>
      <trkpt lat="43.21931" lon="5.48221">
        <ele>216.8</ele>
        <time>2025-10-18T09:13:27Z</time>
      </trkpt>
      <trkpt lat="43.21931" lon="5.48221">
        <ele>216.6</ele>
        <time>2025-10-18T09:13:28Z</time>
      </trkpt>
      <trkpt lat="43.21931" lon="5.48221">
        <ele>216.4</ele>
        <time>2025-10-18T09:13:29Z</time>
      </trkpt>
      <trkpt lat="43.21931" lon="5.48222">
        <ele>216.2</ele>
        <time>2025-10-18T09:13:30Z</time>
      </trkpt>
      <trkpt lat="43.21931" lon="5.48222">
        <ele>216.1</ele>
        <time>2025-10-18T09:13:31Z</time>
      </trkpt>
      <trkpt lat="43.21931" lon="5.48222">
        <ele>216</ele>
        <time>2025-10-18T09:13:32Z</time>
      </trkpt>
      <trkpt lat="43.21931" lon="5.48222">
        <ele>215.9</ele>
        <time>2025-10-18T09:13:33Z</time>
      </trkpt>
      <trkpt lat="43.21931" lon="5.48222">
        <ele>215.9</ele>
        <time>2025-10-18T09:13:34Z</time>
      </trkpt>
      <trkpt lat="43.21931" lon="5.48222">
        <ele>215.8</ele>
        <time>2025-10-18T09:13:35Z</time>
      </trkpt>
      <trkpt lat="43.2193" lon="5.48222">
        <ele>215.9</ele>
        <time>2025-10-18T09:13:36Z</time>
      </trkpt>
      <trkpt lat="43.2193" lon="5.48222">
        <ele>215.9</ele>
        <time>2025-10-18T09:13:37Z</time>
      </trkpt>
      <trkpt lat="43.2193" lon="5.48221">
        <ele>215.9</ele>
        <time>2025-10-18T09:13:38Z</time>
      </trkpt>
      <trkpt lat="43.2193" lon="5.48221">
        <ele>215.9</ele>
        <time>2025-10-18T09:13:39Z</time>
      </trkpt>
      <trkpt lat="43.2193" lon="5.4822">
        <ele>215.9</ele>
        <time>2025-10-18T09:13:40Z</time>
      </trkpt>
      <trkpt lat="43.2193" lon="5.4822">
        <ele>215.8</ele>
        <time>2025-10-18T09:13:41Z</time>
      </trkpt>
      <trkpt lat="43.2193" lon="5.4822">
        <ele>215.8</ele>
        <time>2025-10-18T09:13:42Z</time>
      </trkpt>
      <trkpt lat="43.2193" lon="5.4822">
        <ele>215.8</ele>
        <time>2025-10-18T09:13:43Z</time>
      </trkpt>
      <trkpt lat="43.2193" lon="5.48219">
        <ele>215.8</ele>
        <time>2025-10-18T09:13:44Z</time>
      </trkpt>
      <trkpt lat="43.21929" lon="5.48219">
        <ele>215.8</ele>
        <time>2025-10-18T09:13:45Z</time>
      </trkpt>
      <trkpt lat="43.21929" lon="5.48219">
        <ele>215.9</ele>
        <time>2025-10-18T09:13:46Z</time>
      </trkpt>
      <trkpt lat="43.21929" lon="5.48218">
        <ele>215.8</ele>
        <time>2025-10-18T09:13:47Z</time>
      </trkpt>
      <trkpt lat="43.21929" lon="5.48218">
        <ele>215.9</ele>
        <time>2025-10-18T09:13:48Z</time>
      </trkpt>
      <trkpt lat="43.21929" lon="5.48217">
        <ele>215.9</ele>
        <time>2025-10-18T09:13:49Z</time>
      </trkpt>
      <trkpt lat="43.21928" lon="5.48217">
        <ele>215.9</ele>
        <time>2025-10-18T09:13:50Z</time>
      </trkpt>
      <trkpt lat="43.21928" lon="5.48216">
        <ele>215.9</ele>
        <time>2025-10-18T09:13:51Z</time>
      </trkpt>
      <trkpt lat="43.21927" lon="5.48216">
        <ele>215.8</ele>
        <time>2025-10-18T09:13:52Z</time>
      </trkpt>
      <trkpt lat="43.21927" lon="5.48215">
        <ele>215.6</ele>
        <time>2025-10-18T09:13:53Z</time>
      </trkpt>
      <trkpt lat="43.21926" lon="5.48215">
        <ele>215.5</ele>
        <time>2025-10-18T09:13:54Z</time>
      </trkpt>
      <trkpt lat="43.21926" lon="5.48216">
        <ele>215.4</ele>
        <time>2025-10-18T09:13:55Z</time>
      </trkpt>
      <trkpt lat="43.21925" lon="5.48216">
        <ele>215.3</ele>
        <time>2025-10-18T09:13:56Z</time>
      </trkpt>
      <trkpt lat="43.21925" lon="5.48216">
        <ele>215.2</ele>
        <time>2025-10-18T09:13:57Z</time>
      </trkpt>
      <trkpt lat="43.21924" lon="5.48216">
        <ele>215</ele>
        <time>2025-10-18T09:13:58Z</time>
      </trkpt>
      <trkpt lat="43.21923" lon="5.48215">
        <ele>214.8</ele>
        <time>2025-10-18T09:13:59Z</time>
      </trkpt>
      <trkpt lat="43.21922" lon="5.48215">
        <ele>214.6</ele>
        <time>2025-10-18T09:14:00Z</time>
      </trkpt>
      <trkpt lat="43.21922" lon="5.48215">
        <ele>214.5</ele>
        <time>2025-10-18T09:14:01Z</time>
      </trkpt>
      <trkpt lat="43.21921" lon="5.48214">
        <ele>214.4</ele>
        <time>2025-10-18T09:14:02Z</time>
      </trkpt>
      <trkpt lat="43.2192" lon="5.48213">
        <ele>214.3</ele>
        <time>2025-10-18T09:14:03Z</time>
      </trkpt>
      <trkpt lat="43.21919" lon="5.48213">
        <ele>214.2</ele>
        <time>2025-10-18T09:14:04Z</time>
      </trkpt>
      <trkpt lat="43.21918" lon="5.48212">
        <ele>214.2</ele>
        <time>2025-10-18T09:14:05Z</time>
      </trkpt>
      <trkpt lat="43.21917" lon="5.48212">
        <ele>214.1</ele>
        <time>2025-10-18T09:14:06Z</time>
      </trkpt>
      <trkpt lat="43.21916" lon="5.48212">
        <ele>214</ele>
        <time>2025-10-18T09:14:07Z</time>
      </trkpt>
      <trkpt lat="43.21915" lon="5.48212">
        <ele>213.9</ele>
        <time>2025-10-18T09:14:08Z</time>
      </trkpt>
      <trkpt lat="43.21915" lon="5.48212">
        <ele>213.9</ele>
        <time>2025-10-18T09:14:09Z</time>
      </trkpt>
      <trkpt lat="43.21914" lon="5.48212">
        <ele>213.8</ele>
        <time>2025-10-18T09:14:10Z</time>
      </trkpt>
      <trkpt lat="43.21913" lon="5.48213">
        <ele>213.7</ele>
        <time>2025-10-18T09:14:11Z</time>
      </trkpt>
      <trkpt lat="43.21912" lon="5.48213">
        <ele>213.7</ele>
        <time>2025-10-18T09:14:12Z</time>
      </trkpt>
      <trkpt lat="43.21911" lon="5.48214">
        <ele>213.5</ele>
        <time>2025-10-18T09:14:13Z</time>
      </trkpt>
      <trkpt lat="43.2191" lon="5.48215">
        <ele>213.3</ele>
        <time>2025-10-18T09:14:14Z</time>
      </trkpt>
      <trkpt lat="43.21909" lon="5.48215">
        <ele>213.2</ele>
        <time>2025-10-18T09:14:15Z</time>
      </trkpt>
      <trkpt lat="43.21908" lon="5.48215">
        <ele>213.1</ele>
        <time>2025-10-18T09:14:16Z</time>
      </trkpt>
      <trkpt lat="43.21907" lon="5.48214">
        <ele>213</ele>
        <time>2025-10-18T09:14:17Z</time>
      </trkpt>
      <trkpt lat="43.21906" lon="5.48214">
        <ele>213</ele>
        <time>2025-10-18T09:14:18Z</time>
      </trkpt>
      <trkpt lat="43.21905" lon="5.48215">
        <ele>212.9</ele>
        <time>2025-10-18T09:14:19Z</time>
      </trkpt>
      <trkpt lat="43.21904" lon="5.48215">
        <ele>212.9</ele>
        <time>2025-10-18T09:14:20Z</time>
      </trkpt>
      <trkpt lat="43.21904" lon="5.48215">
        <ele>212.9</ele>
        <time>2025-10-18T09:14:21Z</time>
      </trkpt>
      <trkpt lat="43.21903" lon="5.48216">
        <ele>212.8</ele>
        <time>2025-10-18T09:14:22Z</time>
      </trkpt>
      <trkpt lat="43.21902" lon="5.48217">
        <ele>212.7</ele>
        <time>2025-10-18T09:14:23Z</time>
      </trkpt>
      <trkpt lat="43.21901" lon="5.48217">
        <ele>212.7</ele>
        <time>2025-10-18T09:14:24Z</time>
      </trkpt>
      <trkpt lat="43.219" lon="5.48217">
        <ele>212.6</ele>
        <time>2025-10-18T09:14:25Z</time>
      </trkpt>
      <trkpt lat="43.21899" lon="5.48218">
        <ele>212.6</ele>
        <time>2025-10-18T09:14:26Z</time>
      </trkpt>
      <trkpt lat="43.21898" lon="5.48218">
        <ele>212.5</ele>
        <time>2025-10-18T09:14:27Z</time>
      </trkpt>
      <trkpt lat="43.21898" lon="5.48218">
        <ele>212.4</ele>
        <time>2025-10-18T09:14:28Z</time>
      </trkpt>
      <trkpt lat="43.21897" lon="5.48219">
        <ele>212.4</ele>
        <time>2025-10-18T09:14:29Z</time>
      </trkpt>
      <trkpt lat="43.21896" lon="5.48219">
        <ele>212.3</ele>
        <time>2025-10-18T09:14:30Z</time>
      </trkpt>
      <trkpt lat="43.21895" lon="5.48219">
        <ele>212.3</ele>
        <time>2025-10-18T09:14:31Z</time>
      </trkpt>
      <trkpt lat="43.21894" lon="5.48219">
        <ele>212.3</ele>
        <time>2025-10-18T09:14:32Z</time>
      </trkpt>
      <trkpt lat="43.21893" lon="5.48219">
        <ele>212.2</ele>
        <time>2025-10-18T09:14:33Z</time>
      </trkpt>
      <trkpt lat="43.21892" lon="5.48219">
        <ele>212.2</ele>
        <time>2025-10-18T09:14:34Z</time>
      </trkpt>
      <trkpt lat="43.21892" lon="5.48219">
        <ele>212.2</ele>
        <time>2025-10-18T09:14:35Z</time>
      </trkpt>
      <trkpt lat="43.21891" lon="5.4822">
        <ele>212.2</ele>
        <time>2025-10-18T09:14:36Z</time>
      </trkpt>
      <trkpt lat="43.2189" lon="5.4822">
        <ele>212.1</ele>
        <time>2025-10-18T09:14:37Z</time>
      </trkpt>
      <trkpt lat="43.2189" lon="5.48221">
        <ele>211.9</ele>
        <time>2025-10-18T09:14:38Z</time>
      </trkpt>
      <trkpt lat="43.21889" lon="5.48222">
        <ele>211.8</ele>
        <time>2025-10-18T09:14:39Z</time>
      </trkpt>
      <trkpt lat="43.21888" lon="5.48223">
        <ele>211.8</ele>
        <time>2025-10-18T09:14:40Z</time>
      </trkpt>
      <trkpt lat="43.21888" lon="5.48224">
        <ele>211.7</ele>
        <time>2025-10-18T09:14:41Z</time>
      </trkpt>
      <trkpt lat="43.21887" lon="5.48225">
        <ele>211.6</ele>
        <time>2025-10-18T09:14:42Z</time>
      </trkpt>
      <trkpt lat="43.21886" lon="5.48226">
        <ele>211.6</ele>
        <time>2025-10-18T09:14:43Z</time>
      </trkpt>
      <trkpt lat="43.21886" lon="5.48227">
        <ele>211.5</ele>
        <time>2025-10-18T09:14:44Z</time>
      </trkpt>
      <trkpt lat="43.21885" lon="5.48228">
        <ele>211.5</ele>
        <time>2025-10-18T09:14:45Z</time>
      </trkpt>
      <trkpt lat="43.21884" lon="5.48229">
        <ele>211.4</ele>
        <time>2025-10-18T09:14:46Z</time>
      </trkpt>
      <trkpt lat="43.21884" lon="5.4823">
        <ele>211.3</ele>
        <time>2025-10-18T09:14:47Z</time>
      </trkpt>
      <trkpt lat="43.21884" lon="5.48232">
        <ele>211.4</ele>
        <time>2025-10-18T09:14:48Z</time>
      </trkpt>
      <trkpt lat="43.21884" lon="5.48233">
        <ele>211.4</ele>
        <time>2025-10-18T09:14:49Z</time>
      </trkpt>
      <trkpt lat="43.21883" lon="5.48234">
        <ele>211.4</ele>
        <time>2025-10-18T09:14:50Z</time>
      </trkpt>
      <trkpt lat="43.21883" lon="5.48235">
        <ele>211.4</ele>
        <time>2025-10-18T09:14:51Z</time>
      </trkpt>
      <trkpt lat="43.21882" lon="5.48236">
        <ele>211.4</ele>
        <time>2025-10-18T09:14:52Z</time>
      </trkpt>
      <trkpt lat="43.21882" lon="5.48237">
        <ele>211.3</ele>
        <time>2025-10-18T09:14:53Z</time>
      </trkpt>
      <trkpt lat="43.21881" lon="5.48237">
        <ele>211.2</ele>
        <time>2025-10-18T09:14:54Z</time>
      </trkpt>
      <trkpt lat="43.21881" lon="5.48238">
        <ele>211.1</ele>
        <time>2025-10-18T09:14:55Z</time>
      </trkpt>
      <trkpt lat="43.2188" lon="5.48239">
        <ele>211.1</ele>
        <time>2025-10-18T09:14:56Z</time>
      </trkpt>
      <trkpt lat="43.21879" lon="5.4824">
        <ele>210.9</ele>
        <time>2025-10-18T09:14:57Z</time>
      </trkpt>
      <trkpt lat="43.21879" lon="5.48242">
        <ele>210.8</ele>
        <time>2025-10-18T09:14:58Z</time>
      </trkpt>
      <trkpt lat="43.21879" lon="5.48243">
        <ele>210.7</ele>
        <time>2025-10-18T09:14:59Z</time>
      </trkpt>
      <trkpt lat="43.21879" lon="5.48245">
        <ele>210.6</ele>
        <time>2025-10-18T09:15:00Z</time>
      </trkpt>
      <trkpt lat="43.21879" lon="5.48246">
        <ele>210.5</ele>
        <time>2025-10-18T09:15:01Z</time>
      </trkpt>
      <trkpt lat="43.21879" lon="5.48246">
        <ele>210.4</ele>
        <time>2025-10-18T09:15:02Z</time>
      </trkpt>
      <trkpt lat="43.21879" lon="5.48247">
        <ele>210.2</ele>
        <time>2025-10-18T09:15:03Z</time>
      </trkpt>
      <trkpt lat="43.21879" lon="5.48248">
        <ele>210</ele>
        <time>2025-10-18T09:15:04Z</time>
      </trkpt>
      <trkpt lat="43.2188" lon="5.48249">
        <ele>210.2</ele>
        <time>2025-10-18T09:15:05Z</time>
      </trkpt>
      <trkpt lat="43.2188" lon="5.48249">
        <ele>210</ele>
        <time>2025-10-18T09:15:06Z</time>
      </trkpt>
      <trkpt lat="43.2188" lon="5.4825">
        <ele>209.8</ele>
        <time>2025-10-18T09:15:07Z</time>
      </trkpt>
      <trkpt lat="43.21879" lon="5.4825">
        <ele>209.7</ele>
        <time>2025-10-18T09:15:08Z</time>
      </trkpt>
      <trkpt lat="43.21879" lon="5.48251">
        <ele>209.5</ele>
        <time>2025-10-18T09:15:09Z</time>
      </trkpt>
      <trkpt lat="43.21879" lon="5.48252">
        <ele>209.4</ele>
        <time>2025-10-18T09:15:10Z</time>
      </trkpt>
      <trkpt lat="43.21879" lon="5.48253">
        <ele>209.1</ele>
        <time>2025-10-18T09:15:11Z</time>
      </trkpt>
      <trkpt lat="43.21879" lon="5.48255">
        <ele>209</ele>
        <time>2025-10-18T09:15:12Z</time>
      </trkpt>
      <trkpt lat="43.21879" lon="5.48255">
        <ele>208.9</ele>
        <time>2025-10-18T09:15:13Z</time>
      </trkpt>
      <trkpt lat="43.21879" lon="5.48256">
        <ele>208.8</ele>
        <time>2025-10-18T09:15:14Z</time>
      </trkpt>
      <trkpt lat="43.21879" lon="5.48257">
        <ele>208.7</ele>
        <time>2025-10-18T09:15:15Z</time>
      </trkpt>
      <trkpt lat="43.21879" lon="5.48258">
        <ele>208.5</ele>
        <time>2025-10-18T09:15:16Z</time>
      </trkpt>
      <trkpt lat="43.21879" lon="5.4826">
        <ele>208.4</ele>
        <time>2025-10-18T09:15:17Z</time>
      </trkpt>
      <trkpt lat="43.21878" lon="5.48261">
        <ele>208.3</ele>
        <time>2025-10-18T09:15:18Z</time>
      </trkpt>
      <trkpt lat="43.21878" lon="5.48262">
        <ele>208.3</ele>
        <time>2025-10-18T09:15:19Z</time>
      </trkpt>
      <trkpt lat="43.21878" lon="5.48263">
        <ele>208.1</ele>
        <time>2025-10-18T09:15:20Z</time>
      </trkpt>
      <trkpt lat="43.21878" lon="5.48263">
        <ele>207.9</ele>
        <time>2025-10-18T09:15:21Z</time>
      </trkpt>
      <trkpt lat="43.21878" lon="5.48265">
        <ele>207.9</ele>
        <time>2025-10-18T09:15:22Z</time>
      </trkpt>
      <trkpt lat="43.21877" lon="5.48266">
        <ele>207.9</ele>
        <time>2025-10-18T09:15:23Z</time>
      </trkpt>
      <trkpt lat="43.21877" lon="5.48267">
        <ele>207.8</ele>
        <time>2025-10-18T09:15:24Z</time>
      </trkpt>
      <trkpt lat="43.21877" lon="5.48268">
        <ele>207.7</ele>
        <time>2025-10-18T09:15:25Z</time>
      </trkpt>
      <trkpt lat="43.21877" lon="5.4827">
        <ele>207.5</ele>
        <time>2025-10-18T09:15:26Z</time>
      </trkpt>
      <trkpt lat="43.21877" lon="5.48271">
        <ele>207.4</ele>
        <time>2025-10-18T09:15:27Z</time>
      </trkpt>
      <trkpt lat="43.21877" lon="5.48272">
        <ele>207.3</ele>
        <time>2025-10-18T09:15:28Z</time>
      </trkpt>
      <trkpt lat="43.21877" lon="5.48273">
        <ele>207.3</ele>
        <time>2025-10-18T09:15:29Z</time>
      </trkpt>
      <trkpt lat="43.21877" lon="5.48274">
        <ele>207.3</ele>
        <time>2025-10-18T09:15:30Z</time>
      </trkpt>
      <trkpt lat="43.21876" lon="5.48275">
        <ele>207.3</ele>
        <time>2025-10-18T09:15:31Z</time>
      </trkpt>
      <trkpt lat="43.21875" lon="5.48275">
        <ele>207.5</ele>
        <time>2025-10-18T09:15:32Z</time>
      </trkpt>
      <trkpt lat="43.21875" lon="5.48276">
        <ele>207.6</ele>
        <time>2025-10-18T09:15:33Z</time>
      </trkpt>
      <trkpt lat="43.21874" lon="5.48277">
        <ele>207.7</ele>
        <time>2025-10-18T09:15:34Z</time>
      </trkpt>
      <trkpt lat="43.21874" lon="5.48277">
        <ele>207.6</ele>
        <time>2025-10-18T09:15:35Z</time>
      </trkpt>
      <trkpt lat="43.21873" lon="5.48278">
        <ele>207.5</ele>
        <time>2025-10-18T09:15:36Z</time>
      </trkpt>
      <trkpt lat="43.21872" lon="5.48278">
        <ele>207.5</ele>
        <time>2025-10-18T09:15:37Z</time>
      </trkpt>
      <trkpt lat="43.21871" lon="5.48279">
        <ele>207.5</ele>
        <time>2025-10-18T09:15:38Z</time>
      </trkpt>
      <trkpt lat="43.2187" lon="5.48279">
        <ele>207.4</ele>
        <time>2025-10-18T09:15:39Z</time>
      </trkpt>
      <trkpt lat="43.2187" lon="5.48279">
        <ele>207.4</ele>
        <time>2025-10-18T09:15:40Z</time>
      </trkpt>
      <trkpt lat="43.21869" lon="5.4828">
        <ele>207.3</ele>
        <time>2025-10-18T09:15:41Z</time>
      </trkpt>
      <trkpt lat="43.21869" lon="5.48281">
        <ele>207.2</ele>
        <time>2025-10-18T09:15:42Z</time>
      </trkpt>
      <trkpt lat="43.21868" lon="5.48282">
        <ele>207.1</ele>
        <time>2025-10-18T09:15:43Z</time>
      </trkpt>
      <trkpt lat="43.21867" lon="5.48282">
        <ele>207.1</ele>
        <time>2025-10-18T09:15:44Z</time>
      </trkpt>
      <trkpt lat="43.21866" lon="5.48284">
        <ele>207.1</ele>
        <time>2025-10-18T09:15:45Z</time>
      </trkpt>
      <trkpt lat="43.21866" lon="5.48284">
        <ele>207</ele>
        <time>2025-10-18T09:15:46Z</time>
      </trkpt>
      <trkpt lat="43.21865" lon="5.48285">
        <ele>207</ele>
        <time>2025-10-18T09:15:47Z</time>
      </trkpt>
      <trkpt lat="43.21864" lon="5.48285">
        <ele>207</ele>
        <time>2025-10-18T09:15:48Z</time>
      </trkpt>
      <trkpt lat="43.21864" lon="5.48287">
        <ele>207.1</ele>
        <time>2025-10-18T09:15:49Z</time>
      </trkpt>
      <trkpt lat="43.21863" lon="5.48289">
        <ele>207.1</ele>
        <time>2025-10-18T09:15:50Z</time>
      </trkpt>
      <trkpt lat="43.21863" lon="5.4829">
        <ele>207.2</ele>
        <time>2025-10-18T09:15:51Z</time>
      </trkpt>
      <trkpt lat="43.21863" lon="5.48291">
        <ele>207.2</ele>
        <time>2025-10-18T09:15:52Z</time>
      </trkpt>
      <trkpt lat="43.21862" lon="5.48292">
        <ele>207.2</ele>
        <time>2025-10-18T09:15:53Z</time>
      </trkpt>
      <trkpt lat="43.21862" lon="5.48293">
        <ele>207.3</ele>
        <time>2025-10-18T09:15:54Z</time>
      </trkpt>
      <trkpt lat="43.21862" lon="5.48293">
        <ele>207.3</ele>
        <time>2025-10-18T09:15:55Z</time>
      </trkpt>
      <trkpt lat="43.21861" lon="5.48295">
        <ele>207.3</ele>
        <time>2025-10-18T09:15:56Z</time>
      </trkpt>
      <trkpt lat="43.21861" lon="5.48296">
        <ele>207.5</ele>
        <time>2025-10-18T09:15:57Z</time>
      </trkpt>
      <trkpt lat="43.21861" lon="5.48297">
        <ele>207.4</ele>
        <time>2025-10-18T09:15:58Z</time>
      </trkpt>
      <trkpt lat="43.21861" lon="5.48299">
        <ele>207.3</ele>
        <time>2025-10-18T09:15:59Z</time>
      </trkpt>
      <trkpt lat="43.21861" lon="5.48301">
        <ele>207.4</ele>
        <time>2025-10-18T09:16:00Z</time>
      </trkpt>
      <trkpt lat="43.2186" lon="5.48302">
        <ele>207.3</ele>
        <time>2025-10-18T09:16:01Z</time>
      </trkpt>
      <trkpt lat="43.2186" lon="5.48304">
        <ele>207.2</ele>
        <time>2025-10-18T09:16:02Z</time>
      </trkpt>
      <trkpt lat="43.2186" lon="5.48304">
        <ele>207.1</ele>
        <time>2025-10-18T09:16:03Z</time>
      </trkpt>
      <trkpt lat="43.21859" lon="5.48305">
        <ele>207</ele>
        <time>2025-10-18T09:16:04Z</time>
      </trkpt>
      <trkpt lat="43.21859" lon="5.48307">
        <ele>207</ele>
        <time>2025-10-18T09:16:05Z</time>
      </trkpt>
      <trkpt lat="43.21859" lon="5.48309">
        <ele>206.9</ele>
        <time>2025-10-18T09:16:06Z</time>
      </trkpt>
      <trkpt lat="43.21859" lon="5.48311">
        <ele>206.7</ele>
        <time>2025-10-18T09:16:07Z</time>
      </trkpt>
      <trkpt lat="43.21859" lon="5.48312">
        <ele>206.8</ele>
        <time>2025-10-18T09:16:08Z</time>
      </trkpt>
      <trkpt lat="43.21859" lon="5.48314">
        <ele>206.7</ele>
        <time>2025-10-18T09:16:09Z</time>
      </trkpt>
      <trkpt lat="43.21859" lon="5.48315">
        <ele>206.7</ele>
        <time>2025-10-18T09:16:10Z</time>
      </trkpt>
      <trkpt lat="43.2186" lon="5.48317">
        <ele>206.6</ele>
        <time>2025-10-18T09:16:11Z</time>
      </trkpt>
      <trkpt lat="43.2186" lon="5.48318">
        <ele>206.7</ele>
        <time>2025-10-18T09:16:12Z</time>
      </trkpt>
      <trkpt lat="43.2186" lon="5.48319">
        <ele>206.6</ele>
        <time>2025-10-18T09:16:13Z</time>
      </trkpt>
      <trkpt lat="43.2186" lon="5.4832">
        <ele>206.5</ele>
        <time>2025-10-18T09:16:14Z</time>
      </trkpt>
      <trkpt lat="43.2186" lon="5.48321">
        <ele>206.4</ele>
        <time>2025-10-18T09:16:15Z</time>
      </trkpt>
      <trkpt lat="43.21861" lon="5.48323">
        <ele>206.3</ele>
        <time>2025-10-18T09:16:16Z</time>
      </trkpt>
      <trkpt lat="43.21861" lon="5.48323">
        <ele>206.2</ele>
        <time>2025-10-18T09:16:17Z</time>
      </trkpt>
      <trkpt lat="43.21861" lon="5.48324">
        <ele>206.2</ele>
        <time>2025-10-18T09:16:18Z</time>
      </trkpt>
      <trkpt lat="43.21861" lon="5.48326">
        <ele>206.2</ele>
        <time>2025-10-18T09:16:19Z</time>
      </trkpt>
      <trkpt lat="43.21861" lon="5.48326">
        <ele>206.1</ele>
        <time>2025-10-18T09:16:20Z</time>
      </trkpt>
      <trkpt lat="43.21861" lon="5.48327">
        <ele>206</ele>
        <time>2025-10-18T09:16:21Z</time>
      </trkpt>
      <trkpt lat="43.21861" lon="5.48328">
        <ele>205.9</ele>
        <time>2025-10-18T09:16:22Z</time>
      </trkpt>
      <trkpt lat="43.21862" lon="5.4833">
        <ele>205.8</ele>
        <time>2025-10-18T09:16:23Z</time>
      </trkpt>
      <trkpt lat="43.21862" lon="5.48332">
        <ele>205.7</ele>
        <time>2025-10-18T09:16:24Z</time>
      </trkpt>
      <trkpt lat="43.21862" lon="5.48333">
        <ele>205.6</ele>
        <time>2025-10-18T09:16:25Z</time>
      </trkpt>
      <trkpt lat="43.21862" lon="5.48334">
        <ele>205.4</ele>
        <time>2025-10-18T09:16:26Z</time>
      </trkpt>
      <trkpt lat="43.21863" lon="5.48335">
        <ele>205.2</ele>
        <time>2025-10-18T09:16:27Z</time>
      </trkpt>
      <trkpt lat="43.21863" lon="5.48336">
        <ele>205.1</ele>
        <time>2025-10-18T09:16:28Z</time>
      </trkpt>
      <trkpt lat="43.21862" lon="5.48336">
        <ele>205</ele>
        <time>2025-10-18T09:16:29Z</time>
      </trkpt>
      <trkpt lat="43.21862" lon="5.48338">
        <ele>204.9</ele>
        <time>2025-10-18T09:16:30Z</time>
      </trkpt>
      <trkpt lat="43.21862" lon="5.48339">
        <ele>204.9</ele>
        <time>2025-10-18T09:16:31Z</time>
      </trkpt>
      <trkpt lat="43.21862" lon="5.4834">
        <ele>204.8</ele>
        <time>2025-10-18T09:16:32Z</time>
      </trkpt>
      <trkpt lat="43.21862" lon="5.48341">
        <ele>204.7</ele>
        <time>2025-10-18T09:16:33Z</time>
      </trkpt>
      <trkpt lat="43.21862" lon="5.48342">
        <ele>204.7</ele>
        <time>2025-10-18T09:16:34Z</time>
      </trkpt>
      <trkpt lat="43.21862" lon="5.48343">
        <ele>204.7</ele>
        <time>2025-10-18T09:16:35Z</time>
      </trkpt>
      <trkpt lat="43.21861" lon="5.48344">
        <ele>204.5</ele>
        <time>2025-10-18T09:16:36Z</time>
      </trkpt>
      <trkpt lat="43.21861" lon="5.48346">
        <ele>204.4</ele>
        <time>2025-10-18T09:16:37Z</time>
      </trkpt>
      <trkpt lat="43.2186" lon="5.48347">
        <ele>204.3</ele>
        <time>2025-10-18T09:16:38Z</time>
      </trkpt>
      <trkpt lat="43.2186" lon="5.48347">
        <ele>204.2</ele>
        <time>2025-10-18T09:16:39Z</time>
      </trkpt>
      <trkpt lat="43.21859" lon="5.48348">
        <ele>204</ele>
        <time>2025-10-18T09:16:40Z</time>
      </trkpt>
      <trkpt lat="43.21859" lon="5.48349">
        <ele>203.7</ele>
        <time>2025-10-18T09:16:41Z</time>
      </trkpt>
      <trkpt lat="43.21858" lon="5.4835">
        <ele>203.5</ele>
        <time>2025-10-18T09:16:42Z</time>
      </trkpt>
      <trkpt lat="43.21858" lon="5.48351">
        <ele>203.4</ele>
        <time>2025-10-18T09:16:43Z</time>
      </trkpt>
      <trkpt lat="43.21857" lon="5.48351">
        <ele>203.3</ele>
        <time>2025-10-18T09:16:44Z</time>
      </trkpt>
      <trkpt lat="43.21857" lon="5.48351">
        <ele>203.2</ele>
        <time>2025-10-18T09:16:45Z</time>
      </trkpt>
      <trkpt lat="43.21856" lon="5.48351">
        <ele>203.1</ele>
        <time>2025-10-18T09:16:46Z</time>
      </trkpt>
      <trkpt lat="43.21856" lon="5.48352">
        <ele>203</ele>
        <time>2025-10-18T09:16:47Z</time>
      </trkpt>
      <trkpt lat="43.21855" lon="5.48353">
        <ele>202.9</ele>
        <time>2025-10-18T09:16:48Z</time>
      </trkpt>
      <trkpt lat="43.21854" lon="5.48353">
        <ele>202.6</ele>
        <time>2025-10-18T09:16:49Z</time>
      </trkpt>
      <trkpt lat="43.21853" lon="5.48354">
        <ele>202.5</ele>
        <time>2025-10-18T09:16:50Z</time>
      </trkpt>
      <trkpt lat="43.21853" lon="5.48354">
        <ele>202.5</ele>
        <time>2025-10-18T09:16:51Z</time>
      </trkpt>
      <trkpt lat="43.21852" lon="5.48354">
        <ele>202.4</ele>
        <time>2025-10-18T09:16:52Z</time>
      </trkpt>
      <trkpt lat="43.21852" lon="5.48355">
        <ele>202.2</ele>
        <time>2025-10-18T09:16:53Z</time>
      </trkpt>
      <trkpt lat="43.21851" lon="5.48355">
        <ele>202</ele>
        <time>2025-10-18T09:16:54Z</time>
      </trkpt>
      <trkpt lat="43.2185" lon="5.48355">
        <ele>201.9</ele>
        <time>2025-10-18T09:16:55Z</time>
      </trkpt>
      <trkpt lat="43.21849" lon="5.48356">
        <ele>201.8</ele>
        <time>2025-10-18T09:16:56Z</time>
      </trkpt>
      <trkpt lat="43.21848" lon="5.48356">
        <ele>201.6</ele>
        <time>2025-10-18T09:16:57Z</time>
      </trkpt>
      <trkpt lat="43.21848" lon="5.48357">
        <ele>201.6</ele>
        <time>2025-10-18T09:16:58Z</time>
      </trkpt>
      <trkpt lat="43.21847" lon="5.48358">
        <ele>201.5</ele>
        <time>2025-10-18T09:16:59Z</time>
      </trkpt>
      <trkpt lat="43.21846" lon="5.48358">
        <ele>201.5</ele>
        <time>2025-10-18T09:17:00Z</time>
      </trkpt>
      <trkpt lat="43.21846" lon="5.48358">
        <ele>201.4</ele>
        <time>2025-10-18T09:17:01Z</time>
      </trkpt>
      <trkpt lat="43.21845" lon="5.48358">
        <ele>201.3</ele>
        <time>2025-10-18T09:17:02Z</time>
      </trkpt>
      <trkpt lat="43.21845" lon="5.48358">
        <ele>201.2</ele>
        <time>2025-10-18T09:17:03Z</time>
      </trkpt>
      <trkpt lat="43.21844" lon="5.48359">
        <ele>201.2</ele>
        <time>2025-10-18T09:17:04Z</time>
      </trkpt>
      <trkpt lat="43.21844" lon="5.48359">
        <ele>201.1</ele>
        <time>2025-10-18T09:17:05Z</time>
      </trkpt>
      <trkpt lat="43.21843" lon="5.4836">
        <ele>201</ele>
        <time>2025-10-18T09:17:06Z</time>
      </trkpt>
      <trkpt lat="43.21843" lon="5.4836">
        <ele>200.9</ele>
        <time>2025-10-18T09:17:07Z</time>
      </trkpt>
      <trkpt lat="43.21843" lon="5.48361">
        <ele>200.9</ele>
        <time>2025-10-18T09:17:08Z</time>
      </trkpt>
      <trkpt lat="43.21843" lon="5.48362">
        <ele>200.8</ele>
        <time>2025-10-18T09:17:09Z</time>
      </trkpt>
      <trkpt lat="43.21843" lon="5.48363">
        <ele>200.7</ele>
        <time>2025-10-18T09:17:10Z</time>
      </trkpt>
      <trkpt lat="43.21842" lon="5.48364">
        <ele>200.7</ele>
        <time>2025-10-18T09:17:11Z</time>
      </trkpt>
      <trkpt lat="43.21842" lon="5.48365">
        <ele>200.5</ele>
        <time>2025-10-18T09:17:12Z</time>
      </trkpt>
      <trkpt lat="43.21841" lon="5.48365">
        <ele>200.4</ele>
        <time>2025-10-18T09:17:13Z</time>
      </trkpt>
      <trkpt lat="43.21841" lon="5.48366">
        <ele>200.3</ele>
        <time>2025-10-18T09:17:14Z</time>
      </trkpt>
      <trkpt lat="43.21841" lon="5.48366">
        <ele>200.2</ele>
        <time>2025-10-18T09:17:15Z</time>
      </trkpt>
      <trkpt lat="43.2184" lon="5.48367">
        <ele>200.1</ele>
        <time>2025-10-18T09:17:16Z</time>
      </trkpt>
      <trkpt lat="43.21839" lon="5.48368">
        <ele>200</ele>
        <time>2025-10-18T09:17:17Z</time>
      </trkpt>
      <trkpt lat="43.21839" lon="5.48368">
        <ele>199.9</ele>
        <time>2025-10-18T09:17:18Z</time>
      </trkpt>
      <trkpt lat="43.21838" lon="5.48369">
        <ele>199.7</ele>
        <time>2025-10-18T09:17:19Z</time>
      </trkpt>
      <trkpt lat="43.21838" lon="5.4837">
        <ele>199.5</ele>
        <time>2025-10-18T09:17:20Z</time>
      </trkpt>
      <trkpt lat="43.21837" lon="5.48371">
        <ele>199.2</ele>
        <time>2025-10-18T09:17:21Z</time>
      </trkpt>
      <trkpt lat="43.21837" lon="5.48372">
        <ele>198.9</ele>
        <time>2025-10-18T09:17:22Z</time>
      </trkpt>
      <trkpt lat="43.21837" lon="5.48372">
        <ele>198.7</ele>
        <time>2025-10-18T09:17:23Z</time>
      </trkpt>
      <trkpt lat="43.21837" lon="5.48372">
        <ele>198.5</ele>
        <time>2025-10-18T09:17:24Z</time>
      </trkpt>
      <trkpt lat="43.21836" lon="5.48373">
        <ele>198.3</ele>
        <time>2025-10-18T09:17:25Z</time>
      </trkpt>
      <trkpt lat="43.21836" lon="5.48373">
        <ele>198.2</ele>
        <time>2025-10-18T09:17:26Z</time>
      </trkpt>
      <trkpt lat="43.21836" lon="5.48374">
        <ele>198</ele>
        <time>2025-10-18T09:17:27Z</time>
      </trkpt>
      <trkpt lat="43.21836" lon="5.48374">
        <ele>197.9</ele>
        <time>2025-10-18T09:17:28Z</time>
      </trkpt>
      <trkpt lat="43.21835" lon="5.48374">
        <ele>197.8</ele>
        <time>2025-10-18T09:17:29Z</time>
      </trkpt>
      <trkpt lat="43.21835" lon="5.48375">
        <ele>197.6</ele>
        <time>2025-10-18T09:17:30Z</time>
      </trkpt>
      <trkpt lat="43.21834" lon="5.48375">
        <ele>197.4</ele>
        <time>2025-10-18T09:17:31Z</time>
      </trkpt>
      <trkpt lat="43.21833" lon="5.48376">
        <ele>197.3</ele>
        <time>2025-10-18T09:17:32Z</time>
      </trkpt>
      <trkpt lat="43.21832" lon="5.48377">
        <ele>197.1</ele>
        <time>2025-10-18T09:17:33Z</time>
      </trkpt>
      <trkpt lat="43.21831" lon="5.48378">
        <ele>197</ele>
        <time>2025-10-18T09:17:34Z</time>
      </trkpt>
      <trkpt lat="43.21831" lon="5.48379">
        <ele>196.8</ele>
        <time>2025-10-18T09:17:35Z</time>
      </trkpt>
      <trkpt lat="43.2183" lon="5.48379">
        <ele>196.7</ele>
        <time>2025-10-18T09:17:36Z</time>
      </trkpt>
      <trkpt lat="43.21829" lon="5.4838">
        <ele>196.5</ele>
        <time>2025-10-18T09:17:37Z</time>
      </trkpt>
      <trkpt lat="43.21829" lon="5.48382">
        <ele>196.4</ele>
        <time>2025-10-18T09:17:38Z</time>
      </trkpt>
      <trkpt lat="43.21828" lon="5.48382">
        <ele>196.3</ele>
        <time>2025-10-18T09:17:39Z</time>
      </trkpt>
      <trkpt lat="43.21828" lon="5.48383">
        <ele>196.2</ele>
        <time>2025-10-18T09:17:40Z</time>
      </trkpt>
      <trkpt lat="43.21827" lon="5.48383">
        <ele>196</ele>
        <time>2025-10-18T09:17:41Z</time>
      </trkpt>
      <trkpt lat="43.21826" lon="5.48383">
        <ele>195.9</ele>
        <time>2025-10-18T09:17:42Z</time>
      </trkpt>
      <trkpt lat="43.21825" lon="5.48383">
        <ele>195.8</ele>
        <time>2025-10-18T09:17:43Z</time>
      </trkpt>
      <trkpt lat="43.21824" lon="5.48383">
        <ele>195.7</ele>
        <time>2025-10-18T09:17:44Z</time>
      </trkpt>
      <trkpt lat="43.21823" lon="5.48383">
        <ele>195.7</ele>
        <time>2025-10-18T09:17:45Z</time>
      </trkpt>
      <trkpt lat="43.21823" lon="5.48384">
        <ele>195.6</ele>
        <time>2025-10-18T09:17:46Z</time>
      </trkpt>
      <trkpt lat="43.21822" lon="5.48384">
        <ele>195.6</ele>
        <time>2025-10-18T09:17:47Z</time>
      </trkpt>
      <trkpt lat="43.21821" lon="5.48384">
        <ele>195.5</ele>
        <time>2025-10-18T09:17:48Z</time>
      </trkpt>
      <trkpt lat="43.2182" lon="5.48384">
        <ele>195.4</ele>
        <time>2025-10-18T09:17:49Z</time>
      </trkpt>
      <trkpt lat="43.21819" lon="5.48385">
        <ele>195.3</ele>
        <time>2025-10-18T09:17:50Z</time>
      </trkpt>
      <trkpt lat="43.21819" lon="5.48385">
        <ele>195.3</ele>
        <time>2025-10-18T09:17:51Z</time>
      </trkpt>
      <trkpt lat="43.21818" lon="5.48386">
        <ele>195.3</ele>
        <time>2025-10-18T09:17:52Z</time>
      </trkpt>
      <trkpt lat="43.21817" lon="5.48387">
        <ele>195.2</ele>
        <time>2025-10-18T09:17:53Z</time>
      </trkpt>
      <trkpt lat="43.21816" lon="5.48387">
        <ele>195.2</ele>
        <time>2025-10-18T09:17:54Z</time>
      </trkpt>
      <trkpt lat="43.21815" lon="5.48387">
        <ele>195.1</ele>
        <time>2025-10-18T09:17:55Z</time>
      </trkpt>
      <trkpt lat="43.21815" lon="5.48387">
        <ele>195</ele>
        <time>2025-10-18T09:17:56Z</time>
      </trkpt>
      <trkpt lat="43.21814" lon="5.48388">
        <ele>194.9</ele>
        <time>2025-10-18T09:17:57Z</time>
      </trkpt>
      <trkpt lat="43.21813" lon="5.48388">
        <ele>194.9</ele>
        <time>2025-10-18T09:17:58Z</time>
      </trkpt>
      <trkpt lat="43.21812" lon="5.48389">
        <ele>194.8</ele>
        <time>2025-10-18T09:17:59Z</time>
      </trkpt>
      <trkpt lat="43.21811" lon="5.48389">
        <ele>194.8</ele>
        <time>2025-10-18T09:18:00Z</time>
      </trkpt>
      <trkpt lat="43.2181" lon="5.4839">
        <ele>194.7</ele>
        <time>2025-10-18T09:18:01Z</time>
      </trkpt>
      <trkpt lat="43.21809" lon="5.4839">
        <ele>194.8</ele>
        <time>2025-10-18T09:18:02Z</time>
      </trkpt>
      <trkpt lat="43.21808" lon="5.48391">
        <ele>194.7</ele>
        <time>2025-10-18T09:18:03Z</time>
      </trkpt>
      <trkpt lat="43.21808" lon="5.48391">
        <ele>194.6</ele>
        <time>2025-10-18T09:18:04Z</time>
      </trkpt>
      <trkpt lat="43.21807" lon="5.48391">
        <ele>194.6</ele>
        <time>2025-10-18T09:18:05Z</time>
      </trkpt>
      <trkpt lat="43.21806" lon="5.48391">
        <ele>194.5</ele>
        <time>2025-10-18T09:18:06Z</time>
      </trkpt>
      <trkpt lat="43.21805" lon="5.48391">
        <ele>194.4</ele>
        <time>2025-10-18T09:18:07Z</time>
      </trkpt>
      <trkpt lat="43.21804" lon="5.48391">
        <ele>194.3</ele>
        <time>2025-10-18T09:18:08Z</time>
      </trkpt>
      <trkpt lat="43.21803" lon="5.48391">
        <ele>194.2</ele>
        <time>2025-10-18T09:18:09Z</time>
      </trkpt>
      <trkpt lat="43.21802" lon="5.48391">
        <ele>194.1</ele>
        <time>2025-10-18T09:18:10Z</time>
      </trkpt>
      <trkpt lat="43.21801" lon="5.48391">
        <ele>194.1</ele>
        <time>2025-10-18T09:18:11Z</time>
      </trkpt>
      <trkpt lat="43.218" lon="5.48391">
        <ele>194.1</ele>
        <time>2025-10-18T09:18:12Z</time>
      </trkpt>
      <trkpt lat="43.218" lon="5.48392">
        <ele>194.1</ele>
        <time>2025-10-18T09:18:13Z</time>
      </trkpt>
      <trkpt lat="43.21799" lon="5.48392">
        <ele>194.2</ele>
        <time>2025-10-18T09:18:14Z</time>
      </trkpt>
      <trkpt lat="43.21798" lon="5.48392">
        <ele>194.1</ele>
        <time>2025-10-18T09:18:15Z</time>
      </trkpt>
      <trkpt lat="43.21797" lon="5.48392">
        <ele>193.6</ele>
        <time>2025-10-18T09:18:16Z</time>
      </trkpt>
      <trkpt lat="43.21796" lon="5.48392">
        <ele>193.7</ele>
        <time>2025-10-18T09:18:17Z</time>
      </trkpt>
      <trkpt lat="43.21795" lon="5.48392">
        <ele>193.7</ele>
        <time>2025-10-18T09:18:18Z</time>
      </trkpt>
      <trkpt lat="43.21794" lon="5.48392">
        <ele>193.7</ele>
        <time>2025-10-18T09:18:19Z</time>
      </trkpt>
      <trkpt lat="43.21793" lon="5.48392">
        <ele>193.7</ele>
        <time>2025-10-18T09:18:20Z</time>
      </trkpt>
      <trkpt lat="43.21792" lon="5.48393">
        <ele>193.8</ele>
        <time>2025-10-18T09:18:21Z</time>
      </trkpt>
      <trkpt lat="43.21791" lon="5.48392">
        <ele>193.8</ele>
        <time>2025-10-18T09:18:22Z</time>
      </trkpt>
      <trkpt lat="43.2179" lon="5.48392">
        <ele>193.7</ele>
        <time>2025-10-18T09:18:23Z</time>
      </trkpt>
      <trkpt lat="43.21789" lon="5.48393">
        <ele>193.7</ele>
        <time>2025-10-18T09:18:24Z</time>
      </trkpt>
      <trkpt lat="43.21788" lon="5.48393">
        <ele>193.7</ele>
        <time>2025-10-18T09:18:25Z</time>
      </trkpt>
      <trkpt lat="43.21787" lon="5.48392">
        <ele>193.7</ele>
        <time>2025-10-18T09:18:26Z</time>
      </trkpt>
      <trkpt lat="43.21787" lon="5.48392">
        <ele>193.7</ele>
        <time>2025-10-18T09:18:27Z</time>
      </trkpt>
      <trkpt lat="43.21786" lon="5.48393">
        <ele>193.6</ele>
        <time>2025-10-18T09:18:28Z</time>
      </trkpt>
      <trkpt lat="43.21786" lon="5.48394">
        <ele>193.5</ele>
        <time>2025-10-18T09:18:29Z</time>
      </trkpt>
      <trkpt lat="43.21786" lon="5.48394">
        <ele>193.3</ele>
        <time>2025-10-18T09:18:30Z</time>
      </trkpt>
      <trkpt lat="43.21786" lon="5.48394">
        <ele>193.3</ele>
        <time>2025-10-18T09:18:31Z</time>
      </trkpt>
      <trkpt lat="43.21786" lon="5.48394">
        <ele>193.2</ele>
        <time>2025-10-18T09:18:32Z</time>
      </trkpt>
      <trkpt lat="43.21786" lon="5.48395">
        <ele>193.1</ele>
        <time>2025-10-18T09:18:33Z</time>
      </trkpt>
      <trkpt lat="43.21785" lon="5.48395">
        <ele>193.1</ele>
        <time>2025-10-18T09:18:34Z</time>
      </trkpt>
      <trkpt lat="43.21785" lon="5.48395">
        <ele>193</ele>
        <time>2025-10-18T09:18:35Z</time>
      </trkpt>
      <trkpt lat="43.21784" lon="5.48396">
        <ele>193.1</ele>
        <time>2025-10-18T09:18:36Z</time>
      </trkpt>
      <trkpt lat="43.21785" lon="5.48396">
        <ele>193.2</ele>
        <time>2025-10-18T09:18:37Z</time>
      </trkpt>
      <trkpt lat="43.21784" lon="5.48397">
        <ele>193</ele>
        <time>2025-10-18T09:18:38Z</time>
      </trkpt>
      <trkpt lat="43.21784" lon="5.48397">
        <ele>193.1</ele>
        <time>2025-10-18T09:18:39Z</time>
      </trkpt>
      <trkpt lat="43.21784" lon="5.48397">
        <ele>193</ele>
        <time>2025-10-18T09:18:40Z</time>
      </trkpt>
      <trkpt lat="43.21784" lon="5.48397">
        <ele>193</ele>
        <time>2025-10-18T09:18:41Z</time>
      </trkpt>
      <trkpt lat="43.21784" lon="5.48398">
        <ele>193</ele>
        <time>2025-10-18T09:18:42Z</time>
      </trkpt>
      <trkpt lat="43.21783" lon="5.48398">
        <ele>192.9</ele>
        <time>2025-10-18T09:18:43Z</time>
      </trkpt>
      <trkpt lat="43.21783" lon="5.484">
        <ele>192.8</ele>
        <time>2025-10-18T09:18:44Z</time>
      </trkpt>
      <trkpt lat="43.21782" lon="5.484">
        <ele>192.8</ele>
        <time>2025-10-18T09:18:45Z</time>
      </trkpt>
      <trkpt lat="43.21782" lon="5.48401">
        <ele>192.7</ele>
        <time>2025-10-18T09:18:46Z</time>
      </trkpt>
      <trkpt lat="43.21782" lon="5.48403">
        <ele>192.6</ele>
        <time>2025-10-18T09:18:47Z</time>
      </trkpt>
      <trkpt lat="43.21781" lon="5.48404">
        <ele>192.4</ele>
        <time>2025-10-18T09:18:48Z</time>
      </trkpt>
      <trkpt lat="43.21781" lon="5.48405">
        <ele>192.3</ele>
        <time>2025-10-18T09:18:49Z</time>
      </trkpt>
      <trkpt lat="43.21782" lon="5.48406">
        <ele>192.1</ele>
        <time>2025-10-18T09:18:50Z</time>
      </trkpt>
      <trkpt lat="43.21782" lon="5.48408">
        <ele>192</ele>
        <time>2025-10-18T09:18:51Z</time>
      </trkpt>
      <trkpt lat="43.21783" lon="5.48409">
        <ele>191.9</ele>
        <time>2025-10-18T09:18:52Z</time>
      </trkpt>
      <trkpt lat="43.21783" lon="5.4841">
        <ele>191.8</ele>
        <time>2025-10-18T09:18:53Z</time>
      </trkpt>
      <trkpt lat="43.21783" lon="5.48411">
        <ele>191.7</ele>
        <time>2025-10-18T09:18:54Z</time>
      </trkpt>
      <trkpt lat="43.21783" lon="5.48412">
        <ele>191.6</ele>
        <time>2025-10-18T09:18:55Z</time>
      </trkpt>
      <trkpt lat="43.21784" lon="5.48412">
        <ele>191.4</ele>
        <time>2025-10-18T09:18:56Z</time>
      </trkpt>
      <trkpt lat="43.21784" lon="5.48413">
        <ele>191.3</ele>
        <time>2025-10-18T09:18:57Z</time>
      </trkpt>
      <trkpt lat="43.21784" lon="5.48414">
        <ele>191.2</ele>
        <time>2025-10-18T09:18:58Z</time>
      </trkpt>
      <trkpt lat="43.21784" lon="5.48416">
        <ele>191.1</ele>
        <time>2025-10-18T09:18:59Z</time>
      </trkpt>
      <trkpt lat="43.21785" lon="5.48416">
        <ele>191</ele>
        <time>2025-10-18T09:19:00Z</time>
      </trkpt>
      <trkpt lat="43.21785" lon="5.48417">
        <ele>190.8</ele>
        <time>2025-10-18T09:19:01Z</time>
      </trkpt>
      <trkpt lat="43.21785" lon="5.48418">
        <ele>190.6</ele>
        <time>2025-10-18T09:19:02Z</time>
      </trkpt>
      <trkpt lat="43.21785" lon="5.48419">
        <ele>190.6</ele>
        <time>2025-10-18T09:19:03Z</time>
      </trkpt>
      <trkpt lat="43.21785" lon="5.4842">
        <ele>190.5</ele>
        <time>2025-10-18T09:19:04Z</time>
      </trkpt>
      <trkpt lat="43.21785" lon="5.48421">
        <ele>190.4</ele>
        <time>2025-10-18T09:19:05Z</time>
      </trkpt>
      <trkpt lat="43.21784" lon="5.48421">
        <ele>190.3</ele>
        <time>2025-10-18T09:19:06Z</time>
      </trkpt>
      <trkpt lat="43.21784" lon="5.48422">
        <ele>190.3</ele>
        <time>2025-10-18T09:19:07Z</time>
      </trkpt>
      <trkpt lat="43.21783" lon="5.48423">
        <ele>190.2</ele>
        <time>2025-10-18T09:19:08Z</time>
      </trkpt>
      <trkpt lat="43.21783" lon="5.48424">
        <ele>190.1</ele>
        <time>2025-10-18T09:19:09Z</time>
      </trkpt>
      <trkpt lat="43.21783" lon="5.48426">
        <ele>190.1</ele>
        <time>2025-10-18T09:19:10Z</time>
      </trkpt>
      <trkpt lat="43.21783" lon="5.48427">
        <ele>190</ele>
        <time>2025-10-18T09:19:11Z</time>
      </trkpt>
      <trkpt lat="43.21782" lon="5.48428">
        <ele>189.9</ele>
        <time>2025-10-18T09:19:12Z</time>
      </trkpt>
      <trkpt lat="43.21782" lon="5.48429">
        <ele>189.7</ele>
        <time>2025-10-18T09:19:13Z</time>
      </trkpt>
      <trkpt lat="43.21782" lon="5.4843">
        <ele>189.6</ele>
        <time>2025-10-18T09:19:14Z</time>
      </trkpt>
      <trkpt lat="43.21781" lon="5.48431">
        <ele>189.5</ele>
        <time>2025-10-18T09:19:15Z</time>
      </trkpt>
      <trkpt lat="43.2178" lon="5.48433">
        <ele>189.4</ele>
        <time>2025-10-18T09:19:16Z</time>
      </trkpt>
      <trkpt lat="43.2178" lon="5.48433">
        <ele>189.3</ele>
        <time>2025-10-18T09:19:17Z</time>
      </trkpt>
      <trkpt lat="43.21779" lon="5.48435">
        <ele>189.3</ele>
        <time>2025-10-18T09:19:18Z</time>
      </trkpt>
      <trkpt lat="43.21779" lon="5.48435">
        <ele>189.2</ele>
        <time>2025-10-18T09:19:19Z</time>
      </trkpt>
      <trkpt lat="43.21779" lon="5.48436">
        <ele>189.1</ele>
        <time>2025-10-18T09:19:20Z</time>
      </trkpt>
      <trkpt lat="43.21779" lon="5.48438">
        <ele>189</ele>
        <time>2025-10-18T09:19:21Z</time>
      </trkpt>
      <trkpt lat="43.21778" lon="5.48439">
        <ele>188.9</ele>
        <time>2025-10-18T09:19:22Z</time>
      </trkpt>
      <trkpt lat="43.21778" lon="5.48439">
        <ele>188.9</ele>
        <time>2025-10-18T09:19:23Z</time>
      </trkpt>
      <trkpt lat="43.21778" lon="5.48441">
        <ele>189</ele>
        <time>2025-10-18T09:19:24Z</time>
      </trkpt>
      <trkpt lat="43.21778" lon="5.48442">
        <ele>188.9</ele>
        <time>2025-10-18T09:19:25Z</time>
      </trkpt>
      <trkpt lat="43.21777" lon="5.48444">
        <ele>188.9</ele>
        <time>2025-10-18T09:19:26Z</time>
      </trkpt>
      <trkpt lat="43.21777" lon="5.48445">
        <ele>188.9</ele>
        <time>2025-10-18T09:19:27Z</time>
      </trkpt>
      <trkpt lat="43.21777" lon="5.48446">
        <ele>188.8</ele>
        <time>2025-10-18T09:19:28Z</time>
      </trkpt>
      <trkpt lat="43.21777" lon="5.48447">
        <ele>188.8</ele>
        <time>2025-10-18T09:19:29Z</time>
      </trkpt>
      <trkpt lat="43.21777" lon="5.48449">
        <ele>188.8</ele>
        <time>2025-10-18T09:19:30Z</time>
      </trkpt>
      <trkpt lat="43.21777" lon="5.4845">
        <ele>188.9</ele>
        <time>2025-10-18T09:19:31Z</time>
      </trkpt>
      <trkpt lat="43.21776" lon="5.48451">
        <ele>188.9</ele>
        <time>2025-10-18T09:19:32Z</time>
      </trkpt>
      <trkpt lat="43.21776" lon="5.48452">
        <ele>188.9</ele>
        <time>2025-10-18T09:19:33Z</time>
      </trkpt>
      <trkpt lat="43.21776" lon="5.48454">
        <ele>188.9</ele>
        <time>2025-10-18T09:19:34Z</time>
      </trkpt>
      <trkpt lat="43.21776" lon="5.48455">
        <ele>188.9</ele>
        <time>2025-10-18T09:19:35Z</time>
      </trkpt>
      <trkpt lat="43.21775" lon="5.48456">
        <ele>188.8</ele>
        <time>2025-10-18T09:19:36Z</time>
      </trkpt>
      <trkpt lat="43.21775" lon="5.48456">
        <ele>188.8</ele>
        <time>2025-10-18T09:19:37Z</time>
      </trkpt>
      <trkpt lat="43.21774" lon="5.48458">
        <ele>188.8</ele>
        <time>2025-10-18T09:19:38Z</time>
      </trkpt>
      <trkpt lat="43.21774" lon="5.48458">
        <ele>188.8</ele>
        <time>2025-10-18T09:19:39Z</time>
      </trkpt>
      <trkpt lat="43.21773" lon="5.48459">
        <ele>188.8</ele>
        <time>2025-10-18T09:19:40Z</time>
      </trkpt>
      <trkpt lat="43.21773" lon="5.48459">
        <ele>188.7</ele>
        <time>2025-10-18T09:19:41Z</time>
      </trkpt>
      <trkpt lat="43.21772" lon="5.4846">
        <ele>188.7</ele>
        <time>2025-10-18T09:19:42Z</time>
      </trkpt>
      <trkpt lat="43.21771" lon="5.4846">
        <ele>188.6</ele>
        <time>2025-10-18T09:19:43Z</time>
      </trkpt>
      <trkpt lat="43.21771" lon="5.48461">
        <ele>188.6</ele>
        <time>2025-10-18T09:19:44Z</time>
      </trkpt>
      <trkpt lat="43.2177" lon="5.48461">
        <ele>188.5</ele>
        <time>2025-10-18T09:19:45Z</time>
      </trkpt>
      <trkpt lat="43.21769" lon="5.48462">
        <ele>188.4</ele>
        <time>2025-10-18T09:19:46Z</time>
      </trkpt>
      <trkpt lat="43.21769" lon="5.48462">
        <ele>188.3</ele>
        <time>2025-10-18T09:19:47Z</time>
      </trkpt>
      <trkpt lat="43.21768" lon="5.48463">
        <ele>188.2</ele>
        <time>2025-10-18T09:19:48Z</time>
      </trkpt>
      <trkpt lat="43.21768" lon="5.48463">
        <ele>188.1</ele>
        <time>2025-10-18T09:19:49Z</time>
      </trkpt>
      <trkpt lat="43.21767" lon="5.48464">
        <ele>187.9</ele>
        <time>2025-10-18T09:19:50Z</time>
      </trkpt>
      <trkpt lat="43.21766" lon="5.48464">
        <ele>187.8</ele>
        <time>2025-10-18T09:19:51Z</time>
      </trkpt>
      <trkpt lat="43.21766" lon="5.48464">
        <ele>187.7</ele>
        <time>2025-10-18T09:19:52Z</time>
      </trkpt>
      <trkpt lat="43.21765" lon="5.48465">
        <ele>187.7</ele>
        <time>2025-10-18T09:19:53Z</time>
      </trkpt>
      <trkpt lat="43.21764" lon="5.48465">
        <ele>187.4</ele>
        <time>2025-10-18T09:19:54Z</time>
      </trkpt>
      <trkpt lat="43.21763" lon="5.48466">
        <ele>187.1</ele>
        <time>2025-10-18T09:19:55Z</time>
      </trkpt>
      <trkpt lat="43.21763" lon="5.48467">
        <ele>187</ele>
        <time>2025-10-18T09:19:56Z</time>
      </trkpt>
      <trkpt lat="43.21762" lon="5.48467">
        <ele>187</ele>
        <time>2025-10-18T09:19:57Z</time>
      </trkpt>
      <trkpt lat="43.21762" lon="5.48468">
        <ele>187</ele>
        <time>2025-10-18T09:19:58Z</time>
      </trkpt>
      <trkpt lat="43.21761" lon="5.48468">
        <ele>186.9</ele>
        <time>2025-10-18T09:19:59Z</time>
      </trkpt>
      <trkpt lat="43.21761" lon="5.48468">
        <ele>186.7</ele>
        <time>2025-10-18T09:20:00Z</time>
      </trkpt>
      <trkpt lat="43.2176" lon="5.48468">
        <ele>186.6</ele>
        <time>2025-10-18T09:20:01Z</time>
      </trkpt>
      <trkpt lat="43.2176" lon="5.48469">
        <ele>186.5</ele>
        <time>2025-10-18T09:20:02Z</time>
      </trkpt>
      <trkpt lat="43.21759" lon="5.48469">
        <ele>186.5</ele>
        <time>2025-10-18T09:20:03Z</time>
      </trkpt>
      <trkpt lat="43.21759" lon="5.4847">
        <ele>186.5</ele>
        <time>2025-10-18T09:20:04Z</time>
      </trkpt>
      <trkpt lat="43.21758" lon="5.4847">
        <ele>186.4</ele>
        <time>2025-10-18T09:20:05Z</time>
      </trkpt>
      <trkpt lat="43.21757" lon="5.48471">
        <ele>186.5</ele>
        <time>2025-10-18T09:20:06Z</time>
      </trkpt>
      <trkpt lat="43.21757" lon="5.48471">
        <ele>186.6</ele>
        <time>2025-10-18T09:20:07Z</time>
      </trkpt>
      <trkpt lat="43.21756" lon="5.48472">
        <ele>186.6</ele>
        <time>2025-10-18T09:20:08Z</time>
      </trkpt>
      <trkpt lat="43.21756" lon="5.48473">
        <ele>186.6</ele>
        <time>2025-10-18T09:20:09Z</time>
      </trkpt>
      <trkpt lat="43.21755" lon="5.48472">
        <ele>186.6</ele>
        <time>2025-10-18T09:20:10Z</time>
      </trkpt>
      <trkpt lat="43.21754" lon="5.48472">
        <ele>186.6</ele>
        <time>2025-10-18T09:20:11Z</time>
      </trkpt>
      <trkpt lat="43.21754" lon="5.48472">
        <ele>186.5</ele>
        <time>2025-10-18T09:20:12Z</time>
      </trkpt>
      <trkpt lat="43.21754" lon="5.48473">
        <ele>186.4</ele>
        <time>2025-10-18T09:20:13Z</time>
      </trkpt>
      <trkpt lat="43.21753" lon="5.48473">
        <ele>186.4</ele>
        <time>2025-10-18T09:20:14Z</time>
      </trkpt>
      <trkpt lat="43.21752" lon="5.48474">
        <ele>186.5</ele>
        <time>2025-10-18T09:20:15Z</time>
      </trkpt>
      <trkpt lat="43.21751" lon="5.48474">
        <ele>186.3</ele>
        <time>2025-10-18T09:20:16Z</time>
      </trkpt>
      <trkpt lat="43.2175" lon="5.48474">
        <ele>186.3</ele>
        <time>2025-10-18T09:20:17Z</time>
      </trkpt>
      <trkpt lat="43.21749" lon="5.48474">
        <ele>186.3</ele>
        <time>2025-10-18T09:20:18Z</time>
      </trkpt>
      <trkpt lat="43.21748" lon="5.48474">
        <ele>186.3</ele>
        <time>2025-10-18T09:20:19Z</time>
      </trkpt>
      <trkpt lat="43.21747" lon="5.48475">
        <ele>186.4</ele>
        <time>2025-10-18T09:20:20Z</time>
      </trkpt>
      <trkpt lat="43.21747" lon="5.48475">
        <ele>186.4</ele>
        <time>2025-10-18T09:20:21Z</time>
      </trkpt>
      <trkpt lat="43.21746" lon="5.48474">
        <ele>186.3</ele>
        <time>2025-10-18T09:20:22Z</time>
      </trkpt>
      <trkpt lat="43.21746" lon="5.48475">
        <ele>186.3</ele>
        <time>2025-10-18T09:20:23Z</time>
      </trkpt>
      <trkpt lat="43.21745" lon="5.48474">
        <ele>186.2</ele>
        <time>2025-10-18T09:20:24Z</time>
      </trkpt>
      <trkpt lat="43.21744" lon="5.48474">
        <ele>186.1</ele>
        <time>2025-10-18T09:20:25Z</time>
      </trkpt>
      <trkpt lat="43.21745" lon="5.48474">
        <ele>186</ele>
        <time>2025-10-18T09:20:26Z</time>
      </trkpt>
      <trkpt lat="43.21744" lon="5.48474">
        <ele>185.9</ele>
        <time>2025-10-18T09:20:27Z</time>
      </trkpt>
      <trkpt lat="43.21744" lon="5.48475">
        <ele>185.8</ele>
        <time>2025-10-18T09:20:28Z</time>
      </trkpt>
      <trkpt lat="43.21743" lon="5.48475">
        <ele>185.6</ele>
        <time>2025-10-18T09:20:29Z</time>
      </trkpt>
      <trkpt lat="43.21743" lon="5.48476">
        <ele>185.6</ele>
        <time>2025-10-18T09:20:30Z</time>
      </trkpt>
      <trkpt lat="43.21743" lon="5.48476">
        <ele>185.5</ele>
        <time>2025-10-18T09:20:31Z</time>
      </trkpt>
      <trkpt lat="43.21742" lon="5.48477">
        <ele>185.5</ele>
        <time>2025-10-18T09:20:32Z</time>
      </trkpt>
      <trkpt lat="43.21742" lon="5.48477">
        <ele>185.5</ele>
        <time>2025-10-18T09:20:33Z</time>
      </trkpt>
      <trkpt lat="43.21742" lon="5.48477">
        <ele>185.4</ele>
        <time>2025-10-18T09:20:34Z</time>
      </trkpt>
      <trkpt lat="43.21742" lon="5.48477">
        <ele>185.3</ele>
        <time>2025-10-18T09:20:35Z</time>
      </trkpt>
      <trkpt lat="43.21742" lon="5.48477">
        <ele>185.3</ele>
        <time>2025-10-18T09:20:36Z</time>
      </trkpt>
      <trkpt lat="43.21742" lon="5.48477">
        <ele>185.3</ele>
        <time>2025-10-18T09:20:37Z</time>
      </trkpt>
      <trkpt lat="43.21742" lon="5.48477">
        <ele>185.1</ele>
        <time>2025-10-18T09:20:38Z</time>
      </trkpt>
      <trkpt lat="43.21741" lon="5.48477">
        <ele>184.9</ele>
        <time>2025-10-18T09:20:39Z</time>
      </trkpt>
      <trkpt lat="43.21741" lon="5.48477">
        <ele>184.8</ele>
        <time>2025-10-18T09:20:40Z</time>
      </trkpt>
      <trkpt lat="43.21741" lon="5.48477">
        <ele>184.7</ele>
        <time>2025-10-18T09:20:41Z</time>
      </trkpt>
      <trkpt lat="43.2174" lon="5.48478">
        <ele>184.7</ele>
        <time>2025-10-18T09:20:42Z</time>
      </trkpt>
      <trkpt lat="43.2174" lon="5.48477">
        <ele>184.8</ele>
        <time>2025-10-18T09:20:43Z</time>
      </trkpt>
      <trkpt lat="43.21739" lon="5.48479">
        <ele>184.8</ele>
        <time>2025-10-18T09:20:44Z</time>
      </trkpt>
      <trkpt lat="43.21738" lon="5.48479">
        <ele>184.7</ele>
        <time>2025-10-18T09:20:45Z</time>
      </trkpt>
      <trkpt lat="43.21738" lon="5.4848">
        <ele>184.7</ele>
        <time>2025-10-18T09:20:46Z</time>
      </trkpt>
      <trkpt lat="43.21737" lon="5.48481">
        <ele>184.6</ele>
        <time>2025-10-18T09:20:47Z</time>
      </trkpt>
      <trkpt lat="43.21736" lon="5.48481">
        <ele>184.5</ele>
        <time>2025-10-18T09:20:48Z</time>
      </trkpt>
      <trkpt lat="43.21736" lon="5.48482">
        <ele>184.4</ele>
        <time>2025-10-18T09:20:49Z</time>
      </trkpt>
      <trkpt lat="43.21736" lon="5.48482">
        <ele>184.3</ele>
        <time>2025-10-18T09:20:50Z</time>
      </trkpt>
      <trkpt lat="43.21735" lon="5.48483">
        <ele>184.3</ele>
        <time>2025-10-18T09:20:51Z</time>
      </trkpt>
      <trkpt lat="43.21734" lon="5.48484">
        <ele>184.3</ele>
        <time>2025-10-18T09:20:52Z</time>
      </trkpt>
      <trkpt lat="43.21734" lon="5.48485">
        <ele>184.2</ele>
        <time>2025-10-18T09:20:53Z</time>
      </trkpt>
      <trkpt lat="43.21733" lon="5.48486">
        <ele>184.2</ele>
        <time>2025-10-18T09:20:54Z</time>
      </trkpt>
      <trkpt lat="43.21732" lon="5.48487">
        <ele>184.1</ele>
        <time>2025-10-18T09:20:55Z</time>
      </trkpt>
      <trkpt lat="43.21731" lon="5.48487">
        <ele>184</ele>
        <time>2025-10-18T09:20:56Z</time>
      </trkpt>
      <trkpt lat="43.21731" lon="5.48487">
        <ele>184</ele>
        <time>2025-10-18T09:20:57Z</time>
      </trkpt>
      <trkpt lat="43.2173" lon="5.48487">
        <ele>183.8</ele>
        <time>2025-10-18T09:20:58Z</time>
      </trkpt>
      <trkpt lat="43.21729" lon="5.48488">
        <ele>183.8</ele>
        <time>2025-10-18T09:20:59Z</time>
      </trkpt>
      <trkpt lat="43.21728" lon="5.48489">
        <ele>183.7</ele>
        <time>2025-10-18T09:21:00Z</time>
      </trkpt>
      <trkpt lat="43.21727" lon="5.4849">
        <ele>183.6</ele>
        <time>2025-10-18T09:21:01Z</time>
      </trkpt>
      <trkpt lat="43.21727" lon="5.48491">
        <ele>183.5</ele>
        <time>2025-10-18T09:21:02Z</time>
      </trkpt>
      <trkpt lat="43.21726" lon="5.48492">
        <ele>183.4</ele>
        <time>2025-10-18T09:21:03Z</time>
      </trkpt>
      <trkpt lat="43.21725" lon="5.48492">
        <ele>183.4</ele>
        <time>2025-10-18T09:21:04Z</time>
      </trkpt>
      <trkpt lat="43.21725" lon="5.48493">
        <ele>183.4</ele>
        <time>2025-10-18T09:21:05Z</time>
      </trkpt>
      <trkpt lat="43.21724" lon="5.48494">
        <ele>183.3</ele>
        <time>2025-10-18T09:21:06Z</time>
      </trkpt>
      <trkpt lat="43.21724" lon="5.48495">
        <ele>183.2</ele>
        <time>2025-10-18T09:21:07Z</time>
      </trkpt>
      <trkpt lat="43.21723" lon="5.48496">
        <ele>183.1</ele>
        <time>2025-10-18T09:21:08Z</time>
      </trkpt>
      <trkpt lat="43.21722" lon="5.48497">
        <ele>183</ele>
        <time>2025-10-18T09:21:09Z</time>
      </trkpt>
      <trkpt lat="43.21722" lon="5.48497">
        <ele>182.9</ele>
        <time>2025-10-18T09:21:10Z</time>
      </trkpt>
      <trkpt lat="43.21721" lon="5.48499">
        <ele>182.8</ele>
        <time>2025-10-18T09:21:11Z</time>
      </trkpt>
      <trkpt lat="43.2172" lon="5.485">
        <ele>182.8</ele>
        <time>2025-10-18T09:21:12Z</time>
      </trkpt>
      <trkpt lat="43.21719" lon="5.48501">
        <ele>182.7</ele>
        <time>2025-10-18T09:21:13Z</time>
      </trkpt>
      <trkpt lat="43.21718" lon="5.48502">
        <ele>182.7</ele>
        <time>2025-10-18T09:21:14Z</time>
      </trkpt>
      <trkpt lat="43.21717" lon="5.48504">
        <ele>182.5</ele>
        <time>2025-10-18T09:21:15Z</time>
      </trkpt>
      <trkpt lat="43.21716" lon="5.48506">
        <ele>182.4</ele>
        <time>2025-10-18T09:21:16Z</time>
      </trkpt>
      <trkpt lat="43.21716" lon="5.48507">
        <ele>182.4</ele>
        <time>2025-10-18T09:21:17Z</time>
      </trkpt>
      <trkpt lat="43.21715" lon="5.48507">
        <ele>182.5</ele>
        <time>2025-10-18T09:21:18Z</time>
      </trkpt>
      <trkpt lat="43.21714" lon="5.48508">
        <ele>182.4</ele>
        <time>2025-10-18T09:21:19Z</time>
      </trkpt>
      <trkpt lat="43.21713" lon="5.48509">
        <ele>182.4</ele>
        <time>2025-10-18T09:21:20Z</time>
      </trkpt>
      <trkpt lat="43.21713" lon="5.48509">
        <ele>182.4</ele>
        <time>2025-10-18T09:21:21Z</time>
      </trkpt>
      <trkpt lat="43.21712" lon="5.4851">
        <ele>182.2</ele>
        <time>2025-10-18T09:21:22Z</time>
      </trkpt>
      <trkpt lat="43.21711" lon="5.48511">
        <ele>182.1</ele>
        <time>2025-10-18T09:21:23Z</time>
      </trkpt>
      <trkpt lat="43.2171" lon="5.48511">
        <ele>182.1</ele>
        <time>2025-10-18T09:21:24Z</time>
      </trkpt>
      <trkpt lat="43.2171" lon="5.48511">
        <ele>182</ele>
        <time>2025-10-18T09:21:25Z</time>
      </trkpt>
      <trkpt lat="43.21709" lon="5.48512">
        <ele>182</ele>
        <time>2025-10-18T09:21:26Z</time>
      </trkpt>
      <trkpt lat="43.21708" lon="5.48512">
        <ele>181.9</ele>
        <time>2025-10-18T09:21:27Z</time>
      </trkpt>
      <trkpt lat="43.21707" lon="5.48513">
        <ele>181.9</ele>
        <time>2025-10-18T09:21:28Z</time>
      </trkpt>
      <trkpt lat="43.21707" lon="5.48513">
        <ele>181.9</ele>
        <time>2025-10-18T09:21:29Z</time>
      </trkpt>
      <trkpt lat="43.21706" lon="5.48514">
        <ele>181.9</ele>
        <time>2025-10-18T09:21:30Z</time>
      </trkpt>
      <trkpt lat="43.21705" lon="5.48515">
        <ele>182</ele>
        <time>2025-10-18T09:21:31Z</time>
      </trkpt>
      <trkpt lat="43.21705" lon="5.48516">
        <ele>182.1</ele>
        <time>2025-10-18T09:21:32Z</time>
      </trkpt>
      <trkpt lat="43.21704" lon="5.48517">
        <ele>182.1</ele>
        <time>2025-10-18T09:21:33Z</time>
      </trkpt>
      <trkpt lat="43.21703" lon="5.48517">
        <ele>182.1</ele>
        <time>2025-10-18T09:21:34Z</time>
      </trkpt>
      <trkpt lat="43.21703" lon="5.48518">
        <ele>182.1</ele>
        <time>2025-10-18T09:21:35Z</time>
      </trkpt>
      <trkpt lat="43.21703" lon="5.48518">
        <ele>182.1</ele>
        <time>2025-10-18T09:21:36Z</time>
      </trkpt>
      <trkpt lat="43.21702" lon="5.48519">
        <ele>182.2</ele>
        <time>2025-10-18T09:21:37Z</time>
      </trkpt>
      <trkpt lat="43.21701" lon="5.4852">
        <ele>182.2</ele>
        <time>2025-10-18T09:21:38Z</time>
      </trkpt>
      <trkpt lat="43.21701" lon="5.48521">
        <ele>182.1</ele>
        <time>2025-10-18T09:21:39Z</time>
      </trkpt>
      <trkpt lat="43.217" lon="5.48522">
        <ele>182.1</ele>
        <time>2025-10-18T09:21:40Z</time>
      </trkpt>
      <trkpt lat="43.217" lon="5.48523">
        <ele>182.1</ele>
        <time>2025-10-18T09:21:41Z</time>
      </trkpt>
      <trkpt lat="43.217" lon="5.48523">
        <ele>182</ele>
        <time>2025-10-18T09:21:42Z</time>
      </trkpt>
      <trkpt lat="43.217" lon="5.48523">
        <ele>181.9</ele>
        <time>2025-10-18T09:21:43Z</time>
      </trkpt>
      <trkpt lat="43.21699" lon="5.48523">
        <ele>181.9</ele>
        <time>2025-10-18T09:21:44Z</time>
      </trkpt>
      <trkpt lat="43.21699" lon="5.48524">
        <ele>181.7</ele>
        <time>2025-10-18T09:21:45Z</time>
      </trkpt>
      <trkpt lat="43.21698" lon="5.48524">
        <ele>181.6</ele>
        <time>2025-10-18T09:21:46Z</time>
      </trkpt>
      <trkpt lat="43.21698" lon="5.48526">
        <ele>181.6</ele>
        <time>2025-10-18T09:21:47Z</time>
      </trkpt>
      <trkpt lat="43.21698" lon="5.48526">
        <ele>181.5</ele>
        <time>2025-10-18T09:21:48Z</time>
      </trkpt>
      <trkpt lat="43.21698" lon="5.48527">
        <ele>181.5</ele>
        <time>2025-10-18T09:21:49Z</time>
      </trkpt>
      <trkpt lat="43.21698" lon="5.48527">
        <ele>181.4</ele>
        <time>2025-10-18T09:21:50Z</time>
      </trkpt>
      <trkpt lat="43.21698" lon="5.48529">
        <ele>181.4</ele>
        <time>2025-10-18T09:21:51Z</time>
      </trkpt>
      <trkpt lat="43.21698" lon="5.48529">
        <ele>181.2</ele>
        <time>2025-10-18T09:21:52Z</time>
      </trkpt>
      <trkpt lat="43.21698" lon="5.48529">
        <ele>181</ele>
        <time>2025-10-18T09:21:53Z</time>
      </trkpt>
      <trkpt lat="43.21698" lon="5.4853">
        <ele>180.9</ele>
        <time>2025-10-18T09:21:54Z</time>
      </trkpt>
      <trkpt lat="43.21698" lon="5.48531">
        <ele>180.7</ele>
        <time>2025-10-18T09:21:55Z</time>
      </trkpt>
      <trkpt lat="43.21698" lon="5.48532">
        <ele>180.6</ele>
        <time>2025-10-18T09:21:56Z</time>
      </trkpt>
      <trkpt lat="43.21698" lon="5.48533">
        <ele>180.5</ele>
        <time>2025-10-18T09:21:57Z</time>
      </trkpt>
      <trkpt lat="43.21698" lon="5.48534">
        <ele>180.5</ele>
        <time>2025-10-18T09:21:58Z</time>
      </trkpt>
      <trkpt lat="43.21698" lon="5.48535">
        <ele>180.3</ele>
        <time>2025-10-18T09:21:59Z</time>
      </trkpt>
      <trkpt lat="43.21698" lon="5.48536">
        <ele>180.3</ele>
        <time>2025-10-18T09:22:00Z</time>
      </trkpt>
      <trkpt lat="43.21698" lon="5.48538">
        <ele>180.2</ele>
        <time>2025-10-18T09:22:01Z</time>
      </trkpt>
      <trkpt lat="43.21698" lon="5.48538">
        <ele>180.1</ele>
        <time>2025-10-18T09:22:02Z</time>
      </trkpt>
      <trkpt lat="43.21699" lon="5.48539">
        <ele>180</ele>
        <time>2025-10-18T09:22:03Z</time>
      </trkpt>
      <trkpt lat="43.21699" lon="5.4854">
        <ele>179.9</ele>
        <time>2025-10-18T09:22:04Z</time>
      </trkpt>
      <trkpt lat="43.21699" lon="5.48541">
        <ele>179.8</ele>
        <time>2025-10-18T09:22:05Z</time>
      </trkpt>
      <trkpt lat="43.21699" lon="5.48542">
        <ele>179.8</ele>
        <time>2025-10-18T09:22:06Z</time>
      </trkpt>
      <trkpt lat="43.21699" lon="5.48543">
        <ele>179.7</ele>
        <time>2025-10-18T09:22:07Z</time>
      </trkpt>
      <trkpt lat="43.21699" lon="5.48543">
        <ele>179.7</ele>
        <time>2025-10-18T09:22:08Z</time>
      </trkpt>
      <trkpt lat="43.21699" lon="5.48544">
        <ele>179.6</ele>
        <time>2025-10-18T09:22:09Z</time>
      </trkpt>
      <trkpt lat="43.21699" lon="5.48545">
        <ele>179.6</ele>
        <time>2025-10-18T09:22:10Z</time>
      </trkpt>
      <trkpt lat="43.217" lon="5.48545">
        <ele>179.5</ele>
        <time>2025-10-18T09:22:11Z</time>
      </trkpt>
      <trkpt lat="43.217" lon="5.48545">
        <ele>179.4</ele>
        <time>2025-10-18T09:22:12Z</time>
      </trkpt>
      <trkpt lat="43.217" lon="5.48545">
        <ele>179.3</ele>
        <time>2025-10-18T09:22:13Z</time>
      </trkpt>
      <trkpt lat="43.217" lon="5.48546">
        <ele>179.2</ele>
        <time>2025-10-18T09:22:14Z</time>
      </trkpt>
      <trkpt lat="43.217" lon="5.48546">
        <ele>179.2</ele>
        <time>2025-10-18T09:22:15Z</time>
      </trkpt>
      <trkpt lat="43.217" lon="5.48546">
        <ele>179.1</ele>
        <time>2025-10-18T09:22:16Z</time>
      </trkpt>
      <trkpt lat="43.217" lon="5.48546">
        <ele>179.1</ele>
        <time>2025-10-18T09:22:17Z</time>
      </trkpt>
      <trkpt lat="43.217" lon="5.48546">
        <ele>179.1</ele>
        <time>2025-10-18T09:22:18Z</time>
      </trkpt>
      <trkpt lat="43.217" lon="5.48546">
        <ele>179.1</ele>
        <time>2025-10-18T09:22:19Z</time>
      </trkpt>
      <trkpt lat="43.217" lon="5.48546">
        <ele>179</ele>
        <time>2025-10-18T09:22:20Z</time>
      </trkpt>
      <trkpt lat="43.217" lon="5.48546">
        <ele>178.9</ele>
        <time>2025-10-18T09:22:21Z</time>
      </trkpt>
      <trkpt lat="43.21701" lon="5.48547">
        <ele>178.9</ele>
        <time>2025-10-18T09:22:22Z</time>
      </trkpt>
      <trkpt lat="43.21701" lon="5.48548">
        <ele>179</ele>
        <time>2025-10-18T09:22:23Z</time>
      </trkpt>
      <trkpt lat="43.21702" lon="5.48549">
        <ele>178.9</ele>
        <time>2025-10-18T09:22:24Z</time>
      </trkpt>
      <trkpt lat="43.21702" lon="5.4855">
        <ele>178.8</ele>
        <time>2025-10-18T09:22:25Z</time>
      </trkpt>
      <trkpt lat="43.21702" lon="5.48551">
        <ele>178.7</ele>
        <time>2025-10-18T09:22:26Z</time>
      </trkpt>
      <trkpt lat="43.21703" lon="5.48553">
        <ele>178.6</ele>
        <time>2025-10-18T09:22:27Z</time>
      </trkpt>
      <trkpt lat="43.21703" lon="5.48554">
        <ele>178.6</ele>
        <time>2025-10-18T09:22:28Z</time>
      </trkpt>
      <trkpt lat="43.21703" lon="5.48554">
        <ele>178.5</ele>
        <time>2025-10-18T09:22:29Z</time>
      </trkpt>
      <trkpt lat="43.21703" lon="5.48555">
        <ele>178.5</ele>
        <time>2025-10-18T09:22:30Z</time>
      </trkpt>
      <trkpt lat="43.21703" lon="5.48556">
        <ele>178.5</ele>
        <time>2025-10-18T09:22:31Z</time>
      </trkpt>
      <trkpt lat="43.21702" lon="5.48556">
        <ele>178.4</ele>
        <time>2025-10-18T09:22:32Z</time>
      </trkpt>
      <trkpt lat="43.21702" lon="5.48558">
        <ele>178.4</ele>
        <time>2025-10-18T09:22:33Z</time>
      </trkpt>
      <trkpt lat="43.21702" lon="5.48559">
        <ele>178.3</ele>
        <time>2025-10-18T09:22:34Z</time>
      </trkpt>
      <trkpt lat="43.21702" lon="5.48559">
        <ele>178.2</ele>
        <time>2025-10-18T09:22:35Z</time>
      </trkpt>
      <trkpt lat="43.21702" lon="5.48561">
        <ele>178.1</ele>
        <time>2025-10-18T09:22:36Z</time>
      </trkpt>
      <trkpt lat="43.21702" lon="5.48562">
        <ele>178.1</ele>
        <time>2025-10-18T09:22:37Z</time>
      </trkpt>
      <trkpt lat="43.21702" lon="5.48563">
        <ele>178.1</ele>
        <time>2025-10-18T09:22:38Z</time>
      </trkpt>
      <trkpt lat="43.21703" lon="5.48563">
        <ele>178.1</ele>
        <time>2025-10-18T09:22:39Z</time>
      </trkpt>
      <trkpt lat="43.21703" lon="5.48564">
        <ele>178</ele>
        <time>2025-10-18T09:22:40Z</time>
      </trkpt>
      <trkpt lat="43.21704" lon="5.48565">
        <ele>178</ele>
        <time>2025-10-18T09:22:41Z</time>
      </trkpt>
      <trkpt lat="43.21704" lon="5.48566">
        <ele>177.9</ele>
        <time>2025-10-18T09:22:42Z</time>
      </trkpt>
      <trkpt lat="43.21704" lon="5.48566">
        <ele>178</ele>
        <time>2025-10-18T09:22:43Z</time>
      </trkpt>
      <trkpt lat="43.21704" lon="5.48567">
        <ele>178</ele>
        <time>2025-10-18T09:22:44Z</time>
      </trkpt>
      <trkpt lat="43.21704" lon="5.48568">
        <ele>177.9</ele>
        <time>2025-10-18T09:22:45Z</time>
      </trkpt>
      <trkpt lat="43.21704" lon="5.48569">
        <ele>177.8</ele>
        <time>2025-10-18T09:22:46Z</time>
      </trkpt>
      <trkpt lat="43.21704" lon="5.4857">
        <ele>177.7</ele>
        <time>2025-10-18T09:22:47Z</time>
      </trkpt>
      <trkpt lat="43.21704" lon="5.48571">
        <ele>177.6</ele>
        <time>2025-10-18T09:22:48Z</time>
      </trkpt>
      <trkpt lat="43.21703" lon="5.48571">
        <ele>177.5</ele>
        <time>2025-10-18T09:22:49Z</time>
      </trkpt>
      <trkpt lat="43.21703" lon="5.48572">
        <ele>177.4</ele>
        <time>2025-10-18T09:22:50Z</time>
      </trkpt>
      <trkpt lat="43.21703" lon="5.48572">
        <ele>177.3</ele>
        <time>2025-10-18T09:22:51Z</time>
      </trkpt>
      <trkpt lat="43.21703" lon="5.48573">
        <ele>177.3</ele>
        <time>2025-10-18T09:22:52Z</time>
      </trkpt>
      <trkpt lat="43.21703" lon="5.48574">
        <ele>177.3</ele>
        <time>2025-10-18T09:22:53Z</time>
      </trkpt>
      <trkpt lat="43.21703" lon="5.48574">
        <ele>177.3</ele>
        <time>2025-10-18T09:22:54Z</time>
      </trkpt>
      <trkpt lat="43.21704" lon="5.48575">
        <ele>177.3</ele>
        <time>2025-10-18T09:22:55Z</time>
      </trkpt>
      <trkpt lat="43.21704" lon="5.48576">
        <ele>177.3</ele>
        <time>2025-10-18T09:22:56Z</time>
      </trkpt>
      <trkpt lat="43.21704" lon="5.48577">
        <ele>177.3</ele>
        <time>2025-10-18T09:22:57Z</time>
      </trkpt>
      <trkpt lat="43.21704" lon="5.48578">
        <ele>177.3</ele>
        <time>2025-10-18T09:22:58Z</time>
      </trkpt>
      <trkpt lat="43.21704" lon="5.48579">
        <ele>177.3</ele>
        <time>2025-10-18T09:22:59Z</time>
      </trkpt>
      <trkpt lat="43.21705" lon="5.48579">
        <ele>177.2</ele>
        <time>2025-10-18T09:23:00Z</time>
      </trkpt>
      <trkpt lat="43.21705" lon="5.4858">
        <ele>177.2</ele>
        <time>2025-10-18T09:23:01Z</time>
      </trkpt>
      <trkpt lat="43.21705" lon="5.48581">
        <ele>177.2</ele>
        <time>2025-10-18T09:23:02Z</time>
      </trkpt>
      <trkpt lat="43.21705" lon="5.48581">
        <ele>177.2</ele>
        <time>2025-10-18T09:23:03Z</time>
      </trkpt>
      <trkpt lat="43.21705" lon="5.48582">
        <ele>177.2</ele>
        <time>2025-10-18T09:23:04Z</time>
      </trkpt>
      <trkpt lat="43.21705" lon="5.48582">
        <ele>177.2</ele>
        <time>2025-10-18T09:23:05Z</time>
      </trkpt>
      <trkpt lat="43.21706" lon="5.48583">
        <ele>177.2</ele>
        <time>2025-10-18T09:23:06Z</time>
      </trkpt>
      <trkpt lat="43.21706" lon="5.48583">
        <ele>177.2</ele>
        <time>2025-10-18T09:23:07Z</time>
      </trkpt>
      <trkpt lat="43.21706" lon="5.48583">
        <ele>177.1</ele>
        <time>2025-10-18T09:23:08Z</time>
      </trkpt>
      <trkpt lat="43.21706" lon="5.48583">
        <ele>177.1</ele>
        <time>2025-10-18T09:23:09Z</time>
      </trkpt>
      <trkpt lat="43.21706" lon="5.48583">
        <ele>177</ele>
        <time>2025-10-18T09:23:10Z</time>
      </trkpt>
      <trkpt lat="43.21706" lon="5.48583">
        <ele>177</ele>
        <time>2025-10-18T09:23:11Z</time>
      </trkpt>
      <trkpt lat="43.21706" lon="5.48584">
        <ele>177</ele>
        <time>2025-10-18T09:23:12Z</time>
      </trkpt>
      <trkpt lat="43.21706" lon="5.48584">
        <ele>177</ele>
        <time>2025-10-18T09:23:13Z</time>
      </trkpt>
      <trkpt lat="43.21706" lon="5.48584">
        <ele>177</ele>
        <time>2025-10-18T09:23:14Z</time>
      </trkpt>
      <trkpt lat="43.21706" lon="5.48584">
        <ele>177</ele>
        <time>2025-10-18T09:23:15Z</time>
      </trkpt>
      <trkpt lat="43.21706" lon="5.48584">
        <ele>177</ele>
        <time>2025-10-18T09:23:16Z</time>
      </trkpt>
      <trkpt lat="43.21706" lon="5.48585">
        <ele>177.1</ele>
        <time>2025-10-18T09:23:17Z</time>
      </trkpt>
      <trkpt lat="43.21706" lon="5.48586">
        <ele>177.1</ele>
        <time>2025-10-18T09:23:18Z</time>
      </trkpt>
      <trkpt lat="43.21705" lon="5.48587">
        <ele>177.1</ele>
        <time>2025-10-18T09:23:19Z</time>
      </trkpt>
      <trkpt lat="43.21705" lon="5.48588">
        <ele>177</ele>
        <time>2025-10-18T09:23:20Z</time>
      </trkpt>
      <trkpt lat="43.21705" lon="5.48588">
        <ele>177</ele>
        <time>2025-10-18T09:23:21Z</time>
      </trkpt>
      <trkpt lat="43.21705" lon="5.48589">
        <ele>177</ele>
        <time>2025-10-18T09:23:22Z</time>
      </trkpt>
      <trkpt lat="43.21704" lon="5.48589">
        <ele>177</ele>
        <time>2025-10-18T09:23:23Z</time>
      </trkpt>
      <trkpt lat="43.21704" lon="5.4859">
        <ele>176.9</ele>
        <time>2025-10-18T09:23:24Z</time>
      </trkpt>
      <trkpt lat="43.21704" lon="5.4859">
        <ele>176.9</ele>
        <time>2025-10-18T09:23:25Z</time>
      </trkpt>
      <trkpt lat="43.21704" lon="5.4859">
        <ele>176.8</ele>
        <time>2025-10-18T09:23:26Z</time>
      </trkpt>
      <trkpt lat="43.21704" lon="5.4859">
        <ele>176.7</ele>
        <time>2025-10-18T09:23:27Z</time>
      </trkpt>
      <trkpt lat="43.21704" lon="5.4859">
        <ele>176.7</ele>
        <time>2025-10-18T09:23:28Z</time>
      </trkpt>
      <trkpt lat="43.21704" lon="5.4859">
        <ele>176.7</ele>
        <time>2025-10-18T09:23:29Z</time>
      </trkpt>
      <trkpt lat="43.21704" lon="5.48589">
        <ele>176.8</ele>
        <time>2025-10-18T09:23:30Z</time>
      </trkpt>
      <trkpt lat="43.21704" lon="5.4859">
        <ele>176.8</ele>
        <time>2025-10-18T09:23:31Z</time>
      </trkpt>
      <trkpt lat="43.21704" lon="5.4859">
        <ele>176.7</ele>
        <time>2025-10-18T09:23:32Z</time>
      </trkpt>
      <trkpt lat="43.21704" lon="5.4859">
        <ele>176.7</ele>
        <time>2025-10-18T09:23:33Z</time>
      </trkpt>
      <trkpt lat="43.21703" lon="5.48591">
        <ele>176.7</ele>
        <time>2025-10-18T09:23:34Z</time>
      </trkpt>
      <trkpt lat="43.21703" lon="5.48591">
        <ele>176.6</ele>
        <time>2025-10-18T09:23:35Z</time>
      </trkpt>
      <trkpt lat="43.21703" lon="5.48591">
        <ele>176.5</ele>
        <time>2025-10-18T09:23:36Z</time>
      </trkpt>
      <trkpt lat="43.21703" lon="5.48591">
        <ele>176.5</ele>
        <time>2025-10-18T09:23:37Z</time>
      </trkpt>
      <trkpt lat="43.21703" lon="5.48592">
        <ele>176.4</ele>
        <time>2025-10-18T09:23:38Z</time>
      </trkpt>
      <trkpt lat="43.21702" lon="5.48592">
        <ele>176.5</ele>
        <time>2025-10-18T09:23:39Z</time>
      </trkpt>
      <trkpt lat="43.21702" lon="5.48594">
        <ele>176.4</ele>
        <time>2025-10-18T09:23:40Z</time>
      </trkpt>
      <trkpt lat="43.21702" lon="5.48595">
        <ele>176.3</ele>
        <time>2025-10-18T09:23:41Z</time>
      </trkpt>
      <trkpt lat="43.21702" lon="5.48596">
        <ele>176.2</ele>
        <time>2025-10-18T09:23:42Z</time>
      </trkpt>
      <trkpt lat="43.21701" lon="5.48597">
        <ele>176.1</ele>
        <time>2025-10-18T09:23:43Z</time>
      </trkpt>
      <trkpt lat="43.217" lon="5.48598">
        <ele>176</ele>
        <time>2025-10-18T09:23:44Z</time>
      </trkpt>
      <trkpt lat="43.217" lon="5.48599">
        <ele>176</ele>
        <time>2025-10-18T09:23:45Z</time>
      </trkpt>
      <trkpt lat="43.21699" lon="5.48599">
        <ele>176</ele>
        <time>2025-10-18T09:23:46Z</time>
      </trkpt>
      <trkpt lat="43.21698" lon="5.486">
        <ele>176</ele>
        <time>2025-10-18T09:23:47Z</time>
      </trkpt>
      <trkpt lat="43.21698" lon="5.486">
        <ele>176</ele>
        <time>2025-10-18T09:23:48Z</time>
      </trkpt>
      <trkpt lat="43.21698" lon="5.48601">
        <ele>175.8</ele>
        <time>2025-10-18T09:23:49Z</time>
      </trkpt>
      <trkpt lat="43.21698" lon="5.48601">
        <ele>175.7</ele>
        <time>2025-10-18T09:23:50Z</time>
      </trkpt>
      <trkpt lat="43.21698" lon="5.48601">
        <ele>175.6</ele>
        <time>2025-10-18T09:23:51Z</time>
      </trkpt>
      <trkpt lat="43.21697" lon="5.48602">
        <ele>175.5</ele>
        <time>2025-10-18T09:23:52Z</time>
      </trkpt>
      <trkpt lat="43.21696" lon="5.48603">
        <ele>175.5</ele>
        <time>2025-10-18T09:23:53Z</time>
      </trkpt>
      <trkpt lat="43.21696" lon="5.48604">
        <ele>175.4</ele>
        <time>2025-10-18T09:23:54Z</time>
      </trkpt>
      <trkpt lat="43.21696" lon="5.48604">
        <ele>175.3</ele>
        <time>2025-10-18T09:23:55Z</time>
      </trkpt>
      <trkpt lat="43.21696" lon="5.48604">
        <ele>175.3</ele>
        <time>2025-10-18T09:23:56Z</time>
      </trkpt>
      <trkpt lat="43.21696" lon="5.48605">
        <ele>175.3</ele>
        <time>2025-10-18T09:23:57Z</time>
      </trkpt>
      <trkpt lat="43.21695" lon="5.48605">
        <ele>175.3</ele>
        <time>2025-10-18T09:23:58Z</time>
      </trkpt>
      <trkpt lat="43.21694" lon="5.48606">
        <ele>175.2</ele>
        <time>2025-10-18T09:23:59Z</time>
      </trkpt>
      <trkpt lat="43.21693" lon="5.48607">
        <ele>175.1</ele>
        <time>2025-10-18T09:24:00Z</time>
      </trkpt>
      <trkpt lat="43.21692" lon="5.48608">
        <ele>174.9</ele>
        <time>2025-10-18T09:24:01Z</time>
      </trkpt>
      <trkpt lat="43.21691" lon="5.48608">
        <ele>174.9</ele>
        <time>2025-10-18T09:24:02Z</time>
      </trkpt>
      <trkpt lat="43.21691" lon="5.48608">
        <ele>174.7</ele>
        <time>2025-10-18T09:24:03Z</time>
      </trkpt>
      <trkpt lat="43.2169" lon="5.48609">
        <ele>174.6</ele>
        <time>2025-10-18T09:24:04Z</time>
      </trkpt>
      <trkpt lat="43.21689" lon="5.48609">
        <ele>174.5</ele>
        <time>2025-10-18T09:24:05Z</time>
      </trkpt>
      <trkpt lat="43.21688" lon="5.48611">
        <ele>174.3</ele>
        <time>2025-10-18T09:24:06Z</time>
      </trkpt>
      <trkpt lat="43.21687" lon="5.48611">
        <ele>174.2</ele>
        <time>2025-10-18T09:24:07Z</time>
      </trkpt>
      <trkpt lat="43.21687" lon="5.48612">
        <ele>174</ele>
        <time>2025-10-18T09:24:08Z</time>
      </trkpt>
      <trkpt lat="43.21686" lon="5.48613">
        <ele>173.8</ele>
        <time>2025-10-18T09:24:09Z</time>
      </trkpt>
      <trkpt lat="43.21685" lon="5.48614">
        <ele>173.5</ele>
        <time>2025-10-18T09:24:10Z</time>
      </trkpt>
      <trkpt lat="43.21684" lon="5.48614">
        <ele>173.3</ele>
        <time>2025-10-18T09:24:11Z</time>
      </trkpt>
      <trkpt lat="43.21684" lon="5.48614">
        <ele>173.2</ele>
        <time>2025-10-18T09:24:12Z</time>
      </trkpt>
      <trkpt lat="43.21684" lon="5.48615">
        <ele>173.2</ele>
        <time>2025-10-18T09:24:13Z</time>
      </trkpt>
      <trkpt lat="43.21683" lon="5.48615">
        <ele>173.1</ele>
        <time>2025-10-18T09:24:14Z</time>
      </trkpt>
      <trkpt lat="43.21683" lon="5.48616">
        <ele>173</ele>
        <time>2025-10-18T09:24:15Z</time>
      </trkpt>
      <trkpt lat="43.21683" lon="5.48616">
        <ele>172.9</ele>
        <time>2025-10-18T09:24:16Z</time>
      </trkpt>
      <trkpt lat="43.21682" lon="5.48616">
        <ele>172.9</ele>
        <time>2025-10-18T09:24:17Z</time>
      </trkpt>
      <trkpt lat="43.21681" lon="5.48616">
        <ele>172.9</ele>
        <time>2025-10-18T09:24:18Z</time>
      </trkpt>
      <trkpt lat="43.2168" lon="5.48616">
        <ele>172.8</ele>
        <time>2025-10-18T09:24:19Z</time>
      </trkpt>
      <trkpt lat="43.2168" lon="5.48618">
        <ele>172.7</ele>
        <time>2025-10-18T09:24:20Z</time>
      </trkpt>
      <trkpt lat="43.2168" lon="5.48618">
        <ele>172.7</ele>
        <time>2025-10-18T09:24:21Z</time>
      </trkpt>
      <trkpt lat="43.2168" lon="5.48619">
        <ele>172.6</ele>
        <time>2025-10-18T09:24:22Z</time>
      </trkpt>
      <trkpt lat="43.2168" lon="5.48619">
        <ele>172.7</ele>
        <time>2025-10-18T09:24:23Z</time>
      </trkpt>
      <trkpt lat="43.2168" lon="5.4862">
        <ele>172.7</ele>
        <time>2025-10-18T09:24:24Z</time>
      </trkpt>
      <trkpt lat="43.21679" lon="5.4862">
        <ele>172.6</ele>
        <time>2025-10-18T09:24:25Z</time>
      </trkpt>
      <trkpt lat="43.21679" lon="5.4862">
        <ele>172.6</ele>
        <time>2025-10-18T09:24:26Z</time>
      </trkpt>
      <trkpt lat="43.21678" lon="5.48621">
        <ele>172.6</ele>
        <time>2025-10-18T09:24:27Z</time>
      </trkpt>
      <trkpt lat="43.21678" lon="5.48621">
        <ele>172.6</ele>
        <time>2025-10-18T09:24:28Z</time>
      </trkpt>
      <trkpt lat="43.21678" lon="5.48622">
        <ele>172.6</ele>
        <time>2025-10-18T09:24:29Z</time>
      </trkpt>
      <trkpt lat="43.21677" lon="5.48622">
        <ele>172.6</ele>
        <time>2025-10-18T09:24:30Z</time>
      </trkpt>
      <trkpt lat="43.21677" lon="5.48622">
        <ele>172.5</ele>
        <time>2025-10-18T09:24:31Z</time>
      </trkpt>
      <trkpt lat="43.21677" lon="5.48623">
        <ele>172.5</ele>
        <time>2025-10-18T09:24:32Z</time>
      </trkpt>
      <trkpt lat="43.21677" lon="5.48623">
        <ele>172.4</ele>
        <time>2025-10-18T09:24:33Z</time>
      </trkpt>
      <trkpt lat="43.21676" lon="5.48623">
        <ele>172.3</ele>
        <time>2025-10-18T09:24:34Z</time>
      </trkpt>
      <trkpt lat="43.21676" lon="5.48623">
        <ele>172.3</ele>
        <time>2025-10-18T09:24:35Z</time>
      </trkpt>
      <trkpt lat="43.21676" lon="5.48624">
        <ele>172.2</ele>
        <time>2025-10-18T09:24:36Z</time>
      </trkpt>
      <trkpt lat="43.21676" lon="5.48625">
        <ele>172.1</ele>
        <time>2025-10-18T09:24:37Z</time>
      </trkpt>
      <trkpt lat="43.21675" lon="5.48625">
        <ele>172</ele>
        <time>2025-10-18T09:24:38Z</time>
      </trkpt>
      <trkpt lat="43.21674" lon="5.48626">
        <ele>171.9</ele>
        <time>2025-10-18T09:24:39Z</time>
      </trkpt>
      <trkpt lat="43.21673" lon="5.48627">
        <ele>171.9</ele>
        <time>2025-10-18T09:24:40Z</time>
      </trkpt>
      <trkpt lat="43.21673" lon="5.48628">
        <ele>172</ele>
        <time>2025-10-18T09:24:41Z</time>
      </trkpt>
      <trkpt lat="43.21672" lon="5.48628">
        <ele>172</ele>
        <time>2025-10-18T09:24:42Z</time>
      </trkpt>
      <trkpt lat="43.21671" lon="5.48629">
        <ele>172</ele>
        <time>2025-10-18T09:24:43Z</time>
      </trkpt>
      <trkpt lat="43.21671" lon="5.48629">
        <ele>172</ele>
        <time>2025-10-18T09:24:44Z</time>
      </trkpt>
      <trkpt lat="43.21671" lon="5.4863">
        <ele>172</ele>
        <time>2025-10-18T09:24:45Z</time>
      </trkpt>
      <trkpt lat="43.21671" lon="5.48632">
        <ele>171.9</ele>
        <time>2025-10-18T09:24:46Z</time>
      </trkpt>
      <trkpt lat="43.2167" lon="5.48633">
        <ele>171.8</ele>
        <time>2025-10-18T09:24:47Z</time>
      </trkpt>
      <trkpt lat="43.2167" lon="5.48634">
        <ele>171.8</ele>
        <time>2025-10-18T09:24:48Z</time>
      </trkpt>
      <trkpt lat="43.2167" lon="5.48635">
        <ele>171.8</ele>
        <time>2025-10-18T09:24:49Z</time>
      </trkpt>
      <trkpt lat="43.21669" lon="5.48636">
        <ele>171.6</ele>
        <time>2025-10-18T09:24:50Z</time>
      </trkpt>
      <trkpt lat="43.21669" lon="5.48636">
        <ele>171.5</ele>
        <time>2025-10-18T09:24:51Z</time>
      </trkpt>
      <trkpt lat="43.21669" lon="5.48637">
        <ele>171.5</ele>
        <time>2025-10-18T09:24:52Z</time>
      </trkpt>
      <trkpt lat="43.21669" lon="5.48637">
        <ele>171.4</ele>
        <time>2025-10-18T09:24:53Z</time>
      </trkpt>
      <trkpt lat="43.21669" lon="5.48638">
        <ele>171.3</ele>
        <time>2025-10-18T09:24:54Z</time>
      </trkpt>
      <trkpt lat="43.21668" lon="5.48638">
        <ele>171.2</ele>
        <time>2025-10-18T09:24:55Z</time>
      </trkpt>
      <trkpt lat="43.21668" lon="5.48638">
        <ele>171.2</ele>
        <time>2025-10-18T09:24:56Z</time>
      </trkpt>
      <trkpt lat="43.21668" lon="5.48638">
        <ele>171.2</ele>
        <time>2025-10-18T09:24:57Z</time>
      </trkpt>
      <trkpt lat="43.21668" lon="5.48638">
        <ele>171.2</ele>
        <time>2025-10-18T09:24:58Z</time>
      </trkpt>
      <trkpt lat="43.21667" lon="5.48639">
        <ele>171.2</ele>
        <time>2025-10-18T09:24:59Z</time>
      </trkpt>
      <trkpt lat="43.21667" lon="5.48639">
        <ele>171.2</ele>
        <time>2025-10-18T09:25:00Z</time>
      </trkpt>
      <trkpt lat="43.21667" lon="5.48639">
        <ele>171.1</ele>
        <time>2025-10-18T09:25:01Z</time>
      </trkpt>
      <trkpt lat="43.21666" lon="5.48639">
        <ele>171.1</ele>
        <time>2025-10-18T09:25:02Z</time>
      </trkpt>
      <trkpt lat="43.21666" lon="5.48639">
        <ele>171</ele>
        <time>2025-10-18T09:25:03Z</time>
      </trkpt>
      <trkpt lat="43.21666" lon="5.48639">
        <ele>171</ele>
        <time>2025-10-18T09:25:04Z</time>
      </trkpt>
      <trkpt lat="43.21666" lon="5.48639">
        <ele>171</ele>
        <time>2025-10-18T09:25:05Z</time>
      </trkpt>
      <trkpt lat="43.21666" lon="5.48639">
        <ele>171</ele>
        <time>2025-10-18T09:25:06Z</time>
      </trkpt>
      <trkpt lat="43.21666" lon="5.48639">
        <ele>171</ele>
        <time>2025-10-18T09:25:07Z</time>
      </trkpt>
      <trkpt lat="43.21666" lon="5.48638">
        <ele>171</ele>
        <time>2025-10-18T09:25:08Z</time>
      </trkpt>
      <trkpt lat="43.21666" lon="5.48638">
        <ele>171</ele>
        <time>2025-10-18T09:25:09Z</time>
      </trkpt>
      <trkpt lat="43.21666" lon="5.48638">
        <ele>171</ele>
        <time>2025-10-18T09:25:10Z</time>
      </trkpt>
      <trkpt lat="43.21666" lon="5.48638">
        <ele>170.9</ele>
        <time>2025-10-18T09:25:11Z</time>
      </trkpt>
      <trkpt lat="43.21666" lon="5.48638">
        <ele>170.9</ele>
        <time>2025-10-18T09:25:12Z</time>
      </trkpt>
      <trkpt lat="43.21666" lon="5.48639">
        <ele>170.9</ele>
        <time>2025-10-18T09:25:13Z</time>
      </trkpt>
      <trkpt lat="43.21666" lon="5.48639">
        <ele>170.8</ele>
        <time>2025-10-18T09:25:14Z</time>
      </trkpt>
      <trkpt lat="43.21666" lon="5.48639">
        <ele>170.8</ele>
        <time>2025-10-18T09:25:15Z</time>
      </trkpt>
      <trkpt lat="43.21666" lon="5.4864">
        <ele>170.8</ele>
        <time>2025-10-18T09:25:16Z</time>
      </trkpt>
      <trkpt lat="43.21666" lon="5.48641">
        <ele>170.7</ele>
        <time>2025-10-18T09:25:17Z</time>
      </trkpt>
      <trkpt lat="43.21666" lon="5.48642">
        <ele>170.7</ele>
        <time>2025-10-18T09:25:18Z</time>
      </trkpt>
      <trkpt lat="43.21665" lon="5.48643">
        <ele>170.6</ele>
        <time>2025-10-18T09:25:19Z</time>
      </trkpt>
      <trkpt lat="43.21665" lon="5.48645">
        <ele>170.6</ele>
        <time>2025-10-18T09:25:20Z</time>
      </trkpt>
      <trkpt lat="43.21665" lon="5.48646">
        <ele>170.5</ele>
        <time>2025-10-18T09:25:21Z</time>
      </trkpt>
      <trkpt lat="43.21665" lon="5.48646">
        <ele>170.4</ele>
        <time>2025-10-18T09:25:22Z</time>
      </trkpt>
      <trkpt lat="43.21664" lon="5.48647">
        <ele>170.4</ele>
        <time>2025-10-18T09:25:23Z</time>
      </trkpt>
      <trkpt lat="43.21664" lon="5.48648">
        <ele>170.3</ele>
        <time>2025-10-18T09:25:24Z</time>
      </trkpt>
      <trkpt lat="43.21664" lon="5.48649">
        <ele>170.2</ele>
        <time>2025-10-18T09:25:25Z</time>
      </trkpt>
      <trkpt lat="43.21664" lon="5.48649">
        <ele>170.1</ele>
        <time>2025-10-18T09:25:26Z</time>
      </trkpt>
      <trkpt lat="43.21664" lon="5.48649">
        <ele>170</ele>
        <time>2025-10-18T09:25:27Z</time>
      </trkpt>
      <trkpt lat="43.21663" lon="5.48649">
        <ele>170</ele>
        <time>2025-10-18T09:25:28Z</time>
      </trkpt>
      <trkpt lat="43.21662" lon="5.48649">
        <ele>169.9</ele>
        <time>2025-10-18T09:25:29Z</time>
      </trkpt>
      <trkpt lat="43.21662" lon="5.48651">
        <ele>169.8</ele>
        <time>2025-10-18T09:25:30Z</time>
      </trkpt>
      <trkpt lat="43.21661" lon="5.48651">
        <ele>169.7</ele>
        <time>2025-10-18T09:25:31Z</time>
      </trkpt>
      <trkpt lat="43.2166" lon="5.48651">
        <ele>169.5</ele>
        <time>2025-10-18T09:25:32Z</time>
      </trkpt>
      <trkpt lat="43.2166" lon="5.48652">
        <ele>169.3</ele>
        <time>2025-10-18T09:25:33Z</time>
      </trkpt>
      <trkpt lat="43.2166" lon="5.48653">
        <ele>169.1</ele>
        <time>2025-10-18T09:25:34Z</time>
      </trkpt>
      <trkpt lat="43.2166" lon="5.48653">
        <ele>169</ele>
        <time>2025-10-18T09:25:35Z</time>
      </trkpt>
      <trkpt lat="43.2166" lon="5.48654">
        <ele>168.9</ele>
        <time>2025-10-18T09:25:36Z</time>
      </trkpt>
      <trkpt lat="43.2166" lon="5.48655">
        <ele>168.8</ele>
        <time>2025-10-18T09:25:37Z</time>
      </trkpt>
      <trkpt lat="43.21659" lon="5.48656">
        <ele>168.7</ele>
        <time>2025-10-18T09:25:38Z</time>
      </trkpt>
      <trkpt lat="43.21659" lon="5.48656">
        <ele>168.6</ele>
        <time>2025-10-18T09:25:39Z</time>
      </trkpt>
      <trkpt lat="43.21659" lon="5.48657">
        <ele>168.6</ele>
        <time>2025-10-18T09:25:40Z</time>
      </trkpt>
      <trkpt lat="43.21658" lon="5.48657">
        <ele>168.5</ele>
        <time>2025-10-18T09:25:41Z</time>
      </trkpt>
      <trkpt lat="43.21657" lon="5.48657">
        <ele>168.4</ele>
        <time>2025-10-18T09:25:42Z</time>
      </trkpt>
      <trkpt lat="43.21657" lon="5.48658">
        <ele>168.3</ele>
        <time>2025-10-18T09:25:43Z</time>
      </trkpt>
      <trkpt lat="43.21656" lon="5.48659">
        <ele>168.3</ele>
        <time>2025-10-18T09:25:44Z</time>
      </trkpt>
      <trkpt lat="43.21656" lon="5.4866">
        <ele>168.1</ele>
        <time>2025-10-18T09:25:45Z</time>
      </trkpt>
      <trkpt lat="43.21656" lon="5.4866">
        <ele>168</ele>
        <time>2025-10-18T09:25:46Z</time>
      </trkpt>
      <trkpt lat="43.21656" lon="5.48661">
        <ele>167.8</ele>
        <time>2025-10-18T09:25:47Z</time>
      </trkpt>
      <trkpt lat="43.21656" lon="5.48662">
        <ele>167.7</ele>
        <time>2025-10-18T09:25:48Z</time>
      </trkpt>
      <trkpt lat="43.21656" lon="5.48664">
        <ele>167.7</ele>
        <time>2025-10-18T09:25:49Z</time>
      </trkpt>
      <trkpt lat="43.21656" lon="5.48665">
        <ele>167.6</ele>
        <time>2025-10-18T09:25:50Z</time>
      </trkpt>
      <trkpt lat="43.21656" lon="5.48665">
        <ele>167.6</ele>
        <time>2025-10-18T09:25:51Z</time>
      </trkpt>
      <trkpt lat="43.21656" lon="5.48666">
        <ele>167.4</ele>
        <time>2025-10-18T09:25:52Z</time>
      </trkpt>
      <trkpt lat="43.21656" lon="5.48666">
        <ele>167.4</ele>
        <time>2025-10-18T09:25:53Z</time>
      </trkpt>
      <trkpt lat="43.21656" lon="5.48667">
        <ele>167.4</ele>
        <time>2025-10-18T09:25:54Z</time>
      </trkpt>
      <trkpt lat="43.21655" lon="5.48668">
        <ele>167.4</ele>
        <time>2025-10-18T09:25:55Z</time>
      </trkpt>
      <trkpt lat="43.21655" lon="5.48669">
        <ele>167.3</ele>
        <time>2025-10-18T09:25:56Z</time>
      </trkpt>
      <trkpt lat="43.21655" lon="5.4867">
        <ele>167.3</ele>
        <time>2025-10-18T09:25:57Z</time>
      </trkpt>
      <trkpt lat="43.21654" lon="5.4867">
        <ele>167.3</ele>
        <time>2025-10-18T09:25:58Z</time>
      </trkpt>
      <trkpt lat="43.21654" lon="5.48671">
        <ele>167.2</ele>
        <time>2025-10-18T09:25:59Z</time>
      </trkpt>
      <trkpt lat="43.21653" lon="5.48673">
        <ele>167.1</ele>
        <time>2025-10-18T09:26:00Z</time>
      </trkpt>
      <trkpt lat="43.21653" lon="5.48674">
        <ele>167.1</ele>
        <time>2025-10-18T09:26:01Z</time>
      </trkpt>
      <trkpt lat="43.21653" lon="5.48675">
        <ele>166.9</ele>
        <time>2025-10-18T09:26:02Z</time>
      </trkpt>
      <trkpt lat="43.21653" lon="5.48676">
        <ele>166.9</ele>
        <time>2025-10-18T09:26:03Z</time>
      </trkpt>
      <trkpt lat="43.21652" lon="5.48677">
        <ele>166.8</ele>
        <time>2025-10-18T09:26:04Z</time>
      </trkpt>
      <trkpt lat="43.21652" lon="5.48677">
        <ele>166.7</ele>
        <time>2025-10-18T09:26:05Z</time>
      </trkpt>
      <trkpt lat="43.21652" lon="5.48678">
        <ele>166.7</ele>
        <time>2025-10-18T09:26:06Z</time>
      </trkpt>
      <trkpt lat="43.21651" lon="5.48678">
        <ele>166.8</ele>
        <time>2025-10-18T09:26:07Z</time>
      </trkpt>
      <trkpt lat="43.21651" lon="5.48678">
        <ele>166.7</ele>
        <time>2025-10-18T09:26:08Z</time>
      </trkpt>
      <trkpt lat="43.2165" lon="5.48678">
        <ele>166.6</ele>
        <time>2025-10-18T09:26:09Z</time>
      </trkpt>
      <trkpt lat="43.21649" lon="5.48679">
        <ele>166.5</ele>
        <time>2025-10-18T09:26:10Z</time>
      </trkpt>
      <trkpt lat="43.21649" lon="5.48679">
        <ele>166.2</ele>
        <time>2025-10-18T09:26:11Z</time>
      </trkpt>
      <trkpt lat="43.21649" lon="5.4868">
        <ele>166.2</ele>
        <time>2025-10-18T09:26:12Z</time>
      </trkpt>
      <trkpt lat="43.21648" lon="5.4868">
        <ele>166.1</ele>
        <time>2025-10-18T09:26:13Z</time>
      </trkpt>
      <trkpt lat="43.21648" lon="5.48681">
        <ele>166</ele>
        <time>2025-10-18T09:26:14Z</time>
      </trkpt>
      <trkpt lat="43.21648" lon="5.48681">
        <ele>165.9</ele>
        <time>2025-10-18T09:26:15Z</time>
      </trkpt>
      <trkpt lat="43.21647" lon="5.48682">
        <ele>165.8</ele>
        <time>2025-10-18T09:26:16Z</time>
      </trkpt>
      <trkpt lat="43.21647" lon="5.48682">
        <ele>165.7</ele>
        <time>2025-10-18T09:26:17Z</time>
      </trkpt>
      <trkpt lat="43.21646" lon="5.48682">
        <ele>165.6</ele>
        <time>2025-10-18T09:26:18Z</time>
      </trkpt>
      <trkpt lat="43.21645" lon="5.48682">
        <ele>165.6</ele>
        <time>2025-10-18T09:26:19Z</time>
      </trkpt>
      <trkpt lat="43.21645" lon="5.48683">
        <ele>165.6</ele>
        <time>2025-10-18T09:26:20Z</time>
      </trkpt>
      <trkpt lat="43.21645" lon="5.48684">
        <ele>165.5</ele>
        <time>2025-10-18T09:26:21Z</time>
      </trkpt>
      <trkpt lat="43.21645" lon="5.48684">
        <ele>165.6</ele>
        <time>2025-10-18T09:26:22Z</time>
      </trkpt>
      <trkpt lat="43.21644" lon="5.48685">
        <ele>165.5</ele>
        <time>2025-10-18T09:26:23Z</time>
      </trkpt>
      <trkpt lat="43.21644" lon="5.48686">
        <ele>165.3</ele>
        <time>2025-10-18T09:26:24Z</time>
      </trkpt>
      <trkpt lat="43.21644" lon="5.48687">
        <ele>165.2</ele>
        <time>2025-10-18T09:26:25Z</time>
      </trkpt>
      <trkpt lat="43.21644" lon="5.48687">
        <ele>165.2</ele>
        <time>2025-10-18T09:26:26Z</time>
      </trkpt>
      <trkpt lat="43.21644" lon="5.48687">
        <ele>165.1</ele>
        <time>2025-10-18T09:26:27Z</time>
      </trkpt>
      <trkpt lat="43.21644" lon="5.48687">
        <ele>165.1</ele>
        <time>2025-10-18T09:26:28Z</time>
      </trkpt>
      <trkpt lat="43.21644" lon="5.48686">
        <ele>165.1</ele>
        <time>2025-10-18T09:26:29Z</time>
      </trkpt>
      <trkpt lat="43.21644" lon="5.48687">
        <ele>165.2</ele>
        <time>2025-10-18T09:26:30Z</time>
      </trkpt>
      <trkpt lat="43.21644" lon="5.48687">
        <ele>165.2</ele>
        <time>2025-10-18T09:26:31Z</time>
      </trkpt>
      <trkpt lat="43.21644" lon="5.48687">
        <ele>165.2</ele>
        <time>2025-10-18T09:26:32Z</time>
      </trkpt>
      <trkpt lat="43.21644" lon="5.48687">
        <ele>165.1</ele>
        <time>2025-10-18T09:26:33Z</time>
      </trkpt>
      <trkpt lat="43.21644" lon="5.48688">
        <ele>165.1</ele>
        <time>2025-10-18T09:26:34Z</time>
      </trkpt>
      <trkpt lat="43.21644" lon="5.48688">
        <ele>165.1</ele>
        <time>2025-10-18T09:26:35Z</time>
      </trkpt>
      <trkpt lat="43.21644" lon="5.48688">
        <ele>165.1</ele>
        <time>2025-10-18T09:26:36Z</time>
      </trkpt>
      <trkpt lat="43.21644" lon="5.48688">
        <ele>165.1</ele>
        <time>2025-10-18T09:26:37Z</time>
      </trkpt>
      <trkpt lat="43.21644" lon="5.48688">
        <ele>165.1</ele>
        <time>2025-10-18T09:26:38Z</time>
      </trkpt>
      <trkpt lat="43.21644" lon="5.48688">
        <ele>165.1</ele>
        <time>2025-10-18T09:26:39Z</time>
      </trkpt>
      <trkpt lat="43.21644" lon="5.48688">
        <ele>165.1</ele>
        <time>2025-10-18T09:26:40Z</time>
      </trkpt>
      <trkpt lat="43.21644" lon="5.48688">
        <ele>165.1</ele>
        <time>2025-10-18T09:26:41Z</time>
      </trkpt>
      <trkpt lat="43.21643" lon="5.48689">
        <ele>165.1</ele>
        <time>2025-10-18T09:26:42Z</time>
      </trkpt>
      <trkpt lat="43.21643" lon="5.48689">
        <ele>165.1</ele>
        <time>2025-10-18T09:26:43Z</time>
      </trkpt>
      <trkpt lat="43.21643" lon="5.48689">
        <ele>165.1</ele>
        <time>2025-10-18T09:26:44Z</time>
      </trkpt>
      <trkpt lat="43.21643" lon="5.48689">
        <ele>165.1</ele>
        <time>2025-10-18T09:26:45Z</time>
      </trkpt>
      <trkpt lat="43.21643" lon="5.48689">
        <ele>165.2</ele>
        <time>2025-10-18T09:26:46Z</time>
      </trkpt>
      <trkpt lat="43.21643" lon="5.48689">
        <ele>165.2</ele>
        <time>2025-10-18T09:26:47Z</time>
      </trkpt>
      <trkpt lat="43.21643" lon="5.48689">
        <ele>165.2</ele>
        <time>2025-10-18T09:26:48Z</time>
      </trkpt>
      <trkpt lat="43.21643" lon="5.48689">
        <ele>165.2</ele>
        <time>2025-10-18T09:26:49Z</time>
      </trkpt>
      <trkpt lat="43.21643" lon="5.48689">
        <ele>165.1</ele>
        <time>2025-10-18T09:26:50Z</time>
      </trkpt>
      <trkpt lat="43.21643" lon="5.4869">
        <ele>165</ele>
        <time>2025-10-18T09:26:51Z</time>
      </trkpt>
      <trkpt lat="43.21643" lon="5.4869">
        <ele>165</ele>
        <time>2025-10-18T09:26:52Z</time>
      </trkpt>
      <trkpt lat="43.21643" lon="5.4869">
        <ele>164.9</ele>
        <time>2025-10-18T09:26:53Z</time>
      </trkpt>
      <trkpt lat="43.21643" lon="5.4869">
        <ele>165</ele>
        <time>2025-10-18T09:26:54Z</time>
      </trkpt>
      <trkpt lat="43.21643" lon="5.48689">
        <ele>165</ele>
        <time>2025-10-18T09:26:55Z</time>
      </trkpt>
      <trkpt lat="43.21643" lon="5.4869">
        <ele>165</ele>
        <time>2025-10-18T09:26:56Z</time>
      </trkpt>
      <trkpt lat="43.21643" lon="5.4869">
        <ele>165</ele>
        <time>2025-10-18T09:26:57Z</time>
      </trkpt>
      <trkpt lat="43.21642" lon="5.4869">
        <ele>165</ele>
        <time>2025-10-18T09:26:58Z</time>
      </trkpt>
      <trkpt lat="43.21642" lon="5.4869">
        <ele>165</ele>
        <time>2025-10-18T09:26:59Z</time>
      </trkpt>
      <trkpt lat="43.21641" lon="5.48691">
        <ele>164.9</ele>
        <time>2025-10-18T09:27:00Z</time>
      </trkpt>
      <trkpt lat="43.21641" lon="5.48691">
        <ele>164.9</ele>
        <time>2025-10-18T09:27:01Z</time>
      </trkpt>
      <trkpt lat="43.21641" lon="5.48692">
        <ele>164.8</ele>
        <time>2025-10-18T09:27:02Z</time>
      </trkpt>
      <trkpt lat="43.21641" lon="5.48692">
        <ele>164.9</ele>
        <time>2025-10-18T09:27:03Z</time>
      </trkpt>
      <trkpt lat="43.21641" lon="5.48692">
        <ele>165</ele>
        <time>2025-10-18T09:27:04Z</time>
      </trkpt>
      <trkpt lat="43.2164" lon="5.48692">
        <ele>165</ele>
        <time>2025-10-18T09:27:05Z</time>
      </trkpt>
      <trkpt lat="43.2164" lon="5.48692">
        <ele>165</ele>
        <time>2025-10-18T09:27:06Z</time>
      </trkpt>
      <trkpt lat="43.2164" lon="5.48692">
        <ele>165</ele>
        <time>2025-10-18T09:27:07Z</time>
      </trkpt>
      <trkpt lat="43.21641" lon="5.48692">
        <ele>165.1</ele>
        <time>2025-10-18T09:27:08Z</time>
      </trkpt>
      <trkpt lat="43.21641" lon="5.48693">
        <ele>165</ele>
        <time>2025-10-18T09:27:09Z</time>
      </trkpt>
      <trkpt lat="43.21641" lon="5.48693">
        <ele>165</ele>
        <time>2025-10-18T09:27:10Z</time>
      </trkpt>
      <trkpt lat="43.21642" lon="5.48693">
        <ele>165.1</ele>
        <time>2025-10-18T09:27:11Z</time>
      </trkpt>
      <trkpt lat="43.21642" lon="5.48693">
        <ele>165.2</ele>
        <time>2025-10-18T09:27:12Z</time>
      </trkpt>
      <trkpt lat="43.21642" lon="5.48693">
        <ele>165.3</ele>
        <time>2025-10-18T09:27:13Z</time>
      </trkpt>
      <trkpt lat="43.21642" lon="5.48694">
        <ele>165.5</ele>
        <time>2025-10-18T09:27:14Z</time>
      </trkpt>
      <trkpt lat="43.21642" lon="5.48694">
        <ele>165.4</ele>
        <time>2025-10-18T09:27:15Z</time>
      </trkpt>
      <trkpt lat="43.21643" lon="5.48695">
        <ele>165.5</ele>
        <time>2025-10-18T09:27:16Z</time>
      </trkpt>
      <trkpt lat="43.21643" lon="5.48695">
        <ele>165.8</ele>
        <time>2025-10-18T09:27:17Z</time>
      </trkpt>
      <trkpt lat="43.21643" lon="5.48695">
        <ele>165.9</ele>
        <time>2025-10-18T09:27:18Z</time>
      </trkpt>
      <trkpt lat="43.21644" lon="5.48695">
        <ele>166.2</ele>
        <time>2025-10-18T09:27:19Z</time>
      </trkpt>
      <trkpt lat="43.21644" lon="5.48695">
        <ele>166.4</ele>
        <time>2025-10-18T09:27:20Z</time>
      </trkpt>
      <trkpt lat="43.21644" lon="5.48696">
        <ele>166.5</ele>
        <time>2025-10-18T09:27:21Z</time>
      </trkpt>
      <trkpt lat="43.21645" lon="5.48696">
        <ele>166.7</ele>
        <time>2025-10-18T09:27:22Z</time>
      </trkpt>
      <trkpt lat="43.21645" lon="5.48697">
        <ele>166.8</ele>
        <time>2025-10-18T09:27:23Z</time>
      </trkpt>
      <trkpt lat="43.21645" lon="5.48698">
        <ele>166.9</ele>
        <time>2025-10-18T09:27:24Z</time>
      </trkpt>
      <trkpt lat="43.21646" lon="5.48698">
        <ele>167</ele>
        <time>2025-10-18T09:27:25Z</time>
      </trkpt>
      <trkpt lat="43.21646" lon="5.48698">
        <ele>167</ele>
        <time>2025-10-18T09:27:26Z</time>
      </trkpt>
      <trkpt lat="43.21647" lon="5.48698">
        <ele>167.1</ele>
        <time>2025-10-18T09:27:27Z</time>
      </trkpt>
      <trkpt lat="43.21647" lon="5.48698">
        <ele>167.1</ele>
        <time>2025-10-18T09:27:28Z</time>
      </trkpt>
      <trkpt lat="43.21648" lon="5.48699">
        <ele>167.2</ele>
        <time>2025-10-18T09:27:29Z</time>
      </trkpt>
      <trkpt lat="43.21648" lon="5.48699">
        <ele>167.3</ele>
        <time>2025-10-18T09:27:30Z</time>
      </trkpt>
      <trkpt lat="43.21649" lon="5.48698">
        <ele>167.4</ele>
        <time>2025-10-18T09:27:31Z</time>
      </trkpt>
      <trkpt lat="43.21649" lon="5.48699">
        <ele>167.5</ele>
        <time>2025-10-18T09:27:32Z</time>
      </trkpt>
      <trkpt lat="43.21649" lon="5.487">
        <ele>167.6</ele>
        <time>2025-10-18T09:27:33Z</time>
      </trkpt>
      <trkpt lat="43.2165" lon="5.487">
        <ele>167.8</ele>
        <time>2025-10-18T09:27:34Z</time>
      </trkpt>
      <trkpt lat="43.2165" lon="5.48701">
        <ele>167.9</ele>
        <time>2025-10-18T09:27:35Z</time>
      </trkpt>
      <trkpt lat="43.2165" lon="5.48701">
        <ele>168.1</ele>
        <time>2025-10-18T09:27:36Z</time>
      </trkpt>
      <trkpt lat="43.21651" lon="5.48702">
        <ele>168.3</ele>
        <time>2025-10-18T09:27:37Z</time>
      </trkpt>
      <trkpt lat="43.21651" lon="5.48701">
        <ele>168.5</ele>
        <time>2025-10-18T09:27:38Z</time>
      </trkpt>
      <trkpt lat="43.21652" lon="5.48701">
        <ele>168.6</ele>
        <time>2025-10-18T09:27:39Z</time>
      </trkpt>
      <trkpt lat="43.21652" lon="5.48702">
        <ele>168.8</ele>
        <time>2025-10-18T09:27:40Z</time>
      </trkpt>
      <trkpt lat="43.21653" lon="5.48702">
        <ele>169</ele>
        <time>2025-10-18T09:27:41Z</time>
      </trkpt>
      <trkpt lat="43.21653" lon="5.48702">
        <ele>169.2</ele>
        <time>2025-10-18T09:27:42Z</time>
      </trkpt>
      <trkpt lat="43.21654" lon="5.48702">
        <ele>169.3</ele>
        <time>2025-10-18T09:27:43Z</time>
      </trkpt>
      <trkpt lat="43.21654" lon="5.48702">
        <ele>169.5</ele>
        <time>2025-10-18T09:27:44Z</time>
      </trkpt>
      <trkpt lat="43.21654" lon="5.48703">
        <ele>169.6</ele>
        <time>2025-10-18T09:27:45Z</time>
      </trkpt>
      <trkpt lat="43.21655" lon="5.48703">
        <ele>169.8</ele>
        <time>2025-10-18T09:27:46Z</time>
      </trkpt>
      <trkpt lat="43.21655" lon="5.48704">
        <ele>169.9</ele>
        <time>2025-10-18T09:27:47Z</time>
      </trkpt>
      <trkpt lat="43.21656" lon="5.48704">
        <ele>170.1</ele>
        <time>2025-10-18T09:27:48Z</time>
      </trkpt>
      <trkpt lat="43.21656" lon="5.48705">
        <ele>170.3</ele>
        <time>2025-10-18T09:27:49Z</time>
      </trkpt>
      <trkpt lat="43.21657" lon="5.48705">
        <ele>170.4</ele>
        <time>2025-10-18T09:27:50Z</time>
      </trkpt>
      <trkpt lat="43.21658" lon="5.48705">
        <ele>170.5</ele>
        <time>2025-10-18T09:27:51Z</time>
      </trkpt>
      <trkpt lat="43.21658" lon="5.48705">
        <ele>170.7</ele>
        <time>2025-10-18T09:27:52Z</time>
      </trkpt>
      <trkpt lat="43.21659" lon="5.48705">
        <ele>170.8</ele>
        <time>2025-10-18T09:27:53Z</time>
      </trkpt>
      <trkpt lat="43.21659" lon="5.48705">
        <ele>170.9</ele>
        <time>2025-10-18T09:27:54Z</time>
      </trkpt>
      <trkpt lat="43.2166" lon="5.48705">
        <ele>171</ele>
        <time>2025-10-18T09:27:55Z</time>
      </trkpt>
      <trkpt lat="43.2166" lon="5.48704">
        <ele>171.2</ele>
        <time>2025-10-18T09:27:56Z</time>
      </trkpt>
      <trkpt lat="43.2166" lon="5.48704">
        <ele>171.3</ele>
        <time>2025-10-18T09:27:57Z</time>
      </trkpt>
      <trkpt lat="43.2166" lon="5.48704">
        <ele>171.4</ele>
        <time>2025-10-18T09:27:58Z</time>
      </trkpt>
      <trkpt lat="43.21661" lon="5.48705">
        <ele>171.4</ele>
        <time>2025-10-18T09:27:59Z</time>
      </trkpt>
      <trkpt lat="43.21662" lon="5.48706">
        <ele>171.5</ele>
        <time>2025-10-18T09:28:00Z</time>
      </trkpt>
      <trkpt lat="43.21662" lon="5.48706">
        <ele>171.5</ele>
        <time>2025-10-18T09:28:01Z</time>
      </trkpt>
      <trkpt lat="43.21663" lon="5.48707">
        <ele>171.6</ele>
        <time>2025-10-18T09:28:02Z</time>
      </trkpt>
      <trkpt lat="43.21664" lon="5.48707">
        <ele>171.8</ele>
        <time>2025-10-18T09:28:03Z</time>
      </trkpt>
      <trkpt lat="43.21664" lon="5.48708">
        <ele>171.8</ele>
        <time>2025-10-18T09:28:04Z</time>
      </trkpt>
      <trkpt lat="43.21664" lon="5.48709">
        <ele>171.8</ele>
        <time>2025-10-18T09:28:05Z</time>
      </trkpt>
      <trkpt lat="43.21665" lon="5.48709">
        <ele>171.8</ele>
        <time>2025-10-18T09:28:06Z</time>
      </trkpt>
      <trkpt lat="43.21665" lon="5.4871">
        <ele>171.9</ele>
        <time>2025-10-18T09:28:07Z</time>
      </trkpt>
      <trkpt lat="43.21665" lon="5.4871">
        <ele>172.1</ele>
        <time>2025-10-18T09:28:08Z</time>
      </trkpt>
      <trkpt lat="43.21665" lon="5.4871">
        <ele>172.3</ele>
        <time>2025-10-18T09:28:09Z</time>
      </trkpt>
      <trkpt lat="43.21666" lon="5.4871">
        <ele>172.4</ele>
        <time>2025-10-18T09:28:10Z</time>
      </trkpt>
      <trkpt lat="43.21666" lon="5.4871">
        <ele>172.5</ele>
        <time>2025-10-18T09:28:11Z</time>
      </trkpt>
      <trkpt lat="43.21666" lon="5.4871">
        <ele>172.5</ele>
        <time>2025-10-18T09:28:12Z</time>
      </trkpt>
      <trkpt lat="43.21666" lon="5.4871">
        <ele>172.5</ele>
        <time>2025-10-18T09:28:13Z</time>
      </trkpt>
      <trkpt lat="43.21667" lon="5.48711">
        <ele>172.5</ele>
        <time>2025-10-18T09:28:14Z</time>
      </trkpt>
      <trkpt lat="43.21667" lon="5.48711">
        <ele>172.6</ele>
        <time>2025-10-18T09:28:15Z</time>
      </trkpt>
      <trkpt lat="43.21667" lon="5.48712">
        <ele>172.7</ele>
        <time>2025-10-18T09:28:16Z</time>
      </trkpt>
      <trkpt lat="43.21668" lon="5.48712">
        <ele>172.7</ele>
        <time>2025-10-18T09:28:17Z</time>
      </trkpt>
      <trkpt lat="43.21668" lon="5.48712">
        <ele>172.8</ele>
        <time>2025-10-18T09:28:18Z</time>
      </trkpt>
      <trkpt lat="43.21668" lon="5.48713">
        <ele>172.9</ele>
        <time>2025-10-18T09:28:19Z</time>
      </trkpt>
      <trkpt lat="43.21667" lon="5.48713">
        <ele>173.1</ele>
        <time>2025-10-18T09:28:20Z</time>
      </trkpt>
      <trkpt lat="43.21667" lon="5.48713">
        <ele>173.1</ele>
        <time>2025-10-18T09:28:21Z</time>
      </trkpt>
      <trkpt lat="43.21667" lon="5.48713">
        <ele>173.1</ele>
        <time>2025-10-18T09:28:22Z</time>
      </trkpt>
      <trkpt lat="43.21668" lon="5.48713">
        <ele>173.1</ele>
        <time>2025-10-18T09:28:23Z</time>
      </trkpt>
      <trkpt lat="43.21668" lon="5.48713">
        <ele>173.2</ele>
        <time>2025-10-18T09:28:24Z</time>
      </trkpt>
      <trkpt lat="43.21668" lon="5.48713">
        <ele>173.2</ele>
        <time>2025-10-18T09:28:25Z</time>
      </trkpt>
      <trkpt lat="43.21668" lon="5.48713">
        <ele>173.2</ele>
        <time>2025-10-18T09:28:26Z</time>
      </trkpt>
      <trkpt lat="43.21668" lon="5.48713">
        <ele>173.2</ele>
        <time>2025-10-18T09:28:27Z</time>
      </trkpt>
      <trkpt lat="43.21668" lon="5.48713">
        <ele>173.3</ele>
        <time>2025-10-18T09:28:28Z</time>
      </trkpt>
      <trkpt lat="43.21668" lon="5.48712">
        <ele>173.3</ele>
        <time>2025-10-18T09:28:29Z</time>
      </trkpt>
      <trkpt lat="43.21668" lon="5.48712">
        <ele>173.3</ele>
        <time>2025-10-18T09:28:30Z</time>
      </trkpt>
      <trkpt lat="43.21669" lon="5.48712">
        <ele>173.3</ele>
        <time>2025-10-18T09:28:31Z</time>
      </trkpt>
      <trkpt lat="43.21669" lon="5.48712">
        <ele>173.3</ele>
        <time>2025-10-18T09:28:32Z</time>
      </trkpt>
      <trkpt lat="43.21669" lon="5.48712">
        <ele>173.4</ele>
        <time>2025-10-18T09:28:33Z</time>
      </trkpt>
      <trkpt lat="43.21669" lon="5.48712">
        <ele>173.4</ele>
        <time>2025-10-18T09:28:34Z</time>
      </trkpt>
      <trkpt lat="43.21669" lon="5.48712">
        <ele>173.4</ele>
        <time>2025-10-18T09:28:35Z</time>
      </trkpt>
      <trkpt lat="43.21669" lon="5.48713">
        <ele>173.6</ele>
        <time>2025-10-18T09:28:36Z</time>
      </trkpt>
      <trkpt lat="43.21669" lon="5.48713">
        <ele>173.6</ele>
        <time>2025-10-18T09:28:37Z</time>
      </trkpt>
      <trkpt lat="43.21669" lon="5.48713">
        <ele>173.6</ele>
        <time>2025-10-18T09:28:38Z</time>
      </trkpt>
      <trkpt lat="43.21669" lon="5.48713">
        <ele>173.6</ele>
        <time>2025-10-18T09:28:39Z</time>
      </trkpt>
      <trkpt lat="43.21669" lon="5.48713">
        <ele>173.5</ele>
        <time>2025-10-18T09:28:40Z</time>
      </trkpt>
      <trkpt lat="43.21668" lon="5.48712">
        <ele>173.4</ele>
        <time>2025-10-18T09:28:41Z</time>
      </trkpt>
      <trkpt lat="43.21668" lon="5.48713">
        <ele>173.3</ele>
        <time>2025-10-18T09:28:42Z</time>
      </trkpt>
      <trkpt lat="43.21668" lon="5.48713">
        <ele>173.2</ele>
        <time>2025-10-18T09:28:43Z</time>
      </trkpt>
      <trkpt lat="43.21668" lon="5.48713">
        <ele>173.2</ele>
        <time>2025-10-18T09:28:44Z</time>
      </trkpt>
      <trkpt lat="43.21668" lon="5.48713">
        <ele>173.3</ele>
        <time>2025-10-18T09:28:45Z</time>
      </trkpt>
      <trkpt lat="43.21667" lon="5.48713">
        <ele>173.4</ele>
        <time>2025-10-18T09:28:46Z</time>
      </trkpt>
      <trkpt lat="43.21667" lon="5.48713">
        <ele>173.4</ele>
        <time>2025-10-18T09:28:47Z</time>
      </trkpt>
      <trkpt lat="43.21667" lon="5.48713">
        <ele>173.4</ele>
        <time>2025-10-18T09:28:48Z</time>
      </trkpt>
      <trkpt lat="43.21666" lon="5.48714">
        <ele>173.5</ele>
        <time>2025-10-18T09:28:49Z</time>
      </trkpt>
      <trkpt lat="43.21666" lon="5.48714">
        <ele>173.5</ele>
        <time>2025-10-18T09:28:50Z</time>
      </trkpt>
      <trkpt lat="43.21665" lon="5.48714">
        <ele>173.5</ele>
        <time>2025-10-18T09:28:51Z</time>
      </trkpt>
      <trkpt lat="43.21665" lon="5.48714">
        <ele>173.5</ele>
        <time>2025-10-18T09:28:52Z</time>
      </trkpt>
      <trkpt lat="43.21665" lon="5.48714">
        <ele>173.5</ele>
        <time>2025-10-18T09:28:53Z</time>
      </trkpt>
      <trkpt lat="43.21665" lon="5.48714">
        <ele>173.5</ele>
        <time>2025-10-18T09:28:54Z</time>
      </trkpt>
      <trkpt lat="43.21665" lon="5.48714">
        <ele>173.5</ele>
        <time>2025-10-18T09:28:55Z</time>
      </trkpt>
      <trkpt lat="43.21666" lon="5.48714">
        <ele>173.5</ele>
        <time>2025-10-18T09:28:56Z</time>
      </trkpt>
      <trkpt lat="43.21666" lon="5.48715">
        <ele>173.5</ele>
        <time>2025-10-18T09:28:57Z</time>
      </trkpt>
      <trkpt lat="43.21666" lon="5.48715">
        <ele>173.5</ele>
        <time>2025-10-18T09:28:58Z</time>
      </trkpt>
      <trkpt lat="43.21666" lon="5.48715">
        <ele>173.5</ele>
        <time>2025-10-18T09:28:59Z</time>
      </trkpt>
      <trkpt lat="43.21666" lon="5.48715">
        <ele>173.5</ele>
        <time>2025-10-18T09:29:00Z</time>
      </trkpt>
      <trkpt lat="43.21665" lon="5.48715">
        <ele>173.6</ele>
        <time>2025-10-18T09:29:01Z</time>
      </trkpt>
      <trkpt lat="43.21665" lon="5.48715">
        <ele>173.6</ele>
        <time>2025-10-18T09:29:02Z</time>
      </trkpt>
      <trkpt lat="43.21665" lon="5.48714">
        <ele>173.6</ele>
        <time>2025-10-18T09:29:03Z</time>
      </trkpt>
      <trkpt lat="43.21665" lon="5.48714">
        <ele>173.7</ele>
        <time>2025-10-18T09:29:04Z</time>
      </trkpt>
      <trkpt lat="43.21665" lon="5.48714">
        <ele>173.8</ele>
        <time>2025-10-18T09:29:05Z</time>
      </trkpt>
      <trkpt lat="43.21665" lon="5.48714">
        <ele>173.8</ele>
        <time>2025-10-18T09:29:06Z</time>
      </trkpt>
      <trkpt lat="43.21664" lon="5.48714">
        <ele>173.9</ele>
        <time>2025-10-18T09:29:07Z</time>
      </trkpt>
      <trkpt lat="43.21664" lon="5.48714">
        <ele>173.9</ele>
        <time>2025-10-18T09:29:08Z</time>
      </trkpt>
      <trkpt lat="43.21664" lon="5.48715">
        <ele>174</ele>
        <time>2025-10-18T09:29:09Z</time>
      </trkpt>
      <trkpt lat="43.21664" lon="5.48715">
        <ele>174.1</ele>
        <time>2025-10-18T09:29:10Z</time>
      </trkpt>
      <trkpt lat="43.21664" lon="5.48715">
        <ele>174.2</ele>
        <time>2025-10-18T09:29:11Z</time>
      </trkpt>
      <trkpt lat="43.21664" lon="5.48715">
        <ele>174.3</ele>
        <time>2025-10-18T09:29:12Z</time>
      </trkpt>
      <trkpt lat="43.21664" lon="5.48715">
        <ele>174.5</ele>
        <time>2025-10-18T09:29:13Z</time>
      </trkpt>
      <trkpt lat="43.21664" lon="5.48715">
        <ele>174.6</ele>
        <time>2025-10-18T09:29:14Z</time>
      </trkpt>
      <trkpt lat="43.21664" lon="5.48715">
        <ele>174.6</ele>
        <time>2025-10-18T09:29:15Z</time>
      </trkpt>
      <trkpt lat="43.21664" lon="5.48715">
        <ele>174.7</ele>
        <time>2025-10-18T09:29:16Z</time>
      </trkpt>
      <trkpt lat="43.21664" lon="5.48714">
        <ele>174.6</ele>
        <time>2025-10-18T09:29:17Z</time>
      </trkpt>
      <trkpt lat="43.21664" lon="5.48714">
        <ele>174.7</ele>
        <time>2025-10-18T09:29:18Z</time>
      </trkpt>
      <trkpt lat="43.21664" lon="5.48714">
        <ele>174.7</ele>
        <time>2025-10-18T09:29:19Z</time>
      </trkpt>
      <trkpt lat="43.21664" lon="5.48714">
        <ele>174.7</ele>
        <time>2025-10-18T09:29:20Z</time>
      </trkpt>
      <trkpt lat="43.21664" lon="5.48714">
        <ele>174.7</ele>
        <time>2025-10-18T09:29:21Z</time>
      </trkpt>
      <trkpt lat="43.21664" lon="5.48714">
        <ele>174.7</ele>
        <time>2025-10-18T09:29:22Z</time>
      </trkpt>
      <trkpt lat="43.21664" lon="5.48714">
        <ele>174.7</ele>
        <time>2025-10-18T09:29:23Z</time>
      </trkpt>
      <trkpt lat="43.21664" lon="5.48714">
        <ele>174.7</ele>
        <time>2025-10-18T09:29:24Z</time>
      </trkpt>
      <trkpt lat="43.21663" lon="5.48714">
        <ele>174.7</ele>
        <time>2025-10-18T09:29:25Z</time>
      </trkpt>
      <trkpt lat="43.21663" lon="5.48714">
        <ele>174.7</ele>
        <time>2025-10-18T09:29:26Z</time>
      </trkpt>
      <trkpt lat="43.21663" lon="5.48714">
        <ele>174.7</ele>
        <time>2025-10-18T09:29:27Z</time>
      </trkpt>
      <trkpt lat="43.21663" lon="5.48714">
        <ele>174.7</ele>
        <time>2025-10-18T09:29:28Z</time>
      </trkpt>
      <trkpt lat="43.21663" lon="5.48714">
        <ele>174.7</ele>
        <time>2025-10-18T09:29:29Z</time>
      </trkpt>
      <trkpt lat="43.21663" lon="5.48714">
        <ele>174.8</ele>
        <time>2025-10-18T09:29:30Z</time>
      </trkpt>
      <trkpt lat="43.21663" lon="5.48714">
        <ele>174.8</ele>
        <time>2025-10-18T09:29:31Z</time>
      </trkpt>
      <trkpt lat="43.21663" lon="5.48714">
        <ele>174.8</ele>
        <time>2025-10-18T09:29:32Z</time>
      </trkpt>
      <trkpt lat="43.21663" lon="5.48715">
        <ele>174.8</ele>
        <time>2025-10-18T09:29:33Z</time>
      </trkpt>
      <trkpt lat="43.21663" lon="5.48714">
        <ele>174.9</ele>
        <time>2025-10-18T09:29:34Z</time>
      </trkpt>
      <trkpt lat="43.21663" lon="5.48714">
        <ele>174.9</ele>
        <time>2025-10-18T09:29:35Z</time>
      </trkpt>
      <trkpt lat="43.21663" lon="5.48714">
        <ele>174.9</ele>
        <time>2025-10-18T09:29:36Z</time>
      </trkpt>
      <trkpt lat="43.21663" lon="5.48715">
        <ele>174.8</ele>
        <time>2025-10-18T09:29:37Z</time>
      </trkpt>
      <trkpt lat="43.21663" lon="5.48715">
        <ele>174.8</ele>
        <time>2025-10-18T09:29:38Z</time>
      </trkpt>
      <trkpt lat="43.21663" lon="5.48715">
        <ele>174.8</ele>
        <time>2025-10-18T09:29:39Z</time>
      </trkpt>
      <trkpt lat="43.21663" lon="5.48715">
        <ele>174.7</ele>
        <time>2025-10-18T09:29:40Z</time>
      </trkpt>
      <trkpt lat="43.21663" lon="5.48715">
        <ele>174.7</ele>
        <time>2025-10-18T09:29:41Z</time>
      </trkpt>
      <trkpt lat="43.21663" lon="5.48715">
        <ele>174.7</ele>
        <time>2025-10-18T09:29:42Z</time>
      </trkpt>
      <trkpt lat="43.21663" lon="5.48715">
        <ele>174.7</ele>
        <time>2025-10-18T09:29:43Z</time>
      </trkpt>
      <trkpt lat="43.21663" lon="5.48715">
        <ele>174.7</ele>
        <time>2025-10-18T09:29:44Z</time>
      </trkpt>
      <trkpt lat="43.21663" lon="5.48715">
        <ele>174.7</ele>
        <time>2025-10-18T09:29:45Z</time>
      </trkpt>
      <trkpt lat="43.21663" lon="5.48716">
        <ele>174.7</ele>
        <time>2025-10-18T09:29:46Z</time>
      </trkpt>
      <trkpt lat="43.21663" lon="5.48716">
        <ele>174.7</ele>
        <time>2025-10-18T09:29:47Z</time>
      </trkpt>
      <trkpt lat="43.21663" lon="5.48715">
        <ele>174.6</ele>
        <time>2025-10-18T09:29:48Z</time>
      </trkpt>
      <trkpt lat="43.21663" lon="5.48715">
        <ele>174.6</ele>
        <time>2025-10-18T09:29:49Z</time>
      </trkpt>
      <trkpt lat="43.21663" lon="5.48715">
        <ele>174.6</ele>
        <time>2025-10-18T09:29:50Z</time>
      </trkpt>
      <trkpt lat="43.21663" lon="5.48715">
        <ele>174.6</ele>
        <time>2025-10-18T09:29:51Z</time>
      </trkpt>
      <trkpt lat="43.21664" lon="5.48715">
        <ele>174.6</ele>
        <time>2025-10-18T09:29:52Z</time>
      </trkpt>
      <trkpt lat="43.21664" lon="5.48715">
        <ele>174.5</ele>
        <time>2025-10-18T09:29:53Z</time>
      </trkpt>
      <trkpt lat="43.21664" lon="5.48714">
        <ele>174.4</ele>
        <time>2025-10-18T09:29:54Z</time>
      </trkpt>
      <trkpt lat="43.21665" lon="5.48714">
        <ele>174.3</ele>
        <time>2025-10-18T09:29:55Z</time>
      </trkpt>
      <trkpt lat="43.21665" lon="5.48714">
        <ele>174.1</ele>
        <time>2025-10-18T09:29:56Z</time>
      </trkpt>
      <trkpt lat="43.21665" lon="5.48715">
        <ele>174.1</ele>
        <time>2025-10-18T09:29:57Z</time>
      </trkpt>
      <trkpt lat="43.21666" lon="5.48715">
        <ele>174.1</ele>
        <time>2025-10-18T09:29:58Z</time>
      </trkpt>
      <trkpt lat="43.21667" lon="5.48715">
        <ele>174.1</ele>
        <time>2025-10-18T09:29:59Z</time>
      </trkpt>
      <trkpt lat="43.21667" lon="5.48715">
        <ele>174.1</ele>
        <time>2025-10-18T09:30:00Z</time>
      </trkpt>
      <trkpt lat="43.21667" lon="5.48715">
        <ele>174.1</ele>
        <time>2025-10-18T09:30:01Z</time>
      </trkpt>
      <trkpt lat="43.21668" lon="5.48715">
        <ele>174</ele>
        <time>2025-10-18T09:30:02Z</time>
      </trkpt>
      <trkpt lat="43.21668" lon="5.48715">
        <ele>174</ele>
        <time>2025-10-18T09:30:03Z</time>
      </trkpt>
      <trkpt lat="43.21669" lon="5.48715">
        <ele>174</ele>
        <time>2025-10-18T09:30:04Z</time>
      </trkpt>
      <trkpt lat="43.21669" lon="5.48714">
        <ele>174</ele>
        <time>2025-10-18T09:30:05Z</time>
      </trkpt>
      <trkpt lat="43.21669" lon="5.48715">
        <ele>174</ele>
        <time>2025-10-18T09:30:06Z</time>
      </trkpt>
      <trkpt lat="43.2167" lon="5.48715">
        <ele>174.1</ele>
        <time>2025-10-18T09:30:07Z</time>
      </trkpt>
      <trkpt lat="43.21671" lon="5.48715">
        <ele>174.1</ele>
        <time>2025-10-18T09:30:08Z</time>
      </trkpt>
      <trkpt lat="43.2167" lon="5.48715">
        <ele>174.1</ele>
        <time>2025-10-18T09:30:09Z</time>
      </trkpt>
      <trkpt lat="43.21671" lon="5.48715">
        <ele>174.1</ele>
        <time>2025-10-18T09:30:10Z</time>
      </trkpt>
      <trkpt lat="43.21671" lon="5.48715">
        <ele>174</ele>
        <time>2025-10-18T09:30:11Z</time>
      </trkpt>
      <trkpt lat="43.21672" lon="5.48715">
        <ele>174</ele>
        <time>2025-10-18T09:30:12Z</time>
      </trkpt>
      <trkpt lat="43.21672" lon="5.48715">
        <ele>174</ele>
        <time>2025-10-18T09:30:13Z</time>
      </trkpt>
      <trkpt lat="43.21673" lon="5.48714">
        <ele>174</ele>
        <time>2025-10-18T09:30:14Z</time>
      </trkpt>
      <trkpt lat="43.21673" lon="5.48713">
        <ele>174</ele>
        <time>2025-10-18T09:30:15Z</time>
      </trkpt>
      <trkpt lat="43.21673" lon="5.48712">
        <ele>174</ele>
        <time>2025-10-18T09:30:16Z</time>
      </trkpt>
      <trkpt lat="43.21673" lon="5.48711">
        <ele>174</ele>
        <time>2025-10-18T09:30:17Z</time>
      </trkpt>
      <trkpt lat="43.21674" lon="5.4871">
        <ele>174.1</ele>
        <time>2025-10-18T09:30:18Z</time>
      </trkpt>
      <trkpt lat="43.21674" lon="5.4871">
        <ele>174.2</ele>
        <time>2025-10-18T09:30:19Z</time>
      </trkpt>
      <trkpt lat="43.21674" lon="5.4871">
        <ele>174.3</ele>
        <time>2025-10-18T09:30:20Z</time>
      </trkpt>
      <trkpt lat="43.21674" lon="5.4871">
        <ele>174.4</ele>
        <time>2025-10-18T09:30:21Z</time>
      </trkpt>
      <trkpt lat="43.21675" lon="5.4871">
        <ele>174.5</ele>
        <time>2025-10-18T09:30:22Z</time>
      </trkpt>
      <trkpt lat="43.21675" lon="5.4871">
        <ele>174.6</ele>
        <time>2025-10-18T09:30:23Z</time>
      </trkpt>
      <trkpt lat="43.21676" lon="5.4871">
        <ele>174.7</ele>
        <time>2025-10-18T09:30:24Z</time>
      </trkpt>
      <trkpt lat="43.21677" lon="5.4871">
        <ele>174.7</ele>
        <time>2025-10-18T09:30:25Z</time>
      </trkpt>
      <trkpt lat="43.21678" lon="5.48709">
        <ele>175</ele>
        <time>2025-10-18T09:30:26Z</time>
      </trkpt>
      <trkpt lat="43.21678" lon="5.48709">
        <ele>175.1</ele>
        <time>2025-10-18T09:30:27Z</time>
      </trkpt>
      <trkpt lat="43.21679" lon="5.48708">
        <ele>175.2</ele>
        <time>2025-10-18T09:30:28Z</time>
      </trkpt>
      <trkpt lat="43.21679" lon="5.48708">
        <ele>175.2</ele>
        <time>2025-10-18T09:30:29Z</time>
      </trkpt>
      <trkpt lat="43.21679" lon="5.48708">
        <ele>175.4</ele>
        <time>2025-10-18T09:30:30Z</time>
      </trkpt>
      <trkpt lat="43.2168" lon="5.48708">
        <ele>175.5</ele>
        <time>2025-10-18T09:30:31Z</time>
      </trkpt>
      <trkpt lat="43.2168" lon="5.48708">
        <ele>175.7</ele>
        <time>2025-10-18T09:30:32Z</time>
      </trkpt>
      <trkpt lat="43.21681" lon="5.48709">
        <ele>175.8</ele>
        <time>2025-10-18T09:30:33Z</time>
      </trkpt>
      <trkpt lat="43.21681" lon="5.48708">
        <ele>176</ele>
        <time>2025-10-18T09:30:34Z</time>
      </trkpt>
      <trkpt lat="43.21682" lon="5.48708">
        <ele>176.1</ele>
        <time>2025-10-18T09:30:35Z</time>
      </trkpt>
      <trkpt lat="43.21682" lon="5.48708">
        <ele>176.3</ele>
        <time>2025-10-18T09:30:36Z</time>
      </trkpt>
      <trkpt lat="43.21683" lon="5.48709">
        <ele>176.5</ele>
        <time>2025-10-18T09:30:37Z</time>
      </trkpt>
      <trkpt lat="43.21683" lon="5.48709">
        <ele>176.7</ele>
        <time>2025-10-18T09:30:38Z</time>
      </trkpt>
      <trkpt lat="43.21683" lon="5.48709">
        <ele>176.8</ele>
        <time>2025-10-18T09:30:39Z</time>
      </trkpt>
      <trkpt lat="43.21684" lon="5.48709">
        <ele>176.9</ele>
        <time>2025-10-18T09:30:40Z</time>
      </trkpt>
      <trkpt lat="43.21684" lon="5.48709">
        <ele>177</ele>
        <time>2025-10-18T09:30:41Z</time>
      </trkpt>
      <trkpt lat="43.21684" lon="5.4871">
        <ele>177.3</ele>
        <time>2025-10-18T09:30:42Z</time>
      </trkpt>
      <trkpt lat="43.21684" lon="5.4871">
        <ele>177.4</ele>
        <time>2025-10-18T09:30:43Z</time>
      </trkpt>
      <trkpt lat="43.21684" lon="5.48711">
        <ele>177.6</ele>
        <time>2025-10-18T09:30:44Z</time>
      </trkpt>
      <trkpt lat="43.21684" lon="5.48711">
        <ele>177.7</ele>
        <time>2025-10-18T09:30:45Z</time>
      </trkpt>
      <trkpt lat="43.21684" lon="5.48712">
        <ele>177.9</ele>
        <time>2025-10-18T09:30:46Z</time>
      </trkpt>
      <trkpt lat="43.21685" lon="5.48712">
        <ele>178</ele>
        <time>2025-10-18T09:30:47Z</time>
      </trkpt>
      <trkpt lat="43.21685" lon="5.48712">
        <ele>178.2</ele>
        <time>2025-10-18T09:30:48Z</time>
      </trkpt>
      <trkpt lat="43.21686" lon="5.48712">
        <ele>178.3</ele>
        <time>2025-10-18T09:30:49Z</time>
      </trkpt>
      <trkpt lat="43.21688" lon="5.48711">
        <ele>178.5</ele>
        <time>2025-10-18T09:30:50Z</time>
      </trkpt>
      <trkpt lat="43.2169" lon="5.48709">
        <ele>178.6</ele>
        <time>2025-10-18T09:30:51Z</time>
      </trkpt>
      <trkpt lat="43.21691" lon="5.48708">
        <ele>178.7</ele>
        <time>2025-10-18T09:30:52Z</time>
      </trkpt>
      <trkpt lat="43.21691" lon="5.48708">
        <ele>178.9</ele>
        <time>2025-10-18T09:30:53Z</time>
      </trkpt>
      <trkpt lat="43.21691" lon="5.48707">
        <ele>179.1</ele>
        <time>2025-10-18T09:30:54Z</time>
      </trkpt>
      <trkpt lat="43.21692" lon="5.48707">
        <ele>179.2</ele>
        <time>2025-10-18T09:30:55Z</time>
      </trkpt>
      <trkpt lat="43.21693" lon="5.48707">
        <ele>179.2</ele>
        <time>2025-10-18T09:30:56Z</time>
      </trkpt>
      <trkpt lat="43.21693" lon="5.48707">
        <ele>179.2</ele>
        <time>2025-10-18T09:30:57Z</time>
      </trkpt>
      <trkpt lat="43.21694" lon="5.48707">
        <ele>179.2</ele>
        <time>2025-10-18T09:30:58Z</time>
      </trkpt>
      <trkpt lat="43.21694" lon="5.48708">
        <ele>179.2</ele>
        <time>2025-10-18T09:30:59Z</time>
      </trkpt>
      <trkpt lat="43.21694" lon="5.48708">
        <ele>179.2</ele>
        <time>2025-10-18T09:31:00Z</time>
      </trkpt>
      <trkpt lat="43.21695" lon="5.48708">
        <ele>179.3</ele>
        <time>2025-10-18T09:31:01Z</time>
      </trkpt>
      <trkpt lat="43.21694" lon="5.48709">
        <ele>179.3</ele>
        <time>2025-10-18T09:31:02Z</time>
      </trkpt>
      <trkpt lat="43.21695" lon="5.48709">
        <ele>179.3</ele>
        <time>2025-10-18T09:31:03Z</time>
      </trkpt>
      <trkpt lat="43.21695" lon="5.4871">
        <ele>179.4</ele>
        <time>2025-10-18T09:31:04Z</time>
      </trkpt>
      <trkpt lat="43.21696" lon="5.4871">
        <ele>179.4</ele>
        <time>2025-10-18T09:31:05Z</time>
      </trkpt>
      <trkpt lat="43.21695" lon="5.48711">
        <ele>179.4</ele>
        <time>2025-10-18T09:31:06Z</time>
      </trkpt>
      <trkpt lat="43.21695" lon="5.48712">
        <ele>179.4</ele>
        <time>2025-10-18T09:31:07Z</time>
      </trkpt>
      <trkpt lat="43.21695" lon="5.48712">
        <ele>179.4</ele>
        <time>2025-10-18T09:31:08Z</time>
      </trkpt>
      <trkpt lat="43.21696" lon="5.48712">
        <ele>179.3</ele>
        <time>2025-10-18T09:31:09Z</time>
      </trkpt>
      <trkpt lat="43.21697" lon="5.48712">
        <ele>179.4</ele>
        <time>2025-10-18T09:31:10Z</time>
      </trkpt>
      <trkpt lat="43.21698" lon="5.48712">
        <ele>179.5</ele>
        <time>2025-10-18T09:31:11Z</time>
      </trkpt>
      <trkpt lat="43.21699" lon="5.48713">
        <ele>179.6</ele>
        <time>2025-10-18T09:31:12Z</time>
      </trkpt>
      <trkpt lat="43.21699" lon="5.48713">
        <ele>179.6</ele>
        <time>2025-10-18T09:31:13Z</time>
      </trkpt>
      <trkpt lat="43.217" lon="5.48713">
        <ele>179.7</ele>
        <time>2025-10-18T09:31:14Z</time>
      </trkpt>
      <trkpt lat="43.21701" lon="5.48714">
        <ele>179.8</ele>
        <time>2025-10-18T09:31:15Z</time>
      </trkpt>
      <trkpt lat="43.21701" lon="5.48715">
        <ele>180</ele>
        <time>2025-10-18T09:31:16Z</time>
      </trkpt>
      <trkpt lat="43.21701" lon="5.48715">
        <ele>180.2</ele>
        <time>2025-10-18T09:31:17Z</time>
      </trkpt>
      <trkpt lat="43.21702" lon="5.48715">
        <ele>180.3</ele>
        <time>2025-10-18T09:31:18Z</time>
      </trkpt>
      <trkpt lat="43.21704" lon="5.48716">
        <ele>180.1</ele>
        <time>2025-10-18T09:31:19Z</time>
      </trkpt>
      <trkpt lat="43.21705" lon="5.48715">
        <ele>180.4</ele>
        <time>2025-10-18T09:31:20Z</time>
      </trkpt>
      <trkpt lat="43.21706" lon="5.48715">
        <ele>180.5</ele>
        <time>2025-10-18T09:31:21Z</time>
      </trkpt>
      <trkpt lat="43.21707" lon="5.48715">
        <ele>180.7</ele>
        <time>2025-10-18T09:31:22Z</time>
      </trkpt>
      <trkpt lat="43.21707" lon="5.48717">
        <ele>180.9</ele>
        <time>2025-10-18T09:31:23Z</time>
      </trkpt>
      <trkpt lat="43.21708" lon="5.48718">
        <ele>181.1</ele>
        <time>2025-10-18T09:31:24Z</time>
      </trkpt>
      <trkpt lat="43.21708" lon="5.48718">
        <ele>181.3</ele>
        <time>2025-10-18T09:31:25Z</time>
      </trkpt>
      <trkpt lat="43.21709" lon="5.48718">
        <ele>181.5</ele>
        <time>2025-10-18T09:31:26Z</time>
      </trkpt>
      <trkpt lat="43.21709" lon="5.48718">
        <ele>181.7</ele>
        <time>2025-10-18T09:31:27Z</time>
      </trkpt>
      <trkpt lat="43.2171" lon="5.4872">
        <ele>181.8</ele>
        <time>2025-10-18T09:31:28Z</time>
      </trkpt>
      <trkpt lat="43.21711" lon="5.48721">
        <ele>181.8</ele>
        <time>2025-10-18T09:31:29Z</time>
      </trkpt>
      <trkpt lat="43.21712" lon="5.48721">
        <ele>181.9</ele>
        <time>2025-10-18T09:31:30Z</time>
      </trkpt>
      <trkpt lat="43.21712" lon="5.48722">
        <ele>182</ele>
        <time>2025-10-18T09:31:31Z</time>
      </trkpt>
      <trkpt lat="43.21713" lon="5.48722">
        <ele>182</ele>
        <time>2025-10-18T09:31:32Z</time>
      </trkpt>
      <trkpt lat="43.21713" lon="5.48723">
        <ele>182.1</ele>
        <time>2025-10-18T09:31:33Z</time>
      </trkpt>
      <trkpt lat="43.21713" lon="5.48723">
        <ele>182.2</ele>
        <time>2025-10-18T09:31:34Z</time>
      </trkpt>
      <trkpt lat="43.21714" lon="5.48724">
        <ele>182.3</ele>
        <time>2025-10-18T09:31:35Z</time>
      </trkpt>
      <trkpt lat="43.21714" lon="5.48724">
        <ele>182.4</ele>
        <time>2025-10-18T09:31:36Z</time>
      </trkpt>
      <trkpt lat="43.21714" lon="5.48724">
        <ele>182.5</ele>
        <time>2025-10-18T09:31:37Z</time>
      </trkpt>
      <trkpt lat="43.21715" lon="5.48724">
        <ele>182.5</ele>
        <time>2025-10-18T09:31:38Z</time>
      </trkpt>
      <trkpt lat="43.21715" lon="5.48723">
        <ele>182.5</ele>
        <time>2025-10-18T09:31:39Z</time>
      </trkpt>
      <trkpt lat="43.21716" lon="5.48722">
        <ele>182.6</ele>
        <time>2025-10-18T09:31:40Z</time>
      </trkpt>
      <trkpt lat="43.21717" lon="5.48721">
        <ele>182.7</ele>
        <time>2025-10-18T09:31:41Z</time>
      </trkpt>
      <trkpt lat="43.21717" lon="5.48721">
        <ele>182.8</ele>
        <time>2025-10-18T09:31:42Z</time>
      </trkpt>
      <trkpt lat="43.21717" lon="5.4872">
        <ele>182.8</ele>
        <time>2025-10-18T09:31:43Z</time>
      </trkpt>
      <trkpt lat="43.21718" lon="5.48719">
        <ele>182.8</ele>
        <time>2025-10-18T09:31:44Z</time>
      </trkpt>
      <trkpt lat="43.21719" lon="5.48719">
        <ele>182.8</ele>
        <time>2025-10-18T09:31:45Z</time>
      </trkpt>
      <trkpt lat="43.21719" lon="5.48718">
        <ele>182.8</ele>
        <time>2025-10-18T09:31:46Z</time>
      </trkpt>
      <trkpt lat="43.2172" lon="5.48718">
        <ele>182.8</ele>
        <time>2025-10-18T09:31:47Z</time>
      </trkpt>
      <trkpt lat="43.2172" lon="5.48718">
        <ele>182.8</ele>
        <time>2025-10-18T09:31:48Z</time>
      </trkpt>
      <trkpt lat="43.2172" lon="5.48717">
        <ele>182.8</ele>
        <time>2025-10-18T09:31:49Z</time>
      </trkpt>
      <trkpt lat="43.2172" lon="5.48717">
        <ele>182.7</ele>
        <time>2025-10-18T09:31:50Z</time>
      </trkpt>
      <trkpt lat="43.2172" lon="5.48717">
        <ele>182.7</ele>
        <time>2025-10-18T09:31:51Z</time>
      </trkpt>
      <trkpt lat="43.2172" lon="5.48717">
        <ele>182.7</ele>
        <time>2025-10-18T09:31:52Z</time>
      </trkpt>
      <trkpt lat="43.2172" lon="5.48716">
        <ele>182.7</ele>
        <time>2025-10-18T09:31:53Z</time>
      </trkpt>
      <trkpt lat="43.2172" lon="5.48716">
        <ele>182.7</ele>
        <time>2025-10-18T09:31:54Z</time>
      </trkpt>
      <trkpt lat="43.21721" lon="5.48716">
        <ele>182.7</ele>
        <time>2025-10-18T09:31:55Z</time>
      </trkpt>
      <trkpt lat="43.21721" lon="5.48716">
        <ele>182.7</ele>
        <time>2025-10-18T09:31:56Z</time>
      </trkpt>
      <trkpt lat="43.21721" lon="5.48716">
        <ele>182.7</ele>
        <time>2025-10-18T09:31:57Z</time>
      </trkpt>
      <trkpt lat="43.21721" lon="5.48716">
        <ele>182.8</ele>
        <time>2025-10-18T09:31:58Z</time>
      </trkpt>
      <trkpt lat="43.21721" lon="5.48716">
        <ele>182.8</ele>
        <time>2025-10-18T09:31:59Z</time>
      </trkpt>
      <trkpt lat="43.21721" lon="5.48715">
        <ele>182.7</ele>
        <time>2025-10-18T09:32:00Z</time>
      </trkpt>
      <trkpt lat="43.21721" lon="5.48715">
        <ele>182.7</ele>
        <time>2025-10-18T09:32:01Z</time>
      </trkpt>
      <trkpt lat="43.21721" lon="5.48715">
        <ele>182.6</ele>
        <time>2025-10-18T09:32:02Z</time>
      </trkpt>
      <trkpt lat="43.21721" lon="5.48715">
        <ele>182.6</ele>
        <time>2025-10-18T09:32:03Z</time>
      </trkpt>
      <trkpt lat="43.21721" lon="5.48715">
        <ele>182.6</ele>
        <time>2025-10-18T09:32:04Z</time>
      </trkpt>
      <trkpt lat="43.21721" lon="5.48715">
        <ele>182.5</ele>
        <time>2025-10-18T09:32:05Z</time>
      </trkpt>
      <trkpt lat="43.21721" lon="5.48715">
        <ele>182.6</ele>
        <time>2025-10-18T09:32:06Z</time>
      </trkpt>
      <trkpt lat="43.21721" lon="5.48716">
        <ele>182.6</ele>
        <time>2025-10-18T09:32:07Z</time>
      </trkpt>
      <trkpt lat="43.21722" lon="5.48716">
        <ele>182.6</ele>
        <time>2025-10-18T09:32:08Z</time>
      </trkpt>
      <trkpt lat="43.21722" lon="5.48716">
        <ele>182.6</ele>
        <time>2025-10-18T09:32:09Z</time>
      </trkpt>
      <trkpt lat="43.21722" lon="5.48717">
        <ele>182.5</ele>
        <time>2025-10-18T09:32:10Z</time>
      </trkpt>
      <trkpt lat="43.21722" lon="5.48716">
        <ele>182.5</ele>
        <time>2025-10-18T09:32:11Z</time>
      </trkpt>
      <trkpt lat="43.21722" lon="5.48716">
        <ele>182.5</ele>
        <time>2025-10-18T09:32:12Z</time>
      </trkpt>
      <trkpt lat="43.21722" lon="5.48716">
        <ele>182.5</ele>
        <time>2025-10-18T09:32:13Z</time>
      </trkpt>
      <trkpt lat="43.21722" lon="5.48716">
        <ele>182.5</ele>
        <time>2025-10-18T09:32:14Z</time>
      </trkpt>
      <trkpt lat="43.21722" lon="5.48716">
        <ele>182.5</ele>
        <time>2025-10-18T09:32:15Z</time>
      </trkpt>
      <trkpt lat="43.21722" lon="5.48716">
        <ele>182.4</ele>
        <time>2025-10-18T09:32:16Z</time>
      </trkpt>
      <trkpt lat="43.21722" lon="5.48716">
        <ele>182.4</ele>
        <time>2025-10-18T09:32:17Z</time>
      </trkpt>
      <trkpt lat="43.21722" lon="5.48716">
        <ele>182.4</ele>
        <time>2025-10-18T09:32:18Z</time>
      </trkpt>
      <trkpt lat="43.21722" lon="5.48717">
        <ele>182.4</ele>
        <time>2025-10-18T09:32:19Z</time>
      </trkpt>
      <trkpt lat="43.21721" lon="5.48717">
        <ele>182.4</ele>
        <time>2025-10-18T09:32:20Z</time>
      </trkpt>
      <trkpt lat="43.21721" lon="5.48717">
        <ele>182.4</ele>
        <time>2025-10-18T09:32:21Z</time>
      </trkpt>
      <trkpt lat="43.21721" lon="5.48717">
        <ele>182.4</ele>
        <time>2025-10-18T09:32:22Z</time>
      </trkpt>
      <trkpt lat="43.21721" lon="5.48717">
        <ele>182.4</ele>
        <time>2025-10-18T09:32:23Z</time>
      </trkpt>
      <trkpt lat="43.21721" lon="5.48718">
        <ele>182.3</ele>
        <time>2025-10-18T09:32:24Z</time>
      </trkpt>
      <trkpt lat="43.2172" lon="5.48718">
        <ele>182.3</ele>
        <time>2025-10-18T09:32:25Z</time>
      </trkpt>
      <trkpt lat="43.2172" lon="5.48718">
        <ele>182.4</ele>
        <time>2025-10-18T09:32:26Z</time>
      </trkpt>
      <trkpt lat="43.2172" lon="5.48718">
        <ele>182.4</ele>
        <time>2025-10-18T09:32:27Z</time>
      </trkpt>
      <trkpt lat="43.2172" lon="5.48718">
        <ele>182.4</ele>
        <time>2025-10-18T09:32:28Z</time>
      </trkpt>
      <trkpt lat="43.2172" lon="5.48718">
        <ele>182.4</ele>
        <time>2025-10-18T09:32:29Z</time>
      </trkpt>
      <trkpt lat="43.2172" lon="5.48718">
        <ele>182.4</ele>
        <time>2025-10-18T09:32:30Z</time>
      </trkpt>
      <trkpt lat="43.2172" lon="5.48717">
        <ele>182.4</ele>
        <time>2025-10-18T09:32:31Z</time>
      </trkpt>
      <trkpt lat="43.2172" lon="5.48717">
        <ele>182.4</ele>
        <time>2025-10-18T09:32:32Z</time>
      </trkpt>
      <trkpt lat="43.2172" lon="5.48718">
        <ele>182.4</ele>
        <time>2025-10-18T09:32:33Z</time>
      </trkpt>
      <trkpt lat="43.2172" lon="5.48717">
        <ele>182.4</ele>
        <time>2025-10-18T09:32:34Z</time>
      </trkpt>
      <trkpt lat="43.2172" lon="5.48717">
        <ele>182.2</ele>
        <time>2025-10-18T09:32:35Z</time>
      </trkpt>
      <trkpt lat="43.2172" lon="5.48717">
        <ele>182.2</ele>
        <time>2025-10-18T09:32:36Z</time>
      </trkpt>
      <trkpt lat="43.2172" lon="5.48718">
        <ele>182.3</ele>
        <time>2025-10-18T09:32:37Z</time>
      </trkpt>
      <trkpt lat="43.2172" lon="5.48718">
        <ele>182.3</ele>
        <time>2025-10-18T09:32:38Z</time>
      </trkpt>
      <trkpt lat="43.21721" lon="5.48718">
        <ele>182.3</ele>
        <time>2025-10-18T09:32:39Z</time>
      </trkpt>
      <trkpt lat="43.21721" lon="5.48718">
        <ele>182.3</ele>
        <time>2025-10-18T09:32:40Z</time>
      </trkpt>
      <trkpt lat="43.21721" lon="5.48718">
        <ele>182.3</ele>
        <time>2025-10-18T09:32:41Z</time>
      </trkpt>
      <trkpt lat="43.21721" lon="5.48718">
        <ele>182.3</ele>
        <time>2025-10-18T09:32:42Z</time>
      </trkpt>
      <trkpt lat="43.21721" lon="5.48717">
        <ele>182.4</ele>
        <time>2025-10-18T09:32:43Z</time>
      </trkpt>
      <trkpt lat="43.21721" lon="5.48718">
        <ele>182.5</ele>
        <time>2025-10-18T09:32:44Z</time>
      </trkpt>
      <trkpt lat="43.21722" lon="5.48718">
        <ele>182.5</ele>
        <time>2025-10-18T09:32:45Z</time>
      </trkpt>
      <trkpt lat="43.21722" lon="5.48718">
        <ele>182.6</ele>
        <time>2025-10-18T09:32:46Z</time>
      </trkpt>
      <trkpt lat="43.21723" lon="5.48718">
        <ele>182.6</ele>
        <time>2025-10-18T09:32:47Z</time>
      </trkpt>
      <trkpt lat="43.21723" lon="5.48719">
        <ele>182.7</ele>
        <time>2025-10-18T09:32:48Z</time>
      </trkpt>
      <trkpt lat="43.21723" lon="5.48719">
        <ele>182.8</ele>
        <time>2025-10-18T09:32:49Z</time>
      </trkpt>
      <trkpt lat="43.21724" lon="5.48719">
        <ele>182.9</ele>
        <time>2025-10-18T09:32:50Z</time>
      </trkpt>
      <trkpt lat="43.21724" lon="5.4872">
        <ele>183</ele>
        <time>2025-10-18T09:32:51Z</time>
      </trkpt>
      <trkpt lat="43.21725" lon="5.4872">
        <ele>183.1</ele>
        <time>2025-10-18T09:32:52Z</time>
      </trkpt>
      <trkpt lat="43.21725" lon="5.4872">
        <ele>183.2</ele>
        <time>2025-10-18T09:32:53Z</time>
      </trkpt>
      <trkpt lat="43.21726" lon="5.4872">
        <ele>183.3</ele>
        <time>2025-10-18T09:32:54Z</time>
      </trkpt>
      <trkpt lat="43.21726" lon="5.48721">
        <ele>183.5</ele>
        <time>2025-10-18T09:32:55Z</time>
      </trkpt>
      <trkpt lat="43.21726" lon="5.48722">
        <ele>183.6</ele>
        <time>2025-10-18T09:32:56Z</time>
      </trkpt>
      <trkpt lat="43.21727" lon="5.48722">
        <ele>183.8</ele>
        <time>2025-10-18T09:32:57Z</time>
      </trkpt>
      <trkpt lat="43.21727" lon="5.48722">
        <ele>184</ele>
        <time>2025-10-18T09:32:58Z</time>
      </trkpt>
      <trkpt lat="43.21728" lon="5.48722">
        <ele>184.1</ele>
        <time>2025-10-18T09:32:59Z</time>
      </trkpt>
      <trkpt lat="43.21729" lon="5.48723">
        <ele>184.3</ele>
        <time>2025-10-18T09:33:00Z</time>
      </trkpt>
      <trkpt lat="43.21729" lon="5.48723">
        <ele>184.4</ele>
        <time>2025-10-18T09:33:01Z</time>
      </trkpt>
      <trkpt lat="43.2173" lon="5.48723">
        <ele>184.6</ele>
        <time>2025-10-18T09:33:02Z</time>
      </trkpt>
      <trkpt lat="43.2173" lon="5.48723">
        <ele>184.7</ele>
        <time>2025-10-18T09:33:03Z</time>
      </trkpt>
      <trkpt lat="43.21731" lon="5.48723">
        <ele>184.8</ele>
        <time>2025-10-18T09:33:04Z</time>
      </trkpt>
      <trkpt lat="43.21731" lon="5.48724">
        <ele>185</ele>
        <time>2025-10-18T09:33:05Z</time>
      </trkpt>
      <trkpt lat="43.21732" lon="5.48724">
        <ele>185.1</ele>
        <time>2025-10-18T09:33:06Z</time>
      </trkpt>
      <trkpt lat="43.21733" lon="5.48724">
        <ele>185.2</ele>
        <time>2025-10-18T09:33:07Z</time>
      </trkpt>
      <trkpt lat="43.21733" lon="5.48724">
        <ele>185.3</ele>
        <time>2025-10-18T09:33:08Z</time>
      </trkpt>
      <trkpt lat="43.21733" lon="5.48725">
        <ele>185.6</ele>
        <time>2025-10-18T09:33:09Z</time>
      </trkpt>
      <trkpt lat="43.21733" lon="5.48725">
        <ele>185.9</ele>
        <time>2025-10-18T09:33:10Z</time>
      </trkpt>
      <trkpt lat="43.21734" lon="5.48726">
        <ele>186.2</ele>
        <time>2025-10-18T09:33:11Z</time>
      </trkpt>
      <trkpt lat="43.21735" lon="5.48726">
        <ele>186.4</ele>
        <time>2025-10-18T09:33:12Z</time>
      </trkpt>
      <trkpt lat="43.21736" lon="5.48726">
        <ele>186.6</ele>
        <time>2025-10-18T09:33:13Z</time>
      </trkpt>
      <trkpt lat="43.21736" lon="5.48726">
        <ele>186.7</ele>
        <time>2025-10-18T09:33:14Z</time>
      </trkpt>
      <trkpt lat="43.21737" lon="5.48726">
        <ele>186.8</ele>
        <time>2025-10-18T09:33:15Z</time>
      </trkpt>
      <trkpt lat="43.21738" lon="5.48726">
        <ele>187</ele>
        <time>2025-10-18T09:33:16Z</time>
      </trkpt>
      <trkpt lat="43.21739" lon="5.48726">
        <ele>187</ele>
        <time>2025-10-18T09:33:17Z</time>
      </trkpt>
      <trkpt lat="43.2174" lon="5.48725">
        <ele>187.1</ele>
        <time>2025-10-18T09:33:18Z</time>
      </trkpt>
      <trkpt lat="43.2174" lon="5.48725">
        <ele>187.2</ele>
        <time>2025-10-18T09:33:19Z</time>
      </trkpt>
      <trkpt lat="43.2174" lon="5.48725">
        <ele>187.3</ele>
        <time>2025-10-18T09:33:20Z</time>
      </trkpt>
      <trkpt lat="43.21741" lon="5.48725">
        <ele>187.4</ele>
        <time>2025-10-18T09:33:21Z</time>
      </trkpt>
      <trkpt lat="43.2174" lon="5.48725">
        <ele>187.5</ele>
        <time>2025-10-18T09:33:22Z</time>
      </trkpt>
      <trkpt lat="43.21741" lon="5.48727">
        <ele>187.7</ele>
        <time>2025-10-18T09:33:23Z</time>
      </trkpt>
      <trkpt lat="43.21741" lon="5.48728">
        <ele>187.9</ele>
        <time>2025-10-18T09:33:24Z</time>
      </trkpt>
      <trkpt lat="43.21742" lon="5.48727">
        <ele>187.9</ele>
        <time>2025-10-18T09:33:25Z</time>
      </trkpt>
      <trkpt lat="43.21744" lon="5.48726">
        <ele>188.1</ele>
        <time>2025-10-18T09:33:26Z</time>
      </trkpt>
      <trkpt lat="43.21745" lon="5.48726">
        <ele>188.2</ele>
        <time>2025-10-18T09:33:27Z</time>
      </trkpt>
      <trkpt lat="43.21746" lon="5.48726">
        <ele>188.4</ele>
        <time>2025-10-18T09:33:28Z</time>
      </trkpt>
      <trkpt lat="43.21746" lon="5.48726">
        <ele>188.5</ele>
        <time>2025-10-18T09:33:29Z</time>
      </trkpt>
      <trkpt lat="43.21747" lon="5.48726">
        <ele>188.6</ele>
        <time>2025-10-18T09:33:30Z</time>
      </trkpt>
      <trkpt lat="43.21748" lon="5.48725">
        <ele>188.7</ele>
        <time>2025-10-18T09:33:31Z</time>
      </trkpt>
      <trkpt lat="43.21749" lon="5.48725">
        <ele>188.7</ele>
        <time>2025-10-18T09:33:32Z</time>
      </trkpt>
      <trkpt lat="43.2175" lon="5.48725">
        <ele>188.9</ele>
        <time>2025-10-18T09:33:33Z</time>
      </trkpt>
      <trkpt lat="43.2175" lon="5.48725">
        <ele>188.9</ele>
        <time>2025-10-18T09:33:34Z</time>
      </trkpt>
      <trkpt lat="43.2175" lon="5.48725">
        <ele>188.9</ele>
        <time>2025-10-18T09:33:35Z</time>
      </trkpt>
      <trkpt lat="43.21751" lon="5.48725">
        <ele>189</ele>
        <time>2025-10-18T09:33:36Z</time>
      </trkpt>
      <trkpt lat="43.21751" lon="5.48726">
        <ele>189.1</ele>
        <time>2025-10-18T09:33:37Z</time>
      </trkpt>
      <trkpt lat="43.21752" lon="5.48725">
        <ele>189.1</ele>
        <time>2025-10-18T09:33:38Z</time>
      </trkpt>
      <trkpt lat="43.21753" lon="5.48725">
        <ele>189.2</ele>
        <time>2025-10-18T09:33:39Z</time>
      </trkpt>
      <trkpt lat="43.21753" lon="5.48725">
        <ele>189.3</ele>
        <time>2025-10-18T09:33:40Z</time>
      </trkpt>
      <trkpt lat="43.21754" lon="5.48726">
        <ele>189.4</ele>
        <time>2025-10-18T09:33:41Z</time>
      </trkpt>
      <trkpt lat="43.21755" lon="5.48726">
        <ele>189.5</ele>
        <time>2025-10-18T09:33:42Z</time>
      </trkpt>
      <trkpt lat="43.21755" lon="5.48727">
        <ele>189.6</ele>
        <time>2025-10-18T09:33:43Z</time>
      </trkpt>
      <trkpt lat="43.21756" lon="5.48727">
        <ele>189.7</ele>
        <time>2025-10-18T09:33:44Z</time>
      </trkpt>
      <trkpt lat="43.21757" lon="5.48728">
        <ele>189.9</ele>
        <time>2025-10-18T09:33:45Z</time>
      </trkpt>
      <trkpt lat="43.21757" lon="5.48729">
        <ele>189.9</ele>
        <time>2025-10-18T09:33:46Z</time>
      </trkpt>
      <trkpt lat="43.21758" lon="5.48729">
        <ele>190.1</ele>
        <time>2025-10-18T09:33:47Z</time>
      </trkpt>
      <trkpt lat="43.21759" lon="5.48729">
        <ele>190.3</ele>
        <time>2025-10-18T09:33:48Z</time>
      </trkpt>
      <trkpt lat="43.2176" lon="5.48729">
        <ele>190.6</ele>
        <time>2025-10-18T09:33:49Z</time>
      </trkpt>
      <trkpt lat="43.21761" lon="5.48729">
        <ele>190.8</ele>
        <time>2025-10-18T09:33:50Z</time>
      </trkpt>
      <trkpt lat="43.21761" lon="5.48729">
        <ele>190.9</ele>
        <time>2025-10-18T09:33:51Z</time>
      </trkpt>
      <trkpt lat="43.21762" lon="5.48729">
        <ele>191</ele>
        <time>2025-10-18T09:33:52Z</time>
      </trkpt>
      <trkpt lat="43.21763" lon="5.4873">
        <ele>191.2</ele>
        <time>2025-10-18T09:33:53Z</time>
      </trkpt>
      <trkpt lat="43.21763" lon="5.4873">
        <ele>191.3</ele>
        <time>2025-10-18T09:33:54Z</time>
      </trkpt>
      <trkpt lat="43.21764" lon="5.4873">
        <ele>191.4</ele>
        <time>2025-10-18T09:33:55Z</time>
      </trkpt>
      <trkpt lat="43.21765" lon="5.4873">
        <ele>191.5</ele>
        <time>2025-10-18T09:33:56Z</time>
      </trkpt>
      <trkpt lat="43.21766" lon="5.4873">
        <ele>191.7</ele>
        <time>2025-10-18T09:33:57Z</time>
      </trkpt>
      <trkpt lat="43.21767" lon="5.4873">
        <ele>191.7</ele>
        <time>2025-10-18T09:33:58Z</time>
      </trkpt>
      <trkpt lat="43.21768" lon="5.4873">
        <ele>191.9</ele>
        <time>2025-10-18T09:33:59Z</time>
      </trkpt>
      <trkpt lat="43.21769" lon="5.4873">
        <ele>192</ele>
        <time>2025-10-18T09:34:00Z</time>
      </trkpt>
      <trkpt lat="43.21769" lon="5.4873">
        <ele>192.1</ele>
        <time>2025-10-18T09:34:01Z</time>
      </trkpt>
      <trkpt lat="43.2177" lon="5.48729">
        <ele>192.2</ele>
        <time>2025-10-18T09:34:02Z</time>
      </trkpt>
      <trkpt lat="43.2177" lon="5.48729">
        <ele>192.3</ele>
        <time>2025-10-18T09:34:03Z</time>
      </trkpt>
      <trkpt lat="43.2177" lon="5.48729">
        <ele>192.4</ele>
        <time>2025-10-18T09:34:04Z</time>
      </trkpt>
      <trkpt lat="43.21771" lon="5.48729">
        <ele>192.5</ele>
        <time>2025-10-18T09:34:05Z</time>
      </trkpt>
      <trkpt lat="43.21771" lon="5.48729">
        <ele>192.6</ele>
        <time>2025-10-18T09:34:06Z</time>
      </trkpt>
      <trkpt lat="43.21772" lon="5.48729">
        <ele>192.7</ele>
        <time>2025-10-18T09:34:07Z</time>
      </trkpt>
      <trkpt lat="43.21772" lon="5.48729">
        <ele>192.9</ele>
        <time>2025-10-18T09:34:08Z</time>
      </trkpt>
      <trkpt lat="43.21773" lon="5.48729">
        <ele>193.1</ele>
        <time>2025-10-18T09:34:09Z</time>
      </trkpt>
      <trkpt lat="43.21773" lon="5.48729">
        <ele>193.3</ele>
        <time>2025-10-18T09:34:10Z</time>
      </trkpt>
      <trkpt lat="43.21774" lon="5.48729">
        <ele>193.5</ele>
        <time>2025-10-18T09:34:11Z</time>
      </trkpt>
      <trkpt lat="43.21775" lon="5.48728">
        <ele>193.6</ele>
        <time>2025-10-18T09:34:12Z</time>
      </trkpt>
      <trkpt lat="43.21775" lon="5.48728">
        <ele>193.8</ele>
        <time>2025-10-18T09:34:13Z</time>
      </trkpt>
      <trkpt lat="43.21776" lon="5.48729">
        <ele>194</ele>
        <time>2025-10-18T09:34:14Z</time>
      </trkpt>
      <trkpt lat="43.21777" lon="5.48729">
        <ele>194.1</ele>
        <time>2025-10-18T09:34:15Z</time>
      </trkpt>
      <trkpt lat="43.21778" lon="5.48729">
        <ele>194.3</ele>
        <time>2025-10-18T09:34:16Z</time>
      </trkpt>
      <trkpt lat="43.21778" lon="5.48729">
        <ele>194.4</ele>
        <time>2025-10-18T09:34:17Z</time>
      </trkpt>
      <trkpt lat="43.21779" lon="5.48729">
        <ele>194.5</ele>
        <time>2025-10-18T09:34:18Z</time>
      </trkpt>
      <trkpt lat="43.21779" lon="5.4873">
        <ele>194.5</ele>
        <time>2025-10-18T09:34:19Z</time>
      </trkpt>
      <trkpt lat="43.2178" lon="5.4873">
        <ele>194.6</ele>
        <time>2025-10-18T09:34:20Z</time>
      </trkpt>
      <trkpt lat="43.21781" lon="5.4873">
        <ele>194.7</ele>
        <time>2025-10-18T09:34:21Z</time>
      </trkpt>
      <trkpt lat="43.21781" lon="5.4873">
        <ele>194.9</ele>
        <time>2025-10-18T09:34:22Z</time>
      </trkpt>
      <trkpt lat="43.21781" lon="5.4873">
        <ele>195</ele>
        <time>2025-10-18T09:34:23Z</time>
      </trkpt>
      <trkpt lat="43.21782" lon="5.48731">
        <ele>195.1</ele>
        <time>2025-10-18T09:34:24Z</time>
      </trkpt>
      <trkpt lat="43.21783" lon="5.48731">
        <ele>195.2</ele>
        <time>2025-10-18T09:34:25Z</time>
      </trkpt>
      <trkpt lat="43.21783" lon="5.48732">
        <ele>195.3</ele>
        <time>2025-10-18T09:34:26Z</time>
      </trkpt>
      <trkpt lat="43.21784" lon="5.48733">
        <ele>195.5</ele>
        <time>2025-10-18T09:34:27Z</time>
      </trkpt>
      <trkpt lat="43.21785" lon="5.48734">
        <ele>195.7</ele>
        <time>2025-10-18T09:34:28Z</time>
      </trkpt>
      <trkpt lat="43.21785" lon="5.48734">
        <ele>195.8</ele>
        <time>2025-10-18T09:34:29Z</time>
      </trkpt>
      <trkpt lat="43.21786" lon="5.48734">
        <ele>195.9</ele>
        <time>2025-10-18T09:34:30Z</time>
      </trkpt>
      <trkpt lat="43.21787" lon="5.48734">
        <ele>195.9</ele>
        <time>2025-10-18T09:34:31Z</time>
      </trkpt>
      <trkpt lat="43.21788" lon="5.48734">
        <ele>196</ele>
        <time>2025-10-18T09:34:32Z</time>
      </trkpt>
      <trkpt lat="43.21788" lon="5.48734">
        <ele>196.1</ele>
        <time>2025-10-18T09:34:33Z</time>
      </trkpt>
      <trkpt lat="43.21789" lon="5.48735">
        <ele>196.2</ele>
        <time>2025-10-18T09:34:34Z</time>
      </trkpt>
      <trkpt lat="43.21789" lon="5.48736">
        <ele>196.3</ele>
        <time>2025-10-18T09:34:35Z</time>
      </trkpt>
      <trkpt lat="43.2179" lon="5.48737">
        <ele>196.5</ele>
        <time>2025-10-18T09:34:36Z</time>
      </trkpt>
      <trkpt lat="43.21791" lon="5.48738">
        <ele>196.7</ele>
        <time>2025-10-18T09:34:37Z</time>
      </trkpt>
      <trkpt lat="43.21791" lon="5.48738">
        <ele>196.9</ele>
        <time>2025-10-18T09:34:38Z</time>
      </trkpt>
      <trkpt lat="43.21792" lon="5.48738">
        <ele>197.1</ele>
        <time>2025-10-18T09:34:39Z</time>
      </trkpt>
      <trkpt lat="43.21792" lon="5.48739">
        <ele>197.2</ele>
        <time>2025-10-18T09:34:40Z</time>
      </trkpt>
      <trkpt lat="43.21793" lon="5.48739">
        <ele>197.3</ele>
        <time>2025-10-18T09:34:41Z</time>
      </trkpt>
      <trkpt lat="43.21793" lon="5.48739">
        <ele>197.6</ele>
        <time>2025-10-18T09:34:42Z</time>
      </trkpt>
      <trkpt lat="43.21794" lon="5.48739">
        <ele>197.7</ele>
        <time>2025-10-18T09:34:43Z</time>
      </trkpt>
      <trkpt lat="43.21794" lon="5.48739">
        <ele>197.9</ele>
        <time>2025-10-18T09:34:44Z</time>
      </trkpt>
      <trkpt lat="43.21795" lon="5.4874">
        <ele>198.2</ele>
        <time>2025-10-18T09:34:45Z</time>
      </trkpt>
      <trkpt lat="43.21795" lon="5.4874">
        <ele>198.4</ele>
        <time>2025-10-18T09:34:46Z</time>
      </trkpt>
      <trkpt lat="43.21796" lon="5.4874">
        <ele>198.7</ele>
        <time>2025-10-18T09:34:47Z</time>
      </trkpt>
      <trkpt lat="43.21796" lon="5.4874">
        <ele>198.9</ele>
        <time>2025-10-18T09:34:48Z</time>
      </trkpt>
      <trkpt lat="43.21797" lon="5.4874">
        <ele>199.1</ele>
        <time>2025-10-18T09:34:49Z</time>
      </trkpt>
      <trkpt lat="43.21798" lon="5.4874">
        <ele>199.3</ele>
        <time>2025-10-18T09:34:50Z</time>
      </trkpt>
      <trkpt lat="43.21799" lon="5.4874">
        <ele>199.6</ele>
        <time>2025-10-18T09:34:51Z</time>
      </trkpt>
      <trkpt lat="43.21799" lon="5.4874">
        <ele>199.8</ele>
        <time>2025-10-18T09:34:52Z</time>
      </trkpt>
      <trkpt lat="43.218" lon="5.48739">
        <ele>200.1</ele>
        <time>2025-10-18T09:34:53Z</time>
      </trkpt>
      <trkpt lat="43.21801" lon="5.48739">
        <ele>200.3</ele>
        <time>2025-10-18T09:34:54Z</time>
      </trkpt>
      <trkpt lat="43.21801" lon="5.48738">
        <ele>200.6</ele>
        <time>2025-10-18T09:34:55Z</time>
      </trkpt>
      <trkpt lat="43.21801" lon="5.48738">
        <ele>200.7</ele>
        <time>2025-10-18T09:34:56Z</time>
      </trkpt>
      <trkpt lat="43.21801" lon="5.48737">
        <ele>200.9</ele>
        <time>2025-10-18T09:34:57Z</time>
      </trkpt>
      <trkpt lat="43.21801" lon="5.48735">
        <ele>201</ele>
        <time>2025-10-18T09:34:58Z</time>
      </trkpt>
      <trkpt lat="43.21801" lon="5.48735">
        <ele>201.2</ele>
        <time>2025-10-18T09:34:59Z</time>
      </trkpt>
      <trkpt lat="43.21801" lon="5.48735">
        <ele>201.3</ele>
        <time>2025-10-18T09:35:00Z</time>
      </trkpt>
      <trkpt lat="43.21801" lon="5.48735">
        <ele>201.5</ele>
        <time>2025-10-18T09:35:01Z</time>
      </trkpt>
      <trkpt lat="43.21801" lon="5.48734">
        <ele>201.7</ele>
        <time>2025-10-18T09:35:02Z</time>
      </trkpt>
      <trkpt lat="43.21802" lon="5.48734">
        <ele>201.7</ele>
        <time>2025-10-18T09:35:03Z</time>
      </trkpt>
      <trkpt lat="43.21803" lon="5.48735">
        <ele>201.7</ele>
        <time>2025-10-18T09:35:04Z</time>
      </trkpt>
      <trkpt lat="43.21803" lon="5.48735">
        <ele>201.8</ele>
        <time>2025-10-18T09:35:05Z</time>
      </trkpt>
      <trkpt lat="43.21803" lon="5.48735">
        <ele>201.8</ele>
        <time>2025-10-18T09:35:06Z</time>
      </trkpt>
      <trkpt lat="43.21804" lon="5.48735">
        <ele>201.7</ele>
        <time>2025-10-18T09:35:07Z</time>
      </trkpt>
      <trkpt lat="43.21804" lon="5.48735">
        <ele>201.8</ele>
        <time>2025-10-18T09:35:08Z</time>
      </trkpt>
      <trkpt lat="43.21805" lon="5.48735">
        <ele>201.8</ele>
        <time>2025-10-18T09:35:09Z</time>
      </trkpt>
      <trkpt lat="43.21805" lon="5.48735">
        <ele>201.9</ele>
        <time>2025-10-18T09:35:10Z</time>
      </trkpt>
      <trkpt lat="43.21805" lon="5.48735">
        <ele>201.9</ele>
        <time>2025-10-18T09:35:11Z</time>
      </trkpt>
      <trkpt lat="43.21805" lon="5.48735">
        <ele>201.9</ele>
        <time>2025-10-18T09:35:12Z</time>
      </trkpt>
      <trkpt lat="43.21806" lon="5.48735">
        <ele>202</ele>
        <time>2025-10-18T09:35:13Z</time>
      </trkpt>
      <trkpt lat="43.21806" lon="5.48735">
        <ele>202</ele>
        <time>2025-10-18T09:35:14Z</time>
      </trkpt>
      <trkpt lat="43.21806" lon="5.48734">
        <ele>202</ele>
        <time>2025-10-18T09:35:15Z</time>
      </trkpt>
      <trkpt lat="43.21806" lon="5.48734">
        <ele>202</ele>
        <time>2025-10-18T09:35:16Z</time>
      </trkpt>
      <trkpt lat="43.21807" lon="5.48734">
        <ele>202</ele>
        <time>2025-10-18T09:35:17Z</time>
      </trkpt>
      <trkpt lat="43.21807" lon="5.48733">
        <ele>202</ele>
        <time>2025-10-18T09:35:18Z</time>
      </trkpt>
      <trkpt lat="43.21807" lon="5.48734">
        <ele>201.9</ele>
        <time>2025-10-18T09:35:19Z</time>
      </trkpt>
      <trkpt lat="43.21807" lon="5.48734">
        <ele>201.9</ele>
        <time>2025-10-18T09:35:20Z</time>
      </trkpt>
      <trkpt lat="43.21806" lon="5.48735">
        <ele>201.9</ele>
        <time>2025-10-18T09:35:21Z</time>
      </trkpt>
      <trkpt lat="43.21806" lon="5.48735">
        <ele>201.8</ele>
        <time>2025-10-18T09:35:22Z</time>
      </trkpt>
      <trkpt lat="43.21806" lon="5.48735">
        <ele>201.9</ele>
        <time>2025-10-18T09:35:23Z</time>
      </trkpt>
      <trkpt lat="43.21806" lon="5.48735">
        <ele>201.9</ele>
        <time>2025-10-18T09:35:24Z</time>
      </trkpt>
      <trkpt lat="43.21806" lon="5.48735">
        <ele>202.1</ele>
        <time>2025-10-18T09:35:25Z</time>
      </trkpt>
      <trkpt lat="43.21806" lon="5.48735">
        <ele>202.2</ele>
        <time>2025-10-18T09:35:26Z</time>
      </trkpt>
      <trkpt lat="43.21806" lon="5.48735">
        <ele>202.3</ele>
        <time>2025-10-18T09:35:27Z</time>
      </trkpt>
      <trkpt lat="43.21806" lon="5.48735">
        <ele>202.4</ele>
        <time>2025-10-18T09:35:28Z</time>
      </trkpt>
      <trkpt lat="43.21806" lon="5.48735">
        <ele>202.4</ele>
        <time>2025-10-18T09:35:29Z</time>
      </trkpt>
      <trkpt lat="43.21806" lon="5.48735">
        <ele>202.5</ele>
        <time>2025-10-18T09:35:30Z</time>
      </trkpt>
      <trkpt lat="43.21806" lon="5.48736">
        <ele>202.5</ele>
        <time>2025-10-18T09:35:31Z</time>
      </trkpt>
      <trkpt lat="43.21806" lon="5.48736">
        <ele>202.7</ele>
        <time>2025-10-18T09:35:32Z</time>
      </trkpt>
      <trkpt lat="43.21806" lon="5.48737">
        <ele>202.7</ele>
        <time>2025-10-18T09:35:33Z</time>
      </trkpt>
      <trkpt lat="43.21806" lon="5.48737">
        <ele>202.7</ele>
        <time>2025-10-18T09:35:34Z</time>
      </trkpt>
      <trkpt lat="43.21806" lon="5.48737">
        <ele>202.8</ele>
        <time>2025-10-18T09:35:35Z</time>
      </trkpt>
      <trkpt lat="43.21806" lon="5.48738">
        <ele>203.1</ele>
        <time>2025-10-18T09:35:36Z</time>
      </trkpt>
      <trkpt lat="43.21806" lon="5.48739">
        <ele>203.2</ele>
        <time>2025-10-18T09:35:37Z</time>
      </trkpt>
      <trkpt lat="43.21807" lon="5.48739">
        <ele>203.4</ele>
        <time>2025-10-18T09:35:38Z</time>
      </trkpt>
      <trkpt lat="43.21807" lon="5.4874">
        <ele>203.7</ele>
        <time>2025-10-18T09:35:39Z</time>
      </trkpt>
      <trkpt lat="43.21807" lon="5.4874">
        <ele>203.9</ele>
        <time>2025-10-18T09:35:40Z</time>
      </trkpt>
      <trkpt lat="43.21807" lon="5.4874">
        <ele>204.2</ele>
        <time>2025-10-18T09:35:41Z</time>
      </trkpt>
      <trkpt lat="43.21807" lon="5.4874">
        <ele>204.3</ele>
        <time>2025-10-18T09:35:42Z</time>
      </trkpt>
      <trkpt lat="43.21807" lon="5.48741">
        <ele>204.5</ele>
        <time>2025-10-18T09:35:43Z</time>
      </trkpt>
      <trkpt lat="43.21807" lon="5.48741">
        <ele>204.8</ele>
        <time>2025-10-18T09:35:44Z</time>
      </trkpt>
      <trkpt lat="43.21806" lon="5.4874">
        <ele>205.1</ele>
        <time>2025-10-18T09:35:45Z</time>
      </trkpt>
      <trkpt lat="43.21806" lon="5.4874">
        <ele>205.3</ele>
        <time>2025-10-18T09:35:46Z</time>
      </trkpt>
      <trkpt lat="43.21805" lon="5.4874">
        <ele>205.5</ele>
        <time>2025-10-18T09:35:47Z</time>
      </trkpt>
      <trkpt lat="43.21805" lon="5.4874">
        <ele>205.6</ele>
        <time>2025-10-18T09:35:48Z</time>
      </trkpt>
      <trkpt lat="43.21805" lon="5.4874">
        <ele>205.9</ele>
        <time>2025-10-18T09:35:49Z</time>
      </trkpt>
      <trkpt lat="43.21805" lon="5.4874">
        <ele>205.9</ele>
        <time>2025-10-18T09:35:50Z</time>
      </trkpt>
      <trkpt lat="43.21805" lon="5.48741">
        <ele>206.1</ele>
        <time>2025-10-18T09:35:51Z</time>
      </trkpt>
      <trkpt lat="43.21806" lon="5.48741">
        <ele>206.3</ele>
        <time>2025-10-18T09:35:52Z</time>
      </trkpt>
      <trkpt lat="43.21805" lon="5.48741">
        <ele>206.5</ele>
        <time>2025-10-18T09:35:53Z</time>
      </trkpt>
      <trkpt lat="43.21805" lon="5.48742">
        <ele>206.7</ele>
        <time>2025-10-18T09:35:54Z</time>
      </trkpt>
      <trkpt lat="43.21805" lon="5.48742">
        <ele>206.8</ele>
        <time>2025-10-18T09:35:55Z</time>
      </trkpt>
      <trkpt lat="43.21805" lon="5.48742">
        <ele>207</ele>
        <time>2025-10-18T09:35:56Z</time>
      </trkpt>
      <trkpt lat="43.21805" lon="5.48743">
        <ele>207.2</ele>
        <time>2025-10-18T09:35:57Z</time>
      </trkpt>
      <trkpt lat="43.21804" lon="5.48744">
        <ele>207.4</ele>
        <time>2025-10-18T09:35:58Z</time>
      </trkpt>
      <trkpt lat="43.21804" lon="5.48744">
        <ele>207.6</ele>
        <time>2025-10-18T09:35:59Z</time>
      </trkpt>
      <trkpt lat="43.21804" lon="5.48744">
        <ele>207.7</ele>
        <time>2025-10-18T09:36:00Z</time>
      </trkpt>
      <trkpt lat="43.21804" lon="5.48744">
        <ele>208</ele>
        <time>2025-10-18T09:36:01Z</time>
      </trkpt>
      <trkpt lat="43.21804" lon="5.48744">
        <ele>208.2</ele>
        <time>2025-10-18T09:36:02Z</time>
      </trkpt>
      <trkpt lat="43.21804" lon="5.48745">
        <ele>208.4</ele>
        <time>2025-10-18T09:36:03Z</time>
      </trkpt>
      <trkpt lat="43.21803" lon="5.48744">
        <ele>208.5</ele>
        <time>2025-10-18T09:36:04Z</time>
      </trkpt>
      <trkpt lat="43.21803" lon="5.48745">
        <ele>208.7</ele>
        <time>2025-10-18T09:36:05Z</time>
      </trkpt>
      <trkpt lat="43.21802" lon="5.48745">
        <ele>208.9</ele>
        <time>2025-10-18T09:36:06Z</time>
      </trkpt>
      <trkpt lat="43.21802" lon="5.48746">
        <ele>209.1</ele>
        <time>2025-10-18T09:36:07Z</time>
      </trkpt>
      <trkpt lat="43.21802" lon="5.48746">
        <ele>209.2</ele>
        <time>2025-10-18T09:36:08Z</time>
      </trkpt>
      <trkpt lat="43.21801" lon="5.48745">
        <ele>209.4</ele>
        <time>2025-10-18T09:36:09Z</time>
      </trkpt>
      <trkpt lat="43.21801" lon="5.48746">
        <ele>209.5</ele>
        <time>2025-10-18T09:36:10Z</time>
      </trkpt>
      <trkpt lat="43.21801" lon="5.48746">
        <ele>209.7</ele>
        <time>2025-10-18T09:36:11Z</time>
      </trkpt>
      <trkpt lat="43.21801" lon="5.48747">
        <ele>209.8</ele>
        <time>2025-10-18T09:36:12Z</time>
      </trkpt>
      <trkpt lat="43.21801" lon="5.48747">
        <ele>209.9</ele>
        <time>2025-10-18T09:36:13Z</time>
      </trkpt>
      <trkpt lat="43.21801" lon="5.48747">
        <ele>209.9</ele>
        <time>2025-10-18T09:36:14Z</time>
      </trkpt>
      <trkpt lat="43.21801" lon="5.48748">
        <ele>210</ele>
        <time>2025-10-18T09:36:15Z</time>
      </trkpt>
      <trkpt lat="43.21801" lon="5.48749">
        <ele>210.1</ele>
        <time>2025-10-18T09:36:16Z</time>
      </trkpt>
      <trkpt lat="43.21801" lon="5.4875">
        <ele>210.2</ele>
        <time>2025-10-18T09:36:17Z</time>
      </trkpt>
      <trkpt lat="43.21801" lon="5.48751">
        <ele>210.3</ele>
        <time>2025-10-18T09:36:18Z</time>
      </trkpt>
      <trkpt lat="43.21802" lon="5.48752">
        <ele>210.4</ele>
        <time>2025-10-18T09:36:19Z</time>
      </trkpt>
      <trkpt lat="43.21802" lon="5.48754">
        <ele>210.6</ele>
        <time>2025-10-18T09:36:20Z</time>
      </trkpt>
      <trkpt lat="43.21803" lon="5.48754">
        <ele>210.7</ele>
        <time>2025-10-18T09:36:21Z</time>
      </trkpt>
      <trkpt lat="43.21803" lon="5.48755">
        <ele>210.9</ele>
        <time>2025-10-18T09:36:22Z</time>
      </trkpt>
      <trkpt lat="43.21803" lon="5.48755">
        <ele>211</ele>
        <time>2025-10-18T09:36:23Z</time>
      </trkpt>
      <trkpt lat="43.21803" lon="5.48756">
        <ele>211.2</ele>
        <time>2025-10-18T09:36:24Z</time>
      </trkpt>
      <trkpt lat="43.21803" lon="5.48756">
        <ele>211.5</ele>
        <time>2025-10-18T09:36:25Z</time>
      </trkpt>
      <trkpt lat="43.21804" lon="5.48757">
        <ele>211.7</ele>
        <time>2025-10-18T09:36:26Z</time>
      </trkpt>
      <trkpt lat="43.21804" lon="5.48757">
        <ele>211.8</ele>
        <time>2025-10-18T09:36:27Z</time>
      </trkpt>
      <trkpt lat="43.21804" lon="5.48757">
        <ele>212</ele>
        <time>2025-10-18T09:36:28Z</time>
      </trkpt>
      <trkpt lat="43.21804" lon="5.48758">
        <ele>212.2</ele>
        <time>2025-10-18T09:36:29Z</time>
      </trkpt>
      <trkpt lat="43.21805" lon="5.48758">
        <ele>212.3</ele>
        <time>2025-10-18T09:36:30Z</time>
      </trkpt>
      <trkpt lat="43.21805" lon="5.48758">
        <ele>212.5</ele>
        <time>2025-10-18T09:36:31Z</time>
      </trkpt>
      <trkpt lat="43.21805" lon="5.48759">
        <ele>212.6</ele>
        <time>2025-10-18T09:36:32Z</time>
      </trkpt>
      <trkpt lat="43.21806" lon="5.48759">
        <ele>212.6</ele>
        <time>2025-10-18T09:36:33Z</time>
      </trkpt>
      <trkpt lat="43.21806" lon="5.48759">
        <ele>212.7</ele>
        <time>2025-10-18T09:36:34Z</time>
      </trkpt>
      <trkpt lat="43.21806" lon="5.48759">
        <ele>212.8</ele>
        <time>2025-10-18T09:36:35Z</time>
      </trkpt>
      <trkpt lat="43.21806" lon="5.48759">
        <ele>212.9</ele>
        <time>2025-10-18T09:36:36Z</time>
      </trkpt>
      <trkpt lat="43.21807" lon="5.48759">
        <ele>213</ele>
        <time>2025-10-18T09:36:37Z</time>
      </trkpt>
      <trkpt lat="43.21807" lon="5.48759">
        <ele>213.1</ele>
        <time>2025-10-18T09:36:38Z</time>
      </trkpt>
      <trkpt lat="43.21808" lon="5.48759">
        <ele>213.3</ele>
        <time>2025-10-18T09:36:39Z</time>
      </trkpt>
      <trkpt lat="43.21808" lon="5.4876">
        <ele>213.5</ele>
        <time>2025-10-18T09:36:40Z</time>
      </trkpt>
      <trkpt lat="43.21808" lon="5.4876">
        <ele>213.5</ele>
        <time>2025-10-18T09:36:41Z</time>
      </trkpt>
      <trkpt lat="43.21808" lon="5.4876">
        <ele>213.6</ele>
        <time>2025-10-18T09:36:42Z</time>
      </trkpt>
      <trkpt lat="43.21809" lon="5.48761">
        <ele>213.8</ele>
        <time>2025-10-18T09:36:43Z</time>
      </trkpt>
      <trkpt lat="43.21809" lon="5.48761">
        <ele>213.9</ele>
        <time>2025-10-18T09:36:44Z</time>
      </trkpt>
      <trkpt lat="43.21809" lon="5.48762">
        <ele>214.1</ele>
        <time>2025-10-18T09:36:45Z</time>
      </trkpt>
      <trkpt lat="43.21809" lon="5.48762">
        <ele>214.2</ele>
        <time>2025-10-18T09:36:46Z</time>
      </trkpt>
      <trkpt lat="43.21809" lon="5.48763">
        <ele>214.4</ele>
        <time>2025-10-18T09:36:47Z</time>
      </trkpt>
      <trkpt lat="43.2181" lon="5.48763">
        <ele>214.7</ele>
        <time>2025-10-18T09:36:48Z</time>
      </trkpt>
      <trkpt lat="43.2181" lon="5.48763">
        <ele>214.8</ele>
        <time>2025-10-18T09:36:49Z</time>
      </trkpt>
      <trkpt lat="43.21811" lon="5.48763">
        <ele>214.9</ele>
        <time>2025-10-18T09:36:50Z</time>
      </trkpt>
      <trkpt lat="43.21811" lon="5.48764">
        <ele>215</ele>
        <time>2025-10-18T09:36:51Z</time>
      </trkpt>
      <trkpt lat="43.2181" lon="5.48765">
        <ele>215.2</ele>
        <time>2025-10-18T09:36:52Z</time>
      </trkpt>
      <trkpt lat="43.2181" lon="5.48765">
        <ele>215.4</ele>
        <time>2025-10-18T09:36:53Z</time>
      </trkpt>
      <trkpt lat="43.2181" lon="5.48765">
        <ele>215.5</ele>
        <time>2025-10-18T09:36:54Z</time>
      </trkpt>
      <trkpt lat="43.2181" lon="5.48765">
        <ele>215.8</ele>
        <time>2025-10-18T09:36:55Z</time>
      </trkpt>
      <trkpt lat="43.2181" lon="5.48765">
        <ele>215.8</ele>
        <time>2025-10-18T09:36:56Z</time>
      </trkpt>
      <trkpt lat="43.2181" lon="5.48765">
        <ele>216</ele>
        <time>2025-10-18T09:36:57Z</time>
      </trkpt>
      <trkpt lat="43.21809" lon="5.48765">
        <ele>216.2</ele>
        <time>2025-10-18T09:36:58Z</time>
      </trkpt>
      <trkpt lat="43.21809" lon="5.48765">
        <ele>216.4</ele>
        <time>2025-10-18T09:36:59Z</time>
      </trkpt>
      <trkpt lat="43.21809" lon="5.48766">
        <ele>216.6</ele>
        <time>2025-10-18T09:37:00Z</time>
      </trkpt>
      <trkpt lat="43.21809" lon="5.48766">
        <ele>216.8</ele>
        <time>2025-10-18T09:37:01Z</time>
      </trkpt>
      <trkpt lat="43.21809" lon="5.48766">
        <ele>216.9</ele>
        <time>2025-10-18T09:37:02Z</time>
      </trkpt>
      <trkpt lat="43.21809" lon="5.48766">
        <ele>217.1</ele>
        <time>2025-10-18T09:37:03Z</time>
      </trkpt>
      <trkpt lat="43.21809" lon="5.48766">
        <ele>217.3</ele>
        <time>2025-10-18T09:37:04Z</time>
      </trkpt>
      <trkpt lat="43.21809" lon="5.48766">
        <ele>217.4</ele>
        <time>2025-10-18T09:37:05Z</time>
      </trkpt>
      <trkpt lat="43.21809" lon="5.48767">
        <ele>217.5</ele>
        <time>2025-10-18T09:37:06Z</time>
      </trkpt>
      <trkpt lat="43.21809" lon="5.48768">
        <ele>217.6</ele>
        <time>2025-10-18T09:37:07Z</time>
      </trkpt>
      <trkpt lat="43.21809" lon="5.48769">
        <ele>217.7</ele>
        <time>2025-10-18T09:37:08Z</time>
      </trkpt>
      <trkpt lat="43.21809" lon="5.48769">
        <ele>218</ele>
        <time>2025-10-18T09:37:09Z</time>
      </trkpt>
      <trkpt lat="43.21809" lon="5.4877">
        <ele>218.1</ele>
        <time>2025-10-18T09:37:10Z</time>
      </trkpt>
      <trkpt lat="43.21808" lon="5.4877">
        <ele>218.3</ele>
        <time>2025-10-18T09:37:11Z</time>
      </trkpt>
      <trkpt lat="43.21808" lon="5.4877">
        <ele>218.5</ele>
        <time>2025-10-18T09:37:12Z</time>
      </trkpt>
      <trkpt lat="43.21808" lon="5.48771">
        <ele>218.6</ele>
        <time>2025-10-18T09:37:13Z</time>
      </trkpt>
      <trkpt lat="43.21809" lon="5.48771">
        <ele>218.8</ele>
        <time>2025-10-18T09:37:14Z</time>
      </trkpt>
      <trkpt lat="43.21809" lon="5.48772">
        <ele>219.1</ele>
        <time>2025-10-18T09:37:15Z</time>
      </trkpt>
      <trkpt lat="43.21809" lon="5.48774">
        <ele>219.2</ele>
        <time>2025-10-18T09:37:16Z</time>
      </trkpt>
      <trkpt lat="43.21809" lon="5.48774">
        <ele>219.4</ele>
        <time>2025-10-18T09:37:17Z</time>
      </trkpt>
      <trkpt lat="43.2181" lon="5.48775">
        <ele>219.5</ele>
        <time>2025-10-18T09:37:18Z</time>
      </trkpt>
      <trkpt lat="43.2181" lon="5.48776">
        <ele>219.7</ele>
        <time>2025-10-18T09:37:19Z</time>
      </trkpt>
      <trkpt lat="43.21811" lon="5.48776">
        <ele>219.9</ele>
        <time>2025-10-18T09:37:20Z</time>
      </trkpt>
      <trkpt lat="43.21811" lon="5.48776">
        <ele>220.1</ele>
        <time>2025-10-18T09:37:21Z</time>
      </trkpt>
      <trkpt lat="43.21811" lon="5.48776">
        <ele>220.3</ele>
        <time>2025-10-18T09:37:22Z</time>
      </trkpt>
      <trkpt lat="43.21812" lon="5.48776">
        <ele>220.4</ele>
        <time>2025-10-18T09:37:23Z</time>
      </trkpt>
      <trkpt lat="43.21812" lon="5.48776">
        <ele>220.5</ele>
        <time>2025-10-18T09:37:24Z</time>
      </trkpt>
      <trkpt lat="43.21812" lon="5.48776">
        <ele>220.5</ele>
        <time>2025-10-18T09:37:25Z</time>
      </trkpt>
      <trkpt lat="43.21812" lon="5.48776">
        <ele>220.7</ele>
        <time>2025-10-18T09:37:26Z</time>
      </trkpt>
      <trkpt lat="43.21812" lon="5.48776">
        <ele>220.8</ele>
        <time>2025-10-18T09:37:27Z</time>
      </trkpt>
      <trkpt lat="43.21813" lon="5.48776">
        <ele>220.9</ele>
        <time>2025-10-18T09:37:28Z</time>
      </trkpt>
      <trkpt lat="43.21813" lon="5.48776">
        <ele>221</ele>
        <time>2025-10-18T09:37:29Z</time>
      </trkpt>
      <trkpt lat="43.21813" lon="5.48776">
        <ele>221.1</ele>
        <time>2025-10-18T09:37:30Z</time>
      </trkpt>
      <trkpt lat="43.21813" lon="5.48777">
        <ele>221.1</ele>
        <time>2025-10-18T09:37:31Z</time>
      </trkpt>
      <trkpt lat="43.21813" lon="5.48777">
        <ele>221.2</ele>
        <time>2025-10-18T09:37:32Z</time>
      </trkpt>
      <trkpt lat="43.21814" lon="5.48777">
        <ele>221.3</ele>
        <time>2025-10-18T09:37:33Z</time>
      </trkpt>
      <trkpt lat="43.21814" lon="5.48777">
        <ele>221.4</ele>
        <time>2025-10-18T09:37:34Z</time>
      </trkpt>
      <trkpt lat="43.21813" lon="5.48777">
        <ele>221.5</ele>
        <time>2025-10-18T09:37:35Z</time>
      </trkpt>
      <trkpt lat="43.21813" lon="5.48777">
        <ele>221.6</ele>
        <time>2025-10-18T09:37:36Z</time>
      </trkpt>
      <trkpt lat="43.21813" lon="5.48777">
        <ele>221.7</ele>
        <time>2025-10-18T09:37:37Z</time>
      </trkpt>
      <trkpt lat="43.21813" lon="5.48778">
        <ele>221.8</ele>
        <time>2025-10-18T09:37:38Z</time>
      </trkpt>
      <trkpt lat="43.21813" lon="5.48777">
        <ele>221.8</ele>
        <time>2025-10-18T09:37:39Z</time>
      </trkpt>
      <trkpt lat="43.21813" lon="5.48778">
        <ele>221.8</ele>
        <time>2025-10-18T09:37:40Z</time>
      </trkpt>
      <trkpt lat="43.21813" lon="5.48778">
        <ele>221.9</ele>
        <time>2025-10-18T09:37:41Z</time>
      </trkpt>
      <trkpt lat="43.21813" lon="5.48778">
        <ele>221.9</ele>
        <time>2025-10-18T09:37:42Z</time>
      </trkpt>
      <trkpt lat="43.21814" lon="5.48778">
        <ele>221.8</ele>
        <time>2025-10-18T09:37:43Z</time>
      </trkpt>
      <trkpt lat="43.21814" lon="5.48778">
        <ele>221.9</ele>
        <time>2025-10-18T09:37:44Z</time>
      </trkpt>
      <trkpt lat="43.21814" lon="5.48779">
        <ele>221.9</ele>
        <time>2025-10-18T09:37:45Z</time>
      </trkpt>
      <trkpt lat="43.21815" lon="5.48779">
        <ele>221.9</ele>
        <time>2025-10-18T09:37:46Z</time>
      </trkpt>
      <trkpt lat="43.21816" lon="5.48779">
        <ele>222</ele>
        <time>2025-10-18T09:37:47Z</time>
      </trkpt>
      <trkpt lat="43.21816" lon="5.48779">
        <ele>222.3</ele>
        <time>2025-10-18T09:37:48Z</time>
      </trkpt>
      <trkpt lat="43.21816" lon="5.48779">
        <ele>222.5</ele>
        <time>2025-10-18T09:37:49Z</time>
      </trkpt>
      <trkpt lat="43.21816" lon="5.4878">
        <ele>222.7</ele>
        <time>2025-10-18T09:37:50Z</time>
      </trkpt>
      <trkpt lat="43.21816" lon="5.4878">
        <ele>222.9</ele>
        <time>2025-10-18T09:37:51Z</time>
      </trkpt>
      <trkpt lat="43.21817" lon="5.48781">
        <ele>223.1</ele>
        <time>2025-10-18T09:37:52Z</time>
      </trkpt>
      <trkpt lat="43.21817" lon="5.48781">
        <ele>223.2</ele>
        <time>2025-10-18T09:37:53Z</time>
      </trkpt>
      <trkpt lat="43.21817" lon="5.48781">
        <ele>223.4</ele>
        <time>2025-10-18T09:37:54Z</time>
      </trkpt>
      <trkpt lat="43.21818" lon="5.48782">
        <ele>223.7</ele>
        <time>2025-10-18T09:37:55Z</time>
      </trkpt>
      <trkpt lat="43.21817" lon="5.48783">
        <ele>224</ele>
        <time>2025-10-18T09:37:56Z</time>
      </trkpt>
      <trkpt lat="43.21817" lon="5.48783">
        <ele>224.3</ele>
        <time>2025-10-18T09:37:57Z</time>
      </trkpt>
      <trkpt lat="43.21817" lon="5.48782">
        <ele>224.6</ele>
        <time>2025-10-18T09:37:58Z</time>
      </trkpt>
      <trkpt lat="43.21817" lon="5.48782">
        <ele>224.8</ele>
        <time>2025-10-18T09:37:59Z</time>
      </trkpt>
      <trkpt lat="43.21817" lon="5.48782">
        <ele>225</ele>
        <time>2025-10-18T09:38:00Z</time>
      </trkpt>
      <trkpt lat="43.21818" lon="5.48782">
        <ele>225.2</ele>
        <time>2025-10-18T09:38:01Z</time>
      </trkpt>
      <trkpt lat="43.21818" lon="5.48781">
        <ele>225.2</ele>
        <time>2025-10-18T09:38:02Z</time>
      </trkpt>
      <trkpt lat="43.21818" lon="5.48781">
        <ele>225.3</ele>
        <time>2025-10-18T09:38:03Z</time>
      </trkpt>
      <trkpt lat="43.21818" lon="5.48781">
        <ele>225.4</ele>
        <time>2025-10-18T09:38:04Z</time>
      </trkpt>
      <trkpt lat="43.21818" lon="5.48781">
        <ele>225.5</ele>
        <time>2025-10-18T09:38:05Z</time>
      </trkpt>
      <trkpt lat="43.21818" lon="5.4878">
        <ele>225.5</ele>
        <time>2025-10-18T09:38:06Z</time>
      </trkpt>
      <trkpt lat="43.21818" lon="5.4878">
        <ele>225.6</ele>
        <time>2025-10-18T09:38:07Z</time>
      </trkpt>
      <trkpt lat="43.21818" lon="5.4878">
        <ele>225.6</ele>
        <time>2025-10-18T09:38:08Z</time>
      </trkpt>
      <trkpt lat="43.21818" lon="5.4878">
        <ele>225.7</ele>
        <time>2025-10-18T09:38:09Z</time>
      </trkpt>
      <trkpt lat="43.21818" lon="5.4878">
        <ele>225.7</ele>
        <time>2025-10-18T09:38:10Z</time>
      </trkpt>
      <trkpt lat="43.21818" lon="5.4878">
        <ele>225.7</ele>
        <time>2025-10-18T09:38:11Z</time>
      </trkpt>
      <trkpt lat="43.21818" lon="5.4878">
        <ele>225.7</ele>
        <time>2025-10-18T09:38:12Z</time>
      </trkpt>
      <trkpt lat="43.21818" lon="5.4878">
        <ele>225.8</ele>
        <time>2025-10-18T09:38:13Z</time>
      </trkpt>
      <trkpt lat="43.21818" lon="5.4878">
        <ele>225.9</ele>
        <time>2025-10-18T09:38:14Z</time>
      </trkpt>
      <trkpt lat="43.21818" lon="5.4878">
        <ele>226</ele>
        <time>2025-10-18T09:38:15Z</time>
      </trkpt>
      <trkpt lat="43.21818" lon="5.4878">
        <ele>226</ele>
        <time>2025-10-18T09:38:16Z</time>
      </trkpt>
      <trkpt lat="43.21819" lon="5.48781">
        <ele>226.1</ele>
        <time>2025-10-18T09:38:17Z</time>
      </trkpt>
      <trkpt lat="43.21819" lon="5.48781">
        <ele>226.2</ele>
        <time>2025-10-18T09:38:18Z</time>
      </trkpt>
      <trkpt lat="43.21819" lon="5.48781">
        <ele>226.3</ele>
        <time>2025-10-18T09:38:19Z</time>
      </trkpt>
      <trkpt lat="43.21819" lon="5.48781">
        <ele>226.4</ele>
        <time>2025-10-18T09:38:20Z</time>
      </trkpt>
      <trkpt lat="43.21819" lon="5.4878">
        <ele>226.5</ele>
        <time>2025-10-18T09:38:21Z</time>
      </trkpt>
      <trkpt lat="43.21819" lon="5.48781">
        <ele>226.6</ele>
        <time>2025-10-18T09:38:22Z</time>
      </trkpt>
      <trkpt lat="43.21819" lon="5.48781">
        <ele>226.6</ele>
        <time>2025-10-18T09:38:23Z</time>
      </trkpt>
      <trkpt lat="43.21819" lon="5.48781">
        <ele>226.7</ele>
        <time>2025-10-18T09:38:24Z</time>
      </trkpt>
      <trkpt lat="43.21819" lon="5.4878">
        <ele>226.9</ele>
        <time>2025-10-18T09:38:25Z</time>
      </trkpt>
      <trkpt lat="43.21819" lon="5.48781">
        <ele>227</ele>
        <time>2025-10-18T09:38:26Z</time>
      </trkpt>
      <trkpt lat="43.21819" lon="5.48781">
        <ele>227</ele>
        <time>2025-10-18T09:38:27Z</time>
      </trkpt>
      <trkpt lat="43.21819" lon="5.48781">
        <ele>227.1</ele>
        <time>2025-10-18T09:38:28Z</time>
      </trkpt>
      <trkpt lat="43.21819" lon="5.48781">
        <ele>227.1</ele>
        <time>2025-10-18T09:38:29Z</time>
      </trkpt>
      <trkpt lat="43.21819" lon="5.48782">
        <ele>227.1</ele>
        <time>2025-10-18T09:38:30Z</time>
      </trkpt>
      <trkpt lat="43.21819" lon="5.48782">
        <ele>227.1</ele>
        <time>2025-10-18T09:38:31Z</time>
      </trkpt>
      <trkpt lat="43.2182" lon="5.48782">
        <ele>227.2</ele>
        <time>2025-10-18T09:38:32Z</time>
      </trkpt>
      <trkpt lat="43.2182" lon="5.48782">
        <ele>227.1</ele>
        <time>2025-10-18T09:38:33Z</time>
      </trkpt>
      <trkpt lat="43.2182" lon="5.48782">
        <ele>227.1</ele>
        <time>2025-10-18T09:38:34Z</time>
      </trkpt>
      <trkpt lat="43.2182" lon="5.48782">
        <ele>227.2</ele>
        <time>2025-10-18T09:38:35Z</time>
      </trkpt>
      <trkpt lat="43.2182" lon="5.48782">
        <ele>227.2</ele>
        <time>2025-10-18T09:38:36Z</time>
      </trkpt>
      <trkpt lat="43.21819" lon="5.48782">
        <ele>227.2</ele>
        <time>2025-10-18T09:38:37Z</time>
      </trkpt>
      <trkpt lat="43.21819" lon="5.48782">
        <ele>227.3</ele>
        <time>2025-10-18T09:38:38Z</time>
      </trkpt>
      <trkpt lat="43.21819" lon="5.48782">
        <ele>227.2</ele>
        <time>2025-10-18T09:38:39Z</time>
      </trkpt>
      <trkpt lat="43.21819" lon="5.48782">
        <ele>227.2</ele>
        <time>2025-10-18T09:38:40Z</time>
      </trkpt>
      <trkpt lat="43.21819" lon="5.48783">
        <ele>227.2</ele>
        <time>2025-10-18T09:38:41Z</time>
      </trkpt>
      <trkpt lat="43.21819" lon="5.48783">
        <ele>227.2</ele>
        <time>2025-10-18T09:38:42Z</time>
      </trkpt>
      <trkpt lat="43.21819" lon="5.48783">
        <ele>227.2</ele>
        <time>2025-10-18T09:38:43Z</time>
      </trkpt>
      <trkpt lat="43.21819" lon="5.48784">
        <ele>227.2</ele>
        <time>2025-10-18T09:38:44Z</time>
      </trkpt>
      <trkpt lat="43.21819" lon="5.48784">
        <ele>227.1</ele>
        <time>2025-10-18T09:38:45Z</time>
      </trkpt>
      <trkpt lat="43.21819" lon="5.48783">
        <ele>227.1</ele>
        <time>2025-10-18T09:38:46Z</time>
      </trkpt>
      <trkpt lat="43.21819" lon="5.48783">
        <ele>227.2</ele>
        <time>2025-10-18T09:38:47Z</time>
      </trkpt>
      <trkpt lat="43.21819" lon="5.48783">
        <ele>227.2</ele>
        <time>2025-10-18T09:38:48Z</time>
      </trkpt>
      <trkpt lat="43.21818" lon="5.48784">
        <ele>227.1</ele>
        <time>2025-10-18T09:38:49Z</time>
      </trkpt>
      <trkpt lat="43.21818" lon="5.48784">
        <ele>227.1</ele>
        <time>2025-10-18T09:38:50Z</time>
      </trkpt>
      <trkpt lat="43.21818" lon="5.48784">
        <ele>227.1</ele>
        <time>2025-10-18T09:38:51Z</time>
      </trkpt>
      <trkpt lat="43.21818" lon="5.48784">
        <ele>227</ele>
        <time>2025-10-18T09:38:52Z</time>
      </trkpt>
      <trkpt lat="43.21818" lon="5.48784">
        <ele>227</ele>
        <time>2025-10-18T09:38:53Z</time>
      </trkpt>
      <trkpt lat="43.21818" lon="5.48784">
        <ele>227</ele>
        <time>2025-10-18T09:38:54Z</time>
      </trkpt>
      <trkpt lat="43.21818" lon="5.48784">
        <ele>226.9</ele>
        <time>2025-10-18T09:38:55Z</time>
      </trkpt>
      <trkpt lat="43.21818" lon="5.48784">
        <ele>226.9</ele>
        <time>2025-10-18T09:38:56Z</time>
      </trkpt>
      <trkpt lat="43.21818" lon="5.48784">
        <ele>226.9</ele>
        <time>2025-10-18T09:38:57Z</time>
      </trkpt>
      <trkpt lat="43.21818" lon="5.48784">
        <ele>227</ele>
        <time>2025-10-18T09:38:58Z</time>
      </trkpt>
      <trkpt lat="43.21818" lon="5.48784">
        <ele>227.1</ele>
        <time>2025-10-18T09:38:59Z</time>
      </trkpt>
      <trkpt lat="43.21818" lon="5.48785">
        <ele>227.1</ele>
        <time>2025-10-18T09:39:00Z</time>
      </trkpt>
      <trkpt lat="43.21818" lon="5.48784">
        <ele>226.9</ele>
        <time>2025-10-18T09:39:01Z</time>
      </trkpt>
      <trkpt lat="43.21818" lon="5.48784">
        <ele>226.8</ele>
        <time>2025-10-18T09:39:02Z</time>
      </trkpt>
      <trkpt lat="43.21819" lon="5.48784">
        <ele>226.8</ele>
        <time>2025-10-18T09:39:03Z</time>
      </trkpt>
      <trkpt lat="43.21819" lon="5.48784">
        <ele>226.9</ele>
        <time>2025-10-18T09:39:04Z</time>
      </trkpt>
      <trkpt lat="43.21819" lon="5.48784">
        <ele>226.9</ele>
        <time>2025-10-18T09:39:05Z</time>
      </trkpt>
      <trkpt lat="43.21819" lon="5.48784">
        <ele>226.8</ele>
        <time>2025-10-18T09:39:06Z</time>
      </trkpt>
      <trkpt lat="43.21819" lon="5.48785">
        <ele>226.9</ele>
        <time>2025-10-18T09:39:07Z</time>
      </trkpt>
      <trkpt lat="43.21819" lon="5.48785">
        <ele>226.9</ele>
        <time>2025-10-18T09:39:08Z</time>
      </trkpt>
      <trkpt lat="43.21819" lon="5.48785">
        <ele>226.8</ele>
        <time>2025-10-18T09:39:09Z</time>
      </trkpt>
      <trkpt lat="43.21819" lon="5.48784">
        <ele>226.8</ele>
        <time>2025-10-18T09:39:10Z</time>
      </trkpt>
      <trkpt lat="43.2182" lon="5.48784">
        <ele>226.7</ele>
        <time>2025-10-18T09:39:11Z</time>
      </trkpt>
      <trkpt lat="43.2182" lon="5.48784">
        <ele>226.8</ele>
        <time>2025-10-18T09:39:12Z</time>
      </trkpt>
      <trkpt lat="43.2182" lon="5.48784">
        <ele>226.7</ele>
        <time>2025-10-18T09:39:13Z</time>
      </trkpt>
      <trkpt lat="43.2182" lon="5.48784">
        <ele>226.8</ele>
        <time>2025-10-18T09:39:14Z</time>
      </trkpt>
      <trkpt lat="43.2182" lon="5.48783">
        <ele>226.8</ele>
        <time>2025-10-18T09:39:15Z</time>
      </trkpt>
      <trkpt lat="43.2182" lon="5.48783">
        <ele>226.7</ele>
        <time>2025-10-18T09:39:16Z</time>
      </trkpt>
      <trkpt lat="43.2182" lon="5.48783">
        <ele>226.6</ele>
        <time>2025-10-18T09:39:17Z</time>
      </trkpt>
      <trkpt lat="43.2182" lon="5.48783">
        <ele>226.6</ele>
        <time>2025-10-18T09:39:18Z</time>
      </trkpt>
      <trkpt lat="43.2182" lon="5.48783">
        <ele>226.7</ele>
        <time>2025-10-18T09:39:19Z</time>
      </trkpt>
      <trkpt lat="43.21821" lon="5.48783">
        <ele>226.7</ele>
        <time>2025-10-18T09:39:20Z</time>
      </trkpt>
      <trkpt lat="43.21821" lon="5.48783">
        <ele>226.7</ele>
        <time>2025-10-18T09:39:21Z</time>
      </trkpt>
      <trkpt lat="43.21821" lon="5.48783">
        <ele>226.6</ele>
        <time>2025-10-18T09:39:22Z</time>
      </trkpt>
      <trkpt lat="43.21821" lon="5.48783">
        <ele>226.6</ele>
        <time>2025-10-18T09:39:23Z</time>
      </trkpt>
      <trkpt lat="43.21821" lon="5.48783">
        <ele>226.6</ele>
        <time>2025-10-18T09:39:24Z</time>
      </trkpt>
      <trkpt lat="43.21821" lon="5.48783">
        <ele>226.7</ele>
        <time>2025-10-18T09:39:25Z</time>
      </trkpt>
      <trkpt lat="43.21821" lon="5.48782">
        <ele>226.7</ele>
        <time>2025-10-18T09:39:26Z</time>
      </trkpt>
      <trkpt lat="43.21821" lon="5.48782">
        <ele>226.8</ele>
        <time>2025-10-18T09:39:27Z</time>
      </trkpt>
      <trkpt lat="43.21821" lon="5.48782">
        <ele>226.9</ele>
        <time>2025-10-18T09:39:28Z</time>
      </trkpt>
      <trkpt lat="43.21821" lon="5.48781">
        <ele>226.9</ele>
        <time>2025-10-18T09:39:29Z</time>
      </trkpt>
      <trkpt lat="43.21821" lon="5.48781">
        <ele>226.9</ele>
        <time>2025-10-18T09:39:30Z</time>
      </trkpt>
      <trkpt lat="43.21821" lon="5.48781">
        <ele>226.9</ele>
        <time>2025-10-18T09:39:31Z</time>
      </trkpt>
      <trkpt lat="43.21821" lon="5.48782">
        <ele>226.8</ele>
        <time>2025-10-18T09:39:32Z</time>
      </trkpt>
      <trkpt lat="43.21821" lon="5.48782">
        <ele>226.8</ele>
        <time>2025-10-18T09:39:33Z</time>
      </trkpt>
      <trkpt lat="43.2182" lon="5.48782">
        <ele>226.8</ele>
        <time>2025-10-18T09:39:34Z</time>
      </trkpt>
      <trkpt lat="43.2182" lon="5.48783">
        <ele>226.8</ele>
        <time>2025-10-18T09:39:35Z</time>
      </trkpt>
      <trkpt lat="43.2182" lon="5.48783">
        <ele>226.8</ele>
        <time>2025-10-18T09:39:36Z</time>
      </trkpt>
      <trkpt lat="43.2182" lon="5.48783">
        <ele>226.8</ele>
        <time>2025-10-18T09:39:37Z</time>
      </trkpt>
      <trkpt lat="43.2182" lon="5.48783">
        <ele>226.8</ele>
        <time>2025-10-18T09:39:38Z</time>
      </trkpt>
      <trkpt lat="43.2182" lon="5.48782">
        <ele>226.9</ele>
        <time>2025-10-18T09:39:39Z</time>
      </trkpt>
      <trkpt lat="43.2182" lon="5.48783">
        <ele>227</ele>
        <time>2025-10-18T09:39:40Z</time>
      </trkpt>
      <trkpt lat="43.2182" lon="5.48783">
        <ele>227.1</ele>
        <time>2025-10-18T09:39:41Z</time>
      </trkpt>
      <trkpt lat="43.2182" lon="5.48783">
        <ele>227.1</ele>
        <time>2025-10-18T09:39:42Z</time>
      </trkpt>
      <trkpt lat="43.2182" lon="5.48783">
        <ele>227.1</ele>
        <time>2025-10-18T09:39:43Z</time>
      </trkpt>
      <trkpt lat="43.2182" lon="5.48783">
        <ele>227.1</ele>
        <time>2025-10-18T09:39:44Z</time>
      </trkpt>
      <trkpt lat="43.2182" lon="5.48783">
        <ele>227.1</ele>
        <time>2025-10-18T09:39:45Z</time>
      </trkpt>
      <trkpt lat="43.2182" lon="5.48783">
        <ele>227.1</ele>
        <time>2025-10-18T09:39:46Z</time>
      </trkpt>
      <trkpt lat="43.2182" lon="5.48783">
        <ele>227.1</ele>
        <time>2025-10-18T09:39:47Z</time>
      </trkpt>
      <trkpt lat="43.21821" lon="5.48784">
        <ele>227.2</ele>
        <time>2025-10-18T09:39:48Z</time>
      </trkpt>
      <trkpt lat="43.21821" lon="5.48784">
        <ele>227.2</ele>
        <time>2025-10-18T09:39:49Z</time>
      </trkpt>
      <trkpt lat="43.21821" lon="5.48785">
        <ele>227.2</ele>
        <time>2025-10-18T09:39:50Z</time>
      </trkpt>
      <trkpt lat="43.2182" lon="5.48785">
        <ele>227.2</ele>
        <time>2025-10-18T09:39:51Z</time>
      </trkpt>
      <trkpt lat="43.2182" lon="5.48785">
        <ele>227.3</ele>
        <time>2025-10-18T09:39:52Z</time>
      </trkpt>
      <trkpt lat="43.2182" lon="5.48785">
        <ele>227.3</ele>
        <time>2025-10-18T09:39:53Z</time>
      </trkpt>
      <trkpt lat="43.2182" lon="5.48786">
        <ele>227.3</ele>
        <time>2025-10-18T09:39:54Z</time>
      </trkpt>
      <trkpt lat="43.2182" lon="5.48786">
        <ele>227.2</ele>
        <time>2025-10-18T09:39:55Z</time>
      </trkpt>
      <trkpt lat="43.2182" lon="5.48786">
        <ele>227.2</ele>
        <time>2025-10-18T09:39:56Z</time>
      </trkpt>
      <trkpt lat="43.2182" lon="5.48786">
        <ele>227.2</ele>
        <time>2025-10-18T09:39:57Z</time>
      </trkpt>
      <trkpt lat="43.2182" lon="5.48786">
        <ele>227.3</ele>
        <time>2025-10-18T09:39:58Z</time>
      </trkpt>
      <trkpt lat="43.2182" lon="5.48787">
        <ele>227.4</ele>
        <time>2025-10-18T09:39:59Z</time>
      </trkpt>
      <trkpt lat="43.2182" lon="5.48787">
        <ele>227.5</ele>
        <time>2025-10-18T09:40:00Z</time>
      </trkpt>
      <trkpt lat="43.2182" lon="5.48787">
        <ele>227.5</ele>
        <time>2025-10-18T09:40:01Z</time>
      </trkpt>
      <trkpt lat="43.2182" lon="5.48787">
        <ele>227.6</ele>
        <time>2025-10-18T09:40:02Z</time>
      </trkpt>
      <trkpt lat="43.2182" lon="5.48787">
        <ele>227.6</ele>
        <time>2025-10-18T09:40:03Z</time>
      </trkpt>
      <trkpt lat="43.2182" lon="5.48787">
        <ele>227.6</ele>
        <time>2025-10-18T09:40:04Z</time>
      </trkpt>
      <trkpt lat="43.2182" lon="5.48788">
        <ele>227.6</ele>
        <time>2025-10-18T09:40:05Z</time>
      </trkpt>
      <trkpt lat="43.2182" lon="5.48788">
        <ele>227.5</ele>
        <time>2025-10-18T09:40:06Z</time>
      </trkpt>
      <trkpt lat="43.2182" lon="5.48788">
        <ele>227.5</ele>
        <time>2025-10-18T09:40:07Z</time>
      </trkpt>
      <trkpt lat="43.2182" lon="5.48788">
        <ele>227.5</ele>
        <time>2025-10-18T09:40:08Z</time>
      </trkpt>
      <trkpt lat="43.2182" lon="5.48788">
        <ele>227.4</ele>
        <time>2025-10-18T09:40:09Z</time>
      </trkpt>
      <trkpt lat="43.2182" lon="5.48788">
        <ele>227.4</ele>
        <time>2025-10-18T09:40:10Z</time>
      </trkpt>
      <trkpt lat="43.2182" lon="5.48788">
        <ele>227.3</ele>
        <time>2025-10-18T09:40:11Z</time>
      </trkpt>
      <trkpt lat="43.21821" lon="5.48788">
        <ele>227.3</ele>
        <time>2025-10-18T09:40:12Z</time>
      </trkpt>
      <trkpt lat="43.2182" lon="5.48788">
        <ele>227.2</ele>
        <time>2025-10-18T09:40:13Z</time>
      </trkpt>
      <trkpt lat="43.2182" lon="5.48788">
        <ele>227.1</ele>
        <time>2025-10-18T09:40:14Z</time>
      </trkpt>
      <trkpt lat="43.2182" lon="5.48789">
        <ele>227.2</ele>
        <time>2025-10-18T09:40:15Z</time>
      </trkpt>
      <trkpt lat="43.2182" lon="5.48789">
        <ele>227.2</ele>
        <time>2025-10-18T09:40:16Z</time>
      </trkpt>
      <trkpt lat="43.2182" lon="5.48789">
        <ele>227.2</ele>
        <time>2025-10-18T09:40:17Z</time>
      </trkpt>
      <trkpt lat="43.2182" lon="5.48789">
        <ele>227.2</ele>
        <time>2025-10-18T09:40:18Z</time>
      </trkpt>
      <trkpt lat="43.2182" lon="5.48789">
        <ele>227.2</ele>
        <time>2025-10-18T09:40:19Z</time>
      </trkpt>
      <trkpt lat="43.2182" lon="5.48789">
        <ele>227.3</ele>
        <time>2025-10-18T09:40:20Z</time>
      </trkpt>
      <trkpt lat="43.2182" lon="5.48789">
        <ele>227.3</ele>
        <time>2025-10-18T09:40:21Z</time>
      </trkpt>
      <trkpt lat="43.2182" lon="5.48789">
        <ele>227.2</ele>
        <time>2025-10-18T09:40:22Z</time>
      </trkpt>
      <trkpt lat="43.2182" lon="5.48789">
        <ele>227.2</ele>
        <time>2025-10-18T09:40:23Z</time>
      </trkpt>
      <trkpt lat="43.21819" lon="5.48788">
        <ele>227.1</ele>
        <time>2025-10-18T09:40:24Z</time>
      </trkpt>
      <trkpt lat="43.2182" lon="5.48789">
        <ele>227.1</ele>
        <time>2025-10-18T09:40:25Z</time>
      </trkpt>
      <trkpt lat="43.2182" lon="5.48789">
        <ele>227</ele>
        <time>2025-10-18T09:40:26Z</time>
      </trkpt>
      <trkpt lat="43.2182" lon="5.48789">
        <ele>227.1</ele>
        <time>2025-10-18T09:40:27Z</time>
      </trkpt>
      <trkpt lat="43.21819" lon="5.48789">
        <ele>227.1</ele>
        <time>2025-10-18T09:40:28Z</time>
      </trkpt>
      <trkpt lat="43.21819" lon="5.48789">
        <ele>227</ele>
        <time>2025-10-18T09:40:29Z</time>
      </trkpt>
      <trkpt lat="43.21819" lon="5.48789">
        <ele>227</ele>
        <time>2025-10-18T09:40:30Z</time>
      </trkpt>
      <trkpt lat="43.21819" lon="5.48789">
        <ele>227.1</ele>
        <time>2025-10-18T09:40:31Z</time>
      </trkpt>
      <trkpt lat="43.21819" lon="5.48789">
        <ele>227.1</ele>
        <time>2025-10-18T09:40:32Z</time>
      </trkpt>
      <trkpt lat="43.21819" lon="5.48789">
        <ele>227.1</ele>
        <time>2025-10-18T09:40:33Z</time>
      </trkpt>
      <trkpt lat="43.21818" lon="5.48789">
        <ele>227.2</ele>
        <time>2025-10-18T09:40:34Z</time>
      </trkpt>
      <trkpt lat="43.21818" lon="5.48788">
        <ele>227.2</ele>
        <time>2025-10-18T09:40:35Z</time>
      </trkpt>
      <trkpt lat="43.21818" lon="5.48788">
        <ele>227.2</ele>
        <time>2025-10-18T09:40:36Z</time>
      </trkpt>
      <trkpt lat="43.21818" lon="5.48788">
        <ele>227.3</ele>
        <time>2025-10-18T09:40:37Z</time>
      </trkpt>
      <trkpt lat="43.21818" lon="5.48788">
        <ele>227.3</ele>
        <time>2025-10-18T09:40:38Z</time>
      </trkpt>
      <trkpt lat="43.21818" lon="5.48788">
        <ele>227.3</ele>
        <time>2025-10-18T09:40:39Z</time>
      </trkpt>
      <trkpt lat="43.21818" lon="5.48788">
        <ele>227.2</ele>
        <time>2025-10-18T09:40:40Z</time>
      </trkpt>
      <trkpt lat="43.21819" lon="5.48788">
        <ele>227.2</ele>
        <time>2025-10-18T09:40:41Z</time>
      </trkpt>
      <trkpt lat="43.21819" lon="5.48788">
        <ele>227.2</ele>
        <time>2025-10-18T09:40:42Z</time>
      </trkpt>
      <trkpt lat="43.21818" lon="5.48788">
        <ele>227.3</ele>
        <time>2025-10-18T09:40:43Z</time>
      </trkpt>
      <trkpt lat="43.21819" lon="5.48788">
        <ele>227.3</ele>
        <time>2025-10-18T09:40:44Z</time>
      </trkpt>
      <trkpt lat="43.21819" lon="5.48788">
        <ele>227.3</ele>
        <time>2025-10-18T09:40:45Z</time>
      </trkpt>
      <trkpt lat="43.21818" lon="5.48788">
        <ele>227.3</ele>
        <time>2025-10-18T09:40:46Z</time>
      </trkpt>
      <trkpt lat="43.21818" lon="5.48788">
        <ele>227.2</ele>
        <time>2025-10-18T09:40:47Z</time>
      </trkpt>
      <trkpt lat="43.21819" lon="5.48788">
        <ele>227.1</ele>
        <time>2025-10-18T09:40:48Z</time>
      </trkpt>
      <trkpt lat="43.21819" lon="5.48787">
        <ele>227.1</ele>
        <time>2025-10-18T09:40:49Z</time>
      </trkpt>
      <trkpt lat="43.21819" lon="5.48787">
        <ele>227</ele>
        <time>2025-10-18T09:40:50Z</time>
      </trkpt>
      <trkpt lat="43.21819" lon="5.48787">
        <ele>227</ele>
        <time>2025-10-18T09:40:51Z</time>
      </trkpt>
      <trkpt lat="43.21819" lon="5.48788">
        <ele>227</ele>
        <time>2025-10-18T09:40:52Z</time>
      </trkpt>
      <trkpt lat="43.21819" lon="5.48788">
        <ele>227</ele>
        <time>2025-10-18T09:40:53Z</time>
      </trkpt>
      <trkpt lat="43.21819" lon="5.48788">
        <ele>227</ele>
        <time>2025-10-18T09:40:54Z</time>
      </trkpt>
      <trkpt lat="43.21819" lon="5.48788">
        <ele>227</ele>
        <time>2025-10-18T09:40:55Z</time>
      </trkpt>
      <trkpt lat="43.21819" lon="5.48788">
        <ele>227</ele>
        <time>2025-10-18T09:40:56Z</time>
      </trkpt>
      <trkpt lat="43.21819" lon="5.48788">
        <ele>227</ele>
        <time>2025-10-18T09:40:57Z</time>
      </trkpt>
      <trkpt lat="43.21819" lon="5.48788">
        <ele>227</ele>
        <time>2025-10-18T09:40:58Z</time>
      </trkpt>
      <trkpt lat="43.21819" lon="5.48788">
        <ele>227</ele>
        <time>2025-10-18T09:40:59Z</time>
      </trkpt>
      <trkpt lat="43.21819" lon="5.48788">
        <ele>227</ele>
        <time>2025-10-18T09:41:00Z</time>
      </trkpt>
      <trkpt lat="43.21819" lon="5.48788">
        <ele>227</ele>
        <time>2025-10-18T09:41:01Z</time>
      </trkpt>
      <trkpt lat="43.21819" lon="5.48788">
        <ele>227</ele>
        <time>2025-10-18T09:41:02Z</time>
      </trkpt>
      <trkpt lat="43.21819" lon="5.48789">
        <ele>227</ele>
        <time>2025-10-18T09:41:03Z</time>
      </trkpt>
      <trkpt lat="43.21819" lon="5.48789">
        <ele>227</ele>
        <time>2025-10-18T09:41:04Z</time>
      </trkpt>
      <trkpt lat="43.21818" lon="5.48789">
        <ele>227</ele>
        <time>2025-10-18T09:41:05Z</time>
      </trkpt>
      <trkpt lat="43.21818" lon="5.48789">
        <ele>227</ele>
        <time>2025-10-18T09:41:06Z</time>
      </trkpt>
      <trkpt lat="43.21818" lon="5.48789">
        <ele>227</ele>
        <time>2025-10-18T09:41:07Z</time>
      </trkpt>
      <trkpt lat="43.21818" lon="5.4879">
        <ele>227</ele>
        <time>2025-10-18T09:41:08Z</time>
      </trkpt>
      <trkpt lat="43.21818" lon="5.4879">
        <ele>227.1</ele>
        <time>2025-10-18T09:41:09Z</time>
      </trkpt>
      <trkpt lat="43.21818" lon="5.4879">
        <ele>227.1</ele>
        <time>2025-10-18T09:41:10Z</time>
      </trkpt>
      <trkpt lat="43.21818" lon="5.4879">
        <ele>227.1</ele>
        <time>2025-10-18T09:41:11Z</time>
      </trkpt>
      <trkpt lat="43.21818" lon="5.4879">
        <ele>227.1</ele>
        <time>2025-10-18T09:41:12Z</time>
      </trkpt>
      <trkpt lat="43.21818" lon="5.4879">
        <ele>227.1</ele>
        <time>2025-10-18T09:41:13Z</time>
      </trkpt>
      <trkpt lat="43.21818" lon="5.4879">
        <ele>227.1</ele>
        <time>2025-10-18T09:41:14Z</time>
      </trkpt>
      <trkpt lat="43.21818" lon="5.4879">
        <ele>227</ele>
        <time>2025-10-18T09:41:15Z</time>
      </trkpt>
      <trkpt lat="43.21818" lon="5.48791">
        <ele>226.9</ele>
        <time>2025-10-18T09:41:16Z</time>
      </trkpt>
      <trkpt lat="43.21818" lon="5.48791">
        <ele>226.9</ele>
        <time>2025-10-18T09:41:17Z</time>
      </trkpt>
      <trkpt lat="43.21818" lon="5.48791">
        <ele>226.8</ele>
        <time>2025-10-18T09:41:18Z</time>
      </trkpt>
      <trkpt lat="43.21818" lon="5.48792">
        <ele>226.8</ele>
        <time>2025-10-18T09:41:19Z</time>
      </trkpt>
      <trkpt lat="43.21818" lon="5.48792">
        <ele>226.9</ele>
        <time>2025-10-18T09:41:20Z</time>
      </trkpt>
      <trkpt lat="43.21818" lon="5.48792">
        <ele>226.9</ele>
        <time>2025-10-18T09:41:21Z</time>
      </trkpt>
      <trkpt lat="43.21818" lon="5.48792">
        <ele>226.9</ele>
        <time>2025-10-18T09:41:22Z</time>
      </trkpt>
      <trkpt lat="43.21818" lon="5.48792">
        <ele>227</ele>
        <time>2025-10-18T09:41:23Z</time>
      </trkpt>
      <trkpt lat="43.21818" lon="5.48793">
        <ele>227</ele>
        <time>2025-10-18T09:41:24Z</time>
      </trkpt>
      <trkpt lat="43.21818" lon="5.48793">
        <ele>227.1</ele>
        <time>2025-10-18T09:41:25Z</time>
      </trkpt>
      <trkpt lat="43.21818" lon="5.48793">
        <ele>227.1</ele>
        <time>2025-10-18T09:41:26Z</time>
      </trkpt>
      <trkpt lat="43.21818" lon="5.48793">
        <ele>227.1</ele>
        <time>2025-10-18T09:41:27Z</time>
      </trkpt>
      <trkpt lat="43.21818" lon="5.48793">
        <ele>227.1</ele>
        <time>2025-10-18T09:41:28Z</time>
      </trkpt>
      <trkpt lat="43.21817" lon="5.48793">
        <ele>227</ele>
        <time>2025-10-18T09:41:29Z</time>
      </trkpt>
      <trkpt lat="43.21817" lon="5.48793">
        <ele>227</ele>
        <time>2025-10-18T09:41:30Z</time>
      </trkpt>
      <trkpt lat="43.21817" lon="5.48793">
        <ele>227</ele>
        <time>2025-10-18T09:41:31Z</time>
      </trkpt>
      <trkpt lat="43.21817" lon="5.48793">
        <ele>227</ele>
        <time>2025-10-18T09:41:32Z</time>
      </trkpt>
      <trkpt lat="43.21817" lon="5.48793">
        <ele>227.1</ele>
        <time>2025-10-18T09:41:33Z</time>
      </trkpt>
      <trkpt lat="43.21817" lon="5.48793">
        <ele>227.2</ele>
        <time>2025-10-18T09:41:34Z</time>
      </trkpt>
      <trkpt lat="43.21817" lon="5.48793">
        <ele>227.2</ele>
        <time>2025-10-18T09:41:35Z</time>
      </trkpt>
      <trkpt lat="43.21818" lon="5.48793">
        <ele>227.2</ele>
        <time>2025-10-18T09:41:36Z</time>
      </trkpt>
      <trkpt lat="43.21818" lon="5.48793">
        <ele>227.2</ele>
        <time>2025-10-18T09:41:37Z</time>
      </trkpt>
      <trkpt lat="43.21818" lon="5.48793">
        <ele>227.2</ele>
        <time>2025-10-18T09:41:38Z</time>
      </trkpt>
      <trkpt lat="43.21817" lon="5.48793">
        <ele>227.2</ele>
        <time>2025-10-18T09:41:39Z</time>
      </trkpt>
      <trkpt lat="43.21818" lon="5.48793">
        <ele>227.1</ele>
        <time>2025-10-18T09:41:40Z</time>
      </trkpt>
      <trkpt lat="43.21818" lon="5.48793">
        <ele>227</ele>
        <time>2025-10-18T09:41:41Z</time>
      </trkpt>
      <trkpt lat="43.21818" lon="5.48793">
        <ele>227</ele>
        <time>2025-10-18T09:41:42Z</time>
      </trkpt>
      <trkpt lat="43.21818" lon="5.48793">
        <ele>227</ele>
        <time>2025-10-18T09:41:43Z</time>
      </trkpt>
      <trkpt lat="43.21819" lon="5.48793">
        <ele>227</ele>
        <time>2025-10-18T09:41:44Z</time>
      </trkpt>
      <trkpt lat="43.21819" lon="5.48793">
        <ele>226.9</ele>
        <time>2025-10-18T09:41:45Z</time>
      </trkpt>
      <trkpt lat="43.2182" lon="5.48794">
        <ele>226.9</ele>
        <time>2025-10-18T09:41:46Z</time>
      </trkpt>
      <trkpt lat="43.2182" lon="5.48794">
        <ele>226.9</ele>
        <time>2025-10-18T09:41:47Z</time>
      </trkpt>
      <trkpt lat="43.2182" lon="5.48794">
        <ele>226.9</ele>
        <time>2025-10-18T09:41:48Z</time>
      </trkpt>
      <trkpt lat="43.2182" lon="5.48794">
        <ele>226.9</ele>
        <time>2025-10-18T09:41:49Z</time>
      </trkpt>
      <trkpt lat="43.2182" lon="5.48794">
        <ele>226.8</ele>
        <time>2025-10-18T09:41:50Z</time>
      </trkpt>
      <trkpt lat="43.2182" lon="5.48794">
        <ele>227</ele>
        <time>2025-10-18T09:41:51Z</time>
      </trkpt>
      <trkpt lat="43.2182" lon="5.48794">
        <ele>227</ele>
        <time>2025-10-18T09:41:52Z</time>
      </trkpt>
      <trkpt lat="43.2182" lon="5.48795">
        <ele>227</ele>
        <time>2025-10-18T09:41:53Z</time>
      </trkpt>
      <trkpt lat="43.2182" lon="5.48795">
        <ele>227.1</ele>
        <time>2025-10-18T09:41:54Z</time>
      </trkpt>
      <trkpt lat="43.2182" lon="5.48794">
        <ele>227.1</ele>
        <time>2025-10-18T09:41:55Z</time>
      </trkpt>
      <trkpt lat="43.2182" lon="5.48794">
        <ele>227.1</ele>
        <time>2025-10-18T09:41:56Z</time>
      </trkpt>
      <trkpt lat="43.21821" lon="5.48794">
        <ele>227</ele>
        <time>2025-10-18T09:41:57Z</time>
      </trkpt>
      <trkpt lat="43.21821" lon="5.48793">
        <ele>227.1</ele>
        <time>2025-10-18T09:41:58Z</time>
      </trkpt>
      <trkpt lat="43.21821" lon="5.48792">
        <ele>227.2</ele>
        <time>2025-10-18T09:41:59Z</time>
      </trkpt>
      <trkpt lat="43.21822" lon="5.48792">
        <ele>227.2</ele>
        <time>2025-10-18T09:42:00Z</time>
      </trkpt>
      <trkpt lat="43.21822" lon="5.48792">
        <ele>227.1</ele>
        <time>2025-10-18T09:42:01Z</time>
      </trkpt>
      <trkpt lat="43.21822" lon="5.48792">
        <ele>227</ele>
        <time>2025-10-18T09:42:02Z</time>
      </trkpt>
      <trkpt lat="43.21821" lon="5.48791">
        <ele>226.9</ele>
        <time>2025-10-18T09:42:03Z</time>
      </trkpt>
      <trkpt lat="43.21821" lon="5.48791">
        <ele>226.8</ele>
        <time>2025-10-18T09:42:04Z</time>
      </trkpt>
      <trkpt lat="43.21822" lon="5.48791">
        <ele>226.7</ele>
        <time>2025-10-18T09:42:05Z</time>
      </trkpt>
      <trkpt lat="43.21822" lon="5.48791">
        <ele>226.8</ele>
        <time>2025-10-18T09:42:06Z</time>
      </trkpt>
      <trkpt lat="43.21822" lon="5.48791">
        <ele>226.8</ele>
        <time>2025-10-18T09:42:07Z</time>
      </trkpt>
      <trkpt lat="43.21822" lon="5.4879">
        <ele>226.8</ele>
        <time>2025-10-18T09:42:08Z</time>
      </trkpt>
      <trkpt lat="43.21822" lon="5.4879">
        <ele>226.8</ele>
        <time>2025-10-18T09:42:09Z</time>
      </trkpt>
      <trkpt lat="43.21822" lon="5.4879">
        <ele>226.8</ele>
        <time>2025-10-18T09:42:10Z</time>
      </trkpt>
      <trkpt lat="43.21823" lon="5.48789">
        <ele>226.8</ele>
        <time>2025-10-18T09:42:11Z</time>
      </trkpt>
      <trkpt lat="43.21823" lon="5.4879">
        <ele>226.8</ele>
        <time>2025-10-18T09:42:12Z</time>
      </trkpt>
      <trkpt lat="43.21824" lon="5.4879">
        <ele>226.8</ele>
        <time>2025-10-18T09:42:13Z</time>
      </trkpt>
      <trkpt lat="43.21824" lon="5.4879">
        <ele>226.8</ele>
        <time>2025-10-18T09:42:14Z</time>
      </trkpt>
      <trkpt lat="43.21824" lon="5.48789">
        <ele>226.8</ele>
        <time>2025-10-18T09:42:15Z</time>
      </trkpt>
      <trkpt lat="43.21824" lon="5.48789">
        <ele>226.8</ele>
        <time>2025-10-18T09:42:16Z</time>
      </trkpt>
      <trkpt lat="43.21824" lon="5.48789">
        <ele>226.8</ele>
        <time>2025-10-18T09:42:17Z</time>
      </trkpt>
      <trkpt lat="43.21825" lon="5.48789">
        <ele>226.9</ele>
        <time>2025-10-18T09:42:18Z</time>
      </trkpt>
      <trkpt lat="43.21825" lon="5.48789">
        <ele>226.9</ele>
        <time>2025-10-18T09:42:19Z</time>
      </trkpt>
      <trkpt lat="43.21825" lon="5.48789">
        <ele>226.9</ele>
        <time>2025-10-18T09:42:20Z</time>
      </trkpt>
      <trkpt lat="43.21825" lon="5.48788">
        <ele>226.9</ele>
        <time>2025-10-18T09:42:21Z</time>
      </trkpt>
      <trkpt lat="43.21825" lon="5.48788">
        <ele>226.9</ele>
        <time>2025-10-18T09:42:22Z</time>
      </trkpt>
      <trkpt lat="43.21825" lon="5.48788">
        <ele>226.9</ele>
        <time>2025-10-18T09:42:23Z</time>
      </trkpt>
      <trkpt lat="43.21826" lon="5.48787">
        <ele>227</ele>
        <time>2025-10-18T09:42:24Z</time>
      </trkpt>
      <trkpt lat="43.21826" lon="5.48787">
        <ele>227</ele>
        <time>2025-10-18T09:42:25Z</time>
      </trkpt>
      <trkpt lat="43.21826" lon="5.48788">
        <ele>227.1</ele>
        <time>2025-10-18T09:42:26Z</time>
      </trkpt>
      <trkpt lat="43.21826" lon="5.48788">
        <ele>227.1</ele>
        <time>2025-10-18T09:42:27Z</time>
      </trkpt>
      <trkpt lat="43.21825" lon="5.48788">
        <ele>227.1</ele>
        <time>2025-10-18T09:42:28Z</time>
      </trkpt>
      <trkpt lat="43.21825" lon="5.48787">
        <ele>227.1</ele>
        <time>2025-10-18T09:42:29Z</time>
      </trkpt>
      <trkpt lat="43.21825" lon="5.48787">
        <ele>227.1</ele>
        <time>2025-10-18T09:42:30Z</time>
      </trkpt>
      <trkpt lat="43.21825" lon="5.48787">
        <ele>227.2</ele>
        <time>2025-10-18T09:42:31Z</time>
      </trkpt>
      <trkpt lat="43.21825" lon="5.48787">
        <ele>227.2</ele>
        <time>2025-10-18T09:42:32Z</time>
      </trkpt>
      <trkpt lat="43.21825" lon="5.48787">
        <ele>227.2</ele>
        <time>2025-10-18T09:42:33Z</time>
      </trkpt>
      <trkpt lat="43.21825" lon="5.48787">
        <ele>227.3</ele>
        <time>2025-10-18T09:42:34Z</time>
      </trkpt>
      <trkpt lat="43.21825" lon="5.48787">
        <ele>227.3</ele>
        <time>2025-10-18T09:42:35Z</time>
      </trkpt>
      <trkpt lat="43.21825" lon="5.48787">
        <ele>227.3</ele>
        <time>2025-10-18T09:42:36Z</time>
      </trkpt>
      <trkpt lat="43.21825" lon="5.48787">
        <ele>227.3</ele>
        <time>2025-10-18T09:42:37Z</time>
      </trkpt>
      <trkpt lat="43.21825" lon="5.48787">
        <ele>227.1</ele>
        <time>2025-10-18T09:42:38Z</time>
      </trkpt>
      <trkpt lat="43.21825" lon="5.48787">
        <ele>227.2</ele>
        <time>2025-10-18T09:42:39Z</time>
      </trkpt>
      <trkpt lat="43.21825" lon="5.48787">
        <ele>227.2</ele>
        <time>2025-10-18T09:42:40Z</time>
      </trkpt>
      <trkpt lat="43.21825" lon="5.48787">
        <ele>227.3</ele>
        <time>2025-10-18T09:42:41Z</time>
      </trkpt>
      <trkpt lat="43.21825" lon="5.48786">
        <ele>227.3</ele>
        <time>2025-10-18T09:42:42Z</time>
      </trkpt>
      <trkpt lat="43.21825" lon="5.48786">
        <ele>227.2</ele>
        <time>2025-10-18T09:42:43Z</time>
      </trkpt>
      <trkpt lat="43.21825" lon="5.48786">
        <ele>227.1</ele>
        <time>2025-10-18T09:42:44Z</time>
      </trkpt>
      <trkpt lat="43.21825" lon="5.48786">
        <ele>227.1</ele>
        <time>2025-10-18T09:42:45Z</time>
      </trkpt>
      <trkpt lat="43.21825" lon="5.48786">
        <ele>227.1</ele>
        <time>2025-10-18T09:42:46Z</time>
      </trkpt>
      <trkpt lat="43.21825" lon="5.48786">
        <ele>227</ele>
        <time>2025-10-18T09:42:47Z</time>
      </trkpt>
      <trkpt lat="43.21825" lon="5.48786">
        <ele>227.1</ele>
        <time>2025-10-18T09:42:48Z</time>
      </trkpt>
      <trkpt lat="43.21825" lon="5.48786">
        <ele>227.1</ele>
        <time>2025-10-18T09:42:49Z</time>
      </trkpt>
      <trkpt lat="43.21824" lon="5.48786">
        <ele>227</ele>
        <time>2025-10-18T09:42:50Z</time>
      </trkpt>
      <trkpt lat="43.21824" lon="5.48786">
        <ele>227</ele>
        <time>2025-10-18T09:42:51Z</time>
      </trkpt>
      <trkpt lat="43.21824" lon="5.48786">
        <ele>227</ele>
        <time>2025-10-18T09:42:52Z</time>
      </trkpt>
      <trkpt lat="43.21824" lon="5.48786">
        <ele>226.9</ele>
        <time>2025-10-18T09:42:53Z</time>
      </trkpt>
      <trkpt lat="43.21825" lon="5.48786">
        <ele>227</ele>
        <time>2025-10-18T09:42:54Z</time>
      </trkpt>
      <trkpt lat="43.21825" lon="5.48786">
        <ele>226.9</ele>
        <time>2025-10-18T09:42:55Z</time>
      </trkpt>
      <trkpt lat="43.21825" lon="5.48786">
        <ele>226.8</ele>
        <time>2025-10-18T09:42:56Z</time>
      </trkpt>
      <trkpt lat="43.21825" lon="5.48786">
        <ele>226.7</ele>
        <time>2025-10-18T09:42:57Z</time>
      </trkpt>
      <trkpt lat="43.21825" lon="5.48786">
        <ele>226.7</ele>
        <time>2025-10-18T09:42:58Z</time>
      </trkpt>
      <trkpt lat="43.21825" lon="5.48786">
        <ele>226.6</ele>
        <time>2025-10-18T09:42:59Z</time>
      </trkpt>
      <trkpt lat="43.21824" lon="5.48786">
        <ele>226.5</ele>
        <time>2025-10-18T09:43:00Z</time>
      </trkpt>
      <trkpt lat="43.21824" lon="5.48786">
        <ele>226.4</ele>
        <time>2025-10-18T09:43:01Z</time>
      </trkpt>
      <trkpt lat="43.21825" lon="5.48785">
        <ele>226.3</ele>
        <time>2025-10-18T09:43:02Z</time>
      </trkpt>
      <trkpt lat="43.21825" lon="5.48785">
        <ele>226.2</ele>
        <time>2025-10-18T09:43:03Z</time>
      </trkpt>
      <trkpt lat="43.21825" lon="5.48785">
        <ele>226.1</ele>
        <time>2025-10-18T09:43:04Z</time>
      </trkpt>
      <trkpt lat="43.21824" lon="5.48785">
        <ele>225.9</ele>
        <time>2025-10-18T09:43:05Z</time>
      </trkpt>
      <trkpt lat="43.21824" lon="5.48784">
        <ele>225.7</ele>
        <time>2025-10-18T09:43:06Z</time>
      </trkpt>
      <trkpt lat="43.21824" lon="5.48784">
        <ele>225.6</ele>
        <time>2025-10-18T09:43:07Z</time>
      </trkpt>
      <trkpt lat="43.21824" lon="5.48784">
        <ele>225.4</ele>
        <time>2025-10-18T09:43:08Z</time>
      </trkpt>
      <trkpt lat="43.21824" lon="5.48784">
        <ele>225.4</ele>
        <time>2025-10-18T09:43:09Z</time>
      </trkpt>
      <trkpt lat="43.21825" lon="5.48784">
        <ele>225.3</ele>
        <time>2025-10-18T09:43:10Z</time>
      </trkpt>
      <trkpt lat="43.21824" lon="5.48784">
        <ele>225.2</ele>
        <time>2025-10-18T09:43:11Z</time>
      </trkpt>
      <trkpt lat="43.21825" lon="5.48783">
        <ele>225.2</ele>
        <time>2025-10-18T09:43:12Z</time>
      </trkpt>
      <trkpt lat="43.21825" lon="5.48783">
        <ele>225.2</ele>
        <time>2025-10-18T09:43:13Z</time>
      </trkpt>
      <trkpt lat="43.21825" lon="5.48783">
        <ele>225.1</ele>
        <time>2025-10-18T09:43:14Z</time>
      </trkpt>
      <trkpt lat="43.21825" lon="5.48784">
        <ele>224.9</ele>
        <time>2025-10-18T09:43:15Z</time>
      </trkpt>
      <trkpt lat="43.21825" lon="5.48784">
        <ele>224.8</ele>
        <time>2025-10-18T09:43:16Z</time>
      </trkpt>
      <trkpt lat="43.21825" lon="5.48784">
        <ele>224.7</ele>
        <time>2025-10-18T09:43:17Z</time>
      </trkpt>
      <trkpt lat="43.21825" lon="5.48784">
        <ele>224.6</ele>
        <time>2025-10-18T09:43:18Z</time>
      </trkpt>
      <trkpt lat="43.21825" lon="5.48784">
        <ele>224.7</ele>
        <time>2025-10-18T09:43:19Z</time>
      </trkpt>
      <trkpt lat="43.21825" lon="5.48784">
        <ele>224.7</ele>
        <time>2025-10-18T09:43:20Z</time>
      </trkpt>
      <trkpt lat="43.21825" lon="5.48784">
        <ele>224.7</ele>
        <time>2025-10-18T09:43:21Z</time>
      </trkpt>
      <trkpt lat="43.21825" lon="5.48784">
        <ele>224.6</ele>
        <time>2025-10-18T09:43:22Z</time>
      </trkpt>
      <trkpt lat="43.21825" lon="5.48784">
        <ele>224.7</ele>
        <time>2025-10-18T09:43:23Z</time>
      </trkpt>
      <trkpt lat="43.21824" lon="5.48784">
        <ele>224.7</ele>
        <time>2025-10-18T09:43:24Z</time>
      </trkpt>
      <trkpt lat="43.21824" lon="5.48784">
        <ele>224.7</ele>
        <time>2025-10-18T09:43:25Z</time>
      </trkpt>
      <trkpt lat="43.21824" lon="5.48784">
        <ele>224.6</ele>
        <time>2025-10-18T09:43:26Z</time>
      </trkpt>
      <trkpt lat="43.21824" lon="5.48784">
        <ele>224.5</ele>
        <time>2025-10-18T09:43:27Z</time>
      </trkpt>
      <trkpt lat="43.21824" lon="5.48783">
        <ele>224.4</ele>
        <time>2025-10-18T09:43:28Z</time>
      </trkpt>
      <trkpt lat="43.21823" lon="5.48783">
        <ele>224.3</ele>
        <time>2025-10-18T09:43:29Z</time>
      </trkpt>
      <trkpt lat="43.21824" lon="5.48783">
        <ele>224.1</ele>
        <time>2025-10-18T09:43:30Z</time>
      </trkpt>
      <trkpt lat="43.21823" lon="5.48782">
        <ele>224</ele>
        <time>2025-10-18T09:43:31Z</time>
      </trkpt>
      <trkpt lat="43.21823" lon="5.48782">
        <ele>223.9</ele>
        <time>2025-10-18T09:43:32Z</time>
      </trkpt>
      <trkpt lat="43.21823" lon="5.48783">
        <ele>223.7</ele>
        <time>2025-10-18T09:43:33Z</time>
      </trkpt>
      <trkpt lat="43.21823" lon="5.48783">
        <ele>223.6</ele>
        <time>2025-10-18T09:43:34Z</time>
      </trkpt>
      <trkpt lat="43.21823" lon="5.48783">
        <ele>223.5</ele>
        <time>2025-10-18T09:43:35Z</time>
      </trkpt>
      <trkpt lat="43.21823" lon="5.48783">
        <ele>223.4</ele>
        <time>2025-10-18T09:43:36Z</time>
      </trkpt>
      <trkpt lat="43.21823" lon="5.48783">
        <ele>223.4</ele>
        <time>2025-10-18T09:43:37Z</time>
      </trkpt>
      <trkpt lat="43.21823" lon="5.48783">
        <ele>223.4</ele>
        <time>2025-10-18T09:43:38Z</time>
      </trkpt>
      <trkpt lat="43.21823" lon="5.48783">
        <ele>223.4</ele>
        <time>2025-10-18T09:43:39Z</time>
      </trkpt>
      <trkpt lat="43.21823" lon="5.48783">
        <ele>223.3</ele>
        <time>2025-10-18T09:43:40Z</time>
      </trkpt>
      <trkpt lat="43.21823" lon="5.48783">
        <ele>223.3</ele>
        <time>2025-10-18T09:43:41Z</time>
      </trkpt>
      <trkpt lat="43.21823" lon="5.48783">
        <ele>223.3</ele>
        <time>2025-10-18T09:43:42Z</time>
      </trkpt>
      <trkpt lat="43.21823" lon="5.48783">
        <ele>223.3</ele>
        <time>2025-10-18T09:43:43Z</time>
      </trkpt>
      <trkpt lat="43.21822" lon="5.48782">
        <ele>223.2</ele>
        <time>2025-10-18T09:43:44Z</time>
      </trkpt>
      <trkpt lat="43.21821" lon="5.48781">
        <ele>223</ele>
        <time>2025-10-18T09:43:45Z</time>
      </trkpt>
      <trkpt lat="43.2182" lon="5.4878">
        <ele>222.9</ele>
        <time>2025-10-18T09:43:46Z</time>
      </trkpt>
      <trkpt lat="43.21819" lon="5.4878">
        <ele>222.7</ele>
        <time>2025-10-18T09:43:47Z</time>
      </trkpt>
      <trkpt lat="43.21818" lon="5.4878">
        <ele>222.5</ele>
        <time>2025-10-18T09:43:48Z</time>
      </trkpt>
      <trkpt lat="43.21818" lon="5.48779">
        <ele>222.3</ele>
        <time>2025-10-18T09:43:49Z</time>
      </trkpt>
      <trkpt lat="43.21817" lon="5.48779">
        <ele>222.2</ele>
        <time>2025-10-18T09:43:50Z</time>
      </trkpt>
      <trkpt lat="43.21817" lon="5.48779">
        <ele>222</ele>
        <time>2025-10-18T09:43:51Z</time>
      </trkpt>
      <trkpt lat="43.21817" lon="5.48779">
        <ele>221.8</ele>
        <time>2025-10-18T09:43:52Z</time>
      </trkpt>
      <trkpt lat="43.21818" lon="5.48779">
        <ele>221.7</ele>
        <time>2025-10-18T09:43:53Z</time>
      </trkpt>
      <trkpt lat="43.21818" lon="5.48779">
        <ele>221.5</ele>
        <time>2025-10-18T09:43:54Z</time>
      </trkpt>
      <trkpt lat="43.21818" lon="5.48779">
        <ele>221.6</ele>
        <time>2025-10-18T09:43:55Z</time>
      </trkpt>
      <trkpt lat="43.21817" lon="5.48778">
        <ele>221.5</ele>
        <time>2025-10-18T09:43:56Z</time>
      </trkpt>
      <trkpt lat="43.21817" lon="5.48778">
        <ele>221.4</ele>
        <time>2025-10-18T09:43:57Z</time>
      </trkpt>
      <trkpt lat="43.21817" lon="5.48778">
        <ele>221.3</ele>
        <time>2025-10-18T09:43:58Z</time>
      </trkpt>
      <trkpt lat="43.21817" lon="5.48778">
        <ele>221.2</ele>
        <time>2025-10-18T09:43:59Z</time>
      </trkpt>
      <trkpt lat="43.21817" lon="5.48778">
        <ele>221.1</ele>
        <time>2025-10-18T09:44:00Z</time>
      </trkpt>
      <trkpt lat="43.21817" lon="5.48778">
        <ele>221</ele>
        <time>2025-10-18T09:44:01Z</time>
      </trkpt>
      <trkpt lat="43.21817" lon="5.48778">
        <ele>220.9</ele>
        <time>2025-10-18T09:44:02Z</time>
      </trkpt>
      <trkpt lat="43.21817" lon="5.48779">
        <ele>220.9</ele>
        <time>2025-10-18T09:44:03Z</time>
      </trkpt>
      <trkpt lat="43.21817" lon="5.48779">
        <ele>220.8</ele>
        <time>2025-10-18T09:44:04Z</time>
      </trkpt>
      <trkpt lat="43.21817" lon="5.48779">
        <ele>220.7</ele>
        <time>2025-10-18T09:44:05Z</time>
      </trkpt>
      <trkpt lat="43.21817" lon="5.48779">
        <ele>220.6</ele>
        <time>2025-10-18T09:44:06Z</time>
      </trkpt>
      <trkpt lat="43.21817" lon="5.48779">
        <ele>220.6</ele>
        <time>2025-10-18T09:44:07Z</time>
      </trkpt>
      <trkpt lat="43.21817" lon="5.48779">
        <ele>220.6</ele>
        <time>2025-10-18T09:44:08Z</time>
      </trkpt>
      <trkpt lat="43.21817" lon="5.48779">
        <ele>220.6</ele>
        <time>2025-10-18T09:44:09Z</time>
      </trkpt>
      <trkpt lat="43.21817" lon="5.48779">
        <ele>220.7</ele>
        <time>2025-10-18T09:44:10Z</time>
      </trkpt>
      <trkpt lat="43.21817" lon="5.4878">
        <ele>220.7</ele>
        <time>2025-10-18T09:44:11Z</time>
      </trkpt>
      <trkpt lat="43.21817" lon="5.4878">
        <ele>220.7</ele>
        <time>2025-10-18T09:44:12Z</time>
      </trkpt>
      <trkpt lat="43.21817" lon="5.4878">
        <ele>220.7</ele>
        <time>2025-10-18T09:44:13Z</time>
      </trkpt>
      <trkpt lat="43.21817" lon="5.4878">
        <ele>220.7</ele>
        <time>2025-10-18T09:44:14Z</time>
      </trkpt>
      <trkpt lat="43.21817" lon="5.4878">
        <ele>220.6</ele>
        <time>2025-10-18T09:44:15Z</time>
      </trkpt>
      <trkpt lat="43.21817" lon="5.48781">
        <ele>220.6</ele>
        <time>2025-10-18T09:44:16Z</time>
      </trkpt>
      <trkpt lat="43.21817" lon="5.48781">
        <ele>220.6</ele>
        <time>2025-10-18T09:44:17Z</time>
      </trkpt>
      <trkpt lat="43.21817" lon="5.48781">
        <ele>220.6</ele>
        <time>2025-10-18T09:44:18Z</time>
      </trkpt>
      <trkpt lat="43.21817" lon="5.48781">
        <ele>220.6</ele>
        <time>2025-10-18T09:44:19Z</time>
      </trkpt>
      <trkpt lat="43.21817" lon="5.48781">
        <ele>220.6</ele>
        <time>2025-10-18T09:44:20Z</time>
      </trkpt>
      <trkpt lat="43.21817" lon="5.48781">
        <ele>220.6</ele>
        <time>2025-10-18T09:44:21Z</time>
      </trkpt>
      <trkpt lat="43.21817" lon="5.48781">
        <ele>220.6</ele>
        <time>2025-10-18T09:44:22Z</time>
      </trkpt>
      <trkpt lat="43.21816" lon="5.48781">
        <ele>220.5</ele>
        <time>2025-10-18T09:44:23Z</time>
      </trkpt>
      <trkpt lat="43.21816" lon="5.48781">
        <ele>220.5</ele>
        <time>2025-10-18T09:44:24Z</time>
      </trkpt>
      <trkpt lat="43.21816" lon="5.48781">
        <ele>220.5</ele>
        <time>2025-10-18T09:44:25Z</time>
      </trkpt>
      <trkpt lat="43.21816" lon="5.48782">
        <ele>220.5</ele>
        <time>2025-10-18T09:44:26Z</time>
      </trkpt>
      <trkpt lat="43.21815" lon="5.48782">
        <ele>220.5</ele>
        <time>2025-10-18T09:44:27Z</time>
      </trkpt>
      <trkpt lat="43.21815" lon="5.48782">
        <ele>220.5</ele>
        <time>2025-10-18T09:44:28Z</time>
      </trkpt>
      <trkpt lat="43.21815" lon="5.48782">
        <ele>220.6</ele>
        <time>2025-10-18T09:44:29Z</time>
      </trkpt>
      <trkpt lat="43.21815" lon="5.48782">
        <ele>220.6</ele>
        <time>2025-10-18T09:44:30Z</time>
      </trkpt>
      <trkpt lat="43.21815" lon="5.48782">
        <ele>220.6</ele>
        <time>2025-10-18T09:44:31Z</time>
      </trkpt>
      <trkpt lat="43.21815" lon="5.48782">
        <ele>220.7</ele>
        <time>2025-10-18T09:44:32Z</time>
      </trkpt>
      <trkpt lat="43.21815" lon="5.48782">
        <ele>220.7</ele>
        <time>2025-10-18T09:44:33Z</time>
      </trkpt>
      <trkpt lat="43.21815" lon="5.48782">
        <ele>220.6</ele>
        <time>2025-10-18T09:44:34Z</time>
      </trkpt>
      <trkpt lat="43.21814" lon="5.48782">
        <ele>220.6</ele>
        <time>2025-10-18T09:44:35Z</time>
      </trkpt>
      <trkpt lat="43.21814" lon="5.48782">
        <ele>220.6</ele>
        <time>2025-10-18T09:44:36Z</time>
      </trkpt>
      <trkpt lat="43.21814" lon="5.48782">
        <ele>220.7</ele>
        <time>2025-10-18T09:44:37Z</time>
      </trkpt>
      <trkpt lat="43.21814" lon="5.48782">
        <ele>220.7</ele>
        <time>2025-10-18T09:44:38Z</time>
      </trkpt>
      <trkpt lat="43.21814" lon="5.48782">
        <ele>220.6</ele>
        <time>2025-10-18T09:44:39Z</time>
      </trkpt>
      <trkpt lat="43.21814" lon="5.48781">
        <ele>220.6</ele>
        <time>2025-10-18T09:44:40Z</time>
      </trkpt>
      <trkpt lat="43.21814" lon="5.48781">
        <ele>220.6</ele>
        <time>2025-10-18T09:44:41Z</time>
      </trkpt>
      <trkpt lat="43.21814" lon="5.48781">
        <ele>220.6</ele>
        <time>2025-10-18T09:44:42Z</time>
      </trkpt>
      <trkpt lat="43.21814" lon="5.48781">
        <ele>220.6</ele>
        <time>2025-10-18T09:44:43Z</time>
      </trkpt>
      <trkpt lat="43.21814" lon="5.48781">
        <ele>220.6</ele>
        <time>2025-10-18T09:44:44Z</time>
      </trkpt>
      <trkpt lat="43.21814" lon="5.48781">
        <ele>220.6</ele>
        <time>2025-10-18T09:44:45Z</time>
      </trkpt>
      <trkpt lat="43.21814" lon="5.48781">
        <ele>220.6</ele>
        <time>2025-10-18T09:44:46Z</time>
      </trkpt>
      <trkpt lat="43.21814" lon="5.48781">
        <ele>220.6</ele>
        <time>2025-10-18T09:44:47Z</time>
      </trkpt>
      <trkpt lat="43.21814" lon="5.48781">
        <ele>220.6</ele>
        <time>2025-10-18T09:44:48Z</time>
      </trkpt>
      <trkpt lat="43.21813" lon="5.48781">
        <ele>220.6</ele>
        <time>2025-10-18T09:44:49Z</time>
      </trkpt>
      <trkpt lat="43.21813" lon="5.48781">
        <ele>220.5</ele>
        <time>2025-10-18T09:44:50Z</time>
      </trkpt>
      <trkpt lat="43.21813" lon="5.48781">
        <ele>220.5</ele>
        <time>2025-10-18T09:44:51Z</time>
      </trkpt>
      <trkpt lat="43.21813" lon="5.48781">
        <ele>220.5</ele>
        <time>2025-10-18T09:44:52Z</time>
      </trkpt>
      <trkpt lat="43.21813" lon="5.48781">
        <ele>220.6</ele>
        <time>2025-10-18T09:44:53Z</time>
      </trkpt>
      <trkpt lat="43.21813" lon="5.48781">
        <ele>220.6</ele>
        <time>2025-10-18T09:44:54Z</time>
      </trkpt>
      <trkpt lat="43.21813" lon="5.48781">
        <ele>220.6</ele>
        <time>2025-10-18T09:44:55Z</time>
      </trkpt>
      <trkpt lat="43.21813" lon="5.48781">
        <ele>220.6</ele>
        <time>2025-10-18T09:44:56Z</time>
      </trkpt>
      <trkpt lat="43.21813" lon="5.48782">
        <ele>220.5</ele>
        <time>2025-10-18T09:44:57Z</time>
      </trkpt>
      <trkpt lat="43.21813" lon="5.48782">
        <ele>220.4</ele>
        <time>2025-10-18T09:44:58Z</time>
      </trkpt>
      <trkpt lat="43.21813" lon="5.48782">
        <ele>220.4</ele>
        <time>2025-10-18T09:44:59Z</time>
      </trkpt>
      <trkpt lat="43.21813" lon="5.48782">
        <ele>220.5</ele>
        <time>2025-10-18T09:45:00Z</time>
      </trkpt>
      <trkpt lat="43.21812" lon="5.48782">
        <ele>220.5</ele>
        <time>2025-10-18T09:45:01Z</time>
      </trkpt>
      <trkpt lat="43.21812" lon="5.48782">
        <ele>220.5</ele>
        <time>2025-10-18T09:45:02Z</time>
      </trkpt>
      <trkpt lat="43.21812" lon="5.48782">
        <ele>220.5</ele>
        <time>2025-10-18T09:45:03Z</time>
      </trkpt>
      <trkpt lat="43.21812" lon="5.48783">
        <ele>220.6</ele>
        <time>2025-10-18T09:45:04Z</time>
      </trkpt>
      <trkpt lat="43.21812" lon="5.48782">
        <ele>220.6</ele>
        <time>2025-10-18T09:45:05Z</time>
      </trkpt>
      <trkpt lat="43.21812" lon="5.48782">
        <ele>220.7</ele>
        <time>2025-10-18T09:45:06Z</time>
      </trkpt>
      <trkpt lat="43.21812" lon="5.48781">
        <ele>220.6</ele>
        <time>2025-10-18T09:45:07Z</time>
      </trkpt>
      <trkpt lat="43.21811" lon="5.48781">
        <ele>220.4</ele>
        <time>2025-10-18T09:45:08Z</time>
      </trkpt>
      <trkpt lat="43.21811" lon="5.48781">
        <ele>220.1</ele>
        <time>2025-10-18T09:45:09Z</time>
      </trkpt>
      <trkpt lat="43.21811" lon="5.4878">
        <ele>219.9</ele>
        <time>2025-10-18T09:45:10Z</time>
      </trkpt>
      <trkpt lat="43.21811" lon="5.4878">
        <ele>219.8</ele>
        <time>2025-10-18T09:45:11Z</time>
      </trkpt>
      <trkpt lat="43.2181" lon="5.4878">
        <ele>219.7</ele>
        <time>2025-10-18T09:45:12Z</time>
      </trkpt>
      <trkpt lat="43.21811" lon="5.4878">
        <ele>219.6</ele>
        <time>2025-10-18T09:45:13Z</time>
      </trkpt>
      <trkpt lat="43.21811" lon="5.48779">
        <ele>219.5</ele>
        <time>2025-10-18T09:45:14Z</time>
      </trkpt>
      <trkpt lat="43.21811" lon="5.48779">
        <ele>219.2</ele>
        <time>2025-10-18T09:45:15Z</time>
      </trkpt>
      <trkpt lat="43.21811" lon="5.48778">
        <ele>219.1</ele>
        <time>2025-10-18T09:45:16Z</time>
      </trkpt>
      <trkpt lat="43.21812" lon="5.48777">
        <ele>219</ele>
        <time>2025-10-18T09:45:17Z</time>
      </trkpt>
      <trkpt lat="43.21812" lon="5.48776">
        <ele>218.8</ele>
        <time>2025-10-18T09:45:18Z</time>
      </trkpt>
      <trkpt lat="43.21812" lon="5.48774">
        <ele>218.1</ele>
        <time>2025-10-18T09:45:19Z</time>
      </trkpt>
      <trkpt lat="43.21813" lon="5.48773">
        <ele>217.9</ele>
        <time>2025-10-18T09:45:20Z</time>
      </trkpt>
      <trkpt lat="43.21813" lon="5.48772">
        <ele>217.8</ele>
        <time>2025-10-18T09:45:21Z</time>
      </trkpt>
      <trkpt lat="43.21813" lon="5.48771">
        <ele>217.5</ele>
        <time>2025-10-18T09:45:22Z</time>
      </trkpt>
      <trkpt lat="43.21814" lon="5.48769">
        <ele>217.3</ele>
        <time>2025-10-18T09:45:23Z</time>
      </trkpt>
      <trkpt lat="43.21813" lon="5.48768">
        <ele>217</ele>
        <time>2025-10-18T09:45:24Z</time>
      </trkpt>
      <trkpt lat="43.21813" lon="5.48766">
        <ele>216.7</ele>
        <time>2025-10-18T09:45:25Z</time>
      </trkpt>
      <trkpt lat="43.21812" lon="5.48766">
        <ele>216.4</ele>
        <time>2025-10-18T09:45:26Z</time>
      </trkpt>
      <trkpt lat="43.21811" lon="5.48766">
        <ele>216.1</ele>
        <time>2025-10-18T09:45:27Z</time>
      </trkpt>
      <trkpt lat="43.2181" lon="5.48766">
        <ele>215.6</ele>
        <time>2025-10-18T09:45:28Z</time>
      </trkpt>
      <trkpt lat="43.2181" lon="5.48766">
        <ele>215.2</ele>
        <time>2025-10-18T09:45:29Z</time>
      </trkpt>
      <trkpt lat="43.2181" lon="5.48766">
        <ele>214.8</ele>
        <time>2025-10-18T09:45:30Z</time>
      </trkpt>
      <trkpt lat="43.21809" lon="5.48766">
        <ele>214.5</ele>
        <time>2025-10-18T09:45:31Z</time>
      </trkpt>
      <trkpt lat="43.21809" lon="5.48765">
        <ele>214.3</ele>
        <time>2025-10-18T09:45:32Z</time>
      </trkpt>
      <trkpt lat="43.21808" lon="5.48765">
        <ele>214</ele>
        <time>2025-10-18T09:45:33Z</time>
      </trkpt>
      <trkpt lat="43.21808" lon="5.48765">
        <ele>213.7</ele>
        <time>2025-10-18T09:45:34Z</time>
      </trkpt>
      <trkpt lat="43.21808" lon="5.48764">
        <ele>213.4</ele>
        <time>2025-10-18T09:45:35Z</time>
      </trkpt>
      <trkpt lat="43.21808" lon="5.48764">
        <ele>213.1</ele>
        <time>2025-10-18T09:45:36Z</time>
      </trkpt>
      <trkpt lat="43.21808" lon="5.48764">
        <ele>212.7</ele>
        <time>2025-10-18T09:45:37Z</time>
      </trkpt>
      <trkpt lat="43.21807" lon="5.48764">
        <ele>212.5</ele>
        <time>2025-10-18T09:45:38Z</time>
      </trkpt>
      <trkpt lat="43.21807" lon="5.48764">
        <ele>212.3</ele>
        <time>2025-10-18T09:45:39Z</time>
      </trkpt>
      <trkpt lat="43.21807" lon="5.48763">
        <ele>212.1</ele>
        <time>2025-10-18T09:45:40Z</time>
      </trkpt>
      <trkpt lat="43.21807" lon="5.48763">
        <ele>211.9</ele>
        <time>2025-10-18T09:45:41Z</time>
      </trkpt>
      <trkpt lat="43.21806" lon="5.48763">
        <ele>211.7</ele>
        <time>2025-10-18T09:45:42Z</time>
      </trkpt>
      <trkpt lat="43.21806" lon="5.48762">
        <ele>211.6</ele>
        <time>2025-10-18T09:45:43Z</time>
      </trkpt>
      <trkpt lat="43.21806" lon="5.48762">
        <ele>211.4</ele>
        <time>2025-10-18T09:45:44Z</time>
      </trkpt>
      <trkpt lat="43.21807" lon="5.48761">
        <ele>211.1</ele>
        <time>2025-10-18T09:45:45Z</time>
      </trkpt>
      <trkpt lat="43.21807" lon="5.4876">
        <ele>210.9</ele>
        <time>2025-10-18T09:45:46Z</time>
      </trkpt>
      <trkpt lat="43.21808" lon="5.48759">
        <ele>210.7</ele>
        <time>2025-10-18T09:45:47Z</time>
      </trkpt>
      <trkpt lat="43.21808" lon="5.48758">
        <ele>210.4</ele>
        <time>2025-10-18T09:45:48Z</time>
      </trkpt>
      <trkpt lat="43.21808" lon="5.48757">
        <ele>210.1</ele>
        <time>2025-10-18T09:45:49Z</time>
      </trkpt>
      <trkpt lat="43.21809" lon="5.48756">
        <ele>209.8</ele>
        <time>2025-10-18T09:45:50Z</time>
      </trkpt>
      <trkpt lat="43.21809" lon="5.48755">
        <ele>209.5</ele>
        <time>2025-10-18T09:45:51Z</time>
      </trkpt>
      <trkpt lat="43.21809" lon="5.48754">
        <ele>209.2</ele>
        <time>2025-10-18T09:45:52Z</time>
      </trkpt>
      <trkpt lat="43.2181" lon="5.48753">
        <ele>208.8</ele>
        <time>2025-10-18T09:45:53Z</time>
      </trkpt>
      <trkpt lat="43.2181" lon="5.48751">
        <ele>208.4</ele>
        <time>2025-10-18T09:45:54Z</time>
      </trkpt>
      <trkpt lat="43.21809" lon="5.4875">
        <ele>208.1</ele>
        <time>2025-10-18T09:45:55Z</time>
      </trkpt>
      <trkpt lat="43.21809" lon="5.48749">
        <ele>207.7</ele>
        <time>2025-10-18T09:45:56Z</time>
      </trkpt>
      <trkpt lat="43.2181" lon="5.48748">
        <ele>207.3</ele>
        <time>2025-10-18T09:45:57Z</time>
      </trkpt>
      <trkpt lat="43.21811" lon="5.48748">
        <ele>206.8</ele>
        <time>2025-10-18T09:45:58Z</time>
      </trkpt>
      <trkpt lat="43.21811" lon="5.48747">
        <ele>206.3</ele>
        <time>2025-10-18T09:45:59Z</time>
      </trkpt>
      <trkpt lat="43.21811" lon="5.48746">
        <ele>206</ele>
        <time>2025-10-18T09:46:00Z</time>
      </trkpt>
      <trkpt lat="43.21811" lon="5.48746">
        <ele>205.6</ele>
        <time>2025-10-18T09:46:01Z</time>
      </trkpt>
      <trkpt lat="43.21811" lon="5.48745">
        <ele>205.3</ele>
        <time>2025-10-18T09:46:02Z</time>
      </trkpt>
      <trkpt lat="43.21811" lon="5.48745">
        <ele>205</ele>
        <time>2025-10-18T09:46:03Z</time>
      </trkpt>
      <trkpt lat="43.21811" lon="5.48744">
        <ele>204.7</ele>
        <time>2025-10-18T09:46:04Z</time>
      </trkpt>
      <trkpt lat="43.21811" lon="5.48744">
        <ele>204.5</ele>
        <time>2025-10-18T09:46:05Z</time>
      </trkpt>
      <trkpt lat="43.21811" lon="5.48743">
        <ele>204.3</ele>
        <time>2025-10-18T09:46:06Z</time>
      </trkpt>
      <trkpt lat="43.21811" lon="5.48743">
        <ele>204</ele>
        <time>2025-10-18T09:46:07Z</time>
      </trkpt>
      <trkpt lat="43.2181" lon="5.48741">
        <ele>203.7</ele>
        <time>2025-10-18T09:46:08Z</time>
      </trkpt>
      <trkpt lat="43.2181" lon="5.4874">
        <ele>203.3</ele>
        <time>2025-10-18T09:46:09Z</time>
      </trkpt>
      <trkpt lat="43.2181" lon="5.48739">
        <ele>203</ele>
        <time>2025-10-18T09:46:10Z</time>
      </trkpt>
      <trkpt lat="43.2181" lon="5.48738">
        <ele>202.5</ele>
        <time>2025-10-18T09:46:11Z</time>
      </trkpt>
      <trkpt lat="43.21809" lon="5.48737">
        <ele>202</ele>
        <time>2025-10-18T09:46:12Z</time>
      </trkpt>
      <trkpt lat="43.21809" lon="5.48737">
        <ele>201.7</ele>
        <time>2025-10-18T09:46:13Z</time>
      </trkpt>
      <trkpt lat="43.21809" lon="5.48737">
        <ele>201.4</ele>
        <time>2025-10-18T09:46:14Z</time>
      </trkpt>
      <trkpt lat="43.21809" lon="5.48736">
        <ele>201.1</ele>
        <time>2025-10-18T09:46:15Z</time>
      </trkpt>
      <trkpt lat="43.21808" lon="5.48736">
        <ele>200.8</ele>
        <time>2025-10-18T09:46:16Z</time>
      </trkpt>
      <trkpt lat="43.21807" lon="5.48736">
        <ele>200.6</ele>
        <time>2025-10-18T09:46:17Z</time>
      </trkpt>
      <trkpt lat="43.21806" lon="5.48736">
        <ele>200.5</ele>
        <time>2025-10-18T09:46:18Z</time>
      </trkpt>
      <trkpt lat="43.21805" lon="5.48736">
        <ele>200.1</ele>
        <time>2025-10-18T09:46:19Z</time>
      </trkpt>
      <trkpt lat="43.21805" lon="5.48736">
        <ele>199.9</ele>
        <time>2025-10-18T09:46:20Z</time>
      </trkpt>
      <trkpt lat="43.21805" lon="5.48735">
        <ele>199.6</ele>
        <time>2025-10-18T09:46:21Z</time>
      </trkpt>
      <trkpt lat="43.21804" lon="5.48735">
        <ele>199.3</ele>
        <time>2025-10-18T09:46:22Z</time>
      </trkpt>
      <trkpt lat="43.21804" lon="5.48734">
        <ele>199</ele>
        <time>2025-10-18T09:46:23Z</time>
      </trkpt>
      <trkpt lat="43.21803" lon="5.48734">
        <ele>198.8</ele>
        <time>2025-10-18T09:46:24Z</time>
      </trkpt>
      <trkpt lat="43.21802" lon="5.48733">
        <ele>198.5</ele>
        <time>2025-10-18T09:46:25Z</time>
      </trkpt>
      <trkpt lat="43.21801" lon="5.48733">
        <ele>198.2</ele>
        <time>2025-10-18T09:46:26Z</time>
      </trkpt>
      <trkpt lat="43.21801" lon="5.48733">
        <ele>197.9</ele>
        <time>2025-10-18T09:46:27Z</time>
      </trkpt>
      <trkpt lat="43.21801" lon="5.48732">
        <ele>197.6</ele>
        <time>2025-10-18T09:46:28Z</time>
      </trkpt>
      <trkpt lat="43.21801" lon="5.48731">
        <ele>197.3</ele>
        <time>2025-10-18T09:46:29Z</time>
      </trkpt>
      <trkpt lat="43.218" lon="5.4873">
        <ele>197.1</ele>
        <time>2025-10-18T09:46:30Z</time>
      </trkpt>
      <trkpt lat="43.218" lon="5.48729">
        <ele>196.8</ele>
        <time>2025-10-18T09:46:31Z</time>
      </trkpt>
      <trkpt lat="43.218" lon="5.48728">
        <ele>196.7</ele>
        <time>2025-10-18T09:46:32Z</time>
      </trkpt>
      <trkpt lat="43.218" lon="5.48727">
        <ele>196.5</ele>
        <time>2025-10-18T09:46:33Z</time>
      </trkpt>
      <trkpt lat="43.21799" lon="5.48727">
        <ele>196.3</ele>
        <time>2025-10-18T09:46:34Z</time>
      </trkpt>
      <trkpt lat="43.21798" lon="5.48727">
        <ele>196.2</ele>
        <time>2025-10-18T09:46:35Z</time>
      </trkpt>
      <trkpt lat="43.21798" lon="5.48726">
        <ele>196.1</ele>
        <time>2025-10-18T09:46:36Z</time>
      </trkpt>
      <trkpt lat="43.21797" lon="5.48725">
        <ele>196</ele>
        <time>2025-10-18T09:46:37Z</time>
      </trkpt>
      <trkpt lat="43.21797" lon="5.48725">
        <ele>195.9</ele>
        <time>2025-10-18T09:46:38Z</time>
      </trkpt>
      <trkpt lat="43.21797" lon="5.48725">
        <ele>195.8</ele>
        <time>2025-10-18T09:46:39Z</time>
      </trkpt>
      <trkpt lat="43.21797" lon="5.48725">
        <ele>195.8</ele>
        <time>2025-10-18T09:46:40Z</time>
      </trkpt>
      <trkpt lat="43.21796" lon="5.48725">
        <ele>195.7</ele>
        <time>2025-10-18T09:46:41Z</time>
      </trkpt>
      <trkpt lat="43.21796" lon="5.48724">
        <ele>195.7</ele>
        <time>2025-10-18T09:46:42Z</time>
      </trkpt>
      <trkpt lat="43.21795" lon="5.48724">
        <ele>195.7</ele>
        <time>2025-10-18T09:46:43Z</time>
      </trkpt>
      <trkpt lat="43.21795" lon="5.48724">
        <ele>195.7</ele>
        <time>2025-10-18T09:46:44Z</time>
      </trkpt>
      <trkpt lat="43.21795" lon="5.48724">
        <ele>195.7</ele>
        <time>2025-10-18T09:46:45Z</time>
      </trkpt>
      <trkpt lat="43.21794" lon="5.48724">
        <ele>195.6</ele>
        <time>2025-10-18T09:46:46Z</time>
      </trkpt>
      <trkpt lat="43.21794" lon="5.48724">
        <ele>195.6</ele>
        <time>2025-10-18T09:46:47Z</time>
      </trkpt>
      <trkpt lat="43.21794" lon="5.48724">
        <ele>195.5</ele>
        <time>2025-10-18T09:46:48Z</time>
      </trkpt>
      <trkpt lat="43.21793" lon="5.48724">
        <ele>195.6</ele>
        <time>2025-10-18T09:46:49Z</time>
      </trkpt>
      <trkpt lat="43.21793" lon="5.48724">
        <ele>195.6</ele>
        <time>2025-10-18T09:46:50Z</time>
      </trkpt>
      <trkpt lat="43.21793" lon="5.48724">
        <ele>195.6</ele>
        <time>2025-10-18T09:46:51Z</time>
      </trkpt>
      <trkpt lat="43.21793" lon="5.48724">
        <ele>195.6</ele>
        <time>2025-10-18T09:46:52Z</time>
      </trkpt>
      <trkpt lat="43.21793" lon="5.48724">
        <ele>195.7</ele>
        <time>2025-10-18T09:46:53Z</time>
      </trkpt>
      <trkpt lat="43.21793" lon="5.48724">
        <ele>195.8</ele>
        <time>2025-10-18T09:46:54Z</time>
      </trkpt>
      <trkpt lat="43.21792" lon="5.48724">
        <ele>195.8</ele>
        <time>2025-10-18T09:46:55Z</time>
      </trkpt>
      <trkpt lat="43.21792" lon="5.48724">
        <ele>195.9</ele>
        <time>2025-10-18T09:46:56Z</time>
      </trkpt>
      <trkpt lat="43.21792" lon="5.48724">
        <ele>195.8</ele>
        <time>2025-10-18T09:46:57Z</time>
      </trkpt>
      <trkpt lat="43.21792" lon="5.48724">
        <ele>195.8</ele>
        <time>2025-10-18T09:46:58Z</time>
      </trkpt>
      <trkpt lat="43.21792" lon="5.48724">
        <ele>195.7</ele>
        <time>2025-10-18T09:46:59Z</time>
      </trkpt>
      <trkpt lat="43.21792" lon="5.48724">
        <ele>195.7</ele>
        <time>2025-10-18T09:47:00Z</time>
      </trkpt>
      <trkpt lat="43.21792" lon="5.48724">
        <ele>195.6</ele>
        <time>2025-10-18T09:47:01Z</time>
      </trkpt>
      <trkpt lat="43.21791" lon="5.48724">
        <ele>195.5</ele>
        <time>2025-10-18T09:47:02Z</time>
      </trkpt>
      <trkpt lat="43.21791" lon="5.48724">
        <ele>195.5</ele>
        <time>2025-10-18T09:47:03Z</time>
      </trkpt>
      <trkpt lat="43.21791" lon="5.48724">
        <ele>195.4</ele>
        <time>2025-10-18T09:47:04Z</time>
      </trkpt>
      <trkpt lat="43.21791" lon="5.48725">
        <ele>195.5</ele>
        <time>2025-10-18T09:47:05Z</time>
      </trkpt>
      <trkpt lat="43.2179" lon="5.48725">
        <ele>195.5</ele>
        <time>2025-10-18T09:47:06Z</time>
      </trkpt>
      <trkpt lat="43.2179" lon="5.48725">
        <ele>195.5</ele>
        <time>2025-10-18T09:47:07Z</time>
      </trkpt>
      <trkpt lat="43.21789" lon="5.48725">
        <ele>195.5</ele>
        <time>2025-10-18T09:47:08Z</time>
      </trkpt>
      <trkpt lat="43.21789" lon="5.48725">
        <ele>195.6</ele>
        <time>2025-10-18T09:47:09Z</time>
      </trkpt>
      <trkpt lat="43.21789" lon="5.48725">
        <ele>195.6</ele>
        <time>2025-10-18T09:47:10Z</time>
      </trkpt>
      <trkpt lat="43.21789" lon="5.48725">
        <ele>195.6</ele>
        <time>2025-10-18T09:47:11Z</time>
      </trkpt>
      <trkpt lat="43.21789" lon="5.48725">
        <ele>195.6</ele>
        <time>2025-10-18T09:47:12Z</time>
      </trkpt>
      <trkpt lat="43.21789" lon="5.48725">
        <ele>195.6</ele>
        <time>2025-10-18T09:47:13Z</time>
      </trkpt>
      <trkpt lat="43.21789" lon="5.48725">
        <ele>195.6</ele>
        <time>2025-10-18T09:47:14Z</time>
      </trkpt>
      <trkpt lat="43.21789" lon="5.48725">
        <ele>195.6</ele>
        <time>2025-10-18T09:47:15Z</time>
      </trkpt>
      <trkpt lat="43.21788" lon="5.48725">
        <ele>195.6</ele>
        <time>2025-10-18T09:47:16Z</time>
      </trkpt>
      <trkpt lat="43.21788" lon="5.48725">
        <ele>195.6</ele>
        <time>2025-10-18T09:47:17Z</time>
      </trkpt>
      <trkpt lat="43.21788" lon="5.48725">
        <ele>195.6</ele>
        <time>2025-10-18T09:47:18Z</time>
      </trkpt>
      <trkpt lat="43.21788" lon="5.48725">
        <ele>195.6</ele>
        <time>2025-10-18T09:47:19Z</time>
      </trkpt>
      <trkpt lat="43.21788" lon="5.48725">
        <ele>195.5</ele>
        <time>2025-10-18T09:47:20Z</time>
      </trkpt>
      <trkpt lat="43.21788" lon="5.48725">
        <ele>195.5</ele>
        <time>2025-10-18T09:47:21Z</time>
      </trkpt>
      <trkpt lat="43.21788" lon="5.48725">
        <ele>195.5</ele>
        <time>2025-10-18T09:47:22Z</time>
      </trkpt>
      <trkpt lat="43.21788" lon="5.48725">
        <ele>195.5</ele>
        <time>2025-10-18T09:47:23Z</time>
      </trkpt>
      <trkpt lat="43.21789" lon="5.48725">
        <ele>195.5</ele>
        <time>2025-10-18T09:47:24Z</time>
      </trkpt>
      <trkpt lat="43.21789" lon="5.48724">
        <ele>195.5</ele>
        <time>2025-10-18T09:47:25Z</time>
      </trkpt>
      <trkpt lat="43.21789" lon="5.48724">
        <ele>195.4</ele>
        <time>2025-10-18T09:47:26Z</time>
      </trkpt>
      <trkpt lat="43.21789" lon="5.48725">
        <ele>195.4</ele>
        <time>2025-10-18T09:47:27Z</time>
      </trkpt>
      <trkpt lat="43.21789" lon="5.48724">
        <ele>195.4</ele>
        <time>2025-10-18T09:47:28Z</time>
      </trkpt>
      <trkpt lat="43.2179" lon="5.48724">
        <ele>195.4</ele>
        <time>2025-10-18T09:47:29Z</time>
      </trkpt>
      <trkpt lat="43.2179" lon="5.48723">
        <ele>195.3</ele>
        <time>2025-10-18T09:47:30Z</time>
      </trkpt>
      <trkpt lat="43.2179" lon="5.48723">
        <ele>195.3</ele>
        <time>2025-10-18T09:47:31Z</time>
      </trkpt>
      <trkpt lat="43.2179" lon="5.48723">
        <ele>195.4</ele>
        <time>2025-10-18T09:47:32Z</time>
      </trkpt>
      <trkpt lat="43.2179" lon="5.48722">
        <ele>195.4</ele>
        <time>2025-10-18T09:47:33Z</time>
      </trkpt>
      <trkpt lat="43.2179" lon="5.48722">
        <ele>195.4</ele>
        <time>2025-10-18T09:47:34Z</time>
      </trkpt>
      <trkpt lat="43.2179" lon="5.48722">
        <ele>195.4</ele>
        <time>2025-10-18T09:47:35Z</time>
      </trkpt>
      <trkpt lat="43.21791" lon="5.48721">
        <ele>195.5</ele>
        <time>2025-10-18T09:47:36Z</time>
      </trkpt>
      <trkpt lat="43.21791" lon="5.48721">
        <ele>195.5</ele>
        <time>2025-10-18T09:47:37Z</time>
      </trkpt>
      <trkpt lat="43.21791" lon="5.48721">
        <ele>195.4</ele>
        <time>2025-10-18T09:47:38Z</time>
      </trkpt>
      <trkpt lat="43.21791" lon="5.4872">
        <ele>195.4</ele>
        <time>2025-10-18T09:47:39Z</time>
      </trkpt>
      <trkpt lat="43.21791" lon="5.48721">
        <ele>195.4</ele>
        <time>2025-10-18T09:47:40Z</time>
      </trkpt>
      <trkpt lat="43.21791" lon="5.48721">
        <ele>195.4</ele>
        <time>2025-10-18T09:47:41Z</time>
      </trkpt>
      <trkpt lat="43.2179" lon="5.48721">
        <ele>195.4</ele>
        <time>2025-10-18T09:47:42Z</time>
      </trkpt>
      <trkpt lat="43.2179" lon="5.48722">
        <ele>195.4</ele>
        <time>2025-10-18T09:47:43Z</time>
      </trkpt>
      <trkpt lat="43.2179" lon="5.48722">
        <ele>195.4</ele>
        <time>2025-10-18T09:47:44Z</time>
      </trkpt>
      <trkpt lat="43.2179" lon="5.48721">
        <ele>195.4</ele>
        <time>2025-10-18T09:47:45Z</time>
      </trkpt>
      <trkpt lat="43.2179" lon="5.48721">
        <ele>195.5</ele>
        <time>2025-10-18T09:47:46Z</time>
      </trkpt>
      <trkpt lat="43.2179" lon="5.48721">
        <ele>195.6</ele>
        <time>2025-10-18T09:47:47Z</time>
      </trkpt>
      <trkpt lat="43.2179" lon="5.48721">
        <ele>195.6</ele>
        <time>2025-10-18T09:47:48Z</time>
      </trkpt>
      <trkpt lat="43.2179" lon="5.48721">
        <ele>195.6</ele>
        <time>2025-10-18T09:47:49Z</time>
      </trkpt>
      <trkpt lat="43.2179" lon="5.48721">
        <ele>195.5</ele>
        <time>2025-10-18T09:47:50Z</time>
      </trkpt>
      <trkpt lat="43.2179" lon="5.48721">
        <ele>195.6</ele>
        <time>2025-10-18T09:47:51Z</time>
      </trkpt>
      <trkpt lat="43.2179" lon="5.48721">
        <ele>195.6</ele>
        <time>2025-10-18T09:47:52Z</time>
      </trkpt>
      <trkpt lat="43.2179" lon="5.48721">
        <ele>195.6</ele>
        <time>2025-10-18T09:47:53Z</time>
      </trkpt>
      <trkpt lat="43.2179" lon="5.4872">
        <ele>195.6</ele>
        <time>2025-10-18T09:47:54Z</time>
      </trkpt>
      <trkpt lat="43.21791" lon="5.4872">
        <ele>195.5</ele>
        <time>2025-10-18T09:47:55Z</time>
      </trkpt>
      <trkpt lat="43.21791" lon="5.4872">
        <ele>195.5</ele>
        <time>2025-10-18T09:47:56Z</time>
      </trkpt>
      <trkpt lat="43.21791" lon="5.4872">
        <ele>195.5</ele>
        <time>2025-10-18T09:47:57Z</time>
      </trkpt>
      <trkpt lat="43.21791" lon="5.4872">
        <ele>195.5</ele>
        <time>2025-10-18T09:47:58Z</time>
      </trkpt>
      <trkpt lat="43.21791" lon="5.48719">
        <ele>195.4</ele>
        <time>2025-10-18T09:47:59Z</time>
      </trkpt>
      <trkpt lat="43.21791" lon="5.48719">
        <ele>195.3</ele>
        <time>2025-10-18T09:48:00Z</time>
      </trkpt>
      <trkpt lat="43.21791" lon="5.48719">
        <ele>195.3</ele>
        <time>2025-10-18T09:48:01Z</time>
      </trkpt>
      <trkpt lat="43.21791" lon="5.48719">
        <ele>195.2</ele>
        <time>2025-10-18T09:48:02Z</time>
      </trkpt>
      <trkpt lat="43.21791" lon="5.48719">
        <ele>195.2</ele>
        <time>2025-10-18T09:48:03Z</time>
      </trkpt>
      <trkpt lat="43.21791" lon="5.48719">
        <ele>195.1</ele>
        <time>2025-10-18T09:48:04Z</time>
      </trkpt>
      <trkpt lat="43.21791" lon="5.48719">
        <ele>195</ele>
        <time>2025-10-18T09:48:05Z</time>
      </trkpt>
      <trkpt lat="43.21791" lon="5.4872">
        <ele>195</ele>
        <time>2025-10-18T09:48:06Z</time>
      </trkpt>
      <trkpt lat="43.21791" lon="5.4872">
        <ele>195</ele>
        <time>2025-10-18T09:48:07Z</time>
      </trkpt>
      <trkpt lat="43.21791" lon="5.4872">
        <ele>195</ele>
        <time>2025-10-18T09:48:08Z</time>
      </trkpt>
      <trkpt lat="43.21791" lon="5.4872">
        <ele>195</ele>
        <time>2025-10-18T09:48:09Z</time>
      </trkpt>
      <trkpt lat="43.21791" lon="5.4872">
        <ele>195</ele>
        <time>2025-10-18T09:48:10Z</time>
      </trkpt>
      <trkpt lat="43.21791" lon="5.4872">
        <ele>195</ele>
        <time>2025-10-18T09:48:11Z</time>
      </trkpt>
      <trkpt lat="43.21791" lon="5.4872">
        <ele>195</ele>
        <time>2025-10-18T09:48:12Z</time>
      </trkpt>
      <trkpt lat="43.21791" lon="5.4872">
        <ele>194.9</ele>
        <time>2025-10-18T09:48:13Z</time>
      </trkpt>
      <trkpt lat="43.21791" lon="5.4872">
        <ele>194.8</ele>
        <time>2025-10-18T09:48:14Z</time>
      </trkpt>
      <trkpt lat="43.21791" lon="5.4872">
        <ele>194.9</ele>
        <time>2025-10-18T09:48:15Z</time>
      </trkpt>
      <trkpt lat="43.21791" lon="5.4872">
        <ele>194.9</ele>
        <time>2025-10-18T09:48:16Z</time>
      </trkpt>
      <trkpt lat="43.21791" lon="5.4872">
        <ele>195</ele>
        <time>2025-10-18T09:48:17Z</time>
      </trkpt>
      <trkpt lat="43.21791" lon="5.4872">
        <ele>195</ele>
        <time>2025-10-18T09:48:18Z</time>
      </trkpt>
      <trkpt lat="43.21791" lon="5.4872">
        <ele>195.1</ele>
        <time>2025-10-18T09:48:19Z</time>
      </trkpt>
      <trkpt lat="43.21791" lon="5.4872">
        <ele>195.1</ele>
        <time>2025-10-18T09:48:20Z</time>
      </trkpt>
      <trkpt lat="43.21791" lon="5.4872">
        <ele>195.1</ele>
        <time>2025-10-18T09:48:21Z</time>
      </trkpt>
      <trkpt lat="43.21791" lon="5.4872">
        <ele>195</ele>
        <time>2025-10-18T09:48:22Z</time>
      </trkpt>
      <trkpt lat="43.21791" lon="5.4872">
        <ele>195</ele>
        <time>2025-10-18T09:48:23Z</time>
      </trkpt>
      <trkpt lat="43.21791" lon="5.4872">
        <ele>195</ele>
        <time>2025-10-18T09:48:24Z</time>
      </trkpt>
      <trkpt lat="43.21791" lon="5.4872">
        <ele>195</ele>
        <time>2025-10-18T09:48:25Z</time>
      </trkpt>
      <trkpt lat="43.21791" lon="5.4872">
        <ele>195</ele>
        <time>2025-10-18T09:48:26Z</time>
      </trkpt>
      <trkpt lat="43.21791" lon="5.4872">
        <ele>195</ele>
        <time>2025-10-18T09:48:27Z</time>
      </trkpt>
      <trkpt lat="43.21791" lon="5.4872">
        <ele>195</ele>
        <time>2025-10-18T09:48:28Z</time>
      </trkpt>
      <trkpt lat="43.21791" lon="5.48719">
        <ele>194.9</ele>
        <time>2025-10-18T09:48:29Z</time>
      </trkpt>
      <trkpt lat="43.21791" lon="5.48719">
        <ele>195</ele>
        <time>2025-10-18T09:48:30Z</time>
      </trkpt>
      <trkpt lat="43.21791" lon="5.48719">
        <ele>195</ele>
        <time>2025-10-18T09:48:31Z</time>
      </trkpt>
      <trkpt lat="43.21791" lon="5.48719">
        <ele>195</ele>
        <time>2025-10-18T09:48:32Z</time>
      </trkpt>
      <trkpt lat="43.21792" lon="5.48719">
        <ele>195</ele>
        <time>2025-10-18T09:48:33Z</time>
      </trkpt>
      <trkpt lat="43.21792" lon="5.48719">
        <ele>194.9</ele>
        <time>2025-10-18T09:48:34Z</time>
      </trkpt>
      <trkpt lat="43.21792" lon="5.48719">
        <ele>194.9</ele>
        <time>2025-10-18T09:48:35Z</time>
      </trkpt>
      <trkpt lat="43.21792" lon="5.48719">
        <ele>194.8</ele>
        <time>2025-10-18T09:48:36Z</time>
      </trkpt>
      <trkpt lat="43.21792" lon="5.48718">
        <ele>194.8</ele>
        <time>2025-10-18T09:48:37Z</time>
      </trkpt>
      <trkpt lat="43.21792" lon="5.48718">
        <ele>194.8</ele>
        <time>2025-10-18T09:48:38Z</time>
      </trkpt>
      <trkpt lat="43.21792" lon="5.48718">
        <ele>194.8</ele>
        <time>2025-10-18T09:48:39Z</time>
      </trkpt>
      <trkpt lat="43.21792" lon="5.48718">
        <ele>194.7</ele>
        <time>2025-10-18T09:48:40Z</time>
      </trkpt>
      <trkpt lat="43.21793" lon="5.48718">
        <ele>194.7</ele>
        <time>2025-10-18T09:48:41Z</time>
      </trkpt>
      <trkpt lat="43.21792" lon="5.48718">
        <ele>194.7</ele>
        <time>2025-10-18T09:48:42Z</time>
      </trkpt>
      <trkpt lat="43.21793" lon="5.48718">
        <ele>194.7</ele>
        <time>2025-10-18T09:48:43Z</time>
      </trkpt>
      <trkpt lat="43.21793" lon="5.48718">
        <ele>194.7</ele>
        <time>2025-10-18T09:48:44Z</time>
      </trkpt>
      <trkpt lat="43.21792" lon="5.48718">
        <ele>194.7</ele>
        <time>2025-10-18T09:48:45Z</time>
      </trkpt>
      <trkpt lat="43.21793" lon="5.48718">
        <ele>194.8</ele>
        <time>2025-10-18T09:48:46Z</time>
      </trkpt>
      <trkpt lat="43.21793" lon="5.48718">
        <ele>194.8</ele>
        <time>2025-10-18T09:48:47Z</time>
      </trkpt>
      <trkpt lat="43.21793" lon="5.48718">
        <ele>194.8</ele>
        <time>2025-10-18T09:48:48Z</time>
      </trkpt>
      <trkpt lat="43.21793" lon="5.48718">
        <ele>194.8</ele>
        <time>2025-10-18T09:48:49Z</time>
      </trkpt>
      <trkpt lat="43.21793" lon="5.48718">
        <ele>194.8</ele>
        <time>2025-10-18T09:48:50Z</time>
      </trkpt>
      <trkpt lat="43.21793" lon="5.48718">
        <ele>194.7</ele>
        <time>2025-10-18T09:48:51Z</time>
      </trkpt>
      <trkpt lat="43.21793" lon="5.48718">
        <ele>194.7</ele>
        <time>2025-10-18T09:48:52Z</time>
      </trkpt>
      <trkpt lat="43.21793" lon="5.48718">
        <ele>194.8</ele>
        <time>2025-10-18T09:48:53Z</time>
      </trkpt>
      <trkpt lat="43.21794" lon="5.48718">
        <ele>194.9</ele>
        <time>2025-10-18T09:48:54Z</time>
      </trkpt>
      <trkpt lat="43.21794" lon="5.48718">
        <ele>195</ele>
        <time>2025-10-18T09:48:55Z</time>
      </trkpt>
      <trkpt lat="43.21794" lon="5.48718">
        <ele>195.1</ele>
        <time>2025-10-18T09:48:56Z</time>
      </trkpt>
      <trkpt lat="43.21794" lon="5.48718">
        <ele>195.1</ele>
        <time>2025-10-18T09:48:57Z</time>
      </trkpt>
      <trkpt lat="43.21794" lon="5.48718">
        <ele>195.1</ele>
        <time>2025-10-18T09:48:58Z</time>
      </trkpt>
      <trkpt lat="43.21794" lon="5.48718">
        <ele>195.1</ele>
        <time>2025-10-18T09:48:59Z</time>
      </trkpt>
      <trkpt lat="43.21794" lon="5.48718">
        <ele>195</ele>
        <time>2025-10-18T09:49:00Z</time>
      </trkpt>
      <trkpt lat="43.21794" lon="5.48718">
        <ele>195</ele>
        <time>2025-10-18T09:49:01Z</time>
      </trkpt>
      <trkpt lat="43.21795" lon="5.48718">
        <ele>195</ele>
        <time>2025-10-18T09:49:02Z</time>
      </trkpt>
      <trkpt lat="43.21795" lon="5.48718">
        <ele>195</ele>
        <time>2025-10-18T09:49:03Z</time>
      </trkpt>
      <trkpt lat="43.21795" lon="5.48718">
        <ele>195.1</ele>
        <time>2025-10-18T09:49:04Z</time>
      </trkpt>
      <trkpt lat="43.21794" lon="5.48717">
        <ele>195.1</ele>
        <time>2025-10-18T09:49:05Z</time>
      </trkpt>
      <trkpt lat="43.21794" lon="5.48718">
        <ele>195.1</ele>
        <time>2025-10-18T09:49:06Z</time>
      </trkpt>
      <trkpt lat="43.21794" lon="5.48718">
        <ele>195.1</ele>
        <time>2025-10-18T09:49:07Z</time>
      </trkpt>
      <trkpt lat="43.21794" lon="5.48718">
        <ele>195.1</ele>
        <time>2025-10-18T09:49:08Z</time>
      </trkpt>
      <trkpt lat="43.21794" lon="5.48718">
        <ele>195.1</ele>
        <time>2025-10-18T09:49:09Z</time>
      </trkpt>
      <trkpt lat="43.21795" lon="5.48718">
        <ele>195.1</ele>
        <time>2025-10-18T09:49:10Z</time>
      </trkpt>
      <trkpt lat="43.21795" lon="5.48718">
        <ele>195</ele>
        <time>2025-10-18T09:49:11Z</time>
      </trkpt>
      <trkpt lat="43.21795" lon="5.48718">
        <ele>195.1</ele>
        <time>2025-10-18T09:49:12Z</time>
      </trkpt>
      <trkpt lat="43.21795" lon="5.48718">
        <ele>195.1</ele>
        <time>2025-10-18T09:49:13Z</time>
      </trkpt>
      <trkpt lat="43.21795" lon="5.48718">
        <ele>195.1</ele>
        <time>2025-10-18T09:49:14Z</time>
      </trkpt>
      <trkpt lat="43.21795" lon="5.48718">
        <ele>195.1</ele>
        <time>2025-10-18T09:49:15Z</time>
      </trkpt>
      <trkpt lat="43.21795" lon="5.48718">
        <ele>195.1</ele>
        <time>2025-10-18T09:49:16Z</time>
      </trkpt>
      <trkpt lat="43.21795" lon="5.48718">
        <ele>195.1</ele>
        <time>2025-10-18T09:49:17Z</time>
      </trkpt>
      <trkpt lat="43.21794" lon="5.48718">
        <ele>195</ele>
        <time>2025-10-18T09:49:18Z</time>
      </trkpt>
      <trkpt lat="43.21794" lon="5.48719">
        <ele>194.9</ele>
        <time>2025-10-18T09:49:19Z</time>
      </trkpt>
      <trkpt lat="43.21794" lon="5.48719">
        <ele>194.8</ele>
        <time>2025-10-18T09:49:20Z</time>
      </trkpt>
      <trkpt lat="43.21793" lon="5.48719">
        <ele>194.8</ele>
        <time>2025-10-18T09:49:21Z</time>
      </trkpt>
      <trkpt lat="43.21793" lon="5.48718">
        <ele>194.7</ele>
        <time>2025-10-18T09:49:22Z</time>
      </trkpt>
      <trkpt lat="43.21792" lon="5.48718">
        <ele>194.7</ele>
        <time>2025-10-18T09:49:23Z</time>
      </trkpt>
      <trkpt lat="43.21792" lon="5.48718">
        <ele>194.6</ele>
        <time>2025-10-18T09:49:24Z</time>
      </trkpt>
      <trkpt lat="43.21791" lon="5.48718">
        <ele>194.6</ele>
        <time>2025-10-18T09:49:25Z</time>
      </trkpt>
      <trkpt lat="43.2179" lon="5.48718">
        <ele>194.5</ele>
        <time>2025-10-18T09:49:26Z</time>
      </trkpt>
      <trkpt lat="43.2179" lon="5.48718">
        <ele>194.3</ele>
        <time>2025-10-18T09:49:27Z</time>
      </trkpt>
      <trkpt lat="43.21789" lon="5.48718">
        <ele>194.2</ele>
        <time>2025-10-18T09:49:28Z</time>
      </trkpt>
      <trkpt lat="43.21789" lon="5.48719">
        <ele>194.1</ele>
        <time>2025-10-18T09:49:29Z</time>
      </trkpt>
      <trkpt lat="43.21788" lon="5.48719">
        <ele>193.9</ele>
        <time>2025-10-18T09:49:30Z</time>
      </trkpt>
      <trkpt lat="43.21788" lon="5.48719">
        <ele>193.8</ele>
        <time>2025-10-18T09:49:31Z</time>
      </trkpt>
      <trkpt lat="43.21787" lon="5.48719">
        <ele>193.7</ele>
        <time>2025-10-18T09:49:32Z</time>
      </trkpt>
      <trkpt lat="43.21786" lon="5.48719">
        <ele>193.7</ele>
        <time>2025-10-18T09:49:33Z</time>
      </trkpt>
      <trkpt lat="43.21785" lon="5.48719">
        <ele>193.6</ele>
        <time>2025-10-18T09:49:34Z</time>
      </trkpt>
      <trkpt lat="43.21784" lon="5.48719">
        <ele>193.5</ele>
        <time>2025-10-18T09:49:35Z</time>
      </trkpt>
      <trkpt lat="43.21784" lon="5.48719">
        <ele>193.3</ele>
        <time>2025-10-18T09:49:36Z</time>
      </trkpt>
      <trkpt lat="43.21784" lon="5.48719">
        <ele>193.2</ele>
        <time>2025-10-18T09:49:37Z</time>
      </trkpt>
      <trkpt lat="43.21783" lon="5.48719">
        <ele>193.1</ele>
        <time>2025-10-18T09:49:38Z</time>
      </trkpt>
      <trkpt lat="43.21782" lon="5.48719">
        <ele>192.9</ele>
        <time>2025-10-18T09:49:39Z</time>
      </trkpt>
      <trkpt lat="43.21782" lon="5.4872">
        <ele>192.8</ele>
        <time>2025-10-18T09:49:40Z</time>
      </trkpt>
      <trkpt lat="43.21781" lon="5.4872">
        <ele>192.6</ele>
        <time>2025-10-18T09:49:41Z</time>
      </trkpt>
      <trkpt lat="43.2178" lon="5.48721">
        <ele>192.4</ele>
        <time>2025-10-18T09:49:42Z</time>
      </trkpt>
      <trkpt lat="43.21779" lon="5.48721">
        <ele>192.3</ele>
        <time>2025-10-18T09:49:43Z</time>
      </trkpt>
      <trkpt lat="43.21779" lon="5.48721">
        <ele>192.1</ele>
        <time>2025-10-18T09:49:44Z</time>
      </trkpt>
      <trkpt lat="43.21778" lon="5.48721">
        <ele>192</ele>
        <time>2025-10-18T09:49:45Z</time>
      </trkpt>
      <trkpt lat="43.21777" lon="5.4872">
        <ele>191.7</ele>
        <time>2025-10-18T09:49:46Z</time>
      </trkpt>
      <trkpt lat="43.21777" lon="5.4872">
        <ele>191.5</ele>
        <time>2025-10-18T09:49:47Z</time>
      </trkpt>
      <trkpt lat="43.21776" lon="5.4872">
        <ele>191.3</ele>
        <time>2025-10-18T09:49:48Z</time>
      </trkpt>
      <trkpt lat="43.21775" lon="5.4872">
        <ele>191.1</ele>
        <time>2025-10-18T09:49:49Z</time>
      </trkpt>
      <trkpt lat="43.21774" lon="5.48719">
        <ele>191</ele>
        <time>2025-10-18T09:49:50Z</time>
      </trkpt>
      <trkpt lat="43.21774" lon="5.48719">
        <ele>190.9</ele>
        <time>2025-10-18T09:49:51Z</time>
      </trkpt>
      <trkpt lat="43.21773" lon="5.4872">
        <ele>190.8</ele>
        <time>2025-10-18T09:49:52Z</time>
      </trkpt>
      <trkpt lat="43.21772" lon="5.4872">
        <ele>190.7</ele>
        <time>2025-10-18T09:49:53Z</time>
      </trkpt>
      <trkpt lat="43.21771" lon="5.4872">
        <ele>190.6</ele>
        <time>2025-10-18T09:49:54Z</time>
      </trkpt>
      <trkpt lat="43.21771" lon="5.48719">
        <ele>190.5</ele>
        <time>2025-10-18T09:49:55Z</time>
      </trkpt>
      <trkpt lat="43.2177" lon="5.48718">
        <ele>190.4</ele>
        <time>2025-10-18T09:49:56Z</time>
      </trkpt>
      <trkpt lat="43.21769" lon="5.48718">
        <ele>190.2</ele>
        <time>2025-10-18T09:49:57Z</time>
      </trkpt>
      <trkpt lat="43.21768" lon="5.48719">
        <ele>189.9</ele>
        <time>2025-10-18T09:49:58Z</time>
      </trkpt>
      <trkpt lat="43.21767" lon="5.48718">
        <ele>189.8</ele>
        <time>2025-10-18T09:49:59Z</time>
      </trkpt>
      <trkpt lat="43.21766" lon="5.48718">
        <ele>189.7</ele>
        <time>2025-10-18T09:50:00Z</time>
      </trkpt>
      <trkpt lat="43.21766" lon="5.48718">
        <ele>189.6</ele>
        <time>2025-10-18T09:50:01Z</time>
      </trkpt>
      <trkpt lat="43.21765" lon="5.48718">
        <ele>189.5</ele>
        <time>2025-10-18T09:50:02Z</time>
      </trkpt>
      <trkpt lat="43.21765" lon="5.48719">
        <ele>189.4</ele>
        <time>2025-10-18T09:50:03Z</time>
      </trkpt>
      <trkpt lat="43.21765" lon="5.48719">
        <ele>189.3</ele>
        <time>2025-10-18T09:50:04Z</time>
      </trkpt>
      <trkpt lat="43.21765" lon="5.48718">
        <ele>189.2</ele>
        <time>2025-10-18T09:50:05Z</time>
      </trkpt>
      <trkpt lat="43.21765" lon="5.48718">
        <ele>189.1</ele>
        <time>2025-10-18T09:50:06Z</time>
      </trkpt>
      <trkpt lat="43.21764" lon="5.48718">
        <ele>188.9</ele>
        <time>2025-10-18T09:50:07Z</time>
      </trkpt>
      <trkpt lat="43.21764" lon="5.48717">
        <ele>188.8</ele>
        <time>2025-10-18T09:50:08Z</time>
      </trkpt>
      <trkpt lat="43.21763" lon="5.48718">
        <ele>188.7</ele>
        <time>2025-10-18T09:50:09Z</time>
      </trkpt>
      <trkpt lat="43.21763" lon="5.48717">
        <ele>188.5</ele>
        <time>2025-10-18T09:50:10Z</time>
      </trkpt>
      <trkpt lat="43.21762" lon="5.48716">
        <ele>188.4</ele>
        <time>2025-10-18T09:50:11Z</time>
      </trkpt>
      <trkpt lat="43.21761" lon="5.48716">
        <ele>188.2</ele>
        <time>2025-10-18T09:50:12Z</time>
      </trkpt>
      <trkpt lat="43.21761" lon="5.48715">
        <ele>188.3</ele>
        <time>2025-10-18T09:50:13Z</time>
      </trkpt>
      <trkpt lat="43.2176" lon="5.48715">
        <ele>188.3</ele>
        <time>2025-10-18T09:50:14Z</time>
      </trkpt>
      <trkpt lat="43.21759" lon="5.48714">
        <ele>188.2</ele>
        <time>2025-10-18T09:50:15Z</time>
      </trkpt>
      <trkpt lat="43.21758" lon="5.48714">
        <ele>188.1</ele>
        <time>2025-10-18T09:50:16Z</time>
      </trkpt>
      <trkpt lat="43.21757" lon="5.48714">
        <ele>188</ele>
        <time>2025-10-18T09:50:17Z</time>
      </trkpt>
      <trkpt lat="43.21756" lon="5.48714">
        <ele>187.8</ele>
        <time>2025-10-18T09:50:18Z</time>
      </trkpt>
      <trkpt lat="43.21755" lon="5.48715">
        <ele>187.7</ele>
        <time>2025-10-18T09:50:19Z</time>
      </trkpt>
      <trkpt lat="43.21754" lon="5.48715">
        <ele>187.5</ele>
        <time>2025-10-18T09:50:20Z</time>
      </trkpt>
      <trkpt lat="43.21753" lon="5.48715">
        <ele>187.3</ele>
        <time>2025-10-18T09:50:21Z</time>
      </trkpt>
      <trkpt lat="43.21752" lon="5.48716">
        <ele>187.2</ele>
        <time>2025-10-18T09:50:22Z</time>
      </trkpt>
      <trkpt lat="43.21752" lon="5.48716">
        <ele>186.9</ele>
        <time>2025-10-18T09:50:23Z</time>
      </trkpt>
      <trkpt lat="43.21751" lon="5.48716">
        <ele>186.7</ele>
        <time>2025-10-18T09:50:24Z</time>
      </trkpt>
      <trkpt lat="43.21749" lon="5.48716">
        <ele>186.5</ele>
        <time>2025-10-18T09:50:25Z</time>
      </trkpt>
      <trkpt lat="43.21749" lon="5.48716">
        <ele>186.3</ele>
        <time>2025-10-18T09:50:26Z</time>
      </trkpt>
      <trkpt lat="43.21749" lon="5.48716">
        <ele>186.1</ele>
        <time>2025-10-18T09:50:27Z</time>
      </trkpt>
      <trkpt lat="43.21748" lon="5.48715">
        <ele>185.9</ele>
        <time>2025-10-18T09:50:28Z</time>
      </trkpt>
      <trkpt lat="43.21747" lon="5.48715">
        <ele>185.9</ele>
        <time>2025-10-18T09:50:29Z</time>
      </trkpt>
      <trkpt lat="43.21746" lon="5.48715">
        <ele>185.8</ele>
        <time>2025-10-18T09:50:30Z</time>
      </trkpt>
      <trkpt lat="43.21745" lon="5.48715">
        <ele>185.7</ele>
        <time>2025-10-18T09:50:31Z</time>
      </trkpt>
      <trkpt lat="43.21744" lon="5.48715">
        <ele>185.6</ele>
        <time>2025-10-18T09:50:32Z</time>
      </trkpt>
      <trkpt lat="43.21743" lon="5.48715">
        <ele>185.4</ele>
        <time>2025-10-18T09:50:33Z</time>
      </trkpt>
      <trkpt lat="43.21742" lon="5.48716">
        <ele>185.3</ele>
        <time>2025-10-18T09:50:34Z</time>
      </trkpt>
      <trkpt lat="43.21741" lon="5.48715">
        <ele>185.1</ele>
        <time>2025-10-18T09:50:35Z</time>
      </trkpt>
      <trkpt lat="43.2174" lon="5.48715">
        <ele>184.9</ele>
        <time>2025-10-18T09:50:36Z</time>
      </trkpt>
      <trkpt lat="43.21739" lon="5.48715">
        <ele>184.8</ele>
        <time>2025-10-18T09:50:37Z</time>
      </trkpt>
      <trkpt lat="43.21738" lon="5.48716">
        <ele>184.7</ele>
        <time>2025-10-18T09:50:38Z</time>
      </trkpt>
      <trkpt lat="43.21737" lon="5.48716">
        <ele>184.5</ele>
        <time>2025-10-18T09:50:39Z</time>
      </trkpt>
      <trkpt lat="43.21737" lon="5.48716">
        <ele>184.3</ele>
        <time>2025-10-18T09:50:40Z</time>
      </trkpt>
      <trkpt lat="43.21736" lon="5.48715">
        <ele>184.1</ele>
        <time>2025-10-18T09:50:41Z</time>
      </trkpt>
      <trkpt lat="43.21735" lon="5.48716">
        <ele>183.9</ele>
        <time>2025-10-18T09:50:42Z</time>
      </trkpt>
      <trkpt lat="43.21734" lon="5.48716">
        <ele>183.8</ele>
        <time>2025-10-18T09:50:43Z</time>
      </trkpt>
      <trkpt lat="43.21733" lon="5.48716">
        <ele>183.5</ele>
        <time>2025-10-18T09:50:44Z</time>
      </trkpt>
      <trkpt lat="43.21732" lon="5.48716">
        <ele>183.3</ele>
        <time>2025-10-18T09:50:45Z</time>
      </trkpt>
      <trkpt lat="43.21731" lon="5.48717">
        <ele>183</ele>
        <time>2025-10-18T09:50:46Z</time>
      </trkpt>
      <trkpt lat="43.21731" lon="5.48717">
        <ele>182.9</ele>
        <time>2025-10-18T09:50:47Z</time>
      </trkpt>
      <trkpt lat="43.2173" lon="5.48716">
        <ele>182.8</ele>
        <time>2025-10-18T09:50:48Z</time>
      </trkpt>
      <trkpt lat="43.21729" lon="5.48716">
        <ele>182.6</ele>
        <time>2025-10-18T09:50:49Z</time>
      </trkpt>
      <trkpt lat="43.21728" lon="5.48716">
        <ele>182.5</ele>
        <time>2025-10-18T09:50:50Z</time>
      </trkpt>
      <trkpt lat="43.21727" lon="5.48716">
        <ele>182.3</ele>
        <time>2025-10-18T09:50:51Z</time>
      </trkpt>
      <trkpt lat="43.21726" lon="5.48717">
        <ele>182.1</ele>
        <time>2025-10-18T09:50:52Z</time>
      </trkpt>
      <trkpt lat="43.21725" lon="5.48717">
        <ele>182</ele>
        <time>2025-10-18T09:50:53Z</time>
      </trkpt>
      <trkpt lat="43.21725" lon="5.48717">
        <ele>181.9</ele>
        <time>2025-10-18T09:50:54Z</time>
      </trkpt>
      <trkpt lat="43.21724" lon="5.48717">
        <ele>181.7</ele>
        <time>2025-10-18T09:50:55Z</time>
      </trkpt>
      <trkpt lat="43.21723" lon="5.48717">
        <ele>181.5</ele>
        <time>2025-10-18T09:50:56Z</time>
      </trkpt>
      <trkpt lat="43.21723" lon="5.48717">
        <ele>181.4</ele>
        <time>2025-10-18T09:50:57Z</time>
      </trkpt>
      <trkpt lat="43.21722" lon="5.48716">
        <ele>181.2</ele>
        <time>2025-10-18T09:50:58Z</time>
      </trkpt>
      <trkpt lat="43.21721" lon="5.48715">
        <ele>181.1</ele>
        <time>2025-10-18T09:50:59Z</time>
      </trkpt>
      <trkpt lat="43.2172" lon="5.48714">
        <ele>180.9</ele>
        <time>2025-10-18T09:51:00Z</time>
      </trkpt>
      <trkpt lat="43.21719" lon="5.48714">
        <ele>180.9</ele>
        <time>2025-10-18T09:51:01Z</time>
      </trkpt>
      <trkpt lat="43.21718" lon="5.48715">
        <ele>180.8</ele>
        <time>2025-10-18T09:51:02Z</time>
      </trkpt>
      <trkpt lat="43.21718" lon="5.48714">
        <ele>180.7</ele>
        <time>2025-10-18T09:51:03Z</time>
      </trkpt>
      <trkpt lat="43.21718" lon="5.48714">
        <ele>180.7</ele>
        <time>2025-10-18T09:51:04Z</time>
      </trkpt>
      <trkpt lat="43.21717" lon="5.48714">
        <ele>180.6</ele>
        <time>2025-10-18T09:51:05Z</time>
      </trkpt>
      <trkpt lat="43.21716" lon="5.48714">
        <ele>180.6</ele>
        <time>2025-10-18T09:51:06Z</time>
      </trkpt>
      <trkpt lat="43.21716" lon="5.48714">
        <ele>180.5</ele>
        <time>2025-10-18T09:51:07Z</time>
      </trkpt>
      <trkpt lat="43.21715" lon="5.48714">
        <ele>180.3</ele>
        <time>2025-10-18T09:51:08Z</time>
      </trkpt>
      <trkpt lat="43.21715" lon="5.48714">
        <ele>180.2</ele>
        <time>2025-10-18T09:51:09Z</time>
      </trkpt>
      <trkpt lat="43.21714" lon="5.48713">
        <ele>180.2</ele>
        <time>2025-10-18T09:51:10Z</time>
      </trkpt>
      <trkpt lat="43.21712" lon="5.48713">
        <ele>180.2</ele>
        <time>2025-10-18T09:51:11Z</time>
      </trkpt>
      <trkpt lat="43.21711" lon="5.48713">
        <ele>180.1</ele>
        <time>2025-10-18T09:51:12Z</time>
      </trkpt>
      <trkpt lat="43.21711" lon="5.48713">
        <ele>180</ele>
        <time>2025-10-18T09:51:13Z</time>
      </trkpt>
      <trkpt lat="43.21711" lon="5.48713">
        <ele>179.9</ele>
        <time>2025-10-18T09:51:14Z</time>
      </trkpt>
      <trkpt lat="43.2171" lon="5.48713">
        <ele>179.8</ele>
        <time>2025-10-18T09:51:15Z</time>
      </trkpt>
      <trkpt lat="43.2171" lon="5.48713">
        <ele>179.7</ele>
        <time>2025-10-18T09:51:16Z</time>
      </trkpt>
      <trkpt lat="43.21709" lon="5.48713">
        <ele>179.7</ele>
        <time>2025-10-18T09:51:17Z</time>
      </trkpt>
      <trkpt lat="43.21709" lon="5.48712">
        <ele>179.6</ele>
        <time>2025-10-18T09:51:18Z</time>
      </trkpt>
      <trkpt lat="43.21708" lon="5.48712">
        <ele>179.6</ele>
        <time>2025-10-18T09:51:19Z</time>
      </trkpt>
      <trkpt lat="43.21707" lon="5.48711">
        <ele>179.5</ele>
        <time>2025-10-18T09:51:20Z</time>
      </trkpt>
      <trkpt lat="43.21707" lon="5.4871">
        <ele>179.4</ele>
        <time>2025-10-18T09:51:21Z</time>
      </trkpt>
      <trkpt lat="43.21706" lon="5.48709">
        <ele>179.3</ele>
        <time>2025-10-18T09:51:22Z</time>
      </trkpt>
      <trkpt lat="43.21705" lon="5.48709">
        <ele>179.2</ele>
        <time>2025-10-18T09:51:23Z</time>
      </trkpt>
      <trkpt lat="43.21705" lon="5.48709">
        <ele>179</ele>
        <time>2025-10-18T09:51:24Z</time>
      </trkpt>
      <trkpt lat="43.21704" lon="5.48709">
        <ele>178.9</ele>
        <time>2025-10-18T09:51:25Z</time>
      </trkpt>
      <trkpt lat="43.21704" lon="5.48709">
        <ele>178.8</ele>
        <time>2025-10-18T09:51:26Z</time>
      </trkpt>
      <trkpt lat="43.21703" lon="5.48708">
        <ele>178.7</ele>
        <time>2025-10-18T09:51:27Z</time>
      </trkpt>
      <trkpt lat="43.21703" lon="5.48708">
        <ele>178.7</ele>
        <time>2025-10-18T09:51:28Z</time>
      </trkpt>
      <trkpt lat="43.21703" lon="5.48708">
        <ele>178.7</ele>
        <time>2025-10-18T09:51:29Z</time>
      </trkpt>
      <trkpt lat="43.21702" lon="5.48708">
        <ele>178.7</ele>
        <time>2025-10-18T09:51:30Z</time>
      </trkpt>
      <trkpt lat="43.21702" lon="5.48709">
        <ele>178.6</ele>
        <time>2025-10-18T09:51:31Z</time>
      </trkpt>
      <trkpt lat="43.21702" lon="5.48709">
        <ele>178.6</ele>
        <time>2025-10-18T09:51:32Z</time>
      </trkpt>
      <trkpt lat="43.21702" lon="5.48709">
        <ele>178.5</ele>
        <time>2025-10-18T09:51:33Z</time>
      </trkpt>
      <trkpt lat="43.21701" lon="5.48708">
        <ele>178.4</ele>
        <time>2025-10-18T09:51:34Z</time>
      </trkpt>
      <trkpt lat="43.217" lon="5.48708">
        <ele>178.3</ele>
        <time>2025-10-18T09:51:35Z</time>
      </trkpt>
      <trkpt lat="43.217" lon="5.48707">
        <ele>178.3</ele>
        <time>2025-10-18T09:51:36Z</time>
      </trkpt>
      <trkpt lat="43.21699" lon="5.48706">
        <ele>178.1</ele>
        <time>2025-10-18T09:51:37Z</time>
      </trkpt>
      <trkpt lat="43.21698" lon="5.48706">
        <ele>178</ele>
        <time>2025-10-18T09:51:38Z</time>
      </trkpt>
      <trkpt lat="43.21698" lon="5.48706">
        <ele>177.9</ele>
        <time>2025-10-18T09:51:39Z</time>
      </trkpt>
      <trkpt lat="43.21697" lon="5.48705">
        <ele>177.8</ele>
        <time>2025-10-18T09:51:40Z</time>
      </trkpt>
      <trkpt lat="43.21697" lon="5.48705">
        <ele>177.7</ele>
        <time>2025-10-18T09:51:41Z</time>
      </trkpt>
      <trkpt lat="43.21696" lon="5.48705">
        <ele>177.7</ele>
        <time>2025-10-18T09:51:42Z</time>
      </trkpt>
      <trkpt lat="43.21695" lon="5.48705">
        <ele>177.6</ele>
        <time>2025-10-18T09:51:43Z</time>
      </trkpt>
      <trkpt lat="43.21694" lon="5.48704">
        <ele>177.5</ele>
        <time>2025-10-18T09:51:44Z</time>
      </trkpt>
      <trkpt lat="43.21693" lon="5.48705">
        <ele>177.3</ele>
        <time>2025-10-18T09:51:45Z</time>
      </trkpt>
      <trkpt lat="43.21692" lon="5.48705">
        <ele>177.2</ele>
        <time>2025-10-18T09:51:46Z</time>
      </trkpt>
      <trkpt lat="43.21691" lon="5.48705">
        <ele>177</ele>
        <time>2025-10-18T09:51:47Z</time>
      </trkpt>
      <trkpt lat="43.21691" lon="5.48705">
        <ele>176.9</ele>
        <time>2025-10-18T09:51:48Z</time>
      </trkpt>
      <trkpt lat="43.2169" lon="5.48705">
        <ele>176.7</ele>
        <time>2025-10-18T09:51:49Z</time>
      </trkpt>
      <trkpt lat="43.2169" lon="5.48705">
        <ele>176.6</ele>
        <time>2025-10-18T09:51:50Z</time>
      </trkpt>
      <trkpt lat="43.2169" lon="5.48704">
        <ele>176.6</ele>
        <time>2025-10-18T09:51:51Z</time>
      </trkpt>
      <trkpt lat="43.21689" lon="5.48705">
        <ele>176.4</ele>
        <time>2025-10-18T09:51:52Z</time>
      </trkpt>
      <trkpt lat="43.21688" lon="5.48705">
        <ele>176.3</ele>
        <time>2025-10-18T09:51:53Z</time>
      </trkpt>
      <trkpt lat="43.21687" lon="5.48705">
        <ele>176.2</ele>
        <time>2025-10-18T09:51:54Z</time>
      </trkpt>
      <trkpt lat="43.21687" lon="5.48706">
        <ele>176</ele>
        <time>2025-10-18T09:51:55Z</time>
      </trkpt>
      <trkpt lat="43.21686" lon="5.48706">
        <ele>175.8</ele>
        <time>2025-10-18T09:51:56Z</time>
      </trkpt>
      <trkpt lat="43.21685" lon="5.48706">
        <ele>175.6</ele>
        <time>2025-10-18T09:51:57Z</time>
      </trkpt>
      <trkpt lat="43.21685" lon="5.48706">
        <ele>175.4</ele>
        <time>2025-10-18T09:51:58Z</time>
      </trkpt>
      <trkpt lat="43.21684" lon="5.48706">
        <ele>175.2</ele>
        <time>2025-10-18T09:51:59Z</time>
      </trkpt>
      <trkpt lat="43.21683" lon="5.48706">
        <ele>175</ele>
        <time>2025-10-18T09:52:00Z</time>
      </trkpt>
      <trkpt lat="43.21683" lon="5.48706">
        <ele>174.8</ele>
        <time>2025-10-18T09:52:01Z</time>
      </trkpt>
      <trkpt lat="43.21682" lon="5.48707">
        <ele>174.6</ele>
        <time>2025-10-18T09:52:02Z</time>
      </trkpt>
      <trkpt lat="43.21682" lon="5.48707">
        <ele>174.4</ele>
        <time>2025-10-18T09:52:03Z</time>
      </trkpt>
      <trkpt lat="43.21681" lon="5.48708">
        <ele>174.1</ele>
        <time>2025-10-18T09:52:04Z</time>
      </trkpt>
      <trkpt lat="43.2168" lon="5.48708">
        <ele>173.8</ele>
        <time>2025-10-18T09:52:05Z</time>
      </trkpt>
      <trkpt lat="43.2168" lon="5.48709">
        <ele>173.6</ele>
        <time>2025-10-18T09:52:06Z</time>
      </trkpt>
      <trkpt lat="43.21679" lon="5.48709">
        <ele>173.4</ele>
        <time>2025-10-18T09:52:07Z</time>
      </trkpt>
      <trkpt lat="43.21679" lon="5.48709">
        <ele>173.3</ele>
        <time>2025-10-18T09:52:08Z</time>
      </trkpt>
      <trkpt lat="43.21679" lon="5.4871">
        <ele>173.2</ele>
        <time>2025-10-18T09:52:09Z</time>
      </trkpt>
      <trkpt lat="43.21679" lon="5.4871">
        <ele>173.1</ele>
        <time>2025-10-18T09:52:10Z</time>
      </trkpt>
      <trkpt lat="43.21679" lon="5.48711">
        <ele>172.9</ele>
        <time>2025-10-18T09:52:11Z</time>
      </trkpt>
      <trkpt lat="43.21678" lon="5.48711">
        <ele>172.7</ele>
        <time>2025-10-18T09:52:12Z</time>
      </trkpt>
      <trkpt lat="43.21677" lon="5.4871">
        <ele>172.5</ele>
        <time>2025-10-18T09:52:13Z</time>
      </trkpt>
      <trkpt lat="43.21677" lon="5.4871">
        <ele>172.4</ele>
        <time>2025-10-18T09:52:14Z</time>
      </trkpt>
      <trkpt lat="43.21676" lon="5.4871">
        <ele>172.2</ele>
        <time>2025-10-18T09:52:15Z</time>
      </trkpt>
      <trkpt lat="43.21676" lon="5.48709">
        <ele>172</ele>
        <time>2025-10-18T09:52:16Z</time>
      </trkpt>
      <trkpt lat="43.21676" lon="5.48709">
        <ele>171.8</ele>
        <time>2025-10-18T09:52:17Z</time>
      </trkpt>
      <trkpt lat="43.21675" lon="5.48709">
        <ele>171.7</ele>
        <time>2025-10-18T09:52:18Z</time>
      </trkpt>
      <trkpt lat="43.21674" lon="5.48709">
        <ele>171.5</ele>
        <time>2025-10-18T09:52:19Z</time>
      </trkpt>
      <trkpt lat="43.21674" lon="5.48709">
        <ele>171.4</ele>
        <time>2025-10-18T09:52:20Z</time>
      </trkpt>
      <trkpt lat="43.21674" lon="5.48708">
        <ele>171.2</ele>
        <time>2025-10-18T09:52:21Z</time>
      </trkpt>
      <trkpt lat="43.21673" lon="5.48707">
        <ele>171.1</ele>
        <time>2025-10-18T09:52:22Z</time>
      </trkpt>
      <trkpt lat="43.21672" lon="5.48707">
        <ele>171.1</ele>
        <time>2025-10-18T09:52:23Z</time>
      </trkpt>
      <trkpt lat="43.21672" lon="5.48706">
        <ele>171</ele>
        <time>2025-10-18T09:52:24Z</time>
      </trkpt>
      <trkpt lat="43.21672" lon="5.48706">
        <ele>170.9</ele>
        <time>2025-10-18T09:52:25Z</time>
      </trkpt>
      <trkpt lat="43.21671" lon="5.48706">
        <ele>170.9</ele>
        <time>2025-10-18T09:52:26Z</time>
      </trkpt>
      <trkpt lat="43.21671" lon="5.48705">
        <ele>170.8</ele>
        <time>2025-10-18T09:52:27Z</time>
      </trkpt>
      <trkpt lat="43.2167" lon="5.48705">
        <ele>170.7</ele>
        <time>2025-10-18T09:52:28Z</time>
      </trkpt>
      <trkpt lat="43.2167" lon="5.48705">
        <ele>170.6</ele>
        <time>2025-10-18T09:52:29Z</time>
      </trkpt>
      <trkpt lat="43.21669" lon="5.48705">
        <ele>170.5</ele>
        <time>2025-10-18T09:52:30Z</time>
      </trkpt>
      <trkpt lat="43.21668" lon="5.48705">
        <ele>170.6</ele>
        <time>2025-10-18T09:52:31Z</time>
      </trkpt>
      <trkpt lat="43.21668" lon="5.48705">
        <ele>170.6</ele>
        <time>2025-10-18T09:52:32Z</time>
      </trkpt>
      <trkpt lat="43.21667" lon="5.48705">
        <ele>170.6</ele>
        <time>2025-10-18T09:52:33Z</time>
      </trkpt>
      <trkpt lat="43.21666" lon="5.48705">
        <ele>170.5</ele>
        <time>2025-10-18T09:52:34Z</time>
      </trkpt>
      <trkpt lat="43.21666" lon="5.48705">
        <ele>170.4</ele>
        <time>2025-10-18T09:52:35Z</time>
      </trkpt>
      <trkpt lat="43.21665" lon="5.48704">
        <ele>170.1</ele>
        <time>2025-10-18T09:52:36Z</time>
      </trkpt>
      <trkpt lat="43.21664" lon="5.48703">
        <ele>169.9</ele>
        <time>2025-10-18T09:52:37Z</time>
      </trkpt>
      <trkpt lat="43.21664" lon="5.48703">
        <ele>169.8</ele>
        <time>2025-10-18T09:52:38Z</time>
      </trkpt>
      <trkpt lat="43.21663" lon="5.48703">
        <ele>169.7</ele>
        <time>2025-10-18T09:52:39Z</time>
      </trkpt>
      <trkpt lat="43.21662" lon="5.48703">
        <ele>169.6</ele>
        <time>2025-10-18T09:52:40Z</time>
      </trkpt>
      <trkpt lat="43.21662" lon="5.48703">
        <ele>169.5</ele>
        <time>2025-10-18T09:52:41Z</time>
      </trkpt>
      <trkpt lat="43.21661" lon="5.48703">
        <ele>169.4</ele>
        <time>2025-10-18T09:52:42Z</time>
      </trkpt>
      <trkpt lat="43.2166" lon="5.48702">
        <ele>169.2</ele>
        <time>2025-10-18T09:52:43Z</time>
      </trkpt>
      <trkpt lat="43.21659" lon="5.48702">
        <ele>169.1</ele>
        <time>2025-10-18T09:52:44Z</time>
      </trkpt>
      <trkpt lat="43.21659" lon="5.48702">
        <ele>168.9</ele>
        <time>2025-10-18T09:52:45Z</time>
      </trkpt>
      <trkpt lat="43.21658" lon="5.48702">
        <ele>168.8</ele>
        <time>2025-10-18T09:52:46Z</time>
      </trkpt>
      <trkpt lat="43.21658" lon="5.48702">
        <ele>168.7</ele>
        <time>2025-10-18T09:52:47Z</time>
      </trkpt>
      <trkpt lat="43.21657" lon="5.48702">
        <ele>168.5</ele>
        <time>2025-10-18T09:52:48Z</time>
      </trkpt>
      <trkpt lat="43.21656" lon="5.48703">
        <ele>168.3</ele>
        <time>2025-10-18T09:52:49Z</time>
      </trkpt>
      <trkpt lat="43.21656" lon="5.48703">
        <ele>168.2</ele>
        <time>2025-10-18T09:52:50Z</time>
      </trkpt>
      <trkpt lat="43.21655" lon="5.48703">
        <ele>168</ele>
        <time>2025-10-18T09:52:51Z</time>
      </trkpt>
      <trkpt lat="43.21654" lon="5.48702">
        <ele>167.8</ele>
        <time>2025-10-18T09:52:52Z</time>
      </trkpt>
      <trkpt lat="43.21653" lon="5.48702">
        <ele>167.6</ele>
        <time>2025-10-18T09:52:53Z</time>
      </trkpt>
      <trkpt lat="43.21653" lon="5.48702">
        <ele>167.5</ele>
        <time>2025-10-18T09:52:54Z</time>
      </trkpt>
      <trkpt lat="43.21652" lon="5.48703">
        <ele>167.2</ele>
        <time>2025-10-18T09:52:55Z</time>
      </trkpt>
      <trkpt lat="43.21652" lon="5.48703">
        <ele>167.1</ele>
        <time>2025-10-18T09:52:56Z</time>
      </trkpt>
      <trkpt lat="43.21651" lon="5.48703">
        <ele>167</ele>
        <time>2025-10-18T09:52:57Z</time>
      </trkpt>
      <trkpt lat="43.21651" lon="5.48703">
        <ele>167</ele>
        <time>2025-10-18T09:52:58Z</time>
      </trkpt>
      <trkpt lat="43.21651" lon="5.48703">
        <ele>166.9</ele>
        <time>2025-10-18T09:52:59Z</time>
      </trkpt>
      <trkpt lat="43.2165" lon="5.48703">
        <ele>166.8</ele>
        <time>2025-10-18T09:53:00Z</time>
      </trkpt>
      <trkpt lat="43.2165" lon="5.48703">
        <ele>166.7</ele>
        <time>2025-10-18T09:53:01Z</time>
      </trkpt>
      <trkpt lat="43.2165" lon="5.48703">
        <ele>166.6</ele>
        <time>2025-10-18T09:53:02Z</time>
      </trkpt>
      <trkpt lat="43.21649" lon="5.48703">
        <ele>166.5</ele>
        <time>2025-10-18T09:53:03Z</time>
      </trkpt>
      <trkpt lat="43.21649" lon="5.48702">
        <ele>166.4</ele>
        <time>2025-10-18T09:53:04Z</time>
      </trkpt>
      <trkpt lat="43.21648" lon="5.48702">
        <ele>166.3</ele>
        <time>2025-10-18T09:53:05Z</time>
      </trkpt>
      <trkpt lat="43.21648" lon="5.48702">
        <ele>166.3</ele>
        <time>2025-10-18T09:53:06Z</time>
      </trkpt>
      <trkpt lat="43.21648" lon="5.48702">
        <ele>166.2</ele>
        <time>2025-10-18T09:53:07Z</time>
      </trkpt>
      <trkpt lat="43.21647" lon="5.48702">
        <ele>166.2</ele>
        <time>2025-10-18T09:53:08Z</time>
      </trkpt>
      <trkpt lat="43.21647" lon="5.48702">
        <ele>166.2</ele>
        <time>2025-10-18T09:53:09Z</time>
      </trkpt>
      <trkpt lat="43.21647" lon="5.48702">
        <ele>166.1</ele>
        <time>2025-10-18T09:53:10Z</time>
      </trkpt>
      <trkpt lat="43.21646" lon="5.48702">
        <ele>166</ele>
        <time>2025-10-18T09:53:11Z</time>
      </trkpt>
      <trkpt lat="43.21646" lon="5.48702">
        <ele>165.8</ele>
        <time>2025-10-18T09:53:12Z</time>
      </trkpt>
      <trkpt lat="43.21646" lon="5.48701">
        <ele>165.7</ele>
        <time>2025-10-18T09:53:13Z</time>
      </trkpt>
      <trkpt lat="43.21645" lon="5.48701">
        <ele>165.6</ele>
        <time>2025-10-18T09:53:14Z</time>
      </trkpt>
      <trkpt lat="43.21645" lon="5.48701">
        <ele>165.4</ele>
        <time>2025-10-18T09:53:15Z</time>
      </trkpt>
      <trkpt lat="43.21644" lon="5.48701">
        <ele>165.2</ele>
        <time>2025-10-18T09:53:16Z</time>
      </trkpt>
      <trkpt lat="43.21644" lon="5.48701">
        <ele>164.9</ele>
        <time>2025-10-18T09:53:17Z</time>
      </trkpt>
      <trkpt lat="43.21643" lon="5.48701">
        <ele>164.7</ele>
        <time>2025-10-18T09:53:18Z</time>
      </trkpt>
      <trkpt lat="43.21642" lon="5.48701">
        <ele>164.5</ele>
        <time>2025-10-18T09:53:19Z</time>
      </trkpt>
      <trkpt lat="43.21641" lon="5.487">
        <ele>164.3</ele>
        <time>2025-10-18T09:53:20Z</time>
      </trkpt>
      <trkpt lat="43.2164" lon="5.487">
        <ele>164.2</ele>
        <time>2025-10-18T09:53:21Z</time>
      </trkpt>
      <trkpt lat="43.21639" lon="5.487">
        <ele>164.1</ele>
        <time>2025-10-18T09:53:22Z</time>
      </trkpt>
      <trkpt lat="43.21639" lon="5.487">
        <ele>163.9</ele>
        <time>2025-10-18T09:53:23Z</time>
      </trkpt>
      <trkpt lat="43.21638" lon="5.487">
        <ele>163.8</ele>
        <time>2025-10-18T09:53:24Z</time>
      </trkpt>
      <trkpt lat="43.21637" lon="5.48701">
        <ele>163.8</ele>
        <time>2025-10-18T09:53:25Z</time>
      </trkpt>
      <trkpt lat="43.21636" lon="5.48701">
        <ele>163.7</ele>
        <time>2025-10-18T09:53:26Z</time>
      </trkpt>
      <trkpt lat="43.21636" lon="5.48702">
        <ele>163.6</ele>
        <time>2025-10-18T09:53:27Z</time>
      </trkpt>
      <trkpt lat="43.21635" lon="5.48702">
        <ele>163.6</ele>
        <time>2025-10-18T09:53:28Z</time>
      </trkpt>
      <trkpt lat="43.21635" lon="5.48702">
        <ele>163.5</ele>
        <time>2025-10-18T09:53:29Z</time>
      </trkpt>
      <trkpt lat="43.21634" lon="5.48703">
        <ele>163.5</ele>
        <time>2025-10-18T09:53:30Z</time>
      </trkpt>
      <trkpt lat="43.21634" lon="5.48703">
        <ele>163.4</ele>
        <time>2025-10-18T09:53:31Z</time>
      </trkpt>
      <trkpt lat="43.21634" lon="5.48703">
        <ele>163.5</ele>
        <time>2025-10-18T09:53:32Z</time>
      </trkpt>
      <trkpt lat="43.21633" lon="5.48704">
        <ele>163.5</ele>
        <time>2025-10-18T09:53:33Z</time>
      </trkpt>
      <trkpt lat="43.21632" lon="5.48704">
        <ele>163.6</ele>
        <time>2025-10-18T09:53:34Z</time>
      </trkpt>
      <trkpt lat="43.21632" lon="5.48704">
        <ele>163.6</ele>
        <time>2025-10-18T09:53:35Z</time>
      </trkpt>
      <trkpt lat="43.21631" lon="5.48704">
        <ele>163.6</ele>
        <time>2025-10-18T09:53:36Z</time>
      </trkpt>
      <trkpt lat="43.21631" lon="5.48705">
        <ele>163.7</ele>
        <time>2025-10-18T09:53:37Z</time>
      </trkpt>
      <trkpt lat="43.2163" lon="5.48705">
        <ele>163.6</ele>
        <time>2025-10-18T09:53:38Z</time>
      </trkpt>
      <trkpt lat="43.2163" lon="5.48705">
        <ele>163.7</ele>
        <time>2025-10-18T09:53:39Z</time>
      </trkpt>
      <trkpt lat="43.2163" lon="5.48706">
        <ele>163.7</ele>
        <time>2025-10-18T09:53:40Z</time>
      </trkpt>
      <trkpt lat="43.21629" lon="5.48705">
        <ele>163.7</ele>
        <time>2025-10-18T09:53:41Z</time>
      </trkpt>
      <trkpt lat="43.21628" lon="5.48706">
        <ele>163.6</ele>
        <time>2025-10-18T09:53:42Z</time>
      </trkpt>
      <trkpt lat="43.21628" lon="5.48706">
        <ele>163.6</ele>
        <time>2025-10-18T09:53:43Z</time>
      </trkpt>
      <trkpt lat="43.21627" lon="5.48705">
        <ele>163.5</ele>
        <time>2025-10-18T09:53:44Z</time>
      </trkpt>
      <trkpt lat="43.21626" lon="5.48705">
        <ele>163.5</ele>
        <time>2025-10-18T09:53:45Z</time>
      </trkpt>
      <trkpt lat="43.21625" lon="5.48705">
        <ele>163.2</ele>
        <time>2025-10-18T09:53:46Z</time>
      </trkpt>
      <trkpt lat="43.21624" lon="5.48705">
        <ele>163</ele>
        <time>2025-10-18T09:53:47Z</time>
      </trkpt>
      <trkpt lat="43.21623" lon="5.48705">
        <ele>162.9</ele>
        <time>2025-10-18T09:53:48Z</time>
      </trkpt>
      <trkpt lat="43.21623" lon="5.48705">
        <ele>162.7</ele>
        <time>2025-10-18T09:53:49Z</time>
      </trkpt>
      <trkpt lat="43.21622" lon="5.48706">
        <ele>162.7</ele>
        <time>2025-10-18T09:53:50Z</time>
      </trkpt>
      <trkpt lat="43.21621" lon="5.48706">
        <ele>162.6</ele>
        <time>2025-10-18T09:53:51Z</time>
      </trkpt>
      <trkpt lat="43.2162" lon="5.48706">
        <ele>162.5</ele>
        <time>2025-10-18T09:53:52Z</time>
      </trkpt>
      <trkpt lat="43.2162" lon="5.48707">
        <ele>162.3</ele>
        <time>2025-10-18T09:53:53Z</time>
      </trkpt>
      <trkpt lat="43.21619" lon="5.48707">
        <ele>162.2</ele>
        <time>2025-10-18T09:53:54Z</time>
      </trkpt>
      <trkpt lat="43.21618" lon="5.48708">
        <ele>162</ele>
        <time>2025-10-18T09:53:55Z</time>
      </trkpt>
      <trkpt lat="43.21617" lon="5.48708">
        <ele>161.9</ele>
        <time>2025-10-18T09:53:56Z</time>
      </trkpt>
      <trkpt lat="43.21617" lon="5.48708">
        <ele>161.9</ele>
        <time>2025-10-18T09:53:57Z</time>
      </trkpt>
      <trkpt lat="43.21616" lon="5.48708">
        <ele>161.8</ele>
        <time>2025-10-18T09:53:58Z</time>
      </trkpt>
      <trkpt lat="43.21615" lon="5.48709">
        <ele>161.7</ele>
        <time>2025-10-18T09:53:59Z</time>
      </trkpt>
      <trkpt lat="43.21615" lon="5.48709">
        <ele>161.7</ele>
        <time>2025-10-18T09:54:00Z</time>
      </trkpt>
      <trkpt lat="43.21614" lon="5.4871">
        <ele>161.6</ele>
        <time>2025-10-18T09:54:01Z</time>
      </trkpt>
      <trkpt lat="43.21614" lon="5.48709">
        <ele>161.6</ele>
        <time>2025-10-18T09:54:02Z</time>
      </trkpt>
      <trkpt lat="43.21613" lon="5.48709">
        <ele>161.6</ele>
        <time>2025-10-18T09:54:03Z</time>
      </trkpt>
      <trkpt lat="43.21613" lon="5.48709">
        <ele>161.6</ele>
        <time>2025-10-18T09:54:04Z</time>
      </trkpt>
      <trkpt lat="43.21612" lon="5.48709">
        <ele>161.6</ele>
        <time>2025-10-18T09:54:05Z</time>
      </trkpt>
      <trkpt lat="43.21611" lon="5.48709">
        <ele>161.6</ele>
        <time>2025-10-18T09:54:06Z</time>
      </trkpt>
      <trkpt lat="43.2161" lon="5.48709">
        <ele>161.8</ele>
        <time>2025-10-18T09:54:07Z</time>
      </trkpt>
      <trkpt lat="43.2161" lon="5.48709">
        <ele>161.8</ele>
        <time>2025-10-18T09:54:08Z</time>
      </trkpt>
      <trkpt lat="43.2161" lon="5.48709">
        <ele>161.8</ele>
        <time>2025-10-18T09:54:09Z</time>
      </trkpt>
      <trkpt lat="43.21609" lon="5.48709">
        <ele>161.8</ele>
        <time>2025-10-18T09:54:10Z</time>
      </trkpt>
      <trkpt lat="43.21609" lon="5.48709">
        <ele>161.8</ele>
        <time>2025-10-18T09:54:11Z</time>
      </trkpt>
      <trkpt lat="43.21608" lon="5.48709">
        <ele>161.8</ele>
        <time>2025-10-18T09:54:12Z</time>
      </trkpt>
      <trkpt lat="43.21607" lon="5.48709">
        <ele>161.8</ele>
        <time>2025-10-18T09:54:13Z</time>
      </trkpt>
      <trkpt lat="43.21607" lon="5.48709">
        <ele>161.8</ele>
        <time>2025-10-18T09:54:14Z</time>
      </trkpt>
      <trkpt lat="43.21607" lon="5.48709">
        <ele>161.6</ele>
        <time>2025-10-18T09:54:15Z</time>
      </trkpt>
      <trkpt lat="43.21607" lon="5.48709">
        <ele>161.6</ele>
        <time>2025-10-18T09:54:16Z</time>
      </trkpt>
      <trkpt lat="43.21606" lon="5.48709">
        <ele>161.6</ele>
        <time>2025-10-18T09:54:17Z</time>
      </trkpt>
      <trkpt lat="43.21606" lon="5.48709">
        <ele>161.6</ele>
        <time>2025-10-18T09:54:18Z</time>
      </trkpt>
      <trkpt lat="43.21606" lon="5.48709">
        <ele>161.6</ele>
        <time>2025-10-18T09:54:19Z</time>
      </trkpt>
      <trkpt lat="43.21606" lon="5.48709">
        <ele>161.6</ele>
        <time>2025-10-18T09:54:20Z</time>
      </trkpt>
      <trkpt lat="43.21606" lon="5.48708">
        <ele>161.7</ele>
        <time>2025-10-18T09:54:21Z</time>
      </trkpt>
      <trkpt lat="43.21606" lon="5.48708">
        <ele>161.7</ele>
        <time>2025-10-18T09:54:22Z</time>
      </trkpt>
      <trkpt lat="43.21606" lon="5.48708">
        <ele>161.7</ele>
        <time>2025-10-18T09:54:23Z</time>
      </trkpt>
      <trkpt lat="43.21605" lon="5.48708">
        <ele>161.6</ele>
        <time>2025-10-18T09:54:24Z</time>
      </trkpt>
      <trkpt lat="43.21604" lon="5.48709">
        <ele>161.5</ele>
        <time>2025-10-18T09:54:25Z</time>
      </trkpt>
      <trkpt lat="43.21605" lon="5.48709">
        <ele>161.6</ele>
        <time>2025-10-18T09:54:26Z</time>
      </trkpt>
      <trkpt lat="43.21604" lon="5.48709">
        <ele>161.6</ele>
        <time>2025-10-18T09:54:27Z</time>
      </trkpt>
      <trkpt lat="43.21604" lon="5.48709">
        <ele>161.6</ele>
        <time>2025-10-18T09:54:28Z</time>
      </trkpt>
      <trkpt lat="43.21605" lon="5.48709">
        <ele>161.6</ele>
        <time>2025-10-18T09:54:29Z</time>
      </trkpt>
      <trkpt lat="43.21605" lon="5.48709">
        <ele>161.6</ele>
        <time>2025-10-18T09:54:30Z</time>
      </trkpt>
      <trkpt lat="43.21605" lon="5.48709">
        <ele>161.6</ele>
        <time>2025-10-18T09:54:31Z</time>
      </trkpt>
      <trkpt lat="43.21605" lon="5.48709">
        <ele>161.6</ele>
        <time>2025-10-18T09:54:32Z</time>
      </trkpt>
      <trkpt lat="43.21605" lon="5.4871">
        <ele>161.6</ele>
        <time>2025-10-18T09:54:33Z</time>
      </trkpt>
      <trkpt lat="43.21605" lon="5.4871">
        <ele>161.6</ele>
        <time>2025-10-18T09:54:34Z</time>
      </trkpt>
      <trkpt lat="43.21605" lon="5.4871">
        <ele>161.5</ele>
        <time>2025-10-18T09:54:35Z</time>
      </trkpt>
      <trkpt lat="43.21605" lon="5.4871">
        <ele>161.5</ele>
        <time>2025-10-18T09:54:36Z</time>
      </trkpt>
      <trkpt lat="43.21606" lon="5.4871">
        <ele>161.5</ele>
        <time>2025-10-18T09:54:37Z</time>
      </trkpt>
      <trkpt lat="43.21606" lon="5.4871">
        <ele>161.5</ele>
        <time>2025-10-18T09:54:38Z</time>
      </trkpt>
      <trkpt lat="43.21605" lon="5.4871">
        <ele>161.6</ele>
        <time>2025-10-18T09:54:39Z</time>
      </trkpt>
      <trkpt lat="43.21605" lon="5.4871">
        <ele>161.6</ele>
        <time>2025-10-18T09:54:40Z</time>
      </trkpt>
      <trkpt lat="43.21605" lon="5.4871">
        <ele>161.6</ele>
        <time>2025-10-18T09:54:41Z</time>
      </trkpt>
      <trkpt lat="43.21605" lon="5.4871">
        <ele>161.5</ele>
        <time>2025-10-18T09:54:42Z</time>
      </trkpt>
      <trkpt lat="43.21605" lon="5.4871">
        <ele>161.5</ele>
        <time>2025-10-18T09:54:43Z</time>
      </trkpt>
      <trkpt lat="43.21606" lon="5.4871">
        <ele>161.5</ele>
        <time>2025-10-18T09:54:44Z</time>
      </trkpt>
      <trkpt lat="43.21606" lon="5.4871">
        <ele>161.5</ele>
        <time>2025-10-18T09:54:45Z</time>
      </trkpt>
      <trkpt lat="43.21606" lon="5.4871">
        <ele>161.6</ele>
        <time>2025-10-18T09:54:46Z</time>
      </trkpt>
      <trkpt lat="43.21606" lon="5.4871">
        <ele>161.6</ele>
        <time>2025-10-18T09:54:47Z</time>
      </trkpt>
      <trkpt lat="43.21606" lon="5.4871">
        <ele>161.6</ele>
        <time>2025-10-18T09:54:48Z</time>
      </trkpt>
      <trkpt lat="43.21606" lon="5.4871">
        <ele>161.6</ele>
        <time>2025-10-18T09:54:49Z</time>
      </trkpt>
      <trkpt lat="43.21606" lon="5.4871">
        <ele>161.6</ele>
        <time>2025-10-18T09:54:50Z</time>
      </trkpt>
      <trkpt lat="43.21606" lon="5.4871">
        <ele>161.6</ele>
        <time>2025-10-18T09:54:51Z</time>
      </trkpt>
      <trkpt lat="43.21606" lon="5.4871">
        <ele>161.6</ele>
        <time>2025-10-18T09:54:52Z</time>
      </trkpt>
      <trkpt lat="43.21606" lon="5.4871">
        <ele>161.6</ele>
        <time>2025-10-18T09:54:53Z</time>
      </trkpt>
      <trkpt lat="43.21606" lon="5.4871">
        <ele>161.6</ele>
        <time>2025-10-18T09:54:54Z</time>
      </trkpt>
      <trkpt lat="43.21606" lon="5.4871">
        <ele>161.7</ele>
        <time>2025-10-18T09:54:55Z</time>
      </trkpt>
      <trkpt lat="43.21606" lon="5.4871">
        <ele>161.7</ele>
        <time>2025-10-18T09:54:56Z</time>
      </trkpt>
      <trkpt lat="43.21606" lon="5.4871">
        <ele>161.7</ele>
        <time>2025-10-18T09:54:57Z</time>
      </trkpt>
      <trkpt lat="43.21606" lon="5.4871">
        <ele>161.6</ele>
        <time>2025-10-18T09:54:58Z</time>
      </trkpt>
      <trkpt lat="43.21606" lon="5.4871">
        <ele>161.5</ele>
        <time>2025-10-18T09:54:59Z</time>
      </trkpt>
      <trkpt lat="43.21606" lon="5.4871">
        <ele>161.5</ele>
        <time>2025-10-18T09:55:00Z</time>
      </trkpt>
      <trkpt lat="43.21606" lon="5.4871">
        <ele>161.4</ele>
        <time>2025-10-18T09:55:01Z</time>
      </trkpt>
      <trkpt lat="43.21606" lon="5.4871">
        <ele>161.4</ele>
        <time>2025-10-18T09:55:02Z</time>
      </trkpt>
      <trkpt lat="43.21606" lon="5.4871">
        <ele>161.4</ele>
        <time>2025-10-18T09:55:03Z</time>
      </trkpt>
      <trkpt lat="43.21606" lon="5.4871">
        <ele>161.4</ele>
        <time>2025-10-18T09:55:04Z</time>
      </trkpt>
      <trkpt lat="43.21606" lon="5.4871">
        <ele>161.5</ele>
        <time>2025-10-18T09:55:05Z</time>
      </trkpt>
      <trkpt lat="43.21606" lon="5.4871">
        <ele>161.5</ele>
        <time>2025-10-18T09:55:06Z</time>
      </trkpt>
      <trkpt lat="43.21606" lon="5.4871">
        <ele>161.5</ele>
        <time>2025-10-18T09:55:07Z</time>
      </trkpt>
      <trkpt lat="43.21606" lon="5.4871">
        <ele>161.6</ele>
        <time>2025-10-18T09:55:08Z</time>
      </trkpt>
      <trkpt lat="43.21606" lon="5.4871">
        <ele>161.6</ele>
        <time>2025-10-18T09:55:09Z</time>
      </trkpt>
      <trkpt lat="43.21606" lon="5.48709">
        <ele>161.7</ele>
        <time>2025-10-18T09:55:10Z</time>
      </trkpt>
      <trkpt lat="43.21606" lon="5.48709">
        <ele>161.7</ele>
        <time>2025-10-18T09:55:11Z</time>
      </trkpt>
      <trkpt lat="43.21605" lon="5.48709">
        <ele>161.7</ele>
        <time>2025-10-18T09:55:12Z</time>
      </trkpt>
      <trkpt lat="43.21605" lon="5.48709">
        <ele>161.7</ele>
        <time>2025-10-18T09:55:13Z</time>
      </trkpt>
      <trkpt lat="43.21605" lon="5.48709">
        <ele>161.7</ele>
        <time>2025-10-18T09:55:14Z</time>
      </trkpt>
      <trkpt lat="43.21605" lon="5.48709">
        <ele>161.7</ele>
        <time>2025-10-18T09:55:15Z</time>
      </trkpt>
      <trkpt lat="43.21605" lon="5.48709">
        <ele>161.6</ele>
        <time>2025-10-18T09:55:16Z</time>
      </trkpt>
      <trkpt lat="43.21604" lon="5.48709">
        <ele>161.6</ele>
        <time>2025-10-18T09:55:17Z</time>
      </trkpt>
      <trkpt lat="43.21604" lon="5.48709">
        <ele>161.6</ele>
        <time>2025-10-18T09:55:18Z</time>
      </trkpt>
      <trkpt lat="43.21604" lon="5.48709">
        <ele>161.6</ele>
        <time>2025-10-18T09:55:19Z</time>
      </trkpt>
      <trkpt lat="43.21604" lon="5.48709">
        <ele>161.6</ele>
        <time>2025-10-18T09:55:20Z</time>
      </trkpt>
      <trkpt lat="43.21604" lon="5.48709">
        <ele>161.7</ele>
        <time>2025-10-18T09:55:21Z</time>
      </trkpt>
      <trkpt lat="43.21604" lon="5.48709">
        <ele>161.7</ele>
        <time>2025-10-18T09:55:22Z</time>
      </trkpt>
      <trkpt lat="43.21604" lon="5.48709">
        <ele>161.8</ele>
        <time>2025-10-18T09:55:23Z</time>
      </trkpt>
      <trkpt lat="43.21604" lon="5.48709">
        <ele>161.8</ele>
        <time>2025-10-18T09:55:24Z</time>
      </trkpt>
      <trkpt lat="43.21604" lon="5.4871">
        <ele>161.9</ele>
        <time>2025-10-18T09:55:25Z</time>
      </trkpt>
      <trkpt lat="43.21604" lon="5.4871">
        <ele>161.8</ele>
        <time>2025-10-18T09:55:26Z</time>
      </trkpt>
      <trkpt lat="43.21604" lon="5.4871">
        <ele>161.8</ele>
        <time>2025-10-18T09:55:27Z</time>
      </trkpt>
      <trkpt lat="43.21604" lon="5.4871">
        <ele>161.8</ele>
        <time>2025-10-18T09:55:28Z</time>
      </trkpt>
      <trkpt lat="43.21604" lon="5.4871">
        <ele>161.8</ele>
        <time>2025-10-18T09:55:29Z</time>
      </trkpt>
      <trkpt lat="43.21604" lon="5.4871">
        <ele>161.8</ele>
        <time>2025-10-18T09:55:30Z</time>
      </trkpt>
      <trkpt lat="43.21604" lon="5.4871">
        <ele>161.8</ele>
        <time>2025-10-18T09:55:31Z</time>
      </trkpt>
      <trkpt lat="43.21605" lon="5.4871">
        <ele>161.8</ele>
        <time>2025-10-18T09:55:32Z</time>
      </trkpt>
      <trkpt lat="43.21605" lon="5.4871">
        <ele>161.8</ele>
        <time>2025-10-18T09:55:33Z</time>
      </trkpt>
      <trkpt lat="43.21605" lon="5.48711">
        <ele>161.7</ele>
        <time>2025-10-18T09:55:34Z</time>
      </trkpt>
      <trkpt lat="43.21606" lon="5.48711">
        <ele>161.6</ele>
        <time>2025-10-18T09:55:35Z</time>
      </trkpt>
      <trkpt lat="43.21606" lon="5.48712">
        <ele>161.5</ele>
        <time>2025-10-18T09:55:36Z</time>
      </trkpt>
      <trkpt lat="43.21606" lon="5.48712">
        <ele>161.5</ele>
        <time>2025-10-18T09:55:37Z</time>
      </trkpt>
      <trkpt lat="43.21606" lon="5.48713">
        <ele>161.5</ele>
        <time>2025-10-18T09:55:38Z</time>
      </trkpt>
      <trkpt lat="43.21606" lon="5.48713">
        <ele>161.6</ele>
        <time>2025-10-18T09:55:39Z</time>
      </trkpt>
      <trkpt lat="43.21607" lon="5.48714">
        <ele>161.6</ele>
        <time>2025-10-18T09:55:40Z</time>
      </trkpt>
      <trkpt lat="43.21607" lon="5.48714">
        <ele>161.7</ele>
        <time>2025-10-18T09:55:41Z</time>
      </trkpt>
      <trkpt lat="43.21606" lon="5.48714">
        <ele>161.7</ele>
        <time>2025-10-18T09:55:42Z</time>
      </trkpt>
      <trkpt lat="43.21606" lon="5.48714">
        <ele>161.7</ele>
        <time>2025-10-18T09:55:43Z</time>
      </trkpt>
      <trkpt lat="43.21606" lon="5.48714">
        <ele>161.7</ele>
        <time>2025-10-18T09:55:44Z</time>
      </trkpt>
      <trkpt lat="43.21605" lon="5.48714">
        <ele>161.7</ele>
        <time>2025-10-18T09:55:45Z</time>
      </trkpt>
      <trkpt lat="43.21604" lon="5.48713">
        <ele>161.7</ele>
        <time>2025-10-18T09:55:46Z</time>
      </trkpt>
      <trkpt lat="43.21604" lon="5.48713">
        <ele>161.7</ele>
        <time>2025-10-18T09:55:47Z</time>
      </trkpt>
      <trkpt lat="43.21603" lon="5.48713">
        <ele>161.7</ele>
        <time>2025-10-18T09:55:48Z</time>
      </trkpt>
      <trkpt lat="43.21603" lon="5.48713">
        <ele>161.7</ele>
        <time>2025-10-18T09:55:49Z</time>
      </trkpt>
      <trkpt lat="43.21603" lon="5.48713">
        <ele>161.7</ele>
        <time>2025-10-18T09:55:50Z</time>
      </trkpt>
      <trkpt lat="43.21603" lon="5.48713">
        <ele>161.6</ele>
        <time>2025-10-18T09:55:51Z</time>
      </trkpt>
      <trkpt lat="43.21602" lon="5.48713">
        <ele>161.6</ele>
        <time>2025-10-18T09:55:52Z</time>
      </trkpt>
      <trkpt lat="43.21602" lon="5.48714">
        <ele>161.6</ele>
        <time>2025-10-18T09:55:53Z</time>
      </trkpt>
      <trkpt lat="43.21602" lon="5.48714">
        <ele>161.7</ele>
        <time>2025-10-18T09:55:54Z</time>
      </trkpt>
      <trkpt lat="43.21602" lon="5.48714">
        <ele>161.7</ele>
        <time>2025-10-18T09:55:55Z</time>
      </trkpt>
      <trkpt lat="43.21602" lon="5.48713">
        <ele>161.7</ele>
        <time>2025-10-18T09:55:56Z</time>
      </trkpt>
      <trkpt lat="43.21603" lon="5.48713">
        <ele>161.7</ele>
        <time>2025-10-18T09:55:57Z</time>
      </trkpt>
      <trkpt lat="43.21603" lon="5.48713">
        <ele>161.7</ele>
        <time>2025-10-18T09:55:58Z</time>
      </trkpt>
      <trkpt lat="43.21603" lon="5.48712">
        <ele>161.7</ele>
        <time>2025-10-18T09:55:59Z</time>
      </trkpt>
      <trkpt lat="43.21602" lon="5.48712">
        <ele>161.6</ele>
        <time>2025-10-18T09:56:00Z</time>
      </trkpt>
      <trkpt lat="43.21602" lon="5.48712">
        <ele>161.6</ele>
        <time>2025-10-18T09:56:01Z</time>
      </trkpt>
      <trkpt lat="43.21602" lon="5.48712">
        <ele>161.5</ele>
        <time>2025-10-18T09:56:02Z</time>
      </trkpt>
      <trkpt lat="43.21602" lon="5.48712">
        <ele>161.5</ele>
        <time>2025-10-18T09:56:03Z</time>
      </trkpt>
      <trkpt lat="43.21602" lon="5.48712">
        <ele>161.4</ele>
        <time>2025-10-18T09:56:04Z</time>
      </trkpt>
      <trkpt lat="43.21602" lon="5.48712">
        <ele>161.4</ele>
        <time>2025-10-18T09:56:05Z</time>
      </trkpt>
      <trkpt lat="43.21602" lon="5.48712">
        <ele>161.4</ele>
        <time>2025-10-18T09:56:06Z</time>
      </trkpt>
      <trkpt lat="43.21602" lon="5.48712">
        <ele>161.4</ele>
        <time>2025-10-18T09:56:07Z</time>
      </trkpt>
      <trkpt lat="43.21601" lon="5.48711">
        <ele>161.4</ele>
        <time>2025-10-18T09:56:08Z</time>
      </trkpt>
      <trkpt lat="43.21601" lon="5.48712">
        <ele>161.4</ele>
        <time>2025-10-18T09:56:09Z</time>
      </trkpt>
      <trkpt lat="43.21601" lon="5.48712">
        <ele>161.3</ele>
        <time>2025-10-18T09:56:10Z</time>
      </trkpt>
      <trkpt lat="43.21601" lon="5.48712">
        <ele>161.3</ele>
        <time>2025-10-18T09:56:11Z</time>
      </trkpt>
      <trkpt lat="43.21601" lon="5.48712">
        <ele>161.3</ele>
        <time>2025-10-18T09:56:12Z</time>
      </trkpt>
      <trkpt lat="43.216" lon="5.48712">
        <ele>161.3</ele>
        <time>2025-10-18T09:56:13Z</time>
      </trkpt>
      <trkpt lat="43.216" lon="5.48712">
        <ele>161.3</ele>
        <time>2025-10-18T09:56:14Z</time>
      </trkpt>
      <trkpt lat="43.216" lon="5.48712">
        <ele>161.4</ele>
        <time>2025-10-18T09:56:15Z</time>
      </trkpt>
      <trkpt lat="43.216" lon="5.48712">
        <ele>161.4</ele>
        <time>2025-10-18T09:56:16Z</time>
      </trkpt>
      <trkpt lat="43.216" lon="5.48712">
        <ele>161.4</ele>
        <time>2025-10-18T09:56:17Z</time>
      </trkpt>
      <trkpt lat="43.216" lon="5.48712">
        <ele>161.4</ele>
        <time>2025-10-18T09:56:18Z</time>
      </trkpt>
      <trkpt lat="43.216" lon="5.48713">
        <ele>161.3</ele>
        <time>2025-10-18T09:56:19Z</time>
      </trkpt>
      <trkpt lat="43.216" lon="5.48713">
        <ele>161.3</ele>
        <time>2025-10-18T09:56:20Z</time>
      </trkpt>
      <trkpt lat="43.216" lon="5.48713">
        <ele>161.2</ele>
        <time>2025-10-18T09:56:21Z</time>
      </trkpt>
      <trkpt lat="43.216" lon="5.48713">
        <ele>161.2</ele>
        <time>2025-10-18T09:56:22Z</time>
      </trkpt>
      <trkpt lat="43.216" lon="5.48712">
        <ele>161.2</ele>
        <time>2025-10-18T09:56:23Z</time>
      </trkpt>
      <trkpt lat="43.216" lon="5.48712">
        <ele>161.2</ele>
        <time>2025-10-18T09:56:24Z</time>
      </trkpt>
      <trkpt lat="43.216" lon="5.48712">
        <ele>161.2</ele>
        <time>2025-10-18T09:56:25Z</time>
      </trkpt>
      <trkpt lat="43.216" lon="5.48713">
        <ele>161.3</ele>
        <time>2025-10-18T09:56:26Z</time>
      </trkpt>
      <trkpt lat="43.216" lon="5.48713">
        <ele>161.3</ele>
        <time>2025-10-18T09:56:27Z</time>
      </trkpt>
      <trkpt lat="43.216" lon="5.48713">
        <ele>161.4</ele>
        <time>2025-10-18T09:56:28Z</time>
      </trkpt>
      <trkpt lat="43.21599" lon="5.48713">
        <ele>161.4</ele>
        <time>2025-10-18T09:56:29Z</time>
      </trkpt>
      <trkpt lat="43.21599" lon="5.48713">
        <ele>161.4</ele>
        <time>2025-10-18T09:56:30Z</time>
      </trkpt>
      <trkpt lat="43.21599" lon="5.48713">
        <ele>161.4</ele>
        <time>2025-10-18T09:56:31Z</time>
      </trkpt>
      <trkpt lat="43.21599" lon="5.48714">
        <ele>161.3</ele>
        <time>2025-10-18T09:56:32Z</time>
      </trkpt>
      <trkpt lat="43.21599" lon="5.48714">
        <ele>161.4</ele>
        <time>2025-10-18T09:56:33Z</time>
      </trkpt>
      <trkpt lat="43.21599" lon="5.48714">
        <ele>161.5</ele>
        <time>2025-10-18T09:56:34Z</time>
      </trkpt>
      <trkpt lat="43.21599" lon="5.48714">
        <ele>161.4</ele>
        <time>2025-10-18T09:56:35Z</time>
      </trkpt>
      <trkpt lat="43.21599" lon="5.48714">
        <ele>161.4</ele>
        <time>2025-10-18T09:56:36Z</time>
      </trkpt>
      <trkpt lat="43.21599" lon="5.48714">
        <ele>161.4</ele>
        <time>2025-10-18T09:56:37Z</time>
      </trkpt>
      <trkpt lat="43.21599" lon="5.48714">
        <ele>161.4</ele>
        <time>2025-10-18T09:56:38Z</time>
      </trkpt>
      <trkpt lat="43.21598" lon="5.48714">
        <ele>161.4</ele>
        <time>2025-10-18T09:56:39Z</time>
      </trkpt>
      <trkpt lat="43.21598" lon="5.48715">
        <ele>161.3</ele>
        <time>2025-10-18T09:56:40Z</time>
      </trkpt>
      <trkpt lat="43.21598" lon="5.48715">
        <ele>161.5</ele>
        <time>2025-10-18T09:56:41Z</time>
      </trkpt>
      <trkpt lat="43.21597" lon="5.48715">
        <ele>161.4</ele>
        <time>2025-10-18T09:56:42Z</time>
      </trkpt>
      <trkpt lat="43.21597" lon="5.48715">
        <ele>161.5</ele>
        <time>2025-10-18T09:56:43Z</time>
      </trkpt>
      <trkpt lat="43.21597" lon="5.48715">
        <ele>161.5</ele>
        <time>2025-10-18T09:56:44Z</time>
      </trkpt>
      <trkpt lat="43.21597" lon="5.48715">
        <ele>161.5</ele>
        <time>2025-10-18T09:56:45Z</time>
      </trkpt>
      <trkpt lat="43.21597" lon="5.48715">
        <ele>161.4</ele>
        <time>2025-10-18T09:56:46Z</time>
      </trkpt>
      <trkpt lat="43.21597" lon="5.48715">
        <ele>161.4</ele>
        <time>2025-10-18T09:56:47Z</time>
      </trkpt>
      <trkpt lat="43.21597" lon="5.48715">
        <ele>161.4</ele>
        <time>2025-10-18T09:56:48Z</time>
      </trkpt>
      <trkpt lat="43.21597" lon="5.48715">
        <ele>161.4</ele>
        <time>2025-10-18T09:56:49Z</time>
      </trkpt>
      <trkpt lat="43.21597" lon="5.48715">
        <ele>161.3</ele>
        <time>2025-10-18T09:56:50Z</time>
      </trkpt>
      <trkpt lat="43.21597" lon="5.48715">
        <ele>161.4</ele>
        <time>2025-10-18T09:56:51Z</time>
      </trkpt>
      <trkpt lat="43.21597" lon="5.48716">
        <ele>161.4</ele>
        <time>2025-10-18T09:56:52Z</time>
      </trkpt>
      <trkpt lat="43.21597" lon="5.48716">
        <ele>161.4</ele>
        <time>2025-10-18T09:56:53Z</time>
      </trkpt>
      <trkpt lat="43.21597" lon="5.48715">
        <ele>161.4</ele>
        <time>2025-10-18T09:56:54Z</time>
      </trkpt>
      <trkpt lat="43.21596" lon="5.48715">
        <ele>161.4</ele>
        <time>2025-10-18T09:56:55Z</time>
      </trkpt>
      <trkpt lat="43.21596" lon="5.48715">
        <ele>161.4</ele>
        <time>2025-10-18T09:56:56Z</time>
      </trkpt>
      <trkpt lat="43.21596" lon="5.48715">
        <ele>161.4</ele>
        <time>2025-10-18T09:56:57Z</time>
      </trkpt>
      <trkpt lat="43.21596" lon="5.48715">
        <ele>161.4</ele>
        <time>2025-10-18T09:56:58Z</time>
      </trkpt>
      <trkpt lat="43.21596" lon="5.48715">
        <ele>161.5</ele>
        <time>2025-10-18T09:56:59Z</time>
      </trkpt>
      <trkpt lat="43.21595" lon="5.48715">
        <ele>161.5</ele>
        <time>2025-10-18T09:57:00Z</time>
      </trkpt>
      <trkpt lat="43.21595" lon="5.48714">
        <ele>161.5</ele>
        <time>2025-10-18T09:57:01Z</time>
      </trkpt>
      <trkpt lat="43.21594" lon="5.48714">
        <ele>161.5</ele>
        <time>2025-10-18T09:57:02Z</time>
      </trkpt>
      <trkpt lat="43.21594" lon="5.48714">
        <ele>161.5</ele>
        <time>2025-10-18T09:57:03Z</time>
      </trkpt>
      <trkpt lat="43.21594" lon="5.48714">
        <ele>161.5</ele>
        <time>2025-10-18T09:57:04Z</time>
      </trkpt>
      <trkpt lat="43.21594" lon="5.48714">
        <ele>161.5</ele>
        <time>2025-10-18T09:57:05Z</time>
      </trkpt>
      <trkpt lat="43.21594" lon="5.48714">
        <ele>161.5</ele>
        <time>2025-10-18T09:57:06Z</time>
      </trkpt>
      <trkpt lat="43.21594" lon="5.48714">
        <ele>161.4</ele>
        <time>2025-10-18T09:57:07Z</time>
      </trkpt>
      <trkpt lat="43.21594" lon="5.48714">
        <ele>161.4</ele>
        <time>2025-10-18T09:57:08Z</time>
      </trkpt>
      <trkpt lat="43.21594" lon="5.48714">
        <ele>161.4</ele>
        <time>2025-10-18T09:57:09Z</time>
      </trkpt>
      <trkpt lat="43.21594" lon="5.48714">
        <ele>161.5</ele>
        <time>2025-10-18T09:57:10Z</time>
      </trkpt>
      <trkpt lat="43.21594" lon="5.48714">
        <ele>161.5</ele>
        <time>2025-10-18T09:57:11Z</time>
      </trkpt>
      <trkpt lat="43.21594" lon="5.48714">
        <ele>161.5</ele>
        <time>2025-10-18T09:57:12Z</time>
      </trkpt>
      <trkpt lat="43.21594" lon="5.48713">
        <ele>161.4</ele>
        <time>2025-10-18T09:57:13Z</time>
      </trkpt>
      <trkpt lat="43.21594" lon="5.48713">
        <ele>161.4</ele>
        <time>2025-10-18T09:57:14Z</time>
      </trkpt>
      <trkpt lat="43.21594" lon="5.48713">
        <ele>161.4</ele>
        <time>2025-10-18T09:57:15Z</time>
      </trkpt>
      <trkpt lat="43.21593" lon="5.48713">
        <ele>161.4</ele>
        <time>2025-10-18T09:57:16Z</time>
      </trkpt>
      <trkpt lat="43.21593" lon="5.48713">
        <ele>161.4</ele>
        <time>2025-10-18T09:57:17Z</time>
      </trkpt>
      <trkpt lat="43.21593" lon="5.48713">
        <ele>161.3</ele>
        <time>2025-10-18T09:57:18Z</time>
      </trkpt>
      <trkpt lat="43.21593" lon="5.48713">
        <ele>161.3</ele>
        <time>2025-10-18T09:57:19Z</time>
      </trkpt>
      <trkpt lat="43.21593" lon="5.48713">
        <ele>161.3</ele>
        <time>2025-10-18T09:57:20Z</time>
      </trkpt>
      <trkpt lat="43.21593" lon="5.48713">
        <ele>161.3</ele>
        <time>2025-10-18T09:57:21Z</time>
      </trkpt>
      <trkpt lat="43.21593" lon="5.48713">
        <ele>161.3</ele>
        <time>2025-10-18T09:57:22Z</time>
      </trkpt>
      <trkpt lat="43.21593" lon="5.48713">
        <ele>161.3</ele>
        <time>2025-10-18T09:57:23Z</time>
      </trkpt>
      <trkpt lat="43.21593" lon="5.48713">
        <ele>161.4</ele>
        <time>2025-10-18T09:57:24Z</time>
      </trkpt>
      <trkpt lat="43.21593" lon="5.48713">
        <ele>161.4</ele>
        <time>2025-10-18T09:57:25Z</time>
      </trkpt>
      <trkpt lat="43.21594" lon="5.48713">
        <ele>161.3</ele>
        <time>2025-10-18T09:57:26Z</time>
      </trkpt>
      <trkpt lat="43.21594" lon="5.48713">
        <ele>161.3</ele>
        <time>2025-10-18T09:57:27Z</time>
      </trkpt>
      <trkpt lat="43.21594" lon="5.48713">
        <ele>161.3</ele>
        <time>2025-10-18T09:57:28Z</time>
      </trkpt>
      <trkpt lat="43.21594" lon="5.48713">
        <ele>161.3</ele>
        <time>2025-10-18T09:57:29Z</time>
      </trkpt>
      <trkpt lat="43.21594" lon="5.48713">
        <ele>161.4</ele>
        <time>2025-10-18T09:57:30Z</time>
      </trkpt>
      <trkpt lat="43.21594" lon="5.48713">
        <ele>161.3</ele>
        <time>2025-10-18T09:57:31Z</time>
      </trkpt>
      <trkpt lat="43.21594" lon="5.48713">
        <ele>161.4</ele>
        <time>2025-10-18T09:57:32Z</time>
      </trkpt>
      <trkpt lat="43.21594" lon="5.48713">
        <ele>161.3</ele>
        <time>2025-10-18T09:57:33Z</time>
      </trkpt>
      <trkpt lat="43.21594" lon="5.48713">
        <ele>161.3</ele>
        <time>2025-10-18T09:57:34Z</time>
      </trkpt>
      <trkpt lat="43.21594" lon="5.48713">
        <ele>161.3</ele>
        <time>2025-10-18T09:57:35Z</time>
      </trkpt>
      <trkpt lat="43.21594" lon="5.48714">
        <ele>161.3</ele>
        <time>2025-10-18T09:57:36Z</time>
      </trkpt>
      <trkpt lat="43.21595" lon="5.48714">
        <ele>161.3</ele>
        <time>2025-10-18T09:57:37Z</time>
      </trkpt>
      <trkpt lat="43.21595" lon="5.48713">
        <ele>161.4</ele>
        <time>2025-10-18T09:57:38Z</time>
      </trkpt>
      <trkpt lat="43.21595" lon="5.48713">
        <ele>161.3</ele>
        <time>2025-10-18T09:57:39Z</time>
      </trkpt>
      <trkpt lat="43.21595" lon="5.48713">
        <ele>161.2</ele>
        <time>2025-10-18T09:57:40Z</time>
      </trkpt>
      <trkpt lat="43.21595" lon="5.48713">
        <ele>161.2</ele>
        <time>2025-10-18T09:57:41Z</time>
      </trkpt>
      <trkpt lat="43.21595" lon="5.48713">
        <ele>161.2</ele>
        <time>2025-10-18T09:57:42Z</time>
      </trkpt>
      <trkpt lat="43.21596" lon="5.48713">
        <ele>161.3</ele>
        <time>2025-10-18T09:57:43Z</time>
      </trkpt>
      <trkpt lat="43.21596" lon="5.48713">
        <ele>161.3</ele>
        <time>2025-10-18T09:57:44Z</time>
      </trkpt>
      <trkpt lat="43.21596" lon="5.48712">
        <ele>161.3</ele>
        <time>2025-10-18T09:57:45Z</time>
      </trkpt>
      <trkpt lat="43.21596" lon="5.48712">
        <ele>161.3</ele>
        <time>2025-10-18T09:57:46Z</time>
      </trkpt>
      <trkpt lat="43.21597" lon="5.48712">
        <ele>161.3</ele>
        <time>2025-10-18T09:57:47Z</time>
      </trkpt>
      <trkpt lat="43.21597" lon="5.48712">
        <ele>161.3</ele>
        <time>2025-10-18T09:57:48Z</time>
      </trkpt>
      <trkpt lat="43.21596" lon="5.48712">
        <ele>161.3</ele>
        <time>2025-10-18T09:57:49Z</time>
      </trkpt>
      <trkpt lat="43.21597" lon="5.48712">
        <ele>161.4</ele>
        <time>2025-10-18T09:57:50Z</time>
      </trkpt>
      <trkpt lat="43.21597" lon="5.48712">
        <ele>161.4</ele>
        <time>2025-10-18T09:57:51Z</time>
      </trkpt>
      <trkpt lat="43.21596" lon="5.48712">
        <ele>161.3</ele>
        <time>2025-10-18T09:57:52Z</time>
      </trkpt>
      <trkpt lat="43.21596" lon="5.48712">
        <ele>161.3</ele>
        <time>2025-10-18T09:57:53Z</time>
      </trkpt>
      <trkpt lat="43.21596" lon="5.48711">
        <ele>161.3</ele>
        <time>2025-10-18T09:57:54Z</time>
      </trkpt>
      <trkpt lat="43.21596" lon="5.48711">
        <ele>161.3</ele>
        <time>2025-10-18T09:57:55Z</time>
      </trkpt>
      <trkpt lat="43.21597" lon="5.48711">
        <ele>161.3</ele>
        <time>2025-10-18T09:57:56Z</time>
      </trkpt>
      <trkpt lat="43.21597" lon="5.48711">
        <ele>161.4</ele>
        <time>2025-10-18T09:57:57Z</time>
      </trkpt>
      <trkpt lat="43.21597" lon="5.48711">
        <ele>161.5</ele>
        <time>2025-10-18T09:57:58Z</time>
      </trkpt>
      <trkpt lat="43.21597" lon="5.48711">
        <ele>161.5</ele>
        <time>2025-10-18T09:57:59Z</time>
      </trkpt>
      <trkpt lat="43.21597" lon="5.48711">
        <ele>161.5</ele>
        <time>2025-10-18T09:58:00Z</time>
      </trkpt>
      <trkpt lat="43.21597" lon="5.48711">
        <ele>161.3</ele>
        <time>2025-10-18T09:58:01Z</time>
      </trkpt>
      <trkpt lat="43.21597" lon="5.48711">
        <ele>161.4</ele>
        <time>2025-10-18T09:58:02Z</time>
      </trkpt>
      <trkpt lat="43.21597" lon="5.48711">
        <ele>161.4</ele>
        <time>2025-10-18T09:58:03Z</time>
      </trkpt>
      <trkpt lat="43.21596" lon="5.48711">
        <ele>161.4</ele>
        <time>2025-10-18T09:58:04Z</time>
      </trkpt>
      <trkpt lat="43.21596" lon="5.48711">
        <ele>161.4</ele>
        <time>2025-10-18T09:58:05Z</time>
      </trkpt>
      <trkpt lat="43.21596" lon="5.48711">
        <ele>161.3</ele>
        <time>2025-10-18T09:58:06Z</time>
      </trkpt>
      <trkpt lat="43.21596" lon="5.48711">
        <ele>161.2</ele>
        <time>2025-10-18T09:58:07Z</time>
      </trkpt>
      <trkpt lat="43.21596" lon="5.48711">
        <ele>161.2</ele>
        <time>2025-10-18T09:58:08Z</time>
      </trkpt>
      <trkpt lat="43.21596" lon="5.48711">
        <ele>161.1</ele>
        <time>2025-10-18T09:58:09Z</time>
      </trkpt>
      <trkpt lat="43.21596" lon="5.48712">
        <ele>161.1</ele>
        <time>2025-10-18T09:58:10Z</time>
      </trkpt>
      <trkpt lat="43.21596" lon="5.48712">
        <ele>161.1</ele>
        <time>2025-10-18T09:58:11Z</time>
      </trkpt>
      <trkpt lat="43.21595" lon="5.48712">
        <ele>161.2</ele>
        <time>2025-10-18T09:58:12Z</time>
      </trkpt>
      <trkpt lat="43.21595" lon="5.48712">
        <ele>161.3</ele>
        <time>2025-10-18T09:58:13Z</time>
      </trkpt>
      <trkpt lat="43.21595" lon="5.48712">
        <ele>161.4</ele>
        <time>2025-10-18T09:58:14Z</time>
      </trkpt>
      <trkpt lat="43.21595" lon="5.48711">
        <ele>161.5</ele>
        <time>2025-10-18T09:58:15Z</time>
      </trkpt>
      <trkpt lat="43.21595" lon="5.48711">
        <ele>161.5</ele>
        <time>2025-10-18T09:58:16Z</time>
      </trkpt>
      <trkpt lat="43.21595" lon="5.48711">
        <ele>161.4</ele>
        <time>2025-10-18T09:58:17Z</time>
      </trkpt>
      <trkpt lat="43.21595" lon="5.48711">
        <ele>161.3</ele>
        <time>2025-10-18T09:58:18Z</time>
      </trkpt>
      <trkpt lat="43.21595" lon="5.48711">
        <ele>161.3</ele>
        <time>2025-10-18T09:58:19Z</time>
      </trkpt>
      <trkpt lat="43.21595" lon="5.48711">
        <ele>161.3</ele>
        <time>2025-10-18T09:58:20Z</time>
      </trkpt>
      <trkpt lat="43.21595" lon="5.48711">
        <ele>161.3</ele>
        <time>2025-10-18T09:58:21Z</time>
      </trkpt>
      <trkpt lat="43.21595" lon="5.48711">
        <ele>161.2</ele>
        <time>2025-10-18T09:58:22Z</time>
      </trkpt>
      <trkpt lat="43.21595" lon="5.48711">
        <ele>161.2</ele>
        <time>2025-10-18T09:58:23Z</time>
      </trkpt>
      <trkpt lat="43.21595" lon="5.48711">
        <ele>161.2</ele>
        <time>2025-10-18T09:58:24Z</time>
      </trkpt>
      <trkpt lat="43.21595" lon="5.48711">
        <ele>161.2</ele>
        <time>2025-10-18T09:58:25Z</time>
      </trkpt>
      <trkpt lat="43.21595" lon="5.48711">
        <ele>161.2</ele>
        <time>2025-10-18T09:58:26Z</time>
      </trkpt>
      <trkpt lat="43.21594" lon="5.48711">
        <ele>161.2</ele>
        <time>2025-10-18T09:58:27Z</time>
      </trkpt>
      <trkpt lat="43.21594" lon="5.48711">
        <ele>161.2</ele>
        <time>2025-10-18T09:58:28Z</time>
      </trkpt>
      <trkpt lat="43.21594" lon="5.48711">
        <ele>161.3</ele>
        <time>2025-10-18T09:58:29Z</time>
      </trkpt>
      <trkpt lat="43.21594" lon="5.48711">
        <ele>161.3</ele>
        <time>2025-10-18T09:58:30Z</time>
      </trkpt>
      <trkpt lat="43.21594" lon="5.48711">
        <ele>161.3</ele>
        <time>2025-10-18T09:58:31Z</time>
      </trkpt>
      <trkpt lat="43.21594" lon="5.48711">
        <ele>161.2</ele>
        <time>2025-10-18T09:58:32Z</time>
      </trkpt>
      <trkpt lat="43.21594" lon="5.48711">
        <ele>161.2</ele>
        <time>2025-10-18T09:58:33Z</time>
      </trkpt>
      <trkpt lat="43.21594" lon="5.48711">
        <ele>161.2</ele>
        <time>2025-10-18T09:58:34Z</time>
      </trkpt>
      <trkpt lat="43.21594" lon="5.48711">
        <ele>161.1</ele>
        <time>2025-10-18T09:58:35Z</time>
      </trkpt>
      <trkpt lat="43.21594" lon="5.48711">
        <ele>161.1</ele>
        <time>2025-10-18T09:58:36Z</time>
      </trkpt>
      <trkpt lat="43.21594" lon="5.48711">
        <ele>161.1</ele>
        <time>2025-10-18T09:58:37Z</time>
      </trkpt>
      <trkpt lat="43.21594" lon="5.48711">
        <ele>161</ele>
        <time>2025-10-18T09:58:38Z</time>
      </trkpt>
      <trkpt lat="43.21594" lon="5.48711">
        <ele>161</ele>
        <time>2025-10-18T09:58:39Z</time>
      </trkpt>
      <trkpt lat="43.21594" lon="5.48711">
        <ele>161.1</ele>
        <time>2025-10-18T09:58:40Z</time>
      </trkpt>
      <trkpt lat="43.21594" lon="5.48711">
        <ele>161</ele>
        <time>2025-10-18T09:58:41Z</time>
      </trkpt>
      <trkpt lat="43.21594" lon="5.48711">
        <ele>161.1</ele>
        <time>2025-10-18T09:58:42Z</time>
      </trkpt>
      <trkpt lat="43.21594" lon="5.48711">
        <ele>161.1</ele>
        <time>2025-10-18T09:58:43Z</time>
      </trkpt>
      <trkpt lat="43.21594" lon="5.4871">
        <ele>161.2</ele>
        <time>2025-10-18T09:58:44Z</time>
      </trkpt>
      <trkpt lat="43.21595" lon="5.4871">
        <ele>161.1</ele>
        <time>2025-10-18T09:58:45Z</time>
      </trkpt>
      <trkpt lat="43.21595" lon="5.4871">
        <ele>161.1</ele>
        <time>2025-10-18T09:58:46Z</time>
      </trkpt>
      <trkpt lat="43.21595" lon="5.4871">
        <ele>161.1</ele>
        <time>2025-10-18T09:58:47Z</time>
      </trkpt>
      <trkpt lat="43.21595" lon="5.4871">
        <ele>161.2</ele>
        <time>2025-10-18T09:58:48Z</time>
      </trkpt>
      <trkpt lat="43.21595" lon="5.4871">
        <ele>161.2</ele>
        <time>2025-10-18T09:58:49Z</time>
      </trkpt>
      <trkpt lat="43.21595" lon="5.4871">
        <ele>161.2</ele>
        <time>2025-10-18T09:58:50Z</time>
      </trkpt>
      <trkpt lat="43.21595" lon="5.4871">
        <ele>161.2</ele>
        <time>2025-10-18T09:58:51Z</time>
      </trkpt>
      <trkpt lat="43.21595" lon="5.4871">
        <ele>161.2</ele>
        <time>2025-10-18T09:58:52Z</time>
      </trkpt>
      <trkpt lat="43.21595" lon="5.4871">
        <ele>161.2</ele>
        <time>2025-10-18T09:58:53Z</time>
      </trkpt>
      <trkpt lat="43.21595" lon="5.4871">
        <ele>161.2</ele>
        <time>2025-10-18T09:58:54Z</time>
      </trkpt>
      <trkpt lat="43.21595" lon="5.4871">
        <ele>161.2</ele>
        <time>2025-10-18T09:58:55Z</time>
      </trkpt>
      <trkpt lat="43.21594" lon="5.4871">
        <ele>161.2</ele>
        <time>2025-10-18T09:58:56Z</time>
      </trkpt>
      <trkpt lat="43.21595" lon="5.4871">
        <ele>161.3</ele>
        <time>2025-10-18T09:58:57Z</time>
      </trkpt>
      <trkpt lat="43.21594" lon="5.4871">
        <ele>161.3</ele>
        <time>2025-10-18T09:58:58Z</time>
      </trkpt>
      <trkpt lat="43.21594" lon="5.4871">
        <ele>161.3</ele>
        <time>2025-10-18T09:58:59Z</time>
      </trkpt>
      <trkpt lat="43.21594" lon="5.4871">
        <ele>161.4</ele>
        <time>2025-10-18T09:59:00Z</time>
      </trkpt>
      <trkpt lat="43.21594" lon="5.4871">
        <ele>161.5</ele>
        <time>2025-10-18T09:59:01Z</time>
      </trkpt>
      <trkpt lat="43.21594" lon="5.4871">
        <ele>161.6</ele>
        <time>2025-10-18T09:59:02Z</time>
      </trkpt>
      <trkpt lat="43.21595" lon="5.4871">
        <ele>161.6</ele>
        <time>2025-10-18T09:59:03Z</time>
      </trkpt>
      <trkpt lat="43.21595" lon="5.4871">
        <ele>161.6</ele>
        <time>2025-10-18T09:59:04Z</time>
      </trkpt>
      <trkpt lat="43.21595" lon="5.4871">
        <ele>161.7</ele>
        <time>2025-10-18T09:59:05Z</time>
      </trkpt>
      <trkpt lat="43.21595" lon="5.4871">
        <ele>161.6</ele>
        <time>2025-10-18T09:59:06Z</time>
      </trkpt>
      <trkpt lat="43.21595" lon="5.4871">
        <ele>161.6</ele>
        <time>2025-10-18T09:59:07Z</time>
      </trkpt>
      <trkpt lat="43.21595" lon="5.4871">
        <ele>161.6</ele>
        <time>2025-10-18T09:59:08Z</time>
      </trkpt>
      <trkpt lat="43.21595" lon="5.4871">
        <ele>161.6</ele>
        <time>2025-10-18T09:59:09Z</time>
      </trkpt>
      <trkpt lat="43.21595" lon="5.4871">
        <ele>161.6</ele>
        <time>2025-10-18T09:59:10Z</time>
      </trkpt>
      <trkpt lat="43.21595" lon="5.4871">
        <ele>161.6</ele>
        <time>2025-10-18T09:59:11Z</time>
      </trkpt>
      <trkpt lat="43.21596" lon="5.4871">
        <ele>161.6</ele>
        <time>2025-10-18T09:59:12Z</time>
      </trkpt>
      <trkpt lat="43.21596" lon="5.4871">
        <ele>161.5</ele>
        <time>2025-10-18T09:59:13Z</time>
      </trkpt>
      <trkpt lat="43.21596" lon="5.4871">
        <ele>161.4</ele>
        <time>2025-10-18T09:59:14Z</time>
      </trkpt>
      <trkpt lat="43.21595" lon="5.4871">
        <ele>161.4</ele>
        <time>2025-10-18T09:59:15Z</time>
      </trkpt>
      <trkpt lat="43.21595" lon="5.4871">
        <ele>161.3</ele>
        <time>2025-10-18T09:59:16Z</time>
      </trkpt>
      <trkpt lat="43.21595" lon="5.4871">
        <ele>161.3</ele>
        <time>2025-10-18T09:59:17Z</time>
      </trkpt>
      <trkpt lat="43.21595" lon="5.4871">
        <ele>161.3</ele>
        <time>2025-10-18T09:59:18Z</time>
      </trkpt>
      <trkpt lat="43.21595" lon="5.4871">
        <ele>161.2</ele>
        <time>2025-10-18T09:59:19Z</time>
      </trkpt>
      <trkpt lat="43.21595" lon="5.4871">
        <ele>161.2</ele>
        <time>2025-10-18T09:59:20Z</time>
      </trkpt>
      <trkpt lat="43.21595" lon="5.4871">
        <ele>161.3</ele>
        <time>2025-10-18T09:59:21Z</time>
      </trkpt>
      <trkpt lat="43.21596" lon="5.4871">
        <ele>161.3</ele>
        <time>2025-10-18T09:59:22Z</time>
      </trkpt>
      <trkpt lat="43.21596" lon="5.48709">
        <ele>161.4</ele>
        <time>2025-10-18T09:59:23Z</time>
      </trkpt>
      <trkpt lat="43.21596" lon="5.48709">
        <ele>161.4</ele>
        <time>2025-10-18T09:59:24Z</time>
      </trkpt>
      <trkpt lat="43.21596" lon="5.48709">
        <ele>161.4</ele>
        <time>2025-10-18T09:59:25Z</time>
      </trkpt>
      <trkpt lat="43.21596" lon="5.48709">
        <ele>161.3</ele>
        <time>2025-10-18T09:59:26Z</time>
      </trkpt>
      <trkpt lat="43.21596" lon="5.48709">
        <ele>161.3</ele>
        <time>2025-10-18T09:59:27Z</time>
      </trkpt>
      <trkpt lat="43.21596" lon="5.4871">
        <ele>161.3</ele>
        <time>2025-10-18T09:59:28Z</time>
      </trkpt>
      <trkpt lat="43.21595" lon="5.4871">
        <ele>161.3</ele>
        <time>2025-10-18T09:59:29Z</time>
      </trkpt>
      <trkpt lat="43.21595" lon="5.4871">
        <ele>161.4</ele>
        <time>2025-10-18T09:59:30Z</time>
      </trkpt>
      <trkpt lat="43.21594" lon="5.4871">
        <ele>161.3</ele>
        <time>2025-10-18T09:59:31Z</time>
      </trkpt>
      <trkpt lat="43.21594" lon="5.48711">
        <ele>161.2</ele>
        <time>2025-10-18T09:59:32Z</time>
      </trkpt>
      <trkpt lat="43.21594" lon="5.48711">
        <ele>161.2</ele>
        <time>2025-10-18T09:59:33Z</time>
      </trkpt>
      <trkpt lat="43.21594" lon="5.48711">
        <ele>161.2</ele>
        <time>2025-10-18T09:59:34Z</time>
      </trkpt>
      <trkpt lat="43.21594" lon="5.48711">
        <ele>161.1</ele>
        <time>2025-10-18T09:59:35Z</time>
      </trkpt>
      <trkpt lat="43.21594" lon="5.48711">
        <ele>161.2</ele>
        <time>2025-10-18T09:59:36Z</time>
      </trkpt>
      <trkpt lat="43.21593" lon="5.48711">
        <ele>161.2</ele>
        <time>2025-10-18T09:59:37Z</time>
      </trkpt>
      <trkpt lat="43.21593" lon="5.48711">
        <ele>161.2</ele>
        <time>2025-10-18T09:59:38Z</time>
      </trkpt>
      <trkpt lat="43.21593" lon="5.48711">
        <ele>161.1</ele>
        <time>2025-10-18T09:59:39Z</time>
      </trkpt>
      <trkpt lat="43.21593" lon="5.48711">
        <ele>161.1</ele>
        <time>2025-10-18T09:59:40Z</time>
      </trkpt>
      <trkpt lat="43.21593" lon="5.48711">
        <ele>161.2</ele>
        <time>2025-10-18T09:59:41Z</time>
      </trkpt>
      <trkpt lat="43.21593" lon="5.48712">
        <ele>161.2</ele>
        <time>2025-10-18T09:59:42Z</time>
      </trkpt>
      <trkpt lat="43.21593" lon="5.48712">
        <ele>161.3</ele>
        <time>2025-10-18T09:59:43Z</time>
      </trkpt>
      <trkpt lat="43.21594" lon="5.48711">
        <ele>161.2</ele>
        <time>2025-10-18T09:59:44Z</time>
      </trkpt>
      <trkpt lat="43.21594" lon="5.48712">
        <ele>161.2</ele>
        <time>2025-10-18T09:59:45Z</time>
      </trkpt>
      <trkpt lat="43.21593" lon="5.48712">
        <ele>161.2</ele>
        <time>2025-10-18T09:59:46Z</time>
      </trkpt>
      <trkpt lat="43.21593" lon="5.48712">
        <ele>161.1</ele>
        <time>2025-10-18T09:59:47Z</time>
      </trkpt>
      <trkpt lat="43.21593" lon="5.48712">
        <ele>161.1</ele>
        <time>2025-10-18T09:59:48Z</time>
      </trkpt>
      <trkpt lat="43.21593" lon="5.48712">
        <ele>161.1</ele>
        <time>2025-10-18T09:59:49Z</time>
      </trkpt>
      <trkpt lat="43.21593" lon="5.48712">
        <ele>161.1</ele>
        <time>2025-10-18T09:59:50Z</time>
      </trkpt>
      <trkpt lat="43.21593" lon="5.48712">
        <ele>161.1</ele>
        <time>2025-10-18T09:59:51Z</time>
      </trkpt>
      <trkpt lat="43.21593" lon="5.48712">
        <ele>161.1</ele>
        <time>2025-10-18T09:59:52Z</time>
      </trkpt>
      <trkpt lat="43.21593" lon="5.48712">
        <ele>161.1</ele>
        <time>2025-10-18T09:59:53Z</time>
      </trkpt>
      <trkpt lat="43.21593" lon="5.48712">
        <ele>161.1</ele>
        <time>2025-10-18T09:59:54Z</time>
      </trkpt>
      <trkpt lat="43.21593" lon="5.48712">
        <ele>161.1</ele>
        <time>2025-10-18T09:59:55Z</time>
      </trkpt>
      <trkpt lat="43.21593" lon="5.48712">
        <ele>161.1</ele>
        <time>2025-10-18T09:59:56Z</time>
      </trkpt>
      <trkpt lat="43.21593" lon="5.48712">
        <ele>161.1</ele>
        <time>2025-10-18T09:59:57Z</time>
      </trkpt>
      <trkpt lat="43.21594" lon="5.48712">
        <ele>161</ele>
        <time>2025-10-18T09:59:58Z</time>
      </trkpt>
      <trkpt lat="43.21594" lon="5.48712">
        <ele>161</ele>
        <time>2025-10-18T09:59:59Z</time>
      </trkpt>
      <trkpt lat="43.21594" lon="5.48711">
        <ele>160.9</ele>
        <time>2025-10-18T10:00:00Z</time>
      </trkpt>
      <trkpt lat="43.21594" lon="5.48711">
        <ele>160.9</ele>
        <time>2025-10-18T10:00:01Z</time>
      </trkpt>
      <trkpt lat="43.21594" lon="5.48711">
        <ele>160.9</ele>
        <time>2025-10-18T10:00:02Z</time>
      </trkpt>
      <trkpt lat="43.21594" lon="5.48711">
        <ele>160.9</ele>
        <time>2025-10-18T10:00:03Z</time>
      </trkpt>
      <trkpt lat="43.21594" lon="5.48711">
        <ele>160.8</ele>
        <time>2025-10-18T10:00:04Z</time>
      </trkpt>
      <trkpt lat="43.21594" lon="5.48711">
        <ele>160.8</ele>
        <time>2025-10-18T10:00:05Z</time>
      </trkpt>
      <trkpt lat="43.21594" lon="5.48711">
        <ele>160.8</ele>
        <time>2025-10-18T10:00:06Z</time>
      </trkpt>
      <trkpt lat="43.21594" lon="5.48711">
        <ele>160.8</ele>
        <time>2025-10-18T10:00:07Z</time>
      </trkpt>
      <trkpt lat="43.21594" lon="5.48711">
        <ele>160.8</ele>
        <time>2025-10-18T10:00:08Z</time>
      </trkpt>
      <trkpt lat="43.21594" lon="5.48711">
        <ele>160.8</ele>
        <time>2025-10-18T10:00:09Z</time>
      </trkpt>
      <trkpt lat="43.21594" lon="5.48711">
        <ele>160.8</ele>
        <time>2025-10-18T10:00:10Z</time>
      </trkpt>
      <trkpt lat="43.21594" lon="5.48711">
        <ele>160.8</ele>
        <time>2025-10-18T10:00:11Z</time>
      </trkpt>
      <trkpt lat="43.21593" lon="5.48711">
        <ele>160.8</ele>
        <time>2025-10-18T10:00:12Z</time>
      </trkpt>
      <trkpt lat="43.21593" lon="5.48711">
        <ele>160.8</ele>
        <time>2025-10-18T10:00:13Z</time>
      </trkpt>
      <trkpt lat="43.21593" lon="5.48711">
        <ele>160.7</ele>
        <time>2025-10-18T10:00:14Z</time>
      </trkpt>
      <trkpt lat="43.21593" lon="5.48711">
        <ele>160.7</ele>
        <time>2025-10-18T10:00:15Z</time>
      </trkpt>
      <trkpt lat="43.21593" lon="5.48711">
        <ele>160.7</ele>
        <time>2025-10-18T10:00:16Z</time>
      </trkpt>
      <trkpt lat="43.21593" lon="5.48711">
        <ele>160.7</ele>
        <time>2025-10-18T10:00:17Z</time>
      </trkpt>
      <trkpt lat="43.21593" lon="5.48711">
        <ele>160.7</ele>
        <time>2025-10-18T10:00:18Z</time>
      </trkpt>
      <trkpt lat="43.21593" lon="5.48711">
        <ele>160.7</ele>
        <time>2025-10-18T10:00:19Z</time>
      </trkpt>
      <trkpt lat="43.21593" lon="5.48711">
        <ele>160.7</ele>
        <time>2025-10-18T10:00:20Z</time>
      </trkpt>
      <trkpt lat="43.21593" lon="5.48711">
        <ele>160.8</ele>
        <time>2025-10-18T10:00:21Z</time>
      </trkpt>
      <trkpt lat="43.21593" lon="5.48711">
        <ele>160.8</ele>
        <time>2025-10-18T10:00:22Z</time>
      </trkpt>
      <trkpt lat="43.21593" lon="5.48711">
        <ele>160.9</ele>
        <time>2025-10-18T10:00:23Z</time>
      </trkpt>
      <trkpt lat="43.21593" lon="5.48711">
        <ele>160.9</ele>
        <time>2025-10-18T10:00:24Z</time>
      </trkpt>
      <trkpt lat="43.21593" lon="5.48711">
        <ele>160.9</ele>
        <time>2025-10-18T10:00:25Z</time>
      </trkpt>
      <trkpt lat="43.21593" lon="5.48711">
        <ele>160.9</ele>
        <time>2025-10-18T10:00:26Z</time>
      </trkpt>
      <trkpt lat="43.21593" lon="5.48711">
        <ele>160.9</ele>
        <time>2025-10-18T10:00:27Z</time>
      </trkpt>
      <trkpt lat="43.21593" lon="5.48711">
        <ele>160.9</ele>
        <time>2025-10-18T10:00:28Z</time>
      </trkpt>
      <trkpt lat="43.21593" lon="5.48711">
        <ele>160.9</ele>
        <time>2025-10-18T10:00:29Z</time>
      </trkpt>
      <trkpt lat="43.21593" lon="5.48711">
        <ele>160.9</ele>
        <time>2025-10-18T10:00:30Z</time>
      </trkpt>
      <trkpt lat="43.21593" lon="5.48711">
        <ele>160.8</ele>
        <time>2025-10-18T10:00:31Z</time>
      </trkpt>
      <trkpt lat="43.21593" lon="5.48711">
        <ele>160.7</ele>
        <time>2025-10-18T10:00:32Z</time>
      </trkpt>
      <trkpt lat="43.21592" lon="5.48711">
        <ele>160.7</ele>
        <time>2025-10-18T10:00:33Z</time>
      </trkpt>
      <trkpt lat="43.21592" lon="5.48711">
        <ele>160.7</ele>
        <time>2025-10-18T10:00:34Z</time>
      </trkpt>
      <trkpt lat="43.21592" lon="5.48711">
        <ele>160.8</ele>
        <time>2025-10-18T10:00:35Z</time>
      </trkpt>
      <trkpt lat="43.21592" lon="5.48711">
        <ele>160.8</ele>
        <time>2025-10-18T10:00:36Z</time>
      </trkpt>
      <trkpt lat="43.21592" lon="5.48711">
        <ele>160.8</ele>
        <time>2025-10-18T10:00:37Z</time>
      </trkpt>
      <trkpt lat="43.21592" lon="5.4871">
        <ele>160.8</ele>
        <time>2025-10-18T10:00:38Z</time>
      </trkpt>
      <trkpt lat="43.21592" lon="5.4871">
        <ele>160.7</ele>
        <time>2025-10-18T10:00:39Z</time>
      </trkpt>
      <trkpt lat="43.21592" lon="5.4871">
        <ele>160.8</ele>
        <time>2025-10-18T10:00:40Z</time>
      </trkpt>
      <trkpt lat="43.21593" lon="5.4871">
        <ele>160.8</ele>
        <time>2025-10-18T10:00:41Z</time>
      </trkpt>
      <trkpt lat="43.21593" lon="5.4871">
        <ele>160.9</ele>
        <time>2025-10-18T10:00:42Z</time>
      </trkpt>
      <trkpt lat="43.21593" lon="5.4871">
        <ele>161</ele>
        <time>2025-10-18T10:00:43Z</time>
      </trkpt>
      <trkpt lat="43.21593" lon="5.4871">
        <ele>161</ele>
        <time>2025-10-18T10:00:44Z</time>
      </trkpt>
      <trkpt lat="43.21593" lon="5.4871">
        <ele>161</ele>
        <time>2025-10-18T10:00:45Z</time>
      </trkpt>
      <trkpt lat="43.21593" lon="5.4871">
        <ele>161</ele>
        <time>2025-10-18T10:00:46Z</time>
      </trkpt>
      <trkpt lat="43.21593" lon="5.4871">
        <ele>161</ele>
        <time>2025-10-18T10:00:47Z</time>
      </trkpt>
      <trkpt lat="43.21593" lon="5.4871">
        <ele>161.1</ele>
        <time>2025-10-18T10:00:48Z</time>
      </trkpt>
      <trkpt lat="43.21593" lon="5.4871">
        <ele>161.1</ele>
        <time>2025-10-18T10:00:49Z</time>
      </trkpt>
      <trkpt lat="43.21593" lon="5.4871">
        <ele>161.1</ele>
        <time>2025-10-18T10:00:50Z</time>
      </trkpt>
      <trkpt lat="43.21594" lon="5.4871">
        <ele>161.1</ele>
        <time>2025-10-18T10:00:51Z</time>
      </trkpt>
      <trkpt lat="43.21594" lon="5.4871">
        <ele>161</ele>
        <time>2025-10-18T10:00:52Z</time>
      </trkpt>
      <trkpt lat="43.21593" lon="5.4871">
        <ele>161</ele>
        <time>2025-10-18T10:00:53Z</time>
      </trkpt>
      <trkpt lat="43.21594" lon="5.4871">
        <ele>161</ele>
        <time>2025-10-18T10:00:54Z</time>
      </trkpt>
      <trkpt lat="43.21594" lon="5.4871">
        <ele>160.9</ele>
        <time>2025-10-18T10:00:55Z</time>
      </trkpt>
      <trkpt lat="43.21594" lon="5.4871">
        <ele>160.9</ele>
        <time>2025-10-18T10:00:56Z</time>
      </trkpt>
      <trkpt lat="43.21594" lon="5.48709">
        <ele>160.9</ele>
        <time>2025-10-18T10:00:57Z</time>
      </trkpt>
      <trkpt lat="43.21594" lon="5.48709">
        <ele>160.9</ele>
        <time>2025-10-18T10:00:58Z</time>
      </trkpt>
      <trkpt lat="43.21594" lon="5.4871">
        <ele>161</ele>
        <time>2025-10-18T10:00:59Z</time>
      </trkpt>
      <trkpt lat="43.21594" lon="5.4871">
        <ele>161</ele>
        <time>2025-10-18T10:01:00Z</time>
      </trkpt>
      <trkpt lat="43.21593" lon="5.4871">
        <ele>160.9</ele>
        <time>2025-10-18T10:01:01Z</time>
      </trkpt>
      <trkpt lat="43.21593" lon="5.4871">
        <ele>160.9</ele>
        <time>2025-10-18T10:01:02Z</time>
      </trkpt>
      <trkpt lat="43.21593" lon="5.4871">
        <ele>160.9</ele>
        <time>2025-10-18T10:01:03Z</time>
      </trkpt>
      <trkpt lat="43.21593" lon="5.4871">
        <ele>160.9</ele>
        <time>2025-10-18T10:01:04Z</time>
      </trkpt>
      <trkpt lat="43.21593" lon="5.4871">
        <ele>161</ele>
        <time>2025-10-18T10:01:05Z</time>
      </trkpt>
      <trkpt lat="43.21592" lon="5.4871">
        <ele>161.1</ele>
        <time>2025-10-18T10:01:06Z</time>
      </trkpt>
      <trkpt lat="43.21592" lon="5.4871">
        <ele>161.1</ele>
        <time>2025-10-18T10:01:07Z</time>
      </trkpt>
      <trkpt lat="43.21592" lon="5.4871">
        <ele>161</ele>
        <time>2025-10-18T10:01:08Z</time>
      </trkpt>
      <trkpt lat="43.21592" lon="5.4871">
        <ele>160.9</ele>
        <time>2025-10-18T10:01:09Z</time>
      </trkpt>
      <trkpt lat="43.21592" lon="5.4871">
        <ele>160.9</ele>
        <time>2025-10-18T10:01:10Z</time>
      </trkpt>
      <trkpt lat="43.21592" lon="5.4871">
        <ele>160.9</ele>
        <time>2025-10-18T10:01:11Z</time>
      </trkpt>
      <trkpt lat="43.21592" lon="5.4871">
        <ele>160.8</ele>
        <time>2025-10-18T10:01:12Z</time>
      </trkpt>
      <trkpt lat="43.21592" lon="5.4871">
        <ele>160.9</ele>
        <time>2025-10-18T10:01:13Z</time>
      </trkpt>
      <trkpt lat="43.21592" lon="5.4871">
        <ele>160.9</ele>
        <time>2025-10-18T10:01:14Z</time>
      </trkpt>
      <trkpt lat="43.21591" lon="5.4871">
        <ele>160.9</ele>
        <time>2025-10-18T10:01:15Z</time>
      </trkpt>
      <trkpt lat="43.21591" lon="5.4871">
        <ele>160.9</ele>
        <time>2025-10-18T10:01:16Z</time>
      </trkpt>
      <trkpt lat="43.21592" lon="5.4871">
        <ele>160.9</ele>
        <time>2025-10-18T10:01:17Z</time>
      </trkpt>
      <trkpt lat="43.21592" lon="5.4871">
        <ele>160.9</ele>
        <time>2025-10-18T10:01:18Z</time>
      </trkpt>
      <trkpt lat="43.21591" lon="5.4871">
        <ele>160.9</ele>
        <time>2025-10-18T10:01:19Z</time>
      </trkpt>
      <trkpt lat="43.21591" lon="5.4871">
        <ele>160.9</ele>
        <time>2025-10-18T10:01:20Z</time>
      </trkpt>
      <trkpt lat="43.21591" lon="5.4871">
        <ele>160.9</ele>
        <time>2025-10-18T10:01:21Z</time>
      </trkpt>
      <trkpt lat="43.21591" lon="5.4871">
        <ele>160.8</ele>
        <time>2025-10-18T10:01:22Z</time>
      </trkpt>
      <trkpt lat="43.21591" lon="5.4871">
        <ele>160.9</ele>
        <time>2025-10-18T10:01:23Z</time>
      </trkpt>
      <trkpt lat="43.21591" lon="5.4871">
        <ele>161</ele>
        <time>2025-10-18T10:01:24Z</time>
      </trkpt>
      <trkpt lat="43.21591" lon="5.48711">
        <ele>161</ele>
        <time>2025-10-18T10:01:25Z</time>
      </trkpt>
      <trkpt lat="43.2159" lon="5.48711">
        <ele>160.8</ele>
        <time>2025-10-18T10:01:26Z</time>
      </trkpt>
      <trkpt lat="43.21591" lon="5.48711">
        <ele>160.8</ele>
        <time>2025-10-18T10:01:27Z</time>
      </trkpt>
      <trkpt lat="43.2159" lon="5.48711">
        <ele>160.7</ele>
        <time>2025-10-18T10:01:28Z</time>
      </trkpt>
      <trkpt lat="43.2159" lon="5.48711">
        <ele>160.7</ele>
        <time>2025-10-18T10:01:29Z</time>
      </trkpt>
      <trkpt lat="43.2159" lon="5.48711">
        <ele>160.7</ele>
        <time>2025-10-18T10:01:30Z</time>
      </trkpt>
      <trkpt lat="43.2159" lon="5.48712">
        <ele>160.8</ele>
        <time>2025-10-18T10:01:31Z</time>
      </trkpt>
      <trkpt lat="43.2159" lon="5.48712">
        <ele>160.8</ele>
        <time>2025-10-18T10:01:32Z</time>
      </trkpt>
      <trkpt lat="43.2159" lon="5.48712">
        <ele>160.7</ele>
        <time>2025-10-18T10:01:33Z</time>
      </trkpt>
      <trkpt lat="43.21589" lon="5.48712">
        <ele>160.7</ele>
        <time>2025-10-18T10:01:34Z</time>
      </trkpt>
      <trkpt lat="43.21589" lon="5.48712">
        <ele>160.8</ele>
        <time>2025-10-18T10:01:35Z</time>
      </trkpt>
      <trkpt lat="43.21588" lon="5.48713">
        <ele>160.7</ele>
        <time>2025-10-18T10:01:36Z</time>
      </trkpt>
      <trkpt lat="43.21588" lon="5.48713">
        <ele>160.8</ele>
        <time>2025-10-18T10:01:37Z</time>
      </trkpt>
      <trkpt lat="43.21588" lon="5.48713">
        <ele>160.7</ele>
        <time>2025-10-18T10:01:38Z</time>
      </trkpt>
      <trkpt lat="43.21588" lon="5.48713">
        <ele>160.7</ele>
        <time>2025-10-18T10:01:39Z</time>
      </trkpt>
      <trkpt lat="43.21588" lon="5.48713">
        <ele>160.7</ele>
        <time>2025-10-18T10:01:40Z</time>
      </trkpt>
      <trkpt lat="43.21589" lon="5.48713">
        <ele>160.7</ele>
        <time>2025-10-18T10:01:41Z</time>
      </trkpt>
      <trkpt lat="43.21589" lon="5.48712">
        <ele>160.7</ele>
        <time>2025-10-18T10:01:42Z</time>
      </trkpt>
      <trkpt lat="43.21589" lon="5.48712">
        <ele>160.7</ele>
        <time>2025-10-18T10:01:43Z</time>
      </trkpt>
      <trkpt lat="43.21589" lon="5.48712">
        <ele>160.8</ele>
        <time>2025-10-18T10:01:44Z</time>
      </trkpt>
      <trkpt lat="43.21589" lon="5.48712">
        <ele>160.9</ele>
        <time>2025-10-18T10:01:45Z</time>
      </trkpt>
      <trkpt lat="43.21589" lon="5.48712">
        <ele>160.9</ele>
        <time>2025-10-18T10:01:46Z</time>
      </trkpt>
      <trkpt lat="43.21589" lon="5.48712">
        <ele>160.9</ele>
        <time>2025-10-18T10:01:47Z</time>
      </trkpt>
      <trkpt lat="43.21589" lon="5.48712">
        <ele>160.9</ele>
        <time>2025-10-18T10:01:48Z</time>
      </trkpt>
      <trkpt lat="43.21588" lon="5.48713">
        <ele>160.9</ele>
        <time>2025-10-18T10:01:49Z</time>
      </trkpt>
      <trkpt lat="43.21588" lon="5.48712">
        <ele>160.9</ele>
        <time>2025-10-18T10:01:50Z</time>
      </trkpt>
      <trkpt lat="43.21588" lon="5.48713">
        <ele>160.9</ele>
        <time>2025-10-18T10:01:51Z</time>
      </trkpt>
      <trkpt lat="43.21588" lon="5.48713">
        <ele>160.9</ele>
        <time>2025-10-18T10:01:52Z</time>
      </trkpt>
      <trkpt lat="43.21587" lon="5.48713">
        <ele>160.9</ele>
        <time>2025-10-18T10:01:53Z</time>
      </trkpt>
      <trkpt lat="43.21587" lon="5.48713">
        <ele>160.9</ele>
        <time>2025-10-18T10:01:54Z</time>
      </trkpt>
      <trkpt lat="43.21587" lon="5.48713">
        <ele>160.9</ele>
        <time>2025-10-18T10:01:55Z</time>
      </trkpt>
      <trkpt lat="43.21587" lon="5.48713">
        <ele>160.9</ele>
        <time>2025-10-18T10:01:56Z</time>
      </trkpt>
      <trkpt lat="43.21586" lon="5.48713">
        <ele>160.9</ele>
        <time>2025-10-18T10:01:57Z</time>
      </trkpt>
      <trkpt lat="43.21586" lon="5.48713">
        <ele>160.9</ele>
        <time>2025-10-18T10:01:58Z</time>
      </trkpt>
      <trkpt lat="43.21586" lon="5.48713">
        <ele>160.9</ele>
        <time>2025-10-18T10:01:59Z</time>
      </trkpt>
      <trkpt lat="43.21586" lon="5.48713">
        <ele>160.9</ele>
        <time>2025-10-18T10:02:00Z</time>
      </trkpt>
      <trkpt lat="43.21586" lon="5.48713">
        <ele>161</ele>
        <time>2025-10-18T10:02:01Z</time>
      </trkpt>
      <trkpt lat="43.21586" lon="5.48713">
        <ele>161</ele>
        <time>2025-10-18T10:02:02Z</time>
      </trkpt>
      <trkpt lat="43.21586" lon="5.48713">
        <ele>161</ele>
        <time>2025-10-18T10:02:03Z</time>
      </trkpt>
      <trkpt lat="43.21586" lon="5.48713">
        <ele>161</ele>
        <time>2025-10-18T10:02:04Z</time>
      </trkpt>
      <trkpt lat="43.21586" lon="5.48713">
        <ele>161</ele>
        <time>2025-10-18T10:02:05Z</time>
      </trkpt>
      <trkpt lat="43.21587" lon="5.48713">
        <ele>161</ele>
        <time>2025-10-18T10:02:06Z</time>
      </trkpt>
      <trkpt lat="43.21587" lon="5.48713">
        <ele>160.8</ele>
        <time>2025-10-18T10:02:07Z</time>
      </trkpt>
      <trkpt lat="43.21588" lon="5.48712">
        <ele>160.9</ele>
        <time>2025-10-18T10:02:08Z</time>
      </trkpt>
      <trkpt lat="43.21588" lon="5.48712">
        <ele>160.8</ele>
        <time>2025-10-18T10:02:09Z</time>
      </trkpt>
      <trkpt lat="43.21589" lon="5.48712">
        <ele>160.8</ele>
        <time>2025-10-18T10:02:10Z</time>
      </trkpt>
      <trkpt lat="43.21589" lon="5.48712">
        <ele>160.8</ele>
        <time>2025-10-18T10:02:11Z</time>
      </trkpt>
      <trkpt lat="43.21589" lon="5.48712">
        <ele>160.7</ele>
        <time>2025-10-18T10:02:12Z</time>
      </trkpt>
      <trkpt lat="43.21589" lon="5.48712">
        <ele>160.7</ele>
        <time>2025-10-18T10:02:13Z</time>
      </trkpt>
      <trkpt lat="43.2159" lon="5.48712">
        <ele>160.7</ele>
        <time>2025-10-18T10:02:14Z</time>
      </trkpt>
      <trkpt lat="43.2159" lon="5.48712">
        <ele>160.6</ele>
        <time>2025-10-18T10:02:15Z</time>
      </trkpt>
      <trkpt lat="43.2159" lon="5.48712">
        <ele>160.7</ele>
        <time>2025-10-18T10:02:16Z</time>
      </trkpt>
      <trkpt lat="43.21591" lon="5.48712">
        <ele>160.7</ele>
        <time>2025-10-18T10:02:17Z</time>
      </trkpt>
      <trkpt lat="43.21591" lon="5.48711">
        <ele>160.8</ele>
        <time>2025-10-18T10:02:18Z</time>
      </trkpt>
      <trkpt lat="43.21592" lon="5.48711">
        <ele>160.8</ele>
        <time>2025-10-18T10:02:19Z</time>
      </trkpt>
      <trkpt lat="43.21592" lon="5.48711">
        <ele>160.9</ele>
        <time>2025-10-18T10:02:20Z</time>
      </trkpt>
      <trkpt lat="43.21592" lon="5.48711">
        <ele>161</ele>
        <time>2025-10-18T10:02:21Z</time>
      </trkpt>
      <trkpt lat="43.21592" lon="5.48711">
        <ele>160.9</ele>
        <time>2025-10-18T10:02:22Z</time>
      </trkpt>
      <trkpt lat="43.21592" lon="5.48711">
        <ele>161</ele>
        <time>2025-10-18T10:02:23Z</time>
      </trkpt>
      <trkpt lat="43.21592" lon="5.48711">
        <ele>161</ele>
        <time>2025-10-18T10:02:24Z</time>
      </trkpt>
      <trkpt lat="43.21593" lon="5.48711">
        <ele>161</ele>
        <time>2025-10-18T10:02:25Z</time>
      </trkpt>
      <trkpt lat="43.21593" lon="5.48711">
        <ele>161</ele>
        <time>2025-10-18T10:02:26Z</time>
      </trkpt>
      <trkpt lat="43.21593" lon="5.48711">
        <ele>161</ele>
        <time>2025-10-18T10:02:27Z</time>
      </trkpt>
      <trkpt lat="43.21593" lon="5.48711">
        <ele>161</ele>
        <time>2025-10-18T10:02:28Z</time>
      </trkpt>
      <trkpt lat="43.21593" lon="5.48711">
        <ele>161</ele>
        <time>2025-10-18T10:02:29Z</time>
      </trkpt>
      <trkpt lat="43.21593" lon="5.48711">
        <ele>161</ele>
        <time>2025-10-18T10:02:30Z</time>
      </trkpt>
      <trkpt lat="43.21593" lon="5.48711">
        <ele>161</ele>
        <time>2025-10-18T10:02:31Z</time>
      </trkpt>
      <trkpt lat="43.21593" lon="5.48711">
        <ele>161</ele>
        <time>2025-10-18T10:02:32Z</time>
      </trkpt>
      <trkpt lat="43.21593" lon="5.48711">
        <ele>161</ele>
        <time>2025-10-18T10:02:33Z</time>
      </trkpt>
      <trkpt lat="43.21593" lon="5.48711">
        <ele>161</ele>
        <time>2025-10-18T10:02:34Z</time>
      </trkpt>
      <trkpt lat="43.21593" lon="5.48712">
        <ele>161</ele>
        <time>2025-10-18T10:02:35Z</time>
      </trkpt>
      <trkpt lat="43.21593" lon="5.48712">
        <ele>161</ele>
        <time>2025-10-18T10:02:36Z</time>
      </trkpt>
      <trkpt lat="43.21593" lon="5.48712">
        <ele>161</ele>
        <time>2025-10-18T10:02:37Z</time>
      </trkpt>
      <trkpt lat="43.21593" lon="5.48712">
        <ele>161</ele>
        <time>2025-10-18T10:02:38Z</time>
      </trkpt>
      <trkpt lat="43.21593" lon="5.48712">
        <ele>161</ele>
        <time>2025-10-18T10:02:39Z</time>
      </trkpt>
      <trkpt lat="43.21593" lon="5.48712">
        <ele>161</ele>
        <time>2025-10-18T10:02:40Z</time>
      </trkpt>
      <trkpt lat="43.21593" lon="5.48712">
        <ele>161.1</ele>
        <time>2025-10-18T10:02:41Z</time>
      </trkpt>
      <trkpt lat="43.21593" lon="5.48712">
        <ele>161.1</ele>
        <time>2025-10-18T10:02:42Z</time>
      </trkpt>
      <trkpt lat="43.21593" lon="5.48712">
        <ele>161.1</ele>
        <time>2025-10-18T10:02:43Z</time>
      </trkpt>
      <trkpt lat="43.21593" lon="5.48712">
        <ele>161</ele>
        <time>2025-10-18T10:02:44Z</time>
      </trkpt>
      <trkpt lat="43.21593" lon="5.48713">
        <ele>161</ele>
        <time>2025-10-18T10:02:45Z</time>
      </trkpt>
      <trkpt lat="43.21593" lon="5.48713">
        <ele>160.9</ele>
        <time>2025-10-18T10:02:46Z</time>
      </trkpt>
      <trkpt lat="43.21592" lon="5.48713">
        <ele>160.9</ele>
        <time>2025-10-18T10:02:47Z</time>
      </trkpt>
      <trkpt lat="43.21593" lon="5.48713">
        <ele>160.9</ele>
        <time>2025-10-18T10:02:48Z</time>
      </trkpt>
      <trkpt lat="43.21593" lon="5.48713">
        <ele>161</ele>
        <time>2025-10-18T10:02:49Z</time>
      </trkpt>
      <trkpt lat="43.21592" lon="5.48713">
        <ele>161</ele>
        <time>2025-10-18T10:02:50Z</time>
      </trkpt>
      <trkpt lat="43.21592" lon="5.48713">
        <ele>161</ele>
        <time>2025-10-18T10:02:51Z</time>
      </trkpt>
      <trkpt lat="43.21592" lon="5.48713">
        <ele>161</ele>
        <time>2025-10-18T10:02:52Z</time>
      </trkpt>
      <trkpt lat="43.21592" lon="5.48713">
        <ele>161.1</ele>
        <time>2025-10-18T10:02:53Z</time>
      </trkpt>
      <trkpt lat="43.21592" lon="5.48713">
        <ele>161.1</ele>
        <time>2025-10-18T10:02:54Z</time>
      </trkpt>
      <trkpt lat="43.21592" lon="5.48713">
        <ele>161.1</ele>
        <time>2025-10-18T10:02:55Z</time>
      </trkpt>
      <trkpt lat="43.21592" lon="5.48713">
        <ele>161.1</ele>
        <time>2025-10-18T10:02:56Z</time>
      </trkpt>
      <trkpt lat="43.21592" lon="5.48713">
        <ele>161.1</ele>
        <time>2025-10-18T10:02:57Z</time>
      </trkpt>
      <trkpt lat="43.21592" lon="5.48713">
        <ele>161.1</ele>
        <time>2025-10-18T10:02:58Z</time>
      </trkpt>
      <trkpt lat="43.21592" lon="5.48713">
        <ele>161.1</ele>
        <time>2025-10-18T10:02:59Z</time>
      </trkpt>
      <trkpt lat="43.21592" lon="5.48713">
        <ele>161.1</ele>
        <time>2025-10-18T10:03:00Z</time>
      </trkpt>
      <trkpt lat="43.21592" lon="5.48713">
        <ele>161.1</ele>
        <time>2025-10-18T10:03:01Z</time>
      </trkpt>
      <trkpt lat="43.21592" lon="5.48713">
        <ele>161.1</ele>
        <time>2025-10-18T10:03:02Z</time>
      </trkpt>
      <trkpt lat="43.21592" lon="5.48713">
        <ele>161.2</ele>
        <time>2025-10-18T10:03:03Z</time>
      </trkpt>
      <trkpt lat="43.21592" lon="5.48714">
        <ele>161.2</ele>
        <time>2025-10-18T10:03:04Z</time>
      </trkpt>
      <trkpt lat="43.21592" lon="5.48714">
        <ele>161.2</ele>
        <time>2025-10-18T10:03:05Z</time>
      </trkpt>
      <trkpt lat="43.21591" lon="5.48714">
        <ele>161.2</ele>
        <time>2025-10-18T10:03:06Z</time>
      </trkpt>
      <trkpt lat="43.21591" lon="5.48714">
        <ele>161.2</ele>
        <time>2025-10-18T10:03:07Z</time>
      </trkpt>
      <trkpt lat="43.21591" lon="5.48714">
        <ele>161.2</ele>
        <time>2025-10-18T10:03:08Z</time>
      </trkpt>
      <trkpt lat="43.21591" lon="5.48714">
        <ele>161.2</ele>
        <time>2025-10-18T10:03:09Z</time>
      </trkpt>
      <trkpt lat="43.21591" lon="5.48714">
        <ele>161.2</ele>
        <time>2025-10-18T10:03:10Z</time>
      </trkpt>
      <trkpt lat="43.21591" lon="5.48714">
        <ele>161.2</ele>
        <time>2025-10-18T10:03:11Z</time>
      </trkpt>
      <trkpt lat="43.21592" lon="5.48714">
        <ele>161.2</ele>
        <time>2025-10-18T10:03:12Z</time>
      </trkpt>
      <trkpt lat="43.21592" lon="5.48714">
        <ele>161.2</ele>
        <time>2025-10-18T10:03:13Z</time>
      </trkpt>
      <trkpt lat="43.21592" lon="5.48714">
        <ele>161.3</ele>
        <time>2025-10-18T10:03:14Z</time>
      </trkpt>
      <trkpt lat="43.21592" lon="5.48714">
        <ele>161.2</ele>
        <time>2025-10-18T10:03:15Z</time>
      </trkpt>
      <trkpt lat="43.21592" lon="5.48714">
        <ele>161.2</ele>
        <time>2025-10-18T10:03:16Z</time>
      </trkpt>
      <trkpt lat="43.21592" lon="5.48714">
        <ele>161.2</ele>
        <time>2025-10-18T10:03:17Z</time>
      </trkpt>
      <trkpt lat="43.21592" lon="5.48714">
        <ele>161.2</ele>
        <time>2025-10-18T10:03:18Z</time>
      </trkpt>
      <trkpt lat="43.21592" lon="5.48714">
        <ele>161.3</ele>
        <time>2025-10-18T10:03:19Z</time>
      </trkpt>
      <trkpt lat="43.21593" lon="5.48714">
        <ele>161.3</ele>
        <time>2025-10-18T10:03:20Z</time>
      </trkpt>
      <trkpt lat="43.21592" lon="5.48713">
        <ele>161.4</ele>
        <time>2025-10-18T10:03:21Z</time>
      </trkpt>
      <trkpt lat="43.21592" lon="5.48714">
        <ele>161.4</ele>
        <time>2025-10-18T10:03:22Z</time>
      </trkpt>
      <trkpt lat="43.21592" lon="5.48714">
        <ele>161.4</ele>
        <time>2025-10-18T10:03:23Z</time>
      </trkpt>
      <trkpt lat="43.21592" lon="5.48714">
        <ele>161.4</ele>
        <time>2025-10-18T10:03:24Z</time>
      </trkpt>
      <trkpt lat="43.21592" lon="5.48714">
        <ele>161.4</ele>
        <time>2025-10-18T10:03:25Z</time>
      </trkpt>
      <trkpt lat="43.21592" lon="5.48714">
        <ele>161.4</ele>
        <time>2025-10-18T10:03:26Z</time>
      </trkpt>
      <trkpt lat="43.21592" lon="5.48714">
        <ele>161.4</ele>
        <time>2025-10-18T10:03:27Z</time>
      </trkpt>
      <trkpt lat="43.21592" lon="5.48714">
        <ele>161.4</ele>
        <time>2025-10-18T10:03:28Z</time>
      </trkpt>
      <trkpt lat="43.21593" lon="5.48713">
        <ele>161.4</ele>
        <time>2025-10-18T10:03:29Z</time>
      </trkpt>
      <trkpt lat="43.21593" lon="5.48713">
        <ele>161.4</ele>
        <time>2025-10-18T10:03:30Z</time>
      </trkpt>
      <trkpt lat="43.21593" lon="5.48713">
        <ele>161.4</ele>
        <time>2025-10-18T10:03:31Z</time>
      </trkpt>
      <trkpt lat="43.21593" lon="5.48713">
        <ele>161.5</ele>
        <time>2025-10-18T10:03:32Z</time>
      </trkpt>
      <trkpt lat="43.21593" lon="5.48713">
        <ele>161.4</ele>
        <time>2025-10-18T10:03:33Z</time>
      </trkpt>
      <trkpt lat="43.21594" lon="5.48712">
        <ele>161.5</ele>
        <time>2025-10-18T10:03:34Z</time>
      </trkpt>
      <trkpt lat="43.21594" lon="5.48712">
        <ele>161.5</ele>
        <time>2025-10-18T10:03:35Z</time>
      </trkpt>
      <trkpt lat="43.21594" lon="5.48712">
        <ele>161.6</ele>
        <time>2025-10-18T10:03:36Z</time>
      </trkpt>
      <trkpt lat="43.21594" lon="5.48712">
        <ele>161.6</ele>
        <time>2025-10-18T10:03:37Z</time>
      </trkpt>
      <trkpt lat="43.21594" lon="5.48712">
        <ele>161.6</ele>
        <time>2025-10-18T10:03:38Z</time>
      </trkpt>
      <trkpt lat="43.21595" lon="5.48712">
        <ele>161.6</ele>
        <time>2025-10-18T10:03:39Z</time>
      </trkpt>
      <trkpt lat="43.21595" lon="5.48712">
        <ele>161.6</ele>
        <time>2025-10-18T10:03:40Z</time>
      </trkpt>
      <trkpt lat="43.21594" lon="5.48712">
        <ele>161.6</ele>
        <time>2025-10-18T10:03:41Z</time>
      </trkpt>
      <trkpt lat="43.21594" lon="5.48711">
        <ele>161.6</ele>
        <time>2025-10-18T10:03:42Z</time>
      </trkpt>
      <trkpt lat="43.21594" lon="5.48711">
        <ele>161.6</ele>
        <time>2025-10-18T10:03:43Z</time>
      </trkpt>
      <trkpt lat="43.21594" lon="5.48711">
        <ele>161.6</ele>
        <time>2025-10-18T10:03:44Z</time>
      </trkpt>
      <trkpt lat="43.21594" lon="5.48711">
        <ele>161.6</ele>
        <time>2025-10-18T10:03:45Z</time>
      </trkpt>
      <trkpt lat="43.21594" lon="5.48711">
        <ele>161.7</ele>
        <time>2025-10-18T10:03:46Z</time>
      </trkpt>
      <trkpt lat="43.21594" lon="5.48711">
        <ele>161.7</ele>
        <time>2025-10-18T10:03:47Z</time>
      </trkpt>
      <trkpt lat="43.21594" lon="5.48711">
        <ele>161.7</ele>
        <time>2025-10-18T10:03:48Z</time>
      </trkpt>
      <trkpt lat="43.21594" lon="5.48711">
        <ele>161.7</ele>
        <time>2025-10-18T10:03:49Z</time>
      </trkpt>
      <trkpt lat="43.21594" lon="5.48711">
        <ele>161.7</ele>
        <time>2025-10-18T10:03:50Z</time>
      </trkpt>
      <trkpt lat="43.21594" lon="5.48711">
        <ele>161.7</ele>
        <time>2025-10-18T10:03:51Z</time>
      </trkpt>
      <trkpt lat="43.21594" lon="5.48711">
        <ele>161.7</ele>
        <time>2025-10-18T10:03:52Z</time>
      </trkpt>
      <trkpt lat="43.21594" lon="5.4871">
        <ele>161.7</ele>
        <time>2025-10-18T10:03:53Z</time>
      </trkpt>
      <trkpt lat="43.21594" lon="5.4871">
        <ele>161.8</ele>
        <time>2025-10-18T10:03:54Z</time>
      </trkpt>
      <trkpt lat="43.21594" lon="5.4871">
        <ele>161.8</ele>
        <time>2025-10-18T10:03:55Z</time>
      </trkpt>
      <trkpt lat="43.21594" lon="5.4871">
        <ele>161.8</ele>
        <time>2025-10-18T10:03:56Z</time>
      </trkpt>
      <trkpt lat="43.21595" lon="5.48711">
        <ele>161.7</ele>
        <time>2025-10-18T10:03:57Z</time>
      </trkpt>
      <trkpt lat="43.21595" lon="5.48711">
        <ele>161.6</ele>
        <time>2025-10-18T10:03:58Z</time>
      </trkpt>
      <trkpt lat="43.21595" lon="5.4871">
        <ele>161.6</ele>
        <time>2025-10-18T10:03:59Z</time>
      </trkpt>
      <trkpt lat="43.21596" lon="5.4871">
        <ele>161.6</ele>
        <time>2025-10-18T10:04:00Z</time>
      </trkpt>
      <trkpt lat="43.21595" lon="5.4871">
        <ele>161.5</ele>
        <time>2025-10-18T10:04:01Z</time>
      </trkpt>
      <trkpt lat="43.21595" lon="5.4871">
        <ele>161.6</ele>
        <time>2025-10-18T10:04:02Z</time>
      </trkpt>
      <trkpt lat="43.21596" lon="5.4871">
        <ele>161.6</ele>
        <time>2025-10-18T10:04:03Z</time>
      </trkpt>
      <trkpt lat="43.21595" lon="5.4871">
        <ele>161.6</ele>
        <time>2025-10-18T10:04:04Z</time>
      </trkpt>
      <trkpt lat="43.21596" lon="5.4871">
        <ele>161.6</ele>
        <time>2025-10-18T10:04:05Z</time>
      </trkpt>
      <trkpt lat="43.21596" lon="5.48711">
        <ele>161.6</ele>
        <time>2025-10-18T10:04:06Z</time>
      </trkpt>
      <trkpt lat="43.21596" lon="5.48711">
        <ele>161.6</ele>
        <time>2025-10-18T10:04:07Z</time>
      </trkpt>
      <trkpt lat="43.21596" lon="5.4871">
        <ele>161.6</ele>
        <time>2025-10-18T10:04:08Z</time>
      </trkpt>
      <trkpt lat="43.21597" lon="5.4871">
        <ele>161.5</ele>
        <time>2025-10-18T10:04:09Z</time>
      </trkpt>
      <trkpt lat="43.21597" lon="5.48711">
        <ele>161.5</ele>
        <time>2025-10-18T10:04:10Z</time>
      </trkpt>
      <trkpt lat="43.21597" lon="5.48711">
        <ele>161.5</ele>
        <time>2025-10-18T10:04:11Z</time>
      </trkpt>
      <trkpt lat="43.21597" lon="5.48711">
        <ele>161.5</ele>
        <time>2025-10-18T10:04:12Z</time>
      </trkpt>
      <trkpt lat="43.21597" lon="5.48711">
        <ele>161.5</ele>
        <time>2025-10-18T10:04:13Z</time>
      </trkpt>
      <trkpt lat="43.21598" lon="5.48711">
        <ele>161.4</ele>
        <time>2025-10-18T10:04:14Z</time>
      </trkpt>
      <trkpt lat="43.21598" lon="5.48711">
        <ele>161.5</ele>
        <time>2025-10-18T10:04:15Z</time>
      </trkpt>
      <trkpt lat="43.21598" lon="5.48711">
        <ele>161.5</ele>
        <time>2025-10-18T10:04:16Z</time>
      </trkpt>
      <trkpt lat="43.21598" lon="5.48711">
        <ele>161.5</ele>
        <time>2025-10-18T10:04:17Z</time>
      </trkpt>
      <trkpt lat="43.21598" lon="5.48711">
        <ele>161.5</ele>
        <time>2025-10-18T10:04:18Z</time>
      </trkpt>
      <trkpt lat="43.21597" lon="5.48711">
        <ele>161.5</ele>
        <time>2025-10-18T10:04:19Z</time>
      </trkpt>
      <trkpt lat="43.21597" lon="5.48712">
        <ele>161.5</ele>
        <time>2025-10-18T10:04:20Z</time>
      </trkpt>
      <trkpt lat="43.21597" lon="5.48712">
        <ele>161.5</ele>
        <time>2025-10-18T10:04:21Z</time>
      </trkpt>
      <trkpt lat="43.21597" lon="5.48712">
        <ele>161.5</ele>
        <time>2025-10-18T10:04:22Z</time>
      </trkpt>
      <trkpt lat="43.21597" lon="5.48712">
        <ele>161.5</ele>
        <time>2025-10-18T10:04:23Z</time>
      </trkpt>
      <trkpt lat="43.21597" lon="5.48712">
        <ele>161.5</ele>
        <time>2025-10-18T10:04:24Z</time>
      </trkpt>
      <trkpt lat="43.21598" lon="5.48712">
        <ele>161.5</ele>
        <time>2025-10-18T10:04:25Z</time>
      </trkpt>
      <trkpt lat="43.21598" lon="5.48712">
        <ele>161.5</ele>
        <time>2025-10-18T10:04:26Z</time>
      </trkpt>
      <trkpt lat="43.21598" lon="5.48712">
        <ele>161.6</ele>
        <time>2025-10-18T10:04:27Z</time>
      </trkpt>
      <trkpt lat="43.21598" lon="5.48713">
        <ele>161.6</ele>
        <time>2025-10-18T10:04:28Z</time>
      </trkpt>
      <trkpt lat="43.21599" lon="5.48713">
        <ele>161.6</ele>
        <time>2025-10-18T10:04:29Z</time>
      </trkpt>
      <trkpt lat="43.21599" lon="5.48713">
        <ele>161.6</ele>
        <time>2025-10-18T10:04:30Z</time>
      </trkpt>
      <trkpt lat="43.21599" lon="5.48713">
        <ele>161.6</ele>
        <time>2025-10-18T10:04:31Z</time>
      </trkpt>
      <trkpt lat="43.21599" lon="5.48713">
        <ele>161.6</ele>
        <time>2025-10-18T10:04:32Z</time>
      </trkpt>
      <trkpt lat="43.21599" lon="5.48713">
        <ele>161.6</ele>
        <time>2025-10-18T10:04:33Z</time>
      </trkpt>
      <trkpt lat="43.21599" lon="5.48713">
        <ele>161.6</ele>
        <time>2025-10-18T10:04:34Z</time>
      </trkpt>
      <trkpt lat="43.21599" lon="5.48713">
        <ele>161.6</ele>
        <time>2025-10-18T10:04:35Z</time>
      </trkpt>
      <trkpt lat="43.21599" lon="5.48713">
        <ele>161.6</ele>
        <time>2025-10-18T10:04:36Z</time>
      </trkpt>
      <trkpt lat="43.216" lon="5.48713">
        <ele>161.6</ele>
        <time>2025-10-18T10:04:37Z</time>
      </trkpt>
      <trkpt lat="43.216" lon="5.48713">
        <ele>161.5</ele>
        <time>2025-10-18T10:04:38Z</time>
      </trkpt>
      <trkpt lat="43.21599" lon="5.48713">
        <ele>161.5</ele>
        <time>2025-10-18T10:04:39Z</time>
      </trkpt>
      <trkpt lat="43.21599" lon="5.48713">
        <ele>161.5</ele>
        <time>2025-10-18T10:04:40Z</time>
      </trkpt>
      <trkpt lat="43.216" lon="5.48714">
        <ele>161.5</ele>
        <time>2025-10-18T10:04:41Z</time>
      </trkpt>
      <trkpt lat="43.216" lon="5.48714">
        <ele>161.6</ele>
        <time>2025-10-18T10:04:42Z</time>
      </trkpt>
      <trkpt lat="43.216" lon="5.48713">
        <ele>161.6</ele>
        <time>2025-10-18T10:04:43Z</time>
      </trkpt>
      <trkpt lat="43.21601" lon="5.48714">
        <ele>161.7</ele>
        <time>2025-10-18T10:04:44Z</time>
      </trkpt>
      <trkpt lat="43.21601" lon="5.48713">
        <ele>161.7</ele>
        <time>2025-10-18T10:04:45Z</time>
      </trkpt>
      <trkpt lat="43.21602" lon="5.48712">
        <ele>161.7</ele>
        <time>2025-10-18T10:04:46Z</time>
      </trkpt>
      <trkpt lat="43.21602" lon="5.48712">
        <ele>161.7</ele>
        <time>2025-10-18T10:04:47Z</time>
      </trkpt>
      <trkpt lat="43.21602" lon="5.48711">
        <ele>161.8</ele>
        <time>2025-10-18T10:04:48Z</time>
      </trkpt>
      <trkpt lat="43.21602" lon="5.48711">
        <ele>161.9</ele>
        <time>2025-10-18T10:04:49Z</time>
      </trkpt>
      <trkpt lat="43.21602" lon="5.48711">
        <ele>161.9</ele>
        <time>2025-10-18T10:04:50Z</time>
      </trkpt>
      <trkpt lat="43.21602" lon="5.4871">
        <ele>161.9</ele>
        <time>2025-10-18T10:04:51Z</time>
      </trkpt>
      <trkpt lat="43.21602" lon="5.4871">
        <ele>161.9</ele>
        <time>2025-10-18T10:04:52Z</time>
      </trkpt>
      <trkpt lat="43.21602" lon="5.48709">
        <ele>161.9</ele>
        <time>2025-10-18T10:04:53Z</time>
      </trkpt>
      <trkpt lat="43.21603" lon="5.48708">
        <ele>161.9</ele>
        <time>2025-10-18T10:04:54Z</time>
      </trkpt>
      <trkpt lat="43.21604" lon="5.48707">
        <ele>161.9</ele>
        <time>2025-10-18T10:04:55Z</time>
      </trkpt>
      <trkpt lat="43.21604" lon="5.48706">
        <ele>162</ele>
        <time>2025-10-18T10:04:56Z</time>
      </trkpt>
      <trkpt lat="43.21605" lon="5.48705">
        <ele>162</ele>
        <time>2025-10-18T10:04:57Z</time>
      </trkpt>
      <trkpt lat="43.21605" lon="5.48704">
        <ele>162.1</ele>
        <time>2025-10-18T10:04:58Z</time>
      </trkpt>
      <trkpt lat="43.21606" lon="5.48703">
        <ele>162.1</ele>
        <time>2025-10-18T10:04:59Z</time>
      </trkpt>
      <trkpt lat="43.21607" lon="5.48702">
        <ele>162.2</ele>
        <time>2025-10-18T10:05:00Z</time>
      </trkpt>
      <trkpt lat="43.21607" lon="5.48701">
        <ele>162.2</ele>
        <time>2025-10-18T10:05:01Z</time>
      </trkpt>
      <trkpt lat="43.21608" lon="5.487">
        <ele>162.4</ele>
        <time>2025-10-18T10:05:02Z</time>
      </trkpt>
      <trkpt lat="43.21608" lon="5.48699">
        <ele>162.4</ele>
        <time>2025-10-18T10:05:03Z</time>
      </trkpt>
      <trkpt lat="43.21609" lon="5.48698">
        <ele>162.4</ele>
        <time>2025-10-18T10:05:04Z</time>
      </trkpt>
      <trkpt lat="43.21609" lon="5.48697">
        <ele>162.5</ele>
        <time>2025-10-18T10:05:05Z</time>
      </trkpt>
      <trkpt lat="43.2161" lon="5.48696">
        <ele>162.5</ele>
        <time>2025-10-18T10:05:06Z</time>
      </trkpt>
      <trkpt lat="43.2161" lon="5.48695">
        <ele>162.5</ele>
        <time>2025-10-18T10:05:07Z</time>
      </trkpt>
      <trkpt lat="43.2161" lon="5.48694">
        <ele>162.6</ele>
        <time>2025-10-18T10:05:08Z</time>
      </trkpt>
      <trkpt lat="43.21611" lon="5.48693">
        <ele>162.7</ele>
        <time>2025-10-18T10:05:09Z</time>
      </trkpt>
      <trkpt lat="43.21611" lon="5.48692">
        <ele>162.8</ele>
        <time>2025-10-18T10:05:10Z</time>
      </trkpt>
      <trkpt lat="43.21611" lon="5.48691">
        <ele>162.8</ele>
        <time>2025-10-18T10:05:11Z</time>
      </trkpt>
      <trkpt lat="43.21612" lon="5.4869">
        <ele>163</ele>
        <time>2025-10-18T10:05:12Z</time>
      </trkpt>
      <trkpt lat="43.21612" lon="5.48689">
        <ele>163.1</ele>
        <time>2025-10-18T10:05:13Z</time>
      </trkpt>
      <trkpt lat="43.21613" lon="5.48688">
        <ele>163.2</ele>
        <time>2025-10-18T10:05:14Z</time>
      </trkpt>
      <trkpt lat="43.21613" lon="5.48687">
        <ele>163.2</ele>
        <time>2025-10-18T10:05:15Z</time>
      </trkpt>
      <trkpt lat="43.21614" lon="5.48685">
        <ele>163.2</ele>
        <time>2025-10-18T10:05:16Z</time>
      </trkpt>
      <trkpt lat="43.21614" lon="5.48684">
        <ele>163.3</ele>
        <time>2025-10-18T10:05:17Z</time>
      </trkpt>
      <trkpt lat="43.21613" lon="5.48683">
        <ele>163.4</ele>
        <time>2025-10-18T10:05:18Z</time>
      </trkpt>
      <trkpt lat="43.21614" lon="5.48682">
        <ele>163.4</ele>
        <time>2025-10-18T10:05:19Z</time>
      </trkpt>
      <trkpt lat="43.21613" lon="5.48681">
        <ele>163.4</ele>
        <time>2025-10-18T10:05:20Z</time>
      </trkpt>
      <trkpt lat="43.21614" lon="5.4868">
        <ele>163.4</ele>
        <time>2025-10-18T10:05:21Z</time>
      </trkpt>
      <trkpt lat="43.21614" lon="5.48679">
        <ele>163.4</ele>
        <time>2025-10-18T10:05:22Z</time>
      </trkpt>
      <trkpt lat="43.21614" lon="5.48678">
        <ele>163.4</ele>
        <time>2025-10-18T10:05:23Z</time>
      </trkpt>
      <trkpt lat="43.21614" lon="5.48677">
        <ele>163.5</ele>
        <time>2025-10-18T10:05:24Z</time>
      </trkpt>
      <trkpt lat="43.21614" lon="5.48676">
        <ele>163.5</ele>
        <time>2025-10-18T10:05:25Z</time>
      </trkpt>
      <trkpt lat="43.21614" lon="5.48675">
        <ele>163.5</ele>
        <time>2025-10-18T10:05:26Z</time>
      </trkpt>
      <trkpt lat="43.21614" lon="5.48674">
        <ele>163.6</ele>
        <time>2025-10-18T10:05:27Z</time>
      </trkpt>
      <trkpt lat="43.21615" lon="5.48673">
        <ele>163.6</ele>
        <time>2025-10-18T10:05:28Z</time>
      </trkpt>
      <trkpt lat="43.21615" lon="5.48671">
        <ele>163.5</ele>
        <time>2025-10-18T10:05:29Z</time>
      </trkpt>
      <trkpt lat="43.21615" lon="5.4867">
        <ele>163.6</ele>
        <time>2025-10-18T10:05:30Z</time>
      </trkpt>
      <trkpt lat="43.21615" lon="5.48669">
        <ele>163.6</ele>
        <time>2025-10-18T10:05:31Z</time>
      </trkpt>
      <trkpt lat="43.21615" lon="5.48667">
        <ele>163.7</ele>
        <time>2025-10-18T10:05:32Z</time>
      </trkpt>
      <trkpt lat="43.21615" lon="5.48666">
        <ele>163.8</ele>
        <time>2025-10-18T10:05:33Z</time>
      </trkpt>
      <trkpt lat="43.21615" lon="5.48665">
        <ele>163.9</ele>
        <time>2025-10-18T10:05:34Z</time>
      </trkpt>
      <trkpt lat="43.21615" lon="5.48663">
        <ele>164.1</ele>
        <time>2025-10-18T10:05:35Z</time>
      </trkpt>
      <trkpt lat="43.21615" lon="5.48662">
        <ele>164.2</ele>
        <time>2025-10-18T10:05:36Z</time>
      </trkpt>
      <trkpt lat="43.21615" lon="5.48661">
        <ele>164.3</ele>
        <time>2025-10-18T10:05:37Z</time>
      </trkpt>
      <trkpt lat="43.21616" lon="5.48659">
        <ele>164.3</ele>
        <time>2025-10-18T10:05:38Z</time>
      </trkpt>
      <trkpt lat="43.21616" lon="5.48658">
        <ele>164.4</ele>
        <time>2025-10-18T10:05:39Z</time>
      </trkpt>
      <trkpt lat="43.21616" lon="5.48657">
        <ele>164.5</ele>
        <time>2025-10-18T10:05:40Z</time>
      </trkpt>
      <trkpt lat="43.21616" lon="5.48655">
        <ele>164.6</ele>
        <time>2025-10-18T10:05:41Z</time>
      </trkpt>
      <trkpt lat="43.21616" lon="5.48654">
        <ele>164.6</ele>
        <time>2025-10-18T10:05:42Z</time>
      </trkpt>
      <trkpt lat="43.21617" lon="5.48653">
        <ele>164.7</ele>
        <time>2025-10-18T10:05:43Z</time>
      </trkpt>
      <trkpt lat="43.21617" lon="5.48651">
        <ele>164.7</ele>
        <time>2025-10-18T10:05:44Z</time>
      </trkpt>
      <trkpt lat="43.21618" lon="5.4865">
        <ele>164.8</ele>
        <time>2025-10-18T10:05:45Z</time>
      </trkpt>
      <trkpt lat="43.21618" lon="5.48648">
        <ele>165</ele>
        <time>2025-10-18T10:05:46Z</time>
      </trkpt>
      <trkpt lat="43.21619" lon="5.48647">
        <ele>165.1</ele>
        <time>2025-10-18T10:05:47Z</time>
      </trkpt>
      <trkpt lat="43.2162" lon="5.48646">
        <ele>165.2</ele>
        <time>2025-10-18T10:05:48Z</time>
      </trkpt>
      <trkpt lat="43.2162" lon="5.48645">
        <ele>165.3</ele>
        <time>2025-10-18T10:05:49Z</time>
      </trkpt>
      <trkpt lat="43.21621" lon="5.48644">
        <ele>165.4</ele>
        <time>2025-10-18T10:05:50Z</time>
      </trkpt>
      <trkpt lat="43.21622" lon="5.48643">
        <ele>165.4</ele>
        <time>2025-10-18T10:05:51Z</time>
      </trkpt>
      <trkpt lat="43.21622" lon="5.48642">
        <ele>165.5</ele>
        <time>2025-10-18T10:05:52Z</time>
      </trkpt>
      <trkpt lat="43.21623" lon="5.48641">
        <ele>165.6</ele>
        <time>2025-10-18T10:05:53Z</time>
      </trkpt>
      <trkpt lat="43.21624" lon="5.4864">
        <ele>165.6</ele>
        <time>2025-10-18T10:05:54Z</time>
      </trkpt>
      <trkpt lat="43.21624" lon="5.48639">
        <ele>165.6</ele>
        <time>2025-10-18T10:05:55Z</time>
      </trkpt>
      <trkpt lat="43.21624" lon="5.48638">
        <ele>165.7</ele>
        <time>2025-10-18T10:05:56Z</time>
      </trkpt>
      <trkpt lat="43.21625" lon="5.48637">
        <ele>165.9</ele>
        <time>2025-10-18T10:05:57Z</time>
      </trkpt>
      <trkpt lat="43.21626" lon="5.48635">
        <ele>166</ele>
        <time>2025-10-18T10:05:58Z</time>
      </trkpt>
      <trkpt lat="43.21626" lon="5.48634">
        <ele>166.1</ele>
        <time>2025-10-18T10:05:59Z</time>
      </trkpt>
      <trkpt lat="43.21627" lon="5.48634">
        <ele>166.1</ele>
        <time>2025-10-18T10:06:00Z</time>
      </trkpt>
      <trkpt lat="43.21628" lon="5.48633">
        <ele>166.2</ele>
        <time>2025-10-18T10:06:01Z</time>
      </trkpt>
      <trkpt lat="43.21628" lon="5.48632">
        <ele>166.4</ele>
        <time>2025-10-18T10:06:02Z</time>
      </trkpt>
      <trkpt lat="43.21629" lon="5.48631">
        <ele>166.4</ele>
        <time>2025-10-18T10:06:03Z</time>
      </trkpt>
      <trkpt lat="43.21629" lon="5.4863">
        <ele>166.5</ele>
        <time>2025-10-18T10:06:04Z</time>
      </trkpt>
      <trkpt lat="43.2163" lon="5.4863">
        <ele>166.5</ele>
        <time>2025-10-18T10:06:05Z</time>
      </trkpt>
      <trkpt lat="43.21631" lon="5.48629">
        <ele>166.6</ele>
        <time>2025-10-18T10:06:06Z</time>
      </trkpt>
      <trkpt lat="43.21631" lon="5.48628">
        <ele>166.6</ele>
        <time>2025-10-18T10:06:07Z</time>
      </trkpt>
      <trkpt lat="43.21631" lon="5.48627">
        <ele>166.7</ele>
        <time>2025-10-18T10:06:08Z</time>
      </trkpt>
      <trkpt lat="43.21632" lon="5.48625">
        <ele>166.8</ele>
        <time>2025-10-18T10:06:09Z</time>
      </trkpt>
      <trkpt lat="43.21633" lon="5.48624">
        <ele>167</ele>
        <time>2025-10-18T10:06:10Z</time>
      </trkpt>
      <trkpt lat="43.21633" lon="5.48623">
        <ele>167.1</ele>
        <time>2025-10-18T10:06:11Z</time>
      </trkpt>
      <trkpt lat="43.21633" lon="5.48621">
        <ele>167.3</ele>
        <time>2025-10-18T10:06:12Z</time>
      </trkpt>
      <trkpt lat="43.21633" lon="5.4862">
        <ele>167.4</ele>
        <time>2025-10-18T10:06:13Z</time>
      </trkpt>
      <trkpt lat="43.21634" lon="5.48619">
        <ele>167.5</ele>
        <time>2025-10-18T10:06:14Z</time>
      </trkpt>
      <trkpt lat="43.21634" lon="5.48617">
        <ele>167.6</ele>
        <time>2025-10-18T10:06:15Z</time>
      </trkpt>
      <trkpt lat="43.21633" lon="5.48616">
        <ele>167.6</ele>
        <time>2025-10-18T10:06:16Z</time>
      </trkpt>
      <trkpt lat="43.21634" lon="5.48615">
        <ele>167.6</ele>
        <time>2025-10-18T10:06:17Z</time>
      </trkpt>
      <trkpt lat="43.21634" lon="5.48614">
        <ele>167.7</ele>
        <time>2025-10-18T10:06:18Z</time>
      </trkpt>
      <trkpt lat="43.21635" lon="5.48612">
        <ele>167.8</ele>
        <time>2025-10-18T10:06:19Z</time>
      </trkpt>
      <trkpt lat="43.21635" lon="5.48611">
        <ele>167.8</ele>
        <time>2025-10-18T10:06:20Z</time>
      </trkpt>
      <trkpt lat="43.21635" lon="5.4861">
        <ele>167.9</ele>
        <time>2025-10-18T10:06:21Z</time>
      </trkpt>
      <trkpt lat="43.21635" lon="5.48608">
        <ele>168</ele>
        <time>2025-10-18T10:06:22Z</time>
      </trkpt>
      <trkpt lat="43.21636" lon="5.48607">
        <ele>168.1</ele>
        <time>2025-10-18T10:06:23Z</time>
      </trkpt>
      <trkpt lat="43.21636" lon="5.48606">
        <ele>168.2</ele>
        <time>2025-10-18T10:06:24Z</time>
      </trkpt>
      <trkpt lat="43.21637" lon="5.48605">
        <ele>168.2</ele>
        <time>2025-10-18T10:06:25Z</time>
      </trkpt>
      <trkpt lat="43.21638" lon="5.48603">
        <ele>168.3</ele>
        <time>2025-10-18T10:06:26Z</time>
      </trkpt>
      <trkpt lat="43.21638" lon="5.48602">
        <ele>168.3</ele>
        <time>2025-10-18T10:06:27Z</time>
      </trkpt>
      <trkpt lat="43.21639" lon="5.48601">
        <ele>168.5</ele>
        <time>2025-10-18T10:06:28Z</time>
      </trkpt>
      <trkpt lat="43.21639" lon="5.486">
        <ele>168.6</ele>
        <time>2025-10-18T10:06:29Z</time>
      </trkpt>
      <trkpt lat="43.2164" lon="5.48599">
        <ele>168.7</ele>
        <time>2025-10-18T10:06:30Z</time>
      </trkpt>
      <trkpt lat="43.21641" lon="5.48598">
        <ele>168.8</ele>
        <time>2025-10-18T10:06:31Z</time>
      </trkpt>
      <trkpt lat="43.21642" lon="5.48597">
        <ele>168.8</ele>
        <time>2025-10-18T10:06:32Z</time>
      </trkpt>
      <trkpt lat="43.21643" lon="5.48596">
        <ele>168.9</ele>
        <time>2025-10-18T10:06:33Z</time>
      </trkpt>
      <trkpt lat="43.21644" lon="5.48595">
        <ele>169</ele>
        <time>2025-10-18T10:06:34Z</time>
      </trkpt>
      <trkpt lat="43.21644" lon="5.48593">
        <ele>169.2</ele>
        <time>2025-10-18T10:06:35Z</time>
      </trkpt>
      <trkpt lat="43.21645" lon="5.48592">
        <ele>169.2</ele>
        <time>2025-10-18T10:06:36Z</time>
      </trkpt>
      <trkpt lat="43.21644" lon="5.48589">
        <ele>169.3</ele>
        <time>2025-10-18T10:06:37Z</time>
      </trkpt>
      <trkpt lat="43.21644" lon="5.48587">
        <ele>169.3</ele>
        <time>2025-10-18T10:06:38Z</time>
      </trkpt>
      <trkpt lat="43.21642" lon="5.48585">
        <ele>169.4</ele>
        <time>2025-10-18T10:06:39Z</time>
      </trkpt>
      <trkpt lat="43.21642" lon="5.48584">
        <ele>169.5</ele>
        <time>2025-10-18T10:06:40Z</time>
      </trkpt>
      <trkpt lat="43.21643" lon="5.48583">
        <ele>169.4</ele>
        <time>2025-10-18T10:06:41Z</time>
      </trkpt>
      <trkpt lat="43.21643" lon="5.48582">
        <ele>169.5</ele>
        <time>2025-10-18T10:06:42Z</time>
      </trkpt>
      <trkpt lat="43.21643" lon="5.4858">
        <ele>169.5</ele>
        <time>2025-10-18T10:06:43Z</time>
      </trkpt>
      <trkpt lat="43.21643" lon="5.4858">
        <ele>169.5</ele>
        <time>2025-10-18T10:06:44Z</time>
      </trkpt>
      <trkpt lat="43.21644" lon="5.48578">
        <ele>169.5</ele>
        <time>2025-10-18T10:06:45Z</time>
      </trkpt>
      <trkpt lat="43.21644" lon="5.48576">
        <ele>169.7</ele>
        <time>2025-10-18T10:06:46Z</time>
      </trkpt>
      <trkpt lat="43.21644" lon="5.48575">
        <ele>169.8</ele>
        <time>2025-10-18T10:06:47Z</time>
      </trkpt>
      <trkpt lat="43.21644" lon="5.48574">
        <ele>169.9</ele>
        <time>2025-10-18T10:06:48Z</time>
      </trkpt>
      <trkpt lat="43.21645" lon="5.48572">
        <ele>169.9</ele>
        <time>2025-10-18T10:06:49Z</time>
      </trkpt>
      <trkpt lat="43.21645" lon="5.48571">
        <ele>170</ele>
        <time>2025-10-18T10:06:50Z</time>
      </trkpt>
      <trkpt lat="43.21646" lon="5.4857">
        <ele>170.1</ele>
        <time>2025-10-18T10:06:51Z</time>
      </trkpt>
      <trkpt lat="43.21646" lon="5.48569">
        <ele>170.2</ele>
        <time>2025-10-18T10:06:52Z</time>
      </trkpt>
      <trkpt lat="43.21647" lon="5.48567">
        <ele>170.3</ele>
        <time>2025-10-18T10:06:53Z</time>
      </trkpt>
      <trkpt lat="43.21648" lon="5.48566">
        <ele>170.4</ele>
        <time>2025-10-18T10:06:54Z</time>
      </trkpt>
      <trkpt lat="43.21649" lon="5.48565">
        <ele>170.5</ele>
        <time>2025-10-18T10:06:55Z</time>
      </trkpt>
      <trkpt lat="43.2165" lon="5.48563">
        <ele>170.6</ele>
        <time>2025-10-18T10:06:56Z</time>
      </trkpt>
      <trkpt lat="43.21651" lon="5.48561">
        <ele>170.6</ele>
        <time>2025-10-18T10:06:57Z</time>
      </trkpt>
      <trkpt lat="43.21652" lon="5.4856">
        <ele>170.7</ele>
        <time>2025-10-18T10:06:58Z</time>
      </trkpt>
      <trkpt lat="43.21652" lon="5.48558">
        <ele>170.7</ele>
        <time>2025-10-18T10:06:59Z</time>
      </trkpt>
      <trkpt lat="43.21652" lon="5.48556">
        <ele>170.6</ele>
        <time>2025-10-18T10:07:00Z</time>
      </trkpt>
      <trkpt lat="43.21653" lon="5.48555">
        <ele>170.7</ele>
        <time>2025-10-18T10:07:01Z</time>
      </trkpt>
      <trkpt lat="43.21654" lon="5.48554">
        <ele>170.8</ele>
        <time>2025-10-18T10:07:02Z</time>
      </trkpt>
      <trkpt lat="43.21654" lon="5.48553">
        <ele>170.9</ele>
        <time>2025-10-18T10:07:03Z</time>
      </trkpt>
      <trkpt lat="43.21654" lon="5.48552">
        <ele>171</ele>
        <time>2025-10-18T10:07:04Z</time>
      </trkpt>
      <trkpt lat="43.21654" lon="5.48551">
        <ele>170.9</ele>
        <time>2025-10-18T10:07:05Z</time>
      </trkpt>
      <trkpt lat="43.21654" lon="5.4855">
        <ele>170.8</ele>
        <time>2025-10-18T10:07:06Z</time>
      </trkpt>
      <trkpt lat="43.21654" lon="5.48549">
        <ele>170.8</ele>
        <time>2025-10-18T10:07:07Z</time>
      </trkpt>
      <trkpt lat="43.21654" lon="5.48547">
        <ele>170.9</ele>
        <time>2025-10-18T10:07:08Z</time>
      </trkpt>
      <trkpt lat="43.21654" lon="5.48546">
        <ele>170.9</ele>
        <time>2025-10-18T10:07:09Z</time>
      </trkpt>
      <trkpt lat="43.21654" lon="5.48545">
        <ele>170.9</ele>
        <time>2025-10-18T10:07:10Z</time>
      </trkpt>
      <trkpt lat="43.21654" lon="5.48543">
        <ele>170.9</ele>
        <time>2025-10-18T10:07:11Z</time>
      </trkpt>
      <trkpt lat="43.21654" lon="5.48542">
        <ele>170.9</ele>
        <time>2025-10-18T10:07:12Z</time>
      </trkpt>
      <trkpt lat="43.21654" lon="5.4854">
        <ele>171</ele>
        <time>2025-10-18T10:07:13Z</time>
      </trkpt>
      <trkpt lat="43.21654" lon="5.48539">
        <ele>171</ele>
        <time>2025-10-18T10:07:14Z</time>
      </trkpt>
      <trkpt lat="43.21654" lon="5.48538">
        <ele>171</ele>
        <time>2025-10-18T10:07:15Z</time>
      </trkpt>
      <trkpt lat="43.21654" lon="5.48536">
        <ele>171</ele>
        <time>2025-10-18T10:07:16Z</time>
      </trkpt>
      <trkpt lat="43.21654" lon="5.48535">
        <ele>171</ele>
        <time>2025-10-18T10:07:17Z</time>
      </trkpt>
      <trkpt lat="43.21654" lon="5.48534">
        <ele>171.1</ele>
        <time>2025-10-18T10:07:18Z</time>
      </trkpt>
      <trkpt lat="43.21654" lon="5.48532">
        <ele>171.2</ele>
        <time>2025-10-18T10:07:19Z</time>
      </trkpt>
      <trkpt lat="43.21654" lon="5.48531">
        <ele>171.2</ele>
        <time>2025-10-18T10:07:20Z</time>
      </trkpt>
      <trkpt lat="43.21653" lon="5.4853">
        <ele>171.2</ele>
        <time>2025-10-18T10:07:21Z</time>
      </trkpt>
      <trkpt lat="43.21653" lon="5.48528">
        <ele>171.3</ele>
        <time>2025-10-18T10:07:22Z</time>
      </trkpt>
      <trkpt lat="43.21652" lon="5.48527">
        <ele>171.3</ele>
        <time>2025-10-18T10:07:23Z</time>
      </trkpt>
      <trkpt lat="43.21652" lon="5.48526">
        <ele>171.4</ele>
        <time>2025-10-18T10:07:24Z</time>
      </trkpt>
      <trkpt lat="43.21651" lon="5.48524">
        <ele>171.4</ele>
        <time>2025-10-18T10:07:25Z</time>
      </trkpt>
      <trkpt lat="43.2165" lon="5.48523">
        <ele>171.5</ele>
        <time>2025-10-18T10:07:26Z</time>
      </trkpt>
      <trkpt lat="43.2165" lon="5.48522">
        <ele>171.5</ele>
        <time>2025-10-18T10:07:27Z</time>
      </trkpt>
      <trkpt lat="43.21649" lon="5.48521">
        <ele>171.6</ele>
        <time>2025-10-18T10:07:28Z</time>
      </trkpt>
      <trkpt lat="43.21648" lon="5.4852">
        <ele>171.6</ele>
        <time>2025-10-18T10:07:29Z</time>
      </trkpt>
      <trkpt lat="43.21647" lon="5.48518">
        <ele>171.7</ele>
        <time>2025-10-18T10:07:30Z</time>
      </trkpt>
      <trkpt lat="43.21647" lon="5.48517">
        <ele>171.8</ele>
        <time>2025-10-18T10:07:31Z</time>
      </trkpt>
      <trkpt lat="43.21646" lon="5.48515">
        <ele>171.8</ele>
        <time>2025-10-18T10:07:32Z</time>
      </trkpt>
      <trkpt lat="43.21646" lon="5.48514">
        <ele>171.8</ele>
        <time>2025-10-18T10:07:33Z</time>
      </trkpt>
      <trkpt lat="43.21645" lon="5.48513">
        <ele>171.9</ele>
        <time>2025-10-18T10:07:34Z</time>
      </trkpt>
      <trkpt lat="43.21645" lon="5.48512">
        <ele>171.9</ele>
        <time>2025-10-18T10:07:35Z</time>
      </trkpt>
      <trkpt lat="43.21644" lon="5.48511">
        <ele>172</ele>
        <time>2025-10-18T10:07:36Z</time>
      </trkpt>
      <trkpt lat="43.21643" lon="5.4851">
        <ele>172</ele>
        <time>2025-10-18T10:07:37Z</time>
      </trkpt>
      <trkpt lat="43.21642" lon="5.48509">
        <ele>172.1</ele>
        <time>2025-10-18T10:07:38Z</time>
      </trkpt>
      <trkpt lat="43.21642" lon="5.48507">
        <ele>172.1</ele>
        <time>2025-10-18T10:07:39Z</time>
      </trkpt>
      <trkpt lat="43.21642" lon="5.48506">
        <ele>172.1</ele>
        <time>2025-10-18T10:07:40Z</time>
      </trkpt>
      <trkpt lat="43.21641" lon="5.48505">
        <ele>172.1</ele>
        <time>2025-10-18T10:07:41Z</time>
      </trkpt>
      <trkpt lat="43.21641" lon="5.48503">
        <ele>172.2</ele>
        <time>2025-10-18T10:07:42Z</time>
      </trkpt>
      <trkpt lat="43.2164" lon="5.48502">
        <ele>172.3</ele>
        <time>2025-10-18T10:07:43Z</time>
      </trkpt>
      <trkpt lat="43.2164" lon="5.485">
        <ele>172.4</ele>
        <time>2025-10-18T10:07:44Z</time>
      </trkpt>
      <trkpt lat="43.21639" lon="5.48499">
        <ele>172.4</ele>
        <time>2025-10-18T10:07:45Z</time>
      </trkpt>
      <trkpt lat="43.21639" lon="5.48497">
        <ele>172.4</ele>
        <time>2025-10-18T10:07:46Z</time>
      </trkpt>
      <trkpt lat="43.21639" lon="5.48496">
        <ele>172.6</ele>
        <time>2025-10-18T10:07:47Z</time>
      </trkpt>
      <trkpt lat="43.21638" lon="5.48495">
        <ele>172.6</ele>
        <time>2025-10-18T10:07:48Z</time>
      </trkpt>
      <trkpt lat="43.21638" lon="5.48494">
        <ele>172.7</ele>
        <time>2025-10-18T10:07:49Z</time>
      </trkpt>
      <trkpt lat="43.21638" lon="5.48493">
        <ele>172.7</ele>
        <time>2025-10-18T10:07:50Z</time>
      </trkpt>
      <trkpt lat="43.21638" lon="5.48491">
        <ele>172.7</ele>
        <time>2025-10-18T10:07:51Z</time>
      </trkpt>
      <trkpt lat="43.21638" lon="5.4849">
        <ele>172.7</ele>
        <time>2025-10-18T10:07:52Z</time>
      </trkpt>
      <trkpt lat="43.21638" lon="5.48488">
        <ele>172.8</ele>
        <time>2025-10-18T10:07:53Z</time>
      </trkpt>
      <trkpt lat="43.21639" lon="5.48487">
        <ele>172.8</ele>
        <time>2025-10-18T10:07:54Z</time>
      </trkpt>
      <trkpt lat="43.21639" lon="5.48486">
        <ele>172.9</ele>
        <time>2025-10-18T10:07:55Z</time>
      </trkpt>
      <trkpt lat="43.21639" lon="5.48484">
        <ele>172.9</ele>
        <time>2025-10-18T10:07:56Z</time>
      </trkpt>
      <trkpt lat="43.2164" lon="5.48483">
        <ele>173</ele>
        <time>2025-10-18T10:07:57Z</time>
      </trkpt>
      <trkpt lat="43.21641" lon="5.48482">
        <ele>173.1</ele>
        <time>2025-10-18T10:07:58Z</time>
      </trkpt>
      <trkpt lat="43.21642" lon="5.48481">
        <ele>173.1</ele>
        <time>2025-10-18T10:07:59Z</time>
      </trkpt>
      <trkpt lat="43.21641" lon="5.4848">
        <ele>173.2</ele>
        <time>2025-10-18T10:08:00Z</time>
      </trkpt>
      <trkpt lat="43.21642" lon="5.48479">
        <ele>173.3</ele>
        <time>2025-10-18T10:08:01Z</time>
      </trkpt>
      <trkpt lat="43.21642" lon="5.48477">
        <ele>173.4</ele>
        <time>2025-10-18T10:08:02Z</time>
      </trkpt>
      <trkpt lat="43.21643" lon="5.48476">
        <ele>173.4</ele>
        <time>2025-10-18T10:08:03Z</time>
      </trkpt>
      <trkpt lat="43.21643" lon="5.48475">
        <ele>173.4</ele>
        <time>2025-10-18T10:08:04Z</time>
      </trkpt>
      <trkpt lat="43.21643" lon="5.48474">
        <ele>173.4</ele>
        <time>2025-10-18T10:08:05Z</time>
      </trkpt>
      <trkpt lat="43.21644" lon="5.48472">
        <ele>173.4</ele>
        <time>2025-10-18T10:08:06Z</time>
      </trkpt>
      <trkpt lat="43.21645" lon="5.48471">
        <ele>173.4</ele>
        <time>2025-10-18T10:08:07Z</time>
      </trkpt>
      <trkpt lat="43.21646" lon="5.4847">
        <ele>173.5</ele>
        <time>2025-10-18T10:08:08Z</time>
      </trkpt>
      <trkpt lat="43.21646" lon="5.48468">
        <ele>173.5</ele>
        <time>2025-10-18T10:08:09Z</time>
      </trkpt>
      <trkpt lat="43.21646" lon="5.48467">
        <ele>173.6</ele>
        <time>2025-10-18T10:08:10Z</time>
      </trkpt>
      <trkpt lat="43.21647" lon="5.48466">
        <ele>173.7</ele>
        <time>2025-10-18T10:08:11Z</time>
      </trkpt>
      <trkpt lat="43.21647" lon="5.48465">
        <ele>173.8</ele>
        <time>2025-10-18T10:08:12Z</time>
      </trkpt>
      <trkpt lat="43.21647" lon="5.48463">
        <ele>173.8</ele>
        <time>2025-10-18T10:08:13Z</time>
      </trkpt>
      <trkpt lat="43.21648" lon="5.48462">
        <ele>174</ele>
        <time>2025-10-18T10:08:14Z</time>
      </trkpt>
      <trkpt lat="43.21648" lon="5.48461">
        <ele>174</ele>
        <time>2025-10-18T10:08:15Z</time>
      </trkpt>
      <trkpt lat="43.21648" lon="5.4846">
        <ele>174.2</ele>
        <time>2025-10-18T10:08:16Z</time>
      </trkpt>
      <trkpt lat="43.21648" lon="5.48459">
        <ele>174.3</ele>
        <time>2025-10-18T10:08:17Z</time>
      </trkpt>
      <trkpt lat="43.21649" lon="5.48457">
        <ele>174.4</ele>
        <time>2025-10-18T10:08:18Z</time>
      </trkpt>
      <trkpt lat="43.21649" lon="5.48456">
        <ele>174.5</ele>
        <time>2025-10-18T10:08:19Z</time>
      </trkpt>
      <trkpt lat="43.2165" lon="5.48454">
        <ele>174.6</ele>
        <time>2025-10-18T10:08:20Z</time>
      </trkpt>
      <trkpt lat="43.2165" lon="5.48453">
        <ele>174.8</ele>
        <time>2025-10-18T10:08:21Z</time>
      </trkpt>
      <trkpt lat="43.21651" lon="5.48452">
        <ele>174.8</ele>
        <time>2025-10-18T10:08:22Z</time>
      </trkpt>
      <trkpt lat="43.21651" lon="5.4845">
        <ele>174.9</ele>
        <time>2025-10-18T10:08:23Z</time>
      </trkpt>
      <trkpt lat="43.21652" lon="5.48449">
        <ele>174.9</ele>
        <time>2025-10-18T10:08:24Z</time>
      </trkpt>
      <trkpt lat="43.21652" lon="5.48448">
        <ele>175</ele>
        <time>2025-10-18T10:08:25Z</time>
      </trkpt>
      <trkpt lat="43.21653" lon="5.48447">
        <ele>175</ele>
        <time>2025-10-18T10:08:26Z</time>
      </trkpt>
      <trkpt lat="43.21654" lon="5.48446">
        <ele>175</ele>
        <time>2025-10-18T10:08:27Z</time>
      </trkpt>
      <trkpt lat="43.21654" lon="5.48445">
        <ele>175</ele>
        <time>2025-10-18T10:08:28Z</time>
      </trkpt>
      <trkpt lat="43.21655" lon="5.48444">
        <ele>175.1</ele>
        <time>2025-10-18T10:08:29Z</time>
      </trkpt>
      <trkpt lat="43.21655" lon="5.48443">
        <ele>175.1</ele>
        <time>2025-10-18T10:08:30Z</time>
      </trkpt>
      <trkpt lat="43.21656" lon="5.48442">
        <ele>175.2</ele>
        <time>2025-10-18T10:08:31Z</time>
      </trkpt>
      <trkpt lat="43.21656" lon="5.48441">
        <ele>175.3</ele>
        <time>2025-10-18T10:08:32Z</time>
      </trkpt>
      <trkpt lat="43.21657" lon="5.4844">
        <ele>175.3</ele>
        <time>2025-10-18T10:08:33Z</time>
      </trkpt>
      <trkpt lat="43.21658" lon="5.48438">
        <ele>175.4</ele>
        <time>2025-10-18T10:08:34Z</time>
      </trkpt>
      <trkpt lat="43.21658" lon="5.48437">
        <ele>175.5</ele>
        <time>2025-10-18T10:08:35Z</time>
      </trkpt>
      <trkpt lat="43.21659" lon="5.48436">
        <ele>175.5</ele>
        <time>2025-10-18T10:08:36Z</time>
      </trkpt>
      <trkpt lat="43.21659" lon="5.48435">
        <ele>175.5</ele>
        <time>2025-10-18T10:08:37Z</time>
      </trkpt>
      <trkpt lat="43.2166" lon="5.48434">
        <ele>175.6</ele>
        <time>2025-10-18T10:08:38Z</time>
      </trkpt>
      <trkpt lat="43.21661" lon="5.48433">
        <ele>175.7</ele>
        <time>2025-10-18T10:08:39Z</time>
      </trkpt>
      <trkpt lat="43.21661" lon="5.48432">
        <ele>175.9</ele>
        <time>2025-10-18T10:08:40Z</time>
      </trkpt>
      <trkpt lat="43.21662" lon="5.48431">
        <ele>175.9</ele>
        <time>2025-10-18T10:08:41Z</time>
      </trkpt>
      <trkpt lat="43.21663" lon="5.4843">
        <ele>176</ele>
        <time>2025-10-18T10:08:42Z</time>
      </trkpt>
      <trkpt lat="43.21664" lon="5.48429">
        <ele>176.2</ele>
        <time>2025-10-18T10:08:43Z</time>
      </trkpt>
      <trkpt lat="43.21665" lon="5.48429">
        <ele>176.4</ele>
        <time>2025-10-18T10:08:44Z</time>
      </trkpt>
      <trkpt lat="43.21664" lon="5.48428">
        <ele>176.5</ele>
        <time>2025-10-18T10:08:45Z</time>
      </trkpt>
      <trkpt lat="43.21665" lon="5.48427">
        <ele>176.6</ele>
        <time>2025-10-18T10:08:46Z</time>
      </trkpt>
      <trkpt lat="43.21665" lon="5.48426">
        <ele>176.7</ele>
        <time>2025-10-18T10:08:47Z</time>
      </trkpt>
      <trkpt lat="43.21665" lon="5.48425">
        <ele>176.8</ele>
        <time>2025-10-18T10:08:48Z</time>
      </trkpt>
      <trkpt lat="43.21665" lon="5.48424">
        <ele>176.8</ele>
        <time>2025-10-18T10:08:49Z</time>
      </trkpt>
      <trkpt lat="43.21666" lon="5.48423">
        <ele>176.9</ele>
        <time>2025-10-18T10:08:50Z</time>
      </trkpt>
      <trkpt lat="43.21667" lon="5.48421">
        <ele>177.1</ele>
        <time>2025-10-18T10:08:51Z</time>
      </trkpt>
      <trkpt lat="43.21668" lon="5.4842">
        <ele>177.3</ele>
        <time>2025-10-18T10:08:52Z</time>
      </trkpt>
      <trkpt lat="43.21668" lon="5.48419">
        <ele>177.4</ele>
        <time>2025-10-18T10:08:53Z</time>
      </trkpt>
      <trkpt lat="43.21669" lon="5.48418">
        <ele>177.3</ele>
        <time>2025-10-18T10:08:54Z</time>
      </trkpt>
      <trkpt lat="43.21669" lon="5.48417">
        <ele>177.4</ele>
        <time>2025-10-18T10:08:55Z</time>
      </trkpt>
      <trkpt lat="43.21668" lon="5.48416">
        <ele>177.4</ele>
        <time>2025-10-18T10:08:56Z</time>
      </trkpt>
      <trkpt lat="43.21667" lon="5.48415">
        <ele>177.5</ele>
        <time>2025-10-18T10:08:57Z</time>
      </trkpt>
      <trkpt lat="43.21666" lon="5.48413">
        <ele>177.5</ele>
        <time>2025-10-18T10:08:58Z</time>
      </trkpt>
      <trkpt lat="43.21666" lon="5.48411">
        <ele>177.6</ele>
        <time>2025-10-18T10:08:59Z</time>
      </trkpt>
      <trkpt lat="43.21666" lon="5.48411">
        <ele>177.8</ele>
        <time>2025-10-18T10:09:00Z</time>
      </trkpt>
      <trkpt lat="43.21665" lon="5.4841">
        <ele>177.9</ele>
        <time>2025-10-18T10:09:01Z</time>
      </trkpt>
      <trkpt lat="43.21666" lon="5.4841">
        <ele>177.9</ele>
        <time>2025-10-18T10:09:02Z</time>
      </trkpt>
      <trkpt lat="43.21666" lon="5.4841">
        <ele>177.9</ele>
        <time>2025-10-18T10:09:03Z</time>
      </trkpt>
      <trkpt lat="43.21667" lon="5.4841">
        <ele>177.9</ele>
        <time>2025-10-18T10:09:04Z</time>
      </trkpt>
      <trkpt lat="43.21667" lon="5.4841">
        <ele>178</ele>
        <time>2025-10-18T10:09:05Z</time>
      </trkpt>
      <trkpt lat="43.21665" lon="5.48409">
        <ele>178.1</ele>
        <time>2025-10-18T10:09:06Z</time>
      </trkpt>
      <trkpt lat="43.21665" lon="5.4841">
        <ele>178.2</ele>
        <time>2025-10-18T10:09:07Z</time>
      </trkpt>
      <trkpt lat="43.21665" lon="5.4841">
        <ele>178.3</ele>
        <time>2025-10-18T10:09:08Z</time>
      </trkpt>
      <trkpt lat="43.21664" lon="5.4841">
        <ele>178.3</ele>
        <time>2025-10-18T10:09:09Z</time>
      </trkpt>
      <trkpt lat="43.21663" lon="5.4841">
        <ele>178.3</ele>
        <time>2025-10-18T10:09:10Z</time>
      </trkpt>
      <trkpt lat="43.21663" lon="5.4841">
        <ele>178.3</ele>
        <time>2025-10-18T10:09:11Z</time>
      </trkpt>
      <trkpt lat="43.21663" lon="5.4841">
        <ele>178.4</ele>
        <time>2025-10-18T10:09:12Z</time>
      </trkpt>
      <trkpt lat="43.21663" lon="5.4841">
        <ele>178.4</ele>
        <time>2025-10-18T10:09:13Z</time>
      </trkpt>
      <trkpt lat="43.21663" lon="5.48411">
        <ele>178.5</ele>
        <time>2025-10-18T10:09:14Z</time>
      </trkpt>
      <trkpt lat="43.21663" lon="5.4841">
        <ele>178.5</ele>
        <time>2025-10-18T10:09:15Z</time>
      </trkpt>
      <trkpt lat="43.21663" lon="5.4841">
        <ele>178.5</ele>
        <time>2025-10-18T10:09:16Z</time>
      </trkpt>
      <trkpt lat="43.21662" lon="5.4841">
        <ele>178.5</ele>
        <time>2025-10-18T10:09:17Z</time>
      </trkpt>
      <trkpt lat="43.21662" lon="5.4841">
        <ele>178.6</ele>
        <time>2025-10-18T10:09:18Z</time>
      </trkpt>
      <trkpt lat="43.21662" lon="5.4841">
        <ele>178.6</ele>
        <time>2025-10-18T10:09:19Z</time>
      </trkpt>
      <trkpt lat="43.21661" lon="5.4841">
        <ele>178.5</ele>
        <time>2025-10-18T10:09:20Z</time>
      </trkpt>
      <trkpt lat="43.2166" lon="5.4841">
        <ele>178.5</ele>
        <time>2025-10-18T10:09:21Z</time>
      </trkpt>
      <trkpt lat="43.2166" lon="5.4841">
        <ele>178.6</ele>
        <time>2025-10-18T10:09:22Z</time>
      </trkpt>
      <trkpt lat="43.21659" lon="5.4841">
        <ele>178.6</ele>
        <time>2025-10-18T10:09:23Z</time>
      </trkpt>
      <trkpt lat="43.2166" lon="5.48409">
        <ele>178.6</ele>
        <time>2025-10-18T10:09:24Z</time>
      </trkpt>
      <trkpt lat="43.21659" lon="5.4841">
        <ele>178.7</ele>
        <time>2025-10-18T10:09:25Z</time>
      </trkpt>
      <trkpt lat="43.2166" lon="5.4841">
        <ele>178.8</ele>
        <time>2025-10-18T10:09:26Z</time>
      </trkpt>
      <trkpt lat="43.21661" lon="5.4841">
        <ele>178.8</ele>
        <time>2025-10-18T10:09:27Z</time>
      </trkpt>
      <trkpt lat="43.21661" lon="5.48409">
        <ele>178.8</ele>
        <time>2025-10-18T10:09:28Z</time>
      </trkpt>
      <trkpt lat="43.21661" lon="5.48409">
        <ele>178.8</ele>
        <time>2025-10-18T10:09:29Z</time>
      </trkpt>
      <trkpt lat="43.21661" lon="5.4841">
        <ele>178.8</ele>
        <time>2025-10-18T10:09:30Z</time>
      </trkpt>
      <trkpt lat="43.2166" lon="5.4841">
        <ele>178.8</ele>
        <time>2025-10-18T10:09:31Z</time>
      </trkpt>
      <trkpt lat="43.2166" lon="5.4841">
        <ele>178.8</ele>
        <time>2025-10-18T10:09:32Z</time>
      </trkpt>
      <trkpt lat="43.21659" lon="5.4841">
        <ele>178.8</ele>
        <time>2025-10-18T10:09:33Z</time>
      </trkpt>
      <trkpt lat="43.21658" lon="5.4841">
        <ele>178.8</ele>
        <time>2025-10-18T10:09:34Z</time>
      </trkpt>
      <trkpt lat="43.21658" lon="5.4841">
        <ele>178.9</ele>
        <time>2025-10-18T10:09:35Z</time>
      </trkpt>
      <trkpt lat="43.21659" lon="5.48409">
        <ele>179</ele>
        <time>2025-10-18T10:09:36Z</time>
      </trkpt>
      <trkpt lat="43.21659" lon="5.48409">
        <ele>179</ele>
        <time>2025-10-18T10:09:37Z</time>
      </trkpt>
      <trkpt lat="43.21659" lon="5.48408">
        <ele>179</ele>
        <time>2025-10-18T10:09:38Z</time>
      </trkpt>
      <trkpt lat="43.21658" lon="5.48407">
        <ele>178.9</ele>
        <time>2025-10-18T10:09:39Z</time>
      </trkpt>
      <trkpt lat="43.21658" lon="5.48406">
        <ele>178.8</ele>
        <time>2025-10-18T10:09:40Z</time>
      </trkpt>
      <trkpt lat="43.21657" lon="5.48406">
        <ele>178.7</ele>
        <time>2025-10-18T10:09:41Z</time>
      </trkpt>
      <trkpt lat="43.21656" lon="5.48405">
        <ele>178.6</ele>
        <time>2025-10-18T10:09:42Z</time>
      </trkpt>
      <trkpt lat="43.21657" lon="5.48404">
        <ele>178.6</ele>
        <time>2025-10-18T10:09:43Z</time>
      </trkpt>
      <trkpt lat="43.21656" lon="5.48403">
        <ele>178.6</ele>
        <time>2025-10-18T10:09:44Z</time>
      </trkpt>
      <trkpt lat="43.21656" lon="5.48402">
        <ele>178.5</ele>
        <time>2025-10-18T10:09:45Z</time>
      </trkpt>
      <trkpt lat="43.21656" lon="5.48402">
        <ele>178.4</ele>
        <time>2025-10-18T10:09:46Z</time>
      </trkpt>
      <trkpt lat="43.21655" lon="5.48402">
        <ele>178.3</ele>
        <time>2025-10-18T10:09:47Z</time>
      </trkpt>
      <trkpt lat="43.21654" lon="5.48402">
        <ele>178.4</ele>
        <time>2025-10-18T10:09:48Z</time>
      </trkpt>
      <trkpt lat="43.21653" lon="5.48402">
        <ele>178.3</ele>
        <time>2025-10-18T10:09:49Z</time>
      </trkpt>
      <trkpt lat="43.21653" lon="5.48401">
        <ele>178.3</ele>
        <time>2025-10-18T10:09:50Z</time>
      </trkpt>
      <trkpt lat="43.21653" lon="5.48401">
        <ele>178.3</ele>
        <time>2025-10-18T10:09:51Z</time>
      </trkpt>
      <trkpt lat="43.21653" lon="5.484">
        <ele>178.3</ele>
        <time>2025-10-18T10:09:52Z</time>
      </trkpt>
      <trkpt lat="43.21652" lon="5.48399">
        <ele>178.4</ele>
        <time>2025-10-18T10:09:53Z</time>
      </trkpt>
      <trkpt lat="43.21651" lon="5.48398">
        <ele>178.4</ele>
        <time>2025-10-18T10:09:54Z</time>
      </trkpt>
      <trkpt lat="43.21649" lon="5.48398">
        <ele>178.5</ele>
        <time>2025-10-18T10:09:55Z</time>
      </trkpt>
      <trkpt lat="43.21648" lon="5.48398">
        <ele>178.5</ele>
        <time>2025-10-18T10:09:56Z</time>
      </trkpt>
      <trkpt lat="43.21648" lon="5.48397">
        <ele>178.6</ele>
        <time>2025-10-18T10:09:57Z</time>
      </trkpt>
      <trkpt lat="43.21647" lon="5.48396">
        <ele>178.5</ele>
        <time>2025-10-18T10:09:58Z</time>
      </trkpt>
      <trkpt lat="43.21647" lon="5.48395">
        <ele>178.5</ele>
        <time>2025-10-18T10:09:59Z</time>
      </trkpt>
      <trkpt lat="43.21646" lon="5.48394">
        <ele>178.4</ele>
        <time>2025-10-18T10:10:00Z</time>
      </trkpt>
      <trkpt lat="43.21646" lon="5.48394">
        <ele>178.4</ele>
        <time>2025-10-18T10:10:01Z</time>
      </trkpt>
      <trkpt lat="43.21646" lon="5.48392">
        <ele>178.4</ele>
        <time>2025-10-18T10:10:02Z</time>
      </trkpt>
      <trkpt lat="43.21646" lon="5.48391">
        <ele>178.4</ele>
        <time>2025-10-18T10:10:03Z</time>
      </trkpt>
      <trkpt lat="43.21645" lon="5.4839">
        <ele>178.5</ele>
        <time>2025-10-18T10:10:04Z</time>
      </trkpt>
      <trkpt lat="43.21645" lon="5.48389">
        <ele>178.5</ele>
        <time>2025-10-18T10:10:05Z</time>
      </trkpt>
      <trkpt lat="43.21644" lon="5.48388">
        <ele>178.5</ele>
        <time>2025-10-18T10:10:06Z</time>
      </trkpt>
      <trkpt lat="43.21644" lon="5.48387">
        <ele>178.4</ele>
        <time>2025-10-18T10:10:07Z</time>
      </trkpt>
      <trkpt lat="43.21643" lon="5.48387">
        <ele>178.4</ele>
        <time>2025-10-18T10:10:08Z</time>
      </trkpt>
      <trkpt lat="43.21642" lon="5.48386">
        <ele>178.4</ele>
        <time>2025-10-18T10:10:09Z</time>
      </trkpt>
      <trkpt lat="43.21642" lon="5.48385">
        <ele>178.5</ele>
        <time>2025-10-18T10:10:10Z</time>
      </trkpt>
      <trkpt lat="43.21641" lon="5.48385">
        <ele>178.6</ele>
        <time>2025-10-18T10:10:11Z</time>
      </trkpt>
      <trkpt lat="43.21641" lon="5.48384">
        <ele>178.6</ele>
        <time>2025-10-18T10:10:12Z</time>
      </trkpt>
      <trkpt lat="43.2164" lon="5.48383">
        <ele>178.6</ele>
        <time>2025-10-18T10:10:13Z</time>
      </trkpt>
      <trkpt lat="43.2164" lon="5.48382">
        <ele>178.6</ele>
        <time>2025-10-18T10:10:14Z</time>
      </trkpt>
      <trkpt lat="43.21639" lon="5.48381">
        <ele>178.5</ele>
        <time>2025-10-18T10:10:15Z</time>
      </trkpt>
      <trkpt lat="43.21638" lon="5.48381">
        <ele>178.5</ele>
        <time>2025-10-18T10:10:16Z</time>
      </trkpt>
      <trkpt lat="43.21638" lon="5.4838">
        <ele>178.5</ele>
        <time>2025-10-18T10:10:17Z</time>
      </trkpt>
      <trkpt lat="43.21637" lon="5.4838">
        <ele>178.5</ele>
        <time>2025-10-18T10:10:18Z</time>
      </trkpt>
      <trkpt lat="43.21636" lon="5.4838">
        <ele>178.5</ele>
        <time>2025-10-18T10:10:19Z</time>
      </trkpt>
      <trkpt lat="43.21635" lon="5.48379">
        <ele>178.5</ele>
        <time>2025-10-18T10:10:20Z</time>
      </trkpt>
      <trkpt lat="43.21635" lon="5.48378">
        <ele>178.6</ele>
        <time>2025-10-18T10:10:21Z</time>
      </trkpt>
      <trkpt lat="43.21634" lon="5.48377">
        <ele>178.7</ele>
        <time>2025-10-18T10:10:22Z</time>
      </trkpt>
      <trkpt lat="43.21633" lon="5.48376">
        <ele>178.7</ele>
        <time>2025-10-18T10:10:23Z</time>
      </trkpt>
      <trkpt lat="43.21633" lon="5.48375">
        <ele>178.8</ele>
        <time>2025-10-18T10:10:24Z</time>
      </trkpt>
      <trkpt lat="43.21633" lon="5.48374">
        <ele>178.8</ele>
        <time>2025-10-18T10:10:25Z</time>
      </trkpt>
      <trkpt lat="43.21633" lon="5.48373">
        <ele>178.8</ele>
        <time>2025-10-18T10:10:26Z</time>
      </trkpt>
      <trkpt lat="43.21633" lon="5.48371">
        <ele>178.8</ele>
        <time>2025-10-18T10:10:27Z</time>
      </trkpt>
      <trkpt lat="43.21633" lon="5.4837">
        <ele>178.9</ele>
        <time>2025-10-18T10:10:28Z</time>
      </trkpt>
      <trkpt lat="43.21633" lon="5.48369">
        <ele>179</ele>
        <time>2025-10-18T10:10:29Z</time>
      </trkpt>
      <trkpt lat="43.21632" lon="5.48368">
        <ele>179.1</ele>
        <time>2025-10-18T10:10:30Z</time>
      </trkpt>
      <trkpt lat="43.21632" lon="5.48367">
        <ele>179.1</ele>
        <time>2025-10-18T10:10:31Z</time>
      </trkpt>
      <trkpt lat="43.21631" lon="5.48366">
        <ele>179.2</ele>
        <time>2025-10-18T10:10:32Z</time>
      </trkpt>
      <trkpt lat="43.21631" lon="5.48365">
        <ele>179.3</ele>
        <time>2025-10-18T10:10:33Z</time>
      </trkpt>
      <trkpt lat="43.2163" lon="5.48364">
        <ele>179.4</ele>
        <time>2025-10-18T10:10:34Z</time>
      </trkpt>
      <trkpt lat="43.21629" lon="5.48363">
        <ele>179.5</ele>
        <time>2025-10-18T10:10:35Z</time>
      </trkpt>
      <trkpt lat="43.21629" lon="5.48362">
        <ele>179.5</ele>
        <time>2025-10-18T10:10:36Z</time>
      </trkpt>
      <trkpt lat="43.21628" lon="5.48361">
        <ele>179.6</ele>
        <time>2025-10-18T10:10:37Z</time>
      </trkpt>
      <trkpt lat="43.21628" lon="5.4836">
        <ele>179.7</ele>
        <time>2025-10-18T10:10:38Z</time>
      </trkpt>
      <trkpt lat="43.21628" lon="5.48359">
        <ele>179.9</ele>
        <time>2025-10-18T10:10:39Z</time>
      </trkpt>
      <trkpt lat="43.21628" lon="5.48358">
        <ele>180</ele>
        <time>2025-10-18T10:10:40Z</time>
      </trkpt>
      <trkpt lat="43.21628" lon="5.48357">
        <ele>180.1</ele>
        <time>2025-10-18T10:10:41Z</time>
      </trkpt>
      <trkpt lat="43.21628" lon="5.48356">
        <ele>180.1</ele>
        <time>2025-10-18T10:10:42Z</time>
      </trkpt>
      <trkpt lat="43.21629" lon="5.48355">
        <ele>180.3</ele>
        <time>2025-10-18T10:10:43Z</time>
      </trkpt>
      <trkpt lat="43.21629" lon="5.48355">
        <ele>180.4</ele>
        <time>2025-10-18T10:10:44Z</time>
      </trkpt>
      <trkpt lat="43.21629" lon="5.48354">
        <ele>180.5</ele>
        <time>2025-10-18T10:10:45Z</time>
      </trkpt>
      <trkpt lat="43.21629" lon="5.48353">
        <ele>180.6</ele>
        <time>2025-10-18T10:10:46Z</time>
      </trkpt>
      <trkpt lat="43.2163" lon="5.48352">
        <ele>180.6</ele>
        <time>2025-10-18T10:10:47Z</time>
      </trkpt>
      <trkpt lat="43.2163" lon="5.48351">
        <ele>180.8</ele>
        <time>2025-10-18T10:10:48Z</time>
      </trkpt>
      <trkpt lat="43.2163" lon="5.4835">
        <ele>180.9</ele>
        <time>2025-10-18T10:10:49Z</time>
      </trkpt>
      <trkpt lat="43.21631" lon="5.48349">
        <ele>180.9</ele>
        <time>2025-10-18T10:10:50Z</time>
      </trkpt>
      <trkpt lat="43.21632" lon="5.48348">
        <ele>181.1</ele>
        <time>2025-10-18T10:10:51Z</time>
      </trkpt>
      <trkpt lat="43.21632" lon="5.48348">
        <ele>181.3</ele>
        <time>2025-10-18T10:10:52Z</time>
      </trkpt>
      <trkpt lat="43.21632" lon="5.48347">
        <ele>181.4</ele>
        <time>2025-10-18T10:10:53Z</time>
      </trkpt>
      <trkpt lat="43.21633" lon="5.48346">
        <ele>181.6</ele>
        <time>2025-10-18T10:10:54Z</time>
      </trkpt>
      <trkpt lat="43.21633" lon="5.48345">
        <ele>181.7</ele>
        <time>2025-10-18T10:10:55Z</time>
      </trkpt>
      <trkpt lat="43.21634" lon="5.48344">
        <ele>181.9</ele>
        <time>2025-10-18T10:10:56Z</time>
      </trkpt>
      <trkpt lat="43.21634" lon="5.48343">
        <ele>182.1</ele>
        <time>2025-10-18T10:10:57Z</time>
      </trkpt>
      <trkpt lat="43.21634" lon="5.48343">
        <ele>182.2</ele>
        <time>2025-10-18T10:10:58Z</time>
      </trkpt>
      <trkpt lat="43.21634" lon="5.48342">
        <ele>182.3</ele>
        <time>2025-10-18T10:10:59Z</time>
      </trkpt>
      <trkpt lat="43.21633" lon="5.48341">
        <ele>182.4</ele>
        <time>2025-10-18T10:11:00Z</time>
      </trkpt>
      <trkpt lat="43.21633" lon="5.4834">
        <ele>182.5</ele>
        <time>2025-10-18T10:11:01Z</time>
      </trkpt>
      <trkpt lat="43.21634" lon="5.48339">
        <ele>182.6</ele>
        <time>2025-10-18T10:11:02Z</time>
      </trkpt>
      <trkpt lat="43.21634" lon="5.48339">
        <ele>182.8</ele>
        <time>2025-10-18T10:11:03Z</time>
      </trkpt>
      <trkpt lat="43.21634" lon="5.48337">
        <ele>182.9</ele>
        <time>2025-10-18T10:11:04Z</time>
      </trkpt>
      <trkpt lat="43.21635" lon="5.48336">
        <ele>182.9</ele>
        <time>2025-10-18T10:11:05Z</time>
      </trkpt>
      <trkpt lat="43.21635" lon="5.48335">
        <ele>183.1</ele>
        <time>2025-10-18T10:11:06Z</time>
      </trkpt>
      <trkpt lat="43.21635" lon="5.48335">
        <ele>183.1</ele>
        <time>2025-10-18T10:11:07Z</time>
      </trkpt>
      <trkpt lat="43.21636" lon="5.48334">
        <ele>183.2</ele>
        <time>2025-10-18T10:11:08Z</time>
      </trkpt>
      <trkpt lat="43.21636" lon="5.48333">
        <ele>183.4</ele>
        <time>2025-10-18T10:11:09Z</time>
      </trkpt>
      <trkpt lat="43.21636" lon="5.48332">
        <ele>183.4</ele>
        <time>2025-10-18T10:11:10Z</time>
      </trkpt>
      <trkpt lat="43.21637" lon="5.48332">
        <ele>183.6</ele>
        <time>2025-10-18T10:11:11Z</time>
      </trkpt>
      <trkpt lat="43.21637" lon="5.48331">
        <ele>183.7</ele>
        <time>2025-10-18T10:11:12Z</time>
      </trkpt>
      <trkpt lat="43.21637" lon="5.48331">
        <ele>183.9</ele>
        <time>2025-10-18T10:11:13Z</time>
      </trkpt>
      <trkpt lat="43.21638" lon="5.48329">
        <ele>184</ele>
        <time>2025-10-18T10:11:14Z</time>
      </trkpt>
      <trkpt lat="43.21637" lon="5.48328">
        <ele>184</ele>
        <time>2025-10-18T10:11:15Z</time>
      </trkpt>
      <trkpt lat="43.21637" lon="5.48327">
        <ele>184</ele>
        <time>2025-10-18T10:11:16Z</time>
      </trkpt>
      <trkpt lat="43.21637" lon="5.48325">
        <ele>184.2</ele>
        <time>2025-10-18T10:11:17Z</time>
      </trkpt>
      <trkpt lat="43.21637" lon="5.48325">
        <ele>184.3</ele>
        <time>2025-10-18T10:11:18Z</time>
      </trkpt>
      <trkpt lat="43.21637" lon="5.48324">
        <ele>184.4</ele>
        <time>2025-10-18T10:11:19Z</time>
      </trkpt>
      <trkpt lat="43.21638" lon="5.48323">
        <ele>184.5</ele>
        <time>2025-10-18T10:11:20Z</time>
      </trkpt>
      <trkpt lat="43.21638" lon="5.48321">
        <ele>184.6</ele>
        <time>2025-10-18T10:11:21Z</time>
      </trkpt>
      <trkpt lat="43.21638" lon="5.4832">
        <ele>184.7</ele>
        <time>2025-10-18T10:11:22Z</time>
      </trkpt>
      <trkpt lat="43.21638" lon="5.48319">
        <ele>184.7</ele>
        <time>2025-10-18T10:11:23Z</time>
      </trkpt>
      <trkpt lat="43.21637" lon="5.48318">
        <ele>184.8</ele>
        <time>2025-10-18T10:11:24Z</time>
      </trkpt>
      <trkpt lat="43.21636" lon="5.48317">
        <ele>184.9</ele>
        <time>2025-10-18T10:11:25Z</time>
      </trkpt>
      <trkpt lat="43.21635" lon="5.48316">
        <ele>185</ele>
        <time>2025-10-18T10:11:26Z</time>
      </trkpt>
      <trkpt lat="43.21635" lon="5.48314">
        <ele>185.2</ele>
        <time>2025-10-18T10:11:27Z</time>
      </trkpt>
      <trkpt lat="43.21634" lon="5.48314">
        <ele>185.2</ele>
        <time>2025-10-18T10:11:28Z</time>
      </trkpt>
      <trkpt lat="43.21634" lon="5.48313">
        <ele>185.2</ele>
        <time>2025-10-18T10:11:29Z</time>
      </trkpt>
      <trkpt lat="43.21633" lon="5.48312">
        <ele>185.5</ele>
        <time>2025-10-18T10:11:30Z</time>
      </trkpt>
      <trkpt lat="43.21633" lon="5.48312">
        <ele>185.6</ele>
        <time>2025-10-18T10:11:31Z</time>
      </trkpt>
      <trkpt lat="43.21633" lon="5.4831">
        <ele>185.8</ele>
        <time>2025-10-18T10:11:32Z</time>
      </trkpt>
      <trkpt lat="43.21633" lon="5.48309">
        <ele>185.8</ele>
        <time>2025-10-18T10:11:33Z</time>
      </trkpt>
      <trkpt lat="43.21633" lon="5.48309">
        <ele>186</ele>
        <time>2025-10-18T10:11:34Z</time>
      </trkpt>
      <trkpt lat="43.21633" lon="5.48308">
        <ele>186.1</ele>
        <time>2025-10-18T10:11:35Z</time>
      </trkpt>
      <trkpt lat="43.21634" lon="5.48306">
        <ele>186.3</ele>
        <time>2025-10-18T10:11:36Z</time>
      </trkpt>
      <trkpt lat="43.21634" lon="5.48305">
        <ele>186.3</ele>
        <time>2025-10-18T10:11:37Z</time>
      </trkpt>
      <trkpt lat="43.21633" lon="5.48304">
        <ele>186.4</ele>
        <time>2025-10-18T10:11:38Z</time>
      </trkpt>
      <trkpt lat="43.21634" lon="5.48303">
        <ele>186.5</ele>
        <time>2025-10-18T10:11:39Z</time>
      </trkpt>
      <trkpt lat="43.21634" lon="5.48302">
        <ele>186.5</ele>
        <time>2025-10-18T10:11:40Z</time>
      </trkpt>
      <trkpt lat="43.21634" lon="5.48301">
        <ele>186.6</ele>
        <time>2025-10-18T10:11:41Z</time>
      </trkpt>
      <trkpt lat="43.21633" lon="5.483">
        <ele>186.7</ele>
        <time>2025-10-18T10:11:42Z</time>
      </trkpt>
      <trkpt lat="43.21632" lon="5.48299">
        <ele>186.7</ele>
        <time>2025-10-18T10:11:43Z</time>
      </trkpt>
      <trkpt lat="43.21632" lon="5.48298">
        <ele>186.7</ele>
        <time>2025-10-18T10:11:44Z</time>
      </trkpt>
      <trkpt lat="43.21632" lon="5.48297">
        <ele>186.8</ele>
        <time>2025-10-18T10:11:45Z</time>
      </trkpt>
      <trkpt lat="43.21632" lon="5.48296">
        <ele>186.9</ele>
        <time>2025-10-18T10:11:46Z</time>
      </trkpt>
      <trkpt lat="43.21633" lon="5.48295">
        <ele>186.9</ele>
        <time>2025-10-18T10:11:47Z</time>
      </trkpt>
      <trkpt lat="43.21633" lon="5.48294">
        <ele>187</ele>
        <time>2025-10-18T10:11:48Z</time>
      </trkpt>
      <trkpt lat="43.21634" lon="5.48294">
        <ele>187.1</ele>
        <time>2025-10-18T10:11:49Z</time>
      </trkpt>
      <trkpt lat="43.21634" lon="5.48293">
        <ele>187.2</ele>
        <time>2025-10-18T10:11:50Z</time>
      </trkpt>
      <trkpt lat="43.21635" lon="5.48291">
        <ele>187.3</ele>
        <time>2025-10-18T10:11:51Z</time>
      </trkpt>
      <trkpt lat="43.21636" lon="5.4829">
        <ele>187.4</ele>
        <time>2025-10-18T10:11:52Z</time>
      </trkpt>
      <trkpt lat="43.21637" lon="5.48289">
        <ele>187.5</ele>
        <time>2025-10-18T10:11:53Z</time>
      </trkpt>
      <trkpt lat="43.21637" lon="5.48288">
        <ele>187.6</ele>
        <time>2025-10-18T10:11:54Z</time>
      </trkpt>
      <trkpt lat="43.21637" lon="5.48286">
        <ele>187.7</ele>
        <time>2025-10-18T10:11:55Z</time>
      </trkpt>
      <trkpt lat="43.21637" lon="5.48285">
        <ele>187.8</ele>
        <time>2025-10-18T10:11:56Z</time>
      </trkpt>
      <trkpt lat="43.21638" lon="5.48284">
        <ele>187.9</ele>
        <time>2025-10-18T10:11:57Z</time>
      </trkpt>
      <trkpt lat="43.21639" lon="5.48283">
        <ele>188.1</ele>
        <time>2025-10-18T10:11:58Z</time>
      </trkpt>
      <trkpt lat="43.21639" lon="5.48282">
        <ele>188.3</ele>
        <time>2025-10-18T10:11:59Z</time>
      </trkpt>
      <trkpt lat="43.2164" lon="5.48281">
        <ele>188.3</ele>
        <time>2025-10-18T10:12:00Z</time>
      </trkpt>
      <trkpt lat="43.2164" lon="5.4828">
        <ele>188.5</ele>
        <time>2025-10-18T10:12:01Z</time>
      </trkpt>
      <trkpt lat="43.2164" lon="5.48279">
        <ele>188.6</ele>
        <time>2025-10-18T10:12:02Z</time>
      </trkpt>
      <trkpt lat="43.2164" lon="5.48277">
        <ele>188.7</ele>
        <time>2025-10-18T10:12:03Z</time>
      </trkpt>
      <trkpt lat="43.2164" lon="5.48276">
        <ele>188.8</ele>
        <time>2025-10-18T10:12:04Z</time>
      </trkpt>
      <trkpt lat="43.21641" lon="5.48275">
        <ele>188.8</ele>
        <time>2025-10-18T10:12:05Z</time>
      </trkpt>
      <trkpt lat="43.21642" lon="5.48274">
        <ele>188.8</ele>
        <time>2025-10-18T10:12:06Z</time>
      </trkpt>
      <trkpt lat="43.21642" lon="5.48273">
        <ele>188.8</ele>
        <time>2025-10-18T10:12:07Z</time>
      </trkpt>
      <trkpt lat="43.21643" lon="5.48272">
        <ele>189</ele>
        <time>2025-10-18T10:12:08Z</time>
      </trkpt>
      <trkpt lat="43.21643" lon="5.48271">
        <ele>189.1</ele>
        <time>2025-10-18T10:12:09Z</time>
      </trkpt>
      <trkpt lat="43.21643" lon="5.4827">
        <ele>189.2</ele>
        <time>2025-10-18T10:12:10Z</time>
      </trkpt>
      <trkpt lat="43.21643" lon="5.48269">
        <ele>189.3</ele>
        <time>2025-10-18T10:12:11Z</time>
      </trkpt>
      <trkpt lat="43.21643" lon="5.48268">
        <ele>189.4</ele>
        <time>2025-10-18T10:12:12Z</time>
      </trkpt>
      <trkpt lat="43.21644" lon="5.48266">
        <ele>189.5</ele>
        <time>2025-10-18T10:12:13Z</time>
      </trkpt>
      <trkpt lat="43.21644" lon="5.48265">
        <ele>189.5</ele>
        <time>2025-10-18T10:12:14Z</time>
      </trkpt>
      <trkpt lat="43.21644" lon="5.48264">
        <ele>189.5</ele>
        <time>2025-10-18T10:12:15Z</time>
      </trkpt>
      <trkpt lat="43.21644" lon="5.48264">
        <ele>189.6</ele>
        <time>2025-10-18T10:12:16Z</time>
      </trkpt>
      <trkpt lat="43.21645" lon="5.48263">
        <ele>189.6</ele>
        <time>2025-10-18T10:12:17Z</time>
      </trkpt>
      <trkpt lat="43.21644" lon="5.48261">
        <ele>189.5</ele>
        <time>2025-10-18T10:12:18Z</time>
      </trkpt>
      <trkpt lat="43.21645" lon="5.48261">
        <ele>189.5</ele>
        <time>2025-10-18T10:12:19Z</time>
      </trkpt>
      <trkpt lat="43.21644" lon="5.4826">
        <ele>189.5</ele>
        <time>2025-10-18T10:12:20Z</time>
      </trkpt>
      <trkpt lat="43.21644" lon="5.48259">
        <ele>189.6</ele>
        <time>2025-10-18T10:12:21Z</time>
      </trkpt>
      <trkpt lat="43.21644" lon="5.48258">
        <ele>189.7</ele>
        <time>2025-10-18T10:12:22Z</time>
      </trkpt>
      <trkpt lat="43.21643" lon="5.48257">
        <ele>189.7</ele>
        <time>2025-10-18T10:12:23Z</time>
      </trkpt>
      <trkpt lat="43.21643" lon="5.48256">
        <ele>189.9</ele>
        <time>2025-10-18T10:12:24Z</time>
      </trkpt>
      <trkpt lat="43.21643" lon="5.48255">
        <ele>190</ele>
        <time>2025-10-18T10:12:25Z</time>
      </trkpt>
      <trkpt lat="43.21643" lon="5.48254">
        <ele>190.1</ele>
        <time>2025-10-18T10:12:26Z</time>
      </trkpt>
      <trkpt lat="43.21643" lon="5.48253">
        <ele>190.1</ele>
        <time>2025-10-18T10:12:27Z</time>
      </trkpt>
      <trkpt lat="43.21643" lon="5.48251">
        <ele>190.2</ele>
        <time>2025-10-18T10:12:28Z</time>
      </trkpt>
      <trkpt lat="43.21644" lon="5.4825">
        <ele>190.2</ele>
        <time>2025-10-18T10:12:29Z</time>
      </trkpt>
      <trkpt lat="43.21643" lon="5.48249">
        <ele>190.3</ele>
        <time>2025-10-18T10:12:30Z</time>
      </trkpt>
      <trkpt lat="43.21643" lon="5.48247">
        <ele>190.3</ele>
        <time>2025-10-18T10:12:31Z</time>
      </trkpt>
      <trkpt lat="43.21643" lon="5.48247">
        <ele>190.4</ele>
        <time>2025-10-18T10:12:32Z</time>
      </trkpt>
      <trkpt lat="43.21644" lon="5.48246">
        <ele>190.4</ele>
        <time>2025-10-18T10:12:33Z</time>
      </trkpt>
      <trkpt lat="43.21643" lon="5.48245">
        <ele>190.5</ele>
        <time>2025-10-18T10:12:34Z</time>
      </trkpt>
      <trkpt lat="43.21643" lon="5.48245">
        <ele>190.5</ele>
        <time>2025-10-18T10:12:35Z</time>
      </trkpt>
      <trkpt lat="43.21643" lon="5.48244">
        <ele>190.5</ele>
        <time>2025-10-18T10:12:36Z</time>
      </trkpt>
      <trkpt lat="43.21643" lon="5.48244">
        <ele>190.6</ele>
        <time>2025-10-18T10:12:37Z</time>
      </trkpt>
      <trkpt lat="43.21643" lon="5.48244">
        <ele>190.5</ele>
        <time>2025-10-18T10:12:38Z</time>
      </trkpt>
      <trkpt lat="43.21643" lon="5.48244">
        <ele>190.5</ele>
        <time>2025-10-18T10:12:39Z</time>
      </trkpt>
      <trkpt lat="43.21643" lon="5.48243">
        <ele>190.5</ele>
        <time>2025-10-18T10:12:40Z</time>
      </trkpt>
      <trkpt lat="43.21643" lon="5.48243">
        <ele>190.5</ele>
        <time>2025-10-18T10:12:41Z</time>
      </trkpt>
      <trkpt lat="43.21642" lon="5.48243">
        <ele>190.6</ele>
        <time>2025-10-18T10:12:42Z</time>
      </trkpt>
      <trkpt lat="43.21643" lon="5.48242">
        <ele>190.6</ele>
        <time>2025-10-18T10:12:43Z</time>
      </trkpt>
      <trkpt lat="43.21643" lon="5.48242">
        <ele>190.6</ele>
        <time>2025-10-18T10:12:44Z</time>
      </trkpt>
      <trkpt lat="43.21643" lon="5.48242">
        <ele>190.7</ele>
        <time>2025-10-18T10:12:45Z</time>
      </trkpt>
      <trkpt lat="43.21643" lon="5.48242">
        <ele>190.7</ele>
        <time>2025-10-18T10:12:46Z</time>
      </trkpt>
      <trkpt lat="43.21643" lon="5.48242">
        <ele>190.8</ele>
        <time>2025-10-18T10:12:47Z</time>
      </trkpt>
      <trkpt lat="43.21643" lon="5.48242">
        <ele>190.9</ele>
        <time>2025-10-18T10:12:48Z</time>
      </trkpt>
      <trkpt lat="43.21643" lon="5.48241">
        <ele>191</ele>
        <time>2025-10-18T10:12:49Z</time>
      </trkpt>
      <trkpt lat="43.21643" lon="5.48241">
        <ele>191</ele>
        <time>2025-10-18T10:12:50Z</time>
      </trkpt>
      <trkpt lat="43.21644" lon="5.4824">
        <ele>191.1</ele>
        <time>2025-10-18T10:12:51Z</time>
      </trkpt>
      <trkpt lat="43.21644" lon="5.4824">
        <ele>191</ele>
        <time>2025-10-18T10:12:52Z</time>
      </trkpt>
      <trkpt lat="43.21644" lon="5.48239">
        <ele>191</ele>
        <time>2025-10-18T10:12:53Z</time>
      </trkpt>
      <trkpt lat="43.21644" lon="5.48239">
        <ele>191</ele>
        <time>2025-10-18T10:12:54Z</time>
      </trkpt>
      <trkpt lat="43.21644" lon="5.48239">
        <ele>191</ele>
        <time>2025-10-18T10:12:55Z</time>
      </trkpt>
      <trkpt lat="43.21643" lon="5.48239">
        <ele>191</ele>
        <time>2025-10-18T10:12:56Z</time>
      </trkpt>
      <trkpt lat="43.21644" lon="5.48238">
        <ele>191.1</ele>
        <time>2025-10-18T10:12:57Z</time>
      </trkpt>
      <trkpt lat="43.21644" lon="5.48238">
        <ele>191.1</ele>
        <time>2025-10-18T10:12:58Z</time>
      </trkpt>
      <trkpt lat="43.21645" lon="5.48237">
        <ele>191.1</ele>
        <time>2025-10-18T10:12:59Z</time>
      </trkpt>
      <trkpt lat="43.21644" lon="5.48237">
        <ele>191.1</ele>
        <time>2025-10-18T10:13:00Z</time>
      </trkpt>
      <trkpt lat="43.21645" lon="5.48237">
        <ele>191.2</ele>
        <time>2025-10-18T10:13:01Z</time>
      </trkpt>
      <trkpt lat="43.21645" lon="5.48237">
        <ele>191.3</ele>
        <time>2025-10-18T10:13:02Z</time>
      </trkpt>
      <trkpt lat="43.21644" lon="5.48237">
        <ele>191.4</ele>
        <time>2025-10-18T10:13:03Z</time>
      </trkpt>
      <trkpt lat="43.21644" lon="5.48237">
        <ele>191.5</ele>
        <time>2025-10-18T10:13:04Z</time>
      </trkpt>
      <trkpt lat="43.21644" lon="5.48236">
        <ele>191.6</ele>
        <time>2025-10-18T10:13:05Z</time>
      </trkpt>
      <trkpt lat="43.21644" lon="5.48236">
        <ele>191.6</ele>
        <time>2025-10-18T10:13:06Z</time>
      </trkpt>
      <trkpt lat="43.21644" lon="5.48236">
        <ele>191.7</ele>
        <time>2025-10-18T10:13:07Z</time>
      </trkpt>
      <trkpt lat="43.21644" lon="5.48236">
        <ele>191.6</ele>
        <time>2025-10-18T10:13:08Z</time>
      </trkpt>
      <trkpt lat="43.21643" lon="5.48236">
        <ele>191.6</ele>
        <time>2025-10-18T10:13:09Z</time>
      </trkpt>
      <trkpt lat="43.21643" lon="5.48236">
        <ele>191.6</ele>
        <time>2025-10-18T10:13:10Z</time>
      </trkpt>
      <trkpt lat="43.21643" lon="5.48236">
        <ele>191.6</ele>
        <time>2025-10-18T10:13:11Z</time>
      </trkpt>
      <trkpt lat="43.21643" lon="5.48236">
        <ele>191.6</ele>
        <time>2025-10-18T10:13:12Z</time>
      </trkpt>
      <trkpt lat="43.21642" lon="5.48236">
        <ele>191.6</ele>
        <time>2025-10-18T10:13:13Z</time>
      </trkpt>
      <trkpt lat="43.21642" lon="5.48236">
        <ele>191.5</ele>
        <time>2025-10-18T10:13:14Z</time>
      </trkpt>
      <trkpt lat="43.21642" lon="5.48236">
        <ele>191.5</ele>
        <time>2025-10-18T10:13:15Z</time>
      </trkpt>
      <trkpt lat="43.21642" lon="5.48236">
        <ele>191.6</ele>
        <time>2025-10-18T10:13:16Z</time>
      </trkpt>
      <trkpt lat="43.21642" lon="5.48236">
        <ele>191.6</ele>
        <time>2025-10-18T10:13:17Z</time>
      </trkpt>
      <trkpt lat="43.21642" lon="5.48236">
        <ele>191.6</ele>
        <time>2025-10-18T10:13:18Z</time>
      </trkpt>
      <trkpt lat="43.21641" lon="5.48236">
        <ele>191.6</ele>
        <time>2025-10-18T10:13:19Z</time>
      </trkpt>
      <trkpt lat="43.21642" lon="5.48236">
        <ele>191.6</ele>
        <time>2025-10-18T10:13:20Z</time>
      </trkpt>
      <trkpt lat="43.21641" lon="5.48235">
        <ele>191.5</ele>
        <time>2025-10-18T10:13:21Z</time>
      </trkpt>
      <trkpt lat="43.21641" lon="5.48235">
        <ele>191.5</ele>
        <time>2025-10-18T10:13:22Z</time>
      </trkpt>
      <trkpt lat="43.21641" lon="5.48235">
        <ele>191.5</ele>
        <time>2025-10-18T10:13:23Z</time>
      </trkpt>
      <trkpt lat="43.2164" lon="5.48236">
        <ele>191.6</ele>
        <time>2025-10-18T10:13:24Z</time>
      </trkpt>
      <trkpt lat="43.2164" lon="5.48236">
        <ele>191.6</ele>
        <time>2025-10-18T10:13:25Z</time>
      </trkpt>
      <trkpt lat="43.2164" lon="5.48236">
        <ele>191.6</ele>
        <time>2025-10-18T10:13:26Z</time>
      </trkpt>
      <trkpt lat="43.21639" lon="5.48235">
        <ele>191.7</ele>
        <time>2025-10-18T10:13:27Z</time>
      </trkpt>
      <trkpt lat="43.21639" lon="5.48235">
        <ele>191.7</ele>
        <time>2025-10-18T10:13:28Z</time>
      </trkpt>
      <trkpt lat="43.21639" lon="5.48235">
        <ele>191.8</ele>
        <time>2025-10-18T10:13:29Z</time>
      </trkpt>
      <trkpt lat="43.21638" lon="5.48234">
        <ele>191.9</ele>
        <time>2025-10-18T10:13:30Z</time>
      </trkpt>
      <trkpt lat="43.21638" lon="5.48234">
        <ele>192</ele>
        <time>2025-10-18T10:13:31Z</time>
      </trkpt>
      <trkpt lat="43.21638" lon="5.48234">
        <ele>192.2</ele>
        <time>2025-10-18T10:13:32Z</time>
      </trkpt>
      <trkpt lat="43.21637" lon="5.48233">
        <ele>192.4</ele>
        <time>2025-10-18T10:13:33Z</time>
      </trkpt>
      <trkpt lat="43.21637" lon="5.48233">
        <ele>192.5</ele>
        <time>2025-10-18T10:13:34Z</time>
      </trkpt>
      <trkpt lat="43.21636" lon="5.48232">
        <ele>192.6</ele>
        <time>2025-10-18T10:13:35Z</time>
      </trkpt>
      <trkpt lat="43.21636" lon="5.48231">
        <ele>192.7</ele>
        <time>2025-10-18T10:13:36Z</time>
      </trkpt>
      <trkpt lat="43.21636" lon="5.48231">
        <ele>192.8</ele>
        <time>2025-10-18T10:13:37Z</time>
      </trkpt>
      <trkpt lat="43.21635" lon="5.4823">
        <ele>193</ele>
        <time>2025-10-18T10:13:38Z</time>
      </trkpt>
      <trkpt lat="43.21635" lon="5.4823">
        <ele>193.2</ele>
        <time>2025-10-18T10:13:39Z</time>
      </trkpt>
      <trkpt lat="43.21634" lon="5.48229">
        <ele>193.2</ele>
        <time>2025-10-18T10:13:40Z</time>
      </trkpt>
      <trkpt lat="43.21634" lon="5.48229">
        <ele>193.3</ele>
        <time>2025-10-18T10:13:41Z</time>
      </trkpt>
      <trkpt lat="43.21633" lon="5.48228">
        <ele>193.5</ele>
        <time>2025-10-18T10:13:42Z</time>
      </trkpt>
      <trkpt lat="43.21633" lon="5.48228">
        <ele>193.7</ele>
        <time>2025-10-18T10:13:43Z</time>
      </trkpt>
      <trkpt lat="43.21632" lon="5.48228">
        <ele>193.9</ele>
        <time>2025-10-18T10:13:44Z</time>
      </trkpt>
      <trkpt lat="43.21632" lon="5.48228">
        <ele>194</ele>
        <time>2025-10-18T10:13:45Z</time>
      </trkpt>
      <trkpt lat="43.21632" lon="5.48227">
        <ele>194.2</ele>
        <time>2025-10-18T10:13:46Z</time>
      </trkpt>
      <trkpt lat="43.21631" lon="5.48227">
        <ele>194.3</ele>
        <time>2025-10-18T10:13:47Z</time>
      </trkpt>
      <trkpt lat="43.21631" lon="5.48226">
        <ele>194.5</ele>
        <time>2025-10-18T10:13:48Z</time>
      </trkpt>
      <trkpt lat="43.21631" lon="5.48225">
        <ele>194.7</ele>
        <time>2025-10-18T10:13:49Z</time>
      </trkpt>
      <trkpt lat="43.2163" lon="5.48225">
        <ele>194.8</ele>
        <time>2025-10-18T10:13:50Z</time>
      </trkpt>
      <trkpt lat="43.2163" lon="5.48224">
        <ele>194.9</ele>
        <time>2025-10-18T10:13:51Z</time>
      </trkpt>
      <trkpt lat="43.2163" lon="5.48224">
        <ele>195</ele>
        <time>2025-10-18T10:13:52Z</time>
      </trkpt>
      <trkpt lat="43.2163" lon="5.48224">
        <ele>195</ele>
        <time>2025-10-18T10:13:53Z</time>
      </trkpt>
      <trkpt lat="43.21629" lon="5.48223">
        <ele>195.1</ele>
        <time>2025-10-18T10:13:54Z</time>
      </trkpt>
      <trkpt lat="43.21628" lon="5.48222">
        <ele>195.3</ele>
        <time>2025-10-18T10:13:55Z</time>
      </trkpt>
      <trkpt lat="43.21628" lon="5.48222">
        <ele>195.4</ele>
        <time>2025-10-18T10:13:56Z</time>
      </trkpt>
      <trkpt lat="43.21628" lon="5.48222">
        <ele>195.6</ele>
        <time>2025-10-18T10:13:57Z</time>
      </trkpt>
      <trkpt lat="43.21627" lon="5.48222">
        <ele>195.7</ele>
        <time>2025-10-18T10:13:58Z</time>
      </trkpt>
      <trkpt lat="43.21627" lon="5.48221">
        <ele>195.8</ele>
        <time>2025-10-18T10:13:59Z</time>
      </trkpt>
      <trkpt lat="43.21627" lon="5.48221">
        <ele>195.9</ele>
        <time>2025-10-18T10:14:00Z</time>
      </trkpt>
      <trkpt lat="43.21626" lon="5.48221">
        <ele>196</ele>
        <time>2025-10-18T10:14:01Z</time>
      </trkpt>
      <trkpt lat="43.21626" lon="5.48221">
        <ele>196.2</ele>
        <time>2025-10-18T10:14:02Z</time>
      </trkpt>
      <trkpt lat="43.21626" lon="5.4822">
        <ele>196.3</ele>
        <time>2025-10-18T10:14:03Z</time>
      </trkpt>
      <trkpt lat="43.21626" lon="5.4822">
        <ele>196.4</ele>
        <time>2025-10-18T10:14:04Z</time>
      </trkpt>
      <trkpt lat="43.21625" lon="5.4822">
        <ele>196.6</ele>
        <time>2025-10-18T10:14:05Z</time>
      </trkpt>
      <trkpt lat="43.21625" lon="5.4822">
        <ele>196.7</ele>
        <time>2025-10-18T10:14:06Z</time>
      </trkpt>
      <trkpt lat="43.21624" lon="5.48219">
        <ele>196.8</ele>
        <time>2025-10-18T10:14:07Z</time>
      </trkpt>
      <trkpt lat="43.21624" lon="5.48218">
        <ele>197</ele>
        <time>2025-10-18T10:14:08Z</time>
      </trkpt>
      <trkpt lat="43.21624" lon="5.48218">
        <ele>197.2</ele>
        <time>2025-10-18T10:14:09Z</time>
      </trkpt>
      <trkpt lat="43.21623" lon="5.48218">
        <ele>197.3</ele>
        <time>2025-10-18T10:14:10Z</time>
      </trkpt>
      <trkpt lat="43.21622" lon="5.48217">
        <ele>197.6</ele>
        <time>2025-10-18T10:14:11Z</time>
      </trkpt>
      <trkpt lat="43.21622" lon="5.48216">
        <ele>197.9</ele>
        <time>2025-10-18T10:14:12Z</time>
      </trkpt>
      <trkpt lat="43.21622" lon="5.48216">
        <ele>198.1</ele>
        <time>2025-10-18T10:14:13Z</time>
      </trkpt>
      <trkpt lat="43.21621" lon="5.48215">
        <ele>198.3</ele>
        <time>2025-10-18T10:14:14Z</time>
      </trkpt>
      <trkpt lat="43.21621" lon="5.48215">
        <ele>198.5</ele>
        <time>2025-10-18T10:14:15Z</time>
      </trkpt>
      <trkpt lat="43.2162" lon="5.48215">
        <ele>198.7</ele>
        <time>2025-10-18T10:14:16Z</time>
      </trkpt>
      <trkpt lat="43.2162" lon="5.48214">
        <ele>198.8</ele>
        <time>2025-10-18T10:14:17Z</time>
      </trkpt>
      <trkpt lat="43.2162" lon="5.48214">
        <ele>199</ele>
        <time>2025-10-18T10:14:18Z</time>
      </trkpt>
      <trkpt lat="43.21619" lon="5.48213">
        <ele>199.2</ele>
        <time>2025-10-18T10:14:19Z</time>
      </trkpt>
      <trkpt lat="43.21619" lon="5.48213">
        <ele>199.4</ele>
        <time>2025-10-18T10:14:20Z</time>
      </trkpt>
      <trkpt lat="43.21619" lon="5.48213">
        <ele>199.6</ele>
        <time>2025-10-18T10:14:21Z</time>
      </trkpt>
      <trkpt lat="43.21618" lon="5.48212">
        <ele>199.8</ele>
        <time>2025-10-18T10:14:22Z</time>
      </trkpt>
      <trkpt lat="43.21617" lon="5.48211">
        <ele>199.9</ele>
        <time>2025-10-18T10:14:23Z</time>
      </trkpt>
      <trkpt lat="43.21617" lon="5.48211">
        <ele>200</ele>
        <time>2025-10-18T10:14:24Z</time>
      </trkpt>
      <trkpt lat="43.21617" lon="5.48211">
        <ele>200.1</ele>
        <time>2025-10-18T10:14:25Z</time>
      </trkpt>
      <trkpt lat="43.21616" lon="5.4821">
        <ele>200.2</ele>
        <time>2025-10-18T10:14:26Z</time>
      </trkpt>
      <trkpt lat="43.21616" lon="5.48209">
        <ele>200.4</ele>
        <time>2025-10-18T10:14:27Z</time>
      </trkpt>
      <trkpt lat="43.21616" lon="5.48209">
        <ele>200.6</ele>
        <time>2025-10-18T10:14:28Z</time>
      </trkpt>
      <trkpt lat="43.21615" lon="5.48208">
        <ele>200.7</ele>
        <time>2025-10-18T10:14:29Z</time>
      </trkpt>
      <trkpt lat="43.21614" lon="5.48208">
        <ele>200.9</ele>
        <time>2025-10-18T10:14:30Z</time>
      </trkpt>
      <trkpt lat="43.21613" lon="5.48208">
        <ele>201</ele>
        <time>2025-10-18T10:14:31Z</time>
      </trkpt>
      <trkpt lat="43.21613" lon="5.48207">
        <ele>201</ele>
        <time>2025-10-18T10:14:32Z</time>
      </trkpt>
      <trkpt lat="43.21613" lon="5.48207">
        <ele>201.2</ele>
        <time>2025-10-18T10:14:33Z</time>
      </trkpt>
      <trkpt lat="43.21612" lon="5.48206">
        <ele>201.4</ele>
        <time>2025-10-18T10:14:34Z</time>
      </trkpt>
      <trkpt lat="43.21612" lon="5.48206">
        <ele>201.6</ele>
        <time>2025-10-18T10:14:35Z</time>
      </trkpt>
      <trkpt lat="43.21611" lon="5.48205">
        <ele>201.7</ele>
        <time>2025-10-18T10:14:36Z</time>
      </trkpt>
      <trkpt lat="43.21611" lon="5.48205">
        <ele>201.7</ele>
        <time>2025-10-18T10:14:37Z</time>
      </trkpt>
      <trkpt lat="43.2161" lon="5.48204">
        <ele>201.8</ele>
        <time>2025-10-18T10:14:38Z</time>
      </trkpt>
      <trkpt lat="43.2161" lon="5.48204">
        <ele>201.9</ele>
        <time>2025-10-18T10:14:39Z</time>
      </trkpt>
      <trkpt lat="43.21609" lon="5.48204">
        <ele>202.1</ele>
        <time>2025-10-18T10:14:40Z</time>
      </trkpt>
      <trkpt lat="43.21608" lon="5.48204">
        <ele>202.2</ele>
        <time>2025-10-18T10:14:41Z</time>
      </trkpt>
      <trkpt lat="43.21608" lon="5.48205">
        <ele>202.3</ele>
        <time>2025-10-18T10:14:42Z</time>
      </trkpt>
      <trkpt lat="43.21607" lon="5.48205">
        <ele>202.3</ele>
        <time>2025-10-18T10:14:43Z</time>
      </trkpt>
      <trkpt lat="43.21606" lon="5.48205">
        <ele>202.4</ele>
        <time>2025-10-18T10:14:44Z</time>
      </trkpt>
      <trkpt lat="43.21606" lon="5.48205">
        <ele>202.6</ele>
        <time>2025-10-18T10:14:45Z</time>
      </trkpt>
      <trkpt lat="43.21605" lon="5.48205">
        <ele>202.7</ele>
        <time>2025-10-18T10:14:46Z</time>
      </trkpt>
      <trkpt lat="43.21605" lon="5.48206">
        <ele>202.8</ele>
        <time>2025-10-18T10:14:47Z</time>
      </trkpt>
      <trkpt lat="43.21604" lon="5.48206">
        <ele>202.9</ele>
        <time>2025-10-18T10:14:48Z</time>
      </trkpt>
      <trkpt lat="43.21604" lon="5.48207">
        <ele>203.1</ele>
        <time>2025-10-18T10:14:49Z</time>
      </trkpt>
      <trkpt lat="43.21603" lon="5.48207">
        <ele>203.2</ele>
        <time>2025-10-18T10:14:50Z</time>
      </trkpt>
      <trkpt lat="43.21603" lon="5.48208">
        <ele>203.4</ele>
        <time>2025-10-18T10:14:51Z</time>
      </trkpt>
      <trkpt lat="43.21602" lon="5.48209">
        <ele>203.6</ele>
        <time>2025-10-18T10:14:52Z</time>
      </trkpt>
      <trkpt lat="43.21602" lon="5.4821">
        <ele>203.7</ele>
        <time>2025-10-18T10:14:53Z</time>
      </trkpt>
      <trkpt lat="43.21602" lon="5.48211">
        <ele>204</ele>
        <time>2025-10-18T10:14:54Z</time>
      </trkpt>
      <trkpt lat="43.21602" lon="5.48211">
        <ele>204.1</ele>
        <time>2025-10-18T10:14:55Z</time>
      </trkpt>
      <trkpt lat="43.21601" lon="5.48212">
        <ele>204.3</ele>
        <time>2025-10-18T10:14:56Z</time>
      </trkpt>
      <trkpt lat="43.21601" lon="5.48212">
        <ele>204.5</ele>
        <time>2025-10-18T10:14:57Z</time>
      </trkpt>
      <trkpt lat="43.21601" lon="5.48211">
        <ele>204.7</ele>
        <time>2025-10-18T10:14:58Z</time>
      </trkpt>
      <trkpt lat="43.21601" lon="5.48212">
        <ele>204.9</ele>
        <time>2025-10-18T10:14:59Z</time>
      </trkpt>
      <trkpt lat="43.216" lon="5.48212">
        <ele>205.1</ele>
        <time>2025-10-18T10:15:00Z</time>
      </trkpt>
      <trkpt lat="43.216" lon="5.48212">
        <ele>205.3</ele>
        <time>2025-10-18T10:15:01Z</time>
      </trkpt>
      <trkpt lat="43.216" lon="5.48212">
        <ele>205.4</ele>
        <time>2025-10-18T10:15:02Z</time>
      </trkpt>
      <trkpt lat="43.216" lon="5.48212">
        <ele>205.5</ele>
        <time>2025-10-18T10:15:03Z</time>
      </trkpt>
      <trkpt lat="43.21599" lon="5.48213">
        <ele>205.7</ele>
        <time>2025-10-18T10:15:04Z</time>
      </trkpt>
      <trkpt lat="43.21599" lon="5.48213">
        <ele>205.8</ele>
        <time>2025-10-18T10:15:05Z</time>
      </trkpt>
      <trkpt lat="43.21599" lon="5.48213">
        <ele>205.9</ele>
        <time>2025-10-18T10:15:06Z</time>
      </trkpt>
      <trkpt lat="43.21599" lon="5.48213">
        <ele>206</ele>
        <time>2025-10-18T10:15:07Z</time>
      </trkpt>
      <trkpt lat="43.21599" lon="5.48213">
        <ele>206.1</ele>
        <time>2025-10-18T10:15:08Z</time>
      </trkpt>
      <trkpt lat="43.21598" lon="5.48212">
        <ele>206.2</ele>
        <time>2025-10-18T10:15:09Z</time>
      </trkpt>
      <trkpt lat="43.21598" lon="5.48211">
        <ele>206.2</ele>
        <time>2025-10-18T10:15:10Z</time>
      </trkpt>
      <trkpt lat="43.21597" lon="5.48211">
        <ele>206.3</ele>
        <time>2025-10-18T10:15:11Z</time>
      </trkpt>
      <trkpt lat="43.21597" lon="5.4821">
        <ele>206.3</ele>
        <time>2025-10-18T10:15:12Z</time>
      </trkpt>
      <trkpt lat="43.21597" lon="5.4821">
        <ele>206.4</ele>
        <time>2025-10-18T10:15:13Z</time>
      </trkpt>
      <trkpt lat="43.21596" lon="5.48209">
        <ele>206.4</ele>
        <time>2025-10-18T10:15:14Z</time>
      </trkpt>
      <trkpt lat="43.21595" lon="5.48208">
        <ele>206.5</ele>
        <time>2025-10-18T10:15:15Z</time>
      </trkpt>
      <trkpt lat="43.21595" lon="5.48208">
        <ele>206.7</ele>
        <time>2025-10-18T10:15:16Z</time>
      </trkpt>
      <trkpt lat="43.21594" lon="5.48208">
        <ele>206.9</ele>
        <time>2025-10-18T10:15:17Z</time>
      </trkpt>
      <trkpt lat="43.21594" lon="5.48207">
        <ele>207</ele>
        <time>2025-10-18T10:15:18Z</time>
      </trkpt>
      <trkpt lat="43.21593" lon="5.48206">
        <ele>207.2</ele>
        <time>2025-10-18T10:15:19Z</time>
      </trkpt>
      <trkpt lat="43.21593" lon="5.48207">
        <ele>207.3</ele>
        <time>2025-10-18T10:15:20Z</time>
      </trkpt>
      <trkpt lat="43.21593" lon="5.48206">
        <ele>207.4</ele>
        <time>2025-10-18T10:15:21Z</time>
      </trkpt>
      <trkpt lat="43.21593" lon="5.48206">
        <ele>207.5</ele>
        <time>2025-10-18T10:15:22Z</time>
      </trkpt>
      <trkpt lat="43.21593" lon="5.48205">
        <ele>207.6</ele>
        <time>2025-10-18T10:15:23Z</time>
      </trkpt>
      <trkpt lat="43.21593" lon="5.48205">
        <ele>207.6</ele>
        <time>2025-10-18T10:15:24Z</time>
      </trkpt>
      <trkpt lat="43.21593" lon="5.48204">
        <ele>207.8</ele>
        <time>2025-10-18T10:15:25Z</time>
      </trkpt>
      <trkpt lat="43.21593" lon="5.48203">
        <ele>207.9</ele>
        <time>2025-10-18T10:15:26Z</time>
      </trkpt>
      <trkpt lat="43.21593" lon="5.48202">
        <ele>208.1</ele>
        <time>2025-10-18T10:15:27Z</time>
      </trkpt>
      <trkpt lat="43.21592" lon="5.48202">
        <ele>208.1</ele>
        <time>2025-10-18T10:15:28Z</time>
      </trkpt>
      <trkpt lat="43.21592" lon="5.48201">
        <ele>208.2</ele>
        <time>2025-10-18T10:15:29Z</time>
      </trkpt>
      <trkpt lat="43.21591" lon="5.48201">
        <ele>208.4</ele>
        <time>2025-10-18T10:15:30Z</time>
      </trkpt>
      <trkpt lat="43.21591" lon="5.48201">
        <ele>208.6</ele>
        <time>2025-10-18T10:15:31Z</time>
      </trkpt>
      <trkpt lat="43.2159" lon="5.48201">
        <ele>208.9</ele>
        <time>2025-10-18T10:15:32Z</time>
      </trkpt>
      <trkpt lat="43.2159" lon="5.48201">
        <ele>209.1</ele>
        <time>2025-10-18T10:15:33Z</time>
      </trkpt>
      <trkpt lat="43.21589" lon="5.48201">
        <ele>209.3</ele>
        <time>2025-10-18T10:15:34Z</time>
      </trkpt>
      <trkpt lat="43.21589" lon="5.48201">
        <ele>209.4</ele>
        <time>2025-10-18T10:15:35Z</time>
      </trkpt>
      <trkpt lat="43.21588" lon="5.48202">
        <ele>209.6</ele>
        <time>2025-10-18T10:15:36Z</time>
      </trkpt>
      <trkpt lat="43.21588" lon="5.48202">
        <ele>209.7</ele>
        <time>2025-10-18T10:15:37Z</time>
      </trkpt>
      <trkpt lat="43.21588" lon="5.48203">
        <ele>209.9</ele>
        <time>2025-10-18T10:15:38Z</time>
      </trkpt>
      <trkpt lat="43.21588" lon="5.48203">
        <ele>210</ele>
        <time>2025-10-18T10:15:39Z</time>
      </trkpt>
      <trkpt lat="43.21587" lon="5.48204">
        <ele>210.1</ele>
        <time>2025-10-18T10:15:40Z</time>
      </trkpt>
      <trkpt lat="43.21587" lon="5.48204">
        <ele>210.3</ele>
        <time>2025-10-18T10:15:41Z</time>
      </trkpt>
      <trkpt lat="43.21586" lon="5.48205">
        <ele>210.4</ele>
        <time>2025-10-18T10:15:42Z</time>
      </trkpt>
      <trkpt lat="43.21586" lon="5.48206">
        <ele>210.6</ele>
        <time>2025-10-18T10:15:43Z</time>
      </trkpt>
      <trkpt lat="43.21585" lon="5.48206">
        <ele>210.7</ele>
        <time>2025-10-18T10:15:44Z</time>
      </trkpt>
      <trkpt lat="43.21585" lon="5.48207">
        <ele>211</ele>
        <time>2025-10-18T10:15:45Z</time>
      </trkpt>
      <trkpt lat="43.21585" lon="5.48208">
        <ele>211.2</ele>
        <time>2025-10-18T10:15:46Z</time>
      </trkpt>
      <trkpt lat="43.21585" lon="5.48208">
        <ele>211.3</ele>
        <time>2025-10-18T10:15:47Z</time>
      </trkpt>
      <trkpt lat="43.21585" lon="5.48208">
        <ele>211.5</ele>
        <time>2025-10-18T10:15:48Z</time>
      </trkpt>
      <trkpt lat="43.21585" lon="5.48209">
        <ele>211.7</ele>
        <time>2025-10-18T10:15:49Z</time>
      </trkpt>
      <trkpt lat="43.21585" lon="5.4821">
        <ele>211.8</ele>
        <time>2025-10-18T10:15:50Z</time>
      </trkpt>
      <trkpt lat="43.21584" lon="5.4821">
        <ele>212</ele>
        <time>2025-10-18T10:15:51Z</time>
      </trkpt>
      <trkpt lat="43.21584" lon="5.4821">
        <ele>212</ele>
        <time>2025-10-18T10:15:52Z</time>
      </trkpt>
      <trkpt lat="43.21584" lon="5.48209">
        <ele>212.3</ele>
        <time>2025-10-18T10:15:53Z</time>
      </trkpt>
      <trkpt lat="43.21584" lon="5.48209">
        <ele>212.5</ele>
        <time>2025-10-18T10:15:54Z</time>
      </trkpt>
      <trkpt lat="43.21584" lon="5.48209">
        <ele>212.7</ele>
        <time>2025-10-18T10:15:55Z</time>
      </trkpt>
      <trkpt lat="43.21584" lon="5.48209">
        <ele>212.8</ele>
        <time>2025-10-18T10:15:56Z</time>
      </trkpt>
      <trkpt lat="43.21583" lon="5.48209">
        <ele>212.9</ele>
        <time>2025-10-18T10:15:57Z</time>
      </trkpt>
      <trkpt lat="43.21583" lon="5.4821">
        <ele>213.1</ele>
        <time>2025-10-18T10:15:58Z</time>
      </trkpt>
      <trkpt lat="43.21582" lon="5.48209">
        <ele>213.2</ele>
        <time>2025-10-18T10:15:59Z</time>
      </trkpt>
      <trkpt lat="43.21581" lon="5.48209">
        <ele>213.3</ele>
        <time>2025-10-18T10:16:00Z</time>
      </trkpt>
      <trkpt lat="43.21581" lon="5.48209">
        <ele>213.5</ele>
        <time>2025-10-18T10:16:01Z</time>
      </trkpt>
      <trkpt lat="43.2158" lon="5.48208">
        <ele>213.7</ele>
        <time>2025-10-18T10:16:02Z</time>
      </trkpt>
      <trkpt lat="43.2158" lon="5.48208">
        <ele>213.9</ele>
        <time>2025-10-18T10:16:03Z</time>
      </trkpt>
      <trkpt lat="43.21579" lon="5.48208">
        <ele>214.1</ele>
        <time>2025-10-18T10:16:04Z</time>
      </trkpt>
      <trkpt lat="43.21579" lon="5.48207">
        <ele>214.3</ele>
        <time>2025-10-18T10:16:05Z</time>
      </trkpt>
      <trkpt lat="43.21578" lon="5.48207">
        <ele>214.4</ele>
        <time>2025-10-18T10:16:06Z</time>
      </trkpt>
      <trkpt lat="43.21578" lon="5.48206">
        <ele>214.6</ele>
        <time>2025-10-18T10:16:07Z</time>
      </trkpt>
      <trkpt lat="43.21577" lon="5.48206">
        <ele>214.7</ele>
        <time>2025-10-18T10:16:08Z</time>
      </trkpt>
      <trkpt lat="43.21577" lon="5.48206">
        <ele>214.8</ele>
        <time>2025-10-18T10:16:09Z</time>
      </trkpt>
      <trkpt lat="43.21576" lon="5.48206">
        <ele>214.9</ele>
        <time>2025-10-18T10:16:10Z</time>
      </trkpt>
      <trkpt lat="43.21576" lon="5.48206">
        <ele>215.1</ele>
        <time>2025-10-18T10:16:11Z</time>
      </trkpt>
      <trkpt lat="43.21576" lon="5.48206">
        <ele>215.3</ele>
        <time>2025-10-18T10:16:12Z</time>
      </trkpt>
      <trkpt lat="43.21576" lon="5.48206">
        <ele>215.5</ele>
        <time>2025-10-18T10:16:13Z</time>
      </trkpt>
      <trkpt lat="43.21575" lon="5.48205">
        <ele>215.7</ele>
        <time>2025-10-18T10:16:14Z</time>
      </trkpt>
      <trkpt lat="43.21576" lon="5.48205">
        <ele>215.8</ele>
        <time>2025-10-18T10:16:15Z</time>
      </trkpt>
      <trkpt lat="43.21575" lon="5.48205">
        <ele>215.9</ele>
        <time>2025-10-18T10:16:16Z</time>
      </trkpt>
      <trkpt lat="43.21575" lon="5.48205">
        <ele>215.9</ele>
        <time>2025-10-18T10:16:17Z</time>
      </trkpt>
      <trkpt lat="43.21575" lon="5.48205">
        <ele>216</ele>
        <time>2025-10-18T10:16:18Z</time>
      </trkpt>
      <trkpt lat="43.21575" lon="5.48204">
        <ele>216.1</ele>
        <time>2025-10-18T10:16:19Z</time>
      </trkpt>
      <trkpt lat="43.21574" lon="5.48204">
        <ele>216.2</ele>
        <time>2025-10-18T10:16:20Z</time>
      </trkpt>
      <trkpt lat="43.21575" lon="5.48203">
        <ele>216.3</ele>
        <time>2025-10-18T10:16:21Z</time>
      </trkpt>
      <trkpt lat="43.21575" lon="5.48203">
        <ele>216.5</ele>
        <time>2025-10-18T10:16:22Z</time>
      </trkpt>
      <trkpt lat="43.21575" lon="5.48202">
        <ele>216.7</ele>
        <time>2025-10-18T10:16:23Z</time>
      </trkpt>
      <trkpt lat="43.21575" lon="5.48201">
        <ele>216.8</ele>
        <time>2025-10-18T10:16:24Z</time>
      </trkpt>
      <trkpt lat="43.21577" lon="5.482">
        <ele>216.9</ele>
        <time>2025-10-18T10:16:25Z</time>
      </trkpt>
      <trkpt lat="43.21577" lon="5.482">
        <ele>217</ele>
        <time>2025-10-18T10:16:26Z</time>
      </trkpt>
      <trkpt lat="43.21577" lon="5.48199">
        <ele>217</ele>
        <time>2025-10-18T10:16:27Z</time>
      </trkpt>
      <trkpt lat="43.21577" lon="5.48198">
        <ele>217.2</ele>
        <time>2025-10-18T10:16:28Z</time>
      </trkpt>
      <trkpt lat="43.21578" lon="5.48197">
        <ele>217.4</ele>
        <time>2025-10-18T10:16:29Z</time>
      </trkpt>
      <trkpt lat="43.21577" lon="5.48197">
        <ele>217.5</ele>
        <time>2025-10-18T10:16:30Z</time>
      </trkpt>
      <trkpt lat="43.21577" lon="5.48196">
        <ele>217.6</ele>
        <time>2025-10-18T10:16:31Z</time>
      </trkpt>
      <trkpt lat="43.21577" lon="5.48196">
        <ele>217.7</ele>
        <time>2025-10-18T10:16:32Z</time>
      </trkpt>
      <trkpt lat="43.21577" lon="5.48196">
        <ele>217.8</ele>
        <time>2025-10-18T10:16:33Z</time>
      </trkpt>
      <trkpt lat="43.21576" lon="5.48195">
        <ele>217.9</ele>
        <time>2025-10-18T10:16:34Z</time>
      </trkpt>
      <trkpt lat="43.21575" lon="5.48194">
        <ele>218</ele>
        <time>2025-10-18T10:16:35Z</time>
      </trkpt>
      <trkpt lat="43.21575" lon="5.48193">
        <ele>218.1</ele>
        <time>2025-10-18T10:16:36Z</time>
      </trkpt>
      <trkpt lat="43.21574" lon="5.48193">
        <ele>218.4</ele>
        <time>2025-10-18T10:16:37Z</time>
      </trkpt>
      <trkpt lat="43.21573" lon="5.48193">
        <ele>218.6</ele>
        <time>2025-10-18T10:16:38Z</time>
      </trkpt>
      <trkpt lat="43.21572" lon="5.48193">
        <ele>218.7</ele>
        <time>2025-10-18T10:16:39Z</time>
      </trkpt>
      <trkpt lat="43.21572" lon="5.48194">
        <ele>218.8</ele>
        <time>2025-10-18T10:16:40Z</time>
      </trkpt>
      <trkpt lat="43.21571" lon="5.48193">
        <ele>218.9</ele>
        <time>2025-10-18T10:16:41Z</time>
      </trkpt>
      <trkpt lat="43.2157" lon="5.48193">
        <ele>219.1</ele>
        <time>2025-10-18T10:16:42Z</time>
      </trkpt>
      <trkpt lat="43.2157" lon="5.48193">
        <ele>219.3</ele>
        <time>2025-10-18T10:16:43Z</time>
      </trkpt>
      <trkpt lat="43.21569" lon="5.48193">
        <ele>219.4</ele>
        <time>2025-10-18T10:16:44Z</time>
      </trkpt>
      <trkpt lat="43.21568" lon="5.48193">
        <ele>219.6</ele>
        <time>2025-10-18T10:16:45Z</time>
      </trkpt>
      <trkpt lat="43.21567" lon="5.48194">
        <ele>219.8</ele>
        <time>2025-10-18T10:16:46Z</time>
      </trkpt>
      <trkpt lat="43.21567" lon="5.48194">
        <ele>220</ele>
        <time>2025-10-18T10:16:47Z</time>
      </trkpt>
      <trkpt lat="43.21566" lon="5.48195">
        <ele>220.1</ele>
        <time>2025-10-18T10:16:48Z</time>
      </trkpt>
      <trkpt lat="43.21565" lon="5.48196">
        <ele>220.2</ele>
        <time>2025-10-18T10:16:49Z</time>
      </trkpt>
      <trkpt lat="43.21565" lon="5.48197">
        <ele>220.5</ele>
        <time>2025-10-18T10:16:50Z</time>
      </trkpt>
      <trkpt lat="43.21564" lon="5.48197">
        <ele>220.7</ele>
        <time>2025-10-18T10:16:51Z</time>
      </trkpt>
      <trkpt lat="43.21565" lon="5.48197">
        <ele>220.8</ele>
        <time>2025-10-18T10:16:52Z</time>
      </trkpt>
      <trkpt lat="43.21564" lon="5.48198">
        <ele>220.9</ele>
        <time>2025-10-18T10:16:53Z</time>
      </trkpt>
      <trkpt lat="43.21563" lon="5.48199">
        <ele>221</ele>
        <time>2025-10-18T10:16:54Z</time>
      </trkpt>
      <trkpt lat="43.21563" lon="5.48199">
        <ele>221.1</ele>
        <time>2025-10-18T10:16:55Z</time>
      </trkpt>
      <trkpt lat="43.21563" lon="5.482">
        <ele>221.2</ele>
        <time>2025-10-18T10:16:56Z</time>
      </trkpt>
      <trkpt lat="43.21562" lon="5.48201">
        <ele>221.3</ele>
        <time>2025-10-18T10:16:57Z</time>
      </trkpt>
      <trkpt lat="43.21562" lon="5.48201">
        <ele>221.5</ele>
        <time>2025-10-18T10:16:58Z</time>
      </trkpt>
      <trkpt lat="43.21562" lon="5.48202">
        <ele>221.6</ele>
        <time>2025-10-18T10:16:59Z</time>
      </trkpt>
      <trkpt lat="43.21561" lon="5.48202">
        <ele>221.7</ele>
        <time>2025-10-18T10:17:00Z</time>
      </trkpt>
      <trkpt lat="43.21561" lon="5.48203">
        <ele>221.9</ele>
        <time>2025-10-18T10:17:01Z</time>
      </trkpt>
      <trkpt lat="43.21561" lon="5.48204">
        <ele>222.1</ele>
        <time>2025-10-18T10:17:02Z</time>
      </trkpt>
      <trkpt lat="43.2156" lon="5.48204">
        <ele>222.2</ele>
        <time>2025-10-18T10:17:03Z</time>
      </trkpt>
      <trkpt lat="43.2156" lon="5.48205">
        <ele>222.3</ele>
        <time>2025-10-18T10:17:04Z</time>
      </trkpt>
      <trkpt lat="43.2156" lon="5.48205">
        <ele>222.4</ele>
        <time>2025-10-18T10:17:05Z</time>
      </trkpt>
      <trkpt lat="43.21559" lon="5.48205">
        <ele>222.6</ele>
        <time>2025-10-18T10:17:06Z</time>
      </trkpt>
      <trkpt lat="43.21559" lon="5.48205">
        <ele>222.7</ele>
        <time>2025-10-18T10:17:07Z</time>
      </trkpt>
      <trkpt lat="43.21559" lon="5.48205">
        <ele>223</ele>
        <time>2025-10-18T10:17:08Z</time>
      </trkpt>
      <trkpt lat="43.21559" lon="5.48204">
        <ele>223.1</ele>
        <time>2025-10-18T10:17:09Z</time>
      </trkpt>
      <trkpt lat="43.21559" lon="5.48204">
        <ele>223.3</ele>
        <time>2025-10-18T10:17:10Z</time>
      </trkpt>
      <trkpt lat="43.21558" lon="5.48203">
        <ele>223.4</ele>
        <time>2025-10-18T10:17:11Z</time>
      </trkpt>
      <trkpt lat="43.21558" lon="5.48203">
        <ele>223.6</ele>
        <time>2025-10-18T10:17:12Z</time>
      </trkpt>
      <trkpt lat="43.21558" lon="5.48202">
        <ele>223.8</ele>
        <time>2025-10-18T10:17:13Z</time>
      </trkpt>
      <trkpt lat="43.21558" lon="5.48201">
        <ele>224</ele>
        <time>2025-10-18T10:17:14Z</time>
      </trkpt>
      <trkpt lat="43.21558" lon="5.48201">
        <ele>224.2</ele>
        <time>2025-10-18T10:17:15Z</time>
      </trkpt>
      <trkpt lat="43.21558" lon="5.482">
        <ele>224.3</ele>
        <time>2025-10-18T10:17:16Z</time>
      </trkpt>
      <trkpt lat="43.21558" lon="5.482">
        <ele>224.4</ele>
        <time>2025-10-18T10:17:17Z</time>
      </trkpt>
      <trkpt lat="43.21558" lon="5.48199">
        <ele>224.5</ele>
        <time>2025-10-18T10:17:18Z</time>
      </trkpt>
      <trkpt lat="43.21558" lon="5.48198">
        <ele>224.6</ele>
        <time>2025-10-18T10:17:19Z</time>
      </trkpt>
      <trkpt lat="43.21558" lon="5.48198">
        <ele>224.7</ele>
        <time>2025-10-18T10:17:20Z</time>
      </trkpt>
      <trkpt lat="43.21558" lon="5.48198">
        <ele>224.8</ele>
        <time>2025-10-18T10:17:21Z</time>
      </trkpt>
      <trkpt lat="43.21558" lon="5.48197">
        <ele>224.9</ele>
        <time>2025-10-18T10:17:22Z</time>
      </trkpt>
      <trkpt lat="43.21558" lon="5.48197">
        <ele>225</ele>
        <time>2025-10-18T10:17:23Z</time>
      </trkpt>
      <trkpt lat="43.21557" lon="5.48196">
        <ele>225.2</ele>
        <time>2025-10-18T10:17:24Z</time>
      </trkpt>
      <trkpt lat="43.21557" lon="5.48196">
        <ele>225.3</ele>
        <time>2025-10-18T10:17:25Z</time>
      </trkpt>
      <trkpt lat="43.21557" lon="5.48195">
        <ele>225.4</ele>
        <time>2025-10-18T10:17:26Z</time>
      </trkpt>
      <trkpt lat="43.21556" lon="5.48194">
        <ele>225.5</ele>
        <time>2025-10-18T10:17:27Z</time>
      </trkpt>
      <trkpt lat="43.21556" lon="5.48193">
        <ele>225.6</ele>
        <time>2025-10-18T10:17:28Z</time>
      </trkpt>
      <trkpt lat="43.21556" lon="5.48192">
        <ele>225.7</ele>
        <time>2025-10-18T10:17:29Z</time>
      </trkpt>
      <trkpt lat="43.21556" lon="5.48192">
        <ele>225.9</ele>
        <time>2025-10-18T10:17:30Z</time>
      </trkpt>
      <trkpt lat="43.21556" lon="5.48191">
        <ele>226.1</ele>
        <time>2025-10-18T10:17:31Z</time>
      </trkpt>
      <trkpt lat="43.21555" lon="5.4819">
        <ele>226.3</ele>
        <time>2025-10-18T10:17:32Z</time>
      </trkpt>
      <trkpt lat="43.21555" lon="5.48189">
        <ele>226.3</ele>
        <time>2025-10-18T10:17:33Z</time>
      </trkpt>
      <trkpt lat="43.21554" lon="5.48189">
        <ele>226.5</ele>
        <time>2025-10-18T10:17:34Z</time>
      </trkpt>
      <trkpt lat="43.21554" lon="5.4819">
        <ele>226.7</ele>
        <time>2025-10-18T10:17:35Z</time>
      </trkpt>
      <trkpt lat="43.21554" lon="5.4819">
        <ele>226.8</ele>
        <time>2025-10-18T10:17:36Z</time>
      </trkpt>
      <trkpt lat="43.21553" lon="5.48191">
        <ele>227</ele>
        <time>2025-10-18T10:17:37Z</time>
      </trkpt>
      <trkpt lat="43.21553" lon="5.48192">
        <ele>227.3</ele>
        <time>2025-10-18T10:17:38Z</time>
      </trkpt>
      <trkpt lat="43.21552" lon="5.48192">
        <ele>227.5</ele>
        <time>2025-10-18T10:17:39Z</time>
      </trkpt>
      <trkpt lat="43.21552" lon="5.48193">
        <ele>227.6</ele>
        <time>2025-10-18T10:17:40Z</time>
      </trkpt>
      <trkpt lat="43.21552" lon="5.48193">
        <ele>227.7</ele>
        <time>2025-10-18T10:17:41Z</time>
      </trkpt>
      <trkpt lat="43.21552" lon="5.48194">
        <ele>227.8</ele>
        <time>2025-10-18T10:17:42Z</time>
      </trkpt>
      <trkpt lat="43.21551" lon="5.48194">
        <ele>228</ele>
        <time>2025-10-18T10:17:43Z</time>
      </trkpt>
      <trkpt lat="43.21551" lon="5.48194">
        <ele>228.1</ele>
        <time>2025-10-18T10:17:44Z</time>
      </trkpt>
      <trkpt lat="43.21551" lon="5.48194">
        <ele>228.3</ele>
        <time>2025-10-18T10:17:45Z</time>
      </trkpt>
      <trkpt lat="43.2155" lon="5.48194">
        <ele>228.5</ele>
        <time>2025-10-18T10:17:46Z</time>
      </trkpt>
      <trkpt lat="43.2155" lon="5.48193">
        <ele>228.7</ele>
        <time>2025-10-18T10:17:47Z</time>
      </trkpt>
      <trkpt lat="43.2155" lon="5.48193">
        <ele>228.9</ele>
        <time>2025-10-18T10:17:48Z</time>
      </trkpt>
      <trkpt lat="43.2155" lon="5.48192">
        <ele>229.1</ele>
        <time>2025-10-18T10:17:49Z</time>
      </trkpt>
      <trkpt lat="43.2155" lon="5.48192">
        <ele>229.2</ele>
        <time>2025-10-18T10:17:50Z</time>
      </trkpt>
      <trkpt lat="43.21549" lon="5.48192">
        <ele>229.3</ele>
        <time>2025-10-18T10:17:51Z</time>
      </trkpt>
      <trkpt lat="43.21549" lon="5.48191">
        <ele>229.5</ele>
        <time>2025-10-18T10:17:52Z</time>
      </trkpt>
      <trkpt lat="43.21549" lon="5.48191">
        <ele>229.7</ele>
        <time>2025-10-18T10:17:53Z</time>
      </trkpt>
      <trkpt lat="43.21548" lon="5.4819">
        <ele>229.8</ele>
        <time>2025-10-18T10:17:54Z</time>
      </trkpt>
      <trkpt lat="43.21548" lon="5.4819">
        <ele>230</ele>
        <time>2025-10-18T10:17:55Z</time>
      </trkpt>
      <trkpt lat="43.21548" lon="5.4819">
        <ele>230.1</ele>
        <time>2025-10-18T10:17:56Z</time>
      </trkpt>
      <trkpt lat="43.21547" lon="5.48189">
        <ele>230.2</ele>
        <time>2025-10-18T10:17:57Z</time>
      </trkpt>
      <trkpt lat="43.21547" lon="5.48188">
        <ele>230.4</ele>
        <time>2025-10-18T10:17:58Z</time>
      </trkpt>
      <trkpt lat="43.21547" lon="5.48187">
        <ele>230.6</ele>
        <time>2025-10-18T10:17:59Z</time>
      </trkpt>
      <trkpt lat="43.21547" lon="5.48187">
        <ele>230.7</ele>
        <time>2025-10-18T10:18:00Z</time>
      </trkpt>
      <trkpt lat="43.21547" lon="5.48186">
        <ele>230.9</ele>
        <time>2025-10-18T10:18:01Z</time>
      </trkpt>
      <trkpt lat="43.21546" lon="5.48186">
        <ele>231</ele>
        <time>2025-10-18T10:18:02Z</time>
      </trkpt>
      <trkpt lat="43.21546" lon="5.48185">
        <ele>231.2</ele>
        <time>2025-10-18T10:18:03Z</time>
      </trkpt>
      <trkpt lat="43.21545" lon="5.48186">
        <ele>231.3</ele>
        <time>2025-10-18T10:18:04Z</time>
      </trkpt>
      <trkpt lat="43.21545" lon="5.48186">
        <ele>231.4</ele>
        <time>2025-10-18T10:18:05Z</time>
      </trkpt>
      <trkpt lat="43.21545" lon="5.48187">
        <ele>231.5</ele>
        <time>2025-10-18T10:18:06Z</time>
      </trkpt>
      <trkpt lat="43.21544" lon="5.48187">
        <ele>231.6</ele>
        <time>2025-10-18T10:18:07Z</time>
      </trkpt>
      <trkpt lat="43.21544" lon="5.48187">
        <ele>231.8</ele>
        <time>2025-10-18T10:18:08Z</time>
      </trkpt>
      <trkpt lat="43.21544" lon="5.48188">
        <ele>231.9</ele>
        <time>2025-10-18T10:18:09Z</time>
      </trkpt>
      <trkpt lat="43.21544" lon="5.48189">
        <ele>232.1</ele>
        <time>2025-10-18T10:18:10Z</time>
      </trkpt>
      <trkpt lat="43.21544" lon="5.48189">
        <ele>232.2</ele>
        <time>2025-10-18T10:18:11Z</time>
      </trkpt>
      <trkpt lat="43.21544" lon="5.4819">
        <ele>232.3</ele>
        <time>2025-10-18T10:18:12Z</time>
      </trkpt>
      <trkpt lat="43.21543" lon="5.48191">
        <ele>232.4</ele>
        <time>2025-10-18T10:18:13Z</time>
      </trkpt>
      <trkpt lat="43.21543" lon="5.48191">
        <ele>232.6</ele>
        <time>2025-10-18T10:18:14Z</time>
      </trkpt>
      <trkpt lat="43.21543" lon="5.48192">
        <ele>232.6</ele>
        <time>2025-10-18T10:18:15Z</time>
      </trkpt>
      <trkpt lat="43.21543" lon="5.48192">
        <ele>232.8</ele>
        <time>2025-10-18T10:18:16Z</time>
      </trkpt>
      <trkpt lat="43.21543" lon="5.48193">
        <ele>232.9</ele>
        <time>2025-10-18T10:18:17Z</time>
      </trkpt>
      <trkpt lat="43.21543" lon="5.48193">
        <ele>233.1</ele>
        <time>2025-10-18T10:18:18Z</time>
      </trkpt>
      <trkpt lat="43.21543" lon="5.48193">
        <ele>233.3</ele>
        <time>2025-10-18T10:18:19Z</time>
      </trkpt>
      <trkpt lat="43.21543" lon="5.48193">
        <ele>233.4</ele>
        <time>2025-10-18T10:18:20Z</time>
      </trkpt>
      <trkpt lat="43.21543" lon="5.48193">
        <ele>233.6</ele>
        <time>2025-10-18T10:18:21Z</time>
      </trkpt>
      <trkpt lat="43.21542" lon="5.48193">
        <ele>233.7</ele>
        <time>2025-10-18T10:18:22Z</time>
      </trkpt>
      <trkpt lat="43.21542" lon="5.48193">
        <ele>233.9</ele>
        <time>2025-10-18T10:18:23Z</time>
      </trkpt>
      <trkpt lat="43.21542" lon="5.48193">
        <ele>234.1</ele>
        <time>2025-10-18T10:18:24Z</time>
      </trkpt>
      <trkpt lat="43.21541" lon="5.48192">
        <ele>234.2</ele>
        <time>2025-10-18T10:18:25Z</time>
      </trkpt>
      <trkpt lat="43.21541" lon="5.48192">
        <ele>234.4</ele>
        <time>2025-10-18T10:18:26Z</time>
      </trkpt>
      <trkpt lat="43.21541" lon="5.48192">
        <ele>234.5</ele>
        <time>2025-10-18T10:18:27Z</time>
      </trkpt>
      <trkpt lat="43.21541" lon="5.48191">
        <ele>234.5</ele>
        <time>2025-10-18T10:18:28Z</time>
      </trkpt>
      <trkpt lat="43.21541" lon="5.48191">
        <ele>234.6</ele>
        <time>2025-10-18T10:18:29Z</time>
      </trkpt>
      <trkpt lat="43.21541" lon="5.48191">
        <ele>234.7</ele>
        <time>2025-10-18T10:18:30Z</time>
      </trkpt>
      <trkpt lat="43.2154" lon="5.48191">
        <ele>234.9</ele>
        <time>2025-10-18T10:18:31Z</time>
      </trkpt>
      <trkpt lat="43.2154" lon="5.4819">
        <ele>235</ele>
        <time>2025-10-18T10:18:32Z</time>
      </trkpt>
      <trkpt lat="43.2154" lon="5.4819">
        <ele>235.2</ele>
        <time>2025-10-18T10:18:33Z</time>
      </trkpt>
      <trkpt lat="43.2154" lon="5.48189">
        <ele>235.3</ele>
        <time>2025-10-18T10:18:34Z</time>
      </trkpt>
      <trkpt lat="43.2154" lon="5.48189">
        <ele>235.5</ele>
        <time>2025-10-18T10:18:35Z</time>
      </trkpt>
      <trkpt lat="43.2154" lon="5.48188">
        <ele>235.7</ele>
        <time>2025-10-18T10:18:36Z</time>
      </trkpt>
      <trkpt lat="43.2154" lon="5.48188">
        <ele>235.8</ele>
        <time>2025-10-18T10:18:37Z</time>
      </trkpt>
      <trkpt lat="43.21539" lon="5.48187">
        <ele>236</ele>
        <time>2025-10-18T10:18:38Z</time>
      </trkpt>
      <trkpt lat="43.21539" lon="5.48186">
        <ele>236.2</ele>
        <time>2025-10-18T10:18:39Z</time>
      </trkpt>
      <trkpt lat="43.21538" lon="5.48185">
        <ele>236.4</ele>
        <time>2025-10-18T10:18:40Z</time>
      </trkpt>
      <trkpt lat="43.21538" lon="5.48185">
        <ele>236.5</ele>
        <time>2025-10-18T10:18:41Z</time>
      </trkpt>
      <trkpt lat="43.21538" lon="5.48184">
        <ele>236.7</ele>
        <time>2025-10-18T10:18:42Z</time>
      </trkpt>
      <trkpt lat="43.21537" lon="5.48183">
        <ele>236.8</ele>
        <time>2025-10-18T10:18:43Z</time>
      </trkpt>
      <trkpt lat="43.21537" lon="5.48183">
        <ele>236.9</ele>
        <time>2025-10-18T10:18:44Z</time>
      </trkpt>
      <trkpt lat="43.21537" lon="5.48182">
        <ele>237.1</ele>
        <time>2025-10-18T10:18:45Z</time>
      </trkpt>
      <trkpt lat="43.21537" lon="5.48182">
        <ele>237.2</ele>
        <time>2025-10-18T10:18:46Z</time>
      </trkpt>
      <trkpt lat="43.21537" lon="5.48181">
        <ele>237.3</ele>
        <time>2025-10-18T10:18:47Z</time>
      </trkpt>
      <trkpt lat="43.21536" lon="5.4818">
        <ele>237.4</ele>
        <time>2025-10-18T10:18:48Z</time>
      </trkpt>
      <trkpt lat="43.21536" lon="5.4818">
        <ele>237.5</ele>
        <time>2025-10-18T10:18:49Z</time>
      </trkpt>
      <trkpt lat="43.21536" lon="5.48179">
        <ele>237.7</ele>
        <time>2025-10-18T10:18:50Z</time>
      </trkpt>
      <trkpt lat="43.21536" lon="5.48178">
        <ele>237.9</ele>
        <time>2025-10-18T10:18:51Z</time>
      </trkpt>
      <trkpt lat="43.21536" lon="5.48178">
        <ele>238</ele>
        <time>2025-10-18T10:18:52Z</time>
      </trkpt>
      <trkpt lat="43.21536" lon="5.48177">
        <ele>238.2</ele>
        <time>2025-10-18T10:18:53Z</time>
      </trkpt>
      <trkpt lat="43.21535" lon="5.48176">
        <ele>238.3</ele>
        <time>2025-10-18T10:18:54Z</time>
      </trkpt>
      <trkpt lat="43.21535" lon="5.48175">
        <ele>238.6</ele>
        <time>2025-10-18T10:18:55Z</time>
      </trkpt>
      <trkpt lat="43.21536" lon="5.48175">
        <ele>238.7</ele>
        <time>2025-10-18T10:18:56Z</time>
      </trkpt>
      <trkpt lat="43.21536" lon="5.48175">
        <ele>238.8</ele>
        <time>2025-10-18T10:18:57Z</time>
      </trkpt>
      <trkpt lat="43.21536" lon="5.48174">
        <ele>238.9</ele>
        <time>2025-10-18T10:18:58Z</time>
      </trkpt>
      <trkpt lat="43.21537" lon="5.48174">
        <ele>238.9</ele>
        <time>2025-10-18T10:18:59Z</time>
      </trkpt>
      <trkpt lat="43.21537" lon="5.48174">
        <ele>239</ele>
        <time>2025-10-18T10:19:00Z</time>
      </trkpt>
      <trkpt lat="43.21537" lon="5.48174">
        <ele>239</ele>
        <time>2025-10-18T10:19:01Z</time>
      </trkpt>
      <trkpt lat="43.21537" lon="5.48174">
        <ele>239.2</ele>
        <time>2025-10-18T10:19:02Z</time>
      </trkpt>
      <trkpt lat="43.21537" lon="5.48174">
        <ele>239.2</ele>
        <time>2025-10-18T10:19:03Z</time>
      </trkpt>
      <trkpt lat="43.21536" lon="5.48174">
        <ele>239.3</ele>
        <time>2025-10-18T10:19:04Z</time>
      </trkpt>
      <trkpt lat="43.21536" lon="5.48174">
        <ele>239.4</ele>
        <time>2025-10-18T10:19:05Z</time>
      </trkpt>
      <trkpt lat="43.21536" lon="5.48174">
        <ele>239.4</ele>
        <time>2025-10-18T10:19:06Z</time>
      </trkpt>
      <trkpt lat="43.21536" lon="5.48174">
        <ele>239.5</ele>
        <time>2025-10-18T10:19:07Z</time>
      </trkpt>
      <trkpt lat="43.21536" lon="5.48174">
        <ele>239.5</ele>
        <time>2025-10-18T10:19:08Z</time>
      </trkpt>
      <trkpt lat="43.21536" lon="5.48174">
        <ele>239.5</ele>
        <time>2025-10-18T10:19:09Z</time>
      </trkpt>
      <trkpt lat="43.21536" lon="5.48174">
        <ele>239.5</ele>
        <time>2025-10-18T10:19:10Z</time>
      </trkpt>
      <trkpt lat="43.21536" lon="5.48174">
        <ele>239.5</ele>
        <time>2025-10-18T10:19:11Z</time>
      </trkpt>
      <trkpt lat="43.21536" lon="5.48174">
        <ele>239.5</ele>
        <time>2025-10-18T10:19:12Z</time>
      </trkpt>
      <trkpt lat="43.21536" lon="5.48174">
        <ele>239.6</ele>
        <time>2025-10-18T10:19:13Z</time>
      </trkpt>
      <trkpt lat="43.21536" lon="5.48174">
        <ele>239.6</ele>
        <time>2025-10-18T10:19:14Z</time>
      </trkpt>
      <trkpt lat="43.21536" lon="5.48174">
        <ele>239.4</ele>
        <time>2025-10-18T10:19:15Z</time>
      </trkpt>
      <trkpt lat="43.21536" lon="5.48174">
        <ele>239.3</ele>
        <time>2025-10-18T10:19:16Z</time>
      </trkpt>
      <trkpt lat="43.21536" lon="5.48174">
        <ele>239.3</ele>
        <time>2025-10-18T10:19:17Z</time>
      </trkpt>
      <trkpt lat="43.21536" lon="5.48174">
        <ele>239.3</ele>
        <time>2025-10-18T10:19:18Z</time>
      </trkpt>
      <trkpt lat="43.21536" lon="5.48174">
        <ele>239.2</ele>
        <time>2025-10-18T10:19:19Z</time>
      </trkpt>
      <trkpt lat="43.21536" lon="5.48174">
        <ele>239.2</ele>
        <time>2025-10-18T10:19:20Z</time>
      </trkpt>
      <trkpt lat="43.21536" lon="5.48173">
        <ele>239.2</ele>
        <time>2025-10-18T10:19:21Z</time>
      </trkpt>
      <trkpt lat="43.21536" lon="5.48173">
        <ele>239.2</ele>
        <time>2025-10-18T10:19:22Z</time>
      </trkpt>
      <trkpt lat="43.21536" lon="5.48173">
        <ele>239.2</ele>
        <time>2025-10-18T10:19:23Z</time>
      </trkpt>
      <trkpt lat="43.21536" lon="5.48173">
        <ele>239.2</ele>
        <time>2025-10-18T10:19:24Z</time>
      </trkpt>
      <trkpt lat="43.21536" lon="5.48173">
        <ele>239.2</ele>
        <time>2025-10-18T10:19:25Z</time>
      </trkpt>
      <trkpt lat="43.21537" lon="5.48173">
        <ele>239.3</ele>
        <time>2025-10-18T10:19:26Z</time>
      </trkpt>
      <trkpt lat="43.21537" lon="5.48172">
        <ele>239.4</ele>
        <time>2025-10-18T10:19:27Z</time>
      </trkpt>
      <trkpt lat="43.21537" lon="5.48171">
        <ele>239.3</ele>
        <time>2025-10-18T10:19:28Z</time>
      </trkpt>
      <trkpt lat="43.21538" lon="5.4817">
        <ele>239.3</ele>
        <time>2025-10-18T10:19:29Z</time>
      </trkpt>
      <trkpt lat="43.21538" lon="5.48169">
        <ele>239.5</ele>
        <time>2025-10-18T10:19:30Z</time>
      </trkpt>
      <trkpt lat="43.21539" lon="5.48168">
        <ele>239.7</ele>
        <time>2025-10-18T10:19:31Z</time>
      </trkpt>
      <trkpt lat="43.21539" lon="5.48167">
        <ele>239.8</ele>
        <time>2025-10-18T10:19:32Z</time>
      </trkpt>
      <trkpt lat="43.2154" lon="5.48166">
        <ele>239.9</ele>
        <time>2025-10-18T10:19:33Z</time>
      </trkpt>
      <trkpt lat="43.21539" lon="5.48166">
        <ele>240.1</ele>
        <time>2025-10-18T10:19:34Z</time>
      </trkpt>
      <trkpt lat="43.21538" lon="5.48165">
        <ele>240.2</ele>
        <time>2025-10-18T10:19:35Z</time>
      </trkpt>
      <trkpt lat="43.21537" lon="5.48165">
        <ele>240.3</ele>
        <time>2025-10-18T10:19:36Z</time>
      </trkpt>
      <trkpt lat="43.21537" lon="5.48165">
        <ele>240.6</ele>
        <time>2025-10-18T10:19:37Z</time>
      </trkpt>
      <trkpt lat="43.21536" lon="5.48165">
        <ele>240.8</ele>
        <time>2025-10-18T10:19:38Z</time>
      </trkpt>
      <trkpt lat="43.21536" lon="5.48166">
        <ele>240.8</ele>
        <time>2025-10-18T10:19:39Z</time>
      </trkpt>
      <trkpt lat="43.21535" lon="5.48166">
        <ele>241</ele>
        <time>2025-10-18T10:19:40Z</time>
      </trkpt>
      <trkpt lat="43.21535" lon="5.48166">
        <ele>241.1</ele>
        <time>2025-10-18T10:19:41Z</time>
      </trkpt>
      <trkpt lat="43.21535" lon="5.48166">
        <ele>241.2</ele>
        <time>2025-10-18T10:19:42Z</time>
      </trkpt>
      <trkpt lat="43.21534" lon="5.48166">
        <ele>241.3</ele>
        <time>2025-10-18T10:19:43Z</time>
      </trkpt>
      <trkpt lat="43.21534" lon="5.48166">
        <ele>241.4</ele>
        <time>2025-10-18T10:19:44Z</time>
      </trkpt>
      <trkpt lat="43.21533" lon="5.48167">
        <ele>241.5</ele>
        <time>2025-10-18T10:19:45Z</time>
      </trkpt>
      <trkpt lat="43.21533" lon="5.48168">
        <ele>241.6</ele>
        <time>2025-10-18T10:19:46Z</time>
      </trkpt>
      <trkpt lat="43.21532" lon="5.48168">
        <ele>241.7</ele>
        <time>2025-10-18T10:19:47Z</time>
      </trkpt>
      <trkpt lat="43.21531" lon="5.48169">
        <ele>241.8</ele>
        <time>2025-10-18T10:19:48Z</time>
      </trkpt>
      <trkpt lat="43.2153" lon="5.4817">
        <ele>241.9</ele>
        <time>2025-10-18T10:19:49Z</time>
      </trkpt>
      <trkpt lat="43.21529" lon="5.4817">
        <ele>242.1</ele>
        <time>2025-10-18T10:19:50Z</time>
      </trkpt>
      <trkpt lat="43.21529" lon="5.48171">
        <ele>242.3</ele>
        <time>2025-10-18T10:19:51Z</time>
      </trkpt>
      <trkpt lat="43.21528" lon="5.48172">
        <ele>242.4</ele>
        <time>2025-10-18T10:19:52Z</time>
      </trkpt>
      <trkpt lat="43.21527" lon="5.48173">
        <ele>242.6</ele>
        <time>2025-10-18T10:19:53Z</time>
      </trkpt>
      <trkpt lat="43.21527" lon="5.48174">
        <ele>242.8</ele>
        <time>2025-10-18T10:19:54Z</time>
      </trkpt>
      <trkpt lat="43.21526" lon="5.48174">
        <ele>243.1</ele>
        <time>2025-10-18T10:19:55Z</time>
      </trkpt>
      <trkpt lat="43.21525" lon="5.48175">
        <ele>243.4</ele>
        <time>2025-10-18T10:19:56Z</time>
      </trkpt>
      <trkpt lat="43.21525" lon="5.48175">
        <ele>243.7</ele>
        <time>2025-10-18T10:19:57Z</time>
      </trkpt>
      <trkpt lat="43.21524" lon="5.48177">
        <ele>243.7</ele>
        <time>2025-10-18T10:19:58Z</time>
      </trkpt>
      <trkpt lat="43.21524" lon="5.48178">
        <ele>243.8</ele>
        <time>2025-10-18T10:19:59Z</time>
      </trkpt>
      <trkpt lat="43.21523" lon="5.48178">
        <ele>244</ele>
        <time>2025-10-18T10:20:00Z</time>
      </trkpt>
      <trkpt lat="43.21523" lon="5.48179">
        <ele>244.3</ele>
        <time>2025-10-18T10:20:01Z</time>
      </trkpt>
      <trkpt lat="43.21522" lon="5.48179">
        <ele>244.5</ele>
        <time>2025-10-18T10:20:02Z</time>
      </trkpt>
      <trkpt lat="43.21522" lon="5.4818">
        <ele>244.6</ele>
        <time>2025-10-18T10:20:03Z</time>
      </trkpt>
      <trkpt lat="43.21521" lon="5.48181">
        <ele>244.8</ele>
        <time>2025-10-18T10:20:04Z</time>
      </trkpt>
      <trkpt lat="43.21521" lon="5.48182">
        <ele>245</ele>
        <time>2025-10-18T10:20:05Z</time>
      </trkpt>
      <trkpt lat="43.21521" lon="5.48183">
        <ele>245.2</ele>
        <time>2025-10-18T10:20:06Z</time>
      </trkpt>
      <trkpt lat="43.21521" lon="5.48184">
        <ele>245.4</ele>
        <time>2025-10-18T10:20:07Z</time>
      </trkpt>
      <trkpt lat="43.21521" lon="5.48185">
        <ele>245.6</ele>
        <time>2025-10-18T10:20:08Z</time>
      </trkpt>
      <trkpt lat="43.21521" lon="5.48187">
        <ele>245.7</ele>
        <time>2025-10-18T10:20:09Z</time>
      </trkpt>
      <trkpt lat="43.21521" lon="5.48187">
        <ele>245.9</ele>
        <time>2025-10-18T10:20:10Z</time>
      </trkpt>
      <trkpt lat="43.2152" lon="5.48188">
        <ele>246.2</ele>
        <time>2025-10-18T10:20:11Z</time>
      </trkpt>
      <trkpt lat="43.2152" lon="5.48188">
        <ele>246.4</ele>
        <time>2025-10-18T10:20:12Z</time>
      </trkpt>
      <trkpt lat="43.2152" lon="5.48187">
        <ele>246.6</ele>
        <time>2025-10-18T10:20:13Z</time>
      </trkpt>
      <trkpt lat="43.2152" lon="5.48187">
        <ele>246.8</ele>
        <time>2025-10-18T10:20:14Z</time>
      </trkpt>
      <trkpt lat="43.21519" lon="5.48186">
        <ele>246.9</ele>
        <time>2025-10-18T10:20:15Z</time>
      </trkpt>
      <trkpt lat="43.21519" lon="5.48186">
        <ele>247</ele>
        <time>2025-10-18T10:20:16Z</time>
      </trkpt>
      <trkpt lat="43.21519" lon="5.48185">
        <ele>247.2</ele>
        <time>2025-10-18T10:20:17Z</time>
      </trkpt>
      <trkpt lat="43.21518" lon="5.48186">
        <ele>247.5</ele>
        <time>2025-10-18T10:20:18Z</time>
      </trkpt>
      <trkpt lat="43.21518" lon="5.48187">
        <ele>247.6</ele>
        <time>2025-10-18T10:20:19Z</time>
      </trkpt>
      <trkpt lat="43.21517" lon="5.48187">
        <ele>247.8</ele>
        <time>2025-10-18T10:20:20Z</time>
      </trkpt>
      <trkpt lat="43.21517" lon="5.48188">
        <ele>247.9</ele>
        <time>2025-10-18T10:20:21Z</time>
      </trkpt>
      <trkpt lat="43.21516" lon="5.48189">
        <ele>248.1</ele>
        <time>2025-10-18T10:20:22Z</time>
      </trkpt>
      <trkpt lat="43.21516" lon="5.48191">
        <ele>248.2</ele>
        <time>2025-10-18T10:20:23Z</time>
      </trkpt>
      <trkpt lat="43.21516" lon="5.48192">
        <ele>248.3</ele>
        <time>2025-10-18T10:20:24Z</time>
      </trkpt>
      <trkpt lat="43.21516" lon="5.48192">
        <ele>248.5</ele>
        <time>2025-10-18T10:20:25Z</time>
      </trkpt>
      <trkpt lat="43.21516" lon="5.48193">
        <ele>248.6</ele>
        <time>2025-10-18T10:20:26Z</time>
      </trkpt>
      <trkpt lat="43.21515" lon="5.48193">
        <ele>248.7</ele>
        <time>2025-10-18T10:20:27Z</time>
      </trkpt>
      <trkpt lat="43.21515" lon="5.48193">
        <ele>248.8</ele>
        <time>2025-10-18T10:20:28Z</time>
      </trkpt>
      <trkpt lat="43.21515" lon="5.48193">
        <ele>249</ele>
        <time>2025-10-18T10:20:29Z</time>
      </trkpt>
      <trkpt lat="43.21514" lon="5.48193">
        <ele>249.1</ele>
        <time>2025-10-18T10:20:30Z</time>
      </trkpt>
      <trkpt lat="43.21514" lon="5.48192">
        <ele>249.3</ele>
        <time>2025-10-18T10:20:31Z</time>
      </trkpt>
      <trkpt lat="43.21514" lon="5.48191">
        <ele>249.4</ele>
        <time>2025-10-18T10:20:32Z</time>
      </trkpt>
      <trkpt lat="43.21514" lon="5.48191">
        <ele>249.7</ele>
        <time>2025-10-18T10:20:33Z</time>
      </trkpt>
      <trkpt lat="43.21513" lon="5.4819">
        <ele>249.8</ele>
        <time>2025-10-18T10:20:34Z</time>
      </trkpt>
      <trkpt lat="43.21513" lon="5.48191">
        <ele>250</ele>
        <time>2025-10-18T10:20:35Z</time>
      </trkpt>
      <trkpt lat="43.21512" lon="5.48191">
        <ele>250.2</ele>
        <time>2025-10-18T10:20:36Z</time>
      </trkpt>
      <trkpt lat="43.21512" lon="5.48192">
        <ele>250.3</ele>
        <time>2025-10-18T10:20:37Z</time>
      </trkpt>
      <trkpt lat="43.21512" lon="5.48192">
        <ele>250.5</ele>
        <time>2025-10-18T10:20:38Z</time>
      </trkpt>
      <trkpt lat="43.21511" lon="5.48193">
        <ele>250.6</ele>
        <time>2025-10-18T10:20:39Z</time>
      </trkpt>
      <trkpt lat="43.21511" lon="5.48194">
        <ele>250.7</ele>
        <time>2025-10-18T10:20:40Z</time>
      </trkpt>
      <trkpt lat="43.2151" lon="5.48194">
        <ele>250.7</ele>
        <time>2025-10-18T10:20:41Z</time>
      </trkpt>
      <trkpt lat="43.2151" lon="5.48196">
        <ele>250.8</ele>
        <time>2025-10-18T10:20:42Z</time>
      </trkpt>
      <trkpt lat="43.2151" lon="5.48197">
        <ele>250.9</ele>
        <time>2025-10-18T10:20:43Z</time>
      </trkpt>
      <trkpt lat="43.2151" lon="5.48198">
        <ele>251.2</ele>
        <time>2025-10-18T10:20:44Z</time>
      </trkpt>
      <trkpt lat="43.21509" lon="5.48199">
        <ele>251.3</ele>
        <time>2025-10-18T10:20:45Z</time>
      </trkpt>
      <trkpt lat="43.21508" lon="5.482">
        <ele>251.5</ele>
        <time>2025-10-18T10:20:46Z</time>
      </trkpt>
      <trkpt lat="43.21507" lon="5.48201">
        <ele>251.6</ele>
        <time>2025-10-18T10:20:47Z</time>
      </trkpt>
      <trkpt lat="43.21507" lon="5.48201">
        <ele>251.6</ele>
        <time>2025-10-18T10:20:48Z</time>
      </trkpt>
      <trkpt lat="43.21506" lon="5.48202">
        <ele>251.7</ele>
        <time>2025-10-18T10:20:49Z</time>
      </trkpt>
      <trkpt lat="43.21506" lon="5.48203">
        <ele>251.8</ele>
        <time>2025-10-18T10:20:50Z</time>
      </trkpt>
      <trkpt lat="43.21505" lon="5.48204">
        <ele>251.8</ele>
        <time>2025-10-18T10:20:51Z</time>
      </trkpt>
      <trkpt lat="43.21505" lon="5.48205">
        <ele>252</ele>
        <time>2025-10-18T10:20:52Z</time>
      </trkpt>
      <trkpt lat="43.21504" lon="5.48206">
        <ele>252</ele>
        <time>2025-10-18T10:20:53Z</time>
      </trkpt>
      <trkpt lat="43.21503" lon="5.48207">
        <ele>252.1</ele>
        <time>2025-10-18T10:20:54Z</time>
      </trkpt>
      <trkpt lat="43.21503" lon="5.48207">
        <ele>252.3</ele>
        <time>2025-10-18T10:20:55Z</time>
      </trkpt>
      <trkpt lat="43.21503" lon="5.48208">
        <ele>252.4</ele>
        <time>2025-10-18T10:20:56Z</time>
      </trkpt>
      <trkpt lat="43.21502" lon="5.48209">
        <ele>252.6</ele>
        <time>2025-10-18T10:20:57Z</time>
      </trkpt>
      <trkpt lat="43.21502" lon="5.4821">
        <ele>252.7</ele>
        <time>2025-10-18T10:20:58Z</time>
      </trkpt>
      <trkpt lat="43.21501" lon="5.48211">
        <ele>252.8</ele>
        <time>2025-10-18T10:20:59Z</time>
      </trkpt>
      <trkpt lat="43.21501" lon="5.48212">
        <ele>252.8</ele>
        <time>2025-10-18T10:21:00Z</time>
      </trkpt>
      <trkpt lat="43.215" lon="5.48213">
        <ele>252.8</ele>
        <time>2025-10-18T10:21:01Z</time>
      </trkpt>
      <trkpt lat="43.21499" lon="5.48213">
        <ele>252.8</ele>
        <time>2025-10-18T10:21:02Z</time>
      </trkpt>
      <trkpt lat="43.21499" lon="5.48214">
        <ele>252.8</ele>
        <time>2025-10-18T10:21:03Z</time>
      </trkpt>
      <trkpt lat="43.21498" lon="5.48214">
        <ele>252.8</ele>
        <time>2025-10-18T10:21:04Z</time>
      </trkpt>
      <trkpt lat="43.21498" lon="5.48214">
        <ele>252.8</ele>
        <time>2025-10-18T10:21:05Z</time>
      </trkpt>
      <trkpt lat="43.21497" lon="5.48215">
        <ele>252.8</ele>
        <time>2025-10-18T10:21:06Z</time>
      </trkpt>
      <trkpt lat="43.21497" lon="5.48215">
        <ele>252.8</ele>
        <time>2025-10-18T10:21:07Z</time>
      </trkpt>
      <trkpt lat="43.21497" lon="5.48215">
        <ele>252.8</ele>
        <time>2025-10-18T10:21:08Z</time>
      </trkpt>
      <trkpt lat="43.21496" lon="5.48216">
        <ele>252.8</ele>
        <time>2025-10-18T10:21:09Z</time>
      </trkpt>
      <trkpt lat="43.21496" lon="5.48216">
        <ele>252.8</ele>
        <time>2025-10-18T10:21:10Z</time>
      </trkpt>
      <trkpt lat="43.21496" lon="5.48216">
        <ele>252.8</ele>
        <time>2025-10-18T10:21:11Z</time>
      </trkpt>
      <trkpt lat="43.21496" lon="5.48216">
        <ele>252.8</ele>
        <time>2025-10-18T10:21:12Z</time>
      </trkpt>
      <trkpt lat="43.21496" lon="5.48215">
        <ele>252.7</ele>
        <time>2025-10-18T10:21:13Z</time>
      </trkpt>
      <trkpt lat="43.21496" lon="5.48215">
        <ele>252.7</ele>
        <time>2025-10-18T10:21:14Z</time>
      </trkpt>
      <trkpt lat="43.21497" lon="5.48215">
        <ele>252.7</ele>
        <time>2025-10-18T10:21:15Z</time>
      </trkpt>
      <trkpt lat="43.21497" lon="5.48215">
        <ele>252.6</ele>
        <time>2025-10-18T10:21:16Z</time>
      </trkpt>
      <trkpt lat="43.21497" lon="5.48215">
        <ele>252.7</ele>
        <time>2025-10-18T10:21:17Z</time>
      </trkpt>
      <trkpt lat="43.21496" lon="5.48215">
        <ele>252.7</ele>
        <time>2025-10-18T10:21:18Z</time>
      </trkpt>
      <trkpt lat="43.21496" lon="5.48216">
        <ele>252.7</ele>
        <time>2025-10-18T10:21:19Z</time>
      </trkpt>
      <trkpt lat="43.21496" lon="5.48216">
        <ele>252.7</ele>
        <time>2025-10-18T10:21:20Z</time>
      </trkpt>
      <trkpt lat="43.21497" lon="5.48216">
        <ele>252.7</ele>
        <time>2025-10-18T10:21:21Z</time>
      </trkpt>
      <trkpt lat="43.21497" lon="5.48216">
        <ele>252.7</ele>
        <time>2025-10-18T10:21:22Z</time>
      </trkpt>
      <trkpt lat="43.21497" lon="5.48216">
        <ele>252.7</ele>
        <time>2025-10-18T10:21:23Z</time>
      </trkpt>
      <trkpt lat="43.21497" lon="5.48216">
        <ele>252.7</ele>
        <time>2025-10-18T10:21:24Z</time>
      </trkpt>
      <trkpt lat="43.21497" lon="5.48216">
        <ele>252.6</ele>
        <time>2025-10-18T10:21:25Z</time>
      </trkpt>
      <trkpt lat="43.21497" lon="5.48216">
        <ele>252.6</ele>
        <time>2025-10-18T10:21:26Z</time>
      </trkpt>
      <trkpt lat="43.21497" lon="5.48215">
        <ele>252.6</ele>
        <time>2025-10-18T10:21:27Z</time>
      </trkpt>
      <trkpt lat="43.21497" lon="5.48215">
        <ele>252.6</ele>
        <time>2025-10-18T10:21:28Z</time>
      </trkpt>
      <trkpt lat="43.21497" lon="5.48215">
        <ele>252.6</ele>
        <time>2025-10-18T10:21:29Z</time>
      </trkpt>
      <trkpt lat="43.21497" lon="5.48215">
        <ele>252.6</ele>
        <time>2025-10-18T10:21:30Z</time>
      </trkpt>
      <trkpt lat="43.21497" lon="5.48215">
        <ele>252.6</ele>
        <time>2025-10-18T10:21:31Z</time>
      </trkpt>
      <trkpt lat="43.21497" lon="5.48215">
        <ele>252.6</ele>
        <time>2025-10-18T10:21:32Z</time>
      </trkpt>
      <trkpt lat="43.21497" lon="5.48215">
        <ele>252.6</ele>
        <time>2025-10-18T10:21:33Z</time>
      </trkpt>
      <trkpt lat="43.21497" lon="5.48215">
        <ele>252.6</ele>
        <time>2025-10-18T10:21:34Z</time>
      </trkpt>
      <trkpt lat="43.21497" lon="5.48215">
        <ele>252.6</ele>
        <time>2025-10-18T10:21:35Z</time>
      </trkpt>
      <trkpt lat="43.21497" lon="5.48215">
        <ele>252.6</ele>
        <time>2025-10-18T10:21:36Z</time>
      </trkpt>
      <trkpt lat="43.21497" lon="5.48215">
        <ele>252.6</ele>
        <time>2025-10-18T10:21:37Z</time>
      </trkpt>
      <trkpt lat="43.21497" lon="5.48215">
        <ele>252.5</ele>
        <time>2025-10-18T10:21:38Z</time>
      </trkpt>
      <trkpt lat="43.21497" lon="5.48215">
        <ele>252.4</ele>
        <time>2025-10-18T10:21:39Z</time>
      </trkpt>
      <trkpt lat="43.21497" lon="5.48215">
        <ele>252.5</ele>
        <time>2025-10-18T10:21:40Z</time>
      </trkpt>
      <trkpt lat="43.21497" lon="5.48215">
        <ele>252.5</ele>
        <time>2025-10-18T10:21:41Z</time>
      </trkpt>
      <trkpt lat="43.21497" lon="5.48215">
        <ele>252.5</ele>
        <time>2025-10-18T10:21:42Z</time>
      </trkpt>
      <trkpt lat="43.21497" lon="5.48215">
        <ele>252.5</ele>
        <time>2025-10-18T10:21:43Z</time>
      </trkpt>
      <trkpt lat="43.21497" lon="5.48215">
        <ele>252.5</ele>
        <time>2025-10-18T10:21:44Z</time>
      </trkpt>
      <trkpt lat="43.21497" lon="5.48215">
        <ele>252.5</ele>
        <time>2025-10-18T10:21:45Z</time>
      </trkpt>
      <trkpt lat="43.21497" lon="5.48215">
        <ele>252.4</ele>
        <time>2025-10-18T10:21:46Z</time>
      </trkpt>
      <trkpt lat="43.21497" lon="5.48215">
        <ele>252.4</ele>
        <time>2025-10-18T10:21:47Z</time>
      </trkpt>
      <trkpt lat="43.21497" lon="5.48215">
        <ele>252.3</ele>
        <time>2025-10-18T10:21:48Z</time>
      </trkpt>
      <trkpt lat="43.21497" lon="5.48215">
        <ele>252.3</ele>
        <time>2025-10-18T10:21:49Z</time>
      </trkpt>
      <trkpt lat="43.21497" lon="5.48215">
        <ele>252.4</ele>
        <time>2025-10-18T10:21:50Z</time>
      </trkpt>
      <trkpt lat="43.21497" lon="5.48215">
        <ele>252.5</ele>
        <time>2025-10-18T10:21:51Z</time>
      </trkpt>
      <trkpt lat="43.21497" lon="5.48215">
        <ele>252.5</ele>
        <time>2025-10-18T10:21:52Z</time>
      </trkpt>
      <trkpt lat="43.21497" lon="5.48215">
        <ele>252.5</ele>
        <time>2025-10-18T10:21:53Z</time>
      </trkpt>
      <trkpt lat="43.21497" lon="5.48215">
        <ele>252.4</ele>
        <time>2025-10-18T10:21:54Z</time>
      </trkpt>
      <trkpt lat="43.21497" lon="5.48215">
        <ele>252.4</ele>
        <time>2025-10-18T10:21:55Z</time>
      </trkpt>
      <trkpt lat="43.21497" lon="5.48215">
        <ele>252.5</ele>
        <time>2025-10-18T10:21:56Z</time>
      </trkpt>
      <trkpt lat="43.21497" lon="5.48215">
        <ele>252.6</ele>
        <time>2025-10-18T10:21:57Z</time>
      </trkpt>
      <trkpt lat="43.21496" lon="5.48214">
        <ele>252.6</ele>
        <time>2025-10-18T10:21:58Z</time>
      </trkpt>
      <trkpt lat="43.21496" lon="5.48214">
        <ele>252.6</ele>
        <time>2025-10-18T10:21:59Z</time>
      </trkpt>
      <trkpt lat="43.21496" lon="5.48215">
        <ele>252.6</ele>
        <time>2025-10-18T10:22:00Z</time>
      </trkpt>
      <trkpt lat="43.21496" lon="5.48215">
        <ele>252.6</ele>
        <time>2025-10-18T10:22:01Z</time>
      </trkpt>
      <trkpt lat="43.21496" lon="5.48215">
        <ele>252.6</ele>
        <time>2025-10-18T10:22:02Z</time>
      </trkpt>
      <trkpt lat="43.21496" lon="5.48215">
        <ele>252.6</ele>
        <time>2025-10-18T10:22:03Z</time>
      </trkpt>
      <trkpt lat="43.21496" lon="5.48215">
        <ele>252.6</ele>
        <time>2025-10-18T10:22:04Z</time>
      </trkpt>
      <trkpt lat="43.21496" lon="5.48215">
        <ele>252.6</ele>
        <time>2025-10-18T10:22:05Z</time>
      </trkpt>
      <trkpt lat="43.21496" lon="5.48215">
        <ele>252.6</ele>
        <time>2025-10-18T10:22:06Z</time>
      </trkpt>
      <trkpt lat="43.21496" lon="5.48215">
        <ele>252.6</ele>
        <time>2025-10-18T10:22:07Z</time>
      </trkpt>
      <trkpt lat="43.21496" lon="5.48215">
        <ele>252.7</ele>
        <time>2025-10-18T10:22:08Z</time>
      </trkpt>
      <trkpt lat="43.21496" lon="5.48215">
        <ele>252.7</ele>
        <time>2025-10-18T10:22:09Z</time>
      </trkpt>
      <trkpt lat="43.21496" lon="5.48214">
        <ele>252.7</ele>
        <time>2025-10-18T10:22:10Z</time>
      </trkpt>
      <trkpt lat="43.21496" lon="5.48214">
        <ele>252.7</ele>
        <time>2025-10-18T10:22:11Z</time>
      </trkpt>
      <trkpt lat="43.21496" lon="5.48214">
        <ele>252.7</ele>
        <time>2025-10-18T10:22:12Z</time>
      </trkpt>
      <trkpt lat="43.21496" lon="5.48214">
        <ele>252.6</ele>
        <time>2025-10-18T10:22:13Z</time>
      </trkpt>
      <trkpt lat="43.21496" lon="5.48214">
        <ele>252.6</ele>
        <time>2025-10-18T10:22:14Z</time>
      </trkpt>
      <trkpt lat="43.21496" lon="5.48214">
        <ele>252.7</ele>
        <time>2025-10-18T10:22:15Z</time>
      </trkpt>
      <trkpt lat="43.21496" lon="5.48214">
        <ele>252.8</ele>
        <time>2025-10-18T10:22:16Z</time>
      </trkpt>
      <trkpt lat="43.21495" lon="5.48214">
        <ele>252.8</ele>
        <time>2025-10-18T10:22:17Z</time>
      </trkpt>
      <trkpt lat="43.21495" lon="5.48214">
        <ele>252.9</ele>
        <time>2025-10-18T10:22:18Z</time>
      </trkpt>
      <trkpt lat="43.21495" lon="5.48214">
        <ele>253</ele>
        <time>2025-10-18T10:22:19Z</time>
      </trkpt>
      <trkpt lat="43.21495" lon="5.48214">
        <ele>252.9</ele>
        <time>2025-10-18T10:22:20Z</time>
      </trkpt>
      <trkpt lat="43.21495" lon="5.48214">
        <ele>252.9</ele>
        <time>2025-10-18T10:22:21Z</time>
      </trkpt>
      <trkpt lat="43.21495" lon="5.48214">
        <ele>252.9</ele>
        <time>2025-10-18T10:22:22Z</time>
      </trkpt>
      <trkpt lat="43.21495" lon="5.48214">
        <ele>252.9</ele>
        <time>2025-10-18T10:22:23Z</time>
      </trkpt>
      <trkpt lat="43.21495" lon="5.48214">
        <ele>252.9</ele>
        <time>2025-10-18T10:22:24Z</time>
      </trkpt>
      <trkpt lat="43.21495" lon="5.48214">
        <ele>252.9</ele>
        <time>2025-10-18T10:22:25Z</time>
      </trkpt>
      <trkpt lat="43.21495" lon="5.48213">
        <ele>252.9</ele>
        <time>2025-10-18T10:22:26Z</time>
      </trkpt>
      <trkpt lat="43.21495" lon="5.48213">
        <ele>252.9</ele>
        <time>2025-10-18T10:22:27Z</time>
      </trkpt>
      <trkpt lat="43.21495" lon="5.48213">
        <ele>252.9</ele>
        <time>2025-10-18T10:22:28Z</time>
      </trkpt>
      <trkpt lat="43.21495" lon="5.48213">
        <ele>252.8</ele>
        <time>2025-10-18T10:22:29Z</time>
      </trkpt>
      <trkpt lat="43.21495" lon="5.48213">
        <ele>252.9</ele>
        <time>2025-10-18T10:22:30Z</time>
      </trkpt>
      <trkpt lat="43.21495" lon="5.48213">
        <ele>252.9</ele>
        <time>2025-10-18T10:22:31Z</time>
      </trkpt>
      <trkpt lat="43.21495" lon="5.48213">
        <ele>252.9</ele>
        <time>2025-10-18T10:22:32Z</time>
      </trkpt>
      <trkpt lat="43.21495" lon="5.48213">
        <ele>252.8</ele>
        <time>2025-10-18T10:22:33Z</time>
      </trkpt>
      <trkpt lat="43.21495" lon="5.48213">
        <ele>252.8</ele>
        <time>2025-10-18T10:22:34Z</time>
      </trkpt>
      <trkpt lat="43.21495" lon="5.48213">
        <ele>252.8</ele>
        <time>2025-10-18T10:22:35Z</time>
      </trkpt>
      <trkpt lat="43.21495" lon="5.48213">
        <ele>252.9</ele>
        <time>2025-10-18T10:22:36Z</time>
      </trkpt>
      <trkpt lat="43.21495" lon="5.48213">
        <ele>252.9</ele>
        <time>2025-10-18T10:22:37Z</time>
      </trkpt>
      <trkpt lat="43.21495" lon="5.48213">
        <ele>253</ele>
        <time>2025-10-18T10:22:38Z</time>
      </trkpt>
      <trkpt lat="43.21495" lon="5.48213">
        <ele>253</ele>
        <time>2025-10-18T10:22:39Z</time>
      </trkpt>
      <trkpt lat="43.21495" lon="5.48213">
        <ele>252.9</ele>
        <time>2025-10-18T10:22:40Z</time>
      </trkpt>
      <trkpt lat="43.21495" lon="5.48213">
        <ele>253</ele>
        <time>2025-10-18T10:22:41Z</time>
      </trkpt>
      <trkpt lat="43.21495" lon="5.48213">
        <ele>253</ele>
        <time>2025-10-18T10:22:42Z</time>
      </trkpt>
      <trkpt lat="43.21495" lon="5.48213">
        <ele>253</ele>
        <time>2025-10-18T10:22:43Z</time>
      </trkpt>
      <trkpt lat="43.21495" lon="5.48213">
        <ele>253</ele>
        <time>2025-10-18T10:22:44Z</time>
      </trkpt>
      <trkpt lat="43.21495" lon="5.48213">
        <ele>252.9</ele>
        <time>2025-10-18T10:22:45Z</time>
      </trkpt>
      <trkpt lat="43.21495" lon="5.48213">
        <ele>252.9</ele>
        <time>2025-10-18T10:22:46Z</time>
      </trkpt>
      <trkpt lat="43.21495" lon="5.48213">
        <ele>252.7</ele>
        <time>2025-10-18T10:22:47Z</time>
      </trkpt>
      <trkpt lat="43.21495" lon="5.48213">
        <ele>252.7</ele>
        <time>2025-10-18T10:22:48Z</time>
      </trkpt>
      <trkpt lat="43.21495" lon="5.48213">
        <ele>252.6</ele>
        <time>2025-10-18T10:22:49Z</time>
      </trkpt>
      <trkpt lat="43.21495" lon="5.48213">
        <ele>252.6</ele>
        <time>2025-10-18T10:22:50Z</time>
      </trkpt>
      <trkpt lat="43.21495" lon="5.48213">
        <ele>252.5</ele>
        <time>2025-10-18T10:22:51Z</time>
      </trkpt>
      <trkpt lat="43.21495" lon="5.48213">
        <ele>252.5</ele>
        <time>2025-10-18T10:22:52Z</time>
      </trkpt>
      <trkpt lat="43.21495" lon="5.48213">
        <ele>252.5</ele>
        <time>2025-10-18T10:22:53Z</time>
      </trkpt>
      <trkpt lat="43.21495" lon="5.48213">
        <ele>252.5</ele>
        <time>2025-10-18T10:22:54Z</time>
      </trkpt>
      <trkpt lat="43.21495" lon="5.48213">
        <ele>252.6</ele>
        <time>2025-10-18T10:22:55Z</time>
      </trkpt>
      <trkpt lat="43.21495" lon="5.48212">
        <ele>252.6</ele>
        <time>2025-10-18T10:22:56Z</time>
      </trkpt>
      <trkpt lat="43.21495" lon="5.48213">
        <ele>252.7</ele>
        <time>2025-10-18T10:22:57Z</time>
      </trkpt>
      <trkpt lat="43.21495" lon="5.48213">
        <ele>252.8</ele>
        <time>2025-10-18T10:22:58Z</time>
      </trkpt>
      <trkpt lat="43.21495" lon="5.48212">
        <ele>252.8</ele>
        <time>2025-10-18T10:22:59Z</time>
      </trkpt>
      <trkpt lat="43.21495" lon="5.48212">
        <ele>252.8</ele>
        <time>2025-10-18T10:23:00Z</time>
      </trkpt>
      <trkpt lat="43.21495" lon="5.48212">
        <ele>252.8</ele>
        <time>2025-10-18T10:23:01Z</time>
      </trkpt>
      <trkpt lat="43.21494" lon="5.48213">
        <ele>252.8</ele>
        <time>2025-10-18T10:23:02Z</time>
      </trkpt>
      <trkpt lat="43.21494" lon="5.48213">
        <ele>252.7</ele>
        <time>2025-10-18T10:23:03Z</time>
      </trkpt>
      <trkpt lat="43.21494" lon="5.48213">
        <ele>252.7</ele>
        <time>2025-10-18T10:23:04Z</time>
      </trkpt>
      <trkpt lat="43.21494" lon="5.48213">
        <ele>252.7</ele>
        <time>2025-10-18T10:23:05Z</time>
      </trkpt>
      <trkpt lat="43.21494" lon="5.48213">
        <ele>252.7</ele>
        <time>2025-10-18T10:23:06Z</time>
      </trkpt>
      <trkpt lat="43.21494" lon="5.48213">
        <ele>252.7</ele>
        <time>2025-10-18T10:23:07Z</time>
      </trkpt>
      <trkpt lat="43.21494" lon="5.48213">
        <ele>252.7</ele>
        <time>2025-10-18T10:23:08Z</time>
      </trkpt>
      <trkpt lat="43.21494" lon="5.48213">
        <ele>252.7</ele>
        <time>2025-10-18T10:23:09Z</time>
      </trkpt>
      <trkpt lat="43.21494" lon="5.48213">
        <ele>252.6</ele>
        <time>2025-10-18T10:23:10Z</time>
      </trkpt>
      <trkpt lat="43.21494" lon="5.48213">
        <ele>252.7</ele>
        <time>2025-10-18T10:23:11Z</time>
      </trkpt>
      <trkpt lat="43.21494" lon="5.48213">
        <ele>252.7</ele>
        <time>2025-10-18T10:23:12Z</time>
      </trkpt>
      <trkpt lat="43.21494" lon="5.48213">
        <ele>252.8</ele>
        <time>2025-10-18T10:23:13Z</time>
      </trkpt>
      <trkpt lat="43.21494" lon="5.48213">
        <ele>252.7</ele>
        <time>2025-10-18T10:23:14Z</time>
      </trkpt>
      <trkpt lat="43.21494" lon="5.48213">
        <ele>252.7</ele>
        <time>2025-10-18T10:23:15Z</time>
      </trkpt>
      <trkpt lat="43.21494" lon="5.48213">
        <ele>252.6</ele>
        <time>2025-10-18T10:23:16Z</time>
      </trkpt>
      <trkpt lat="43.21494" lon="5.48213">
        <ele>252.7</ele>
        <time>2025-10-18T10:23:17Z</time>
      </trkpt>
      <trkpt lat="43.21494" lon="5.48212">
        <ele>252.7</ele>
        <time>2025-10-18T10:23:18Z</time>
      </trkpt>
      <trkpt lat="43.21495" lon="5.48212">
        <ele>252.8</ele>
        <time>2025-10-18T10:23:19Z</time>
      </trkpt>
      <trkpt lat="43.21495" lon="5.48212">
        <ele>252.7</ele>
        <time>2025-10-18T10:23:20Z</time>
      </trkpt>
      <trkpt lat="43.21495" lon="5.48212">
        <ele>252.7</ele>
        <time>2025-10-18T10:23:21Z</time>
      </trkpt>
      <trkpt lat="43.21495" lon="5.48212">
        <ele>252.7</ele>
        <time>2025-10-18T10:23:22Z</time>
      </trkpt>
      <trkpt lat="43.21495" lon="5.48212">
        <ele>252.7</ele>
        <time>2025-10-18T10:23:23Z</time>
      </trkpt>
      <trkpt lat="43.21495" lon="5.48212">
        <ele>252.7</ele>
        <time>2025-10-18T10:23:24Z</time>
      </trkpt>
      <trkpt lat="43.21495" lon="5.48212">
        <ele>252.7</ele>
        <time>2025-10-18T10:23:25Z</time>
      </trkpt>
      <trkpt lat="43.21495" lon="5.48212">
        <ele>252.7</ele>
        <time>2025-10-18T10:23:26Z</time>
      </trkpt>
      <trkpt lat="43.21495" lon="5.48212">
        <ele>252.8</ele>
        <time>2025-10-18T10:23:27Z</time>
      </trkpt>
      <trkpt lat="43.21495" lon="5.48212">
        <ele>252.8</ele>
        <time>2025-10-18T10:23:28Z</time>
      </trkpt>
      <trkpt lat="43.21495" lon="5.48212">
        <ele>252.8</ele>
        <time>2025-10-18T10:23:29Z</time>
      </trkpt>
      <trkpt lat="43.21495" lon="5.48212">
        <ele>252.7</ele>
        <time>2025-10-18T10:23:30Z</time>
      </trkpt>
      <trkpt lat="43.21495" lon="5.48212">
        <ele>252.7</ele>
        <time>2025-10-18T10:23:31Z</time>
      </trkpt>
      <trkpt lat="43.21495" lon="5.48213">
        <ele>252.7</ele>
        <time>2025-10-18T10:23:32Z</time>
      </trkpt>
      <trkpt lat="43.21495" lon="5.48213">
        <ele>252.7</ele>
        <time>2025-10-18T10:23:33Z</time>
      </trkpt>
      <trkpt lat="43.21495" lon="5.48213">
        <ele>252.7</ele>
        <time>2025-10-18T10:23:34Z</time>
      </trkpt>
      <trkpt lat="43.21495" lon="5.48213">
        <ele>252.7</ele>
        <time>2025-10-18T10:23:35Z</time>
      </trkpt>
      <trkpt lat="43.21495" lon="5.48214">
        <ele>252.6</ele>
        <time>2025-10-18T10:23:36Z</time>
      </trkpt>
      <trkpt lat="43.21495" lon="5.48214">
        <ele>252.5</ele>
        <time>2025-10-18T10:23:37Z</time>
      </trkpt>
      <trkpt lat="43.21495" lon="5.48214">
        <ele>252.4</ele>
        <time>2025-10-18T10:23:38Z</time>
      </trkpt>
      <trkpt lat="43.21495" lon="5.48215">
        <ele>252.4</ele>
        <time>2025-10-18T10:23:39Z</time>
      </trkpt>
      <trkpt lat="43.21495" lon="5.48215">
        <ele>252.3</ele>
        <time>2025-10-18T10:23:40Z</time>
      </trkpt>
      <trkpt lat="43.21495" lon="5.48215">
        <ele>252.2</ele>
        <time>2025-10-18T10:23:41Z</time>
      </trkpt>
      <trkpt lat="43.21495" lon="5.48215">
        <ele>252.2</ele>
        <time>2025-10-18T10:23:42Z</time>
      </trkpt>
      <trkpt lat="43.21495" lon="5.48215">
        <ele>252.2</ele>
        <time>2025-10-18T10:23:43Z</time>
      </trkpt>
      <trkpt lat="43.21495" lon="5.48215">
        <ele>252.2</ele>
        <time>2025-10-18T10:23:44Z</time>
      </trkpt>
      <trkpt lat="43.21495" lon="5.48215">
        <ele>252.1</ele>
        <time>2025-10-18T10:23:45Z</time>
      </trkpt>
      <trkpt lat="43.21495" lon="5.48215">
        <ele>252.1</ele>
        <time>2025-10-18T10:23:46Z</time>
      </trkpt>
      <trkpt lat="43.21496" lon="5.48215">
        <ele>252.1</ele>
        <time>2025-10-18T10:23:47Z</time>
      </trkpt>
      <trkpt lat="43.21496" lon="5.48215">
        <ele>252.1</ele>
        <time>2025-10-18T10:23:48Z</time>
      </trkpt>
      <trkpt lat="43.21496" lon="5.48215">
        <ele>252.2</ele>
        <time>2025-10-18T10:23:49Z</time>
      </trkpt>
      <trkpt lat="43.21496" lon="5.48215">
        <ele>252.2</ele>
        <time>2025-10-18T10:23:50Z</time>
      </trkpt>
      <trkpt lat="43.21496" lon="5.48215">
        <ele>252.3</ele>
        <time>2025-10-18T10:23:51Z</time>
      </trkpt>
      <trkpt lat="43.21496" lon="5.48215">
        <ele>252.3</ele>
        <time>2025-10-18T10:23:52Z</time>
      </trkpt>
      <trkpt lat="43.21496" lon="5.48215">
        <ele>252.4</ele>
        <time>2025-10-18T10:23:53Z</time>
      </trkpt>
      <trkpt lat="43.21496" lon="5.48215">
        <ele>252.4</ele>
        <time>2025-10-18T10:23:54Z</time>
      </trkpt>
      <trkpt lat="43.21496" lon="5.48215">
        <ele>252.3</ele>
        <time>2025-10-18T10:23:55Z</time>
      </trkpt>
      <trkpt lat="43.21496" lon="5.48215">
        <ele>252.3</ele>
        <time>2025-10-18T10:23:56Z</time>
      </trkpt>
      <trkpt lat="43.21496" lon="5.48215">
        <ele>252.3</ele>
        <time>2025-10-18T10:23:57Z</time>
      </trkpt>
      <trkpt lat="43.21496" lon="5.48215">
        <ele>252.3</ele>
        <time>2025-10-18T10:23:58Z</time>
      </trkpt>
      <trkpt lat="43.21496" lon="5.48215">
        <ele>252.2</ele>
        <time>2025-10-18T10:23:59Z</time>
      </trkpt>
      <trkpt lat="43.21496" lon="5.48215">
        <ele>252.2</ele>
        <time>2025-10-18T10:24:00Z</time>
      </trkpt>
      <trkpt lat="43.21496" lon="5.48215">
        <ele>252.3</ele>
        <time>2025-10-18T10:24:01Z</time>
      </trkpt>
      <trkpt lat="43.21496" lon="5.48215">
        <ele>252.3</ele>
        <time>2025-10-18T10:24:02Z</time>
      </trkpt>
      <trkpt lat="43.21496" lon="5.48215">
        <ele>252.2</ele>
        <time>2025-10-18T10:24:03Z</time>
      </trkpt>
      <trkpt lat="43.21496" lon="5.48215">
        <ele>252.2</ele>
        <time>2025-10-18T10:24:04Z</time>
      </trkpt>
      <trkpt lat="43.21496" lon="5.48215">
        <ele>252.1</ele>
        <time>2025-10-18T10:24:05Z</time>
      </trkpt>
      <trkpt lat="43.21496" lon="5.48215">
        <ele>252.1</ele>
        <time>2025-10-18T10:24:06Z</time>
      </trkpt>
      <trkpt lat="43.21496" lon="5.48215">
        <ele>252.1</ele>
        <time>2025-10-18T10:24:07Z</time>
      </trkpt>
      <trkpt lat="43.21495" lon="5.48215">
        <ele>252</ele>
        <time>2025-10-18T10:24:08Z</time>
      </trkpt>
      <trkpt lat="43.21495" lon="5.48215">
        <ele>252.1</ele>
        <time>2025-10-18T10:24:09Z</time>
      </trkpt>
      <trkpt lat="43.21495" lon="5.48215">
        <ele>252.1</ele>
        <time>2025-10-18T10:24:10Z</time>
      </trkpt>
      <trkpt lat="43.21495" lon="5.48215">
        <ele>252.1</ele>
        <time>2025-10-18T10:24:11Z</time>
      </trkpt>
      <trkpt lat="43.21495" lon="5.48215">
        <ele>252.1</ele>
        <time>2025-10-18T10:24:12Z</time>
      </trkpt>
      <trkpt lat="43.21495" lon="5.48216">
        <ele>252.1</ele>
        <time>2025-10-18T10:24:13Z</time>
      </trkpt>
      <trkpt lat="43.21495" lon="5.48216">
        <ele>252.1</ele>
        <time>2025-10-18T10:24:14Z</time>
      </trkpt>
      <trkpt lat="43.21495" lon="5.48216">
        <ele>252</ele>
        <time>2025-10-18T10:24:15Z</time>
      </trkpt>
      <trkpt lat="43.21495" lon="5.48216">
        <ele>252</ele>
        <time>2025-10-18T10:24:16Z</time>
      </trkpt>
      <trkpt lat="43.21495" lon="5.48216">
        <ele>252</ele>
        <time>2025-10-18T10:24:17Z</time>
      </trkpt>
      <trkpt lat="43.21495" lon="5.48216">
        <ele>252</ele>
        <time>2025-10-18T10:24:18Z</time>
      </trkpt>
      <trkpt lat="43.21495" lon="5.48216">
        <ele>251.9</ele>
        <time>2025-10-18T10:24:19Z</time>
      </trkpt>
      <trkpt lat="43.21495" lon="5.48216">
        <ele>251.9</ele>
        <time>2025-10-18T10:24:20Z</time>
      </trkpt>
      <trkpt lat="43.21495" lon="5.48216">
        <ele>251.9</ele>
        <time>2025-10-18T10:24:21Z</time>
      </trkpt>
      <trkpt lat="43.21495" lon="5.48216">
        <ele>251.9</ele>
        <time>2025-10-18T10:24:22Z</time>
      </trkpt>
      <trkpt lat="43.21495" lon="5.48216">
        <ele>251.9</ele>
        <time>2025-10-18T10:24:23Z</time>
      </trkpt>
      <trkpt lat="43.21495" lon="5.48216">
        <ele>251.9</ele>
        <time>2025-10-18T10:24:24Z</time>
      </trkpt>
      <trkpt lat="43.21495" lon="5.48216">
        <ele>251.9</ele>
        <time>2025-10-18T10:24:25Z</time>
      </trkpt>
      <trkpt lat="43.21495" lon="5.48216">
        <ele>251.9</ele>
        <time>2025-10-18T10:24:26Z</time>
      </trkpt>
      <trkpt lat="43.21495" lon="5.48216">
        <ele>251.9</ele>
        <time>2025-10-18T10:24:27Z</time>
      </trkpt>
      <trkpt lat="43.21495" lon="5.48216">
        <ele>251.8</ele>
        <time>2025-10-18T10:24:28Z</time>
      </trkpt>
      <trkpt lat="43.21494" lon="5.48216">
        <ele>251.7</ele>
        <time>2025-10-18T10:24:29Z</time>
      </trkpt>
      <trkpt lat="43.21494" lon="5.48216">
        <ele>251.8</ele>
        <time>2025-10-18T10:24:30Z</time>
      </trkpt>
      <trkpt lat="43.21494" lon="5.48216">
        <ele>251.8</ele>
        <time>2025-10-18T10:24:31Z</time>
      </trkpt>
      <trkpt lat="43.21494" lon="5.48216">
        <ele>251.8</ele>
        <time>2025-10-18T10:24:32Z</time>
      </trkpt>
      <trkpt lat="43.21494" lon="5.48216">
        <ele>251.9</ele>
        <time>2025-10-18T10:24:33Z</time>
      </trkpt>
      <trkpt lat="43.21494" lon="5.48216">
        <ele>251.9</ele>
        <time>2025-10-18T10:24:34Z</time>
      </trkpt>
      <trkpt lat="43.21494" lon="5.48216">
        <ele>251.9</ele>
        <time>2025-10-18T10:24:35Z</time>
      </trkpt>
      <trkpt lat="43.21494" lon="5.48216">
        <ele>251.9</ele>
        <time>2025-10-18T10:24:36Z</time>
      </trkpt>
      <trkpt lat="43.21494" lon="5.48216">
        <ele>251.9</ele>
        <time>2025-10-18T10:24:37Z</time>
      </trkpt>
      <trkpt lat="43.21494" lon="5.48217">
        <ele>251.9</ele>
        <time>2025-10-18T10:24:38Z</time>
      </trkpt>
      <trkpt lat="43.21494" lon="5.48217">
        <ele>251.9</ele>
        <time>2025-10-18T10:24:39Z</time>
      </trkpt>
      <trkpt lat="43.21494" lon="5.48217">
        <ele>251.8</ele>
        <time>2025-10-18T10:24:40Z</time>
      </trkpt>
      <trkpt lat="43.21494" lon="5.48217">
        <ele>251.8</ele>
        <time>2025-10-18T10:24:41Z</time>
      </trkpt>
      <trkpt lat="43.21495" lon="5.48217">
        <ele>251.9</ele>
        <time>2025-10-18T10:24:42Z</time>
      </trkpt>
      <trkpt lat="43.21495" lon="5.48217">
        <ele>251.9</ele>
        <time>2025-10-18T10:24:43Z</time>
      </trkpt>
      <trkpt lat="43.21495" lon="5.48217">
        <ele>251.9</ele>
        <time>2025-10-18T10:24:44Z</time>
      </trkpt>
      <trkpt lat="43.21495" lon="5.48217">
        <ele>251.9</ele>
        <time>2025-10-18T10:24:45Z</time>
      </trkpt>
      <trkpt lat="43.21495" lon="5.48217">
        <ele>251.9</ele>
        <time>2025-10-18T10:24:46Z</time>
      </trkpt>
      <trkpt lat="43.21495" lon="5.48218">
        <ele>252</ele>
        <time>2025-10-18T10:24:47Z</time>
      </trkpt>
      <trkpt lat="43.21495" lon="5.48218">
        <ele>252</ele>
        <time>2025-10-18T10:24:48Z</time>
      </trkpt>
      <trkpt lat="43.21495" lon="5.48218">
        <ele>252.1</ele>
        <time>2025-10-18T10:24:49Z</time>
      </trkpt>
      <trkpt lat="43.21495" lon="5.48218">
        <ele>252</ele>
        <time>2025-10-18T10:24:50Z</time>
      </trkpt>
      <trkpt lat="43.21494" lon="5.48218">
        <ele>252</ele>
        <time>2025-10-18T10:24:51Z</time>
      </trkpt>
      <trkpt lat="43.21494" lon="5.48218">
        <ele>251.9</ele>
        <time>2025-10-18T10:24:52Z</time>
      </trkpt>
      <trkpt lat="43.21494" lon="5.48218">
        <ele>252</ele>
        <time>2025-10-18T10:24:53Z</time>
      </trkpt>
      <trkpt lat="43.21494" lon="5.48219">
        <ele>251.9</ele>
        <time>2025-10-18T10:24:54Z</time>
      </trkpt>
      <trkpt lat="43.21494" lon="5.48219">
        <ele>251.9</ele>
        <time>2025-10-18T10:24:55Z</time>
      </trkpt>
      <trkpt lat="43.21494" lon="5.48219">
        <ele>251.9</ele>
        <time>2025-10-18T10:24:56Z</time>
      </trkpt>
      <trkpt lat="43.21494" lon="5.48219">
        <ele>252</ele>
        <time>2025-10-18T10:24:57Z</time>
      </trkpt>
      <trkpt lat="43.21494" lon="5.48219">
        <ele>252</ele>
        <time>2025-10-18T10:24:58Z</time>
      </trkpt>
      <trkpt lat="43.21494" lon="5.48219">
        <ele>252</ele>
        <time>2025-10-18T10:24:59Z</time>
      </trkpt>
      <trkpt lat="43.21494" lon="5.48219">
        <ele>252</ele>
        <time>2025-10-18T10:25:00Z</time>
      </trkpt>
      <trkpt lat="43.21494" lon="5.48219">
        <ele>252</ele>
        <time>2025-10-18T10:25:01Z</time>
      </trkpt>
      <trkpt lat="43.21494" lon="5.48219">
        <ele>252</ele>
        <time>2025-10-18T10:25:02Z</time>
      </trkpt>
      <trkpt lat="43.21494" lon="5.48219">
        <ele>251.9</ele>
        <time>2025-10-18T10:25:03Z</time>
      </trkpt>
      <trkpt lat="43.21494" lon="5.48219">
        <ele>251.9</ele>
        <time>2025-10-18T10:25:04Z</time>
      </trkpt>
      <trkpt lat="43.21494" lon="5.48219">
        <ele>251.9</ele>
        <time>2025-10-18T10:25:05Z</time>
      </trkpt>
      <trkpt lat="43.21494" lon="5.48219">
        <ele>251.9</ele>
        <time>2025-10-18T10:25:06Z</time>
      </trkpt>
      <trkpt lat="43.21494" lon="5.4822">
        <ele>251.9</ele>
        <time>2025-10-18T10:25:07Z</time>
      </trkpt>
      <trkpt lat="43.21495" lon="5.4822">
        <ele>251.9</ele>
        <time>2025-10-18T10:25:08Z</time>
      </trkpt>
      <trkpt lat="43.21495" lon="5.48219">
        <ele>251.9</ele>
        <time>2025-10-18T10:25:09Z</time>
      </trkpt>
      <trkpt lat="43.21494" lon="5.48219">
        <ele>252</ele>
        <time>2025-10-18T10:25:10Z</time>
      </trkpt>
      <trkpt lat="43.21494" lon="5.48219">
        <ele>252</ele>
        <time>2025-10-18T10:25:11Z</time>
      </trkpt>
      <trkpt lat="43.21494" lon="5.48219">
        <ele>252.1</ele>
        <time>2025-10-18T10:25:12Z</time>
      </trkpt>
      <trkpt lat="43.21494" lon="5.48219">
        <ele>252.2</ele>
        <time>2025-10-18T10:25:13Z</time>
      </trkpt>
      <trkpt lat="43.21494" lon="5.48219">
        <ele>252.2</ele>
        <time>2025-10-18T10:25:14Z</time>
      </trkpt>
      <trkpt lat="43.21494" lon="5.48219">
        <ele>252.3</ele>
        <time>2025-10-18T10:25:15Z</time>
      </trkpt>
      <trkpt lat="43.21494" lon="5.48219">
        <ele>252.3</ele>
        <time>2025-10-18T10:25:16Z</time>
      </trkpt>
      <trkpt lat="43.21494" lon="5.48219">
        <ele>252.3</ele>
        <time>2025-10-18T10:25:17Z</time>
      </trkpt>
      <trkpt lat="43.21494" lon="5.48219">
        <ele>252.4</ele>
        <time>2025-10-18T10:25:18Z</time>
      </trkpt>
      <trkpt lat="43.21494" lon="5.48219">
        <ele>252.5</ele>
        <time>2025-10-18T10:25:19Z</time>
      </trkpt>
      <trkpt lat="43.21494" lon="5.48219">
        <ele>252.6</ele>
        <time>2025-10-18T10:25:20Z</time>
      </trkpt>
      <trkpt lat="43.21494" lon="5.48219">
        <ele>252.6</ele>
        <time>2025-10-18T10:25:21Z</time>
      </trkpt>
      <trkpt lat="43.21494" lon="5.48219">
        <ele>252.5</ele>
        <time>2025-10-18T10:25:22Z</time>
      </trkpt>
      <trkpt lat="43.21494" lon="5.48219">
        <ele>252.5</ele>
        <time>2025-10-18T10:25:23Z</time>
      </trkpt>
      <trkpt lat="43.21495" lon="5.48219">
        <ele>252.5</ele>
        <time>2025-10-18T10:25:24Z</time>
      </trkpt>
      <trkpt lat="43.21495" lon="5.48219">
        <ele>252.5</ele>
        <time>2025-10-18T10:25:25Z</time>
      </trkpt>
      <trkpt lat="43.21494" lon="5.48218">
        <ele>252.5</ele>
        <time>2025-10-18T10:25:26Z</time>
      </trkpt>
      <trkpt lat="43.21494" lon="5.48218">
        <ele>252.5</ele>
        <time>2025-10-18T10:25:27Z</time>
      </trkpt>
      <trkpt lat="43.21494" lon="5.48218">
        <ele>252.4</ele>
        <time>2025-10-18T10:25:28Z</time>
      </trkpt>
      <trkpt lat="43.21494" lon="5.48218">
        <ele>252.3</ele>
        <time>2025-10-18T10:25:29Z</time>
      </trkpt>
      <trkpt lat="43.21494" lon="5.48218">
        <ele>252.3</ele>
        <time>2025-10-18T10:25:30Z</time>
      </trkpt>
      <trkpt lat="43.21494" lon="5.48218">
        <ele>252.3</ele>
        <time>2025-10-18T10:25:31Z</time>
      </trkpt>
      <trkpt lat="43.21494" lon="5.48218">
        <ele>252.3</ele>
        <time>2025-10-18T10:25:32Z</time>
      </trkpt>
      <trkpt lat="43.21494" lon="5.48218">
        <ele>252.2</ele>
        <time>2025-10-18T10:25:33Z</time>
      </trkpt>
      <trkpt lat="43.21494" lon="5.48218">
        <ele>252.2</ele>
        <time>2025-10-18T10:25:34Z</time>
      </trkpt>
      <trkpt lat="43.21494" lon="5.48218">
        <ele>252.3</ele>
        <time>2025-10-18T10:25:35Z</time>
      </trkpt>
      <trkpt lat="43.21494" lon="5.48218">
        <ele>252.2</ele>
        <time>2025-10-18T10:25:36Z</time>
      </trkpt>
      <trkpt lat="43.21494" lon="5.48218">
        <ele>252.2</ele>
        <time>2025-10-18T10:25:37Z</time>
      </trkpt>
      <trkpt lat="43.21494" lon="5.48218">
        <ele>252.3</ele>
        <time>2025-10-18T10:25:38Z</time>
      </trkpt>
      <trkpt lat="43.21494" lon="5.48218">
        <ele>252.3</ele>
        <time>2025-10-18T10:25:39Z</time>
      </trkpt>
      <trkpt lat="43.21494" lon="5.48218">
        <ele>252.3</ele>
        <time>2025-10-18T10:25:40Z</time>
      </trkpt>
      <trkpt lat="43.21494" lon="5.48218">
        <ele>252.4</ele>
        <time>2025-10-18T10:25:41Z</time>
      </trkpt>
      <trkpt lat="43.21493" lon="5.48218">
        <ele>252.4</ele>
        <time>2025-10-18T10:25:42Z</time>
      </trkpt>
      <trkpt lat="43.21494" lon="5.48218">
        <ele>252.5</ele>
        <time>2025-10-18T10:25:43Z</time>
      </trkpt>
      <trkpt lat="43.21494" lon="5.48218">
        <ele>252.5</ele>
        <time>2025-10-18T10:25:44Z</time>
      </trkpt>
      <trkpt lat="43.21493" lon="5.48218">
        <ele>252.4</ele>
        <time>2025-10-18T10:25:45Z</time>
      </trkpt>
      <trkpt lat="43.21493" lon="5.48218">
        <ele>252.4</ele>
        <time>2025-10-18T10:25:46Z</time>
      </trkpt>
      <trkpt lat="43.21493" lon="5.48218">
        <ele>252.4</ele>
        <time>2025-10-18T10:25:47Z</time>
      </trkpt>
      <trkpt lat="43.21493" lon="5.48218">
        <ele>252.3</ele>
        <time>2025-10-18T10:25:48Z</time>
      </trkpt>
      <trkpt lat="43.21493" lon="5.48218">
        <ele>252.3</ele>
        <time>2025-10-18T10:25:49Z</time>
      </trkpt>
      <trkpt lat="43.21493" lon="5.48218">
        <ele>252.3</ele>
        <time>2025-10-18T10:25:50Z</time>
      </trkpt>
      <trkpt lat="43.21493" lon="5.48218">
        <ele>252.2</ele>
        <time>2025-10-18T10:25:51Z</time>
      </trkpt>
      <trkpt lat="43.21493" lon="5.48218">
        <ele>252.2</ele>
        <time>2025-10-18T10:25:52Z</time>
      </trkpt>
      <trkpt lat="43.21493" lon="5.48218">
        <ele>252.2</ele>
        <time>2025-10-18T10:25:53Z</time>
      </trkpt>
      <trkpt lat="43.21493" lon="5.48218">
        <ele>252.2</ele>
        <time>2025-10-18T10:25:54Z</time>
      </trkpt>
      <trkpt lat="43.21493" lon="5.48218">
        <ele>252.3</ele>
        <time>2025-10-18T10:25:55Z</time>
      </trkpt>
      <trkpt lat="43.21493" lon="5.48218">
        <ele>252.2</ele>
        <time>2025-10-18T10:25:56Z</time>
      </trkpt>
      <trkpt lat="43.21493" lon="5.48218">
        <ele>252.2</ele>
        <time>2025-10-18T10:25:57Z</time>
      </trkpt>
      <trkpt lat="43.21493" lon="5.48218">
        <ele>252.2</ele>
        <time>2025-10-18T10:25:58Z</time>
      </trkpt>
      <trkpt lat="43.21493" lon="5.48218">
        <ele>252.4</ele>
        <time>2025-10-18T10:25:59Z</time>
      </trkpt>
      <trkpt lat="43.21493" lon="5.48219">
        <ele>252.4</ele>
        <time>2025-10-18T10:26:00Z</time>
      </trkpt>
      <trkpt lat="43.21493" lon="5.48218">
        <ele>252.4</ele>
        <time>2025-10-18T10:26:01Z</time>
      </trkpt>
      <trkpt lat="43.21493" lon="5.48219">
        <ele>252.4</ele>
        <time>2025-10-18T10:26:02Z</time>
      </trkpt>
      <trkpt lat="43.21492" lon="5.48219">
        <ele>252.4</ele>
        <time>2025-10-18T10:26:03Z</time>
      </trkpt>
      <trkpt lat="43.21492" lon="5.48219">
        <ele>252.3</ele>
        <time>2025-10-18T10:26:04Z</time>
      </trkpt>
      <trkpt lat="43.21492" lon="5.48219">
        <ele>252.3</ele>
        <time>2025-10-18T10:26:05Z</time>
      </trkpt>
      <trkpt lat="43.21492" lon="5.48219">
        <ele>252.4</ele>
        <time>2025-10-18T10:26:06Z</time>
      </trkpt>
      <trkpt lat="43.21492" lon="5.48219">
        <ele>252.4</ele>
        <time>2025-10-18T10:26:07Z</time>
      </trkpt>
      <trkpt lat="43.21492" lon="5.48219">
        <ele>252.5</ele>
        <time>2025-10-18T10:26:08Z</time>
      </trkpt>
      <trkpt lat="43.21492" lon="5.48218">
        <ele>252.5</ele>
        <time>2025-10-18T10:26:09Z</time>
      </trkpt>
      <trkpt lat="43.21492" lon="5.48218">
        <ele>252.5</ele>
        <time>2025-10-18T10:26:10Z</time>
      </trkpt>
      <trkpt lat="43.21492" lon="5.48218">
        <ele>252.6</ele>
        <time>2025-10-18T10:26:11Z</time>
      </trkpt>
      <trkpt lat="43.21492" lon="5.48218">
        <ele>252.7</ele>
        <time>2025-10-18T10:26:12Z</time>
      </trkpt>
      <trkpt lat="43.21492" lon="5.48218">
        <ele>252.7</ele>
        <time>2025-10-18T10:26:13Z</time>
      </trkpt>
      <trkpt lat="43.21492" lon="5.48218">
        <ele>252.7</ele>
        <time>2025-10-18T10:26:14Z</time>
      </trkpt>
      <trkpt lat="43.21492" lon="5.48219">
        <ele>252.7</ele>
        <time>2025-10-18T10:26:15Z</time>
      </trkpt>
      <trkpt lat="43.21492" lon="5.48219">
        <ele>252.7</ele>
        <time>2025-10-18T10:26:16Z</time>
      </trkpt>
      <trkpt lat="43.21492" lon="5.48219">
        <ele>252.7</ele>
        <time>2025-10-18T10:26:17Z</time>
      </trkpt>
      <trkpt lat="43.21492" lon="5.48219">
        <ele>252.7</ele>
        <time>2025-10-18T10:26:18Z</time>
      </trkpt>
      <trkpt lat="43.21492" lon="5.48219">
        <ele>252.6</ele>
        <time>2025-10-18T10:26:19Z</time>
      </trkpt>
      <trkpt lat="43.21492" lon="5.48219">
        <ele>252.6</ele>
        <time>2025-10-18T10:26:20Z</time>
      </trkpt>
      <trkpt lat="43.21492" lon="5.48219">
        <ele>252.6</ele>
        <time>2025-10-18T10:26:21Z</time>
      </trkpt>
      <trkpt lat="43.21492" lon="5.48219">
        <ele>252.6</ele>
        <time>2025-10-18T10:26:22Z</time>
      </trkpt>
      <trkpt lat="43.21491" lon="5.4822">
        <ele>252.6</ele>
        <time>2025-10-18T10:26:23Z</time>
      </trkpt>
      <trkpt lat="43.21491" lon="5.4822">
        <ele>252.5</ele>
        <time>2025-10-18T10:26:24Z</time>
      </trkpt>
      <trkpt lat="43.21491" lon="5.48219">
        <ele>252.5</ele>
        <time>2025-10-18T10:26:25Z</time>
      </trkpt>
      <trkpt lat="43.21491" lon="5.48219">
        <ele>252.5</ele>
        <time>2025-10-18T10:26:26Z</time>
      </trkpt>
      <trkpt lat="43.21491" lon="5.48219">
        <ele>252.4</ele>
        <time>2025-10-18T10:26:27Z</time>
      </trkpt>
      <trkpt lat="43.21491" lon="5.48219">
        <ele>252.4</ele>
        <time>2025-10-18T10:26:28Z</time>
      </trkpt>
      <trkpt lat="43.21492" lon="5.48219">
        <ele>252.4</ele>
        <time>2025-10-18T10:26:29Z</time>
      </trkpt>
      <trkpt lat="43.21492" lon="5.48219">
        <ele>252.4</ele>
        <time>2025-10-18T10:26:30Z</time>
      </trkpt>
      <trkpt lat="43.21492" lon="5.48219">
        <ele>252.3</ele>
        <time>2025-10-18T10:26:31Z</time>
      </trkpt>
      <trkpt lat="43.21492" lon="5.48219">
        <ele>252.3</ele>
        <time>2025-10-18T10:26:32Z</time>
      </trkpt>
      <trkpt lat="43.21492" lon="5.48219">
        <ele>252.3</ele>
        <time>2025-10-18T10:26:33Z</time>
      </trkpt>
      <trkpt lat="43.21492" lon="5.48219">
        <ele>252.2</ele>
        <time>2025-10-18T10:26:34Z</time>
      </trkpt>
      <trkpt lat="43.21492" lon="5.48219">
        <ele>252.2</ele>
        <time>2025-10-18T10:26:35Z</time>
      </trkpt>
      <trkpt lat="43.21492" lon="5.48219">
        <ele>252.2</ele>
        <time>2025-10-18T10:26:36Z</time>
      </trkpt>
      <trkpt lat="43.21492" lon="5.48219">
        <ele>252.2</ele>
        <time>2025-10-18T10:26:37Z</time>
      </trkpt>
      <trkpt lat="43.21492" lon="5.48219">
        <ele>252.2</ele>
        <time>2025-10-18T10:26:38Z</time>
      </trkpt>
      <trkpt lat="43.21492" lon="5.48219">
        <ele>252.1</ele>
        <time>2025-10-18T10:26:39Z</time>
      </trkpt>
      <trkpt lat="43.21492" lon="5.48219">
        <ele>252.1</ele>
        <time>2025-10-18T10:26:40Z</time>
      </trkpt>
      <trkpt lat="43.21492" lon="5.48219">
        <ele>252.4</ele>
        <time>2025-10-18T10:26:41Z</time>
      </trkpt>
      <trkpt lat="43.21492" lon="5.48219">
        <ele>252.5</ele>
        <time>2025-10-18T10:26:42Z</time>
      </trkpt>
      <trkpt lat="43.21492" lon="5.4822">
        <ele>252.5</ele>
        <time>2025-10-18T10:26:43Z</time>
      </trkpt>
      <trkpt lat="43.21492" lon="5.4822">
        <ele>252.5</ele>
        <time>2025-10-18T10:26:44Z</time>
      </trkpt>
      <trkpt lat="43.21492" lon="5.4822">
        <ele>252.5</ele>
        <time>2025-10-18T10:26:45Z</time>
      </trkpt>
      <trkpt lat="43.21492" lon="5.4822">
        <ele>252.6</ele>
        <time>2025-10-18T10:26:46Z</time>
      </trkpt>
      <trkpt lat="43.21492" lon="5.4822">
        <ele>252.6</ele>
        <time>2025-10-18T10:26:47Z</time>
      </trkpt>
      <trkpt lat="43.21492" lon="5.4822">
        <ele>252.6</ele>
        <time>2025-10-18T10:26:48Z</time>
      </trkpt>
      <trkpt lat="43.21492" lon="5.4822">
        <ele>252.6</ele>
        <time>2025-10-18T10:26:49Z</time>
      </trkpt>
      <trkpt lat="43.21492" lon="5.4822">
        <ele>252.6</ele>
        <time>2025-10-18T10:26:50Z</time>
      </trkpt>
      <trkpt lat="43.21492" lon="5.4822">
        <ele>252.6</ele>
        <time>2025-10-18T10:26:51Z</time>
      </trkpt>
      <trkpt lat="43.21492" lon="5.4822">
        <ele>252.6</ele>
        <time>2025-10-18T10:26:52Z</time>
      </trkpt>
      <trkpt lat="43.21492" lon="5.4822">
        <ele>252.6</ele>
        <time>2025-10-18T10:26:53Z</time>
      </trkpt>
      <trkpt lat="43.21492" lon="5.4822">
        <ele>252.5</ele>
        <time>2025-10-18T10:26:54Z</time>
      </trkpt>
      <trkpt lat="43.21493" lon="5.4822">
        <ele>252.5</ele>
        <time>2025-10-18T10:26:55Z</time>
      </trkpt>
      <trkpt lat="43.21493" lon="5.4822">
        <ele>252.4</ele>
        <time>2025-10-18T10:26:56Z</time>
      </trkpt>
      <trkpt lat="43.21493" lon="5.4822">
        <ele>252.4</ele>
        <time>2025-10-18T10:26:57Z</time>
      </trkpt>
      <trkpt lat="43.21493" lon="5.4822">
        <ele>252.3</ele>
        <time>2025-10-18T10:26:58Z</time>
      </trkpt>
      <trkpt lat="43.21493" lon="5.4822">
        <ele>252.3</ele>
        <time>2025-10-18T10:26:59Z</time>
      </trkpt>
      <trkpt lat="43.21493" lon="5.4822">
        <ele>252.3</ele>
        <time>2025-10-18T10:27:00Z</time>
      </trkpt>
      <trkpt lat="43.21493" lon="5.48219">
        <ele>252.3</ele>
        <time>2025-10-18T10:27:01Z</time>
      </trkpt>
      <trkpt lat="43.21493" lon="5.4822">
        <ele>252.3</ele>
        <time>2025-10-18T10:27:02Z</time>
      </trkpt>
      <trkpt lat="43.21493" lon="5.48219">
        <ele>252.3</ele>
        <time>2025-10-18T10:27:03Z</time>
      </trkpt>
      <trkpt lat="43.21493" lon="5.4822">
        <ele>252.3</ele>
        <time>2025-10-18T10:27:04Z</time>
      </trkpt>
      <trkpt lat="43.21494" lon="5.4822">
        <ele>252.4</ele>
        <time>2025-10-18T10:27:05Z</time>
      </trkpt>
      <trkpt lat="43.21494" lon="5.4822">
        <ele>252.4</ele>
        <time>2025-10-18T10:27:06Z</time>
      </trkpt>
      <trkpt lat="43.21494" lon="5.4822">
        <ele>252.4</ele>
        <time>2025-10-18T10:27:07Z</time>
      </trkpt>
      <trkpt lat="43.21495" lon="5.4822">
        <ele>252.4</ele>
        <time>2025-10-18T10:27:08Z</time>
      </trkpt>
      <trkpt lat="43.21495" lon="5.4822">
        <ele>252.4</ele>
        <time>2025-10-18T10:27:09Z</time>
      </trkpt>
      <trkpt lat="43.21495" lon="5.4822">
        <ele>252.4</ele>
        <time>2025-10-18T10:27:10Z</time>
      </trkpt>
      <trkpt lat="43.21495" lon="5.48221">
        <ele>252.4</ele>
        <time>2025-10-18T10:27:11Z</time>
      </trkpt>
      <trkpt lat="43.21495" lon="5.48221">
        <ele>252.4</ele>
        <time>2025-10-18T10:27:12Z</time>
      </trkpt>
      <trkpt lat="43.21495" lon="5.48221">
        <ele>252.5</ele>
        <time>2025-10-18T10:27:13Z</time>
      </trkpt>
      <trkpt lat="43.21495" lon="5.48221">
        <ele>252.5</ele>
        <time>2025-10-18T10:27:14Z</time>
      </trkpt>
      <trkpt lat="43.21495" lon="5.48221">
        <ele>252.5</ele>
        <time>2025-10-18T10:27:15Z</time>
      </trkpt>
      <trkpt lat="43.21495" lon="5.48221">
        <ele>252.5</ele>
        <time>2025-10-18T10:27:16Z</time>
      </trkpt>
      <trkpt lat="43.21495" lon="5.48221">
        <ele>252.4</ele>
        <time>2025-10-18T10:27:17Z</time>
      </trkpt>
      <trkpt lat="43.21496" lon="5.48221">
        <ele>252.4</ele>
        <time>2025-10-18T10:27:18Z</time>
      </trkpt>
      <trkpt lat="43.21496" lon="5.48221">
        <ele>252.4</ele>
        <time>2025-10-18T10:27:19Z</time>
      </trkpt>
      <trkpt lat="43.21496" lon="5.48221">
        <ele>252.4</ele>
        <time>2025-10-18T10:27:20Z</time>
      </trkpt>
      <trkpt lat="43.21496" lon="5.48222">
        <ele>252.5</ele>
        <time>2025-10-18T10:27:21Z</time>
      </trkpt>
      <trkpt lat="43.21495" lon="5.48222">
        <ele>252.5</ele>
        <time>2025-10-18T10:27:22Z</time>
      </trkpt>
      <trkpt lat="43.21495" lon="5.48222">
        <ele>252.5</ele>
        <time>2025-10-18T10:27:23Z</time>
      </trkpt>
      <trkpt lat="43.21495" lon="5.48222">
        <ele>252.5</ele>
        <time>2025-10-18T10:27:24Z</time>
      </trkpt>
      <trkpt lat="43.21495" lon="5.48222">
        <ele>252.5</ele>
        <time>2025-10-18T10:27:25Z</time>
      </trkpt>
      <trkpt lat="43.21495" lon="5.48222">
        <ele>252.5</ele>
        <time>2025-10-18T10:27:26Z</time>
      </trkpt>
      <trkpt lat="43.21495" lon="5.48222">
        <ele>252.5</ele>
        <time>2025-10-18T10:27:27Z</time>
      </trkpt>
      <trkpt lat="43.21495" lon="5.48222">
        <ele>252.5</ele>
        <time>2025-10-18T10:27:28Z</time>
      </trkpt>
      <trkpt lat="43.21495" lon="5.48222">
        <ele>252.5</ele>
        <time>2025-10-18T10:27:29Z</time>
      </trkpt>
      <trkpt lat="43.21495" lon="5.48223">
        <ele>252.5</ele>
        <time>2025-10-18T10:27:30Z</time>
      </trkpt>
      <trkpt lat="43.21495" lon="5.48223">
        <ele>252.5</ele>
        <time>2025-10-18T10:27:31Z</time>
      </trkpt>
      <trkpt lat="43.21495" lon="5.48223">
        <ele>252.5</ele>
        <time>2025-10-18T10:27:32Z</time>
      </trkpt>
      <trkpt lat="43.21495" lon="5.48223">
        <ele>252.6</ele>
        <time>2025-10-18T10:27:33Z</time>
      </trkpt>
      <trkpt lat="43.21495" lon="5.48223">
        <ele>252.6</ele>
        <time>2025-10-18T10:27:34Z</time>
      </trkpt>
      <trkpt lat="43.21495" lon="5.48223">
        <ele>252.6</ele>
        <time>2025-10-18T10:27:35Z</time>
      </trkpt>
      <trkpt lat="43.21495" lon="5.48223">
        <ele>252.6</ele>
        <time>2025-10-18T10:27:36Z</time>
      </trkpt>
      <trkpt lat="43.21495" lon="5.48223">
        <ele>252.5</ele>
        <time>2025-10-18T10:27:37Z</time>
      </trkpt>
      <trkpt lat="43.21495" lon="5.48223">
        <ele>252.4</ele>
        <time>2025-10-18T10:27:38Z</time>
      </trkpt>
      <trkpt lat="43.21495" lon="5.48223">
        <ele>252.4</ele>
        <time>2025-10-18T10:27:39Z</time>
      </trkpt>
      <trkpt lat="43.21496" lon="5.48223">
        <ele>252.4</ele>
        <time>2025-10-18T10:27:40Z</time>
      </trkpt>
      <trkpt lat="43.21496" lon="5.48223">
        <ele>252.4</ele>
        <time>2025-10-18T10:27:41Z</time>
      </trkpt>
      <trkpt lat="43.21496" lon="5.48223">
        <ele>252.5</ele>
        <time>2025-10-18T10:27:42Z</time>
      </trkpt>
      <trkpt lat="43.21496" lon="5.48223">
        <ele>252.5</ele>
        <time>2025-10-18T10:27:43Z</time>
      </trkpt>
      <trkpt lat="43.21496" lon="5.48223">
        <ele>252.5</ele>
        <time>2025-10-18T10:27:44Z</time>
      </trkpt>
      <trkpt lat="43.21496" lon="5.48223">
        <ele>252.4</ele>
        <time>2025-10-18T10:27:45Z</time>
      </trkpt>
      <trkpt lat="43.21496" lon="5.48223">
        <ele>252.4</ele>
        <time>2025-10-18T10:27:46Z</time>
      </trkpt>
      <trkpt lat="43.21496" lon="5.48223">
        <ele>252.5</ele>
        <time>2025-10-18T10:27:47Z</time>
      </trkpt>
      <trkpt lat="43.21496" lon="5.48223">
        <ele>252.5</ele>
        <time>2025-10-18T10:27:48Z</time>
      </trkpt>
      <trkpt lat="43.21496" lon="5.48224">
        <ele>252.5</ele>
        <time>2025-10-18T10:27:49Z</time>
      </trkpt>
      <trkpt lat="43.21496" lon="5.48224">
        <ele>252.5</ele>
        <time>2025-10-18T10:27:50Z</time>
      </trkpt>
      <trkpt lat="43.21496" lon="5.48224">
        <ele>252.4</ele>
        <time>2025-10-18T10:27:51Z</time>
      </trkpt>
      <trkpt lat="43.21496" lon="5.48224">
        <ele>252.4</ele>
        <time>2025-10-18T10:27:52Z</time>
      </trkpt>
      <trkpt lat="43.21496" lon="5.48224">
        <ele>252.5</ele>
        <time>2025-10-18T10:27:53Z</time>
      </trkpt>
      <trkpt lat="43.21496" lon="5.48224">
        <ele>252.5</ele>
        <time>2025-10-18T10:27:54Z</time>
      </trkpt>
      <trkpt lat="43.21496" lon="5.48224">
        <ele>252.5</ele>
        <time>2025-10-18T10:27:55Z</time>
      </trkpt>
      <trkpt lat="43.21496" lon="5.48224">
        <ele>252.5</ele>
        <time>2025-10-18T10:27:56Z</time>
      </trkpt>
      <trkpt lat="43.21496" lon="5.48224">
        <ele>252.5</ele>
        <time>2025-10-18T10:27:57Z</time>
      </trkpt>
      <trkpt lat="43.21496" lon="5.48224">
        <ele>252.5</ele>
        <time>2025-10-18T10:27:58Z</time>
      </trkpt>
      <trkpt lat="43.21496" lon="5.48224">
        <ele>252.6</ele>
        <time>2025-10-18T10:27:59Z</time>
      </trkpt>
      <trkpt lat="43.21496" lon="5.48224">
        <ele>252.7</ele>
        <time>2025-10-18T10:28:00Z</time>
      </trkpt>
      <trkpt lat="43.21496" lon="5.48224">
        <ele>252.7</ele>
        <time>2025-10-18T10:28:01Z</time>
      </trkpt>
      <trkpt lat="43.21496" lon="5.48224">
        <ele>252.7</ele>
        <time>2025-10-18T10:28:02Z</time>
      </trkpt>
      <trkpt lat="43.21496" lon="5.48224">
        <ele>252.7</ele>
        <time>2025-10-18T10:28:03Z</time>
      </trkpt>
      <trkpt lat="43.21496" lon="5.48224">
        <ele>252.7</ele>
        <time>2025-10-18T10:28:04Z</time>
      </trkpt>
      <trkpt lat="43.21496" lon="5.48224">
        <ele>252.7</ele>
        <time>2025-10-18T10:28:05Z</time>
      </trkpt>
      <trkpt lat="43.21496" lon="5.48224">
        <ele>252.7</ele>
        <time>2025-10-18T10:28:06Z</time>
      </trkpt>
      <trkpt lat="43.21496" lon="5.48224">
        <ele>252.7</ele>
        <time>2025-10-18T10:28:07Z</time>
      </trkpt>
      <trkpt lat="43.21496" lon="5.48224">
        <ele>252.8</ele>
        <time>2025-10-18T10:28:08Z</time>
      </trkpt>
      <trkpt lat="43.21496" lon="5.48224">
        <ele>252.7</ele>
        <time>2025-10-18T10:28:09Z</time>
      </trkpt>
      <trkpt lat="43.21496" lon="5.48224">
        <ele>252.7</ele>
        <time>2025-10-18T10:28:10Z</time>
      </trkpt>
      <trkpt lat="43.21496" lon="5.48224">
        <ele>252.7</ele>
        <time>2025-10-18T10:28:11Z</time>
      </trkpt>
      <trkpt lat="43.21496" lon="5.48224">
        <ele>252.7</ele>
        <time>2025-10-18T10:28:12Z</time>
      </trkpt>
      <trkpt lat="43.21496" lon="5.48224">
        <ele>252.7</ele>
        <time>2025-10-18T10:28:13Z</time>
      </trkpt>
      <trkpt lat="43.21496" lon="5.48224">
        <ele>252.7</ele>
        <time>2025-10-18T10:28:14Z</time>
      </trkpt>
      <trkpt lat="43.21496" lon="5.48224">
        <ele>252.8</ele>
        <time>2025-10-18T10:28:15Z</time>
      </trkpt>
      <trkpt lat="43.21496" lon="5.48224">
        <ele>252.8</ele>
        <time>2025-10-18T10:28:16Z</time>
      </trkpt>
      <trkpt lat="43.21496" lon="5.48224">
        <ele>252.8</ele>
        <time>2025-10-18T10:28:17Z</time>
      </trkpt>
      <trkpt lat="43.21496" lon="5.48224">
        <ele>252.8</ele>
        <time>2025-10-18T10:28:18Z</time>
      </trkpt>
      <trkpt lat="43.21496" lon="5.48223">
        <ele>252.8</ele>
        <time>2025-10-18T10:28:19Z</time>
      </trkpt>
      <trkpt lat="43.21495" lon="5.48223">
        <ele>252.8</ele>
        <time>2025-10-18T10:28:20Z</time>
      </trkpt>
      <trkpt lat="43.21495" lon="5.48223">
        <ele>252.8</ele>
        <time>2025-10-18T10:28:21Z</time>
      </trkpt>
      <trkpt lat="43.21495" lon="5.48223">
        <ele>252.8</ele>
        <time>2025-10-18T10:28:22Z</time>
      </trkpt>
      <trkpt lat="43.21495" lon="5.48223">
        <ele>252.9</ele>
        <time>2025-10-18T10:28:23Z</time>
      </trkpt>
      <trkpt lat="43.21495" lon="5.48223">
        <ele>252.9</ele>
        <time>2025-10-18T10:28:24Z</time>
      </trkpt>
      <trkpt lat="43.21495" lon="5.48223">
        <ele>252.9</ele>
        <time>2025-10-18T10:28:25Z</time>
      </trkpt>
      <trkpt lat="43.21494" lon="5.48223">
        <ele>252.9</ele>
        <time>2025-10-18T10:28:26Z</time>
      </trkpt>
      <trkpt lat="43.21495" lon="5.48223">
        <ele>252.9</ele>
        <time>2025-10-18T10:28:27Z</time>
      </trkpt>
      <trkpt lat="43.21495" lon="5.48223">
        <ele>253</ele>
        <time>2025-10-18T10:28:28Z</time>
      </trkpt>
      <trkpt lat="43.21494" lon="5.48222">
        <ele>253</ele>
        <time>2025-10-18T10:28:29Z</time>
      </trkpt>
      <trkpt lat="43.21494" lon="5.48222">
        <ele>253</ele>
        <time>2025-10-18T10:28:30Z</time>
      </trkpt>
      <trkpt lat="43.21494" lon="5.48222">
        <ele>252.9</ele>
        <time>2025-10-18T10:28:31Z</time>
      </trkpt>
      <trkpt lat="43.21494" lon="5.48222">
        <ele>252.9</ele>
        <time>2025-10-18T10:28:32Z</time>
      </trkpt>
      <trkpt lat="43.21495" lon="5.48222">
        <ele>252.9</ele>
        <time>2025-10-18T10:28:33Z</time>
      </trkpt>
      <trkpt lat="43.21495" lon="5.48221">
        <ele>252.8</ele>
        <time>2025-10-18T10:28:34Z</time>
      </trkpt>
      <trkpt lat="43.21495" lon="5.48221">
        <ele>252.8</ele>
        <time>2025-10-18T10:28:35Z</time>
      </trkpt>
      <trkpt lat="43.21495" lon="5.48221">
        <ele>252.8</ele>
        <time>2025-10-18T10:28:36Z</time>
      </trkpt>
      <trkpt lat="43.21495" lon="5.48222">
        <ele>252.8</ele>
        <time>2025-10-18T10:28:37Z</time>
      </trkpt>
      <trkpt lat="43.21495" lon="5.48222">
        <ele>252.8</ele>
        <time>2025-10-18T10:28:38Z</time>
      </trkpt>
      <trkpt lat="43.21495" lon="5.48222">
        <ele>252.8</ele>
        <time>2025-10-18T10:28:39Z</time>
      </trkpt>
      <trkpt lat="43.21495" lon="5.48222">
        <ele>252.7</ele>
        <time>2025-10-18T10:28:40Z</time>
      </trkpt>
      <trkpt lat="43.21495" lon="5.48222">
        <ele>252.6</ele>
        <time>2025-10-18T10:28:41Z</time>
      </trkpt>
      <trkpt lat="43.21495" lon="5.48222">
        <ele>252.6</ele>
        <time>2025-10-18T10:28:42Z</time>
      </trkpt>
      <trkpt lat="43.21495" lon="5.48222">
        <ele>252.6</ele>
        <time>2025-10-18T10:28:43Z</time>
      </trkpt>
      <trkpt lat="43.21496" lon="5.48222">
        <ele>252.6</ele>
        <time>2025-10-18T10:28:44Z</time>
      </trkpt>
      <trkpt lat="43.21496" lon="5.48222">
        <ele>252.6</ele>
        <time>2025-10-18T10:28:45Z</time>
      </trkpt>
      <trkpt lat="43.21496" lon="5.48222">
        <ele>252.7</ele>
        <time>2025-10-18T10:28:46Z</time>
      </trkpt>
      <trkpt lat="43.21496" lon="5.48221">
        <ele>252.7</ele>
        <time>2025-10-18T10:28:47Z</time>
      </trkpt>
      <trkpt lat="43.21496" lon="5.48221">
        <ele>252.8</ele>
        <time>2025-10-18T10:28:48Z</time>
      </trkpt>
      <trkpt lat="43.21496" lon="5.48221">
        <ele>252.8</ele>
        <time>2025-10-18T10:28:49Z</time>
      </trkpt>
      <trkpt lat="43.21496" lon="5.48221">
        <ele>252.9</ele>
        <time>2025-10-18T10:28:50Z</time>
      </trkpt>
      <trkpt lat="43.21496" lon="5.48221">
        <ele>252.9</ele>
        <time>2025-10-18T10:28:51Z</time>
      </trkpt>
      <trkpt lat="43.21496" lon="5.48221">
        <ele>253</ele>
        <time>2025-10-18T10:28:52Z</time>
      </trkpt>
      <trkpt lat="43.21496" lon="5.48221">
        <ele>253</ele>
        <time>2025-10-18T10:28:53Z</time>
      </trkpt>
      <trkpt lat="43.21496" lon="5.48221">
        <ele>253.1</ele>
        <time>2025-10-18T10:28:54Z</time>
      </trkpt>
      <trkpt lat="43.21496" lon="5.48221">
        <ele>252.9</ele>
        <time>2025-10-18T10:28:55Z</time>
      </trkpt>
      <trkpt lat="43.21496" lon="5.48221">
        <ele>252.8</ele>
        <time>2025-10-18T10:28:56Z</time>
      </trkpt>
      <trkpt lat="43.21496" lon="5.48221">
        <ele>252.8</ele>
        <time>2025-10-18T10:28:57Z</time>
      </trkpt>
      <trkpt lat="43.21496" lon="5.48221">
        <ele>252.8</ele>
        <time>2025-10-18T10:28:58Z</time>
      </trkpt>
      <trkpt lat="43.21496" lon="5.48221">
        <ele>252.7</ele>
        <time>2025-10-18T10:28:59Z</time>
      </trkpt>
      <trkpt lat="43.21496" lon="5.4822">
        <ele>252.8</ele>
        <time>2025-10-18T10:29:00Z</time>
      </trkpt>
      <trkpt lat="43.21496" lon="5.4822">
        <ele>252.7</ele>
        <time>2025-10-18T10:29:01Z</time>
      </trkpt>
      <trkpt lat="43.21496" lon="5.4822">
        <ele>252.7</ele>
        <time>2025-10-18T10:29:02Z</time>
      </trkpt>
      <trkpt lat="43.21496" lon="5.4822">
        <ele>252.7</ele>
        <time>2025-10-18T10:29:03Z</time>
      </trkpt>
      <trkpt lat="43.21496" lon="5.4822">
        <ele>252.7</ele>
        <time>2025-10-18T10:29:04Z</time>
      </trkpt>
      <trkpt lat="43.21496" lon="5.4822">
        <ele>252.7</ele>
        <time>2025-10-18T10:29:05Z</time>
      </trkpt>
      <trkpt lat="43.21496" lon="5.4822">
        <ele>252.6</ele>
        <time>2025-10-18T10:29:06Z</time>
      </trkpt>
      <trkpt lat="43.21496" lon="5.4822">
        <ele>252.6</ele>
        <time>2025-10-18T10:29:07Z</time>
      </trkpt>
      <trkpt lat="43.21496" lon="5.4822">
        <ele>252.6</ele>
        <time>2025-10-18T10:29:08Z</time>
      </trkpt>
      <trkpt lat="43.21496" lon="5.4822">
        <ele>252.6</ele>
        <time>2025-10-18T10:29:09Z</time>
      </trkpt>
      <trkpt lat="43.21496" lon="5.4822">
        <ele>252.6</ele>
        <time>2025-10-18T10:29:10Z</time>
      </trkpt>
      <trkpt lat="43.21496" lon="5.4822">
        <ele>252.5</ele>
        <time>2025-10-18T10:29:11Z</time>
      </trkpt>
      <trkpt lat="43.21496" lon="5.48221">
        <ele>252.5</ele>
        <time>2025-10-18T10:29:12Z</time>
      </trkpt>
      <trkpt lat="43.21495" lon="5.48221">
        <ele>252.4</ele>
        <time>2025-10-18T10:29:13Z</time>
      </trkpt>
      <trkpt lat="43.21495" lon="5.48222">
        <ele>252.3</ele>
        <time>2025-10-18T10:29:14Z</time>
      </trkpt>
      <trkpt lat="43.21495" lon="5.48222">
        <ele>252.3</ele>
        <time>2025-10-18T10:29:15Z</time>
      </trkpt>
      <trkpt lat="43.21495" lon="5.48223">
        <ele>252.3</ele>
        <time>2025-10-18T10:29:16Z</time>
      </trkpt>
      <trkpt lat="43.21495" lon="5.48224">
        <ele>252.3</ele>
        <time>2025-10-18T10:29:17Z</time>
      </trkpt>
      <trkpt lat="43.21495" lon="5.48225">
        <ele>252.2</ele>
        <time>2025-10-18T10:29:18Z</time>
      </trkpt>
      <trkpt lat="43.21496" lon="5.48226">
        <ele>252.2</ele>
        <time>2025-10-18T10:29:19Z</time>
      </trkpt>
      <trkpt lat="43.21496" lon="5.48227">
        <ele>252.1</ele>
        <time>2025-10-18T10:29:20Z</time>
      </trkpt>
      <trkpt lat="43.21496" lon="5.48228">
        <ele>252.1</ele>
        <time>2025-10-18T10:29:21Z</time>
      </trkpt>
      <trkpt lat="43.21496" lon="5.48229">
        <ele>252</ele>
        <time>2025-10-18T10:29:22Z</time>
      </trkpt>
      <trkpt lat="43.21496" lon="5.4823">
        <ele>252</ele>
        <time>2025-10-18T10:29:23Z</time>
      </trkpt>
      <trkpt lat="43.21496" lon="5.48232">
        <ele>252</ele>
        <time>2025-10-18T10:29:24Z</time>
      </trkpt>
      <trkpt lat="43.21496" lon="5.48233">
        <ele>251.9</ele>
        <time>2025-10-18T10:29:25Z</time>
      </trkpt>
      <trkpt lat="43.21496" lon="5.48234">
        <ele>251.9</ele>
        <time>2025-10-18T10:29:26Z</time>
      </trkpt>
      <trkpt lat="43.21496" lon="5.48235">
        <ele>251.9</ele>
        <time>2025-10-18T10:29:27Z</time>
      </trkpt>
      <trkpt lat="43.21497" lon="5.48235">
        <ele>251.9</ele>
        <time>2025-10-18T10:29:28Z</time>
      </trkpt>
      <trkpt lat="43.21497" lon="5.48236">
        <ele>252</ele>
        <time>2025-10-18T10:29:29Z</time>
      </trkpt>
      <trkpt lat="43.21497" lon="5.48237">
        <ele>252</ele>
        <time>2025-10-18T10:29:30Z</time>
      </trkpt>
      <trkpt lat="43.21497" lon="5.48237">
        <ele>252</ele>
        <time>2025-10-18T10:29:31Z</time>
      </trkpt>
      <trkpt lat="43.21497" lon="5.48238">
        <ele>252</ele>
        <time>2025-10-18T10:29:32Z</time>
      </trkpt>
      <trkpt lat="43.21497" lon="5.48239">
        <ele>252.1</ele>
        <time>2025-10-18T10:29:33Z</time>
      </trkpt>
      <trkpt lat="43.21497" lon="5.48239">
        <ele>252.1</ele>
        <time>2025-10-18T10:29:34Z</time>
      </trkpt>
      <trkpt lat="43.21497" lon="5.4824">
        <ele>252.1</ele>
        <time>2025-10-18T10:29:35Z</time>
      </trkpt>
      <trkpt lat="43.21497" lon="5.4824">
        <ele>252.2</ele>
        <time>2025-10-18T10:29:36Z</time>
      </trkpt>
      <trkpt lat="43.21497" lon="5.48241">
        <ele>252.3</ele>
        <time>2025-10-18T10:29:37Z</time>
      </trkpt>
      <trkpt lat="43.21498" lon="5.48242">
        <ele>252.4</ele>
        <time>2025-10-18T10:29:38Z</time>
      </trkpt>
      <trkpt lat="43.21498" lon="5.48242">
        <ele>252.4</ele>
        <time>2025-10-18T10:29:39Z</time>
      </trkpt>
      <trkpt lat="43.21498" lon="5.48243">
        <ele>252.4</ele>
        <time>2025-10-18T10:29:40Z</time>
      </trkpt>
      <trkpt lat="43.21498" lon="5.48243">
        <ele>252.4</ele>
        <time>2025-10-18T10:29:41Z</time>
      </trkpt>
      <trkpt lat="43.21498" lon="5.48243">
        <ele>252.5</ele>
        <time>2025-10-18T10:29:42Z</time>
      </trkpt>
      <trkpt lat="43.21498" lon="5.48244">
        <ele>252.6</ele>
        <time>2025-10-18T10:29:43Z</time>
      </trkpt>
      <trkpt lat="43.21499" lon="5.48245">
        <ele>252.6</ele>
        <time>2025-10-18T10:29:44Z</time>
      </trkpt>
      <trkpt lat="43.215" lon="5.48245">
        <ele>252.7</ele>
        <time>2025-10-18T10:29:45Z</time>
      </trkpt>
      <trkpt lat="43.215" lon="5.48245">
        <ele>252.8</ele>
        <time>2025-10-18T10:29:46Z</time>
      </trkpt>
      <trkpt lat="43.21501" lon="5.48246">
        <ele>252.8</ele>
        <time>2025-10-18T10:29:47Z</time>
      </trkpt>
      <trkpt lat="43.21502" lon="5.48246">
        <ele>253</ele>
        <time>2025-10-18T10:29:48Z</time>
      </trkpt>
      <trkpt lat="43.21503" lon="5.48247">
        <ele>253.1</ele>
        <time>2025-10-18T10:29:49Z</time>
      </trkpt>
      <trkpt lat="43.21503" lon="5.48248">
        <ele>253.4</ele>
        <time>2025-10-18T10:29:50Z</time>
      </trkpt>
      <trkpt lat="43.21504" lon="5.48249">
        <ele>253.6</ele>
        <time>2025-10-18T10:29:51Z</time>
      </trkpt>
      <trkpt lat="43.21504" lon="5.4825">
        <ele>253.7</ele>
        <time>2025-10-18T10:29:52Z</time>
      </trkpt>
      <trkpt lat="43.21505" lon="5.48251">
        <ele>253.9</ele>
        <time>2025-10-18T10:29:53Z</time>
      </trkpt>
      <trkpt lat="43.21506" lon="5.48251">
        <ele>254</ele>
        <time>2025-10-18T10:29:54Z</time>
      </trkpt>
      <trkpt lat="43.21506" lon="5.48252">
        <ele>254.1</ele>
        <time>2025-10-18T10:29:55Z</time>
      </trkpt>
      <trkpt lat="43.21506" lon="5.48253">
        <ele>254.3</ele>
        <time>2025-10-18T10:29:56Z</time>
      </trkpt>
      <trkpt lat="43.21505" lon="5.48254">
        <ele>254.4</ele>
        <time>2025-10-18T10:29:57Z</time>
      </trkpt>
      <trkpt lat="43.21506" lon="5.48256">
        <ele>254.7</ele>
        <time>2025-10-18T10:29:58Z</time>
      </trkpt>
      <trkpt lat="43.21506" lon="5.48257">
        <ele>254.8</ele>
        <time>2025-10-18T10:29:59Z</time>
      </trkpt>
      <trkpt lat="43.21507" lon="5.48257">
        <ele>255</ele>
        <time>2025-10-18T10:30:00Z</time>
      </trkpt>
      <trkpt lat="43.21507" lon="5.48258">
        <ele>255.1</ele>
        <time>2025-10-18T10:30:01Z</time>
      </trkpt>
      <trkpt lat="43.21507" lon="5.4826">
        <ele>255.3</ele>
        <time>2025-10-18T10:30:02Z</time>
      </trkpt>
      <trkpt lat="43.21508" lon="5.48261">
        <ele>255.4</ele>
        <time>2025-10-18T10:30:03Z</time>
      </trkpt>
      <trkpt lat="43.21507" lon="5.48262">
        <ele>255.6</ele>
        <time>2025-10-18T10:30:04Z</time>
      </trkpt>
      <trkpt lat="43.21507" lon="5.48263">
        <ele>255.7</ele>
        <time>2025-10-18T10:30:05Z</time>
      </trkpt>
      <trkpt lat="43.21507" lon="5.48264">
        <ele>256</ele>
        <time>2025-10-18T10:30:06Z</time>
      </trkpt>
      <trkpt lat="43.21507" lon="5.48265">
        <ele>256.2</ele>
        <time>2025-10-18T10:30:07Z</time>
      </trkpt>
      <trkpt lat="43.21506" lon="5.48266">
        <ele>256.5</ele>
        <time>2025-10-18T10:30:08Z</time>
      </trkpt>
      <trkpt lat="43.21506" lon="5.48267">
        <ele>256.7</ele>
        <time>2025-10-18T10:30:09Z</time>
      </trkpt>
      <trkpt lat="43.21505" lon="5.48268">
        <ele>256.9</ele>
        <time>2025-10-18T10:30:10Z</time>
      </trkpt>
      <trkpt lat="43.21505" lon="5.48269">
        <ele>257.1</ele>
        <time>2025-10-18T10:30:11Z</time>
      </trkpt>
      <trkpt lat="43.21505" lon="5.4827">
        <ele>257.3</ele>
        <time>2025-10-18T10:30:12Z</time>
      </trkpt>
      <trkpt lat="43.21505" lon="5.48271">
        <ele>257.5</ele>
        <time>2025-10-18T10:30:13Z</time>
      </trkpt>
      <trkpt lat="43.21505" lon="5.48271">
        <ele>257.6</ele>
        <time>2025-10-18T10:30:14Z</time>
      </trkpt>
      <trkpt lat="43.21505" lon="5.48272">
        <ele>257.7</ele>
        <time>2025-10-18T10:30:15Z</time>
      </trkpt>
      <trkpt lat="43.21504" lon="5.48273">
        <ele>257.8</ele>
        <time>2025-10-18T10:30:16Z</time>
      </trkpt>
      <trkpt lat="43.21504" lon="5.48274">
        <ele>257.9</ele>
        <time>2025-10-18T10:30:17Z</time>
      </trkpt>
      <trkpt lat="43.21504" lon="5.48275">
        <ele>258</ele>
        <time>2025-10-18T10:30:18Z</time>
      </trkpt>
      <trkpt lat="43.21504" lon="5.48275">
        <ele>258.2</ele>
        <time>2025-10-18T10:30:19Z</time>
      </trkpt>
      <trkpt lat="43.21504" lon="5.48276">
        <ele>258.4</ele>
        <time>2025-10-18T10:30:20Z</time>
      </trkpt>
      <trkpt lat="43.21504" lon="5.48276">
        <ele>258.6</ele>
        <time>2025-10-18T10:30:21Z</time>
      </trkpt>
      <trkpt lat="43.21505" lon="5.48276">
        <ele>258.9</ele>
        <time>2025-10-18T10:30:22Z</time>
      </trkpt>
      <trkpt lat="43.21506" lon="5.48277">
        <ele>259.2</ele>
        <time>2025-10-18T10:30:23Z</time>
      </trkpt>
      <trkpt lat="43.21506" lon="5.48277">
        <ele>259.4</ele>
        <time>2025-10-18T10:30:24Z</time>
      </trkpt>
      <trkpt lat="43.21507" lon="5.48277">
        <ele>259.6</ele>
        <time>2025-10-18T10:30:25Z</time>
      </trkpt>
      <trkpt lat="43.21507" lon="5.48278">
        <ele>259.9</ele>
        <time>2025-10-18T10:30:26Z</time>
      </trkpt>
      <trkpt lat="43.21507" lon="5.48279">
        <ele>260</ele>
        <time>2025-10-18T10:30:27Z</time>
      </trkpt>
      <trkpt lat="43.21507" lon="5.48279">
        <ele>260.3</ele>
        <time>2025-10-18T10:30:28Z</time>
      </trkpt>
      <trkpt lat="43.21507" lon="5.4828">
        <ele>260.5</ele>
        <time>2025-10-18T10:30:29Z</time>
      </trkpt>
      <trkpt lat="43.21508" lon="5.4828">
        <ele>260.7</ele>
        <time>2025-10-18T10:30:30Z</time>
      </trkpt>
      <trkpt lat="43.21509" lon="5.4828">
        <ele>260.8</ele>
        <time>2025-10-18T10:30:31Z</time>
      </trkpt>
      <trkpt lat="43.21509" lon="5.48281">
        <ele>260.8</ele>
        <time>2025-10-18T10:30:32Z</time>
      </trkpt>
      <trkpt lat="43.2151" lon="5.48281">
        <ele>261</ele>
        <time>2025-10-18T10:30:33Z</time>
      </trkpt>
      <trkpt lat="43.2151" lon="5.48282">
        <ele>261.1</ele>
        <time>2025-10-18T10:30:34Z</time>
      </trkpt>
      <trkpt lat="43.2151" lon="5.48282">
        <ele>261.2</ele>
        <time>2025-10-18T10:30:35Z</time>
      </trkpt>
      <trkpt lat="43.2151" lon="5.48282">
        <ele>261.5</ele>
        <time>2025-10-18T10:30:36Z</time>
      </trkpt>
      <trkpt lat="43.21511" lon="5.48283">
        <ele>261.5</ele>
        <time>2025-10-18T10:30:37Z</time>
      </trkpt>
      <trkpt lat="43.21511" lon="5.48283">
        <ele>261.8</ele>
        <time>2025-10-18T10:30:38Z</time>
      </trkpt>
      <trkpt lat="43.21511" lon="5.48284">
        <ele>262</ele>
        <time>2025-10-18T10:30:39Z</time>
      </trkpt>
      <trkpt lat="43.21511" lon="5.48285">
        <ele>262.3</ele>
        <time>2025-10-18T10:30:40Z</time>
      </trkpt>
      <trkpt lat="43.21511" lon="5.48286">
        <ele>262.5</ele>
        <time>2025-10-18T10:30:41Z</time>
      </trkpt>
      <trkpt lat="43.21511" lon="5.48287">
        <ele>262.7</ele>
        <time>2025-10-18T10:30:42Z</time>
      </trkpt>
      <trkpt lat="43.21511" lon="5.48288">
        <ele>262.9</ele>
        <time>2025-10-18T10:30:43Z</time>
      </trkpt>
      <trkpt lat="43.21511" lon="5.48288">
        <ele>263.2</ele>
        <time>2025-10-18T10:30:44Z</time>
      </trkpt>
      <trkpt lat="43.21511" lon="5.48289">
        <ele>263.5</ele>
        <time>2025-10-18T10:30:45Z</time>
      </trkpt>
      <trkpt lat="43.2151" lon="5.4829">
        <ele>263.8</ele>
        <time>2025-10-18T10:30:46Z</time>
      </trkpt>
      <trkpt lat="43.2151" lon="5.4829">
        <ele>263.9</ele>
        <time>2025-10-18T10:30:47Z</time>
      </trkpt>
      <trkpt lat="43.21511" lon="5.48291">
        <ele>264.1</ele>
        <time>2025-10-18T10:30:48Z</time>
      </trkpt>
      <trkpt lat="43.21511" lon="5.48292">
        <ele>264.3</ele>
        <time>2025-10-18T10:30:49Z</time>
      </trkpt>
      <trkpt lat="43.21511" lon="5.48293">
        <ele>264.5</ele>
        <time>2025-10-18T10:30:50Z</time>
      </trkpt>
      <trkpt lat="43.21511" lon="5.48293">
        <ele>264.7</ele>
        <time>2025-10-18T10:30:51Z</time>
      </trkpt>
      <trkpt lat="43.21511" lon="5.48294">
        <ele>264.9</ele>
        <time>2025-10-18T10:30:52Z</time>
      </trkpt>
      <trkpt lat="43.2151" lon="5.48294">
        <ele>265.1</ele>
        <time>2025-10-18T10:30:53Z</time>
      </trkpt>
      <trkpt lat="43.21509" lon="5.48295">
        <ele>265.2</ele>
        <time>2025-10-18T10:30:54Z</time>
      </trkpt>
      <trkpt lat="43.21509" lon="5.48295">
        <ele>265.4</ele>
        <time>2025-10-18T10:30:55Z</time>
      </trkpt>
      <trkpt lat="43.21508" lon="5.48296">
        <ele>265.3</ele>
        <time>2025-10-18T10:30:56Z</time>
      </trkpt>
      <trkpt lat="43.21507" lon="5.48297">
        <ele>265.4</ele>
        <time>2025-10-18T10:30:57Z</time>
      </trkpt>
      <trkpt lat="43.21507" lon="5.48297">
        <ele>265.5</ele>
        <time>2025-10-18T10:30:58Z</time>
      </trkpt>
      <trkpt lat="43.21506" lon="5.48298">
        <ele>265.6</ele>
        <time>2025-10-18T10:30:59Z</time>
      </trkpt>
      <trkpt lat="43.21506" lon="5.48299">
        <ele>265.8</ele>
        <time>2025-10-18T10:31:00Z</time>
      </trkpt>
      <trkpt lat="43.21505" lon="5.48299">
        <ele>265.8</ele>
        <time>2025-10-18T10:31:01Z</time>
      </trkpt>
      <trkpt lat="43.21505" lon="5.48299">
        <ele>265.9</ele>
        <time>2025-10-18T10:31:02Z</time>
      </trkpt>
      <trkpt lat="43.21504" lon="5.483">
        <ele>266.2</ele>
        <time>2025-10-18T10:31:03Z</time>
      </trkpt>
      <trkpt lat="43.21504" lon="5.48301">
        <ele>266.4</ele>
        <time>2025-10-18T10:31:04Z</time>
      </trkpt>
      <trkpt lat="43.21504" lon="5.48302">
        <ele>266.5</ele>
        <time>2025-10-18T10:31:05Z</time>
      </trkpt>
      <trkpt lat="43.21503" lon="5.48303">
        <ele>266.5</ele>
        <time>2025-10-18T10:31:06Z</time>
      </trkpt>
      <trkpt lat="43.21503" lon="5.48304">
        <ele>266.6</ele>
        <time>2025-10-18T10:31:07Z</time>
      </trkpt>
      <trkpt lat="43.21504" lon="5.48304">
        <ele>266.8</ele>
        <time>2025-10-18T10:31:08Z</time>
      </trkpt>
      <trkpt lat="43.21504" lon="5.48304">
        <ele>266.9</ele>
        <time>2025-10-18T10:31:09Z</time>
      </trkpt>
      <trkpt lat="43.21504" lon="5.48305">
        <ele>267.2</ele>
        <time>2025-10-18T10:31:10Z</time>
      </trkpt>
      <trkpt lat="43.21504" lon="5.48306">
        <ele>267.4</ele>
        <time>2025-10-18T10:31:11Z</time>
      </trkpt>
      <trkpt lat="43.21504" lon="5.48307">
        <ele>267.5</ele>
        <time>2025-10-18T10:31:12Z</time>
      </trkpt>
      <trkpt lat="43.21504" lon="5.48308">
        <ele>267.8</ele>
        <time>2025-10-18T10:31:13Z</time>
      </trkpt>
      <trkpt lat="43.21504" lon="5.48309">
        <ele>267.9</ele>
        <time>2025-10-18T10:31:14Z</time>
      </trkpt>
      <trkpt lat="43.21504" lon="5.4831">
        <ele>268.1</ele>
        <time>2025-10-18T10:31:15Z</time>
      </trkpt>
      <trkpt lat="43.21504" lon="5.48311">
        <ele>268.2</ele>
        <time>2025-10-18T10:31:16Z</time>
      </trkpt>
      <trkpt lat="43.21504" lon="5.48311">
        <ele>268.4</ele>
        <time>2025-10-18T10:31:17Z</time>
      </trkpt>
      <trkpt lat="43.21504" lon="5.48312">
        <ele>268.6</ele>
        <time>2025-10-18T10:31:18Z</time>
      </trkpt>
      <trkpt lat="43.21505" lon="5.48313">
        <ele>268.8</ele>
        <time>2025-10-18T10:31:19Z</time>
      </trkpt>
      <trkpt lat="43.21505" lon="5.48313">
        <ele>269.1</ele>
        <time>2025-10-18T10:31:20Z</time>
      </trkpt>
      <trkpt lat="43.21506" lon="5.48314">
        <ele>269.3</ele>
        <time>2025-10-18T10:31:21Z</time>
      </trkpt>
      <trkpt lat="43.21506" lon="5.48314">
        <ele>269.5</ele>
        <time>2025-10-18T10:31:22Z</time>
      </trkpt>
      <trkpt lat="43.21507" lon="5.48315">
        <ele>269.7</ele>
        <time>2025-10-18T10:31:23Z</time>
      </trkpt>
      <trkpt lat="43.21507" lon="5.48315">
        <ele>269.9</ele>
        <time>2025-10-18T10:31:24Z</time>
      </trkpt>
      <trkpt lat="43.21507" lon="5.48316">
        <ele>270.1</ele>
        <time>2025-10-18T10:31:25Z</time>
      </trkpt>
      <trkpt lat="43.21507" lon="5.48317">
        <ele>270.3</ele>
        <time>2025-10-18T10:31:26Z</time>
      </trkpt>
      <trkpt lat="43.21508" lon="5.48317">
        <ele>270.4</ele>
        <time>2025-10-18T10:31:27Z</time>
      </trkpt>
      <trkpt lat="43.21508" lon="5.48318">
        <ele>270.6</ele>
        <time>2025-10-18T10:31:28Z</time>
      </trkpt>
      <trkpt lat="43.21509" lon="5.48318">
        <ele>270.7</ele>
        <time>2025-10-18T10:31:29Z</time>
      </trkpt>
      <trkpt lat="43.21509" lon="5.48318">
        <ele>270.9</ele>
        <time>2025-10-18T10:31:30Z</time>
      </trkpt>
      <trkpt lat="43.2151" lon="5.48319">
        <ele>271</ele>
        <time>2025-10-18T10:31:31Z</time>
      </trkpt>
      <trkpt lat="43.2151" lon="5.48319">
        <ele>271.2</ele>
        <time>2025-10-18T10:31:32Z</time>
      </trkpt>
      <trkpt lat="43.21511" lon="5.4832">
        <ele>271.5</ele>
        <time>2025-10-18T10:31:33Z</time>
      </trkpt>
      <trkpt lat="43.2151" lon="5.4832">
        <ele>271.8</ele>
        <time>2025-10-18T10:31:34Z</time>
      </trkpt>
      <trkpt lat="43.2151" lon="5.48321">
        <ele>271.8</ele>
        <time>2025-10-18T10:31:35Z</time>
      </trkpt>
      <trkpt lat="43.21509" lon="5.48323">
        <ele>271.8</ele>
        <time>2025-10-18T10:31:36Z</time>
      </trkpt>
      <trkpt lat="43.21509" lon="5.48324">
        <ele>272</ele>
        <time>2025-10-18T10:31:37Z</time>
      </trkpt>
      <trkpt lat="43.21509" lon="5.48325">
        <ele>272.2</ele>
        <time>2025-10-18T10:31:38Z</time>
      </trkpt>
      <trkpt lat="43.21509" lon="5.48326">
        <ele>272.4</ele>
        <time>2025-10-18T10:31:39Z</time>
      </trkpt>
      <trkpt lat="43.21509" lon="5.48327">
        <ele>272.7</ele>
        <time>2025-10-18T10:31:40Z</time>
      </trkpt>
      <trkpt lat="43.21509" lon="5.48328">
        <ele>272.8</ele>
        <time>2025-10-18T10:31:41Z</time>
      </trkpt>
      <trkpt lat="43.2151" lon="5.48328">
        <ele>273</ele>
        <time>2025-10-18T10:31:42Z</time>
      </trkpt>
      <trkpt lat="43.2151" lon="5.48329">
        <ele>273.1</ele>
        <time>2025-10-18T10:31:43Z</time>
      </trkpt>
      <trkpt lat="43.2151" lon="5.48329">
        <ele>273.2</ele>
        <time>2025-10-18T10:31:44Z</time>
      </trkpt>
      <trkpt lat="43.2151" lon="5.4833">
        <ele>273.4</ele>
        <time>2025-10-18T10:31:45Z</time>
      </trkpt>
      <trkpt lat="43.2151" lon="5.48331">
        <ele>273.4</ele>
        <time>2025-10-18T10:31:46Z</time>
      </trkpt>
      <trkpt lat="43.2151" lon="5.48331">
        <ele>273.7</ele>
        <time>2025-10-18T10:31:47Z</time>
      </trkpt>
      <trkpt lat="43.21511" lon="5.48332">
        <ele>274</ele>
        <time>2025-10-18T10:31:48Z</time>
      </trkpt>
      <trkpt lat="43.21511" lon="5.48333">
        <ele>274.3</ele>
        <time>2025-10-18T10:31:49Z</time>
      </trkpt>
      <trkpt lat="43.21511" lon="5.48333">
        <ele>274.6</ele>
        <time>2025-10-18T10:31:50Z</time>
      </trkpt>
      <trkpt lat="43.21511" lon="5.48334">
        <ele>274.9</ele>
        <time>2025-10-18T10:31:51Z</time>
      </trkpt>
      <trkpt lat="43.2151" lon="5.48334">
        <ele>275.3</ele>
        <time>2025-10-18T10:31:52Z</time>
      </trkpt>
      <trkpt lat="43.2151" lon="5.48335">
        <ele>275.7</ele>
        <time>2025-10-18T10:31:53Z</time>
      </trkpt>
      <trkpt lat="43.21509" lon="5.48335">
        <ele>275.8</ele>
        <time>2025-10-18T10:31:54Z</time>
      </trkpt>
      <trkpt lat="43.21509" lon="5.48336">
        <ele>275.9</ele>
        <time>2025-10-18T10:31:55Z</time>
      </trkpt>
      <trkpt lat="43.21509" lon="5.48336">
        <ele>276</ele>
        <time>2025-10-18T10:31:56Z</time>
      </trkpt>
      <trkpt lat="43.21509" lon="5.48337">
        <ele>276.1</ele>
        <time>2025-10-18T10:31:57Z</time>
      </trkpt>
      <trkpt lat="43.21509" lon="5.48337">
        <ele>276.3</ele>
        <time>2025-10-18T10:31:58Z</time>
      </trkpt>
      <trkpt lat="43.21509" lon="5.48337">
        <ele>276.5</ele>
        <time>2025-10-18T10:31:59Z</time>
      </trkpt>
      <trkpt lat="43.21509" lon="5.48337">
        <ele>276.7</ele>
        <time>2025-10-18T10:32:00Z</time>
      </trkpt>
      <trkpt lat="43.21509" lon="5.48338">
        <ele>276.9</ele>
        <time>2025-10-18T10:32:01Z</time>
      </trkpt>
      <trkpt lat="43.21509" lon="5.48338">
        <ele>277.2</ele>
        <time>2025-10-18T10:32:02Z</time>
      </trkpt>
      <trkpt lat="43.21508" lon="5.48338">
        <ele>277.4</ele>
        <time>2025-10-18T10:32:03Z</time>
      </trkpt>
      <trkpt lat="43.21508" lon="5.48338">
        <ele>277.7</ele>
        <time>2025-10-18T10:32:04Z</time>
      </trkpt>
      <trkpt lat="43.21508" lon="5.48339">
        <ele>277.8</ele>
        <time>2025-10-18T10:32:05Z</time>
      </trkpt>
      <trkpt lat="43.21508" lon="5.48339">
        <ele>278</ele>
        <time>2025-10-18T10:32:06Z</time>
      </trkpt>
      <trkpt lat="43.21507" lon="5.48339">
        <ele>278.1</ele>
        <time>2025-10-18T10:32:07Z</time>
      </trkpt>
      <trkpt lat="43.21508" lon="5.48338">
        <ele>278.2</ele>
        <time>2025-10-18T10:32:08Z</time>
      </trkpt>
      <trkpt lat="43.21508" lon="5.48338">
        <ele>278.3</ele>
        <time>2025-10-18T10:32:09Z</time>
      </trkpt>
      <trkpt lat="43.21508" lon="5.48339">
        <ele>278.5</ele>
        <time>2025-10-18T10:32:10Z</time>
      </trkpt>
      <trkpt lat="43.21508" lon="5.48339">
        <ele>278.6</ele>
        <time>2025-10-18T10:32:11Z</time>
      </trkpt>
      <trkpt lat="43.21508" lon="5.4834">
        <ele>278.7</ele>
        <time>2025-10-18T10:32:12Z</time>
      </trkpt>
      <trkpt lat="43.21509" lon="5.4834">
        <ele>278.8</ele>
        <time>2025-10-18T10:32:13Z</time>
      </trkpt>
      <trkpt lat="43.21509" lon="5.4834">
        <ele>278.8</ele>
        <time>2025-10-18T10:32:14Z</time>
      </trkpt>
      <trkpt lat="43.21509" lon="5.48341">
        <ele>278.9</ele>
        <time>2025-10-18T10:32:15Z</time>
      </trkpt>
      <trkpt lat="43.2151" lon="5.48342">
        <ele>279</ele>
        <time>2025-10-18T10:32:16Z</time>
      </trkpt>
      <trkpt lat="43.2151" lon="5.48342">
        <ele>279</ele>
        <time>2025-10-18T10:32:17Z</time>
      </trkpt>
      <trkpt lat="43.21511" lon="5.48343">
        <ele>279.2</ele>
        <time>2025-10-18T10:32:18Z</time>
      </trkpt>
      <trkpt lat="43.21512" lon="5.48343">
        <ele>279.3</ele>
        <time>2025-10-18T10:32:19Z</time>
      </trkpt>
      <trkpt lat="43.21513" lon="5.48343">
        <ele>279.3</ele>
        <time>2025-10-18T10:32:20Z</time>
      </trkpt>
      <trkpt lat="43.21513" lon="5.48344">
        <ele>279.4</ele>
        <time>2025-10-18T10:32:21Z</time>
      </trkpt>
      <trkpt lat="43.21515" lon="5.48344">
        <ele>279.5</ele>
        <time>2025-10-18T10:32:22Z</time>
      </trkpt>
      <trkpt lat="43.21515" lon="5.48343">
        <ele>279.7</ele>
        <time>2025-10-18T10:32:23Z</time>
      </trkpt>
      <trkpt lat="43.21516" lon="5.48343">
        <ele>279.9</ele>
        <time>2025-10-18T10:32:24Z</time>
      </trkpt>
      <trkpt lat="43.21517" lon="5.48343">
        <ele>280</ele>
        <time>2025-10-18T10:32:25Z</time>
      </trkpt>
      <trkpt lat="43.21518" lon="5.48343">
        <ele>280.2</ele>
        <time>2025-10-18T10:32:26Z</time>
      </trkpt>
      <trkpt lat="43.21518" lon="5.48344">
        <ele>280.4</ele>
        <time>2025-10-18T10:32:27Z</time>
      </trkpt>
      <trkpt lat="43.21519" lon="5.48344">
        <ele>280.6</ele>
        <time>2025-10-18T10:32:28Z</time>
      </trkpt>
      <trkpt lat="43.2152" lon="5.48344">
        <ele>280.8</ele>
        <time>2025-10-18T10:32:29Z</time>
      </trkpt>
      <trkpt lat="43.21521" lon="5.48344">
        <ele>280.9</ele>
        <time>2025-10-18T10:32:30Z</time>
      </trkpt>
      <trkpt lat="43.21521" lon="5.48344">
        <ele>281.1</ele>
        <time>2025-10-18T10:32:31Z</time>
      </trkpt>
      <trkpt lat="43.21522" lon="5.48345">
        <ele>281.3</ele>
        <time>2025-10-18T10:32:32Z</time>
      </trkpt>
      <trkpt lat="43.21523" lon="5.48344">
        <ele>281.6</ele>
        <time>2025-10-18T10:32:33Z</time>
      </trkpt>
      <trkpt lat="43.21523" lon="5.48344">
        <ele>281.8</ele>
        <time>2025-10-18T10:32:34Z</time>
      </trkpt>
      <trkpt lat="43.21524" lon="5.48344">
        <ele>281.9</ele>
        <time>2025-10-18T10:32:35Z</time>
      </trkpt>
      <trkpt lat="43.21525" lon="5.48344">
        <ele>282.1</ele>
        <time>2025-10-18T10:32:36Z</time>
      </trkpt>
      <trkpt lat="43.21525" lon="5.48344">
        <ele>282.3</ele>
        <time>2025-10-18T10:32:37Z</time>
      </trkpt>
      <trkpt lat="43.21526" lon="5.48344">
        <ele>282.4</ele>
        <time>2025-10-18T10:32:38Z</time>
      </trkpt>
      <trkpt lat="43.21527" lon="5.48344">
        <ele>282.6</ele>
        <time>2025-10-18T10:32:39Z</time>
      </trkpt>
      <trkpt lat="43.21527" lon="5.48344">
        <ele>282.8</ele>
        <time>2025-10-18T10:32:40Z</time>
      </trkpt>
      <trkpt lat="43.21528" lon="5.48344">
        <ele>282.9</ele>
        <time>2025-10-18T10:32:41Z</time>
      </trkpt>
      <trkpt lat="43.21529" lon="5.48344">
        <ele>283.1</ele>
        <time>2025-10-18T10:32:42Z</time>
      </trkpt>
      <trkpt lat="43.21529" lon="5.48344">
        <ele>283.2</ele>
        <time>2025-10-18T10:32:43Z</time>
      </trkpt>
      <trkpt lat="43.21529" lon="5.48344">
        <ele>283.5</ele>
        <time>2025-10-18T10:32:44Z</time>
      </trkpt>
      <trkpt lat="43.2153" lon="5.48344">
        <ele>283.6</ele>
        <time>2025-10-18T10:32:45Z</time>
      </trkpt>
      <trkpt lat="43.2153" lon="5.48344">
        <ele>283.7</ele>
        <time>2025-10-18T10:32:46Z</time>
      </trkpt>
      <trkpt lat="43.21531" lon="5.48344">
        <ele>283.8</ele>
        <time>2025-10-18T10:32:47Z</time>
      </trkpt>
      <trkpt lat="43.21531" lon="5.48344">
        <ele>284</ele>
        <time>2025-10-18T10:32:48Z</time>
      </trkpt>
      <trkpt lat="43.21531" lon="5.48344">
        <ele>284.3</ele>
        <time>2025-10-18T10:32:49Z</time>
      </trkpt>
      <trkpt lat="43.21532" lon="5.48344">
        <ele>284.5</ele>
        <time>2025-10-18T10:32:50Z</time>
      </trkpt>
      <trkpt lat="43.21532" lon="5.48345">
        <ele>284.6</ele>
        <time>2025-10-18T10:32:51Z</time>
      </trkpt>
      <trkpt lat="43.21532" lon="5.48345">
        <ele>284.7</ele>
        <time>2025-10-18T10:32:52Z</time>
      </trkpt>
      <trkpt lat="43.21532" lon="5.48345">
        <ele>284.7</ele>
        <time>2025-10-18T10:32:53Z</time>
      </trkpt>
      <trkpt lat="43.21532" lon="5.48345">
        <ele>284.7</ele>
        <time>2025-10-18T10:32:54Z</time>
      </trkpt>
      <trkpt lat="43.21533" lon="5.48345">
        <ele>284.7</ele>
        <time>2025-10-18T10:32:55Z</time>
      </trkpt>
      <trkpt lat="43.21532" lon="5.48345">
        <ele>284.7</ele>
        <time>2025-10-18T10:32:56Z</time>
      </trkpt>
      <trkpt lat="43.21532" lon="5.48345">
        <ele>284.8</ele>
        <time>2025-10-18T10:32:57Z</time>
      </trkpt>
      <trkpt lat="43.21532" lon="5.48345">
        <ele>284.8</ele>
        <time>2025-10-18T10:32:58Z</time>
      </trkpt>
      <trkpt lat="43.21532" lon="5.48345">
        <ele>284.9</ele>
        <time>2025-10-18T10:32:59Z</time>
      </trkpt>
      <trkpt lat="43.21532" lon="5.48345">
        <ele>284.8</ele>
        <time>2025-10-18T10:33:00Z</time>
      </trkpt>
      <trkpt lat="43.21532" lon="5.48345">
        <ele>284.8</ele>
        <time>2025-10-18T10:33:01Z</time>
      </trkpt>
      <trkpt lat="43.21532" lon="5.48345">
        <ele>284.8</ele>
        <time>2025-10-18T10:33:02Z</time>
      </trkpt>
      <trkpt lat="43.21532" lon="5.48345">
        <ele>284.8</ele>
        <time>2025-10-18T10:33:03Z</time>
      </trkpt>
      <trkpt lat="43.21532" lon="5.48345">
        <ele>284.8</ele>
        <time>2025-10-18T10:33:04Z</time>
      </trkpt>
      <trkpt lat="43.21532" lon="5.48345">
        <ele>284.8</ele>
        <time>2025-10-18T10:33:05Z</time>
      </trkpt>
      <trkpt lat="43.21532" lon="5.48346">
        <ele>284.8</ele>
        <time>2025-10-18T10:33:06Z</time>
      </trkpt>
      <trkpt lat="43.21532" lon="5.48346">
        <ele>284.9</ele>
        <time>2025-10-18T10:33:07Z</time>
      </trkpt>
      <trkpt lat="43.21533" lon="5.48346">
        <ele>284.9</ele>
        <time>2025-10-18T10:33:08Z</time>
      </trkpt>
      <trkpt lat="43.21533" lon="5.48347">
        <ele>284.9</ele>
        <time>2025-10-18T10:33:09Z</time>
      </trkpt>
      <trkpt lat="43.21533" lon="5.48347">
        <ele>285</ele>
        <time>2025-10-18T10:33:10Z</time>
      </trkpt>
      <trkpt lat="43.21533" lon="5.48347">
        <ele>285</ele>
        <time>2025-10-18T10:33:11Z</time>
      </trkpt>
      <trkpt lat="43.21533" lon="5.48347">
        <ele>285</ele>
        <time>2025-10-18T10:33:12Z</time>
      </trkpt>
      <trkpt lat="43.21533" lon="5.48347">
        <ele>285</ele>
        <time>2025-10-18T10:33:13Z</time>
      </trkpt>
      <trkpt lat="43.21533" lon="5.48347">
        <ele>285.1</ele>
        <time>2025-10-18T10:33:14Z</time>
      </trkpt>
      <trkpt lat="43.21533" lon="5.48347">
        <ele>285.1</ele>
        <time>2025-10-18T10:33:15Z</time>
      </trkpt>
      <trkpt lat="43.21533" lon="5.48347">
        <ele>285.1</ele>
        <time>2025-10-18T10:33:16Z</time>
      </trkpt>
      <trkpt lat="43.21533" lon="5.48346">
        <ele>285.1</ele>
        <time>2025-10-18T10:33:17Z</time>
      </trkpt>
      <trkpt lat="43.21533" lon="5.48347">
        <ele>285.1</ele>
        <time>2025-10-18T10:33:18Z</time>
      </trkpt>
      <trkpt lat="43.21533" lon="5.48347">
        <ele>285</ele>
        <time>2025-10-18T10:33:19Z</time>
      </trkpt>
      <trkpt lat="43.21533" lon="5.48346">
        <ele>284.9</ele>
        <time>2025-10-18T10:33:20Z</time>
      </trkpt>
      <trkpt lat="43.21533" lon="5.48346">
        <ele>285</ele>
        <time>2025-10-18T10:33:21Z</time>
      </trkpt>
      <trkpt lat="43.21533" lon="5.48346">
        <ele>285</ele>
        <time>2025-10-18T10:33:22Z</time>
      </trkpt>
      <trkpt lat="43.21533" lon="5.48346">
        <ele>285.1</ele>
        <time>2025-10-18T10:33:23Z</time>
      </trkpt>
      <trkpt lat="43.21533" lon="5.48346">
        <ele>285.2</ele>
        <time>2025-10-18T10:33:24Z</time>
      </trkpt>
      <trkpt lat="43.21533" lon="5.48345">
        <ele>285.2</ele>
        <time>2025-10-18T10:33:25Z</time>
      </trkpt>
      <trkpt lat="43.21533" lon="5.48345">
        <ele>285.3</ele>
        <time>2025-10-18T10:33:26Z</time>
      </trkpt>
      <trkpt lat="43.21534" lon="5.48344">
        <ele>285.3</ele>
        <time>2025-10-18T10:33:27Z</time>
      </trkpt>
      <trkpt lat="43.21535" lon="5.48344">
        <ele>285.3</ele>
        <time>2025-10-18T10:33:28Z</time>
      </trkpt>
      <trkpt lat="43.21535" lon="5.48343">
        <ele>285.3</ele>
        <time>2025-10-18T10:33:29Z</time>
      </trkpt>
      <trkpt lat="43.21536" lon="5.48343">
        <ele>285.4</ele>
        <time>2025-10-18T10:33:30Z</time>
      </trkpt>
      <trkpt lat="43.21537" lon="5.48344">
        <ele>285.3</ele>
        <time>2025-10-18T10:33:31Z</time>
      </trkpt>
      <trkpt lat="43.21538" lon="5.48344">
        <ele>285.3</ele>
        <time>2025-10-18T10:33:32Z</time>
      </trkpt>
      <trkpt lat="43.21538" lon="5.48344">
        <ele>285.3</ele>
        <time>2025-10-18T10:33:33Z</time>
      </trkpt>
      <trkpt lat="43.21539" lon="5.48344">
        <ele>285.4</ele>
        <time>2025-10-18T10:33:34Z</time>
      </trkpt>
      <trkpt lat="43.21539" lon="5.48344">
        <ele>285.4</ele>
        <time>2025-10-18T10:33:35Z</time>
      </trkpt>
      <trkpt lat="43.21539" lon="5.48344">
        <ele>285.5</ele>
        <time>2025-10-18T10:33:36Z</time>
      </trkpt>
      <trkpt lat="43.21539" lon="5.48344">
        <ele>285.4</ele>
        <time>2025-10-18T10:33:37Z</time>
      </trkpt>
      <trkpt lat="43.21539" lon="5.48343">
        <ele>285.4</ele>
        <time>2025-10-18T10:33:38Z</time>
      </trkpt>
      <trkpt lat="43.21539" lon="5.48343">
        <ele>285.4</ele>
        <time>2025-10-18T10:33:39Z</time>
      </trkpt>
      <trkpt lat="43.21539" lon="5.48343">
        <ele>285.4</ele>
        <time>2025-10-18T10:33:40Z</time>
      </trkpt>
      <trkpt lat="43.21539" lon="5.48343">
        <ele>285.4</ele>
        <time>2025-10-18T10:33:41Z</time>
      </trkpt>
      <trkpt lat="43.21539" lon="5.48343">
        <ele>285.4</ele>
        <time>2025-10-18T10:33:42Z</time>
      </trkpt>
      <trkpt lat="43.21539" lon="5.48343">
        <ele>285.4</ele>
        <time>2025-10-18T10:33:43Z</time>
      </trkpt>
      <trkpt lat="43.21539" lon="5.48343">
        <ele>285.5</ele>
        <time>2025-10-18T10:33:44Z</time>
      </trkpt>
      <trkpt lat="43.21539" lon="5.48342">
        <ele>285.5</ele>
        <time>2025-10-18T10:33:45Z</time>
      </trkpt>
      <trkpt lat="43.21539" lon="5.48342">
        <ele>285.4</ele>
        <time>2025-10-18T10:33:46Z</time>
      </trkpt>
      <trkpt lat="43.21539" lon="5.48342">
        <ele>285.5</ele>
        <time>2025-10-18T10:33:47Z</time>
      </trkpt>
      <trkpt lat="43.21539" lon="5.48342">
        <ele>285.4</ele>
        <time>2025-10-18T10:33:48Z</time>
      </trkpt>
      <trkpt lat="43.21539" lon="5.48342">
        <ele>285.4</ele>
        <time>2025-10-18T10:33:49Z</time>
      </trkpt>
      <trkpt lat="43.21539" lon="5.48342">
        <ele>285.3</ele>
        <time>2025-10-18T10:33:50Z</time>
      </trkpt>
      <trkpt lat="43.21539" lon="5.48342">
        <ele>285.3</ele>
        <time>2025-10-18T10:33:51Z</time>
      </trkpt>
      <trkpt lat="43.21539" lon="5.48342">
        <ele>285.3</ele>
        <time>2025-10-18T10:33:52Z</time>
      </trkpt>
      <trkpt lat="43.21539" lon="5.48342">
        <ele>285.4</ele>
        <time>2025-10-18T10:33:53Z</time>
      </trkpt>
      <trkpt lat="43.21539" lon="5.48342">
        <ele>285.5</ele>
        <time>2025-10-18T10:33:54Z</time>
      </trkpt>
      <trkpt lat="43.21539" lon="5.48342">
        <ele>285.5</ele>
        <time>2025-10-18T10:33:55Z</time>
      </trkpt>
      <trkpt lat="43.21539" lon="5.48342">
        <ele>285.5</ele>
        <time>2025-10-18T10:33:56Z</time>
      </trkpt>
      <trkpt lat="43.21539" lon="5.48342">
        <ele>285.5</ele>
        <time>2025-10-18T10:33:57Z</time>
      </trkpt>
      <trkpt lat="43.21539" lon="5.48342">
        <ele>285.6</ele>
        <time>2025-10-18T10:33:58Z</time>
      </trkpt>
      <trkpt lat="43.21539" lon="5.48342">
        <ele>285.6</ele>
        <time>2025-10-18T10:33:59Z</time>
      </trkpt>
      <trkpt lat="43.21539" lon="5.48342">
        <ele>285.5</ele>
        <time>2025-10-18T10:34:00Z</time>
      </trkpt>
      <trkpt lat="43.21539" lon="5.48342">
        <ele>285.5</ele>
        <time>2025-10-18T10:34:01Z</time>
      </trkpt>
      <trkpt lat="43.21539" lon="5.48343">
        <ele>285.4</ele>
        <time>2025-10-18T10:34:02Z</time>
      </trkpt>
      <trkpt lat="43.21539" lon="5.48343">
        <ele>285.4</ele>
        <time>2025-10-18T10:34:03Z</time>
      </trkpt>
      <trkpt lat="43.21539" lon="5.48343">
        <ele>285.5</ele>
        <time>2025-10-18T10:34:04Z</time>
      </trkpt>
      <trkpt lat="43.21539" lon="5.48343">
        <ele>285.6</ele>
        <time>2025-10-18T10:34:05Z</time>
      </trkpt>
      <trkpt lat="43.21539" lon="5.48343">
        <ele>285.6</ele>
        <time>2025-10-18T10:34:06Z</time>
      </trkpt>
      <trkpt lat="43.21539" lon="5.48343">
        <ele>285.5</ele>
        <time>2025-10-18T10:34:07Z</time>
      </trkpt>
      <trkpt lat="43.21539" lon="5.48343">
        <ele>285.5</ele>
        <time>2025-10-18T10:34:08Z</time>
      </trkpt>
      <trkpt lat="43.21539" lon="5.48343">
        <ele>285.5</ele>
        <time>2025-10-18T10:34:09Z</time>
      </trkpt>
      <trkpt lat="43.21539" lon="5.48343">
        <ele>285.5</ele>
        <time>2025-10-18T10:34:10Z</time>
      </trkpt>
      <trkpt lat="43.21539" lon="5.48343">
        <ele>285.5</ele>
        <time>2025-10-18T10:34:11Z</time>
      </trkpt>
      <trkpt lat="43.21539" lon="5.48343">
        <ele>285.5</ele>
        <time>2025-10-18T10:34:12Z</time>
      </trkpt>
      <trkpt lat="43.21539" lon="5.48343">
        <ele>285.5</ele>
        <time>2025-10-18T10:34:13Z</time>
      </trkpt>
      <trkpt lat="43.21539" lon="5.48343">
        <ele>285.6</ele>
        <time>2025-10-18T10:34:14Z</time>
      </trkpt>
      <trkpt lat="43.21539" lon="5.48343">
        <ele>285.6</ele>
        <time>2025-10-18T10:34:15Z</time>
      </trkpt>
      <trkpt lat="43.21539" lon="5.48343">
        <ele>285.6</ele>
        <time>2025-10-18T10:34:16Z</time>
      </trkpt>
      <trkpt lat="43.21539" lon="5.48343">
        <ele>285.4</ele>
        <time>2025-10-18T10:34:17Z</time>
      </trkpt>
      <trkpt lat="43.21539" lon="5.48343">
        <ele>285.4</ele>
        <time>2025-10-18T10:34:18Z</time>
      </trkpt>
      <trkpt lat="43.21539" lon="5.48343">
        <ele>285.4</ele>
        <time>2025-10-18T10:34:19Z</time>
      </trkpt>
      <trkpt lat="43.2154" lon="5.48343">
        <ele>285.3</ele>
        <time>2025-10-18T10:34:20Z</time>
      </trkpt>
      <trkpt lat="43.2154" lon="5.48343">
        <ele>285.3</ele>
        <time>2025-10-18T10:34:21Z</time>
      </trkpt>
      <trkpt lat="43.2154" lon="5.48343">
        <ele>285.3</ele>
        <time>2025-10-18T10:34:22Z</time>
      </trkpt>
      <trkpt lat="43.2154" lon="5.48343">
        <ele>285.3</ele>
        <time>2025-10-18T10:34:23Z</time>
      </trkpt>
      <trkpt lat="43.2154" lon="5.48344">
        <ele>285.3</ele>
        <time>2025-10-18T10:34:24Z</time>
      </trkpt>
      <trkpt lat="43.2154" lon="5.48344">
        <ele>285.3</ele>
        <time>2025-10-18T10:34:25Z</time>
      </trkpt>
      <trkpt lat="43.2154" lon="5.48344">
        <ele>285.3</ele>
        <time>2025-10-18T10:34:26Z</time>
      </trkpt>
      <trkpt lat="43.2154" lon="5.48344">
        <ele>285.3</ele>
        <time>2025-10-18T10:34:27Z</time>
      </trkpt>
      <trkpt lat="43.2154" lon="5.48344">
        <ele>285.3</ele>
        <time>2025-10-18T10:34:28Z</time>
      </trkpt>
      <trkpt lat="43.2154" lon="5.48344">
        <ele>285.4</ele>
        <time>2025-10-18T10:34:29Z</time>
      </trkpt>
      <trkpt lat="43.2154" lon="5.48344">
        <ele>285.5</ele>
        <time>2025-10-18T10:34:30Z</time>
      </trkpt>
      <trkpt lat="43.2154" lon="5.48344">
        <ele>285.5</ele>
        <time>2025-10-18T10:34:31Z</time>
      </trkpt>
      <trkpt lat="43.21541" lon="5.48344">
        <ele>285.6</ele>
        <time>2025-10-18T10:34:32Z</time>
      </trkpt>
      <trkpt lat="43.21541" lon="5.48344">
        <ele>285.6</ele>
        <time>2025-10-18T10:34:33Z</time>
      </trkpt>
      <trkpt lat="43.21541" lon="5.48344">
        <ele>285.6</ele>
        <time>2025-10-18T10:34:34Z</time>
      </trkpt>
      <trkpt lat="43.21541" lon="5.48344">
        <ele>285.6</ele>
        <time>2025-10-18T10:34:35Z</time>
      </trkpt>
      <trkpt lat="43.21541" lon="5.48344">
        <ele>285.6</ele>
        <time>2025-10-18T10:34:36Z</time>
      </trkpt>
      <trkpt lat="43.21541" lon="5.48345">
        <ele>285.6</ele>
        <time>2025-10-18T10:34:37Z</time>
      </trkpt>
      <trkpt lat="43.21541" lon="5.48345">
        <ele>285.6</ele>
        <time>2025-10-18T10:34:38Z</time>
      </trkpt>
      <trkpt lat="43.21541" lon="5.48345">
        <ele>285.6</ele>
        <time>2025-10-18T10:34:39Z</time>
      </trkpt>
      <trkpt lat="43.21541" lon="5.48345">
        <ele>285.6</ele>
        <time>2025-10-18T10:34:40Z</time>
      </trkpt>
      <trkpt lat="43.21541" lon="5.48345">
        <ele>285.6</ele>
        <time>2025-10-18T10:34:41Z</time>
      </trkpt>
      <trkpt lat="43.21541" lon="5.48345">
        <ele>285.6</ele>
        <time>2025-10-18T10:34:42Z</time>
      </trkpt>
      <trkpt lat="43.21541" lon="5.48344">
        <ele>285.6</ele>
        <time>2025-10-18T10:34:43Z</time>
      </trkpt>
      <trkpt lat="43.2154" lon="5.48344">
        <ele>285.6</ele>
        <time>2025-10-18T10:34:44Z</time>
      </trkpt>
      <trkpt lat="43.2154" lon="5.48343">
        <ele>285.5</ele>
        <time>2025-10-18T10:34:45Z</time>
      </trkpt>
      <trkpt lat="43.2154" lon="5.48342">
        <ele>285.6</ele>
        <time>2025-10-18T10:34:46Z</time>
      </trkpt>
      <trkpt lat="43.2154" lon="5.48342">
        <ele>285.4</ele>
        <time>2025-10-18T10:34:47Z</time>
      </trkpt>
      <trkpt lat="43.2154" lon="5.48342">
        <ele>285.4</ele>
        <time>2025-10-18T10:34:48Z</time>
      </trkpt>
      <trkpt lat="43.2154" lon="5.48342">
        <ele>285.4</ele>
        <time>2025-10-18T10:34:49Z</time>
      </trkpt>
      <trkpt lat="43.2154" lon="5.48342">
        <ele>285.4</ele>
        <time>2025-10-18T10:34:50Z</time>
      </trkpt>
      <trkpt lat="43.2154" lon="5.48342">
        <ele>285.4</ele>
        <time>2025-10-18T10:34:51Z</time>
      </trkpt>
      <trkpt lat="43.2154" lon="5.48342">
        <ele>285.4</ele>
        <time>2025-10-18T10:34:52Z</time>
      </trkpt>
      <trkpt lat="43.2154" lon="5.48342">
        <ele>285.4</ele>
        <time>2025-10-18T10:34:53Z</time>
      </trkpt>
      <trkpt lat="43.2154" lon="5.48342">
        <ele>285.4</ele>
        <time>2025-10-18T10:34:54Z</time>
      </trkpt>
      <trkpt lat="43.2154" lon="5.48342">
        <ele>285.4</ele>
        <time>2025-10-18T10:34:55Z</time>
      </trkpt>
      <trkpt lat="43.2154" lon="5.48342">
        <ele>285.4</ele>
        <time>2025-10-18T10:34:56Z</time>
      </trkpt>
      <trkpt lat="43.21539" lon="5.48342">
        <ele>285.4</ele>
        <time>2025-10-18T10:34:57Z</time>
      </trkpt>
      <trkpt lat="43.21539" lon="5.48342">
        <ele>285.4</ele>
        <time>2025-10-18T10:34:58Z</time>
      </trkpt>
      <trkpt lat="43.21539" lon="5.48342">
        <ele>285.4</ele>
        <time>2025-10-18T10:34:59Z</time>
      </trkpt>
      <trkpt lat="43.21539" lon="5.48342">
        <ele>285.4</ele>
        <time>2025-10-18T10:35:00Z</time>
      </trkpt>
      <trkpt lat="43.21539" lon="5.48342">
        <ele>285.4</ele>
        <time>2025-10-18T10:35:01Z</time>
      </trkpt>
      <trkpt lat="43.21539" lon="5.48342">
        <ele>285.4</ele>
        <time>2025-10-18T10:35:02Z</time>
      </trkpt>
      <trkpt lat="43.21539" lon="5.48342">
        <ele>285.4</ele>
        <time>2025-10-18T10:35:03Z</time>
      </trkpt>
      <trkpt lat="43.21539" lon="5.48342">
        <ele>285.5</ele>
        <time>2025-10-18T10:35:04Z</time>
      </trkpt>
      <trkpt lat="43.21539" lon="5.48342">
        <ele>285.4</ele>
        <time>2025-10-18T10:35:05Z</time>
      </trkpt>
      <trkpt lat="43.21539" lon="5.48342">
        <ele>285.4</ele>
        <time>2025-10-18T10:35:06Z</time>
      </trkpt>
      <trkpt lat="43.21539" lon="5.48342">
        <ele>285.4</ele>
        <time>2025-10-18T10:35:07Z</time>
      </trkpt>
      <trkpt lat="43.21539" lon="5.48342">
        <ele>285.4</ele>
        <time>2025-10-18T10:35:08Z</time>
      </trkpt>
      <trkpt lat="43.21539" lon="5.48342">
        <ele>285.4</ele>
        <time>2025-10-18T10:35:09Z</time>
      </trkpt>
      <trkpt lat="43.21539" lon="5.48341">
        <ele>285.4</ele>
        <time>2025-10-18T10:35:10Z</time>
      </trkpt>
      <trkpt lat="43.21539" lon="5.48341">
        <ele>285.4</ele>
        <time>2025-10-18T10:35:11Z</time>
      </trkpt>
      <trkpt lat="43.21539" lon="5.48341">
        <ele>285.4</ele>
        <time>2025-10-18T10:35:12Z</time>
      </trkpt>
      <trkpt lat="43.21539" lon="5.48341">
        <ele>285.5</ele>
        <time>2025-10-18T10:35:13Z</time>
      </trkpt>
      <trkpt lat="43.21538" lon="5.48341">
        <ele>285.4</ele>
        <time>2025-10-18T10:35:14Z</time>
      </trkpt>
      <trkpt lat="43.21538" lon="5.48341">
        <ele>285.4</ele>
        <time>2025-10-18T10:35:15Z</time>
      </trkpt>
      <trkpt lat="43.21538" lon="5.48341">
        <ele>285.5</ele>
        <time>2025-10-18T10:35:16Z</time>
      </trkpt>
      <trkpt lat="43.21538" lon="5.48341">
        <ele>285.6</ele>
        <time>2025-10-18T10:35:17Z</time>
      </trkpt>
      <trkpt lat="43.21538" lon="5.48341">
        <ele>285.7</ele>
        <time>2025-10-18T10:35:18Z</time>
      </trkpt>
      <trkpt lat="43.21538" lon="5.48341">
        <ele>285.6</ele>
        <time>2025-10-18T10:35:19Z</time>
      </trkpt>
      <trkpt lat="43.21538" lon="5.48341">
        <ele>285.6</ele>
        <time>2025-10-18T10:35:20Z</time>
      </trkpt>
      <trkpt lat="43.21538" lon="5.48341">
        <ele>285.6</ele>
        <time>2025-10-18T10:35:21Z</time>
      </trkpt>
      <trkpt lat="43.21538" lon="5.48341">
        <ele>285.5</ele>
        <time>2025-10-18T10:35:22Z</time>
      </trkpt>
      <trkpt lat="43.21538" lon="5.48341">
        <ele>285.6</ele>
        <time>2025-10-18T10:35:23Z</time>
      </trkpt>
      <trkpt lat="43.21538" lon="5.48341">
        <ele>285.6</ele>
        <time>2025-10-18T10:35:24Z</time>
      </trkpt>
      <trkpt lat="43.21538" lon="5.48341">
        <ele>285.7</ele>
        <time>2025-10-18T10:35:25Z</time>
      </trkpt>
      <trkpt lat="43.21538" lon="5.48341">
        <ele>285.7</ele>
        <time>2025-10-18T10:35:26Z</time>
      </trkpt>
      <trkpt lat="43.21538" lon="5.48342">
        <ele>285.7</ele>
        <time>2025-10-18T10:35:27Z</time>
      </trkpt>
      <trkpt lat="43.21538" lon="5.48342">
        <ele>285.6</ele>
        <time>2025-10-18T10:35:28Z</time>
      </trkpt>
      <trkpt lat="43.21538" lon="5.48342">
        <ele>285.6</ele>
        <time>2025-10-18T10:35:29Z</time>
      </trkpt>
      <trkpt lat="43.21538" lon="5.48342">
        <ele>285.6</ele>
        <time>2025-10-18T10:35:30Z</time>
      </trkpt>
      <trkpt lat="43.21538" lon="5.48342">
        <ele>285.5</ele>
        <time>2025-10-18T10:35:31Z</time>
      </trkpt>
      <trkpt lat="43.21538" lon="5.48342">
        <ele>285.5</ele>
        <time>2025-10-18T10:35:32Z</time>
      </trkpt>
      <trkpt lat="43.21538" lon="5.48342">
        <ele>285.5</ele>
        <time>2025-10-18T10:35:33Z</time>
      </trkpt>
      <trkpt lat="43.21538" lon="5.48342">
        <ele>285.4</ele>
        <time>2025-10-18T10:35:34Z</time>
      </trkpt>
      <trkpt lat="43.21538" lon="5.48342">
        <ele>285.3</ele>
        <time>2025-10-18T10:35:35Z</time>
      </trkpt>
      <trkpt lat="43.21538" lon="5.48342">
        <ele>285.3</ele>
        <time>2025-10-18T10:35:36Z</time>
      </trkpt>
      <trkpt lat="43.21538" lon="5.48342">
        <ele>285.2</ele>
        <time>2025-10-18T10:35:37Z</time>
      </trkpt>
      <trkpt lat="43.21538" lon="5.48342">
        <ele>285.2</ele>
        <time>2025-10-18T10:35:38Z</time>
      </trkpt>
      <trkpt lat="43.21538" lon="5.48342">
        <ele>285.2</ele>
        <time>2025-10-18T10:35:39Z</time>
      </trkpt>
      <trkpt lat="43.21538" lon="5.48342">
        <ele>285.3</ele>
        <time>2025-10-18T10:35:40Z</time>
      </trkpt>
      <trkpt lat="43.21537" lon="5.48342">
        <ele>285.2</ele>
        <time>2025-10-18T10:35:41Z</time>
      </trkpt>
      <trkpt lat="43.21537" lon="5.48342">
        <ele>285.3</ele>
        <time>2025-10-18T10:35:42Z</time>
      </trkpt>
      <trkpt lat="43.21537" lon="5.48343">
        <ele>285.2</ele>
        <time>2025-10-18T10:35:43Z</time>
      </trkpt>
      <trkpt lat="43.21538" lon="5.48343">
        <ele>285.2</ele>
        <time>2025-10-18T10:35:44Z</time>
      </trkpt>
      <trkpt lat="43.21538" lon="5.48343">
        <ele>285.2</ele>
        <time>2025-10-18T10:35:45Z</time>
      </trkpt>
      <trkpt lat="43.21538" lon="5.48343">
        <ele>285.2</ele>
        <time>2025-10-18T10:35:46Z</time>
      </trkpt>
      <trkpt lat="43.21538" lon="5.48342">
        <ele>285.2</ele>
        <time>2025-10-18T10:35:47Z</time>
      </trkpt>
      <trkpt lat="43.21538" lon="5.48343">
        <ele>285.3</ele>
        <time>2025-10-18T10:35:48Z</time>
      </trkpt>
      <trkpt lat="43.21538" lon="5.48342">
        <ele>285.3</ele>
        <time>2025-10-18T10:35:49Z</time>
      </trkpt>
      <trkpt lat="43.21538" lon="5.48342">
        <ele>285.3</ele>
        <time>2025-10-18T10:35:50Z</time>
      </trkpt>
      <trkpt lat="43.21538" lon="5.48342">
        <ele>285.3</ele>
        <time>2025-10-18T10:35:51Z</time>
      </trkpt>
      <trkpt lat="43.21538" lon="5.48342">
        <ele>285.3</ele>
        <time>2025-10-18T10:35:52Z</time>
      </trkpt>
      <trkpt lat="43.21538" lon="5.48342">
        <ele>285.3</ele>
        <time>2025-10-18T10:35:53Z</time>
      </trkpt>
      <trkpt lat="43.21538" lon="5.48342">
        <ele>285.3</ele>
        <time>2025-10-18T10:35:54Z</time>
      </trkpt>
      <trkpt lat="43.21538" lon="5.48342">
        <ele>285.3</ele>
        <time>2025-10-18T10:35:55Z</time>
      </trkpt>
      <trkpt lat="43.21538" lon="5.48342">
        <ele>285.4</ele>
        <time>2025-10-18T10:35:56Z</time>
      </trkpt>
      <trkpt lat="43.21538" lon="5.48342">
        <ele>285.4</ele>
        <time>2025-10-18T10:35:57Z</time>
      </trkpt>
      <trkpt lat="43.21538" lon="5.48342">
        <ele>285.4</ele>
        <time>2025-10-18T10:35:58Z</time>
      </trkpt>
      <trkpt lat="43.21539" lon="5.48342">
        <ele>285.4</ele>
        <time>2025-10-18T10:35:59Z</time>
      </trkpt>
      <trkpt lat="43.21539" lon="5.48342">
        <ele>285.5</ele>
        <time>2025-10-18T10:36:00Z</time>
      </trkpt>
      <trkpt lat="43.21539" lon="5.48342">
        <ele>285.5</ele>
        <time>2025-10-18T10:36:01Z</time>
      </trkpt>
      <trkpt lat="43.21539" lon="5.48342">
        <ele>285.4</ele>
        <time>2025-10-18T10:36:02Z</time>
      </trkpt>
      <trkpt lat="43.21539" lon="5.48341">
        <ele>285.4</ele>
        <time>2025-10-18T10:36:03Z</time>
      </trkpt>
      <trkpt lat="43.21539" lon="5.48341">
        <ele>285.4</ele>
        <time>2025-10-18T10:36:04Z</time>
      </trkpt>
      <trkpt lat="43.21539" lon="5.48341">
        <ele>285.4</ele>
        <time>2025-10-18T10:36:05Z</time>
      </trkpt>
      <trkpt lat="43.21539" lon="5.48341">
        <ele>285.4</ele>
        <time>2025-10-18T10:36:06Z</time>
      </trkpt>
      <trkpt lat="43.2154" lon="5.48341">
        <ele>285.5</ele>
        <time>2025-10-18T10:36:07Z</time>
      </trkpt>
      <trkpt lat="43.2154" lon="5.48341">
        <ele>285.5</ele>
        <time>2025-10-18T10:36:08Z</time>
      </trkpt>
      <trkpt lat="43.2154" lon="5.4834">
        <ele>285.6</ele>
        <time>2025-10-18T10:36:09Z</time>
      </trkpt>
      <trkpt lat="43.2154" lon="5.4834">
        <ele>285.7</ele>
        <time>2025-10-18T10:36:10Z</time>
      </trkpt>
      <trkpt lat="43.2154" lon="5.4834">
        <ele>285.8</ele>
        <time>2025-10-18T10:36:11Z</time>
      </trkpt>
      <trkpt lat="43.2154" lon="5.4834">
        <ele>285.8</ele>
        <time>2025-10-18T10:36:12Z</time>
      </trkpt>
      <trkpt lat="43.2154" lon="5.4834">
        <ele>285.7</ele>
        <time>2025-10-18T10:36:13Z</time>
      </trkpt>
      <trkpt lat="43.21539" lon="5.4834">
        <ele>285.6</ele>
        <time>2025-10-18T10:36:14Z</time>
      </trkpt>
      <trkpt lat="43.21539" lon="5.4834">
        <ele>285.5</ele>
        <time>2025-10-18T10:36:15Z</time>
      </trkpt>
      <trkpt lat="43.21539" lon="5.48339">
        <ele>285.4</ele>
        <time>2025-10-18T10:36:16Z</time>
      </trkpt>
      <trkpt lat="43.21539" lon="5.48339">
        <ele>285.4</ele>
        <time>2025-10-18T10:36:17Z</time>
      </trkpt>
      <trkpt lat="43.21539" lon="5.48339">
        <ele>285.4</ele>
        <time>2025-10-18T10:36:18Z</time>
      </trkpt>
      <trkpt lat="43.21539" lon="5.48339">
        <ele>285.4</ele>
        <time>2025-10-18T10:36:19Z</time>
      </trkpt>
      <trkpt lat="43.21539" lon="5.48339">
        <ele>285.5</ele>
        <time>2025-10-18T10:36:20Z</time>
      </trkpt>
      <trkpt lat="43.21539" lon="5.48339">
        <ele>285.5</ele>
        <time>2025-10-18T10:36:21Z</time>
      </trkpt>
      <trkpt lat="43.21539" lon="5.48339">
        <ele>285.6</ele>
        <time>2025-10-18T10:36:22Z</time>
      </trkpt>
      <trkpt lat="43.21539" lon="5.48339">
        <ele>285.7</ele>
        <time>2025-10-18T10:36:23Z</time>
      </trkpt>
      <trkpt lat="43.21539" lon="5.48339">
        <ele>285.7</ele>
        <time>2025-10-18T10:36:24Z</time>
      </trkpt>
      <trkpt lat="43.21539" lon="5.48339">
        <ele>285.6</ele>
        <time>2025-10-18T10:36:25Z</time>
      </trkpt>
      <trkpt lat="43.2154" lon="5.48339">
        <ele>285.7</ele>
        <time>2025-10-18T10:36:26Z</time>
      </trkpt>
      <trkpt lat="43.2154" lon="5.48338">
        <ele>285.8</ele>
        <time>2025-10-18T10:36:27Z</time>
      </trkpt>
      <trkpt lat="43.2154" lon="5.48338">
        <ele>285.8</ele>
        <time>2025-10-18T10:36:28Z</time>
      </trkpt>
      <trkpt lat="43.2154" lon="5.48338">
        <ele>285.7</ele>
        <time>2025-10-18T10:36:29Z</time>
      </trkpt>
      <trkpt lat="43.2154" lon="5.48338">
        <ele>285.6</ele>
        <time>2025-10-18T10:36:30Z</time>
      </trkpt>
      <trkpt lat="43.2154" lon="5.48338">
        <ele>285.6</ele>
        <time>2025-10-18T10:36:31Z</time>
      </trkpt>
      <trkpt lat="43.2154" lon="5.48338">
        <ele>285.5</ele>
        <time>2025-10-18T10:36:32Z</time>
      </trkpt>
      <trkpt lat="43.2154" lon="5.48338">
        <ele>285.5</ele>
        <time>2025-10-18T10:36:33Z</time>
      </trkpt>
      <trkpt lat="43.2154" lon="5.48338">
        <ele>285.5</ele>
        <time>2025-10-18T10:36:34Z</time>
      </trkpt>
      <trkpt lat="43.2154" lon="5.48338">
        <ele>285.4</ele>
        <time>2025-10-18T10:36:35Z</time>
      </trkpt>
      <trkpt lat="43.2154" lon="5.48338">
        <ele>285.4</ele>
        <time>2025-10-18T10:36:36Z</time>
      </trkpt>
      <trkpt lat="43.2154" lon="5.48338">
        <ele>285.3</ele>
        <time>2025-10-18T10:36:37Z</time>
      </trkpt>
      <trkpt lat="43.2154" lon="5.48337">
        <ele>285.4</ele>
        <time>2025-10-18T10:36:38Z</time>
      </trkpt>
      <trkpt lat="43.2154" lon="5.48337">
        <ele>285.5</ele>
        <time>2025-10-18T10:36:39Z</time>
      </trkpt>
      <trkpt lat="43.2154" lon="5.48337">
        <ele>285.6</ele>
        <time>2025-10-18T10:36:40Z</time>
      </trkpt>
      <trkpt lat="43.2154" lon="5.48337">
        <ele>285.7</ele>
        <time>2025-10-18T10:36:41Z</time>
      </trkpt>
      <trkpt lat="43.2154" lon="5.48337">
        <ele>285.8</ele>
        <time>2025-10-18T10:36:42Z</time>
      </trkpt>
      <trkpt lat="43.2154" lon="5.48337">
        <ele>285.8</ele>
        <time>2025-10-18T10:36:43Z</time>
      </trkpt>
      <trkpt lat="43.2154" lon="5.48337">
        <ele>285.8</ele>
        <time>2025-10-18T10:36:44Z</time>
      </trkpt>
      <trkpt lat="43.2154" lon="5.48337">
        <ele>285.9</ele>
        <time>2025-10-18T10:36:45Z</time>
      </trkpt>
      <trkpt lat="43.2154" lon="5.48337">
        <ele>285.9</ele>
        <time>2025-10-18T10:36:46Z</time>
      </trkpt>
      <trkpt lat="43.2154" lon="5.48337">
        <ele>285.8</ele>
        <time>2025-10-18T10:36:47Z</time>
      </trkpt>
      <trkpt lat="43.2154" lon="5.48338">
        <ele>285.8</ele>
        <time>2025-10-18T10:36:48Z</time>
      </trkpt>
      <trkpt lat="43.2154" lon="5.48338">
        <ele>285.8</ele>
        <time>2025-10-18T10:36:49Z</time>
      </trkpt>
      <trkpt lat="43.2154" lon="5.48338">
        <ele>285.9</ele>
        <time>2025-10-18T10:36:50Z</time>
      </trkpt>
      <trkpt lat="43.2154" lon="5.48337">
        <ele>285.9</ele>
        <time>2025-10-18T10:36:51Z</time>
      </trkpt>
      <trkpt lat="43.2154" lon="5.48337">
        <ele>285.9</ele>
        <time>2025-10-18T10:36:52Z</time>
      </trkpt>
      <trkpt lat="43.2154" lon="5.48337">
        <ele>285.9</ele>
        <time>2025-10-18T10:36:53Z</time>
      </trkpt>
      <trkpt lat="43.2154" lon="5.48337">
        <ele>285.9</ele>
        <time>2025-10-18T10:36:54Z</time>
      </trkpt>
      <trkpt lat="43.2154" lon="5.48337">
        <ele>285.8</ele>
        <time>2025-10-18T10:36:55Z</time>
      </trkpt>
      <trkpt lat="43.2154" lon="5.48337">
        <ele>285.8</ele>
        <time>2025-10-18T10:36:56Z</time>
      </trkpt>
      <trkpt lat="43.21541" lon="5.48337">
        <ele>285.9</ele>
        <time>2025-10-18T10:36:57Z</time>
      </trkpt>
      <trkpt lat="43.21541" lon="5.48337">
        <ele>285.9</ele>
        <time>2025-10-18T10:36:58Z</time>
      </trkpt>
      <trkpt lat="43.21541" lon="5.48338">
        <ele>285.9</ele>
        <time>2025-10-18T10:36:59Z</time>
      </trkpt>
      <trkpt lat="43.21541" lon="5.48338">
        <ele>285.9</ele>
        <time>2025-10-18T10:37:00Z</time>
      </trkpt>
      <trkpt lat="43.21541" lon="5.48338">
        <ele>285.9</ele>
        <time>2025-10-18T10:37:01Z</time>
      </trkpt>
      <trkpt lat="43.21541" lon="5.48338">
        <ele>285.8</ele>
        <time>2025-10-18T10:37:02Z</time>
      </trkpt>
      <trkpt lat="43.21541" lon="5.48338">
        <ele>285.8</ele>
        <time>2025-10-18T10:37:03Z</time>
      </trkpt>
      <trkpt lat="43.21541" lon="5.48338">
        <ele>285.8</ele>
        <time>2025-10-18T10:37:04Z</time>
      </trkpt>
      <trkpt lat="43.21541" lon="5.48338">
        <ele>285.8</ele>
        <time>2025-10-18T10:37:05Z</time>
      </trkpt>
      <trkpt lat="43.21541" lon="5.48338">
        <ele>285.9</ele>
        <time>2025-10-18T10:37:06Z</time>
      </trkpt>
      <trkpt lat="43.21541" lon="5.48338">
        <ele>285.9</ele>
        <time>2025-10-18T10:37:07Z</time>
      </trkpt>
      <trkpt lat="43.21541" lon="5.48339">
        <ele>285.9</ele>
        <time>2025-10-18T10:37:08Z</time>
      </trkpt>
      <trkpt lat="43.21541" lon="5.48339">
        <ele>286</ele>
        <time>2025-10-18T10:37:09Z</time>
      </trkpt>
      <trkpt lat="43.21541" lon="5.48339">
        <ele>286.1</ele>
        <time>2025-10-18T10:37:10Z</time>
      </trkpt>
      <trkpt lat="43.2154" lon="5.48339">
        <ele>286.2</ele>
        <time>2025-10-18T10:37:11Z</time>
      </trkpt>
      <trkpt lat="43.2154" lon="5.48339">
        <ele>286.2</ele>
        <time>2025-10-18T10:37:12Z</time>
      </trkpt>
      <trkpt lat="43.2154" lon="5.4834">
        <ele>286.2</ele>
        <time>2025-10-18T10:37:13Z</time>
      </trkpt>
      <trkpt lat="43.21541" lon="5.4834">
        <ele>286.2</ele>
        <time>2025-10-18T10:37:14Z</time>
      </trkpt>
      <trkpt lat="43.21541" lon="5.4834">
        <ele>286.3</ele>
        <time>2025-10-18T10:37:15Z</time>
      </trkpt>
      <trkpt lat="43.21541" lon="5.4834">
        <ele>286.4</ele>
        <time>2025-10-18T10:37:16Z</time>
      </trkpt>
      <trkpt lat="43.21541" lon="5.4834">
        <ele>286.3</ele>
        <time>2025-10-18T10:37:17Z</time>
      </trkpt>
      <trkpt lat="43.21541" lon="5.4834">
        <ele>286.2</ele>
        <time>2025-10-18T10:37:18Z</time>
      </trkpt>
      <trkpt lat="43.21541" lon="5.4834">
        <ele>286.2</ele>
        <time>2025-10-18T10:37:19Z</time>
      </trkpt>
      <trkpt lat="43.21541" lon="5.4834">
        <ele>286.2</ele>
        <time>2025-10-18T10:37:20Z</time>
      </trkpt>
      <trkpt lat="43.21541" lon="5.4834">
        <ele>286.1</ele>
        <time>2025-10-18T10:37:21Z</time>
      </trkpt>
      <trkpt lat="43.21541" lon="5.4834">
        <ele>286.1</ele>
        <time>2025-10-18T10:37:22Z</time>
      </trkpt>
      <trkpt lat="43.21541" lon="5.4834">
        <ele>286</ele>
        <time>2025-10-18T10:37:23Z</time>
      </trkpt>
      <trkpt lat="43.21541" lon="5.4834">
        <ele>286</ele>
        <time>2025-10-18T10:37:24Z</time>
      </trkpt>
      <trkpt lat="43.21541" lon="5.4834">
        <ele>286</ele>
        <time>2025-10-18T10:37:25Z</time>
      </trkpt>
      <trkpt lat="43.21541" lon="5.4834">
        <ele>286</ele>
        <time>2025-10-18T10:37:26Z</time>
      </trkpt>
      <trkpt lat="43.21541" lon="5.4834">
        <ele>286</ele>
        <time>2025-10-18T10:37:27Z</time>
      </trkpt>
      <trkpt lat="43.21541" lon="5.48341">
        <ele>286</ele>
        <time>2025-10-18T10:37:28Z</time>
      </trkpt>
      <trkpt lat="43.21541" lon="5.48341">
        <ele>286</ele>
        <time>2025-10-18T10:37:29Z</time>
      </trkpt>
      <trkpt lat="43.21541" lon="5.48341">
        <ele>286</ele>
        <time>2025-10-18T10:37:30Z</time>
      </trkpt>
      <trkpt lat="43.21541" lon="5.48341">
        <ele>286</ele>
        <time>2025-10-18T10:37:31Z</time>
      </trkpt>
      <trkpt lat="43.21541" lon="5.48341">
        <ele>286</ele>
        <time>2025-10-18T10:37:32Z</time>
      </trkpt>
      <trkpt lat="43.21541" lon="5.48341">
        <ele>286.1</ele>
        <time>2025-10-18T10:37:33Z</time>
      </trkpt>
      <trkpt lat="43.21541" lon="5.48341">
        <ele>286.1</ele>
        <time>2025-10-18T10:37:34Z</time>
      </trkpt>
      <trkpt lat="43.21541" lon="5.4834">
        <ele>286.1</ele>
        <time>2025-10-18T10:37:35Z</time>
      </trkpt>
      <trkpt lat="43.21541" lon="5.4834">
        <ele>286.1</ele>
        <time>2025-10-18T10:37:36Z</time>
      </trkpt>
      <trkpt lat="43.21541" lon="5.4834">
        <ele>286</ele>
        <time>2025-10-18T10:37:37Z</time>
      </trkpt>
      <trkpt lat="43.21541" lon="5.4834">
        <ele>285.9</ele>
        <time>2025-10-18T10:37:38Z</time>
      </trkpt>
      <trkpt lat="43.21541" lon="5.4834">
        <ele>285.9</ele>
        <time>2025-10-18T10:37:39Z</time>
      </trkpt>
      <trkpt lat="43.2154" lon="5.4834">
        <ele>285.8</ele>
        <time>2025-10-18T10:37:40Z</time>
      </trkpt>
      <trkpt lat="43.2154" lon="5.4834">
        <ele>285.8</ele>
        <time>2025-10-18T10:37:41Z</time>
      </trkpt>
      <trkpt lat="43.21539" lon="5.4834">
        <ele>285.6</ele>
        <time>2025-10-18T10:37:42Z</time>
      </trkpt>
      <trkpt lat="43.21539" lon="5.48341">
        <ele>285.6</ele>
        <time>2025-10-18T10:37:43Z</time>
      </trkpt>
      <trkpt lat="43.21538" lon="5.48341">
        <ele>285.5</ele>
        <time>2025-10-18T10:37:44Z</time>
      </trkpt>
      <trkpt lat="43.21538" lon="5.48342">
        <ele>285.5</ele>
        <time>2025-10-18T10:37:45Z</time>
      </trkpt>
      <trkpt lat="43.21538" lon="5.48343">
        <ele>285.5</ele>
        <time>2025-10-18T10:37:46Z</time>
      </trkpt>
      <trkpt lat="43.21537" lon="5.48343">
        <ele>285.4</ele>
        <time>2025-10-18T10:37:47Z</time>
      </trkpt>
      <trkpt lat="43.21537" lon="5.48343">
        <ele>285.4</ele>
        <time>2025-10-18T10:37:48Z</time>
      </trkpt>
      <trkpt lat="43.21537" lon="5.48344">
        <ele>285.4</ele>
        <time>2025-10-18T10:37:49Z</time>
      </trkpt>
      <trkpt lat="43.21536" lon="5.48344">
        <ele>285.4</ele>
        <time>2025-10-18T10:37:50Z</time>
      </trkpt>
      <trkpt lat="43.21536" lon="5.48344">
        <ele>285.4</ele>
        <time>2025-10-18T10:37:51Z</time>
      </trkpt>
      <trkpt lat="43.21536" lon="5.48344">
        <ele>285.4</ele>
        <time>2025-10-18T10:37:52Z</time>
      </trkpt>
      <trkpt lat="43.21536" lon="5.48344">
        <ele>285.5</ele>
        <time>2025-10-18T10:37:53Z</time>
      </trkpt>
      <trkpt lat="43.21536" lon="5.48344">
        <ele>285.5</ele>
        <time>2025-10-18T10:37:54Z</time>
      </trkpt>
      <trkpt lat="43.21536" lon="5.48344">
        <ele>285.6</ele>
        <time>2025-10-18T10:37:55Z</time>
      </trkpt>
      <trkpt lat="43.21536" lon="5.48344">
        <ele>285.6</ele>
        <time>2025-10-18T10:37:56Z</time>
      </trkpt>
      <trkpt lat="43.21536" lon="5.48344">
        <ele>285.6</ele>
        <time>2025-10-18T10:37:57Z</time>
      </trkpt>
      <trkpt lat="43.21536" lon="5.48344">
        <ele>285.6</ele>
        <time>2025-10-18T10:37:58Z</time>
      </trkpt>
      <trkpt lat="43.21536" lon="5.48344">
        <ele>285.6</ele>
        <time>2025-10-18T10:37:59Z</time>
      </trkpt>
      <trkpt lat="43.21536" lon="5.48344">
        <ele>285.6</ele>
        <time>2025-10-18T10:38:00Z</time>
      </trkpt>
      <trkpt lat="43.21536" lon="5.48344">
        <ele>285.5</ele>
        <time>2025-10-18T10:38:01Z</time>
      </trkpt>
      <trkpt lat="43.21535" lon="5.48344">
        <ele>285.5</ele>
        <time>2025-10-18T10:38:02Z</time>
      </trkpt>
      <trkpt lat="43.21535" lon="5.48344">
        <ele>285.6</ele>
        <time>2025-10-18T10:38:03Z</time>
      </trkpt>
      <trkpt lat="43.21535" lon="5.48343">
        <ele>285.6</ele>
        <time>2025-10-18T10:38:04Z</time>
      </trkpt>
      <trkpt lat="43.21535" lon="5.48343">
        <ele>285.6</ele>
        <time>2025-10-18T10:38:05Z</time>
      </trkpt>
      <trkpt lat="43.21535" lon="5.48344">
        <ele>285.6</ele>
        <time>2025-10-18T10:38:06Z</time>
      </trkpt>
      <trkpt lat="43.21535" lon="5.48343">
        <ele>285.5</ele>
        <time>2025-10-18T10:38:07Z</time>
      </trkpt>
      <trkpt lat="43.21535" lon="5.48343">
        <ele>285.5</ele>
        <time>2025-10-18T10:38:08Z</time>
      </trkpt>
      <trkpt lat="43.21535" lon="5.48343">
        <ele>285.4</ele>
        <time>2025-10-18T10:38:09Z</time>
      </trkpt>
      <trkpt lat="43.21535" lon="5.48343">
        <ele>285.4</ele>
        <time>2025-10-18T10:38:10Z</time>
      </trkpt>
      <trkpt lat="43.21535" lon="5.48343">
        <ele>285.4</ele>
        <time>2025-10-18T10:38:11Z</time>
      </trkpt>
      <trkpt lat="43.21535" lon="5.48343">
        <ele>285.4</ele>
        <time>2025-10-18T10:38:12Z</time>
      </trkpt>
      <trkpt lat="43.21535" lon="5.48343">
        <ele>285.4</ele>
        <time>2025-10-18T10:38:13Z</time>
      </trkpt>
      <trkpt lat="43.21535" lon="5.48343">
        <ele>285.4</ele>
        <time>2025-10-18T10:38:14Z</time>
      </trkpt>
      <trkpt lat="43.21535" lon="5.48343">
        <ele>285.3</ele>
        <time>2025-10-18T10:38:15Z</time>
      </trkpt>
      <trkpt lat="43.21535" lon="5.48343">
        <ele>285.2</ele>
        <time>2025-10-18T10:38:16Z</time>
      </trkpt>
      <trkpt lat="43.21535" lon="5.48343">
        <ele>285.1</ele>
        <time>2025-10-18T10:38:17Z</time>
      </trkpt>
      <trkpt lat="43.21535" lon="5.48344">
        <ele>285.1</ele>
        <time>2025-10-18T10:38:18Z</time>
      </trkpt>
      <trkpt lat="43.21535" lon="5.48344">
        <ele>285.1</ele>
        <time>2025-10-18T10:38:19Z</time>
      </trkpt>
      <trkpt lat="43.21535" lon="5.48344">
        <ele>285.1</ele>
        <time>2025-10-18T10:38:20Z</time>
      </trkpt>
      <trkpt lat="43.21535" lon="5.48344">
        <ele>285.1</ele>
        <time>2025-10-18T10:38:21Z</time>
      </trkpt>
      <trkpt lat="43.21535" lon="5.48344">
        <ele>285.1</ele>
        <time>2025-10-18T10:38:22Z</time>
      </trkpt>
      <trkpt lat="43.21535" lon="5.48344">
        <ele>285.1</ele>
        <time>2025-10-18T10:38:23Z</time>
      </trkpt>
      <trkpt lat="43.21535" lon="5.48344">
        <ele>285.1</ele>
        <time>2025-10-18T10:38:24Z</time>
      </trkpt>
      <trkpt lat="43.21535" lon="5.48344">
        <ele>285</ele>
        <time>2025-10-18T10:38:25Z</time>
      </trkpt>
      <trkpt lat="43.21534" lon="5.48343">
        <ele>285.1</ele>
        <time>2025-10-18T10:38:26Z</time>
      </trkpt>
      <trkpt lat="43.21534" lon="5.48343">
        <ele>285.3</ele>
        <time>2025-10-18T10:38:27Z</time>
      </trkpt>
      <trkpt lat="43.21534" lon="5.48343">
        <ele>285.4</ele>
        <time>2025-10-18T10:38:28Z</time>
      </trkpt>
      <trkpt lat="43.21534" lon="5.48342">
        <ele>285.4</ele>
        <time>2025-10-18T10:38:29Z</time>
      </trkpt>
      <trkpt lat="43.21534" lon="5.48342">
        <ele>285.4</ele>
        <time>2025-10-18T10:38:30Z</time>
      </trkpt>
      <trkpt lat="43.21534" lon="5.48342">
        <ele>285.3</ele>
        <time>2025-10-18T10:38:31Z</time>
      </trkpt>
      <trkpt lat="43.21534" lon="5.48342">
        <ele>285.2</ele>
        <time>2025-10-18T10:38:32Z</time>
      </trkpt>
      <trkpt lat="43.21534" lon="5.48342">
        <ele>285.2</ele>
        <time>2025-10-18T10:38:33Z</time>
      </trkpt>
      <trkpt lat="43.21534" lon="5.48342">
        <ele>285.2</ele>
        <time>2025-10-18T10:38:34Z</time>
      </trkpt>
      <trkpt lat="43.21534" lon="5.48342">
        <ele>285.2</ele>
        <time>2025-10-18T10:38:35Z</time>
      </trkpt>
      <trkpt lat="43.21534" lon="5.48342">
        <ele>285.2</ele>
        <time>2025-10-18T10:38:36Z</time>
      </trkpt>
      <trkpt lat="43.21534" lon="5.48342">
        <ele>285.2</ele>
        <time>2025-10-18T10:38:37Z</time>
      </trkpt>
      <trkpt lat="43.21534" lon="5.48342">
        <ele>285.2</ele>
        <time>2025-10-18T10:38:38Z</time>
      </trkpt>
      <trkpt lat="43.21534" lon="5.48341">
        <ele>285.2</ele>
        <time>2025-10-18T10:38:39Z</time>
      </trkpt>
      <trkpt lat="43.21534" lon="5.48341">
        <ele>285.2</ele>
        <time>2025-10-18T10:38:40Z</time>
      </trkpt>
      <trkpt lat="43.21534" lon="5.48341">
        <ele>285.2</ele>
        <time>2025-10-18T10:38:41Z</time>
      </trkpt>
      <trkpt lat="43.21534" lon="5.48341">
        <ele>285.3</ele>
        <time>2025-10-18T10:38:42Z</time>
      </trkpt>
      <trkpt lat="43.21534" lon="5.48341">
        <ele>285.3</ele>
        <time>2025-10-18T10:38:43Z</time>
      </trkpt>
      <trkpt lat="43.21534" lon="5.48341">
        <ele>285.3</ele>
        <time>2025-10-18T10:38:44Z</time>
      </trkpt>
      <trkpt lat="43.21534" lon="5.48341">
        <ele>285.3</ele>
        <time>2025-10-18T10:38:45Z</time>
      </trkpt>
      <trkpt lat="43.21534" lon="5.48342">
        <ele>285.3</ele>
        <time>2025-10-18T10:38:46Z</time>
      </trkpt>
      <trkpt lat="43.21534" lon="5.48341">
        <ele>285.3</ele>
        <time>2025-10-18T10:38:47Z</time>
      </trkpt>
      <trkpt lat="43.21534" lon="5.48341">
        <ele>285.3</ele>
        <time>2025-10-18T10:38:48Z</time>
      </trkpt>
      <trkpt lat="43.21534" lon="5.48341">
        <ele>285.3</ele>
        <time>2025-10-18T10:38:49Z</time>
      </trkpt>
      <trkpt lat="43.21534" lon="5.48341">
        <ele>285.2</ele>
        <time>2025-10-18T10:38:50Z</time>
      </trkpt>
      <trkpt lat="43.21534" lon="5.48341">
        <ele>285.1</ele>
        <time>2025-10-18T10:38:51Z</time>
      </trkpt>
      <trkpt lat="43.21534" lon="5.48341">
        <ele>285.1</ele>
        <time>2025-10-18T10:38:52Z</time>
      </trkpt>
      <trkpt lat="43.21534" lon="5.48341">
        <ele>285</ele>
        <time>2025-10-18T10:38:53Z</time>
      </trkpt>
      <trkpt lat="43.21534" lon="5.48341">
        <ele>285</ele>
        <time>2025-10-18T10:38:54Z</time>
      </trkpt>
      <trkpt lat="43.21534" lon="5.48341">
        <ele>284.9</ele>
        <time>2025-10-18T10:38:55Z</time>
      </trkpt>
      <trkpt lat="43.21534" lon="5.48341">
        <ele>284.9</ele>
        <time>2025-10-18T10:38:56Z</time>
      </trkpt>
      <trkpt lat="43.21534" lon="5.48341">
        <ele>285</ele>
        <time>2025-10-18T10:38:57Z</time>
      </trkpt>
      <trkpt lat="43.21534" lon="5.48341">
        <ele>284.9</ele>
        <time>2025-10-18T10:38:58Z</time>
      </trkpt>
      <trkpt lat="43.21534" lon="5.48341">
        <ele>284.9</ele>
        <time>2025-10-18T10:38:59Z</time>
      </trkpt>
      <trkpt lat="43.21534" lon="5.48341">
        <ele>284.9</ele>
        <time>2025-10-18T10:39:00Z</time>
      </trkpt>
      <trkpt lat="43.21534" lon="5.48341">
        <ele>284.9</ele>
        <time>2025-10-18T10:39:01Z</time>
      </trkpt>
      <trkpt lat="43.21534" lon="5.48341">
        <ele>284.9</ele>
        <time>2025-10-18T10:39:02Z</time>
      </trkpt>
      <trkpt lat="43.21535" lon="5.48341">
        <ele>284.9</ele>
        <time>2025-10-18T10:39:03Z</time>
      </trkpt>
      <trkpt lat="43.21535" lon="5.48341">
        <ele>284.9</ele>
        <time>2025-10-18T10:39:04Z</time>
      </trkpt>
      <trkpt lat="43.21535" lon="5.48341">
        <ele>284.9</ele>
        <time>2025-10-18T10:39:05Z</time>
      </trkpt>
      <trkpt lat="43.21535" lon="5.48341">
        <ele>284.9</ele>
        <time>2025-10-18T10:39:06Z</time>
      </trkpt>
      <trkpt lat="43.21535" lon="5.48341">
        <ele>285</ele>
        <time>2025-10-18T10:39:07Z</time>
      </trkpt>
      <trkpt lat="43.21535" lon="5.48341">
        <ele>285</ele>
        <time>2025-10-18T10:39:08Z</time>
      </trkpt>
      <trkpt lat="43.21535" lon="5.48341">
        <ele>285</ele>
        <time>2025-10-18T10:39:09Z</time>
      </trkpt>
      <trkpt lat="43.21535" lon="5.48341">
        <ele>284.9</ele>
        <time>2025-10-18T10:39:10Z</time>
      </trkpt>
      <trkpt lat="43.21535" lon="5.48341">
        <ele>284.9</ele>
        <time>2025-10-18T10:39:11Z</time>
      </trkpt>
      <trkpt lat="43.21535" lon="5.48341">
        <ele>284.9</ele>
        <time>2025-10-18T10:39:12Z</time>
      </trkpt>
      <trkpt lat="43.21535" lon="5.48341">
        <ele>284.8</ele>
        <time>2025-10-18T10:39:13Z</time>
      </trkpt>
      <trkpt lat="43.21535" lon="5.48341">
        <ele>284.9</ele>
        <time>2025-10-18T10:39:14Z</time>
      </trkpt>
      <trkpt lat="43.21535" lon="5.4834">
        <ele>284.9</ele>
        <time>2025-10-18T10:39:15Z</time>
      </trkpt>
      <trkpt lat="43.21535" lon="5.4834">
        <ele>284.9</ele>
        <time>2025-10-18T10:39:16Z</time>
      </trkpt>
      <trkpt lat="43.21535" lon="5.4834">
        <ele>284.9</ele>
        <time>2025-10-18T10:39:17Z</time>
      </trkpt>
      <trkpt lat="43.21535" lon="5.4834">
        <ele>284.9</ele>
        <time>2025-10-18T10:39:18Z</time>
      </trkpt>
      <trkpt lat="43.21535" lon="5.4834">
        <ele>284.9</ele>
        <time>2025-10-18T10:39:19Z</time>
      </trkpt>
      <trkpt lat="43.21535" lon="5.4834">
        <ele>284.9</ele>
        <time>2025-10-18T10:39:20Z</time>
      </trkpt>
      <trkpt lat="43.21535" lon="5.4834">
        <ele>285</ele>
        <time>2025-10-18T10:39:21Z</time>
      </trkpt>
      <trkpt lat="43.21535" lon="5.4834">
        <ele>285</ele>
        <time>2025-10-18T10:39:22Z</time>
      </trkpt>
      <trkpt lat="43.21535" lon="5.4834">
        <ele>285</ele>
        <time>2025-10-18T10:39:23Z</time>
      </trkpt>
      <trkpt lat="43.21535" lon="5.4834">
        <ele>285</ele>
        <time>2025-10-18T10:39:24Z</time>
      </trkpt>
      <trkpt lat="43.21535" lon="5.4834">
        <ele>285</ele>
        <time>2025-10-18T10:39:25Z</time>
      </trkpt>
      <trkpt lat="43.21535" lon="5.4834">
        <ele>285</ele>
        <time>2025-10-18T10:39:26Z</time>
      </trkpt>
      <trkpt lat="43.21535" lon="5.48341">
        <ele>285</ele>
        <time>2025-10-18T10:39:27Z</time>
      </trkpt>
      <trkpt lat="43.21535" lon="5.48341">
        <ele>285</ele>
        <time>2025-10-18T10:39:28Z</time>
      </trkpt>
      <trkpt lat="43.21535" lon="5.48341">
        <ele>285</ele>
        <time>2025-10-18T10:39:29Z</time>
      </trkpt>
      <trkpt lat="43.21535" lon="5.48341">
        <ele>285</ele>
        <time>2025-10-18T10:39:30Z</time>
      </trkpt>
      <trkpt lat="43.21535" lon="5.48341">
        <ele>285</ele>
        <time>2025-10-18T10:39:31Z</time>
      </trkpt>
      <trkpt lat="43.21534" lon="5.48341">
        <ele>285</ele>
        <time>2025-10-18T10:39:32Z</time>
      </trkpt>
      <trkpt lat="43.21534" lon="5.48341">
        <ele>285</ele>
        <time>2025-10-18T10:39:33Z</time>
      </trkpt>
      <trkpt lat="43.21534" lon="5.48341">
        <ele>285</ele>
        <time>2025-10-18T10:39:34Z</time>
      </trkpt>
      <trkpt lat="43.21534" lon="5.48341">
        <ele>285</ele>
        <time>2025-10-18T10:39:35Z</time>
      </trkpt>
      <trkpt lat="43.21534" lon="5.48341">
        <ele>285</ele>
        <time>2025-10-18T10:39:36Z</time>
      </trkpt>
      <trkpt lat="43.21534" lon="5.48341">
        <ele>285.1</ele>
        <time>2025-10-18T10:39:37Z</time>
      </trkpt>
      <trkpt lat="43.21534" lon="5.48341">
        <ele>285.1</ele>
        <time>2025-10-18T10:39:38Z</time>
      </trkpt>
      <trkpt lat="43.21534" lon="5.48341">
        <ele>285.1</ele>
        <time>2025-10-18T10:39:39Z</time>
      </trkpt>
      <trkpt lat="43.21534" lon="5.48341">
        <ele>285</ele>
        <time>2025-10-18T10:39:40Z</time>
      </trkpt>
      <trkpt lat="43.21534" lon="5.48341">
        <ele>285</ele>
        <time>2025-10-18T10:39:41Z</time>
      </trkpt>
      <trkpt lat="43.21534" lon="5.48341">
        <ele>285</ele>
        <time>2025-10-18T10:39:42Z</time>
      </trkpt>
      <trkpt lat="43.21534" lon="5.48341">
        <ele>284.9</ele>
        <time>2025-10-18T10:39:43Z</time>
      </trkpt>
      <trkpt lat="43.21534" lon="5.48341">
        <ele>284.9</ele>
        <time>2025-10-18T10:39:44Z</time>
      </trkpt>
      <trkpt lat="43.21534" lon="5.48341">
        <ele>284.9</ele>
        <time>2025-10-18T10:39:45Z</time>
      </trkpt>
      <trkpt lat="43.21534" lon="5.48341">
        <ele>284.9</ele>
        <time>2025-10-18T10:39:46Z</time>
      </trkpt>
      <trkpt lat="43.21534" lon="5.48341">
        <ele>285</ele>
        <time>2025-10-18T10:39:47Z</time>
      </trkpt>
      <trkpt lat="43.21534" lon="5.48341">
        <ele>285</ele>
        <time>2025-10-18T10:39:48Z</time>
      </trkpt>
      <trkpt lat="43.21534" lon="5.4834">
        <ele>285</ele>
        <time>2025-10-18T10:39:49Z</time>
      </trkpt>
      <trkpt lat="43.21535" lon="5.4834">
        <ele>285.1</ele>
        <time>2025-10-18T10:39:50Z</time>
      </trkpt>
      <trkpt lat="43.21535" lon="5.4834">
        <ele>285.1</ele>
        <time>2025-10-18T10:39:51Z</time>
      </trkpt>
      <trkpt lat="43.21536" lon="5.4834">
        <ele>285.2</ele>
        <time>2025-10-18T10:39:52Z</time>
      </trkpt>
      <trkpt lat="43.21536" lon="5.4834">
        <ele>285.2</ele>
        <time>2025-10-18T10:39:53Z</time>
      </trkpt>
      <trkpt lat="43.21537" lon="5.48341">
        <ele>285.4</ele>
        <time>2025-10-18T10:39:54Z</time>
      </trkpt>
      <trkpt lat="43.21537" lon="5.48341">
        <ele>285.5</ele>
        <time>2025-10-18T10:39:55Z</time>
      </trkpt>
      <trkpt lat="43.21537" lon="5.48341">
        <ele>285.6</ele>
        <time>2025-10-18T10:39:56Z</time>
      </trkpt>
      <trkpt lat="43.21537" lon="5.48341">
        <ele>285.7</ele>
        <time>2025-10-18T10:39:57Z</time>
      </trkpt>
      <trkpt lat="43.21537" lon="5.48341">
        <ele>285.8</ele>
        <time>2025-10-18T10:39:58Z</time>
      </trkpt>
      <trkpt lat="43.21537" lon="5.48341">
        <ele>285.9</ele>
        <time>2025-10-18T10:39:59Z</time>
      </trkpt>
      <trkpt lat="43.21537" lon="5.48341">
        <ele>285.9</ele>
        <time>2025-10-18T10:40:00Z</time>
      </trkpt>
      <trkpt lat="43.21537" lon="5.48341">
        <ele>286</ele>
        <time>2025-10-18T10:40:01Z</time>
      </trkpt>
      <trkpt lat="43.21537" lon="5.48341">
        <ele>286</ele>
        <time>2025-10-18T10:40:02Z</time>
      </trkpt>
      <trkpt lat="43.21537" lon="5.48341">
        <ele>286</ele>
        <time>2025-10-18T10:40:03Z</time>
      </trkpt>
      <trkpt lat="43.21537" lon="5.48341">
        <ele>285.9</ele>
        <time>2025-10-18T10:40:04Z</time>
      </trkpt>
      <trkpt lat="43.21537" lon="5.48341">
        <ele>285.8</ele>
        <time>2025-10-18T10:40:05Z</time>
      </trkpt>
      <trkpt lat="43.21537" lon="5.48342">
        <ele>285.9</ele>
        <time>2025-10-18T10:40:06Z</time>
      </trkpt>
      <trkpt lat="43.21537" lon="5.48342">
        <ele>285.9</ele>
        <time>2025-10-18T10:40:07Z</time>
      </trkpt>
      <trkpt lat="43.21537" lon="5.48342">
        <ele>285.8</ele>
        <time>2025-10-18T10:40:08Z</time>
      </trkpt>
      <trkpt lat="43.21537" lon="5.48342">
        <ele>285.7</ele>
        <time>2025-10-18T10:40:09Z</time>
      </trkpt>
      <trkpt lat="43.21537" lon="5.48342">
        <ele>285.6</ele>
        <time>2025-10-18T10:40:10Z</time>
      </trkpt>
      <trkpt lat="43.21537" lon="5.48342">
        <ele>285.6</ele>
        <time>2025-10-18T10:40:11Z</time>
      </trkpt>
      <trkpt lat="43.21537" lon="5.48342">
        <ele>285.5</ele>
        <time>2025-10-18T10:40:12Z</time>
      </trkpt>
      <trkpt lat="43.21537" lon="5.48342">
        <ele>285.5</ele>
        <time>2025-10-18T10:40:13Z</time>
      </trkpt>
      <trkpt lat="43.21537" lon="5.48342">
        <ele>285.5</ele>
        <time>2025-10-18T10:40:14Z</time>
      </trkpt>
      <trkpt lat="43.21537" lon="5.48342">
        <ele>285.5</ele>
        <time>2025-10-18T10:40:15Z</time>
      </trkpt>
      <trkpt lat="43.21537" lon="5.48342">
        <ele>285.5</ele>
        <time>2025-10-18T10:40:16Z</time>
      </trkpt>
      <trkpt lat="43.21537" lon="5.48342">
        <ele>285.4</ele>
        <time>2025-10-18T10:40:17Z</time>
      </trkpt>
      <trkpt lat="43.21537" lon="5.48342">
        <ele>285.3</ele>
        <time>2025-10-18T10:40:18Z</time>
      </trkpt>
      <trkpt lat="43.21537" lon="5.48343">
        <ele>285.3</ele>
        <time>2025-10-18T10:40:19Z</time>
      </trkpt>
      <trkpt lat="43.21537" lon="5.48343">
        <ele>285.2</ele>
        <time>2025-10-18T10:40:20Z</time>
      </trkpt>
      <trkpt lat="43.21537" lon="5.48343">
        <ele>285.2</ele>
        <time>2025-10-18T10:40:21Z</time>
      </trkpt>
      <trkpt lat="43.21537" lon="5.48343">
        <ele>285.2</ele>
        <time>2025-10-18T10:40:22Z</time>
      </trkpt>
      <trkpt lat="43.21536" lon="5.48343">
        <ele>285.2</ele>
        <time>2025-10-18T10:40:23Z</time>
      </trkpt>
      <trkpt lat="43.21536" lon="5.48343">
        <ele>285.3</ele>
        <time>2025-10-18T10:40:24Z</time>
      </trkpt>
      <trkpt lat="43.21536" lon="5.48343">
        <ele>285.3</ele>
        <time>2025-10-18T10:40:25Z</time>
      </trkpt>
      <trkpt lat="43.21536" lon="5.48343">
        <ele>285.3</ele>
        <time>2025-10-18T10:40:26Z</time>
      </trkpt>
      <trkpt lat="43.21536" lon="5.48344">
        <ele>285.4</ele>
        <time>2025-10-18T10:40:27Z</time>
      </trkpt>
      <trkpt lat="43.21537" lon="5.48344">
        <ele>285.4</ele>
        <time>2025-10-18T10:40:28Z</time>
      </trkpt>
      <trkpt lat="43.21537" lon="5.48344">
        <ele>285.4</ele>
        <time>2025-10-18T10:40:29Z</time>
      </trkpt>
      <trkpt lat="43.21537" lon="5.48344">
        <ele>285.5</ele>
        <time>2025-10-18T10:40:30Z</time>
      </trkpt>
      <trkpt lat="43.21537" lon="5.48344">
        <ele>285.6</ele>
        <time>2025-10-18T10:40:31Z</time>
      </trkpt>
      <trkpt lat="43.21537" lon="5.48344">
        <ele>285.6</ele>
        <time>2025-10-18T10:40:32Z</time>
      </trkpt>
      <trkpt lat="43.21537" lon="5.48344">
        <ele>285.5</ele>
        <time>2025-10-18T10:40:33Z</time>
      </trkpt>
      <trkpt lat="43.21537" lon="5.48344">
        <ele>285.4</ele>
        <time>2025-10-18T10:40:34Z</time>
      </trkpt>
      <trkpt lat="43.21537" lon="5.48344">
        <ele>285.3</ele>
        <time>2025-10-18T10:40:35Z</time>
      </trkpt>
      <trkpt lat="43.21536" lon="5.48344">
        <ele>285.4</ele>
        <time>2025-10-18T10:40:36Z</time>
      </trkpt>
      <trkpt lat="43.21536" lon="5.48345">
        <ele>285.4</ele>
        <time>2025-10-18T10:40:37Z</time>
      </trkpt>
      <trkpt lat="43.21536" lon="5.48345">
        <ele>285.3</ele>
        <time>2025-10-18T10:40:38Z</time>
      </trkpt>
      <trkpt lat="43.21536" lon="5.48345">
        <ele>285.3</ele>
        <time>2025-10-18T10:40:39Z</time>
      </trkpt>
      <trkpt lat="43.21536" lon="5.48344">
        <ele>285.3</ele>
        <time>2025-10-18T10:40:40Z</time>
      </trkpt>
      <trkpt lat="43.21536" lon="5.48343">
        <ele>285.3</ele>
        <time>2025-10-18T10:40:41Z</time>
      </trkpt>
      <trkpt lat="43.21537" lon="5.48343">
        <ele>285.3</ele>
        <time>2025-10-18T10:40:42Z</time>
      </trkpt>
      <trkpt lat="43.21536" lon="5.48343">
        <ele>285.3</ele>
        <time>2025-10-18T10:40:43Z</time>
      </trkpt>
      <trkpt lat="43.21536" lon="5.48343">
        <ele>285.2</ele>
        <time>2025-10-18T10:40:44Z</time>
      </trkpt>
      <trkpt lat="43.21536" lon="5.48343">
        <ele>285.3</ele>
        <time>2025-10-18T10:40:45Z</time>
      </trkpt>
      <trkpt lat="43.21536" lon="5.48343">
        <ele>285.4</ele>
        <time>2025-10-18T10:40:46Z</time>
      </trkpt>
      <trkpt lat="43.21536" lon="5.48343">
        <ele>285.4</ele>
        <time>2025-10-18T10:40:47Z</time>
      </trkpt>
      <trkpt lat="43.21536" lon="5.48343">
        <ele>285.4</ele>
        <time>2025-10-18T10:40:48Z</time>
      </trkpt>
      <trkpt lat="43.21536" lon="5.48343">
        <ele>285.4</ele>
        <time>2025-10-18T10:40:49Z</time>
      </trkpt>
      <trkpt lat="43.21536" lon="5.48342">
        <ele>285.4</ele>
        <time>2025-10-18T10:40:50Z</time>
      </trkpt>
      <trkpt lat="43.21536" lon="5.48342">
        <ele>285.5</ele>
        <time>2025-10-18T10:40:51Z</time>
      </trkpt>
      <trkpt lat="43.21536" lon="5.48342">
        <ele>285.5</ele>
        <time>2025-10-18T10:40:52Z</time>
      </trkpt>
      <trkpt lat="43.21536" lon="5.48342">
        <ele>285.5</ele>
        <time>2025-10-18T10:40:53Z</time>
      </trkpt>
      <trkpt lat="43.21536" lon="5.48342">
        <ele>285.5</ele>
        <time>2025-10-18T10:40:54Z</time>
      </trkpt>
      <trkpt lat="43.21536" lon="5.48342">
        <ele>285.6</ele>
        <time>2025-10-18T10:40:55Z</time>
      </trkpt>
      <trkpt lat="43.21536" lon="5.48342">
        <ele>285.6</ele>
        <time>2025-10-18T10:40:56Z</time>
      </trkpt>
      <trkpt lat="43.21535" lon="5.48342">
        <ele>285.6</ele>
        <time>2025-10-18T10:40:57Z</time>
      </trkpt>
      <trkpt lat="43.21535" lon="5.48342">
        <ele>285.6</ele>
        <time>2025-10-18T10:40:58Z</time>
      </trkpt>
      <trkpt lat="43.21535" lon="5.48342">
        <ele>285.6</ele>
        <time>2025-10-18T10:40:59Z</time>
      </trkpt>
      <trkpt lat="43.21535" lon="5.48342">
        <ele>285.6</ele>
        <time>2025-10-18T10:41:00Z</time>
      </trkpt>
      <trkpt lat="43.21535" lon="5.48342">
        <ele>285.6</ele>
        <time>2025-10-18T10:41:01Z</time>
      </trkpt>
      <trkpt lat="43.21535" lon="5.48342">
        <ele>285.6</ele>
        <time>2025-10-18T10:41:02Z</time>
      </trkpt>
      <trkpt lat="43.21535" lon="5.48342">
        <ele>285.6</ele>
        <time>2025-10-18T10:41:03Z</time>
      </trkpt>
      <trkpt lat="43.21535" lon="5.48342">
        <ele>285.6</ele>
        <time>2025-10-18T10:41:04Z</time>
      </trkpt>
      <trkpt lat="43.21535" lon="5.48342">
        <ele>285.5</ele>
        <time>2025-10-18T10:41:05Z</time>
      </trkpt>
      <trkpt lat="43.21535" lon="5.48342">
        <ele>285.5</ele>
        <time>2025-10-18T10:41:06Z</time>
      </trkpt>
      <trkpt lat="43.21535" lon="5.48342">
        <ele>285.5</ele>
        <time>2025-10-18T10:41:07Z</time>
      </trkpt>
      <trkpt lat="43.21535" lon="5.48341">
        <ele>285.5</ele>
        <time>2025-10-18T10:41:08Z</time>
      </trkpt>
      <trkpt lat="43.21535" lon="5.48342">
        <ele>285.5</ele>
        <time>2025-10-18T10:41:09Z</time>
      </trkpt>
      <trkpt lat="43.21534" lon="5.48342">
        <ele>285.5</ele>
        <time>2025-10-18T10:41:10Z</time>
      </trkpt>
      <trkpt lat="43.21534" lon="5.48343">
        <ele>285.6</ele>
        <time>2025-10-18T10:41:11Z</time>
      </trkpt>
      <trkpt lat="43.21533" lon="5.48343">
        <ele>285.6</ele>
        <time>2025-10-18T10:41:12Z</time>
      </trkpt>
      <trkpt lat="43.21533" lon="5.48343">
        <ele>285.6</ele>
        <time>2025-10-18T10:41:13Z</time>
      </trkpt>
      <trkpt lat="43.21533" lon="5.48343">
        <ele>285.5</ele>
        <time>2025-10-18T10:41:14Z</time>
      </trkpt>
      <trkpt lat="43.21533" lon="5.48343">
        <ele>285.4</ele>
        <time>2025-10-18T10:41:15Z</time>
      </trkpt>
      <trkpt lat="43.21533" lon="5.48343">
        <ele>285.4</ele>
        <time>2025-10-18T10:41:16Z</time>
      </trkpt>
      <trkpt lat="43.21533" lon="5.48343">
        <ele>285.3</ele>
        <time>2025-10-18T10:41:17Z</time>
      </trkpt>
      <trkpt lat="43.21534" lon="5.48343">
        <ele>285.2</ele>
        <time>2025-10-18T10:41:18Z</time>
      </trkpt>
      <trkpt lat="43.21534" lon="5.48343">
        <ele>285.1</ele>
        <time>2025-10-18T10:41:19Z</time>
      </trkpt>
      <trkpt lat="43.21533" lon="5.48343">
        <ele>285.1</ele>
        <time>2025-10-18T10:41:20Z</time>
      </trkpt>
      <trkpt lat="43.21533" lon="5.48343">
        <ele>285</ele>
        <time>2025-10-18T10:41:21Z</time>
      </trkpt>
      <trkpt lat="43.21533" lon="5.48343">
        <ele>285</ele>
        <time>2025-10-18T10:41:22Z</time>
      </trkpt>
      <trkpt lat="43.21533" lon="5.48343">
        <ele>284.9</ele>
        <time>2025-10-18T10:41:23Z</time>
      </trkpt>
      <trkpt lat="43.21533" lon="5.48343">
        <ele>284.9</ele>
        <time>2025-10-18T10:41:24Z</time>
      </trkpt>
      <trkpt lat="43.21533" lon="5.48343">
        <ele>284.8</ele>
        <time>2025-10-18T10:41:25Z</time>
      </trkpt>
      <trkpt lat="43.21533" lon="5.48343">
        <ele>284.8</ele>
        <time>2025-10-18T10:41:26Z</time>
      </trkpt>
      <trkpt lat="43.21533" lon="5.48343">
        <ele>284.8</ele>
        <time>2025-10-18T10:41:27Z</time>
      </trkpt>
      <trkpt lat="43.21533" lon="5.48343">
        <ele>284.8</ele>
        <time>2025-10-18T10:41:28Z</time>
      </trkpt>
      <trkpt lat="43.21533" lon="5.48343">
        <ele>284.8</ele>
        <time>2025-10-18T10:41:29Z</time>
      </trkpt>
      <trkpt lat="43.21533" lon="5.48343">
        <ele>284.8</ele>
        <time>2025-10-18T10:41:30Z</time>
      </trkpt>
      <trkpt lat="43.21533" lon="5.48343">
        <ele>284.9</ele>
        <time>2025-10-18T10:41:31Z</time>
      </trkpt>
      <trkpt lat="43.21533" lon="5.48343">
        <ele>284.9</ele>
        <time>2025-10-18T10:41:32Z</time>
      </trkpt>
      <trkpt lat="43.21533" lon="5.48343">
        <ele>284.8</ele>
        <time>2025-10-18T10:41:33Z</time>
      </trkpt>
      <trkpt lat="43.21533" lon="5.48343">
        <ele>284.9</ele>
        <time>2025-10-18T10:41:34Z</time>
      </trkpt>
      <trkpt lat="43.21534" lon="5.48343">
        <ele>284.9</ele>
        <time>2025-10-18T10:41:35Z</time>
      </trkpt>
      <trkpt lat="43.21534" lon="5.48343">
        <ele>285</ele>
        <time>2025-10-18T10:41:36Z</time>
      </trkpt>
      <trkpt lat="43.21534" lon="5.48343">
        <ele>284.9</ele>
        <time>2025-10-18T10:41:37Z</time>
      </trkpt>
      <trkpt lat="43.21534" lon="5.48343">
        <ele>284.9</ele>
        <time>2025-10-18T10:41:38Z</time>
      </trkpt>
      <trkpt lat="43.21534" lon="5.48343">
        <ele>284.8</ele>
        <time>2025-10-18T10:41:39Z</time>
      </trkpt>
      <trkpt lat="43.21534" lon="5.48343">
        <ele>284.8</ele>
        <time>2025-10-18T10:41:40Z</time>
      </trkpt>
      <trkpt lat="43.21534" lon="5.48343">
        <ele>284.9</ele>
        <time>2025-10-18T10:41:41Z</time>
      </trkpt>
      <trkpt lat="43.21534" lon="5.48343">
        <ele>284.9</ele>
        <time>2025-10-18T10:41:42Z</time>
      </trkpt>
      <trkpt lat="43.21534" lon="5.48343">
        <ele>284.9</ele>
        <time>2025-10-18T10:41:43Z</time>
      </trkpt>
      <trkpt lat="43.21534" lon="5.48343">
        <ele>284.9</ele>
        <time>2025-10-18T10:41:44Z</time>
      </trkpt>
      <trkpt lat="43.21534" lon="5.48343">
        <ele>284.9</ele>
        <time>2025-10-18T10:41:45Z</time>
      </trkpt>
      <trkpt lat="43.21534" lon="5.48343">
        <ele>284.9</ele>
        <time>2025-10-18T10:41:46Z</time>
      </trkpt>
      <trkpt lat="43.21534" lon="5.48343">
        <ele>284.9</ele>
        <time>2025-10-18T10:41:47Z</time>
      </trkpt>
      <trkpt lat="43.21534" lon="5.48343">
        <ele>284.8</ele>
        <time>2025-10-18T10:41:48Z</time>
      </trkpt>
      <trkpt lat="43.21534" lon="5.48343">
        <ele>284.9</ele>
        <time>2025-10-18T10:41:49Z</time>
      </trkpt>
      <trkpt lat="43.21534" lon="5.48343">
        <ele>284.9</ele>
        <time>2025-10-18T10:41:50Z</time>
      </trkpt>
      <trkpt lat="43.21534" lon="5.48343">
        <ele>285</ele>
        <time>2025-10-18T10:41:51Z</time>
      </trkpt>
      <trkpt lat="43.21534" lon="5.48343">
        <ele>285</ele>
        <time>2025-10-18T10:41:52Z</time>
      </trkpt>
      <trkpt lat="43.21534" lon="5.48343">
        <ele>285</ele>
        <time>2025-10-18T10:41:53Z</time>
      </trkpt>
      <trkpt lat="43.21534" lon="5.48343">
        <ele>285</ele>
        <time>2025-10-18T10:41:54Z</time>
      </trkpt>
      <trkpt lat="43.21534" lon="5.48344">
        <ele>285</ele>
        <time>2025-10-18T10:41:55Z</time>
      </trkpt>
      <trkpt lat="43.21534" lon="5.48344">
        <ele>285</ele>
        <time>2025-10-18T10:41:56Z</time>
      </trkpt>
      <trkpt lat="43.21534" lon="5.48344">
        <ele>285</ele>
        <time>2025-10-18T10:41:57Z</time>
      </trkpt>
      <trkpt lat="43.21534" lon="5.48344">
        <ele>284.9</ele>
        <time>2025-10-18T10:41:58Z</time>
      </trkpt>
      <trkpt lat="43.21534" lon="5.48344">
        <ele>284.8</ele>
        <time>2025-10-18T10:41:59Z</time>
      </trkpt>
      <trkpt lat="43.21534" lon="5.48344">
        <ele>284.8</ele>
        <time>2025-10-18T10:42:00Z</time>
      </trkpt>
      <trkpt lat="43.21534" lon="5.48344">
        <ele>284.8</ele>
        <time>2025-10-18T10:42:01Z</time>
      </trkpt>
      <trkpt lat="43.21534" lon="5.48344">
        <ele>284.7</ele>
        <time>2025-10-18T10:42:02Z</time>
      </trkpt>
      <trkpt lat="43.21534" lon="5.48344">
        <ele>284.7</ele>
        <time>2025-10-18T10:42:03Z</time>
      </trkpt>
      <trkpt lat="43.21534" lon="5.48344">
        <ele>284.7</ele>
        <time>2025-10-18T10:42:04Z</time>
      </trkpt>
      <trkpt lat="43.21534" lon="5.48344">
        <ele>284.7</ele>
        <time>2025-10-18T10:42:05Z</time>
      </trkpt>
      <trkpt lat="43.21534" lon="5.48344">
        <ele>284.8</ele>
        <time>2025-10-18T10:42:06Z</time>
      </trkpt>
      <trkpt lat="43.21534" lon="5.48344">
        <ele>284.7</ele>
        <time>2025-10-18T10:42:07Z</time>
      </trkpt>
      <trkpt lat="43.21535" lon="5.48344">
        <ele>284.7</ele>
        <time>2025-10-18T10:42:08Z</time>
      </trkpt>
      <trkpt lat="43.21535" lon="5.48344">
        <ele>284.7</ele>
        <time>2025-10-18T10:42:09Z</time>
      </trkpt>
      <trkpt lat="43.21535" lon="5.48344">
        <ele>284.7</ele>
        <time>2025-10-18T10:42:10Z</time>
      </trkpt>
      <trkpt lat="43.21535" lon="5.48344">
        <ele>284.7</ele>
        <time>2025-10-18T10:42:11Z</time>
      </trkpt>
      <trkpt lat="43.21535" lon="5.48344">
        <ele>284.7</ele>
        <time>2025-10-18T10:42:12Z</time>
      </trkpt>
      <trkpt lat="43.21535" lon="5.48344">
        <ele>284.7</ele>
        <time>2025-10-18T10:42:13Z</time>
      </trkpt>
      <trkpt lat="43.21534" lon="5.48344">
        <ele>284.7</ele>
        <time>2025-10-18T10:42:14Z</time>
      </trkpt>
      <trkpt lat="43.21534" lon="5.48344">
        <ele>284.8</ele>
        <time>2025-10-18T10:42:15Z</time>
      </trkpt>
      <trkpt lat="43.21535" lon="5.48343">
        <ele>284.7</ele>
        <time>2025-10-18T10:42:16Z</time>
      </trkpt>
      <trkpt lat="43.21535" lon="5.48343">
        <ele>284.7</ele>
        <time>2025-10-18T10:42:17Z</time>
      </trkpt>
      <trkpt lat="43.21535" lon="5.48343">
        <ele>284.7</ele>
        <time>2025-10-18T10:42:18Z</time>
      </trkpt>
      <trkpt lat="43.21535" lon="5.48343">
        <ele>284.7</ele>
        <time>2025-10-18T10:42:19Z</time>
      </trkpt>
      <trkpt lat="43.21535" lon="5.48343">
        <ele>284.7</ele>
        <time>2025-10-18T10:42:20Z</time>
      </trkpt>
      <trkpt lat="43.21535" lon="5.48343">
        <ele>284.7</ele>
        <time>2025-10-18T10:42:21Z</time>
      </trkpt>
      <trkpt lat="43.21535" lon="5.48343">
        <ele>284.7</ele>
        <time>2025-10-18T10:42:22Z</time>
      </trkpt>
      <trkpt lat="43.21535" lon="5.48343">
        <ele>284.7</ele>
        <time>2025-10-18T10:42:23Z</time>
      </trkpt>
      <trkpt lat="43.21534" lon="5.48343">
        <ele>284.7</ele>
        <time>2025-10-18T10:42:24Z</time>
      </trkpt>
      <trkpt lat="43.21534" lon="5.48343">
        <ele>284.8</ele>
        <time>2025-10-18T10:42:25Z</time>
      </trkpt>
      <trkpt lat="43.21534" lon="5.48343">
        <ele>284.8</ele>
        <time>2025-10-18T10:42:26Z</time>
      </trkpt>
      <trkpt lat="43.21534" lon="5.48343">
        <ele>284.9</ele>
        <time>2025-10-18T10:42:27Z</time>
      </trkpt>
      <trkpt lat="43.21534" lon="5.48343">
        <ele>284.8</ele>
        <time>2025-10-18T10:42:28Z</time>
      </trkpt>
      <trkpt lat="43.21534" lon="5.48343">
        <ele>284.9</ele>
        <time>2025-10-18T10:42:29Z</time>
      </trkpt>
      <trkpt lat="43.21534" lon="5.48343">
        <ele>284.9</ele>
        <time>2025-10-18T10:42:30Z</time>
      </trkpt>
      <trkpt lat="43.21534" lon="5.48343">
        <ele>285</ele>
        <time>2025-10-18T10:42:31Z</time>
      </trkpt>
      <trkpt lat="43.21534" lon="5.48343">
        <ele>285</ele>
        <time>2025-10-18T10:42:32Z</time>
      </trkpt>
      <trkpt lat="43.21534" lon="5.48343">
        <ele>285</ele>
        <time>2025-10-18T10:42:33Z</time>
      </trkpt>
      <trkpt lat="43.21534" lon="5.48343">
        <ele>284.9</ele>
        <time>2025-10-18T10:42:34Z</time>
      </trkpt>
      <trkpt lat="43.21534" lon="5.48343">
        <ele>284.9</ele>
        <time>2025-10-18T10:42:35Z</time>
      </trkpt>
      <trkpt lat="43.21534" lon="5.48343">
        <ele>284.9</ele>
        <time>2025-10-18T10:42:36Z</time>
      </trkpt>
      <trkpt lat="43.21534" lon="5.48343">
        <ele>285</ele>
        <time>2025-10-18T10:42:37Z</time>
      </trkpt>
      <trkpt lat="43.21535" lon="5.48343">
        <ele>284.9</ele>
        <time>2025-10-18T10:42:38Z</time>
      </trkpt>
      <trkpt lat="43.21535" lon="5.48344">
        <ele>284.9</ele>
        <time>2025-10-18T10:42:39Z</time>
      </trkpt>
      <trkpt lat="43.21535" lon="5.48343">
        <ele>284.8</ele>
        <time>2025-10-18T10:42:40Z</time>
      </trkpt>
      <trkpt lat="43.21535" lon="5.48343">
        <ele>284.8</ele>
        <time>2025-10-18T10:42:41Z</time>
      </trkpt>
      <trkpt lat="43.21535" lon="5.48343">
        <ele>284.8</ele>
        <time>2025-10-18T10:42:42Z</time>
      </trkpt>
      <trkpt lat="43.21535" lon="5.48343">
        <ele>284.7</ele>
        <time>2025-10-18T10:42:43Z</time>
      </trkpt>
      <trkpt lat="43.21535" lon="5.48343">
        <ele>284.7</ele>
        <time>2025-10-18T10:42:44Z</time>
      </trkpt>
      <trkpt lat="43.21535" lon="5.48343">
        <ele>284.7</ele>
        <time>2025-10-18T10:42:45Z</time>
      </trkpt>
      <trkpt lat="43.21535" lon="5.48344">
        <ele>284.8</ele>
        <time>2025-10-18T10:42:46Z</time>
      </trkpt>
      <trkpt lat="43.21535" lon="5.48343">
        <ele>284.8</ele>
        <time>2025-10-18T10:42:47Z</time>
      </trkpt>
      <trkpt lat="43.21535" lon="5.48343">
        <ele>284.8</ele>
        <time>2025-10-18T10:42:48Z</time>
      </trkpt>
      <trkpt lat="43.21535" lon="5.48343">
        <ele>284.8</ele>
        <time>2025-10-18T10:42:49Z</time>
      </trkpt>
      <trkpt lat="43.21535" lon="5.48343">
        <ele>284.8</ele>
        <time>2025-10-18T10:42:50Z</time>
      </trkpt>
      <trkpt lat="43.21535" lon="5.48343">
        <ele>284.8</ele>
        <time>2025-10-18T10:42:51Z</time>
      </trkpt>
      <trkpt lat="43.21534" lon="5.48343">
        <ele>284.9</ele>
        <time>2025-10-18T10:42:52Z</time>
      </trkpt>
      <trkpt lat="43.21534" lon="5.48343">
        <ele>284.8</ele>
        <time>2025-10-18T10:42:53Z</time>
      </trkpt>
      <trkpt lat="43.21534" lon="5.48343">
        <ele>284.8</ele>
        <time>2025-10-18T10:42:54Z</time>
      </trkpt>
      <trkpt lat="43.21534" lon="5.48343">
        <ele>284.8</ele>
        <time>2025-10-18T10:42:55Z</time>
      </trkpt>
      <trkpt lat="43.21534" lon="5.48342">
        <ele>284.8</ele>
        <time>2025-10-18T10:42:56Z</time>
      </trkpt>
      <trkpt lat="43.21534" lon="5.48342">
        <ele>284.8</ele>
        <time>2025-10-18T10:42:57Z</time>
      </trkpt>
      <trkpt lat="43.21534" lon="5.48342">
        <ele>284.8</ele>
        <time>2025-10-18T10:42:58Z</time>
      </trkpt>
      <trkpt lat="43.21534" lon="5.48342">
        <ele>284.7</ele>
        <time>2025-10-18T10:42:59Z</time>
      </trkpt>
      <trkpt lat="43.21534" lon="5.48343">
        <ele>284.7</ele>
        <time>2025-10-18T10:43:00Z</time>
      </trkpt>
      <trkpt lat="43.21534" lon="5.48343">
        <ele>284.7</ele>
        <time>2025-10-18T10:43:01Z</time>
      </trkpt>
      <trkpt lat="43.21534" lon="5.48343">
        <ele>284.7</ele>
        <time>2025-10-18T10:43:02Z</time>
      </trkpt>
      <trkpt lat="43.21534" lon="5.48343">
        <ele>284.8</ele>
        <time>2025-10-18T10:43:03Z</time>
      </trkpt>
      <trkpt lat="43.21534" lon="5.48343">
        <ele>284.8</ele>
        <time>2025-10-18T10:43:04Z</time>
      </trkpt>
      <trkpt lat="43.21534" lon="5.48343">
        <ele>284.8</ele>
        <time>2025-10-18T10:43:05Z</time>
      </trkpt>
      <trkpt lat="43.21534" lon="5.48343">
        <ele>284.8</ele>
        <time>2025-10-18T10:43:06Z</time>
      </trkpt>
      <trkpt lat="43.21534" lon="5.48343">
        <ele>284.8</ele>
        <time>2025-10-18T10:43:07Z</time>
      </trkpt>
      <trkpt lat="43.21534" lon="5.48343">
        <ele>284.8</ele>
        <time>2025-10-18T10:43:08Z</time>
      </trkpt>
      <trkpt lat="43.21534" lon="5.48343">
        <ele>284.9</ele>
        <time>2025-10-18T10:43:09Z</time>
      </trkpt>
      <trkpt lat="43.21534" lon="5.48343">
        <ele>284.8</ele>
        <time>2025-10-18T10:43:10Z</time>
      </trkpt>
      <trkpt lat="43.21534" lon="5.48343">
        <ele>284.8</ele>
        <time>2025-10-18T10:43:11Z</time>
      </trkpt>
      <trkpt lat="43.21534" lon="5.48343">
        <ele>284.7</ele>
        <time>2025-10-18T10:43:12Z</time>
      </trkpt>
      <trkpt lat="43.21534" lon="5.48343">
        <ele>284.7</ele>
        <time>2025-10-18T10:43:13Z</time>
      </trkpt>
      <trkpt lat="43.21534" lon="5.48342">
        <ele>284.7</ele>
        <time>2025-10-18T10:43:14Z</time>
      </trkpt>
      <trkpt lat="43.21534" lon="5.48342">
        <ele>284.7</ele>
        <time>2025-10-18T10:43:15Z</time>
      </trkpt>
      <trkpt lat="43.21534" lon="5.48342">
        <ele>284.7</ele>
        <time>2025-10-18T10:43:16Z</time>
      </trkpt>
      <trkpt lat="43.21534" lon="5.48342">
        <ele>284.8</ele>
        <time>2025-10-18T10:43:17Z</time>
      </trkpt>
      <trkpt lat="43.21534" lon="5.48342">
        <ele>284.8</ele>
        <time>2025-10-18T10:43:18Z</time>
      </trkpt>
      <trkpt lat="43.21534" lon="5.48342">
        <ele>284.9</ele>
        <time>2025-10-18T10:43:19Z</time>
      </trkpt>
      <trkpt lat="43.21534" lon="5.48342">
        <ele>285</ele>
        <time>2025-10-18T10:43:20Z</time>
      </trkpt>
      <trkpt lat="43.21534" lon="5.48342">
        <ele>285.1</ele>
        <time>2025-10-18T10:43:21Z</time>
      </trkpt>
      <trkpt lat="43.21534" lon="5.48342">
        <ele>285.1</ele>
        <time>2025-10-18T10:43:22Z</time>
      </trkpt>
      <trkpt lat="43.21534" lon="5.48343">
        <ele>285.1</ele>
        <time>2025-10-18T10:43:23Z</time>
      </trkpt>
      <trkpt lat="43.21534" lon="5.48343">
        <ele>285.1</ele>
        <time>2025-10-18T10:43:24Z</time>
      </trkpt>
      <trkpt lat="43.21534" lon="5.48343">
        <ele>285.1</ele>
        <time>2025-10-18T10:43:25Z</time>
      </trkpt>
      <trkpt lat="43.21534" lon="5.48343">
        <ele>285.1</ele>
        <time>2025-10-18T10:43:26Z</time>
      </trkpt>
      <trkpt lat="43.21534" lon="5.48343">
        <ele>285.1</ele>
        <time>2025-10-18T10:43:27Z</time>
      </trkpt>
      <trkpt lat="43.21534" lon="5.48343">
        <ele>285.2</ele>
        <time>2025-10-18T10:43:28Z</time>
      </trkpt>
      <trkpt lat="43.21534" lon="5.48343">
        <ele>285.2</ele>
        <time>2025-10-18T10:43:29Z</time>
      </trkpt>
      <trkpt lat="43.21534" lon="5.48343">
        <ele>285.2</ele>
        <time>2025-10-18T10:43:30Z</time>
      </trkpt>
      <trkpt lat="43.21534" lon="5.48343">
        <ele>285.2</ele>
        <time>2025-10-18T10:43:31Z</time>
      </trkpt>
      <trkpt lat="43.21534" lon="5.48343">
        <ele>285.2</ele>
        <time>2025-10-18T10:43:32Z</time>
      </trkpt>
      <trkpt lat="43.21534" lon="5.48342">
        <ele>285.1</ele>
        <time>2025-10-18T10:43:33Z</time>
      </trkpt>
      <trkpt lat="43.21534" lon="5.48342">
        <ele>285.2</ele>
        <time>2025-10-18T10:43:34Z</time>
      </trkpt>
      <trkpt lat="43.21534" lon="5.48342">
        <ele>285.2</ele>
        <time>2025-10-18T10:43:35Z</time>
      </trkpt>
      <trkpt lat="43.21534" lon="5.48342">
        <ele>285.3</ele>
        <time>2025-10-18T10:43:36Z</time>
      </trkpt>
      <trkpt lat="43.21534" lon="5.48342">
        <ele>285.3</ele>
        <time>2025-10-18T10:43:37Z</time>
      </trkpt>
      <trkpt lat="43.21534" lon="5.48342">
        <ele>285.3</ele>
        <time>2025-10-18T10:43:38Z</time>
      </trkpt>
      <trkpt lat="43.21534" lon="5.48342">
        <ele>285.3</ele>
        <time>2025-10-18T10:43:39Z</time>
      </trkpt>
      <trkpt lat="43.21534" lon="5.48342">
        <ele>285.2</ele>
        <time>2025-10-18T10:43:40Z</time>
      </trkpt>
      <trkpt lat="43.21534" lon="5.48342">
        <ele>285.2</ele>
        <time>2025-10-18T10:43:41Z</time>
      </trkpt>
      <trkpt lat="43.21534" lon="5.48342">
        <ele>285.1</ele>
        <time>2025-10-18T10:43:42Z</time>
      </trkpt>
      <trkpt lat="43.21534" lon="5.48342">
        <ele>285.1</ele>
        <time>2025-10-18T10:43:43Z</time>
      </trkpt>
      <trkpt lat="43.21534" lon="5.48342">
        <ele>285.1</ele>
        <time>2025-10-18T10:43:44Z</time>
      </trkpt>
      <trkpt lat="43.21534" lon="5.48342">
        <ele>285</ele>
        <time>2025-10-18T10:43:45Z</time>
      </trkpt>
      <trkpt lat="43.21534" lon="5.48342">
        <ele>285</ele>
        <time>2025-10-18T10:43:46Z</time>
      </trkpt>
      <trkpt lat="43.21534" lon="5.48342">
        <ele>285</ele>
        <time>2025-10-18T10:43:47Z</time>
      </trkpt>
      <trkpt lat="43.21534" lon="5.48342">
        <ele>285</ele>
        <time>2025-10-18T10:43:48Z</time>
      </trkpt>
      <trkpt lat="43.21534" lon="5.48342">
        <ele>285</ele>
        <time>2025-10-18T10:43:49Z</time>
      </trkpt>
      <trkpt lat="43.21534" lon="5.48342">
        <ele>284.9</ele>
        <time>2025-10-18T10:43:50Z</time>
      </trkpt>
      <trkpt lat="43.21534" lon="5.48342">
        <ele>284.9</ele>
        <time>2025-10-18T10:43:51Z</time>
      </trkpt>
      <trkpt lat="43.21534" lon="5.48342">
        <ele>284.9</ele>
        <time>2025-10-18T10:43:52Z</time>
      </trkpt>
      <trkpt lat="43.21534" lon="5.48342">
        <ele>284.9</ele>
        <time>2025-10-18T10:43:53Z</time>
      </trkpt>
      <trkpt lat="43.21534" lon="5.48342">
        <ele>284.9</ele>
        <time>2025-10-18T10:43:54Z</time>
      </trkpt>
      <trkpt lat="43.21534" lon="5.48342">
        <ele>284.9</ele>
        <time>2025-10-18T10:43:55Z</time>
      </trkpt>
      <trkpt lat="43.21534" lon="5.48342">
        <ele>285</ele>
        <time>2025-10-18T10:43:56Z</time>
      </trkpt>
      <trkpt lat="43.21534" lon="5.48341">
        <ele>285</ele>
        <time>2025-10-18T10:43:57Z</time>
      </trkpt>
      <trkpt lat="43.21534" lon="5.48341">
        <ele>285</ele>
        <time>2025-10-18T10:43:58Z</time>
      </trkpt>
      <trkpt lat="43.21534" lon="5.48341">
        <ele>285</ele>
        <time>2025-10-18T10:43:59Z</time>
      </trkpt>
      <trkpt lat="43.21534" lon="5.48341">
        <ele>285</ele>
        <time>2025-10-18T10:44:00Z</time>
      </trkpt>
      <trkpt lat="43.21534" lon="5.48341">
        <ele>285</ele>
        <time>2025-10-18T10:44:01Z</time>
      </trkpt>
      <trkpt lat="43.21534" lon="5.48341">
        <ele>285</ele>
        <time>2025-10-18T10:44:02Z</time>
      </trkpt>
      <trkpt lat="43.21534" lon="5.48341">
        <ele>284.9</ele>
        <time>2025-10-18T10:44:03Z</time>
      </trkpt>
      <trkpt lat="43.21534" lon="5.48341">
        <ele>284.9</ele>
        <time>2025-10-18T10:44:04Z</time>
      </trkpt>
      <trkpt lat="43.21534" lon="5.48341">
        <ele>284.8</ele>
        <time>2025-10-18T10:44:05Z</time>
      </trkpt>
      <trkpt lat="43.21534" lon="5.48341">
        <ele>284.8</ele>
        <time>2025-10-18T10:44:06Z</time>
      </trkpt>
      <trkpt lat="43.21534" lon="5.48341">
        <ele>284.8</ele>
        <time>2025-10-18T10:44:07Z</time>
      </trkpt>
      <trkpt lat="43.21534" lon="5.48341">
        <ele>284.9</ele>
        <time>2025-10-18T10:44:08Z</time>
      </trkpt>
      <trkpt lat="43.21534" lon="5.48341">
        <ele>284.8</ele>
        <time>2025-10-18T10:44:09Z</time>
      </trkpt>
      <trkpt lat="43.21534" lon="5.48341">
        <ele>284.7</ele>
        <time>2025-10-18T10:44:10Z</time>
      </trkpt>
      <trkpt lat="43.21534" lon="5.48341">
        <ele>284.8</ele>
        <time>2025-10-18T10:44:11Z</time>
      </trkpt>
      <trkpt lat="43.21534" lon="5.48341">
        <ele>284.9</ele>
        <time>2025-10-18T10:44:12Z</time>
      </trkpt>
      <trkpt lat="43.21533" lon="5.48341">
        <ele>285</ele>
        <time>2025-10-18T10:44:13Z</time>
      </trkpt>
      <trkpt lat="43.21533" lon="5.48341">
        <ele>285.1</ele>
        <time>2025-10-18T10:44:14Z</time>
      </trkpt>
      <trkpt lat="43.21533" lon="5.48341">
        <ele>285.1</ele>
        <time>2025-10-18T10:44:15Z</time>
      </trkpt>
      <trkpt lat="43.21533" lon="5.48341">
        <ele>285.1</ele>
        <time>2025-10-18T10:44:16Z</time>
      </trkpt>
      <trkpt lat="43.21533" lon="5.48341">
        <ele>285.1</ele>
        <time>2025-10-18T10:44:17Z</time>
      </trkpt>
      <trkpt lat="43.21533" lon="5.48341">
        <ele>285.1</ele>
        <time>2025-10-18T10:44:18Z</time>
      </trkpt>
      <trkpt lat="43.21533" lon="5.48341">
        <ele>285.1</ele>
        <time>2025-10-18T10:44:19Z</time>
      </trkpt>
      <trkpt lat="43.21533" lon="5.48341">
        <ele>285.1</ele>
        <time>2025-10-18T10:44:20Z</time>
      </trkpt>
      <trkpt lat="43.21533" lon="5.48342">
        <ele>285.1</ele>
        <time>2025-10-18T10:44:21Z</time>
      </trkpt>
      <trkpt lat="43.21534" lon="5.48342">
        <ele>285</ele>
        <time>2025-10-18T10:44:22Z</time>
      </trkpt>
      <trkpt lat="43.21534" lon="5.48342">
        <ele>285</ele>
        <time>2025-10-18T10:44:23Z</time>
      </trkpt>
      <trkpt lat="43.21534" lon="5.48342">
        <ele>285</ele>
        <time>2025-10-18T10:44:24Z</time>
      </trkpt>
      <trkpt lat="43.21534" lon="5.48342">
        <ele>285</ele>
        <time>2025-10-18T10:44:25Z</time>
      </trkpt>
      <trkpt lat="43.21534" lon="5.48342">
        <ele>285</ele>
        <time>2025-10-18T10:44:26Z</time>
      </trkpt>
      <trkpt lat="43.21534" lon="5.48342">
        <ele>285</ele>
        <time>2025-10-18T10:44:27Z</time>
      </trkpt>
      <trkpt lat="43.21534" lon="5.48342">
        <ele>285.1</ele>
        <time>2025-10-18T10:44:28Z</time>
      </trkpt>
      <trkpt lat="43.21534" lon="5.48342">
        <ele>285</ele>
        <time>2025-10-18T10:44:29Z</time>
      </trkpt>
      <trkpt lat="43.21534" lon="5.48342">
        <ele>285</ele>
        <time>2025-10-18T10:44:30Z</time>
      </trkpt>
      <trkpt lat="43.21534" lon="5.48342">
        <ele>285</ele>
        <time>2025-10-18T10:44:31Z</time>
      </trkpt>
      <trkpt lat="43.21534" lon="5.48342">
        <ele>285</ele>
        <time>2025-10-18T10:44:32Z</time>
      </trkpt>
      <trkpt lat="43.21534" lon="5.48342">
        <ele>285</ele>
        <time>2025-10-18T10:44:33Z</time>
      </trkpt>
      <trkpt lat="43.21534" lon="5.48342">
        <ele>285.1</ele>
        <time>2025-10-18T10:44:34Z</time>
      </trkpt>
      <trkpt lat="43.21534" lon="5.48342">
        <ele>285.2</ele>
        <time>2025-10-18T10:44:35Z</time>
      </trkpt>
      <trkpt lat="43.21534" lon="5.48343">
        <ele>285.3</ele>
        <time>2025-10-18T10:44:36Z</time>
      </trkpt>
      <trkpt lat="43.21534" lon="5.48343">
        <ele>285.3</ele>
        <time>2025-10-18T10:44:37Z</time>
      </trkpt>
      <trkpt lat="43.21534" lon="5.48342">
        <ele>285.4</ele>
        <time>2025-10-18T10:44:38Z</time>
      </trkpt>
      <trkpt lat="43.21534" lon="5.48342">
        <ele>285.3</ele>
        <time>2025-10-18T10:44:39Z</time>
      </trkpt>
      <trkpt lat="43.21534" lon="5.48342">
        <ele>285.3</ele>
        <time>2025-10-18T10:44:40Z</time>
      </trkpt>
      <trkpt lat="43.21534" lon="5.48342">
        <ele>285.2</ele>
        <time>2025-10-18T10:44:41Z</time>
      </trkpt>
      <trkpt lat="43.21534" lon="5.48342">
        <ele>285.1</ele>
        <time>2025-10-18T10:44:42Z</time>
      </trkpt>
      <trkpt lat="43.21534" lon="5.48342">
        <ele>285.1</ele>
        <time>2025-10-18T10:44:43Z</time>
      </trkpt>
      <trkpt lat="43.21534" lon="5.48342">
        <ele>285.1</ele>
        <time>2025-10-18T10:44:44Z</time>
      </trkpt>
      <trkpt lat="43.21534" lon="5.48342">
        <ele>285.1</ele>
        <time>2025-10-18T10:44:45Z</time>
      </trkpt>
      <trkpt lat="43.21534" lon="5.48342">
        <ele>285.2</ele>
        <time>2025-10-18T10:44:46Z</time>
      </trkpt>
      <trkpt lat="43.21534" lon="5.48342">
        <ele>285.1</ele>
        <time>2025-10-18T10:44:47Z</time>
      </trkpt>
      <trkpt lat="43.21534" lon="5.48342">
        <ele>285.2</ele>
        <time>2025-10-18T10:44:48Z</time>
      </trkpt>
      <trkpt lat="43.21534" lon="5.48342">
        <ele>285.2</ele>
        <time>2025-10-18T10:44:49Z</time>
      </trkpt>
      <trkpt lat="43.21534" lon="5.48342">
        <ele>285.2</ele>
        <time>2025-10-18T10:44:50Z</time>
      </trkpt>
      <trkpt lat="43.21534" lon="5.48342">
        <ele>285.2</ele>
        <time>2025-10-18T10:44:51Z</time>
      </trkpt>
      <trkpt lat="43.21534" lon="5.48342">
        <ele>285.2</ele>
        <time>2025-10-18T10:44:52Z</time>
      </trkpt>
      <trkpt lat="43.21534" lon="5.48342">
        <ele>285.2</ele>
        <time>2025-10-18T10:44:53Z</time>
      </trkpt>
      <trkpt lat="43.21534" lon="5.48342">
        <ele>285.2</ele>
        <time>2025-10-18T10:44:54Z</time>
      </trkpt>
      <trkpt lat="43.21534" lon="5.48342">
        <ele>285.2</ele>
        <time>2025-10-18T10:44:55Z</time>
      </trkpt>
      <trkpt lat="43.21534" lon="5.48342">
        <ele>285.1</ele>
        <time>2025-10-18T10:44:56Z</time>
      </trkpt>
      <trkpt lat="43.21534" lon="5.48342">
        <ele>285.1</ele>
        <time>2025-10-18T10:44:57Z</time>
      </trkpt>
      <trkpt lat="43.21534" lon="5.48342">
        <ele>285.1</ele>
        <time>2025-10-18T10:44:58Z</time>
      </trkpt>
      <trkpt lat="43.21534" lon="5.48342">
        <ele>285.1</ele>
        <time>2025-10-18T10:44:59Z</time>
      </trkpt>
      <trkpt lat="43.21534" lon="5.48342">
        <ele>285.1</ele>
        <time>2025-10-18T10:45:00Z</time>
      </trkpt>
      <trkpt lat="43.21534" lon="5.48342">
        <ele>285</ele>
        <time>2025-10-18T10:45:01Z</time>
      </trkpt>
      <trkpt lat="43.21534" lon="5.48342">
        <ele>285</ele>
        <time>2025-10-18T10:45:02Z</time>
      </trkpt>
      <trkpt lat="43.21534" lon="5.48342">
        <ele>285</ele>
        <time>2025-10-18T10:45:03Z</time>
      </trkpt>
      <trkpt lat="43.21534" lon="5.48342">
        <ele>285</ele>
        <time>2025-10-18T10:45:04Z</time>
      </trkpt>
      <trkpt lat="43.21534" lon="5.48342">
        <ele>284.9</ele>
        <time>2025-10-18T10:45:05Z</time>
      </trkpt>
      <trkpt lat="43.21534" lon="5.48342">
        <ele>284.9</ele>
        <time>2025-10-18T10:45:06Z</time>
      </trkpt>
      <trkpt lat="43.21534" lon="5.48342">
        <ele>284.9</ele>
        <time>2025-10-18T10:45:07Z</time>
      </trkpt>
      <trkpt lat="43.21534" lon="5.48342">
        <ele>284.8</ele>
        <time>2025-10-18T10:45:08Z</time>
      </trkpt>
      <trkpt lat="43.21534" lon="5.48342">
        <ele>284.8</ele>
        <time>2025-10-18T10:45:09Z</time>
      </trkpt>
      <trkpt lat="43.21534" lon="5.48342">
        <ele>284.8</ele>
        <time>2025-10-18T10:45:10Z</time>
      </trkpt>
      <trkpt lat="43.21534" lon="5.48342">
        <ele>284.8</ele>
        <time>2025-10-18T10:45:11Z</time>
      </trkpt>
      <trkpt lat="43.21534" lon="5.48342">
        <ele>284.9</ele>
        <time>2025-10-18T10:45:12Z</time>
      </trkpt>
      <trkpt lat="43.21534" lon="5.48342">
        <ele>284.9</ele>
        <time>2025-10-18T10:45:13Z</time>
      </trkpt>
      <trkpt lat="43.21534" lon="5.48342">
        <ele>285</ele>
        <time>2025-10-18T10:45:14Z</time>
      </trkpt>
      <trkpt lat="43.21535" lon="5.48342">
        <ele>285</ele>
        <time>2025-10-18T10:45:15Z</time>
      </trkpt>
      <trkpt lat="43.21535" lon="5.48342">
        <ele>284.9</ele>
        <time>2025-10-18T10:45:16Z</time>
      </trkpt>
      <trkpt lat="43.21535" lon="5.48343">
        <ele>285</ele>
        <time>2025-10-18T10:45:17Z</time>
      </trkpt>
      <trkpt lat="43.21535" lon="5.48343">
        <ele>284.9</ele>
        <time>2025-10-18T10:45:18Z</time>
      </trkpt>
      <trkpt lat="43.21535" lon="5.48343">
        <ele>284.9</ele>
        <time>2025-10-18T10:45:19Z</time>
      </trkpt>
      <trkpt lat="43.21535" lon="5.48343">
        <ele>284.9</ele>
        <time>2025-10-18T10:45:20Z</time>
      </trkpt>
      <trkpt lat="43.21535" lon="5.48343">
        <ele>285</ele>
        <time>2025-10-18T10:45:21Z</time>
      </trkpt>
      <trkpt lat="43.21535" lon="5.48343">
        <ele>285</ele>
        <time>2025-10-18T10:45:22Z</time>
      </trkpt>
      <trkpt lat="43.21535" lon="5.48343">
        <ele>285</ele>
        <time>2025-10-18T10:45:23Z</time>
      </trkpt>
      <trkpt lat="43.21535" lon="5.48343">
        <ele>285</ele>
        <time>2025-10-18T10:45:24Z</time>
      </trkpt>
      <trkpt lat="43.21535" lon="5.48343">
        <ele>284.9</ele>
        <time>2025-10-18T10:45:25Z</time>
      </trkpt>
      <trkpt lat="43.21535" lon="5.48343">
        <ele>285</ele>
        <time>2025-10-18T10:45:26Z</time>
      </trkpt>
      <trkpt lat="43.21535" lon="5.48343">
        <ele>285</ele>
        <time>2025-10-18T10:45:27Z</time>
      </trkpt>
      <trkpt lat="43.21535" lon="5.48343">
        <ele>285.1</ele>
        <time>2025-10-18T10:45:28Z</time>
      </trkpt>
      <trkpt lat="43.21535" lon="5.48343">
        <ele>285.1</ele>
        <time>2025-10-18T10:45:29Z</time>
      </trkpt>
      <trkpt lat="43.21536" lon="5.48343">
        <ele>285.2</ele>
        <time>2025-10-18T10:45:30Z</time>
      </trkpt>
      <trkpt lat="43.21536" lon="5.48343">
        <ele>285.1</ele>
        <time>2025-10-18T10:45:31Z</time>
      </trkpt>
      <trkpt lat="43.21536" lon="5.48343">
        <ele>285.1</ele>
        <time>2025-10-18T10:45:32Z</time>
      </trkpt>
      <trkpt lat="43.21536" lon="5.48343">
        <ele>285.2</ele>
        <time>2025-10-18T10:45:33Z</time>
      </trkpt>
      <trkpt lat="43.21536" lon="5.48343">
        <ele>285.2</ele>
        <time>2025-10-18T10:45:34Z</time>
      </trkpt>
      <trkpt lat="43.21536" lon="5.48343">
        <ele>285.2</ele>
        <time>2025-10-18T10:45:35Z</time>
      </trkpt>
      <trkpt lat="43.21536" lon="5.48343">
        <ele>285.2</ele>
        <time>2025-10-18T10:45:36Z</time>
      </trkpt>
      <trkpt lat="43.21536" lon="5.48343">
        <ele>285.1</ele>
        <time>2025-10-18T10:45:37Z</time>
      </trkpt>
      <trkpt lat="43.21536" lon="5.48343">
        <ele>285.1</ele>
        <time>2025-10-18T10:45:38Z</time>
      </trkpt>
      <trkpt lat="43.21536" lon="5.48343">
        <ele>285</ele>
        <time>2025-10-18T10:45:39Z</time>
      </trkpt>
      <trkpt lat="43.21536" lon="5.48343">
        <ele>285</ele>
        <time>2025-10-18T10:45:40Z</time>
      </trkpt>
      <trkpt lat="43.21536" lon="5.48343">
        <ele>285</ele>
        <time>2025-10-18T10:45:41Z</time>
      </trkpt>
      <trkpt lat="43.21535" lon="5.48343">
        <ele>285</ele>
        <time>2025-10-18T10:45:42Z</time>
      </trkpt>
      <trkpt lat="43.21535" lon="5.48343">
        <ele>285</ele>
        <time>2025-10-18T10:45:43Z</time>
      </trkpt>
      <trkpt lat="43.21535" lon="5.48343">
        <ele>285</ele>
        <time>2025-10-18T10:45:44Z</time>
      </trkpt>
      <trkpt lat="43.21535" lon="5.48343">
        <ele>285</ele>
        <time>2025-10-18T10:45:45Z</time>
      </trkpt>
      <trkpt lat="43.21535" lon="5.48343">
        <ele>285</ele>
        <time>2025-10-18T10:45:46Z</time>
      </trkpt>
      <trkpt lat="43.21535" lon="5.48342">
        <ele>285</ele>
        <time>2025-10-18T10:45:47Z</time>
      </trkpt>
      <trkpt lat="43.21535" lon="5.48342">
        <ele>285</ele>
        <time>2025-10-18T10:45:48Z</time>
      </trkpt>
      <trkpt lat="43.21535" lon="5.48342">
        <ele>285</ele>
        <time>2025-10-18T10:45:49Z</time>
      </trkpt>
      <trkpt lat="43.21535" lon="5.48343">
        <ele>285</ele>
        <time>2025-10-18T10:45:50Z</time>
      </trkpt>
      <trkpt lat="43.21535" lon="5.48343">
        <ele>285</ele>
        <time>2025-10-18T10:45:51Z</time>
      </trkpt>
      <trkpt lat="43.21535" lon="5.48342">
        <ele>285</ele>
        <time>2025-10-18T10:45:52Z</time>
      </trkpt>
      <trkpt lat="43.21535" lon="5.48342">
        <ele>285</ele>
        <time>2025-10-18T10:45:53Z</time>
      </trkpt>
      <trkpt lat="43.21535" lon="5.48342">
        <ele>285.1</ele>
        <time>2025-10-18T10:45:54Z</time>
      </trkpt>
      <trkpt lat="43.21534" lon="5.48342">
        <ele>285.1</ele>
        <time>2025-10-18T10:45:55Z</time>
      </trkpt>
      <trkpt lat="43.21535" lon="5.48342">
        <ele>285</ele>
        <time>2025-10-18T10:45:56Z</time>
      </trkpt>
      <trkpt lat="43.21535" lon="5.48342">
        <ele>284.9</ele>
        <time>2025-10-18T10:45:57Z</time>
      </trkpt>
      <trkpt lat="43.21535" lon="5.48342">
        <ele>284.9</ele>
        <time>2025-10-18T10:45:58Z</time>
      </trkpt>
      <trkpt lat="43.21535" lon="5.48342">
        <ele>284.8</ele>
        <time>2025-10-18T10:45:59Z</time>
      </trkpt>
      <trkpt lat="43.21535" lon="5.48342">
        <ele>284.8</ele>
        <time>2025-10-18T10:46:00Z</time>
      </trkpt>
      <trkpt lat="43.21535" lon="5.48342">
        <ele>284.8</ele>
        <time>2025-10-18T10:46:01Z</time>
      </trkpt>
      <trkpt lat="43.21535" lon="5.48342">
        <ele>284.8</ele>
        <time>2025-10-18T10:46:02Z</time>
      </trkpt>
      <trkpt lat="43.21535" lon="5.48343">
        <ele>284.8</ele>
        <time>2025-10-18T10:46:03Z</time>
      </trkpt>
      <trkpt lat="43.21537" lon="5.48344">
        <ele>284.6</ele>
        <time>2025-10-18T10:46:04Z</time>
      </trkpt>
      <trkpt lat="43.21536" lon="5.48344">
        <ele>284.6</ele>
        <time>2025-10-18T10:46:05Z</time>
      </trkpt>
      <trkpt lat="43.21536" lon="5.48344">
        <ele>284.7</ele>
        <time>2025-10-18T10:46:06Z</time>
      </trkpt>
      <trkpt lat="43.21536" lon="5.48344">
        <ele>284.7</ele>
        <time>2025-10-18T10:46:07Z</time>
      </trkpt>
      <trkpt lat="43.21536" lon="5.48344">
        <ele>284.8</ele>
        <time>2025-10-18T10:46:08Z</time>
      </trkpt>
      <trkpt lat="43.21536" lon="5.48344">
        <ele>284.8</ele>
        <time>2025-10-18T10:46:09Z</time>
      </trkpt>
      <trkpt lat="43.21535" lon="5.48344">
        <ele>284.8</ele>
        <time>2025-10-18T10:46:10Z</time>
      </trkpt>
      <trkpt lat="43.21535" lon="5.48344">
        <ele>284.8</ele>
        <time>2025-10-18T10:46:11Z</time>
      </trkpt>
      <trkpt lat="43.21535" lon="5.48344">
        <ele>284.8</ele>
        <time>2025-10-18T10:46:12Z</time>
      </trkpt>
      <trkpt lat="43.21535" lon="5.48344">
        <ele>284.9</ele>
        <time>2025-10-18T10:46:13Z</time>
      </trkpt>
      <trkpt lat="43.21535" lon="5.48344">
        <ele>284.9</ele>
        <time>2025-10-18T10:46:14Z</time>
      </trkpt>
      <trkpt lat="43.21535" lon="5.48344">
        <ele>285</ele>
        <time>2025-10-18T10:46:15Z</time>
      </trkpt>
      <trkpt lat="43.21535" lon="5.48344">
        <ele>285</ele>
        <time>2025-10-18T10:46:16Z</time>
      </trkpt>
      <trkpt lat="43.21535" lon="5.48344">
        <ele>285</ele>
        <time>2025-10-18T10:46:17Z</time>
      </trkpt>
      <trkpt lat="43.21535" lon="5.48344">
        <ele>285</ele>
        <time>2025-10-18T10:46:18Z</time>
      </trkpt>
      <trkpt lat="43.21535" lon="5.48344">
        <ele>284.9</ele>
        <time>2025-10-18T10:46:19Z</time>
      </trkpt>
      <trkpt lat="43.21535" lon="5.48344">
        <ele>284.9</ele>
        <time>2025-10-18T10:46:20Z</time>
      </trkpt>
      <trkpt lat="43.21535" lon="5.48344">
        <ele>284.9</ele>
        <time>2025-10-18T10:46:21Z</time>
      </trkpt>
      <trkpt lat="43.21535" lon="5.48344">
        <ele>284.9</ele>
        <time>2025-10-18T10:46:22Z</time>
      </trkpt>
      <trkpt lat="43.21535" lon="5.48344">
        <ele>284.9</ele>
        <time>2025-10-18T10:46:23Z</time>
      </trkpt>
      <trkpt lat="43.21535" lon="5.48344">
        <ele>284.9</ele>
        <time>2025-10-18T10:46:24Z</time>
      </trkpt>
      <trkpt lat="43.21535" lon="5.48344">
        <ele>284.9</ele>
        <time>2025-10-18T10:46:25Z</time>
      </trkpt>
      <trkpt lat="43.21534" lon="5.48344">
        <ele>285</ele>
        <time>2025-10-18T10:46:26Z</time>
      </trkpt>
      <trkpt lat="43.21534" lon="5.48344">
        <ele>285</ele>
        <time>2025-10-18T10:46:27Z</time>
      </trkpt>
      <trkpt lat="43.21534" lon="5.48344">
        <ele>285.1</ele>
        <time>2025-10-18T10:46:28Z</time>
      </trkpt>
      <trkpt lat="43.21534" lon="5.48344">
        <ele>285.1</ele>
        <time>2025-10-18T10:46:29Z</time>
      </trkpt>
      <trkpt lat="43.21534" lon="5.48344">
        <ele>285.2</ele>
        <time>2025-10-18T10:46:30Z</time>
      </trkpt>
      <trkpt lat="43.21534" lon="5.48344">
        <ele>285.2</ele>
        <time>2025-10-18T10:46:31Z</time>
      </trkpt>
      <trkpt lat="43.21534" lon="5.48344">
        <ele>285.2</ele>
        <time>2025-10-18T10:46:32Z</time>
      </trkpt>
      <trkpt lat="43.21534" lon="5.48344">
        <ele>285.2</ele>
        <time>2025-10-18T10:46:33Z</time>
      </trkpt>
      <trkpt lat="43.21534" lon="5.48344">
        <ele>285.2</ele>
        <time>2025-10-18T10:46:34Z</time>
      </trkpt>
      <trkpt lat="43.21534" lon="5.48344">
        <ele>285.2</ele>
        <time>2025-10-18T10:46:35Z</time>
      </trkpt>
      <trkpt lat="43.21534" lon="5.48344">
        <ele>285.1</ele>
        <time>2025-10-18T10:46:36Z</time>
      </trkpt>
      <trkpt lat="43.21534" lon="5.48344">
        <ele>285.1</ele>
        <time>2025-10-18T10:46:37Z</time>
      </trkpt>
      <trkpt lat="43.21534" lon="5.48344">
        <ele>285.1</ele>
        <time>2025-10-18T10:46:38Z</time>
      </trkpt>
      <trkpt lat="43.21534" lon="5.48344">
        <ele>285.1</ele>
        <time>2025-10-18T10:46:39Z</time>
      </trkpt>
      <trkpt lat="43.21534" lon="5.48344">
        <ele>285.1</ele>
        <time>2025-10-18T10:46:40Z</time>
      </trkpt>
      <trkpt lat="43.21534" lon="5.48344">
        <ele>285.1</ele>
        <time>2025-10-18T10:46:41Z</time>
      </trkpt>
      <trkpt lat="43.21534" lon="5.48344">
        <ele>285.1</ele>
        <time>2025-10-18T10:46:42Z</time>
      </trkpt>
      <trkpt lat="43.21534" lon="5.48344">
        <ele>285.2</ele>
        <time>2025-10-18T10:46:43Z</time>
      </trkpt>
      <trkpt lat="43.21534" lon="5.48344">
        <ele>285.2</ele>
        <time>2025-10-18T10:46:44Z</time>
      </trkpt>
      <trkpt lat="43.21534" lon="5.48344">
        <ele>285.2</ele>
        <time>2025-10-18T10:46:45Z</time>
      </trkpt>
      <trkpt lat="43.21534" lon="5.48344">
        <ele>285.2</ele>
        <time>2025-10-18T10:46:46Z</time>
      </trkpt>
      <trkpt lat="43.21534" lon="5.48344">
        <ele>285.2</ele>
        <time>2025-10-18T10:46:47Z</time>
      </trkpt>
      <trkpt lat="43.21534" lon="5.48344">
        <ele>285.2</ele>
        <time>2025-10-18T10:46:48Z</time>
      </trkpt>
      <trkpt lat="43.21534" lon="5.48344">
        <ele>285.2</ele>
        <time>2025-10-18T10:46:49Z</time>
      </trkpt>
      <trkpt lat="43.21534" lon="5.48344">
        <ele>285.2</ele>
        <time>2025-10-18T10:46:50Z</time>
      </trkpt>
      <trkpt lat="43.21534" lon="5.48344">
        <ele>285.2</ele>
        <time>2025-10-18T10:46:51Z</time>
      </trkpt>
      <trkpt lat="43.21534" lon="5.48345">
        <ele>285.2</ele>
        <time>2025-10-18T10:46:52Z</time>
      </trkpt>
      <trkpt lat="43.21534" lon="5.48345">
        <ele>285.2</ele>
        <time>2025-10-18T10:46:53Z</time>
      </trkpt>
      <trkpt lat="43.21534" lon="5.48345">
        <ele>285.2</ele>
        <time>2025-10-18T10:46:54Z</time>
      </trkpt>
      <trkpt lat="43.21534" lon="5.48345">
        <ele>285.2</ele>
        <time>2025-10-18T10:46:55Z</time>
      </trkpt>
      <trkpt lat="43.21534" lon="5.48345">
        <ele>285.2</ele>
        <time>2025-10-18T10:46:56Z</time>
      </trkpt>
      <trkpt lat="43.21534" lon="5.48345">
        <ele>285.2</ele>
        <time>2025-10-18T10:46:57Z</time>
      </trkpt>
      <trkpt lat="43.21534" lon="5.48345">
        <ele>285.2</ele>
        <time>2025-10-18T10:46:58Z</time>
      </trkpt>
      <trkpt lat="43.21534" lon="5.48345">
        <ele>285.3</ele>
        <time>2025-10-18T10:46:59Z</time>
      </trkpt>
      <trkpt lat="43.21533" lon="5.48345">
        <ele>285.3</ele>
        <time>2025-10-18T10:47:00Z</time>
      </trkpt>
      <trkpt lat="43.21533" lon="5.48345">
        <ele>285.4</ele>
        <time>2025-10-18T10:47:01Z</time>
      </trkpt>
      <trkpt lat="43.21533" lon="5.48345">
        <ele>285.4</ele>
        <time>2025-10-18T10:47:02Z</time>
      </trkpt>
      <trkpt lat="43.21533" lon="5.48345">
        <ele>285.4</ele>
        <time>2025-10-18T10:47:03Z</time>
      </trkpt>
      <trkpt lat="43.21533" lon="5.48346">
        <ele>285.4</ele>
        <time>2025-10-18T10:47:04Z</time>
      </trkpt>
      <trkpt lat="43.21533" lon="5.48346">
        <ele>285.4</ele>
        <time>2025-10-18T10:47:05Z</time>
      </trkpt>
      <trkpt lat="43.21533" lon="5.48346">
        <ele>285.3</ele>
        <time>2025-10-18T10:47:06Z</time>
      </trkpt>
      <trkpt lat="43.21533" lon="5.48346">
        <ele>285.3</ele>
        <time>2025-10-18T10:47:07Z</time>
      </trkpt>
      <trkpt lat="43.21533" lon="5.48346">
        <ele>285.3</ele>
        <time>2025-10-18T10:47:08Z</time>
      </trkpt>
      <trkpt lat="43.21533" lon="5.48346">
        <ele>285.3</ele>
        <time>2025-10-18T10:47:09Z</time>
      </trkpt>
      <trkpt lat="43.21533" lon="5.48347">
        <ele>285.3</ele>
        <time>2025-10-18T10:47:10Z</time>
      </trkpt>
      <trkpt lat="43.21533" lon="5.48347">
        <ele>285.3</ele>
        <time>2025-10-18T10:47:11Z</time>
      </trkpt>
      <trkpt lat="43.21533" lon="5.48347">
        <ele>285.3</ele>
        <time>2025-10-18T10:47:12Z</time>
      </trkpt>
      <trkpt lat="43.21533" lon="5.48346">
        <ele>285.3</ele>
        <time>2025-10-18T10:47:13Z</time>
      </trkpt>
      <trkpt lat="43.21533" lon="5.48346">
        <ele>285.3</ele>
        <time>2025-10-18T10:47:14Z</time>
      </trkpt>
      <trkpt lat="43.21533" lon="5.48346">
        <ele>285.3</ele>
        <time>2025-10-18T10:47:15Z</time>
      </trkpt>
      <trkpt lat="43.21533" lon="5.48346">
        <ele>285.3</ele>
        <time>2025-10-18T10:47:16Z</time>
      </trkpt>
      <trkpt lat="43.21533" lon="5.48346">
        <ele>285.3</ele>
        <time>2025-10-18T10:47:17Z</time>
      </trkpt>
      <trkpt lat="43.21533" lon="5.48346">
        <ele>285.3</ele>
        <time>2025-10-18T10:47:18Z</time>
      </trkpt>
      <trkpt lat="43.21533" lon="5.48346">
        <ele>285.2</ele>
        <time>2025-10-18T10:47:19Z</time>
      </trkpt>
      <trkpt lat="43.21533" lon="5.48346">
        <ele>285.2</ele>
        <time>2025-10-18T10:47:20Z</time>
      </trkpt>
      <trkpt lat="43.21533" lon="5.48346">
        <ele>285.2</ele>
        <time>2025-10-18T10:47:21Z</time>
      </trkpt>
      <trkpt lat="43.21533" lon="5.48346">
        <ele>285.3</ele>
        <time>2025-10-18T10:47:22Z</time>
      </trkpt>
      <trkpt lat="43.21533" lon="5.48346">
        <ele>285.3</ele>
        <time>2025-10-18T10:47:23Z</time>
      </trkpt>
      <trkpt lat="43.21533" lon="5.48346">
        <ele>285.2</ele>
        <time>2025-10-18T10:47:24Z</time>
      </trkpt>
      <trkpt lat="43.21533" lon="5.48346">
        <ele>285.2</ele>
        <time>2025-10-18T10:47:25Z</time>
      </trkpt>
      <trkpt lat="43.21533" lon="5.48346">
        <ele>285.2</ele>
        <time>2025-10-18T10:47:26Z</time>
      </trkpt>
      <trkpt lat="43.21533" lon="5.48346">
        <ele>285.3</ele>
        <time>2025-10-18T10:47:27Z</time>
      </trkpt>
      <trkpt lat="43.21533" lon="5.48346">
        <ele>285.3</ele>
        <time>2025-10-18T10:47:28Z</time>
      </trkpt>
      <trkpt lat="43.21533" lon="5.48346">
        <ele>285.3</ele>
        <time>2025-10-18T10:47:29Z</time>
      </trkpt>
      <trkpt lat="43.21533" lon="5.48346">
        <ele>285.3</ele>
        <time>2025-10-18T10:47:30Z</time>
      </trkpt>
      <trkpt lat="43.21533" lon="5.48346">
        <ele>285.3</ele>
        <time>2025-10-18T10:47:31Z</time>
      </trkpt>
      <trkpt lat="43.21533" lon="5.48346">
        <ele>285.3</ele>
        <time>2025-10-18T10:47:32Z</time>
      </trkpt>
      <trkpt lat="43.21533" lon="5.48346">
        <ele>285.3</ele>
        <time>2025-10-18T10:47:33Z</time>
      </trkpt>
      <trkpt lat="43.21533" lon="5.48346">
        <ele>285.3</ele>
        <time>2025-10-18T10:47:34Z</time>
      </trkpt>
      <trkpt lat="43.21533" lon="5.48346">
        <ele>285.3</ele>
        <time>2025-10-18T10:47:35Z</time>
      </trkpt>
      <trkpt lat="43.21533" lon="5.48346">
        <ele>285.3</ele>
        <time>2025-10-18T10:47:36Z</time>
      </trkpt>
      <trkpt lat="43.21533" lon="5.48346">
        <ele>285.3</ele>
        <time>2025-10-18T10:47:37Z</time>
      </trkpt>
      <trkpt lat="43.21533" lon="5.48346">
        <ele>285.2</ele>
        <time>2025-10-18T10:47:38Z</time>
      </trkpt>
      <trkpt lat="43.21533" lon="5.48346">
        <ele>285.3</ele>
        <time>2025-10-18T10:47:39Z</time>
      </trkpt>
      <trkpt lat="43.21533" lon="5.48346">
        <ele>285.3</ele>
        <time>2025-10-18T10:47:40Z</time>
      </trkpt>
      <trkpt lat="43.21533" lon="5.48346">
        <ele>285.3</ele>
        <time>2025-10-18T10:47:41Z</time>
      </trkpt>
      <trkpt lat="43.21533" lon="5.48346">
        <ele>285.3</ele>
        <time>2025-10-18T10:47:42Z</time>
      </trkpt>
      <trkpt lat="43.21533" lon="5.48346">
        <ele>285.3</ele>
        <time>2025-10-18T10:47:43Z</time>
      </trkpt>
      <trkpt lat="43.21533" lon="5.48346">
        <ele>285.3</ele>
        <time>2025-10-18T10:47:44Z</time>
      </trkpt>
      <trkpt lat="43.21533" lon="5.48346">
        <ele>285.3</ele>
        <time>2025-10-18T10:47:45Z</time>
      </trkpt>
      <trkpt lat="43.21533" lon="5.48346">
        <ele>285.3</ele>
        <time>2025-10-18T10:47:46Z</time>
      </trkpt>
      <trkpt lat="43.21533" lon="5.48346">
        <ele>285.4</ele>
        <time>2025-10-18T10:47:47Z</time>
      </trkpt>
      <trkpt lat="43.21533" lon="5.48346">
        <ele>285.5</ele>
        <time>2025-10-18T10:47:48Z</time>
      </trkpt>
      <trkpt lat="43.21533" lon="5.48346">
        <ele>285.5</ele>
        <time>2025-10-18T10:47:49Z</time>
      </trkpt>
      <trkpt lat="43.21533" lon="5.48346">
        <ele>285.5</ele>
        <time>2025-10-18T10:47:50Z</time>
      </trkpt>
      <trkpt lat="43.21533" lon="5.48346">
        <ele>285.5</ele>
        <time>2025-10-18T10:47:51Z</time>
      </trkpt>
      <trkpt lat="43.21533" lon="5.48346">
        <ele>285.5</ele>
        <time>2025-10-18T10:47:52Z</time>
      </trkpt>
      <trkpt lat="43.21533" lon="5.48346">
        <ele>285.5</ele>
        <time>2025-10-18T10:47:53Z</time>
      </trkpt>
      <trkpt lat="43.21532" lon="5.48346">
        <ele>285.5</ele>
        <time>2025-10-18T10:47:54Z</time>
      </trkpt>
      <trkpt lat="43.21532" lon="5.48346">
        <ele>285.5</ele>
        <time>2025-10-18T10:47:55Z</time>
      </trkpt>
      <trkpt lat="43.21532" lon="5.48346">
        <ele>285.5</ele>
        <time>2025-10-18T10:47:56Z</time>
      </trkpt>
      <trkpt lat="43.21532" lon="5.48347">
        <ele>285.4</ele>
        <time>2025-10-18T10:47:57Z</time>
      </trkpt>
      <trkpt lat="43.21532" lon="5.48347">
        <ele>285.4</ele>
        <time>2025-10-18T10:47:58Z</time>
      </trkpt>
      <trkpt lat="43.21532" lon="5.48347">
        <ele>285.5</ele>
        <time>2025-10-18T10:47:59Z</time>
      </trkpt>
      <trkpt lat="43.21532" lon="5.48347">
        <ele>285.4</ele>
        <time>2025-10-18T10:48:00Z</time>
      </trkpt>
      <trkpt lat="43.21532" lon="5.48347">
        <ele>285.3</ele>
        <time>2025-10-18T10:48:01Z</time>
      </trkpt>
      <trkpt lat="43.21532" lon="5.48347">
        <ele>285.4</ele>
        <time>2025-10-18T10:48:02Z</time>
      </trkpt>
      <trkpt lat="43.21532" lon="5.48347">
        <ele>285.3</ele>
        <time>2025-10-18T10:48:03Z</time>
      </trkpt>
      <trkpt lat="43.21532" lon="5.48347">
        <ele>285.3</ele>
        <time>2025-10-18T10:48:04Z</time>
      </trkpt>
      <trkpt lat="43.21532" lon="5.48347">
        <ele>285.3</ele>
        <time>2025-10-18T10:48:05Z</time>
      </trkpt>
      <trkpt lat="43.21532" lon="5.48347">
        <ele>285.3</ele>
        <time>2025-10-18T10:48:06Z</time>
      </trkpt>
      <trkpt lat="43.21532" lon="5.48347">
        <ele>285.3</ele>
        <time>2025-10-18T10:48:07Z</time>
      </trkpt>
      <trkpt lat="43.21532" lon="5.48347">
        <ele>285.3</ele>
        <time>2025-10-18T10:48:08Z</time>
      </trkpt>
      <trkpt lat="43.21532" lon="5.48347">
        <ele>285.4</ele>
        <time>2025-10-18T10:48:09Z</time>
      </trkpt>
      <trkpt lat="43.21532" lon="5.48347">
        <ele>285.4</ele>
        <time>2025-10-18T10:48:10Z</time>
      </trkpt>
      <trkpt lat="43.21532" lon="5.48347">
        <ele>285.4</ele>
        <time>2025-10-18T10:48:11Z</time>
      </trkpt>
      <trkpt lat="43.21532" lon="5.48347">
        <ele>285.4</ele>
        <time>2025-10-18T10:48:12Z</time>
      </trkpt>
      <trkpt lat="43.21532" lon="5.48347">
        <ele>285.3</ele>
        <time>2025-10-18T10:48:13Z</time>
      </trkpt>
      <trkpt lat="43.21532" lon="5.48347">
        <ele>285.4</ele>
        <time>2025-10-18T10:48:14Z</time>
      </trkpt>
      <trkpt lat="43.21532" lon="5.48348">
        <ele>285.4</ele>
        <time>2025-10-18T10:48:15Z</time>
      </trkpt>
      <trkpt lat="43.21532" lon="5.48348">
        <ele>285.3</ele>
        <time>2025-10-18T10:48:16Z</time>
      </trkpt>
      <trkpt lat="43.21532" lon="5.48348">
        <ele>285.3</ele>
        <time>2025-10-18T10:48:17Z</time>
      </trkpt>
      <trkpt lat="43.21532" lon="5.48348">
        <ele>285.3</ele>
        <time>2025-10-18T10:48:18Z</time>
      </trkpt>
      <trkpt lat="43.21532" lon="5.48348">
        <ele>285.3</ele>
        <time>2025-10-18T10:48:19Z</time>
      </trkpt>
      <trkpt lat="43.21532" lon="5.48348">
        <ele>285.3</ele>
        <time>2025-10-18T10:48:20Z</time>
      </trkpt>
      <trkpt lat="43.21532" lon="5.48348">
        <ele>285.3</ele>
        <time>2025-10-18T10:48:21Z</time>
      </trkpt>
      <trkpt lat="43.21532" lon="5.48348">
        <ele>285.3</ele>
        <time>2025-10-18T10:48:22Z</time>
      </trkpt>
      <trkpt lat="43.21532" lon="5.48348">
        <ele>285.3</ele>
        <time>2025-10-18T10:48:23Z</time>
      </trkpt>
      <trkpt lat="43.21532" lon="5.48348">
        <ele>285.3</ele>
        <time>2025-10-18T10:48:24Z</time>
      </trkpt>
      <trkpt lat="43.21532" lon="5.48348">
        <ele>285.4</ele>
        <time>2025-10-18T10:48:25Z</time>
      </trkpt>
      <trkpt lat="43.21532" lon="5.48348">
        <ele>285.3</ele>
        <time>2025-10-18T10:48:26Z</time>
      </trkpt>
      <trkpt lat="43.21532" lon="5.48349">
        <ele>285.3</ele>
        <time>2025-10-18T10:48:27Z</time>
      </trkpt>
      <trkpt lat="43.21532" lon="5.48348">
        <ele>285.3</ele>
        <time>2025-10-18T10:48:28Z</time>
      </trkpt>
      <trkpt lat="43.21532" lon="5.48348">
        <ele>285.3</ele>
        <time>2025-10-18T10:48:29Z</time>
      </trkpt>
      <trkpt lat="43.21532" lon="5.48348">
        <ele>285.2</ele>
        <time>2025-10-18T10:48:30Z</time>
      </trkpt>
      <trkpt lat="43.21532" lon="5.48348">
        <ele>285.2</ele>
        <time>2025-10-18T10:48:31Z</time>
      </trkpt>
      <trkpt lat="43.21532" lon="5.48348">
        <ele>285.2</ele>
        <time>2025-10-18T10:48:32Z</time>
      </trkpt>
      <trkpt lat="43.21532" lon="5.48348">
        <ele>285.2</ele>
        <time>2025-10-18T10:48:33Z</time>
      </trkpt>
      <trkpt lat="43.21532" lon="5.48348">
        <ele>285.2</ele>
        <time>2025-10-18T10:48:34Z</time>
      </trkpt>
      <trkpt lat="43.21532" lon="5.48348">
        <ele>285.1</ele>
        <time>2025-10-18T10:48:35Z</time>
      </trkpt>
      <trkpt lat="43.21532" lon="5.48348">
        <ele>285</ele>
        <time>2025-10-18T10:48:36Z</time>
      </trkpt>
      <trkpt lat="43.21532" lon="5.48348">
        <ele>285.1</ele>
        <time>2025-10-18T10:48:37Z</time>
      </trkpt>
      <trkpt lat="43.21532" lon="5.48348">
        <ele>285.2</ele>
        <time>2025-10-18T10:48:38Z</time>
      </trkpt>
      <trkpt lat="43.21532" lon="5.48348">
        <ele>285.3</ele>
        <time>2025-10-18T10:48:39Z</time>
      </trkpt>
      <trkpt lat="43.21532" lon="5.48348">
        <ele>285.3</ele>
        <time>2025-10-18T10:48:40Z</time>
      </trkpt>
      <trkpt lat="43.21532" lon="5.48348">
        <ele>285.3</ele>
        <time>2025-10-18T10:48:41Z</time>
      </trkpt>
      <trkpt lat="43.21532" lon="5.48348">
        <ele>285.3</ele>
        <time>2025-10-18T10:48:42Z</time>
      </trkpt>
      <trkpt lat="43.21532" lon="5.48348">
        <ele>285.3</ele>
        <time>2025-10-18T10:48:43Z</time>
      </trkpt>
      <trkpt lat="43.21532" lon="5.48348">
        <ele>285.3</ele>
        <time>2025-10-18T10:48:44Z</time>
      </trkpt>
      <trkpt lat="43.21532" lon="5.48348">
        <ele>285.3</ele>
        <time>2025-10-18T10:48:45Z</time>
      </trkpt>
      <trkpt lat="43.21532" lon="5.48348">
        <ele>285.4</ele>
        <time>2025-10-18T10:48:46Z</time>
      </trkpt>
      <trkpt lat="43.21532" lon="5.48348">
        <ele>285.4</ele>
        <time>2025-10-18T10:48:47Z</time>
      </trkpt>
      <trkpt lat="43.21532" lon="5.48348">
        <ele>285.4</ele>
        <time>2025-10-18T10:48:48Z</time>
      </trkpt>
      <trkpt lat="43.21532" lon="5.48347">
        <ele>285.4</ele>
        <time>2025-10-18T10:48:49Z</time>
      </trkpt>
      <trkpt lat="43.21532" lon="5.48347">
        <ele>285.4</ele>
        <time>2025-10-18T10:48:50Z</time>
      </trkpt>
      <trkpt lat="43.21532" lon="5.48347">
        <ele>285.4</ele>
        <time>2025-10-18T10:48:51Z</time>
      </trkpt>
      <trkpt lat="43.21532" lon="5.48347">
        <ele>285.3</ele>
        <time>2025-10-18T10:48:52Z</time>
      </trkpt>
      <trkpt lat="43.21532" lon="5.48347">
        <ele>285.3</ele>
        <time>2025-10-18T10:48:53Z</time>
      </trkpt>
      <trkpt lat="43.21532" lon="5.48347">
        <ele>285.2</ele>
        <time>2025-10-18T10:48:54Z</time>
      </trkpt>
      <trkpt lat="43.21532" lon="5.48347">
        <ele>285.2</ele>
        <time>2025-10-18T10:48:55Z</time>
      </trkpt>
      <trkpt lat="43.21532" lon="5.48347">
        <ele>285.2</ele>
        <time>2025-10-18T10:48:56Z</time>
      </trkpt>
      <trkpt lat="43.21532" lon="5.48347">
        <ele>285.2</ele>
        <time>2025-10-18T10:48:57Z</time>
      </trkpt>
      <trkpt lat="43.21532" lon="5.48347">
        <ele>285.2</ele>
        <time>2025-10-18T10:48:58Z</time>
      </trkpt>
      <trkpt lat="43.21532" lon="5.48347">
        <ele>285.3</ele>
        <time>2025-10-18T10:48:59Z</time>
      </trkpt>
      <trkpt lat="43.21532" lon="5.48348">
        <ele>285.3</ele>
        <time>2025-10-18T10:49:00Z</time>
      </trkpt>
      <trkpt lat="43.21532" lon="5.48348">
        <ele>285.3</ele>
        <time>2025-10-18T10:49:01Z</time>
      </trkpt>
      <trkpt lat="43.21532" lon="5.48348">
        <ele>285.3</ele>
        <time>2025-10-18T10:49:02Z</time>
      </trkpt>
      <trkpt lat="43.21532" lon="5.48348">
        <ele>285.2</ele>
        <time>2025-10-18T10:49:03Z</time>
      </trkpt>
      <trkpt lat="43.21532" lon="5.48348">
        <ele>285.3</ele>
        <time>2025-10-18T10:49:04Z</time>
      </trkpt>
      <trkpt lat="43.21532" lon="5.48348">
        <ele>285.2</ele>
        <time>2025-10-18T10:49:05Z</time>
      </trkpt>
      <trkpt lat="43.21532" lon="5.48348">
        <ele>285.3</ele>
        <time>2025-10-18T10:49:06Z</time>
      </trkpt>
      <trkpt lat="43.21532" lon="5.48348">
        <ele>285.3</ele>
        <time>2025-10-18T10:49:07Z</time>
      </trkpt>
      <trkpt lat="43.21532" lon="5.48348">
        <ele>285.2</ele>
        <time>2025-10-18T10:49:08Z</time>
      </trkpt>
      <trkpt lat="43.21531" lon="5.48348">
        <ele>285.2</ele>
        <time>2025-10-18T10:49:09Z</time>
      </trkpt>
      <trkpt lat="43.21532" lon="5.48348">
        <ele>285.2</ele>
        <time>2025-10-18T10:49:10Z</time>
      </trkpt>
      <trkpt lat="43.21532" lon="5.48348">
        <ele>285.2</ele>
        <time>2025-10-18T10:49:11Z</time>
      </trkpt>
      <trkpt lat="43.21532" lon="5.48348">
        <ele>285.1</ele>
        <time>2025-10-18T10:49:12Z</time>
      </trkpt>
      <trkpt lat="43.21532" lon="5.48348">
        <ele>285.1</ele>
        <time>2025-10-18T10:49:13Z</time>
      </trkpt>
      <trkpt lat="43.21532" lon="5.48348">
        <ele>285.1</ele>
        <time>2025-10-18T10:49:14Z</time>
      </trkpt>
      <trkpt lat="43.21532" lon="5.48348">
        <ele>285.1</ele>
        <time>2025-10-18T10:49:15Z</time>
      </trkpt>
      <trkpt lat="43.21532" lon="5.48348">
        <ele>285.1</ele>
        <time>2025-10-18T10:49:16Z</time>
      </trkpt>
      <trkpt lat="43.21532" lon="5.48348">
        <ele>285</ele>
        <time>2025-10-18T10:49:17Z</time>
      </trkpt>
      <trkpt lat="43.21532" lon="5.48348">
        <ele>285</ele>
        <time>2025-10-18T10:49:18Z</time>
      </trkpt>
      <trkpt lat="43.21532" lon="5.48348">
        <ele>285</ele>
        <time>2025-10-18T10:49:19Z</time>
      </trkpt>
      <trkpt lat="43.21532" lon="5.48348">
        <ele>285</ele>
        <time>2025-10-18T10:49:20Z</time>
      </trkpt>
      <trkpt lat="43.21532" lon="5.48348">
        <ele>285</ele>
        <time>2025-10-18T10:49:21Z</time>
      </trkpt>
      <trkpt lat="43.21532" lon="5.48348">
        <ele>285.1</ele>
        <time>2025-10-18T10:49:22Z</time>
      </trkpt>
      <trkpt lat="43.21532" lon="5.48348">
        <ele>285.1</ele>
        <time>2025-10-18T10:49:23Z</time>
      </trkpt>
      <trkpt lat="43.21532" lon="5.48348">
        <ele>285.1</ele>
        <time>2025-10-18T10:49:24Z</time>
      </trkpt>
      <trkpt lat="43.21532" lon="5.48348">
        <ele>285.2</ele>
        <time>2025-10-18T10:49:25Z</time>
      </trkpt>
      <trkpt lat="43.21532" lon="5.48348">
        <ele>285.2</ele>
        <time>2025-10-18T10:49:26Z</time>
      </trkpt>
      <trkpt lat="43.21532" lon="5.48348">
        <ele>285.2</ele>
        <time>2025-10-18T10:49:27Z</time>
      </trkpt>
      <trkpt lat="43.21532" lon="5.48347">
        <ele>285.3</ele>
        <time>2025-10-18T10:49:28Z</time>
      </trkpt>
      <trkpt lat="43.21532" lon="5.48347">
        <ele>285.4</ele>
        <time>2025-10-18T10:49:29Z</time>
      </trkpt>
      <trkpt lat="43.21532" lon="5.48347">
        <ele>285.4</ele>
        <time>2025-10-18T10:49:30Z</time>
      </trkpt>
      <trkpt lat="43.21532" lon="5.48347">
        <ele>285.4</ele>
        <time>2025-10-18T10:49:31Z</time>
      </trkpt>
      <trkpt lat="43.21532" lon="5.48347">
        <ele>285.4</ele>
        <time>2025-10-18T10:49:32Z</time>
      </trkpt>
      <trkpt lat="43.21532" lon="5.48347">
        <ele>285.4</ele>
        <time>2025-10-18T10:49:33Z</time>
      </trkpt>
      <trkpt lat="43.21532" lon="5.48347">
        <ele>285.4</ele>
        <time>2025-10-18T10:49:34Z</time>
      </trkpt>
      <trkpt lat="43.21532" lon="5.48347">
        <ele>285.5</ele>
        <time>2025-10-18T10:49:35Z</time>
      </trkpt>
      <trkpt lat="43.21533" lon="5.48347">
        <ele>285.5</ele>
        <time>2025-10-18T10:49:36Z</time>
      </trkpt>
      <trkpt lat="43.21533" lon="5.48347">
        <ele>285.5</ele>
        <time>2025-10-18T10:49:37Z</time>
      </trkpt>
      <trkpt lat="43.21533" lon="5.48346">
        <ele>285.4</ele>
        <time>2025-10-18T10:49:38Z</time>
      </trkpt>
      <trkpt lat="43.21533" lon="5.48346">
        <ele>285.4</ele>
        <time>2025-10-18T10:49:39Z</time>
      </trkpt>
      <trkpt lat="43.21533" lon="5.48346">
        <ele>285.4</ele>
        <time>2025-10-18T10:49:40Z</time>
      </trkpt>
      <trkpt lat="43.21533" lon="5.48346">
        <ele>285.4</ele>
        <time>2025-10-18T10:49:41Z</time>
      </trkpt>
      <trkpt lat="43.21533" lon="5.48346">
        <ele>285.5</ele>
        <time>2025-10-18T10:49:42Z</time>
      </trkpt>
      <trkpt lat="43.21533" lon="5.48346">
        <ele>285.5</ele>
        <time>2025-10-18T10:49:43Z</time>
      </trkpt>
      <trkpt lat="43.21533" lon="5.48346">
        <ele>285.5</ele>
        <time>2025-10-18T10:49:44Z</time>
      </trkpt>
      <trkpt lat="43.21533" lon="5.48346">
        <ele>285.4</ele>
        <time>2025-10-18T10:49:45Z</time>
      </trkpt>
      <trkpt lat="43.21533" lon="5.48346">
        <ele>285.5</ele>
        <time>2025-10-18T10:49:46Z</time>
      </trkpt>
      <trkpt lat="43.21533" lon="5.48346">
        <ele>285.4</ele>
        <time>2025-10-18T10:49:47Z</time>
      </trkpt>
      <trkpt lat="43.21533" lon="5.48346">
        <ele>285.4</ele>
        <time>2025-10-18T10:49:48Z</time>
      </trkpt>
      <trkpt lat="43.21533" lon="5.48346">
        <ele>285.4</ele>
        <time>2025-10-18T10:49:49Z</time>
      </trkpt>
      <trkpt lat="43.21533" lon="5.48346">
        <ele>285.4</ele>
        <time>2025-10-18T10:49:50Z</time>
      </trkpt>
      <trkpt lat="43.21533" lon="5.48346">
        <ele>285.4</ele>
        <time>2025-10-18T10:49:51Z</time>
      </trkpt>
      <trkpt lat="43.21533" lon="5.48346">
        <ele>285.4</ele>
        <time>2025-10-18T10:49:52Z</time>
      </trkpt>
      <trkpt lat="43.21533" lon="5.48346">
        <ele>285.3</ele>
        <time>2025-10-18T10:49:53Z</time>
      </trkpt>
      <trkpt lat="43.21533" lon="5.48345">
        <ele>285.3</ele>
        <time>2025-10-18T10:49:54Z</time>
      </trkpt>
      <trkpt lat="43.21533" lon="5.48345">
        <ele>285.4</ele>
        <time>2025-10-18T10:49:55Z</time>
      </trkpt>
      <trkpt lat="43.21533" lon="5.48345">
        <ele>285.4</ele>
        <time>2025-10-18T10:49:56Z</time>
      </trkpt>
      <trkpt lat="43.21533" lon="5.48345">
        <ele>285.4</ele>
        <time>2025-10-18T10:49:57Z</time>
      </trkpt>
      <trkpt lat="43.21533" lon="5.48345">
        <ele>285.4</ele>
        <time>2025-10-18T10:49:58Z</time>
      </trkpt>
      <trkpt lat="43.21533" lon="5.48345">
        <ele>285.4</ele>
        <time>2025-10-18T10:49:59Z</time>
      </trkpt>
      <trkpt lat="43.21533" lon="5.48345">
        <ele>285.4</ele>
        <time>2025-10-18T10:50:00Z</time>
      </trkpt>
      <trkpt lat="43.21533" lon="5.48345">
        <ele>285.4</ele>
        <time>2025-10-18T10:50:01Z</time>
      </trkpt>
      <trkpt lat="43.21533" lon="5.48345">
        <ele>285.4</ele>
        <time>2025-10-18T10:50:02Z</time>
      </trkpt>
      <trkpt lat="43.21533" lon="5.48345">
        <ele>285.5</ele>
        <time>2025-10-18T10:50:03Z</time>
      </trkpt>
      <trkpt lat="43.21533" lon="5.48345">
        <ele>285.6</ele>
        <time>2025-10-18T10:50:04Z</time>
      </trkpt>
      <trkpt lat="43.21533" lon="5.48344">
        <ele>285.6</ele>
        <time>2025-10-18T10:50:05Z</time>
      </trkpt>
      <trkpt lat="43.21533" lon="5.48344">
        <ele>285.6</ele>
        <time>2025-10-18T10:50:06Z</time>
      </trkpt>
      <trkpt lat="43.21534" lon="5.48344">
        <ele>285.6</ele>
        <time>2025-10-18T10:50:07Z</time>
      </trkpt>
      <trkpt lat="43.21534" lon="5.48344">
        <ele>285.6</ele>
        <time>2025-10-18T10:50:08Z</time>
      </trkpt>
      <trkpt lat="43.21534" lon="5.48344">
        <ele>285.5</ele>
        <time>2025-10-18T10:50:09Z</time>
      </trkpt>
      <trkpt lat="43.21534" lon="5.48344">
        <ele>285.5</ele>
        <time>2025-10-18T10:50:10Z</time>
      </trkpt>
      <trkpt lat="43.21534" lon="5.48344">
        <ele>285.4</ele>
        <time>2025-10-18T10:50:11Z</time>
      </trkpt>
      <trkpt lat="43.21534" lon="5.48344">
        <ele>285.4</ele>
        <time>2025-10-18T10:50:12Z</time>
      </trkpt>
      <trkpt lat="43.21534" lon="5.48344">
        <ele>285.5</ele>
        <time>2025-10-18T10:50:13Z</time>
      </trkpt>
      <trkpt lat="43.21534" lon="5.48344">
        <ele>285.6</ele>
        <time>2025-10-18T10:50:14Z</time>
      </trkpt>
      <trkpt lat="43.21534" lon="5.48343">
        <ele>285.5</ele>
        <time>2025-10-18T10:50:15Z</time>
      </trkpt>
      <trkpt lat="43.21534" lon="5.48343">
        <ele>285.6</ele>
        <time>2025-10-18T10:50:16Z</time>
      </trkpt>
      <trkpt lat="43.21534" lon="5.48343">
        <ele>285.6</ele>
        <time>2025-10-18T10:50:17Z</time>
      </trkpt>
      <trkpt lat="43.21534" lon="5.48343">
        <ele>285.5</ele>
        <time>2025-10-18T10:50:18Z</time>
      </trkpt>
      <trkpt lat="43.21534" lon="5.48343">
        <ele>285.5</ele>
        <time>2025-10-18T10:50:19Z</time>
      </trkpt>
      <trkpt lat="43.21534" lon="5.48343">
        <ele>285.5</ele>
        <time>2025-10-18T10:50:20Z</time>
      </trkpt>
      <trkpt lat="43.21534" lon="5.48343">
        <ele>285.5</ele>
        <time>2025-10-18T10:50:21Z</time>
      </trkpt>
      <trkpt lat="43.21534" lon="5.48343">
        <ele>285.5</ele>
        <time>2025-10-18T10:50:22Z</time>
      </trkpt>
      <trkpt lat="43.21534" lon="5.48343">
        <ele>285.4</ele>
        <time>2025-10-18T10:50:23Z</time>
      </trkpt>
      <trkpt lat="43.21534" lon="5.48343">
        <ele>285.3</ele>
        <time>2025-10-18T10:50:24Z</time>
      </trkpt>
      <trkpt lat="43.21534" lon="5.48343">
        <ele>285.4</ele>
        <time>2025-10-18T10:50:25Z</time>
      </trkpt>
      <trkpt lat="43.21534" lon="5.48343">
        <ele>285.4</ele>
        <time>2025-10-18T10:50:26Z</time>
      </trkpt>
      <trkpt lat="43.21534" lon="5.48343">
        <ele>285.3</ele>
        <time>2025-10-18T10:50:27Z</time>
      </trkpt>
      <trkpt lat="43.21533" lon="5.48343">
        <ele>285.3</ele>
        <time>2025-10-18T10:50:28Z</time>
      </trkpt>
      <trkpt lat="43.21533" lon="5.48343">
        <ele>285.3</ele>
        <time>2025-10-18T10:50:29Z</time>
      </trkpt>
      <trkpt lat="43.21533" lon="5.48343">
        <ele>285.3</ele>
        <time>2025-10-18T10:50:30Z</time>
      </trkpt>
      <trkpt lat="43.21533" lon="5.48343">
        <ele>285.2</ele>
        <time>2025-10-18T10:50:31Z</time>
      </trkpt>
      <trkpt lat="43.21533" lon="5.48343">
        <ele>285.2</ele>
        <time>2025-10-18T10:50:32Z</time>
      </trkpt>
      <trkpt lat="43.21533" lon="5.48343">
        <ele>285.2</ele>
        <time>2025-10-18T10:50:33Z</time>
      </trkpt>
      <trkpt lat="43.21533" lon="5.48343">
        <ele>285.2</ele>
        <time>2025-10-18T10:50:34Z</time>
      </trkpt>
      <trkpt lat="43.21533" lon="5.48343">
        <ele>285.1</ele>
        <time>2025-10-18T10:50:35Z</time>
      </trkpt>
      <trkpt lat="43.21533" lon="5.48343">
        <ele>285</ele>
        <time>2025-10-18T10:50:36Z</time>
      </trkpt>
      <trkpt lat="43.21533" lon="5.48343">
        <ele>285</ele>
        <time>2025-10-18T10:50:37Z</time>
      </trkpt>
      <trkpt lat="43.21534" lon="5.48343">
        <ele>285</ele>
        <time>2025-10-18T10:50:38Z</time>
      </trkpt>
      <trkpt lat="43.21533" lon="5.48343">
        <ele>285</ele>
        <time>2025-10-18T10:50:39Z</time>
      </trkpt>
      <trkpt lat="43.21534" lon="5.48343">
        <ele>285</ele>
        <time>2025-10-18T10:50:40Z</time>
      </trkpt>
      <trkpt lat="43.21534" lon="5.48343">
        <ele>285</ele>
        <time>2025-10-18T10:50:41Z</time>
      </trkpt>
      <trkpt lat="43.21534" lon="5.48343">
        <ele>285.1</ele>
        <time>2025-10-18T10:50:42Z</time>
      </trkpt>
      <trkpt lat="43.21534" lon="5.48343">
        <ele>285.1</ele>
        <time>2025-10-18T10:50:43Z</time>
      </trkpt>
      <trkpt lat="43.21534" lon="5.48343">
        <ele>285.2</ele>
        <time>2025-10-18T10:50:44Z</time>
      </trkpt>
      <trkpt lat="43.21534" lon="5.48343">
        <ele>285.2</ele>
        <time>2025-10-18T10:50:45Z</time>
      </trkpt>
      <trkpt lat="43.21534" lon="5.48343">
        <ele>285.3</ele>
        <time>2025-10-18T10:50:46Z</time>
      </trkpt>
      <trkpt lat="43.21534" lon="5.48343">
        <ele>285.3</ele>
        <time>2025-10-18T10:50:47Z</time>
      </trkpt>
      <trkpt lat="43.21534" lon="5.48343">
        <ele>285.2</ele>
        <time>2025-10-18T10:50:48Z</time>
      </trkpt>
      <trkpt lat="43.21533" lon="5.48343">
        <ele>285.3</ele>
        <time>2025-10-18T10:50:49Z</time>
      </trkpt>
      <trkpt lat="43.21533" lon="5.48343">
        <ele>285.5</ele>
        <time>2025-10-18T10:50:50Z</time>
      </trkpt>
      <trkpt lat="43.21534" lon="5.48343">
        <ele>285.5</ele>
        <time>2025-10-18T10:50:51Z</time>
      </trkpt>
      <trkpt lat="43.21534" lon="5.48343">
        <ele>285.5</ele>
        <time>2025-10-18T10:50:52Z</time>
      </trkpt>
      <trkpt lat="43.21534" lon="5.48343">
        <ele>285.5</ele>
        <time>2025-10-18T10:50:53Z</time>
      </trkpt>
      <trkpt lat="43.21534" lon="5.48343">
        <ele>285.5</ele>
        <time>2025-10-18T10:50:54Z</time>
      </trkpt>
      <trkpt lat="43.21534" lon="5.48343">
        <ele>285.4</ele>
        <time>2025-10-18T10:50:55Z</time>
      </trkpt>
      <trkpt lat="43.21534" lon="5.48343">
        <ele>285.3</ele>
        <time>2025-10-18T10:50:56Z</time>
      </trkpt>
      <trkpt lat="43.21534" lon="5.48343">
        <ele>285.3</ele>
        <time>2025-10-18T10:50:57Z</time>
      </trkpt>
      <trkpt lat="43.21534" lon="5.48343">
        <ele>285.2</ele>
        <time>2025-10-18T10:50:58Z</time>
      </trkpt>
      <trkpt lat="43.21534" lon="5.48343">
        <ele>285.2</ele>
        <time>2025-10-18T10:50:59Z</time>
      </trkpt>
      <trkpt lat="43.21534" lon="5.48343">
        <ele>285.2</ele>
        <time>2025-10-18T10:51:00Z</time>
      </trkpt>
      <trkpt lat="43.21534" lon="5.48343">
        <ele>285.1</ele>
        <time>2025-10-18T10:51:01Z</time>
      </trkpt>
      <trkpt lat="43.21534" lon="5.48343">
        <ele>285.1</ele>
        <time>2025-10-18T10:51:02Z</time>
      </trkpt>
      <trkpt lat="43.21534" lon="5.48343">
        <ele>285.1</ele>
        <time>2025-10-18T10:51:03Z</time>
      </trkpt>
      <trkpt lat="43.21534" lon="5.48343">
        <ele>285.2</ele>
        <time>2025-10-18T10:51:04Z</time>
      </trkpt>
      <trkpt lat="43.21534" lon="5.48343">
        <ele>285.2</ele>
        <time>2025-10-18T10:51:05Z</time>
      </trkpt>
      <trkpt lat="43.21534" lon="5.48343">
        <ele>285.2</ele>
        <time>2025-10-18T10:51:06Z</time>
      </trkpt>
      <trkpt lat="43.21534" lon="5.48343">
        <ele>285.2</ele>
        <time>2025-10-18T10:51:07Z</time>
      </trkpt>
      <trkpt lat="43.21534" lon="5.48343">
        <ele>285.2</ele>
        <time>2025-10-18T10:51:08Z</time>
      </trkpt>
      <trkpt lat="43.21534" lon="5.48343">
        <ele>285.3</ele>
        <time>2025-10-18T10:51:09Z</time>
      </trkpt>
      <trkpt lat="43.21534" lon="5.48343">
        <ele>285.3</ele>
        <time>2025-10-18T10:51:10Z</time>
      </trkpt>
      <trkpt lat="43.21534" lon="5.48343">
        <ele>285.4</ele>
        <time>2025-10-18T10:51:11Z</time>
      </trkpt>
      <trkpt lat="43.21534" lon="5.48343">
        <ele>285.3</ele>
        <time>2025-10-18T10:51:12Z</time>
      </trkpt>
      <trkpt lat="43.21534" lon="5.48343">
        <ele>285.3</ele>
        <time>2025-10-18T10:51:13Z</time>
      </trkpt>
      <trkpt lat="43.21534" lon="5.48343">
        <ele>285.3</ele>
        <time>2025-10-18T10:51:14Z</time>
      </trkpt>
      <trkpt lat="43.21534" lon="5.48343">
        <ele>285.3</ele>
        <time>2025-10-18T10:51:15Z</time>
      </trkpt>
      <trkpt lat="43.21534" lon="5.48343">
        <ele>285.4</ele>
        <time>2025-10-18T10:51:16Z</time>
      </trkpt>
      <trkpt lat="43.21534" lon="5.48342">
        <ele>285.5</ele>
        <time>2025-10-18T10:51:17Z</time>
      </trkpt>
      <trkpt lat="43.21534" lon="5.48342">
        <ele>285.5</ele>
        <time>2025-10-18T10:51:18Z</time>
      </trkpt>
      <trkpt lat="43.21534" lon="5.48342">
        <ele>285.5</ele>
        <time>2025-10-18T10:51:19Z</time>
      </trkpt>
      <trkpt lat="43.21534" lon="5.48342">
        <ele>285.5</ele>
        <time>2025-10-18T10:51:20Z</time>
      </trkpt>
      <trkpt lat="43.21534" lon="5.48342">
        <ele>285.5</ele>
        <time>2025-10-18T10:51:21Z</time>
      </trkpt>
      <trkpt lat="43.21534" lon="5.48343">
        <ele>285.4</ele>
        <time>2025-10-18T10:51:22Z</time>
      </trkpt>
      <trkpt lat="43.21534" lon="5.48343">
        <ele>285.5</ele>
        <time>2025-10-18T10:51:23Z</time>
      </trkpt>
      <trkpt lat="43.21534" lon="5.48343">
        <ele>285.5</ele>
        <time>2025-10-18T10:51:24Z</time>
      </trkpt>
      <trkpt lat="43.21534" lon="5.48343">
        <ele>285.5</ele>
        <time>2025-10-18T10:51:25Z</time>
      </trkpt>
      <trkpt lat="43.21534" lon="5.48343">
        <ele>285.5</ele>
        <time>2025-10-18T10:51:26Z</time>
      </trkpt>
      <trkpt lat="43.21534" lon="5.48343">
        <ele>285.5</ele>
        <time>2025-10-18T10:51:27Z</time>
      </trkpt>
      <trkpt lat="43.21534" lon="5.48343">
        <ele>285.4</ele>
        <time>2025-10-18T10:51:28Z</time>
      </trkpt>
      <trkpt lat="43.21534" lon="5.48343">
        <ele>285.4</ele>
        <time>2025-10-18T10:51:29Z</time>
      </trkpt>
      <trkpt lat="43.21534" lon="5.48343">
        <ele>285.4</ele>
        <time>2025-10-18T10:51:30Z</time>
      </trkpt>
      <trkpt lat="43.21534" lon="5.48343">
        <ele>285.2</ele>
        <time>2025-10-18T10:51:31Z</time>
      </trkpt>
      <trkpt lat="43.21534" lon="5.48343">
        <ele>285.3</ele>
        <time>2025-10-18T10:51:32Z</time>
      </trkpt>
      <trkpt lat="43.21534" lon="5.48343">
        <ele>285.3</ele>
        <time>2025-10-18T10:51:33Z</time>
      </trkpt>
      <trkpt lat="43.21534" lon="5.48343">
        <ele>285.3</ele>
        <time>2025-10-18T10:51:34Z</time>
      </trkpt>
      <trkpt lat="43.21534" lon="5.48343">
        <ele>285.3</ele>
        <time>2025-10-18T10:51:35Z</time>
      </trkpt>
      <trkpt lat="43.21534" lon="5.48343">
        <ele>285.4</ele>
        <time>2025-10-18T10:51:36Z</time>
      </trkpt>
      <trkpt lat="43.21534" lon="5.48342">
        <ele>285.4</ele>
        <time>2025-10-18T10:51:37Z</time>
      </trkpt>
      <trkpt lat="43.21533" lon="5.48342">
        <ele>285.4</ele>
        <time>2025-10-18T10:51:38Z</time>
      </trkpt>
      <trkpt lat="43.21533" lon="5.48342">
        <ele>285.3</ele>
        <time>2025-10-18T10:51:39Z</time>
      </trkpt>
      <trkpt lat="43.21533" lon="5.48342">
        <ele>285.2</ele>
        <time>2025-10-18T10:51:40Z</time>
      </trkpt>
      <trkpt lat="43.21533" lon="5.48342">
        <ele>285.2</ele>
        <time>2025-10-18T10:51:41Z</time>
      </trkpt>
      <trkpt lat="43.21533" lon="5.48342">
        <ele>285.3</ele>
        <time>2025-10-18T10:51:42Z</time>
      </trkpt>
      <trkpt lat="43.21533" lon="5.48342">
        <ele>285.4</ele>
        <time>2025-10-18T10:51:43Z</time>
      </trkpt>
      <trkpt lat="43.21533" lon="5.48342">
        <ele>285.4</ele>
        <time>2025-10-18T10:51:44Z</time>
      </trkpt>
      <trkpt lat="43.21533" lon="5.48342">
        <ele>285.4</ele>
        <time>2025-10-18T10:51:45Z</time>
      </trkpt>
      <trkpt lat="43.21533" lon="5.48342">
        <ele>285.5</ele>
        <time>2025-10-18T10:51:46Z</time>
      </trkpt>
      <trkpt lat="43.21533" lon="5.48342">
        <ele>285.5</ele>
        <time>2025-10-18T10:51:47Z</time>
      </trkpt>
      <trkpt lat="43.21533" lon="5.48342">
        <ele>285.5</ele>
        <time>2025-10-18T10:51:48Z</time>
      </trkpt>
      <trkpt lat="43.21533" lon="5.48342">
        <ele>285.5</ele>
        <time>2025-10-18T10:51:49Z</time>
      </trkpt>
      <trkpt lat="43.21533" lon="5.48342">
        <ele>285.5</ele>
        <time>2025-10-18T10:51:50Z</time>
      </trkpt>
      <trkpt lat="43.21533" lon="5.48342">
        <ele>285.5</ele>
        <time>2025-10-18T10:51:51Z</time>
      </trkpt>
      <trkpt lat="43.21533" lon="5.48342">
        <ele>285.5</ele>
        <time>2025-10-18T10:51:52Z</time>
      </trkpt>
      <trkpt lat="43.21533" lon="5.48342">
        <ele>285.5</ele>
        <time>2025-10-18T10:51:53Z</time>
      </trkpt>
      <trkpt lat="43.21533" lon="5.48342">
        <ele>285.5</ele>
        <time>2025-10-18T10:51:54Z</time>
      </trkpt>
      <trkpt lat="43.21533" lon="5.48342">
        <ele>285.5</ele>
        <time>2025-10-18T10:51:55Z</time>
      </trkpt>
      <trkpt lat="43.21533" lon="5.48342">
        <ele>285.5</ele>
        <time>2025-10-18T10:51:56Z</time>
      </trkpt>
      <trkpt lat="43.21533" lon="5.48342">
        <ele>285.5</ele>
        <time>2025-10-18T10:51:57Z</time>
      </trkpt>
      <trkpt lat="43.21533" lon="5.48342">
        <ele>285.5</ele>
        <time>2025-10-18T10:51:58Z</time>
      </trkpt>
      <trkpt lat="43.21533" lon="5.48342">
        <ele>285.5</ele>
        <time>2025-10-18T10:51:59Z</time>
      </trkpt>
      <trkpt lat="43.21533" lon="5.48342">
        <ele>285.5</ele>
        <time>2025-10-18T10:52:00Z</time>
      </trkpt>
      <trkpt lat="43.21533" lon="5.48342">
        <ele>285.5</ele>
        <time>2025-10-18T10:52:01Z</time>
      </trkpt>
      <trkpt lat="43.21533" lon="5.48342">
        <ele>285.5</ele>
        <time>2025-10-18T10:52:02Z</time>
      </trkpt>
      <trkpt lat="43.21533" lon="5.48342">
        <ele>285.5</ele>
        <time>2025-10-18T10:52:03Z</time>
      </trkpt>
      <trkpt lat="43.21533" lon="5.48342">
        <ele>285.5</ele>
        <time>2025-10-18T10:52:04Z</time>
      </trkpt>
      <trkpt lat="43.21533" lon="5.48342">
        <ele>285.6</ele>
        <time>2025-10-18T10:52:05Z</time>
      </trkpt>
      <trkpt lat="43.21533" lon="5.48342">
        <ele>285.6</ele>
        <time>2025-10-18T10:52:06Z</time>
      </trkpt>
      <trkpt lat="43.21533" lon="5.48342">
        <ele>285.5</ele>
        <time>2025-10-18T10:52:07Z</time>
      </trkpt>
      <trkpt lat="43.21533" lon="5.48342">
        <ele>285.5</ele>
        <time>2025-10-18T10:52:08Z</time>
      </trkpt>
      <trkpt lat="43.21534" lon="5.48343">
        <ele>285.5</ele>
        <time>2025-10-18T10:52:09Z</time>
      </trkpt>
      <trkpt lat="43.21534" lon="5.48343">
        <ele>285.5</ele>
        <time>2025-10-18T10:52:10Z</time>
      </trkpt>
      <trkpt lat="43.21534" lon="5.48343">
        <ele>285.6</ele>
        <time>2025-10-18T10:52:11Z</time>
      </trkpt>
      <trkpt lat="43.21534" lon="5.48343">
        <ele>285.6</ele>
        <time>2025-10-18T10:52:12Z</time>
      </trkpt>
      <trkpt lat="43.21535" lon="5.48343">
        <ele>285.6</ele>
        <time>2025-10-18T10:52:13Z</time>
      </trkpt>
      <trkpt lat="43.21535" lon="5.48343">
        <ele>285.6</ele>
        <time>2025-10-18T10:52:14Z</time>
      </trkpt>
      <trkpt lat="43.21535" lon="5.48344">
        <ele>285.7</ele>
        <time>2025-10-18T10:52:15Z</time>
      </trkpt>
      <trkpt lat="43.21535" lon="5.48344">
        <ele>285.7</ele>
        <time>2025-10-18T10:52:16Z</time>
      </trkpt>
      <trkpt lat="43.21535" lon="5.48344">
        <ele>285.6</ele>
        <time>2025-10-18T10:52:17Z</time>
      </trkpt>
      <trkpt lat="43.21535" lon="5.48344">
        <ele>285.6</ele>
        <time>2025-10-18T10:52:18Z</time>
      </trkpt>
      <trkpt lat="43.21535" lon="5.48344">
        <ele>285.6</ele>
        <time>2025-10-18T10:52:19Z</time>
      </trkpt>
      <trkpt lat="43.21535" lon="5.48344">
        <ele>285.6</ele>
        <time>2025-10-18T10:52:20Z</time>
      </trkpt>
      <trkpt lat="43.21535" lon="5.48344">
        <ele>285.7</ele>
        <time>2025-10-18T10:52:21Z</time>
      </trkpt>
      <trkpt lat="43.21536" lon="5.48344">
        <ele>285.7</ele>
        <time>2025-10-18T10:52:22Z</time>
      </trkpt>
      <trkpt lat="43.21536" lon="5.48344">
        <ele>285.7</ele>
        <time>2025-10-18T10:52:23Z</time>
      </trkpt>
      <trkpt lat="43.21536" lon="5.48344">
        <ele>285.6</ele>
        <time>2025-10-18T10:52:24Z</time>
      </trkpt>
      <trkpt lat="43.21536" lon="5.48345">
        <ele>285.6</ele>
        <time>2025-10-18T10:52:25Z</time>
      </trkpt>
      <trkpt lat="43.21536" lon="5.48345">
        <ele>285.5</ele>
        <time>2025-10-18T10:52:26Z</time>
      </trkpt>
      <trkpt lat="43.21536" lon="5.48345">
        <ele>285.5</ele>
        <time>2025-10-18T10:52:27Z</time>
      </trkpt>
      <trkpt lat="43.21536" lon="5.48345">
        <ele>285.5</ele>
        <time>2025-10-18T10:52:28Z</time>
      </trkpt>
      <trkpt lat="43.21536" lon="5.48345">
        <ele>285.5</ele>
        <time>2025-10-18T10:52:29Z</time>
      </trkpt>
      <trkpt lat="43.21536" lon="5.48345">
        <ele>285.5</ele>
        <time>2025-10-18T10:52:30Z</time>
      </trkpt>
      <trkpt lat="43.21536" lon="5.48345">
        <ele>285.6</ele>
        <time>2025-10-18T10:52:31Z</time>
      </trkpt>
      <trkpt lat="43.21536" lon="5.48345">
        <ele>285.6</ele>
        <time>2025-10-18T10:52:32Z</time>
      </trkpt>
      <trkpt lat="43.21536" lon="5.48345">
        <ele>285.6</ele>
        <time>2025-10-18T10:52:33Z</time>
      </trkpt>
      <trkpt lat="43.21537" lon="5.48345">
        <ele>285.6</ele>
        <time>2025-10-18T10:52:34Z</time>
      </trkpt>
      <trkpt lat="43.21537" lon="5.48345">
        <ele>285.6</ele>
        <time>2025-10-18T10:52:35Z</time>
      </trkpt>
      <trkpt lat="43.21537" lon="5.48345">
        <ele>285.6</ele>
        <time>2025-10-18T10:52:36Z</time>
      </trkpt>
      <trkpt lat="43.21537" lon="5.48345">
        <ele>285.6</ele>
        <time>2025-10-18T10:52:37Z</time>
      </trkpt>
      <trkpt lat="43.21537" lon="5.48345">
        <ele>285.6</ele>
        <time>2025-10-18T10:52:38Z</time>
      </trkpt>
      <trkpt lat="43.21537" lon="5.48345">
        <ele>285.7</ele>
        <time>2025-10-18T10:52:39Z</time>
      </trkpt>
      <trkpt lat="43.21537" lon="5.48345">
        <ele>285.7</ele>
        <time>2025-10-18T10:52:40Z</time>
      </trkpt>
      <trkpt lat="43.21537" lon="5.48345">
        <ele>285.7</ele>
        <time>2025-10-18T10:52:41Z</time>
      </trkpt>
      <trkpt lat="43.21537" lon="5.48345">
        <ele>285.7</ele>
        <time>2025-10-18T10:52:42Z</time>
      </trkpt>
      <trkpt lat="43.21537" lon="5.48345">
        <ele>285.8</ele>
        <time>2025-10-18T10:52:43Z</time>
      </trkpt>
      <trkpt lat="43.21537" lon="5.48346">
        <ele>285.8</ele>
        <time>2025-10-18T10:52:44Z</time>
      </trkpt>
      <trkpt lat="43.21537" lon="5.48346">
        <ele>285.8</ele>
        <time>2025-10-18T10:52:45Z</time>
      </trkpt>
      <trkpt lat="43.21537" lon="5.48346">
        <ele>285.8</ele>
        <time>2025-10-18T10:52:46Z</time>
      </trkpt>
      <trkpt lat="43.21537" lon="5.48346">
        <ele>285.8</ele>
        <time>2025-10-18T10:52:47Z</time>
      </trkpt>
      <trkpt lat="43.21537" lon="5.48346">
        <ele>285.8</ele>
        <time>2025-10-18T10:52:48Z</time>
      </trkpt>
      <trkpt lat="43.21537" lon="5.48346">
        <ele>285.7</ele>
        <time>2025-10-18T10:52:49Z</time>
      </trkpt>
      <trkpt lat="43.21536" lon="5.48346">
        <ele>285.7</ele>
        <time>2025-10-18T10:52:50Z</time>
      </trkpt>
      <trkpt lat="43.21536" lon="5.48347">
        <ele>285.7</ele>
        <time>2025-10-18T10:52:51Z</time>
      </trkpt>
      <trkpt lat="43.21536" lon="5.48347">
        <ele>285.6</ele>
        <time>2025-10-18T10:52:52Z</time>
      </trkpt>
      <trkpt lat="43.21536" lon="5.48347">
        <ele>285.6</ele>
        <time>2025-10-18T10:52:53Z</time>
      </trkpt>
      <trkpt lat="43.21536" lon="5.48347">
        <ele>285.5</ele>
        <time>2025-10-18T10:52:54Z</time>
      </trkpt>
      <trkpt lat="43.21536" lon="5.48347">
        <ele>285.5</ele>
        <time>2025-10-18T10:52:55Z</time>
      </trkpt>
      <trkpt lat="43.21536" lon="5.48347">
        <ele>285.5</ele>
        <time>2025-10-18T10:52:56Z</time>
      </trkpt>
      <trkpt lat="43.21536" lon="5.48347">
        <ele>285.6</ele>
        <time>2025-10-18T10:52:57Z</time>
      </trkpt>
      <trkpt lat="43.21536" lon="5.48347">
        <ele>285.6</ele>
        <time>2025-10-18T10:52:58Z</time>
      </trkpt>
      <trkpt lat="43.21536" lon="5.48347">
        <ele>285.6</ele>
        <time>2025-10-18T10:52:59Z</time>
      </trkpt>
      <trkpt lat="43.21536" lon="5.48347">
        <ele>285.5</ele>
        <time>2025-10-18T10:53:00Z</time>
      </trkpt>
      <trkpt lat="43.21536" lon="5.48347">
        <ele>285.5</ele>
        <time>2025-10-18T10:53:01Z</time>
      </trkpt>
      <trkpt lat="43.21536" lon="5.48347">
        <ele>285.5</ele>
        <time>2025-10-18T10:53:02Z</time>
      </trkpt>
      <trkpt lat="43.21536" lon="5.48347">
        <ele>285.5</ele>
        <time>2025-10-18T10:53:03Z</time>
      </trkpt>
      <trkpt lat="43.21536" lon="5.48347">
        <ele>285.5</ele>
        <time>2025-10-18T10:53:04Z</time>
      </trkpt>
      <trkpt lat="43.21536" lon="5.48347">
        <ele>285.5</ele>
        <time>2025-10-18T10:53:05Z</time>
      </trkpt>
      <trkpt lat="43.21536" lon="5.48347">
        <ele>285.5</ele>
        <time>2025-10-18T10:53:06Z</time>
      </trkpt>
      <trkpt lat="43.21536" lon="5.48348">
        <ele>285.5</ele>
        <time>2025-10-18T10:53:07Z</time>
      </trkpt>
      <trkpt lat="43.21535" lon="5.48348">
        <ele>285.4</ele>
        <time>2025-10-18T10:53:08Z</time>
      </trkpt>
      <trkpt lat="43.21535" lon="5.48348">
        <ele>285.4</ele>
        <time>2025-10-18T10:53:09Z</time>
      </trkpt>
      <trkpt lat="43.21535" lon="5.48348">
        <ele>285.4</ele>
        <time>2025-10-18T10:53:10Z</time>
      </trkpt>
      <trkpt lat="43.21535" lon="5.48348">
        <ele>285.4</ele>
        <time>2025-10-18T10:53:11Z</time>
      </trkpt>
      <trkpt lat="43.21535" lon="5.48348">
        <ele>285.4</ele>
        <time>2025-10-18T10:53:12Z</time>
      </trkpt>
      <trkpt lat="43.21535" lon="5.48348">
        <ele>285.4</ele>
        <time>2025-10-18T10:53:13Z</time>
      </trkpt>
      <trkpt lat="43.21535" lon="5.48348">
        <ele>285.4</ele>
        <time>2025-10-18T10:53:14Z</time>
      </trkpt>
      <trkpt lat="43.21535" lon="5.48348">
        <ele>285.4</ele>
        <time>2025-10-18T10:53:15Z</time>
      </trkpt>
      <trkpt lat="43.21535" lon="5.48348">
        <ele>285.4</ele>
        <time>2025-10-18T10:53:16Z</time>
      </trkpt>
      <trkpt lat="43.21535" lon="5.48347">
        <ele>285.5</ele>
        <time>2025-10-18T10:53:17Z</time>
      </trkpt>
      <trkpt lat="43.21535" lon="5.48347">
        <ele>285.5</ele>
        <time>2025-10-18T10:53:18Z</time>
      </trkpt>
      <trkpt lat="43.21535" lon="5.48347">
        <ele>285.5</ele>
        <time>2025-10-18T10:53:19Z</time>
      </trkpt>
      <trkpt lat="43.21535" lon="5.48347">
        <ele>285.5</ele>
        <time>2025-10-18T10:53:20Z</time>
      </trkpt>
      <trkpt lat="43.21535" lon="5.48346">
        <ele>285.5</ele>
        <time>2025-10-18T10:53:21Z</time>
      </trkpt>
      <trkpt lat="43.21535" lon="5.48347">
        <ele>285.5</ele>
        <time>2025-10-18T10:53:22Z</time>
      </trkpt>
      <trkpt lat="43.21535" lon="5.48346">
        <ele>285.4</ele>
        <time>2025-10-18T10:53:23Z</time>
      </trkpt>
      <trkpt lat="43.21535" lon="5.48347">
        <ele>285.4</ele>
        <time>2025-10-18T10:53:24Z</time>
      </trkpt>
      <trkpt lat="43.21535" lon="5.48347">
        <ele>285.5</ele>
        <time>2025-10-18T10:53:25Z</time>
      </trkpt>
      <trkpt lat="43.21535" lon="5.48348">
        <ele>285.5</ele>
        <time>2025-10-18T10:53:26Z</time>
      </trkpt>
      <trkpt lat="43.21534" lon="5.48349">
        <ele>285.6</ele>
        <time>2025-10-18T10:53:27Z</time>
      </trkpt>
      <trkpt lat="43.21534" lon="5.48349">
        <ele>285.6</ele>
        <time>2025-10-18T10:53:28Z</time>
      </trkpt>
      <trkpt lat="43.21534" lon="5.48349">
        <ele>285.6</ele>
        <time>2025-10-18T10:53:29Z</time>
      </trkpt>
      <trkpt lat="43.21534" lon="5.48349">
        <ele>285.6</ele>
        <time>2025-10-18T10:53:30Z</time>
      </trkpt>
      <trkpt lat="43.21534" lon="5.48349">
        <ele>285.6</ele>
        <time>2025-10-18T10:53:31Z</time>
      </trkpt>
      <trkpt lat="43.21534" lon="5.48349">
        <ele>285.6</ele>
        <time>2025-10-18T10:53:32Z</time>
      </trkpt>
      <trkpt lat="43.21534" lon="5.48348">
        <ele>285.6</ele>
        <time>2025-10-18T10:53:33Z</time>
      </trkpt>
      <trkpt lat="43.21534" lon="5.48348">
        <ele>285.6</ele>
        <time>2025-10-18T10:53:34Z</time>
      </trkpt>
      <trkpt lat="43.21534" lon="5.48348">
        <ele>285.6</ele>
        <time>2025-10-18T10:53:35Z</time>
      </trkpt>
      <trkpt lat="43.21534" lon="5.48348">
        <ele>285.7</ele>
        <time>2025-10-18T10:53:36Z</time>
      </trkpt>
      <trkpt lat="43.21534" lon="5.48348">
        <ele>285.6</ele>
        <time>2025-10-18T10:53:37Z</time>
      </trkpt>
      <trkpt lat="43.21534" lon="5.48348">
        <ele>285.6</ele>
        <time>2025-10-18T10:53:38Z</time>
      </trkpt>
      <trkpt lat="43.21534" lon="5.48348">
        <ele>285.6</ele>
        <time>2025-10-18T10:53:39Z</time>
      </trkpt>
      <trkpt lat="43.21534" lon="5.48348">
        <ele>285.6</ele>
        <time>2025-10-18T10:53:40Z</time>
      </trkpt>
      <trkpt lat="43.21534" lon="5.48348">
        <ele>285.6</ele>
        <time>2025-10-18T10:53:41Z</time>
      </trkpt>
      <trkpt lat="43.21534" lon="5.48348">
        <ele>285.6</ele>
        <time>2025-10-18T10:53:42Z</time>
      </trkpt>
      <trkpt lat="43.21534" lon="5.48348">
        <ele>285.6</ele>
        <time>2025-10-18T10:53:43Z</time>
      </trkpt>
      <trkpt lat="43.21534" lon="5.48348">
        <ele>285.6</ele>
        <time>2025-10-18T10:53:44Z</time>
      </trkpt>
      <trkpt lat="43.21534" lon="5.48349">
        <ele>285.6</ele>
        <time>2025-10-18T10:53:45Z</time>
      </trkpt>
      <trkpt lat="43.21534" lon="5.48349">
        <ele>285.5</ele>
        <time>2025-10-18T10:53:46Z</time>
      </trkpt>
      <trkpt lat="43.21534" lon="5.48349">
        <ele>285.6</ele>
        <time>2025-10-18T10:53:47Z</time>
      </trkpt>
      <trkpt lat="43.21534" lon="5.48349">
        <ele>285.8</ele>
        <time>2025-10-18T10:53:48Z</time>
      </trkpt>
      <trkpt lat="43.21534" lon="5.48349">
        <ele>285.9</ele>
        <time>2025-10-18T10:53:49Z</time>
      </trkpt>
      <trkpt lat="43.21534" lon="5.48349">
        <ele>285.9</ele>
        <time>2025-10-18T10:53:50Z</time>
      </trkpt>
      <trkpt lat="43.21534" lon="5.48349">
        <ele>285.9</ele>
        <time>2025-10-18T10:53:51Z</time>
      </trkpt>
      <trkpt lat="43.21534" lon="5.48349">
        <ele>285.9</ele>
        <time>2025-10-18T10:53:52Z</time>
      </trkpt>
      <trkpt lat="43.21534" lon="5.48349">
        <ele>285.8</ele>
        <time>2025-10-18T10:53:53Z</time>
      </trkpt>
      <trkpt lat="43.21534" lon="5.48349">
        <ele>285.8</ele>
        <time>2025-10-18T10:53:54Z</time>
      </trkpt>
      <trkpt lat="43.21534" lon="5.48349">
        <ele>285.8</ele>
        <time>2025-10-18T10:53:55Z</time>
      </trkpt>
      <trkpt lat="43.21534" lon="5.48349">
        <ele>285.7</ele>
        <time>2025-10-18T10:53:56Z</time>
      </trkpt>
      <trkpt lat="43.21534" lon="5.48349">
        <ele>285.7</ele>
        <time>2025-10-18T10:53:57Z</time>
      </trkpt>
      <trkpt lat="43.21534" lon="5.48349">
        <ele>285.7</ele>
        <time>2025-10-18T10:53:58Z</time>
      </trkpt>
      <trkpt lat="43.21534" lon="5.48349">
        <ele>285.7</ele>
        <time>2025-10-18T10:53:59Z</time>
      </trkpt>
      <trkpt lat="43.21534" lon="5.48349">
        <ele>285.8</ele>
        <time>2025-10-18T10:54:00Z</time>
      </trkpt>
      <trkpt lat="43.21534" lon="5.4835">
        <ele>285.8</ele>
        <time>2025-10-18T10:54:01Z</time>
      </trkpt>
      <trkpt lat="43.21534" lon="5.4835">
        <ele>285.8</ele>
        <time>2025-10-18T10:54:02Z</time>
      </trkpt>
      <trkpt lat="43.21534" lon="5.4835">
        <ele>285.7</ele>
        <time>2025-10-18T10:54:03Z</time>
      </trkpt>
      <trkpt lat="43.21534" lon="5.4835">
        <ele>285.7</ele>
        <time>2025-10-18T10:54:04Z</time>
      </trkpt>
      <trkpt lat="43.21534" lon="5.48351">
        <ele>285.7</ele>
        <time>2025-10-18T10:54:05Z</time>
      </trkpt>
      <trkpt lat="43.21534" lon="5.4835">
        <ele>285.6</ele>
        <time>2025-10-18T10:54:06Z</time>
      </trkpt>
      <trkpt lat="43.21534" lon="5.4835">
        <ele>285.6</ele>
        <time>2025-10-18T10:54:07Z</time>
      </trkpt>
      <trkpt lat="43.21534" lon="5.4835">
        <ele>285.6</ele>
        <time>2025-10-18T10:54:08Z</time>
      </trkpt>
      <trkpt lat="43.21534" lon="5.4835">
        <ele>285.6</ele>
        <time>2025-10-18T10:54:09Z</time>
      </trkpt>
      <trkpt lat="43.21535" lon="5.4835">
        <ele>285.7</ele>
        <time>2025-10-18T10:54:10Z</time>
      </trkpt>
      <trkpt lat="43.21535" lon="5.4835">
        <ele>285.6</ele>
        <time>2025-10-18T10:54:11Z</time>
      </trkpt>
      <trkpt lat="43.21535" lon="5.4835">
        <ele>285.6</ele>
        <time>2025-10-18T10:54:12Z</time>
      </trkpt>
      <trkpt lat="43.21535" lon="5.4835">
        <ele>285.6</ele>
        <time>2025-10-18T10:54:13Z</time>
      </trkpt>
      <trkpt lat="43.21535" lon="5.4835">
        <ele>285.6</ele>
        <time>2025-10-18T10:54:14Z</time>
      </trkpt>
      <trkpt lat="43.21535" lon="5.4835">
        <ele>285.6</ele>
        <time>2025-10-18T10:54:15Z</time>
      </trkpt>
      <trkpt lat="43.21535" lon="5.4835">
        <ele>285.7</ele>
        <time>2025-10-18T10:54:16Z</time>
      </trkpt>
      <trkpt lat="43.21535" lon="5.48349">
        <ele>285.7</ele>
        <time>2025-10-18T10:54:17Z</time>
      </trkpt>
      <trkpt lat="43.21536" lon="5.48349">
        <ele>285.7</ele>
        <time>2025-10-18T10:54:18Z</time>
      </trkpt>
      <trkpt lat="43.21535" lon="5.48348">
        <ele>285.7</ele>
        <time>2025-10-18T10:54:19Z</time>
      </trkpt>
      <trkpt lat="43.21536" lon="5.48348">
        <ele>285.7</ele>
        <time>2025-10-18T10:54:20Z</time>
      </trkpt>
      <trkpt lat="43.21535" lon="5.48347">
        <ele>285.7</ele>
        <time>2025-10-18T10:54:21Z</time>
      </trkpt>
      <trkpt lat="43.21535" lon="5.48347">
        <ele>285.6</ele>
        <time>2025-10-18T10:54:22Z</time>
      </trkpt>
      <trkpt lat="43.21535" lon="5.48347">
        <ele>285.5</ele>
        <time>2025-10-18T10:54:23Z</time>
      </trkpt>
      <trkpt lat="43.21535" lon="5.48347">
        <ele>285.5</ele>
        <time>2025-10-18T10:54:24Z</time>
      </trkpt>
      <trkpt lat="43.21535" lon="5.48347">
        <ele>285.5</ele>
        <time>2025-10-18T10:54:25Z</time>
      </trkpt>
      <trkpt lat="43.21535" lon="5.48347">
        <ele>285.4</ele>
        <time>2025-10-18T10:54:26Z</time>
      </trkpt>
      <trkpt lat="43.21536" lon="5.48347">
        <ele>285.4</ele>
        <time>2025-10-18T10:54:27Z</time>
      </trkpt>
      <trkpt lat="43.21536" lon="5.48347">
        <ele>285.4</ele>
        <time>2025-10-18T10:54:28Z</time>
      </trkpt>
      <trkpt lat="43.21536" lon="5.48347">
        <ele>285.4</ele>
        <time>2025-10-18T10:54:29Z</time>
      </trkpt>
      <trkpt lat="43.21536" lon="5.48347">
        <ele>285.4</ele>
        <time>2025-10-18T10:54:30Z</time>
      </trkpt>
      <trkpt lat="43.21536" lon="5.48346">
        <ele>285.4</ele>
        <time>2025-10-18T10:54:31Z</time>
      </trkpt>
      <trkpt lat="43.21536" lon="5.48346">
        <ele>285.4</ele>
        <time>2025-10-18T10:54:32Z</time>
      </trkpt>
      <trkpt lat="43.21536" lon="5.48346">
        <ele>285.4</ele>
        <time>2025-10-18T10:54:33Z</time>
      </trkpt>
      <trkpt lat="43.21536" lon="5.48346">
        <ele>285.4</ele>
        <time>2025-10-18T10:54:34Z</time>
      </trkpt>
      <trkpt lat="43.21536" lon="5.48346">
        <ele>285.5</ele>
        <time>2025-10-18T10:54:35Z</time>
      </trkpt>
      <trkpt lat="43.21536" lon="5.48346">
        <ele>285.5</ele>
        <time>2025-10-18T10:54:36Z</time>
      </trkpt>
      <trkpt lat="43.21536" lon="5.48346">
        <ele>285.5</ele>
        <time>2025-10-18T10:54:37Z</time>
      </trkpt>
      <trkpt lat="43.21536" lon="5.48346">
        <ele>285.5</ele>
        <time>2025-10-18T10:54:38Z</time>
      </trkpt>
      <trkpt lat="43.21536" lon="5.48346">
        <ele>285.5</ele>
        <time>2025-10-18T10:54:39Z</time>
      </trkpt>
      <trkpt lat="43.21536" lon="5.48346">
        <ele>285.4</ele>
        <time>2025-10-18T10:54:40Z</time>
      </trkpt>
      <trkpt lat="43.21536" lon="5.48345">
        <ele>285.4</ele>
        <time>2025-10-18T10:54:41Z</time>
      </trkpt>
      <trkpt lat="43.21536" lon="5.48345">
        <ele>285.4</ele>
        <time>2025-10-18T10:54:42Z</time>
      </trkpt>
      <trkpt lat="43.21536" lon="5.48345">
        <ele>285.4</ele>
        <time>2025-10-18T10:54:43Z</time>
      </trkpt>
      <trkpt lat="43.21536" lon="5.48345">
        <ele>285.4</ele>
        <time>2025-10-18T10:54:44Z</time>
      </trkpt>
      <trkpt lat="43.21535" lon="5.48345">
        <ele>285.4</ele>
        <time>2025-10-18T10:54:45Z</time>
      </trkpt>
      <trkpt lat="43.21535" lon="5.48345">
        <ele>285.5</ele>
        <time>2025-10-18T10:54:46Z</time>
      </trkpt>
      <trkpt lat="43.21535" lon="5.48344">
        <ele>285.5</ele>
        <time>2025-10-18T10:54:47Z</time>
      </trkpt>
      <trkpt lat="43.21535" lon="5.48344">
        <ele>285.5</ele>
        <time>2025-10-18T10:54:48Z</time>
      </trkpt>
      <trkpt lat="43.21535" lon="5.48344">
        <ele>285.5</ele>
        <time>2025-10-18T10:54:49Z</time>
      </trkpt>
      <trkpt lat="43.21535" lon="5.48344">
        <ele>285.5</ele>
        <time>2025-10-18T10:54:50Z</time>
      </trkpt>
      <trkpt lat="43.21535" lon="5.48344">
        <ele>285.6</ele>
        <time>2025-10-18T10:54:51Z</time>
      </trkpt>
      <trkpt lat="43.21535" lon="5.48344">
        <ele>285.5</ele>
        <time>2025-10-18T10:54:52Z</time>
      </trkpt>
      <trkpt lat="43.21535" lon="5.48344">
        <ele>285.5</ele>
        <time>2025-10-18T10:54:53Z</time>
      </trkpt>
      <trkpt lat="43.21535" lon="5.48344">
        <ele>285.5</ele>
        <time>2025-10-18T10:54:54Z</time>
      </trkpt>
      <trkpt lat="43.21535" lon="5.48343">
        <ele>285.4</ele>
        <time>2025-10-18T10:54:55Z</time>
      </trkpt>
      <trkpt lat="43.21535" lon="5.48343">
        <ele>285.4</ele>
        <time>2025-10-18T10:54:56Z</time>
      </trkpt>
      <trkpt lat="43.21535" lon="5.48343">
        <ele>285.4</ele>
        <time>2025-10-18T10:54:57Z</time>
      </trkpt>
      <trkpt lat="43.21535" lon="5.48343">
        <ele>285.4</ele>
        <time>2025-10-18T10:54:58Z</time>
      </trkpt>
      <trkpt lat="43.21535" lon="5.48343">
        <ele>285.4</ele>
        <time>2025-10-18T10:54:59Z</time>
      </trkpt>
      <trkpt lat="43.21535" lon="5.48343">
        <ele>285.5</ele>
        <time>2025-10-18T10:55:00Z</time>
      </trkpt>
      <trkpt lat="43.21535" lon="5.48343">
        <ele>285.6</ele>
        <time>2025-10-18T10:55:01Z</time>
      </trkpt>
      <trkpt lat="43.21535" lon="5.48343">
        <ele>285.6</ele>
        <time>2025-10-18T10:55:02Z</time>
      </trkpt>
      <trkpt lat="43.21535" lon="5.48343">
        <ele>285.7</ele>
        <time>2025-10-18T10:55:03Z</time>
      </trkpt>
      <trkpt lat="43.21535" lon="5.48342">
        <ele>285.7</ele>
        <time>2025-10-18T10:55:04Z</time>
      </trkpt>
      <trkpt lat="43.21535" lon="5.48342">
        <ele>285.7</ele>
        <time>2025-10-18T10:55:05Z</time>
      </trkpt>
      <trkpt lat="43.21536" lon="5.48342">
        <ele>285.7</ele>
        <time>2025-10-18T10:55:06Z</time>
      </trkpt>
      <trkpt lat="43.21536" lon="5.48342">
        <ele>285.8</ele>
        <time>2025-10-18T10:55:07Z</time>
      </trkpt>
      <trkpt lat="43.21536" lon="5.48342">
        <ele>285.7</ele>
        <time>2025-10-18T10:55:08Z</time>
      </trkpt>
      <trkpt lat="43.21536" lon="5.48342">
        <ele>285.7</ele>
        <time>2025-10-18T10:55:09Z</time>
      </trkpt>
      <trkpt lat="43.21536" lon="5.48342">
        <ele>285.7</ele>
        <time>2025-10-18T10:55:10Z</time>
      </trkpt>
      <trkpt lat="43.21536" lon="5.48342">
        <ele>285.6</ele>
        <time>2025-10-18T10:55:11Z</time>
      </trkpt>
      <trkpt lat="43.21536" lon="5.48342">
        <ele>285.6</ele>
        <time>2025-10-18T10:55:12Z</time>
      </trkpt>
      <trkpt lat="43.21536" lon="5.48342">
        <ele>285.6</ele>
        <time>2025-10-18T10:55:13Z</time>
      </trkpt>
      <trkpt lat="43.21536" lon="5.48342">
        <ele>285.6</ele>
        <time>2025-10-18T10:55:14Z</time>
      </trkpt>
      <trkpt lat="43.21536" lon="5.48342">
        <ele>285.6</ele>
        <time>2025-10-18T10:55:15Z</time>
      </trkpt>
      <trkpt lat="43.21536" lon="5.48342">
        <ele>285.6</ele>
        <time>2025-10-18T10:55:16Z</time>
      </trkpt>
      <trkpt lat="43.21536" lon="5.48342">
        <ele>285.5</ele>
        <time>2025-10-18T10:55:17Z</time>
      </trkpt>
      <trkpt lat="43.21536" lon="5.48342">
        <ele>285.6</ele>
        <time>2025-10-18T10:55:18Z</time>
      </trkpt>
      <trkpt lat="43.21536" lon="5.48342">
        <ele>285.6</ele>
        <time>2025-10-18T10:55:19Z</time>
      </trkpt>
      <trkpt lat="43.21536" lon="5.48342">
        <ele>285.5</ele>
        <time>2025-10-18T10:55:20Z</time>
      </trkpt>
      <trkpt lat="43.21536" lon="5.48342">
        <ele>285.4</ele>
        <time>2025-10-18T10:55:21Z</time>
      </trkpt>
      <trkpt lat="43.21536" lon="5.48342">
        <ele>285.4</ele>
        <time>2025-10-18T10:55:22Z</time>
      </trkpt>
      <trkpt lat="43.21536" lon="5.48342">
        <ele>285.5</ele>
        <time>2025-10-18T10:55:23Z</time>
      </trkpt>
      <trkpt lat="43.21536" lon="5.48342">
        <ele>285.5</ele>
        <time>2025-10-18T10:55:24Z</time>
      </trkpt>
      <trkpt lat="43.21536" lon="5.48342">
        <ele>285.5</ele>
        <time>2025-10-18T10:55:25Z</time>
      </trkpt>
      <trkpt lat="43.21536" lon="5.48342">
        <ele>285.5</ele>
        <time>2025-10-18T10:55:26Z</time>
      </trkpt>
      <trkpt lat="43.21536" lon="5.48342">
        <ele>285.5</ele>
        <time>2025-10-18T10:55:27Z</time>
      </trkpt>
      <trkpt lat="43.21536" lon="5.48342">
        <ele>285.6</ele>
        <time>2025-10-18T10:55:28Z</time>
      </trkpt>
      <trkpt lat="43.21536" lon="5.48342">
        <ele>285.6</ele>
        <time>2025-10-18T10:55:29Z</time>
      </trkpt>
      <trkpt lat="43.21536" lon="5.48342">
        <ele>285.6</ele>
        <time>2025-10-18T10:55:30Z</time>
      </trkpt>
      <trkpt lat="43.21536" lon="5.48342">
        <ele>285.5</ele>
        <time>2025-10-18T10:55:31Z</time>
      </trkpt>
      <trkpt lat="43.21536" lon="5.48342">
        <ele>285.6</ele>
        <time>2025-10-18T10:55:32Z</time>
      </trkpt>
      <trkpt lat="43.21536" lon="5.48342">
        <ele>285.7</ele>
        <time>2025-10-18T10:55:33Z</time>
      </trkpt>
      <trkpt lat="43.21537" lon="5.48342">
        <ele>285.7</ele>
        <time>2025-10-18T10:55:34Z</time>
      </trkpt>
      <trkpt lat="43.21537" lon="5.48342">
        <ele>285.7</ele>
        <time>2025-10-18T10:55:35Z</time>
      </trkpt>
      <trkpt lat="43.21537" lon="5.48342">
        <ele>285.6</ele>
        <time>2025-10-18T10:55:36Z</time>
      </trkpt>
      <trkpt lat="43.21537" lon="5.48342">
        <ele>285.6</ele>
        <time>2025-10-18T10:55:37Z</time>
      </trkpt>
      <trkpt lat="43.21537" lon="5.48342">
        <ele>285.6</ele>
        <time>2025-10-18T10:55:38Z</time>
      </trkpt>
      <trkpt lat="43.21537" lon="5.48342">
        <ele>285.5</ele>
        <time>2025-10-18T10:55:39Z</time>
      </trkpt>
      <trkpt lat="43.21537" lon="5.48342">
        <ele>285.5</ele>
        <time>2025-10-18T10:55:40Z</time>
      </trkpt>
      <trkpt lat="43.21537" lon="5.48342">
        <ele>285.4</ele>
        <time>2025-10-18T10:55:41Z</time>
      </trkpt>
      <trkpt lat="43.21537" lon="5.48342">
        <ele>285.4</ele>
        <time>2025-10-18T10:55:42Z</time>
      </trkpt>
      <trkpt lat="43.21537" lon="5.48342">
        <ele>285.4</ele>
        <time>2025-10-18T10:55:43Z</time>
      </trkpt>
      <trkpt lat="43.21537" lon="5.48342">
        <ele>285.5</ele>
        <time>2025-10-18T10:55:44Z</time>
      </trkpt>
      <trkpt lat="43.21537" lon="5.48342">
        <ele>285.5</ele>
        <time>2025-10-18T10:55:45Z</time>
      </trkpt>
      <trkpt lat="43.21537" lon="5.48342">
        <ele>285.4</ele>
        <time>2025-10-18T10:55:46Z</time>
      </trkpt>
      <trkpt lat="43.21537" lon="5.48342">
        <ele>285.4</ele>
        <time>2025-10-18T10:55:47Z</time>
      </trkpt>
      <trkpt lat="43.21537" lon="5.48342">
        <ele>285.4</ele>
        <time>2025-10-18T10:55:48Z</time>
      </trkpt>
      <trkpt lat="43.21537" lon="5.48342">
        <ele>285.4</ele>
        <time>2025-10-18T10:55:49Z</time>
      </trkpt>
      <trkpt lat="43.21537" lon="5.48342">
        <ele>285.5</ele>
        <time>2025-10-18T10:55:50Z</time>
      </trkpt>
      <trkpt lat="43.21537" lon="5.48342">
        <ele>285.5</ele>
        <time>2025-10-18T10:55:51Z</time>
      </trkpt>
      <trkpt lat="43.21537" lon="5.48342">
        <ele>285.5</ele>
        <time>2025-10-18T10:55:52Z</time>
      </trkpt>
      <trkpt lat="43.21537" lon="5.48342">
        <ele>285.4</ele>
        <time>2025-10-18T10:55:53Z</time>
      </trkpt>
      <trkpt lat="43.21537" lon="5.48342">
        <ele>285.4</ele>
        <time>2025-10-18T10:55:54Z</time>
      </trkpt>
      <trkpt lat="43.21537" lon="5.48342">
        <ele>285.4</ele>
        <time>2025-10-18T10:55:55Z</time>
      </trkpt>
      <trkpt lat="43.21537" lon="5.48342">
        <ele>285.5</ele>
        <time>2025-10-18T10:55:56Z</time>
      </trkpt>
      <trkpt lat="43.21537" lon="5.48342">
        <ele>285.5</ele>
        <time>2025-10-18T10:55:57Z</time>
      </trkpt>
      <trkpt lat="43.21537" lon="5.48342">
        <ele>285.5</ele>
        <time>2025-10-18T10:55:58Z</time>
      </trkpt>
      <trkpt lat="43.21537" lon="5.48342">
        <ele>285.5</ele>
        <time>2025-10-18T10:55:59Z</time>
      </trkpt>
      <trkpt lat="43.21538" lon="5.48342">
        <ele>285.4</ele>
        <time>2025-10-18T10:56:00Z</time>
      </trkpt>
      <trkpt lat="43.21538" lon="5.48342">
        <ele>285.4</ele>
        <time>2025-10-18T10:56:01Z</time>
      </trkpt>
      <trkpt lat="43.21537" lon="5.48342">
        <ele>285.3</ele>
        <time>2025-10-18T10:56:02Z</time>
      </trkpt>
      <trkpt lat="43.21537" lon="5.48342">
        <ele>285.2</ele>
        <time>2025-10-18T10:56:03Z</time>
      </trkpt>
      <trkpt lat="43.21537" lon="5.48342">
        <ele>285.2</ele>
        <time>2025-10-18T10:56:04Z</time>
      </trkpt>
      <trkpt lat="43.21537" lon="5.48342">
        <ele>285.2</ele>
        <time>2025-10-18T10:56:05Z</time>
      </trkpt>
      <trkpt lat="43.21537" lon="5.48342">
        <ele>285.2</ele>
        <time>2025-10-18T10:56:06Z</time>
      </trkpt>
      <trkpt lat="43.21538" lon="5.48342">
        <ele>285.2</ele>
        <time>2025-10-18T10:56:07Z</time>
      </trkpt>
      <trkpt lat="43.21538" lon="5.48342">
        <ele>285.2</ele>
        <time>2025-10-18T10:56:08Z</time>
      </trkpt>
      <trkpt lat="43.21537" lon="5.48342">
        <ele>285.2</ele>
        <time>2025-10-18T10:56:09Z</time>
      </trkpt>
      <trkpt lat="43.21537" lon="5.48342">
        <ele>285.2</ele>
        <time>2025-10-18T10:56:10Z</time>
      </trkpt>
      <trkpt lat="43.21537" lon="5.48342">
        <ele>285.2</ele>
        <time>2025-10-18T10:56:11Z</time>
      </trkpt>
      <trkpt lat="43.21537" lon="5.48342">
        <ele>285.2</ele>
        <time>2025-10-18T10:56:12Z</time>
      </trkpt>
      <trkpt lat="43.21537" lon="5.48342">
        <ele>285.2</ele>
        <time>2025-10-18T10:56:13Z</time>
      </trkpt>
      <trkpt lat="43.21537" lon="5.48342">
        <ele>285.2</ele>
        <time>2025-10-18T10:56:14Z</time>
      </trkpt>
      <trkpt lat="43.21537" lon="5.48342">
        <ele>285.2</ele>
        <time>2025-10-18T10:56:15Z</time>
      </trkpt>
      <trkpt lat="43.21537" lon="5.48342">
        <ele>285.3</ele>
        <time>2025-10-18T10:56:16Z</time>
      </trkpt>
      <trkpt lat="43.21537" lon="5.48342">
        <ele>285.3</ele>
        <time>2025-10-18T10:56:17Z</time>
      </trkpt>
      <trkpt lat="43.21537" lon="5.48342">
        <ele>285.3</ele>
        <time>2025-10-18T10:56:18Z</time>
      </trkpt>
      <trkpt lat="43.21537" lon="5.48342">
        <ele>285.3</ele>
        <time>2025-10-18T10:56:19Z</time>
      </trkpt>
      <trkpt lat="43.21537" lon="5.48341">
        <ele>285.3</ele>
        <time>2025-10-18T10:56:20Z</time>
      </trkpt>
      <trkpt lat="43.21537" lon="5.48341">
        <ele>285.3</ele>
        <time>2025-10-18T10:56:21Z</time>
      </trkpt>
      <trkpt lat="43.21537" lon="5.48341">
        <ele>285.3</ele>
        <time>2025-10-18T10:56:22Z</time>
      </trkpt>
      <trkpt lat="43.21537" lon="5.48341">
        <ele>285.2</ele>
        <time>2025-10-18T10:56:23Z</time>
      </trkpt>
      <trkpt lat="43.21537" lon="5.48341">
        <ele>285.1</ele>
        <time>2025-10-18T10:56:24Z</time>
      </trkpt>
      <trkpt lat="43.21537" lon="5.48341">
        <ele>285.1</ele>
        <time>2025-10-18T10:56:25Z</time>
      </trkpt>
      <trkpt lat="43.21537" lon="5.48341">
        <ele>285.1</ele>
        <time>2025-10-18T10:56:26Z</time>
      </trkpt>
      <trkpt lat="43.21537" lon="5.48341">
        <ele>285.2</ele>
        <time>2025-10-18T10:56:27Z</time>
      </trkpt>
      <trkpt lat="43.21537" lon="5.48341">
        <ele>285.2</ele>
        <time>2025-10-18T10:56:28Z</time>
      </trkpt>
      <trkpt lat="43.21537" lon="5.48341">
        <ele>285.2</ele>
        <time>2025-10-18T10:56:29Z</time>
      </trkpt>
      <trkpt lat="43.21537" lon="5.48341">
        <ele>285.2</ele>
        <time>2025-10-18T10:56:30Z</time>
      </trkpt>
      <trkpt lat="43.21536" lon="5.4834">
        <ele>285.2</ele>
        <time>2025-10-18T10:56:31Z</time>
      </trkpt>
      <trkpt lat="43.21536" lon="5.4834">
        <ele>285.3</ele>
        <time>2025-10-18T10:56:32Z</time>
      </trkpt>
      <trkpt lat="43.21536" lon="5.4834">
        <ele>285.4</ele>
        <time>2025-10-18T10:56:33Z</time>
      </trkpt>
      <trkpt lat="43.21536" lon="5.4834">
        <ele>285.5</ele>
        <time>2025-10-18T10:56:34Z</time>
      </trkpt>
      <trkpt lat="43.21536" lon="5.4834">
        <ele>285.6</ele>
        <time>2025-10-18T10:56:35Z</time>
      </trkpt>
      <trkpt lat="43.21536" lon="5.4834">
        <ele>285.6</ele>
        <time>2025-10-18T10:56:36Z</time>
      </trkpt>
      <trkpt lat="43.21536" lon="5.4834">
        <ele>285.6</ele>
        <time>2025-10-18T10:56:37Z</time>
      </trkpt>
      <trkpt lat="43.21536" lon="5.4834">
        <ele>285.6</ele>
        <time>2025-10-18T10:56:38Z</time>
      </trkpt>
      <trkpt lat="43.21536" lon="5.4834">
        <ele>285.6</ele>
        <time>2025-10-18T10:56:39Z</time>
      </trkpt>
      <trkpt lat="43.21536" lon="5.4834">
        <ele>285.6</ele>
        <time>2025-10-18T10:56:40Z</time>
      </trkpt>
      <trkpt lat="43.21536" lon="5.4834">
        <ele>285.6</ele>
        <time>2025-10-18T10:56:41Z</time>
      </trkpt>
      <trkpt lat="43.21536" lon="5.4834">
        <ele>285.6</ele>
        <time>2025-10-18T10:56:42Z</time>
      </trkpt>
      <trkpt lat="43.21536" lon="5.4834">
        <ele>285.6</ele>
        <time>2025-10-18T10:56:43Z</time>
      </trkpt>
      <trkpt lat="43.21536" lon="5.4834">
        <ele>285.6</ele>
        <time>2025-10-18T10:56:44Z</time>
      </trkpt>
      <trkpt lat="43.21536" lon="5.4834">
        <ele>285.6</ele>
        <time>2025-10-18T10:56:45Z</time>
      </trkpt>
      <trkpt lat="43.21536" lon="5.4834">
        <ele>285.6</ele>
        <time>2025-10-18T10:56:46Z</time>
      </trkpt>
      <trkpt lat="43.21536" lon="5.4834">
        <ele>285.5</ele>
        <time>2025-10-18T10:56:47Z</time>
      </trkpt>
      <trkpt lat="43.21536" lon="5.4834">
        <ele>285.5</ele>
        <time>2025-10-18T10:56:48Z</time>
      </trkpt>
      <trkpt lat="43.21536" lon="5.4834">
        <ele>285.5</ele>
        <time>2025-10-18T10:56:49Z</time>
      </trkpt>
      <trkpt lat="43.21535" lon="5.4834">
        <ele>285.6</ele>
        <time>2025-10-18T10:56:50Z</time>
      </trkpt>
      <trkpt lat="43.21535" lon="5.48339">
        <ele>285.7</ele>
        <time>2025-10-18T10:56:51Z</time>
      </trkpt>
      <trkpt lat="43.21535" lon="5.48339">
        <ele>285.6</ele>
        <time>2025-10-18T10:56:52Z</time>
      </trkpt>
      <trkpt lat="43.21535" lon="5.48339">
        <ele>285.6</ele>
        <time>2025-10-18T10:56:53Z</time>
      </trkpt>
      <trkpt lat="43.21535" lon="5.48339">
        <ele>285.7</ele>
        <time>2025-10-18T10:56:54Z</time>
      </trkpt>
      <trkpt lat="43.21535" lon="5.48339">
        <ele>285.7</ele>
        <time>2025-10-18T10:56:55Z</time>
      </trkpt>
      <trkpt lat="43.21535" lon="5.48339">
        <ele>285.7</ele>
        <time>2025-10-18T10:56:56Z</time>
      </trkpt>
      <trkpt lat="43.21535" lon="5.48339">
        <ele>285.6</ele>
        <time>2025-10-18T10:56:57Z</time>
      </trkpt>
      <trkpt lat="43.21535" lon="5.48339">
        <ele>285.6</ele>
        <time>2025-10-18T10:56:58Z</time>
      </trkpt>
      <trkpt lat="43.21535" lon="5.48339">
        <ele>285.6</ele>
        <time>2025-10-18T10:56:59Z</time>
      </trkpt>
      <trkpt lat="43.21535" lon="5.48339">
        <ele>285.6</ele>
        <time>2025-10-18T10:57:00Z</time>
      </trkpt>
      <trkpt lat="43.21535" lon="5.48339">
        <ele>285.5</ele>
        <time>2025-10-18T10:57:01Z</time>
      </trkpt>
      <trkpt lat="43.21535" lon="5.48339">
        <ele>285.5</ele>
        <time>2025-10-18T10:57:02Z</time>
      </trkpt>
      <trkpt lat="43.21535" lon="5.48339">
        <ele>285.5</ele>
        <time>2025-10-18T10:57:03Z</time>
      </trkpt>
      <trkpt lat="43.21535" lon="5.48339">
        <ele>285.5</ele>
        <time>2025-10-18T10:57:04Z</time>
      </trkpt>
      <trkpt lat="43.21535" lon="5.48339">
        <ele>285.5</ele>
        <time>2025-10-18T10:57:05Z</time>
      </trkpt>
      <trkpt lat="43.21535" lon="5.48338">
        <ele>285.5</ele>
        <time>2025-10-18T10:57:06Z</time>
      </trkpt>
      <trkpt lat="43.21535" lon="5.48338">
        <ele>285.5</ele>
        <time>2025-10-18T10:57:07Z</time>
      </trkpt>
      <trkpt lat="43.21535" lon="5.48338">
        <ele>285.5</ele>
        <time>2025-10-18T10:57:08Z</time>
      </trkpt>
      <trkpt lat="43.21535" lon="5.48338">
        <ele>285.6</ele>
        <time>2025-10-18T10:57:09Z</time>
      </trkpt>
      <trkpt lat="43.21535" lon="5.48338">
        <ele>285.6</ele>
        <time>2025-10-18T10:57:10Z</time>
      </trkpt>
      <trkpt lat="43.21535" lon="5.48338">
        <ele>285.6</ele>
        <time>2025-10-18T10:57:11Z</time>
      </trkpt>
      <trkpt lat="43.21535" lon="5.48338">
        <ele>285.6</ele>
        <time>2025-10-18T10:57:12Z</time>
      </trkpt>
      <trkpt lat="43.21535" lon="5.48338">
        <ele>285.6</ele>
        <time>2025-10-18T10:57:13Z</time>
      </trkpt>
      <trkpt lat="43.21535" lon="5.48338">
        <ele>285.6</ele>
        <time>2025-10-18T10:57:14Z</time>
      </trkpt>
      <trkpt lat="43.21535" lon="5.48338">
        <ele>285.6</ele>
        <time>2025-10-18T10:57:15Z</time>
      </trkpt>
      <trkpt lat="43.21535" lon="5.48338">
        <ele>285.6</ele>
        <time>2025-10-18T10:57:16Z</time>
      </trkpt>
      <trkpt lat="43.21535" lon="5.48338">
        <ele>285.6</ele>
        <time>2025-10-18T10:57:17Z</time>
      </trkpt>
      <trkpt lat="43.21535" lon="5.48338">
        <ele>285.5</ele>
        <time>2025-10-18T10:57:18Z</time>
      </trkpt>
      <trkpt lat="43.21535" lon="5.48338">
        <ele>285.5</ele>
        <time>2025-10-18T10:57:19Z</time>
      </trkpt>
      <trkpt lat="43.21535" lon="5.48338">
        <ele>285.5</ele>
        <time>2025-10-18T10:57:20Z</time>
      </trkpt>
      <trkpt lat="43.21535" lon="5.48338">
        <ele>285.4</ele>
        <time>2025-10-18T10:57:21Z</time>
      </trkpt>
      <trkpt lat="43.21535" lon="5.48338">
        <ele>285.4</ele>
        <time>2025-10-18T10:57:22Z</time>
      </trkpt>
      <trkpt lat="43.21535" lon="5.48338">
        <ele>285.3</ele>
        <time>2025-10-18T10:57:23Z</time>
      </trkpt>
      <trkpt lat="43.21535" lon="5.48338">
        <ele>285.3</ele>
        <time>2025-10-18T10:57:24Z</time>
      </trkpt>
      <trkpt lat="43.21535" lon="5.48338">
        <ele>285.3</ele>
        <time>2025-10-18T10:57:25Z</time>
      </trkpt>
      <trkpt lat="43.21535" lon="5.48338">
        <ele>285.3</ele>
        <time>2025-10-18T10:57:26Z</time>
      </trkpt>
      <trkpt lat="43.21535" lon="5.48338">
        <ele>285.4</ele>
        <time>2025-10-18T10:57:27Z</time>
      </trkpt>
      <trkpt lat="43.21535" lon="5.48338">
        <ele>285.3</ele>
        <time>2025-10-18T10:57:28Z</time>
      </trkpt>
      <trkpt lat="43.21535" lon="5.48338">
        <ele>285.3</ele>
        <time>2025-10-18T10:57:29Z</time>
      </trkpt>
      <trkpt lat="43.21535" lon="5.48338">
        <ele>285.3</ele>
        <time>2025-10-18T10:57:30Z</time>
      </trkpt>
      <trkpt lat="43.21535" lon="5.48338">
        <ele>285.3</ele>
        <time>2025-10-18T10:57:31Z</time>
      </trkpt>
      <trkpt lat="43.21535" lon="5.48338">
        <ele>285.4</ele>
        <time>2025-10-18T10:57:32Z</time>
      </trkpt>
      <trkpt lat="43.21535" lon="5.48338">
        <ele>285.4</ele>
        <time>2025-10-18T10:57:33Z</time>
      </trkpt>
      <trkpt lat="43.21535" lon="5.48338">
        <ele>285.4</ele>
        <time>2025-10-18T10:57:34Z</time>
      </trkpt>
      <trkpt lat="43.21536" lon="5.48338">
        <ele>285.4</ele>
        <time>2025-10-18T10:57:35Z</time>
      </trkpt>
      <trkpt lat="43.21535" lon="5.48338">
        <ele>285.3</ele>
        <time>2025-10-18T10:57:36Z</time>
      </trkpt>
      <trkpt lat="43.21535" lon="5.48338">
        <ele>285.3</ele>
        <time>2025-10-18T10:57:37Z</time>
      </trkpt>
      <trkpt lat="43.21536" lon="5.48338">
        <ele>285.3</ele>
        <time>2025-10-18T10:57:38Z</time>
      </trkpt>
      <trkpt lat="43.21536" lon="5.48338">
        <ele>285.3</ele>
        <time>2025-10-18T10:57:39Z</time>
      </trkpt>
      <trkpt lat="43.21536" lon="5.48338">
        <ele>285.3</ele>
        <time>2025-10-18T10:57:40Z</time>
      </trkpt>
      <trkpt lat="43.21536" lon="5.48338">
        <ele>285.2</ele>
        <time>2025-10-18T10:57:41Z</time>
      </trkpt>
      <trkpt lat="43.21536" lon="5.48338">
        <ele>285.2</ele>
        <time>2025-10-18T10:57:42Z</time>
      </trkpt>
      <trkpt lat="43.21536" lon="5.48338">
        <ele>285.2</ele>
        <time>2025-10-18T10:57:43Z</time>
      </trkpt>
      <trkpt lat="43.21536" lon="5.48339">
        <ele>285.1</ele>
        <time>2025-10-18T10:57:44Z</time>
      </trkpt>
      <trkpt lat="43.21536" lon="5.48339">
        <ele>285.2</ele>
        <time>2025-10-18T10:57:45Z</time>
      </trkpt>
      <trkpt lat="43.21536" lon="5.48339">
        <ele>285.2</ele>
        <time>2025-10-18T10:57:46Z</time>
      </trkpt>
      <trkpt lat="43.21536" lon="5.48339">
        <ele>285.3</ele>
        <time>2025-10-18T10:57:47Z</time>
      </trkpt>
      <trkpt lat="43.21536" lon="5.48339">
        <ele>285.3</ele>
        <time>2025-10-18T10:57:48Z</time>
      </trkpt>
      <trkpt lat="43.21536" lon="5.48339">
        <ele>285.3</ele>
        <time>2025-10-18T10:57:49Z</time>
      </trkpt>
      <trkpt lat="43.21536" lon="5.48339">
        <ele>285.4</ele>
        <time>2025-10-18T10:57:50Z</time>
      </trkpt>
      <trkpt lat="43.21536" lon="5.48339">
        <ele>285.4</ele>
        <time>2025-10-18T10:57:51Z</time>
      </trkpt>
      <trkpt lat="43.21536" lon="5.48339">
        <ele>285.4</ele>
        <time>2025-10-18T10:57:52Z</time>
      </trkpt>
      <trkpt lat="43.21536" lon="5.48339">
        <ele>285.4</ele>
        <time>2025-10-18T10:57:53Z</time>
      </trkpt>
      <trkpt lat="43.21536" lon="5.48339">
        <ele>285.4</ele>
        <time>2025-10-18T10:57:54Z</time>
      </trkpt>
      <trkpt lat="43.21536" lon="5.48339">
        <ele>285.4</ele>
        <time>2025-10-18T10:57:55Z</time>
      </trkpt>
      <trkpt lat="43.21536" lon="5.48339">
        <ele>285.4</ele>
        <time>2025-10-18T10:57:56Z</time>
      </trkpt>
      <trkpt lat="43.21536" lon="5.48339">
        <ele>285.4</ele>
        <time>2025-10-18T10:57:57Z</time>
      </trkpt>
      <trkpt lat="43.21536" lon="5.48339">
        <ele>285.4</ele>
        <time>2025-10-18T10:57:58Z</time>
      </trkpt>
      <trkpt lat="43.21536" lon="5.48339">
        <ele>285.4</ele>
        <time>2025-10-18T10:57:59Z</time>
      </trkpt>
      <trkpt lat="43.21536" lon="5.48339">
        <ele>285.4</ele>
        <time>2025-10-18T10:58:00Z</time>
      </trkpt>
      <trkpt lat="43.21536" lon="5.48339">
        <ele>285.4</ele>
        <time>2025-10-18T10:58:01Z</time>
      </trkpt>
      <trkpt lat="43.21536" lon="5.48339">
        <ele>285.4</ele>
        <time>2025-10-18T10:58:02Z</time>
      </trkpt>
      <trkpt lat="43.21536" lon="5.48339">
        <ele>285.4</ele>
        <time>2025-10-18T10:58:03Z</time>
      </trkpt>
      <trkpt lat="43.21536" lon="5.48339">
        <ele>285.4</ele>
        <time>2025-10-18T10:58:04Z</time>
      </trkpt>
      <trkpt lat="43.21536" lon="5.48339">
        <ele>285.4</ele>
        <time>2025-10-18T10:58:05Z</time>
      </trkpt>
      <trkpt lat="43.21536" lon="5.48339">
        <ele>285.4</ele>
        <time>2025-10-18T10:58:06Z</time>
      </trkpt>
      <trkpt lat="43.21536" lon="5.48339">
        <ele>285.4</ele>
        <time>2025-10-18T10:58:07Z</time>
      </trkpt>
      <trkpt lat="43.21536" lon="5.48339">
        <ele>285.4</ele>
        <time>2025-10-18T10:58:08Z</time>
      </trkpt>
      <trkpt lat="43.21536" lon="5.48339">
        <ele>285.5</ele>
        <time>2025-10-18T10:58:09Z</time>
      </trkpt>
      <trkpt lat="43.21536" lon="5.48339">
        <ele>285.5</ele>
        <time>2025-10-18T10:58:10Z</time>
      </trkpt>
      <trkpt lat="43.21536" lon="5.48339">
        <ele>285.6</ele>
        <time>2025-10-18T10:58:11Z</time>
      </trkpt>
      <trkpt lat="43.21536" lon="5.48339">
        <ele>285.6</ele>
        <time>2025-10-18T10:58:12Z</time>
      </trkpt>
      <trkpt lat="43.21536" lon="5.48339">
        <ele>285.6</ele>
        <time>2025-10-18T10:58:13Z</time>
      </trkpt>
      <trkpt lat="43.21536" lon="5.4834">
        <ele>285.5</ele>
        <time>2025-10-18T10:58:14Z</time>
      </trkpt>
      <trkpt lat="43.21536" lon="5.4834">
        <ele>285.5</ele>
        <time>2025-10-18T10:58:15Z</time>
      </trkpt>
      <trkpt lat="43.21536" lon="5.4834">
        <ele>285.4</ele>
        <time>2025-10-18T10:58:16Z</time>
      </trkpt>
      <trkpt lat="43.21536" lon="5.4834">
        <ele>285.5</ele>
        <time>2025-10-18T10:58:17Z</time>
      </trkpt>
      <trkpt lat="43.21536" lon="5.4834">
        <ele>285.5</ele>
        <time>2025-10-18T10:58:18Z</time>
      </trkpt>
      <trkpt lat="43.21536" lon="5.4834">
        <ele>285.5</ele>
        <time>2025-10-18T10:58:19Z</time>
      </trkpt>
      <trkpt lat="43.21536" lon="5.4834">
        <ele>285.5</ele>
        <time>2025-10-18T10:58:20Z</time>
      </trkpt>
      <trkpt lat="43.21536" lon="5.4834">
        <ele>285.6</ele>
        <time>2025-10-18T10:58:21Z</time>
      </trkpt>
      <trkpt lat="43.21536" lon="5.4834">
        <ele>285.6</ele>
        <time>2025-10-18T10:58:22Z</time>
      </trkpt>
      <trkpt lat="43.21536" lon="5.48339">
        <ele>285.6</ele>
        <time>2025-10-18T10:58:23Z</time>
      </trkpt>
      <trkpt lat="43.21536" lon="5.48339">
        <ele>285.6</ele>
        <time>2025-10-18T10:58:24Z</time>
      </trkpt>
      <trkpt lat="43.21536" lon="5.48339">
        <ele>285.6</ele>
        <time>2025-10-18T10:58:25Z</time>
      </trkpt>
      <trkpt lat="43.21536" lon="5.48339">
        <ele>285.7</ele>
        <time>2025-10-18T10:58:26Z</time>
      </trkpt>
      <trkpt lat="43.21535" lon="5.48339">
        <ele>285.6</ele>
        <time>2025-10-18T10:58:27Z</time>
      </trkpt>
      <trkpt lat="43.21535" lon="5.48339">
        <ele>285.5</ele>
        <time>2025-10-18T10:58:28Z</time>
      </trkpt>
      <trkpt lat="43.21535" lon="5.48339">
        <ele>285.4</ele>
        <time>2025-10-18T10:58:29Z</time>
      </trkpt>
      <trkpt lat="43.21536" lon="5.4834">
        <ele>285.4</ele>
        <time>2025-10-18T10:58:30Z</time>
      </trkpt>
      <trkpt lat="43.21536" lon="5.4834">
        <ele>285.4</ele>
        <time>2025-10-18T10:58:31Z</time>
      </trkpt>
      <trkpt lat="43.21536" lon="5.4834">
        <ele>285.4</ele>
        <time>2025-10-18T10:58:32Z</time>
      </trkpt>
      <trkpt lat="43.21536" lon="5.4834">
        <ele>285.4</ele>
        <time>2025-10-18T10:58:33Z</time>
      </trkpt>
      <trkpt lat="43.21535" lon="5.4834">
        <ele>285.6</ele>
        <time>2025-10-18T10:58:34Z</time>
      </trkpt>
      <trkpt lat="43.21535" lon="5.4834">
        <ele>285.6</ele>
        <time>2025-10-18T10:58:35Z</time>
      </trkpt>
      <trkpt lat="43.21535" lon="5.4834">
        <ele>285.6</ele>
        <time>2025-10-18T10:58:36Z</time>
      </trkpt>
      <trkpt lat="43.21535" lon="5.4834">
        <ele>285.6</ele>
        <time>2025-10-18T10:58:37Z</time>
      </trkpt>
      <trkpt lat="43.21535" lon="5.4834">
        <ele>285.6</ele>
        <time>2025-10-18T10:58:38Z</time>
      </trkpt>
      <trkpt lat="43.21535" lon="5.4834">
        <ele>285.7</ele>
        <time>2025-10-18T10:58:39Z</time>
      </trkpt>
      <trkpt lat="43.21535" lon="5.4834">
        <ele>285.7</ele>
        <time>2025-10-18T10:58:40Z</time>
      </trkpt>
      <trkpt lat="43.21535" lon="5.4834">
        <ele>285.7</ele>
        <time>2025-10-18T10:58:41Z</time>
      </trkpt>
      <trkpt lat="43.21535" lon="5.4834">
        <ele>285.7</ele>
        <time>2025-10-18T10:58:42Z</time>
      </trkpt>
      <trkpt lat="43.21536" lon="5.4834">
        <ele>285.7</ele>
        <time>2025-10-18T10:58:43Z</time>
      </trkpt>
      <trkpt lat="43.21536" lon="5.4834">
        <ele>285.6</ele>
        <time>2025-10-18T10:58:44Z</time>
      </trkpt>
      <trkpt lat="43.21536" lon="5.4834">
        <ele>285.6</ele>
        <time>2025-10-18T10:58:45Z</time>
      </trkpt>
      <trkpt lat="43.21536" lon="5.4834">
        <ele>285.5</ele>
        <time>2025-10-18T10:58:46Z</time>
      </trkpt>
      <trkpt lat="43.21536" lon="5.4834">
        <ele>285.6</ele>
        <time>2025-10-18T10:58:47Z</time>
      </trkpt>
      <trkpt lat="43.21536" lon="5.4834">
        <ele>285.6</ele>
        <time>2025-10-18T10:58:48Z</time>
      </trkpt>
      <trkpt lat="43.21536" lon="5.4834">
        <ele>285.6</ele>
        <time>2025-10-18T10:58:49Z</time>
      </trkpt>
      <trkpt lat="43.21536" lon="5.4834">
        <ele>285.6</ele>
        <time>2025-10-18T10:58:50Z</time>
      </trkpt>
      <trkpt lat="43.21536" lon="5.4834">
        <ele>285.6</ele>
        <time>2025-10-18T10:58:51Z</time>
      </trkpt>
      <trkpt lat="43.21536" lon="5.48341">
        <ele>285.6</ele>
        <time>2025-10-18T10:58:52Z</time>
      </trkpt>
      <trkpt lat="43.21536" lon="5.48341">
        <ele>285.6</ele>
        <time>2025-10-18T10:58:53Z</time>
      </trkpt>
      <trkpt lat="43.21536" lon="5.48341">
        <ele>285.6</ele>
        <time>2025-10-18T10:58:54Z</time>
      </trkpt>
      <trkpt lat="43.21536" lon="5.48341">
        <ele>285.6</ele>
        <time>2025-10-18T10:58:55Z</time>
      </trkpt>
      <trkpt lat="43.21536" lon="5.48341">
        <ele>285.5</ele>
        <time>2025-10-18T10:58:56Z</time>
      </trkpt>
      <trkpt lat="43.21536" lon="5.48341">
        <ele>285.5</ele>
        <time>2025-10-18T10:58:57Z</time>
      </trkpt>
      <trkpt lat="43.21536" lon="5.48341">
        <ele>285.5</ele>
        <time>2025-10-18T10:58:58Z</time>
      </trkpt>
      <trkpt lat="43.21536" lon="5.48341">
        <ele>285.4</ele>
        <time>2025-10-18T10:58:59Z</time>
      </trkpt>
      <trkpt lat="43.21536" lon="5.48341">
        <ele>285.3</ele>
        <time>2025-10-18T10:59:00Z</time>
      </trkpt>
      <trkpt lat="43.21536" lon="5.48341">
        <ele>285.3</ele>
        <time>2025-10-18T10:59:01Z</time>
      </trkpt>
      <trkpt lat="43.21537" lon="5.48342">
        <ele>285.3</ele>
        <time>2025-10-18T10:59:02Z</time>
      </trkpt>
      <trkpt lat="43.21537" lon="5.48342">
        <ele>285.3</ele>
        <time>2025-10-18T10:59:03Z</time>
      </trkpt>
      <trkpt lat="43.21537" lon="5.48342">
        <ele>285.3</ele>
        <time>2025-10-18T10:59:04Z</time>
      </trkpt>
      <trkpt lat="43.21537" lon="5.48342">
        <ele>285.2</ele>
        <time>2025-10-18T10:59:05Z</time>
      </trkpt>
      <trkpt lat="43.21537" lon="5.48342">
        <ele>285.2</ele>
        <time>2025-10-18T10:59:06Z</time>
      </trkpt>
      <trkpt lat="43.21537" lon="5.48342">
        <ele>285.2</ele>
        <time>2025-10-18T10:59:07Z</time>
      </trkpt>
      <trkpt lat="43.21537" lon="5.48342">
        <ele>285.1</ele>
        <time>2025-10-18T10:59:08Z</time>
      </trkpt>
      <trkpt lat="43.21537" lon="5.48342">
        <ele>285.1</ele>
        <time>2025-10-18T10:59:09Z</time>
      </trkpt>
      <trkpt lat="43.21537" lon="5.48342">
        <ele>285.2</ele>
        <time>2025-10-18T10:59:10Z</time>
      </trkpt>
      <trkpt lat="43.21536" lon="5.48342">
        <ele>285.2</ele>
        <time>2025-10-18T10:59:11Z</time>
      </trkpt>
      <trkpt lat="43.21537" lon="5.48342">
        <ele>285.3</ele>
        <time>2025-10-18T10:59:12Z</time>
      </trkpt>
      <trkpt lat="43.21537" lon="5.48342">
        <ele>285.3</ele>
        <time>2025-10-18T10:59:13Z</time>
      </trkpt>
      <trkpt lat="43.21536" lon="5.48342">
        <ele>285.3</ele>
        <time>2025-10-18T10:59:14Z</time>
      </trkpt>
      <trkpt lat="43.21536" lon="5.48342">
        <ele>285.3</ele>
        <time>2025-10-18T10:59:15Z</time>
      </trkpt>
      <trkpt lat="43.21536" lon="5.48341">
        <ele>285.3</ele>
        <time>2025-10-18T10:59:16Z</time>
      </trkpt>
      <trkpt lat="43.21536" lon="5.48341">
        <ele>285.3</ele>
        <time>2025-10-18T10:59:17Z</time>
      </trkpt>
      <trkpt lat="43.21536" lon="5.48341">
        <ele>285.3</ele>
        <time>2025-10-18T10:59:18Z</time>
      </trkpt>
      <trkpt lat="43.21536" lon="5.48341">
        <ele>285.3</ele>
        <time>2025-10-18T10:59:19Z</time>
      </trkpt>
      <trkpt lat="43.21536" lon="5.48341">
        <ele>285.3</ele>
        <time>2025-10-18T10:59:20Z</time>
      </trkpt>
      <trkpt lat="43.21536" lon="5.48341">
        <ele>285.4</ele>
        <time>2025-10-18T10:59:21Z</time>
      </trkpt>
      <trkpt lat="43.21536" lon="5.48341">
        <ele>285.4</ele>
        <time>2025-10-18T10:59:22Z</time>
      </trkpt>
      <trkpt lat="43.21536" lon="5.48341">
        <ele>285.4</ele>
        <time>2025-10-18T10:59:23Z</time>
      </trkpt>
      <trkpt lat="43.21536" lon="5.48341">
        <ele>285.4</ele>
        <time>2025-10-18T10:59:24Z</time>
      </trkpt>
      <trkpt lat="43.21536" lon="5.48341">
        <ele>285.4</ele>
        <time>2025-10-18T10:59:25Z</time>
      </trkpt>
      <trkpt lat="43.21536" lon="5.48342">
        <ele>285.4</ele>
        <time>2025-10-18T10:59:26Z</time>
      </trkpt>
      <trkpt lat="43.21536" lon="5.48342">
        <ele>285.4</ele>
        <time>2025-10-18T10:59:27Z</time>
      </trkpt>
      <trkpt lat="43.21536" lon="5.48341">
        <ele>285.4</ele>
        <time>2025-10-18T10:59:28Z</time>
      </trkpt>
      <trkpt lat="43.21536" lon="5.48341">
        <ele>285.4</ele>
        <time>2025-10-18T10:59:29Z</time>
      </trkpt>
      <trkpt lat="43.21536" lon="5.48341">
        <ele>285.4</ele>
        <time>2025-10-18T10:59:30Z</time>
      </trkpt>
      <trkpt lat="43.21536" lon="5.48341">
        <ele>285.4</ele>
        <time>2025-10-18T10:59:31Z</time>
      </trkpt>
      <trkpt lat="43.21536" lon="5.48341">
        <ele>285.4</ele>
        <time>2025-10-18T10:59:32Z</time>
      </trkpt>
      <trkpt lat="43.21536" lon="5.48342">
        <ele>285.5</ele>
        <time>2025-10-18T10:59:33Z</time>
      </trkpt>
      <trkpt lat="43.21536" lon="5.48342">
        <ele>285.5</ele>
        <time>2025-10-18T10:59:34Z</time>
      </trkpt>
      <trkpt lat="43.21537" lon="5.48342">
        <ele>285.5</ele>
        <time>2025-10-18T10:59:35Z</time>
      </trkpt>
      <trkpt lat="43.21537" lon="5.48342">
        <ele>285.5</ele>
        <time>2025-10-18T10:59:36Z</time>
      </trkpt>
      <trkpt lat="43.21537" lon="5.48343">
        <ele>285.4</ele>
        <time>2025-10-18T10:59:37Z</time>
      </trkpt>
      <trkpt lat="43.21537" lon="5.48343">
        <ele>285.5</ele>
        <time>2025-10-18T10:59:38Z</time>
      </trkpt>
      <trkpt lat="43.21537" lon="5.48343">
        <ele>285.5</ele>
        <time>2025-10-18T10:59:39Z</time>
      </trkpt>
      <trkpt lat="43.21538" lon="5.48343">
        <ele>285.5</ele>
        <time>2025-10-18T10:59:40Z</time>
      </trkpt>
      <trkpt lat="43.21538" lon="5.48344">
        <ele>285.4</ele>
        <time>2025-10-18T10:59:41Z</time>
      </trkpt>
      <trkpt lat="43.21538" lon="5.48344">
        <ele>285.3</ele>
        <time>2025-10-18T10:59:42Z</time>
      </trkpt>
      <trkpt lat="43.21538" lon="5.48344">
        <ele>285.3</ele>
        <time>2025-10-18T10:59:43Z</time>
      </trkpt>
      <trkpt lat="43.21538" lon="5.48344">
        <ele>285.2</ele>
        <time>2025-10-18T10:59:44Z</time>
      </trkpt>
      <trkpt lat="43.21538" lon="5.48344">
        <ele>285.3</ele>
        <time>2025-10-18T10:59:45Z</time>
      </trkpt>
      <trkpt lat="43.21538" lon="5.48344">
        <ele>285.3</ele>
        <time>2025-10-18T10:59:46Z</time>
      </trkpt>
      <trkpt lat="43.21538" lon="5.48344">
        <ele>285.3</ele>
        <time>2025-10-18T10:59:47Z</time>
      </trkpt>
      <trkpt lat="43.21538" lon="5.48344">
        <ele>285.4</ele>
        <time>2025-10-18T10:59:48Z</time>
      </trkpt>
      <trkpt lat="43.21538" lon="5.48344">
        <ele>285.4</ele>
        <time>2025-10-18T10:59:49Z</time>
      </trkpt>
      <trkpt lat="43.21538" lon="5.48344">
        <ele>285.4</ele>
        <time>2025-10-18T10:59:50Z</time>
      </trkpt>
      <trkpt lat="43.21538" lon="5.48344">
        <ele>285.4</ele>
        <time>2025-10-18T10:59:51Z</time>
      </trkpt>
      <trkpt lat="43.21538" lon="5.48344">
        <ele>285.4</ele>
        <time>2025-10-18T10:59:52Z</time>
      </trkpt>
      <trkpt lat="43.21538" lon="5.48344">
        <ele>285.4</ele>
        <time>2025-10-18T10:59:53Z</time>
      </trkpt>
      <trkpt lat="43.21538" lon="5.48344">
        <ele>285.4</ele>
        <time>2025-10-18T10:59:54Z</time>
      </trkpt>
      <trkpt lat="43.21538" lon="5.48344">
        <ele>285.5</ele>
        <time>2025-10-18T10:59:55Z</time>
      </trkpt>
      <trkpt lat="43.21538" lon="5.48345">
        <ele>285.5</ele>
        <time>2025-10-18T10:59:56Z</time>
      </trkpt>
      <trkpt lat="43.21538" lon="5.48345">
        <ele>285.4</ele>
        <time>2025-10-18T10:59:57Z</time>
      </trkpt>
      <trkpt lat="43.21537" lon="5.48345">
        <ele>285.5</ele>
        <time>2025-10-18T10:59:58Z</time>
      </trkpt>
      <trkpt lat="43.21538" lon="5.48345">
        <ele>285.5</ele>
        <time>2025-10-18T10:59:59Z</time>
      </trkpt>
      <trkpt lat="43.21538" lon="5.48345">
        <ele>285.5</ele>
        <time>2025-10-18T11:00:00Z</time>
      </trkpt>
      <trkpt lat="43.21538" lon="5.48345">
        <ele>285.5</ele>
        <time>2025-10-18T11:00:01Z</time>
      </trkpt>
      <trkpt lat="43.21538" lon="5.48345">
        <ele>285.5</ele>
        <time>2025-10-18T11:00:02Z</time>
      </trkpt>
      <trkpt lat="43.21538" lon="5.48345">
        <ele>285.5</ele>
        <time>2025-10-18T11:00:03Z</time>
      </trkpt>
      <trkpt lat="43.21538" lon="5.48345">
        <ele>285.4</ele>
        <time>2025-10-18T11:00:04Z</time>
      </trkpt>
      <trkpt lat="43.21538" lon="5.48345">
        <ele>285.4</ele>
        <time>2025-10-18T11:00:05Z</time>
      </trkpt>
      <trkpt lat="43.21538" lon="5.48345">
        <ele>285.3</ele>
        <time>2025-10-18T11:00:06Z</time>
      </trkpt>
      <trkpt lat="43.21538" lon="5.48345">
        <ele>285.3</ele>
        <time>2025-10-18T11:00:07Z</time>
      </trkpt>
      <trkpt lat="43.21538" lon="5.48345">
        <ele>285.3</ele>
        <time>2025-10-18T11:00:08Z</time>
      </trkpt>
      <trkpt lat="43.21538" lon="5.48346">
        <ele>285.2</ele>
        <time>2025-10-18T11:00:09Z</time>
      </trkpt>
      <trkpt lat="43.21538" lon="5.48346">
        <ele>285.2</ele>
        <time>2025-10-18T11:00:10Z</time>
      </trkpt>
      <trkpt lat="43.21538" lon="5.48345">
        <ele>285.2</ele>
        <time>2025-10-18T11:00:11Z</time>
      </trkpt>
      <trkpt lat="43.21538" lon="5.48345">
        <ele>285.3</ele>
        <time>2025-10-18T11:00:12Z</time>
      </trkpt>
      <trkpt lat="43.21538" lon="5.48345">
        <ele>285.3</ele>
        <time>2025-10-18T11:00:13Z</time>
      </trkpt>
      <trkpt lat="43.21538" lon="5.48345">
        <ele>285.3</ele>
        <time>2025-10-18T11:00:14Z</time>
      </trkpt>
      <trkpt lat="43.21538" lon="5.48345">
        <ele>285.3</ele>
        <time>2025-10-18T11:00:15Z</time>
      </trkpt>
      <trkpt lat="43.21538" lon="5.48345">
        <ele>285.4</ele>
        <time>2025-10-18T11:00:16Z</time>
      </trkpt>
      <trkpt lat="43.21538" lon="5.48345">
        <ele>285.4</ele>
        <time>2025-10-18T11:00:17Z</time>
      </trkpt>
      <trkpt lat="43.21538" lon="5.48345">
        <ele>285.5</ele>
        <time>2025-10-18T11:00:18Z</time>
      </trkpt>
      <trkpt lat="43.21538" lon="5.48345">
        <ele>285.5</ele>
        <time>2025-10-18T11:00:19Z</time>
      </trkpt>
      <trkpt lat="43.21538" lon="5.48345">
        <ele>285.4</ele>
        <time>2025-10-18T11:00:20Z</time>
      </trkpt>
      <trkpt lat="43.21538" lon="5.48345">
        <ele>285.4</ele>
        <time>2025-10-18T11:00:21Z</time>
      </trkpt>
      <trkpt lat="43.21538" lon="5.48345">
        <ele>285.4</ele>
        <time>2025-10-18T11:00:22Z</time>
      </trkpt>
      <trkpt lat="43.21538" lon="5.48346">
        <ele>285.5</ele>
        <time>2025-10-18T11:00:23Z</time>
      </trkpt>
      <trkpt lat="43.21538" lon="5.48346">
        <ele>285.6</ele>
        <time>2025-10-18T11:00:24Z</time>
      </trkpt>
      <trkpt lat="43.21539" lon="5.48346">
        <ele>285.6</ele>
        <time>2025-10-18T11:00:25Z</time>
      </trkpt>
      <trkpt lat="43.21539" lon="5.48346">
        <ele>285.6</ele>
        <time>2025-10-18T11:00:26Z</time>
      </trkpt>
      <trkpt lat="43.21539" lon="5.48346">
        <ele>285.6</ele>
        <time>2025-10-18T11:00:27Z</time>
      </trkpt>
      <trkpt lat="43.21539" lon="5.48346">
        <ele>285.5</ele>
        <time>2025-10-18T11:00:28Z</time>
      </trkpt>
      <trkpt lat="43.21539" lon="5.48346">
        <ele>285.5</ele>
        <time>2025-10-18T11:00:29Z</time>
      </trkpt>
      <trkpt lat="43.21539" lon="5.48346">
        <ele>285.5</ele>
        <time>2025-10-18T11:00:30Z</time>
      </trkpt>
      <trkpt lat="43.21539" lon="5.48346">
        <ele>285.6</ele>
        <time>2025-10-18T11:00:31Z</time>
      </trkpt>
      <trkpt lat="43.21539" lon="5.48346">
        <ele>285.5</ele>
        <time>2025-10-18T11:00:32Z</time>
      </trkpt>
      <trkpt lat="43.21539" lon="5.48346">
        <ele>285.5</ele>
        <time>2025-10-18T11:00:33Z</time>
      </trkpt>
      <trkpt lat="43.21539" lon="5.48346">
        <ele>285.5</ele>
        <time>2025-10-18T11:00:34Z</time>
      </trkpt>
      <trkpt lat="43.21539" lon="5.48346">
        <ele>285.5</ele>
        <time>2025-10-18T11:00:35Z</time>
      </trkpt>
      <trkpt lat="43.21539" lon="5.48346">
        <ele>285.5</ele>
        <time>2025-10-18T11:00:36Z</time>
      </trkpt>
      <trkpt lat="43.21539" lon="5.48346">
        <ele>285.5</ele>
        <time>2025-10-18T11:00:37Z</time>
      </trkpt>
      <trkpt lat="43.21539" lon="5.48346">
        <ele>285.5</ele>
        <time>2025-10-18T11:00:38Z</time>
      </trkpt>
      <trkpt lat="43.21539" lon="5.48346">
        <ele>285.4</ele>
        <time>2025-10-18T11:00:39Z</time>
      </trkpt>
      <trkpt lat="43.21539" lon="5.48346">
        <ele>285.4</ele>
        <time>2025-10-18T11:00:40Z</time>
      </trkpt>
      <trkpt lat="43.21539" lon="5.48346">
        <ele>285.4</ele>
        <time>2025-10-18T11:00:41Z</time>
      </trkpt>
      <trkpt lat="43.21539" lon="5.48346">
        <ele>285.4</ele>
        <time>2025-10-18T11:00:42Z</time>
      </trkpt>
      <trkpt lat="43.21539" lon="5.48346">
        <ele>285.4</ele>
        <time>2025-10-18T11:00:43Z</time>
      </trkpt>
      <trkpt lat="43.21539" lon="5.48345">
        <ele>285.4</ele>
        <time>2025-10-18T11:00:44Z</time>
      </trkpt>
      <trkpt lat="43.21539" lon="5.48345">
        <ele>285.4</ele>
        <time>2025-10-18T11:00:45Z</time>
      </trkpt>
      <trkpt lat="43.21539" lon="5.48345">
        <ele>285.4</ele>
        <time>2025-10-18T11:00:46Z</time>
      </trkpt>
      <trkpt lat="43.21539" lon="5.48345">
        <ele>285.3</ele>
        <time>2025-10-18T11:00:47Z</time>
      </trkpt>
      <trkpt lat="43.21539" lon="5.48345">
        <ele>285.3</ele>
        <time>2025-10-18T11:00:48Z</time>
      </trkpt>
      <trkpt lat="43.21539" lon="5.48345">
        <ele>285.3</ele>
        <time>2025-10-18T11:00:49Z</time>
      </trkpt>
      <trkpt lat="43.21539" lon="5.48345">
        <ele>285.4</ele>
        <time>2025-10-18T11:00:50Z</time>
      </trkpt>
      <trkpt lat="43.21539" lon="5.48345">
        <ele>285.3</ele>
        <time>2025-10-18T11:00:51Z</time>
      </trkpt>
      <trkpt lat="43.21539" lon="5.48345">
        <ele>285.2</ele>
        <time>2025-10-18T11:00:52Z</time>
      </trkpt>
      <trkpt lat="43.21539" lon="5.48345">
        <ele>285.2</ele>
        <time>2025-10-18T11:00:53Z</time>
      </trkpt>
      <trkpt lat="43.21539" lon="5.48345">
        <ele>285.2</ele>
        <time>2025-10-18T11:00:54Z</time>
      </trkpt>
      <trkpt lat="43.21539" lon="5.48345">
        <ele>285.3</ele>
        <time>2025-10-18T11:00:55Z</time>
      </trkpt>
      <trkpt lat="43.21539" lon="5.48345">
        <ele>285.3</ele>
        <time>2025-10-18T11:00:56Z</time>
      </trkpt>
      <trkpt lat="43.21539" lon="5.48345">
        <ele>285.2</ele>
        <time>2025-10-18T11:00:57Z</time>
      </trkpt>
      <trkpt lat="43.21539" lon="5.48345">
        <ele>285.2</ele>
        <time>2025-10-18T11:00:58Z</time>
      </trkpt>
      <trkpt lat="43.21539" lon="5.48345">
        <ele>285.2</ele>
        <time>2025-10-18T11:00:59Z</time>
      </trkpt>
      <trkpt lat="43.21539" lon="5.48345">
        <ele>285.2</ele>
        <time>2025-10-18T11:01:00Z</time>
      </trkpt>
      <trkpt lat="43.2154" lon="5.48345">
        <ele>285.2</ele>
        <time>2025-10-18T11:01:01Z</time>
      </trkpt>
      <trkpt lat="43.2154" lon="5.48345">
        <ele>285.2</ele>
        <time>2025-10-18T11:01:02Z</time>
      </trkpt>
      <trkpt lat="43.2154" lon="5.48345">
        <ele>285.3</ele>
        <time>2025-10-18T11:01:03Z</time>
      </trkpt>
      <trkpt lat="43.2154" lon="5.48345">
        <ele>285.3</ele>
        <time>2025-10-18T11:01:04Z</time>
      </trkpt>
      <trkpt lat="43.2154" lon="5.48345">
        <ele>285.3</ele>
        <time>2025-10-18T11:01:05Z</time>
      </trkpt>
      <trkpt lat="43.2154" lon="5.48345">
        <ele>285.4</ele>
        <time>2025-10-18T11:01:06Z</time>
      </trkpt>
      <trkpt lat="43.2154" lon="5.48345">
        <ele>285.4</ele>
        <time>2025-10-18T11:01:07Z</time>
      </trkpt>
      <trkpt lat="43.2154" lon="5.48345">
        <ele>285.3</ele>
        <time>2025-10-18T11:01:08Z</time>
      </trkpt>
      <trkpt lat="43.2154" lon="5.48345">
        <ele>285.2</ele>
        <time>2025-10-18T11:01:09Z</time>
      </trkpt>
      <trkpt lat="43.2154" lon="5.48345">
        <ele>285.3</ele>
        <time>2025-10-18T11:01:10Z</time>
      </trkpt>
      <trkpt lat="43.2154" lon="5.48345">
        <ele>285.2</ele>
        <time>2025-10-18T11:01:11Z</time>
      </trkpt>
      <trkpt lat="43.2154" lon="5.48345">
        <ele>285.2</ele>
        <time>2025-10-18T11:01:12Z</time>
      </trkpt>
      <trkpt lat="43.2154" lon="5.48345">
        <ele>285.2</ele>
        <time>2025-10-18T11:01:13Z</time>
      </trkpt>
      <trkpt lat="43.2154" lon="5.48345">
        <ele>285.2</ele>
        <time>2025-10-18T11:01:14Z</time>
      </trkpt>
      <trkpt lat="43.2154" lon="5.48345">
        <ele>285.2</ele>
        <time>2025-10-18T11:01:15Z</time>
      </trkpt>
      <trkpt lat="43.2154" lon="5.48345">
        <ele>285.1</ele>
        <time>2025-10-18T11:01:16Z</time>
      </trkpt>
      <trkpt lat="43.2154" lon="5.48344">
        <ele>285.1</ele>
        <time>2025-10-18T11:01:17Z</time>
      </trkpt>
      <trkpt lat="43.2154" lon="5.48344">
        <ele>285.1</ele>
        <time>2025-10-18T11:01:18Z</time>
      </trkpt>
      <trkpt lat="43.2154" lon="5.48344">
        <ele>285.2</ele>
        <time>2025-10-18T11:01:19Z</time>
      </trkpt>
      <trkpt lat="43.2154" lon="5.48344">
        <ele>285.2</ele>
        <time>2025-10-18T11:01:20Z</time>
      </trkpt>
      <trkpt lat="43.2154" lon="5.48344">
        <ele>285.1</ele>
        <time>2025-10-18T11:01:21Z</time>
      </trkpt>
      <trkpt lat="43.2154" lon="5.48344">
        <ele>285.2</ele>
        <time>2025-10-18T11:01:22Z</time>
      </trkpt>
      <trkpt lat="43.2154" lon="5.48344">
        <ele>285.2</ele>
        <time>2025-10-18T11:01:23Z</time>
      </trkpt>
      <trkpt lat="43.21539" lon="5.48344">
        <ele>285.2</ele>
        <time>2025-10-18T11:01:24Z</time>
      </trkpt>
      <trkpt lat="43.21539" lon="5.48345">
        <ele>285.2</ele>
        <time>2025-10-18T11:01:25Z</time>
      </trkpt>
      <trkpt lat="43.21539" lon="5.48345">
        <ele>285.2</ele>
        <time>2025-10-18T11:01:26Z</time>
      </trkpt>
      <trkpt lat="43.21539" lon="5.48345">
        <ele>285.3</ele>
        <time>2025-10-18T11:01:27Z</time>
      </trkpt>
      <trkpt lat="43.21539" lon="5.48345">
        <ele>285.3</ele>
        <time>2025-10-18T11:01:28Z</time>
      </trkpt>
      <trkpt lat="43.2154" lon="5.48346">
        <ele>285.3</ele>
        <time>2025-10-18T11:01:29Z</time>
      </trkpt>
      <trkpt lat="43.2154" lon="5.48346">
        <ele>285.3</ele>
        <time>2025-10-18T11:01:30Z</time>
      </trkpt>
      <trkpt lat="43.2154" lon="5.48346">
        <ele>285.3</ele>
        <time>2025-10-18T11:01:31Z</time>
      </trkpt>
      <trkpt lat="43.2154" lon="5.48346">
        <ele>285.2</ele>
        <time>2025-10-18T11:01:32Z</time>
      </trkpt>
      <trkpt lat="43.2154" lon="5.48346">
        <ele>285.2</ele>
        <time>2025-10-18T11:01:33Z</time>
      </trkpt>
      <trkpt lat="43.2154" lon="5.48346">
        <ele>285.2</ele>
        <time>2025-10-18T11:01:34Z</time>
      </trkpt>
      <trkpt lat="43.2154" lon="5.48346">
        <ele>285.3</ele>
        <time>2025-10-18T11:01:35Z</time>
      </trkpt>
      <trkpt lat="43.2154" lon="5.48346">
        <ele>285.4</ele>
        <time>2025-10-18T11:01:36Z</time>
      </trkpt>
      <trkpt lat="43.2154" lon="5.48346">
        <ele>285.4</ele>
        <time>2025-10-18T11:01:37Z</time>
      </trkpt>
      <trkpt lat="43.2154" lon="5.48346">
        <ele>285.4</ele>
        <time>2025-10-18T11:01:38Z</time>
      </trkpt>
      <trkpt lat="43.2154" lon="5.48346">
        <ele>285.4</ele>
        <time>2025-10-18T11:01:39Z</time>
      </trkpt>
      <trkpt lat="43.2154" lon="5.48347">
        <ele>285.4</ele>
        <time>2025-10-18T11:01:40Z</time>
      </trkpt>
      <trkpt lat="43.2154" lon="5.48347">
        <ele>285.4</ele>
        <time>2025-10-18T11:01:41Z</time>
      </trkpt>
      <trkpt lat="43.2154" lon="5.48347">
        <ele>285.4</ele>
        <time>2025-10-18T11:01:42Z</time>
      </trkpt>
      <trkpt lat="43.2154" lon="5.48347">
        <ele>285.4</ele>
        <time>2025-10-18T11:01:43Z</time>
      </trkpt>
      <trkpt lat="43.2154" lon="5.48347">
        <ele>285.4</ele>
        <time>2025-10-18T11:01:44Z</time>
      </trkpt>
      <trkpt lat="43.2154" lon="5.48347">
        <ele>285.4</ele>
        <time>2025-10-18T11:01:45Z</time>
      </trkpt>
      <trkpt lat="43.2154" lon="5.48347">
        <ele>285.4</ele>
        <time>2025-10-18T11:01:46Z</time>
      </trkpt>
      <trkpt lat="43.2154" lon="5.48347">
        <ele>285.4</ele>
        <time>2025-10-18T11:01:47Z</time>
      </trkpt>
      <trkpt lat="43.2154" lon="5.48347">
        <ele>285.4</ele>
        <time>2025-10-18T11:01:48Z</time>
      </trkpt>
      <trkpt lat="43.2154" lon="5.48347">
        <ele>285.4</ele>
        <time>2025-10-18T11:01:49Z</time>
      </trkpt>
      <trkpt lat="43.2154" lon="5.48347">
        <ele>285.5</ele>
        <time>2025-10-18T11:01:50Z</time>
      </trkpt>
      <trkpt lat="43.2154" lon="5.48347">
        <ele>285.4</ele>
        <time>2025-10-18T11:01:51Z</time>
      </trkpt>
      <trkpt lat="43.2154" lon="5.48347">
        <ele>285.5</ele>
        <time>2025-10-18T11:01:52Z</time>
      </trkpt>
      <trkpt lat="43.2154" lon="5.48347">
        <ele>285.6</ele>
        <time>2025-10-18T11:01:53Z</time>
      </trkpt>
      <trkpt lat="43.2154" lon="5.48347">
        <ele>285.6</ele>
        <time>2025-10-18T11:01:54Z</time>
      </trkpt>
      <trkpt lat="43.2154" lon="5.48347">
        <ele>285.7</ele>
        <time>2025-10-18T11:01:55Z</time>
      </trkpt>
      <trkpt lat="43.2154" lon="5.48347">
        <ele>285.6</ele>
        <time>2025-10-18T11:01:56Z</time>
      </trkpt>
      <trkpt lat="43.2154" lon="5.48347">
        <ele>285.6</ele>
        <time>2025-10-18T11:01:57Z</time>
      </trkpt>
      <trkpt lat="43.21541" lon="5.48347">
        <ele>285.6</ele>
        <time>2025-10-18T11:01:58Z</time>
      </trkpt>
      <trkpt lat="43.21541" lon="5.48347">
        <ele>285.5</ele>
        <time>2025-10-18T11:01:59Z</time>
      </trkpt>
      <trkpt lat="43.2154" lon="5.48347">
        <ele>285.5</ele>
        <time>2025-10-18T11:02:00Z</time>
      </trkpt>
      <trkpt lat="43.2154" lon="5.48347">
        <ele>285.5</ele>
        <time>2025-10-18T11:02:01Z</time>
      </trkpt>
      <trkpt lat="43.2154" lon="5.48347">
        <ele>285.4</ele>
        <time>2025-10-18T11:02:02Z</time>
      </trkpt>
      <trkpt lat="43.2154" lon="5.48347">
        <ele>285.4</ele>
        <time>2025-10-18T11:02:03Z</time>
      </trkpt>
      <trkpt lat="43.2154" lon="5.48347">
        <ele>285.4</ele>
        <time>2025-10-18T11:02:04Z</time>
      </trkpt>
      <trkpt lat="43.2154" lon="5.48347">
        <ele>285.4</ele>
        <time>2025-10-18T11:02:05Z</time>
      </trkpt>
      <trkpt lat="43.2154" lon="5.48348">
        <ele>285.4</ele>
        <time>2025-10-18T11:02:06Z</time>
      </trkpt>
      <trkpt lat="43.2154" lon="5.48348">
        <ele>285.4</ele>
        <time>2025-10-18T11:02:07Z</time>
      </trkpt>
      <trkpt lat="43.2154" lon="5.48348">
        <ele>285.4</ele>
        <time>2025-10-18T11:02:08Z</time>
      </trkpt>
      <trkpt lat="43.2154" lon="5.48348">
        <ele>285.4</ele>
        <time>2025-10-18T11:02:09Z</time>
      </trkpt>
      <trkpt lat="43.2154" lon="5.48348">
        <ele>285.3</ele>
        <time>2025-10-18T11:02:10Z</time>
      </trkpt>
      <trkpt lat="43.2154" lon="5.48348">
        <ele>285.3</ele>
        <time>2025-10-18T11:02:11Z</time>
      </trkpt>
      <trkpt lat="43.2154" lon="5.48348">
        <ele>285.4</ele>
        <time>2025-10-18T11:02:12Z</time>
      </trkpt>
      <trkpt lat="43.2154" lon="5.48348">
        <ele>285.4</ele>
        <time>2025-10-18T11:02:13Z</time>
      </trkpt>
      <trkpt lat="43.2154" lon="5.48348">
        <ele>285.4</ele>
        <time>2025-10-18T11:02:14Z</time>
      </trkpt>
      <trkpt lat="43.2154" lon="5.48348">
        <ele>285.4</ele>
        <time>2025-10-18T11:02:15Z</time>
      </trkpt>
      <trkpt lat="43.2154" lon="5.48348">
        <ele>285.4</ele>
        <time>2025-10-18T11:02:16Z</time>
      </trkpt>
      <trkpt lat="43.2154" lon="5.48348">
        <ele>285.4</ele>
        <time>2025-10-18T11:02:17Z</time>
      </trkpt>
      <trkpt lat="43.2154" lon="5.48348">
        <ele>285.3</ele>
        <time>2025-10-18T11:02:18Z</time>
      </trkpt>
      <trkpt lat="43.2154" lon="5.48348">
        <ele>285.3</ele>
        <time>2025-10-18T11:02:19Z</time>
      </trkpt>
      <trkpt lat="43.2154" lon="5.48348">
        <ele>285.3</ele>
        <time>2025-10-18T11:02:20Z</time>
      </trkpt>
      <trkpt lat="43.2154" lon="5.48348">
        <ele>285.3</ele>
        <time>2025-10-18T11:02:21Z</time>
      </trkpt>
      <trkpt lat="43.2154" lon="5.48347">
        <ele>285.3</ele>
        <time>2025-10-18T11:02:22Z</time>
      </trkpt>
      <trkpt lat="43.2154" lon="5.48347">
        <ele>285.2</ele>
        <time>2025-10-18T11:02:23Z</time>
      </trkpt>
      <trkpt lat="43.21539" lon="5.48347">
        <ele>285.3</ele>
        <time>2025-10-18T11:02:24Z</time>
      </trkpt>
      <trkpt lat="43.21539" lon="5.48347">
        <ele>285.2</ele>
        <time>2025-10-18T11:02:25Z</time>
      </trkpt>
      <trkpt lat="43.21539" lon="5.48347">
        <ele>285.2</ele>
        <time>2025-10-18T11:02:26Z</time>
      </trkpt>
      <trkpt lat="43.21539" lon="5.48347">
        <ele>285.2</ele>
        <time>2025-10-18T11:02:27Z</time>
      </trkpt>
      <trkpt lat="43.21539" lon="5.48347">
        <ele>285.2</ele>
        <time>2025-10-18T11:02:28Z</time>
      </trkpt>
      <trkpt lat="43.21539" lon="5.48347">
        <ele>285.2</ele>
        <time>2025-10-18T11:02:29Z</time>
      </trkpt>
      <trkpt lat="43.21539" lon="5.48347">
        <ele>285.2</ele>
        <time>2025-10-18T11:02:30Z</time>
      </trkpt>
      <trkpt lat="43.21539" lon="5.48347">
        <ele>285.2</ele>
        <time>2025-10-18T11:02:31Z</time>
      </trkpt>
      <trkpt lat="43.21539" lon="5.48347">
        <ele>285.1</ele>
        <time>2025-10-18T11:02:32Z</time>
      </trkpt>
      <trkpt lat="43.21539" lon="5.48347">
        <ele>285.2</ele>
        <time>2025-10-18T11:02:33Z</time>
      </trkpt>
      <trkpt lat="43.21539" lon="5.48347">
        <ele>285.2</ele>
        <time>2025-10-18T11:02:34Z</time>
      </trkpt>
      <trkpt lat="43.21539" lon="5.48347">
        <ele>285.3</ele>
        <time>2025-10-18T11:02:35Z</time>
      </trkpt>
      <trkpt lat="43.21539" lon="5.48347">
        <ele>285.3</ele>
        <time>2025-10-18T11:02:36Z</time>
      </trkpt>
      <trkpt lat="43.21539" lon="5.48347">
        <ele>285.3</ele>
        <time>2025-10-18T11:02:37Z</time>
      </trkpt>
      <trkpt lat="43.21539" lon="5.48347">
        <ele>285.3</ele>
        <time>2025-10-18T11:02:38Z</time>
      </trkpt>
      <trkpt lat="43.21538" lon="5.48347">
        <ele>285.3</ele>
        <time>2025-10-18T11:02:39Z</time>
      </trkpt>
      <trkpt lat="43.21538" lon="5.48347">
        <ele>285.4</ele>
        <time>2025-10-18T11:02:40Z</time>
      </trkpt>
      <trkpt lat="43.21538" lon="5.48347">
        <ele>285.4</ele>
        <time>2025-10-18T11:02:41Z</time>
      </trkpt>
      <trkpt lat="43.21538" lon="5.48347">
        <ele>285.4</ele>
        <time>2025-10-18T11:02:42Z</time>
      </trkpt>
      <trkpt lat="43.21538" lon="5.48347">
        <ele>285.4</ele>
        <time>2025-10-18T11:02:43Z</time>
      </trkpt>
      <trkpt lat="43.21538" lon="5.48346">
        <ele>285.3</ele>
        <time>2025-10-18T11:02:44Z</time>
      </trkpt>
      <trkpt lat="43.21538" lon="5.48346">
        <ele>285.3</ele>
        <time>2025-10-18T11:02:45Z</time>
      </trkpt>
      <trkpt lat="43.21538" lon="5.48346">
        <ele>285.3</ele>
        <time>2025-10-18T11:02:46Z</time>
      </trkpt>
      <trkpt lat="43.21538" lon="5.48346">
        <ele>285.3</ele>
        <time>2025-10-18T11:02:47Z</time>
      </trkpt>
      <trkpt lat="43.21538" lon="5.48346">
        <ele>285.4</ele>
        <time>2025-10-18T11:02:48Z</time>
      </trkpt>
      <trkpt lat="43.21538" lon="5.48346">
        <ele>285.4</ele>
        <time>2025-10-18T11:02:49Z</time>
      </trkpt>
      <trkpt lat="43.21538" lon="5.48346">
        <ele>285.5</ele>
        <time>2025-10-18T11:02:50Z</time>
      </trkpt>
      <trkpt lat="43.21538" lon="5.48346">
        <ele>285.6</ele>
        <time>2025-10-18T11:02:51Z</time>
      </trkpt>
      <trkpt lat="43.21538" lon="5.48346">
        <ele>285.6</ele>
        <time>2025-10-18T11:02:52Z</time>
      </trkpt>
      <trkpt lat="43.21538" lon="5.48346">
        <ele>285.5</ele>
        <time>2025-10-18T11:02:53Z</time>
      </trkpt>
      <trkpt lat="43.21538" lon="5.48346">
        <ele>285.5</ele>
        <time>2025-10-18T11:02:54Z</time>
      </trkpt>
      <trkpt lat="43.21538" lon="5.48346">
        <ele>285.4</ele>
        <time>2025-10-18T11:02:55Z</time>
      </trkpt>
      <trkpt lat="43.21537" lon="5.48346">
        <ele>285.4</ele>
        <time>2025-10-18T11:02:56Z</time>
      </trkpt>
      <trkpt lat="43.21537" lon="5.48346">
        <ele>285.5</ele>
        <time>2025-10-18T11:02:57Z</time>
      </trkpt>
      <trkpt lat="43.21537" lon="5.48346">
        <ele>285.5</ele>
        <time>2025-10-18T11:02:58Z</time>
      </trkpt>
      <trkpt lat="43.21537" lon="5.48346">
        <ele>285.5</ele>
        <time>2025-10-18T11:02:59Z</time>
      </trkpt>
      <trkpt lat="43.21537" lon="5.48346">
        <ele>285.5</ele>
        <time>2025-10-18T11:03:00Z</time>
      </trkpt>
      <trkpt lat="43.21537" lon="5.48346">
        <ele>285.5</ele>
        <time>2025-10-18T11:03:01Z</time>
      </trkpt>
      <trkpt lat="43.21537" lon="5.48346">
        <ele>285.5</ele>
        <time>2025-10-18T11:03:02Z</time>
      </trkpt>
      <trkpt lat="43.21536" lon="5.48346">
        <ele>285.5</ele>
        <time>2025-10-18T11:03:03Z</time>
      </trkpt>
      <trkpt lat="43.21536" lon="5.48346">
        <ele>285.4</ele>
        <time>2025-10-18T11:03:04Z</time>
      </trkpt>
      <trkpt lat="43.21536" lon="5.48346">
        <ele>285.3</ele>
        <time>2025-10-18T11:03:05Z</time>
      </trkpt>
      <trkpt lat="43.21536" lon="5.48346">
        <ele>285.3</ele>
        <time>2025-10-18T11:03:06Z</time>
      </trkpt>
      <trkpt lat="43.21536" lon="5.48346">
        <ele>285.3</ele>
        <time>2025-10-18T11:03:07Z</time>
      </trkpt>
      <trkpt lat="43.21536" lon="5.48346">
        <ele>285.4</ele>
        <time>2025-10-18T11:03:08Z</time>
      </trkpt>
      <trkpt lat="43.21536" lon="5.48346">
        <ele>285.4</ele>
        <time>2025-10-18T11:03:09Z</time>
      </trkpt>
      <trkpt lat="43.21535" lon="5.48346">
        <ele>285.5</ele>
        <time>2025-10-18T11:03:10Z</time>
      </trkpt>
      <trkpt lat="43.21535" lon="5.48346">
        <ele>285.5</ele>
        <time>2025-10-18T11:03:11Z</time>
      </trkpt>
      <trkpt lat="43.21535" lon="5.48345">
        <ele>285.5</ele>
        <time>2025-10-18T11:03:12Z</time>
      </trkpt>
      <trkpt lat="43.21535" lon="5.48345">
        <ele>285.4</ele>
        <time>2025-10-18T11:03:13Z</time>
      </trkpt>
      <trkpt lat="43.21535" lon="5.48345">
        <ele>285.4</ele>
        <time>2025-10-18T11:03:14Z</time>
      </trkpt>
      <trkpt lat="43.21535" lon="5.48345">
        <ele>285.3</ele>
        <time>2025-10-18T11:03:15Z</time>
      </trkpt>
      <trkpt lat="43.21535" lon="5.48346">
        <ele>285.3</ele>
        <time>2025-10-18T11:03:16Z</time>
      </trkpt>
      <trkpt lat="43.21535" lon="5.48346">
        <ele>285.4</ele>
        <time>2025-10-18T11:03:17Z</time>
      </trkpt>
      <trkpt lat="43.21535" lon="5.48346">
        <ele>285.4</ele>
        <time>2025-10-18T11:03:18Z</time>
      </trkpt>
      <trkpt lat="43.21535" lon="5.48346">
        <ele>285.4</ele>
        <time>2025-10-18T11:03:19Z</time>
      </trkpt>
      <trkpt lat="43.21535" lon="5.48346">
        <ele>285.4</ele>
        <time>2025-10-18T11:03:20Z</time>
      </trkpt>
      <trkpt lat="43.21535" lon="5.48346">
        <ele>285.5</ele>
        <time>2025-10-18T11:03:21Z</time>
      </trkpt>
      <trkpt lat="43.21535" lon="5.48346">
        <ele>285.5</ele>
        <time>2025-10-18T11:03:22Z</time>
      </trkpt>
      <trkpt lat="43.21535" lon="5.48346">
        <ele>285.5</ele>
        <time>2025-10-18T11:03:23Z</time>
      </trkpt>
      <trkpt lat="43.21535" lon="5.48346">
        <ele>285.5</ele>
        <time>2025-10-18T11:03:24Z</time>
      </trkpt>
      <trkpt lat="43.21535" lon="5.48346">
        <ele>285.5</ele>
        <time>2025-10-18T11:03:25Z</time>
      </trkpt>
      <trkpt lat="43.21535" lon="5.48346">
        <ele>285.5</ele>
        <time>2025-10-18T11:03:26Z</time>
      </trkpt>
      <trkpt lat="43.21535" lon="5.48346">
        <ele>285.5</ele>
        <time>2025-10-18T11:03:27Z</time>
      </trkpt>
      <trkpt lat="43.21535" lon="5.48346">
        <ele>285.5</ele>
        <time>2025-10-18T11:03:28Z</time>
      </trkpt>
      <trkpt lat="43.21534" lon="5.48346">
        <ele>285.5</ele>
        <time>2025-10-18T11:03:29Z</time>
      </trkpt>
      <trkpt lat="43.21534" lon="5.48346">
        <ele>285.5</ele>
        <time>2025-10-18T11:03:30Z</time>
      </trkpt>
      <trkpt lat="43.21534" lon="5.48346">
        <ele>285.5</ele>
        <time>2025-10-18T11:03:31Z</time>
      </trkpt>
      <trkpt lat="43.21534" lon="5.48346">
        <ele>285.5</ele>
        <time>2025-10-18T11:03:32Z</time>
      </trkpt>
      <trkpt lat="43.21534" lon="5.48346">
        <ele>285.5</ele>
        <time>2025-10-18T11:03:33Z</time>
      </trkpt>
      <trkpt lat="43.21534" lon="5.48346">
        <ele>285.5</ele>
        <time>2025-10-18T11:03:34Z</time>
      </trkpt>
      <trkpt lat="43.21534" lon="5.48346">
        <ele>285.6</ele>
        <time>2025-10-18T11:03:35Z</time>
      </trkpt>
      <trkpt lat="43.21534" lon="5.48346">
        <ele>285.6</ele>
        <time>2025-10-18T11:03:36Z</time>
      </trkpt>
      <trkpt lat="43.21534" lon="5.48346">
        <ele>285.6</ele>
        <time>2025-10-18T11:03:37Z</time>
      </trkpt>
      <trkpt lat="43.21534" lon="5.48346">
        <ele>285.6</ele>
        <time>2025-10-18T11:03:38Z</time>
      </trkpt>
      <trkpt lat="43.21534" lon="5.48346">
        <ele>285.6</ele>
        <time>2025-10-18T11:03:39Z</time>
      </trkpt>
      <trkpt lat="43.21534" lon="5.48346">
        <ele>285.7</ele>
        <time>2025-10-18T11:03:40Z</time>
      </trkpt>
      <trkpt lat="43.21534" lon="5.48346">
        <ele>285.7</ele>
        <time>2025-10-18T11:03:41Z</time>
      </trkpt>
      <trkpt lat="43.21534" lon="5.48345">
        <ele>285.7</ele>
        <time>2025-10-18T11:03:42Z</time>
      </trkpt>
      <trkpt lat="43.21534" lon="5.48345">
        <ele>285.7</ele>
        <time>2025-10-18T11:03:43Z</time>
      </trkpt>
      <trkpt lat="43.21534" lon="5.48346">
        <ele>285.7</ele>
        <time>2025-10-18T11:03:44Z</time>
      </trkpt>
      <trkpt lat="43.21534" lon="5.48345">
        <ele>285.7</ele>
        <time>2025-10-18T11:03:45Z</time>
      </trkpt>
      <trkpt lat="43.21534" lon="5.48345">
        <ele>285.6</ele>
        <time>2025-10-18T11:03:46Z</time>
      </trkpt>
      <trkpt lat="43.21534" lon="5.48345">
        <ele>285.6</ele>
        <time>2025-10-18T11:03:47Z</time>
      </trkpt>
      <trkpt lat="43.21534" lon="5.48345">
        <ele>285.7</ele>
        <time>2025-10-18T11:03:48Z</time>
      </trkpt>
      <trkpt lat="43.21534" lon="5.48345">
        <ele>285.7</ele>
        <time>2025-10-18T11:03:49Z</time>
      </trkpt>
      <trkpt lat="43.21534" lon="5.48345">
        <ele>285.7</ele>
        <time>2025-10-18T11:03:50Z</time>
      </trkpt>
      <trkpt lat="43.21534" lon="5.48345">
        <ele>285.7</ele>
        <time>2025-10-18T11:03:51Z</time>
      </trkpt>
      <trkpt lat="43.21534" lon="5.48345">
        <ele>285.8</ele>
        <time>2025-10-18T11:03:52Z</time>
      </trkpt>
      <trkpt lat="43.21534" lon="5.48345">
        <ele>285.8</ele>
        <time>2025-10-18T11:03:53Z</time>
      </trkpt>
      <trkpt lat="43.21535" lon="5.48345">
        <ele>285.8</ele>
        <time>2025-10-18T11:03:54Z</time>
      </trkpt>
      <trkpt lat="43.21535" lon="5.48345">
        <ele>285.8</ele>
        <time>2025-10-18T11:03:55Z</time>
      </trkpt>
      <trkpt lat="43.21535" lon="5.48345">
        <ele>285.8</ele>
        <time>2025-10-18T11:03:56Z</time>
      </trkpt>
      <trkpt lat="43.21535" lon="5.48345">
        <ele>285.8</ele>
        <time>2025-10-18T11:03:57Z</time>
      </trkpt>
      <trkpt lat="43.21535" lon="5.48345">
        <ele>285.8</ele>
        <time>2025-10-18T11:03:58Z</time>
      </trkpt>
      <trkpt lat="43.21535" lon="5.48345">
        <ele>285.8</ele>
        <time>2025-10-18T11:03:59Z</time>
      </trkpt>
      <trkpt lat="43.21535" lon="5.48345">
        <ele>285.7</ele>
        <time>2025-10-18T11:04:00Z</time>
      </trkpt>
      <trkpt lat="43.21535" lon="5.48345">
        <ele>285.7</ele>
        <time>2025-10-18T11:04:01Z</time>
      </trkpt>
      <trkpt lat="43.21535" lon="5.48345">
        <ele>285.7</ele>
        <time>2025-10-18T11:04:02Z</time>
      </trkpt>
      <trkpt lat="43.21535" lon="5.48345">
        <ele>285.7</ele>
        <time>2025-10-18T11:04:03Z</time>
      </trkpt>
      <trkpt lat="43.21535" lon="5.48345">
        <ele>285.7</ele>
        <time>2025-10-18T11:04:04Z</time>
      </trkpt>
      <trkpt lat="43.21535" lon="5.48345">
        <ele>285.7</ele>
        <time>2025-10-18T11:04:05Z</time>
      </trkpt>
      <trkpt lat="43.21535" lon="5.48345">
        <ele>285.7</ele>
        <time>2025-10-18T11:04:06Z</time>
      </trkpt>
      <trkpt lat="43.21535" lon="5.48345">
        <ele>285.6</ele>
        <time>2025-10-18T11:04:07Z</time>
      </trkpt>
      <trkpt lat="43.21535" lon="5.48345">
        <ele>285.6</ele>
        <time>2025-10-18T11:04:08Z</time>
      </trkpt>
      <trkpt lat="43.21535" lon="5.48345">
        <ele>285.6</ele>
        <time>2025-10-18T11:04:09Z</time>
      </trkpt>
      <trkpt lat="43.21535" lon="5.48345">
        <ele>285.6</ele>
        <time>2025-10-18T11:04:10Z</time>
      </trkpt>
      <trkpt lat="43.21535" lon="5.48345">
        <ele>285.6</ele>
        <time>2025-10-18T11:04:11Z</time>
      </trkpt>
      <trkpt lat="43.21535" lon="5.48345">
        <ele>285.6</ele>
        <time>2025-10-18T11:04:12Z</time>
      </trkpt>
      <trkpt lat="43.21535" lon="5.48345">
        <ele>285.6</ele>
        <time>2025-10-18T11:04:13Z</time>
      </trkpt>
      <trkpt lat="43.21535" lon="5.48345">
        <ele>285.6</ele>
        <time>2025-10-18T11:04:14Z</time>
      </trkpt>
      <trkpt lat="43.21535" lon="5.48345">
        <ele>285.6</ele>
        <time>2025-10-18T11:04:15Z</time>
      </trkpt>
      <trkpt lat="43.21535" lon="5.48345">
        <ele>285.6</ele>
        <time>2025-10-18T11:04:16Z</time>
      </trkpt>
      <trkpt lat="43.21535" lon="5.48345">
        <ele>285.6</ele>
        <time>2025-10-18T11:04:17Z</time>
      </trkpt>
      <trkpt lat="43.21534" lon="5.48345">
        <ele>285.7</ele>
        <time>2025-10-18T11:04:18Z</time>
      </trkpt>
      <trkpt lat="43.21534" lon="5.48345">
        <ele>285.8</ele>
        <time>2025-10-18T11:04:19Z</time>
      </trkpt>
      <trkpt lat="43.21534" lon="5.48345">
        <ele>285.8</ele>
        <time>2025-10-18T11:04:20Z</time>
      </trkpt>
      <trkpt lat="43.21533" lon="5.48345">
        <ele>285.8</ele>
        <time>2025-10-18T11:04:21Z</time>
      </trkpt>
      <trkpt lat="43.21533" lon="5.48345">
        <ele>285.8</ele>
        <time>2025-10-18T11:04:22Z</time>
      </trkpt>
      <trkpt lat="43.21533" lon="5.48345">
        <ele>285.8</ele>
        <time>2025-10-18T11:04:23Z</time>
      </trkpt>
      <trkpt lat="43.21533" lon="5.48345">
        <ele>285.9</ele>
        <time>2025-10-18T11:04:24Z</time>
      </trkpt>
      <trkpt lat="43.21533" lon="5.48345">
        <ele>285.9</ele>
        <time>2025-10-18T11:04:25Z</time>
      </trkpt>
      <trkpt lat="43.21533" lon="5.48345">
        <ele>285.9</ele>
        <time>2025-10-18T11:04:26Z</time>
      </trkpt>
      <trkpt lat="43.21533" lon="5.48345">
        <ele>285.9</ele>
        <time>2025-10-18T11:04:27Z</time>
      </trkpt>
      <trkpt lat="43.21533" lon="5.48346">
        <ele>285.9</ele>
        <time>2025-10-18T11:04:28Z</time>
      </trkpt>
      <trkpt lat="43.21533" lon="5.48346">
        <ele>285.9</ele>
        <time>2025-10-18T11:04:29Z</time>
      </trkpt>
      <trkpt lat="43.21533" lon="5.48346">
        <ele>285.9</ele>
        <time>2025-10-18T11:04:30Z</time>
      </trkpt>
      <trkpt lat="43.21533" lon="5.48346">
        <ele>285.8</ele>
        <time>2025-10-18T11:04:31Z</time>
      </trkpt>
      <trkpt lat="43.21533" lon="5.48346">
        <ele>285.8</ele>
        <time>2025-10-18T11:04:32Z</time>
      </trkpt>
      <trkpt lat="43.21533" lon="5.48346">
        <ele>285.8</ele>
        <time>2025-10-18T11:04:33Z</time>
      </trkpt>
      <trkpt lat="43.21533" lon="5.48346">
        <ele>285.8</ele>
        <time>2025-10-18T11:04:34Z</time>
      </trkpt>
      <trkpt lat="43.21533" lon="5.48346">
        <ele>285.8</ele>
        <time>2025-10-18T11:04:35Z</time>
      </trkpt>
      <trkpt lat="43.21533" lon="5.48346">
        <ele>285.9</ele>
        <time>2025-10-18T11:04:36Z</time>
      </trkpt>
      <trkpt lat="43.21533" lon="5.48346">
        <ele>285.9</ele>
        <time>2025-10-18T11:04:37Z</time>
      </trkpt>
      <trkpt lat="43.21533" lon="5.48347">
        <ele>286</ele>
        <time>2025-10-18T11:04:38Z</time>
      </trkpt>
      <trkpt lat="43.21533" lon="5.48347">
        <ele>286.1</ele>
        <time>2025-10-18T11:04:39Z</time>
      </trkpt>
      <trkpt lat="43.21533" lon="5.48347">
        <ele>286.1</ele>
        <time>2025-10-18T11:04:40Z</time>
      </trkpt>
      <trkpt lat="43.21533" lon="5.48347">
        <ele>286.1</ele>
        <time>2025-10-18T11:04:41Z</time>
      </trkpt>
      <trkpt lat="43.21533" lon="5.48347">
        <ele>286.2</ele>
        <time>2025-10-18T11:04:42Z</time>
      </trkpt>
      <trkpt lat="43.21533" lon="5.48347">
        <ele>286.3</ele>
        <time>2025-10-18T11:04:43Z</time>
      </trkpt>
      <trkpt lat="43.21533" lon="5.48347">
        <ele>286.4</ele>
        <time>2025-10-18T11:04:44Z</time>
      </trkpt>
      <trkpt lat="43.21533" lon="5.48347">
        <ele>286.3</ele>
        <time>2025-10-18T11:04:45Z</time>
      </trkpt>
      <trkpt lat="43.21533" lon="5.48347">
        <ele>286.2</ele>
        <time>2025-10-18T11:04:46Z</time>
      </trkpt>
      <trkpt lat="43.21533" lon="5.48347">
        <ele>286.1</ele>
        <time>2025-10-18T11:04:47Z</time>
      </trkpt>
      <trkpt lat="43.21533" lon="5.48347">
        <ele>286.1</ele>
        <time>2025-10-18T11:04:48Z</time>
      </trkpt>
      <trkpt lat="43.21533" lon="5.48347">
        <ele>286</ele>
        <time>2025-10-18T11:04:49Z</time>
      </trkpt>
      <trkpt lat="43.21533" lon="5.48347">
        <ele>286</ele>
        <time>2025-10-18T11:04:50Z</time>
      </trkpt>
      <trkpt lat="43.21533" lon="5.48347">
        <ele>286</ele>
        <time>2025-10-18T11:04:51Z</time>
      </trkpt>
      <trkpt lat="43.21533" lon="5.48347">
        <ele>286</ele>
        <time>2025-10-18T11:04:52Z</time>
      </trkpt>
      <trkpt lat="43.21532" lon="5.48347">
        <ele>286</ele>
        <time>2025-10-18T11:04:53Z</time>
      </trkpt>
      <trkpt lat="43.21532" lon="5.48347">
        <ele>286</ele>
        <time>2025-10-18T11:04:54Z</time>
      </trkpt>
      <trkpt lat="43.21532" lon="5.48347">
        <ele>286</ele>
        <time>2025-10-18T11:04:55Z</time>
      </trkpt>
      <trkpt lat="43.21532" lon="5.48348">
        <ele>286</ele>
        <time>2025-10-18T11:04:56Z</time>
      </trkpt>
      <trkpt lat="43.21532" lon="5.48347">
        <ele>286</ele>
        <time>2025-10-18T11:04:57Z</time>
      </trkpt>
      <trkpt lat="43.21533" lon="5.48347">
        <ele>286</ele>
        <time>2025-10-18T11:04:58Z</time>
      </trkpt>
      <trkpt lat="43.21533" lon="5.48346">
        <ele>285.9</ele>
        <time>2025-10-18T11:04:59Z</time>
      </trkpt>
      <trkpt lat="43.21533" lon="5.48346">
        <ele>285.9</ele>
        <time>2025-10-18T11:05:00Z</time>
      </trkpt>
      <trkpt lat="43.21533" lon="5.48346">
        <ele>285.9</ele>
        <time>2025-10-18T11:05:01Z</time>
      </trkpt>
      <trkpt lat="43.21533" lon="5.48346">
        <ele>285.8</ele>
        <time>2025-10-18T11:05:02Z</time>
      </trkpt>
      <trkpt lat="43.21533" lon="5.48346">
        <ele>285.8</ele>
        <time>2025-10-18T11:05:03Z</time>
      </trkpt>
      <trkpt lat="43.21533" lon="5.48346">
        <ele>285.8</ele>
        <time>2025-10-18T11:05:04Z</time>
      </trkpt>
      <trkpt lat="43.21533" lon="5.48346">
        <ele>285.8</ele>
        <time>2025-10-18T11:05:05Z</time>
      </trkpt>
      <trkpt lat="43.21533" lon="5.48346">
        <ele>285.7</ele>
        <time>2025-10-18T11:05:06Z</time>
      </trkpt>
      <trkpt lat="43.21533" lon="5.48346">
        <ele>285.7</ele>
        <time>2025-10-18T11:05:07Z</time>
      </trkpt>
      <trkpt lat="43.21533" lon="5.48346">
        <ele>285.6</ele>
        <time>2025-10-18T11:05:08Z</time>
      </trkpt>
      <trkpt lat="43.21533" lon="5.48345">
        <ele>285.7</ele>
        <time>2025-10-18T11:05:09Z</time>
      </trkpt>
      <trkpt lat="43.21533" lon="5.48345">
        <ele>285.7</ele>
        <time>2025-10-18T11:05:10Z</time>
      </trkpt>
      <trkpt lat="43.21533" lon="5.48345">
        <ele>285.7</ele>
        <time>2025-10-18T11:05:11Z</time>
      </trkpt>
      <trkpt lat="43.21533" lon="5.48345">
        <ele>285.6</ele>
        <time>2025-10-18T11:05:12Z</time>
      </trkpt>
      <trkpt lat="43.21533" lon="5.48345">
        <ele>285.6</ele>
        <time>2025-10-18T11:05:13Z</time>
      </trkpt>
      <trkpt lat="43.21534" lon="5.48345">
        <ele>285.6</ele>
        <time>2025-10-18T11:05:14Z</time>
      </trkpt>
      <trkpt lat="43.21534" lon="5.48345">
        <ele>285.6</ele>
        <time>2025-10-18T11:05:15Z</time>
      </trkpt>
      <trkpt lat="43.21534" lon="5.48345">
        <ele>285.6</ele>
        <time>2025-10-18T11:05:16Z</time>
      </trkpt>
      <trkpt lat="43.21534" lon="5.48345">
        <ele>285.6</ele>
        <time>2025-10-18T11:05:17Z</time>
      </trkpt>
      <trkpt lat="43.21534" lon="5.48345">
        <ele>285.6</ele>
        <time>2025-10-18T11:05:18Z</time>
      </trkpt>
      <trkpt lat="43.21534" lon="5.48345">
        <ele>285.6</ele>
        <time>2025-10-18T11:05:19Z</time>
      </trkpt>
      <trkpt lat="43.21534" lon="5.48345">
        <ele>285.6</ele>
        <time>2025-10-18T11:05:20Z</time>
      </trkpt>
      <trkpt lat="43.21534" lon="5.48345">
        <ele>285.6</ele>
        <time>2025-10-18T11:05:21Z</time>
      </trkpt>
      <trkpt lat="43.21534" lon="5.48345">
        <ele>285.6</ele>
        <time>2025-10-18T11:05:22Z</time>
      </trkpt>
      <trkpt lat="43.21534" lon="5.48345">
        <ele>285.6</ele>
        <time>2025-10-18T11:05:23Z</time>
      </trkpt>
      <trkpt lat="43.21534" lon="5.48345">
        <ele>285.5</ele>
        <time>2025-10-18T11:05:24Z</time>
      </trkpt>
      <trkpt lat="43.21534" lon="5.48345">
        <ele>285.5</ele>
        <time>2025-10-18T11:05:25Z</time>
      </trkpt>
      <trkpt lat="43.21534" lon="5.48345">
        <ele>285.5</ele>
        <time>2025-10-18T11:05:26Z</time>
      </trkpt>
      <trkpt lat="43.21534" lon="5.48345">
        <ele>285.5</ele>
        <time>2025-10-18T11:05:27Z</time>
      </trkpt>
      <trkpt lat="43.21534" lon="5.48345">
        <ele>285.5</ele>
        <time>2025-10-18T11:05:28Z</time>
      </trkpt>
      <trkpt lat="43.21534" lon="5.48345">
        <ele>285.5</ele>
        <time>2025-10-18T11:05:29Z</time>
      </trkpt>
      <trkpt lat="43.21534" lon="5.48345">
        <ele>285.4</ele>
        <time>2025-10-18T11:05:30Z</time>
      </trkpt>
      <trkpt lat="43.21534" lon="5.48345">
        <ele>285.4</ele>
        <time>2025-10-18T11:05:31Z</time>
      </trkpt>
      <trkpt lat="43.21534" lon="5.48345">
        <ele>285.4</ele>
        <time>2025-10-18T11:05:32Z</time>
      </trkpt>
      <trkpt lat="43.21534" lon="5.48345">
        <ele>285.4</ele>
        <time>2025-10-18T11:05:33Z</time>
      </trkpt>
      <trkpt lat="43.21534" lon="5.48345">
        <ele>285.4</ele>
        <time>2025-10-18T11:05:34Z</time>
      </trkpt>
      <trkpt lat="43.21534" lon="5.48345">
        <ele>285.4</ele>
        <time>2025-10-18T11:05:35Z</time>
      </trkpt>
      <trkpt lat="43.21534" lon="5.48345">
        <ele>285.5</ele>
        <time>2025-10-18T11:05:36Z</time>
      </trkpt>
      <trkpt lat="43.21535" lon="5.48345">
        <ele>285.5</ele>
        <time>2025-10-18T11:05:37Z</time>
      </trkpt>
      <trkpt lat="43.21535" lon="5.48345">
        <ele>285.5</ele>
        <time>2025-10-18T11:05:38Z</time>
      </trkpt>
      <trkpt lat="43.21535" lon="5.48345">
        <ele>285.6</ele>
        <time>2025-10-18T11:05:39Z</time>
      </trkpt>
      <trkpt lat="43.21535" lon="5.48345">
        <ele>285.6</ele>
        <time>2025-10-18T11:05:40Z</time>
      </trkpt>
      <trkpt lat="43.21535" lon="5.48344">
        <ele>285.6</ele>
        <time>2025-10-18T11:05:41Z</time>
      </trkpt>
      <trkpt lat="43.21535" lon="5.48344">
        <ele>285.6</ele>
        <time>2025-10-18T11:05:42Z</time>
      </trkpt>
      <trkpt lat="43.21535" lon="5.48345">
        <ele>285.6</ele>
        <time>2025-10-18T11:05:43Z</time>
      </trkpt>
      <trkpt lat="43.21535" lon="5.48344">
        <ele>285.6</ele>
        <time>2025-10-18T11:05:44Z</time>
      </trkpt>
      <trkpt lat="43.21535" lon="5.48344">
        <ele>285.6</ele>
        <time>2025-10-18T11:05:45Z</time>
      </trkpt>
      <trkpt lat="43.21535" lon="5.48344">
        <ele>285.6</ele>
        <time>2025-10-18T11:05:46Z</time>
      </trkpt>
      <trkpt lat="43.21535" lon="5.48344">
        <ele>285.6</ele>
        <time>2025-10-18T11:05:47Z</time>
      </trkpt>
      <trkpt lat="43.21535" lon="5.48344">
        <ele>285.6</ele>
        <time>2025-10-18T11:05:48Z</time>
      </trkpt>
      <trkpt lat="43.21535" lon="5.48344">
        <ele>285.6</ele>
        <time>2025-10-18T11:05:49Z</time>
      </trkpt>
      <trkpt lat="43.21534" lon="5.48344">
        <ele>285.7</ele>
        <time>2025-10-18T11:05:50Z</time>
      </trkpt>
      <trkpt lat="43.21534" lon="5.48344">
        <ele>285.7</ele>
        <time>2025-10-18T11:05:51Z</time>
      </trkpt>
      <trkpt lat="43.21534" lon="5.48344">
        <ele>285.7</ele>
        <time>2025-10-18T11:05:52Z</time>
      </trkpt>
      <trkpt lat="43.21534" lon="5.48344">
        <ele>285.6</ele>
        <time>2025-10-18T11:05:53Z</time>
      </trkpt>
      <trkpt lat="43.21534" lon="5.48344">
        <ele>285.7</ele>
        <time>2025-10-18T11:05:54Z</time>
      </trkpt>
      <trkpt lat="43.21534" lon="5.48344">
        <ele>285.7</ele>
        <time>2025-10-18T11:05:55Z</time>
      </trkpt>
      <trkpt lat="43.21534" lon="5.48344">
        <ele>285.8</ele>
        <time>2025-10-18T11:05:56Z</time>
      </trkpt>
      <trkpt lat="43.21534" lon="5.48344">
        <ele>285.8</ele>
        <time>2025-10-18T11:05:57Z</time>
      </trkpt>
      <trkpt lat="43.21534" lon="5.48344">
        <ele>285.8</ele>
        <time>2025-10-18T11:05:58Z</time>
      </trkpt>
      <trkpt lat="43.21534" lon="5.48344">
        <ele>285.8</ele>
        <time>2025-10-18T11:05:59Z</time>
      </trkpt>
      <trkpt lat="43.21534" lon="5.48344">
        <ele>285.8</ele>
        <time>2025-10-18T11:06:00Z</time>
      </trkpt>
      <trkpt lat="43.21534" lon="5.48344">
        <ele>285.8</ele>
        <time>2025-10-18T11:06:01Z</time>
      </trkpt>
      <trkpt lat="43.21534" lon="5.48344">
        <ele>285.8</ele>
        <time>2025-10-18T11:06:02Z</time>
      </trkpt>
      <trkpt lat="43.21534" lon="5.48344">
        <ele>285.9</ele>
        <time>2025-10-18T11:06:03Z</time>
      </trkpt>
      <trkpt lat="43.21535" lon="5.48344">
        <ele>285.9</ele>
        <time>2025-10-18T11:06:04Z</time>
      </trkpt>
      <trkpt lat="43.21535" lon="5.48344">
        <ele>285.8</ele>
        <time>2025-10-18T11:06:05Z</time>
      </trkpt>
      <trkpt lat="43.21535" lon="5.48344">
        <ele>285.8</ele>
        <time>2025-10-18T11:06:06Z</time>
      </trkpt>
      <trkpt lat="43.21535" lon="5.48344">
        <ele>285.7</ele>
        <time>2025-10-18T11:06:07Z</time>
      </trkpt>
      <trkpt lat="43.21535" lon="5.48344">
        <ele>285.7</ele>
        <time>2025-10-18T11:06:08Z</time>
      </trkpt>
      <trkpt lat="43.21535" lon="5.48344">
        <ele>285.7</ele>
        <time>2025-10-18T11:06:09Z</time>
      </trkpt>
      <trkpt lat="43.21535" lon="5.48344">
        <ele>285.6</ele>
        <time>2025-10-18T11:06:10Z</time>
      </trkpt>
      <trkpt lat="43.21535" lon="5.48344">
        <ele>285.7</ele>
        <time>2025-10-18T11:06:11Z</time>
      </trkpt>
      <trkpt lat="43.21535" lon="5.48344">
        <ele>285.7</ele>
        <time>2025-10-18T11:06:12Z</time>
      </trkpt>
      <trkpt lat="43.21535" lon="5.48344">
        <ele>285.8</ele>
        <time>2025-10-18T11:06:13Z</time>
      </trkpt>
      <trkpt lat="43.21535" lon="5.48344">
        <ele>285.8</ele>
        <time>2025-10-18T11:06:14Z</time>
      </trkpt>
      <trkpt lat="43.21535" lon="5.48344">
        <ele>285.8</ele>
        <time>2025-10-18T11:06:15Z</time>
      </trkpt>
      <trkpt lat="43.21536" lon="5.48345">
        <ele>285.8</ele>
        <time>2025-10-18T11:06:16Z</time>
      </trkpt>
      <trkpt lat="43.21536" lon="5.48345">
        <ele>285.8</ele>
        <time>2025-10-18T11:06:17Z</time>
      </trkpt>
      <trkpt lat="43.21536" lon="5.48345">
        <ele>286</ele>
        <time>2025-10-18T11:06:18Z</time>
      </trkpt>
      <trkpt lat="43.21536" lon="5.48345">
        <ele>286</ele>
        <time>2025-10-18T11:06:19Z</time>
      </trkpt>
      <trkpt lat="43.21536" lon="5.48345">
        <ele>285.9</ele>
        <time>2025-10-18T11:06:20Z</time>
      </trkpt>
      <trkpt lat="43.21536" lon="5.48345">
        <ele>286</ele>
        <time>2025-10-18T11:06:21Z</time>
      </trkpt>
      <trkpt lat="43.21536" lon="5.48345">
        <ele>286</ele>
        <time>2025-10-18T11:06:22Z</time>
      </trkpt>
      <trkpt lat="43.21536" lon="5.48345">
        <ele>286</ele>
        <time>2025-10-18T11:06:23Z</time>
      </trkpt>
      <trkpt lat="43.21536" lon="5.48345">
        <ele>286</ele>
        <time>2025-10-18T11:06:24Z</time>
      </trkpt>
      <trkpt lat="43.21536" lon="5.48345">
        <ele>285.9</ele>
        <time>2025-10-18T11:06:25Z</time>
      </trkpt>
      <trkpt lat="43.21536" lon="5.48345">
        <ele>285.7</ele>
        <time>2025-10-18T11:06:26Z</time>
      </trkpt>
      <trkpt lat="43.21536" lon="5.48345">
        <ele>285.6</ele>
        <time>2025-10-18T11:06:27Z</time>
      </trkpt>
      <trkpt lat="43.21536" lon="5.48345">
        <ele>285.7</ele>
        <time>2025-10-18T11:06:28Z</time>
      </trkpt>
      <trkpt lat="43.21536" lon="5.48345">
        <ele>285.7</ele>
        <time>2025-10-18T11:06:29Z</time>
      </trkpt>
      <trkpt lat="43.21536" lon="5.48345">
        <ele>285.7</ele>
        <time>2025-10-18T11:06:30Z</time>
      </trkpt>
      <trkpt lat="43.21536" lon="5.48345">
        <ele>285.7</ele>
        <time>2025-10-18T11:06:31Z</time>
      </trkpt>
      <trkpt lat="43.21536" lon="5.48345">
        <ele>285.8</ele>
        <time>2025-10-18T11:06:32Z</time>
      </trkpt>
      <trkpt lat="43.21536" lon="5.48345">
        <ele>285.8</ele>
        <time>2025-10-18T11:06:33Z</time>
      </trkpt>
      <trkpt lat="43.21537" lon="5.48345">
        <ele>285.9</ele>
        <time>2025-10-18T11:06:34Z</time>
      </trkpt>
      <trkpt lat="43.21536" lon="5.48345">
        <ele>285.9</ele>
        <time>2025-10-18T11:06:35Z</time>
      </trkpt>
      <trkpt lat="43.21536" lon="5.48345">
        <ele>285.9</ele>
        <time>2025-10-18T11:06:36Z</time>
      </trkpt>
      <trkpt lat="43.21536" lon="5.48345">
        <ele>285.9</ele>
        <time>2025-10-18T11:06:37Z</time>
      </trkpt>
      <trkpt lat="43.21536" lon="5.48345">
        <ele>286</ele>
        <time>2025-10-18T11:06:38Z</time>
      </trkpt>
      <trkpt lat="43.21536" lon="5.48344">
        <ele>286</ele>
        <time>2025-10-18T11:06:39Z</time>
      </trkpt>
      <trkpt lat="43.21536" lon="5.48344">
        <ele>286</ele>
        <time>2025-10-18T11:06:40Z</time>
      </trkpt>
      <trkpt lat="43.21536" lon="5.48344">
        <ele>286</ele>
        <time>2025-10-18T11:06:41Z</time>
      </trkpt>
      <trkpt lat="43.21536" lon="5.48344">
        <ele>286</ele>
        <time>2025-10-18T11:06:42Z</time>
      </trkpt>
      <trkpt lat="43.21536" lon="5.48344">
        <ele>286</ele>
        <time>2025-10-18T11:06:43Z</time>
      </trkpt>
      <trkpt lat="43.21536" lon="5.48344">
        <ele>285.9</ele>
        <time>2025-10-18T11:06:44Z</time>
      </trkpt>
      <trkpt lat="43.21536" lon="5.48344">
        <ele>285.9</ele>
        <time>2025-10-18T11:06:45Z</time>
      </trkpt>
      <trkpt lat="43.21536" lon="5.48344">
        <ele>285.8</ele>
        <time>2025-10-18T11:06:46Z</time>
      </trkpt>
      <trkpt lat="43.21536" lon="5.48344">
        <ele>285.7</ele>
        <time>2025-10-18T11:06:47Z</time>
      </trkpt>
      <trkpt lat="43.21536" lon="5.48344">
        <ele>285.7</ele>
        <time>2025-10-18T11:06:48Z</time>
      </trkpt>
      <trkpt lat="43.21536" lon="5.48344">
        <ele>285.6</ele>
        <time>2025-10-18T11:06:49Z</time>
      </trkpt>
      <trkpt lat="43.21536" lon="5.48344">
        <ele>285.6</ele>
        <time>2025-10-18T11:06:50Z</time>
      </trkpt>
      <trkpt lat="43.21536" lon="5.48344">
        <ele>285.7</ele>
        <time>2025-10-18T11:06:51Z</time>
      </trkpt>
      <trkpt lat="43.21536" lon="5.48344">
        <ele>285.7</ele>
        <time>2025-10-18T11:06:52Z</time>
      </trkpt>
      <trkpt lat="43.21536" lon="5.48344">
        <ele>285.7</ele>
        <time>2025-10-18T11:06:53Z</time>
      </trkpt>
      <trkpt lat="43.21536" lon="5.48344">
        <ele>285.7</ele>
        <time>2025-10-18T11:06:54Z</time>
      </trkpt>
      <trkpt lat="43.21536" lon="5.48344">
        <ele>285.7</ele>
        <time>2025-10-18T11:06:55Z</time>
      </trkpt>
      <trkpt lat="43.21536" lon="5.48344">
        <ele>285.7</ele>
        <time>2025-10-18T11:06:56Z</time>
      </trkpt>
      <trkpt lat="43.21536" lon="5.48344">
        <ele>285.8</ele>
        <time>2025-10-18T11:06:57Z</time>
      </trkpt>
      <trkpt lat="43.21536" lon="5.48344">
        <ele>285.8</ele>
        <time>2025-10-18T11:06:58Z</time>
      </trkpt>
      <trkpt lat="43.21536" lon="5.48344">
        <ele>285.8</ele>
        <time>2025-10-18T11:06:59Z</time>
      </trkpt>
      <trkpt lat="43.21536" lon="5.48344">
        <ele>285.8</ele>
        <time>2025-10-18T11:07:00Z</time>
      </trkpt>
      <trkpt lat="43.21536" lon="5.48344">
        <ele>285.7</ele>
        <time>2025-10-18T11:07:01Z</time>
      </trkpt>
      <trkpt lat="43.21536" lon="5.48344">
        <ele>285.8</ele>
        <time>2025-10-18T11:07:02Z</time>
      </trkpt>
      <trkpt lat="43.21536" lon="5.48344">
        <ele>285.8</ele>
        <time>2025-10-18T11:07:03Z</time>
      </trkpt>
      <trkpt lat="43.21536" lon="5.48344">
        <ele>285.8</ele>
        <time>2025-10-18T11:07:04Z</time>
      </trkpt>
      <trkpt lat="43.21536" lon="5.48344">
        <ele>285.8</ele>
        <time>2025-10-18T11:07:05Z</time>
      </trkpt>
      <trkpt lat="43.21535" lon="5.48344">
        <ele>285.8</ele>
        <time>2025-10-18T11:07:06Z</time>
      </trkpt>
      <trkpt lat="43.21535" lon="5.48344">
        <ele>285.8</ele>
        <time>2025-10-18T11:07:07Z</time>
      </trkpt>
      <trkpt lat="43.21536" lon="5.48345">
        <ele>285.8</ele>
        <time>2025-10-18T11:07:08Z</time>
      </trkpt>
      <trkpt lat="43.21536" lon="5.48345">
        <ele>285.8</ele>
        <time>2025-10-18T11:07:09Z</time>
      </trkpt>
      <trkpt lat="43.21536" lon="5.48345">
        <ele>285.8</ele>
        <time>2025-10-18T11:07:10Z</time>
      </trkpt>
      <trkpt lat="43.21536" lon="5.48344">
        <ele>285.9</ele>
        <time>2025-10-18T11:07:11Z</time>
      </trkpt>
      <trkpt lat="43.21536" lon="5.48344">
        <ele>285.9</ele>
        <time>2025-10-18T11:07:12Z</time>
      </trkpt>
      <trkpt lat="43.21536" lon="5.48344">
        <ele>285.9</ele>
        <time>2025-10-18T11:07:13Z</time>
      </trkpt>
      <trkpt lat="43.21536" lon="5.48344">
        <ele>285.9</ele>
        <time>2025-10-18T11:07:14Z</time>
      </trkpt>
      <trkpt lat="43.21536" lon="5.48344">
        <ele>285.9</ele>
        <time>2025-10-18T11:07:15Z</time>
      </trkpt>
      <trkpt lat="43.21536" lon="5.48344">
        <ele>285.9</ele>
        <time>2025-10-18T11:07:16Z</time>
      </trkpt>
      <trkpt lat="43.21536" lon="5.48344">
        <ele>285.9</ele>
        <time>2025-10-18T11:07:17Z</time>
      </trkpt>
      <trkpt lat="43.21536" lon="5.48344">
        <ele>285.9</ele>
        <time>2025-10-18T11:07:18Z</time>
      </trkpt>
      <trkpt lat="43.21536" lon="5.48344">
        <ele>285.9</ele>
        <time>2025-10-18T11:07:19Z</time>
      </trkpt>
      <trkpt lat="43.21536" lon="5.48344">
        <ele>285.9</ele>
        <time>2025-10-18T11:07:20Z</time>
      </trkpt>
      <trkpt lat="43.21536" lon="5.48344">
        <ele>285.9</ele>
        <time>2025-10-18T11:07:21Z</time>
      </trkpt>
      <trkpt lat="43.21536" lon="5.48344">
        <ele>285.9</ele>
        <time>2025-10-18T11:07:22Z</time>
      </trkpt>
      <trkpt lat="43.21536" lon="5.48344">
        <ele>285.9</ele>
        <time>2025-10-18T11:07:23Z</time>
      </trkpt>
      <trkpt lat="43.21536" lon="5.48344">
        <ele>285.9</ele>
        <time>2025-10-18T11:07:24Z</time>
      </trkpt>
      <trkpt lat="43.21536" lon="5.48344">
        <ele>285.9</ele>
        <time>2025-10-18T11:07:25Z</time>
      </trkpt>
      <trkpt lat="43.21536" lon="5.48344">
        <ele>285.9</ele>
        <time>2025-10-18T11:07:26Z</time>
      </trkpt>
      <trkpt lat="43.21536" lon="5.48344">
        <ele>285.9</ele>
        <time>2025-10-18T11:07:27Z</time>
      </trkpt>
      <trkpt lat="43.21536" lon="5.48344">
        <ele>285.8</ele>
        <time>2025-10-18T11:07:28Z</time>
      </trkpt>
      <trkpt lat="43.21536" lon="5.48344">
        <ele>285.8</ele>
        <time>2025-10-18T11:07:29Z</time>
      </trkpt>
      <trkpt lat="43.21536" lon="5.48345">
        <ele>285.8</ele>
        <time>2025-10-18T11:07:30Z</time>
      </trkpt>
      <trkpt lat="43.21536" lon="5.48345">
        <ele>285.6</ele>
        <time>2025-10-18T11:07:31Z</time>
      </trkpt>
      <trkpt lat="43.21536" lon="5.48345">
        <ele>285.6</ele>
        <time>2025-10-18T11:07:32Z</time>
      </trkpt>
      <trkpt lat="43.21536" lon="5.48345">
        <ele>285.6</ele>
        <time>2025-10-18T11:07:33Z</time>
      </trkpt>
      <trkpt lat="43.21536" lon="5.48345">
        <ele>285.7</ele>
        <time>2025-10-18T11:07:34Z</time>
      </trkpt>
      <trkpt lat="43.21536" lon="5.48345">
        <ele>285.7</ele>
        <time>2025-10-18T11:07:35Z</time>
      </trkpt>
      <trkpt lat="43.21536" lon="5.48345">
        <ele>285.7</ele>
        <time>2025-10-18T11:07:36Z</time>
      </trkpt>
      <trkpt lat="43.21536" lon="5.48345">
        <ele>285.8</ele>
        <time>2025-10-18T11:07:37Z</time>
      </trkpt>
      <trkpt lat="43.21536" lon="5.48345">
        <ele>285.7</ele>
        <time>2025-10-18T11:07:38Z</time>
      </trkpt>
      <trkpt lat="43.21536" lon="5.48345">
        <ele>285.7</ele>
        <time>2025-10-18T11:07:39Z</time>
      </trkpt>
      <trkpt lat="43.21536" lon="5.48345">
        <ele>285.7</ele>
        <time>2025-10-18T11:07:40Z</time>
      </trkpt>
      <trkpt lat="43.21536" lon="5.48345">
        <ele>285.7</ele>
        <time>2025-10-18T11:07:41Z</time>
      </trkpt>
      <trkpt lat="43.21536" lon="5.48345">
        <ele>285.7</ele>
        <time>2025-10-18T11:07:42Z</time>
      </trkpt>
      <trkpt lat="43.21536" lon="5.48345">
        <ele>285.7</ele>
        <time>2025-10-18T11:07:43Z</time>
      </trkpt>
      <trkpt lat="43.21536" lon="5.48345">
        <ele>285.8</ele>
        <time>2025-10-18T11:07:44Z</time>
      </trkpt>
      <trkpt lat="43.21536" lon="5.48345">
        <ele>285.8</ele>
        <time>2025-10-18T11:07:45Z</time>
      </trkpt>
      <trkpt lat="43.21536" lon="5.48345">
        <ele>285.7</ele>
        <time>2025-10-18T11:07:46Z</time>
      </trkpt>
      <trkpt lat="43.21536" lon="5.48345">
        <ele>285.7</ele>
        <time>2025-10-18T11:07:47Z</time>
      </trkpt>
      <trkpt lat="43.21536" lon="5.48345">
        <ele>285.7</ele>
        <time>2025-10-18T11:07:48Z</time>
      </trkpt>
      <trkpt lat="43.21536" lon="5.48345">
        <ele>285.8</ele>
        <time>2025-10-18T11:07:49Z</time>
      </trkpt>
      <trkpt lat="43.21536" lon="5.48345">
        <ele>285.7</ele>
        <time>2025-10-18T11:07:50Z</time>
      </trkpt>
      <trkpt lat="43.21536" lon="5.48345">
        <ele>285.7</ele>
        <time>2025-10-18T11:07:51Z</time>
      </trkpt>
      <trkpt lat="43.21536" lon="5.48345">
        <ele>285.7</ele>
        <time>2025-10-18T11:07:52Z</time>
      </trkpt>
      <trkpt lat="43.21536" lon="5.48345">
        <ele>285.7</ele>
        <time>2025-10-18T11:07:53Z</time>
      </trkpt>
      <trkpt lat="43.21536" lon="5.48345">
        <ele>285.8</ele>
        <time>2025-10-18T11:07:54Z</time>
      </trkpt>
      <trkpt lat="43.21536" lon="5.48345">
        <ele>285.7</ele>
        <time>2025-10-18T11:07:55Z</time>
      </trkpt>
      <trkpt lat="43.21536" lon="5.48345">
        <ele>285.7</ele>
        <time>2025-10-18T11:07:56Z</time>
      </trkpt>
      <trkpt lat="43.21536" lon="5.48345">
        <ele>285.6</ele>
        <time>2025-10-18T11:07:57Z</time>
      </trkpt>
      <trkpt lat="43.21536" lon="5.48345">
        <ele>285.6</ele>
        <time>2025-10-18T11:07:58Z</time>
      </trkpt>
      <trkpt lat="43.21536" lon="5.48345">
        <ele>285.6</ele>
        <time>2025-10-18T11:07:59Z</time>
      </trkpt>
      <trkpt lat="43.21536" lon="5.48345">
        <ele>285.7</ele>
        <time>2025-10-18T11:08:00Z</time>
      </trkpt>
      <trkpt lat="43.21536" lon="5.48345">
        <ele>285.8</ele>
        <time>2025-10-18T11:08:01Z</time>
      </trkpt>
      <trkpt lat="43.21536" lon="5.48345">
        <ele>285.9</ele>
        <time>2025-10-18T11:08:02Z</time>
      </trkpt>
      <trkpt lat="43.21536" lon="5.48345">
        <ele>285.9</ele>
        <time>2025-10-18T11:08:03Z</time>
      </trkpt>
      <trkpt lat="43.21536" lon="5.48345">
        <ele>286</ele>
        <time>2025-10-18T11:08:04Z</time>
      </trkpt>
      <trkpt lat="43.21536" lon="5.48345">
        <ele>286</ele>
        <time>2025-10-18T11:08:05Z</time>
      </trkpt>
      <trkpt lat="43.21536" lon="5.48345">
        <ele>286</ele>
        <time>2025-10-18T11:08:06Z</time>
      </trkpt>
      <trkpt lat="43.21536" lon="5.48345">
        <ele>286</ele>
        <time>2025-10-18T11:08:07Z</time>
      </trkpt>
      <trkpt lat="43.21536" lon="5.48345">
        <ele>286</ele>
        <time>2025-10-18T11:08:08Z</time>
      </trkpt>
      <trkpt lat="43.21536" lon="5.48345">
        <ele>286</ele>
        <time>2025-10-18T11:08:09Z</time>
      </trkpt>
      <trkpt lat="43.21536" lon="5.48345">
        <ele>286</ele>
        <time>2025-10-18T11:08:10Z</time>
      </trkpt>
      <trkpt lat="43.21536" lon="5.48345">
        <ele>286</ele>
        <time>2025-10-18T11:08:11Z</time>
      </trkpt>
      <trkpt lat="43.21536" lon="5.48345">
        <ele>285.9</ele>
        <time>2025-10-18T11:08:12Z</time>
      </trkpt>
      <trkpt lat="43.21536" lon="5.48344">
        <ele>285.8</ele>
        <time>2025-10-18T11:08:13Z</time>
      </trkpt>
      <trkpt lat="43.21536" lon="5.48344">
        <ele>285.8</ele>
        <time>2025-10-18T11:08:14Z</time>
      </trkpt>
      <trkpt lat="43.21536" lon="5.48344">
        <ele>285.8</ele>
        <time>2025-10-18T11:08:15Z</time>
      </trkpt>
      <trkpt lat="43.21536" lon="5.48344">
        <ele>285.7</ele>
        <time>2025-10-18T11:08:16Z</time>
      </trkpt>
      <trkpt lat="43.21536" lon="5.48344">
        <ele>285.8</ele>
        <time>2025-10-18T11:08:17Z</time>
      </trkpt>
      <trkpt lat="43.21536" lon="5.48344">
        <ele>285.8</ele>
        <time>2025-10-18T11:08:18Z</time>
      </trkpt>
      <trkpt lat="43.21536" lon="5.48344">
        <ele>285.8</ele>
        <time>2025-10-18T11:08:19Z</time>
      </trkpt>
      <trkpt lat="43.21536" lon="5.48344">
        <ele>285.8</ele>
        <time>2025-10-18T11:08:20Z</time>
      </trkpt>
      <trkpt lat="43.21536" lon="5.48344">
        <ele>285.8</ele>
        <time>2025-10-18T11:08:21Z</time>
      </trkpt>
      <trkpt lat="43.21536" lon="5.48344">
        <ele>285.9</ele>
        <time>2025-10-18T11:08:22Z</time>
      </trkpt>
      <trkpt lat="43.21536" lon="5.48344">
        <ele>285.7</ele>
        <time>2025-10-18T11:08:23Z</time>
      </trkpt>
      <trkpt lat="43.21535" lon="5.48344">
        <ele>285.7</ele>
        <time>2025-10-18T11:08:24Z</time>
      </trkpt>
      <trkpt lat="43.21535" lon="5.48344">
        <ele>285.7</ele>
        <time>2025-10-18T11:08:25Z</time>
      </trkpt>
      <trkpt lat="43.21535" lon="5.48344">
        <ele>285.6</ele>
        <time>2025-10-18T11:08:26Z</time>
      </trkpt>
      <trkpt lat="43.21535" lon="5.48343">
        <ele>285.6</ele>
        <time>2025-10-18T11:08:27Z</time>
      </trkpt>
      <trkpt lat="43.21535" lon="5.48343">
        <ele>285.6</ele>
        <time>2025-10-18T11:08:28Z</time>
      </trkpt>
      <trkpt lat="43.21535" lon="5.48343">
        <ele>285.6</ele>
        <time>2025-10-18T11:08:29Z</time>
      </trkpt>
      <trkpt lat="43.21535" lon="5.48343">
        <ele>285.6</ele>
        <time>2025-10-18T11:08:30Z</time>
      </trkpt>
      <trkpt lat="43.21535" lon="5.48343">
        <ele>285.7</ele>
        <time>2025-10-18T11:08:31Z</time>
      </trkpt>
      <trkpt lat="43.21535" lon="5.48343">
        <ele>285.7</ele>
        <time>2025-10-18T11:08:32Z</time>
      </trkpt>
      <trkpt lat="43.21535" lon="5.48343">
        <ele>285.7</ele>
        <time>2025-10-18T11:08:33Z</time>
      </trkpt>
      <trkpt lat="43.21535" lon="5.48343">
        <ele>285.7</ele>
        <time>2025-10-18T11:08:34Z</time>
      </trkpt>
      <trkpt lat="43.21535" lon="5.48343">
        <ele>285.7</ele>
        <time>2025-10-18T11:08:35Z</time>
      </trkpt>
      <trkpt lat="43.21535" lon="5.48343">
        <ele>285.8</ele>
        <time>2025-10-18T11:08:36Z</time>
      </trkpt>
      <trkpt lat="43.21534" lon="5.48343">
        <ele>285.8</ele>
        <time>2025-10-18T11:08:37Z</time>
      </trkpt>
      <trkpt lat="43.21534" lon="5.48343">
        <ele>285.8</ele>
        <time>2025-10-18T11:08:38Z</time>
      </trkpt>
      <trkpt lat="43.21534" lon="5.48343">
        <ele>285.8</ele>
        <time>2025-10-18T11:08:39Z</time>
      </trkpt>
      <trkpt lat="43.21534" lon="5.48343">
        <ele>285.8</ele>
        <time>2025-10-18T11:08:40Z</time>
      </trkpt>
      <trkpt lat="43.21534" lon="5.48343">
        <ele>285.7</ele>
        <time>2025-10-18T11:08:41Z</time>
      </trkpt>
      <trkpt lat="43.21534" lon="5.48343">
        <ele>285.7</ele>
        <time>2025-10-18T11:08:42Z</time>
      </trkpt>
      <trkpt lat="43.21534" lon="5.48343">
        <ele>285.7</ele>
        <time>2025-10-18T11:08:43Z</time>
      </trkpt>
      <trkpt lat="43.21534" lon="5.48343">
        <ele>285.8</ele>
        <time>2025-10-18T11:08:44Z</time>
      </trkpt>
      <trkpt lat="43.21534" lon="5.48343">
        <ele>285.7</ele>
        <time>2025-10-18T11:08:45Z</time>
      </trkpt>
      <trkpt lat="43.21534" lon="5.48343">
        <ele>285.7</ele>
        <time>2025-10-18T11:08:46Z</time>
      </trkpt>
      <trkpt lat="43.21534" lon="5.48343">
        <ele>285.7</ele>
        <time>2025-10-18T11:08:47Z</time>
      </trkpt>
      <trkpt lat="43.21534" lon="5.48343">
        <ele>285.7</ele>
        <time>2025-10-18T11:08:48Z</time>
      </trkpt>
      <trkpt lat="43.21534" lon="5.48343">
        <ele>285.7</ele>
        <time>2025-10-18T11:08:49Z</time>
      </trkpt>
      <trkpt lat="43.21534" lon="5.48343">
        <ele>285.7</ele>
        <time>2025-10-18T11:08:50Z</time>
      </trkpt>
      <trkpt lat="43.21534" lon="5.48343">
        <ele>285.7</ele>
        <time>2025-10-18T11:08:51Z</time>
      </trkpt>
      <trkpt lat="43.21534" lon="5.48343">
        <ele>285.8</ele>
        <time>2025-10-18T11:08:52Z</time>
      </trkpt>
      <trkpt lat="43.21534" lon="5.48343">
        <ele>285.8</ele>
        <time>2025-10-18T11:08:53Z</time>
      </trkpt>
      <trkpt lat="43.21534" lon="5.48343">
        <ele>285.9</ele>
        <time>2025-10-18T11:08:54Z</time>
      </trkpt>
      <trkpt lat="43.21534" lon="5.48343">
        <ele>285.9</ele>
        <time>2025-10-18T11:08:55Z</time>
      </trkpt>
      <trkpt lat="43.21534" lon="5.48343">
        <ele>285.9</ele>
        <time>2025-10-18T11:08:56Z</time>
      </trkpt>
      <trkpt lat="43.21534" lon="5.48343">
        <ele>285.9</ele>
        <time>2025-10-18T11:08:57Z</time>
      </trkpt>
      <trkpt lat="43.21534" lon="5.48343">
        <ele>286</ele>
        <time>2025-10-18T11:08:58Z</time>
      </trkpt>
      <trkpt lat="43.21534" lon="5.48343">
        <ele>285.9</ele>
        <time>2025-10-18T11:08:59Z</time>
      </trkpt>
      <trkpt lat="43.21535" lon="5.48343">
        <ele>285.9</ele>
        <time>2025-10-18T11:09:00Z</time>
      </trkpt>
      <trkpt lat="43.21535" lon="5.48343">
        <ele>285.9</ele>
        <time>2025-10-18T11:09:01Z</time>
      </trkpt>
      <trkpt lat="43.21535" lon="5.48343">
        <ele>285.9</ele>
        <time>2025-10-18T11:09:02Z</time>
      </trkpt>
      <trkpt lat="43.21535" lon="5.48343">
        <ele>285.8</ele>
        <time>2025-10-18T11:09:03Z</time>
      </trkpt>
      <trkpt lat="43.21535" lon="5.48343">
        <ele>285.8</ele>
        <time>2025-10-18T11:09:04Z</time>
      </trkpt>
      <trkpt lat="43.21535" lon="5.48343">
        <ele>285.8</ele>
        <time>2025-10-18T11:09:05Z</time>
      </trkpt>
      <trkpt lat="43.21535" lon="5.48343">
        <ele>285.8</ele>
        <time>2025-10-18T11:09:06Z</time>
      </trkpt>
      <trkpt lat="43.21535" lon="5.48343">
        <ele>285.8</ele>
        <time>2025-10-18T11:09:07Z</time>
      </trkpt>
      <trkpt lat="43.21535" lon="5.48343">
        <ele>285.8</ele>
        <time>2025-10-18T11:09:08Z</time>
      </trkpt>
      <trkpt lat="43.21535" lon="5.48343">
        <ele>285.8</ele>
        <time>2025-10-18T11:09:09Z</time>
      </trkpt>
      <trkpt lat="43.21535" lon="5.48343">
        <ele>285.9</ele>
        <time>2025-10-18T11:09:10Z</time>
      </trkpt>
      <trkpt lat="43.21535" lon="5.48342">
        <ele>285.9</ele>
        <time>2025-10-18T11:09:11Z</time>
      </trkpt>
      <trkpt lat="43.21534" lon="5.48342">
        <ele>286</ele>
        <time>2025-10-18T11:09:12Z</time>
      </trkpt>
      <trkpt lat="43.21535" lon="5.48342">
        <ele>286.1</ele>
        <time>2025-10-18T11:09:13Z</time>
      </trkpt>
      <trkpt lat="43.21535" lon="5.48342">
        <ele>286</ele>
        <time>2025-10-18T11:09:14Z</time>
      </trkpt>
      <trkpt lat="43.21535" lon="5.48342">
        <ele>285.9</ele>
        <time>2025-10-18T11:09:15Z</time>
      </trkpt>
      <trkpt lat="43.21535" lon="5.48342">
        <ele>285.9</ele>
        <time>2025-10-18T11:09:16Z</time>
      </trkpt>
      <trkpt lat="43.21535" lon="5.48342">
        <ele>285.8</ele>
        <time>2025-10-18T11:09:17Z</time>
      </trkpt>
      <trkpt lat="43.21535" lon="5.48342">
        <ele>285.9</ele>
        <time>2025-10-18T11:09:18Z</time>
      </trkpt>
      <trkpt lat="43.21535" lon="5.48343">
        <ele>285.9</ele>
        <time>2025-10-18T11:09:19Z</time>
      </trkpt>
      <trkpt lat="43.21535" lon="5.48342">
        <ele>286</ele>
        <time>2025-10-18T11:09:20Z</time>
      </trkpt>
      <trkpt lat="43.21535" lon="5.48343">
        <ele>286</ele>
        <time>2025-10-18T11:09:21Z</time>
      </trkpt>
      <trkpt lat="43.21535" lon="5.48343">
        <ele>286</ele>
        <time>2025-10-18T11:09:22Z</time>
      </trkpt>
      <trkpt lat="43.21535" lon="5.48343">
        <ele>286</ele>
        <time>2025-10-18T11:09:23Z</time>
      </trkpt>
      <trkpt lat="43.21535" lon="5.48343">
        <ele>286</ele>
        <time>2025-10-18T11:09:24Z</time>
      </trkpt>
      <trkpt lat="43.21535" lon="5.48343">
        <ele>286</ele>
        <time>2025-10-18T11:09:25Z</time>
      </trkpt>
      <trkpt lat="43.21535" lon="5.48343">
        <ele>286</ele>
        <time>2025-10-18T11:09:26Z</time>
      </trkpt>
      <trkpt lat="43.21535" lon="5.48343">
        <ele>286</ele>
        <time>2025-10-18T11:09:27Z</time>
      </trkpt>
      <trkpt lat="43.21535" lon="5.48343">
        <ele>285.9</ele>
        <time>2025-10-18T11:09:28Z</time>
      </trkpt>
      <trkpt lat="43.21535" lon="5.48343">
        <ele>285.9</ele>
        <time>2025-10-18T11:09:29Z</time>
      </trkpt>
      <trkpt lat="43.21535" lon="5.48343">
        <ele>285.9</ele>
        <time>2025-10-18T11:09:30Z</time>
      </trkpt>
      <trkpt lat="43.21535" lon="5.48343">
        <ele>285.9</ele>
        <time>2025-10-18T11:09:31Z</time>
      </trkpt>
      <trkpt lat="43.21535" lon="5.48343">
        <ele>285.9</ele>
        <time>2025-10-18T11:09:32Z</time>
      </trkpt>
      <trkpt lat="43.21535" lon="5.48343">
        <ele>285.9</ele>
        <time>2025-10-18T11:09:33Z</time>
      </trkpt>
      <trkpt lat="43.21535" lon="5.48343">
        <ele>285.9</ele>
        <time>2025-10-18T11:09:34Z</time>
      </trkpt>
      <trkpt lat="43.21535" lon="5.48343">
        <ele>285.9</ele>
        <time>2025-10-18T11:09:35Z</time>
      </trkpt>
      <trkpt lat="43.21535" lon="5.48343">
        <ele>285.8</ele>
        <time>2025-10-18T11:09:36Z</time>
      </trkpt>
      <trkpt lat="43.21535" lon="5.48343">
        <ele>285.8</ele>
        <time>2025-10-18T11:09:37Z</time>
      </trkpt>
      <trkpt lat="43.21535" lon="5.48343">
        <ele>285.7</ele>
        <time>2025-10-18T11:09:38Z</time>
      </trkpt>
      <trkpt lat="43.21535" lon="5.48343">
        <ele>285.7</ele>
        <time>2025-10-18T11:09:39Z</time>
      </trkpt>
      <trkpt lat="43.21535" lon="5.48343">
        <ele>285.7</ele>
        <time>2025-10-18T11:09:40Z</time>
      </trkpt>
      <trkpt lat="43.21535" lon="5.48343">
        <ele>285.7</ele>
        <time>2025-10-18T11:09:41Z</time>
      </trkpt>
      <trkpt lat="43.21535" lon="5.48343">
        <ele>285.8</ele>
        <time>2025-10-18T11:09:42Z</time>
      </trkpt>
      <trkpt lat="43.21535" lon="5.48343">
        <ele>285.8</ele>
        <time>2025-10-18T11:09:43Z</time>
      </trkpt>
      <trkpt lat="43.21535" lon="5.48343">
        <ele>285.9</ele>
        <time>2025-10-18T11:09:44Z</time>
      </trkpt>
      <trkpt lat="43.21535" lon="5.48343">
        <ele>285.9</ele>
        <time>2025-10-18T11:09:45Z</time>
      </trkpt>
      <trkpt lat="43.21535" lon="5.48343">
        <ele>286</ele>
        <time>2025-10-18T11:09:46Z</time>
      </trkpt>
      <trkpt lat="43.21535" lon="5.48343">
        <ele>286</ele>
        <time>2025-10-18T11:09:47Z</time>
      </trkpt>
      <trkpt lat="43.21535" lon="5.48343">
        <ele>286</ele>
        <time>2025-10-18T11:09:48Z</time>
      </trkpt>
      <trkpt lat="43.21535" lon="5.48343">
        <ele>286</ele>
        <time>2025-10-18T11:09:49Z</time>
      </trkpt>
      <trkpt lat="43.21535" lon="5.48343">
        <ele>286</ele>
        <time>2025-10-18T11:09:50Z</time>
      </trkpt>
      <trkpt lat="43.21535" lon="5.48343">
        <ele>285.9</ele>
        <time>2025-10-18T11:09:51Z</time>
      </trkpt>
      <trkpt lat="43.21535" lon="5.48343">
        <ele>285.9</ele>
        <time>2025-10-18T11:09:52Z</time>
      </trkpt>
      <trkpt lat="43.21535" lon="5.48343">
        <ele>285.9</ele>
        <time>2025-10-18T11:09:53Z</time>
      </trkpt>
      <trkpt lat="43.21535" lon="5.48343">
        <ele>285.9</ele>
        <time>2025-10-18T11:09:54Z</time>
      </trkpt>
      <trkpt lat="43.21535" lon="5.48343">
        <ele>285.9</ele>
        <time>2025-10-18T11:09:55Z</time>
      </trkpt>
      <trkpt lat="43.21535" lon="5.48344">
        <ele>286</ele>
        <time>2025-10-18T11:09:56Z</time>
      </trkpt>
      <trkpt lat="43.21535" lon="5.48344">
        <ele>286</ele>
        <time>2025-10-18T11:09:57Z</time>
      </trkpt>
      <trkpt lat="43.21535" lon="5.48344">
        <ele>286</ele>
        <time>2025-10-18T11:09:58Z</time>
      </trkpt>
      <trkpt lat="43.21535" lon="5.48344">
        <ele>286</ele>
        <time>2025-10-18T11:09:59Z</time>
      </trkpt>
      <trkpt lat="43.21536" lon="5.48344">
        <ele>286.1</ele>
        <time>2025-10-18T11:10:00Z</time>
      </trkpt>
      <trkpt lat="43.21536" lon="5.48344">
        <ele>286.1</ele>
        <time>2025-10-18T11:10:01Z</time>
      </trkpt>
      <trkpt lat="43.21535" lon="5.48344">
        <ele>286.1</ele>
        <time>2025-10-18T11:10:02Z</time>
      </trkpt>
      <trkpt lat="43.21535" lon="5.48344">
        <ele>286.1</ele>
        <time>2025-10-18T11:10:03Z</time>
      </trkpt>
      <trkpt lat="43.21535" lon="5.48344">
        <ele>286</ele>
        <time>2025-10-18T11:10:04Z</time>
      </trkpt>
      <trkpt lat="43.21536" lon="5.48344">
        <ele>286</ele>
        <time>2025-10-18T11:10:05Z</time>
      </trkpt>
      <trkpt lat="43.21536" lon="5.48344">
        <ele>286</ele>
        <time>2025-10-18T11:10:06Z</time>
      </trkpt>
      <trkpt lat="43.21536" lon="5.48344">
        <ele>286</ele>
        <time>2025-10-18T11:10:07Z</time>
      </trkpt>
      <trkpt lat="43.21536" lon="5.48344">
        <ele>286</ele>
        <time>2025-10-18T11:10:08Z</time>
      </trkpt>
      <trkpt lat="43.21536" lon="5.48344">
        <ele>286</ele>
        <time>2025-10-18T11:10:09Z</time>
      </trkpt>
      <trkpt lat="43.21536" lon="5.48344">
        <ele>286</ele>
        <time>2025-10-18T11:10:10Z</time>
      </trkpt>
      <trkpt lat="43.21536" lon="5.48344">
        <ele>286</ele>
        <time>2025-10-18T11:10:11Z</time>
      </trkpt>
      <trkpt lat="43.21536" lon="5.48344">
        <ele>286</ele>
        <time>2025-10-18T11:10:12Z</time>
      </trkpt>
      <trkpt lat="43.21535" lon="5.48343">
        <ele>286</ele>
        <time>2025-10-18T11:10:13Z</time>
      </trkpt>
      <trkpt lat="43.21535" lon="5.48343">
        <ele>285.9</ele>
        <time>2025-10-18T11:10:14Z</time>
      </trkpt>
      <trkpt lat="43.21535" lon="5.48343">
        <ele>285.9</ele>
        <time>2025-10-18T11:10:15Z</time>
      </trkpt>
      <trkpt lat="43.21535" lon="5.48343">
        <ele>285.9</ele>
        <time>2025-10-18T11:10:16Z</time>
      </trkpt>
      <trkpt lat="43.21535" lon="5.48343">
        <ele>285.9</ele>
        <time>2025-10-18T11:10:17Z</time>
      </trkpt>
      <trkpt lat="43.21535" lon="5.48343">
        <ele>285.9</ele>
        <time>2025-10-18T11:10:18Z</time>
      </trkpt>
      <trkpt lat="43.21535" lon="5.48343">
        <ele>286</ele>
        <time>2025-10-18T11:10:19Z</time>
      </trkpt>
      <trkpt lat="43.21536" lon="5.48343">
        <ele>286</ele>
        <time>2025-10-18T11:10:20Z</time>
      </trkpt>
      <trkpt lat="43.21536" lon="5.48343">
        <ele>286</ele>
        <time>2025-10-18T11:10:21Z</time>
      </trkpt>
      <trkpt lat="43.21535" lon="5.48343">
        <ele>286</ele>
        <time>2025-10-18T11:10:22Z</time>
      </trkpt>
      <trkpt lat="43.21535" lon="5.48343">
        <ele>286</ele>
        <time>2025-10-18T11:10:23Z</time>
      </trkpt>
      <trkpt lat="43.21535" lon="5.48343">
        <ele>286</ele>
        <time>2025-10-18T11:10:24Z</time>
      </trkpt>
      <trkpt lat="43.21535" lon="5.48343">
        <ele>286</ele>
        <time>2025-10-18T11:10:25Z</time>
      </trkpt>
      <trkpt lat="43.21535" lon="5.48343">
        <ele>286</ele>
        <time>2025-10-18T11:10:26Z</time>
      </trkpt>
      <trkpt lat="43.21535" lon="5.48343">
        <ele>286.1</ele>
        <time>2025-10-18T11:10:27Z</time>
      </trkpt>
      <trkpt lat="43.21535" lon="5.48343">
        <ele>286.1</ele>
        <time>2025-10-18T11:10:28Z</time>
      </trkpt>
      <trkpt lat="43.21535" lon="5.48343">
        <ele>286.1</ele>
        <time>2025-10-18T11:10:29Z</time>
      </trkpt>
      <trkpt lat="43.21535" lon="5.48343">
        <ele>286.1</ele>
        <time>2025-10-18T11:10:30Z</time>
      </trkpt>
      <trkpt lat="43.21535" lon="5.48343">
        <ele>286.1</ele>
        <time>2025-10-18T11:10:31Z</time>
      </trkpt>
      <trkpt lat="43.21535" lon="5.48343">
        <ele>286.1</ele>
        <time>2025-10-18T11:10:32Z</time>
      </trkpt>
      <trkpt lat="43.21535" lon="5.48344">
        <ele>286.1</ele>
        <time>2025-10-18T11:10:33Z</time>
      </trkpt>
      <trkpt lat="43.21535" lon="5.48344">
        <ele>286</ele>
        <time>2025-10-18T11:10:34Z</time>
      </trkpt>
      <trkpt lat="43.21535" lon="5.48344">
        <ele>286</ele>
        <time>2025-10-18T11:10:35Z</time>
      </trkpt>
      <trkpt lat="43.21535" lon="5.48344">
        <ele>285.9</ele>
        <time>2025-10-18T11:10:36Z</time>
      </trkpt>
      <trkpt lat="43.21535" lon="5.48344">
        <ele>285.9</ele>
        <time>2025-10-18T11:10:37Z</time>
      </trkpt>
      <trkpt lat="43.21535" lon="5.48344">
        <ele>285.9</ele>
        <time>2025-10-18T11:10:38Z</time>
      </trkpt>
      <trkpt lat="43.21535" lon="5.48344">
        <ele>286</ele>
        <time>2025-10-18T11:10:39Z</time>
      </trkpt>
      <trkpt lat="43.21535" lon="5.48344">
        <ele>286</ele>
        <time>2025-10-18T11:10:40Z</time>
      </trkpt>
      <trkpt lat="43.21535" lon="5.48344">
        <ele>286</ele>
        <time>2025-10-18T11:10:41Z</time>
      </trkpt>
      <trkpt lat="43.21535" lon="5.48344">
        <ele>286</ele>
        <time>2025-10-18T11:10:42Z</time>
      </trkpt>
      <trkpt lat="43.21535" lon="5.48344">
        <ele>286</ele>
        <time>2025-10-18T11:10:43Z</time>
      </trkpt>
      <trkpt lat="43.21535" lon="5.48344">
        <ele>286</ele>
        <time>2025-10-18T11:10:44Z</time>
      </trkpt>
      <trkpt lat="43.21535" lon="5.48344">
        <ele>286</ele>
        <time>2025-10-18T11:10:45Z</time>
      </trkpt>
      <trkpt lat="43.21535" lon="5.48344">
        <ele>286</ele>
        <time>2025-10-18T11:10:46Z</time>
      </trkpt>
      <trkpt lat="43.21535" lon="5.48344">
        <ele>286</ele>
        <time>2025-10-18T11:10:47Z</time>
      </trkpt>
      <trkpt lat="43.21535" lon="5.48344">
        <ele>286</ele>
        <time>2025-10-18T11:10:48Z</time>
      </trkpt>
      <trkpt lat="43.21535" lon="5.48344">
        <ele>285.9</ele>
        <time>2025-10-18T11:10:49Z</time>
      </trkpt>
      <trkpt lat="43.21535" lon="5.48344">
        <ele>285.9</ele>
        <time>2025-10-18T11:10:50Z</time>
      </trkpt>
      <trkpt lat="43.21535" lon="5.48344">
        <ele>286</ele>
        <time>2025-10-18T11:10:51Z</time>
      </trkpt>
      <trkpt lat="43.21535" lon="5.48344">
        <ele>286</ele>
        <time>2025-10-18T11:10:52Z</time>
      </trkpt>
      <trkpt lat="43.21535" lon="5.48344">
        <ele>286.1</ele>
        <time>2025-10-18T11:10:53Z</time>
      </trkpt>
      <trkpt lat="43.21535" lon="5.48344">
        <ele>286.1</ele>
        <time>2025-10-18T11:10:54Z</time>
      </trkpt>
      <trkpt lat="43.21535" lon="5.48344">
        <ele>286.2</ele>
        <time>2025-10-18T11:10:55Z</time>
      </trkpt>
      <trkpt lat="43.21535" lon="5.48344">
        <ele>286.1</ele>
        <time>2025-10-18T11:10:56Z</time>
      </trkpt>
      <trkpt lat="43.21535" lon="5.48345">
        <ele>286.1</ele>
        <time>2025-10-18T11:10:57Z</time>
      </trkpt>
      <trkpt lat="43.21536" lon="5.48345">
        <ele>286.2</ele>
        <time>2025-10-18T11:10:58Z</time>
      </trkpt>
      <trkpt lat="43.21536" lon="5.48345">
        <ele>286.2</ele>
        <time>2025-10-18T11:10:59Z</time>
      </trkpt>
      <trkpt lat="43.21536" lon="5.48345">
        <ele>286.2</ele>
        <time>2025-10-18T11:11:00Z</time>
      </trkpt>
      <trkpt lat="43.21536" lon="5.48345">
        <ele>286.2</ele>
        <time>2025-10-18T11:11:01Z</time>
      </trkpt>
      <trkpt lat="43.21535" lon="5.48345">
        <ele>286.2</ele>
        <time>2025-10-18T11:11:02Z</time>
      </trkpt>
      <trkpt lat="43.21535" lon="5.48345">
        <ele>286.2</ele>
        <time>2025-10-18T11:11:03Z</time>
      </trkpt>
      <trkpt lat="43.21535" lon="5.48345">
        <ele>286.2</ele>
        <time>2025-10-18T11:11:04Z</time>
      </trkpt>
      <trkpt lat="43.21535" lon="5.48345">
        <ele>286.3</ele>
        <time>2025-10-18T11:11:05Z</time>
      </trkpt>
      <trkpt lat="43.21535" lon="5.48345">
        <ele>286.3</ele>
        <time>2025-10-18T11:11:06Z</time>
      </trkpt>
      <trkpt lat="43.21536" lon="5.48345">
        <ele>286.4</ele>
        <time>2025-10-18T11:11:07Z</time>
      </trkpt>
      <trkpt lat="43.21536" lon="5.48345">
        <ele>286.4</ele>
        <time>2025-10-18T11:11:08Z</time>
      </trkpt>
      <trkpt lat="43.21536" lon="5.48345">
        <ele>286.4</ele>
        <time>2025-10-18T11:11:09Z</time>
      </trkpt>
      <trkpt lat="43.21536" lon="5.48345">
        <ele>286.3</ele>
        <time>2025-10-18T11:11:10Z</time>
      </trkpt>
      <trkpt lat="43.21536" lon="5.48345">
        <ele>286.3</ele>
        <time>2025-10-18T11:11:11Z</time>
      </trkpt>
      <trkpt lat="43.21536" lon="5.48345">
        <ele>286.2</ele>
        <time>2025-10-18T11:11:12Z</time>
      </trkpt>
      <trkpt lat="43.21536" lon="5.48345">
        <ele>286.1</ele>
        <time>2025-10-18T11:11:13Z</time>
      </trkpt>
      <trkpt lat="43.21536" lon="5.48345">
        <ele>286.1</ele>
        <time>2025-10-18T11:11:14Z</time>
      </trkpt>
      <trkpt lat="43.21536" lon="5.48345">
        <ele>286.1</ele>
        <time>2025-10-18T11:11:15Z</time>
      </trkpt>
      <trkpt lat="43.21536" lon="5.48345">
        <ele>286.1</ele>
        <time>2025-10-18T11:11:16Z</time>
      </trkpt>
      <trkpt lat="43.21536" lon="5.48345">
        <ele>286.1</ele>
        <time>2025-10-18T11:11:17Z</time>
      </trkpt>
      <trkpt lat="43.21536" lon="5.48345">
        <ele>286.1</ele>
        <time>2025-10-18T11:11:18Z</time>
      </trkpt>
      <trkpt lat="43.21536" lon="5.48345">
        <ele>286.1</ele>
        <time>2025-10-18T11:11:19Z</time>
      </trkpt>
      <trkpt lat="43.21536" lon="5.48345">
        <ele>286.1</ele>
        <time>2025-10-18T11:11:20Z</time>
      </trkpt>
      <trkpt lat="43.21536" lon="5.48345">
        <ele>286</ele>
        <time>2025-10-18T11:11:21Z</time>
      </trkpt>
      <trkpt lat="43.21536" lon="5.48345">
        <ele>286</ele>
        <time>2025-10-18T11:11:22Z</time>
      </trkpt>
      <trkpt lat="43.21536" lon="5.48345">
        <ele>286</ele>
        <time>2025-10-18T11:11:23Z</time>
      </trkpt>
      <trkpt lat="43.21536" lon="5.48345">
        <ele>285.9</ele>
        <time>2025-10-18T11:11:24Z</time>
      </trkpt>
      <trkpt lat="43.21536" lon="5.48345">
        <ele>285.9</ele>
        <time>2025-10-18T11:11:25Z</time>
      </trkpt>
      <trkpt lat="43.21536" lon="5.48345">
        <ele>285.9</ele>
        <time>2025-10-18T11:11:26Z</time>
      </trkpt>
      <trkpt lat="43.21536" lon="5.48345">
        <ele>286</ele>
        <time>2025-10-18T11:11:27Z</time>
      </trkpt>
      <trkpt lat="43.21536" lon="5.48345">
        <ele>286</ele>
        <time>2025-10-18T11:11:28Z</time>
      </trkpt>
      <trkpt lat="43.21536" lon="5.48345">
        <ele>286</ele>
        <time>2025-10-18T11:11:29Z</time>
      </trkpt>
      <trkpt lat="43.21536" lon="5.48345">
        <ele>286</ele>
        <time>2025-10-18T11:11:30Z</time>
      </trkpt>
      <trkpt lat="43.21536" lon="5.48345">
        <ele>286.1</ele>
        <time>2025-10-18T11:11:31Z</time>
      </trkpt>
      <trkpt lat="43.21536" lon="5.48345">
        <ele>286.1</ele>
        <time>2025-10-18T11:11:32Z</time>
      </trkpt>
      <trkpt lat="43.21536" lon="5.48345">
        <ele>286.1</ele>
        <time>2025-10-18T11:11:33Z</time>
      </trkpt>
      <trkpt lat="43.21536" lon="5.48345">
        <ele>286.1</ele>
        <time>2025-10-18T11:11:34Z</time>
      </trkpt>
      <trkpt lat="43.21536" lon="5.48345">
        <ele>286.2</ele>
        <time>2025-10-18T11:11:35Z</time>
      </trkpt>
      <trkpt lat="43.21536" lon="5.48345">
        <ele>286.2</ele>
        <time>2025-10-18T11:11:36Z</time>
      </trkpt>
      <trkpt lat="43.21536" lon="5.48345">
        <ele>286.2</ele>
        <time>2025-10-18T11:11:37Z</time>
      </trkpt>
      <trkpt lat="43.21536" lon="5.48346">
        <ele>286.1</ele>
        <time>2025-10-18T11:11:38Z</time>
      </trkpt>
      <trkpt lat="43.21536" lon="5.48346">
        <ele>286.1</ele>
        <time>2025-10-18T11:11:39Z</time>
      </trkpt>
      <trkpt lat="43.21536" lon="5.48346">
        <ele>286.1</ele>
        <time>2025-10-18T11:11:40Z</time>
      </trkpt>
      <trkpt lat="43.21536" lon="5.48346">
        <ele>286.1</ele>
        <time>2025-10-18T11:11:41Z</time>
      </trkpt>
      <trkpt lat="43.21536" lon="5.48346">
        <ele>286.1</ele>
        <time>2025-10-18T11:11:42Z</time>
      </trkpt>
      <trkpt lat="43.21536" lon="5.48346">
        <ele>286.1</ele>
        <time>2025-10-18T11:11:43Z</time>
      </trkpt>
      <trkpt lat="43.21536" lon="5.48346">
        <ele>286.1</ele>
        <time>2025-10-18T11:11:44Z</time>
      </trkpt>
      <trkpt lat="43.21536" lon="5.48346">
        <ele>286.1</ele>
        <time>2025-10-18T11:11:45Z</time>
      </trkpt>
      <trkpt lat="43.21536" lon="5.48346">
        <ele>286.2</ele>
        <time>2025-10-18T11:11:46Z</time>
      </trkpt>
      <trkpt lat="43.21536" lon="5.48346">
        <ele>286.3</ele>
        <time>2025-10-18T11:11:47Z</time>
      </trkpt>
      <trkpt lat="43.21536" lon="5.48346">
        <ele>286.3</ele>
        <time>2025-10-18T11:11:48Z</time>
      </trkpt>
      <trkpt lat="43.21536" lon="5.48346">
        <ele>286.3</ele>
        <time>2025-10-18T11:11:49Z</time>
      </trkpt>
      <trkpt lat="43.21536" lon="5.48346">
        <ele>286.3</ele>
        <time>2025-10-18T11:11:50Z</time>
      </trkpt>
      <trkpt lat="43.21536" lon="5.48346">
        <ele>286.3</ele>
        <time>2025-10-18T11:11:51Z</time>
      </trkpt>
      <trkpt lat="43.21536" lon="5.48346">
        <ele>286.3</ele>
        <time>2025-10-18T11:11:52Z</time>
      </trkpt>
      <trkpt lat="43.21536" lon="5.48346">
        <ele>286.3</ele>
        <time>2025-10-18T11:11:53Z</time>
      </trkpt>
      <trkpt lat="43.21536" lon="5.48346">
        <ele>286.3</ele>
        <time>2025-10-18T11:11:54Z</time>
      </trkpt>
      <trkpt lat="43.21536" lon="5.48346">
        <ele>286.3</ele>
        <time>2025-10-18T11:11:55Z</time>
      </trkpt>
      <trkpt lat="43.21536" lon="5.48346">
        <ele>286.3</ele>
        <time>2025-10-18T11:11:56Z</time>
      </trkpt>
      <trkpt lat="43.21536" lon="5.48346">
        <ele>286.3</ele>
        <time>2025-10-18T11:11:57Z</time>
      </trkpt>
      <trkpt lat="43.21536" lon="5.48346">
        <ele>286.3</ele>
        <time>2025-10-18T11:11:58Z</time>
      </trkpt>
      <trkpt lat="43.21536" lon="5.48345">
        <ele>286.3</ele>
        <time>2025-10-18T11:11:59Z</time>
      </trkpt>
      <trkpt lat="43.21536" lon="5.48345">
        <ele>286.3</ele>
        <time>2025-10-18T11:12:00Z</time>
      </trkpt>
      <trkpt lat="43.21536" lon="5.48345">
        <ele>286.3</ele>
        <time>2025-10-18T11:12:01Z</time>
      </trkpt>
      <trkpt lat="43.21536" lon="5.48345">
        <ele>286.3</ele>
        <time>2025-10-18T11:12:02Z</time>
      </trkpt>
      <trkpt lat="43.21535" lon="5.48345">
        <ele>286.3</ele>
        <time>2025-10-18T11:12:03Z</time>
      </trkpt>
      <trkpt lat="43.21535" lon="5.48345">
        <ele>286.3</ele>
        <time>2025-10-18T11:12:04Z</time>
      </trkpt>
      <trkpt lat="43.21535" lon="5.48345">
        <ele>286.3</ele>
        <time>2025-10-18T11:12:05Z</time>
      </trkpt>
      <trkpt lat="43.21535" lon="5.48345">
        <ele>286.3</ele>
        <time>2025-10-18T11:12:06Z</time>
      </trkpt>
      <trkpt lat="43.21535" lon="5.48345">
        <ele>286.3</ele>
        <time>2025-10-18T11:12:07Z</time>
      </trkpt>
      <trkpt lat="43.21535" lon="5.48345">
        <ele>286.2</ele>
        <time>2025-10-18T11:12:08Z</time>
      </trkpt>
      <trkpt lat="43.21535" lon="5.48345">
        <ele>286.2</ele>
        <time>2025-10-18T11:12:09Z</time>
      </trkpt>
      <trkpt lat="43.21535" lon="5.48345">
        <ele>286.2</ele>
        <time>2025-10-18T11:12:10Z</time>
      </trkpt>
      <trkpt lat="43.21535" lon="5.48345">
        <ele>286.2</ele>
        <time>2025-10-18T11:12:11Z</time>
      </trkpt>
      <trkpt lat="43.21535" lon="5.48345">
        <ele>286.2</ele>
        <time>2025-10-18T11:12:12Z</time>
      </trkpt>
      <trkpt lat="43.21535" lon="5.48345">
        <ele>286.2</ele>
        <time>2025-10-18T11:12:13Z</time>
      </trkpt>
      <trkpt lat="43.21535" lon="5.48345">
        <ele>286.2</ele>
        <time>2025-10-18T11:12:14Z</time>
      </trkpt>
      <trkpt lat="43.21535" lon="5.48345">
        <ele>286.2</ele>
        <time>2025-10-18T11:12:15Z</time>
      </trkpt>
      <trkpt lat="43.21535" lon="5.48345">
        <ele>286.2</ele>
        <time>2025-10-18T11:12:16Z</time>
      </trkpt>
      <trkpt lat="43.21535" lon="5.48345">
        <ele>286.2</ele>
        <time>2025-10-18T11:12:17Z</time>
      </trkpt>
      <trkpt lat="43.21535" lon="5.48345">
        <ele>286.2</ele>
        <time>2025-10-18T11:12:18Z</time>
      </trkpt>
      <trkpt lat="43.21535" lon="5.48345">
        <ele>286.2</ele>
        <time>2025-10-18T11:12:19Z</time>
      </trkpt>
      <trkpt lat="43.21535" lon="5.48345">
        <ele>286.2</ele>
        <time>2025-10-18T11:12:20Z</time>
      </trkpt>
      <trkpt lat="43.21535" lon="5.48345">
        <ele>286.2</ele>
        <time>2025-10-18T11:12:21Z</time>
      </trkpt>
      <trkpt lat="43.21535" lon="5.48345">
        <ele>286.2</ele>
        <time>2025-10-18T11:12:22Z</time>
      </trkpt>
      <trkpt lat="43.21535" lon="5.48345">
        <ele>286.3</ele>
        <time>2025-10-18T11:12:23Z</time>
      </trkpt>
      <trkpt lat="43.21535" lon="5.48345">
        <ele>286.2</ele>
        <time>2025-10-18T11:12:24Z</time>
      </trkpt>
      <trkpt lat="43.21535" lon="5.48344">
        <ele>286.1</ele>
        <time>2025-10-18T11:12:25Z</time>
      </trkpt>
      <trkpt lat="43.21535" lon="5.48344">
        <ele>286.1</ele>
        <time>2025-10-18T11:12:26Z</time>
      </trkpt>
      <trkpt lat="43.21535" lon="5.48344">
        <ele>286</ele>
        <time>2025-10-18T11:12:27Z</time>
      </trkpt>
      <trkpt lat="43.21535" lon="5.48344">
        <ele>285.9</ele>
        <time>2025-10-18T11:12:28Z</time>
      </trkpt>
      <trkpt lat="43.21535" lon="5.48344">
        <ele>286</ele>
        <time>2025-10-18T11:12:29Z</time>
      </trkpt>
      <trkpt lat="43.21535" lon="5.48345">
        <ele>286</ele>
        <time>2025-10-18T11:12:30Z</time>
      </trkpt>
      <trkpt lat="43.21535" lon="5.48345">
        <ele>285.9</ele>
        <time>2025-10-18T11:12:31Z</time>
      </trkpt>
      <trkpt lat="43.21535" lon="5.48344">
        <ele>285.9</ele>
        <time>2025-10-18T11:12:32Z</time>
      </trkpt>
      <trkpt lat="43.21536" lon="5.48345">
        <ele>285.9</ele>
        <time>2025-10-18T11:12:33Z</time>
      </trkpt>
      <trkpt lat="43.21536" lon="5.48345">
        <ele>285.9</ele>
        <time>2025-10-18T11:12:34Z</time>
      </trkpt>
      <trkpt lat="43.21536" lon="5.48345">
        <ele>285.9</ele>
        <time>2025-10-18T11:12:35Z</time>
      </trkpt>
      <trkpt lat="43.21536" lon="5.48345">
        <ele>285.9</ele>
        <time>2025-10-18T11:12:36Z</time>
      </trkpt>
      <trkpt lat="43.21536" lon="5.48345">
        <ele>285.9</ele>
        <time>2025-10-18T11:12:37Z</time>
      </trkpt>
      <trkpt lat="43.21536" lon="5.48345">
        <ele>285.9</ele>
        <time>2025-10-18T11:12:38Z</time>
      </trkpt>
      <trkpt lat="43.21536" lon="5.48345">
        <ele>285.9</ele>
        <time>2025-10-18T11:12:39Z</time>
      </trkpt>
      <trkpt lat="43.21536" lon="5.48345">
        <ele>285.9</ele>
        <time>2025-10-18T11:12:40Z</time>
      </trkpt>
      <trkpt lat="43.21535" lon="5.48345">
        <ele>285.9</ele>
        <time>2025-10-18T11:12:41Z</time>
      </trkpt>
      <trkpt lat="43.21535" lon="5.48345">
        <ele>285.8</ele>
        <time>2025-10-18T11:12:42Z</time>
      </trkpt>
      <trkpt lat="43.21535" lon="5.48345">
        <ele>285.8</ele>
        <time>2025-10-18T11:12:43Z</time>
      </trkpt>
      <trkpt lat="43.21535" lon="5.48345">
        <ele>285.8</ele>
        <time>2025-10-18T11:12:44Z</time>
      </trkpt>
      <trkpt lat="43.21535" lon="5.48345">
        <ele>285.9</ele>
        <time>2025-10-18T11:12:45Z</time>
      </trkpt>
      <trkpt lat="43.21535" lon="5.48345">
        <ele>285.9</ele>
        <time>2025-10-18T11:12:46Z</time>
      </trkpt>
      <trkpt lat="43.21535" lon="5.48345">
        <ele>286</ele>
        <time>2025-10-18T11:12:47Z</time>
      </trkpt>
      <trkpt lat="43.21535" lon="5.48345">
        <ele>285.9</ele>
        <time>2025-10-18T11:12:48Z</time>
      </trkpt>
      <trkpt lat="43.21535" lon="5.48345">
        <ele>285.9</ele>
        <time>2025-10-18T11:12:49Z</time>
      </trkpt>
      <trkpt lat="43.21535" lon="5.48345">
        <ele>285.8</ele>
        <time>2025-10-18T11:12:50Z</time>
      </trkpt>
      <trkpt lat="43.21535" lon="5.48345">
        <ele>285.8</ele>
        <time>2025-10-18T11:12:51Z</time>
      </trkpt>
      <trkpt lat="43.21535" lon="5.48345">
        <ele>285.8</ele>
        <time>2025-10-18T11:12:52Z</time>
      </trkpt>
      <trkpt lat="43.21535" lon="5.48344">
        <ele>285.8</ele>
        <time>2025-10-18T11:12:53Z</time>
      </trkpt>
      <trkpt lat="43.21535" lon="5.48344">
        <ele>285.9</ele>
        <time>2025-10-18T11:12:54Z</time>
      </trkpt>
      <trkpt lat="43.21535" lon="5.48344">
        <ele>285.9</ele>
        <time>2025-10-18T11:12:55Z</time>
      </trkpt>
      <trkpt lat="43.21535" lon="5.48344">
        <ele>285.9</ele>
        <time>2025-10-18T11:12:56Z</time>
      </trkpt>
      <trkpt lat="43.21535" lon="5.48344">
        <ele>286</ele>
        <time>2025-10-18T11:12:57Z</time>
      </trkpt>
      <trkpt lat="43.21535" lon="5.48345">
        <ele>286</ele>
        <time>2025-10-18T11:12:58Z</time>
      </trkpt>
      <trkpt lat="43.21535" lon="5.48345">
        <ele>286</ele>
        <time>2025-10-18T11:12:59Z</time>
      </trkpt>
      <trkpt lat="43.21535" lon="5.48345">
        <ele>286.1</ele>
        <time>2025-10-18T11:13:00Z</time>
      </trkpt>
      <trkpt lat="43.21535" lon="5.48345">
        <ele>286.1</ele>
        <time>2025-10-18T11:13:01Z</time>
      </trkpt>
      <trkpt lat="43.21535" lon="5.48345">
        <ele>286.2</ele>
        <time>2025-10-18T11:13:02Z</time>
      </trkpt>
      <trkpt lat="43.21535" lon="5.48345">
        <ele>286.3</ele>
        <time>2025-10-18T11:13:03Z</time>
      </trkpt>
      <trkpt lat="43.21535" lon="5.48345">
        <ele>286.3</ele>
        <time>2025-10-18T11:13:04Z</time>
      </trkpt>
      <trkpt lat="43.21535" lon="5.48345">
        <ele>286.3</ele>
        <time>2025-10-18T11:13:05Z</time>
      </trkpt>
      <trkpt lat="43.21535" lon="5.48345">
        <ele>286.3</ele>
        <time>2025-10-18T11:13:06Z</time>
      </trkpt>
      <trkpt lat="43.21535" lon="5.48345">
        <ele>286.3</ele>
        <time>2025-10-18T11:13:07Z</time>
      </trkpt>
      <trkpt lat="43.21535" lon="5.48345">
        <ele>286.4</ele>
        <time>2025-10-18T11:13:08Z</time>
      </trkpt>
      <trkpt lat="43.21535" lon="5.48344">
        <ele>286.4</ele>
        <time>2025-10-18T11:13:09Z</time>
      </trkpt>
      <trkpt lat="43.21536" lon="5.48344">
        <ele>286.4</ele>
        <time>2025-10-18T11:13:10Z</time>
      </trkpt>
      <trkpt lat="43.21535" lon="5.48344">
        <ele>286.4</ele>
        <time>2025-10-18T11:13:11Z</time>
      </trkpt>
      <trkpt lat="43.21535" lon="5.48344">
        <ele>286.4</ele>
        <time>2025-10-18T11:13:12Z</time>
      </trkpt>
      <trkpt lat="43.21536" lon="5.48344">
        <ele>286.4</ele>
        <time>2025-10-18T11:13:13Z</time>
      </trkpt>
      <trkpt lat="43.21536" lon="5.48344">
        <ele>286.4</ele>
        <time>2025-10-18T11:13:14Z</time>
      </trkpt>
      <trkpt lat="43.21536" lon="5.48345">
        <ele>286.4</ele>
        <time>2025-10-18T11:13:15Z</time>
      </trkpt>
      <trkpt lat="43.21536" lon="5.48345">
        <ele>286.4</ele>
        <time>2025-10-18T11:13:16Z</time>
      </trkpt>
      <trkpt lat="43.21536" lon="5.48345">
        <ele>286.3</ele>
        <time>2025-10-18T11:13:17Z</time>
      </trkpt>
      <trkpt lat="43.21536" lon="5.48345">
        <ele>286.3</ele>
        <time>2025-10-18T11:13:18Z</time>
      </trkpt>
      <trkpt lat="43.21536" lon="5.48345">
        <ele>286.2</ele>
        <time>2025-10-18T11:13:19Z</time>
      </trkpt>
      <trkpt lat="43.21536" lon="5.48345">
        <ele>286.2</ele>
        <time>2025-10-18T11:13:20Z</time>
      </trkpt>
      <trkpt lat="43.21536" lon="5.48345">
        <ele>286.2</ele>
        <time>2025-10-18T11:13:21Z</time>
      </trkpt>
      <trkpt lat="43.21536" lon="5.48345">
        <ele>286.1</ele>
        <time>2025-10-18T11:13:22Z</time>
      </trkpt>
      <trkpt lat="43.21536" lon="5.48345">
        <ele>286.1</ele>
        <time>2025-10-18T11:13:23Z</time>
      </trkpt>
      <trkpt lat="43.21536" lon="5.48345">
        <ele>286</ele>
        <time>2025-10-18T11:13:24Z</time>
      </trkpt>
      <trkpt lat="43.21536" lon="5.48345">
        <ele>286</ele>
        <time>2025-10-18T11:13:25Z</time>
      </trkpt>
      <trkpt lat="43.21536" lon="5.48346">
        <ele>286</ele>
        <time>2025-10-18T11:13:26Z</time>
      </trkpt>
      <trkpt lat="43.21536" lon="5.48346">
        <ele>286</ele>
        <time>2025-10-18T11:13:27Z</time>
      </trkpt>
      <trkpt lat="43.21537" lon="5.48346">
        <ele>286</ele>
        <time>2025-10-18T11:13:28Z</time>
      </trkpt>
      <trkpt lat="43.21537" lon="5.48346">
        <ele>286</ele>
        <time>2025-10-18T11:13:29Z</time>
      </trkpt>
      <trkpt lat="43.21537" lon="5.48346">
        <ele>286.1</ele>
        <time>2025-10-18T11:13:30Z</time>
      </trkpt>
      <trkpt lat="43.21537" lon="5.48346">
        <ele>286.1</ele>
        <time>2025-10-18T11:13:31Z</time>
      </trkpt>
      <trkpt lat="43.21537" lon="5.48346">
        <ele>286.1</ele>
        <time>2025-10-18T11:13:32Z</time>
      </trkpt>
      <trkpt lat="43.21537" lon="5.48346">
        <ele>286.1</ele>
        <time>2025-10-18T11:13:33Z</time>
      </trkpt>
      <trkpt lat="43.21537" lon="5.48346">
        <ele>286.1</ele>
        <time>2025-10-18T11:13:34Z</time>
      </trkpt>
      <trkpt lat="43.21537" lon="5.48346">
        <ele>286.2</ele>
        <time>2025-10-18T11:13:35Z</time>
      </trkpt>
      <trkpt lat="43.21537" lon="5.48346">
        <ele>286.2</ele>
        <time>2025-10-18T11:13:36Z</time>
      </trkpt>
      <trkpt lat="43.21537" lon="5.48346">
        <ele>286.2</ele>
        <time>2025-10-18T11:13:37Z</time>
      </trkpt>
      <trkpt lat="43.21537" lon="5.48346">
        <ele>286.2</ele>
        <time>2025-10-18T11:13:38Z</time>
      </trkpt>
      <trkpt lat="43.21537" lon="5.48346">
        <ele>286.2</ele>
        <time>2025-10-18T11:13:39Z</time>
      </trkpt>
      <trkpt lat="43.21537" lon="5.48346">
        <ele>286.2</ele>
        <time>2025-10-18T11:13:40Z</time>
      </trkpt>
      <trkpt lat="43.21537" lon="5.48346">
        <ele>286.3</ele>
        <time>2025-10-18T11:13:41Z</time>
      </trkpt>
      <trkpt lat="43.21537" lon="5.48346">
        <ele>286.3</ele>
        <time>2025-10-18T11:13:42Z</time>
      </trkpt>
      <trkpt lat="43.21537" lon="5.48346">
        <ele>286.3</ele>
        <time>2025-10-18T11:13:43Z</time>
      </trkpt>
      <trkpt lat="43.21537" lon="5.48346">
        <ele>286.3</ele>
        <time>2025-10-18T11:13:44Z</time>
      </trkpt>
      <trkpt lat="43.21537" lon="5.48346">
        <ele>286.3</ele>
        <time>2025-10-18T11:13:45Z</time>
      </trkpt>
      <trkpt lat="43.21537" lon="5.48346">
        <ele>286.3</ele>
        <time>2025-10-18T11:13:46Z</time>
      </trkpt>
      <trkpt lat="43.21537" lon="5.48346">
        <ele>286.4</ele>
        <time>2025-10-18T11:13:47Z</time>
      </trkpt>
      <trkpt lat="43.21537" lon="5.48346">
        <ele>286.3</ele>
        <time>2025-10-18T11:13:48Z</time>
      </trkpt>
      <trkpt lat="43.21538" lon="5.48346">
        <ele>286.3</ele>
        <time>2025-10-18T11:13:49Z</time>
      </trkpt>
      <trkpt lat="43.21538" lon="5.48346">
        <ele>286.3</ele>
        <time>2025-10-18T11:13:50Z</time>
      </trkpt>
      <trkpt lat="43.21538" lon="5.48345">
        <ele>286.3</ele>
        <time>2025-10-18T11:13:51Z</time>
      </trkpt>
      <trkpt lat="43.21538" lon="5.48345">
        <ele>286.4</ele>
        <time>2025-10-18T11:13:52Z</time>
      </trkpt>
      <trkpt lat="43.21538" lon="5.48345">
        <ele>286.4</ele>
        <time>2025-10-18T11:13:53Z</time>
      </trkpt>
      <trkpt lat="43.21538" lon="5.48345">
        <ele>286.4</ele>
        <time>2025-10-18T11:13:54Z</time>
      </trkpt>
      <trkpt lat="43.21538" lon="5.48345">
        <ele>286.4</ele>
        <time>2025-10-18T11:13:55Z</time>
      </trkpt>
      <trkpt lat="43.21538" lon="5.48345">
        <ele>286.4</ele>
        <time>2025-10-18T11:13:56Z</time>
      </trkpt>
      <trkpt lat="43.21538" lon="5.48346">
        <ele>286.4</ele>
        <time>2025-10-18T11:13:57Z</time>
      </trkpt>
      <trkpt lat="43.21538" lon="5.48345">
        <ele>286.4</ele>
        <time>2025-10-18T11:13:58Z</time>
      </trkpt>
      <trkpt lat="43.21538" lon="5.48345">
        <ele>286.4</ele>
        <time>2025-10-18T11:13:59Z</time>
      </trkpt>
      <trkpt lat="43.21538" lon="5.48346">
        <ele>286.4</ele>
        <time>2025-10-18T11:14:00Z</time>
      </trkpt>
      <trkpt lat="43.21538" lon="5.48345">
        <ele>286.4</ele>
        <time>2025-10-18T11:14:01Z</time>
      </trkpt>
      <trkpt lat="43.21538" lon="5.48346">
        <ele>286.5</ele>
        <time>2025-10-18T11:14:02Z</time>
      </trkpt>
      <trkpt lat="43.21538" lon="5.48346">
        <ele>286.5</ele>
        <time>2025-10-18T11:14:03Z</time>
      </trkpt>
      <trkpt lat="43.21538" lon="5.48346">
        <ele>286.5</ele>
        <time>2025-10-18T11:14:04Z</time>
      </trkpt>
      <trkpt lat="43.21538" lon="5.48346">
        <ele>286.4</ele>
        <time>2025-10-18T11:14:05Z</time>
      </trkpt>
      <trkpt lat="43.21538" lon="5.48346">
        <ele>286.4</ele>
        <time>2025-10-18T11:14:06Z</time>
      </trkpt>
      <trkpt lat="43.21538" lon="5.48346">
        <ele>286.3</ele>
        <time>2025-10-18T11:14:07Z</time>
      </trkpt>
      <trkpt lat="43.21538" lon="5.48346">
        <ele>286.3</ele>
        <time>2025-10-18T11:14:08Z</time>
      </trkpt>
      <trkpt lat="43.21538" lon="5.48346">
        <ele>286.3</ele>
        <time>2025-10-18T11:14:09Z</time>
      </trkpt>
      <trkpt lat="43.21538" lon="5.48346">
        <ele>286.3</ele>
        <time>2025-10-18T11:14:10Z</time>
      </trkpt>
      <trkpt lat="43.21538" lon="5.48346">
        <ele>286.2</ele>
        <time>2025-10-18T11:14:11Z</time>
      </trkpt>
      <trkpt lat="43.21538" lon="5.48346">
        <ele>286.2</ele>
        <time>2025-10-18T11:14:12Z</time>
      </trkpt>
      <trkpt lat="43.21538" lon="5.48346">
        <ele>286.1</ele>
        <time>2025-10-18T11:14:13Z</time>
      </trkpt>
      <trkpt lat="43.21538" lon="5.48346">
        <ele>286.1</ele>
        <time>2025-10-18T11:14:14Z</time>
      </trkpt>
      <trkpt lat="43.21538" lon="5.48346">
        <ele>286</ele>
        <time>2025-10-18T11:14:15Z</time>
      </trkpt>
      <trkpt lat="43.21538" lon="5.48346">
        <ele>286</ele>
        <time>2025-10-18T11:14:16Z</time>
      </trkpt>
      <trkpt lat="43.21538" lon="5.48346">
        <ele>286.1</ele>
        <time>2025-10-18T11:14:17Z</time>
      </trkpt>
      <trkpt lat="43.21538" lon="5.48346">
        <ele>286.1</ele>
        <time>2025-10-18T11:14:18Z</time>
      </trkpt>
      <trkpt lat="43.21538" lon="5.48346">
        <ele>286.2</ele>
        <time>2025-10-18T11:14:19Z</time>
      </trkpt>
      <trkpt lat="43.21539" lon="5.48346">
        <ele>286.2</ele>
        <time>2025-10-18T11:14:20Z</time>
      </trkpt>
      <trkpt lat="43.21539" lon="5.48347">
        <ele>286.3</ele>
        <time>2025-10-18T11:14:21Z</time>
      </trkpt>
      <trkpt lat="43.21539" lon="5.48347">
        <ele>286.3</ele>
        <time>2025-10-18T11:14:22Z</time>
      </trkpt>
      <trkpt lat="43.21539" lon="5.48347">
        <ele>286.3</ele>
        <time>2025-10-18T11:14:23Z</time>
      </trkpt>
      <trkpt lat="43.21539" lon="5.48347">
        <ele>286.3</ele>
        <time>2025-10-18T11:14:24Z</time>
      </trkpt>
      <trkpt lat="43.21539" lon="5.48347">
        <ele>286.4</ele>
        <time>2025-10-18T11:14:25Z</time>
      </trkpt>
      <trkpt lat="43.21539" lon="5.48347">
        <ele>286.4</ele>
        <time>2025-10-18T11:14:26Z</time>
      </trkpt>
      <trkpt lat="43.21539" lon="5.48347">
        <ele>286.4</ele>
        <time>2025-10-18T11:14:27Z</time>
      </trkpt>
      <trkpt lat="43.21539" lon="5.48347">
        <ele>286.5</ele>
        <time>2025-10-18T11:14:28Z</time>
      </trkpt>
      <trkpt lat="43.21539" lon="5.48347">
        <ele>286.5</ele>
        <time>2025-10-18T11:14:29Z</time>
      </trkpt>
      <trkpt lat="43.21539" lon="5.48347">
        <ele>286.5</ele>
        <time>2025-10-18T11:14:30Z</time>
      </trkpt>
      <trkpt lat="43.21539" lon="5.48347">
        <ele>286.4</ele>
        <time>2025-10-18T11:14:31Z</time>
      </trkpt>
      <trkpt lat="43.21539" lon="5.48347">
        <ele>286.5</ele>
        <time>2025-10-18T11:14:32Z</time>
      </trkpt>
      <trkpt lat="43.21539" lon="5.48348">
        <ele>286.5</ele>
        <time>2025-10-18T11:14:33Z</time>
      </trkpt>
      <trkpt lat="43.21539" lon="5.48348">
        <ele>286.5</ele>
        <time>2025-10-18T11:14:34Z</time>
      </trkpt>
      <trkpt lat="43.21539" lon="5.48348">
        <ele>286.4</ele>
        <time>2025-10-18T11:14:35Z</time>
      </trkpt>
      <trkpt lat="43.21539" lon="5.48347">
        <ele>286.4</ele>
        <time>2025-10-18T11:14:36Z</time>
      </trkpt>
      <trkpt lat="43.21539" lon="5.48347">
        <ele>286.3</ele>
        <time>2025-10-18T11:14:37Z</time>
      </trkpt>
      <trkpt lat="43.21539" lon="5.48347">
        <ele>286.2</ele>
        <time>2025-10-18T11:14:38Z</time>
      </trkpt>
      <trkpt lat="43.21539" lon="5.48347">
        <ele>286.2</ele>
        <time>2025-10-18T11:14:39Z</time>
      </trkpt>
      <trkpt lat="43.21539" lon="5.48348">
        <ele>286.2</ele>
        <time>2025-10-18T11:14:40Z</time>
      </trkpt>
      <trkpt lat="43.21539" lon="5.48348">
        <ele>286.2</ele>
        <time>2025-10-18T11:14:41Z</time>
      </trkpt>
      <trkpt lat="43.2154" lon="5.48348">
        <ele>286.2</ele>
        <time>2025-10-18T11:14:42Z</time>
      </trkpt>
      <trkpt lat="43.21539" lon="5.48348">
        <ele>286.2</ele>
        <time>2025-10-18T11:14:43Z</time>
      </trkpt>
      <trkpt lat="43.21539" lon="5.48348">
        <ele>286.3</ele>
        <time>2025-10-18T11:14:44Z</time>
      </trkpt>
      <trkpt lat="43.21539" lon="5.48348">
        <ele>286.3</ele>
        <time>2025-10-18T11:14:45Z</time>
      </trkpt>
      <trkpt lat="43.21539" lon="5.48348">
        <ele>286.4</ele>
        <time>2025-10-18T11:14:46Z</time>
      </trkpt>
      <trkpt lat="43.21538" lon="5.48348">
        <ele>286.5</ele>
        <time>2025-10-18T11:14:47Z</time>
      </trkpt>
      <trkpt lat="43.21538" lon="5.48348">
        <ele>286.6</ele>
        <time>2025-10-18T11:14:48Z</time>
      </trkpt>
      <trkpt lat="43.21539" lon="5.48348">
        <ele>286.5</ele>
        <time>2025-10-18T11:14:49Z</time>
      </trkpt>
      <trkpt lat="43.21539" lon="5.48348">
        <ele>286.6</ele>
        <time>2025-10-18T11:14:50Z</time>
      </trkpt>
      <trkpt lat="43.21539" lon="5.48348">
        <ele>286.6</ele>
        <time>2025-10-18T11:14:51Z</time>
      </trkpt>
      <trkpt lat="43.21539" lon="5.48348">
        <ele>286.7</ele>
        <time>2025-10-18T11:14:52Z</time>
      </trkpt>
      <trkpt lat="43.21538" lon="5.48348">
        <ele>286.7</ele>
        <time>2025-10-18T11:14:53Z</time>
      </trkpt>
      <trkpt lat="43.21539" lon="5.48348">
        <ele>286.7</ele>
        <time>2025-10-18T11:14:54Z</time>
      </trkpt>
      <trkpt lat="43.21539" lon="5.48348">
        <ele>286.7</ele>
        <time>2025-10-18T11:14:55Z</time>
      </trkpt>
      <trkpt lat="43.21539" lon="5.48348">
        <ele>286.8</ele>
        <time>2025-10-18T11:14:56Z</time>
      </trkpt>
      <trkpt lat="43.21539" lon="5.48348">
        <ele>286.8</ele>
        <time>2025-10-18T11:14:57Z</time>
      </trkpt>
      <trkpt lat="43.21538" lon="5.48348">
        <ele>286.8</ele>
        <time>2025-10-18T11:14:58Z</time>
      </trkpt>
      <trkpt lat="43.21538" lon="5.48348">
        <ele>286.7</ele>
        <time>2025-10-18T11:14:59Z</time>
      </trkpt>
      <trkpt lat="43.21538" lon="5.48348">
        <ele>286.6</ele>
        <time>2025-10-18T11:15:00Z</time>
      </trkpt>
      <trkpt lat="43.21538" lon="5.48348">
        <ele>286.5</ele>
        <time>2025-10-18T11:15:01Z</time>
      </trkpt>
      <trkpt lat="43.21538" lon="5.48348">
        <ele>286.5</ele>
        <time>2025-10-18T11:15:02Z</time>
      </trkpt>
      <trkpt lat="43.21538" lon="5.48348">
        <ele>286.5</ele>
        <time>2025-10-18T11:15:03Z</time>
      </trkpt>
      <trkpt lat="43.21538" lon="5.48348">
        <ele>286.5</ele>
        <time>2025-10-18T11:15:04Z</time>
      </trkpt>
      <trkpt lat="43.21538" lon="5.48348">
        <ele>286.5</ele>
        <time>2025-10-18T11:15:05Z</time>
      </trkpt>
      <trkpt lat="43.21538" lon="5.48348">
        <ele>286.6</ele>
        <time>2025-10-18T11:15:06Z</time>
      </trkpt>
      <trkpt lat="43.21538" lon="5.48348">
        <ele>286.6</ele>
        <time>2025-10-18T11:15:07Z</time>
      </trkpt>
      <trkpt lat="43.21538" lon="5.48348">
        <ele>286.6</ele>
        <time>2025-10-18T11:15:08Z</time>
      </trkpt>
      <trkpt lat="43.21538" lon="5.48348">
        <ele>286.6</ele>
        <time>2025-10-18T11:15:09Z</time>
      </trkpt>
      <trkpt lat="43.21538" lon="5.48348">
        <ele>286.6</ele>
        <time>2025-10-18T11:15:10Z</time>
      </trkpt>
      <trkpt lat="43.21538" lon="5.48348">
        <ele>286.6</ele>
        <time>2025-10-18T11:15:11Z</time>
      </trkpt>
      <trkpt lat="43.21538" lon="5.48348">
        <ele>286.7</ele>
        <time>2025-10-18T11:15:12Z</time>
      </trkpt>
      <trkpt lat="43.21538" lon="5.48348">
        <ele>286.7</ele>
        <time>2025-10-18T11:15:13Z</time>
      </trkpt>
      <trkpt lat="43.21538" lon="5.48348">
        <ele>286.7</ele>
        <time>2025-10-18T11:15:14Z</time>
      </trkpt>
      <trkpt lat="43.21538" lon="5.48348">
        <ele>286.6</ele>
        <time>2025-10-18T11:15:15Z</time>
      </trkpt>
      <trkpt lat="43.21538" lon="5.48348">
        <ele>286.6</ele>
        <time>2025-10-18T11:15:16Z</time>
      </trkpt>
      <trkpt lat="43.21538" lon="5.48348">
        <ele>286.6</ele>
        <time>2025-10-18T11:15:17Z</time>
      </trkpt>
      <trkpt lat="43.21538" lon="5.48347">
        <ele>286.7</ele>
        <time>2025-10-18T11:15:18Z</time>
      </trkpt>
      <trkpt lat="43.21538" lon="5.48347">
        <ele>286.7</ele>
        <time>2025-10-18T11:15:19Z</time>
      </trkpt>
      <trkpt lat="43.21538" lon="5.48347">
        <ele>286.6</ele>
        <time>2025-10-18T11:15:20Z</time>
      </trkpt>
      <trkpt lat="43.21538" lon="5.48347">
        <ele>286.6</ele>
        <time>2025-10-18T11:15:21Z</time>
      </trkpt>
      <trkpt lat="43.21538" lon="5.48347">
        <ele>286.5</ele>
        <time>2025-10-18T11:15:22Z</time>
      </trkpt>
      <trkpt lat="43.21538" lon="5.48347">
        <ele>286.4</ele>
        <time>2025-10-18T11:15:23Z</time>
      </trkpt>
      <trkpt lat="43.21538" lon="5.48347">
        <ele>286.4</ele>
        <time>2025-10-18T11:15:24Z</time>
      </trkpt>
      <trkpt lat="43.21538" lon="5.48347">
        <ele>286.4</ele>
        <time>2025-10-18T11:15:25Z</time>
      </trkpt>
      <trkpt lat="43.21538" lon="5.48347">
        <ele>286.3</ele>
        <time>2025-10-18T11:15:26Z</time>
      </trkpt>
      <trkpt lat="43.21538" lon="5.48347">
        <ele>286.3</ele>
        <time>2025-10-18T11:15:27Z</time>
      </trkpt>
      <trkpt lat="43.21538" lon="5.48347">
        <ele>286.2</ele>
        <time>2025-10-18T11:15:28Z</time>
      </trkpt>
      <trkpt lat="43.21538" lon="5.48347">
        <ele>286.1</ele>
        <time>2025-10-18T11:15:29Z</time>
      </trkpt>
      <trkpt lat="43.21538" lon="5.48347">
        <ele>286</ele>
        <time>2025-10-18T11:15:30Z</time>
      </trkpt>
      <trkpt lat="43.21538" lon="5.48347">
        <ele>286</ele>
        <time>2025-10-18T11:15:31Z</time>
      </trkpt>
      <trkpt lat="43.21538" lon="5.48347">
        <ele>286</ele>
        <time>2025-10-18T11:15:32Z</time>
      </trkpt>
      <trkpt lat="43.21538" lon="5.48347">
        <ele>286</ele>
        <time>2025-10-18T11:15:33Z</time>
      </trkpt>
      <trkpt lat="43.21538" lon="5.48347">
        <ele>285.9</ele>
        <time>2025-10-18T11:15:34Z</time>
      </trkpt>
      <trkpt lat="43.21538" lon="5.48347">
        <ele>285.9</ele>
        <time>2025-10-18T11:15:35Z</time>
      </trkpt>
      <trkpt lat="43.21538" lon="5.48347">
        <ele>285.9</ele>
        <time>2025-10-18T11:15:36Z</time>
      </trkpt>
      <trkpt lat="43.21538" lon="5.48347">
        <ele>285.9</ele>
        <time>2025-10-18T11:15:37Z</time>
      </trkpt>
      <trkpt lat="43.21538" lon="5.48347">
        <ele>285.9</ele>
        <time>2025-10-18T11:15:38Z</time>
      </trkpt>
      <trkpt lat="43.21538" lon="5.48347">
        <ele>285.9</ele>
        <time>2025-10-18T11:15:39Z</time>
      </trkpt>
      <trkpt lat="43.21538" lon="5.48347">
        <ele>286</ele>
        <time>2025-10-18T11:15:40Z</time>
      </trkpt>
      <trkpt lat="43.21538" lon="5.48347">
        <ele>286</ele>
        <time>2025-10-18T11:15:41Z</time>
      </trkpt>
      <trkpt lat="43.21538" lon="5.48347">
        <ele>286</ele>
        <time>2025-10-18T11:15:42Z</time>
      </trkpt>
      <trkpt lat="43.21538" lon="5.48347">
        <ele>286</ele>
        <time>2025-10-18T11:15:43Z</time>
      </trkpt>
      <trkpt lat="43.21538" lon="5.48347">
        <ele>286.1</ele>
        <time>2025-10-18T11:15:44Z</time>
      </trkpt>
      <trkpt lat="43.21538" lon="5.48347">
        <ele>286.2</ele>
        <time>2025-10-18T11:15:45Z</time>
      </trkpt>
      <trkpt lat="43.21538" lon="5.48347">
        <ele>286.2</ele>
        <time>2025-10-18T11:15:46Z</time>
      </trkpt>
      <trkpt lat="43.21538" lon="5.48347">
        <ele>286.2</ele>
        <time>2025-10-18T11:15:47Z</time>
      </trkpt>
      <trkpt lat="43.21538" lon="5.48347">
        <ele>286.2</ele>
        <time>2025-10-18T11:15:48Z</time>
      </trkpt>
      <trkpt lat="43.21538" lon="5.48347">
        <ele>286.2</ele>
        <time>2025-10-18T11:15:49Z</time>
      </trkpt>
      <trkpt lat="43.21538" lon="5.48347">
        <ele>286.2</ele>
        <time>2025-10-18T11:15:50Z</time>
      </trkpt>
      <trkpt lat="43.21538" lon="5.48347">
        <ele>286.1</ele>
        <time>2025-10-18T11:15:51Z</time>
      </trkpt>
      <trkpt lat="43.21538" lon="5.48347">
        <ele>286.1</ele>
        <time>2025-10-18T11:15:52Z</time>
      </trkpt>
      <trkpt lat="43.21538" lon="5.48347">
        <ele>286</ele>
        <time>2025-10-18T11:15:53Z</time>
      </trkpt>
      <trkpt lat="43.21538" lon="5.48347">
        <ele>286</ele>
        <time>2025-10-18T11:15:54Z</time>
      </trkpt>
      <trkpt lat="43.21538" lon="5.48347">
        <ele>285.9</ele>
        <time>2025-10-18T11:15:55Z</time>
      </trkpt>
      <trkpt lat="43.21538" lon="5.48347">
        <ele>286</ele>
        <time>2025-10-18T11:15:56Z</time>
      </trkpt>
      <trkpt lat="43.21537" lon="5.48347">
        <ele>286</ele>
        <time>2025-10-18T11:15:57Z</time>
      </trkpt>
      <trkpt lat="43.21537" lon="5.48347">
        <ele>286.1</ele>
        <time>2025-10-18T11:15:58Z</time>
      </trkpt>
      <trkpt lat="43.21538" lon="5.48347">
        <ele>286.2</ele>
        <time>2025-10-18T11:15:59Z</time>
      </trkpt>
      <trkpt lat="43.21537" lon="5.48346">
        <ele>286.3</ele>
        <time>2025-10-18T11:16:00Z</time>
      </trkpt>
      <trkpt lat="43.21537" lon="5.48346">
        <ele>286.3</ele>
        <time>2025-10-18T11:16:01Z</time>
      </trkpt>
      <trkpt lat="43.21537" lon="5.48346">
        <ele>286.3</ele>
        <time>2025-10-18T11:16:02Z</time>
      </trkpt>
      <trkpt lat="43.21538" lon="5.48346">
        <ele>286.4</ele>
        <time>2025-10-18T11:16:03Z</time>
      </trkpt>
      <trkpt lat="43.21538" lon="5.48346">
        <ele>286.5</ele>
        <time>2025-10-18T11:16:04Z</time>
      </trkpt>
      <trkpt lat="43.21537" lon="5.48346">
        <ele>286.5</ele>
        <time>2025-10-18T11:16:05Z</time>
      </trkpt>
      <trkpt lat="43.21538" lon="5.48346">
        <ele>286.6</ele>
        <time>2025-10-18T11:16:06Z</time>
      </trkpt>
      <trkpt lat="43.21537" lon="5.48346">
        <ele>286.6</ele>
        <time>2025-10-18T11:16:07Z</time>
      </trkpt>
      <trkpt lat="43.21538" lon="5.48346">
        <ele>286.7</ele>
        <time>2025-10-18T11:16:08Z</time>
      </trkpt>
      <trkpt lat="43.21538" lon="5.48347">
        <ele>286.7</ele>
        <time>2025-10-18T11:16:09Z</time>
      </trkpt>
      <trkpt lat="43.21538" lon="5.48347">
        <ele>286.5</ele>
        <time>2025-10-18T11:16:10Z</time>
      </trkpt>
      <trkpt lat="43.21538" lon="5.48347">
        <ele>286.4</ele>
        <time>2025-10-18T11:16:11Z</time>
      </trkpt>
      <trkpt lat="43.21537" lon="5.48347">
        <ele>286.4</ele>
        <time>2025-10-18T11:16:12Z</time>
      </trkpt>
      <trkpt lat="43.21537" lon="5.48347">
        <ele>286.4</ele>
        <time>2025-10-18T11:16:13Z</time>
      </trkpt>
      <trkpt lat="43.21537" lon="5.48347">
        <ele>286.4</ele>
        <time>2025-10-18T11:16:14Z</time>
      </trkpt>
      <trkpt lat="43.21537" lon="5.48347">
        <ele>286.4</ele>
        <time>2025-10-18T11:16:15Z</time>
      </trkpt>
      <trkpt lat="43.21537" lon="5.48347">
        <ele>286.4</ele>
        <time>2025-10-18T11:16:16Z</time>
      </trkpt>
      <trkpt lat="43.21537" lon="5.48347">
        <ele>286.4</ele>
        <time>2025-10-18T11:16:17Z</time>
      </trkpt>
      <trkpt lat="43.21537" lon="5.48347">
        <ele>286.4</ele>
        <time>2025-10-18T11:16:18Z</time>
      </trkpt>
      <trkpt lat="43.21537" lon="5.48347">
        <ele>286.5</ele>
        <time>2025-10-18T11:16:19Z</time>
      </trkpt>
      <trkpt lat="43.21537" lon="5.48346">
        <ele>286.5</ele>
        <time>2025-10-18T11:16:20Z</time>
      </trkpt>
      <trkpt lat="43.21537" lon="5.48346">
        <ele>286.5</ele>
        <time>2025-10-18T11:16:21Z</time>
      </trkpt>
      <trkpt lat="43.21537" lon="5.48346">
        <ele>286.5</ele>
        <time>2025-10-18T11:16:22Z</time>
      </trkpt>
      <trkpt lat="43.21537" lon="5.48346">
        <ele>286.5</ele>
        <time>2025-10-18T11:16:23Z</time>
      </trkpt>
      <trkpt lat="43.21537" lon="5.48346">
        <ele>286.5</ele>
        <time>2025-10-18T11:16:24Z</time>
      </trkpt>
      <trkpt lat="43.21537" lon="5.48346">
        <ele>286.5</ele>
        <time>2025-10-18T11:16:25Z</time>
      </trkpt>
      <trkpt lat="43.21537" lon="5.48346">
        <ele>286.6</ele>
        <time>2025-10-18T11:16:26Z</time>
      </trkpt>
      <trkpt lat="43.21537" lon="5.48345">
        <ele>286.6</ele>
        <time>2025-10-18T11:16:27Z</time>
      </trkpt>
      <trkpt lat="43.21537" lon="5.48345">
        <ele>286.7</ele>
        <time>2025-10-18T11:16:28Z</time>
      </trkpt>
      <trkpt lat="43.21536" lon="5.48345">
        <ele>286.6</ele>
        <time>2025-10-18T11:16:29Z</time>
      </trkpt>
      <trkpt lat="43.21536" lon="5.48345">
        <ele>286.5</ele>
        <time>2025-10-18T11:16:30Z</time>
      </trkpt>
      <trkpt lat="43.21536" lon="5.48345">
        <ele>286.5</ele>
        <time>2025-10-18T11:16:31Z</time>
      </trkpt>
      <trkpt lat="43.21537" lon="5.48346">
        <ele>286.5</ele>
        <time>2025-10-18T11:16:32Z</time>
      </trkpt>
      <trkpt lat="43.21537" lon="5.48346">
        <ele>286.5</ele>
        <time>2025-10-18T11:16:33Z</time>
      </trkpt>
      <trkpt lat="43.21537" lon="5.48346">
        <ele>286.5</ele>
        <time>2025-10-18T11:16:34Z</time>
      </trkpt>
      <trkpt lat="43.21536" lon="5.48345">
        <ele>286.6</ele>
        <time>2025-10-18T11:16:35Z</time>
      </trkpt>
      <trkpt lat="43.21536" lon="5.48345">
        <ele>286.6</ele>
        <time>2025-10-18T11:16:36Z</time>
      </trkpt>
      <trkpt lat="43.21536" lon="5.48345">
        <ele>286.6</ele>
        <time>2025-10-18T11:16:37Z</time>
      </trkpt>
      <trkpt lat="43.21536" lon="5.48345">
        <ele>286.6</ele>
        <time>2025-10-18T11:16:38Z</time>
      </trkpt>
      <trkpt lat="43.21536" lon="5.48345">
        <ele>286.7</ele>
        <time>2025-10-18T11:16:39Z</time>
      </trkpt>
      <trkpt lat="43.21536" lon="5.48345">
        <ele>286.7</ele>
        <time>2025-10-18T11:16:40Z</time>
      </trkpt>
      <trkpt lat="43.21536" lon="5.48345">
        <ele>286.7</ele>
        <time>2025-10-18T11:16:41Z</time>
      </trkpt>
      <trkpt lat="43.21536" lon="5.48345">
        <ele>286.7</ele>
        <time>2025-10-18T11:16:42Z</time>
      </trkpt>
      <trkpt lat="43.21536" lon="5.48345">
        <ele>286.7</ele>
        <time>2025-10-18T11:16:43Z</time>
      </trkpt>
      <trkpt lat="43.21536" lon="5.48346">
        <ele>286.7</ele>
        <time>2025-10-18T11:16:44Z</time>
      </trkpt>
      <trkpt lat="43.21536" lon="5.48346">
        <ele>286.6</ele>
        <time>2025-10-18T11:16:45Z</time>
      </trkpt>
      <trkpt lat="43.21536" lon="5.48346">
        <ele>286.6</ele>
        <time>2025-10-18T11:16:46Z</time>
      </trkpt>
      <trkpt lat="43.21536" lon="5.48346">
        <ele>286.6</ele>
        <time>2025-10-18T11:16:47Z</time>
      </trkpt>
      <trkpt lat="43.21536" lon="5.48346">
        <ele>286.6</ele>
        <time>2025-10-18T11:16:48Z</time>
      </trkpt>
      <trkpt lat="43.21536" lon="5.48346">
        <ele>286.6</ele>
        <time>2025-10-18T11:16:49Z</time>
      </trkpt>
      <trkpt lat="43.21536" lon="5.48346">
        <ele>286.6</ele>
        <time>2025-10-18T11:16:50Z</time>
      </trkpt>
      <trkpt lat="43.21536" lon="5.48346">
        <ele>286.5</ele>
        <time>2025-10-18T11:16:51Z</time>
      </trkpt>
      <trkpt lat="43.21536" lon="5.48346">
        <ele>286.4</ele>
        <time>2025-10-18T11:16:52Z</time>
      </trkpt>
      <trkpt lat="43.21536" lon="5.48346">
        <ele>286.4</ele>
        <time>2025-10-18T11:16:53Z</time>
      </trkpt>
      <trkpt lat="43.21536" lon="5.48346">
        <ele>286.3</ele>
        <time>2025-10-18T11:16:54Z</time>
      </trkpt>
      <trkpt lat="43.21536" lon="5.48346">
        <ele>286.3</ele>
        <time>2025-10-18T11:16:55Z</time>
      </trkpt>
      <trkpt lat="43.21536" lon="5.48347">
        <ele>286.3</ele>
        <time>2025-10-18T11:16:56Z</time>
      </trkpt>
      <trkpt lat="43.21536" lon="5.48346">
        <ele>286.3</ele>
        <time>2025-10-18T11:16:57Z</time>
      </trkpt>
      <trkpt lat="43.21536" lon="5.48346">
        <ele>286.4</ele>
        <time>2025-10-18T11:16:58Z</time>
      </trkpt>
      <trkpt lat="43.21536" lon="5.48346">
        <ele>286.4</ele>
        <time>2025-10-18T11:16:59Z</time>
      </trkpt>
      <trkpt lat="43.21536" lon="5.48346">
        <ele>286.4</ele>
        <time>2025-10-18T11:17:00Z</time>
      </trkpt>
      <trkpt lat="43.21536" lon="5.48346">
        <ele>286.3</ele>
        <time>2025-10-18T11:17:01Z</time>
      </trkpt>
      <trkpt lat="43.21536" lon="5.48346">
        <ele>286.2</ele>
        <time>2025-10-18T11:17:02Z</time>
      </trkpt>
      <trkpt lat="43.21536" lon="5.48346">
        <ele>286.2</ele>
        <time>2025-10-18T11:17:03Z</time>
      </trkpt>
      <trkpt lat="43.21536" lon="5.48347">
        <ele>286.3</ele>
        <time>2025-10-18T11:17:04Z</time>
      </trkpt>
      <trkpt lat="43.21537" lon="5.48347">
        <ele>286.4</ele>
        <time>2025-10-18T11:17:05Z</time>
      </trkpt>
      <trkpt lat="43.21537" lon="5.48347">
        <ele>286.4</ele>
        <time>2025-10-18T11:17:06Z</time>
      </trkpt>
      <trkpt lat="43.21537" lon="5.48347">
        <ele>286.4</ele>
        <time>2025-10-18T11:17:07Z</time>
      </trkpt>
      <trkpt lat="43.21537" lon="5.48347">
        <ele>286.4</ele>
        <time>2025-10-18T11:17:08Z</time>
      </trkpt>
      <trkpt lat="43.21537" lon="5.48347">
        <ele>286.4</ele>
        <time>2025-10-18T11:17:09Z</time>
      </trkpt>
      <trkpt lat="43.21537" lon="5.48347">
        <ele>286.4</ele>
        <time>2025-10-18T11:17:10Z</time>
      </trkpt>
      <trkpt lat="43.21537" lon="5.48347">
        <ele>286.4</ele>
        <time>2025-10-18T11:17:11Z</time>
      </trkpt>
      <trkpt lat="43.21537" lon="5.48347">
        <ele>286.4</ele>
        <time>2025-10-18T11:17:12Z</time>
      </trkpt>
      <trkpt lat="43.21537" lon="5.48347">
        <ele>286.4</ele>
        <time>2025-10-18T11:17:13Z</time>
      </trkpt>
      <trkpt lat="43.21537" lon="5.48347">
        <ele>286.4</ele>
        <time>2025-10-18T11:17:14Z</time>
      </trkpt>
      <trkpt lat="43.21537" lon="5.48347">
        <ele>286.4</ele>
        <time>2025-10-18T11:17:15Z</time>
      </trkpt>
      <trkpt lat="43.21537" lon="5.48347">
        <ele>286.4</ele>
        <time>2025-10-18T11:17:16Z</time>
      </trkpt>
      <trkpt lat="43.21537" lon="5.48347">
        <ele>286.5</ele>
        <time>2025-10-18T11:17:17Z</time>
      </trkpt>
      <trkpt lat="43.21537" lon="5.48347">
        <ele>286.5</ele>
        <time>2025-10-18T11:17:18Z</time>
      </trkpt>
      <trkpt lat="43.21537" lon="5.48348">
        <ele>286.6</ele>
        <time>2025-10-18T11:17:19Z</time>
      </trkpt>
      <trkpt lat="43.21537" lon="5.48348">
        <ele>286.6</ele>
        <time>2025-10-18T11:17:20Z</time>
      </trkpt>
      <trkpt lat="43.21537" lon="5.48348">
        <ele>286.7</ele>
        <time>2025-10-18T11:17:21Z</time>
      </trkpt>
      <trkpt lat="43.21537" lon="5.48348">
        <ele>286.7</ele>
        <time>2025-10-18T11:17:22Z</time>
      </trkpt>
      <trkpt lat="43.21536" lon="5.48348">
        <ele>286.8</ele>
        <time>2025-10-18T11:17:23Z</time>
      </trkpt>
      <trkpt lat="43.21536" lon="5.48347">
        <ele>286.7</ele>
        <time>2025-10-18T11:17:24Z</time>
      </trkpt>
      <trkpt lat="43.21536" lon="5.48347">
        <ele>286.7</ele>
        <time>2025-10-18T11:17:25Z</time>
      </trkpt>
      <trkpt lat="43.21536" lon="5.48348">
        <ele>286.7</ele>
        <time>2025-10-18T11:17:26Z</time>
      </trkpt>
      <trkpt lat="43.21536" lon="5.48348">
        <ele>286.7</ele>
        <time>2025-10-18T11:17:27Z</time>
      </trkpt>
      <trkpt lat="43.21536" lon="5.48347">
        <ele>286.7</ele>
        <time>2025-10-18T11:17:28Z</time>
      </trkpt>
      <trkpt lat="43.21536" lon="5.48348">
        <ele>286.7</ele>
        <time>2025-10-18T11:17:29Z</time>
      </trkpt>
      <trkpt lat="43.21536" lon="5.48348">
        <ele>286.7</ele>
        <time>2025-10-18T11:17:30Z</time>
      </trkpt>
      <trkpt lat="43.21536" lon="5.48348">
        <ele>286.6</ele>
        <time>2025-10-18T11:17:31Z</time>
      </trkpt>
      <trkpt lat="43.21536" lon="5.48347">
        <ele>286.5</ele>
        <time>2025-10-18T11:17:32Z</time>
      </trkpt>
      <trkpt lat="43.21536" lon="5.48347">
        <ele>286.5</ele>
        <time>2025-10-18T11:17:33Z</time>
      </trkpt>
      <trkpt lat="43.21536" lon="5.48347">
        <ele>286.5</ele>
        <time>2025-10-18T11:17:34Z</time>
      </trkpt>
      <trkpt lat="43.21536" lon="5.48347">
        <ele>286.5</ele>
        <time>2025-10-18T11:17:35Z</time>
      </trkpt>
      <trkpt lat="43.21536" lon="5.48347">
        <ele>286.4</ele>
        <time>2025-10-18T11:17:36Z</time>
      </trkpt>
      <trkpt lat="43.21536" lon="5.48347">
        <ele>286.3</ele>
        <time>2025-10-18T11:17:37Z</time>
      </trkpt>
      <trkpt lat="43.21536" lon="5.48347">
        <ele>286.3</ele>
        <time>2025-10-18T11:17:38Z</time>
      </trkpt>
      <trkpt lat="43.21536" lon="5.48347">
        <ele>286.3</ele>
        <time>2025-10-18T11:17:39Z</time>
      </trkpt>
      <trkpt lat="43.21536" lon="5.48347">
        <ele>286.2</ele>
        <time>2025-10-18T11:17:40Z</time>
      </trkpt>
      <trkpt lat="43.21536" lon="5.48347">
        <ele>286.2</ele>
        <time>2025-10-18T11:17:41Z</time>
      </trkpt>
      <trkpt lat="43.21536" lon="5.48347">
        <ele>286.2</ele>
        <time>2025-10-18T11:17:42Z</time>
      </trkpt>
      <trkpt lat="43.21536" lon="5.48347">
        <ele>286.3</ele>
        <time>2025-10-18T11:17:43Z</time>
      </trkpt>
      <trkpt lat="43.21536" lon="5.48347">
        <ele>286.2</ele>
        <time>2025-10-18T11:17:44Z</time>
      </trkpt>
      <trkpt lat="43.21536" lon="5.48347">
        <ele>286.1</ele>
        <time>2025-10-18T11:17:45Z</time>
      </trkpt>
      <trkpt lat="43.21536" lon="5.48347">
        <ele>286.1</ele>
        <time>2025-10-18T11:17:46Z</time>
      </trkpt>
      <trkpt lat="43.21536" lon="5.48348">
        <ele>286</ele>
        <time>2025-10-18T11:17:47Z</time>
      </trkpt>
      <trkpt lat="43.21536" lon="5.48348">
        <ele>286</ele>
        <time>2025-10-18T11:17:48Z</time>
      </trkpt>
      <trkpt lat="43.21536" lon="5.48348">
        <ele>286</ele>
        <time>2025-10-18T11:17:49Z</time>
      </trkpt>
      <trkpt lat="43.21536" lon="5.48348">
        <ele>286</ele>
        <time>2025-10-18T11:17:50Z</time>
      </trkpt>
      <trkpt lat="43.21536" lon="5.48348">
        <ele>286.1</ele>
        <time>2025-10-18T11:17:51Z</time>
      </trkpt>
      <trkpt lat="43.21536" lon="5.48348">
        <ele>286.1</ele>
        <time>2025-10-18T11:17:52Z</time>
      </trkpt>
      <trkpt lat="43.21536" lon="5.48348">
        <ele>286.1</ele>
        <time>2025-10-18T11:17:53Z</time>
      </trkpt>
      <trkpt lat="43.21536" lon="5.48348">
        <ele>286.1</ele>
        <time>2025-10-18T11:17:54Z</time>
      </trkpt>
      <trkpt lat="43.21536" lon="5.48348">
        <ele>286.1</ele>
        <time>2025-10-18T11:17:55Z</time>
      </trkpt>
      <trkpt lat="43.21536" lon="5.48348">
        <ele>286.1</ele>
        <time>2025-10-18T11:17:56Z</time>
      </trkpt>
      <trkpt lat="43.21536" lon="5.48348">
        <ele>286.1</ele>
        <time>2025-10-18T11:17:57Z</time>
      </trkpt>
      <trkpt lat="43.21536" lon="5.48348">
        <ele>286.1</ele>
        <time>2025-10-18T11:17:58Z</time>
      </trkpt>
      <trkpt lat="43.21536" lon="5.48348">
        <ele>286.2</ele>
        <time>2025-10-18T11:17:59Z</time>
      </trkpt>
      <trkpt lat="43.21536" lon="5.48348">
        <ele>286.2</ele>
        <time>2025-10-18T11:18:00Z</time>
      </trkpt>
      <trkpt lat="43.21536" lon="5.48348">
        <ele>286.3</ele>
        <time>2025-10-18T11:18:01Z</time>
      </trkpt>
      <trkpt lat="43.21536" lon="5.48348">
        <ele>286.3</ele>
        <time>2025-10-18T11:18:02Z</time>
      </trkpt>
      <trkpt lat="43.21536" lon="5.48348">
        <ele>286.3</ele>
        <time>2025-10-18T11:18:03Z</time>
      </trkpt>
      <trkpt lat="43.21536" lon="5.48348">
        <ele>286.2</ele>
        <time>2025-10-18T11:18:04Z</time>
      </trkpt>
      <trkpt lat="43.21536" lon="5.48348">
        <ele>286.2</ele>
        <time>2025-10-18T11:18:05Z</time>
      </trkpt>
      <trkpt lat="43.21536" lon="5.48348">
        <ele>286.2</ele>
        <time>2025-10-18T11:18:06Z</time>
      </trkpt>
      <trkpt lat="43.21536" lon="5.48348">
        <ele>286.1</ele>
        <time>2025-10-18T11:18:07Z</time>
      </trkpt>
      <trkpt lat="43.21536" lon="5.48348">
        <ele>286.1</ele>
        <time>2025-10-18T11:18:08Z</time>
      </trkpt>
      <trkpt lat="43.21536" lon="5.48348">
        <ele>286.1</ele>
        <time>2025-10-18T11:18:09Z</time>
      </trkpt>
      <trkpt lat="43.21536" lon="5.48348">
        <ele>286.1</ele>
        <time>2025-10-18T11:18:10Z</time>
      </trkpt>
      <trkpt lat="43.21536" lon="5.48348">
        <ele>286.1</ele>
        <time>2025-10-18T11:18:11Z</time>
      </trkpt>
      <trkpt lat="43.21536" lon="5.48348">
        <ele>286.1</ele>
        <time>2025-10-18T11:18:12Z</time>
      </trkpt>
      <trkpt lat="43.21536" lon="5.48348">
        <ele>286.2</ele>
        <time>2025-10-18T11:18:13Z</time>
      </trkpt>
      <trkpt lat="43.21536" lon="5.48348">
        <ele>286.2</ele>
        <time>2025-10-18T11:18:14Z</time>
      </trkpt>
      <trkpt lat="43.21536" lon="5.48349">
        <ele>286.1</ele>
        <time>2025-10-18T11:18:15Z</time>
      </trkpt>
      <trkpt lat="43.21536" lon="5.48349">
        <ele>286.1</ele>
        <time>2025-10-18T11:18:16Z</time>
      </trkpt>
      <trkpt lat="43.21536" lon="5.48349">
        <ele>286.1</ele>
        <time>2025-10-18T11:18:17Z</time>
      </trkpt>
      <trkpt lat="43.21536" lon="5.48349">
        <ele>286.2</ele>
        <time>2025-10-18T11:18:18Z</time>
      </trkpt>
      <trkpt lat="43.21536" lon="5.48349">
        <ele>286.3</ele>
        <time>2025-10-18T11:18:19Z</time>
      </trkpt>
      <trkpt lat="43.21536" lon="5.48349">
        <ele>286.3</ele>
        <time>2025-10-18T11:18:20Z</time>
      </trkpt>
      <trkpt lat="43.21536" lon="5.48349">
        <ele>286.3</ele>
        <time>2025-10-18T11:18:21Z</time>
      </trkpt>
      <trkpt lat="43.21536" lon="5.48349">
        <ele>286.3</ele>
        <time>2025-10-18T11:18:22Z</time>
      </trkpt>
      <trkpt lat="43.21536" lon="5.48349">
        <ele>286.2</ele>
        <time>2025-10-18T11:18:23Z</time>
      </trkpt>
      <trkpt lat="43.21536" lon="5.48349">
        <ele>286.2</ele>
        <time>2025-10-18T11:18:24Z</time>
      </trkpt>
      <trkpt lat="43.21536" lon="5.48349">
        <ele>286.3</ele>
        <time>2025-10-18T11:18:25Z</time>
      </trkpt>
      <trkpt lat="43.21536" lon="5.48349">
        <ele>286.2</ele>
        <time>2025-10-18T11:18:26Z</time>
      </trkpt>
      <trkpt lat="43.21536" lon="5.48349">
        <ele>286.2</ele>
        <time>2025-10-18T11:18:27Z</time>
      </trkpt>
      <trkpt lat="43.21536" lon="5.48349">
        <ele>286.2</ele>
        <time>2025-10-18T11:18:28Z</time>
      </trkpt>
      <trkpt lat="43.21536" lon="5.48349">
        <ele>286.2</ele>
        <time>2025-10-18T11:18:29Z</time>
      </trkpt>
      <trkpt lat="43.21536" lon="5.48349">
        <ele>286.2</ele>
        <time>2025-10-18T11:18:30Z</time>
      </trkpt>
      <trkpt lat="43.21536" lon="5.48349">
        <ele>286.3</ele>
        <time>2025-10-18T11:18:31Z</time>
      </trkpt>
      <trkpt lat="43.21536" lon="5.48349">
        <ele>286.3</ele>
        <time>2025-10-18T11:18:32Z</time>
      </trkpt>
      <trkpt lat="43.21535" lon="5.48348">
        <ele>286.3</ele>
        <time>2025-10-18T11:18:33Z</time>
      </trkpt>
      <trkpt lat="43.21535" lon="5.48349">
        <ele>286.4</ele>
        <time>2025-10-18T11:18:34Z</time>
      </trkpt>
      <trkpt lat="43.21536" lon="5.48349">
        <ele>286.4</ele>
        <time>2025-10-18T11:18:35Z</time>
      </trkpt>
      <trkpt lat="43.21536" lon="5.48349">
        <ele>286.3</ele>
        <time>2025-10-18T11:18:36Z</time>
      </trkpt>
      <trkpt lat="43.21536" lon="5.48349">
        <ele>286.3</ele>
        <time>2025-10-18T11:18:37Z</time>
      </trkpt>
      <trkpt lat="43.21535" lon="5.48349">
        <ele>286.2</ele>
        <time>2025-10-18T11:18:38Z</time>
      </trkpt>
      <trkpt lat="43.21535" lon="5.48349">
        <ele>286.2</ele>
        <time>2025-10-18T11:18:39Z</time>
      </trkpt>
      <trkpt lat="43.21536" lon="5.48349">
        <ele>286.2</ele>
        <time>2025-10-18T11:18:40Z</time>
      </trkpt>
      <trkpt lat="43.21536" lon="5.48349">
        <ele>286.1</ele>
        <time>2025-10-18T11:18:41Z</time>
      </trkpt>
      <trkpt lat="43.21536" lon="5.48349">
        <ele>286.1</ele>
        <time>2025-10-18T11:18:42Z</time>
      </trkpt>
      <trkpt lat="43.21536" lon="5.48349">
        <ele>286.1</ele>
        <time>2025-10-18T11:18:43Z</time>
      </trkpt>
      <trkpt lat="43.21536" lon="5.48349">
        <ele>286</ele>
        <time>2025-10-18T11:18:44Z</time>
      </trkpt>
      <trkpt lat="43.21536" lon="5.48349">
        <ele>286.1</ele>
        <time>2025-10-18T11:18:45Z</time>
      </trkpt>
      <trkpt lat="43.21536" lon="5.48349">
        <ele>286.1</ele>
        <time>2025-10-18T11:18:46Z</time>
      </trkpt>
      <trkpt lat="43.21535" lon="5.48349">
        <ele>286.2</ele>
        <time>2025-10-18T11:18:47Z</time>
      </trkpt>
      <trkpt lat="43.21535" lon="5.48349">
        <ele>286.2</ele>
        <time>2025-10-18T11:18:48Z</time>
      </trkpt>
      <trkpt lat="43.21535" lon="5.48349">
        <ele>286.2</ele>
        <time>2025-10-18T11:18:49Z</time>
      </trkpt>
      <trkpt lat="43.21535" lon="5.48349">
        <ele>286.1</ele>
        <time>2025-10-18T11:18:50Z</time>
      </trkpt>
      <trkpt lat="43.21535" lon="5.48349">
        <ele>286.1</ele>
        <time>2025-10-18T11:18:51Z</time>
      </trkpt>
      <trkpt lat="43.21535" lon="5.48349">
        <ele>286.1</ele>
        <time>2025-10-18T11:18:52Z</time>
      </trkpt>
      <trkpt lat="43.21535" lon="5.48349">
        <ele>286.1</ele>
        <time>2025-10-18T11:18:53Z</time>
      </trkpt>
      <trkpt lat="43.21535" lon="5.48349">
        <ele>286.1</ele>
        <time>2025-10-18T11:18:54Z</time>
      </trkpt>
      <trkpt lat="43.21535" lon="5.48349">
        <ele>286.2</ele>
        <time>2025-10-18T11:18:55Z</time>
      </trkpt>
      <trkpt lat="43.21535" lon="5.48349">
        <ele>286.3</ele>
        <time>2025-10-18T11:18:56Z</time>
      </trkpt>
      <trkpt lat="43.21535" lon="5.48349">
        <ele>286.3</ele>
        <time>2025-10-18T11:18:57Z</time>
      </trkpt>
      <trkpt lat="43.21535" lon="5.48349">
        <ele>286.3</ele>
        <time>2025-10-18T11:18:58Z</time>
      </trkpt>
      <trkpt lat="43.21535" lon="5.48349">
        <ele>286.3</ele>
        <time>2025-10-18T11:18:59Z</time>
      </trkpt>
      <trkpt lat="43.21535" lon="5.48349">
        <ele>286.2</ele>
        <time>2025-10-18T11:19:00Z</time>
      </trkpt>
      <trkpt lat="43.21535" lon="5.48349">
        <ele>286.2</ele>
        <time>2025-10-18T11:19:01Z</time>
      </trkpt>
      <trkpt lat="43.21535" lon="5.48349">
        <ele>286.2</ele>
        <time>2025-10-18T11:19:02Z</time>
      </trkpt>
      <trkpt lat="43.21535" lon="5.48349">
        <ele>286.3</ele>
        <time>2025-10-18T11:19:03Z</time>
      </trkpt>
      <trkpt lat="43.21535" lon="5.48349">
        <ele>286.3</ele>
        <time>2025-10-18T11:19:04Z</time>
      </trkpt>
      <trkpt lat="43.21535" lon="5.48349">
        <ele>286.3</ele>
        <time>2025-10-18T11:19:05Z</time>
      </trkpt>
      <trkpt lat="43.21535" lon="5.48349">
        <ele>286.4</ele>
        <time>2025-10-18T11:19:06Z</time>
      </trkpt>
      <trkpt lat="43.21535" lon="5.48349">
        <ele>286.4</ele>
        <time>2025-10-18T11:19:07Z</time>
      </trkpt>
      <trkpt lat="43.21535" lon="5.48349">
        <ele>286.5</ele>
        <time>2025-10-18T11:19:08Z</time>
      </trkpt>
      <trkpt lat="43.21535" lon="5.48349">
        <ele>286.5</ele>
        <time>2025-10-18T11:19:09Z</time>
      </trkpt>
      <trkpt lat="43.21535" lon="5.48349">
        <ele>286.5</ele>
        <time>2025-10-18T11:19:10Z</time>
      </trkpt>
      <trkpt lat="43.21535" lon="5.48349">
        <ele>286.6</ele>
        <time>2025-10-18T11:19:11Z</time>
      </trkpt>
      <trkpt lat="43.21535" lon="5.48349">
        <ele>286.5</ele>
        <time>2025-10-18T11:19:12Z</time>
      </trkpt>
      <trkpt lat="43.21535" lon="5.48349">
        <ele>286.5</ele>
        <time>2025-10-18T11:19:13Z</time>
      </trkpt>
      <trkpt lat="43.21535" lon="5.48349">
        <ele>286.5</ele>
        <time>2025-10-18T11:19:14Z</time>
      </trkpt>
      <trkpt lat="43.21535" lon="5.48348">
        <ele>286.5</ele>
        <time>2025-10-18T11:19:15Z</time>
      </trkpt>
      <trkpt lat="43.21536" lon="5.48348">
        <ele>286.4</ele>
        <time>2025-10-18T11:19:16Z</time>
      </trkpt>
      <trkpt lat="43.21536" lon="5.48348">
        <ele>286.4</ele>
        <time>2025-10-18T11:19:17Z</time>
      </trkpt>
      <trkpt lat="43.21535" lon="5.48348">
        <ele>286.4</ele>
        <time>2025-10-18T11:19:18Z</time>
      </trkpt>
      <trkpt lat="43.21535" lon="5.48348">
        <ele>286.5</ele>
        <time>2025-10-18T11:19:19Z</time>
      </trkpt>
      <trkpt lat="43.21535" lon="5.48349">
        <ele>286.4</ele>
        <time>2025-10-18T11:19:20Z</time>
      </trkpt>
      <trkpt lat="43.21535" lon="5.48349">
        <ele>286.4</ele>
        <time>2025-10-18T11:19:21Z</time>
      </trkpt>
      <trkpt lat="43.21535" lon="5.48349">
        <ele>286.4</ele>
        <time>2025-10-18T11:19:22Z</time>
      </trkpt>
      <trkpt lat="43.21535" lon="5.48349">
        <ele>286.5</ele>
        <time>2025-10-18T11:19:23Z</time>
      </trkpt>
      <trkpt lat="43.21535" lon="5.48349">
        <ele>286.5</ele>
        <time>2025-10-18T11:19:24Z</time>
      </trkpt>
      <trkpt lat="43.21535" lon="5.48349">
        <ele>286.5</ele>
        <time>2025-10-18T11:19:25Z</time>
      </trkpt>
      <trkpt lat="43.21535" lon="5.48349">
        <ele>286.6</ele>
        <time>2025-10-18T11:19:26Z</time>
      </trkpt>
      <trkpt lat="43.21535" lon="5.48349">
        <ele>286.5</ele>
        <time>2025-10-18T11:19:27Z</time>
      </trkpt>
      <trkpt lat="43.21535" lon="5.48349">
        <ele>286.5</ele>
        <time>2025-10-18T11:19:28Z</time>
      </trkpt>
      <trkpt lat="43.21535" lon="5.48349">
        <ele>286.5</ele>
        <time>2025-10-18T11:19:29Z</time>
      </trkpt>
      <trkpt lat="43.21535" lon="5.48349">
        <ele>286.5</ele>
        <time>2025-10-18T11:19:30Z</time>
      </trkpt>
      <trkpt lat="43.21535" lon="5.48349">
        <ele>286.5</ele>
        <time>2025-10-18T11:19:31Z</time>
      </trkpt>
      <trkpt lat="43.21535" lon="5.48349">
        <ele>286.6</ele>
        <time>2025-10-18T11:19:32Z</time>
      </trkpt>
      <trkpt lat="43.21535" lon="5.48349">
        <ele>286.6</ele>
        <time>2025-10-18T11:19:33Z</time>
      </trkpt>
      <trkpt lat="43.21535" lon="5.48349">
        <ele>286.7</ele>
        <time>2025-10-18T11:19:34Z</time>
      </trkpt>
      <trkpt lat="43.21535" lon="5.48349">
        <ele>286.7</ele>
        <time>2025-10-18T11:19:35Z</time>
      </trkpt>
      <trkpt lat="43.21535" lon="5.48349">
        <ele>286.8</ele>
        <time>2025-10-18T11:19:36Z</time>
      </trkpt>
      <trkpt lat="43.21535" lon="5.48349">
        <ele>286.9</ele>
        <time>2025-10-18T11:19:37Z</time>
      </trkpt>
      <trkpt lat="43.21535" lon="5.48349">
        <ele>286.9</ele>
        <time>2025-10-18T11:19:38Z</time>
      </trkpt>
      <trkpt lat="43.21535" lon="5.48349">
        <ele>286.9</ele>
        <time>2025-10-18T11:19:39Z</time>
      </trkpt>
      <trkpt lat="43.21535" lon="5.48349">
        <ele>286.9</ele>
        <time>2025-10-18T11:19:40Z</time>
      </trkpt>
      <trkpt lat="43.21535" lon="5.48349">
        <ele>286.8</ele>
        <time>2025-10-18T11:19:41Z</time>
      </trkpt>
      <trkpt lat="43.21535" lon="5.48349">
        <ele>286.8</ele>
        <time>2025-10-18T11:19:42Z</time>
      </trkpt>
      <trkpt lat="43.21535" lon="5.48349">
        <ele>286.8</ele>
        <time>2025-10-18T11:19:43Z</time>
      </trkpt>
      <trkpt lat="43.21535" lon="5.48349">
        <ele>286.9</ele>
        <time>2025-10-18T11:19:44Z</time>
      </trkpt>
      <trkpt lat="43.21535" lon="5.48349">
        <ele>286.9</ele>
        <time>2025-10-18T11:19:45Z</time>
      </trkpt>
      <trkpt lat="43.21535" lon="5.48349">
        <ele>286.9</ele>
        <time>2025-10-18T11:19:46Z</time>
      </trkpt>
      <trkpt lat="43.21535" lon="5.48349">
        <ele>286.9</ele>
        <time>2025-10-18T11:19:47Z</time>
      </trkpt>
      <trkpt lat="43.21535" lon="5.48349">
        <ele>286.8</ele>
        <time>2025-10-18T11:19:48Z</time>
      </trkpt>
      <trkpt lat="43.21535" lon="5.48349">
        <ele>286.8</ele>
        <time>2025-10-18T11:19:49Z</time>
      </trkpt>
      <trkpt lat="43.21535" lon="5.48349">
        <ele>286.8</ele>
        <time>2025-10-18T11:19:50Z</time>
      </trkpt>
      <trkpt lat="43.21535" lon="5.48349">
        <ele>286.7</ele>
        <time>2025-10-18T11:19:51Z</time>
      </trkpt>
      <trkpt lat="43.21535" lon="5.48349">
        <ele>286.7</ele>
        <time>2025-10-18T11:19:52Z</time>
      </trkpt>
      <trkpt lat="43.21535" lon="5.48349">
        <ele>286.7</ele>
        <time>2025-10-18T11:19:53Z</time>
      </trkpt>
      <trkpt lat="43.21535" lon="5.48349">
        <ele>286.8</ele>
        <time>2025-10-18T11:19:54Z</time>
      </trkpt>
      <trkpt lat="43.21535" lon="5.48349">
        <ele>286.7</ele>
        <time>2025-10-18T11:19:55Z</time>
      </trkpt>
      <trkpt lat="43.21535" lon="5.48349">
        <ele>286.7</ele>
        <time>2025-10-18T11:19:56Z</time>
      </trkpt>
      <trkpt lat="43.21535" lon="5.48349">
        <ele>286.7</ele>
        <time>2025-10-18T11:19:57Z</time>
      </trkpt>
      <trkpt lat="43.21535" lon="5.48349">
        <ele>286.7</ele>
        <time>2025-10-18T11:19:58Z</time>
      </trkpt>
      <trkpt lat="43.21535" lon="5.48349">
        <ele>286.7</ele>
        <time>2025-10-18T11:19:59Z</time>
      </trkpt>
      <trkpt lat="43.21535" lon="5.48349">
        <ele>286.7</ele>
        <time>2025-10-18T11:20:00Z</time>
      </trkpt>
      <trkpt lat="43.21535" lon="5.48349">
        <ele>286.7</ele>
        <time>2025-10-18T11:20:01Z</time>
      </trkpt>
      <trkpt lat="43.21535" lon="5.48348">
        <ele>286.7</ele>
        <time>2025-10-18T11:20:02Z</time>
      </trkpt>
      <trkpt lat="43.21535" lon="5.48348">
        <ele>286.6</ele>
        <time>2025-10-18T11:20:03Z</time>
      </trkpt>
      <trkpt lat="43.21534" lon="5.48348">
        <ele>286.6</ele>
        <time>2025-10-18T11:20:04Z</time>
      </trkpt>
      <trkpt lat="43.21534" lon="5.48347">
        <ele>286.6</ele>
        <time>2025-10-18T11:20:05Z</time>
      </trkpt>
      <trkpt lat="43.21534" lon="5.48347">
        <ele>286.6</ele>
        <time>2025-10-18T11:20:06Z</time>
      </trkpt>
      <trkpt lat="43.21533" lon="5.48347">
        <ele>286.5</ele>
        <time>2025-10-18T11:20:07Z</time>
      </trkpt>
      <trkpt lat="43.21533" lon="5.48346">
        <ele>286.5</ele>
        <time>2025-10-18T11:20:08Z</time>
      </trkpt>
      <trkpt lat="43.21533" lon="5.48346">
        <ele>286.4</ele>
        <time>2025-10-18T11:20:09Z</time>
      </trkpt>
      <trkpt lat="43.21532" lon="5.48346">
        <ele>286.3</ele>
        <time>2025-10-18T11:20:10Z</time>
      </trkpt>
      <trkpt lat="43.21532" lon="5.48346">
        <ele>286.1</ele>
        <time>2025-10-18T11:20:11Z</time>
      </trkpt>
      <trkpt lat="43.21532" lon="5.48346">
        <ele>286</ele>
        <time>2025-10-18T11:20:12Z</time>
      </trkpt>
      <trkpt lat="43.21532" lon="5.48346">
        <ele>285.9</ele>
        <time>2025-10-18T11:20:13Z</time>
      </trkpt>
      <trkpt lat="43.21532" lon="5.48346">
        <ele>285.9</ele>
        <time>2025-10-18T11:20:14Z</time>
      </trkpt>
      <trkpt lat="43.21531" lon="5.48345">
        <ele>285.8</ele>
        <time>2025-10-18T11:20:15Z</time>
      </trkpt>
      <trkpt lat="43.2153" lon="5.48345">
        <ele>285.9</ele>
        <time>2025-10-18T11:20:16Z</time>
      </trkpt>
      <trkpt lat="43.2153" lon="5.48345">
        <ele>285.8</ele>
        <time>2025-10-18T11:20:17Z</time>
      </trkpt>
      <trkpt lat="43.2153" lon="5.48346">
        <ele>285.8</ele>
        <time>2025-10-18T11:20:18Z</time>
      </trkpt>
      <trkpt lat="43.21529" lon="5.48346">
        <ele>285.7</ele>
        <time>2025-10-18T11:20:19Z</time>
      </trkpt>
      <trkpt lat="43.21529" lon="5.48346">
        <ele>285.7</ele>
        <time>2025-10-18T11:20:20Z</time>
      </trkpt>
      <trkpt lat="43.21528" lon="5.48347">
        <ele>285.6</ele>
        <time>2025-10-18T11:20:21Z</time>
      </trkpt>
      <trkpt lat="43.21528" lon="5.48347">
        <ele>285.6</ele>
        <time>2025-10-18T11:20:22Z</time>
      </trkpt>
      <trkpt lat="43.21528" lon="5.48347">
        <ele>285.5</ele>
        <time>2025-10-18T11:20:23Z</time>
      </trkpt>
      <trkpt lat="43.21527" lon="5.48348">
        <ele>285.5</ele>
        <time>2025-10-18T11:20:24Z</time>
      </trkpt>
      <trkpt lat="43.21527" lon="5.48349">
        <ele>285.4</ele>
        <time>2025-10-18T11:20:25Z</time>
      </trkpt>
      <trkpt lat="43.21527" lon="5.48349">
        <ele>285.4</ele>
        <time>2025-10-18T11:20:26Z</time>
      </trkpt>
      <trkpt lat="43.21526" lon="5.4835">
        <ele>285.4</ele>
        <time>2025-10-18T11:20:27Z</time>
      </trkpt>
      <trkpt lat="43.21526" lon="5.4835">
        <ele>285.4</ele>
        <time>2025-10-18T11:20:28Z</time>
      </trkpt>
      <trkpt lat="43.21525" lon="5.48349">
        <ele>285.3</ele>
        <time>2025-10-18T11:20:29Z</time>
      </trkpt>
      <trkpt lat="43.21525" lon="5.48349">
        <ele>285.2</ele>
        <time>2025-10-18T11:20:30Z</time>
      </trkpt>
      <trkpt lat="43.21524" lon="5.48349">
        <ele>285.2</ele>
        <time>2025-10-18T11:20:31Z</time>
      </trkpt>
      <trkpt lat="43.21524" lon="5.48349">
        <ele>285.1</ele>
        <time>2025-10-18T11:20:32Z</time>
      </trkpt>
      <trkpt lat="43.21523" lon="5.48349">
        <ele>285.1</ele>
        <time>2025-10-18T11:20:33Z</time>
      </trkpt>
      <trkpt lat="43.21523" lon="5.48349">
        <ele>285</ele>
        <time>2025-10-18T11:20:34Z</time>
      </trkpt>
      <trkpt lat="43.21522" lon="5.48349">
        <ele>284.8</ele>
        <time>2025-10-18T11:20:35Z</time>
      </trkpt>
      <trkpt lat="43.21522" lon="5.48349">
        <ele>284.5</ele>
        <time>2025-10-18T11:20:36Z</time>
      </trkpt>
      <trkpt lat="43.21521" lon="5.48349">
        <ele>284.4</ele>
        <time>2025-10-18T11:20:37Z</time>
      </trkpt>
      <trkpt lat="43.21521" lon="5.48349">
        <ele>284.1</ele>
        <time>2025-10-18T11:20:38Z</time>
      </trkpt>
      <trkpt lat="43.21521" lon="5.48349">
        <ele>284</ele>
        <time>2025-10-18T11:20:39Z</time>
      </trkpt>
      <trkpt lat="43.21521" lon="5.48349">
        <ele>283.8</ele>
        <time>2025-10-18T11:20:40Z</time>
      </trkpt>
      <trkpt lat="43.21521" lon="5.48349">
        <ele>283.7</ele>
        <time>2025-10-18T11:20:41Z</time>
      </trkpt>
      <trkpt lat="43.21521" lon="5.48349">
        <ele>283.6</ele>
        <time>2025-10-18T11:20:42Z</time>
      </trkpt>
      <trkpt lat="43.21521" lon="5.48349">
        <ele>283.5</ele>
        <time>2025-10-18T11:20:43Z</time>
      </trkpt>
      <trkpt lat="43.2152" lon="5.48349">
        <ele>283.4</ele>
        <time>2025-10-18T11:20:44Z</time>
      </trkpt>
      <trkpt lat="43.2152" lon="5.48349">
        <ele>283.4</ele>
        <time>2025-10-18T11:20:45Z</time>
      </trkpt>
      <trkpt lat="43.2152" lon="5.48348">
        <ele>283.2</ele>
        <time>2025-10-18T11:20:46Z</time>
      </trkpt>
      <trkpt lat="43.21519" lon="5.48348">
        <ele>283.1</ele>
        <time>2025-10-18T11:20:47Z</time>
      </trkpt>
      <trkpt lat="43.21519" lon="5.48348">
        <ele>283</ele>
        <time>2025-10-18T11:20:48Z</time>
      </trkpt>
      <trkpt lat="43.21519" lon="5.48347">
        <ele>282.9</ele>
        <time>2025-10-18T11:20:49Z</time>
      </trkpt>
      <trkpt lat="43.21518" lon="5.48347">
        <ele>282.9</ele>
        <time>2025-10-18T11:20:50Z</time>
      </trkpt>
      <trkpt lat="43.21518" lon="5.48347">
        <ele>282.8</ele>
        <time>2025-10-18T11:20:51Z</time>
      </trkpt>
      <trkpt lat="43.21518" lon="5.48347">
        <ele>282.7</ele>
        <time>2025-10-18T11:20:52Z</time>
      </trkpt>
      <trkpt lat="43.21517" lon="5.48346">
        <ele>282.7</ele>
        <time>2025-10-18T11:20:53Z</time>
      </trkpt>
      <trkpt lat="43.21517" lon="5.48346">
        <ele>282.6</ele>
        <time>2025-10-18T11:20:54Z</time>
      </trkpt>
      <trkpt lat="43.21517" lon="5.48347">
        <ele>282.5</ele>
        <time>2025-10-18T11:20:55Z</time>
      </trkpt>
      <trkpt lat="43.21517" lon="5.48346">
        <ele>282.5</ele>
        <time>2025-10-18T11:20:56Z</time>
      </trkpt>
      <trkpt lat="43.21516" lon="5.48346">
        <ele>282.4</ele>
        <time>2025-10-18T11:20:57Z</time>
      </trkpt>
      <trkpt lat="43.21516" lon="5.48347">
        <ele>282.4</ele>
        <time>2025-10-18T11:20:58Z</time>
      </trkpt>
      <trkpt lat="43.21515" lon="5.48347">
        <ele>282.2</ele>
        <time>2025-10-18T11:20:59Z</time>
      </trkpt>
      <trkpt lat="43.21515" lon="5.48347">
        <ele>282.2</ele>
        <time>2025-10-18T11:21:00Z</time>
      </trkpt>
      <trkpt lat="43.21514" lon="5.48348">
        <ele>282.1</ele>
        <time>2025-10-18T11:21:01Z</time>
      </trkpt>
      <trkpt lat="43.21514" lon="5.48348">
        <ele>282</ele>
        <time>2025-10-18T11:21:02Z</time>
      </trkpt>
      <trkpt lat="43.21513" lon="5.48348">
        <ele>281.9</ele>
        <time>2025-10-18T11:21:03Z</time>
      </trkpt>
      <trkpt lat="43.21513" lon="5.48349">
        <ele>281.8</ele>
        <time>2025-10-18T11:21:04Z</time>
      </trkpt>
      <trkpt lat="43.21512" lon="5.48349">
        <ele>281.6</ele>
        <time>2025-10-18T11:21:05Z</time>
      </trkpt>
      <trkpt lat="43.21512" lon="5.4835">
        <ele>281.6</ele>
        <time>2025-10-18T11:21:06Z</time>
      </trkpt>
      <trkpt lat="43.21512" lon="5.4835">
        <ele>281.6</ele>
        <time>2025-10-18T11:21:07Z</time>
      </trkpt>
      <trkpt lat="43.21512" lon="5.4835">
        <ele>281.5</ele>
        <time>2025-10-18T11:21:08Z</time>
      </trkpt>
      <trkpt lat="43.21512" lon="5.4835">
        <ele>281.4</ele>
        <time>2025-10-18T11:21:09Z</time>
      </trkpt>
      <trkpt lat="43.21511" lon="5.4835">
        <ele>281.3</ele>
        <time>2025-10-18T11:21:10Z</time>
      </trkpt>
      <trkpt lat="43.21511" lon="5.4835">
        <ele>281.1</ele>
        <time>2025-10-18T11:21:11Z</time>
      </trkpt>
      <trkpt lat="43.21511" lon="5.4835">
        <ele>280.9</ele>
        <time>2025-10-18T11:21:12Z</time>
      </trkpt>
      <trkpt lat="43.2151" lon="5.4835">
        <ele>280.8</ele>
        <time>2025-10-18T11:21:13Z</time>
      </trkpt>
      <trkpt lat="43.2151" lon="5.48351">
        <ele>280.6</ele>
        <time>2025-10-18T11:21:14Z</time>
      </trkpt>
      <trkpt lat="43.2151" lon="5.48351">
        <ele>280.5</ele>
        <time>2025-10-18T11:21:15Z</time>
      </trkpt>
      <trkpt lat="43.21509" lon="5.48352">
        <ele>280.4</ele>
        <time>2025-10-18T11:21:16Z</time>
      </trkpt>
      <trkpt lat="43.21509" lon="5.48352">
        <ele>280.3</ele>
        <time>2025-10-18T11:21:17Z</time>
      </trkpt>
      <trkpt lat="43.21508" lon="5.48353">
        <ele>280.2</ele>
        <time>2025-10-18T11:21:18Z</time>
      </trkpt>
      <trkpt lat="43.21508" lon="5.48353">
        <ele>280.1</ele>
        <time>2025-10-18T11:21:19Z</time>
      </trkpt>
      <trkpt lat="43.21507" lon="5.48353">
        <ele>280</ele>
        <time>2025-10-18T11:21:20Z</time>
      </trkpt>
      <trkpt lat="43.21507" lon="5.48354">
        <ele>279.9</ele>
        <time>2025-10-18T11:21:21Z</time>
      </trkpt>
      <trkpt lat="43.21506" lon="5.48354">
        <ele>279.7</ele>
        <time>2025-10-18T11:21:22Z</time>
      </trkpt>
      <trkpt lat="43.21505" lon="5.48354">
        <ele>279.5</ele>
        <time>2025-10-18T11:21:23Z</time>
      </trkpt>
      <trkpt lat="43.21505" lon="5.48354">
        <ele>279.4</ele>
        <time>2025-10-18T11:21:24Z</time>
      </trkpt>
      <trkpt lat="43.21505" lon="5.48354">
        <ele>279.3</ele>
        <time>2025-10-18T11:21:25Z</time>
      </trkpt>
      <trkpt lat="43.21504" lon="5.48354">
        <ele>279.2</ele>
        <time>2025-10-18T11:21:26Z</time>
      </trkpt>
      <trkpt lat="43.21503" lon="5.48354">
        <ele>279</ele>
        <time>2025-10-18T11:21:27Z</time>
      </trkpt>
      <trkpt lat="43.21503" lon="5.48354">
        <ele>278.7</ele>
        <time>2025-10-18T11:21:28Z</time>
      </trkpt>
      <trkpt lat="43.21503" lon="5.48354">
        <ele>278.6</ele>
        <time>2025-10-18T11:21:29Z</time>
      </trkpt>
      <trkpt lat="43.21503" lon="5.48355">
        <ele>278.5</ele>
        <time>2025-10-18T11:21:30Z</time>
      </trkpt>
      <trkpt lat="43.21502" lon="5.48355">
        <ele>278.3</ele>
        <time>2025-10-18T11:21:31Z</time>
      </trkpt>
      <trkpt lat="43.21502" lon="5.48355">
        <ele>278.2</ele>
        <time>2025-10-18T11:21:32Z</time>
      </trkpt>
      <trkpt lat="43.21502" lon="5.48355">
        <ele>278.1</ele>
        <time>2025-10-18T11:21:33Z</time>
      </trkpt>
      <trkpt lat="43.21502" lon="5.48354">
        <ele>277.9</ele>
        <time>2025-10-18T11:21:34Z</time>
      </trkpt>
      <trkpt lat="43.21502" lon="5.48354">
        <ele>277.8</ele>
        <time>2025-10-18T11:21:35Z</time>
      </trkpt>
      <trkpt lat="43.21501" lon="5.48354">
        <ele>277.7</ele>
        <time>2025-10-18T11:21:36Z</time>
      </trkpt>
      <trkpt lat="43.21501" lon="5.48353">
        <ele>277.6</ele>
        <time>2025-10-18T11:21:37Z</time>
      </trkpt>
      <trkpt lat="43.21501" lon="5.48353">
        <ele>277.6</ele>
        <time>2025-10-18T11:21:38Z</time>
      </trkpt>
      <trkpt lat="43.21501" lon="5.48353">
        <ele>277.6</ele>
        <time>2025-10-18T11:21:39Z</time>
      </trkpt>
      <trkpt lat="43.215" lon="5.48352">
        <ele>277.5</ele>
        <time>2025-10-18T11:21:40Z</time>
      </trkpt>
      <trkpt lat="43.215" lon="5.48352">
        <ele>277.5</ele>
        <time>2025-10-18T11:21:41Z</time>
      </trkpt>
      <trkpt lat="43.21499" lon="5.48352">
        <ele>277.3</ele>
        <time>2025-10-18T11:21:42Z</time>
      </trkpt>
      <trkpt lat="43.21499" lon="5.48352">
        <ele>277.2</ele>
        <time>2025-10-18T11:21:43Z</time>
      </trkpt>
      <trkpt lat="43.21498" lon="5.48352">
        <ele>277.1</ele>
        <time>2025-10-18T11:21:44Z</time>
      </trkpt>
      <trkpt lat="43.21498" lon="5.48352">
        <ele>277</ele>
        <time>2025-10-18T11:21:45Z</time>
      </trkpt>
      <trkpt lat="43.21497" lon="5.48352">
        <ele>276.8</ele>
        <time>2025-10-18T11:21:46Z</time>
      </trkpt>
      <trkpt lat="43.21496" lon="5.48352">
        <ele>276.6</ele>
        <time>2025-10-18T11:21:47Z</time>
      </trkpt>
      <trkpt lat="43.21496" lon="5.48352">
        <ele>276.4</ele>
        <time>2025-10-18T11:21:48Z</time>
      </trkpt>
      <trkpt lat="43.21496" lon="5.48352">
        <ele>276.1</ele>
        <time>2025-10-18T11:21:49Z</time>
      </trkpt>
      <trkpt lat="43.21496" lon="5.48352">
        <ele>276</ele>
        <time>2025-10-18T11:21:50Z</time>
      </trkpt>
      <trkpt lat="43.21496" lon="5.48352">
        <ele>276</ele>
        <time>2025-10-18T11:21:51Z</time>
      </trkpt>
      <trkpt lat="43.21496" lon="5.48352">
        <ele>275.9</ele>
        <time>2025-10-18T11:21:52Z</time>
      </trkpt>
      <trkpt lat="43.21496" lon="5.48352">
        <ele>275.9</ele>
        <time>2025-10-18T11:21:53Z</time>
      </trkpt>
      <trkpt lat="43.21496" lon="5.48352">
        <ele>275.8</ele>
        <time>2025-10-18T11:21:54Z</time>
      </trkpt>
      <trkpt lat="43.21496" lon="5.48351">
        <ele>275.8</ele>
        <time>2025-10-18T11:21:55Z</time>
      </trkpt>
      <trkpt lat="43.21496" lon="5.48351">
        <ele>275.7</ele>
        <time>2025-10-18T11:21:56Z</time>
      </trkpt>
      <trkpt lat="43.21496" lon="5.48351">
        <ele>275.6</ele>
        <time>2025-10-18T11:21:57Z</time>
      </trkpt>
      <trkpt lat="43.21496" lon="5.4835">
        <ele>275.5</ele>
        <time>2025-10-18T11:21:58Z</time>
      </trkpt>
      <trkpt lat="43.21496" lon="5.48349">
        <ele>275.4</ele>
        <time>2025-10-18T11:21:59Z</time>
      </trkpt>
      <trkpt lat="43.21496" lon="5.48348">
        <ele>275.4</ele>
        <time>2025-10-18T11:22:00Z</time>
      </trkpt>
      <trkpt lat="43.21496" lon="5.48348">
        <ele>275.3</ele>
        <time>2025-10-18T11:22:01Z</time>
      </trkpt>
      <trkpt lat="43.21496" lon="5.48348">
        <ele>275.3</ele>
        <time>2025-10-18T11:22:02Z</time>
      </trkpt>
      <trkpt lat="43.21496" lon="5.48348">
        <ele>275.2</ele>
        <time>2025-10-18T11:22:03Z</time>
      </trkpt>
      <trkpt lat="43.21496" lon="5.48347">
        <ele>275.2</ele>
        <time>2025-10-18T11:22:04Z</time>
      </trkpt>
      <trkpt lat="43.21496" lon="5.48347">
        <ele>275.1</ele>
        <time>2025-10-18T11:22:05Z</time>
      </trkpt>
      <trkpt lat="43.21496" lon="5.48347">
        <ele>275</ele>
        <time>2025-10-18T11:22:06Z</time>
      </trkpt>
      <trkpt lat="43.21496" lon="5.48347">
        <ele>275</ele>
        <time>2025-10-18T11:22:07Z</time>
      </trkpt>
      <trkpt lat="43.21496" lon="5.48347">
        <ele>274.8</ele>
        <time>2025-10-18T11:22:08Z</time>
      </trkpt>
      <trkpt lat="43.21496" lon="5.48347">
        <ele>274.8</ele>
        <time>2025-10-18T11:22:09Z</time>
      </trkpt>
      <trkpt lat="43.21496" lon="5.48347">
        <ele>274.7</ele>
        <time>2025-10-18T11:22:10Z</time>
      </trkpt>
      <trkpt lat="43.21496" lon="5.48347">
        <ele>274.7</ele>
        <time>2025-10-18T11:22:11Z</time>
      </trkpt>
      <trkpt lat="43.21497" lon="5.48346">
        <ele>274.5</ele>
        <time>2025-10-18T11:22:12Z</time>
      </trkpt>
      <trkpt lat="43.21497" lon="5.48346">
        <ele>274.4</ele>
        <time>2025-10-18T11:22:13Z</time>
      </trkpt>
      <trkpt lat="43.21497" lon="5.48345">
        <ele>274.4</ele>
        <time>2025-10-18T11:22:14Z</time>
      </trkpt>
      <trkpt lat="43.21497" lon="5.48344">
        <ele>274.3</ele>
        <time>2025-10-18T11:22:15Z</time>
      </trkpt>
      <trkpt lat="43.21497" lon="5.48344">
        <ele>274.2</ele>
        <time>2025-10-18T11:22:16Z</time>
      </trkpt>
      <trkpt lat="43.21497" lon="5.48343">
        <ele>274.1</ele>
        <time>2025-10-18T11:22:17Z</time>
      </trkpt>
      <trkpt lat="43.21497" lon="5.48343">
        <ele>274.1</ele>
        <time>2025-10-18T11:22:18Z</time>
      </trkpt>
      <trkpt lat="43.21496" lon="5.48342">
        <ele>274</ele>
        <time>2025-10-18T11:22:19Z</time>
      </trkpt>
      <trkpt lat="43.21496" lon="5.48341">
        <ele>273.9</ele>
        <time>2025-10-18T11:22:20Z</time>
      </trkpt>
      <trkpt lat="43.21496" lon="5.48341">
        <ele>273.8</ele>
        <time>2025-10-18T11:22:21Z</time>
      </trkpt>
      <trkpt lat="43.21496" lon="5.4834">
        <ele>273.7</ele>
        <time>2025-10-18T11:22:22Z</time>
      </trkpt>
      <trkpt lat="43.21496" lon="5.4834">
        <ele>273.4</ele>
        <time>2025-10-18T11:22:23Z</time>
      </trkpt>
      <trkpt lat="43.21497" lon="5.48339">
        <ele>273.3</ele>
        <time>2025-10-18T11:22:24Z</time>
      </trkpt>
      <trkpt lat="43.21497" lon="5.48339">
        <ele>273.3</ele>
        <time>2025-10-18T11:22:25Z</time>
      </trkpt>
      <trkpt lat="43.21497" lon="5.48338">
        <ele>273.1</ele>
        <time>2025-10-18T11:22:26Z</time>
      </trkpt>
      <trkpt lat="43.21497" lon="5.48338">
        <ele>273.1</ele>
        <time>2025-10-18T11:22:27Z</time>
      </trkpt>
      <trkpt lat="43.21497" lon="5.48337">
        <ele>273</ele>
        <time>2025-10-18T11:22:28Z</time>
      </trkpt>
      <trkpt lat="43.21497" lon="5.48337">
        <ele>272.9</ele>
        <time>2025-10-18T11:22:29Z</time>
      </trkpt>
      <trkpt lat="43.21497" lon="5.48337">
        <ele>272.7</ele>
        <time>2025-10-18T11:22:30Z</time>
      </trkpt>
      <trkpt lat="43.21498" lon="5.48336">
        <ele>272.6</ele>
        <time>2025-10-18T11:22:31Z</time>
      </trkpt>
      <trkpt lat="43.21498" lon="5.48336">
        <ele>272.6</ele>
        <time>2025-10-18T11:22:32Z</time>
      </trkpt>
      <trkpt lat="43.21498" lon="5.48335">
        <ele>272.4</ele>
        <time>2025-10-18T11:22:33Z</time>
      </trkpt>
      <trkpt lat="43.21498" lon="5.48334">
        <ele>272.2</ele>
        <time>2025-10-18T11:22:34Z</time>
      </trkpt>
      <trkpt lat="43.21499" lon="5.48334">
        <ele>272.2</ele>
        <time>2025-10-18T11:22:35Z</time>
      </trkpt>
      <trkpt lat="43.21499" lon="5.48333">
        <ele>272</ele>
        <time>2025-10-18T11:22:36Z</time>
      </trkpt>
      <trkpt lat="43.21498" lon="5.48333">
        <ele>271.9</ele>
        <time>2025-10-18T11:22:37Z</time>
      </trkpt>
      <trkpt lat="43.21498" lon="5.48332">
        <ele>271.8</ele>
        <time>2025-10-18T11:22:38Z</time>
      </trkpt>
      <trkpt lat="43.21498" lon="5.48332">
        <ele>271.7</ele>
        <time>2025-10-18T11:22:39Z</time>
      </trkpt>
      <trkpt lat="43.21497" lon="5.48332">
        <ele>271.6</ele>
        <time>2025-10-18T11:22:40Z</time>
      </trkpt>
      <trkpt lat="43.21497" lon="5.48332">
        <ele>271.5</ele>
        <time>2025-10-18T11:22:41Z</time>
      </trkpt>
      <trkpt lat="43.21497" lon="5.48331">
        <ele>271.4</ele>
        <time>2025-10-18T11:22:42Z</time>
      </trkpt>
      <trkpt lat="43.21496" lon="5.48331">
        <ele>271.4</ele>
        <time>2025-10-18T11:22:43Z</time>
      </trkpt>
      <trkpt lat="43.21496" lon="5.48331">
        <ele>271.4</ele>
        <time>2025-10-18T11:22:44Z</time>
      </trkpt>
      <trkpt lat="43.21496" lon="5.48331">
        <ele>271.3</ele>
        <time>2025-10-18T11:22:45Z</time>
      </trkpt>
      <trkpt lat="43.21496" lon="5.48331">
        <ele>271.2</ele>
        <time>2025-10-18T11:22:46Z</time>
      </trkpt>
      <trkpt lat="43.21496" lon="5.48331">
        <ele>271.1</ele>
        <time>2025-10-18T11:22:47Z</time>
      </trkpt>
      <trkpt lat="43.21496" lon="5.4833">
        <ele>270.9</ele>
        <time>2025-10-18T11:22:48Z</time>
      </trkpt>
      <trkpt lat="43.21496" lon="5.4833">
        <ele>270.9</ele>
        <time>2025-10-18T11:22:49Z</time>
      </trkpt>
      <trkpt lat="43.21496" lon="5.4833">
        <ele>270.7</ele>
        <time>2025-10-18T11:22:50Z</time>
      </trkpt>
      <trkpt lat="43.21496" lon="5.48329">
        <ele>270.5</ele>
        <time>2025-10-18T11:22:51Z</time>
      </trkpt>
      <trkpt lat="43.21496" lon="5.48329">
        <ele>270.4</ele>
        <time>2025-10-18T11:22:52Z</time>
      </trkpt>
      <trkpt lat="43.21496" lon="5.48328">
        <ele>270.3</ele>
        <time>2025-10-18T11:22:53Z</time>
      </trkpt>
      <trkpt lat="43.21495" lon="5.48328">
        <ele>270.3</ele>
        <time>2025-10-18T11:22:54Z</time>
      </trkpt>
      <trkpt lat="43.21496" lon="5.48327">
        <ele>270.2</ele>
        <time>2025-10-18T11:22:55Z</time>
      </trkpt>
      <trkpt lat="43.21496" lon="5.48327">
        <ele>270.2</ele>
        <time>2025-10-18T11:22:56Z</time>
      </trkpt>
      <trkpt lat="43.21496" lon="5.48327">
        <ele>270.1</ele>
        <time>2025-10-18T11:22:57Z</time>
      </trkpt>
      <trkpt lat="43.21496" lon="5.48327">
        <ele>270.1</ele>
        <time>2025-10-18T11:22:58Z</time>
      </trkpt>
      <trkpt lat="43.21496" lon="5.48326">
        <ele>270</ele>
        <time>2025-10-18T11:22:59Z</time>
      </trkpt>
      <trkpt lat="43.21496" lon="5.48326">
        <ele>269.9</ele>
        <time>2025-10-18T11:23:00Z</time>
      </trkpt>
      <trkpt lat="43.21496" lon="5.48325">
        <ele>269.9</ele>
        <time>2025-10-18T11:23:01Z</time>
      </trkpt>
      <trkpt lat="43.21496" lon="5.48325">
        <ele>269.8</ele>
        <time>2025-10-18T11:23:02Z</time>
      </trkpt>
      <trkpt lat="43.21496" lon="5.48325">
        <ele>269.7</ele>
        <time>2025-10-18T11:23:03Z</time>
      </trkpt>
      <trkpt lat="43.21496" lon="5.48324">
        <ele>269.6</ele>
        <time>2025-10-18T11:23:04Z</time>
      </trkpt>
      <trkpt lat="43.21495" lon="5.48324">
        <ele>269.5</ele>
        <time>2025-10-18T11:23:05Z</time>
      </trkpt>
      <trkpt lat="43.21495" lon="5.48323">
        <ele>269.4</ele>
        <time>2025-10-18T11:23:06Z</time>
      </trkpt>
      <trkpt lat="43.21495" lon="5.48324">
        <ele>269.2</ele>
        <time>2025-10-18T11:23:07Z</time>
      </trkpt>
      <trkpt lat="43.21494" lon="5.48324">
        <ele>269</ele>
        <time>2025-10-18T11:23:08Z</time>
      </trkpt>
      <trkpt lat="43.21494" lon="5.48324">
        <ele>268.9</ele>
        <time>2025-10-18T11:23:09Z</time>
      </trkpt>
      <trkpt lat="43.21494" lon="5.48324">
        <ele>268.8</ele>
        <time>2025-10-18T11:23:10Z</time>
      </trkpt>
      <trkpt lat="43.21494" lon="5.48324">
        <ele>268.7</ele>
        <time>2025-10-18T11:23:11Z</time>
      </trkpt>
      <trkpt lat="43.21494" lon="5.48324">
        <ele>268.7</ele>
        <time>2025-10-18T11:23:12Z</time>
      </trkpt>
      <trkpt lat="43.21494" lon="5.48324">
        <ele>268.6</ele>
        <time>2025-10-18T11:23:13Z</time>
      </trkpt>
      <trkpt lat="43.21494" lon="5.48324">
        <ele>268.5</ele>
        <time>2025-10-18T11:23:14Z</time>
      </trkpt>
      <trkpt lat="43.21494" lon="5.48324">
        <ele>268.5</ele>
        <time>2025-10-18T11:23:15Z</time>
      </trkpt>
      <trkpt lat="43.21494" lon="5.48324">
        <ele>268.4</ele>
        <time>2025-10-18T11:23:16Z</time>
      </trkpt>
      <trkpt lat="43.21494" lon="5.48324">
        <ele>268.4</ele>
        <time>2025-10-18T11:23:17Z</time>
      </trkpt>
      <trkpt lat="43.21494" lon="5.48324">
        <ele>268.3</ele>
        <time>2025-10-18T11:23:18Z</time>
      </trkpt>
      <trkpt lat="43.21494" lon="5.48323">
        <ele>268.2</ele>
        <time>2025-10-18T11:23:19Z</time>
      </trkpt>
      <trkpt lat="43.21494" lon="5.48323">
        <ele>268.2</ele>
        <time>2025-10-18T11:23:20Z</time>
      </trkpt>
      <trkpt lat="43.21494" lon="5.48322">
        <ele>268.1</ele>
        <time>2025-10-18T11:23:21Z</time>
      </trkpt>
      <trkpt lat="43.21494" lon="5.48321">
        <ele>268.1</ele>
        <time>2025-10-18T11:23:22Z</time>
      </trkpt>
      <trkpt lat="43.21495" lon="5.48321">
        <ele>268.1</ele>
        <time>2025-10-18T11:23:23Z</time>
      </trkpt>
      <trkpt lat="43.21495" lon="5.4832">
        <ele>268.2</ele>
        <time>2025-10-18T11:23:24Z</time>
      </trkpt>
      <trkpt lat="43.21495" lon="5.48319">
        <ele>268.2</ele>
        <time>2025-10-18T11:23:25Z</time>
      </trkpt>
      <trkpt lat="43.21495" lon="5.48318">
        <ele>268.1</ele>
        <time>2025-10-18T11:23:26Z</time>
      </trkpt>
      <trkpt lat="43.21495" lon="5.48317">
        <ele>268</ele>
        <time>2025-10-18T11:23:27Z</time>
      </trkpt>
      <trkpt lat="43.21496" lon="5.48317">
        <ele>267.9</ele>
        <time>2025-10-18T11:23:28Z</time>
      </trkpt>
      <trkpt lat="43.21496" lon="5.48316">
        <ele>267.9</ele>
        <time>2025-10-18T11:23:29Z</time>
      </trkpt>
      <trkpt lat="43.21496" lon="5.48315">
        <ele>267.9</ele>
        <time>2025-10-18T11:23:30Z</time>
      </trkpt>
      <trkpt lat="43.21496" lon="5.48315">
        <ele>267.9</ele>
        <time>2025-10-18T11:23:31Z</time>
      </trkpt>
      <trkpt lat="43.21496" lon="5.48314">
        <ele>267.8</ele>
        <time>2025-10-18T11:23:32Z</time>
      </trkpt>
      <trkpt lat="43.21496" lon="5.48313">
        <ele>267.7</ele>
        <time>2025-10-18T11:23:33Z</time>
      </trkpt>
      <trkpt lat="43.21496" lon="5.48313">
        <ele>267.6</ele>
        <time>2025-10-18T11:23:34Z</time>
      </trkpt>
      <trkpt lat="43.21496" lon="5.48313">
        <ele>267.5</ele>
        <time>2025-10-18T11:23:35Z</time>
      </trkpt>
      <trkpt lat="43.21497" lon="5.48312">
        <ele>267.5</ele>
        <time>2025-10-18T11:23:36Z</time>
      </trkpt>
      <trkpt lat="43.21497" lon="5.48312">
        <ele>267.4</ele>
        <time>2025-10-18T11:23:37Z</time>
      </trkpt>
      <trkpt lat="43.21496" lon="5.48311">
        <ele>267.4</ele>
        <time>2025-10-18T11:23:38Z</time>
      </trkpt>
      <trkpt lat="43.21496" lon="5.48311">
        <ele>267.3</ele>
        <time>2025-10-18T11:23:39Z</time>
      </trkpt>
      <trkpt lat="43.21496" lon="5.4831">
        <ele>267.2</ele>
        <time>2025-10-18T11:23:40Z</time>
      </trkpt>
      <trkpt lat="43.21496" lon="5.4831">
        <ele>267.1</ele>
        <time>2025-10-18T11:23:41Z</time>
      </trkpt>
      <trkpt lat="43.21496" lon="5.4831">
        <ele>267</ele>
        <time>2025-10-18T11:23:42Z</time>
      </trkpt>
      <trkpt lat="43.21496" lon="5.48309">
        <ele>266.9</ele>
        <time>2025-10-18T11:23:43Z</time>
      </trkpt>
      <trkpt lat="43.21496" lon="5.48308">
        <ele>266.8</ele>
        <time>2025-10-18T11:23:44Z</time>
      </trkpt>
      <trkpt lat="43.21496" lon="5.48308">
        <ele>266.8</ele>
        <time>2025-10-18T11:23:45Z</time>
      </trkpt>
      <trkpt lat="43.21496" lon="5.48307">
        <ele>266.8</ele>
        <time>2025-10-18T11:23:46Z</time>
      </trkpt>
      <trkpt lat="43.21497" lon="5.48306">
        <ele>266.7</ele>
        <time>2025-10-18T11:23:47Z</time>
      </trkpt>
      <trkpt lat="43.21497" lon="5.48306">
        <ele>266.6</ele>
        <time>2025-10-18T11:23:48Z</time>
      </trkpt>
      <trkpt lat="43.21497" lon="5.48306">
        <ele>266.5</ele>
        <time>2025-10-18T11:23:49Z</time>
      </trkpt>
      <trkpt lat="43.21497" lon="5.48305">
        <ele>266.3</ele>
        <time>2025-10-18T11:23:50Z</time>
      </trkpt>
      <trkpt lat="43.21498" lon="5.48304">
        <ele>266.1</ele>
        <time>2025-10-18T11:23:51Z</time>
      </trkpt>
      <trkpt lat="43.21498" lon="5.48304">
        <ele>265.9</ele>
        <time>2025-10-18T11:23:52Z</time>
      </trkpt>
      <trkpt lat="43.21499" lon="5.48303">
        <ele>265.7</ele>
        <time>2025-10-18T11:23:53Z</time>
      </trkpt>
      <trkpt lat="43.21499" lon="5.48302">
        <ele>265.6</ele>
        <time>2025-10-18T11:23:54Z</time>
      </trkpt>
      <trkpt lat="43.21499" lon="5.48301">
        <ele>265.4</ele>
        <time>2025-10-18T11:23:55Z</time>
      </trkpt>
      <trkpt lat="43.21499" lon="5.48299">
        <ele>265.3</ele>
        <time>2025-10-18T11:23:56Z</time>
      </trkpt>
      <trkpt lat="43.21499" lon="5.48298">
        <ele>265.2</ele>
        <time>2025-10-18T11:23:57Z</time>
      </trkpt>
      <trkpt lat="43.21498" lon="5.48298">
        <ele>265</ele>
        <time>2025-10-18T11:23:58Z</time>
      </trkpt>
      <trkpt lat="43.21498" lon="5.48297">
        <ele>264.8</ele>
        <time>2025-10-18T11:23:59Z</time>
      </trkpt>
      <trkpt lat="43.21498" lon="5.48296">
        <ele>264.7</ele>
        <time>2025-10-18T11:24:00Z</time>
      </trkpt>
      <trkpt lat="43.21497" lon="5.48296">
        <ele>264.4</ele>
        <time>2025-10-18T11:24:01Z</time>
      </trkpt>
      <trkpt lat="43.21497" lon="5.48295">
        <ele>264.2</ele>
        <time>2025-10-18T11:24:02Z</time>
      </trkpt>
      <trkpt lat="43.21497" lon="5.48294">
        <ele>264.1</ele>
        <time>2025-10-18T11:24:03Z</time>
      </trkpt>
      <trkpt lat="43.21497" lon="5.48294">
        <ele>263.9</ele>
        <time>2025-10-18T11:24:04Z</time>
      </trkpt>
      <trkpt lat="43.21497" lon="5.48293">
        <ele>263.6</ele>
        <time>2025-10-18T11:24:05Z</time>
      </trkpt>
      <trkpt lat="43.21497" lon="5.48293">
        <ele>263.5</ele>
        <time>2025-10-18T11:24:06Z</time>
      </trkpt>
      <trkpt lat="43.21497" lon="5.48293">
        <ele>263.3</ele>
        <time>2025-10-18T11:24:07Z</time>
      </trkpt>
      <trkpt lat="43.21496" lon="5.48293">
        <ele>263.1</ele>
        <time>2025-10-18T11:24:08Z</time>
      </trkpt>
      <trkpt lat="43.21496" lon="5.48294">
        <ele>262.9</ele>
        <time>2025-10-18T11:24:09Z</time>
      </trkpt>
      <trkpt lat="43.21496" lon="5.48293">
        <ele>262.7</ele>
        <time>2025-10-18T11:24:10Z</time>
      </trkpt>
      <trkpt lat="43.21496" lon="5.48293">
        <ele>262.6</ele>
        <time>2025-10-18T11:24:11Z</time>
      </trkpt>
      <trkpt lat="43.21496" lon="5.48293">
        <ele>262.5</ele>
        <time>2025-10-18T11:24:12Z</time>
      </trkpt>
      <trkpt lat="43.21495" lon="5.48293">
        <ele>262.4</ele>
        <time>2025-10-18T11:24:13Z</time>
      </trkpt>
      <trkpt lat="43.21495" lon="5.48293">
        <ele>262.3</ele>
        <time>2025-10-18T11:24:14Z</time>
      </trkpt>
      <trkpt lat="43.21495" lon="5.48293">
        <ele>262.1</ele>
        <time>2025-10-18T11:24:15Z</time>
      </trkpt>
      <trkpt lat="43.21495" lon="5.48293">
        <ele>261.9</ele>
        <time>2025-10-18T11:24:16Z</time>
      </trkpt>
      <trkpt lat="43.21494" lon="5.48292">
        <ele>261.7</ele>
        <time>2025-10-18T11:24:17Z</time>
      </trkpt>
      <trkpt lat="43.21494" lon="5.48292">
        <ele>261.5</ele>
        <time>2025-10-18T11:24:18Z</time>
      </trkpt>
      <trkpt lat="43.21494" lon="5.48291">
        <ele>261.4</ele>
        <time>2025-10-18T11:24:19Z</time>
      </trkpt>
      <trkpt lat="43.21493" lon="5.4829">
        <ele>261.4</ele>
        <time>2025-10-18T11:24:20Z</time>
      </trkpt>
      <trkpt lat="43.21494" lon="5.48289">
        <ele>261.2</ele>
        <time>2025-10-18T11:24:21Z</time>
      </trkpt>
      <trkpt lat="43.21494" lon="5.48288">
        <ele>261.1</ele>
        <time>2025-10-18T11:24:22Z</time>
      </trkpt>
      <trkpt lat="43.21494" lon="5.48287">
        <ele>260.9</ele>
        <time>2025-10-18T11:24:23Z</time>
      </trkpt>
      <trkpt lat="43.21494" lon="5.48287">
        <ele>260.8</ele>
        <time>2025-10-18T11:24:24Z</time>
      </trkpt>
      <trkpt lat="43.21494" lon="5.48286">
        <ele>260.6</ele>
        <time>2025-10-18T11:24:25Z</time>
      </trkpt>
      <trkpt lat="43.21495" lon="5.48285">
        <ele>260.4</ele>
        <time>2025-10-18T11:24:26Z</time>
      </trkpt>
      <trkpt lat="43.21495" lon="5.48285">
        <ele>260.3</ele>
        <time>2025-10-18T11:24:27Z</time>
      </trkpt>
      <trkpt lat="43.21495" lon="5.48285">
        <ele>260.2</ele>
        <time>2025-10-18T11:24:28Z</time>
      </trkpt>
      <trkpt lat="43.21495" lon="5.48284">
        <ele>260.1</ele>
        <time>2025-10-18T11:24:29Z</time>
      </trkpt>
      <trkpt lat="43.21495" lon="5.48284">
        <ele>259.9</ele>
        <time>2025-10-18T11:24:30Z</time>
      </trkpt>
      <trkpt lat="43.21495" lon="5.48284">
        <ele>259.8</ele>
        <time>2025-10-18T11:24:31Z</time>
      </trkpt>
      <trkpt lat="43.21495" lon="5.48284">
        <ele>259.7</ele>
        <time>2025-10-18T11:24:32Z</time>
      </trkpt>
      <trkpt lat="43.21495" lon="5.48283">
        <ele>259.6</ele>
        <time>2025-10-18T11:24:33Z</time>
      </trkpt>
      <trkpt lat="43.21496" lon="5.48283">
        <ele>259.5</ele>
        <time>2025-10-18T11:24:34Z</time>
      </trkpt>
      <trkpt lat="43.21496" lon="5.48282">
        <ele>259.4</ele>
        <time>2025-10-18T11:24:35Z</time>
      </trkpt>
      <trkpt lat="43.21496" lon="5.48281">
        <ele>259.4</ele>
        <time>2025-10-18T11:24:36Z</time>
      </trkpt>
      <trkpt lat="43.21496" lon="5.4828">
        <ele>259.3</ele>
        <time>2025-10-18T11:24:37Z</time>
      </trkpt>
      <trkpt lat="43.21497" lon="5.48279">
        <ele>259.1</ele>
        <time>2025-10-18T11:24:38Z</time>
      </trkpt>
      <trkpt lat="43.21497" lon="5.48279">
        <ele>258.9</ele>
        <time>2025-10-18T11:24:39Z</time>
      </trkpt>
      <trkpt lat="43.21497" lon="5.48278">
        <ele>258.7</ele>
        <time>2025-10-18T11:24:40Z</time>
      </trkpt>
      <trkpt lat="43.21497" lon="5.48277">
        <ele>258.6</ele>
        <time>2025-10-18T11:24:41Z</time>
      </trkpt>
      <trkpt lat="43.21498" lon="5.48276">
        <ele>258.5</ele>
        <time>2025-10-18T11:24:42Z</time>
      </trkpt>
      <trkpt lat="43.21498" lon="5.48275">
        <ele>258.4</ele>
        <time>2025-10-18T11:24:43Z</time>
      </trkpt>
      <trkpt lat="43.21498" lon="5.48274">
        <ele>258.3</ele>
        <time>2025-10-18T11:24:44Z</time>
      </trkpt>
      <trkpt lat="43.21499" lon="5.48273">
        <ele>258.2</ele>
        <time>2025-10-18T11:24:45Z</time>
      </trkpt>
      <trkpt lat="43.21499" lon="5.48272">
        <ele>258.2</ele>
        <time>2025-10-18T11:24:46Z</time>
      </trkpt>
      <trkpt lat="43.21499" lon="5.48272">
        <ele>258.1</ele>
        <time>2025-10-18T11:24:47Z</time>
      </trkpt>
      <trkpt lat="43.21499" lon="5.48271">
        <ele>258</ele>
        <time>2025-10-18T11:24:48Z</time>
      </trkpt>
      <trkpt lat="43.21499" lon="5.48271">
        <ele>258</ele>
        <time>2025-10-18T11:24:49Z</time>
      </trkpt>
      <trkpt lat="43.21499" lon="5.4827">
        <ele>257.9</ele>
        <time>2025-10-18T11:24:50Z</time>
      </trkpt>
      <trkpt lat="43.21499" lon="5.48269">
        <ele>257.8</ele>
        <time>2025-10-18T11:24:51Z</time>
      </trkpt>
      <trkpt lat="43.21499" lon="5.48268">
        <ele>257.7</ele>
        <time>2025-10-18T11:24:52Z</time>
      </trkpt>
      <trkpt lat="43.215" lon="5.48267">
        <ele>257.5</ele>
        <time>2025-10-18T11:24:53Z</time>
      </trkpt>
      <trkpt lat="43.215" lon="5.48266">
        <ele>257.2</ele>
        <time>2025-10-18T11:24:54Z</time>
      </trkpt>
      <trkpt lat="43.215" lon="5.48265">
        <ele>257.2</ele>
        <time>2025-10-18T11:24:55Z</time>
      </trkpt>
      <trkpt lat="43.215" lon="5.48264">
        <ele>257.1</ele>
        <time>2025-10-18T11:24:56Z</time>
      </trkpt>
      <trkpt lat="43.215" lon="5.48263">
        <ele>257.1</ele>
        <time>2025-10-18T11:24:57Z</time>
      </trkpt>
      <trkpt lat="43.21501" lon="5.48262">
        <ele>256.9</ele>
        <time>2025-10-18T11:24:58Z</time>
      </trkpt>
      <trkpt lat="43.21501" lon="5.48261">
        <ele>256.8</ele>
        <time>2025-10-18T11:24:59Z</time>
      </trkpt>
      <trkpt lat="43.21501" lon="5.4826">
        <ele>256.8</ele>
        <time>2025-10-18T11:25:00Z</time>
      </trkpt>
      <trkpt lat="43.215" lon="5.4826">
        <ele>256.7</ele>
        <time>2025-10-18T11:25:01Z</time>
      </trkpt>
      <trkpt lat="43.215" lon="5.48259">
        <ele>256.6</ele>
        <time>2025-10-18T11:25:02Z</time>
      </trkpt>
      <trkpt lat="43.215" lon="5.48258">
        <ele>256.5</ele>
        <time>2025-10-18T11:25:03Z</time>
      </trkpt>
      <trkpt lat="43.21499" lon="5.48258">
        <ele>256.4</ele>
        <time>2025-10-18T11:25:04Z</time>
      </trkpt>
      <trkpt lat="43.21498" lon="5.48257">
        <ele>256.3</ele>
        <time>2025-10-18T11:25:05Z</time>
      </trkpt>
      <trkpt lat="43.21498" lon="5.48257">
        <ele>256.3</ele>
        <time>2025-10-18T11:25:06Z</time>
      </trkpt>
      <trkpt lat="43.21498" lon="5.48256">
        <ele>256.2</ele>
        <time>2025-10-18T11:25:07Z</time>
      </trkpt>
      <trkpt lat="43.21497" lon="5.48255">
        <ele>256.1</ele>
        <time>2025-10-18T11:25:08Z</time>
      </trkpt>
      <trkpt lat="43.21497" lon="5.48254">
        <ele>255.8</ele>
        <time>2025-10-18T11:25:09Z</time>
      </trkpt>
      <trkpt lat="43.21497" lon="5.48254">
        <ele>255.7</ele>
        <time>2025-10-18T11:25:10Z</time>
      </trkpt>
      <trkpt lat="43.21497" lon="5.48253">
        <ele>255.7</ele>
        <time>2025-10-18T11:25:11Z</time>
      </trkpt>
      <trkpt lat="43.21497" lon="5.48252">
        <ele>255.5</ele>
        <time>2025-10-18T11:25:12Z</time>
      </trkpt>
      <trkpt lat="43.21497" lon="5.48251">
        <ele>255.4</ele>
        <time>2025-10-18T11:25:13Z</time>
      </trkpt>
      <trkpt lat="43.21497" lon="5.4825">
        <ele>255.2</ele>
        <time>2025-10-18T11:25:14Z</time>
      </trkpt>
      <trkpt lat="43.21496" lon="5.48249">
        <ele>255</ele>
        <time>2025-10-18T11:25:15Z</time>
      </trkpt>
      <trkpt lat="43.21496" lon="5.48249">
        <ele>254.9</ele>
        <time>2025-10-18T11:25:16Z</time>
      </trkpt>
      <trkpt lat="43.21496" lon="5.48247">
        <ele>254.8</ele>
        <time>2025-10-18T11:25:17Z</time>
      </trkpt>
      <trkpt lat="43.21496" lon="5.48246">
        <ele>254.7</ele>
        <time>2025-10-18T11:25:18Z</time>
      </trkpt>
      <trkpt lat="43.21496" lon="5.48246">
        <ele>254.6</ele>
        <time>2025-10-18T11:25:19Z</time>
      </trkpt>
      <trkpt lat="43.21495" lon="5.48245">
        <ele>254.5</ele>
        <time>2025-10-18T11:25:20Z</time>
      </trkpt>
      <trkpt lat="43.21495" lon="5.48244">
        <ele>254.4</ele>
        <time>2025-10-18T11:25:21Z</time>
      </trkpt>
      <trkpt lat="43.21495" lon="5.48242">
        <ele>254.3</ele>
        <time>2025-10-18T11:25:22Z</time>
      </trkpt>
      <trkpt lat="43.21495" lon="5.48241">
        <ele>254.2</ele>
        <time>2025-10-18T11:25:23Z</time>
      </trkpt>
      <trkpt lat="43.21495" lon="5.4824">
        <ele>254.1</ele>
        <time>2025-10-18T11:25:24Z</time>
      </trkpt>
      <trkpt lat="43.21494" lon="5.48239">
        <ele>254</ele>
        <time>2025-10-18T11:25:25Z</time>
      </trkpt>
      <trkpt lat="43.21494" lon="5.48238">
        <ele>254</ele>
        <time>2025-10-18T11:25:26Z</time>
      </trkpt>
      <trkpt lat="43.21493" lon="5.48237">
        <ele>253.8</ele>
        <time>2025-10-18T11:25:27Z</time>
      </trkpt>
      <trkpt lat="43.21493" lon="5.48236">
        <ele>253.7</ele>
        <time>2025-10-18T11:25:28Z</time>
      </trkpt>
      <trkpt lat="43.21493" lon="5.48235">
        <ele>253.5</ele>
        <time>2025-10-18T11:25:29Z</time>
      </trkpt>
      <trkpt lat="43.21493" lon="5.48234">
        <ele>253.4</ele>
        <time>2025-10-18T11:25:30Z</time>
      </trkpt>
      <trkpt lat="43.21494" lon="5.48232">
        <ele>253.4</ele>
        <time>2025-10-18T11:25:31Z</time>
      </trkpt>
      <trkpt lat="43.21494" lon="5.48231">
        <ele>253.5</ele>
        <time>2025-10-18T11:25:32Z</time>
      </trkpt>
      <trkpt lat="43.21494" lon="5.4823">
        <ele>253.5</ele>
        <time>2025-10-18T11:25:33Z</time>
      </trkpt>
      <trkpt lat="43.21494" lon="5.48229">
        <ele>253.5</ele>
        <time>2025-10-18T11:25:34Z</time>
      </trkpt>
      <trkpt lat="43.21494" lon="5.48228">
        <ele>253.5</ele>
        <time>2025-10-18T11:25:35Z</time>
      </trkpt>
      <trkpt lat="43.21494" lon="5.48227">
        <ele>253.5</ele>
        <time>2025-10-18T11:25:36Z</time>
      </trkpt>
      <trkpt lat="43.21494" lon="5.48226">
        <ele>253.5</ele>
        <time>2025-10-18T11:25:37Z</time>
      </trkpt>
      <trkpt lat="43.21494" lon="5.48225">
        <ele>253.6</ele>
        <time>2025-10-18T11:25:38Z</time>
      </trkpt>
      <trkpt lat="43.21495" lon="5.48225">
        <ele>253.7</ele>
        <time>2025-10-18T11:25:39Z</time>
      </trkpt>
      <trkpt lat="43.21494" lon="5.48224">
        <ele>253.8</ele>
        <time>2025-10-18T11:25:40Z</time>
      </trkpt>
      <trkpt lat="43.21494" lon="5.48224">
        <ele>253.9</ele>
        <time>2025-10-18T11:25:41Z</time>
      </trkpt>
      <trkpt lat="43.21494" lon="5.48224">
        <ele>254</ele>
        <time>2025-10-18T11:25:42Z</time>
      </trkpt>
      <trkpt lat="43.21494" lon="5.48224">
        <ele>254</ele>
        <time>2025-10-18T11:25:43Z</time>
      </trkpt>
      <trkpt lat="43.21494" lon="5.48223">
        <ele>254.1</ele>
        <time>2025-10-18T11:25:44Z</time>
      </trkpt>
      <trkpt lat="43.21494" lon="5.48223">
        <ele>254.1</ele>
        <time>2025-10-18T11:25:45Z</time>
      </trkpt>
      <trkpt lat="43.21493" lon="5.48223">
        <ele>254.2</ele>
        <time>2025-10-18T11:25:46Z</time>
      </trkpt>
      <trkpt lat="43.21493" lon="5.48223">
        <ele>254.3</ele>
        <time>2025-10-18T11:25:47Z</time>
      </trkpt>
      <trkpt lat="43.21493" lon="5.48223">
        <ele>254.3</ele>
        <time>2025-10-18T11:25:48Z</time>
      </trkpt>
      <trkpt lat="43.21493" lon="5.48223">
        <ele>254.3</ele>
        <time>2025-10-18T11:25:49Z</time>
      </trkpt>
      <trkpt lat="43.21493" lon="5.48223">
        <ele>254.2</ele>
        <time>2025-10-18T11:25:50Z</time>
      </trkpt>
      <trkpt lat="43.21493" lon="5.48223">
        <ele>254.2</ele>
        <time>2025-10-18T11:25:51Z</time>
      </trkpt>
      <trkpt lat="43.21493" lon="5.48222">
        <ele>254.2</ele>
        <time>2025-10-18T11:25:52Z</time>
      </trkpt>
      <trkpt lat="43.21493" lon="5.48222">
        <ele>254.1</ele>
        <time>2025-10-18T11:25:53Z</time>
      </trkpt>
      <trkpt lat="43.21493" lon="5.48222">
        <ele>254.1</ele>
        <time>2025-10-18T11:25:54Z</time>
      </trkpt>
      <trkpt lat="43.21493" lon="5.48222">
        <ele>254.1</ele>
        <time>2025-10-18T11:25:55Z</time>
      </trkpt>
      <trkpt lat="43.21493" lon="5.48222">
        <ele>254.1</ele>
        <time>2025-10-18T11:25:56Z</time>
      </trkpt>
      <trkpt lat="43.21493" lon="5.48222">
        <ele>254.3</ele>
        <time>2025-10-18T11:25:57Z</time>
      </trkpt>
      <trkpt lat="43.21493" lon="5.48221">
        <ele>254.3</ele>
        <time>2025-10-18T11:25:58Z</time>
      </trkpt>
      <trkpt lat="43.21493" lon="5.48221">
        <ele>254.3</ele>
        <time>2025-10-18T11:25:59Z</time>
      </trkpt>
      <trkpt lat="43.21493" lon="5.48221">
        <ele>254.3</ele>
        <time>2025-10-18T11:26:00Z</time>
      </trkpt>
      <trkpt lat="43.21493" lon="5.48221">
        <ele>254.3</ele>
        <time>2025-10-18T11:26:01Z</time>
      </trkpt>
      <trkpt lat="43.21493" lon="5.48221">
        <ele>254.3</ele>
        <time>2025-10-18T11:26:02Z</time>
      </trkpt>
      <trkpt lat="43.21492" lon="5.48221">
        <ele>254.3</ele>
        <time>2025-10-18T11:26:03Z</time>
      </trkpt>
      <trkpt lat="43.21492" lon="5.48221">
        <ele>254.3</ele>
        <time>2025-10-18T11:26:04Z</time>
      </trkpt>
      <trkpt lat="43.21492" lon="5.48221">
        <ele>254.2</ele>
        <time>2025-10-18T11:26:05Z</time>
      </trkpt>
      <trkpt lat="43.21492" lon="5.48221">
        <ele>254.2</ele>
        <time>2025-10-18T11:26:06Z</time>
      </trkpt>
      <trkpt lat="43.21492" lon="5.48221">
        <ele>254.2</ele>
        <time>2025-10-18T11:26:07Z</time>
      </trkpt>
      <trkpt lat="43.21492" lon="5.48221">
        <ele>254.2</ele>
        <time>2025-10-18T11:26:08Z</time>
      </trkpt>
      <trkpt lat="43.21492" lon="5.48221">
        <ele>254.1</ele>
        <time>2025-10-18T11:26:09Z</time>
      </trkpt>
      <trkpt lat="43.21492" lon="5.48221">
        <ele>254.1</ele>
        <time>2025-10-18T11:26:10Z</time>
      </trkpt>
      <trkpt lat="43.21493" lon="5.48221">
        <ele>254.2</ele>
        <time>2025-10-18T11:26:11Z</time>
      </trkpt>
      <trkpt lat="43.21494" lon="5.4822">
        <ele>254.2</ele>
        <time>2025-10-18T11:26:12Z</time>
      </trkpt>
      <trkpt lat="43.21495" lon="5.4822">
        <ele>254.3</ele>
        <time>2025-10-18T11:26:13Z</time>
      </trkpt>
      <trkpt lat="43.21495" lon="5.4822">
        <ele>254.3</ele>
        <time>2025-10-18T11:26:14Z</time>
      </trkpt>
      <trkpt lat="43.21496" lon="5.48219">
        <ele>254.3</ele>
        <time>2025-10-18T11:26:15Z</time>
      </trkpt>
      <trkpt lat="43.21497" lon="5.48219">
        <ele>254.4</ele>
        <time>2025-10-18T11:26:16Z</time>
      </trkpt>
      <trkpt lat="43.21497" lon="5.48218">
        <ele>254.4</ele>
        <time>2025-10-18T11:26:17Z</time>
      </trkpt>
      <trkpt lat="43.21498" lon="5.48218">
        <ele>254.5</ele>
        <time>2025-10-18T11:26:18Z</time>
      </trkpt>
      <trkpt lat="43.21499" lon="5.48218">
        <ele>254.6</ele>
        <time>2025-10-18T11:26:19Z</time>
      </trkpt>
      <trkpt lat="43.21499" lon="5.48217">
        <ele>254.7</ele>
        <time>2025-10-18T11:26:20Z</time>
      </trkpt>
      <trkpt lat="43.215" lon="5.48217">
        <ele>254.8</ele>
        <time>2025-10-18T11:26:21Z</time>
      </trkpt>
      <trkpt lat="43.215" lon="5.48216">
        <ele>255</ele>
        <time>2025-10-18T11:26:22Z</time>
      </trkpt>
      <trkpt lat="43.21501" lon="5.48215">
        <ele>255.1</ele>
        <time>2025-10-18T11:26:23Z</time>
      </trkpt>
      <trkpt lat="43.21501" lon="5.48215">
        <ele>255.2</ele>
        <time>2025-10-18T11:26:24Z</time>
      </trkpt>
      <trkpt lat="43.21502" lon="5.48214">
        <ele>255.3</ele>
        <time>2025-10-18T11:26:25Z</time>
      </trkpt>
      <trkpt lat="43.21502" lon="5.48214">
        <ele>255.4</ele>
        <time>2025-10-18T11:26:26Z</time>
      </trkpt>
      <trkpt lat="43.21502" lon="5.48213">
        <ele>255.4</ele>
        <time>2025-10-18T11:26:27Z</time>
      </trkpt>
      <trkpt lat="43.21502" lon="5.48213">
        <ele>255.4</ele>
        <time>2025-10-18T11:26:28Z</time>
      </trkpt>
      <trkpt lat="43.21503" lon="5.48212">
        <ele>255.4</ele>
        <time>2025-10-18T11:26:29Z</time>
      </trkpt>
      <trkpt lat="43.21503" lon="5.48211">
        <ele>255.4</ele>
        <time>2025-10-18T11:26:30Z</time>
      </trkpt>
      <trkpt lat="43.21503" lon="5.4821">
        <ele>255.3</ele>
        <time>2025-10-18T11:26:31Z</time>
      </trkpt>
      <trkpt lat="43.21503" lon="5.4821">
        <ele>255.3</ele>
        <time>2025-10-18T11:26:32Z</time>
      </trkpt>
      <trkpt lat="43.21503" lon="5.48209">
        <ele>255.3</ele>
        <time>2025-10-18T11:26:33Z</time>
      </trkpt>
      <trkpt lat="43.21503" lon="5.48209">
        <ele>255.3</ele>
        <time>2025-10-18T11:26:34Z</time>
      </trkpt>
      <trkpt lat="43.21503" lon="5.48209">
        <ele>255.2</ele>
        <time>2025-10-18T11:26:35Z</time>
      </trkpt>
      <trkpt lat="43.21503" lon="5.48209">
        <ele>255.2</ele>
        <time>2025-10-18T11:26:36Z</time>
      </trkpt>
      <trkpt lat="43.21503" lon="5.48209">
        <ele>255.2</ele>
        <time>2025-10-18T11:26:37Z</time>
      </trkpt>
      <trkpt lat="43.21503" lon="5.48208">
        <ele>255.2</ele>
        <time>2025-10-18T11:26:38Z</time>
      </trkpt>
      <trkpt lat="43.21503" lon="5.48208">
        <ele>255.1</ele>
        <time>2025-10-18T11:26:39Z</time>
      </trkpt>
      <trkpt lat="43.21503" lon="5.48208">
        <ele>255.1</ele>
        <time>2025-10-18T11:26:40Z</time>
      </trkpt>
      <trkpt lat="43.21503" lon="5.48208">
        <ele>255</ele>
        <time>2025-10-18T11:26:41Z</time>
      </trkpt>
      <trkpt lat="43.21503" lon="5.48208">
        <ele>255</ele>
        <time>2025-10-18T11:26:42Z</time>
      </trkpt>
      <trkpt lat="43.21502" lon="5.48208">
        <ele>255</ele>
        <time>2025-10-18T11:26:43Z</time>
      </trkpt>
      <trkpt lat="43.21502" lon="5.48208">
        <ele>255</ele>
        <time>2025-10-18T11:26:44Z</time>
      </trkpt>
      <trkpt lat="43.21503" lon="5.48208">
        <ele>255</ele>
        <time>2025-10-18T11:26:45Z</time>
      </trkpt>
      <trkpt lat="43.21503" lon="5.48208">
        <ele>255</ele>
        <time>2025-10-18T11:26:46Z</time>
      </trkpt>
      <trkpt lat="43.21504" lon="5.48207">
        <ele>254.9</ele>
        <time>2025-10-18T11:26:47Z</time>
      </trkpt>
      <trkpt lat="43.21504" lon="5.48206">
        <ele>254.9</ele>
        <time>2025-10-18T11:26:48Z</time>
      </trkpt>
      <trkpt lat="43.21505" lon="5.48206">
        <ele>254.8</ele>
        <time>2025-10-18T11:26:49Z</time>
      </trkpt>
      <trkpt lat="43.21505" lon="5.48205">
        <ele>254.7</ele>
        <time>2025-10-18T11:26:50Z</time>
      </trkpt>
      <trkpt lat="43.21506" lon="5.48205">
        <ele>254.6</ele>
        <time>2025-10-18T11:26:51Z</time>
      </trkpt>
      <trkpt lat="43.21506" lon="5.48204">
        <ele>254.6</ele>
        <time>2025-10-18T11:26:52Z</time>
      </trkpt>
      <trkpt lat="43.21506" lon="5.48204">
        <ele>254.5</ele>
        <time>2025-10-18T11:26:53Z</time>
      </trkpt>
      <trkpt lat="43.21506" lon="5.48203">
        <ele>254.5</ele>
        <time>2025-10-18T11:26:54Z</time>
      </trkpt>
      <trkpt lat="43.21506" lon="5.48203">
        <ele>254.5</ele>
        <time>2025-10-18T11:26:55Z</time>
      </trkpt>
      <trkpt lat="43.21506" lon="5.48203">
        <ele>254.4</ele>
        <time>2025-10-18T11:26:56Z</time>
      </trkpt>
      <trkpt lat="43.21506" lon="5.48203">
        <ele>254.5</ele>
        <time>2025-10-18T11:26:57Z</time>
      </trkpt>
      <trkpt lat="43.21506" lon="5.48203">
        <ele>254.5</ele>
        <time>2025-10-18T11:26:58Z</time>
      </trkpt>
      <trkpt lat="43.21506" lon="5.48203">
        <ele>254.5</ele>
        <time>2025-10-18T11:26:59Z</time>
      </trkpt>
      <trkpt lat="43.21506" lon="5.48203">
        <ele>254.5</ele>
        <time>2025-10-18T11:27:00Z</time>
      </trkpt>
      <trkpt lat="43.21506" lon="5.48203">
        <ele>254.5</ele>
        <time>2025-10-18T11:27:01Z</time>
      </trkpt>
      <trkpt lat="43.21506" lon="5.48203">
        <ele>254.5</ele>
        <time>2025-10-18T11:27:02Z</time>
      </trkpt>
      <trkpt lat="43.21506" lon="5.48203">
        <ele>254.4</ele>
        <time>2025-10-18T11:27:03Z</time>
      </trkpt>
      <trkpt lat="43.21506" lon="5.48203">
        <ele>254.4</ele>
        <time>2025-10-18T11:27:04Z</time>
      </trkpt>
      <trkpt lat="43.21506" lon="5.48203">
        <ele>254.4</ele>
        <time>2025-10-18T11:27:05Z</time>
      </trkpt>
      <trkpt lat="43.21506" lon="5.48203">
        <ele>254.4</ele>
        <time>2025-10-18T11:27:06Z</time>
      </trkpt>
      <trkpt lat="43.21506" lon="5.48203">
        <ele>254.4</ele>
        <time>2025-10-18T11:27:07Z</time>
      </trkpt>
      <trkpt lat="43.21506" lon="5.48202">
        <ele>254.4</ele>
        <time>2025-10-18T11:27:08Z</time>
      </trkpt>
      <trkpt lat="43.21506" lon="5.48202">
        <ele>254.4</ele>
        <time>2025-10-18T11:27:09Z</time>
      </trkpt>
      <trkpt lat="43.21506" lon="5.48202">
        <ele>254.4</ele>
        <time>2025-10-18T11:27:10Z</time>
      </trkpt>
      <trkpt lat="43.21506" lon="5.48202">
        <ele>254.4</ele>
        <time>2025-10-18T11:27:11Z</time>
      </trkpt>
      <trkpt lat="43.21506" lon="5.48202">
        <ele>254.4</ele>
        <time>2025-10-18T11:27:12Z</time>
      </trkpt>
      <trkpt lat="43.21506" lon="5.48201">
        <ele>254.4</ele>
        <time>2025-10-18T11:27:13Z</time>
      </trkpt>
      <trkpt lat="43.21506" lon="5.48201">
        <ele>254.3</ele>
        <time>2025-10-18T11:27:14Z</time>
      </trkpt>
      <trkpt lat="43.21506" lon="5.48201">
        <ele>254.2</ele>
        <time>2025-10-18T11:27:15Z</time>
      </trkpt>
      <trkpt lat="43.21506" lon="5.48201">
        <ele>254.2</ele>
        <time>2025-10-18T11:27:16Z</time>
      </trkpt>
      <trkpt lat="43.21506" lon="5.48201">
        <ele>254.2</ele>
        <time>2025-10-18T11:27:17Z</time>
      </trkpt>
      <trkpt lat="43.21507" lon="5.48201">
        <ele>254.2</ele>
        <time>2025-10-18T11:27:18Z</time>
      </trkpt>
      <trkpt lat="43.21507" lon="5.48201">
        <ele>254.2</ele>
        <time>2025-10-18T11:27:19Z</time>
      </trkpt>
      <trkpt lat="43.21507" lon="5.48201">
        <ele>254.1</ele>
        <time>2025-10-18T11:27:20Z</time>
      </trkpt>
      <trkpt lat="43.21507" lon="5.48202">
        <ele>254.2</ele>
        <time>2025-10-18T11:27:21Z</time>
      </trkpt>
      <trkpt lat="43.21507" lon="5.48202">
        <ele>254.2</ele>
        <time>2025-10-18T11:27:22Z</time>
      </trkpt>
      <trkpt lat="43.21507" lon="5.48202">
        <ele>254.2</ele>
        <time>2025-10-18T11:27:23Z</time>
      </trkpt>
      <trkpt lat="43.21507" lon="5.48202">
        <ele>254.3</ele>
        <time>2025-10-18T11:27:24Z</time>
      </trkpt>
      <trkpt lat="43.21507" lon="5.48202">
        <ele>254.3</ele>
        <time>2025-10-18T11:27:25Z</time>
      </trkpt>
      <trkpt lat="43.21507" lon="5.48202">
        <ele>254.3</ele>
        <time>2025-10-18T11:27:26Z</time>
      </trkpt>
      <trkpt lat="43.21507" lon="5.48202">
        <ele>254.3</ele>
        <time>2025-10-18T11:27:27Z</time>
      </trkpt>
      <trkpt lat="43.21507" lon="5.48202">
        <ele>254.3</ele>
        <time>2025-10-18T11:27:28Z</time>
      </trkpt>
      <trkpt lat="43.21507" lon="5.48202">
        <ele>254.3</ele>
        <time>2025-10-18T11:27:29Z</time>
      </trkpt>
      <trkpt lat="43.21507" lon="5.48201">
        <ele>254.3</ele>
        <time>2025-10-18T11:27:30Z</time>
      </trkpt>
      <trkpt lat="43.21507" lon="5.482">
        <ele>254.3</ele>
        <time>2025-10-18T11:27:31Z</time>
      </trkpt>
      <trkpt lat="43.21508" lon="5.48199">
        <ele>254.2</ele>
        <time>2025-10-18T11:27:32Z</time>
      </trkpt>
      <trkpt lat="43.21508" lon="5.48198">
        <ele>254.2</ele>
        <time>2025-10-18T11:27:33Z</time>
      </trkpt>
      <trkpt lat="43.21508" lon="5.48198">
        <ele>254.2</ele>
        <time>2025-10-18T11:27:34Z</time>
      </trkpt>
      <trkpt lat="43.21508" lon="5.48197">
        <ele>254.2</ele>
        <time>2025-10-18T11:27:35Z</time>
      </trkpt>
      <trkpt lat="43.21509" lon="5.48197">
        <ele>254.1</ele>
        <time>2025-10-18T11:27:36Z</time>
      </trkpt>
      <trkpt lat="43.21509" lon="5.48196">
        <ele>254</ele>
        <time>2025-10-18T11:27:37Z</time>
      </trkpt>
      <trkpt lat="43.21509" lon="5.48195">
        <ele>254</ele>
        <time>2025-10-18T11:27:38Z</time>
      </trkpt>
      <trkpt lat="43.21509" lon="5.48195">
        <ele>253.9</ele>
        <time>2025-10-18T11:27:39Z</time>
      </trkpt>
      <trkpt lat="43.21509" lon="5.48194">
        <ele>253.9</ele>
        <time>2025-10-18T11:27:40Z</time>
      </trkpt>
      <trkpt lat="43.2151" lon="5.48194">
        <ele>253.9</ele>
        <time>2025-10-18T11:27:41Z</time>
      </trkpt>
      <trkpt lat="43.2151" lon="5.48194">
        <ele>253.8</ele>
        <time>2025-10-18T11:27:42Z</time>
      </trkpt>
      <trkpt lat="43.2151" lon="5.48195">
        <ele>253.8</ele>
        <time>2025-10-18T11:27:43Z</time>
      </trkpt>
      <trkpt lat="43.2151" lon="5.48196">
        <ele>253.7</ele>
        <time>2025-10-18T11:27:44Z</time>
      </trkpt>
      <trkpt lat="43.2151" lon="5.48197">
        <ele>253.6</ele>
        <time>2025-10-18T11:27:45Z</time>
      </trkpt>
      <trkpt lat="43.21511" lon="5.48197">
        <ele>253.4</ele>
        <time>2025-10-18T11:27:46Z</time>
      </trkpt>
      <trkpt lat="43.21512" lon="5.48198">
        <ele>253.2</ele>
        <time>2025-10-18T11:27:47Z</time>
      </trkpt>
      <trkpt lat="43.21512" lon="5.48198">
        <ele>253</ele>
        <time>2025-10-18T11:27:48Z</time>
      </trkpt>
      <trkpt lat="43.21513" lon="5.48197">
        <ele>252.9</ele>
        <time>2025-10-18T11:27:49Z</time>
      </trkpt>
      <trkpt lat="43.21513" lon="5.48196">
        <ele>252.8</ele>
        <time>2025-10-18T11:27:50Z</time>
      </trkpt>
      <trkpt lat="43.21513" lon="5.48195">
        <ele>252.5</ele>
        <time>2025-10-18T11:27:51Z</time>
      </trkpt>
      <trkpt lat="43.21513" lon="5.48194">
        <ele>252.3</ele>
        <time>2025-10-18T11:27:52Z</time>
      </trkpt>
      <trkpt lat="43.21513" lon="5.48194">
        <ele>252.1</ele>
        <time>2025-10-18T11:27:53Z</time>
      </trkpt>
      <trkpt lat="43.21514" lon="5.48193">
        <ele>251.8</ele>
        <time>2025-10-18T11:27:54Z</time>
      </trkpt>
      <trkpt lat="43.21514" lon="5.48192">
        <ele>251.8</ele>
        <time>2025-10-18T11:27:55Z</time>
      </trkpt>
      <trkpt lat="43.21514" lon="5.48192">
        <ele>251.7</ele>
        <time>2025-10-18T11:27:56Z</time>
      </trkpt>
      <trkpt lat="43.21514" lon="5.48191">
        <ele>251.6</ele>
        <time>2025-10-18T11:27:57Z</time>
      </trkpt>
      <trkpt lat="43.21515" lon="5.48191">
        <ele>251.4</ele>
        <time>2025-10-18T11:27:58Z</time>
      </trkpt>
      <trkpt lat="43.21515" lon="5.48191">
        <ele>251.3</ele>
        <time>2025-10-18T11:27:59Z</time>
      </trkpt>
      <trkpt lat="43.21516" lon="5.48192">
        <ele>251.1</ele>
        <time>2025-10-18T11:28:00Z</time>
      </trkpt>
      <trkpt lat="43.21516" lon="5.48192">
        <ele>250.8</ele>
        <time>2025-10-18T11:28:01Z</time>
      </trkpt>
      <trkpt lat="43.21517" lon="5.48192">
        <ele>250.5</ele>
        <time>2025-10-18T11:28:02Z</time>
      </trkpt>
      <trkpt lat="43.21518" lon="5.48191">
        <ele>250.3</ele>
        <time>2025-10-18T11:28:03Z</time>
      </trkpt>
      <trkpt lat="43.21518" lon="5.4819">
        <ele>250.1</ele>
        <time>2025-10-18T11:28:04Z</time>
      </trkpt>
      <trkpt lat="43.21518" lon="5.48189">
        <ele>249.9</ele>
        <time>2025-10-18T11:28:05Z</time>
      </trkpt>
      <trkpt lat="43.21518" lon="5.48187">
        <ele>249.6</ele>
        <time>2025-10-18T11:28:06Z</time>
      </trkpt>
      <trkpt lat="43.21518" lon="5.48187">
        <ele>249.5</ele>
        <time>2025-10-18T11:28:07Z</time>
      </trkpt>
      <trkpt lat="43.21518" lon="5.48186">
        <ele>249.2</ele>
        <time>2025-10-18T11:28:08Z</time>
      </trkpt>
      <trkpt lat="43.21518" lon="5.48186">
        <ele>249</ele>
        <time>2025-10-18T11:28:09Z</time>
      </trkpt>
      <trkpt lat="43.21518" lon="5.48186">
        <ele>248.8</ele>
        <time>2025-10-18T11:28:10Z</time>
      </trkpt>
      <trkpt lat="43.21518" lon="5.48186">
        <ele>248.7</ele>
        <time>2025-10-18T11:28:11Z</time>
      </trkpt>
      <trkpt lat="43.21518" lon="5.48186">
        <ele>248.6</ele>
        <time>2025-10-18T11:28:12Z</time>
      </trkpt>
      <trkpt lat="43.21518" lon="5.48186">
        <ele>248.6</ele>
        <time>2025-10-18T11:28:13Z</time>
      </trkpt>
      <trkpt lat="43.21518" lon="5.48186">
        <ele>248.6</ele>
        <time>2025-10-18T11:28:14Z</time>
      </trkpt>
      <trkpt lat="43.21519" lon="5.48186">
        <ele>248.5</ele>
        <time>2025-10-18T11:28:15Z</time>
      </trkpt>
      <trkpt lat="43.21519" lon="5.48186">
        <ele>248.5</ele>
        <time>2025-10-18T11:28:16Z</time>
      </trkpt>
      <trkpt lat="43.21519" lon="5.48186">
        <ele>248.4</ele>
        <time>2025-10-18T11:28:17Z</time>
      </trkpt>
      <trkpt lat="43.21519" lon="5.48186">
        <ele>248.5</ele>
        <time>2025-10-18T11:28:18Z</time>
      </trkpt>
      <trkpt lat="43.21519" lon="5.48186">
        <ele>248.5</ele>
        <time>2025-10-18T11:28:19Z</time>
      </trkpt>
      <trkpt lat="43.21519" lon="5.48186">
        <ele>248.5</ele>
        <time>2025-10-18T11:28:20Z</time>
      </trkpt>
      <trkpt lat="43.21519" lon="5.48187">
        <ele>248.4</ele>
        <time>2025-10-18T11:28:21Z</time>
      </trkpt>
      <trkpt lat="43.21519" lon="5.48187">
        <ele>248.4</ele>
        <time>2025-10-18T11:28:22Z</time>
      </trkpt>
      <trkpt lat="43.21518" lon="5.48187">
        <ele>248.4</ele>
        <time>2025-10-18T11:28:23Z</time>
      </trkpt>
      <trkpt lat="43.21518" lon="5.48187">
        <ele>248.3</ele>
        <time>2025-10-18T11:28:24Z</time>
      </trkpt>
      <trkpt lat="43.21518" lon="5.48187">
        <ele>248.3</ele>
        <time>2025-10-18T11:28:25Z</time>
      </trkpt>
      <trkpt lat="43.21518" lon="5.48187">
        <ele>248.3</ele>
        <time>2025-10-18T11:28:26Z</time>
      </trkpt>
      <trkpt lat="43.21518" lon="5.48187">
        <ele>248.2</ele>
        <time>2025-10-18T11:28:27Z</time>
      </trkpt>
      <trkpt lat="43.21518" lon="5.48187">
        <ele>248.2</ele>
        <time>2025-10-18T11:28:28Z</time>
      </trkpt>
      <trkpt lat="43.21518" lon="5.48187">
        <ele>248.2</ele>
        <time>2025-10-18T11:28:29Z</time>
      </trkpt>
      <trkpt lat="43.21518" lon="5.48187">
        <ele>248.2</ele>
        <time>2025-10-18T11:28:30Z</time>
      </trkpt>
      <trkpt lat="43.21518" lon="5.48187">
        <ele>248.2</ele>
        <time>2025-10-18T11:28:31Z</time>
      </trkpt>
      <trkpt lat="43.21518" lon="5.48187">
        <ele>248.2</ele>
        <time>2025-10-18T11:28:32Z</time>
      </trkpt>
      <trkpt lat="43.21518" lon="5.48187">
        <ele>248.1</ele>
        <time>2025-10-18T11:28:33Z</time>
      </trkpt>
      <trkpt lat="43.21518" lon="5.48187">
        <ele>248.1</ele>
        <time>2025-10-18T11:28:34Z</time>
      </trkpt>
      <trkpt lat="43.21518" lon="5.48186">
        <ele>248</ele>
        <time>2025-10-18T11:28:35Z</time>
      </trkpt>
      <trkpt lat="43.21518" lon="5.48186">
        <ele>248.1</ele>
        <time>2025-10-18T11:28:36Z</time>
      </trkpt>
      <trkpt lat="43.21518" lon="5.48186">
        <ele>248.1</ele>
        <time>2025-10-18T11:28:37Z</time>
      </trkpt>
      <trkpt lat="43.21518" lon="5.48186">
        <ele>248.2</ele>
        <time>2025-10-18T11:28:38Z</time>
      </trkpt>
      <trkpt lat="43.21518" lon="5.48186">
        <ele>248.2</ele>
        <time>2025-10-18T11:28:39Z</time>
      </trkpt>
      <trkpt lat="43.21518" lon="5.48186">
        <ele>248.3</ele>
        <time>2025-10-18T11:28:40Z</time>
      </trkpt>
      <trkpt lat="43.21518" lon="5.48186">
        <ele>248.3</ele>
        <time>2025-10-18T11:28:41Z</time>
      </trkpt>
      <trkpt lat="43.21518" lon="5.48186">
        <ele>248.3</ele>
        <time>2025-10-18T11:28:42Z</time>
      </trkpt>
      <trkpt lat="43.21518" lon="5.48186">
        <ele>248.3</ele>
        <time>2025-10-18T11:28:43Z</time>
      </trkpt>
      <trkpt lat="43.21518" lon="5.48186">
        <ele>248.3</ele>
        <time>2025-10-18T11:28:44Z</time>
      </trkpt>
      <trkpt lat="43.21518" lon="5.48186">
        <ele>248.3</ele>
        <time>2025-10-18T11:28:45Z</time>
      </trkpt>
      <trkpt lat="43.21518" lon="5.48186">
        <ele>248.4</ele>
        <time>2025-10-18T11:28:46Z</time>
      </trkpt>
      <trkpt lat="43.21518" lon="5.48186">
        <ele>248.4</ele>
        <time>2025-10-18T11:28:47Z</time>
      </trkpt>
      <trkpt lat="43.21518" lon="5.48186">
        <ele>248.3</ele>
        <time>2025-10-18T11:28:48Z</time>
      </trkpt>
      <trkpt lat="43.21518" lon="5.48185">
        <ele>248.3</ele>
        <time>2025-10-18T11:28:49Z</time>
      </trkpt>
      <trkpt lat="43.21518" lon="5.48185">
        <ele>248.3</ele>
        <time>2025-10-18T11:28:50Z</time>
      </trkpt>
      <trkpt lat="43.21518" lon="5.48185">
        <ele>248.4</ele>
        <time>2025-10-18T11:28:51Z</time>
      </trkpt>
      <trkpt lat="43.21518" lon="5.48185">
        <ele>248.4</ele>
        <time>2025-10-18T11:28:52Z</time>
      </trkpt>
      <trkpt lat="43.21518" lon="5.48185">
        <ele>248.4</ele>
        <time>2025-10-18T11:28:53Z</time>
      </trkpt>
      <trkpt lat="43.21519" lon="5.48185">
        <ele>248.4</ele>
        <time>2025-10-18T11:28:54Z</time>
      </trkpt>
      <trkpt lat="43.21519" lon="5.48185">
        <ele>248.4</ele>
        <time>2025-10-18T11:28:55Z</time>
      </trkpt>
      <trkpt lat="43.21519" lon="5.48185">
        <ele>248.4</ele>
        <time>2025-10-18T11:28:56Z</time>
      </trkpt>
      <trkpt lat="43.21519" lon="5.48185">
        <ele>248.4</ele>
        <time>2025-10-18T11:28:57Z</time>
      </trkpt>
      <trkpt lat="43.21519" lon="5.48185">
        <ele>248.3</ele>
        <time>2025-10-18T11:28:58Z</time>
      </trkpt>
      <trkpt lat="43.21519" lon="5.48185">
        <ele>248.3</ele>
        <time>2025-10-18T11:28:59Z</time>
      </trkpt>
      <trkpt lat="43.21519" lon="5.48185">
        <ele>248.4</ele>
        <time>2025-10-18T11:29:00Z</time>
      </trkpt>
      <trkpt lat="43.21519" lon="5.48185">
        <ele>248.4</ele>
        <time>2025-10-18T11:29:01Z</time>
      </trkpt>
      <trkpt lat="43.21519" lon="5.48184">
        <ele>248.5</ele>
        <time>2025-10-18T11:29:02Z</time>
      </trkpt>
      <trkpt lat="43.21519" lon="5.48183">
        <ele>248.5</ele>
        <time>2025-10-18T11:29:03Z</time>
      </trkpt>
      <trkpt lat="43.21519" lon="5.48183">
        <ele>248.5</ele>
        <time>2025-10-18T11:29:04Z</time>
      </trkpt>
      <trkpt lat="43.21519" lon="5.48183">
        <ele>248.4</ele>
        <time>2025-10-18T11:29:05Z</time>
      </trkpt>
      <trkpt lat="43.21518" lon="5.48183">
        <ele>248.3</ele>
        <time>2025-10-18T11:29:06Z</time>
      </trkpt>
      <trkpt lat="43.21518" lon="5.48183">
        <ele>248.2</ele>
        <time>2025-10-18T11:29:07Z</time>
      </trkpt>
      <trkpt lat="43.21518" lon="5.48183">
        <ele>248.2</ele>
        <time>2025-10-18T11:29:08Z</time>
      </trkpt>
      <trkpt lat="43.21518" lon="5.48184">
        <ele>248.1</ele>
        <time>2025-10-18T11:29:09Z</time>
      </trkpt>
      <trkpt lat="43.21518" lon="5.48184">
        <ele>248</ele>
        <time>2025-10-18T11:29:10Z</time>
      </trkpt>
      <trkpt lat="43.21518" lon="5.48184">
        <ele>248</ele>
        <time>2025-10-18T11:29:11Z</time>
      </trkpt>
      <trkpt lat="43.21518" lon="5.48184">
        <ele>248</ele>
        <time>2025-10-18T11:29:12Z</time>
      </trkpt>
      <trkpt lat="43.21518" lon="5.48184">
        <ele>247.9</ele>
        <time>2025-10-18T11:29:13Z</time>
      </trkpt>
      <trkpt lat="43.21518" lon="5.48184">
        <ele>247.9</ele>
        <time>2025-10-18T11:29:14Z</time>
      </trkpt>
      <trkpt lat="43.21518" lon="5.48184">
        <ele>247.9</ele>
        <time>2025-10-18T11:29:15Z</time>
      </trkpt>
      <trkpt lat="43.21518" lon="5.48184">
        <ele>247.7</ele>
        <time>2025-10-18T11:29:16Z</time>
      </trkpt>
      <trkpt lat="43.21518" lon="5.48184">
        <ele>247.8</ele>
        <time>2025-10-18T11:29:17Z</time>
      </trkpt>
      <trkpt lat="43.21518" lon="5.48184">
        <ele>247.8</ele>
        <time>2025-10-18T11:29:18Z</time>
      </trkpt>
      <trkpt lat="43.21518" lon="5.48184">
        <ele>247.8</ele>
        <time>2025-10-18T11:29:19Z</time>
      </trkpt>
      <trkpt lat="43.21518" lon="5.48184">
        <ele>247.8</ele>
        <time>2025-10-18T11:29:20Z</time>
      </trkpt>
      <trkpt lat="43.21518" lon="5.48184">
        <ele>247.8</ele>
        <time>2025-10-18T11:29:21Z</time>
      </trkpt>
      <trkpt lat="43.21518" lon="5.48184">
        <ele>247.7</ele>
        <time>2025-10-18T11:29:22Z</time>
      </trkpt>
      <trkpt lat="43.21518" lon="5.48184">
        <ele>247.7</ele>
        <time>2025-10-18T11:29:23Z</time>
      </trkpt>
      <trkpt lat="43.21518" lon="5.48184">
        <ele>247.7</ele>
        <time>2025-10-18T11:29:24Z</time>
      </trkpt>
      <trkpt lat="43.21518" lon="5.48184">
        <ele>247.6</ele>
        <time>2025-10-18T11:29:25Z</time>
      </trkpt>
      <trkpt lat="43.21518" lon="5.48184">
        <ele>247.6</ele>
        <time>2025-10-18T11:29:26Z</time>
      </trkpt>
      <trkpt lat="43.21518" lon="5.48184">
        <ele>247.7</ele>
        <time>2025-10-18T11:29:27Z</time>
      </trkpt>
      <trkpt lat="43.21518" lon="5.48184">
        <ele>247.6</ele>
        <time>2025-10-18T11:29:28Z</time>
      </trkpt>
      <trkpt lat="43.21518" lon="5.48184">
        <ele>247.6</ele>
        <time>2025-10-18T11:29:29Z</time>
      </trkpt>
      <trkpt lat="43.21518" lon="5.48184">
        <ele>247.7</ele>
        <time>2025-10-18T11:29:30Z</time>
      </trkpt>
      <trkpt lat="43.21518" lon="5.48184">
        <ele>247.7</ele>
        <time>2025-10-18T11:29:31Z</time>
      </trkpt>
      <trkpt lat="43.21518" lon="5.48184">
        <ele>247.7</ele>
        <time>2025-10-18T11:29:32Z</time>
      </trkpt>
      <trkpt lat="43.21518" lon="5.48184">
        <ele>247.8</ele>
        <time>2025-10-18T11:29:33Z</time>
      </trkpt>
      <trkpt lat="43.21518" lon="5.48184">
        <ele>247.8</ele>
        <time>2025-10-18T11:29:34Z</time>
      </trkpt>
      <trkpt lat="43.21517" lon="5.48184">
        <ele>247.8</ele>
        <time>2025-10-18T11:29:35Z</time>
      </trkpt>
      <trkpt lat="43.21517" lon="5.48184">
        <ele>247.8</ele>
        <time>2025-10-18T11:29:36Z</time>
      </trkpt>
      <trkpt lat="43.21517" lon="5.48184">
        <ele>247.9</ele>
        <time>2025-10-18T11:29:37Z</time>
      </trkpt>
      <trkpt lat="43.21517" lon="5.48184">
        <ele>247.9</ele>
        <time>2025-10-18T11:29:38Z</time>
      </trkpt>
      <trkpt lat="43.21518" lon="5.48184">
        <ele>247.8</ele>
        <time>2025-10-18T11:29:39Z</time>
      </trkpt>
      <trkpt lat="43.21518" lon="5.48184">
        <ele>247.8</ele>
        <time>2025-10-18T11:29:40Z</time>
      </trkpt>
      <trkpt lat="43.21518" lon="5.48184">
        <ele>247.8</ele>
        <time>2025-10-18T11:29:41Z</time>
      </trkpt>
      <trkpt lat="43.21518" lon="5.48184">
        <ele>247.8</ele>
        <time>2025-10-18T11:29:42Z</time>
      </trkpt>
      <trkpt lat="43.21517" lon="5.48184">
        <ele>247.8</ele>
        <time>2025-10-18T11:29:43Z</time>
      </trkpt>
      <trkpt lat="43.21517" lon="5.48184">
        <ele>247.8</ele>
        <time>2025-10-18T11:29:44Z</time>
      </trkpt>
      <trkpt lat="43.21517" lon="5.48184">
        <ele>247.9</ele>
        <time>2025-10-18T11:29:45Z</time>
      </trkpt>
      <trkpt lat="43.21517" lon="5.48184">
        <ele>247.9</ele>
        <time>2025-10-18T11:29:46Z</time>
      </trkpt>
      <trkpt lat="43.21517" lon="5.48184">
        <ele>248</ele>
        <time>2025-10-18T11:29:47Z</time>
      </trkpt>
      <trkpt lat="43.21517" lon="5.48184">
        <ele>248.1</ele>
        <time>2025-10-18T11:29:48Z</time>
      </trkpt>
      <trkpt lat="43.21517" lon="5.48184">
        <ele>248.2</ele>
        <time>2025-10-18T11:29:49Z</time>
      </trkpt>
      <trkpt lat="43.21517" lon="5.48184">
        <ele>248.2</ele>
        <time>2025-10-18T11:29:50Z</time>
      </trkpt>
      <trkpt lat="43.21517" lon="5.48184">
        <ele>248.3</ele>
        <time>2025-10-18T11:29:51Z</time>
      </trkpt>
      <trkpt lat="43.21517" lon="5.48184">
        <ele>248.3</ele>
        <time>2025-10-18T11:29:52Z</time>
      </trkpt>
      <trkpt lat="43.21517" lon="5.48184">
        <ele>248.3</ele>
        <time>2025-10-18T11:29:53Z</time>
      </trkpt>
      <trkpt lat="43.21517" lon="5.48185">
        <ele>248.2</ele>
        <time>2025-10-18T11:29:54Z</time>
      </trkpt>
      <trkpt lat="43.21517" lon="5.48184">
        <ele>248.2</ele>
        <time>2025-10-18T11:29:55Z</time>
      </trkpt>
      <trkpt lat="43.21517" lon="5.48184">
        <ele>248.2</ele>
        <time>2025-10-18T11:29:56Z</time>
      </trkpt>
      <trkpt lat="43.21517" lon="5.48184">
        <ele>248.2</ele>
        <time>2025-10-18T11:29:57Z</time>
      </trkpt>
      <trkpt lat="43.21517" lon="5.48184">
        <ele>248.2</ele>
        <time>2025-10-18T11:29:58Z</time>
      </trkpt>
      <trkpt lat="43.21518" lon="5.48184">
        <ele>248.1</ele>
        <time>2025-10-18T11:29:59Z</time>
      </trkpt>
      <trkpt lat="43.21518" lon="5.48184">
        <ele>248.2</ele>
        <time>2025-10-18T11:30:00Z</time>
      </trkpt>
      <trkpt lat="43.21518" lon="5.48184">
        <ele>248.2</ele>
        <time>2025-10-18T11:30:01Z</time>
      </trkpt>
      <trkpt lat="43.21518" lon="5.48184">
        <ele>248.2</ele>
        <time>2025-10-18T11:30:02Z</time>
      </trkpt>
      <trkpt lat="43.21518" lon="5.48184">
        <ele>248.1</ele>
        <time>2025-10-18T11:30:03Z</time>
      </trkpt>
      <trkpt lat="43.21518" lon="5.48184">
        <ele>248.1</ele>
        <time>2025-10-18T11:30:04Z</time>
      </trkpt>
      <trkpt lat="43.21518" lon="5.48184">
        <ele>248.1</ele>
        <time>2025-10-18T11:30:05Z</time>
      </trkpt>
      <trkpt lat="43.21518" lon="5.48184">
        <ele>248.1</ele>
        <time>2025-10-18T11:30:06Z</time>
      </trkpt>
      <trkpt lat="43.21517" lon="5.48184">
        <ele>248.1</ele>
        <time>2025-10-18T11:30:07Z</time>
      </trkpt>
      <trkpt lat="43.21517" lon="5.48184">
        <ele>248</ele>
        <time>2025-10-18T11:30:08Z</time>
      </trkpt>
      <trkpt lat="43.21518" lon="5.48184">
        <ele>248.1</ele>
        <time>2025-10-18T11:30:09Z</time>
      </trkpt>
      <trkpt lat="43.21518" lon="5.48184">
        <ele>248.1</ele>
        <time>2025-10-18T11:30:10Z</time>
      </trkpt>
      <trkpt lat="43.21518" lon="5.48184">
        <ele>248</ele>
        <time>2025-10-18T11:30:11Z</time>
      </trkpt>
      <trkpt lat="43.21518" lon="5.48184">
        <ele>248</ele>
        <time>2025-10-18T11:30:12Z</time>
      </trkpt>
      <trkpt lat="43.21518" lon="5.48183">
        <ele>248</ele>
        <time>2025-10-18T11:30:13Z</time>
      </trkpt>
      <trkpt lat="43.21518" lon="5.48183">
        <ele>247.9</ele>
        <time>2025-10-18T11:30:14Z</time>
      </trkpt>
      <trkpt lat="43.21518" lon="5.48183">
        <ele>247.9</ele>
        <time>2025-10-18T11:30:15Z</time>
      </trkpt>
      <trkpt lat="43.21519" lon="5.48182">
        <ele>247.9</ele>
        <time>2025-10-18T11:30:16Z</time>
      </trkpt>
      <trkpt lat="43.21519" lon="5.48182">
        <ele>247.9</ele>
        <time>2025-10-18T11:30:17Z</time>
      </trkpt>
      <trkpt lat="43.21519" lon="5.48182">
        <ele>247.8</ele>
        <time>2025-10-18T11:30:18Z</time>
      </trkpt>
      <trkpt lat="43.21519" lon="5.48181">
        <ele>247.8</ele>
        <time>2025-10-18T11:30:19Z</time>
      </trkpt>
      <trkpt lat="43.2152" lon="5.4818">
        <ele>247.6</ele>
        <time>2025-10-18T11:30:20Z</time>
      </trkpt>
      <trkpt lat="43.2152" lon="5.48179">
        <ele>247.6</ele>
        <time>2025-10-18T11:30:21Z</time>
      </trkpt>
      <trkpt lat="43.2152" lon="5.48178">
        <ele>247.6</ele>
        <time>2025-10-18T11:30:22Z</time>
      </trkpt>
      <trkpt lat="43.2152" lon="5.48178">
        <ele>247.5</ele>
        <time>2025-10-18T11:30:23Z</time>
      </trkpt>
      <trkpt lat="43.2152" lon="5.48178">
        <ele>247.5</ele>
        <time>2025-10-18T11:30:24Z</time>
      </trkpt>
      <trkpt lat="43.2152" lon="5.48178">
        <ele>247.3</ele>
        <time>2025-10-18T11:30:25Z</time>
      </trkpt>
      <trkpt lat="43.21521" lon="5.48177">
        <ele>247.2</ele>
        <time>2025-10-18T11:30:26Z</time>
      </trkpt>
      <trkpt lat="43.21521" lon="5.48177">
        <ele>247.1</ele>
        <time>2025-10-18T11:30:27Z</time>
      </trkpt>
      <trkpt lat="43.21522" lon="5.48177">
        <ele>247</ele>
        <time>2025-10-18T11:30:28Z</time>
      </trkpt>
      <trkpt lat="43.21522" lon="5.48176">
        <ele>246.9</ele>
        <time>2025-10-18T11:30:29Z</time>
      </trkpt>
      <trkpt lat="43.21523" lon="5.48175">
        <ele>246.6</ele>
        <time>2025-10-18T11:30:30Z</time>
      </trkpt>
      <trkpt lat="43.21523" lon="5.48175">
        <ele>246.4</ele>
        <time>2025-10-18T11:30:31Z</time>
      </trkpt>
      <trkpt lat="43.21524" lon="5.48174">
        <ele>246.2</ele>
        <time>2025-10-18T11:30:32Z</time>
      </trkpt>
      <trkpt lat="43.21524" lon="5.48174">
        <ele>246</ele>
        <time>2025-10-18T11:30:33Z</time>
      </trkpt>
      <trkpt lat="43.21524" lon="5.48173">
        <ele>246</ele>
        <time>2025-10-18T11:30:34Z</time>
      </trkpt>
      <trkpt lat="43.21525" lon="5.48172">
        <ele>245.8</ele>
        <time>2025-10-18T11:30:35Z</time>
      </trkpt>
      <trkpt lat="43.21525" lon="5.48172">
        <ele>245.7</ele>
        <time>2025-10-18T11:30:36Z</time>
      </trkpt>
      <trkpt lat="43.21525" lon="5.48172">
        <ele>245.6</ele>
        <time>2025-10-18T11:30:37Z</time>
      </trkpt>
      <trkpt lat="43.21525" lon="5.48171">
        <ele>245.5</ele>
        <time>2025-10-18T11:30:38Z</time>
      </trkpt>
      <trkpt lat="43.21526" lon="5.4817">
        <ele>245.3</ele>
        <time>2025-10-18T11:30:39Z</time>
      </trkpt>
      <trkpt lat="43.21526" lon="5.4817">
        <ele>245.2</ele>
        <time>2025-10-18T11:30:40Z</time>
      </trkpt>
      <trkpt lat="43.21527" lon="5.48169">
        <ele>245.1</ele>
        <time>2025-10-18T11:30:41Z</time>
      </trkpt>
      <trkpt lat="43.21527" lon="5.48168">
        <ele>245.1</ele>
        <time>2025-10-18T11:30:42Z</time>
      </trkpt>
      <trkpt lat="43.21527" lon="5.48168">
        <ele>245</ele>
        <time>2025-10-18T11:30:43Z</time>
      </trkpt>
      <trkpt lat="43.21528" lon="5.48167">
        <ele>244.8</ele>
        <time>2025-10-18T11:30:44Z</time>
      </trkpt>
      <trkpt lat="43.21528" lon="5.48167">
        <ele>244.7</ele>
        <time>2025-10-18T11:30:45Z</time>
      </trkpt>
      <trkpt lat="43.21528" lon="5.48167">
        <ele>244.5</ele>
        <time>2025-10-18T11:30:46Z</time>
      </trkpt>
      <trkpt lat="43.21529" lon="5.48166">
        <ele>244.4</ele>
        <time>2025-10-18T11:30:47Z</time>
      </trkpt>
      <trkpt lat="43.21529" lon="5.48166">
        <ele>244.2</ele>
        <time>2025-10-18T11:30:48Z</time>
      </trkpt>
      <trkpt lat="43.2153" lon="5.48166">
        <ele>244.1</ele>
        <time>2025-10-18T11:30:49Z</time>
      </trkpt>
      <trkpt lat="43.2153" lon="5.48166">
        <ele>244</ele>
        <time>2025-10-18T11:30:50Z</time>
      </trkpt>
      <trkpt lat="43.21531" lon="5.48166">
        <ele>243.9</ele>
        <time>2025-10-18T11:30:51Z</time>
      </trkpt>
      <trkpt lat="43.21531" lon="5.48166">
        <ele>243.7</ele>
        <time>2025-10-18T11:30:52Z</time>
      </trkpt>
      <trkpt lat="43.21531" lon="5.48167">
        <ele>243.6</ele>
        <time>2025-10-18T11:30:53Z</time>
      </trkpt>
      <trkpt lat="43.21531" lon="5.48167">
        <ele>243.5</ele>
        <time>2025-10-18T11:30:54Z</time>
      </trkpt>
      <trkpt lat="43.21531" lon="5.48168">
        <ele>243.3</ele>
        <time>2025-10-18T11:30:55Z</time>
      </trkpt>
      <trkpt lat="43.2153" lon="5.48168">
        <ele>243.1</ele>
        <time>2025-10-18T11:30:56Z</time>
      </trkpt>
      <trkpt lat="43.2153" lon="5.48169">
        <ele>243</ele>
        <time>2025-10-18T11:30:57Z</time>
      </trkpt>
      <trkpt lat="43.2153" lon="5.4817">
        <ele>242.9</ele>
        <time>2025-10-18T11:30:58Z</time>
      </trkpt>
      <trkpt lat="43.2153" lon="5.4817">
        <ele>242.7</ele>
        <time>2025-10-18T11:30:59Z</time>
      </trkpt>
      <trkpt lat="43.21529" lon="5.48171">
        <ele>242.6</ele>
        <time>2025-10-18T11:31:00Z</time>
      </trkpt>
      <trkpt lat="43.21529" lon="5.48172">
        <ele>242.5</ele>
        <time>2025-10-18T11:31:01Z</time>
      </trkpt>
      <trkpt lat="43.21529" lon="5.48173">
        <ele>242.3</ele>
        <time>2025-10-18T11:31:02Z</time>
      </trkpt>
      <trkpt lat="43.21529" lon="5.48173">
        <ele>242.2</ele>
        <time>2025-10-18T11:31:03Z</time>
      </trkpt>
      <trkpt lat="43.21529" lon="5.48174">
        <ele>242</ele>
        <time>2025-10-18T11:31:04Z</time>
      </trkpt>
      <trkpt lat="43.21529" lon="5.48174">
        <ele>241.8</ele>
        <time>2025-10-18T11:31:05Z</time>
      </trkpt>
      <trkpt lat="43.21529" lon="5.48175">
        <ele>241.6</ele>
        <time>2025-10-18T11:31:06Z</time>
      </trkpt>
      <trkpt lat="43.2153" lon="5.48176">
        <ele>241.4</ele>
        <time>2025-10-18T11:31:07Z</time>
      </trkpt>
      <trkpt lat="43.2153" lon="5.48176">
        <ele>241.2</ele>
        <time>2025-10-18T11:31:08Z</time>
      </trkpt>
      <trkpt lat="43.2153" lon="5.48177">
        <ele>241</ele>
        <time>2025-10-18T11:31:09Z</time>
      </trkpt>
      <trkpt lat="43.21531" lon="5.48178">
        <ele>240.8</ele>
        <time>2025-10-18T11:31:10Z</time>
      </trkpt>
      <trkpt lat="43.21531" lon="5.48178">
        <ele>240.7</ele>
        <time>2025-10-18T11:31:11Z</time>
      </trkpt>
      <trkpt lat="43.21531" lon="5.48179">
        <ele>240.6</ele>
        <time>2025-10-18T11:31:12Z</time>
      </trkpt>
      <trkpt lat="43.21531" lon="5.48179">
        <ele>240.5</ele>
        <time>2025-10-18T11:31:13Z</time>
      </trkpt>
      <trkpt lat="43.21531" lon="5.48179">
        <ele>240.5</ele>
        <time>2025-10-18T11:31:14Z</time>
      </trkpt>
      <trkpt lat="43.21532" lon="5.4818">
        <ele>240.4</ele>
        <time>2025-10-18T11:31:15Z</time>
      </trkpt>
      <trkpt lat="43.21532" lon="5.4818">
        <ele>240.3</ele>
        <time>2025-10-18T11:31:16Z</time>
      </trkpt>
      <trkpt lat="43.21533" lon="5.48181">
        <ele>240.2</ele>
        <time>2025-10-18T11:31:17Z</time>
      </trkpt>
      <trkpt lat="43.21533" lon="5.48181">
        <ele>240.1</ele>
        <time>2025-10-18T11:31:18Z</time>
      </trkpt>
      <trkpt lat="43.21533" lon="5.48181">
        <ele>240</ele>
        <time>2025-10-18T11:31:19Z</time>
      </trkpt>
      <trkpt lat="43.21533" lon="5.48181">
        <ele>239.9</ele>
        <time>2025-10-18T11:31:20Z</time>
      </trkpt>
      <trkpt lat="43.21533" lon="5.48181">
        <ele>239.9</ele>
        <time>2025-10-18T11:31:21Z</time>
      </trkpt>
      <trkpt lat="43.21533" lon="5.48181">
        <ele>239.8</ele>
        <time>2025-10-18T11:31:22Z</time>
      </trkpt>
      <trkpt lat="43.21533" lon="5.48181">
        <ele>239.8</ele>
        <time>2025-10-18T11:31:23Z</time>
      </trkpt>
      <trkpt lat="43.21533" lon="5.48181">
        <ele>239.7</ele>
        <time>2025-10-18T11:31:24Z</time>
      </trkpt>
      <trkpt lat="43.21533" lon="5.48181">
        <ele>239.7</ele>
        <time>2025-10-18T11:31:25Z</time>
      </trkpt>
      <trkpt lat="43.21533" lon="5.48181">
        <ele>239.7</ele>
        <time>2025-10-18T11:31:26Z</time>
      </trkpt>
      <trkpt lat="43.21533" lon="5.48181">
        <ele>239.7</ele>
        <time>2025-10-18T11:31:27Z</time>
      </trkpt>
      <trkpt lat="43.21534" lon="5.48181">
        <ele>239.7</ele>
        <time>2025-10-18T11:31:28Z</time>
      </trkpt>
      <trkpt lat="43.21534" lon="5.48181">
        <ele>239.7</ele>
        <time>2025-10-18T11:31:29Z</time>
      </trkpt>
      <trkpt lat="43.21534" lon="5.48182">
        <ele>239.6</ele>
        <time>2025-10-18T11:31:30Z</time>
      </trkpt>
      <trkpt lat="43.21534" lon="5.48182">
        <ele>239.5</ele>
        <time>2025-10-18T11:31:31Z</time>
      </trkpt>
      <trkpt lat="43.21534" lon="5.48182">
        <ele>239.5</ele>
        <time>2025-10-18T11:31:32Z</time>
      </trkpt>
      <trkpt lat="43.21534" lon="5.48182">
        <ele>239.5</ele>
        <time>2025-10-18T11:31:33Z</time>
      </trkpt>
      <trkpt lat="43.21534" lon="5.48182">
        <ele>239.5</ele>
        <time>2025-10-18T11:31:34Z</time>
      </trkpt>
      <trkpt lat="43.21534" lon="5.48183">
        <ele>239.4</ele>
        <time>2025-10-18T11:31:35Z</time>
      </trkpt>
      <trkpt lat="43.21534" lon="5.48183">
        <ele>239.4</ele>
        <time>2025-10-18T11:31:36Z</time>
      </trkpt>
      <trkpt lat="43.21535" lon="5.48183">
        <ele>239.4</ele>
        <time>2025-10-18T11:31:37Z</time>
      </trkpt>
      <trkpt lat="43.21535" lon="5.48184">
        <ele>239.4</ele>
        <time>2025-10-18T11:31:38Z</time>
      </trkpt>
      <trkpt lat="43.21535" lon="5.48184">
        <ele>239.4</ele>
        <time>2025-10-18T11:31:39Z</time>
      </trkpt>
      <trkpt lat="43.21535" lon="5.48184">
        <ele>239.4</ele>
        <time>2025-10-18T11:31:40Z</time>
      </trkpt>
      <trkpt lat="43.21535" lon="5.48184">
        <ele>239.4</ele>
        <time>2025-10-18T11:31:41Z</time>
      </trkpt>
      <trkpt lat="43.21535" lon="5.48184">
        <ele>239.4</ele>
        <time>2025-10-18T11:31:42Z</time>
      </trkpt>
      <trkpt lat="43.21535" lon="5.48184">
        <ele>239.4</ele>
        <time>2025-10-18T11:31:43Z</time>
      </trkpt>
      <trkpt lat="43.21535" lon="5.48184">
        <ele>239.5</ele>
        <time>2025-10-18T11:31:44Z</time>
      </trkpt>
      <trkpt lat="43.21535" lon="5.48184">
        <ele>239.5</ele>
        <time>2025-10-18T11:31:45Z</time>
      </trkpt>
      <trkpt lat="43.21535" lon="5.48184">
        <ele>239.5</ele>
        <time>2025-10-18T11:31:46Z</time>
      </trkpt>
      <trkpt lat="43.21535" lon="5.48184">
        <ele>239.6</ele>
        <time>2025-10-18T11:31:47Z</time>
      </trkpt>
      <trkpt lat="43.21535" lon="5.48184">
        <ele>239.6</ele>
        <time>2025-10-18T11:31:48Z</time>
      </trkpt>
      <trkpt lat="43.21535" lon="5.48184">
        <ele>239.7</ele>
        <time>2025-10-18T11:31:49Z</time>
      </trkpt>
      <trkpt lat="43.21535" lon="5.48184">
        <ele>239.7</ele>
        <time>2025-10-18T11:31:50Z</time>
      </trkpt>
      <trkpt lat="43.21535" lon="5.48184">
        <ele>239.7</ele>
        <time>2025-10-18T11:31:51Z</time>
      </trkpt>
      <trkpt lat="43.21536" lon="5.48184">
        <ele>239.7</ele>
        <time>2025-10-18T11:31:52Z</time>
      </trkpt>
      <trkpt lat="43.21536" lon="5.48184">
        <ele>239.8</ele>
        <time>2025-10-18T11:31:53Z</time>
      </trkpt>
      <trkpt lat="43.21536" lon="5.48184">
        <ele>239.7</ele>
        <time>2025-10-18T11:31:54Z</time>
      </trkpt>
      <trkpt lat="43.21536" lon="5.48184">
        <ele>239.7</ele>
        <time>2025-10-18T11:31:55Z</time>
      </trkpt>
      <trkpt lat="43.21536" lon="5.48184">
        <ele>239.7</ele>
        <time>2025-10-18T11:31:56Z</time>
      </trkpt>
      <trkpt lat="43.21536" lon="5.48184">
        <ele>239.8</ele>
        <time>2025-10-18T11:31:57Z</time>
      </trkpt>
      <trkpt lat="43.21536" lon="5.48184">
        <ele>239.8</ele>
        <time>2025-10-18T11:31:58Z</time>
      </trkpt>
      <trkpt lat="43.21536" lon="5.48184">
        <ele>239.8</ele>
        <time>2025-10-18T11:31:59Z</time>
      </trkpt>
      <trkpt lat="43.21536" lon="5.48185">
        <ele>239.7</ele>
        <time>2025-10-18T11:32:00Z</time>
      </trkpt>
      <trkpt lat="43.21536" lon="5.48185">
        <ele>239.7</ele>
        <time>2025-10-18T11:32:01Z</time>
      </trkpt>
      <trkpt lat="43.21537" lon="5.48186">
        <ele>239.6</ele>
        <time>2025-10-18T11:32:02Z</time>
      </trkpt>
      <trkpt lat="43.21537" lon="5.48186">
        <ele>239.6</ele>
        <time>2025-10-18T11:32:03Z</time>
      </trkpt>
      <trkpt lat="43.21537" lon="5.48187">
        <ele>239.5</ele>
        <time>2025-10-18T11:32:04Z</time>
      </trkpt>
      <trkpt lat="43.21538" lon="5.48187">
        <ele>239.4</ele>
        <time>2025-10-18T11:32:05Z</time>
      </trkpt>
      <trkpt lat="43.21538" lon="5.48188">
        <ele>239.3</ele>
        <time>2025-10-18T11:32:06Z</time>
      </trkpt>
      <trkpt lat="43.21539" lon="5.48189">
        <ele>239.2</ele>
        <time>2025-10-18T11:32:07Z</time>
      </trkpt>
      <trkpt lat="43.21539" lon="5.48189">
        <ele>239</ele>
        <time>2025-10-18T11:32:08Z</time>
      </trkpt>
      <trkpt lat="43.2154" lon="5.4819">
        <ele>238.9</ele>
        <time>2025-10-18T11:32:09Z</time>
      </trkpt>
      <trkpt lat="43.2154" lon="5.4819">
        <ele>238.7</ele>
        <time>2025-10-18T11:32:10Z</time>
      </trkpt>
      <trkpt lat="43.2154" lon="5.48191">
        <ele>238.6</ele>
        <time>2025-10-18T11:32:11Z</time>
      </trkpt>
      <trkpt lat="43.21541" lon="5.48191">
        <ele>238.5</ele>
        <time>2025-10-18T11:32:12Z</time>
      </trkpt>
      <trkpt lat="43.21541" lon="5.48192">
        <ele>238.4</ele>
        <time>2025-10-18T11:32:13Z</time>
      </trkpt>
      <trkpt lat="43.21541" lon="5.48192">
        <ele>238.3</ele>
        <time>2025-10-18T11:32:14Z</time>
      </trkpt>
      <trkpt lat="43.21542" lon="5.48193">
        <ele>238.2</ele>
        <time>2025-10-18T11:32:15Z</time>
      </trkpt>
      <trkpt lat="43.21542" lon="5.48193">
        <ele>238</ele>
        <time>2025-10-18T11:32:16Z</time>
      </trkpt>
      <trkpt lat="43.21542" lon="5.48193">
        <ele>237.9</ele>
        <time>2025-10-18T11:32:17Z</time>
      </trkpt>
      <trkpt lat="43.21542" lon="5.48193">
        <ele>237.8</ele>
        <time>2025-10-18T11:32:18Z</time>
      </trkpt>
      <trkpt lat="43.21542" lon="5.48193">
        <ele>237.7</ele>
        <time>2025-10-18T11:32:19Z</time>
      </trkpt>
      <trkpt lat="43.21542" lon="5.48194">
        <ele>237.6</ele>
        <time>2025-10-18T11:32:20Z</time>
      </trkpt>
      <trkpt lat="43.21542" lon="5.48194">
        <ele>237.5</ele>
        <time>2025-10-18T11:32:21Z</time>
      </trkpt>
      <trkpt lat="43.21542" lon="5.48194">
        <ele>237.5</ele>
        <time>2025-10-18T11:32:22Z</time>
      </trkpt>
      <trkpt lat="43.21542" lon="5.48194">
        <ele>237.4</ele>
        <time>2025-10-18T11:32:23Z</time>
      </trkpt>
      <trkpt lat="43.21542" lon="5.48194">
        <ele>237.4</ele>
        <time>2025-10-18T11:32:24Z</time>
      </trkpt>
      <trkpt lat="43.21542" lon="5.48195">
        <ele>237.3</ele>
        <time>2025-10-18T11:32:25Z</time>
      </trkpt>
      <trkpt lat="43.21542" lon="5.48195">
        <ele>237.2</ele>
        <time>2025-10-18T11:32:26Z</time>
      </trkpt>
      <trkpt lat="43.21542" lon="5.48195">
        <ele>237.2</ele>
        <time>2025-10-18T11:32:27Z</time>
      </trkpt>
      <trkpt lat="43.21542" lon="5.48195">
        <ele>237.2</ele>
        <time>2025-10-18T11:32:28Z</time>
      </trkpt>
      <trkpt lat="43.21543" lon="5.48195">
        <ele>237.1</ele>
        <time>2025-10-18T11:32:29Z</time>
      </trkpt>
      <trkpt lat="43.21543" lon="5.48195">
        <ele>237.1</ele>
        <time>2025-10-18T11:32:30Z</time>
      </trkpt>
      <trkpt lat="43.21544" lon="5.48196">
        <ele>237</ele>
        <time>2025-10-18T11:32:31Z</time>
      </trkpt>
      <trkpt lat="43.21544" lon="5.48196">
        <ele>236.9</ele>
        <time>2025-10-18T11:32:32Z</time>
      </trkpt>
      <trkpt lat="43.21544" lon="5.48195">
        <ele>236.8</ele>
        <time>2025-10-18T11:32:33Z</time>
      </trkpt>
      <trkpt lat="43.21544" lon="5.48194">
        <ele>236.7</ele>
        <time>2025-10-18T11:32:34Z</time>
      </trkpt>
      <trkpt lat="43.21544" lon="5.48192">
        <ele>236.6</ele>
        <time>2025-10-18T11:32:35Z</time>
      </trkpt>
      <trkpt lat="43.21544" lon="5.48191">
        <ele>236.4</ele>
        <time>2025-10-18T11:32:36Z</time>
      </trkpt>
      <trkpt lat="43.21544" lon="5.4819">
        <ele>236.2</ele>
        <time>2025-10-18T11:32:37Z</time>
      </trkpt>
      <trkpt lat="43.21544" lon="5.48189">
        <ele>236.1</ele>
        <time>2025-10-18T11:32:38Z</time>
      </trkpt>
      <trkpt lat="43.21544" lon="5.48188">
        <ele>236</ele>
        <time>2025-10-18T11:32:39Z</time>
      </trkpt>
      <trkpt lat="43.21544" lon="5.48188">
        <ele>235.8</ele>
        <time>2025-10-18T11:32:40Z</time>
      </trkpt>
      <trkpt lat="43.21545" lon="5.48186">
        <ele>235.6</ele>
        <time>2025-10-18T11:32:41Z</time>
      </trkpt>
      <trkpt lat="43.21546" lon="5.48185">
        <ele>235.4</ele>
        <time>2025-10-18T11:32:42Z</time>
      </trkpt>
      <trkpt lat="43.21546" lon="5.48185">
        <ele>235.2</ele>
        <time>2025-10-18T11:32:43Z</time>
      </trkpt>
      <trkpt lat="43.21546" lon="5.48186">
        <ele>235.1</ele>
        <time>2025-10-18T11:32:44Z</time>
      </trkpt>
      <trkpt lat="43.21546" lon="5.48187">
        <ele>234.8</ele>
        <time>2025-10-18T11:32:45Z</time>
      </trkpt>
      <trkpt lat="43.21546" lon="5.48188">
        <ele>234.6</ele>
        <time>2025-10-18T11:32:46Z</time>
      </trkpt>
      <trkpt lat="43.21546" lon="5.48188">
        <ele>234.5</ele>
        <time>2025-10-18T11:32:47Z</time>
      </trkpt>
      <trkpt lat="43.21546" lon="5.48189">
        <ele>234.3</ele>
        <time>2025-10-18T11:32:48Z</time>
      </trkpt>
      <trkpt lat="43.21547" lon="5.4819">
        <ele>234.1</ele>
        <time>2025-10-18T11:32:49Z</time>
      </trkpt>
      <trkpt lat="43.21547" lon="5.4819">
        <ele>233.9</ele>
        <time>2025-10-18T11:32:50Z</time>
      </trkpt>
      <trkpt lat="43.21548" lon="5.48191">
        <ele>233.8</ele>
        <time>2025-10-18T11:32:51Z</time>
      </trkpt>
      <trkpt lat="43.21548" lon="5.48192">
        <ele>233.6</ele>
        <time>2025-10-18T11:32:52Z</time>
      </trkpt>
      <trkpt lat="43.21548" lon="5.48192">
        <ele>233.5</ele>
        <time>2025-10-18T11:32:53Z</time>
      </trkpt>
      <trkpt lat="43.21549" lon="5.48192">
        <ele>233.3</ele>
        <time>2025-10-18T11:32:54Z</time>
      </trkpt>
      <trkpt lat="43.21549" lon="5.48193">
        <ele>233.2</ele>
        <time>2025-10-18T11:32:55Z</time>
      </trkpt>
      <trkpt lat="43.21549" lon="5.48194">
        <ele>232.9</ele>
        <time>2025-10-18T11:32:56Z</time>
      </trkpt>
      <trkpt lat="43.2155" lon="5.48195">
        <ele>232.7</ele>
        <time>2025-10-18T11:32:57Z</time>
      </trkpt>
      <trkpt lat="43.2155" lon="5.48195">
        <ele>232.5</ele>
        <time>2025-10-18T11:32:58Z</time>
      </trkpt>
      <trkpt lat="43.21551" lon="5.48195">
        <ele>232.3</ele>
        <time>2025-10-18T11:32:59Z</time>
      </trkpt>
      <trkpt lat="43.21551" lon="5.48194">
        <ele>232</ele>
        <time>2025-10-18T11:33:00Z</time>
      </trkpt>
      <trkpt lat="43.21551" lon="5.48193">
        <ele>231.7</ele>
        <time>2025-10-18T11:33:01Z</time>
      </trkpt>
      <trkpt lat="43.21552" lon="5.48192">
        <ele>231.4</ele>
        <time>2025-10-18T11:33:02Z</time>
      </trkpt>
      <trkpt lat="43.21552" lon="5.48191">
        <ele>231.2</ele>
        <time>2025-10-18T11:33:03Z</time>
      </trkpt>
      <trkpt lat="43.21552" lon="5.48191">
        <ele>231</ele>
        <time>2025-10-18T11:33:04Z</time>
      </trkpt>
      <trkpt lat="43.21552" lon="5.48191">
        <ele>230.7</ele>
        <time>2025-10-18T11:33:05Z</time>
      </trkpt>
      <trkpt lat="43.21552" lon="5.48192">
        <ele>230.6</ele>
        <time>2025-10-18T11:33:06Z</time>
      </trkpt>
      <trkpt lat="43.21552" lon="5.48193">
        <ele>230.2</ele>
        <time>2025-10-18T11:33:07Z</time>
      </trkpt>
      <trkpt lat="43.21553" lon="5.48194">
        <ele>230</ele>
        <time>2025-10-18T11:33:08Z</time>
      </trkpt>
      <trkpt lat="43.21553" lon="5.48195">
        <ele>229.8</ele>
        <time>2025-10-18T11:33:09Z</time>
      </trkpt>
      <trkpt lat="43.21554" lon="5.48195">
        <ele>229.6</ele>
        <time>2025-10-18T11:33:10Z</time>
      </trkpt>
      <trkpt lat="43.21554" lon="5.48196">
        <ele>229.4</ele>
        <time>2025-10-18T11:33:11Z</time>
      </trkpt>
      <trkpt lat="43.21555" lon="5.48197">
        <ele>229.1</ele>
        <time>2025-10-18T11:33:12Z</time>
      </trkpt>
      <trkpt lat="43.21555" lon="5.48198">
        <ele>228.9</ele>
        <time>2025-10-18T11:33:13Z</time>
      </trkpt>
      <trkpt lat="43.21556" lon="5.48199">
        <ele>228.7</ele>
        <time>2025-10-18T11:33:14Z</time>
      </trkpt>
      <trkpt lat="43.21556" lon="5.482">
        <ele>228.5</ele>
        <time>2025-10-18T11:33:15Z</time>
      </trkpt>
      <trkpt lat="43.21557" lon="5.48201">
        <ele>228.2</ele>
        <time>2025-10-18T11:33:16Z</time>
      </trkpt>
      <trkpt lat="43.21557" lon="5.48202">
        <ele>228</ele>
        <time>2025-10-18T11:33:17Z</time>
      </trkpt>
      <trkpt lat="43.21557" lon="5.48203">
        <ele>227.7</ele>
        <time>2025-10-18T11:33:18Z</time>
      </trkpt>
      <trkpt lat="43.21557" lon="5.48205">
        <ele>227.5</ele>
        <time>2025-10-18T11:33:19Z</time>
      </trkpt>
      <trkpt lat="43.21558" lon="5.48206">
        <ele>227.3</ele>
        <time>2025-10-18T11:33:20Z</time>
      </trkpt>
      <trkpt lat="43.21558" lon="5.48207">
        <ele>227.2</ele>
        <time>2025-10-18T11:33:21Z</time>
      </trkpt>
      <trkpt lat="43.21558" lon="5.48208">
        <ele>227.1</ele>
        <time>2025-10-18T11:33:22Z</time>
      </trkpt>
      <trkpt lat="43.21559" lon="5.48209">
        <ele>226.9</ele>
        <time>2025-10-18T11:33:23Z</time>
      </trkpt>
      <trkpt lat="43.2156" lon="5.48209">
        <ele>226.7</ele>
        <time>2025-10-18T11:33:24Z</time>
      </trkpt>
      <trkpt lat="43.2156" lon="5.48209">
        <ele>226.5</ele>
        <time>2025-10-18T11:33:25Z</time>
      </trkpt>
      <trkpt lat="43.21561" lon="5.48208">
        <ele>226.1</ele>
        <time>2025-10-18T11:33:26Z</time>
      </trkpt>
      <trkpt lat="43.21561" lon="5.48207">
        <ele>225.9</ele>
        <time>2025-10-18T11:33:27Z</time>
      </trkpt>
      <trkpt lat="43.21562" lon="5.48206">
        <ele>225.7</ele>
        <time>2025-10-18T11:33:28Z</time>
      </trkpt>
      <trkpt lat="43.21562" lon="5.48205">
        <ele>225.5</ele>
        <time>2025-10-18T11:33:29Z</time>
      </trkpt>
      <trkpt lat="43.21563" lon="5.48204">
        <ele>225.3</ele>
        <time>2025-10-18T11:33:30Z</time>
      </trkpt>
      <trkpt lat="43.21563" lon="5.48203">
        <ele>225.1</ele>
        <time>2025-10-18T11:33:31Z</time>
      </trkpt>
      <trkpt lat="43.21564" lon="5.48202">
        <ele>224.9</ele>
        <time>2025-10-18T11:33:32Z</time>
      </trkpt>
      <trkpt lat="43.21564" lon="5.48201">
        <ele>224.8</ele>
        <time>2025-10-18T11:33:33Z</time>
      </trkpt>
      <trkpt lat="43.21565" lon="5.48201">
        <ele>224.5</ele>
        <time>2025-10-18T11:33:34Z</time>
      </trkpt>
      <trkpt lat="43.21564" lon="5.482">
        <ele>224.2</ele>
        <time>2025-10-18T11:33:35Z</time>
      </trkpt>
      <trkpt lat="43.21565" lon="5.48199">
        <ele>224</ele>
        <time>2025-10-18T11:33:36Z</time>
      </trkpt>
      <trkpt lat="43.21565" lon="5.48198">
        <ele>223.8</ele>
        <time>2025-10-18T11:33:37Z</time>
      </trkpt>
      <trkpt lat="43.21565" lon="5.48198">
        <ele>223.6</ele>
        <time>2025-10-18T11:33:38Z</time>
      </trkpt>
      <trkpt lat="43.21565" lon="5.48198">
        <ele>223.4</ele>
        <time>2025-10-18T11:33:39Z</time>
      </trkpt>
      <trkpt lat="43.21566" lon="5.48197">
        <ele>223.2</ele>
        <time>2025-10-18T11:33:40Z</time>
      </trkpt>
      <trkpt lat="43.21566" lon="5.48196">
        <ele>223</ele>
        <time>2025-10-18T11:33:41Z</time>
      </trkpt>
      <trkpt lat="43.21567" lon="5.48196">
        <ele>222.9</ele>
        <time>2025-10-18T11:33:42Z</time>
      </trkpt>
      <trkpt lat="43.21567" lon="5.48195">
        <ele>222.8</ele>
        <time>2025-10-18T11:33:43Z</time>
      </trkpt>
      <trkpt lat="43.21567" lon="5.48195">
        <ele>222.7</ele>
        <time>2025-10-18T11:33:44Z</time>
      </trkpt>
      <trkpt lat="43.21568" lon="5.48195">
        <ele>222.6</ele>
        <time>2025-10-18T11:33:45Z</time>
      </trkpt>
      <trkpt lat="43.21568" lon="5.48194">
        <ele>222.5</ele>
        <time>2025-10-18T11:33:46Z</time>
      </trkpt>
      <trkpt lat="43.21569" lon="5.48194">
        <ele>222.4</ele>
        <time>2025-10-18T11:33:47Z</time>
      </trkpt>
      <trkpt lat="43.21569" lon="5.48194">
        <ele>222.3</ele>
        <time>2025-10-18T11:33:48Z</time>
      </trkpt>
      <trkpt lat="43.21569" lon="5.48193">
        <ele>222.2</ele>
        <time>2025-10-18T11:33:49Z</time>
      </trkpt>
      <trkpt lat="43.21569" lon="5.48193">
        <ele>222.2</ele>
        <time>2025-10-18T11:33:50Z</time>
      </trkpt>
      <trkpt lat="43.21569" lon="5.48194">
        <ele>222.1</ele>
        <time>2025-10-18T11:33:51Z</time>
      </trkpt>
      <trkpt lat="43.21569" lon="5.48194">
        <ele>221.9</ele>
        <time>2025-10-18T11:33:52Z</time>
      </trkpt>
      <trkpt lat="43.21569" lon="5.48195">
        <ele>221.8</ele>
        <time>2025-10-18T11:33:53Z</time>
      </trkpt>
      <trkpt lat="43.21569" lon="5.48195">
        <ele>221.6</ele>
        <time>2025-10-18T11:33:54Z</time>
      </trkpt>
      <trkpt lat="43.21569" lon="5.48196">
        <ele>221.5</ele>
        <time>2025-10-18T11:33:55Z</time>
      </trkpt>
      <trkpt lat="43.21569" lon="5.48196">
        <ele>221.4</ele>
        <time>2025-10-18T11:33:56Z</time>
      </trkpt>
      <trkpt lat="43.21569" lon="5.48197">
        <ele>221.3</ele>
        <time>2025-10-18T11:33:57Z</time>
      </trkpt>
      <trkpt lat="43.21569" lon="5.48197">
        <ele>221.2</ele>
        <time>2025-10-18T11:33:58Z</time>
      </trkpt>
      <trkpt lat="43.2157" lon="5.48198">
        <ele>221.1</ele>
        <time>2025-10-18T11:33:59Z</time>
      </trkpt>
      <trkpt lat="43.2157" lon="5.48199">
        <ele>220.9</ele>
        <time>2025-10-18T11:34:00Z</time>
      </trkpt>
      <trkpt lat="43.2157" lon="5.482">
        <ele>220.7</ele>
        <time>2025-10-18T11:34:01Z</time>
      </trkpt>
      <trkpt lat="43.2157" lon="5.482">
        <ele>220.6</ele>
        <time>2025-10-18T11:34:02Z</time>
      </trkpt>
      <trkpt lat="43.2157" lon="5.48201">
        <ele>220.5</ele>
        <time>2025-10-18T11:34:03Z</time>
      </trkpt>
      <trkpt lat="43.21571" lon="5.48202">
        <ele>220.2</ele>
        <time>2025-10-18T11:34:04Z</time>
      </trkpt>
      <trkpt lat="43.21571" lon="5.48202">
        <ele>220.1</ele>
        <time>2025-10-18T11:34:05Z</time>
      </trkpt>
      <trkpt lat="43.21572" lon="5.48203">
        <ele>219.9</ele>
        <time>2025-10-18T11:34:06Z</time>
      </trkpt>
      <trkpt lat="43.21572" lon="5.48204">
        <ele>219.8</ele>
        <time>2025-10-18T11:34:07Z</time>
      </trkpt>
      <trkpt lat="43.21572" lon="5.48204">
        <ele>219.7</ele>
        <time>2025-10-18T11:34:08Z</time>
      </trkpt>
      <trkpt lat="43.21573" lon="5.48205">
        <ele>219.6</ele>
        <time>2025-10-18T11:34:09Z</time>
      </trkpt>
      <trkpt lat="43.21573" lon="5.48206">
        <ele>219.4</ele>
        <time>2025-10-18T11:34:10Z</time>
      </trkpt>
      <trkpt lat="43.21573" lon="5.48206">
        <ele>219.2</ele>
        <time>2025-10-18T11:34:11Z</time>
      </trkpt>
      <trkpt lat="43.21573" lon="5.48206">
        <ele>219.1</ele>
        <time>2025-10-18T11:34:12Z</time>
      </trkpt>
      <trkpt lat="43.21574" lon="5.48207">
        <ele>219</ele>
        <time>2025-10-18T11:34:13Z</time>
      </trkpt>
      <trkpt lat="43.21574" lon="5.48207">
        <ele>218.9</ele>
        <time>2025-10-18T11:34:14Z</time>
      </trkpt>
      <trkpt lat="43.21575" lon="5.48207">
        <ele>218.7</ele>
        <time>2025-10-18T11:34:15Z</time>
      </trkpt>
      <trkpt lat="43.21575" lon="5.48208">
        <ele>218.5</ele>
        <time>2025-10-18T11:34:16Z</time>
      </trkpt>
      <trkpt lat="43.21575" lon="5.48208">
        <ele>218.4</ele>
        <time>2025-10-18T11:34:17Z</time>
      </trkpt>
      <trkpt lat="43.21575" lon="5.48208">
        <ele>218.2</ele>
        <time>2025-10-18T11:34:18Z</time>
      </trkpt>
      <trkpt lat="43.21576" lon="5.48209">
        <ele>218.1</ele>
        <time>2025-10-18T11:34:19Z</time>
      </trkpt>
      <trkpt lat="43.21576" lon="5.48209">
        <ele>218</ele>
        <time>2025-10-18T11:34:20Z</time>
      </trkpt>
      <trkpt lat="43.21577" lon="5.48209">
        <ele>217.9</ele>
        <time>2025-10-18T11:34:21Z</time>
      </trkpt>
      <trkpt lat="43.21577" lon="5.48209">
        <ele>217.7</ele>
        <time>2025-10-18T11:34:22Z</time>
      </trkpt>
      <trkpt lat="43.21577" lon="5.4821">
        <ele>217.5</ele>
        <time>2025-10-18T11:34:23Z</time>
      </trkpt>
      <trkpt lat="43.21578" lon="5.4821">
        <ele>217.4</ele>
        <time>2025-10-18T11:34:24Z</time>
      </trkpt>
      <trkpt lat="43.21579" lon="5.48211">
        <ele>217.2</ele>
        <time>2025-10-18T11:34:25Z</time>
      </trkpt>
      <trkpt lat="43.21579" lon="5.48211">
        <ele>217</ele>
        <time>2025-10-18T11:34:26Z</time>
      </trkpt>
      <trkpt lat="43.2158" lon="5.48212">
        <ele>216.9</ele>
        <time>2025-10-18T11:34:27Z</time>
      </trkpt>
      <trkpt lat="43.2158" lon="5.48212">
        <ele>216.8</ele>
        <time>2025-10-18T11:34:28Z</time>
      </trkpt>
      <trkpt lat="43.2158" lon="5.48212">
        <ele>216.7</ele>
        <time>2025-10-18T11:34:29Z</time>
      </trkpt>
      <trkpt lat="43.21581" lon="5.48212">
        <ele>216.6</ele>
        <time>2025-10-18T11:34:30Z</time>
      </trkpt>
      <trkpt lat="43.21581" lon="5.48212">
        <ele>216.4</ele>
        <time>2025-10-18T11:34:31Z</time>
      </trkpt>
      <trkpt lat="43.21581" lon="5.48212">
        <ele>216.2</ele>
        <time>2025-10-18T11:34:32Z</time>
      </trkpt>
      <trkpt lat="43.21582" lon="5.48213">
        <ele>216</ele>
        <time>2025-10-18T11:34:33Z</time>
      </trkpt>
      <trkpt lat="43.21582" lon="5.48213">
        <ele>215.9</ele>
        <time>2025-10-18T11:34:34Z</time>
      </trkpt>
      <trkpt lat="43.21582" lon="5.48212">
        <ele>215.8</ele>
        <time>2025-10-18T11:34:35Z</time>
      </trkpt>
      <trkpt lat="43.21582" lon="5.48211">
        <ele>215.8</ele>
        <time>2025-10-18T11:34:36Z</time>
      </trkpt>
      <trkpt lat="43.21582" lon="5.48211">
        <ele>215.6</ele>
        <time>2025-10-18T11:34:37Z</time>
      </trkpt>
      <trkpt lat="43.21582" lon="5.4821">
        <ele>215.3</ele>
        <time>2025-10-18T11:34:38Z</time>
      </trkpt>
      <trkpt lat="43.21582" lon="5.48209">
        <ele>215.2</ele>
        <time>2025-10-18T11:34:39Z</time>
      </trkpt>
      <trkpt lat="43.21582" lon="5.48208">
        <ele>214.9</ele>
        <time>2025-10-18T11:34:40Z</time>
      </trkpt>
      <trkpt lat="43.21582" lon="5.48208">
        <ele>214.7</ele>
        <time>2025-10-18T11:34:41Z</time>
      </trkpt>
      <trkpt lat="43.21582" lon="5.48207">
        <ele>214.6</ele>
        <time>2025-10-18T11:34:42Z</time>
      </trkpt>
      <trkpt lat="43.21582" lon="5.48206">
        <ele>214.4</ele>
        <time>2025-10-18T11:34:43Z</time>
      </trkpt>
      <trkpt lat="43.21582" lon="5.48206">
        <ele>214.2</ele>
        <time>2025-10-18T11:34:44Z</time>
      </trkpt>
      <trkpt lat="43.21583" lon="5.48205">
        <ele>214.1</ele>
        <time>2025-10-18T11:34:45Z</time>
      </trkpt>
      <trkpt lat="43.21583" lon="5.48205">
        <ele>214.1</ele>
        <time>2025-10-18T11:34:46Z</time>
      </trkpt>
      <trkpt lat="43.21584" lon="5.48204">
        <ele>214</ele>
        <time>2025-10-18T11:34:47Z</time>
      </trkpt>
      <trkpt lat="43.21584" lon="5.48204">
        <ele>213.9</ele>
        <time>2025-10-18T11:34:48Z</time>
      </trkpt>
      <trkpt lat="43.21584" lon="5.48204">
        <ele>213.8</ele>
        <time>2025-10-18T11:34:49Z</time>
      </trkpt>
      <trkpt lat="43.21585" lon="5.48203">
        <ele>213.7</ele>
        <time>2025-10-18T11:34:50Z</time>
      </trkpt>
      <trkpt lat="43.21585" lon="5.48203">
        <ele>213.7</ele>
        <time>2025-10-18T11:34:51Z</time>
      </trkpt>
      <trkpt lat="43.21585" lon="5.48203">
        <ele>213.6</ele>
        <time>2025-10-18T11:34:52Z</time>
      </trkpt>
      <trkpt lat="43.21586" lon="5.48203">
        <ele>213.4</ele>
        <time>2025-10-18T11:34:53Z</time>
      </trkpt>
      <trkpt lat="43.21586" lon="5.48203">
        <ele>213.3</ele>
        <time>2025-10-18T11:34:54Z</time>
      </trkpt>
      <trkpt lat="43.21586" lon="5.48203">
        <ele>213.2</ele>
        <time>2025-10-18T11:34:55Z</time>
      </trkpt>
      <trkpt lat="43.21586" lon="5.48203">
        <ele>213</ele>
        <time>2025-10-18T11:34:56Z</time>
      </trkpt>
      <trkpt lat="43.21587" lon="5.48203">
        <ele>212.8</ele>
        <time>2025-10-18T11:34:57Z</time>
      </trkpt>
      <trkpt lat="43.21587" lon="5.48204">
        <ele>212.7</ele>
        <time>2025-10-18T11:34:58Z</time>
      </trkpt>
      <trkpt lat="43.21588" lon="5.48204">
        <ele>212.4</ele>
        <time>2025-10-18T11:34:59Z</time>
      </trkpt>
      <trkpt lat="43.21588" lon="5.48205">
        <ele>212.2</ele>
        <time>2025-10-18T11:35:00Z</time>
      </trkpt>
      <trkpt lat="43.21588" lon="5.48206">
        <ele>212.1</ele>
        <time>2025-10-18T11:35:01Z</time>
      </trkpt>
      <trkpt lat="43.21588" lon="5.48206">
        <ele>211.8</ele>
        <time>2025-10-18T11:35:02Z</time>
      </trkpt>
      <trkpt lat="43.21588" lon="5.48207">
        <ele>211.7</ele>
        <time>2025-10-18T11:35:03Z</time>
      </trkpt>
      <trkpt lat="43.21589" lon="5.48207">
        <ele>211.5</ele>
        <time>2025-10-18T11:35:04Z</time>
      </trkpt>
      <trkpt lat="43.21589" lon="5.48208">
        <ele>211.4</ele>
        <time>2025-10-18T11:35:05Z</time>
      </trkpt>
      <trkpt lat="43.21589" lon="5.48208">
        <ele>211.3</ele>
        <time>2025-10-18T11:35:06Z</time>
      </trkpt>
      <trkpt lat="43.2159" lon="5.48209">
        <ele>211.2</ele>
        <time>2025-10-18T11:35:07Z</time>
      </trkpt>
      <trkpt lat="43.2159" lon="5.48209">
        <ele>211.2</ele>
        <time>2025-10-18T11:35:08Z</time>
      </trkpt>
      <trkpt lat="43.2159" lon="5.48209">
        <ele>211.1</ele>
        <time>2025-10-18T11:35:09Z</time>
      </trkpt>
      <trkpt lat="43.2159" lon="5.48209">
        <ele>211</ele>
        <time>2025-10-18T11:35:10Z</time>
      </trkpt>
      <trkpt lat="43.21591" lon="5.48209">
        <ele>210.8</ele>
        <time>2025-10-18T11:35:11Z</time>
      </trkpt>
      <trkpt lat="43.21592" lon="5.4821">
        <ele>210.6</ele>
        <time>2025-10-18T11:35:12Z</time>
      </trkpt>
      <trkpt lat="43.21593" lon="5.48211">
        <ele>210.4</ele>
        <time>2025-10-18T11:35:13Z</time>
      </trkpt>
      <trkpt lat="43.21593" lon="5.48211">
        <ele>210.3</ele>
        <time>2025-10-18T11:35:14Z</time>
      </trkpt>
      <trkpt lat="43.21594" lon="5.48212">
        <ele>210.1</ele>
        <time>2025-10-18T11:35:15Z</time>
      </trkpt>
      <trkpt lat="43.21594" lon="5.48211">
        <ele>210</ele>
        <time>2025-10-18T11:35:16Z</time>
      </trkpt>
      <trkpt lat="43.21595" lon="5.48212">
        <ele>209.9</ele>
        <time>2025-10-18T11:35:17Z</time>
      </trkpt>
      <trkpt lat="43.21596" lon="5.48212">
        <ele>209.6</ele>
        <time>2025-10-18T11:35:18Z</time>
      </trkpt>
      <trkpt lat="43.21597" lon="5.48212">
        <ele>209.4</ele>
        <time>2025-10-18T11:35:19Z</time>
      </trkpt>
      <trkpt lat="43.21598" lon="5.48212">
        <ele>209.2</ele>
        <time>2025-10-18T11:35:20Z</time>
      </trkpt>
      <trkpt lat="43.21598" lon="5.48212">
        <ele>209.1</ele>
        <time>2025-10-18T11:35:21Z</time>
      </trkpt>
      <trkpt lat="43.21598" lon="5.48212">
        <ele>208.9</ele>
        <time>2025-10-18T11:35:22Z</time>
      </trkpt>
      <trkpt lat="43.21598" lon="5.48211">
        <ele>208.6</ele>
        <time>2025-10-18T11:35:23Z</time>
      </trkpt>
      <trkpt lat="43.21598" lon="5.48211">
        <ele>208.4</ele>
        <time>2025-10-18T11:35:24Z</time>
      </trkpt>
      <trkpt lat="43.21599" lon="5.4821">
        <ele>208.1</ele>
        <time>2025-10-18T11:35:25Z</time>
      </trkpt>
      <trkpt lat="43.21599" lon="5.48209">
        <ele>207.9</ele>
        <time>2025-10-18T11:35:26Z</time>
      </trkpt>
      <trkpt lat="43.21599" lon="5.48208">
        <ele>207.7</ele>
        <time>2025-10-18T11:35:27Z</time>
      </trkpt>
      <trkpt lat="43.21599" lon="5.48208">
        <ele>207.6</ele>
        <time>2025-10-18T11:35:28Z</time>
      </trkpt>
      <trkpt lat="43.216" lon="5.48208">
        <ele>207.5</ele>
        <time>2025-10-18T11:35:29Z</time>
      </trkpt>
      <trkpt lat="43.216" lon="5.48208">
        <ele>207.3</ele>
        <time>2025-10-18T11:35:30Z</time>
      </trkpt>
      <trkpt lat="43.21601" lon="5.48208">
        <ele>207.2</ele>
        <time>2025-10-18T11:35:31Z</time>
      </trkpt>
      <trkpt lat="43.21601" lon="5.48208">
        <ele>207</ele>
        <time>2025-10-18T11:35:32Z</time>
      </trkpt>
      <trkpt lat="43.21602" lon="5.48207">
        <ele>206.9</ele>
        <time>2025-10-18T11:35:33Z</time>
      </trkpt>
      <trkpt lat="43.21602" lon="5.48207">
        <ele>206.8</ele>
        <time>2025-10-18T11:35:34Z</time>
      </trkpt>
      <trkpt lat="43.21602" lon="5.48208">
        <ele>206.6</ele>
        <time>2025-10-18T11:35:35Z</time>
      </trkpt>
      <trkpt lat="43.21602" lon="5.48207">
        <ele>206.5</ele>
        <time>2025-10-18T11:35:36Z</time>
      </trkpt>
      <trkpt lat="43.21602" lon="5.48206">
        <ele>206.5</ele>
        <time>2025-10-18T11:35:37Z</time>
      </trkpt>
      <trkpt lat="43.21603" lon="5.48206">
        <ele>206.4</ele>
        <time>2025-10-18T11:35:38Z</time>
      </trkpt>
      <trkpt lat="43.21604" lon="5.48206">
        <ele>206.2</ele>
        <time>2025-10-18T11:35:39Z</time>
      </trkpt>
      <trkpt lat="43.21604" lon="5.48207">
        <ele>206.1</ele>
        <time>2025-10-18T11:35:40Z</time>
      </trkpt>
      <trkpt lat="43.21605" lon="5.48207">
        <ele>206</ele>
        <time>2025-10-18T11:35:41Z</time>
      </trkpt>
      <trkpt lat="43.21605" lon="5.48207">
        <ele>205.8</ele>
        <time>2025-10-18T11:35:42Z</time>
      </trkpt>
      <trkpt lat="43.21606" lon="5.48208">
        <ele>205.6</ele>
        <time>2025-10-18T11:35:43Z</time>
      </trkpt>
      <trkpt lat="43.21607" lon="5.48208">
        <ele>205.4</ele>
        <time>2025-10-18T11:35:44Z</time>
      </trkpt>
      <trkpt lat="43.21607" lon="5.48207">
        <ele>205.2</ele>
        <time>2025-10-18T11:35:45Z</time>
      </trkpt>
      <trkpt lat="43.21608" lon="5.48208">
        <ele>204.9</ele>
        <time>2025-10-18T11:35:46Z</time>
      </trkpt>
      <trkpt lat="43.21608" lon="5.48208">
        <ele>204.7</ele>
        <time>2025-10-18T11:35:47Z</time>
      </trkpt>
      <trkpt lat="43.21609" lon="5.48208">
        <ele>204.5</ele>
        <time>2025-10-18T11:35:48Z</time>
      </trkpt>
      <trkpt lat="43.21609" lon="5.48208">
        <ele>204.3</ele>
        <time>2025-10-18T11:35:49Z</time>
      </trkpt>
      <trkpt lat="43.21609" lon="5.48208">
        <ele>204.2</ele>
        <time>2025-10-18T11:35:50Z</time>
      </trkpt>
      <trkpt lat="43.2161" lon="5.48209">
        <ele>204.1</ele>
        <time>2025-10-18T11:35:51Z</time>
      </trkpt>
      <trkpt lat="43.2161" lon="5.4821">
        <ele>203.9</ele>
        <time>2025-10-18T11:35:52Z</time>
      </trkpt>
      <trkpt lat="43.2161" lon="5.4821">
        <ele>203.8</ele>
        <time>2025-10-18T11:35:53Z</time>
      </trkpt>
      <trkpt lat="43.21611" lon="5.48211">
        <ele>203.7</ele>
        <time>2025-10-18T11:35:54Z</time>
      </trkpt>
      <trkpt lat="43.21612" lon="5.48212">
        <ele>203.6</ele>
        <time>2025-10-18T11:35:55Z</time>
      </trkpt>
      <trkpt lat="43.21612" lon="5.48212">
        <ele>203.4</ele>
        <time>2025-10-18T11:35:56Z</time>
      </trkpt>
      <trkpt lat="43.21613" lon="5.48213">
        <ele>203.3</ele>
        <time>2025-10-18T11:35:57Z</time>
      </trkpt>
      <trkpt lat="43.21614" lon="5.48213">
        <ele>203.3</ele>
        <time>2025-10-18T11:35:58Z</time>
      </trkpt>
      <trkpt lat="43.21615" lon="5.48213">
        <ele>203.2</ele>
        <time>2025-10-18T11:35:59Z</time>
      </trkpt>
      <trkpt lat="43.21615" lon="5.48214">
        <ele>203.2</ele>
        <time>2025-10-18T11:36:00Z</time>
      </trkpt>
      <trkpt lat="43.21616" lon="5.48214">
        <ele>203.1</ele>
        <time>2025-10-18T11:36:01Z</time>
      </trkpt>
      <trkpt lat="43.21617" lon="5.48214">
        <ele>203</ele>
        <time>2025-10-18T11:36:02Z</time>
      </trkpt>
      <trkpt lat="43.21617" lon="5.48215">
        <ele>202.9</ele>
        <time>2025-10-18T11:36:03Z</time>
      </trkpt>
      <trkpt lat="43.21618" lon="5.48215">
        <ele>202.7</ele>
        <time>2025-10-18T11:36:04Z</time>
      </trkpt>
      <trkpt lat="43.21618" lon="5.48216">
        <ele>202.6</ele>
        <time>2025-10-18T11:36:05Z</time>
      </trkpt>
      <trkpt lat="43.21619" lon="5.48216">
        <ele>202.4</ele>
        <time>2025-10-18T11:36:06Z</time>
      </trkpt>
      <trkpt lat="43.21619" lon="5.48216">
        <ele>202.3</ele>
        <time>2025-10-18T11:36:07Z</time>
      </trkpt>
      <trkpt lat="43.2162" lon="5.48217">
        <ele>202.3</ele>
        <time>2025-10-18T11:36:08Z</time>
      </trkpt>
      <trkpt lat="43.21621" lon="5.48218">
        <ele>202.2</ele>
        <time>2025-10-18T11:36:09Z</time>
      </trkpt>
      <trkpt lat="43.21621" lon="5.48218">
        <ele>202</ele>
        <time>2025-10-18T11:36:10Z</time>
      </trkpt>
      <trkpt lat="43.21622" lon="5.48219">
        <ele>201.8</ele>
        <time>2025-10-18T11:36:11Z</time>
      </trkpt>
      <trkpt lat="43.21622" lon="5.48219">
        <ele>201.6</ele>
        <time>2025-10-18T11:36:12Z</time>
      </trkpt>
      <trkpt lat="43.21623" lon="5.4822">
        <ele>201.4</ele>
        <time>2025-10-18T11:36:13Z</time>
      </trkpt>
      <trkpt lat="43.21623" lon="5.4822">
        <ele>201.3</ele>
        <time>2025-10-18T11:36:14Z</time>
      </trkpt>
      <trkpt lat="43.21624" lon="5.4822">
        <ele>201</ele>
        <time>2025-10-18T11:36:15Z</time>
      </trkpt>
      <trkpt lat="43.21624" lon="5.48221">
        <ele>200.7</ele>
        <time>2025-10-18T11:36:16Z</time>
      </trkpt>
      <trkpt lat="43.21625" lon="5.48221">
        <ele>200.4</ele>
        <time>2025-10-18T11:36:17Z</time>
      </trkpt>
      <trkpt lat="43.21626" lon="5.48222">
        <ele>200.1</ele>
        <time>2025-10-18T11:36:18Z</time>
      </trkpt>
      <trkpt lat="43.21627" lon="5.48222">
        <ele>199.9</ele>
        <time>2025-10-18T11:36:19Z</time>
      </trkpt>
      <trkpt lat="43.21628" lon="5.48223">
        <ele>199.6</ele>
        <time>2025-10-18T11:36:20Z</time>
      </trkpt>
      <trkpt lat="43.21628" lon="5.48224">
        <ele>199.4</ele>
        <time>2025-10-18T11:36:21Z</time>
      </trkpt>
      <trkpt lat="43.21628" lon="5.48224">
        <ele>199.2</ele>
        <time>2025-10-18T11:36:22Z</time>
      </trkpt>
      <trkpt lat="43.21629" lon="5.48225">
        <ele>199</ele>
        <time>2025-10-18T11:36:23Z</time>
      </trkpt>
      <trkpt lat="43.21629" lon="5.48225">
        <ele>198.9</ele>
        <time>2025-10-18T11:36:24Z</time>
      </trkpt>
      <trkpt lat="43.2163" lon="5.48226">
        <ele>198.6</ele>
        <time>2025-10-18T11:36:25Z</time>
      </trkpt>
      <trkpt lat="43.2163" lon="5.48227">
        <ele>198.3</ele>
        <time>2025-10-18T11:36:26Z</time>
      </trkpt>
      <trkpt lat="43.21631" lon="5.48227">
        <ele>198.1</ele>
        <time>2025-10-18T11:36:27Z</time>
      </trkpt>
      <trkpt lat="43.21632" lon="5.48228">
        <ele>197.9</ele>
        <time>2025-10-18T11:36:28Z</time>
      </trkpt>
      <trkpt lat="43.21632" lon="5.48228">
        <ele>197.7</ele>
        <time>2025-10-18T11:36:29Z</time>
      </trkpt>
      <trkpt lat="43.21632" lon="5.48228">
        <ele>197.6</ele>
        <time>2025-10-18T11:36:30Z</time>
      </trkpt>
      <trkpt lat="43.21632" lon="5.48228">
        <ele>197.5</ele>
        <time>2025-10-18T11:36:31Z</time>
      </trkpt>
      <trkpt lat="43.21633" lon="5.48228">
        <ele>197.4</ele>
        <time>2025-10-18T11:36:32Z</time>
      </trkpt>
      <trkpt lat="43.21633" lon="5.48228">
        <ele>197.3</ele>
        <time>2025-10-18T11:36:33Z</time>
      </trkpt>
      <trkpt lat="43.21633" lon="5.48228">
        <ele>197.2</ele>
        <time>2025-10-18T11:36:34Z</time>
      </trkpt>
      <trkpt lat="43.21634" lon="5.48228">
        <ele>197.1</ele>
        <time>2025-10-18T11:36:35Z</time>
      </trkpt>
      <trkpt lat="43.21634" lon="5.48228">
        <ele>197</ele>
        <time>2025-10-18T11:36:36Z</time>
      </trkpt>
      <trkpt lat="43.21635" lon="5.48228">
        <ele>196.8</ele>
        <time>2025-10-18T11:36:37Z</time>
      </trkpt>
      <trkpt lat="43.21636" lon="5.48228">
        <ele>196.7</ele>
        <time>2025-10-18T11:36:38Z</time>
      </trkpt>
      <trkpt lat="43.21636" lon="5.48228">
        <ele>196.6</ele>
        <time>2025-10-18T11:36:39Z</time>
      </trkpt>
      <trkpt lat="43.21636" lon="5.48228">
        <ele>196.6</ele>
        <time>2025-10-18T11:36:40Z</time>
      </trkpt>
      <trkpt lat="43.21636" lon="5.48229">
        <ele>196.5</ele>
        <time>2025-10-18T11:36:41Z</time>
      </trkpt>
      <trkpt lat="43.21636" lon="5.48229">
        <ele>196.3</ele>
        <time>2025-10-18T11:36:42Z</time>
      </trkpt>
      <trkpt lat="43.21637" lon="5.48229">
        <ele>196.2</ele>
        <time>2025-10-18T11:36:43Z</time>
      </trkpt>
      <trkpt lat="43.21637" lon="5.48229">
        <ele>196.1</ele>
        <time>2025-10-18T11:36:44Z</time>
      </trkpt>
      <trkpt lat="43.21637" lon="5.48229">
        <ele>196</ele>
        <time>2025-10-18T11:36:45Z</time>
      </trkpt>
      <trkpt lat="43.21638" lon="5.48229">
        <ele>195.8</ele>
        <time>2025-10-18T11:36:46Z</time>
      </trkpt>
      <trkpt lat="43.21638" lon="5.48229">
        <ele>195.5</ele>
        <time>2025-10-18T11:36:47Z</time>
      </trkpt>
      <trkpt lat="43.21638" lon="5.4823">
        <ele>195.3</ele>
        <time>2025-10-18T11:36:48Z</time>
      </trkpt>
      <trkpt lat="43.21638" lon="5.48232">
        <ele>195.1</ele>
        <time>2025-10-18T11:36:49Z</time>
      </trkpt>
      <trkpt lat="43.21638" lon="5.48233">
        <ele>195</ele>
        <time>2025-10-18T11:36:50Z</time>
      </trkpt>
      <trkpt lat="43.21638" lon="5.48234">
        <ele>194.9</ele>
        <time>2025-10-18T11:36:51Z</time>
      </trkpt>
      <trkpt lat="43.21638" lon="5.48235">
        <ele>194.8</ele>
        <time>2025-10-18T11:36:52Z</time>
      </trkpt>
      <trkpt lat="43.21638" lon="5.48236">
        <ele>194.8</ele>
        <time>2025-10-18T11:36:53Z</time>
      </trkpt>
      <trkpt lat="43.21638" lon="5.48236">
        <ele>194.7</ele>
        <time>2025-10-18T11:36:54Z</time>
      </trkpt>
      <trkpt lat="43.21638" lon="5.48236">
        <ele>194.7</ele>
        <time>2025-10-18T11:36:55Z</time>
      </trkpt>
      <trkpt lat="43.21638" lon="5.48236">
        <ele>194.6</ele>
        <time>2025-10-18T11:36:56Z</time>
      </trkpt>
      <trkpt lat="43.21638" lon="5.48237">
        <ele>194.6</ele>
        <time>2025-10-18T11:36:57Z</time>
      </trkpt>
      <trkpt lat="43.21638" lon="5.48237">
        <ele>194.5</ele>
        <time>2025-10-18T11:36:58Z</time>
      </trkpt>
      <trkpt lat="43.21638" lon="5.48236">
        <ele>194.5</ele>
        <time>2025-10-18T11:36:59Z</time>
      </trkpt>
      <trkpt lat="43.21638" lon="5.48236">
        <ele>194.5</ele>
        <time>2025-10-18T11:37:00Z</time>
      </trkpt>
      <trkpt lat="43.21639" lon="5.48235">
        <ele>194.5</ele>
        <time>2025-10-18T11:37:01Z</time>
      </trkpt>
      <trkpt lat="43.2164" lon="5.48234">
        <ele>194.5</ele>
        <time>2025-10-18T11:37:02Z</time>
      </trkpt>
      <trkpt lat="43.2164" lon="5.48233">
        <ele>194.4</ele>
        <time>2025-10-18T11:37:03Z</time>
      </trkpt>
      <trkpt lat="43.21641" lon="5.48233">
        <ele>194.4</ele>
        <time>2025-10-18T11:37:04Z</time>
      </trkpt>
      <trkpt lat="43.21641" lon="5.48233">
        <ele>194.4</ele>
        <time>2025-10-18T11:37:05Z</time>
      </trkpt>
      <trkpt lat="43.21642" lon="5.48232">
        <ele>194.4</ele>
        <time>2025-10-18T11:37:06Z</time>
      </trkpt>
      <trkpt lat="43.21642" lon="5.48231">
        <ele>194.4</ele>
        <time>2025-10-18T11:37:07Z</time>
      </trkpt>
      <trkpt lat="43.21643" lon="5.4823">
        <ele>194.4</ele>
        <time>2025-10-18T11:37:08Z</time>
      </trkpt>
      <trkpt lat="43.21643" lon="5.4823">
        <ele>194.3</ele>
        <time>2025-10-18T11:37:09Z</time>
      </trkpt>
      <trkpt lat="43.21643" lon="5.48229">
        <ele>194.3</ele>
        <time>2025-10-18T11:37:10Z</time>
      </trkpt>
      <trkpt lat="43.21643" lon="5.48229">
        <ele>194.3</ele>
        <time>2025-10-18T11:37:11Z</time>
      </trkpt>
      <trkpt lat="43.21643" lon="5.48228">
        <ele>194.4</ele>
        <time>2025-10-18T11:37:12Z</time>
      </trkpt>
      <trkpt lat="43.21644" lon="5.48227">
        <ele>194.4</ele>
        <time>2025-10-18T11:37:13Z</time>
      </trkpt>
      <trkpt lat="43.21644" lon="5.48226">
        <ele>194.4</ele>
        <time>2025-10-18T11:37:14Z</time>
      </trkpt>
      <trkpt lat="43.21644" lon="5.48224">
        <ele>194.5</ele>
        <time>2025-10-18T11:37:15Z</time>
      </trkpt>
      <trkpt lat="43.21644" lon="5.48223">
        <ele>194.6</ele>
        <time>2025-10-18T11:37:16Z</time>
      </trkpt>
      <trkpt lat="43.21644" lon="5.48221">
        <ele>194.6</ele>
        <time>2025-10-18T11:37:17Z</time>
      </trkpt>
      <trkpt lat="43.21643" lon="5.4822">
        <ele>194.7</ele>
        <time>2025-10-18T11:37:18Z</time>
      </trkpt>
      <trkpt lat="43.21644" lon="5.4822">
        <ele>194.7</ele>
        <time>2025-10-18T11:37:19Z</time>
      </trkpt>
      <trkpt lat="43.21644" lon="5.48219">
        <ele>194.8</ele>
        <time>2025-10-18T11:37:20Z</time>
      </trkpt>
      <trkpt lat="43.21644" lon="5.48218">
        <ele>194.8</ele>
        <time>2025-10-18T11:37:21Z</time>
      </trkpt>
      <trkpt lat="43.21645" lon="5.48218">
        <ele>194.9</ele>
        <time>2025-10-18T11:37:22Z</time>
      </trkpt>
      <trkpt lat="43.21645" lon="5.48218">
        <ele>194.9</ele>
        <time>2025-10-18T11:37:23Z</time>
      </trkpt>
      <trkpt lat="43.21645" lon="5.48218">
        <ele>195</ele>
        <time>2025-10-18T11:37:24Z</time>
      </trkpt>
      <trkpt lat="43.21645" lon="5.48217">
        <ele>195.1</ele>
        <time>2025-10-18T11:37:25Z</time>
      </trkpt>
      <trkpt lat="43.21646" lon="5.48216">
        <ele>195.2</ele>
        <time>2025-10-18T11:37:26Z</time>
      </trkpt>
      <trkpt lat="43.21646" lon="5.48214">
        <ele>195.2</ele>
        <time>2025-10-18T11:37:27Z</time>
      </trkpt>
      <trkpt lat="43.21647" lon="5.48212">
        <ele>195.1</ele>
        <time>2025-10-18T11:37:28Z</time>
      </trkpt>
      <trkpt lat="43.21647" lon="5.48211">
        <ele>195.2</ele>
        <time>2025-10-18T11:37:29Z</time>
      </trkpt>
      <trkpt lat="43.21647" lon="5.4821">
        <ele>195.2</ele>
        <time>2025-10-18T11:37:30Z</time>
      </trkpt>
      <trkpt lat="43.21646" lon="5.4821">
        <ele>195.3</ele>
        <time>2025-10-18T11:37:31Z</time>
      </trkpt>
      <trkpt lat="43.21646" lon="5.48209">
        <ele>195.4</ele>
        <time>2025-10-18T11:37:32Z</time>
      </trkpt>
      <trkpt lat="43.21646" lon="5.48208">
        <ele>195.5</ele>
        <time>2025-10-18T11:37:33Z</time>
      </trkpt>
      <trkpt lat="43.21646" lon="5.48207">
        <ele>195.5</ele>
        <time>2025-10-18T11:37:34Z</time>
      </trkpt>
      <trkpt lat="43.21647" lon="5.48206">
        <ele>195.6</ele>
        <time>2025-10-18T11:37:35Z</time>
      </trkpt>
      <trkpt lat="43.21647" lon="5.48205">
        <ele>195.7</ele>
        <time>2025-10-18T11:37:36Z</time>
      </trkpt>
      <trkpt lat="43.21647" lon="5.48204">
        <ele>195.7</ele>
        <time>2025-10-18T11:37:37Z</time>
      </trkpt>
      <trkpt lat="43.21647" lon="5.48204">
        <ele>195.7</ele>
        <time>2025-10-18T11:37:38Z</time>
      </trkpt>
      <trkpt lat="43.21646" lon="5.48203">
        <ele>195.8</ele>
        <time>2025-10-18T11:37:39Z</time>
      </trkpt>
      <trkpt lat="43.21647" lon="5.48202">
        <ele>195.8</ele>
        <time>2025-10-18T11:37:40Z</time>
      </trkpt>
      <trkpt lat="43.21647" lon="5.48201">
        <ele>195.9</ele>
        <time>2025-10-18T11:37:41Z</time>
      </trkpt>
      <trkpt lat="43.21647" lon="5.482">
        <ele>195.9</ele>
        <time>2025-10-18T11:37:42Z</time>
      </trkpt>
      <trkpt lat="43.21647" lon="5.482">
        <ele>195.9</ele>
        <time>2025-10-18T11:37:43Z</time>
      </trkpt>
      <trkpt lat="43.21648" lon="5.48197">
        <ele>195.9</ele>
        <time>2025-10-18T11:37:44Z</time>
      </trkpt>
      <trkpt lat="43.21648" lon="5.48196">
        <ele>196</ele>
        <time>2025-10-18T11:37:45Z</time>
      </trkpt>
      <trkpt lat="43.21649" lon="5.48194">
        <ele>196.1</ele>
        <time>2025-10-18T11:37:46Z</time>
      </trkpt>
      <trkpt lat="43.21649" lon="5.48193">
        <ele>196.1</ele>
        <time>2025-10-18T11:37:47Z</time>
      </trkpt>
      <trkpt lat="43.21649" lon="5.48192">
        <ele>196.2</ele>
        <time>2025-10-18T11:37:48Z</time>
      </trkpt>
      <trkpt lat="43.21649" lon="5.48192">
        <ele>196.3</ele>
        <time>2025-10-18T11:37:49Z</time>
      </trkpt>
      <trkpt lat="43.2165" lon="5.48191">
        <ele>196.4</ele>
        <time>2025-10-18T11:37:50Z</time>
      </trkpt>
      <trkpt lat="43.2165" lon="5.4819">
        <ele>196.4</ele>
        <time>2025-10-18T11:37:51Z</time>
      </trkpt>
      <trkpt lat="43.21651" lon="5.4819">
        <ele>196.5</ele>
        <time>2025-10-18T11:37:52Z</time>
      </trkpt>
      <trkpt lat="43.21651" lon="5.48189">
        <ele>196.5</ele>
        <time>2025-10-18T11:37:53Z</time>
      </trkpt>
      <trkpt lat="43.21651" lon="5.48188">
        <ele>196.5</ele>
        <time>2025-10-18T11:37:54Z</time>
      </trkpt>
      <trkpt lat="43.21652" lon="5.48188">
        <ele>196.5</ele>
        <time>2025-10-18T11:37:55Z</time>
      </trkpt>
      <trkpt lat="43.21652" lon="5.48187">
        <ele>196.5</ele>
        <time>2025-10-18T11:37:56Z</time>
      </trkpt>
      <trkpt lat="43.21653" lon="5.48187">
        <ele>196.6</ele>
        <time>2025-10-18T11:37:57Z</time>
      </trkpt>
      <trkpt lat="43.21653" lon="5.48186">
        <ele>196.7</ele>
        <time>2025-10-18T11:37:58Z</time>
      </trkpt>
      <trkpt lat="43.21654" lon="5.48185">
        <ele>196.7</ele>
        <time>2025-10-18T11:37:59Z</time>
      </trkpt>
      <trkpt lat="43.21654" lon="5.48184">
        <ele>196.7</ele>
        <time>2025-10-18T11:38:00Z</time>
      </trkpt>
      <trkpt lat="43.21655" lon="5.48184">
        <ele>196.8</ele>
        <time>2025-10-18T11:38:01Z</time>
      </trkpt>
      <trkpt lat="43.21656" lon="5.48184">
        <ele>196.9</ele>
        <time>2025-10-18T11:38:02Z</time>
      </trkpt>
      <trkpt lat="43.21656" lon="5.48184">
        <ele>196.9</ele>
        <time>2025-10-18T11:38:03Z</time>
      </trkpt>
      <trkpt lat="43.21657" lon="5.48183">
        <ele>196.9</ele>
        <time>2025-10-18T11:38:04Z</time>
      </trkpt>
      <trkpt lat="43.21658" lon="5.48183">
        <ele>197</ele>
        <time>2025-10-18T11:38:05Z</time>
      </trkpt>
      <trkpt lat="43.21658" lon="5.48182">
        <ele>197</ele>
        <time>2025-10-18T11:38:06Z</time>
      </trkpt>
      <trkpt lat="43.21659" lon="5.48182">
        <ele>197.1</ele>
        <time>2025-10-18T11:38:07Z</time>
      </trkpt>
      <trkpt lat="43.21659" lon="5.48181">
        <ele>197.2</ele>
        <time>2025-10-18T11:38:08Z</time>
      </trkpt>
      <trkpt lat="43.2166" lon="5.48181">
        <ele>197.4</ele>
        <time>2025-10-18T11:38:09Z</time>
      </trkpt>
      <trkpt lat="43.2166" lon="5.4818">
        <ele>197.4</ele>
        <time>2025-10-18T11:38:10Z</time>
      </trkpt>
      <trkpt lat="43.21661" lon="5.4818">
        <ele>197.5</ele>
        <time>2025-10-18T11:38:11Z</time>
      </trkpt>
      <trkpt lat="43.21661" lon="5.48179">
        <ele>197.6</ele>
        <time>2025-10-18T11:38:12Z</time>
      </trkpt>
      <trkpt lat="43.21662" lon="5.48178">
        <ele>197.7</ele>
        <time>2025-10-18T11:38:13Z</time>
      </trkpt>
      <trkpt lat="43.21663" lon="5.48178">
        <ele>197.7</ele>
        <time>2025-10-18T11:38:14Z</time>
      </trkpt>
      <trkpt lat="43.21664" lon="5.48178">
        <ele>197.7</ele>
        <time>2025-10-18T11:38:15Z</time>
      </trkpt>
      <trkpt lat="43.21665" lon="5.48177">
        <ele>197.8</ele>
        <time>2025-10-18T11:38:16Z</time>
      </trkpt>
      <trkpt lat="43.21665" lon="5.48176">
        <ele>198</ele>
        <time>2025-10-18T11:38:17Z</time>
      </trkpt>
      <trkpt lat="43.21666" lon="5.48175">
        <ele>198</ele>
        <time>2025-10-18T11:38:18Z</time>
      </trkpt>
      <trkpt lat="43.21667" lon="5.48174">
        <ele>198.1</ele>
        <time>2025-10-18T11:38:19Z</time>
      </trkpt>
      <trkpt lat="43.21667" lon="5.48173">
        <ele>198.2</ele>
        <time>2025-10-18T11:38:20Z</time>
      </trkpt>
      <trkpt lat="43.21668" lon="5.48173">
        <ele>198.3</ele>
        <time>2025-10-18T11:38:21Z</time>
      </trkpt>
      <trkpt lat="43.21668" lon="5.48172">
        <ele>198.4</ele>
        <time>2025-10-18T11:38:22Z</time>
      </trkpt>
      <trkpt lat="43.21669" lon="5.48171">
        <ele>198.4</ele>
        <time>2025-10-18T11:38:23Z</time>
      </trkpt>
      <trkpt lat="43.21669" lon="5.4817">
        <ele>198.6</ele>
        <time>2025-10-18T11:38:24Z</time>
      </trkpt>
      <trkpt lat="43.21669" lon="5.48169">
        <ele>198.7</ele>
        <time>2025-10-18T11:38:25Z</time>
      </trkpt>
      <trkpt lat="43.2167" lon="5.48168">
        <ele>198.9</ele>
        <time>2025-10-18T11:38:26Z</time>
      </trkpt>
      <trkpt lat="43.2167" lon="5.48166">
        <ele>199</ele>
        <time>2025-10-18T11:38:27Z</time>
      </trkpt>
      <trkpt lat="43.2167" lon="5.48165">
        <ele>199</ele>
        <time>2025-10-18T11:38:28Z</time>
      </trkpt>
      <trkpt lat="43.21671" lon="5.48164">
        <ele>199.1</ele>
        <time>2025-10-18T11:38:29Z</time>
      </trkpt>
      <trkpt lat="43.21671" lon="5.48164">
        <ele>199.2</ele>
        <time>2025-10-18T11:38:30Z</time>
      </trkpt>
      <trkpt lat="43.21671" lon="5.48163">
        <ele>199.3</ele>
        <time>2025-10-18T11:38:31Z</time>
      </trkpt>
      <trkpt lat="43.21672" lon="5.48162">
        <ele>199.5</ele>
        <time>2025-10-18T11:38:32Z</time>
      </trkpt>
      <trkpt lat="43.21672" lon="5.48161">
        <ele>199.6</ele>
        <time>2025-10-18T11:38:33Z</time>
      </trkpt>
      <trkpt lat="43.21672" lon="5.48161">
        <ele>199.6</ele>
        <time>2025-10-18T11:38:34Z</time>
      </trkpt>
      <trkpt lat="43.21673" lon="5.4816">
        <ele>199.7</ele>
        <time>2025-10-18T11:38:35Z</time>
      </trkpt>
      <trkpt lat="43.21674" lon="5.48159">
        <ele>199.7</ele>
        <time>2025-10-18T11:38:36Z</time>
      </trkpt>
      <trkpt lat="43.21674" lon="5.48159">
        <ele>199.8</ele>
        <time>2025-10-18T11:38:37Z</time>
      </trkpt>
      <trkpt lat="43.21674" lon="5.48158">
        <ele>199.8</ele>
        <time>2025-10-18T11:38:38Z</time>
      </trkpt>
      <trkpt lat="43.21675" lon="5.48157">
        <ele>199.8</ele>
        <time>2025-10-18T11:38:39Z</time>
      </trkpt>
      <trkpt lat="43.21675" lon="5.48156">
        <ele>199.7</ele>
        <time>2025-10-18T11:38:40Z</time>
      </trkpt>
      <trkpt lat="43.21676" lon="5.48155">
        <ele>199.7</ele>
        <time>2025-10-18T11:38:41Z</time>
      </trkpt>
      <trkpt lat="43.21676" lon="5.48153">
        <ele>199.7</ele>
        <time>2025-10-18T11:38:42Z</time>
      </trkpt>
      <trkpt lat="43.21677" lon="5.48152">
        <ele>199.7</ele>
        <time>2025-10-18T11:38:43Z</time>
      </trkpt>
      <trkpt lat="43.21677" lon="5.48151">
        <ele>199.7</ele>
        <time>2025-10-18T11:38:44Z</time>
      </trkpt>
      <trkpt lat="43.21677" lon="5.4815">
        <ele>199.7</ele>
        <time>2025-10-18T11:38:45Z</time>
      </trkpt>
      <trkpt lat="43.21677" lon="5.48149">
        <ele>199.8</ele>
        <time>2025-10-18T11:38:46Z</time>
      </trkpt>
      <trkpt lat="43.21677" lon="5.48149">
        <ele>199.9</ele>
        <time>2025-10-18T11:38:47Z</time>
      </trkpt>
      <trkpt lat="43.21677" lon="5.48148">
        <ele>200</ele>
        <time>2025-10-18T11:38:48Z</time>
      </trkpt>
      <trkpt lat="43.21677" lon="5.48148">
        <ele>200</ele>
        <time>2025-10-18T11:38:49Z</time>
      </trkpt>
      <trkpt lat="43.21677" lon="5.48147">
        <ele>200.1</ele>
        <time>2025-10-18T11:38:50Z</time>
      </trkpt>
      <trkpt lat="43.21678" lon="5.48147">
        <ele>200.4</ele>
        <time>2025-10-18T11:38:51Z</time>
      </trkpt>
      <trkpt lat="43.21678" lon="5.48147">
        <ele>200.4</ele>
        <time>2025-10-18T11:38:52Z</time>
      </trkpt>
      <trkpt lat="43.21678" lon="5.48146">
        <ele>200.5</ele>
        <time>2025-10-18T11:38:53Z</time>
      </trkpt>
      <trkpt lat="43.21678" lon="5.48146">
        <ele>200.4</ele>
        <time>2025-10-18T11:38:54Z</time>
      </trkpt>
      <trkpt lat="43.21678" lon="5.48146">
        <ele>200.5</ele>
        <time>2025-10-18T11:38:55Z</time>
      </trkpt>
      <trkpt lat="43.21678" lon="5.48146">
        <ele>200.6</ele>
        <time>2025-10-18T11:38:56Z</time>
      </trkpt>
      <trkpt lat="43.21678" lon="5.48146">
        <ele>200.6</ele>
        <time>2025-10-18T11:38:57Z</time>
      </trkpt>
      <trkpt lat="43.21678" lon="5.48146">
        <ele>200.5</ele>
        <time>2025-10-18T11:38:58Z</time>
      </trkpt>
      <trkpt lat="43.21678" lon="5.48145">
        <ele>200.5</ele>
        <time>2025-10-18T11:38:59Z</time>
      </trkpt>
      <trkpt lat="43.21678" lon="5.48145">
        <ele>200.5</ele>
        <time>2025-10-18T11:39:00Z</time>
      </trkpt>
      <trkpt lat="43.21678" lon="5.48145">
        <ele>200.5</ele>
        <time>2025-10-18T11:39:01Z</time>
      </trkpt>
      <trkpt lat="43.21678" lon="5.48145">
        <ele>200.5</ele>
        <time>2025-10-18T11:39:02Z</time>
      </trkpt>
      <trkpt lat="43.21678" lon="5.48145">
        <ele>200.5</ele>
        <time>2025-10-18T11:39:03Z</time>
      </trkpt>
      <trkpt lat="43.21678" lon="5.48145">
        <ele>200.5</ele>
        <time>2025-10-18T11:39:04Z</time>
      </trkpt>
      <trkpt lat="43.21678" lon="5.48145">
        <ele>200.5</ele>
        <time>2025-10-18T11:39:05Z</time>
      </trkpt>
      <trkpt lat="43.21679" lon="5.48145">
        <ele>200.6</ele>
        <time>2025-10-18T11:39:06Z</time>
      </trkpt>
      <trkpt lat="43.21679" lon="5.48145">
        <ele>200.6</ele>
        <time>2025-10-18T11:39:07Z</time>
      </trkpt>
      <trkpt lat="43.21679" lon="5.48145">
        <ele>200.6</ele>
        <time>2025-10-18T11:39:08Z</time>
      </trkpt>
      <trkpt lat="43.21679" lon="5.48145">
        <ele>200.6</ele>
        <time>2025-10-18T11:39:09Z</time>
      </trkpt>
      <trkpt lat="43.21679" lon="5.48145">
        <ele>200.4</ele>
        <time>2025-10-18T11:39:10Z</time>
      </trkpt>
      <trkpt lat="43.21679" lon="5.48145">
        <ele>200.5</ele>
        <time>2025-10-18T11:39:11Z</time>
      </trkpt>
      <trkpt lat="43.21679" lon="5.48145">
        <ele>200.5</ele>
        <time>2025-10-18T11:39:12Z</time>
      </trkpt>
      <trkpt lat="43.21679" lon="5.48145">
        <ele>200.5</ele>
        <time>2025-10-18T11:39:13Z</time>
      </trkpt>
      <trkpt lat="43.21679" lon="5.48145">
        <ele>200.6</ele>
        <time>2025-10-18T11:39:14Z</time>
      </trkpt>
      <trkpt lat="43.2168" lon="5.48145">
        <ele>200.6</ele>
        <time>2025-10-18T11:39:15Z</time>
      </trkpt>
      <trkpt lat="43.21679" lon="5.48144">
        <ele>200.6</ele>
        <time>2025-10-18T11:39:16Z</time>
      </trkpt>
      <trkpt lat="43.21679" lon="5.48144">
        <ele>200.6</ele>
        <time>2025-10-18T11:39:17Z</time>
      </trkpt>
      <trkpt lat="43.21679" lon="5.48144">
        <ele>200.6</ele>
        <time>2025-10-18T11:39:18Z</time>
      </trkpt>
      <trkpt lat="43.2168" lon="5.48144">
        <ele>200.7</ele>
        <time>2025-10-18T11:39:19Z</time>
      </trkpt>
      <trkpt lat="43.2168" lon="5.48144">
        <ele>200.7</ele>
        <time>2025-10-18T11:39:20Z</time>
      </trkpt>
      <trkpt lat="43.2168" lon="5.48144">
        <ele>200.7</ele>
        <time>2025-10-18T11:39:21Z</time>
      </trkpt>
      <trkpt lat="43.2168" lon="5.48144">
        <ele>200.8</ele>
        <time>2025-10-18T11:39:22Z</time>
      </trkpt>
      <trkpt lat="43.2168" lon="5.48143">
        <ele>200.8</ele>
        <time>2025-10-18T11:39:23Z</time>
      </trkpt>
      <trkpt lat="43.2168" lon="5.48143">
        <ele>200.9</ele>
        <time>2025-10-18T11:39:24Z</time>
      </trkpt>
      <trkpt lat="43.2168" lon="5.48143">
        <ele>201</ele>
        <time>2025-10-18T11:39:25Z</time>
      </trkpt>
      <trkpt lat="43.2168" lon="5.48142">
        <ele>201</ele>
        <time>2025-10-18T11:39:26Z</time>
      </trkpt>
      <trkpt lat="43.2168" lon="5.48142">
        <ele>201</ele>
        <time>2025-10-18T11:39:27Z</time>
      </trkpt>
      <trkpt lat="43.2168" lon="5.48142">
        <ele>201.1</ele>
        <time>2025-10-18T11:39:28Z</time>
      </trkpt>
      <trkpt lat="43.21679" lon="5.48142">
        <ele>201.1</ele>
        <time>2025-10-18T11:39:29Z</time>
      </trkpt>
      <trkpt lat="43.2168" lon="5.48142">
        <ele>201.1</ele>
        <time>2025-10-18T11:39:30Z</time>
      </trkpt>
      <trkpt lat="43.2168" lon="5.48141">
        <ele>201.2</ele>
        <time>2025-10-18T11:39:31Z</time>
      </trkpt>
      <trkpt lat="43.2168" lon="5.48141">
        <ele>201.2</ele>
        <time>2025-10-18T11:39:32Z</time>
      </trkpt>
      <trkpt lat="43.2168" lon="5.48141">
        <ele>201.1</ele>
        <time>2025-10-18T11:39:33Z</time>
      </trkpt>
      <trkpt lat="43.2168" lon="5.48141">
        <ele>201</ele>
        <time>2025-10-18T11:39:34Z</time>
      </trkpt>
      <trkpt lat="43.2168" lon="5.48141">
        <ele>200.9</ele>
        <time>2025-10-18T11:39:35Z</time>
      </trkpt>
      <trkpt lat="43.2168" lon="5.48141">
        <ele>200.9</ele>
        <time>2025-10-18T11:39:36Z</time>
      </trkpt>
      <trkpt lat="43.2168" lon="5.4814">
        <ele>200.9</ele>
        <time>2025-10-18T11:39:37Z</time>
      </trkpt>
      <trkpt lat="43.2168" lon="5.4814">
        <ele>200.9</ele>
        <time>2025-10-18T11:39:38Z</time>
      </trkpt>
      <trkpt lat="43.2168" lon="5.4814">
        <ele>200.9</ele>
        <time>2025-10-18T11:39:39Z</time>
      </trkpt>
      <trkpt lat="43.2168" lon="5.4814">
        <ele>200.9</ele>
        <time>2025-10-18T11:39:40Z</time>
      </trkpt>
      <trkpt lat="43.21681" lon="5.4814">
        <ele>200.9</ele>
        <time>2025-10-18T11:39:41Z</time>
      </trkpt>
      <trkpt lat="43.21681" lon="5.4814">
        <ele>200.8</ele>
        <time>2025-10-18T11:39:42Z</time>
      </trkpt>
      <trkpt lat="43.21681" lon="5.4814">
        <ele>200.9</ele>
        <time>2025-10-18T11:39:43Z</time>
      </trkpt>
      <trkpt lat="43.21681" lon="5.4814">
        <ele>201</ele>
        <time>2025-10-18T11:39:44Z</time>
      </trkpt>
      <trkpt lat="43.21681" lon="5.4814">
        <ele>201</ele>
        <time>2025-10-18T11:39:45Z</time>
      </trkpt>
      <trkpt lat="43.21681" lon="5.4814">
        <ele>201</ele>
        <time>2025-10-18T11:39:46Z</time>
      </trkpt>
      <trkpt lat="43.21681" lon="5.4814">
        <ele>201.1</ele>
        <time>2025-10-18T11:39:47Z</time>
      </trkpt>
      <trkpt lat="43.21681" lon="5.4814">
        <ele>201.1</ele>
        <time>2025-10-18T11:39:48Z</time>
      </trkpt>
      <trkpt lat="43.21681" lon="5.4814">
        <ele>201.1</ele>
        <time>2025-10-18T11:39:49Z</time>
      </trkpt>
      <trkpt lat="43.2168" lon="5.4814">
        <ele>201.2</ele>
        <time>2025-10-18T11:39:50Z</time>
      </trkpt>
      <trkpt lat="43.2168" lon="5.4814">
        <ele>201.2</ele>
        <time>2025-10-18T11:39:51Z</time>
      </trkpt>
      <trkpt lat="43.21681" lon="5.48139">
        <ele>201.2</ele>
        <time>2025-10-18T11:39:52Z</time>
      </trkpt>
      <trkpt lat="43.21681" lon="5.48139">
        <ele>201.1</ele>
        <time>2025-10-18T11:39:53Z</time>
      </trkpt>
      <trkpt lat="43.21681" lon="5.48138">
        <ele>201.1</ele>
        <time>2025-10-18T11:39:54Z</time>
      </trkpt>
      <trkpt lat="43.21681" lon="5.48138">
        <ele>201.1</ele>
        <time>2025-10-18T11:39:55Z</time>
      </trkpt>
      <trkpt lat="43.21681" lon="5.48138">
        <ele>201</ele>
        <time>2025-10-18T11:39:56Z</time>
      </trkpt>
      <trkpt lat="43.21682" lon="5.48138">
        <ele>201</ele>
        <time>2025-10-18T11:39:57Z</time>
      </trkpt>
      <trkpt lat="43.21682" lon="5.48138">
        <ele>201</ele>
        <time>2025-10-18T11:39:58Z</time>
      </trkpt>
      <trkpt lat="43.21682" lon="5.48138">
        <ele>200.9</ele>
        <time>2025-10-18T11:39:59Z</time>
      </trkpt>
      <trkpt lat="43.21683" lon="5.48139">
        <ele>200.9</ele>
        <time>2025-10-18T11:40:00Z</time>
      </trkpt>
      <trkpt lat="43.21683" lon="5.4814">
        <ele>200.9</ele>
        <time>2025-10-18T11:40:01Z</time>
      </trkpt>
      <trkpt lat="43.21683" lon="5.4814">
        <ele>200.9</ele>
        <time>2025-10-18T11:40:02Z</time>
      </trkpt>
      <trkpt lat="43.21683" lon="5.48141">
        <ele>200.9</ele>
        <time>2025-10-18T11:40:03Z</time>
      </trkpt>
      <trkpt lat="43.21683" lon="5.48141">
        <ele>201</ele>
        <time>2025-10-18T11:40:04Z</time>
      </trkpt>
      <trkpt lat="43.21683" lon="5.48141">
        <ele>201</ele>
        <time>2025-10-18T11:40:05Z</time>
      </trkpt>
      <trkpt lat="43.21683" lon="5.48141">
        <ele>201.1</ele>
        <time>2025-10-18T11:40:06Z</time>
      </trkpt>
      <trkpt lat="43.21684" lon="5.48141">
        <ele>201.1</ele>
        <time>2025-10-18T11:40:07Z</time>
      </trkpt>
      <trkpt lat="43.21683" lon="5.48141">
        <ele>201.1</ele>
        <time>2025-10-18T11:40:08Z</time>
      </trkpt>
      <trkpt lat="43.21683" lon="5.48141">
        <ele>201.1</ele>
        <time>2025-10-18T11:40:09Z</time>
      </trkpt>
      <trkpt lat="43.21684" lon="5.48141">
        <ele>201.2</ele>
        <time>2025-10-18T11:40:10Z</time>
      </trkpt>
      <trkpt lat="43.21684" lon="5.48142">
        <ele>201.3</ele>
        <time>2025-10-18T11:40:11Z</time>
      </trkpt>
      <trkpt lat="43.21684" lon="5.48142">
        <ele>201.3</ele>
        <time>2025-10-18T11:40:12Z</time>
      </trkpt>
      <trkpt lat="43.21684" lon="5.48142">
        <ele>201.4</ele>
        <time>2025-10-18T11:40:13Z</time>
      </trkpt>
      <trkpt lat="43.21684" lon="5.48142">
        <ele>201.4</ele>
        <time>2025-10-18T11:40:14Z</time>
      </trkpt>
      <trkpt lat="43.21684" lon="5.48142">
        <ele>201.4</ele>
        <time>2025-10-18T11:40:15Z</time>
      </trkpt>
      <trkpt lat="43.21684" lon="5.48142">
        <ele>201.4</ele>
        <time>2025-10-18T11:40:16Z</time>
      </trkpt>
      <trkpt lat="43.21684" lon="5.48142">
        <ele>201.4</ele>
        <time>2025-10-18T11:40:17Z</time>
      </trkpt>
      <trkpt lat="43.21684" lon="5.48142">
        <ele>201.5</ele>
        <time>2025-10-18T11:40:18Z</time>
      </trkpt>
      <trkpt lat="43.21684" lon="5.48141">
        <ele>201.5</ele>
        <time>2025-10-18T11:40:19Z</time>
      </trkpt>
      <trkpt lat="43.21684" lon="5.48141">
        <ele>201.5</ele>
        <time>2025-10-18T11:40:20Z</time>
      </trkpt>
      <trkpt lat="43.21684" lon="5.48141">
        <ele>201.5</ele>
        <time>2025-10-18T11:40:21Z</time>
      </trkpt>
      <trkpt lat="43.21684" lon="5.48141">
        <ele>201.5</ele>
        <time>2025-10-18T11:40:22Z</time>
      </trkpt>
      <trkpt lat="43.21684" lon="5.48141">
        <ele>201.5</ele>
        <time>2025-10-18T11:40:23Z</time>
      </trkpt>
      <trkpt lat="43.21684" lon="5.48141">
        <ele>201.5</ele>
        <time>2025-10-18T11:40:24Z</time>
      </trkpt>
      <trkpt lat="43.21684" lon="5.48141">
        <ele>201.4</ele>
        <time>2025-10-18T11:40:25Z</time>
      </trkpt>
      <trkpt lat="43.21683" lon="5.48141">
        <ele>201.4</ele>
        <time>2025-10-18T11:40:26Z</time>
      </trkpt>
      <trkpt lat="43.21683" lon="5.48141">
        <ele>201.5</ele>
        <time>2025-10-18T11:40:27Z</time>
      </trkpt>
      <trkpt lat="43.21683" lon="5.48141">
        <ele>201.4</ele>
        <time>2025-10-18T11:40:28Z</time>
      </trkpt>
      <trkpt lat="43.21683" lon="5.48141">
        <ele>201.4</ele>
        <time>2025-10-18T11:40:29Z</time>
      </trkpt>
      <trkpt lat="43.21683" lon="5.48141">
        <ele>201.4</ele>
        <time>2025-10-18T11:40:30Z</time>
      </trkpt>
      <trkpt lat="43.21683" lon="5.48141">
        <ele>201.4</ele>
        <time>2025-10-18T11:40:31Z</time>
      </trkpt>
      <trkpt lat="43.21683" lon="5.48141">
        <ele>201.4</ele>
        <time>2025-10-18T11:40:32Z</time>
      </trkpt>
      <trkpt lat="43.21683" lon="5.48141">
        <ele>201.4</ele>
        <time>2025-10-18T11:40:33Z</time>
      </trkpt>
      <trkpt lat="43.21683" lon="5.48141">
        <ele>201.4</ele>
        <time>2025-10-18T11:40:34Z</time>
      </trkpt>
      <trkpt lat="43.21683" lon="5.48141">
        <ele>201.3</ele>
        <time>2025-10-18T11:40:35Z</time>
      </trkpt>
      <trkpt lat="43.21683" lon="5.48141">
        <ele>201.3</ele>
        <time>2025-10-18T11:40:36Z</time>
      </trkpt>
      <trkpt lat="43.21683" lon="5.48141">
        <ele>201.2</ele>
        <time>2025-10-18T11:40:37Z</time>
      </trkpt>
      <trkpt lat="43.21683" lon="5.48141">
        <ele>201.4</ele>
        <time>2025-10-18T11:40:38Z</time>
      </trkpt>
      <trkpt lat="43.21683" lon="5.48141">
        <ele>201.4</ele>
        <time>2025-10-18T11:40:39Z</time>
      </trkpt>
      <trkpt lat="43.21683" lon="5.48142">
        <ele>201.4</ele>
        <time>2025-10-18T11:40:40Z</time>
      </trkpt>
      <trkpt lat="43.21683" lon="5.48143">
        <ele>201.4</ele>
        <time>2025-10-18T11:40:41Z</time>
      </trkpt>
      <trkpt lat="43.21683" lon="5.48143">
        <ele>201.5</ele>
        <time>2025-10-18T11:40:42Z</time>
      </trkpt>
      <trkpt lat="43.21683" lon="5.48144">
        <ele>201.5</ele>
        <time>2025-10-18T11:40:43Z</time>
      </trkpt>
      <trkpt lat="43.21683" lon="5.48145">
        <ele>201.5</ele>
        <time>2025-10-18T11:40:44Z</time>
      </trkpt>
      <trkpt lat="43.21683" lon="5.48146">
        <ele>201.4</ele>
        <time>2025-10-18T11:40:45Z</time>
      </trkpt>
      <trkpt lat="43.21683" lon="5.48147">
        <ele>201.5</ele>
        <time>2025-10-18T11:40:46Z</time>
      </trkpt>
      <trkpt lat="43.21683" lon="5.48148">
        <ele>201.6</ele>
        <time>2025-10-18T11:40:47Z</time>
      </trkpt>
      <trkpt lat="43.21683" lon="5.48149">
        <ele>201.6</ele>
        <time>2025-10-18T11:40:48Z</time>
      </trkpt>
      <trkpt lat="43.21683" lon="5.4815">
        <ele>201.8</ele>
        <time>2025-10-18T11:40:49Z</time>
      </trkpt>
      <trkpt lat="43.21683" lon="5.4815">
        <ele>201.9</ele>
        <time>2025-10-18T11:40:50Z</time>
      </trkpt>
      <trkpt lat="43.21683" lon="5.48152">
        <ele>202</ele>
        <time>2025-10-18T11:40:51Z</time>
      </trkpt>
      <trkpt lat="43.21683" lon="5.48152">
        <ele>202.1</ele>
        <time>2025-10-18T11:40:52Z</time>
      </trkpt>
      <trkpt lat="43.21683" lon="5.48154">
        <ele>202.2</ele>
        <time>2025-10-18T11:40:53Z</time>
      </trkpt>
      <trkpt lat="43.21683" lon="5.48155">
        <ele>202.3</ele>
        <time>2025-10-18T11:40:54Z</time>
      </trkpt>
      <trkpt lat="43.21683" lon="5.48156">
        <ele>202.4</ele>
        <time>2025-10-18T11:40:55Z</time>
      </trkpt>
      <trkpt lat="43.21682" lon="5.48157">
        <ele>202.4</ele>
        <time>2025-10-18T11:40:56Z</time>
      </trkpt>
      <trkpt lat="43.21682" lon="5.48158">
        <ele>202.5</ele>
        <time>2025-10-18T11:40:57Z</time>
      </trkpt>
      <trkpt lat="43.21682" lon="5.48159">
        <ele>202.7</ele>
        <time>2025-10-18T11:40:58Z</time>
      </trkpt>
      <trkpt lat="43.21683" lon="5.4816">
        <ele>202.8</ele>
        <time>2025-10-18T11:40:59Z</time>
      </trkpt>
      <trkpt lat="43.21683" lon="5.48162">
        <ele>203.1</ele>
        <time>2025-10-18T11:41:00Z</time>
      </trkpt>
      <trkpt lat="43.21684" lon="5.48161">
        <ele>203.2</ele>
        <time>2025-10-18T11:41:01Z</time>
      </trkpt>
      <trkpt lat="43.21684" lon="5.48161">
        <ele>203.4</ele>
        <time>2025-10-18T11:41:02Z</time>
      </trkpt>
      <trkpt lat="43.21685" lon="5.4816">
        <ele>203.8</ele>
        <time>2025-10-18T11:41:03Z</time>
      </trkpt>
      <trkpt lat="43.21686" lon="5.48159">
        <ele>204.1</ele>
        <time>2025-10-18T11:41:04Z</time>
      </trkpt>
      <trkpt lat="43.21686" lon="5.48159">
        <ele>204.3</ele>
        <time>2025-10-18T11:41:05Z</time>
      </trkpt>
      <trkpt lat="43.21687" lon="5.48158">
        <ele>204.5</ele>
        <time>2025-10-18T11:41:06Z</time>
      </trkpt>
      <trkpt lat="43.21688" lon="5.48158">
        <ele>204.8</ele>
        <time>2025-10-18T11:41:07Z</time>
      </trkpt>
      <trkpt lat="43.21689" lon="5.48157">
        <ele>205.1</ele>
        <time>2025-10-18T11:41:08Z</time>
      </trkpt>
      <trkpt lat="43.2169" lon="5.48157">
        <ele>205.3</ele>
        <time>2025-10-18T11:41:09Z</time>
      </trkpt>
      <trkpt lat="43.21691" lon="5.48156">
        <ele>205.5</ele>
        <time>2025-10-18T11:41:10Z</time>
      </trkpt>
      <trkpt lat="43.21691" lon="5.48156">
        <ele>205.7</ele>
        <time>2025-10-18T11:41:11Z</time>
      </trkpt>
      <trkpt lat="43.21692" lon="5.48155">
        <ele>205.8</ele>
        <time>2025-10-18T11:41:12Z</time>
      </trkpt>
      <trkpt lat="43.21693" lon="5.48154">
        <ele>206</ele>
        <time>2025-10-18T11:41:13Z</time>
      </trkpt>
      <trkpt lat="43.21694" lon="5.48154">
        <ele>206.1</ele>
        <time>2025-10-18T11:41:14Z</time>
      </trkpt>
      <trkpt lat="43.21694" lon="5.48154">
        <ele>206.3</ele>
        <time>2025-10-18T11:41:15Z</time>
      </trkpt>
      <trkpt lat="43.21695" lon="5.48153">
        <ele>206.5</ele>
        <time>2025-10-18T11:41:16Z</time>
      </trkpt>
      <trkpt lat="43.21696" lon="5.48152">
        <ele>206.8</ele>
        <time>2025-10-18T11:41:17Z</time>
      </trkpt>
      <trkpt lat="43.21696" lon="5.48152">
        <ele>207.1</ele>
        <time>2025-10-18T11:41:18Z</time>
      </trkpt>
      <trkpt lat="43.21697" lon="5.48151">
        <ele>207.3</ele>
        <time>2025-10-18T11:41:19Z</time>
      </trkpt>
      <trkpt lat="43.21697" lon="5.48151">
        <ele>207.4</ele>
        <time>2025-10-18T11:41:20Z</time>
      </trkpt>
      <trkpt lat="43.21698" lon="5.48151">
        <ele>207.6</ele>
        <time>2025-10-18T11:41:21Z</time>
      </trkpt>
      <trkpt lat="43.21698" lon="5.48152">
        <ele>207.8</ele>
        <time>2025-10-18T11:41:22Z</time>
      </trkpt>
      <trkpt lat="43.21698" lon="5.48153">
        <ele>207.9</ele>
        <time>2025-10-18T11:41:23Z</time>
      </trkpt>
      <trkpt lat="43.21698" lon="5.48155">
        <ele>208.1</ele>
        <time>2025-10-18T11:41:24Z</time>
      </trkpt>
      <trkpt lat="43.21698" lon="5.48156">
        <ele>208.4</ele>
        <time>2025-10-18T11:41:25Z</time>
      </trkpt>
      <trkpt lat="43.21698" lon="5.48157">
        <ele>208.6</ele>
        <time>2025-10-18T11:41:26Z</time>
      </trkpt>
      <trkpt lat="43.21698" lon="5.48159">
        <ele>208.8</ele>
        <time>2025-10-18T11:41:27Z</time>
      </trkpt>
      <trkpt lat="43.21697" lon="5.48159">
        <ele>209.1</ele>
        <time>2025-10-18T11:41:28Z</time>
      </trkpt>
      <trkpt lat="43.21697" lon="5.4816">
        <ele>209.3</ele>
        <time>2025-10-18T11:41:29Z</time>
      </trkpt>
      <trkpt lat="43.21697" lon="5.48161">
        <ele>209.4</ele>
        <time>2025-10-18T11:41:30Z</time>
      </trkpt>
      <trkpt lat="43.21697" lon="5.48162">
        <ele>209.5</ele>
        <time>2025-10-18T11:41:31Z</time>
      </trkpt>
      <trkpt lat="43.21697" lon="5.48162">
        <ele>209.7</ele>
        <time>2025-10-18T11:41:32Z</time>
      </trkpt>
      <trkpt lat="43.21697" lon="5.48163">
        <ele>209.9</ele>
        <time>2025-10-18T11:41:33Z</time>
      </trkpt>
      <trkpt lat="43.21697" lon="5.48163">
        <ele>210.1</ele>
        <time>2025-10-18T11:41:34Z</time>
      </trkpt>
      <trkpt lat="43.21698" lon="5.48163">
        <ele>210.2</ele>
        <time>2025-10-18T11:41:35Z</time>
      </trkpt>
      <trkpt lat="43.21699" lon="5.48163">
        <ele>210.3</ele>
        <time>2025-10-18T11:41:36Z</time>
      </trkpt>
      <trkpt lat="43.21699" lon="5.48163">
        <ele>210.5</ele>
        <time>2025-10-18T11:41:37Z</time>
      </trkpt>
      <trkpt lat="43.217" lon="5.48163">
        <ele>210.7</ele>
        <time>2025-10-18T11:41:38Z</time>
      </trkpt>
      <trkpt lat="43.217" lon="5.48163">
        <ele>210.8</ele>
        <time>2025-10-18T11:41:39Z</time>
      </trkpt>
      <trkpt lat="43.217" lon="5.48163">
        <ele>210.9</ele>
        <time>2025-10-18T11:41:40Z</time>
      </trkpt>
      <trkpt lat="43.21701" lon="5.48162">
        <ele>211</ele>
        <time>2025-10-18T11:41:41Z</time>
      </trkpt>
      <trkpt lat="43.21702" lon="5.48162">
        <ele>211.1</ele>
        <time>2025-10-18T11:41:42Z</time>
      </trkpt>
      <trkpt lat="43.21702" lon="5.48162">
        <ele>211.3</ele>
        <time>2025-10-18T11:41:43Z</time>
      </trkpt>
      <trkpt lat="43.21702" lon="5.48161">
        <ele>211.4</ele>
        <time>2025-10-18T11:41:44Z</time>
      </trkpt>
      <trkpt lat="43.21703" lon="5.48161">
        <ele>211.5</ele>
        <time>2025-10-18T11:41:45Z</time>
      </trkpt>
      <trkpt lat="43.21703" lon="5.4816">
        <ele>211.7</ele>
        <time>2025-10-18T11:41:46Z</time>
      </trkpt>
      <trkpt lat="43.21704" lon="5.48159">
        <ele>211.8</ele>
        <time>2025-10-18T11:41:47Z</time>
      </trkpt>
      <trkpt lat="43.21704" lon="5.48158">
        <ele>211.9</ele>
        <time>2025-10-18T11:41:48Z</time>
      </trkpt>
      <trkpt lat="43.21704" lon="5.48157">
        <ele>212.1</ele>
        <time>2025-10-18T11:41:49Z</time>
      </trkpt>
      <trkpt lat="43.21705" lon="5.48156">
        <ele>212.2</ele>
        <time>2025-10-18T11:41:50Z</time>
      </trkpt>
      <trkpt lat="43.21705" lon="5.48155">
        <ele>212.2</ele>
        <time>2025-10-18T11:41:51Z</time>
      </trkpt>
      <trkpt lat="43.21705" lon="5.48154">
        <ele>212.4</ele>
        <time>2025-10-18T11:41:52Z</time>
      </trkpt>
      <trkpt lat="43.21705" lon="5.48154">
        <ele>212.5</ele>
        <time>2025-10-18T11:41:53Z</time>
      </trkpt>
      <trkpt lat="43.21705" lon="5.48154">
        <ele>212.6</ele>
        <time>2025-10-18T11:41:54Z</time>
      </trkpt>
      <trkpt lat="43.21706" lon="5.48153">
        <ele>212.8</ele>
        <time>2025-10-18T11:41:55Z</time>
      </trkpt>
      <trkpt lat="43.21706" lon="5.48153">
        <ele>212.9</ele>
        <time>2025-10-18T11:41:56Z</time>
      </trkpt>
      <trkpt lat="43.21706" lon="5.48153">
        <ele>212.9</ele>
        <time>2025-10-18T11:41:57Z</time>
      </trkpt>
      <trkpt lat="43.21706" lon="5.48153">
        <ele>212.9</ele>
        <time>2025-10-18T11:41:58Z</time>
      </trkpt>
      <trkpt lat="43.21707" lon="5.48153">
        <ele>213</ele>
        <time>2025-10-18T11:41:59Z</time>
      </trkpt>
      <trkpt lat="43.21707" lon="5.48153">
        <ele>213</ele>
        <time>2025-10-18T11:42:00Z</time>
      </trkpt>
      <trkpt lat="43.21707" lon="5.48153">
        <ele>213</ele>
        <time>2025-10-18T11:42:01Z</time>
      </trkpt>
      <trkpt lat="43.21707" lon="5.48153">
        <ele>213.1</ele>
        <time>2025-10-18T11:42:02Z</time>
      </trkpt>
      <trkpt lat="43.21708" lon="5.48152">
        <ele>213.1</ele>
        <time>2025-10-18T11:42:03Z</time>
      </trkpt>
      <trkpt lat="43.21708" lon="5.48151">
        <ele>213.2</ele>
        <time>2025-10-18T11:42:04Z</time>
      </trkpt>
      <trkpt lat="43.21708" lon="5.48151">
        <ele>213.3</ele>
        <time>2025-10-18T11:42:05Z</time>
      </trkpt>
      <trkpt lat="43.21709" lon="5.48151">
        <ele>213.7</ele>
        <time>2025-10-18T11:42:06Z</time>
      </trkpt>
      <trkpt lat="43.21709" lon="5.48151">
        <ele>213.9</ele>
        <time>2025-10-18T11:42:07Z</time>
      </trkpt>
      <trkpt lat="43.21709" lon="5.48151">
        <ele>214.1</ele>
        <time>2025-10-18T11:42:08Z</time>
      </trkpt>
      <trkpt lat="43.2171" lon="5.48152">
        <ele>214.3</ele>
        <time>2025-10-18T11:42:09Z</time>
      </trkpt>
      <trkpt lat="43.2171" lon="5.48152">
        <ele>214.5</ele>
        <time>2025-10-18T11:42:10Z</time>
      </trkpt>
      <trkpt lat="43.2171" lon="5.48153">
        <ele>214.6</ele>
        <time>2025-10-18T11:42:11Z</time>
      </trkpt>
      <trkpt lat="43.21711" lon="5.48153">
        <ele>214.7</ele>
        <time>2025-10-18T11:42:12Z</time>
      </trkpt>
      <trkpt lat="43.21711" lon="5.48153">
        <ele>214.9</ele>
        <time>2025-10-18T11:42:13Z</time>
      </trkpt>
      <trkpt lat="43.21711" lon="5.48153">
        <ele>215.1</ele>
        <time>2025-10-18T11:42:14Z</time>
      </trkpt>
      <trkpt lat="43.21711" lon="5.48153">
        <ele>215.2</ele>
        <time>2025-10-18T11:42:15Z</time>
      </trkpt>
      <trkpt lat="43.21711" lon="5.48154">
        <ele>215.4</ele>
        <time>2025-10-18T11:42:16Z</time>
      </trkpt>
      <trkpt lat="43.21711" lon="5.48155">
        <ele>215.5</ele>
        <time>2025-10-18T11:42:17Z</time>
      </trkpt>
      <trkpt lat="43.21712" lon="5.48155">
        <ele>215.6</ele>
        <time>2025-10-18T11:42:18Z</time>
      </trkpt>
      <trkpt lat="43.21712" lon="5.48156">
        <ele>215.6</ele>
        <time>2025-10-18T11:42:19Z</time>
      </trkpt>
      <trkpt lat="43.21712" lon="5.48156">
        <ele>215.7</ele>
        <time>2025-10-18T11:42:20Z</time>
      </trkpt>
      <trkpt lat="43.21712" lon="5.48157">
        <ele>215.7</ele>
        <time>2025-10-18T11:42:21Z</time>
      </trkpt>
      <trkpt lat="43.21712" lon="5.48158">
        <ele>215.8</ele>
        <time>2025-10-18T11:42:22Z</time>
      </trkpt>
      <trkpt lat="43.21712" lon="5.48158">
        <ele>216</ele>
        <time>2025-10-18T11:42:23Z</time>
      </trkpt>
      <trkpt lat="43.21713" lon="5.48159">
        <ele>216.2</ele>
        <time>2025-10-18T11:42:24Z</time>
      </trkpt>
      <trkpt lat="43.21713" lon="5.48159">
        <ele>216.4</ele>
        <time>2025-10-18T11:42:25Z</time>
      </trkpt>
      <trkpt lat="43.21713" lon="5.4816">
        <ele>216.5</ele>
        <time>2025-10-18T11:42:26Z</time>
      </trkpt>
      <trkpt lat="43.21714" lon="5.4816">
        <ele>216.6</ele>
        <time>2025-10-18T11:42:27Z</time>
      </trkpt>
      <trkpt lat="43.21714" lon="5.4816">
        <ele>216.8</ele>
        <time>2025-10-18T11:42:28Z</time>
      </trkpt>
      <trkpt lat="43.21714" lon="5.4816">
        <ele>216.9</ele>
        <time>2025-10-18T11:42:29Z</time>
      </trkpt>
      <trkpt lat="43.21714" lon="5.4816">
        <ele>217</ele>
        <time>2025-10-18T11:42:30Z</time>
      </trkpt>
      <trkpt lat="43.21714" lon="5.48161">
        <ele>217.1</ele>
        <time>2025-10-18T11:42:31Z</time>
      </trkpt>
      <trkpt lat="43.21715" lon="5.48161">
        <ele>217.3</ele>
        <time>2025-10-18T11:42:32Z</time>
      </trkpt>
      <trkpt lat="43.21715" lon="5.48162">
        <ele>217.3</ele>
        <time>2025-10-18T11:42:33Z</time>
      </trkpt>
      <trkpt lat="43.21716" lon="5.48162">
        <ele>217.4</ele>
        <time>2025-10-18T11:42:34Z</time>
      </trkpt>
      <trkpt lat="43.21716" lon="5.48162">
        <ele>217.6</ele>
        <time>2025-10-18T11:42:35Z</time>
      </trkpt>
      <trkpt lat="43.21716" lon="5.48162">
        <ele>217.7</ele>
        <time>2025-10-18T11:42:36Z</time>
      </trkpt>
      <trkpt lat="43.21717" lon="5.48162">
        <ele>217.9</ele>
        <time>2025-10-18T11:42:37Z</time>
      </trkpt>
      <trkpt lat="43.21717" lon="5.48162">
        <ele>218.1</ele>
        <time>2025-10-18T11:42:38Z</time>
      </trkpt>
      <trkpt lat="43.21717" lon="5.48161">
        <ele>218.2</ele>
        <time>2025-10-18T11:42:39Z</time>
      </trkpt>
      <trkpt lat="43.21718" lon="5.48161">
        <ele>218.4</ele>
        <time>2025-10-18T11:42:40Z</time>
      </trkpt>
      <trkpt lat="43.21718" lon="5.48161">
        <ele>218.5</ele>
        <time>2025-10-18T11:42:41Z</time>
      </trkpt>
      <trkpt lat="43.21719" lon="5.48161">
        <ele>218.6</ele>
        <time>2025-10-18T11:42:42Z</time>
      </trkpt>
      <trkpt lat="43.21719" lon="5.48161">
        <ele>218.8</ele>
        <time>2025-10-18T11:42:43Z</time>
      </trkpt>
      <trkpt lat="43.21719" lon="5.48161">
        <ele>219</ele>
        <time>2025-10-18T11:42:44Z</time>
      </trkpt>
      <trkpt lat="43.21719" lon="5.4816">
        <ele>219.2</ele>
        <time>2025-10-18T11:42:45Z</time>
      </trkpt>
      <trkpt lat="43.2172" lon="5.4816">
        <ele>219.3</ele>
        <time>2025-10-18T11:42:46Z</time>
      </trkpt>
      <trkpt lat="43.2172" lon="5.4816">
        <ele>219.5</ele>
        <time>2025-10-18T11:42:47Z</time>
      </trkpt>
      <trkpt lat="43.2172" lon="5.4816">
        <ele>219.7</ele>
        <time>2025-10-18T11:42:48Z</time>
      </trkpt>
      <trkpt lat="43.21721" lon="5.4816">
        <ele>219.9</ele>
        <time>2025-10-18T11:42:49Z</time>
      </trkpt>
      <trkpt lat="43.21721" lon="5.48159">
        <ele>220.1</ele>
        <time>2025-10-18T11:42:50Z</time>
      </trkpt>
      <trkpt lat="43.21721" lon="5.48159">
        <ele>220.2</ele>
        <time>2025-10-18T11:42:51Z</time>
      </trkpt>
      <trkpt lat="43.21722" lon="5.48159">
        <ele>220.3</ele>
        <time>2025-10-18T11:42:52Z</time>
      </trkpt>
      <trkpt lat="43.21722" lon="5.48159">
        <ele>220.5</ele>
        <time>2025-10-18T11:42:53Z</time>
      </trkpt>
      <trkpt lat="43.21722" lon="5.48159">
        <ele>220.6</ele>
        <time>2025-10-18T11:42:54Z</time>
      </trkpt>
      <trkpt lat="43.21722" lon="5.48158">
        <ele>220.8</ele>
        <time>2025-10-18T11:42:55Z</time>
      </trkpt>
      <trkpt lat="43.21723" lon="5.48158">
        <ele>221</ele>
        <time>2025-10-18T11:42:56Z</time>
      </trkpt>
      <trkpt lat="43.21723" lon="5.48158">
        <ele>221.1</ele>
        <time>2025-10-18T11:42:57Z</time>
      </trkpt>
      <trkpt lat="43.21723" lon="5.48157">
        <ele>221.2</ele>
        <time>2025-10-18T11:42:58Z</time>
      </trkpt>
      <trkpt lat="43.21724" lon="5.48157">
        <ele>221.3</ele>
        <time>2025-10-18T11:42:59Z</time>
      </trkpt>
      <trkpt lat="43.21724" lon="5.48157">
        <ele>221.5</ele>
        <time>2025-10-18T11:43:00Z</time>
      </trkpt>
      <trkpt lat="43.21724" lon="5.48156">
        <ele>221.8</ele>
        <time>2025-10-18T11:43:01Z</time>
      </trkpt>
      <trkpt lat="43.21725" lon="5.48157">
        <ele>222</ele>
        <time>2025-10-18T11:43:02Z</time>
      </trkpt>
      <trkpt lat="43.21725" lon="5.48157">
        <ele>222.1</ele>
        <time>2025-10-18T11:43:03Z</time>
      </trkpt>
      <trkpt lat="43.21725" lon="5.48157">
        <ele>222.1</ele>
        <time>2025-10-18T11:43:04Z</time>
      </trkpt>
      <trkpt lat="43.21725" lon="5.48157">
        <ele>222.2</ele>
        <time>2025-10-18T11:43:05Z</time>
      </trkpt>
      <trkpt lat="43.21725" lon="5.48157">
        <ele>222.3</ele>
        <time>2025-10-18T11:43:06Z</time>
      </trkpt>
      <trkpt lat="43.21725" lon="5.48157">
        <ele>222.4</ele>
        <time>2025-10-18T11:43:07Z</time>
      </trkpt>
      <trkpt lat="43.21725" lon="5.48157">
        <ele>222.5</ele>
        <time>2025-10-18T11:43:08Z</time>
      </trkpt>
      <trkpt lat="43.21725" lon="5.48157">
        <ele>222.7</ele>
        <time>2025-10-18T11:43:09Z</time>
      </trkpt>
      <trkpt lat="43.21726" lon="5.48157">
        <ele>222.8</ele>
        <time>2025-10-18T11:43:10Z</time>
      </trkpt>
      <trkpt lat="43.21726" lon="5.48157">
        <ele>222.9</ele>
        <time>2025-10-18T11:43:11Z</time>
      </trkpt>
      <trkpt lat="43.21726" lon="5.48157">
        <ele>222.9</ele>
        <time>2025-10-18T11:43:12Z</time>
      </trkpt>
      <trkpt lat="43.21726" lon="5.48157">
        <ele>222.9</ele>
        <time>2025-10-18T11:43:13Z</time>
      </trkpt>
      <trkpt lat="43.21726" lon="5.48157">
        <ele>222.9</ele>
        <time>2025-10-18T11:43:14Z</time>
      </trkpt>
      <trkpt lat="43.21726" lon="5.48157">
        <ele>222.9</ele>
        <time>2025-10-18T11:43:15Z</time>
      </trkpt>
      <trkpt lat="43.21726" lon="5.48157">
        <ele>222.9</ele>
        <time>2025-10-18T11:43:16Z</time>
      </trkpt>
      <trkpt lat="43.21726" lon="5.48157">
        <ele>222.9</ele>
        <time>2025-10-18T11:43:17Z</time>
      </trkpt>
      <trkpt lat="43.21726" lon="5.48157">
        <ele>222.8</ele>
        <time>2025-10-18T11:43:18Z</time>
      </trkpt>
      <trkpt lat="43.21727" lon="5.48157">
        <ele>223</ele>
        <time>2025-10-18T11:43:19Z</time>
      </trkpt>
      <trkpt lat="43.21727" lon="5.48156">
        <ele>223.2</ele>
        <time>2025-10-18T11:43:20Z</time>
      </trkpt>
      <trkpt lat="43.21728" lon="5.48156">
        <ele>223.3</ele>
        <time>2025-10-18T11:43:21Z</time>
      </trkpt>
      <trkpt lat="43.21728" lon="5.48155">
        <ele>223.5</ele>
        <time>2025-10-18T11:43:22Z</time>
      </trkpt>
      <trkpt lat="43.21728" lon="5.48154">
        <ele>223.6</ele>
        <time>2025-10-18T11:43:23Z</time>
      </trkpt>
      <trkpt lat="43.21729" lon="5.48153">
        <ele>223.8</ele>
        <time>2025-10-18T11:43:24Z</time>
      </trkpt>
      <trkpt lat="43.21729" lon="5.48153">
        <ele>224</ele>
        <time>2025-10-18T11:43:25Z</time>
      </trkpt>
      <trkpt lat="43.21729" lon="5.48152">
        <ele>224.2</ele>
        <time>2025-10-18T11:43:26Z</time>
      </trkpt>
      <trkpt lat="43.2173" lon="5.48152">
        <ele>224.4</ele>
        <time>2025-10-18T11:43:27Z</time>
      </trkpt>
      <trkpt lat="43.2173" lon="5.48152">
        <ele>224.6</ele>
        <time>2025-10-18T11:43:28Z</time>
      </trkpt>
      <trkpt lat="43.2173" lon="5.48152">
        <ele>224.7</ele>
        <time>2025-10-18T11:43:29Z</time>
      </trkpt>
      <trkpt lat="43.21731" lon="5.48153">
        <ele>224.9</ele>
        <time>2025-10-18T11:43:30Z</time>
      </trkpt>
      <trkpt lat="43.21731" lon="5.48153">
        <ele>225.1</ele>
        <time>2025-10-18T11:43:31Z</time>
      </trkpt>
      <trkpt lat="43.21731" lon="5.48154">
        <ele>225.3</ele>
        <time>2025-10-18T11:43:32Z</time>
      </trkpt>
      <trkpt lat="43.21731" lon="5.48154">
        <ele>225.6</ele>
        <time>2025-10-18T11:43:33Z</time>
      </trkpt>
      <trkpt lat="43.21732" lon="5.48155">
        <ele>225.8</ele>
        <time>2025-10-18T11:43:34Z</time>
      </trkpt>
      <trkpt lat="43.21732" lon="5.48155">
        <ele>226.1</ele>
        <time>2025-10-18T11:43:35Z</time>
      </trkpt>
      <trkpt lat="43.21733" lon="5.48156">
        <ele>226.2</ele>
        <time>2025-10-18T11:43:36Z</time>
      </trkpt>
      <trkpt lat="43.21733" lon="5.48156">
        <ele>226.4</ele>
        <time>2025-10-18T11:43:37Z</time>
      </trkpt>
      <trkpt lat="43.21733" lon="5.48157">
        <ele>226.6</ele>
        <time>2025-10-18T11:43:38Z</time>
      </trkpt>
      <trkpt lat="43.21733" lon="5.48158">
        <ele>226.8</ele>
        <time>2025-10-18T11:43:39Z</time>
      </trkpt>
      <trkpt lat="43.21734" lon="5.48158">
        <ele>227.1</ele>
        <time>2025-10-18T11:43:40Z</time>
      </trkpt>
      <trkpt lat="43.21734" lon="5.48159">
        <ele>227.4</ele>
        <time>2025-10-18T11:43:41Z</time>
      </trkpt>
      <trkpt lat="43.21734" lon="5.4816">
        <ele>227.6</ele>
        <time>2025-10-18T11:43:42Z</time>
      </trkpt>
      <trkpt lat="43.21734" lon="5.48161">
        <ele>227.6</ele>
        <time>2025-10-18T11:43:43Z</time>
      </trkpt>
      <trkpt lat="43.21734" lon="5.48162">
        <ele>227.7</ele>
        <time>2025-10-18T11:43:44Z</time>
      </trkpt>
      <trkpt lat="43.21734" lon="5.48163">
        <ele>227.8</ele>
        <time>2025-10-18T11:43:45Z</time>
      </trkpt>
      <trkpt lat="43.21734" lon="5.48164">
        <ele>227.8</ele>
        <time>2025-10-18T11:43:46Z</time>
      </trkpt>
      <trkpt lat="43.21734" lon="5.48165">
        <ele>227.9</ele>
        <time>2025-10-18T11:43:47Z</time>
      </trkpt>
      <trkpt lat="43.21735" lon="5.48165">
        <ele>228</ele>
        <time>2025-10-18T11:43:48Z</time>
      </trkpt>
      <trkpt lat="43.21735" lon="5.48165">
        <ele>228.1</ele>
        <time>2025-10-18T11:43:49Z</time>
      </trkpt>
      <trkpt lat="43.21735" lon="5.48164">
        <ele>228.2</ele>
        <time>2025-10-18T11:43:50Z</time>
      </trkpt>
      <trkpt lat="43.21736" lon="5.48163">
        <ele>228.3</ele>
        <time>2025-10-18T11:43:51Z</time>
      </trkpt>
      <trkpt lat="43.21736" lon="5.48162">
        <ele>228.4</ele>
        <time>2025-10-18T11:43:52Z</time>
      </trkpt>
      <trkpt lat="43.21737" lon="5.48161">
        <ele>228.6</ele>
        <time>2025-10-18T11:43:53Z</time>
      </trkpt>
      <trkpt lat="43.21737" lon="5.48161">
        <ele>228.7</ele>
        <time>2025-10-18T11:43:54Z</time>
      </trkpt>
      <trkpt lat="43.21737" lon="5.4816">
        <ele>228.9</ele>
        <time>2025-10-18T11:43:55Z</time>
      </trkpt>
      <trkpt lat="43.21737" lon="5.48159">
        <ele>229</ele>
        <time>2025-10-18T11:43:56Z</time>
      </trkpt>
      <trkpt lat="43.21737" lon="5.48159">
        <ele>229.2</ele>
        <time>2025-10-18T11:43:57Z</time>
      </trkpt>
      <trkpt lat="43.21738" lon="5.48158">
        <ele>229.4</ele>
        <time>2025-10-18T11:43:58Z</time>
      </trkpt>
      <trkpt lat="43.21738" lon="5.48157">
        <ele>229.6</ele>
        <time>2025-10-18T11:43:59Z</time>
      </trkpt>
      <trkpt lat="43.21739" lon="5.48157">
        <ele>229.8</ele>
        <time>2025-10-18T11:44:00Z</time>
      </trkpt>
      <trkpt lat="43.21739" lon="5.48156">
        <ele>229.9</ele>
        <time>2025-10-18T11:44:01Z</time>
      </trkpt>
      <trkpt lat="43.21739" lon="5.48156">
        <ele>230.1</ele>
        <time>2025-10-18T11:44:02Z</time>
      </trkpt>
      <trkpt lat="43.2174" lon="5.48155">
        <ele>230.3</ele>
        <time>2025-10-18T11:44:03Z</time>
      </trkpt>
      <trkpt lat="43.2174" lon="5.48154">
        <ele>230.5</ele>
        <time>2025-10-18T11:44:04Z</time>
      </trkpt>
      <trkpt lat="43.2174" lon="5.48153">
        <ele>230.6</ele>
        <time>2025-10-18T11:44:05Z</time>
      </trkpt>
      <trkpt lat="43.2174" lon="5.48152">
        <ele>230.8</ele>
        <time>2025-10-18T11:44:06Z</time>
      </trkpt>
      <trkpt lat="43.2174" lon="5.48152">
        <ele>230.9</ele>
        <time>2025-10-18T11:44:07Z</time>
      </trkpt>
      <trkpt lat="43.2174" lon="5.48151">
        <ele>231</ele>
        <time>2025-10-18T11:44:08Z</time>
      </trkpt>
      <trkpt lat="43.21741" lon="5.4815">
        <ele>231.1</ele>
        <time>2025-10-18T11:44:09Z</time>
      </trkpt>
      <trkpt lat="43.21741" lon="5.4815">
        <ele>231.2</ele>
        <time>2025-10-18T11:44:10Z</time>
      </trkpt>
      <trkpt lat="43.21741" lon="5.48149">
        <ele>231.3</ele>
        <time>2025-10-18T11:44:11Z</time>
      </trkpt>
      <trkpt lat="43.21742" lon="5.48148">
        <ele>231.5</ele>
        <time>2025-10-18T11:44:12Z</time>
      </trkpt>
      <trkpt lat="43.21742" lon="5.48148">
        <ele>231.6</ele>
        <time>2025-10-18T11:44:13Z</time>
      </trkpt>
      <trkpt lat="43.21742" lon="5.48148">
        <ele>231.7</ele>
        <time>2025-10-18T11:44:14Z</time>
      </trkpt>
      <trkpt lat="43.21742" lon="5.48148">
        <ele>231.7</ele>
        <time>2025-10-18T11:44:15Z</time>
      </trkpt>
      <trkpt lat="43.21742" lon="5.48147">
        <ele>231.7</ele>
        <time>2025-10-18T11:44:16Z</time>
      </trkpt>
      <trkpt lat="43.21742" lon="5.48147">
        <ele>231.9</ele>
        <time>2025-10-18T11:44:17Z</time>
      </trkpt>
      <trkpt lat="43.21743" lon="5.48146">
        <ele>232</ele>
        <time>2025-10-18T11:44:18Z</time>
      </trkpt>
      <trkpt lat="43.21743" lon="5.48146">
        <ele>232.1</ele>
        <time>2025-10-18T11:44:19Z</time>
      </trkpt>
      <trkpt lat="43.21743" lon="5.48147">
        <ele>232.2</ele>
        <time>2025-10-18T11:44:20Z</time>
      </trkpt>
      <trkpt lat="43.21743" lon="5.48147">
        <ele>232.3</ele>
        <time>2025-10-18T11:44:21Z</time>
      </trkpt>
      <trkpt lat="43.21743" lon="5.48148">
        <ele>232.5</ele>
        <time>2025-10-18T11:44:22Z</time>
      </trkpt>
      <trkpt lat="43.21744" lon="5.48148">
        <ele>232.6</ele>
        <time>2025-10-18T11:44:23Z</time>
      </trkpt>
      <trkpt lat="43.21744" lon="5.48149">
        <ele>232.7</ele>
        <time>2025-10-18T11:44:24Z</time>
      </trkpt>
      <trkpt lat="43.21744" lon="5.48149">
        <ele>232.7</ele>
        <time>2025-10-18T11:44:25Z</time>
      </trkpt>
      <trkpt lat="43.21745" lon="5.4815">
        <ele>232.8</ele>
        <time>2025-10-18T11:44:26Z</time>
      </trkpt>
      <trkpt lat="43.21745" lon="5.48151">
        <ele>233</ele>
        <time>2025-10-18T11:44:27Z</time>
      </trkpt>
      <trkpt lat="43.21745" lon="5.48151">
        <ele>233.2</ele>
        <time>2025-10-18T11:44:28Z</time>
      </trkpt>
      <trkpt lat="43.21746" lon="5.48152">
        <ele>233.5</ele>
        <time>2025-10-18T11:44:29Z</time>
      </trkpt>
      <trkpt lat="43.21746" lon="5.48153">
        <ele>233.7</ele>
        <time>2025-10-18T11:44:30Z</time>
      </trkpt>
      <trkpt lat="43.21746" lon="5.48154">
        <ele>233.9</ele>
        <time>2025-10-18T11:44:31Z</time>
      </trkpt>
      <trkpt lat="43.21746" lon="5.48154">
        <ele>234.1</ele>
        <time>2025-10-18T11:44:32Z</time>
      </trkpt>
      <trkpt lat="43.21746" lon="5.48155">
        <ele>234.3</ele>
        <time>2025-10-18T11:44:33Z</time>
      </trkpt>
      <trkpt lat="43.21747" lon="5.48155">
        <ele>234.5</ele>
        <time>2025-10-18T11:44:34Z</time>
      </trkpt>
      <trkpt lat="43.21747" lon="5.48156">
        <ele>234.6</ele>
        <time>2025-10-18T11:44:35Z</time>
      </trkpt>
      <trkpt lat="43.21747" lon="5.48156">
        <ele>234.7</ele>
        <time>2025-10-18T11:44:36Z</time>
      </trkpt>
      <trkpt lat="43.21747" lon="5.48157">
        <ele>234.8</ele>
        <time>2025-10-18T11:44:37Z</time>
      </trkpt>
      <trkpt lat="43.21747" lon="5.48157">
        <ele>235</ele>
        <time>2025-10-18T11:44:38Z</time>
      </trkpt>
      <trkpt lat="43.21747" lon="5.48158">
        <ele>235.2</ele>
        <time>2025-10-18T11:44:39Z</time>
      </trkpt>
      <trkpt lat="43.21748" lon="5.48158">
        <ele>235.3</ele>
        <time>2025-10-18T11:44:40Z</time>
      </trkpt>
      <trkpt lat="43.21749" lon="5.48157">
        <ele>235.4</ele>
        <time>2025-10-18T11:44:41Z</time>
      </trkpt>
      <trkpt lat="43.21749" lon="5.48156">
        <ele>235.6</ele>
        <time>2025-10-18T11:44:42Z</time>
      </trkpt>
      <trkpt lat="43.21749" lon="5.48156">
        <ele>235.8</ele>
        <time>2025-10-18T11:44:43Z</time>
      </trkpt>
      <trkpt lat="43.21749" lon="5.48155">
        <ele>235.9</ele>
        <time>2025-10-18T11:44:44Z</time>
      </trkpt>
      <trkpt lat="43.21749" lon="5.48155">
        <ele>236</ele>
        <time>2025-10-18T11:44:45Z</time>
      </trkpt>
      <trkpt lat="43.21749" lon="5.48155">
        <ele>236.2</ele>
        <time>2025-10-18T11:44:46Z</time>
      </trkpt>
      <trkpt lat="43.21749" lon="5.48155">
        <ele>236.2</ele>
        <time>2025-10-18T11:44:47Z</time>
      </trkpt>
      <trkpt lat="43.21749" lon="5.48154">
        <ele>236.4</ele>
        <time>2025-10-18T11:44:48Z</time>
      </trkpt>
      <trkpt lat="43.21749" lon="5.48154">
        <ele>236.3</ele>
        <time>2025-10-18T11:44:49Z</time>
      </trkpt>
      <trkpt lat="43.2175" lon="5.48154">
        <ele>236.4</ele>
        <time>2025-10-18T11:44:50Z</time>
      </trkpt>
      <trkpt lat="43.2175" lon="5.48153">
        <ele>236.4</ele>
        <time>2025-10-18T11:44:51Z</time>
      </trkpt>
      <trkpt lat="43.2175" lon="5.48152">
        <ele>236.5</ele>
        <time>2025-10-18T11:44:52Z</time>
      </trkpt>
      <trkpt lat="43.2175" lon="5.48151">
        <ele>236.5</ele>
        <time>2025-10-18T11:44:53Z</time>
      </trkpt>
      <trkpt lat="43.21751" lon="5.4815">
        <ele>236.6</ele>
        <time>2025-10-18T11:44:54Z</time>
      </trkpt>
      <trkpt lat="43.21751" lon="5.4815">
        <ele>236.6</ele>
        <time>2025-10-18T11:44:55Z</time>
      </trkpt>
      <trkpt lat="43.21751" lon="5.48148">
        <ele>236.7</ele>
        <time>2025-10-18T11:44:56Z</time>
      </trkpt>
      <trkpt lat="43.21751" lon="5.48148">
        <ele>237</ele>
        <time>2025-10-18T11:44:57Z</time>
      </trkpt>
      <trkpt lat="43.21752" lon="5.48147">
        <ele>237.1</ele>
        <time>2025-10-18T11:44:58Z</time>
      </trkpt>
      <trkpt lat="43.21752" lon="5.48146">
        <ele>237.2</ele>
        <time>2025-10-18T11:44:59Z</time>
      </trkpt>
      <trkpt lat="43.21752" lon="5.48145">
        <ele>237.3</ele>
        <time>2025-10-18T11:45:00Z</time>
      </trkpt>
      <trkpt lat="43.21752" lon="5.48145">
        <ele>237.4</ele>
        <time>2025-10-18T11:45:01Z</time>
      </trkpt>
      <trkpt lat="43.21753" lon="5.48144">
        <ele>237.6</ele>
        <time>2025-10-18T11:45:02Z</time>
      </trkpt>
      <trkpt lat="43.21753" lon="5.48143">
        <ele>237.8</ele>
        <time>2025-10-18T11:45:03Z</time>
      </trkpt>
      <trkpt lat="43.21753" lon="5.48142">
        <ele>237.9</ele>
        <time>2025-10-18T11:45:04Z</time>
      </trkpt>
      <trkpt lat="43.21753" lon="5.48142">
        <ele>238.1</ele>
        <time>2025-10-18T11:45:05Z</time>
      </trkpt>
      <trkpt lat="43.21753" lon="5.48142">
        <ele>238.2</ele>
        <time>2025-10-18T11:45:06Z</time>
      </trkpt>
      <trkpt lat="43.21753" lon="5.48142">
        <ele>238.3</ele>
        <time>2025-10-18T11:45:07Z</time>
      </trkpt>
      <trkpt lat="43.21753" lon="5.48142">
        <ele>238.3</ele>
        <time>2025-10-18T11:45:08Z</time>
      </trkpt>
      <trkpt lat="43.21754" lon="5.48142">
        <ele>238.4</ele>
        <time>2025-10-18T11:45:09Z</time>
      </trkpt>
      <trkpt lat="43.21754" lon="5.48142">
        <ele>238.4</ele>
        <time>2025-10-18T11:45:10Z</time>
      </trkpt>
      <trkpt lat="43.21754" lon="5.48142">
        <ele>238.4</ele>
        <time>2025-10-18T11:45:11Z</time>
      </trkpt>
      <trkpt lat="43.21754" lon="5.48143">
        <ele>238.5</ele>
        <time>2025-10-18T11:45:12Z</time>
      </trkpt>
      <trkpt lat="43.21755" lon="5.48143">
        <ele>238.7</ele>
        <time>2025-10-18T11:45:13Z</time>
      </trkpt>
      <trkpt lat="43.21755" lon="5.48144">
        <ele>238.9</ele>
        <time>2025-10-18T11:45:14Z</time>
      </trkpt>
      <trkpt lat="43.21755" lon="5.48144">
        <ele>239</ele>
        <time>2025-10-18T11:45:15Z</time>
      </trkpt>
      <trkpt lat="43.21756" lon="5.48144">
        <ele>239.1</ele>
        <time>2025-10-18T11:45:16Z</time>
      </trkpt>
      <trkpt lat="43.21756" lon="5.48145">
        <ele>239.2</ele>
        <time>2025-10-18T11:45:17Z</time>
      </trkpt>
      <trkpt lat="43.21756" lon="5.48145">
        <ele>239.3</ele>
        <time>2025-10-18T11:45:18Z</time>
      </trkpt>
      <trkpt lat="43.21757" lon="5.48145">
        <ele>239.4</ele>
        <time>2025-10-18T11:45:19Z</time>
      </trkpt>
      <trkpt lat="43.21757" lon="5.48146">
        <ele>239.5</ele>
        <time>2025-10-18T11:45:20Z</time>
      </trkpt>
      <trkpt lat="43.21757" lon="5.48146">
        <ele>239.7</ele>
        <time>2025-10-18T11:45:21Z</time>
      </trkpt>
      <trkpt lat="43.21757" lon="5.48147">
        <ele>239.9</ele>
        <time>2025-10-18T11:45:22Z</time>
      </trkpt>
      <trkpt lat="43.21758" lon="5.48147">
        <ele>240</ele>
        <time>2025-10-18T11:45:23Z</time>
      </trkpt>
      <trkpt lat="43.21758" lon="5.48148">
        <ele>240.2</ele>
        <time>2025-10-18T11:45:24Z</time>
      </trkpt>
      <trkpt lat="43.21758" lon="5.48148">
        <ele>240.3</ele>
        <time>2025-10-18T11:45:25Z</time>
      </trkpt>
      <trkpt lat="43.21758" lon="5.48148">
        <ele>240.5</ele>
        <time>2025-10-18T11:45:26Z</time>
      </trkpt>
      <trkpt lat="43.21759" lon="5.48149">
        <ele>240.7</ele>
        <time>2025-10-18T11:45:27Z</time>
      </trkpt>
      <trkpt lat="43.21759" lon="5.48149">
        <ele>240.9</ele>
        <time>2025-10-18T11:45:28Z</time>
      </trkpt>
      <trkpt lat="43.21759" lon="5.4815">
        <ele>241.1</ele>
        <time>2025-10-18T11:45:29Z</time>
      </trkpt>
      <trkpt lat="43.2176" lon="5.4815">
        <ele>241.2</ele>
        <time>2025-10-18T11:45:30Z</time>
      </trkpt>
      <trkpt lat="43.2176" lon="5.48151">
        <ele>241.3</ele>
        <time>2025-10-18T11:45:31Z</time>
      </trkpt>
      <trkpt lat="43.2176" lon="5.48151">
        <ele>241.4</ele>
        <time>2025-10-18T11:45:32Z</time>
      </trkpt>
      <trkpt lat="43.21761" lon="5.48152">
        <ele>241.4</ele>
        <time>2025-10-18T11:45:33Z</time>
      </trkpt>
      <trkpt lat="43.21761" lon="5.48153">
        <ele>241.6</ele>
        <time>2025-10-18T11:45:34Z</time>
      </trkpt>
      <trkpt lat="43.21761" lon="5.48154">
        <ele>241.7</ele>
        <time>2025-10-18T11:45:35Z</time>
      </trkpt>
      <trkpt lat="43.21762" lon="5.48154">
        <ele>241.9</ele>
        <time>2025-10-18T11:45:36Z</time>
      </trkpt>
      <trkpt lat="43.21762" lon="5.48155">
        <ele>242</ele>
        <time>2025-10-18T11:45:37Z</time>
      </trkpt>
      <trkpt lat="43.21762" lon="5.48156">
        <ele>242.1</ele>
        <time>2025-10-18T11:45:38Z</time>
      </trkpt>
      <trkpt lat="43.21763" lon="5.48157">
        <ele>242.3</ele>
        <time>2025-10-18T11:45:39Z</time>
      </trkpt>
      <trkpt lat="43.21763" lon="5.48157">
        <ele>242.4</ele>
        <time>2025-10-18T11:45:40Z</time>
      </trkpt>
      <trkpt lat="43.21763" lon="5.48158">
        <ele>242.6</ele>
        <time>2025-10-18T11:45:41Z</time>
      </trkpt>
      <trkpt lat="43.21763" lon="5.48158">
        <ele>242.7</ele>
        <time>2025-10-18T11:45:42Z</time>
      </trkpt>
      <trkpt lat="43.21763" lon="5.48158">
        <ele>242.9</ele>
        <time>2025-10-18T11:45:43Z</time>
      </trkpt>
      <trkpt lat="43.21763" lon="5.48159">
        <ele>243</ele>
        <time>2025-10-18T11:45:44Z</time>
      </trkpt>
      <trkpt lat="43.21763" lon="5.4816">
        <ele>243.2</ele>
        <time>2025-10-18T11:45:45Z</time>
      </trkpt>
      <trkpt lat="43.21764" lon="5.4816">
        <ele>243.3</ele>
        <time>2025-10-18T11:45:46Z</time>
      </trkpt>
      <trkpt lat="43.21764" lon="5.4816">
        <ele>243.5</ele>
        <time>2025-10-18T11:45:47Z</time>
      </trkpt>
      <trkpt lat="43.21765" lon="5.48159">
        <ele>243.7</ele>
        <time>2025-10-18T11:45:48Z</time>
      </trkpt>
      <trkpt lat="43.21765" lon="5.48159">
        <ele>243.9</ele>
        <time>2025-10-18T11:45:49Z</time>
      </trkpt>
      <trkpt lat="43.21766" lon="5.48158">
        <ele>244.1</ele>
        <time>2025-10-18T11:45:50Z</time>
      </trkpt>
      <trkpt lat="43.21766" lon="5.48157">
        <ele>244.2</ele>
        <time>2025-10-18T11:45:51Z</time>
      </trkpt>
      <trkpt lat="43.21766" lon="5.48157">
        <ele>244.3</ele>
        <time>2025-10-18T11:45:52Z</time>
      </trkpt>
      <trkpt lat="43.21766" lon="5.48156">
        <ele>244.5</ele>
        <time>2025-10-18T11:45:53Z</time>
      </trkpt>
      <trkpt lat="43.21766" lon="5.48156">
        <ele>244.6</ele>
        <time>2025-10-18T11:45:54Z</time>
      </trkpt>
      <trkpt lat="43.21766" lon="5.48155">
        <ele>244.8</ele>
        <time>2025-10-18T11:45:55Z</time>
      </trkpt>
      <trkpt lat="43.21766" lon="5.48155">
        <ele>244.9</ele>
        <time>2025-10-18T11:45:56Z</time>
      </trkpt>
      <trkpt lat="43.21767" lon="5.48155">
        <ele>245.1</ele>
        <time>2025-10-18T11:45:57Z</time>
      </trkpt>
      <trkpt lat="43.21767" lon="5.48155">
        <ele>245.3</ele>
        <time>2025-10-18T11:45:58Z</time>
      </trkpt>
      <trkpt lat="43.21767" lon="5.48154">
        <ele>245.5</ele>
        <time>2025-10-18T11:45:59Z</time>
      </trkpt>
      <trkpt lat="43.21767" lon="5.48153">
        <ele>245.6</ele>
        <time>2025-10-18T11:46:00Z</time>
      </trkpt>
      <trkpt lat="43.21767" lon="5.48153">
        <ele>245.7</ele>
        <time>2025-10-18T11:46:01Z</time>
      </trkpt>
      <trkpt lat="43.21767" lon="5.48153">
        <ele>245.8</ele>
        <time>2025-10-18T11:46:02Z</time>
      </trkpt>
      <trkpt lat="43.21768" lon="5.48153">
        <ele>245.9</ele>
        <time>2025-10-18T11:46:03Z</time>
      </trkpt>
      <trkpt lat="43.21768" lon="5.48153">
        <ele>246</ele>
        <time>2025-10-18T11:46:04Z</time>
      </trkpt>
      <trkpt lat="43.21769" lon="5.48154">
        <ele>246.1</ele>
        <time>2025-10-18T11:46:05Z</time>
      </trkpt>
      <trkpt lat="43.21769" lon="5.48154">
        <ele>246.2</ele>
        <time>2025-10-18T11:46:06Z</time>
      </trkpt>
      <trkpt lat="43.21769" lon="5.48155">
        <ele>246.3</ele>
        <time>2025-10-18T11:46:07Z</time>
      </trkpt>
      <trkpt lat="43.2177" lon="5.48156">
        <ele>246.4</ele>
        <time>2025-10-18T11:46:08Z</time>
      </trkpt>
      <trkpt lat="43.2177" lon="5.48157">
        <ele>246.6</ele>
        <time>2025-10-18T11:46:09Z</time>
      </trkpt>
      <trkpt lat="43.2177" lon="5.48158">
        <ele>246.8</ele>
        <time>2025-10-18T11:46:10Z</time>
      </trkpt>
      <trkpt lat="43.21771" lon="5.48158">
        <ele>246.9</ele>
        <time>2025-10-18T11:46:11Z</time>
      </trkpt>
      <trkpt lat="43.21771" lon="5.48159">
        <ele>247.2</ele>
        <time>2025-10-18T11:46:12Z</time>
      </trkpt>
      <trkpt lat="43.21771" lon="5.4816">
        <ele>247.3</ele>
        <time>2025-10-18T11:46:13Z</time>
      </trkpt>
      <trkpt lat="43.21771" lon="5.48161">
        <ele>247.5</ele>
        <time>2025-10-18T11:46:14Z</time>
      </trkpt>
      <trkpt lat="43.21772" lon="5.48161">
        <ele>247.7</ele>
        <time>2025-10-18T11:46:15Z</time>
      </trkpt>
      <trkpt lat="43.21772" lon="5.48162">
        <ele>247.8</ele>
        <time>2025-10-18T11:46:16Z</time>
      </trkpt>
      <trkpt lat="43.21772" lon="5.48163">
        <ele>247.9</ele>
        <time>2025-10-18T11:46:17Z</time>
      </trkpt>
      <trkpt lat="43.21772" lon="5.48163">
        <ele>248.1</ele>
        <time>2025-10-18T11:46:18Z</time>
      </trkpt>
      <trkpt lat="43.21772" lon="5.48164">
        <ele>248.2</ele>
        <time>2025-10-18T11:46:19Z</time>
      </trkpt>
      <trkpt lat="43.21772" lon="5.48164">
        <ele>248.4</ele>
        <time>2025-10-18T11:46:20Z</time>
      </trkpt>
      <trkpt lat="43.21772" lon="5.48165">
        <ele>248.5</ele>
        <time>2025-10-18T11:46:21Z</time>
      </trkpt>
      <trkpt lat="43.21773" lon="5.48166">
        <ele>248.6</ele>
        <time>2025-10-18T11:46:22Z</time>
      </trkpt>
      <trkpt lat="43.21773" lon="5.48166">
        <ele>248.8</ele>
        <time>2025-10-18T11:46:23Z</time>
      </trkpt>
      <trkpt lat="43.21773" lon="5.48167">
        <ele>248.9</ele>
        <time>2025-10-18T11:46:24Z</time>
      </trkpt>
      <trkpt lat="43.21773" lon="5.48168">
        <ele>249.1</ele>
        <time>2025-10-18T11:46:25Z</time>
      </trkpt>
      <trkpt lat="43.21773" lon="5.48169">
        <ele>249.2</ele>
        <time>2025-10-18T11:46:26Z</time>
      </trkpt>
      <trkpt lat="43.21773" lon="5.48169">
        <ele>249.3</ele>
        <time>2025-10-18T11:46:27Z</time>
      </trkpt>
      <trkpt lat="43.21773" lon="5.4817">
        <ele>249.4</ele>
        <time>2025-10-18T11:46:28Z</time>
      </trkpt>
      <trkpt lat="43.21773" lon="5.48171">
        <ele>249.6</ele>
        <time>2025-10-18T11:46:29Z</time>
      </trkpt>
      <trkpt lat="43.21774" lon="5.48172">
        <ele>249.8</ele>
        <time>2025-10-18T11:46:30Z</time>
      </trkpt>
      <trkpt lat="43.21774" lon="5.48172">
        <ele>249.9</ele>
        <time>2025-10-18T11:46:31Z</time>
      </trkpt>
      <trkpt lat="43.21775" lon="5.48172">
        <ele>250</ele>
        <time>2025-10-18T11:46:32Z</time>
      </trkpt>
      <trkpt lat="43.21776" lon="5.48172">
        <ele>250.2</ele>
        <time>2025-10-18T11:46:33Z</time>
      </trkpt>
      <trkpt lat="43.21776" lon="5.48172">
        <ele>250.4</ele>
        <time>2025-10-18T11:46:34Z</time>
      </trkpt>
      <trkpt lat="43.21777" lon="5.48171">
        <ele>250.5</ele>
        <time>2025-10-18T11:46:35Z</time>
      </trkpt>
      <trkpt lat="43.21777" lon="5.48171">
        <ele>250.7</ele>
        <time>2025-10-18T11:46:36Z</time>
      </trkpt>
      <trkpt lat="43.21778" lon="5.4817">
        <ele>250.8</ele>
        <time>2025-10-18T11:46:37Z</time>
      </trkpt>
      <trkpt lat="43.21778" lon="5.4817">
        <ele>251.1</ele>
        <time>2025-10-18T11:46:38Z</time>
      </trkpt>
      <trkpt lat="43.21778" lon="5.48169">
        <ele>251.3</ele>
        <time>2025-10-18T11:46:39Z</time>
      </trkpt>
      <trkpt lat="43.21779" lon="5.48168">
        <ele>251.4</ele>
        <time>2025-10-18T11:46:40Z</time>
      </trkpt>
      <trkpt lat="43.21779" lon="5.48168">
        <ele>251.5</ele>
        <time>2025-10-18T11:46:41Z</time>
      </trkpt>
      <trkpt lat="43.2178" lon="5.48168">
        <ele>251.6</ele>
        <time>2025-10-18T11:46:42Z</time>
      </trkpt>
      <trkpt lat="43.2178" lon="5.48167">
        <ele>251.7</ele>
        <time>2025-10-18T11:46:43Z</time>
      </trkpt>
      <trkpt lat="43.21781" lon="5.48167">
        <ele>251.7</ele>
        <time>2025-10-18T11:46:44Z</time>
      </trkpt>
      <trkpt lat="43.21781" lon="5.48166">
        <ele>251.8</ele>
        <time>2025-10-18T11:46:45Z</time>
      </trkpt>
      <trkpt lat="43.21782" lon="5.48166">
        <ele>251.9</ele>
        <time>2025-10-18T11:46:46Z</time>
      </trkpt>
      <trkpt lat="43.21782" lon="5.48165">
        <ele>252</ele>
        <time>2025-10-18T11:46:47Z</time>
      </trkpt>
      <trkpt lat="43.21782" lon="5.48165">
        <ele>252</ele>
        <time>2025-10-18T11:46:48Z</time>
      </trkpt>
      <trkpt lat="43.21783" lon="5.48165">
        <ele>252.1</ele>
        <time>2025-10-18T11:46:49Z</time>
      </trkpt>
      <trkpt lat="43.21783" lon="5.48164">
        <ele>252.2</ele>
        <time>2025-10-18T11:46:50Z</time>
      </trkpt>
      <trkpt lat="43.21783" lon="5.48163">
        <ele>252.2</ele>
        <time>2025-10-18T11:46:51Z</time>
      </trkpt>
      <trkpt lat="43.21784" lon="5.48163">
        <ele>252.3</ele>
        <time>2025-10-18T11:46:52Z</time>
      </trkpt>
      <trkpt lat="43.21784" lon="5.48162">
        <ele>252.3</ele>
        <time>2025-10-18T11:46:53Z</time>
      </trkpt>
      <trkpt lat="43.21784" lon="5.48161">
        <ele>252.4</ele>
        <time>2025-10-18T11:46:54Z</time>
      </trkpt>
      <trkpt lat="43.21784" lon="5.48161">
        <ele>252.4</ele>
        <time>2025-10-18T11:46:55Z</time>
      </trkpt>
      <trkpt lat="43.21784" lon="5.48161">
        <ele>252.4</ele>
        <time>2025-10-18T11:46:56Z</time>
      </trkpt>
      <trkpt lat="43.21784" lon="5.48161">
        <ele>252.5</ele>
        <time>2025-10-18T11:46:57Z</time>
      </trkpt>
      <trkpt lat="43.21784" lon="5.48161">
        <ele>252.6</ele>
        <time>2025-10-18T11:46:58Z</time>
      </trkpt>
      <trkpt lat="43.21784" lon="5.48161">
        <ele>252.8</ele>
        <time>2025-10-18T11:46:59Z</time>
      </trkpt>
      <trkpt lat="43.21784" lon="5.48161">
        <ele>252.9</ele>
        <time>2025-10-18T11:47:00Z</time>
      </trkpt>
      <trkpt lat="43.21784" lon="5.48162">
        <ele>253</ele>
        <time>2025-10-18T11:47:01Z</time>
      </trkpt>
      <trkpt lat="43.21784" lon="5.48162">
        <ele>253</ele>
        <time>2025-10-18T11:47:02Z</time>
      </trkpt>
      <trkpt lat="43.21784" lon="5.48162">
        <ele>253</ele>
        <time>2025-10-18T11:47:03Z</time>
      </trkpt>
      <trkpt lat="43.21784" lon="5.48162">
        <ele>253</ele>
        <time>2025-10-18T11:47:04Z</time>
      </trkpt>
      <trkpt lat="43.21784" lon="5.48162">
        <ele>253</ele>
        <time>2025-10-18T11:47:05Z</time>
      </trkpt>
      <trkpt lat="43.21784" lon="5.48161">
        <ele>252.9</ele>
        <time>2025-10-18T11:47:06Z</time>
      </trkpt>
      <trkpt lat="43.21785" lon="5.48161">
        <ele>253</ele>
        <time>2025-10-18T11:47:07Z</time>
      </trkpt>
      <trkpt lat="43.21786" lon="5.48161">
        <ele>253</ele>
        <time>2025-10-18T11:47:08Z</time>
      </trkpt>
      <trkpt lat="43.21786" lon="5.4816">
        <ele>253</ele>
        <time>2025-10-18T11:47:09Z</time>
      </trkpt>
      <trkpt lat="43.21787" lon="5.48159">
        <ele>253.1</ele>
        <time>2025-10-18T11:47:10Z</time>
      </trkpt>
      <trkpt lat="43.21787" lon="5.48159">
        <ele>253.2</ele>
        <time>2025-10-18T11:47:11Z</time>
      </trkpt>
      <trkpt lat="43.21788" lon="5.48158">
        <ele>253.4</ele>
        <time>2025-10-18T11:47:12Z</time>
      </trkpt>
      <trkpt lat="43.21789" lon="5.48157">
        <ele>253.7</ele>
        <time>2025-10-18T11:47:13Z</time>
      </trkpt>
      <trkpt lat="43.2179" lon="5.48157">
        <ele>253.8</ele>
        <time>2025-10-18T11:47:14Z</time>
      </trkpt>
      <trkpt lat="43.2179" lon="5.48156">
        <ele>253.9</ele>
        <time>2025-10-18T11:47:15Z</time>
      </trkpt>
      <trkpt lat="43.2179" lon="5.48155">
        <ele>254.1</ele>
        <time>2025-10-18T11:47:16Z</time>
      </trkpt>
      <trkpt lat="43.21791" lon="5.48153">
        <ele>254.3</ele>
        <time>2025-10-18T11:47:17Z</time>
      </trkpt>
      <trkpt lat="43.21791" lon="5.48152">
        <ele>254.5</ele>
        <time>2025-10-18T11:47:18Z</time>
      </trkpt>
      <trkpt lat="43.21793" lon="5.48151">
        <ele>254.7</ele>
        <time>2025-10-18T11:47:19Z</time>
      </trkpt>
      <trkpt lat="43.21794" lon="5.4815">
        <ele>254.8</ele>
        <time>2025-10-18T11:47:20Z</time>
      </trkpt>
      <trkpt lat="43.21795" lon="5.48149">
        <ele>255</ele>
        <time>2025-10-18T11:47:21Z</time>
      </trkpt>
      <trkpt lat="43.21796" lon="5.48148">
        <ele>255.2</ele>
        <time>2025-10-18T11:47:22Z</time>
      </trkpt>
      <trkpt lat="43.21797" lon="5.48146">
        <ele>255.3</ele>
        <time>2025-10-18T11:47:23Z</time>
      </trkpt>
      <trkpt lat="43.21797" lon="5.48145">
        <ele>255.4</ele>
        <time>2025-10-18T11:47:24Z</time>
      </trkpt>
      <trkpt lat="43.21798" lon="5.48144">
        <ele>255.5</ele>
        <time>2025-10-18T11:47:25Z</time>
      </trkpt>
      <trkpt lat="43.21799" lon="5.48143">
        <ele>255.7</ele>
        <time>2025-10-18T11:47:26Z</time>
      </trkpt>
      <trkpt lat="43.21799" lon="5.48141">
        <ele>255.9</ele>
        <time>2025-10-18T11:47:27Z</time>
      </trkpt>
      <trkpt lat="43.218" lon="5.4814">
        <ele>256</ele>
        <time>2025-10-18T11:47:28Z</time>
      </trkpt>
      <trkpt lat="43.218" lon="5.48139">
        <ele>256</ele>
        <time>2025-10-18T11:47:29Z</time>
      </trkpt>
      <trkpt lat="43.21801" lon="5.48138">
        <ele>256.1</ele>
        <time>2025-10-18T11:47:30Z</time>
      </trkpt>
      <trkpt lat="43.21801" lon="5.48137">
        <ele>256.1</ele>
        <time>2025-10-18T11:47:31Z</time>
      </trkpt>
      <trkpt lat="43.21802" lon="5.48136">
        <ele>256.2</ele>
        <time>2025-10-18T11:47:32Z</time>
      </trkpt>
      <trkpt lat="43.21803" lon="5.48135">
        <ele>256.3</ele>
        <time>2025-10-18T11:47:33Z</time>
      </trkpt>
      <trkpt lat="43.21803" lon="5.48134">
        <ele>256.4</ele>
        <time>2025-10-18T11:47:34Z</time>
      </trkpt>
      <trkpt lat="43.21804" lon="5.48133">
        <ele>256.4</ele>
        <time>2025-10-18T11:47:35Z</time>
      </trkpt>
      <trkpt lat="43.21804" lon="5.48132">
        <ele>256.4</ele>
        <time>2025-10-18T11:47:36Z</time>
      </trkpt>
      <trkpt lat="43.21805" lon="5.48131">
        <ele>256.4</ele>
        <time>2025-10-18T11:47:37Z</time>
      </trkpt>
      <trkpt lat="43.21806" lon="5.4813">
        <ele>256.3</ele>
        <time>2025-10-18T11:47:38Z</time>
      </trkpt>
      <trkpt lat="43.21806" lon="5.48129">
        <ele>256.4</ele>
        <time>2025-10-18T11:47:39Z</time>
      </trkpt>
      <trkpt lat="43.21807" lon="5.48128">
        <ele>256.3</ele>
        <time>2025-10-18T11:47:40Z</time>
      </trkpt>
      <trkpt lat="43.21807" lon="5.48127">
        <ele>256.3</ele>
        <time>2025-10-18T11:47:41Z</time>
      </trkpt>
      <trkpt lat="43.21808" lon="5.48127">
        <ele>256.3</ele>
        <time>2025-10-18T11:47:42Z</time>
      </trkpt>
      <trkpt lat="43.21808" lon="5.48126">
        <ele>256.2</ele>
        <time>2025-10-18T11:47:43Z</time>
      </trkpt>
      <trkpt lat="43.21809" lon="5.48125">
        <ele>256.3</ele>
        <time>2025-10-18T11:47:44Z</time>
      </trkpt>
      <trkpt lat="43.21809" lon="5.48123">
        <ele>256.4</ele>
        <time>2025-10-18T11:47:45Z</time>
      </trkpt>
      <trkpt lat="43.2181" lon="5.48122">
        <ele>256.4</ele>
        <time>2025-10-18T11:47:46Z</time>
      </trkpt>
      <trkpt lat="43.21811" lon="5.48121">
        <ele>256.3</ele>
        <time>2025-10-18T11:47:47Z</time>
      </trkpt>
      <trkpt lat="43.21811" lon="5.4812">
        <ele>256.4</ele>
        <time>2025-10-18T11:47:48Z</time>
      </trkpt>
      <trkpt lat="43.21812" lon="5.48119">
        <ele>256.4</ele>
        <time>2025-10-18T11:47:49Z</time>
      </trkpt>
      <trkpt lat="43.21813" lon="5.48118">
        <ele>256.2</ele>
        <time>2025-10-18T11:47:50Z</time>
      </trkpt>
      <trkpt lat="43.21813" lon="5.48117">
        <ele>256.1</ele>
        <time>2025-10-18T11:47:51Z</time>
      </trkpt>
      <trkpt lat="43.21814" lon="5.48116">
        <ele>256.2</ele>
        <time>2025-10-18T11:47:52Z</time>
      </trkpt>
      <trkpt lat="43.21815" lon="5.48115">
        <ele>256.3</ele>
        <time>2025-10-18T11:47:53Z</time>
      </trkpt>
      <trkpt lat="43.21815" lon="5.48113">
        <ele>256.5</ele>
        <time>2025-10-18T11:47:54Z</time>
      </trkpt>
      <trkpt lat="43.21816" lon="5.48112">
        <ele>256.5</ele>
        <time>2025-10-18T11:47:55Z</time>
      </trkpt>
      <trkpt lat="43.21817" lon="5.48111">
        <ele>256.5</ele>
        <time>2025-10-18T11:47:56Z</time>
      </trkpt>
      <trkpt lat="43.21817" lon="5.4811">
        <ele>256.6</ele>
        <time>2025-10-18T11:47:57Z</time>
      </trkpt>
      <trkpt lat="43.21818" lon="5.48109">
        <ele>256.6</ele>
        <time>2025-10-18T11:47:58Z</time>
      </trkpt>
      <trkpt lat="43.21819" lon="5.48108">
        <ele>256.7</ele>
        <time>2025-10-18T11:47:59Z</time>
      </trkpt>
      <trkpt lat="43.2182" lon="5.48107">
        <ele>256.7</ele>
        <time>2025-10-18T11:48:00Z</time>
      </trkpt>
      <trkpt lat="43.2182" lon="5.48106">
        <ele>256.7</ele>
        <time>2025-10-18T11:48:01Z</time>
      </trkpt>
      <trkpt lat="43.21821" lon="5.48105">
        <ele>256.7</ele>
        <time>2025-10-18T11:48:02Z</time>
      </trkpt>
      <trkpt lat="43.21821" lon="5.48103">
        <ele>256.8</ele>
        <time>2025-10-18T11:48:03Z</time>
      </trkpt>
      <trkpt lat="43.21822" lon="5.48102">
        <ele>256.8</ele>
        <time>2025-10-18T11:48:04Z</time>
      </trkpt>
      <trkpt lat="43.21822" lon="5.48101">
        <ele>256.8</ele>
        <time>2025-10-18T11:48:05Z</time>
      </trkpt>
      <trkpt lat="43.21823" lon="5.481">
        <ele>256.9</ele>
        <time>2025-10-18T11:48:06Z</time>
      </trkpt>
      <trkpt lat="43.21824" lon="5.48099">
        <ele>256.9</ele>
        <time>2025-10-18T11:48:07Z</time>
      </trkpt>
      <trkpt lat="43.21825" lon="5.48098">
        <ele>257</ele>
        <time>2025-10-18T11:48:08Z</time>
      </trkpt>
      <trkpt lat="43.21826" lon="5.48097">
        <ele>257</ele>
        <time>2025-10-18T11:48:09Z</time>
      </trkpt>
      <trkpt lat="43.21827" lon="5.48096">
        <ele>257</ele>
        <time>2025-10-18T11:48:10Z</time>
      </trkpt>
      <trkpt lat="43.21827" lon="5.48095">
        <ele>257</ele>
        <time>2025-10-18T11:48:11Z</time>
      </trkpt>
      <trkpt lat="43.21828" lon="5.48094">
        <ele>257</ele>
        <time>2025-10-18T11:48:12Z</time>
      </trkpt>
      <trkpt lat="43.21829" lon="5.48094">
        <ele>257.1</ele>
        <time>2025-10-18T11:48:13Z</time>
      </trkpt>
      <trkpt lat="43.21829" lon="5.48093">
        <ele>257.3</ele>
        <time>2025-10-18T11:48:14Z</time>
      </trkpt>
      <trkpt lat="43.2183" lon="5.48092">
        <ele>257.4</ele>
        <time>2025-10-18T11:48:15Z</time>
      </trkpt>
      <trkpt lat="43.21831" lon="5.48092">
        <ele>257.5</ele>
        <time>2025-10-18T11:48:16Z</time>
      </trkpt>
      <trkpt lat="43.21832" lon="5.48091">
        <ele>257.5</ele>
        <time>2025-10-18T11:48:17Z</time>
      </trkpt>
      <trkpt lat="43.21832" lon="5.4809">
        <ele>257.5</ele>
        <time>2025-10-18T11:48:18Z</time>
      </trkpt>
      <trkpt lat="43.21833" lon="5.4809">
        <ele>257.5</ele>
        <time>2025-10-18T11:48:19Z</time>
      </trkpt>
      <trkpt lat="43.21834" lon="5.48089">
        <ele>257.5</ele>
        <time>2025-10-18T11:48:20Z</time>
      </trkpt>
      <trkpt lat="43.21835" lon="5.48089">
        <ele>257.6</ele>
        <time>2025-10-18T11:48:21Z</time>
      </trkpt>
      <trkpt lat="43.21836" lon="5.48088">
        <ele>257.7</ele>
        <time>2025-10-18T11:48:22Z</time>
      </trkpt>
      <trkpt lat="43.21837" lon="5.48087">
        <ele>257.6</ele>
        <time>2025-10-18T11:48:23Z</time>
      </trkpt>
      <trkpt lat="43.21837" lon="5.48087">
        <ele>257.6</ele>
        <time>2025-10-18T11:48:24Z</time>
      </trkpt>
      <trkpt lat="43.21838" lon="5.48086">
        <ele>257.6</ele>
        <time>2025-10-18T11:48:25Z</time>
      </trkpt>
      <trkpt lat="43.21838" lon="5.48086">
        <ele>257.6</ele>
        <time>2025-10-18T11:48:26Z</time>
      </trkpt>
      <trkpt lat="43.21839" lon="5.48086">
        <ele>257.6</ele>
        <time>2025-10-18T11:48:27Z</time>
      </trkpt>
      <trkpt lat="43.2184" lon="5.48085">
        <ele>257.7</ele>
        <time>2025-10-18T11:48:28Z</time>
      </trkpt>
      <trkpt lat="43.2184" lon="5.48085">
        <ele>257.8</ele>
        <time>2025-10-18T11:48:29Z</time>
      </trkpt>
      <trkpt lat="43.2184" lon="5.48084">
        <ele>257.8</ele>
        <time>2025-10-18T11:48:30Z</time>
      </trkpt>
      <trkpt lat="43.2184" lon="5.48084">
        <ele>257.8</ele>
        <time>2025-10-18T11:48:31Z</time>
      </trkpt>
      <trkpt lat="43.2184" lon="5.48084">
        <ele>257.9</ele>
        <time>2025-10-18T11:48:32Z</time>
      </trkpt>
      <trkpt lat="43.2184" lon="5.48084">
        <ele>258</ele>
        <time>2025-10-18T11:48:33Z</time>
      </trkpt>
      <trkpt lat="43.2184" lon="5.48084">
        <ele>258.1</ele>
        <time>2025-10-18T11:48:34Z</time>
      </trkpt>
      <trkpt lat="43.2184" lon="5.48084">
        <ele>258.2</ele>
        <time>2025-10-18T11:48:35Z</time>
      </trkpt>
      <trkpt lat="43.2184" lon="5.48084">
        <ele>258.2</ele>
        <time>2025-10-18T11:48:36Z</time>
      </trkpt>
      <trkpt lat="43.2184" lon="5.48083">
        <ele>258.2</ele>
        <time>2025-10-18T11:48:37Z</time>
      </trkpt>
      <trkpt lat="43.2184" lon="5.48083">
        <ele>258.2</ele>
        <time>2025-10-18T11:48:38Z</time>
      </trkpt>
      <trkpt lat="43.2184" lon="5.48083">
        <ele>258.1</ele>
        <time>2025-10-18T11:48:39Z</time>
      </trkpt>
      <trkpt lat="43.2184" lon="5.48083">
        <ele>258</ele>
        <time>2025-10-18T11:48:40Z</time>
      </trkpt>
      <trkpt lat="43.2184" lon="5.48083">
        <ele>257.9</ele>
        <time>2025-10-18T11:48:41Z</time>
      </trkpt>
      <trkpt lat="43.2184" lon="5.48083">
        <ele>257.9</ele>
        <time>2025-10-18T11:48:42Z</time>
      </trkpt>
      <trkpt lat="43.2184" lon="5.48083">
        <ele>258</ele>
        <time>2025-10-18T11:48:43Z</time>
      </trkpt>
      <trkpt lat="43.2184" lon="5.48083">
        <ele>258</ele>
        <time>2025-10-18T11:48:44Z</time>
      </trkpt>
      <trkpt lat="43.2184" lon="5.48083">
        <ele>258</ele>
        <time>2025-10-18T11:48:45Z</time>
      </trkpt>
      <trkpt lat="43.2184" lon="5.48083">
        <ele>258</ele>
        <time>2025-10-18T11:48:46Z</time>
      </trkpt>
      <trkpt lat="43.2184" lon="5.48082">
        <ele>258.1</ele>
        <time>2025-10-18T11:48:47Z</time>
      </trkpt>
      <trkpt lat="43.21841" lon="5.48082">
        <ele>258.1</ele>
        <time>2025-10-18T11:48:48Z</time>
      </trkpt>
      <trkpt lat="43.21841" lon="5.48082">
        <ele>258.2</ele>
        <time>2025-10-18T11:48:49Z</time>
      </trkpt>
      <trkpt lat="43.21841" lon="5.48082">
        <ele>258.1</ele>
        <time>2025-10-18T11:48:50Z</time>
      </trkpt>
      <trkpt lat="43.21841" lon="5.48082">
        <ele>258.1</ele>
        <time>2025-10-18T11:48:51Z</time>
      </trkpt>
      <trkpt lat="43.21842" lon="5.48082">
        <ele>258</ele>
        <time>2025-10-18T11:48:52Z</time>
      </trkpt>
      <trkpt lat="43.21842" lon="5.48082">
        <ele>258</ele>
        <time>2025-10-18T11:48:53Z</time>
      </trkpt>
      <trkpt lat="43.21843" lon="5.48082">
        <ele>258</ele>
        <time>2025-10-18T11:48:54Z</time>
      </trkpt>
      <trkpt lat="43.21843" lon="5.48081">
        <ele>258</ele>
        <time>2025-10-18T11:48:55Z</time>
      </trkpt>
      <trkpt lat="43.21843" lon="5.48081">
        <ele>258</ele>
        <time>2025-10-18T11:48:56Z</time>
      </trkpt>
      <trkpt lat="43.21843" lon="5.48081">
        <ele>257.9</ele>
        <time>2025-10-18T11:48:57Z</time>
      </trkpt>
      <trkpt lat="43.21843" lon="5.48082">
        <ele>257.9</ele>
        <time>2025-10-18T11:48:58Z</time>
      </trkpt>
      <trkpt lat="43.21843" lon="5.48082">
        <ele>257.9</ele>
        <time>2025-10-18T11:48:59Z</time>
      </trkpt>
      <trkpt lat="43.21843" lon="5.48082">
        <ele>257.9</ele>
        <time>2025-10-18T11:49:00Z</time>
      </trkpt>
      <trkpt lat="43.21843" lon="5.48082">
        <ele>257.9</ele>
        <time>2025-10-18T11:49:01Z</time>
      </trkpt>
      <trkpt lat="43.21843" lon="5.48082">
        <ele>257.8</ele>
        <time>2025-10-18T11:49:02Z</time>
      </trkpt>
      <trkpt lat="43.21842" lon="5.48082">
        <ele>257.7</ele>
        <time>2025-10-18T11:49:03Z</time>
      </trkpt>
      <trkpt lat="43.21842" lon="5.48082">
        <ele>257.7</ele>
        <time>2025-10-18T11:49:04Z</time>
      </trkpt>
      <trkpt lat="43.21842" lon="5.48082">
        <ele>257.7</ele>
        <time>2025-10-18T11:49:05Z</time>
      </trkpt>
      <trkpt lat="43.21842" lon="5.48082">
        <ele>257.8</ele>
        <time>2025-10-18T11:49:06Z</time>
      </trkpt>
      <trkpt lat="43.21842" lon="5.48082">
        <ele>257.8</ele>
        <time>2025-10-18T11:49:07Z</time>
      </trkpt>
      <trkpt lat="43.21842" lon="5.48082">
        <ele>257.7</ele>
        <time>2025-10-18T11:49:08Z</time>
      </trkpt>
      <trkpt lat="43.21842" lon="5.48082">
        <ele>257.7</ele>
        <time>2025-10-18T11:49:09Z</time>
      </trkpt>
      <trkpt lat="43.21842" lon="5.48082">
        <ele>257.6</ele>
        <time>2025-10-18T11:49:10Z</time>
      </trkpt>
      <trkpt lat="43.21842" lon="5.48082">
        <ele>257.6</ele>
        <time>2025-10-18T11:49:11Z</time>
      </trkpt>
      <trkpt lat="43.21842" lon="5.48082">
        <ele>257.5</ele>
        <time>2025-10-18T11:49:12Z</time>
      </trkpt>
      <trkpt lat="43.21841" lon="5.48082">
        <ele>257.5</ele>
        <time>2025-10-18T11:49:13Z</time>
      </trkpt>
      <trkpt lat="43.21841" lon="5.48082">
        <ele>257.5</ele>
        <time>2025-10-18T11:49:14Z</time>
      </trkpt>
      <trkpt lat="43.21841" lon="5.48082">
        <ele>257.6</ele>
        <time>2025-10-18T11:49:15Z</time>
      </trkpt>
      <trkpt lat="43.21841" lon="5.48082">
        <ele>257.6</ele>
        <time>2025-10-18T11:49:16Z</time>
      </trkpt>
      <trkpt lat="43.21842" lon="5.48082">
        <ele>257.6</ele>
        <time>2025-10-18T11:49:17Z</time>
      </trkpt>
      <trkpt lat="43.21842" lon="5.48082">
        <ele>257.6</ele>
        <time>2025-10-18T11:49:18Z</time>
      </trkpt>
      <trkpt lat="43.21842" lon="5.48081">
        <ele>257.6</ele>
        <time>2025-10-18T11:49:19Z</time>
      </trkpt>
      <trkpt lat="43.21843" lon="5.48081">
        <ele>257.6</ele>
        <time>2025-10-18T11:49:20Z</time>
      </trkpt>
      <trkpt lat="43.21844" lon="5.4808">
        <ele>257.5</ele>
        <time>2025-10-18T11:49:21Z</time>
      </trkpt>
      <trkpt lat="43.21845" lon="5.4808">
        <ele>257.5</ele>
        <time>2025-10-18T11:49:22Z</time>
      </trkpt>
      <trkpt lat="43.21846" lon="5.4808">
        <ele>257.5</ele>
        <time>2025-10-18T11:49:23Z</time>
      </trkpt>
      <trkpt lat="43.21846" lon="5.48079">
        <ele>257.5</ele>
        <time>2025-10-18T11:49:24Z</time>
      </trkpt>
      <trkpt lat="43.21847" lon="5.48079">
        <ele>257.6</ele>
        <time>2025-10-18T11:49:25Z</time>
      </trkpt>
      <trkpt lat="43.21847" lon="5.48079">
        <ele>257.8</ele>
        <time>2025-10-18T11:49:26Z</time>
      </trkpt>
      <trkpt lat="43.21847" lon="5.48079">
        <ele>257.8</ele>
        <time>2025-10-18T11:49:27Z</time>
      </trkpt>
      <trkpt lat="43.21847" lon="5.48079">
        <ele>257.9</ele>
        <time>2025-10-18T11:49:28Z</time>
      </trkpt>
      <trkpt lat="43.21847" lon="5.48079">
        <ele>257.9</ele>
        <time>2025-10-18T11:49:29Z</time>
      </trkpt>
      <trkpt lat="43.21847" lon="5.48079">
        <ele>257.9</ele>
        <time>2025-10-18T11:49:30Z</time>
      </trkpt>
      <trkpt lat="43.21847" lon="5.48079">
        <ele>257.8</ele>
        <time>2025-10-18T11:49:31Z</time>
      </trkpt>
      <trkpt lat="43.21847" lon="5.48079">
        <ele>257.8</ele>
        <time>2025-10-18T11:49:32Z</time>
      </trkpt>
      <trkpt lat="43.21847" lon="5.48079">
        <ele>257.9</ele>
        <time>2025-10-18T11:49:33Z</time>
      </trkpt>
      <trkpt lat="43.21847" lon="5.48078">
        <ele>257.9</ele>
        <time>2025-10-18T11:49:34Z</time>
      </trkpt>
      <trkpt lat="43.21847" lon="5.48078">
        <ele>257.9</ele>
        <time>2025-10-18T11:49:35Z</time>
      </trkpt>
      <trkpt lat="43.21847" lon="5.48078">
        <ele>257.8</ele>
        <time>2025-10-18T11:49:36Z</time>
      </trkpt>
      <trkpt lat="43.21847" lon="5.48078">
        <ele>257.8</ele>
        <time>2025-10-18T11:49:37Z</time>
      </trkpt>
      <trkpt lat="43.21847" lon="5.48078">
        <ele>257.8</ele>
        <time>2025-10-18T11:49:38Z</time>
      </trkpt>
      <trkpt lat="43.21847" lon="5.48078">
        <ele>257.9</ele>
        <time>2025-10-18T11:49:39Z</time>
      </trkpt>
      <trkpt lat="43.21847" lon="5.48078">
        <ele>258</ele>
        <time>2025-10-18T11:49:40Z</time>
      </trkpt>
      <trkpt lat="43.21847" lon="5.48078">
        <ele>258</ele>
        <time>2025-10-18T11:49:41Z</time>
      </trkpt>
      <trkpt lat="43.21847" lon="5.48078">
        <ele>258</ele>
        <time>2025-10-18T11:49:42Z</time>
      </trkpt>
      <trkpt lat="43.21847" lon="5.48078">
        <ele>258</ele>
        <time>2025-10-18T11:49:43Z</time>
      </trkpt>
      <trkpt lat="43.21847" lon="5.48078">
        <ele>258</ele>
        <time>2025-10-18T11:49:44Z</time>
      </trkpt>
      <trkpt lat="43.21847" lon="5.48078">
        <ele>258</ele>
        <time>2025-10-18T11:49:45Z</time>
      </trkpt>
      <trkpt lat="43.21847" lon="5.48077">
        <ele>258</ele>
        <time>2025-10-18T11:49:46Z</time>
      </trkpt>
      <trkpt lat="43.21847" lon="5.48077">
        <ele>258.2</ele>
        <time>2025-10-18T11:49:47Z</time>
      </trkpt>
      <trkpt lat="43.21846" lon="5.48077">
        <ele>258.2</ele>
        <time>2025-10-18T11:49:48Z</time>
      </trkpt>
      <trkpt lat="43.21846" lon="5.48077">
        <ele>258.2</ele>
        <time>2025-10-18T11:49:49Z</time>
      </trkpt>
      <trkpt lat="43.21846" lon="5.48077">
        <ele>258.2</ele>
        <time>2025-10-18T11:49:50Z</time>
      </trkpt>
      <trkpt lat="43.21846" lon="5.48077">
        <ele>258.2</ele>
        <time>2025-10-18T11:49:51Z</time>
      </trkpt>
      <trkpt lat="43.21846" lon="5.48077">
        <ele>258.3</ele>
        <time>2025-10-18T11:49:52Z</time>
      </trkpt>
      <trkpt lat="43.21846" lon="5.48077">
        <ele>258.3</ele>
        <time>2025-10-18T11:49:53Z</time>
      </trkpt>
      <trkpt lat="43.21846" lon="5.48077">
        <ele>258.3</ele>
        <time>2025-10-18T11:49:54Z</time>
      </trkpt>
      <trkpt lat="43.21846" lon="5.48077">
        <ele>258.3</ele>
        <time>2025-10-18T11:49:55Z</time>
      </trkpt>
      <trkpt lat="43.21846" lon="5.48077">
        <ele>258.3</ele>
        <time>2025-10-18T11:49:56Z</time>
      </trkpt>
      <trkpt lat="43.21846" lon="5.48077">
        <ele>258.4</ele>
        <time>2025-10-18T11:49:57Z</time>
      </trkpt>
      <trkpt lat="43.21846" lon="5.48077">
        <ele>258.4</ele>
        <time>2025-10-18T11:49:58Z</time>
      </trkpt>
      <trkpt lat="43.21846" lon="5.48077">
        <ele>258.5</ele>
        <time>2025-10-18T11:49:59Z</time>
      </trkpt>
      <trkpt lat="43.21846" lon="5.48077">
        <ele>258.4</ele>
        <time>2025-10-18T11:50:00Z</time>
      </trkpt>
      <trkpt lat="43.21846" lon="5.48077">
        <ele>258.4</ele>
        <time>2025-10-18T11:50:01Z</time>
      </trkpt>
      <trkpt lat="43.21846" lon="5.48077">
        <ele>258.4</ele>
        <time>2025-10-18T11:50:02Z</time>
      </trkpt>
      <trkpt lat="43.21846" lon="5.48076">
        <ele>258.4</ele>
        <time>2025-10-18T11:50:03Z</time>
      </trkpt>
      <trkpt lat="43.21846" lon="5.48076">
        <ele>258.4</ele>
        <time>2025-10-18T11:50:04Z</time>
      </trkpt>
      <trkpt lat="43.21846" lon="5.48076">
        <ele>258.4</ele>
        <time>2025-10-18T11:50:05Z</time>
      </trkpt>
      <trkpt lat="43.21846" lon="5.48076">
        <ele>258.4</ele>
        <time>2025-10-18T11:50:06Z</time>
      </trkpt>
      <trkpt lat="43.21846" lon="5.48076">
        <ele>258.3</ele>
        <time>2025-10-18T11:50:07Z</time>
      </trkpt>
      <trkpt lat="43.21846" lon="5.48076">
        <ele>258.3</ele>
        <time>2025-10-18T11:50:08Z</time>
      </trkpt>
      <trkpt lat="43.21846" lon="5.48076">
        <ele>258.4</ele>
        <time>2025-10-18T11:50:09Z</time>
      </trkpt>
      <trkpt lat="43.21847" lon="5.48076">
        <ele>258.5</ele>
        <time>2025-10-18T11:50:10Z</time>
      </trkpt>
      <trkpt lat="43.21847" lon="5.48076">
        <ele>258.5</ele>
        <time>2025-10-18T11:50:11Z</time>
      </trkpt>
      <trkpt lat="43.21847" lon="5.48076">
        <ele>258.5</ele>
        <time>2025-10-18T11:50:12Z</time>
      </trkpt>
      <trkpt lat="43.21847" lon="5.48076">
        <ele>258.5</ele>
        <time>2025-10-18T11:50:13Z</time>
      </trkpt>
      <trkpt lat="43.21847" lon="5.48076">
        <ele>258.5</ele>
        <time>2025-10-18T11:50:14Z</time>
      </trkpt>
      <trkpt lat="43.21847" lon="5.48076">
        <ele>258.5</ele>
        <time>2025-10-18T11:50:15Z</time>
      </trkpt>
      <trkpt lat="43.21847" lon="5.48076">
        <ele>258.4</ele>
        <time>2025-10-18T11:50:16Z</time>
      </trkpt>
      <trkpt lat="43.21847" lon="5.48076">
        <ele>258.4</ele>
        <time>2025-10-18T11:50:17Z</time>
      </trkpt>
      <trkpt lat="43.21847" lon="5.48076">
        <ele>258.3</ele>
        <time>2025-10-18T11:50:18Z</time>
      </trkpt>
      <trkpt lat="43.21847" lon="5.48076">
        <ele>258.2</ele>
        <time>2025-10-18T11:50:19Z</time>
      </trkpt>
      <trkpt lat="43.21847" lon="5.48076">
        <ele>258</ele>
        <time>2025-10-18T11:50:20Z</time>
      </trkpt>
      <trkpt lat="43.21847" lon="5.48076">
        <ele>257.9</ele>
        <time>2025-10-18T11:50:21Z</time>
      </trkpt>
      <trkpt lat="43.21847" lon="5.48075">
        <ele>258</ele>
        <time>2025-10-18T11:50:22Z</time>
      </trkpt>
      <trkpt lat="43.21847" lon="5.48075">
        <ele>258</ele>
        <time>2025-10-18T11:50:23Z</time>
      </trkpt>
      <trkpt lat="43.21847" lon="5.48075">
        <ele>258</ele>
        <time>2025-10-18T11:50:24Z</time>
      </trkpt>
      <trkpt lat="43.21847" lon="5.48075">
        <ele>258.1</ele>
        <time>2025-10-18T11:50:25Z</time>
      </trkpt>
      <trkpt lat="43.21847" lon="5.48075">
        <ele>258.1</ele>
        <time>2025-10-18T11:50:26Z</time>
      </trkpt>
      <trkpt lat="43.21847" lon="5.48075">
        <ele>258.1</ele>
        <time>2025-10-18T11:50:27Z</time>
      </trkpt>
      <trkpt lat="43.21847" lon="5.48075">
        <ele>258</ele>
        <time>2025-10-18T11:50:28Z</time>
      </trkpt>
      <trkpt lat="43.21848" lon="5.48075">
        <ele>258</ele>
        <time>2025-10-18T11:50:29Z</time>
      </trkpt>
      <trkpt lat="43.21848" lon="5.48075">
        <ele>258</ele>
        <time>2025-10-18T11:50:30Z</time>
      </trkpt>
      <trkpt lat="43.21848" lon="5.48075">
        <ele>258</ele>
        <time>2025-10-18T11:50:31Z</time>
      </trkpt>
      <trkpt lat="43.21848" lon="5.48075">
        <ele>258</ele>
        <time>2025-10-18T11:50:32Z</time>
      </trkpt>
      <trkpt lat="43.21848" lon="5.48075">
        <ele>258</ele>
        <time>2025-10-18T11:50:33Z</time>
      </trkpt>
      <trkpt lat="43.21848" lon="5.48075">
        <ele>258</ele>
        <time>2025-10-18T11:50:34Z</time>
      </trkpt>
      <trkpt lat="43.21848" lon="5.48075">
        <ele>258</ele>
        <time>2025-10-18T11:50:35Z</time>
      </trkpt>
      <trkpt lat="43.21848" lon="5.48074">
        <ele>257.9</ele>
        <time>2025-10-18T11:50:36Z</time>
      </trkpt>
      <trkpt lat="43.21848" lon="5.48074">
        <ele>258</ele>
        <time>2025-10-18T11:50:37Z</time>
      </trkpt>
      <trkpt lat="43.21848" lon="5.48074">
        <ele>258</ele>
        <time>2025-10-18T11:50:38Z</time>
      </trkpt>
      <trkpt lat="43.21848" lon="5.48074">
        <ele>258</ele>
        <time>2025-10-18T11:50:39Z</time>
      </trkpt>
      <trkpt lat="43.21848" lon="5.48074">
        <ele>258.1</ele>
        <time>2025-10-18T11:50:40Z</time>
      </trkpt>
      <trkpt lat="43.21848" lon="5.48074">
        <ele>258.1</ele>
        <time>2025-10-18T11:50:41Z</time>
      </trkpt>
      <trkpt lat="43.21848" lon="5.48074">
        <ele>258</ele>
        <time>2025-10-18T11:50:42Z</time>
      </trkpt>
      <trkpt lat="43.21848" lon="5.48074">
        <ele>258</ele>
        <time>2025-10-18T11:50:43Z</time>
      </trkpt>
      <trkpt lat="43.21848" lon="5.48074">
        <ele>258</ele>
        <time>2025-10-18T11:50:44Z</time>
      </trkpt>
      <trkpt lat="43.21848" lon="5.48074">
        <ele>258</ele>
        <time>2025-10-18T11:50:45Z</time>
      </trkpt>
      <trkpt lat="43.21848" lon="5.48074">
        <ele>258</ele>
        <time>2025-10-18T11:50:46Z</time>
      </trkpt>
      <trkpt lat="43.21848" lon="5.48074">
        <ele>258</ele>
        <time>2025-10-18T11:50:47Z</time>
      </trkpt>
      <trkpt lat="43.21848" lon="5.48074">
        <ele>258</ele>
        <time>2025-10-18T11:50:48Z</time>
      </trkpt>
      <trkpt lat="43.21848" lon="5.48074">
        <ele>257.9</ele>
        <time>2025-10-18T11:50:49Z</time>
      </trkpt>
      <trkpt lat="43.21848" lon="5.48074">
        <ele>257.9</ele>
        <time>2025-10-18T11:50:50Z</time>
      </trkpt>
      <trkpt lat="43.21848" lon="5.48074">
        <ele>257.9</ele>
        <time>2025-10-18T11:50:51Z</time>
      </trkpt>
      <trkpt lat="43.21848" lon="5.48074">
        <ele>257.9</ele>
        <time>2025-10-18T11:50:52Z</time>
      </trkpt>
      <trkpt lat="43.21848" lon="5.48074">
        <ele>258</ele>
        <time>2025-10-18T11:50:53Z</time>
      </trkpt>
      <trkpt lat="43.21848" lon="5.48074">
        <ele>258</ele>
        <time>2025-10-18T11:50:54Z</time>
      </trkpt>
      <trkpt lat="43.21848" lon="5.48074">
        <ele>258</ele>
        <time>2025-10-18T11:50:55Z</time>
      </trkpt>
      <trkpt lat="43.21848" lon="5.48074">
        <ele>258.1</ele>
        <time>2025-10-18T11:50:56Z</time>
      </trkpt>
      <trkpt lat="43.21848" lon="5.48074">
        <ele>258.1</ele>
        <time>2025-10-18T11:50:57Z</time>
      </trkpt>
      <trkpt lat="43.21848" lon="5.48074">
        <ele>258.1</ele>
        <time>2025-10-18T11:50:58Z</time>
      </trkpt>
      <trkpt lat="43.21848" lon="5.48074">
        <ele>258.2</ele>
        <time>2025-10-18T11:50:59Z</time>
      </trkpt>
      <trkpt lat="43.21848" lon="5.48074">
        <ele>258.1</ele>
        <time>2025-10-18T11:51:00Z</time>
      </trkpt>
      <trkpt lat="43.21848" lon="5.48073">
        <ele>258.1</ele>
        <time>2025-10-18T11:51:01Z</time>
      </trkpt>
      <trkpt lat="43.21848" lon="5.48073">
        <ele>258.1</ele>
        <time>2025-10-18T11:51:02Z</time>
      </trkpt>
      <trkpt lat="43.21848" lon="5.48073">
        <ele>258.1</ele>
        <time>2025-10-18T11:51:03Z</time>
      </trkpt>
      <trkpt lat="43.21848" lon="5.48073">
        <ele>258.2</ele>
        <time>2025-10-18T11:51:04Z</time>
      </trkpt>
      <trkpt lat="43.21848" lon="5.48073">
        <ele>258.2</ele>
        <time>2025-10-18T11:51:05Z</time>
      </trkpt>
      <trkpt lat="43.21848" lon="5.48073">
        <ele>258.2</ele>
        <time>2025-10-18T11:51:06Z</time>
      </trkpt>
      <trkpt lat="43.21849" lon="5.48072">
        <ele>258.1</ele>
        <time>2025-10-18T11:51:07Z</time>
      </trkpt>
      <trkpt lat="43.21849" lon="5.48072">
        <ele>258.1</ele>
        <time>2025-10-18T11:51:08Z</time>
      </trkpt>
      <trkpt lat="43.2185" lon="5.48072">
        <ele>258.1</ele>
        <time>2025-10-18T11:51:09Z</time>
      </trkpt>
      <trkpt lat="43.21851" lon="5.48072">
        <ele>258.1</ele>
        <time>2025-10-18T11:51:10Z</time>
      </trkpt>
      <trkpt lat="43.21852" lon="5.48071">
        <ele>258.1</ele>
        <time>2025-10-18T11:51:11Z</time>
      </trkpt>
      <trkpt lat="43.21852" lon="5.48071">
        <ele>258.1</ele>
        <time>2025-10-18T11:51:12Z</time>
      </trkpt>
      <trkpt lat="43.21853" lon="5.48071">
        <ele>258.1</ele>
        <time>2025-10-18T11:51:13Z</time>
      </trkpt>
      <trkpt lat="43.21853" lon="5.48072">
        <ele>258</ele>
        <time>2025-10-18T11:51:14Z</time>
      </trkpt>
      <trkpt lat="43.21854" lon="5.48072">
        <ele>257.9</ele>
        <time>2025-10-18T11:51:15Z</time>
      </trkpt>
      <trkpt lat="43.21855" lon="5.48071">
        <ele>257.9</ele>
        <time>2025-10-18T11:51:16Z</time>
      </trkpt>
      <trkpt lat="43.21855" lon="5.48071">
        <ele>257.9</ele>
        <time>2025-10-18T11:51:17Z</time>
      </trkpt>
      <trkpt lat="43.21856" lon="5.48071">
        <ele>257.9</ele>
        <time>2025-10-18T11:51:18Z</time>
      </trkpt>
      <trkpt lat="43.21857" lon="5.48071">
        <ele>257.9</ele>
        <time>2025-10-18T11:51:19Z</time>
      </trkpt>
      <trkpt lat="43.21857" lon="5.48071">
        <ele>257.9</ele>
        <time>2025-10-18T11:51:20Z</time>
      </trkpt>
      <trkpt lat="43.21858" lon="5.48071">
        <ele>257.9</ele>
        <time>2025-10-18T11:51:21Z</time>
      </trkpt>
      <trkpt lat="43.21859" lon="5.48071">
        <ele>258</ele>
        <time>2025-10-18T11:51:22Z</time>
      </trkpt>
      <trkpt lat="43.21859" lon="5.48071">
        <ele>258.1</ele>
        <time>2025-10-18T11:51:23Z</time>
      </trkpt>
      <trkpt lat="43.2186" lon="5.48071">
        <ele>258.1</ele>
        <time>2025-10-18T11:51:24Z</time>
      </trkpt>
      <trkpt lat="43.21861" lon="5.48071">
        <ele>258.2</ele>
        <time>2025-10-18T11:51:25Z</time>
      </trkpt>
      <trkpt lat="43.21861" lon="5.48071">
        <ele>258.1</ele>
        <time>2025-10-18T11:51:26Z</time>
      </trkpt>
      <trkpt lat="43.21861" lon="5.48071">
        <ele>258.1</ele>
        <time>2025-10-18T11:51:27Z</time>
      </trkpt>
      <trkpt lat="43.21862" lon="5.48071">
        <ele>258.1</ele>
        <time>2025-10-18T11:51:28Z</time>
      </trkpt>
      <trkpt lat="43.21862" lon="5.48071">
        <ele>258</ele>
        <time>2025-10-18T11:51:29Z</time>
      </trkpt>
      <trkpt lat="43.21862" lon="5.48071">
        <ele>257.9</ele>
        <time>2025-10-18T11:51:30Z</time>
      </trkpt>
      <trkpt lat="43.21862" lon="5.48071">
        <ele>257.8</ele>
        <time>2025-10-18T11:51:31Z</time>
      </trkpt>
      <trkpt lat="43.21862" lon="5.48071">
        <ele>257.7</ele>
        <time>2025-10-18T11:51:32Z</time>
      </trkpt>
      <trkpt lat="43.21862" lon="5.48072">
        <ele>257.7</ele>
        <time>2025-10-18T11:51:33Z</time>
      </trkpt>
      <trkpt lat="43.21863" lon="5.48071">
        <ele>257.8</ele>
        <time>2025-10-18T11:51:34Z</time>
      </trkpt>
      <trkpt lat="43.21863" lon="5.48071">
        <ele>257.8</ele>
        <time>2025-10-18T11:51:35Z</time>
      </trkpt>
      <trkpt lat="43.21864" lon="5.48071">
        <ele>257.7</ele>
        <time>2025-10-18T11:51:36Z</time>
      </trkpt>
      <trkpt lat="43.21864" lon="5.48071">
        <ele>257.6</ele>
        <time>2025-10-18T11:51:37Z</time>
      </trkpt>
      <trkpt lat="43.21865" lon="5.48071">
        <ele>257.6</ele>
        <time>2025-10-18T11:51:38Z</time>
      </trkpt>
      <trkpt lat="43.21865" lon="5.4807">
        <ele>257.6</ele>
        <time>2025-10-18T11:51:39Z</time>
      </trkpt>
      <trkpt lat="43.21865" lon="5.4807">
        <ele>257.6</ele>
        <time>2025-10-18T11:51:40Z</time>
      </trkpt>
      <trkpt lat="43.21866" lon="5.4807">
        <ele>257.6</ele>
        <time>2025-10-18T11:51:41Z</time>
      </trkpt>
      <trkpt lat="43.21866" lon="5.48069">
        <ele>257.7</ele>
        <time>2025-10-18T11:51:42Z</time>
      </trkpt>
      <trkpt lat="43.21867" lon="5.48069">
        <ele>257.7</ele>
        <time>2025-10-18T11:51:43Z</time>
      </trkpt>
      <trkpt lat="43.21867" lon="5.48068">
        <ele>257.8</ele>
        <time>2025-10-18T11:51:44Z</time>
      </trkpt>
      <trkpt lat="43.21868" lon="5.48068">
        <ele>257.8</ele>
        <time>2025-10-18T11:51:45Z</time>
      </trkpt>
      <trkpt lat="43.21869" lon="5.48067">
        <ele>257.9</ele>
        <time>2025-10-18T11:51:46Z</time>
      </trkpt>
      <trkpt lat="43.2187" lon="5.48066">
        <ele>258</ele>
        <time>2025-10-18T11:51:47Z</time>
      </trkpt>
      <trkpt lat="43.21871" lon="5.48066">
        <ele>258</ele>
        <time>2025-10-18T11:51:48Z</time>
      </trkpt>
      <trkpt lat="43.21872" lon="5.48065">
        <ele>258.1</ele>
        <time>2025-10-18T11:51:49Z</time>
      </trkpt>
      <trkpt lat="43.21873" lon="5.48064">
        <ele>258.2</ele>
        <time>2025-10-18T11:51:50Z</time>
      </trkpt>
      <trkpt lat="43.21873" lon="5.48063">
        <ele>258.3</ele>
        <time>2025-10-18T11:51:51Z</time>
      </trkpt>
      <trkpt lat="43.21874" lon="5.48062">
        <ele>258.3</ele>
        <time>2025-10-18T11:51:52Z</time>
      </trkpt>
      <trkpt lat="43.21875" lon="5.48061">
        <ele>258.5</ele>
        <time>2025-10-18T11:51:53Z</time>
      </trkpt>
      <trkpt lat="43.21876" lon="5.4806">
        <ele>258.6</ele>
        <time>2025-10-18T11:51:54Z</time>
      </trkpt>
      <trkpt lat="43.21876" lon="5.48059">
        <ele>258.6</ele>
        <time>2025-10-18T11:51:55Z</time>
      </trkpt>
      <trkpt lat="43.21877" lon="5.48059">
        <ele>258.7</ele>
        <time>2025-10-18T11:51:56Z</time>
      </trkpt>
      <trkpt lat="43.21878" lon="5.48058">
        <ele>258.7</ele>
        <time>2025-10-18T11:51:57Z</time>
      </trkpt>
      <trkpt lat="43.21879" lon="5.48057">
        <ele>258.7</ele>
        <time>2025-10-18T11:51:58Z</time>
      </trkpt>
      <trkpt lat="43.21879" lon="5.48056">
        <ele>258.7</ele>
        <time>2025-10-18T11:51:59Z</time>
      </trkpt>
      <trkpt lat="43.2188" lon="5.48056">
        <ele>258.7</ele>
        <time>2025-10-18T11:52:00Z</time>
      </trkpt>
      <trkpt lat="43.21881" lon="5.48055">
        <ele>258.7</ele>
        <time>2025-10-18T11:52:01Z</time>
      </trkpt>
      <trkpt lat="43.21881" lon="5.48055">
        <ele>258.8</ele>
        <time>2025-10-18T11:52:02Z</time>
      </trkpt>
      <trkpt lat="43.21882" lon="5.48054">
        <ele>258.7</ele>
        <time>2025-10-18T11:52:03Z</time>
      </trkpt>
      <trkpt lat="43.21883" lon="5.48054">
        <ele>258.7</ele>
        <time>2025-10-18T11:52:04Z</time>
      </trkpt>
      <trkpt lat="43.21884" lon="5.48053">
        <ele>258.6</ele>
        <time>2025-10-18T11:52:05Z</time>
      </trkpt>
      <trkpt lat="43.21884" lon="5.48052">
        <ele>258.7</ele>
        <time>2025-10-18T11:52:06Z</time>
      </trkpt>
      <trkpt lat="43.21885" lon="5.48051">
        <ele>258.7</ele>
        <time>2025-10-18T11:52:07Z</time>
      </trkpt>
      <trkpt lat="43.21886" lon="5.4805">
        <ele>258.8</ele>
        <time>2025-10-18T11:52:08Z</time>
      </trkpt>
      <trkpt lat="43.21887" lon="5.48049">
        <ele>258.8</ele>
        <time>2025-10-18T11:52:09Z</time>
      </trkpt>
      <trkpt lat="43.21887" lon="5.48049">
        <ele>258.9</ele>
        <time>2025-10-18T11:52:10Z</time>
      </trkpt>
      <trkpt lat="43.21888" lon="5.48049">
        <ele>258.9</ele>
        <time>2025-10-18T11:52:11Z</time>
      </trkpt>
      <trkpt lat="43.21888" lon="5.48048">
        <ele>259</ele>
        <time>2025-10-18T11:52:12Z</time>
      </trkpt>
      <trkpt lat="43.21889" lon="5.48048">
        <ele>259</ele>
        <time>2025-10-18T11:52:13Z</time>
      </trkpt>
      <trkpt lat="43.21889" lon="5.48048">
        <ele>259</ele>
        <time>2025-10-18T11:52:14Z</time>
      </trkpt>
      <trkpt lat="43.2189" lon="5.48047">
        <ele>259.1</ele>
        <time>2025-10-18T11:52:15Z</time>
      </trkpt>
      <trkpt lat="43.21891" lon="5.48046">
        <ele>259</ele>
        <time>2025-10-18T11:52:16Z</time>
      </trkpt>
      <trkpt lat="43.21892" lon="5.48045">
        <ele>258.9</ele>
        <time>2025-10-18T11:52:17Z</time>
      </trkpt>
      <trkpt lat="43.21892" lon="5.48045">
        <ele>258.9</ele>
        <time>2025-10-18T11:52:18Z</time>
      </trkpt>
      <trkpt lat="43.21893" lon="5.48044">
        <ele>258.9</ele>
        <time>2025-10-18T11:52:19Z</time>
      </trkpt>
      <trkpt lat="43.21894" lon="5.48043">
        <ele>259</ele>
        <time>2025-10-18T11:52:20Z</time>
      </trkpt>
      <trkpt lat="43.21895" lon="5.48043">
        <ele>259</ele>
        <time>2025-10-18T11:52:21Z</time>
      </trkpt>
      <trkpt lat="43.21895" lon="5.48042">
        <ele>259.1</ele>
        <time>2025-10-18T11:52:22Z</time>
      </trkpt>
      <trkpt lat="43.21896" lon="5.48041">
        <ele>259.1</ele>
        <time>2025-10-18T11:52:23Z</time>
      </trkpt>
      <trkpt lat="43.21897" lon="5.4804">
        <ele>259.1</ele>
        <time>2025-10-18T11:52:24Z</time>
      </trkpt>
      <trkpt lat="43.21898" lon="5.4804">
        <ele>259.1</ele>
        <time>2025-10-18T11:52:25Z</time>
      </trkpt>
      <trkpt lat="43.21899" lon="5.48039">
        <ele>259.1</ele>
        <time>2025-10-18T11:52:26Z</time>
      </trkpt>
      <trkpt lat="43.219" lon="5.48039">
        <ele>259.1</ele>
        <time>2025-10-18T11:52:27Z</time>
      </trkpt>
      <trkpt lat="43.21901" lon="5.48038">
        <ele>259.2</ele>
        <time>2025-10-18T11:52:28Z</time>
      </trkpt>
      <trkpt lat="43.21901" lon="5.48037">
        <ele>259.2</ele>
        <time>2025-10-18T11:52:29Z</time>
      </trkpt>
      <trkpt lat="43.21902" lon="5.48037">
        <ele>259.2</ele>
        <time>2025-10-18T11:52:30Z</time>
      </trkpt>
      <trkpt lat="43.21904" lon="5.48036">
        <ele>259.3</ele>
        <time>2025-10-18T11:52:31Z</time>
      </trkpt>
      <trkpt lat="43.21905" lon="5.48036">
        <ele>259.3</ele>
        <time>2025-10-18T11:52:32Z</time>
      </trkpt>
      <trkpt lat="43.21906" lon="5.48035">
        <ele>259.3</ele>
        <time>2025-10-18T11:52:33Z</time>
      </trkpt>
      <trkpt lat="43.21907" lon="5.48035">
        <ele>259.4</ele>
        <time>2025-10-18T11:52:34Z</time>
      </trkpt>
      <trkpt lat="43.21907" lon="5.48035">
        <ele>259.5</ele>
        <time>2025-10-18T11:52:35Z</time>
      </trkpt>
      <trkpt lat="43.21909" lon="5.48035">
        <ele>259.5</ele>
        <time>2025-10-18T11:52:36Z</time>
      </trkpt>
      <trkpt lat="43.2191" lon="5.48034">
        <ele>259.4</ele>
        <time>2025-10-18T11:52:37Z</time>
      </trkpt>
      <trkpt lat="43.21911" lon="5.48034">
        <ele>259.3</ele>
        <time>2025-10-18T11:52:38Z</time>
      </trkpt>
      <trkpt lat="43.21912" lon="5.48034">
        <ele>259.2</ele>
        <time>2025-10-18T11:52:39Z</time>
      </trkpt>
      <trkpt lat="43.21913" lon="5.48033">
        <ele>259.1</ele>
        <time>2025-10-18T11:52:40Z</time>
      </trkpt>
      <trkpt lat="43.21914" lon="5.48033">
        <ele>259.3</ele>
        <time>2025-10-18T11:52:41Z</time>
      </trkpt>
      <trkpt lat="43.21915" lon="5.48033">
        <ele>259.2</ele>
        <time>2025-10-18T11:52:42Z</time>
      </trkpt>
      <trkpt lat="43.21916" lon="5.48033">
        <ele>259.2</ele>
        <time>2025-10-18T11:52:43Z</time>
      </trkpt>
      <trkpt lat="43.21917" lon="5.48033">
        <ele>259.2</ele>
        <time>2025-10-18T11:52:44Z</time>
      </trkpt>
      <trkpt lat="43.21918" lon="5.48033">
        <ele>259.3</ele>
        <time>2025-10-18T11:52:45Z</time>
      </trkpt>
      <trkpt lat="43.21919" lon="5.48033">
        <ele>259.4</ele>
        <time>2025-10-18T11:52:46Z</time>
      </trkpt>
      <trkpt lat="43.2192" lon="5.48032">
        <ele>259.3</ele>
        <time>2025-10-18T11:52:47Z</time>
      </trkpt>
      <trkpt lat="43.21921" lon="5.48032">
        <ele>259.3</ele>
        <time>2025-10-18T11:52:48Z</time>
      </trkpt>
      <trkpt lat="43.21921" lon="5.48031">
        <ele>259.4</ele>
        <time>2025-10-18T11:52:49Z</time>
      </trkpt>
      <trkpt lat="43.21922" lon="5.4803">
        <ele>259.4</ele>
        <time>2025-10-18T11:52:50Z</time>
      </trkpt>
      <trkpt lat="43.21923" lon="5.48029">
        <ele>259.4</ele>
        <time>2025-10-18T11:52:51Z</time>
      </trkpt>
      <trkpt lat="43.21923" lon="5.48029">
        <ele>259.4</ele>
        <time>2025-10-18T11:52:52Z</time>
      </trkpt>
      <trkpt lat="43.21924" lon="5.48028">
        <ele>259.4</ele>
        <time>2025-10-18T11:52:53Z</time>
      </trkpt>
      <trkpt lat="43.21925" lon="5.48027">
        <ele>259.4</ele>
        <time>2025-10-18T11:52:54Z</time>
      </trkpt>
      <trkpt lat="43.21926" lon="5.48027">
        <ele>259.5</ele>
        <time>2025-10-18T11:52:55Z</time>
      </trkpt>
      <trkpt lat="43.21927" lon="5.48027">
        <ele>259.5</ele>
        <time>2025-10-18T11:52:56Z</time>
      </trkpt>
      <trkpt lat="43.21928" lon="5.48026">
        <ele>259.6</ele>
        <time>2025-10-18T11:52:57Z</time>
      </trkpt>
      <trkpt lat="43.21929" lon="5.48027">
        <ele>259.6</ele>
        <time>2025-10-18T11:52:58Z</time>
      </trkpt>
      <trkpt lat="43.21929" lon="5.48028">
        <ele>259.6</ele>
        <time>2025-10-18T11:52:59Z</time>
      </trkpt>
      <trkpt lat="43.2193" lon="5.48028">
        <ele>259.7</ele>
        <time>2025-10-18T11:53:00Z</time>
      </trkpt>
      <trkpt lat="43.21931" lon="5.48029">
        <ele>259.9</ele>
        <time>2025-10-18T11:53:01Z</time>
      </trkpt>
      <trkpt lat="43.21931" lon="5.48028">
        <ele>259.9</ele>
        <time>2025-10-18T11:53:02Z</time>
      </trkpt>
      <trkpt lat="43.21931" lon="5.48028">
        <ele>259.9</ele>
        <time>2025-10-18T11:53:03Z</time>
      </trkpt>
      <trkpt lat="43.21931" lon="5.48028">
        <ele>259.9</ele>
        <time>2025-10-18T11:53:04Z</time>
      </trkpt>
      <trkpt lat="43.21931" lon="5.48028">
        <ele>259.8</ele>
        <time>2025-10-18T11:53:05Z</time>
      </trkpt>
      <trkpt lat="43.21931" lon="5.48028">
        <ele>259.9</ele>
        <time>2025-10-18T11:53:06Z</time>
      </trkpt>
      <trkpt lat="43.21931" lon="5.48029">
        <ele>259.9</ele>
        <time>2025-10-18T11:53:07Z</time>
      </trkpt>
      <trkpt lat="43.21932" lon="5.48029">
        <ele>259.6</ele>
        <time>2025-10-18T11:53:08Z</time>
      </trkpt>
      <trkpt lat="43.21933" lon="5.4803">
        <ele>259.5</ele>
        <time>2025-10-18T11:53:09Z</time>
      </trkpt>
      <trkpt lat="43.21933" lon="5.48031">
        <ele>259.6</ele>
        <time>2025-10-18T11:53:10Z</time>
      </trkpt>
      <trkpt lat="43.21933" lon="5.48032">
        <ele>259.6</ele>
        <time>2025-10-18T11:53:11Z</time>
      </trkpt>
      <trkpt lat="43.21934" lon="5.48032">
        <ele>259.7</ele>
        <time>2025-10-18T11:53:12Z</time>
      </trkpt>
      <trkpt lat="43.21934" lon="5.48032">
        <ele>259.7</ele>
        <time>2025-10-18T11:53:13Z</time>
      </trkpt>
      <trkpt lat="43.21935" lon="5.48032">
        <ele>259.8</ele>
        <time>2025-10-18T11:53:14Z</time>
      </trkpt>
      <trkpt lat="43.21935" lon="5.48033">
        <ele>259.9</ele>
        <time>2025-10-18T11:53:15Z</time>
      </trkpt>
      <trkpt lat="43.21935" lon="5.48033">
        <ele>260</ele>
        <time>2025-10-18T11:53:16Z</time>
      </trkpt>
      <trkpt lat="43.21936" lon="5.48034">
        <ele>260</ele>
        <time>2025-10-18T11:53:17Z</time>
      </trkpt>
      <trkpt lat="43.21936" lon="5.48036">
        <ele>260.1</ele>
        <time>2025-10-18T11:53:18Z</time>
      </trkpt>
      <trkpt lat="43.21937" lon="5.48037">
        <ele>260.2</ele>
        <time>2025-10-18T11:53:19Z</time>
      </trkpt>
      <trkpt lat="43.21937" lon="5.48038">
        <ele>260.2</ele>
        <time>2025-10-18T11:53:20Z</time>
      </trkpt>
      <trkpt lat="43.21938" lon="5.48039">
        <ele>260.5</ele>
        <time>2025-10-18T11:53:21Z</time>
      </trkpt>
      <trkpt lat="43.21938" lon="5.4804">
        <ele>260.4</ele>
        <time>2025-10-18T11:53:22Z</time>
      </trkpt>
      <trkpt lat="43.21938" lon="5.48041">
        <ele>260.3</ele>
        <time>2025-10-18T11:53:23Z</time>
      </trkpt>
      <trkpt lat="43.21939" lon="5.48043">
        <ele>260.3</ele>
        <time>2025-10-18T11:53:24Z</time>
      </trkpt>
      <trkpt lat="43.21939" lon="5.48044">
        <ele>260.2</ele>
        <time>2025-10-18T11:53:25Z</time>
      </trkpt>
      <trkpt lat="43.21939" lon="5.48045">
        <ele>260.2</ele>
        <time>2025-10-18T11:53:26Z</time>
      </trkpt>
      <trkpt lat="43.2194" lon="5.48046">
        <ele>260.2</ele>
        <time>2025-10-18T11:53:27Z</time>
      </trkpt>
      <trkpt lat="43.2194" lon="5.48047">
        <ele>260.2</ele>
        <time>2025-10-18T11:53:28Z</time>
      </trkpt>
      <trkpt lat="43.21941" lon="5.48048">
        <ele>260.2</ele>
        <time>2025-10-18T11:53:29Z</time>
      </trkpt>
      <trkpt lat="43.21941" lon="5.48049">
        <ele>260.2</ele>
        <time>2025-10-18T11:53:30Z</time>
      </trkpt>
      <trkpt lat="43.21941" lon="5.4805">
        <ele>260.2</ele>
        <time>2025-10-18T11:53:31Z</time>
      </trkpt>
      <trkpt lat="43.21941" lon="5.48051">
        <ele>260.3</ele>
        <time>2025-10-18T11:53:32Z</time>
      </trkpt>
      <trkpt lat="43.21942" lon="5.48052">
        <ele>260.4</ele>
        <time>2025-10-18T11:53:33Z</time>
      </trkpt>
      <trkpt lat="43.21942" lon="5.48053">
        <ele>260.5</ele>
        <time>2025-10-18T11:53:34Z</time>
      </trkpt>
      <trkpt lat="43.21942" lon="5.48054">
        <ele>260.5</ele>
        <time>2025-10-18T11:53:35Z</time>
      </trkpt>
      <trkpt lat="43.21942" lon="5.48055">
        <ele>260.6</ele>
        <time>2025-10-18T11:53:36Z</time>
      </trkpt>
      <trkpt lat="43.21942" lon="5.48056">
        <ele>260.6</ele>
        <time>2025-10-18T11:53:37Z</time>
      </trkpt>
      <trkpt lat="43.21942" lon="5.48056">
        <ele>260.7</ele>
        <time>2025-10-18T11:53:38Z</time>
      </trkpt>
      <trkpt lat="43.21942" lon="5.48058">
        <ele>260.8</ele>
        <time>2025-10-18T11:53:39Z</time>
      </trkpt>
      <trkpt lat="43.21943" lon="5.48059">
        <ele>261</ele>
        <time>2025-10-18T11:53:40Z</time>
      </trkpt>
      <trkpt lat="43.21943" lon="5.4806">
        <ele>261.1</ele>
        <time>2025-10-18T11:53:41Z</time>
      </trkpt>
      <trkpt lat="43.21944" lon="5.48061">
        <ele>261.1</ele>
        <time>2025-10-18T11:53:42Z</time>
      </trkpt>
      <trkpt lat="43.21944" lon="5.48062">
        <ele>261.3</ele>
        <time>2025-10-18T11:53:43Z</time>
      </trkpt>
      <trkpt lat="43.21944" lon="5.48063">
        <ele>261.5</ele>
        <time>2025-10-18T11:53:44Z</time>
      </trkpt>
      <trkpt lat="43.21944" lon="5.48064">
        <ele>261.7</ele>
        <time>2025-10-18T11:53:45Z</time>
      </trkpt>
      <trkpt lat="43.21945" lon="5.48065">
        <ele>261.8</ele>
        <time>2025-10-18T11:53:46Z</time>
      </trkpt>
      <trkpt lat="43.21945" lon="5.48066">
        <ele>262</ele>
        <time>2025-10-18T11:53:47Z</time>
      </trkpt>
      <trkpt lat="43.21945" lon="5.48067">
        <ele>262</ele>
        <time>2025-10-18T11:53:48Z</time>
      </trkpt>
      <trkpt lat="43.21945" lon="5.48067">
        <ele>262</ele>
        <time>2025-10-18T11:53:49Z</time>
      </trkpt>
      <trkpt lat="43.21945" lon="5.48067">
        <ele>262</ele>
        <time>2025-10-18T11:53:50Z</time>
      </trkpt>
      <trkpt lat="43.21945" lon="5.48067">
        <ele>262</ele>
        <time>2025-10-18T11:53:51Z</time>
      </trkpt>
      <trkpt lat="43.21945" lon="5.48067">
        <ele>262.1</ele>
        <time>2025-10-18T11:53:52Z</time>
      </trkpt>
      <trkpt lat="43.21945" lon="5.48068">
        <ele>262.2</ele>
        <time>2025-10-18T11:53:53Z</time>
      </trkpt>
      <trkpt lat="43.21945" lon="5.48068">
        <ele>262.2</ele>
        <time>2025-10-18T11:53:54Z</time>
      </trkpt>
      <trkpt lat="43.21945" lon="5.48068">
        <ele>262.2</ele>
        <time>2025-10-18T11:53:55Z</time>
      </trkpt>
      <trkpt lat="43.21945" lon="5.48068">
        <ele>262.3</ele>
        <time>2025-10-18T11:53:56Z</time>
      </trkpt>
      <trkpt lat="43.21945" lon="5.48068">
        <ele>262.3</ele>
        <time>2025-10-18T11:53:57Z</time>
      </trkpt>
      <trkpt lat="43.21945" lon="5.48068">
        <ele>262.3</ele>
        <time>2025-10-18T11:53:58Z</time>
      </trkpt>
      <trkpt lat="43.21944" lon="5.48068">
        <ele>262.4</ele>
        <time>2025-10-18T11:53:59Z</time>
      </trkpt>
      <trkpt lat="43.21944" lon="5.48068">
        <ele>262.4</ele>
        <time>2025-10-18T11:54:00Z</time>
      </trkpt>
      <trkpt lat="43.21944" lon="5.48068">
        <ele>262.4</ele>
        <time>2025-10-18T11:54:01Z</time>
      </trkpt>
      <trkpt lat="43.21944" lon="5.48069">
        <ele>262.5</ele>
        <time>2025-10-18T11:54:02Z</time>
      </trkpt>
      <trkpt lat="43.21944" lon="5.48069">
        <ele>262.5</ele>
        <time>2025-10-18T11:54:03Z</time>
      </trkpt>
      <trkpt lat="43.21944" lon="5.48069">
        <ele>262.6</ele>
        <time>2025-10-18T11:54:04Z</time>
      </trkpt>
      <trkpt lat="43.21944" lon="5.48069">
        <ele>262.6</ele>
        <time>2025-10-18T11:54:05Z</time>
      </trkpt>
      <trkpt lat="43.21944" lon="5.48069">
        <ele>262.6</ele>
        <time>2025-10-18T11:54:06Z</time>
      </trkpt>
      <trkpt lat="43.21944" lon="5.48069">
        <ele>262.7</ele>
        <time>2025-10-18T11:54:07Z</time>
      </trkpt>
      <trkpt lat="43.21944" lon="5.4807">
        <ele>262.7</ele>
        <time>2025-10-18T11:54:08Z</time>
      </trkpt>
      <trkpt lat="43.21944" lon="5.4807">
        <ele>262.7</ele>
        <time>2025-10-18T11:54:09Z</time>
      </trkpt>
      <trkpt lat="43.21944" lon="5.4807">
        <ele>262.8</ele>
        <time>2025-10-18T11:54:10Z</time>
      </trkpt>
      <trkpt lat="43.21944" lon="5.4807">
        <ele>262.9</ele>
        <time>2025-10-18T11:54:11Z</time>
      </trkpt>
      <trkpt lat="43.21944" lon="5.4807">
        <ele>262.8</ele>
        <time>2025-10-18T11:54:12Z</time>
      </trkpt>
      <trkpt lat="43.21944" lon="5.48071">
        <ele>262.8</ele>
        <time>2025-10-18T11:54:13Z</time>
      </trkpt>
      <trkpt lat="43.21944" lon="5.48071">
        <ele>262.8</ele>
        <time>2025-10-18T11:54:14Z</time>
      </trkpt>
      <trkpt lat="43.21944" lon="5.48071">
        <ele>262.8</ele>
        <time>2025-10-18T11:54:15Z</time>
      </trkpt>
      <trkpt lat="43.21944" lon="5.48071">
        <ele>262.8</ele>
        <time>2025-10-18T11:54:16Z</time>
      </trkpt>
      <trkpt lat="43.21944" lon="5.48071">
        <ele>262.8</ele>
        <time>2025-10-18T11:54:17Z</time>
      </trkpt>
      <trkpt lat="43.21944" lon="5.48072">
        <ele>262.8</ele>
        <time>2025-10-18T11:54:18Z</time>
      </trkpt>
      <trkpt lat="43.21944" lon="5.48072">
        <ele>262.8</ele>
        <time>2025-10-18T11:54:19Z</time>
      </trkpt>
      <trkpt lat="43.21944" lon="5.48072">
        <ele>262.8</ele>
        <time>2025-10-18T11:54:20Z</time>
      </trkpt>
      <trkpt lat="43.21945" lon="5.48073">
        <ele>262.8</ele>
        <time>2025-10-18T11:54:21Z</time>
      </trkpt>
      <trkpt lat="43.21945" lon="5.48074">
        <ele>262.8</ele>
        <time>2025-10-18T11:54:22Z</time>
      </trkpt>
      <trkpt lat="43.21946" lon="5.48075">
        <ele>262.9</ele>
        <time>2025-10-18T11:54:23Z</time>
      </trkpt>
      <trkpt lat="43.21946" lon="5.48076">
        <ele>262.9</ele>
        <time>2025-10-18T11:54:24Z</time>
      </trkpt>
      <trkpt lat="43.21947" lon="5.48077">
        <ele>263</ele>
        <time>2025-10-18T11:54:25Z</time>
      </trkpt>
      <trkpt lat="43.21947" lon="5.48078">
        <ele>263</ele>
        <time>2025-10-18T11:54:26Z</time>
      </trkpt>
      <trkpt lat="43.21948" lon="5.48079">
        <ele>263</ele>
        <time>2025-10-18T11:54:27Z</time>
      </trkpt>
      <trkpt lat="43.21948" lon="5.48081">
        <ele>263.2</ele>
        <time>2025-10-18T11:54:28Z</time>
      </trkpt>
      <trkpt lat="43.21949" lon="5.48082">
        <ele>263.3</ele>
        <time>2025-10-18T11:54:29Z</time>
      </trkpt>
      <trkpt lat="43.21949" lon="5.48083">
        <ele>263.4</ele>
        <time>2025-10-18T11:54:30Z</time>
      </trkpt>
      <trkpt lat="43.2195" lon="5.48084">
        <ele>263.5</ele>
        <time>2025-10-18T11:54:31Z</time>
      </trkpt>
      <trkpt lat="43.21951" lon="5.48084">
        <ele>263.6</ele>
        <time>2025-10-18T11:54:32Z</time>
      </trkpt>
      <trkpt lat="43.21951" lon="5.48084">
        <ele>263.8</ele>
        <time>2025-10-18T11:54:33Z</time>
      </trkpt>
      <trkpt lat="43.21952" lon="5.48085">
        <ele>263.9</ele>
        <time>2025-10-18T11:54:34Z</time>
      </trkpt>
      <trkpt lat="43.21952" lon="5.48086">
        <ele>264</ele>
        <time>2025-10-18T11:54:35Z</time>
      </trkpt>
      <trkpt lat="43.21953" lon="5.48087">
        <ele>264.2</ele>
        <time>2025-10-18T11:54:36Z</time>
      </trkpt>
      <trkpt lat="43.21953" lon="5.48087">
        <ele>264.3</ele>
        <time>2025-10-18T11:54:37Z</time>
      </trkpt>
      <trkpt lat="43.21954" lon="5.48088">
        <ele>264.4</ele>
        <time>2025-10-18T11:54:38Z</time>
      </trkpt>
      <trkpt lat="43.21955" lon="5.48089">
        <ele>264.5</ele>
        <time>2025-10-18T11:54:39Z</time>
      </trkpt>
      <trkpt lat="43.21955" lon="5.48089">
        <ele>264.7</ele>
        <time>2025-10-18T11:54:40Z</time>
      </trkpt>
      <trkpt lat="43.21955" lon="5.48089">
        <ele>264.8</ele>
        <time>2025-10-18T11:54:41Z</time>
      </trkpt>
      <trkpt lat="43.21956" lon="5.48089">
        <ele>265</ele>
        <time>2025-10-18T11:54:42Z</time>
      </trkpt>
      <trkpt lat="43.21956" lon="5.48089">
        <ele>265.1</ele>
        <time>2025-10-18T11:54:43Z</time>
      </trkpt>
      <trkpt lat="43.21956" lon="5.48089">
        <ele>265.2</ele>
        <time>2025-10-18T11:54:44Z</time>
      </trkpt>
      <trkpt lat="43.21956" lon="5.48089">
        <ele>265.3</ele>
        <time>2025-10-18T11:54:45Z</time>
      </trkpt>
      <trkpt lat="43.21956" lon="5.48089">
        <ele>265.4</ele>
        <time>2025-10-18T11:54:46Z</time>
      </trkpt>
      <trkpt lat="43.21956" lon="5.48089">
        <ele>265.4</ele>
        <time>2025-10-18T11:54:47Z</time>
      </trkpt>
      <trkpt lat="43.21956" lon="5.48089">
        <ele>265.4</ele>
        <time>2025-10-18T11:54:48Z</time>
      </trkpt>
      <trkpt lat="43.21956" lon="5.48089">
        <ele>265.3</ele>
        <time>2025-10-18T11:54:49Z</time>
      </trkpt>
      <trkpt lat="43.21956" lon="5.48089">
        <ele>265.4</ele>
        <time>2025-10-18T11:54:50Z</time>
      </trkpt>
      <trkpt lat="43.21957" lon="5.48089">
        <ele>265.4</ele>
        <time>2025-10-18T11:54:51Z</time>
      </trkpt>
      <trkpt lat="43.21957" lon="5.48089">
        <ele>265.4</ele>
        <time>2025-10-18T11:54:52Z</time>
      </trkpt>
      <trkpt lat="43.21957" lon="5.48089">
        <ele>265.4</ele>
        <time>2025-10-18T11:54:53Z</time>
      </trkpt>
      <trkpt lat="43.21957" lon="5.48089">
        <ele>265.4</ele>
        <time>2025-10-18T11:54:54Z</time>
      </trkpt>
      <trkpt lat="43.21957" lon="5.48089">
        <ele>265.4</ele>
        <time>2025-10-18T11:54:55Z</time>
      </trkpt>
      <trkpt lat="43.21957" lon="5.48089">
        <ele>265.5</ele>
        <time>2025-10-18T11:54:56Z</time>
      </trkpt>
      <trkpt lat="43.21957" lon="5.48089">
        <ele>265.5</ele>
        <time>2025-10-18T11:54:57Z</time>
      </trkpt>
      <trkpt lat="43.21957" lon="5.48089">
        <ele>265.5</ele>
        <time>2025-10-18T11:54:58Z</time>
      </trkpt>
      <trkpt lat="43.21957" lon="5.48089">
        <ele>265.5</ele>
        <time>2025-10-18T11:54:59Z</time>
      </trkpt>
      <trkpt lat="43.21957" lon="5.48089">
        <ele>265.4</ele>
        <time>2025-10-18T11:55:00Z</time>
      </trkpt>
      <trkpt lat="43.21957" lon="5.48089">
        <ele>265.4</ele>
        <time>2025-10-18T11:55:01Z</time>
      </trkpt>
      <trkpt lat="43.21957" lon="5.48089">
        <ele>265.4</ele>
        <time>2025-10-18T11:55:02Z</time>
      </trkpt>
      <trkpt lat="43.21958" lon="5.48089">
        <ele>265.4</ele>
        <time>2025-10-18T11:55:03Z</time>
      </trkpt>
      <trkpt lat="43.21958" lon="5.48089">
        <ele>265.4</ele>
        <time>2025-10-18T11:55:04Z</time>
      </trkpt>
      <trkpt lat="43.21958" lon="5.48089">
        <ele>265.3</ele>
        <time>2025-10-18T11:55:05Z</time>
      </trkpt>
      <trkpt lat="43.21958" lon="5.48089">
        <ele>265.3</ele>
        <time>2025-10-18T11:55:06Z</time>
      </trkpt>
      <trkpt lat="43.21958" lon="5.48089">
        <ele>265.3</ele>
        <time>2025-10-18T11:55:07Z</time>
      </trkpt>
      <trkpt lat="43.21958" lon="5.4809">
        <ele>265.4</ele>
        <time>2025-10-18T11:55:08Z</time>
      </trkpt>
      <trkpt lat="43.21959" lon="5.48091">
        <ele>265.3</ele>
        <time>2025-10-18T11:55:09Z</time>
      </trkpt>
      <trkpt lat="43.21959" lon="5.48091">
        <ele>265.3</ele>
        <time>2025-10-18T11:55:10Z</time>
      </trkpt>
      <trkpt lat="43.21959" lon="5.48091">
        <ele>265.3</ele>
        <time>2025-10-18T11:55:11Z</time>
      </trkpt>
      <trkpt lat="43.21959" lon="5.48092">
        <ele>265.4</ele>
        <time>2025-10-18T11:55:12Z</time>
      </trkpt>
      <trkpt lat="43.21959" lon="5.48092">
        <ele>265.4</ele>
        <time>2025-10-18T11:55:13Z</time>
      </trkpt>
      <trkpt lat="43.21959" lon="5.48092">
        <ele>265.5</ele>
        <time>2025-10-18T11:55:14Z</time>
      </trkpt>
      <trkpt lat="43.21959" lon="5.48093">
        <ele>265.5</ele>
        <time>2025-10-18T11:55:15Z</time>
      </trkpt>
      <trkpt lat="43.21958" lon="5.48093">
        <ele>265.5</ele>
        <time>2025-10-18T11:55:16Z</time>
      </trkpt>
      <trkpt lat="43.21959" lon="5.48093">
        <ele>265.5</ele>
        <time>2025-10-18T11:55:17Z</time>
      </trkpt>
      <trkpt lat="43.21959" lon="5.48094">
        <ele>265.6</ele>
        <time>2025-10-18T11:55:18Z</time>
      </trkpt>
      <trkpt lat="43.2196" lon="5.48095">
        <ele>265.7</ele>
        <time>2025-10-18T11:55:19Z</time>
      </trkpt>
      <trkpt lat="43.2196" lon="5.48096">
        <ele>265.8</ele>
        <time>2025-10-18T11:55:20Z</time>
      </trkpt>
      <trkpt lat="43.21961" lon="5.48097">
        <ele>265.8</ele>
        <time>2025-10-18T11:55:21Z</time>
      </trkpt>
      <trkpt lat="43.21961" lon="5.48098">
        <ele>265.8</ele>
        <time>2025-10-18T11:55:22Z</time>
      </trkpt>
      <trkpt lat="43.21962" lon="5.48099">
        <ele>265.8</ele>
        <time>2025-10-18T11:55:23Z</time>
      </trkpt>
      <trkpt lat="43.21962" lon="5.481">
        <ele>265.9</ele>
        <time>2025-10-18T11:55:24Z</time>
      </trkpt>
      <trkpt lat="43.21963" lon="5.48101">
        <ele>266</ele>
        <time>2025-10-18T11:55:25Z</time>
      </trkpt>
      <trkpt lat="43.21964" lon="5.48102">
        <ele>266.1</ele>
        <time>2025-10-18T11:55:26Z</time>
      </trkpt>
      <trkpt lat="43.21965" lon="5.48103">
        <ele>266.3</ele>
        <time>2025-10-18T11:55:27Z</time>
      </trkpt>
      <trkpt lat="43.21966" lon="5.48103">
        <ele>266.4</ele>
        <time>2025-10-18T11:55:28Z</time>
      </trkpt>
      <trkpt lat="43.21966" lon="5.48104">
        <ele>266.6</ele>
        <time>2025-10-18T11:55:29Z</time>
      </trkpt>
      <trkpt lat="43.21967" lon="5.48105">
        <ele>266.7</ele>
        <time>2025-10-18T11:55:30Z</time>
      </trkpt>
      <trkpt lat="43.21968" lon="5.48106">
        <ele>266.7</ele>
        <time>2025-10-18T11:55:31Z</time>
      </trkpt>
      <trkpt lat="43.21969" lon="5.48107">
        <ele>266.8</ele>
        <time>2025-10-18T11:55:32Z</time>
      </trkpt>
      <trkpt lat="43.2197" lon="5.48108">
        <ele>266.9</ele>
        <time>2025-10-18T11:55:33Z</time>
      </trkpt>
      <trkpt lat="43.2197" lon="5.48109">
        <ele>266.9</ele>
        <time>2025-10-18T11:55:34Z</time>
      </trkpt>
      <trkpt lat="43.21971" lon="5.4811">
        <ele>267</ele>
        <time>2025-10-18T11:55:35Z</time>
      </trkpt>
      <trkpt lat="43.21972" lon="5.48111">
        <ele>267.1</ele>
        <time>2025-10-18T11:55:36Z</time>
      </trkpt>
      <trkpt lat="43.21972" lon="5.48112">
        <ele>267.2</ele>
        <time>2025-10-18T11:55:37Z</time>
      </trkpt>
      <trkpt lat="43.21973" lon="5.48113">
        <ele>267.4</ele>
        <time>2025-10-18T11:55:38Z</time>
      </trkpt>
      <trkpt lat="43.21974" lon="5.48113">
        <ele>267.6</ele>
        <time>2025-10-18T11:55:39Z</time>
      </trkpt>
      <trkpt lat="43.21975" lon="5.48114">
        <ele>267.9</ele>
        <time>2025-10-18T11:55:40Z</time>
      </trkpt>
      <trkpt lat="43.21976" lon="5.48114">
        <ele>268</ele>
        <time>2025-10-18T11:55:41Z</time>
      </trkpt>
      <trkpt lat="43.21976" lon="5.48115">
        <ele>268.2</ele>
        <time>2025-10-18T11:55:42Z</time>
      </trkpt>
      <trkpt lat="43.21977" lon="5.48115">
        <ele>268.4</ele>
        <time>2025-10-18T11:55:43Z</time>
      </trkpt>
      <trkpt lat="43.21978" lon="5.48115">
        <ele>268.6</ele>
        <time>2025-10-18T11:55:44Z</time>
      </trkpt>
      <trkpt lat="43.21979" lon="5.48115">
        <ele>268.6</ele>
        <time>2025-10-18T11:55:45Z</time>
      </trkpt>
      <trkpt lat="43.2198" lon="5.48115">
        <ele>268.8</ele>
        <time>2025-10-18T11:55:46Z</time>
      </trkpt>
      <trkpt lat="43.21981" lon="5.48115">
        <ele>268.9</ele>
        <time>2025-10-18T11:55:47Z</time>
      </trkpt>
      <trkpt lat="43.21982" lon="5.48114">
        <ele>269.2</ele>
        <time>2025-10-18T11:55:48Z</time>
      </trkpt>
      <trkpt lat="43.21983" lon="5.48113">
        <ele>269.4</ele>
        <time>2025-10-18T11:55:49Z</time>
      </trkpt>
      <trkpt lat="43.21984" lon="5.48113">
        <ele>269.6</ele>
        <time>2025-10-18T11:55:50Z</time>
      </trkpt>
      <trkpt lat="43.21984" lon="5.48113">
        <ele>269.7</ele>
        <time>2025-10-18T11:55:51Z</time>
      </trkpt>
      <trkpt lat="43.21986" lon="5.48113">
        <ele>269.9</ele>
        <time>2025-10-18T11:55:52Z</time>
      </trkpt>
      <trkpt lat="43.21986" lon="5.48112">
        <ele>270</ele>
        <time>2025-10-18T11:55:53Z</time>
      </trkpt>
      <trkpt lat="43.21987" lon="5.48112">
        <ele>270.1</ele>
        <time>2025-10-18T11:55:54Z</time>
      </trkpt>
      <trkpt lat="43.21988" lon="5.48111">
        <ele>270.2</ele>
        <time>2025-10-18T11:55:55Z</time>
      </trkpt>
      <trkpt lat="43.21989" lon="5.4811">
        <ele>270.2</ele>
        <time>2025-10-18T11:55:56Z</time>
      </trkpt>
      <trkpt lat="43.2199" lon="5.48109">
        <ele>270.3</ele>
        <time>2025-10-18T11:55:57Z</time>
      </trkpt>
      <trkpt lat="43.2199" lon="5.48109">
        <ele>270.3</ele>
        <time>2025-10-18T11:55:58Z</time>
      </trkpt>
      <trkpt lat="43.21991" lon="5.48108">
        <ele>270.3</ele>
        <time>2025-10-18T11:55:59Z</time>
      </trkpt>
      <trkpt lat="43.21992" lon="5.48106">
        <ele>270.3</ele>
        <time>2025-10-18T11:56:00Z</time>
      </trkpt>
      <trkpt lat="43.21993" lon="5.48105">
        <ele>270.3</ele>
        <time>2025-10-18T11:56:01Z</time>
      </trkpt>
      <trkpt lat="43.21994" lon="5.48104">
        <ele>270.3</ele>
        <time>2025-10-18T11:56:02Z</time>
      </trkpt>
      <trkpt lat="43.21995" lon="5.48103">
        <ele>270.2</ele>
        <time>2025-10-18T11:56:03Z</time>
      </trkpt>
      <trkpt lat="43.21995" lon="5.48102">
        <ele>270.1</ele>
        <time>2025-10-18T11:56:04Z</time>
      </trkpt>
      <trkpt lat="43.21996" lon="5.48101">
        <ele>270</ele>
        <time>2025-10-18T11:56:05Z</time>
      </trkpt>
      <trkpt lat="43.21997" lon="5.481">
        <ele>269.9</ele>
        <time>2025-10-18T11:56:06Z</time>
      </trkpt>
      <trkpt lat="43.21997" lon="5.48099">
        <ele>269.7</ele>
        <time>2025-10-18T11:56:07Z</time>
      </trkpt>
      <trkpt lat="43.21998" lon="5.48098">
        <ele>269.6</ele>
        <time>2025-10-18T11:56:08Z</time>
      </trkpt>
      <trkpt lat="43.21998" lon="5.48097">
        <ele>269.4</ele>
        <time>2025-10-18T11:56:09Z</time>
      </trkpt>
      <trkpt lat="43.21999" lon="5.48096">
        <ele>269.2</ele>
        <time>2025-10-18T11:56:10Z</time>
      </trkpt>
      <trkpt lat="43.22" lon="5.48095">
        <ele>269.1</ele>
        <time>2025-10-18T11:56:11Z</time>
      </trkpt>
      <trkpt lat="43.22001" lon="5.48094">
        <ele>268.9</ele>
        <time>2025-10-18T11:56:12Z</time>
      </trkpt>
      <trkpt lat="43.22002" lon="5.48093">
        <ele>268.8</ele>
        <time>2025-10-18T11:56:13Z</time>
      </trkpt>
      <trkpt lat="43.22003" lon="5.48092">
        <ele>268.6</ele>
        <time>2025-10-18T11:56:14Z</time>
      </trkpt>
      <trkpt lat="43.22004" lon="5.48092">
        <ele>268.3</ele>
        <time>2025-10-18T11:56:15Z</time>
      </trkpt>
      <trkpt lat="43.22005" lon="5.48091">
        <ele>268.2</ele>
        <time>2025-10-18T11:56:16Z</time>
      </trkpt>
      <trkpt lat="43.22005" lon="5.4809">
        <ele>268.1</ele>
        <time>2025-10-18T11:56:17Z</time>
      </trkpt>
      <trkpt lat="43.22006" lon="5.4809">
        <ele>268.1</ele>
        <time>2025-10-18T11:56:18Z</time>
      </trkpt>
      <trkpt lat="43.22007" lon="5.4809">
        <ele>267.9</ele>
        <time>2025-10-18T11:56:19Z</time>
      </trkpt>
      <trkpt lat="43.22008" lon="5.48089">
        <ele>267.8</ele>
        <time>2025-10-18T11:56:20Z</time>
      </trkpt>
      <trkpt lat="43.22008" lon="5.48088">
        <ele>267.7</ele>
        <time>2025-10-18T11:56:21Z</time>
      </trkpt>
      <trkpt lat="43.22009" lon="5.48087">
        <ele>267.6</ele>
        <time>2025-10-18T11:56:22Z</time>
      </trkpt>
      <trkpt lat="43.22011" lon="5.48086">
        <ele>267.5</ele>
        <time>2025-10-18T11:56:23Z</time>
      </trkpt>
      <trkpt lat="43.22012" lon="5.48085">
        <ele>267.4</ele>
        <time>2025-10-18T11:56:24Z</time>
      </trkpt>
      <trkpt lat="43.22013" lon="5.48085">
        <ele>267.3</ele>
        <time>2025-10-18T11:56:25Z</time>
      </trkpt>
      <trkpt lat="43.22014" lon="5.48084">
        <ele>267.2</ele>
        <time>2025-10-18T11:56:26Z</time>
      </trkpt>
      <trkpt lat="43.22015" lon="5.48083">
        <ele>267.1</ele>
        <time>2025-10-18T11:56:27Z</time>
      </trkpt>
      <trkpt lat="43.22015" lon="5.48083">
        <ele>267</ele>
        <time>2025-10-18T11:56:28Z</time>
      </trkpt>
      <trkpt lat="43.22016" lon="5.48082">
        <ele>266.9</ele>
        <time>2025-10-18T11:56:29Z</time>
      </trkpt>
      <trkpt lat="43.22017" lon="5.48082">
        <ele>266.9</ele>
        <time>2025-10-18T11:56:30Z</time>
      </trkpt>
      <trkpt lat="43.22018" lon="5.48082">
        <ele>266.9</ele>
        <time>2025-10-18T11:56:31Z</time>
      </trkpt>
      <trkpt lat="43.22019" lon="5.48081">
        <ele>266.9</ele>
        <time>2025-10-18T11:56:32Z</time>
      </trkpt>
      <trkpt lat="43.2202" lon="5.48081">
        <ele>267</ele>
        <time>2025-10-18T11:56:33Z</time>
      </trkpt>
      <trkpt lat="43.2202" lon="5.48081">
        <ele>266.8</ele>
        <time>2025-10-18T11:56:34Z</time>
      </trkpt>
      <trkpt lat="43.22021" lon="5.48081">
        <ele>266.7</ele>
        <time>2025-10-18T11:56:35Z</time>
      </trkpt>
      <trkpt lat="43.22022" lon="5.48081">
        <ele>266.6</ele>
        <time>2025-10-18T11:56:36Z</time>
      </trkpt>
      <trkpt lat="43.22022" lon="5.48081">
        <ele>266.4</ele>
        <time>2025-10-18T11:56:37Z</time>
      </trkpt>
      <trkpt lat="43.22022" lon="5.48081">
        <ele>266.3</ele>
        <time>2025-10-18T11:56:38Z</time>
      </trkpt>
      <trkpt lat="43.22022" lon="5.48081">
        <ele>266.2</ele>
        <time>2025-10-18T11:56:39Z</time>
      </trkpt>
      <trkpt lat="43.22022" lon="5.48081">
        <ele>266</ele>
        <time>2025-10-18T11:56:40Z</time>
      </trkpt>
      <trkpt lat="43.22022" lon="5.48081">
        <ele>265.9</ele>
        <time>2025-10-18T11:56:41Z</time>
      </trkpt>
      <trkpt lat="43.22022" lon="5.48081">
        <ele>265.9</ele>
        <time>2025-10-18T11:56:42Z</time>
      </trkpt>
      <trkpt lat="43.22023" lon="5.48081">
        <ele>265.8</ele>
        <time>2025-10-18T11:56:43Z</time>
      </trkpt>
      <trkpt lat="43.22023" lon="5.48081">
        <ele>265.8</ele>
        <time>2025-10-18T11:56:44Z</time>
      </trkpt>
      <trkpt lat="43.22024" lon="5.48081">
        <ele>265.7</ele>
        <time>2025-10-18T11:56:45Z</time>
      </trkpt>
      <trkpt lat="43.22024" lon="5.48081">
        <ele>265.7</ele>
        <time>2025-10-18T11:56:46Z</time>
      </trkpt>
      <trkpt lat="43.22024" lon="5.48081">
        <ele>265.7</ele>
        <time>2025-10-18T11:56:47Z</time>
      </trkpt>
      <trkpt lat="43.22024" lon="5.48081">
        <ele>265.7</ele>
        <time>2025-10-18T11:56:48Z</time>
      </trkpt>
      <trkpt lat="43.22024" lon="5.4808">
        <ele>265.7</ele>
        <time>2025-10-18T11:56:49Z</time>
      </trkpt>
      <trkpt lat="43.22024" lon="5.4808">
        <ele>265.7</ele>
        <time>2025-10-18T11:56:50Z</time>
      </trkpt>
      <trkpt lat="43.22025" lon="5.4808">
        <ele>265.6</ele>
        <time>2025-10-18T11:56:51Z</time>
      </trkpt>
      <trkpt lat="43.22026" lon="5.4808">
        <ele>265.4</ele>
        <time>2025-10-18T11:56:52Z</time>
      </trkpt>
      <trkpt lat="43.22026" lon="5.4808">
        <ele>265.1</ele>
        <time>2025-10-18T11:56:53Z</time>
      </trkpt>
      <trkpt lat="43.22026" lon="5.4808">
        <ele>264.9</ele>
        <time>2025-10-18T11:56:54Z</time>
      </trkpt>
      <trkpt lat="43.22026" lon="5.4808">
        <ele>264.7</ele>
        <time>2025-10-18T11:56:55Z</time>
      </trkpt>
      <trkpt lat="43.22026" lon="5.4808">
        <ele>264.6</ele>
        <time>2025-10-18T11:56:56Z</time>
      </trkpt>
      <trkpt lat="43.22026" lon="5.4808">
        <ele>264.4</ele>
        <time>2025-10-18T11:56:57Z</time>
      </trkpt>
      <trkpt lat="43.22026" lon="5.4808">
        <ele>264.4</ele>
        <time>2025-10-18T11:56:58Z</time>
      </trkpt>
      <trkpt lat="43.22027" lon="5.48079">
        <ele>264.4</ele>
        <time>2025-10-18T11:56:59Z</time>
      </trkpt>
      <trkpt lat="43.22028" lon="5.48079">
        <ele>264.4</ele>
        <time>2025-10-18T11:57:00Z</time>
      </trkpt>
      <trkpt lat="43.22028" lon="5.48078">
        <ele>264.3</ele>
        <time>2025-10-18T11:57:01Z</time>
      </trkpt>
      <trkpt lat="43.22028" lon="5.48078">
        <ele>264.3</ele>
        <time>2025-10-18T11:57:02Z</time>
      </trkpt>
      <trkpt lat="43.22028" lon="5.48078">
        <ele>264.2</ele>
        <time>2025-10-18T11:57:03Z</time>
      </trkpt>
      <trkpt lat="43.22028" lon="5.48078">
        <ele>264.2</ele>
        <time>2025-10-18T11:57:04Z</time>
      </trkpt>
      <trkpt lat="43.22028" lon="5.48078">
        <ele>264.2</ele>
        <time>2025-10-18T11:57:05Z</time>
      </trkpt>
      <trkpt lat="43.22028" lon="5.48078">
        <ele>264.2</ele>
        <time>2025-10-18T11:57:06Z</time>
      </trkpt>
      <trkpt lat="43.22028" lon="5.48077">
        <ele>264.2</ele>
        <time>2025-10-18T11:57:07Z</time>
      </trkpt>
      <trkpt lat="43.22029" lon="5.48077">
        <ele>264.1</ele>
        <time>2025-10-18T11:57:08Z</time>
      </trkpt>
      <trkpt lat="43.22029" lon="5.48076">
        <ele>264.1</ele>
        <time>2025-10-18T11:57:09Z</time>
      </trkpt>
      <trkpt lat="43.2203" lon="5.48076">
        <ele>264</ele>
        <time>2025-10-18T11:57:10Z</time>
      </trkpt>
      <trkpt lat="43.2203" lon="5.48075">
        <ele>264</ele>
        <time>2025-10-18T11:57:11Z</time>
      </trkpt>
      <trkpt lat="43.22031" lon="5.48074">
        <ele>263.9</ele>
        <time>2025-10-18T11:57:12Z</time>
      </trkpt>
      <trkpt lat="43.22031" lon="5.48074">
        <ele>263.9</ele>
        <time>2025-10-18T11:57:13Z</time>
      </trkpt>
      <trkpt lat="43.22031" lon="5.48073">
        <ele>263.8</ele>
        <time>2025-10-18T11:57:14Z</time>
      </trkpt>
      <trkpt lat="43.22032" lon="5.48072">
        <ele>263.7</ele>
        <time>2025-10-18T11:57:15Z</time>
      </trkpt>
      <trkpt lat="43.22032" lon="5.4807">
        <ele>263.5</ele>
        <time>2025-10-18T11:57:16Z</time>
      </trkpt>
      <trkpt lat="43.22032" lon="5.48069">
        <ele>263.4</ele>
        <time>2025-10-18T11:57:17Z</time>
      </trkpt>
      <trkpt lat="43.22032" lon="5.48068">
        <ele>263.2</ele>
        <time>2025-10-18T11:57:18Z</time>
      </trkpt>
      <trkpt lat="43.22033" lon="5.48068">
        <ele>263.1</ele>
        <time>2025-10-18T11:57:19Z</time>
      </trkpt>
      <trkpt lat="43.22033" lon="5.48066">
        <ele>262.9</ele>
        <time>2025-10-18T11:57:20Z</time>
      </trkpt>
      <trkpt lat="43.22033" lon="5.48065">
        <ele>262.8</ele>
        <time>2025-10-18T11:57:21Z</time>
      </trkpt>
      <trkpt lat="43.22034" lon="5.48064">
        <ele>262.7</ele>
        <time>2025-10-18T11:57:22Z</time>
      </trkpt>
      <trkpt lat="43.22035" lon="5.48063">
        <ele>262.7</ele>
        <time>2025-10-18T11:57:23Z</time>
      </trkpt>
      <trkpt lat="43.22035" lon="5.48061">
        <ele>262.6</ele>
        <time>2025-10-18T11:57:24Z</time>
      </trkpt>
      <trkpt lat="43.22036" lon="5.4806">
        <ele>262.4</ele>
        <time>2025-10-18T11:57:25Z</time>
      </trkpt>
      <trkpt lat="43.22036" lon="5.48058">
        <ele>262.3</ele>
        <time>2025-10-18T11:57:26Z</time>
      </trkpt>
      <trkpt lat="43.22036" lon="5.48057">
        <ele>262.3</ele>
        <time>2025-10-18T11:57:27Z</time>
      </trkpt>
      <trkpt lat="43.22036" lon="5.48056">
        <ele>262.1</ele>
        <time>2025-10-18T11:57:28Z</time>
      </trkpt>
      <trkpt lat="43.22037" lon="5.48054">
        <ele>262</ele>
        <time>2025-10-18T11:57:29Z</time>
      </trkpt>
      <trkpt lat="43.22037" lon="5.48053">
        <ele>261.9</ele>
        <time>2025-10-18T11:57:30Z</time>
      </trkpt>
      <trkpt lat="43.22037" lon="5.48052">
        <ele>261.8</ele>
        <time>2025-10-18T11:57:31Z</time>
      </trkpt>
      <trkpt lat="43.22038" lon="5.4805">
        <ele>261.7</ele>
        <time>2025-10-18T11:57:32Z</time>
      </trkpt>
      <trkpt lat="43.22038" lon="5.48049">
        <ele>261.7</ele>
        <time>2025-10-18T11:57:33Z</time>
      </trkpt>
      <trkpt lat="43.22039" lon="5.48048">
        <ele>261.6</ele>
        <time>2025-10-18T11:57:34Z</time>
      </trkpt>
      <trkpt lat="43.22039" lon="5.48046">
        <ele>261.5</ele>
        <time>2025-10-18T11:57:35Z</time>
      </trkpt>
      <trkpt lat="43.2204" lon="5.48045">
        <ele>261.4</ele>
        <time>2025-10-18T11:57:36Z</time>
      </trkpt>
      <trkpt lat="43.2204" lon="5.48044">
        <ele>261.3</ele>
        <time>2025-10-18T11:57:37Z</time>
      </trkpt>
      <trkpt lat="43.22041" lon="5.48042">
        <ele>261.1</ele>
        <time>2025-10-18T11:57:38Z</time>
      </trkpt>
      <trkpt lat="43.22041" lon="5.48041">
        <ele>260.9</ele>
        <time>2025-10-18T11:57:39Z</time>
      </trkpt>
      <trkpt lat="43.22042" lon="5.4804">
        <ele>260.8</ele>
        <time>2025-10-18T11:57:40Z</time>
      </trkpt>
      <trkpt lat="43.22042" lon="5.48039">
        <ele>260.6</ele>
        <time>2025-10-18T11:57:41Z</time>
      </trkpt>
      <trkpt lat="43.22043" lon="5.48038">
        <ele>260.5</ele>
        <time>2025-10-18T11:57:42Z</time>
      </trkpt>
      <trkpt lat="43.22043" lon="5.48036">
        <ele>260.4</ele>
        <time>2025-10-18T11:57:43Z</time>
      </trkpt>
      <trkpt lat="43.22044" lon="5.48035">
        <ele>260.3</ele>
        <time>2025-10-18T11:57:44Z</time>
      </trkpt>
      <trkpt lat="43.22044" lon="5.48033">
        <ele>260.3</ele>
        <time>2025-10-18T11:57:45Z</time>
      </trkpt>
      <trkpt lat="43.22045" lon="5.48031">
        <ele>260.1</ele>
        <time>2025-10-18T11:57:46Z</time>
      </trkpt>
      <trkpt lat="43.22046" lon="5.4803">
        <ele>260</ele>
        <time>2025-10-18T11:57:47Z</time>
      </trkpt>
      <trkpt lat="43.22046" lon="5.48029">
        <ele>259.9</ele>
        <time>2025-10-18T11:57:48Z</time>
      </trkpt>
      <trkpt lat="43.22047" lon="5.48027">
        <ele>259.8</ele>
        <time>2025-10-18T11:57:49Z</time>
      </trkpt>
      <trkpt lat="43.22048" lon="5.48027">
        <ele>259.7</ele>
        <time>2025-10-18T11:57:50Z</time>
      </trkpt>
      <trkpt lat="43.22048" lon="5.48026">
        <ele>259.6</ele>
        <time>2025-10-18T11:57:51Z</time>
      </trkpt>
      <trkpt lat="43.22048" lon="5.48026">
        <ele>259.4</ele>
        <time>2025-10-18T11:57:52Z</time>
      </trkpt>
      <trkpt lat="43.22048" lon="5.48026">
        <ele>259.4</ele>
        <time>2025-10-18T11:57:53Z</time>
      </trkpt>
      <trkpt lat="43.22048" lon="5.48026">
        <ele>259.3</ele>
        <time>2025-10-18T11:57:54Z</time>
      </trkpt>
      <trkpt lat="43.22048" lon="5.48026">
        <ele>259.2</ele>
        <time>2025-10-18T11:57:55Z</time>
      </trkpt>
      <trkpt lat="43.22049" lon="5.48026">
        <ele>259.1</ele>
        <time>2025-10-18T11:57:56Z</time>
      </trkpt>
      <trkpt lat="43.22049" lon="5.48025">
        <ele>259</ele>
        <time>2025-10-18T11:57:57Z</time>
      </trkpt>
      <trkpt lat="43.2205" lon="5.48025">
        <ele>259</ele>
        <time>2025-10-18T11:57:58Z</time>
      </trkpt>
      <trkpt lat="43.22051" lon="5.48024">
        <ele>258.9</ele>
        <time>2025-10-18T11:57:59Z</time>
      </trkpt>
      <trkpt lat="43.22052" lon="5.48023">
        <ele>258.8</ele>
        <time>2025-10-18T11:58:00Z</time>
      </trkpt>
      <trkpt lat="43.22053" lon="5.48022">
        <ele>258.9</ele>
        <time>2025-10-18T11:58:01Z</time>
      </trkpt>
      <trkpt lat="43.22054" lon="5.48021">
        <ele>258.9</ele>
        <time>2025-10-18T11:58:02Z</time>
      </trkpt>
      <trkpt lat="43.22055" lon="5.48021">
        <ele>258.8</ele>
        <time>2025-10-18T11:58:03Z</time>
      </trkpt>
      <trkpt lat="43.22056" lon="5.4802">
        <ele>258.9</ele>
        <time>2025-10-18T11:58:04Z</time>
      </trkpt>
      <trkpt lat="43.22057" lon="5.4802">
        <ele>258.8</ele>
        <time>2025-10-18T11:58:05Z</time>
      </trkpt>
      <trkpt lat="43.22057" lon="5.4802">
        <ele>258.7</ele>
        <time>2025-10-18T11:58:06Z</time>
      </trkpt>
      <trkpt lat="43.22058" lon="5.48019">
        <ele>258.7</ele>
        <time>2025-10-18T11:58:07Z</time>
      </trkpt>
      <trkpt lat="43.22059" lon="5.48019">
        <ele>258.6</ele>
        <time>2025-10-18T11:58:08Z</time>
      </trkpt>
      <trkpt lat="43.2206" lon="5.48019">
        <ele>258.5</ele>
        <time>2025-10-18T11:58:09Z</time>
      </trkpt>
      <trkpt lat="43.22061" lon="5.48019">
        <ele>258.5</ele>
        <time>2025-10-18T11:58:10Z</time>
      </trkpt>
      <trkpt lat="43.22062" lon="5.48018">
        <ele>258.3</ele>
        <time>2025-10-18T11:58:11Z</time>
      </trkpt>
      <trkpt lat="43.22062" lon="5.48018">
        <ele>258.2</ele>
        <time>2025-10-18T11:58:12Z</time>
      </trkpt>
      <trkpt lat="43.22063" lon="5.48018">
        <ele>258.2</ele>
        <time>2025-10-18T11:58:13Z</time>
      </trkpt>
      <trkpt lat="43.22064" lon="5.48018">
        <ele>258</ele>
        <time>2025-10-18T11:58:14Z</time>
      </trkpt>
      <trkpt lat="43.22065" lon="5.48018">
        <ele>257.9</ele>
        <time>2025-10-18T11:58:15Z</time>
      </trkpt>
      <trkpt lat="43.22065" lon="5.48018">
        <ele>257.6</ele>
        <time>2025-10-18T11:58:16Z</time>
      </trkpt>
      <trkpt lat="43.22065" lon="5.48018">
        <ele>257.4</ele>
        <time>2025-10-18T11:58:17Z</time>
      </trkpt>
      <trkpt lat="43.22065" lon="5.48018">
        <ele>257.2</ele>
        <time>2025-10-18T11:58:18Z</time>
      </trkpt>
      <trkpt lat="43.22065" lon="5.48018">
        <ele>257.2</ele>
        <time>2025-10-18T11:58:19Z</time>
      </trkpt>
      <trkpt lat="43.22065" lon="5.48019">
        <ele>257.1</ele>
        <time>2025-10-18T11:58:20Z</time>
      </trkpt>
      <trkpt lat="43.22065" lon="5.48018">
        <ele>257</ele>
        <time>2025-10-18T11:58:21Z</time>
      </trkpt>
      <trkpt lat="43.22065" lon="5.48019">
        <ele>257</ele>
        <time>2025-10-18T11:58:22Z</time>
      </trkpt>
      <trkpt lat="43.22065" lon="5.48018">
        <ele>257</ele>
        <time>2025-10-18T11:58:23Z</time>
      </trkpt>
      <trkpt lat="43.22065" lon="5.48018">
        <ele>256.9</ele>
        <time>2025-10-18T11:58:24Z</time>
      </trkpt>
      <trkpt lat="43.22065" lon="5.48018">
        <ele>256.9</ele>
        <time>2025-10-18T11:58:25Z</time>
      </trkpt>
      <trkpt lat="43.22066" lon="5.48018">
        <ele>256.9</ele>
        <time>2025-10-18T11:58:26Z</time>
      </trkpt>
      <trkpt lat="43.22066" lon="5.48019">
        <ele>256.9</ele>
        <time>2025-10-18T11:58:27Z</time>
      </trkpt>
      <trkpt lat="43.22066" lon="5.48018">
        <ele>256.9</ele>
        <time>2025-10-18T11:58:28Z</time>
      </trkpt>
      <trkpt lat="43.22066" lon="5.48019">
        <ele>256.9</ele>
        <time>2025-10-18T11:58:29Z</time>
      </trkpt>
      <trkpt lat="43.22067" lon="5.48019">
        <ele>256.9</ele>
        <time>2025-10-18T11:58:30Z</time>
      </trkpt>
      <trkpt lat="43.22067" lon="5.48019">
        <ele>256.8</ele>
        <time>2025-10-18T11:58:31Z</time>
      </trkpt>
      <trkpt lat="43.22068" lon="5.48019">
        <ele>256.7</ele>
        <time>2025-10-18T11:58:32Z</time>
      </trkpt>
      <trkpt lat="43.22069" lon="5.48019">
        <ele>256.5</ele>
        <time>2025-10-18T11:58:33Z</time>
      </trkpt>
      <trkpt lat="43.22069" lon="5.4802">
        <ele>256.4</ele>
        <time>2025-10-18T11:58:34Z</time>
      </trkpt>
      <trkpt lat="43.2207" lon="5.4802">
        <ele>256.2</ele>
        <time>2025-10-18T11:58:35Z</time>
      </trkpt>
      <trkpt lat="43.2207" lon="5.4802">
        <ele>256.1</ele>
        <time>2025-10-18T11:58:36Z</time>
      </trkpt>
      <trkpt lat="43.22071" lon="5.4802">
        <ele>255.8</ele>
        <time>2025-10-18T11:58:37Z</time>
      </trkpt>
      <trkpt lat="43.22071" lon="5.4802">
        <ele>255.8</ele>
        <time>2025-10-18T11:58:38Z</time>
      </trkpt>
      <trkpt lat="43.22071" lon="5.4802">
        <ele>255.7</ele>
        <time>2025-10-18T11:58:39Z</time>
      </trkpt>
      <trkpt lat="43.22071" lon="5.4802">
        <ele>255.6</ele>
        <time>2025-10-18T11:58:40Z</time>
      </trkpt>
      <trkpt lat="43.22071" lon="5.4802">
        <ele>255.6</ele>
        <time>2025-10-18T11:58:41Z</time>
      </trkpt>
      <trkpt lat="43.22071" lon="5.4802">
        <ele>255.5</ele>
        <time>2025-10-18T11:58:42Z</time>
      </trkpt>
      <trkpt lat="43.22071" lon="5.4802">
        <ele>255.5</ele>
        <time>2025-10-18T11:58:43Z</time>
      </trkpt>
      <trkpt lat="43.22071" lon="5.4802">
        <ele>255.5</ele>
        <time>2025-10-18T11:58:44Z</time>
      </trkpt>
      <trkpt lat="43.22071" lon="5.4802">
        <ele>255.4</ele>
        <time>2025-10-18T11:58:45Z</time>
      </trkpt>
      <trkpt lat="43.22071" lon="5.4802">
        <ele>255.4</ele>
        <time>2025-10-18T11:58:46Z</time>
      </trkpt>
      <trkpt lat="43.22071" lon="5.4802">
        <ele>255.4</ele>
        <time>2025-10-18T11:58:47Z</time>
      </trkpt>
      <trkpt lat="43.22071" lon="5.4802">
        <ele>255.4</ele>
        <time>2025-10-18T11:58:48Z</time>
      </trkpt>
      <trkpt lat="43.22071" lon="5.4802">
        <ele>255.4</ele>
        <time>2025-10-18T11:58:49Z</time>
      </trkpt>
      <trkpt lat="43.22071" lon="5.4802">
        <ele>255.4</ele>
        <time>2025-10-18T11:58:50Z</time>
      </trkpt>
      <trkpt lat="43.22071" lon="5.4802">
        <ele>255.4</ele>
        <time>2025-10-18T11:58:51Z</time>
      </trkpt>
      <trkpt lat="43.22071" lon="5.4802">
        <ele>255.4</ele>
        <time>2025-10-18T11:58:52Z</time>
      </trkpt>
      <trkpt lat="43.22071" lon="5.4802">
        <ele>255.3</ele>
        <time>2025-10-18T11:58:53Z</time>
      </trkpt>
      <trkpt lat="43.22072" lon="5.48019">
        <ele>255.3</ele>
        <time>2025-10-18T11:58:54Z</time>
      </trkpt>
      <trkpt lat="43.22072" lon="5.48019">
        <ele>255.3</ele>
        <time>2025-10-18T11:58:55Z</time>
      </trkpt>
      <trkpt lat="43.22072" lon="5.48019">
        <ele>255.5</ele>
        <time>2025-10-18T11:58:56Z</time>
      </trkpt>
      <trkpt lat="43.22072" lon="5.48018">
        <ele>255.5</ele>
        <time>2025-10-18T11:58:57Z</time>
      </trkpt>
      <trkpt lat="43.22072" lon="5.48019">
        <ele>255.6</ele>
        <time>2025-10-18T11:58:58Z</time>
      </trkpt>
      <trkpt lat="43.22072" lon="5.48019">
        <ele>255.6</ele>
        <time>2025-10-18T11:58:59Z</time>
      </trkpt>
      <trkpt lat="43.22073" lon="5.48019">
        <ele>255.6</ele>
        <time>2025-10-18T11:59:00Z</time>
      </trkpt>
      <trkpt lat="43.22073" lon="5.48018">
        <ele>255.6</ele>
        <time>2025-10-18T11:59:01Z</time>
      </trkpt>
      <trkpt lat="43.22073" lon="5.48018">
        <ele>255.6</ele>
        <time>2025-10-18T11:59:02Z</time>
      </trkpt>
      <trkpt lat="43.22073" lon="5.48018">
        <ele>255.6</ele>
        <time>2025-10-18T11:59:03Z</time>
      </trkpt>
      <trkpt lat="43.22073" lon="5.48018">
        <ele>255.6</ele>
        <time>2025-10-18T11:59:04Z</time>
      </trkpt>
      <trkpt lat="43.22073" lon="5.48018">
        <ele>255.6</ele>
        <time>2025-10-18T11:59:05Z</time>
      </trkpt>
      <trkpt lat="43.22073" lon="5.48018">
        <ele>255.6</ele>
        <time>2025-10-18T11:59:06Z</time>
      </trkpt>
      <trkpt lat="43.22073" lon="5.48018">
        <ele>255.7</ele>
        <time>2025-10-18T11:59:07Z</time>
      </trkpt>
      <trkpt lat="43.22073" lon="5.48018">
        <ele>255.7</ele>
        <time>2025-10-18T11:59:08Z</time>
      </trkpt>
      <trkpt lat="43.22073" lon="5.48018">
        <ele>255.7</ele>
        <time>2025-10-18T11:59:09Z</time>
      </trkpt>
      <trkpt lat="43.22073" lon="5.48018">
        <ele>255.8</ele>
        <time>2025-10-18T11:59:10Z</time>
      </trkpt>
      <trkpt lat="43.22073" lon="5.48018">
        <ele>255.8</ele>
        <time>2025-10-18T11:59:11Z</time>
      </trkpt>
      <trkpt lat="43.22073" lon="5.48018">
        <ele>255.8</ele>
        <time>2025-10-18T11:59:12Z</time>
      </trkpt>
      <trkpt lat="43.22073" lon="5.48018">
        <ele>255.9</ele>
        <time>2025-10-18T11:59:13Z</time>
      </trkpt>
      <trkpt lat="43.22073" lon="5.48018">
        <ele>255.9</ele>
        <time>2025-10-18T11:59:14Z</time>
      </trkpt>
      <trkpt lat="43.22074" lon="5.48018">
        <ele>255.8</ele>
        <time>2025-10-18T11:59:15Z</time>
      </trkpt>
      <trkpt lat="43.22074" lon="5.48018">
        <ele>255.8</ele>
        <time>2025-10-18T11:59:16Z</time>
      </trkpt>
      <trkpt lat="43.22074" lon="5.48018">
        <ele>255.8</ele>
        <time>2025-10-18T11:59:17Z</time>
      </trkpt>
      <trkpt lat="43.22074" lon="5.48017">
        <ele>255.8</ele>
        <time>2025-10-18T11:59:18Z</time>
      </trkpt>
      <trkpt lat="43.22074" lon="5.48018">
        <ele>255.8</ele>
        <time>2025-10-18T11:59:19Z</time>
      </trkpt>
      <trkpt lat="43.22074" lon="5.48017">
        <ele>255.7</ele>
        <time>2025-10-18T11:59:20Z</time>
      </trkpt>
      <trkpt lat="43.22074" lon="5.48017">
        <ele>255.7</ele>
        <time>2025-10-18T11:59:21Z</time>
      </trkpt>
      <trkpt lat="43.22074" lon="5.48017">
        <ele>255.7</ele>
        <time>2025-10-18T11:59:22Z</time>
      </trkpt>
      <trkpt lat="43.22074" lon="5.48017">
        <ele>255.7</ele>
        <time>2025-10-18T11:59:23Z</time>
      </trkpt>
      <trkpt lat="43.22074" lon="5.48017">
        <ele>255.7</ele>
        <time>2025-10-18T11:59:24Z</time>
      </trkpt>
      <trkpt lat="43.22074" lon="5.48018">
        <ele>255.7</ele>
        <time>2025-10-18T11:59:25Z</time>
      </trkpt>
      <trkpt lat="43.22075" lon="5.48018">
        <ele>255.8</ele>
        <time>2025-10-18T11:59:26Z</time>
      </trkpt>
      <trkpt lat="43.22075" lon="5.48017">
        <ele>255.8</ele>
        <time>2025-10-18T11:59:27Z</time>
      </trkpt>
      <trkpt lat="43.22076" lon="5.48017">
        <ele>255.7</ele>
        <time>2025-10-18T11:59:28Z</time>
      </trkpt>
      <trkpt lat="43.22077" lon="5.48016">
        <ele>255.5</ele>
        <time>2025-10-18T11:59:29Z</time>
      </trkpt>
      <trkpt lat="43.22077" lon="5.48015">
        <ele>255.5</ele>
        <time>2025-10-18T11:59:30Z</time>
      </trkpt>
      <trkpt lat="43.22077" lon="5.48015">
        <ele>255.4</ele>
        <time>2025-10-18T11:59:31Z</time>
      </trkpt>
      <trkpt lat="43.22078" lon="5.48016">
        <ele>255.5</ele>
        <time>2025-10-18T11:59:32Z</time>
      </trkpt>
      <trkpt lat="43.22078" lon="5.48015">
        <ele>255.6</ele>
        <time>2025-10-18T11:59:33Z</time>
      </trkpt>
      <trkpt lat="43.22078" lon="5.48016">
        <ele>255.6</ele>
        <time>2025-10-18T11:59:34Z</time>
      </trkpt>
      <trkpt lat="43.22078" lon="5.48016">
        <ele>255.7</ele>
        <time>2025-10-18T11:59:35Z</time>
      </trkpt>
      <trkpt lat="43.22078" lon="5.48016">
        <ele>255.8</ele>
        <time>2025-10-18T11:59:36Z</time>
      </trkpt>
      <trkpt lat="43.22078" lon="5.48016">
        <ele>255.9</ele>
        <time>2025-10-18T11:59:37Z</time>
      </trkpt>
      <trkpt lat="43.22078" lon="5.48016">
        <ele>255.8</ele>
        <time>2025-10-18T11:59:38Z</time>
      </trkpt>
      <trkpt lat="43.22079" lon="5.48016">
        <ele>255.8</ele>
        <time>2025-10-18T11:59:39Z</time>
      </trkpt>
      <trkpt lat="43.22078" lon="5.48016">
        <ele>255.9</ele>
        <time>2025-10-18T11:59:40Z</time>
      </trkpt>
      <trkpt lat="43.22078" lon="5.48016">
        <ele>255.9</ele>
        <time>2025-10-18T11:59:41Z</time>
      </trkpt>
      <trkpt lat="43.22079" lon="5.48016">
        <ele>255.9</ele>
        <time>2025-10-18T11:59:42Z</time>
      </trkpt>
      <trkpt lat="43.22079" lon="5.48016">
        <ele>255.9</ele>
        <time>2025-10-18T11:59:43Z</time>
      </trkpt>
      <trkpt lat="43.22079" lon="5.48016">
        <ele>256</ele>
        <time>2025-10-18T11:59:44Z</time>
      </trkpt>
      <trkpt lat="43.22079" lon="5.48016">
        <ele>256.1</ele>
        <time>2025-10-18T11:59:45Z</time>
      </trkpt>
      <trkpt lat="43.22079" lon="5.48016">
        <ele>256.1</ele>
        <time>2025-10-18T11:59:46Z</time>
      </trkpt>
      <trkpt lat="43.22079" lon="5.48016">
        <ele>256.1</ele>
        <time>2025-10-18T11:59:47Z</time>
      </trkpt>
      <trkpt lat="43.22079" lon="5.48015">
        <ele>256.1</ele>
        <time>2025-10-18T11:59:48Z</time>
      </trkpt>
      <trkpt lat="43.22079" lon="5.48015">
        <ele>256.1</ele>
        <time>2025-10-18T11:59:49Z</time>
      </trkpt>
      <trkpt lat="43.2208" lon="5.48015">
        <ele>256.1</ele>
        <time>2025-10-18T11:59:50Z</time>
      </trkpt>
      <trkpt lat="43.2208" lon="5.48015">
        <ele>256.1</ele>
        <time>2025-10-18T11:59:51Z</time>
      </trkpt>
      <trkpt lat="43.2208" lon="5.48015">
        <ele>256.1</ele>
        <time>2025-10-18T11:59:52Z</time>
      </trkpt>
      <trkpt lat="43.2208" lon="5.48015">
        <ele>256.2</ele>
        <time>2025-10-18T11:59:53Z</time>
      </trkpt>
      <trkpt lat="43.2208" lon="5.48015">
        <ele>256.1</ele>
        <time>2025-10-18T11:59:54Z</time>
      </trkpt>
      <trkpt lat="43.2208" lon="5.48015">
        <ele>256.1</ele>
        <time>2025-10-18T11:59:55Z</time>
      </trkpt>
      <trkpt lat="43.2208" lon="5.48015">
        <ele>256.1</ele>
        <time>2025-10-18T11:59:56Z</time>
      </trkpt>
      <trkpt lat="43.2208" lon="5.48014">
        <ele>256.1</ele>
        <time>2025-10-18T11:59:57Z</time>
      </trkpt>
      <trkpt lat="43.2208" lon="5.48014">
        <ele>256</ele>
        <time>2025-10-18T11:59:58Z</time>
      </trkpt>
      <trkpt lat="43.2208" lon="5.48014">
        <ele>256</ele>
        <time>2025-10-18T11:59:59Z</time>
      </trkpt>
      <trkpt lat="43.2208" lon="5.48014">
        <ele>255.9</ele>
        <time>2025-10-18T12:00:00Z</time>
      </trkpt>
      <trkpt lat="43.2208" lon="5.48014">
        <ele>255.9</ele>
        <time>2025-10-18T12:00:01Z</time>
      </trkpt>
      <trkpt lat="43.2208" lon="5.48014">
        <ele>255.9</ele>
        <time>2025-10-18T12:00:02Z</time>
      </trkpt>
      <trkpt lat="43.2208" lon="5.48014">
        <ele>256</ele>
        <time>2025-10-18T12:00:03Z</time>
      </trkpt>
      <trkpt lat="43.2208" lon="5.48014">
        <ele>256</ele>
        <time>2025-10-18T12:00:04Z</time>
      </trkpt>
      <trkpt lat="43.2208" lon="5.48014">
        <ele>256</ele>
        <time>2025-10-18T12:00:05Z</time>
      </trkpt>
      <trkpt lat="43.2208" lon="5.48014">
        <ele>256.1</ele>
        <time>2025-10-18T12:00:06Z</time>
      </trkpt>
      <trkpt lat="43.2208" lon="5.48014">
        <ele>256.1</ele>
        <time>2025-10-18T12:00:07Z</time>
      </trkpt>
      <trkpt lat="43.2208" lon="5.48014">
        <ele>256.1</ele>
        <time>2025-10-18T12:00:08Z</time>
      </trkpt>
      <trkpt lat="43.2208" lon="5.48014">
        <ele>256.2</ele>
        <time>2025-10-18T12:00:09Z</time>
      </trkpt>
      <trkpt lat="43.2208" lon="5.48014">
        <ele>256.1</ele>
        <time>2025-10-18T12:00:10Z</time>
      </trkpt>
      <trkpt lat="43.2208" lon="5.48014">
        <ele>256.1</ele>
        <time>2025-10-18T12:00:11Z</time>
      </trkpt>
      <trkpt lat="43.2208" lon="5.48014">
        <ele>256.1</ele>
        <time>2025-10-18T12:00:12Z</time>
      </trkpt>
      <trkpt lat="43.2208" lon="5.48014">
        <ele>256.1</ele>
        <time>2025-10-18T12:00:13Z</time>
      </trkpt>
      <trkpt lat="43.2208" lon="5.48014">
        <ele>256</ele>
        <time>2025-10-18T12:00:14Z</time>
      </trkpt>
      <trkpt lat="43.2208" lon="5.48014">
        <ele>256.1</ele>
        <time>2025-10-18T12:00:15Z</time>
      </trkpt>
      <trkpt lat="43.2208" lon="5.48014">
        <ele>256.1</ele>
        <time>2025-10-18T12:00:16Z</time>
      </trkpt>
      <trkpt lat="43.2208" lon="5.48013">
        <ele>256</ele>
        <time>2025-10-18T12:00:17Z</time>
      </trkpt>
      <trkpt lat="43.2208" lon="5.48013">
        <ele>256</ele>
        <time>2025-10-18T12:00:18Z</time>
      </trkpt>
      <trkpt lat="43.2208" lon="5.48013">
        <ele>256.1</ele>
        <time>2025-10-18T12:00:19Z</time>
      </trkpt>
      <trkpt lat="43.2208" lon="5.48013">
        <ele>256.1</ele>
        <time>2025-10-18T12:00:20Z</time>
      </trkpt>
      <trkpt lat="43.2208" lon="5.48013">
        <ele>256.1</ele>
        <time>2025-10-18T12:00:21Z</time>
      </trkpt>
      <trkpt lat="43.22081" lon="5.48013">
        <ele>256.1</ele>
        <time>2025-10-18T12:00:22Z</time>
      </trkpt>
      <trkpt lat="43.22081" lon="5.48012">
        <ele>256</ele>
        <time>2025-10-18T12:00:23Z</time>
      </trkpt>
      <trkpt lat="43.22082" lon="5.48011">
        <ele>256</ele>
        <time>2025-10-18T12:00:24Z</time>
      </trkpt>
      <trkpt lat="43.22082" lon="5.48011">
        <ele>256</ele>
        <time>2025-10-18T12:00:25Z</time>
      </trkpt>
      <trkpt lat="43.22083" lon="5.48011">
        <ele>256.1</ele>
        <time>2025-10-18T12:00:26Z</time>
      </trkpt>
      <trkpt lat="43.22084" lon="5.48011">
        <ele>256.1</ele>
        <time>2025-10-18T12:00:27Z</time>
      </trkpt>
      <trkpt lat="43.22084" lon="5.48011">
        <ele>256.1</ele>
        <time>2025-10-18T12:00:28Z</time>
      </trkpt>
      <trkpt lat="43.22085" lon="5.4801">
        <ele>256</ele>
        <time>2025-10-18T12:00:29Z</time>
      </trkpt>
      <trkpt lat="43.22086" lon="5.4801">
        <ele>256</ele>
        <time>2025-10-18T12:00:30Z</time>
      </trkpt>
      <trkpt lat="43.22087" lon="5.48009">
        <ele>255.9</ele>
        <time>2025-10-18T12:00:31Z</time>
      </trkpt>
      <trkpt lat="43.22087" lon="5.48008">
        <ele>255.9</ele>
        <time>2025-10-18T12:00:32Z</time>
      </trkpt>
      <trkpt lat="43.22088" lon="5.48008">
        <ele>255.9</ele>
        <time>2025-10-18T12:00:33Z</time>
      </trkpt>
      <trkpt lat="43.22088" lon="5.48008">
        <ele>255.9</ele>
        <time>2025-10-18T12:00:34Z</time>
      </trkpt>
      <trkpt lat="43.2209" lon="5.48008">
        <ele>255.9</ele>
        <time>2025-10-18T12:00:35Z</time>
      </trkpt>
      <trkpt lat="43.2209" lon="5.48007">
        <ele>256</ele>
        <time>2025-10-18T12:00:36Z</time>
      </trkpt>
      <trkpt lat="43.22091" lon="5.48007">
        <ele>256</ele>
        <time>2025-10-18T12:00:37Z</time>
      </trkpt>
      <trkpt lat="43.22091" lon="5.48006">
        <ele>256.1</ele>
        <time>2025-10-18T12:00:38Z</time>
      </trkpt>
      <trkpt lat="43.22091" lon="5.48006">
        <ele>256.2</ele>
        <time>2025-10-18T12:00:39Z</time>
      </trkpt>
      <trkpt lat="43.22091" lon="5.48006">
        <ele>256.3</ele>
        <time>2025-10-18T12:00:40Z</time>
      </trkpt>
      <trkpt lat="43.22092" lon="5.48006">
        <ele>256.3</ele>
        <time>2025-10-18T12:00:41Z</time>
      </trkpt>
      <trkpt lat="43.22092" lon="5.48006">
        <ele>256.3</ele>
        <time>2025-10-18T12:00:42Z</time>
      </trkpt>
      <trkpt lat="43.22092" lon="5.48006">
        <ele>256.3</ele>
        <time>2025-10-18T12:00:43Z</time>
      </trkpt>
      <trkpt lat="43.22092" lon="5.48006">
        <ele>256.4</ele>
        <time>2025-10-18T12:00:44Z</time>
      </trkpt>
      <trkpt lat="43.22092" lon="5.48006">
        <ele>256.5</ele>
        <time>2025-10-18T12:00:45Z</time>
      </trkpt>
      <trkpt lat="43.22092" lon="5.48006">
        <ele>256.5</ele>
        <time>2025-10-18T12:00:46Z</time>
      </trkpt>
      <trkpt lat="43.22092" lon="5.48006">
        <ele>256.5</ele>
        <time>2025-10-18T12:00:47Z</time>
      </trkpt>
      <trkpt lat="43.22092" lon="5.48005">
        <ele>256.5</ele>
        <time>2025-10-18T12:00:48Z</time>
      </trkpt>
      <trkpt lat="43.22092" lon="5.48005">
        <ele>256.5</ele>
        <time>2025-10-18T12:00:49Z</time>
      </trkpt>
      <trkpt lat="43.22092" lon="5.48005">
        <ele>256.5</ele>
        <time>2025-10-18T12:00:50Z</time>
      </trkpt>
      <trkpt lat="43.22092" lon="5.48005">
        <ele>256.5</ele>
        <time>2025-10-18T12:00:51Z</time>
      </trkpt>
      <trkpt lat="43.22092" lon="5.48005">
        <ele>256.5</ele>
        <time>2025-10-18T12:00:52Z</time>
      </trkpt>
      <trkpt lat="43.22092" lon="5.48005">
        <ele>256.4</ele>
        <time>2025-10-18T12:00:53Z</time>
      </trkpt>
      <trkpt lat="43.22092" lon="5.48005">
        <ele>256.4</ele>
        <time>2025-10-18T12:00:54Z</time>
      </trkpt>
      <trkpt lat="43.22092" lon="5.48005">
        <ele>256.5</ele>
        <time>2025-10-18T12:00:55Z</time>
      </trkpt>
      <trkpt lat="43.22092" lon="5.48005">
        <ele>256.5</ele>
        <time>2025-10-18T12:00:56Z</time>
      </trkpt>
      <trkpt lat="43.22092" lon="5.48005">
        <ele>256.5</ele>
        <time>2025-10-18T12:00:57Z</time>
      </trkpt>
      <trkpt lat="43.22092" lon="5.48005">
        <ele>256.5</ele>
        <time>2025-10-18T12:00:58Z</time>
      </trkpt>
      <trkpt lat="43.22092" lon="5.48005">
        <ele>256.6</ele>
        <time>2025-10-18T12:00:59Z</time>
      </trkpt>
      <trkpt lat="43.22092" lon="5.48005">
        <ele>256.6</ele>
        <time>2025-10-18T12:01:00Z</time>
      </trkpt>
      <trkpt lat="43.22092" lon="5.48005">
        <ele>256.6</ele>
        <time>2025-10-18T12:01:01Z</time>
      </trkpt>
      <trkpt lat="43.22092" lon="5.48005">
        <ele>256.6</ele>
        <time>2025-10-18T12:01:02Z</time>
      </trkpt>
      <trkpt lat="43.22092" lon="5.48005">
        <ele>256.5</ele>
        <time>2025-10-18T12:01:03Z</time>
      </trkpt>
      <trkpt lat="43.22092" lon="5.48005">
        <ele>256.5</ele>
        <time>2025-10-18T12:01:04Z</time>
      </trkpt>
      <trkpt lat="43.22092" lon="5.48005">
        <ele>256.5</ele>
        <time>2025-10-18T12:01:05Z</time>
      </trkpt>
      <trkpt lat="43.22093" lon="5.48005">
        <ele>256.5</ele>
        <time>2025-10-18T12:01:06Z</time>
      </trkpt>
      <trkpt lat="43.22094" lon="5.48004">
        <ele>256.5</ele>
        <time>2025-10-18T12:01:07Z</time>
      </trkpt>
      <trkpt lat="43.22094" lon="5.48003">
        <ele>256.5</ele>
        <time>2025-10-18T12:01:08Z</time>
      </trkpt>
      <trkpt lat="43.22095" lon="5.48002">
        <ele>256.5</ele>
        <time>2025-10-18T12:01:09Z</time>
      </trkpt>
      <trkpt lat="43.22096" lon="5.48002">
        <ele>256.5</ele>
        <time>2025-10-18T12:01:10Z</time>
      </trkpt>
      <trkpt lat="43.22096" lon="5.48002">
        <ele>256.5</ele>
        <time>2025-10-18T12:01:11Z</time>
      </trkpt>
      <trkpt lat="43.22097" lon="5.48002">
        <ele>256.6</ele>
        <time>2025-10-18T12:01:12Z</time>
      </trkpt>
      <trkpt lat="43.22097" lon="5.48002">
        <ele>256.6</ele>
        <time>2025-10-18T12:01:13Z</time>
      </trkpt>
      <trkpt lat="43.22098" lon="5.48001">
        <ele>256.6</ele>
        <time>2025-10-18T12:01:14Z</time>
      </trkpt>
      <trkpt lat="43.22099" lon="5.48001">
        <ele>256.8</ele>
        <time>2025-10-18T12:01:15Z</time>
      </trkpt>
      <trkpt lat="43.22099" lon="5.48001">
        <ele>257</ele>
        <time>2025-10-18T12:01:16Z</time>
      </trkpt>
      <trkpt lat="43.22099" lon="5.48001">
        <ele>257.1</ele>
        <time>2025-10-18T12:01:17Z</time>
      </trkpt>
      <trkpt lat="43.22099" lon="5.48001">
        <ele>257.1</ele>
        <time>2025-10-18T12:01:18Z</time>
      </trkpt>
      <trkpt lat="43.221" lon="5.48002">
        <ele>257.2</ele>
        <time>2025-10-18T12:01:19Z</time>
      </trkpt>
      <trkpt lat="43.221" lon="5.48002">
        <ele>257.3</ele>
        <time>2025-10-18T12:01:20Z</time>
      </trkpt>
      <trkpt lat="43.221" lon="5.48001">
        <ele>257.3</ele>
        <time>2025-10-18T12:01:21Z</time>
      </trkpt>
      <trkpt lat="43.221" lon="5.48">
        <ele>257.4</ele>
        <time>2025-10-18T12:01:22Z</time>
      </trkpt>
      <trkpt lat="43.22099" lon="5.48">
        <ele>257.5</ele>
        <time>2025-10-18T12:01:23Z</time>
      </trkpt>
      <trkpt lat="43.22099" lon="5.47999">
        <ele>257.5</ele>
        <time>2025-10-18T12:01:24Z</time>
      </trkpt>
      <trkpt lat="43.22099" lon="5.47999">
        <ele>257.6</ele>
        <time>2025-10-18T12:01:25Z</time>
      </trkpt>
      <trkpt lat="43.22099" lon="5.47998">
        <ele>257.7</ele>
        <time>2025-10-18T12:01:26Z</time>
      </trkpt>
      <trkpt lat="43.22098" lon="5.47997">
        <ele>257.9</ele>
        <time>2025-10-18T12:01:27Z</time>
      </trkpt>
      <trkpt lat="43.22098" lon="5.47997">
        <ele>258.1</ele>
        <time>2025-10-18T12:01:28Z</time>
      </trkpt>
      <trkpt lat="43.22098" lon="5.47996">
        <ele>258.2</ele>
        <time>2025-10-18T12:01:29Z</time>
      </trkpt>
      <trkpt lat="43.22098" lon="5.47995">
        <ele>258.5</ele>
        <time>2025-10-18T12:01:30Z</time>
      </trkpt>
      <trkpt lat="43.22098" lon="5.47995">
        <ele>258.7</ele>
        <time>2025-10-18T12:01:31Z</time>
      </trkpt>
      <trkpt lat="43.22098" lon="5.47995">
        <ele>258.9</ele>
        <time>2025-10-18T12:01:32Z</time>
      </trkpt>
      <trkpt lat="43.22098" lon="5.47995">
        <ele>259</ele>
        <time>2025-10-18T12:01:33Z</time>
      </trkpt>
      <trkpt lat="43.22098" lon="5.47994">
        <ele>259.2</ele>
        <time>2025-10-18T12:01:34Z</time>
      </trkpt>
      <trkpt lat="43.22098" lon="5.47994">
        <ele>259.4</ele>
        <time>2025-10-18T12:01:35Z</time>
      </trkpt>
      <trkpt lat="43.22098" lon="5.47994">
        <ele>259.6</ele>
        <time>2025-10-18T12:01:36Z</time>
      </trkpt>
      <trkpt lat="43.22098" lon="5.47993">
        <ele>259.8</ele>
        <time>2025-10-18T12:01:37Z</time>
      </trkpt>
      <trkpt lat="43.22097" lon="5.47993">
        <ele>260</ele>
        <time>2025-10-18T12:01:38Z</time>
      </trkpt>
      <trkpt lat="43.22097" lon="5.47993">
        <ele>260.2</ele>
        <time>2025-10-18T12:01:39Z</time>
      </trkpt>
      <trkpt lat="43.22096" lon="5.47993">
        <ele>260.4</ele>
        <time>2025-10-18T12:01:40Z</time>
      </trkpt>
      <trkpt lat="43.22096" lon="5.47992">
        <ele>260.6</ele>
        <time>2025-10-18T12:01:41Z</time>
      </trkpt>
      <trkpt lat="43.22096" lon="5.47992">
        <ele>260.7</ele>
        <time>2025-10-18T12:01:42Z</time>
      </trkpt>
      <trkpt lat="43.22096" lon="5.47992">
        <ele>260.9</ele>
        <time>2025-10-18T12:01:43Z</time>
      </trkpt>
      <trkpt lat="43.22096" lon="5.47992">
        <ele>261</ele>
        <time>2025-10-18T12:01:44Z</time>
      </trkpt>
      <trkpt lat="43.22096" lon="5.47991">
        <ele>261.2</ele>
        <time>2025-10-18T12:01:45Z</time>
      </trkpt>
      <trkpt lat="43.22096" lon="5.47991">
        <ele>261.3</ele>
        <time>2025-10-18T12:01:46Z</time>
      </trkpt>
      <trkpt lat="43.22095" lon="5.47991">
        <ele>261.4</ele>
        <time>2025-10-18T12:01:47Z</time>
      </trkpt>
      <trkpt lat="43.22095" lon="5.47992">
        <ele>261.6</ele>
        <time>2025-10-18T12:01:48Z</time>
      </trkpt>
      <trkpt lat="43.22095" lon="5.47992">
        <ele>261.8</ele>
        <time>2025-10-18T12:01:49Z</time>
      </trkpt>
      <trkpt lat="43.22095" lon="5.47992">
        <ele>262</ele>
        <time>2025-10-18T12:01:50Z</time>
      </trkpt>
      <trkpt lat="43.22095" lon="5.47992">
        <ele>262</ele>
        <time>2025-10-18T12:01:51Z</time>
      </trkpt>
      <trkpt lat="43.22095" lon="5.47992">
        <ele>262.1</ele>
        <time>2025-10-18T12:01:52Z</time>
      </trkpt>
      <trkpt lat="43.22095" lon="5.47991">
        <ele>262.2</ele>
        <time>2025-10-18T12:01:53Z</time>
      </trkpt>
      <trkpt lat="43.22095" lon="5.47991">
        <ele>262.3</ele>
        <time>2025-10-18T12:01:54Z</time>
      </trkpt>
      <trkpt lat="43.22095" lon="5.47991">
        <ele>262.4</ele>
        <time>2025-10-18T12:01:55Z</time>
      </trkpt>
      <trkpt lat="43.22095" lon="5.4799">
        <ele>262.4</ele>
        <time>2025-10-18T12:01:56Z</time>
      </trkpt>
      <trkpt lat="43.22095" lon="5.4799">
        <ele>262.6</ele>
        <time>2025-10-18T12:01:57Z</time>
      </trkpt>
      <trkpt lat="43.22095" lon="5.47989">
        <ele>262.8</ele>
        <time>2025-10-18T12:01:58Z</time>
      </trkpt>
      <trkpt lat="43.22095" lon="5.4799">
        <ele>263</ele>
        <time>2025-10-18T12:01:59Z</time>
      </trkpt>
      <trkpt lat="43.22095" lon="5.4799">
        <ele>263.2</ele>
        <time>2025-10-18T12:02:00Z</time>
      </trkpt>
      <trkpt lat="43.22095" lon="5.4799">
        <ele>263.4</ele>
        <time>2025-10-18T12:02:01Z</time>
      </trkpt>
      <trkpt lat="43.22095" lon="5.4799">
        <ele>263.5</ele>
        <time>2025-10-18T12:02:02Z</time>
      </trkpt>
      <trkpt lat="43.22095" lon="5.4799">
        <ele>263.6</ele>
        <time>2025-10-18T12:02:03Z</time>
      </trkpt>
      <trkpt lat="43.22095" lon="5.4799">
        <ele>263.7</ele>
        <time>2025-10-18T12:02:04Z</time>
      </trkpt>
      <trkpt lat="43.22095" lon="5.47991">
        <ele>263.7</ele>
        <time>2025-10-18T12:02:05Z</time>
      </trkpt>
      <trkpt lat="43.22095" lon="5.47991">
        <ele>263.7</ele>
        <time>2025-10-18T12:02:06Z</time>
      </trkpt>
      <trkpt lat="43.22095" lon="5.47991">
        <ele>263.8</ele>
        <time>2025-10-18T12:02:07Z</time>
      </trkpt>
      <trkpt lat="43.22095" lon="5.47991">
        <ele>263.8</ele>
        <time>2025-10-18T12:02:08Z</time>
      </trkpt>
      <trkpt lat="43.22095" lon="5.47991">
        <ele>263.9</ele>
        <time>2025-10-18T12:02:09Z</time>
      </trkpt>
      <trkpt lat="43.22095" lon="5.47991">
        <ele>263.9</ele>
        <time>2025-10-18T12:02:10Z</time>
      </trkpt>
      <trkpt lat="43.22095" lon="5.47991">
        <ele>264</ele>
        <time>2025-10-18T12:02:11Z</time>
      </trkpt>
      <trkpt lat="43.22095" lon="5.4799">
        <ele>264.1</ele>
        <time>2025-10-18T12:02:12Z</time>
      </trkpt>
      <trkpt lat="43.22096" lon="5.4799">
        <ele>264.3</ele>
        <time>2025-10-18T12:02:13Z</time>
      </trkpt>
      <trkpt lat="43.22095" lon="5.47989">
        <ele>264.5</ele>
        <time>2025-10-18T12:02:14Z</time>
      </trkpt>
      <trkpt lat="43.22095" lon="5.47989">
        <ele>264.6</ele>
        <time>2025-10-18T12:02:15Z</time>
      </trkpt>
      <trkpt lat="43.22095" lon="5.47989">
        <ele>264.7</ele>
        <time>2025-10-18T12:02:16Z</time>
      </trkpt>
      <trkpt lat="43.22095" lon="5.47988">
        <ele>264.8</ele>
        <time>2025-10-18T12:02:17Z</time>
      </trkpt>
      <trkpt lat="43.22095" lon="5.47989">
        <ele>264.9</ele>
        <time>2025-10-18T12:02:18Z</time>
      </trkpt>
      <trkpt lat="43.22095" lon="5.47989">
        <ele>265.1</ele>
        <time>2025-10-18T12:02:19Z</time>
      </trkpt>
      <trkpt lat="43.22095" lon="5.47989">
        <ele>265.2</ele>
        <time>2025-10-18T12:02:20Z</time>
      </trkpt>
      <trkpt lat="43.22095" lon="5.47989">
        <ele>265.3</ele>
        <time>2025-10-18T12:02:21Z</time>
      </trkpt>
      <trkpt lat="43.22095" lon="5.47988">
        <ele>265.4</ele>
        <time>2025-10-18T12:02:22Z</time>
      </trkpt>
      <trkpt lat="43.22095" lon="5.47988">
        <ele>265.5</ele>
        <time>2025-10-18T12:02:23Z</time>
      </trkpt>
      <trkpt lat="43.22095" lon="5.47987">
        <ele>265.6</ele>
        <time>2025-10-18T12:02:24Z</time>
      </trkpt>
      <trkpt lat="43.22095" lon="5.47987">
        <ele>265.7</ele>
        <time>2025-10-18T12:02:25Z</time>
      </trkpt>
      <trkpt lat="43.22095" lon="5.47986">
        <ele>265.8</ele>
        <time>2025-10-18T12:02:26Z</time>
      </trkpt>
      <trkpt lat="43.22095" lon="5.47986">
        <ele>266</ele>
        <time>2025-10-18T12:02:27Z</time>
      </trkpt>
      <trkpt lat="43.22095" lon="5.47985">
        <ele>266.1</ele>
        <time>2025-10-18T12:02:28Z</time>
      </trkpt>
      <trkpt lat="43.22095" lon="5.47985">
        <ele>266.4</ele>
        <time>2025-10-18T12:02:29Z</time>
      </trkpt>
      <trkpt lat="43.22095" lon="5.47984">
        <ele>266.5</ele>
        <time>2025-10-18T12:02:30Z</time>
      </trkpt>
      <trkpt lat="43.22095" lon="5.47984">
        <ele>266.7</ele>
        <time>2025-10-18T12:02:31Z</time>
      </trkpt>
      <trkpt lat="43.22094" lon="5.47984">
        <ele>267</ele>
        <time>2025-10-18T12:02:32Z</time>
      </trkpt>
      <trkpt lat="43.22094" lon="5.47984">
        <ele>267.2</ele>
        <time>2025-10-18T12:02:33Z</time>
      </trkpt>
      <trkpt lat="43.22095" lon="5.47983">
        <ele>267.4</ele>
        <time>2025-10-18T12:02:34Z</time>
      </trkpt>
      <trkpt lat="43.22095" lon="5.47983">
        <ele>267.6</ele>
        <time>2025-10-18T12:02:35Z</time>
      </trkpt>
      <trkpt lat="43.22095" lon="5.47983">
        <ele>267.8</ele>
        <time>2025-10-18T12:02:36Z</time>
      </trkpt>
      <trkpt lat="43.22095" lon="5.47982">
        <ele>268</ele>
        <time>2025-10-18T12:02:37Z</time>
      </trkpt>
      <trkpt lat="43.22095" lon="5.47982">
        <ele>268.2</ele>
        <time>2025-10-18T12:02:38Z</time>
      </trkpt>
      <trkpt lat="43.22094" lon="5.47981">
        <ele>268.3</ele>
        <time>2025-10-18T12:02:39Z</time>
      </trkpt>
      <trkpt lat="43.22094" lon="5.47981">
        <ele>268.4</ele>
        <time>2025-10-18T12:02:40Z</time>
      </trkpt>
      <trkpt lat="43.22094" lon="5.47981">
        <ele>268.6</ele>
        <time>2025-10-18T12:02:41Z</time>
      </trkpt>
      <trkpt lat="43.22094" lon="5.4798">
        <ele>268.7</ele>
        <time>2025-10-18T12:02:42Z</time>
      </trkpt>
      <trkpt lat="43.22094" lon="5.4798">
        <ele>268.8</ele>
        <time>2025-10-18T12:02:43Z</time>
      </trkpt>
      <trkpt lat="43.22094" lon="5.47979">
        <ele>268.9</ele>
        <time>2025-10-18T12:02:44Z</time>
      </trkpt>
      <trkpt lat="43.22094" lon="5.47979">
        <ele>269</ele>
        <time>2025-10-18T12:02:45Z</time>
      </trkpt>
      <trkpt lat="43.22094" lon="5.47978">
        <ele>269.1</ele>
        <time>2025-10-18T12:02:46Z</time>
      </trkpt>
      <trkpt lat="43.22094" lon="5.47978">
        <ele>269.2</ele>
        <time>2025-10-18T12:02:47Z</time>
      </trkpt>
      <trkpt lat="43.22095" lon="5.47978">
        <ele>269.3</ele>
        <time>2025-10-18T12:02:48Z</time>
      </trkpt>
      <trkpt lat="43.22094" lon="5.47977">
        <ele>269.6</ele>
        <time>2025-10-18T12:02:49Z</time>
      </trkpt>
      <trkpt lat="43.22095" lon="5.47977">
        <ele>269.7</ele>
        <time>2025-10-18T12:02:50Z</time>
      </trkpt>
      <trkpt lat="43.22095" lon="5.47977">
        <ele>269.8</ele>
        <time>2025-10-18T12:02:51Z</time>
      </trkpt>
      <trkpt lat="43.22095" lon="5.47976">
        <ele>269.9</ele>
        <time>2025-10-18T12:02:52Z</time>
      </trkpt>
      <trkpt lat="43.22095" lon="5.47976">
        <ele>269.9</ele>
        <time>2025-10-18T12:02:53Z</time>
      </trkpt>
      <trkpt lat="43.22096" lon="5.47975">
        <ele>270</ele>
        <time>2025-10-18T12:02:54Z</time>
      </trkpt>
      <trkpt lat="43.22096" lon="5.47974">
        <ele>270.1</ele>
        <time>2025-10-18T12:02:55Z</time>
      </trkpt>
      <trkpt lat="43.22096" lon="5.47974">
        <ele>270.1</ele>
        <time>2025-10-18T12:02:56Z</time>
      </trkpt>
      <trkpt lat="43.22096" lon="5.47973">
        <ele>270.3</ele>
        <time>2025-10-18T12:02:57Z</time>
      </trkpt>
      <trkpt lat="43.22096" lon="5.47973">
        <ele>270.4</ele>
        <time>2025-10-18T12:02:58Z</time>
      </trkpt>
      <trkpt lat="43.22096" lon="5.47972">
        <ele>270.7</ele>
        <time>2025-10-18T12:02:59Z</time>
      </trkpt>
      <trkpt lat="43.22096" lon="5.47972">
        <ele>271</ele>
        <time>2025-10-18T12:03:00Z</time>
      </trkpt>
      <trkpt lat="43.22096" lon="5.47972">
        <ele>271.2</ele>
        <time>2025-10-18T12:03:01Z</time>
      </trkpt>
      <trkpt lat="43.22096" lon="5.47971">
        <ele>271.4</ele>
        <time>2025-10-18T12:03:02Z</time>
      </trkpt>
      <trkpt lat="43.22096" lon="5.47971">
        <ele>271.5</ele>
        <time>2025-10-18T12:03:03Z</time>
      </trkpt>
      <trkpt lat="43.22096" lon="5.47971">
        <ele>271.8</ele>
        <time>2025-10-18T12:03:04Z</time>
      </trkpt>
      <trkpt lat="43.22096" lon="5.47971">
        <ele>272.1</ele>
        <time>2025-10-18T12:03:05Z</time>
      </trkpt>
      <trkpt lat="43.22097" lon="5.4797">
        <ele>272.4</ele>
        <time>2025-10-18T12:03:06Z</time>
      </trkpt>
      <trkpt lat="43.22097" lon="5.4797">
        <ele>272.7</ele>
        <time>2025-10-18T12:03:07Z</time>
      </trkpt>
      <trkpt lat="43.22097" lon="5.47969">
        <ele>272.9</ele>
        <time>2025-10-18T12:03:08Z</time>
      </trkpt>
      <trkpt lat="43.22097" lon="5.47969">
        <ele>273</ele>
        <time>2025-10-18T12:03:09Z</time>
      </trkpt>
      <trkpt lat="43.22097" lon="5.47969">
        <ele>273.2</ele>
        <time>2025-10-18T12:03:10Z</time>
      </trkpt>
      <trkpt lat="43.22097" lon="5.47968">
        <ele>273.3</ele>
        <time>2025-10-18T12:03:11Z</time>
      </trkpt>
      <trkpt lat="43.22098" lon="5.47967">
        <ele>273.6</ele>
        <time>2025-10-18T12:03:12Z</time>
      </trkpt>
      <trkpt lat="43.22098" lon="5.47967">
        <ele>273.9</ele>
        <time>2025-10-18T12:03:13Z</time>
      </trkpt>
      <trkpt lat="43.22099" lon="5.47967">
        <ele>274.1</ele>
        <time>2025-10-18T12:03:14Z</time>
      </trkpt>
      <trkpt lat="43.22099" lon="5.47967">
        <ele>274.2</ele>
        <time>2025-10-18T12:03:15Z</time>
      </trkpt>
      <trkpt lat="43.221" lon="5.47966">
        <ele>274.2</ele>
        <time>2025-10-18T12:03:16Z</time>
      </trkpt>
      <trkpt lat="43.22101" lon="5.47966">
        <ele>274.4</ele>
        <time>2025-10-18T12:03:17Z</time>
      </trkpt>
      <trkpt lat="43.22101" lon="5.47966">
        <ele>274.5</ele>
        <time>2025-10-18T12:03:18Z</time>
      </trkpt>
      <trkpt lat="43.22101" lon="5.47966">
        <ele>274.7</ele>
        <time>2025-10-18T12:03:19Z</time>
      </trkpt>
      <trkpt lat="43.22102" lon="5.47965">
        <ele>274.8</ele>
        <time>2025-10-18T12:03:20Z</time>
      </trkpt>
      <trkpt lat="43.22102" lon="5.47964">
        <ele>274.9</ele>
        <time>2025-10-18T12:03:21Z</time>
      </trkpt>
      <trkpt lat="43.22103" lon="5.47964">
        <ele>275.1</ele>
        <time>2025-10-18T12:03:22Z</time>
      </trkpt>
      <trkpt lat="43.22103" lon="5.47964">
        <ele>275.3</ele>
        <time>2025-10-18T12:03:23Z</time>
      </trkpt>
      <trkpt lat="43.22104" lon="5.47964">
        <ele>275.5</ele>
        <time>2025-10-18T12:03:24Z</time>
      </trkpt>
      <trkpt lat="43.22105" lon="5.47963">
        <ele>275.6</ele>
        <time>2025-10-18T12:03:25Z</time>
      </trkpt>
      <trkpt lat="43.22105" lon="5.47963">
        <ele>275.7</ele>
        <time>2025-10-18T12:03:26Z</time>
      </trkpt>
      <trkpt lat="43.22106" lon="5.47963">
        <ele>275.8</ele>
        <time>2025-10-18T12:03:27Z</time>
      </trkpt>
      <trkpt lat="43.22106" lon="5.47963">
        <ele>275.7</ele>
        <time>2025-10-18T12:03:28Z</time>
      </trkpt>
      <trkpt lat="43.22107" lon="5.47963">
        <ele>275.8</ele>
        <time>2025-10-18T12:03:29Z</time>
      </trkpt>
      <trkpt lat="43.22107" lon="5.47963">
        <ele>275.7</ele>
        <time>2025-10-18T12:03:30Z</time>
      </trkpt>
      <trkpt lat="43.22108" lon="5.47963">
        <ele>275.8</ele>
        <time>2025-10-18T12:03:31Z</time>
      </trkpt>
      <trkpt lat="43.22108" lon="5.47963">
        <ele>275.8</ele>
        <time>2025-10-18T12:03:32Z</time>
      </trkpt>
      <trkpt lat="43.22109" lon="5.47963">
        <ele>275.8</ele>
        <time>2025-10-18T12:03:33Z</time>
      </trkpt>
      <trkpt lat="43.22109" lon="5.47963">
        <ele>275.8</ele>
        <time>2025-10-18T12:03:34Z</time>
      </trkpt>
      <trkpt lat="43.22109" lon="5.47963">
        <ele>275.8</ele>
        <time>2025-10-18T12:03:35Z</time>
      </trkpt>
      <trkpt lat="43.22109" lon="5.47963">
        <ele>275.7</ele>
        <time>2025-10-18T12:03:36Z</time>
      </trkpt>
      <trkpt lat="43.2211" lon="5.47963">
        <ele>275.7</ele>
        <time>2025-10-18T12:03:37Z</time>
      </trkpt>
      <trkpt lat="43.2211" lon="5.47963">
        <ele>275.6</ele>
        <time>2025-10-18T12:03:38Z</time>
      </trkpt>
      <trkpt lat="43.22111" lon="5.47962">
        <ele>275.5</ele>
        <time>2025-10-18T12:03:39Z</time>
      </trkpt>
      <trkpt lat="43.22111" lon="5.47962">
        <ele>275.5</ele>
        <time>2025-10-18T12:03:40Z</time>
      </trkpt>
      <trkpt lat="43.22112" lon="5.47961">
        <ele>275.6</ele>
        <time>2025-10-18T12:03:41Z</time>
      </trkpt>
      <trkpt lat="43.22112" lon="5.47961">
        <ele>275.7</ele>
        <time>2025-10-18T12:03:42Z</time>
      </trkpt>
      <trkpt lat="43.22113" lon="5.47961">
        <ele>275.8</ele>
        <time>2025-10-18T12:03:43Z</time>
      </trkpt>
      <trkpt lat="43.22113" lon="5.4796">
        <ele>275.9</ele>
        <time>2025-10-18T12:03:44Z</time>
      </trkpt>
      <trkpt lat="43.22113" lon="5.4796">
        <ele>275.9</ele>
        <time>2025-10-18T12:03:45Z</time>
      </trkpt>
      <trkpt lat="43.22114" lon="5.47959">
        <ele>276.1</ele>
        <time>2025-10-18T12:03:46Z</time>
      </trkpt>
      <trkpt lat="43.22115" lon="5.47959">
        <ele>276.1</ele>
        <time>2025-10-18T12:03:47Z</time>
      </trkpt>
      <trkpt lat="43.22115" lon="5.47959">
        <ele>276.2</ele>
        <time>2025-10-18T12:03:48Z</time>
      </trkpt>
      <trkpt lat="43.22115" lon="5.47958">
        <ele>276.3</ele>
        <time>2025-10-18T12:03:49Z</time>
      </trkpt>
      <trkpt lat="43.22116" lon="5.47958">
        <ele>276.4</ele>
        <time>2025-10-18T12:03:50Z</time>
      </trkpt>
      <trkpt lat="43.22117" lon="5.47957">
        <ele>276.5</ele>
        <time>2025-10-18T12:03:51Z</time>
      </trkpt>
      <trkpt lat="43.22117" lon="5.47957">
        <ele>276.6</ele>
        <time>2025-10-18T12:03:52Z</time>
      </trkpt>
      <trkpt lat="43.22118" lon="5.47957">
        <ele>276.6</ele>
        <time>2025-10-18T12:03:53Z</time>
      </trkpt>
      <trkpt lat="43.22118" lon="5.47957">
        <ele>276.6</ele>
        <time>2025-10-18T12:03:54Z</time>
      </trkpt>
      <trkpt lat="43.22119" lon="5.47957">
        <ele>276.8</ele>
        <time>2025-10-18T12:03:55Z</time>
      </trkpt>
      <trkpt lat="43.2212" lon="5.47956">
        <ele>276.9</ele>
        <time>2025-10-18T12:03:56Z</time>
      </trkpt>
      <trkpt lat="43.2212" lon="5.47956">
        <ele>276.9</ele>
        <time>2025-10-18T12:03:57Z</time>
      </trkpt>
      <trkpt lat="43.2212" lon="5.47956">
        <ele>277</ele>
        <time>2025-10-18T12:03:58Z</time>
      </trkpt>
      <trkpt lat="43.22121" lon="5.47956">
        <ele>277</ele>
        <time>2025-10-18T12:03:59Z</time>
      </trkpt>
      <trkpt lat="43.22121" lon="5.47956">
        <ele>277.1</ele>
        <time>2025-10-18T12:04:00Z</time>
      </trkpt>
      <trkpt lat="43.22121" lon="5.47956">
        <ele>277.2</ele>
        <time>2025-10-18T12:04:01Z</time>
      </trkpt>
      <trkpt lat="43.22121" lon="5.47956">
        <ele>277.3</ele>
        <time>2025-10-18T12:04:02Z</time>
      </trkpt>
      <trkpt lat="43.22121" lon="5.47956">
        <ele>277.3</ele>
        <time>2025-10-18T12:04:03Z</time>
      </trkpt>
      <trkpt lat="43.22121" lon="5.47956">
        <ele>277.3</ele>
        <time>2025-10-18T12:04:04Z</time>
      </trkpt>
      <trkpt lat="43.22121" lon="5.47956">
        <ele>277.3</ele>
        <time>2025-10-18T12:04:05Z</time>
      </trkpt>
      <trkpt lat="43.22121" lon="5.47956">
        <ele>277.4</ele>
        <time>2025-10-18T12:04:06Z</time>
      </trkpt>
      <trkpt lat="43.22121" lon="5.47956">
        <ele>277.4</ele>
        <time>2025-10-18T12:04:07Z</time>
      </trkpt>
      <trkpt lat="43.22121" lon="5.47956">
        <ele>277.4</ele>
        <time>2025-10-18T12:04:08Z</time>
      </trkpt>
      <trkpt lat="43.22121" lon="5.47956">
        <ele>277.5</ele>
        <time>2025-10-18T12:04:09Z</time>
      </trkpt>
      <trkpt lat="43.22121" lon="5.47956">
        <ele>277.4</ele>
        <time>2025-10-18T12:04:10Z</time>
      </trkpt>
      <trkpt lat="43.22121" lon="5.47956">
        <ele>277.4</ele>
        <time>2025-10-18T12:04:11Z</time>
      </trkpt>
      <trkpt lat="43.22121" lon="5.47956">
        <ele>277.4</ele>
        <time>2025-10-18T12:04:12Z</time>
      </trkpt>
      <trkpt lat="43.22121" lon="5.47956">
        <ele>277.4</ele>
        <time>2025-10-18T12:04:13Z</time>
      </trkpt>
      <trkpt lat="43.22121" lon="5.47956">
        <ele>277.5</ele>
        <time>2025-10-18T12:04:14Z</time>
      </trkpt>
      <trkpt lat="43.22121" lon="5.47955">
        <ele>277.5</ele>
        <time>2025-10-18T12:04:15Z</time>
      </trkpt>
      <trkpt lat="43.22121" lon="5.47956">
        <ele>277.5</ele>
        <time>2025-10-18T12:04:16Z</time>
      </trkpt>
      <trkpt lat="43.22121" lon="5.47956">
        <ele>277.5</ele>
        <time>2025-10-18T12:04:17Z</time>
      </trkpt>
      <trkpt lat="43.22121" lon="5.47956">
        <ele>277.5</ele>
        <time>2025-10-18T12:04:18Z</time>
      </trkpt>
      <trkpt lat="43.22121" lon="5.47956">
        <ele>277.6</ele>
        <time>2025-10-18T12:04:19Z</time>
      </trkpt>
      <trkpt lat="43.22121" lon="5.47956">
        <ele>277.7</ele>
        <time>2025-10-18T12:04:20Z</time>
      </trkpt>
      <trkpt lat="43.22121" lon="5.47956">
        <ele>277.7</ele>
        <time>2025-10-18T12:04:21Z</time>
      </trkpt>
      <trkpt lat="43.22121" lon="5.47956">
        <ele>277.7</ele>
        <time>2025-10-18T12:04:22Z</time>
      </trkpt>
      <trkpt lat="43.22121" lon="5.47956">
        <ele>277.7</ele>
        <time>2025-10-18T12:04:23Z</time>
      </trkpt>
      <trkpt lat="43.22121" lon="5.47956">
        <ele>277.7</ele>
        <time>2025-10-18T12:04:24Z</time>
      </trkpt>
      <trkpt lat="43.22121" lon="5.47956">
        <ele>277.7</ele>
        <time>2025-10-18T12:04:25Z</time>
      </trkpt>
      <trkpt lat="43.22121" lon="5.47956">
        <ele>277.7</ele>
        <time>2025-10-18T12:04:26Z</time>
      </trkpt>
      <trkpt lat="43.22121" lon="5.47956">
        <ele>277.7</ele>
        <time>2025-10-18T12:04:27Z</time>
      </trkpt>
      <trkpt lat="43.2212" lon="5.47956">
        <ele>277.6</ele>
        <time>2025-10-18T12:04:28Z</time>
      </trkpt>
      <trkpt lat="43.2212" lon="5.47956">
        <ele>277.5</ele>
        <time>2025-10-18T12:04:29Z</time>
      </trkpt>
      <trkpt lat="43.2212" lon="5.47956">
        <ele>277.5</ele>
        <time>2025-10-18T12:04:30Z</time>
      </trkpt>
      <trkpt lat="43.2212" lon="5.47956">
        <ele>277.5</ele>
        <time>2025-10-18T12:04:31Z</time>
      </trkpt>
      <trkpt lat="43.2212" lon="5.47956">
        <ele>277.5</ele>
        <time>2025-10-18T12:04:32Z</time>
      </trkpt>
      <trkpt lat="43.2212" lon="5.47956">
        <ele>277.5</ele>
        <time>2025-10-18T12:04:33Z</time>
      </trkpt>
      <trkpt lat="43.2212" lon="5.47956">
        <ele>277.5</ele>
        <time>2025-10-18T12:04:34Z</time>
      </trkpt>
      <trkpt lat="43.2212" lon="5.47956">
        <ele>277.6</ele>
        <time>2025-10-18T12:04:35Z</time>
      </trkpt>
      <trkpt lat="43.2212" lon="5.47956">
        <ele>277.6</ele>
        <time>2025-10-18T12:04:36Z</time>
      </trkpt>
      <trkpt lat="43.2212" lon="5.47956">
        <ele>277.6</ele>
        <time>2025-10-18T12:04:37Z</time>
      </trkpt>
      <trkpt lat="43.2212" lon="5.47956">
        <ele>277.6</ele>
        <time>2025-10-18T12:04:38Z</time>
      </trkpt>
      <trkpt lat="43.22119" lon="5.47956">
        <ele>277.6</ele>
        <time>2025-10-18T12:04:39Z</time>
      </trkpt>
      <trkpt lat="43.2212" lon="5.47956">
        <ele>277.6</ele>
        <time>2025-10-18T12:04:40Z</time>
      </trkpt>
      <trkpt lat="43.2212" lon="5.47955">
        <ele>277.6</ele>
        <time>2025-10-18T12:04:41Z</time>
      </trkpt>
      <trkpt lat="43.2212" lon="5.47955">
        <ele>277.6</ele>
        <time>2025-10-18T12:04:42Z</time>
      </trkpt>
      <trkpt lat="43.2212" lon="5.47955">
        <ele>277.5</ele>
        <time>2025-10-18T12:04:43Z</time>
      </trkpt>
      <trkpt lat="43.22121" lon="5.47954">
        <ele>277.6</ele>
        <time>2025-10-18T12:04:44Z</time>
      </trkpt>
      <trkpt lat="43.22121" lon="5.47954">
        <ele>277.7</ele>
        <time>2025-10-18T12:04:45Z</time>
      </trkpt>
      <trkpt lat="43.22121" lon="5.47954">
        <ele>277.6</ele>
        <time>2025-10-18T12:04:46Z</time>
      </trkpt>
      <trkpt lat="43.22121" lon="5.47954">
        <ele>277.7</ele>
        <time>2025-10-18T12:04:47Z</time>
      </trkpt>
      <trkpt lat="43.22121" lon="5.47954">
        <ele>277.7</ele>
        <time>2025-10-18T12:04:48Z</time>
      </trkpt>
      <trkpt lat="43.22121" lon="5.47953">
        <ele>277.7</ele>
        <time>2025-10-18T12:04:49Z</time>
      </trkpt>
      <trkpt lat="43.22121" lon="5.47953">
        <ele>277.7</ele>
        <time>2025-10-18T12:04:50Z</time>
      </trkpt>
      <trkpt lat="43.22121" lon="5.47952">
        <ele>277.8</ele>
        <time>2025-10-18T12:04:51Z</time>
      </trkpt>
      <trkpt lat="43.22121" lon="5.47951">
        <ele>277.8</ele>
        <time>2025-10-18T12:04:52Z</time>
      </trkpt>
      <trkpt lat="43.22121" lon="5.47951">
        <ele>277.9</ele>
        <time>2025-10-18T12:04:53Z</time>
      </trkpt>
      <trkpt lat="43.22121" lon="5.47951">
        <ele>278</ele>
        <time>2025-10-18T12:04:54Z</time>
      </trkpt>
      <trkpt lat="43.22121" lon="5.47951">
        <ele>278.1</ele>
        <time>2025-10-18T12:04:55Z</time>
      </trkpt>
      <trkpt lat="43.22121" lon="5.47951">
        <ele>278.1</ele>
        <time>2025-10-18T12:04:56Z</time>
      </trkpt>
      <trkpt lat="43.22121" lon="5.47951">
        <ele>278.2</ele>
        <time>2025-10-18T12:04:57Z</time>
      </trkpt>
      <trkpt lat="43.22121" lon="5.47951">
        <ele>278.2</ele>
        <time>2025-10-18T12:04:58Z</time>
      </trkpt>
      <trkpt lat="43.22121" lon="5.47951">
        <ele>278.2</ele>
        <time>2025-10-18T12:04:59Z</time>
      </trkpt>
      <trkpt lat="43.22121" lon="5.47951">
        <ele>278.2</ele>
        <time>2025-10-18T12:05:00Z</time>
      </trkpt>
      <trkpt lat="43.22121" lon="5.47951">
        <ele>278.2</ele>
        <time>2025-10-18T12:05:01Z</time>
      </trkpt>
      <trkpt lat="43.22121" lon="5.4795">
        <ele>278.2</ele>
        <time>2025-10-18T12:05:02Z</time>
      </trkpt>
      <trkpt lat="43.22121" lon="5.4795">
        <ele>278.3</ele>
        <time>2025-10-18T12:05:03Z</time>
      </trkpt>
      <trkpt lat="43.22121" lon="5.4795">
        <ele>278.3</ele>
        <time>2025-10-18T12:05:04Z</time>
      </trkpt>
      <trkpt lat="43.22121" lon="5.4795">
        <ele>278.4</ele>
        <time>2025-10-18T12:05:05Z</time>
      </trkpt>
      <trkpt lat="43.22121" lon="5.4795">
        <ele>278.3</ele>
        <time>2025-10-18T12:05:06Z</time>
      </trkpt>
      <trkpt lat="43.22121" lon="5.4795">
        <ele>278.3</ele>
        <time>2025-10-18T12:05:07Z</time>
      </trkpt>
      <trkpt lat="43.22121" lon="5.4795">
        <ele>278.3</ele>
        <time>2025-10-18T12:05:08Z</time>
      </trkpt>
      <trkpt lat="43.22121" lon="5.4795">
        <ele>278.2</ele>
        <time>2025-10-18T12:05:09Z</time>
      </trkpt>
      <trkpt lat="43.22121" lon="5.4795">
        <ele>278.2</ele>
        <time>2025-10-18T12:05:10Z</time>
      </trkpt>
      <trkpt lat="43.22121" lon="5.47949">
        <ele>278.3</ele>
        <time>2025-10-18T12:05:11Z</time>
      </trkpt>
      <trkpt lat="43.22121" lon="5.47948">
        <ele>278.4</ele>
        <time>2025-10-18T12:05:12Z</time>
      </trkpt>
      <trkpt lat="43.22121" lon="5.47948">
        <ele>278.5</ele>
        <time>2025-10-18T12:05:13Z</time>
      </trkpt>
      <trkpt lat="43.22121" lon="5.47948">
        <ele>278.4</ele>
        <time>2025-10-18T12:05:14Z</time>
      </trkpt>
      <trkpt lat="43.22121" lon="5.47948">
        <ele>278.4</ele>
        <time>2025-10-18T12:05:15Z</time>
      </trkpt>
      <trkpt lat="43.22121" lon="5.47948">
        <ele>278.4</ele>
        <time>2025-10-18T12:05:16Z</time>
      </trkpt>
      <trkpt lat="43.22121" lon="5.47947">
        <ele>278.5</ele>
        <time>2025-10-18T12:05:17Z</time>
      </trkpt>
      <trkpt lat="43.22122" lon="5.47946">
        <ele>278.6</ele>
        <time>2025-10-18T12:05:18Z</time>
      </trkpt>
      <trkpt lat="43.22122" lon="5.47946">
        <ele>278.7</ele>
        <time>2025-10-18T12:05:19Z</time>
      </trkpt>
      <trkpt lat="43.22122" lon="5.47944">
        <ele>278.8</ele>
        <time>2025-10-18T12:05:20Z</time>
      </trkpt>
      <trkpt lat="43.22123" lon="5.47944">
        <ele>278.9</ele>
        <time>2025-10-18T12:05:21Z</time>
      </trkpt>
      <trkpt lat="43.22123" lon="5.47943">
        <ele>279.1</ele>
        <time>2025-10-18T12:05:22Z</time>
      </trkpt>
      <trkpt lat="43.22124" lon="5.47942">
        <ele>279.1</ele>
        <time>2025-10-18T12:05:23Z</time>
      </trkpt>
      <trkpt lat="43.22124" lon="5.47941">
        <ele>279.2</ele>
        <time>2025-10-18T12:05:24Z</time>
      </trkpt>
      <trkpt lat="43.22124" lon="5.4794">
        <ele>279.4</ele>
        <time>2025-10-18T12:05:25Z</time>
      </trkpt>
      <trkpt lat="43.22125" lon="5.47938">
        <ele>279.5</ele>
        <time>2025-10-18T12:05:26Z</time>
      </trkpt>
      <trkpt lat="43.22125" lon="5.47938">
        <ele>279.6</ele>
        <time>2025-10-18T12:05:27Z</time>
      </trkpt>
      <trkpt lat="43.22126" lon="5.47937">
        <ele>279.8</ele>
        <time>2025-10-18T12:05:28Z</time>
      </trkpt>
      <trkpt lat="43.22126" lon="5.47936">
        <ele>279.9</ele>
        <time>2025-10-18T12:05:29Z</time>
      </trkpt>
      <trkpt lat="43.22126" lon="5.47935">
        <ele>280</ele>
        <time>2025-10-18T12:05:30Z</time>
      </trkpt>
      <trkpt lat="43.22127" lon="5.47934">
        <ele>280.2</ele>
        <time>2025-10-18T12:05:31Z</time>
      </trkpt>
      <trkpt lat="43.22128" lon="5.47933">
        <ele>280.4</ele>
        <time>2025-10-18T12:05:32Z</time>
      </trkpt>
      <trkpt lat="43.22128" lon="5.47932">
        <ele>280.6</ele>
        <time>2025-10-18T12:05:33Z</time>
      </trkpt>
      <trkpt lat="43.22128" lon="5.4793">
        <ele>280.7</ele>
        <time>2025-10-18T12:05:34Z</time>
      </trkpt>
      <trkpt lat="43.22128" lon="5.47929">
        <ele>280.8</ele>
        <time>2025-10-18T12:05:35Z</time>
      </trkpt>
      <trkpt lat="43.22128" lon="5.47928">
        <ele>280.9</ele>
        <time>2025-10-18T12:05:36Z</time>
      </trkpt>
      <trkpt lat="43.22129" lon="5.47927">
        <ele>281</ele>
        <time>2025-10-18T12:05:37Z</time>
      </trkpt>
      <trkpt lat="43.22129" lon="5.47926">
        <ele>281.1</ele>
        <time>2025-10-18T12:05:38Z</time>
      </trkpt>
      <trkpt lat="43.2213" lon="5.47925">
        <ele>281.2</ele>
        <time>2025-10-18T12:05:39Z</time>
      </trkpt>
      <trkpt lat="43.2213" lon="5.47924">
        <ele>281.4</ele>
        <time>2025-10-18T12:05:40Z</time>
      </trkpt>
      <trkpt lat="43.22131" lon="5.47923">
        <ele>281.6</ele>
        <time>2025-10-18T12:05:41Z</time>
      </trkpt>
      <trkpt lat="43.22131" lon="5.47922">
        <ele>281.7</ele>
        <time>2025-10-18T12:05:42Z</time>
      </trkpt>
      <trkpt lat="43.22132" lon="5.47921">
        <ele>281.8</ele>
        <time>2025-10-18T12:05:43Z</time>
      </trkpt>
      <trkpt lat="43.22132" lon="5.47919">
        <ele>281.9</ele>
        <time>2025-10-18T12:05:44Z</time>
      </trkpt>
      <trkpt lat="43.22132" lon="5.47918">
        <ele>281.9</ele>
        <time>2025-10-18T12:05:45Z</time>
      </trkpt>
      <trkpt lat="43.22133" lon="5.47917">
        <ele>282.1</ele>
        <time>2025-10-18T12:05:46Z</time>
      </trkpt>
      <trkpt lat="43.22133" lon="5.47916">
        <ele>282.2</ele>
        <time>2025-10-18T12:05:47Z</time>
      </trkpt>
      <trkpt lat="43.22133" lon="5.47914">
        <ele>282.4</ele>
        <time>2025-10-18T12:05:48Z</time>
      </trkpt>
      <trkpt lat="43.22133" lon="5.47913">
        <ele>282.6</ele>
        <time>2025-10-18T12:05:49Z</time>
      </trkpt>
      <trkpt lat="43.22133" lon="5.47912">
        <ele>282.7</ele>
        <time>2025-10-18T12:05:50Z</time>
      </trkpt>
      <trkpt lat="43.22134" lon="5.47911">
        <ele>282.9</ele>
        <time>2025-10-18T12:05:51Z</time>
      </trkpt>
      <trkpt lat="43.22134" lon="5.47909">
        <ele>283.1</ele>
        <time>2025-10-18T12:05:52Z</time>
      </trkpt>
      <trkpt lat="43.22134" lon="5.47908">
        <ele>283.2</ele>
        <time>2025-10-18T12:05:53Z</time>
      </trkpt>
      <trkpt lat="43.22135" lon="5.47908">
        <ele>283.4</ele>
        <time>2025-10-18T12:05:54Z</time>
      </trkpt>
      <trkpt lat="43.22136" lon="5.47907">
        <ele>283.4</ele>
        <time>2025-10-18T12:05:55Z</time>
      </trkpt>
      <trkpt lat="43.22136" lon="5.47907">
        <ele>283.4</ele>
        <time>2025-10-18T12:05:56Z</time>
      </trkpt>
      <trkpt lat="43.22136" lon="5.47906">
        <ele>283.4</ele>
        <time>2025-10-18T12:05:57Z</time>
      </trkpt>
      <trkpt lat="43.22136" lon="5.47906">
        <ele>283.4</ele>
        <time>2025-10-18T12:05:58Z</time>
      </trkpt>
      <trkpt lat="43.22136" lon="5.47905">
        <ele>283.4</ele>
        <time>2025-10-18T12:05:59Z</time>
      </trkpt>
      <trkpt lat="43.22136" lon="5.47904">
        <ele>283.5</ele>
        <time>2025-10-18T12:06:00Z</time>
      </trkpt>
      <trkpt lat="43.22136" lon="5.47903">
        <ele>283.5</ele>
        <time>2025-10-18T12:06:01Z</time>
      </trkpt>
      <trkpt lat="43.22136" lon="5.47902">
        <ele>283.6</ele>
        <time>2025-10-18T12:06:02Z</time>
      </trkpt>
      <trkpt lat="43.22135" lon="5.47901">
        <ele>283.7</ele>
        <time>2025-10-18T12:06:03Z</time>
      </trkpt>
      <trkpt lat="43.22135" lon="5.479">
        <ele>283.7</ele>
        <time>2025-10-18T12:06:04Z</time>
      </trkpt>
      <trkpt lat="43.22135" lon="5.47899">
        <ele>283.8</ele>
        <time>2025-10-18T12:06:05Z</time>
      </trkpt>
      <trkpt lat="43.22135" lon="5.47898">
        <ele>283.9</ele>
        <time>2025-10-18T12:06:06Z</time>
      </trkpt>
      <trkpt lat="43.22136" lon="5.47898">
        <ele>283.9</ele>
        <time>2025-10-18T12:06:07Z</time>
      </trkpt>
      <trkpt lat="43.22136" lon="5.47898">
        <ele>283.9</ele>
        <time>2025-10-18T12:06:08Z</time>
      </trkpt>
      <trkpt lat="43.22136" lon="5.47897">
        <ele>283.9</ele>
        <time>2025-10-18T12:06:09Z</time>
      </trkpt>
      <trkpt lat="43.22136" lon="5.47897">
        <ele>284</ele>
        <time>2025-10-18T12:06:10Z</time>
      </trkpt>
      <trkpt lat="43.22136" lon="5.47898">
        <ele>284</ele>
        <time>2025-10-18T12:06:11Z</time>
      </trkpt>
      <trkpt lat="43.22136" lon="5.47898">
        <ele>284</ele>
        <time>2025-10-18T12:06:12Z</time>
      </trkpt>
      <trkpt lat="43.22136" lon="5.47898">
        <ele>284</ele>
        <time>2025-10-18T12:06:13Z</time>
      </trkpt>
      <trkpt lat="43.22135" lon="5.47898">
        <ele>284.1</ele>
        <time>2025-10-18T12:06:14Z</time>
      </trkpt>
      <trkpt lat="43.22135" lon="5.47898">
        <ele>284.2</ele>
        <time>2025-10-18T12:06:15Z</time>
      </trkpt>
      <trkpt lat="43.22135" lon="5.47898">
        <ele>284.2</ele>
        <time>2025-10-18T12:06:16Z</time>
      </trkpt>
      <trkpt lat="43.22135" lon="5.47898">
        <ele>284.2</ele>
        <time>2025-10-18T12:06:17Z</time>
      </trkpt>
      <trkpt lat="43.22135" lon="5.47898">
        <ele>284.2</ele>
        <time>2025-10-18T12:06:18Z</time>
      </trkpt>
      <trkpt lat="43.22135" lon="5.47899">
        <ele>284.3</ele>
        <time>2025-10-18T12:06:19Z</time>
      </trkpt>
      <trkpt lat="43.22135" lon="5.47899">
        <ele>284.3</ele>
        <time>2025-10-18T12:06:20Z</time>
      </trkpt>
      <trkpt lat="43.22135" lon="5.47899">
        <ele>284.3</ele>
        <time>2025-10-18T12:06:21Z</time>
      </trkpt>
      <trkpt lat="43.22135" lon="5.47899">
        <ele>284.2</ele>
        <time>2025-10-18T12:06:22Z</time>
      </trkpt>
      <trkpt lat="43.22135" lon="5.47899">
        <ele>284.3</ele>
        <time>2025-10-18T12:06:23Z</time>
      </trkpt>
      <trkpt lat="43.22135" lon="5.47899">
        <ele>284.4</ele>
        <time>2025-10-18T12:06:24Z</time>
      </trkpt>
      <trkpt lat="43.22135" lon="5.47899">
        <ele>284.4</ele>
        <time>2025-10-18T12:06:25Z</time>
      </trkpt>
      <trkpt lat="43.22135" lon="5.47899">
        <ele>284.4</ele>
        <time>2025-10-18T12:06:26Z</time>
      </trkpt>
      <trkpt lat="43.22134" lon="5.47899">
        <ele>284.3</ele>
        <time>2025-10-18T12:06:27Z</time>
      </trkpt>
      <trkpt lat="43.22134" lon="5.47899">
        <ele>284.3</ele>
        <time>2025-10-18T12:06:28Z</time>
      </trkpt>
      <trkpt lat="43.22134" lon="5.479">
        <ele>284.2</ele>
        <time>2025-10-18T12:06:29Z</time>
      </trkpt>
      <trkpt lat="43.22134" lon="5.479">
        <ele>284.3</ele>
        <time>2025-10-18T12:06:30Z</time>
      </trkpt>
      <trkpt lat="43.22133" lon="5.479">
        <ele>284.3</ele>
        <time>2025-10-18T12:06:31Z</time>
      </trkpt>
      <trkpt lat="43.22133" lon="5.479">
        <ele>284.3</ele>
        <time>2025-10-18T12:06:32Z</time>
      </trkpt>
      <trkpt lat="43.22133" lon="5.479">
        <ele>284.3</ele>
        <time>2025-10-18T12:06:33Z</time>
      </trkpt>
      <trkpt lat="43.22133" lon="5.479">
        <ele>284.3</ele>
        <time>2025-10-18T12:06:34Z</time>
      </trkpt>
      <trkpt lat="43.22133" lon="5.479">
        <ele>284.4</ele>
        <time>2025-10-18T12:06:35Z</time>
      </trkpt>
      <trkpt lat="43.22133" lon="5.47899">
        <ele>284.4</ele>
        <time>2025-10-18T12:06:36Z</time>
      </trkpt>
      <trkpt lat="43.22133" lon="5.47899">
        <ele>284.5</ele>
        <time>2025-10-18T12:06:37Z</time>
      </trkpt>
      <trkpt lat="43.22132" lon="5.47899">
        <ele>284.5</ele>
        <time>2025-10-18T12:06:38Z</time>
      </trkpt>
      <trkpt lat="43.22132" lon="5.47899">
        <ele>284.4</ele>
        <time>2025-10-18T12:06:39Z</time>
      </trkpt>
      <trkpt lat="43.22132" lon="5.47899">
        <ele>284.3</ele>
        <time>2025-10-18T12:06:40Z</time>
      </trkpt>
      <trkpt lat="43.22132" lon="5.47899">
        <ele>284.3</ele>
        <time>2025-10-18T12:06:41Z</time>
      </trkpt>
      <trkpt lat="43.22132" lon="5.47898">
        <ele>284.2</ele>
        <time>2025-10-18T12:06:42Z</time>
      </trkpt>
      <trkpt lat="43.22132" lon="5.47898">
        <ele>284.1</ele>
        <time>2025-10-18T12:06:43Z</time>
      </trkpt>
      <trkpt lat="43.22132" lon="5.47898">
        <ele>284.2</ele>
        <time>2025-10-18T12:06:44Z</time>
      </trkpt>
      <trkpt lat="43.22132" lon="5.47898">
        <ele>284.3</ele>
        <time>2025-10-18T12:06:45Z</time>
      </trkpt>
      <trkpt lat="43.22132" lon="5.47898">
        <ele>284.3</ele>
        <time>2025-10-18T12:06:46Z</time>
      </trkpt>
      <trkpt lat="43.22132" lon="5.47898">
        <ele>284.3</ele>
        <time>2025-10-18T12:06:47Z</time>
      </trkpt>
      <trkpt lat="43.22132" lon="5.47898">
        <ele>284.3</ele>
        <time>2025-10-18T12:06:48Z</time>
      </trkpt>
      <trkpt lat="43.22132" lon="5.47898">
        <ele>284.2</ele>
        <time>2025-10-18T12:06:49Z</time>
      </trkpt>
      <trkpt lat="43.22132" lon="5.47898">
        <ele>284.3</ele>
        <time>2025-10-18T12:06:50Z</time>
      </trkpt>
      <trkpt lat="43.22132" lon="5.47898">
        <ele>284.3</ele>
        <time>2025-10-18T12:06:51Z</time>
      </trkpt>
      <trkpt lat="43.22132" lon="5.47898">
        <ele>284.3</ele>
        <time>2025-10-18T12:06:52Z</time>
      </trkpt>
      <trkpt lat="43.22132" lon="5.47898">
        <ele>284.3</ele>
        <time>2025-10-18T12:06:53Z</time>
      </trkpt>
      <trkpt lat="43.22132" lon="5.47898">
        <ele>284.3</ele>
        <time>2025-10-18T12:06:54Z</time>
      </trkpt>
      <trkpt lat="43.22133" lon="5.47898">
        <ele>284.3</ele>
        <time>2025-10-18T12:06:55Z</time>
      </trkpt>
      <trkpt lat="43.22133" lon="5.47898">
        <ele>284.3</ele>
        <time>2025-10-18T12:06:56Z</time>
      </trkpt>
      <trkpt lat="43.22133" lon="5.47898">
        <ele>284.3</ele>
        <time>2025-10-18T12:06:57Z</time>
      </trkpt>
      <trkpt lat="43.22133" lon="5.47898">
        <ele>284.1</ele>
        <time>2025-10-18T12:06:58Z</time>
      </trkpt>
      <trkpt lat="43.22133" lon="5.47898">
        <ele>284.1</ele>
        <time>2025-10-18T12:06:59Z</time>
      </trkpt>
      <trkpt lat="43.22132" lon="5.47898">
        <ele>284</ele>
        <time>2025-10-18T12:07:00Z</time>
      </trkpt>
      <trkpt lat="43.22133" lon="5.47898">
        <ele>284</ele>
        <time>2025-10-18T12:07:01Z</time>
      </trkpt>
      <trkpt lat="43.22133" lon="5.47898">
        <ele>283.9</ele>
        <time>2025-10-18T12:07:02Z</time>
      </trkpt>
      <trkpt lat="43.22133" lon="5.47898">
        <ele>284</ele>
        <time>2025-10-18T12:07:03Z</time>
      </trkpt>
      <trkpt lat="43.22133" lon="5.47898">
        <ele>284</ele>
        <time>2025-10-18T12:07:04Z</time>
      </trkpt>
      <trkpt lat="43.22132" lon="5.47898">
        <ele>284</ele>
        <time>2025-10-18T12:07:05Z</time>
      </trkpt>
      <trkpt lat="43.22132" lon="5.47898">
        <ele>284</ele>
        <time>2025-10-18T12:07:06Z</time>
      </trkpt>
      <trkpt lat="43.22132" lon="5.47898">
        <ele>284</ele>
        <time>2025-10-18T12:07:07Z</time>
      </trkpt>
      <trkpt lat="43.22132" lon="5.47898">
        <ele>284</ele>
        <time>2025-10-18T12:07:08Z</time>
      </trkpt>
      <trkpt lat="43.22132" lon="5.47898">
        <ele>284</ele>
        <time>2025-10-18T12:07:09Z</time>
      </trkpt>
      <trkpt lat="43.22132" lon="5.47898">
        <ele>284</ele>
        <time>2025-10-18T12:07:10Z</time>
      </trkpt>
      <trkpt lat="43.22132" lon="5.47898">
        <ele>284</ele>
        <time>2025-10-18T12:07:11Z</time>
      </trkpt>
      <trkpt lat="43.22132" lon="5.47898">
        <ele>284</ele>
        <time>2025-10-18T12:07:12Z</time>
      </trkpt>
      <trkpt lat="43.22132" lon="5.47898">
        <ele>284.1</ele>
        <time>2025-10-18T12:07:13Z</time>
      </trkpt>
      <trkpt lat="43.22132" lon="5.47897">
        <ele>284.1</ele>
        <time>2025-10-18T12:07:14Z</time>
      </trkpt>
      <trkpt lat="43.22131" lon="5.47897">
        <ele>284.1</ele>
        <time>2025-10-18T12:07:15Z</time>
      </trkpt>
      <trkpt lat="43.22131" lon="5.47897">
        <ele>284.1</ele>
        <time>2025-10-18T12:07:16Z</time>
      </trkpt>
      <trkpt lat="43.22131" lon="5.47897">
        <ele>284</ele>
        <time>2025-10-18T12:07:17Z</time>
      </trkpt>
      <trkpt lat="43.22131" lon="5.47897">
        <ele>284.1</ele>
        <time>2025-10-18T12:07:18Z</time>
      </trkpt>
      <trkpt lat="43.22131" lon="5.47896">
        <ele>284.1</ele>
        <time>2025-10-18T12:07:19Z</time>
      </trkpt>
      <trkpt lat="43.22131" lon="5.47896">
        <ele>284.1</ele>
        <time>2025-10-18T12:07:20Z</time>
      </trkpt>
      <trkpt lat="43.22131" lon="5.47896">
        <ele>284.1</ele>
        <time>2025-10-18T12:07:21Z</time>
      </trkpt>
      <trkpt lat="43.22131" lon="5.47896">
        <ele>284</ele>
        <time>2025-10-18T12:07:22Z</time>
      </trkpt>
      <trkpt lat="43.22131" lon="5.47896">
        <ele>284.1</ele>
        <time>2025-10-18T12:07:23Z</time>
      </trkpt>
      <trkpt lat="43.22131" lon="5.47896">
        <ele>284.1</ele>
        <time>2025-10-18T12:07:24Z</time>
      </trkpt>
      <trkpt lat="43.22131" lon="5.47896">
        <ele>284</ele>
        <time>2025-10-18T12:07:25Z</time>
      </trkpt>
      <trkpt lat="43.2213" lon="5.47896">
        <ele>284.1</ele>
        <time>2025-10-18T12:07:26Z</time>
      </trkpt>
      <trkpt lat="43.2213" lon="5.47896">
        <ele>284.2</ele>
        <time>2025-10-18T12:07:27Z</time>
      </trkpt>
      <trkpt lat="43.2213" lon="5.47895">
        <ele>284.2</ele>
        <time>2025-10-18T12:07:28Z</time>
      </trkpt>
      <trkpt lat="43.22129" lon="5.47895">
        <ele>284.3</ele>
        <time>2025-10-18T12:07:29Z</time>
      </trkpt>
      <trkpt lat="43.22129" lon="5.47894">
        <ele>284.5</ele>
        <time>2025-10-18T12:07:30Z</time>
      </trkpt>
      <trkpt lat="43.22129" lon="5.47894">
        <ele>284.7</ele>
        <time>2025-10-18T12:07:31Z</time>
      </trkpt>
      <trkpt lat="43.22129" lon="5.47894">
        <ele>284.8</ele>
        <time>2025-10-18T12:07:32Z</time>
      </trkpt>
      <trkpt lat="43.22129" lon="5.47894">
        <ele>284.9</ele>
        <time>2025-10-18T12:07:33Z</time>
      </trkpt>
      <trkpt lat="43.22129" lon="5.47893">
        <ele>285.1</ele>
        <time>2025-10-18T12:07:34Z</time>
      </trkpt>
      <trkpt lat="43.22129" lon="5.47893">
        <ele>285.2</ele>
        <time>2025-10-18T12:07:35Z</time>
      </trkpt>
      <trkpt lat="43.22129" lon="5.47892">
        <ele>285.4</ele>
        <time>2025-10-18T12:07:36Z</time>
      </trkpt>
      <trkpt lat="43.22129" lon="5.47892">
        <ele>285.6</ele>
        <time>2025-10-18T12:07:37Z</time>
      </trkpt>
      <trkpt lat="43.22129" lon="5.47891">
        <ele>285.9</ele>
        <time>2025-10-18T12:07:38Z</time>
      </trkpt>
      <trkpt lat="43.22128" lon="5.4789">
        <ele>286</ele>
        <time>2025-10-18T12:07:39Z</time>
      </trkpt>
      <trkpt lat="43.22128" lon="5.47889">
        <ele>286.1</ele>
        <time>2025-10-18T12:07:40Z</time>
      </trkpt>
      <trkpt lat="43.22128" lon="5.47888">
        <ele>286.3</ele>
        <time>2025-10-18T12:07:41Z</time>
      </trkpt>
      <trkpt lat="43.22128" lon="5.47888">
        <ele>286.5</ele>
        <time>2025-10-18T12:07:42Z</time>
      </trkpt>
      <trkpt lat="43.22127" lon="5.47887">
        <ele>286.6</ele>
        <time>2025-10-18T12:07:43Z</time>
      </trkpt>
      <trkpt lat="43.22127" lon="5.47885">
        <ele>286.9</ele>
        <time>2025-10-18T12:07:44Z</time>
      </trkpt>
      <trkpt lat="43.22126" lon="5.47884">
        <ele>287.1</ele>
        <time>2025-10-18T12:07:45Z</time>
      </trkpt>
      <trkpt lat="43.22126" lon="5.47883">
        <ele>287.3</ele>
        <time>2025-10-18T12:07:46Z</time>
      </trkpt>
      <trkpt lat="43.22126" lon="5.47883">
        <ele>287.5</ele>
        <time>2025-10-18T12:07:47Z</time>
      </trkpt>
      <trkpt lat="43.22126" lon="5.47882">
        <ele>287.7</ele>
        <time>2025-10-18T12:07:48Z</time>
      </trkpt>
      <trkpt lat="43.22126" lon="5.47882">
        <ele>287.9</ele>
        <time>2025-10-18T12:07:49Z</time>
      </trkpt>
      <trkpt lat="43.22126" lon="5.47881">
        <ele>288</ele>
        <time>2025-10-18T12:07:50Z</time>
      </trkpt>
      <trkpt lat="43.22126" lon="5.4788">
        <ele>288.2</ele>
        <time>2025-10-18T12:07:51Z</time>
      </trkpt>
      <trkpt lat="43.22126" lon="5.4788">
        <ele>288.3</ele>
        <time>2025-10-18T12:07:52Z</time>
      </trkpt>
      <trkpt lat="43.22126" lon="5.4788">
        <ele>288.4</ele>
        <time>2025-10-18T12:07:53Z</time>
      </trkpt>
      <trkpt lat="43.22126" lon="5.4788">
        <ele>288.4</ele>
        <time>2025-10-18T12:07:54Z</time>
      </trkpt>
      <trkpt lat="43.22126" lon="5.4788">
        <ele>288.4</ele>
        <time>2025-10-18T12:07:55Z</time>
      </trkpt>
      <trkpt lat="43.22126" lon="5.4788">
        <ele>288.4</ele>
        <time>2025-10-18T12:07:56Z</time>
      </trkpt>
      <trkpt lat="43.22125" lon="5.4788">
        <ele>288.5</ele>
        <time>2025-10-18T12:07:57Z</time>
      </trkpt>
      <trkpt lat="43.22125" lon="5.4788">
        <ele>288.4</ele>
        <time>2025-10-18T12:07:58Z</time>
      </trkpt>
      <trkpt lat="43.22125" lon="5.4788">
        <ele>288.4</ele>
        <time>2025-10-18T12:07:59Z</time>
      </trkpt>
      <trkpt lat="43.22125" lon="5.4788">
        <ele>288.4</ele>
        <time>2025-10-18T12:08:00Z</time>
      </trkpt>
      <trkpt lat="43.22125" lon="5.4788">
        <ele>288.5</ele>
        <time>2025-10-18T12:08:01Z</time>
      </trkpt>
      <trkpt lat="43.22125" lon="5.4788">
        <ele>288.4</ele>
        <time>2025-10-18T12:08:02Z</time>
      </trkpt>
      <trkpt lat="43.22125" lon="5.4788">
        <ele>288.5</ele>
        <time>2025-10-18T12:08:03Z</time>
      </trkpt>
      <trkpt lat="43.22125" lon="5.4788">
        <ele>288.5</ele>
        <time>2025-10-18T12:08:04Z</time>
      </trkpt>
      <trkpt lat="43.22125" lon="5.47879">
        <ele>288.5</ele>
        <time>2025-10-18T12:08:05Z</time>
      </trkpt>
      <trkpt lat="43.22124" lon="5.47879">
        <ele>288.6</ele>
        <time>2025-10-18T12:08:06Z</time>
      </trkpt>
      <trkpt lat="43.22124" lon="5.47879">
        <ele>288.6</ele>
        <time>2025-10-18T12:08:07Z</time>
      </trkpt>
      <trkpt lat="43.22124" lon="5.47879">
        <ele>288.6</ele>
        <time>2025-10-18T12:08:08Z</time>
      </trkpt>
      <trkpt lat="43.22124" lon="5.47879">
        <ele>288.6</ele>
        <time>2025-10-18T12:08:09Z</time>
      </trkpt>
      <trkpt lat="43.22124" lon="5.47879">
        <ele>288.6</ele>
        <time>2025-10-18T12:08:10Z</time>
      </trkpt>
      <trkpt lat="43.22124" lon="5.47879">
        <ele>288.6</ele>
        <time>2025-10-18T12:08:11Z</time>
      </trkpt>
      <trkpt lat="43.22124" lon="5.47878">
        <ele>288.6</ele>
        <time>2025-10-18T12:08:12Z</time>
      </trkpt>
      <trkpt lat="43.22124" lon="5.47878">
        <ele>288.6</ele>
        <time>2025-10-18T12:08:13Z</time>
      </trkpt>
      <trkpt lat="43.22124" lon="5.47878">
        <ele>288.6</ele>
        <time>2025-10-18T12:08:14Z</time>
      </trkpt>
      <trkpt lat="43.22124" lon="5.47878">
        <ele>288.6</ele>
        <time>2025-10-18T12:08:15Z</time>
      </trkpt>
      <trkpt lat="43.22124" lon="5.47878">
        <ele>288.6</ele>
        <time>2025-10-18T12:08:16Z</time>
      </trkpt>
      <trkpt lat="43.22124" lon="5.47878">
        <ele>288.6</ele>
        <time>2025-10-18T12:08:17Z</time>
      </trkpt>
      <trkpt lat="43.22124" lon="5.47878">
        <ele>288.5</ele>
        <time>2025-10-18T12:08:18Z</time>
      </trkpt>
      <trkpt lat="43.22124" lon="5.47878">
        <ele>288.5</ele>
        <time>2025-10-18T12:08:19Z</time>
      </trkpt>
      <trkpt lat="43.22124" lon="5.47878">
        <ele>288.5</ele>
        <time>2025-10-18T12:08:20Z</time>
      </trkpt>
      <trkpt lat="43.22124" lon="5.47877">
        <ele>288.5</ele>
        <time>2025-10-18T12:08:21Z</time>
      </trkpt>
      <trkpt lat="43.22124" lon="5.47877">
        <ele>288.5</ele>
        <time>2025-10-18T12:08:22Z</time>
      </trkpt>
      <trkpt lat="43.22123" lon="5.47877">
        <ele>288.5</ele>
        <time>2025-10-18T12:08:23Z</time>
      </trkpt>
      <trkpt lat="43.22123" lon="5.47877">
        <ele>288.4</ele>
        <time>2025-10-18T12:08:24Z</time>
      </trkpt>
      <trkpt lat="43.22123" lon="5.47877">
        <ele>288.4</ele>
        <time>2025-10-18T12:08:25Z</time>
      </trkpt>
      <trkpt lat="43.22123" lon="5.47877">
        <ele>288.4</ele>
        <time>2025-10-18T12:08:26Z</time>
      </trkpt>
      <trkpt lat="43.22123" lon="5.47877">
        <ele>288.4</ele>
        <time>2025-10-18T12:08:27Z</time>
      </trkpt>
      <trkpt lat="43.22123" lon="5.47877">
        <ele>288.4</ele>
        <time>2025-10-18T12:08:28Z</time>
      </trkpt>
      <trkpt lat="43.22123" lon="5.47877">
        <ele>288.4</ele>
        <time>2025-10-18T12:08:29Z</time>
      </trkpt>
      <trkpt lat="43.22123" lon="5.47877">
        <ele>288.5</ele>
        <time>2025-10-18T12:08:30Z</time>
      </trkpt>
      <trkpt lat="43.22123" lon="5.47877">
        <ele>288.6</ele>
        <time>2025-10-18T12:08:31Z</time>
      </trkpt>
      <trkpt lat="43.22123" lon="5.47877">
        <ele>288.5</ele>
        <time>2025-10-18T12:08:32Z</time>
      </trkpt>
      <trkpt lat="43.22123" lon="5.47877">
        <ele>288.5</ele>
        <time>2025-10-18T12:08:33Z</time>
      </trkpt>
      <trkpt lat="43.22123" lon="5.47877">
        <ele>288.6</ele>
        <time>2025-10-18T12:08:34Z</time>
      </trkpt>
      <trkpt lat="43.22123" lon="5.47877">
        <ele>288.6</ele>
        <time>2025-10-18T12:08:35Z</time>
      </trkpt>
      <trkpt lat="43.22123" lon="5.47877">
        <ele>288.6</ele>
        <time>2025-10-18T12:08:36Z</time>
      </trkpt>
      <trkpt lat="43.22123" lon="5.47877">
        <ele>288.6</ele>
        <time>2025-10-18T12:08:37Z</time>
      </trkpt>
      <trkpt lat="43.22123" lon="5.47877">
        <ele>288.5</ele>
        <time>2025-10-18T12:08:38Z</time>
      </trkpt>
      <trkpt lat="43.22123" lon="5.47877">
        <ele>288.5</ele>
        <time>2025-10-18T12:08:39Z</time>
      </trkpt>
      <trkpt lat="43.22123" lon="5.47877">
        <ele>288.5</ele>
        <time>2025-10-18T12:08:40Z</time>
      </trkpt>
      <trkpt lat="43.22123" lon="5.47877">
        <ele>288.4</ele>
        <time>2025-10-18T12:08:41Z</time>
      </trkpt>
      <trkpt lat="43.22123" lon="5.47877">
        <ele>288.5</ele>
        <time>2025-10-18T12:08:42Z</time>
      </trkpt>
      <trkpt lat="43.22123" lon="5.47877">
        <ele>288.5</ele>
        <time>2025-10-18T12:08:43Z</time>
      </trkpt>
      <trkpt lat="43.22123" lon="5.47877">
        <ele>288.5</ele>
        <time>2025-10-18T12:08:44Z</time>
      </trkpt>
      <trkpt lat="43.22123" lon="5.47878">
        <ele>288.6</ele>
        <time>2025-10-18T12:08:45Z</time>
      </trkpt>
      <trkpt lat="43.22123" lon="5.47878">
        <ele>288.6</ele>
        <time>2025-10-18T12:08:46Z</time>
      </trkpt>
      <trkpt lat="43.22123" lon="5.47878">
        <ele>288.5</ele>
        <time>2025-10-18T12:08:47Z</time>
      </trkpt>
      <trkpt lat="43.22123" lon="5.47878">
        <ele>288.5</ele>
        <time>2025-10-18T12:08:48Z</time>
      </trkpt>
      <trkpt lat="43.22123" lon="5.47878">
        <ele>288.5</ele>
        <time>2025-10-18T12:08:49Z</time>
      </trkpt>
      <trkpt lat="43.22123" lon="5.47878">
        <ele>288.5</ele>
        <time>2025-10-18T12:08:50Z</time>
      </trkpt>
      <trkpt lat="43.22122" lon="5.47878">
        <ele>288.6</ele>
        <time>2025-10-18T12:08:51Z</time>
      </trkpt>
      <trkpt lat="43.22122" lon="5.47878">
        <ele>288.6</ele>
        <time>2025-10-18T12:08:52Z</time>
      </trkpt>
      <trkpt lat="43.22123" lon="5.47878">
        <ele>288.6</ele>
        <time>2025-10-18T12:08:53Z</time>
      </trkpt>
      <trkpt lat="43.22122" lon="5.47878">
        <ele>288.6</ele>
        <time>2025-10-18T12:08:54Z</time>
      </trkpt>
      <trkpt lat="43.22122" lon="5.47878">
        <ele>288.6</ele>
        <time>2025-10-18T12:08:55Z</time>
      </trkpt>
      <trkpt lat="43.22122" lon="5.47878">
        <ele>288.6</ele>
        <time>2025-10-18T12:08:56Z</time>
      </trkpt>
      <trkpt lat="43.22123" lon="5.47877">
        <ele>288.6</ele>
        <time>2025-10-18T12:08:57Z</time>
      </trkpt>
      <trkpt lat="43.22122" lon="5.47876">
        <ele>288.7</ele>
        <time>2025-10-18T12:08:58Z</time>
      </trkpt>
      <trkpt lat="43.22122" lon="5.47875">
        <ele>288.7</ele>
        <time>2025-10-18T12:08:59Z</time>
      </trkpt>
      <trkpt lat="43.22122" lon="5.47873">
        <ele>288.8</ele>
        <time>2025-10-18T12:09:00Z</time>
      </trkpt>
      <trkpt lat="43.22122" lon="5.47872">
        <ele>288.8</ele>
        <time>2025-10-18T12:09:01Z</time>
      </trkpt>
      <trkpt lat="43.22122" lon="5.47871">
        <ele>288.9</ele>
        <time>2025-10-18T12:09:02Z</time>
      </trkpt>
      <trkpt lat="43.22122" lon="5.4787">
        <ele>289.2</ele>
        <time>2025-10-18T12:09:03Z</time>
      </trkpt>
      <trkpt lat="43.22121" lon="5.47869">
        <ele>289.4</ele>
        <time>2025-10-18T12:09:04Z</time>
      </trkpt>
      <trkpt lat="43.22121" lon="5.47868">
        <ele>289.5</ele>
        <time>2025-10-18T12:09:05Z</time>
      </trkpt>
      <trkpt lat="43.22121" lon="5.47867">
        <ele>289.6</ele>
        <time>2025-10-18T12:09:06Z</time>
      </trkpt>
      <trkpt lat="43.22121" lon="5.47865">
        <ele>289.7</ele>
        <time>2025-10-18T12:09:07Z</time>
      </trkpt>
      <trkpt lat="43.22121" lon="5.47863">
        <ele>289.9</ele>
        <time>2025-10-18T12:09:08Z</time>
      </trkpt>
      <trkpt lat="43.22121" lon="5.47862">
        <ele>290.1</ele>
        <time>2025-10-18T12:09:09Z</time>
      </trkpt>
      <trkpt lat="43.22121" lon="5.47861">
        <ele>290.2</ele>
        <time>2025-10-18T12:09:10Z</time>
      </trkpt>
      <trkpt lat="43.22121" lon="5.4786">
        <ele>290.3</ele>
        <time>2025-10-18T12:09:11Z</time>
      </trkpt>
      <trkpt lat="43.22121" lon="5.47859">
        <ele>290.5</ele>
        <time>2025-10-18T12:09:12Z</time>
      </trkpt>
      <trkpt lat="43.22121" lon="5.47858">
        <ele>290.6</ele>
        <time>2025-10-18T12:09:13Z</time>
      </trkpt>
      <trkpt lat="43.22122" lon="5.47858">
        <ele>290.7</ele>
        <time>2025-10-18T12:09:14Z</time>
      </trkpt>
      <trkpt lat="43.22122" lon="5.47857">
        <ele>290.9</ele>
        <time>2025-10-18T12:09:15Z</time>
      </trkpt>
      <trkpt lat="43.22122" lon="5.47856">
        <ele>291.2</ele>
        <time>2025-10-18T12:09:16Z</time>
      </trkpt>
      <trkpt lat="43.22122" lon="5.47855">
        <ele>291.4</ele>
        <time>2025-10-18T12:09:17Z</time>
      </trkpt>
      <trkpt lat="43.22122" lon="5.47854">
        <ele>291.6</ele>
        <time>2025-10-18T12:09:18Z</time>
      </trkpt>
      <trkpt lat="43.22122" lon="5.47854">
        <ele>291.8</ele>
        <time>2025-10-18T12:09:19Z</time>
      </trkpt>
      <trkpt lat="43.22121" lon="5.47853">
        <ele>291.9</ele>
        <time>2025-10-18T12:09:20Z</time>
      </trkpt>
      <trkpt lat="43.22122" lon="5.47853">
        <ele>292</ele>
        <time>2025-10-18T12:09:21Z</time>
      </trkpt>
      <trkpt lat="43.22122" lon="5.47853">
        <ele>292.1</ele>
        <time>2025-10-18T12:09:22Z</time>
      </trkpt>
      <trkpt lat="43.22122" lon="5.47853">
        <ele>292.2</ele>
        <time>2025-10-18T12:09:23Z</time>
      </trkpt>
      <trkpt lat="43.22122" lon="5.47853">
        <ele>292.3</ele>
        <time>2025-10-18T12:09:24Z</time>
      </trkpt>
      <trkpt lat="43.22122" lon="5.47853">
        <ele>292.4</ele>
        <time>2025-10-18T12:09:25Z</time>
      </trkpt>
      <trkpt lat="43.22122" lon="5.47853">
        <ele>292.5</ele>
        <time>2025-10-18T12:09:26Z</time>
      </trkpt>
      <trkpt lat="43.22122" lon="5.47853">
        <ele>292.6</ele>
        <time>2025-10-18T12:09:27Z</time>
      </trkpt>
      <trkpt lat="43.22122" lon="5.47853">
        <ele>292.6</ele>
        <time>2025-10-18T12:09:28Z</time>
      </trkpt>
      <trkpt lat="43.22122" lon="5.47853">
        <ele>292.7</ele>
        <time>2025-10-18T12:09:29Z</time>
      </trkpt>
      <trkpt lat="43.22122" lon="5.47853">
        <ele>292.7</ele>
        <time>2025-10-18T12:09:30Z</time>
      </trkpt>
      <trkpt lat="43.22122" lon="5.47853">
        <ele>292.7</ele>
        <time>2025-10-18T12:09:31Z</time>
      </trkpt>
      <trkpt lat="43.22122" lon="5.47853">
        <ele>292.7</ele>
        <time>2025-10-18T12:09:32Z</time>
      </trkpt>
      <trkpt lat="43.22121" lon="5.47853">
        <ele>292.6</ele>
        <time>2025-10-18T12:09:33Z</time>
      </trkpt>
      <trkpt lat="43.22121" lon="5.47853">
        <ele>292.6</ele>
        <time>2025-10-18T12:09:34Z</time>
      </trkpt>
      <trkpt lat="43.22121" lon="5.47853">
        <ele>292.6</ele>
        <time>2025-10-18T12:09:35Z</time>
      </trkpt>
      <trkpt lat="43.22121" lon="5.47853">
        <ele>292.6</ele>
        <time>2025-10-18T12:09:36Z</time>
      </trkpt>
      <trkpt lat="43.22121" lon="5.47853">
        <ele>292.6</ele>
        <time>2025-10-18T12:09:37Z</time>
      </trkpt>
      <trkpt lat="43.22121" lon="5.47853">
        <ele>292.7</ele>
        <time>2025-10-18T12:09:38Z</time>
      </trkpt>
      <trkpt lat="43.22121" lon="5.47853">
        <ele>292.6</ele>
        <time>2025-10-18T12:09:39Z</time>
      </trkpt>
      <trkpt lat="43.22121" lon="5.47853">
        <ele>292.6</ele>
        <time>2025-10-18T12:09:40Z</time>
      </trkpt>
      <trkpt lat="43.22121" lon="5.47853">
        <ele>292.6</ele>
        <time>2025-10-18T12:09:41Z</time>
      </trkpt>
      <trkpt lat="43.22121" lon="5.47853">
        <ele>292.6</ele>
        <time>2025-10-18T12:09:42Z</time>
      </trkpt>
      <trkpt lat="43.22121" lon="5.47853">
        <ele>292.6</ele>
        <time>2025-10-18T12:09:43Z</time>
      </trkpt>
      <trkpt lat="43.22121" lon="5.47852">
        <ele>292.7</ele>
        <time>2025-10-18T12:09:44Z</time>
      </trkpt>
      <trkpt lat="43.22122" lon="5.47852">
        <ele>292.7</ele>
        <time>2025-10-18T12:09:45Z</time>
      </trkpt>
      <trkpt lat="43.22122" lon="5.47851">
        <ele>292.7</ele>
        <time>2025-10-18T12:09:46Z</time>
      </trkpt>
      <trkpt lat="43.22122" lon="5.4785">
        <ele>292.6</ele>
        <time>2025-10-18T12:09:47Z</time>
      </trkpt>
      <trkpt lat="43.22123" lon="5.47849">
        <ele>292.5</ele>
        <time>2025-10-18T12:09:48Z</time>
      </trkpt>
      <trkpt lat="43.22124" lon="5.47848">
        <ele>292.4</ele>
        <time>2025-10-18T12:09:49Z</time>
      </trkpt>
      <trkpt lat="43.22124" lon="5.47848">
        <ele>292.2</ele>
        <time>2025-10-18T12:09:50Z</time>
      </trkpt>
      <trkpt lat="43.22125" lon="5.47847">
        <ele>292</ele>
        <time>2025-10-18T12:09:51Z</time>
      </trkpt>
      <trkpt lat="43.22125" lon="5.47846">
        <ele>291.9</ele>
        <time>2025-10-18T12:09:52Z</time>
      </trkpt>
      <trkpt lat="43.22126" lon="5.47845">
        <ele>291.8</ele>
        <time>2025-10-18T12:09:53Z</time>
      </trkpt>
      <trkpt lat="43.22126" lon="5.47844">
        <ele>291.6</ele>
        <time>2025-10-18T12:09:54Z</time>
      </trkpt>
      <trkpt lat="43.22126" lon="5.47843">
        <ele>291.5</ele>
        <time>2025-10-18T12:09:55Z</time>
      </trkpt>
      <trkpt lat="43.22127" lon="5.47842">
        <ele>291.5</ele>
        <time>2025-10-18T12:09:56Z</time>
      </trkpt>
      <trkpt lat="43.22127" lon="5.4784">
        <ele>291.3</ele>
        <time>2025-10-18T12:09:57Z</time>
      </trkpt>
      <trkpt lat="43.22127" lon="5.47839">
        <ele>291.1</ele>
        <time>2025-10-18T12:09:58Z</time>
      </trkpt>
      <trkpt lat="43.22128" lon="5.47839">
        <ele>291</ele>
        <time>2025-10-18T12:09:59Z</time>
      </trkpt>
      <trkpt lat="43.22128" lon="5.47838">
        <ele>290.9</ele>
        <time>2025-10-18T12:10:00Z</time>
      </trkpt>
      <trkpt lat="43.22129" lon="5.47838">
        <ele>290.8</ele>
        <time>2025-10-18T12:10:01Z</time>
      </trkpt>
      <trkpt lat="43.22129" lon="5.47838">
        <ele>290.6</ele>
        <time>2025-10-18T12:10:02Z</time>
      </trkpt>
      <trkpt lat="43.2213" lon="5.47837">
        <ele>290.4</ele>
        <time>2025-10-18T12:10:03Z</time>
      </trkpt>
      <trkpt lat="43.22131" lon="5.47837">
        <ele>290.2</ele>
        <time>2025-10-18T12:10:04Z</time>
      </trkpt>
      <trkpt lat="43.22131" lon="5.47836">
        <ele>290</ele>
        <time>2025-10-18T12:10:05Z</time>
      </trkpt>
      <trkpt lat="43.22132" lon="5.47836">
        <ele>289.8</ele>
        <time>2025-10-18T12:10:06Z</time>
      </trkpt>
      <trkpt lat="43.22133" lon="5.47835">
        <ele>289.6</ele>
        <time>2025-10-18T12:10:07Z</time>
      </trkpt>
      <trkpt lat="43.22133" lon="5.47835">
        <ele>289.4</ele>
        <time>2025-10-18T12:10:08Z</time>
      </trkpt>
      <trkpt lat="43.22134" lon="5.47834">
        <ele>289.3</ele>
        <time>2025-10-18T12:10:09Z</time>
      </trkpt>
      <trkpt lat="43.22135" lon="5.47834">
        <ele>289.3</ele>
        <time>2025-10-18T12:10:10Z</time>
      </trkpt>
      <trkpt lat="43.22135" lon="5.47833">
        <ele>289.3</ele>
        <time>2025-10-18T12:10:11Z</time>
      </trkpt>
      <trkpt lat="43.22136" lon="5.47833">
        <ele>289.4</ele>
        <time>2025-10-18T12:10:12Z</time>
      </trkpt>
      <trkpt lat="43.22137" lon="5.47832">
        <ele>289.5</ele>
        <time>2025-10-18T12:10:13Z</time>
      </trkpt>
      <trkpt lat="43.22138" lon="5.47832">
        <ele>289.7</ele>
        <time>2025-10-18T12:10:14Z</time>
      </trkpt>
      <trkpt lat="43.22138" lon="5.47832">
        <ele>289.9</ele>
        <time>2025-10-18T12:10:15Z</time>
      </trkpt>
      <trkpt lat="43.22139" lon="5.47832">
        <ele>289.9</ele>
        <time>2025-10-18T12:10:16Z</time>
      </trkpt>
      <trkpt lat="43.2214" lon="5.47833">
        <ele>289.9</ele>
        <time>2025-10-18T12:10:17Z</time>
      </trkpt>
      <trkpt lat="43.22141" lon="5.47833">
        <ele>289.8</ele>
        <time>2025-10-18T12:10:18Z</time>
      </trkpt>
      <trkpt lat="43.22142" lon="5.47833">
        <ele>289.8</ele>
        <time>2025-10-18T12:10:19Z</time>
      </trkpt>
      <trkpt lat="43.22143" lon="5.47833">
        <ele>289.8</ele>
        <time>2025-10-18T12:10:20Z</time>
      </trkpt>
      <trkpt lat="43.22144" lon="5.47833">
        <ele>289.9</ele>
        <time>2025-10-18T12:10:21Z</time>
      </trkpt>
      <trkpt lat="43.22144" lon="5.47833">
        <ele>290.1</ele>
        <time>2025-10-18T12:10:22Z</time>
      </trkpt>
      <trkpt lat="43.22145" lon="5.47833">
        <ele>290.2</ele>
        <time>2025-10-18T12:10:23Z</time>
      </trkpt>
      <trkpt lat="43.22146" lon="5.47833">
        <ele>290.2</ele>
        <time>2025-10-18T12:10:24Z</time>
      </trkpt>
      <trkpt lat="43.22146" lon="5.47833">
        <ele>290.4</ele>
        <time>2025-10-18T12:10:25Z</time>
      </trkpt>
      <trkpt lat="43.22147" lon="5.47833">
        <ele>290.5</ele>
        <time>2025-10-18T12:10:26Z</time>
      </trkpt>
      <trkpt lat="43.22147" lon="5.47833">
        <ele>290.6</ele>
        <time>2025-10-18T12:10:27Z</time>
      </trkpt>
      <trkpt lat="43.22148" lon="5.47834">
        <ele>290.7</ele>
        <time>2025-10-18T12:10:28Z</time>
      </trkpt>
      <trkpt lat="43.22149" lon="5.47834">
        <ele>290.8</ele>
        <time>2025-10-18T12:10:29Z</time>
      </trkpt>
      <trkpt lat="43.22149" lon="5.47833">
        <ele>290.8</ele>
        <time>2025-10-18T12:10:30Z</time>
      </trkpt>
      <trkpt lat="43.2215" lon="5.47832">
        <ele>290.8</ele>
        <time>2025-10-18T12:10:31Z</time>
      </trkpt>
      <trkpt lat="43.2215" lon="5.47832">
        <ele>291</ele>
        <time>2025-10-18T12:10:32Z</time>
      </trkpt>
      <trkpt lat="43.2215" lon="5.47832">
        <ele>291.1</ele>
        <time>2025-10-18T12:10:33Z</time>
      </trkpt>
      <trkpt lat="43.22151" lon="5.47832">
        <ele>291.2</ele>
        <time>2025-10-18T12:10:34Z</time>
      </trkpt>
      <trkpt lat="43.2215" lon="5.47832">
        <ele>291.2</ele>
        <time>2025-10-18T12:10:35Z</time>
      </trkpt>
      <trkpt lat="43.2215" lon="5.47831">
        <ele>291.2</ele>
        <time>2025-10-18T12:10:36Z</time>
      </trkpt>
      <trkpt lat="43.2215" lon="5.47831">
        <ele>291.3</ele>
        <time>2025-10-18T12:10:37Z</time>
      </trkpt>
      <trkpt lat="43.2215" lon="5.4783">
        <ele>291.4</ele>
        <time>2025-10-18T12:10:38Z</time>
      </trkpt>
      <trkpt lat="43.22151" lon="5.47829">
        <ele>291.6</ele>
        <time>2025-10-18T12:10:39Z</time>
      </trkpt>
      <trkpt lat="43.22151" lon="5.47828">
        <ele>291.7</ele>
        <time>2025-10-18T12:10:40Z</time>
      </trkpt>
      <trkpt lat="43.22151" lon="5.47828">
        <ele>291.9</ele>
        <time>2025-10-18T12:10:41Z</time>
      </trkpt>
      <trkpt lat="43.22151" lon="5.47827">
        <ele>292.1</ele>
        <time>2025-10-18T12:10:42Z</time>
      </trkpt>
      <trkpt lat="43.22152" lon="5.47827">
        <ele>292.2</ele>
        <time>2025-10-18T12:10:43Z</time>
      </trkpt>
      <trkpt lat="43.22152" lon="5.47827">
        <ele>292.3</ele>
        <time>2025-10-18T12:10:44Z</time>
      </trkpt>
      <trkpt lat="43.22152" lon="5.47827">
        <ele>292.4</ele>
        <time>2025-10-18T12:10:45Z</time>
      </trkpt>
      <trkpt lat="43.22151" lon="5.47827">
        <ele>292.4</ele>
        <time>2025-10-18T12:10:46Z</time>
      </trkpt>
      <trkpt lat="43.22151" lon="5.47827">
        <ele>292.5</ele>
        <time>2025-10-18T12:10:47Z</time>
      </trkpt>
      <trkpt lat="43.22151" lon="5.47827">
        <ele>292.6</ele>
        <time>2025-10-18T12:10:48Z</time>
      </trkpt>
      <trkpt lat="43.2215" lon="5.47827">
        <ele>292.6</ele>
        <time>2025-10-18T12:10:49Z</time>
      </trkpt>
      <trkpt lat="43.2215" lon="5.47827">
        <ele>292.6</ele>
        <time>2025-10-18T12:10:50Z</time>
      </trkpt>
      <trkpt lat="43.2215" lon="5.47827">
        <ele>292.6</ele>
        <time>2025-10-18T12:10:51Z</time>
      </trkpt>
      <trkpt lat="43.2215" lon="5.47828">
        <ele>292.5</ele>
        <time>2025-10-18T12:10:52Z</time>
      </trkpt>
      <trkpt lat="43.2215" lon="5.47829">
        <ele>292.3</ele>
        <time>2025-10-18T12:10:53Z</time>
      </trkpt>
      <trkpt lat="43.2215" lon="5.47829">
        <ele>292.2</ele>
        <time>2025-10-18T12:10:54Z</time>
      </trkpt>
      <trkpt lat="43.22151" lon="5.47829">
        <ele>292.1</ele>
        <time>2025-10-18T12:10:55Z</time>
      </trkpt>
      <trkpt lat="43.22151" lon="5.4783">
        <ele>291.9</ele>
        <time>2025-10-18T12:10:56Z</time>
      </trkpt>
      <trkpt lat="43.2215" lon="5.4783">
        <ele>291.8</ele>
        <time>2025-10-18T12:10:57Z</time>
      </trkpt>
      <trkpt lat="43.2215" lon="5.4783">
        <ele>291.6</ele>
        <time>2025-10-18T12:10:58Z</time>
      </trkpt>
      <trkpt lat="43.2215" lon="5.4783">
        <ele>291.6</ele>
        <time>2025-10-18T12:10:59Z</time>
      </trkpt>
      <trkpt lat="43.2215" lon="5.4783">
        <ele>291.5</ele>
        <time>2025-10-18T12:11:00Z</time>
      </trkpt>
      <trkpt lat="43.2215" lon="5.4783">
        <ele>291.3</ele>
        <time>2025-10-18T12:11:01Z</time>
      </trkpt>
      <trkpt lat="43.2215" lon="5.4783">
        <ele>291.3</ele>
        <time>2025-10-18T12:11:02Z</time>
      </trkpt>
      <trkpt lat="43.2215" lon="5.4783">
        <ele>291.1</ele>
        <time>2025-10-18T12:11:03Z</time>
      </trkpt>
      <trkpt lat="43.22151" lon="5.4783">
        <ele>291</ele>
        <time>2025-10-18T12:11:04Z</time>
      </trkpt>
      <trkpt lat="43.22151" lon="5.4783">
        <ele>291</ele>
        <time>2025-10-18T12:11:05Z</time>
      </trkpt>
      <trkpt lat="43.22151" lon="5.47829">
        <ele>291</ele>
        <time>2025-10-18T12:11:06Z</time>
      </trkpt>
      <trkpt lat="43.22151" lon="5.47829">
        <ele>291</ele>
        <time>2025-10-18T12:11:07Z</time>
      </trkpt>
      <trkpt lat="43.22151" lon="5.47829">
        <ele>291</ele>
        <time>2025-10-18T12:11:08Z</time>
      </trkpt>
      <trkpt lat="43.22151" lon="5.47829">
        <ele>291</ele>
        <time>2025-10-18T12:11:09Z</time>
      </trkpt>
      <trkpt lat="43.22151" lon="5.47829">
        <ele>291</ele>
        <time>2025-10-18T12:11:10Z</time>
      </trkpt>
      <trkpt lat="43.22151" lon="5.47828">
        <ele>291.1</ele>
        <time>2025-10-18T12:11:11Z</time>
      </trkpt>
      <trkpt lat="43.2215" lon="5.47828">
        <ele>291.2</ele>
        <time>2025-10-18T12:11:12Z</time>
      </trkpt>
      <trkpt lat="43.2215" lon="5.47828">
        <ele>291.2</ele>
        <time>2025-10-18T12:11:13Z</time>
      </trkpt>
      <trkpt lat="43.2215" lon="5.47827">
        <ele>291.2</ele>
        <time>2025-10-18T12:11:14Z</time>
      </trkpt>
      <trkpt lat="43.2215" lon="5.47827">
        <ele>291.3</ele>
        <time>2025-10-18T12:11:15Z</time>
      </trkpt>
      <trkpt lat="43.2215" lon="5.47827">
        <ele>291.3</ele>
        <time>2025-10-18T12:11:16Z</time>
      </trkpt>
      <trkpt lat="43.2215" lon="5.47827">
        <ele>291.4</ele>
        <time>2025-10-18T12:11:17Z</time>
      </trkpt>
      <trkpt lat="43.2215" lon="5.47826">
        <ele>291.4</ele>
        <time>2025-10-18T12:11:18Z</time>
      </trkpt>
      <trkpt lat="43.2215" lon="5.47826">
        <ele>291.5</ele>
        <time>2025-10-18T12:11:19Z</time>
      </trkpt>
      <trkpt lat="43.2215" lon="5.47826">
        <ele>291.5</ele>
        <time>2025-10-18T12:11:20Z</time>
      </trkpt>
      <trkpt lat="43.2215" lon="5.47826">
        <ele>291.6</ele>
        <time>2025-10-18T12:11:21Z</time>
      </trkpt>
      <trkpt lat="43.2215" lon="5.47826">
        <ele>291.6</ele>
        <time>2025-10-18T12:11:22Z</time>
      </trkpt>
      <trkpt lat="43.2215" lon="5.47826">
        <ele>291.6</ele>
        <time>2025-10-18T12:11:23Z</time>
      </trkpt>
      <trkpt lat="43.2215" lon="5.47825">
        <ele>291.7</ele>
        <time>2025-10-18T12:11:24Z</time>
      </trkpt>
      <trkpt lat="43.2215" lon="5.47825">
        <ele>291.7</ele>
        <time>2025-10-18T12:11:25Z</time>
      </trkpt>
      <trkpt lat="43.2215" lon="5.47825">
        <ele>291.7</ele>
        <time>2025-10-18T12:11:26Z</time>
      </trkpt>
      <trkpt lat="43.2215" lon="5.47825">
        <ele>291.7</ele>
        <time>2025-10-18T12:11:27Z</time>
      </trkpt>
      <trkpt lat="43.2215" lon="5.47824">
        <ele>291.7</ele>
        <time>2025-10-18T12:11:28Z</time>
      </trkpt>
      <trkpt lat="43.2215" lon="5.47824">
        <ele>291.7</ele>
        <time>2025-10-18T12:11:29Z</time>
      </trkpt>
      <trkpt lat="43.2215" lon="5.47824">
        <ele>291.6</ele>
        <time>2025-10-18T12:11:30Z</time>
      </trkpt>
      <trkpt lat="43.2215" lon="5.47824">
        <ele>291.6</ele>
        <time>2025-10-18T12:11:31Z</time>
      </trkpt>
      <trkpt lat="43.2215" lon="5.47824">
        <ele>291.6</ele>
        <time>2025-10-18T12:11:32Z</time>
      </trkpt>
      <trkpt lat="43.2215" lon="5.47823">
        <ele>291.6</ele>
        <time>2025-10-18T12:11:33Z</time>
      </trkpt>
      <trkpt lat="43.2215" lon="5.47823">
        <ele>291.6</ele>
        <time>2025-10-18T12:11:34Z</time>
      </trkpt>
      <trkpt lat="43.2215" lon="5.47823">
        <ele>291.6</ele>
        <time>2025-10-18T12:11:35Z</time>
      </trkpt>
      <trkpt lat="43.2215" lon="5.47823">
        <ele>291.7</ele>
        <time>2025-10-18T12:11:36Z</time>
      </trkpt>
      <trkpt lat="43.2215" lon="5.47823">
        <ele>291.7</ele>
        <time>2025-10-18T12:11:37Z</time>
      </trkpt>
      <trkpt lat="43.2215" lon="5.47823">
        <ele>291.6</ele>
        <time>2025-10-18T12:11:38Z</time>
      </trkpt>
      <trkpt lat="43.2215" lon="5.47823">
        <ele>291.6</ele>
        <time>2025-10-18T12:11:39Z</time>
      </trkpt>
      <trkpt lat="43.2215" lon="5.47823">
        <ele>291.6</ele>
        <time>2025-10-18T12:11:40Z</time>
      </trkpt>
      <trkpt lat="43.2215" lon="5.47823">
        <ele>291.6</ele>
        <time>2025-10-18T12:11:41Z</time>
      </trkpt>
      <trkpt lat="43.2215" lon="5.47823">
        <ele>291.6</ele>
        <time>2025-10-18T12:11:42Z</time>
      </trkpt>
      <trkpt lat="43.2215" lon="5.47823">
        <ele>291.6</ele>
        <time>2025-10-18T12:11:43Z</time>
      </trkpt>
      <trkpt lat="43.2215" lon="5.47822">
        <ele>291.7</ele>
        <time>2025-10-18T12:11:44Z</time>
      </trkpt>
      <trkpt lat="43.2215" lon="5.47822">
        <ele>291.8</ele>
        <time>2025-10-18T12:11:45Z</time>
      </trkpt>
      <trkpt lat="43.2215" lon="5.47822">
        <ele>291.8</ele>
        <time>2025-10-18T12:11:46Z</time>
      </trkpt>
      <trkpt lat="43.2215" lon="5.47822">
        <ele>291.9</ele>
        <time>2025-10-18T12:11:47Z</time>
      </trkpt>
      <trkpt lat="43.2215" lon="5.47822">
        <ele>291.8</ele>
        <time>2025-10-18T12:11:48Z</time>
      </trkpt>
      <trkpt lat="43.2215" lon="5.47822">
        <ele>291.8</ele>
        <time>2025-10-18T12:11:49Z</time>
      </trkpt>
      <trkpt lat="43.2215" lon="5.47822">
        <ele>291.8</ele>
        <time>2025-10-18T12:11:50Z</time>
      </trkpt>
      <trkpt lat="43.2215" lon="5.47822">
        <ele>291.9</ele>
        <time>2025-10-18T12:11:51Z</time>
      </trkpt>
      <trkpt lat="43.2215" lon="5.47822">
        <ele>291.9</ele>
        <time>2025-10-18T12:11:52Z</time>
      </trkpt>
      <trkpt lat="43.2215" lon="5.47822">
        <ele>292</ele>
        <time>2025-10-18T12:11:53Z</time>
      </trkpt>
      <trkpt lat="43.2215" lon="5.47822">
        <ele>292</ele>
        <time>2025-10-18T12:11:54Z</time>
      </trkpt>
      <trkpt lat="43.22151" lon="5.47822">
        <ele>292</ele>
        <time>2025-10-18T12:11:55Z</time>
      </trkpt>
      <trkpt lat="43.22151" lon="5.47821">
        <ele>292</ele>
        <time>2025-10-18T12:11:56Z</time>
      </trkpt>
      <trkpt lat="43.22151" lon="5.47821">
        <ele>292</ele>
        <time>2025-10-18T12:11:57Z</time>
      </trkpt>
      <trkpt lat="43.22151" lon="5.47821">
        <ele>292</ele>
        <time>2025-10-18T12:11:58Z</time>
      </trkpt>
      <trkpt lat="43.22151" lon="5.47821">
        <ele>291.9</ele>
        <time>2025-10-18T12:11:59Z</time>
      </trkpt>
      <trkpt lat="43.22151" lon="5.47821">
        <ele>291.9</ele>
        <time>2025-10-18T12:12:00Z</time>
      </trkpt>
      <trkpt lat="43.2215" lon="5.47821">
        <ele>291.8</ele>
        <time>2025-10-18T12:12:01Z</time>
      </trkpt>
      <trkpt lat="43.2215" lon="5.47821">
        <ele>291.8</ele>
        <time>2025-10-18T12:12:02Z</time>
      </trkpt>
      <trkpt lat="43.2215" lon="5.4782">
        <ele>291.8</ele>
        <time>2025-10-18T12:12:03Z</time>
      </trkpt>
      <trkpt lat="43.2215" lon="5.4782">
        <ele>291.9</ele>
        <time>2025-10-18T12:12:04Z</time>
      </trkpt>
      <trkpt lat="43.2215" lon="5.4782">
        <ele>291.9</ele>
        <time>2025-10-18T12:12:05Z</time>
      </trkpt>
      <trkpt lat="43.2215" lon="5.4782">
        <ele>291.9</ele>
        <time>2025-10-18T12:12:06Z</time>
      </trkpt>
      <trkpt lat="43.2215" lon="5.4782">
        <ele>291.9</ele>
        <time>2025-10-18T12:12:07Z</time>
      </trkpt>
      <trkpt lat="43.2215" lon="5.47819">
        <ele>291.9</ele>
        <time>2025-10-18T12:12:08Z</time>
      </trkpt>
      <trkpt lat="43.2215" lon="5.47819">
        <ele>291.9</ele>
        <time>2025-10-18T12:12:09Z</time>
      </trkpt>
      <trkpt lat="43.2215" lon="5.47819">
        <ele>291.9</ele>
        <time>2025-10-18T12:12:10Z</time>
      </trkpt>
      <trkpt lat="43.2215" lon="5.47819">
        <ele>291.9</ele>
        <time>2025-10-18T12:12:11Z</time>
      </trkpt>
      <trkpt lat="43.2215" lon="5.47819">
        <ele>291.9</ele>
        <time>2025-10-18T12:12:12Z</time>
      </trkpt>
      <trkpt lat="43.2215" lon="5.47819">
        <ele>291.9</ele>
        <time>2025-10-18T12:12:13Z</time>
      </trkpt>
      <trkpt lat="43.2215" lon="5.47819">
        <ele>291.9</ele>
        <time>2025-10-18T12:12:14Z</time>
      </trkpt>
      <trkpt lat="43.2215" lon="5.47819">
        <ele>291.8</ele>
        <time>2025-10-18T12:12:15Z</time>
      </trkpt>
      <trkpt lat="43.2215" lon="5.47819">
        <ele>291.8</ele>
        <time>2025-10-18T12:12:16Z</time>
      </trkpt>
      <trkpt lat="43.2215" lon="5.47819">
        <ele>291.7</ele>
        <time>2025-10-18T12:12:17Z</time>
      </trkpt>
      <trkpt lat="43.2215" lon="5.47819">
        <ele>291.7</ele>
        <time>2025-10-18T12:12:18Z</time>
      </trkpt>
      <trkpt lat="43.2215" lon="5.47819">
        <ele>291.6</ele>
        <time>2025-10-18T12:12:19Z</time>
      </trkpt>
      <trkpt lat="43.2215" lon="5.47819">
        <ele>291.6</ele>
        <time>2025-10-18T12:12:20Z</time>
      </trkpt>
      <trkpt lat="43.2215" lon="5.47818">
        <ele>291.6</ele>
        <time>2025-10-18T12:12:21Z</time>
      </trkpt>
      <trkpt lat="43.2215" lon="5.47818">
        <ele>291.6</ele>
        <time>2025-10-18T12:12:22Z</time>
      </trkpt>
      <trkpt lat="43.2215" lon="5.47818">
        <ele>291.7</ele>
        <time>2025-10-18T12:12:23Z</time>
      </trkpt>
      <trkpt lat="43.2215" lon="5.47818">
        <ele>291.7</ele>
        <time>2025-10-18T12:12:24Z</time>
      </trkpt>
      <trkpt lat="43.2215" lon="5.47818">
        <ele>291.8</ele>
        <time>2025-10-18T12:12:25Z</time>
      </trkpt>
      <trkpt lat="43.2215" lon="5.47818">
        <ele>291.8</ele>
        <time>2025-10-18T12:12:26Z</time>
      </trkpt>
      <trkpt lat="43.2215" lon="5.47818">
        <ele>291.8</ele>
        <time>2025-10-18T12:12:27Z</time>
      </trkpt>
      <trkpt lat="43.2215" lon="5.47818">
        <ele>291.8</ele>
        <time>2025-10-18T12:12:28Z</time>
      </trkpt>
      <trkpt lat="43.2215" lon="5.47818">
        <ele>291.9</ele>
        <time>2025-10-18T12:12:29Z</time>
      </trkpt>
      <trkpt lat="43.2215" lon="5.47818">
        <ele>291.9</ele>
        <time>2025-10-18T12:12:30Z</time>
      </trkpt>
      <trkpt lat="43.2215" lon="5.47818">
        <ele>291.9</ele>
        <time>2025-10-18T12:12:31Z</time>
      </trkpt>
      <trkpt lat="43.2215" lon="5.47818">
        <ele>291.9</ele>
        <time>2025-10-18T12:12:32Z</time>
      </trkpt>
      <trkpt lat="43.2215" lon="5.47818">
        <ele>291.9</ele>
        <time>2025-10-18T12:12:33Z</time>
      </trkpt>
      <trkpt lat="43.22149" lon="5.47817">
        <ele>291.9</ele>
        <time>2025-10-18T12:12:34Z</time>
      </trkpt>
      <trkpt lat="43.22149" lon="5.47817">
        <ele>291.9</ele>
        <time>2025-10-18T12:12:35Z</time>
      </trkpt>
      <trkpt lat="43.22149" lon="5.47817">
        <ele>291.9</ele>
        <time>2025-10-18T12:12:36Z</time>
      </trkpt>
      <trkpt lat="43.22149" lon="5.47817">
        <ele>292</ele>
        <time>2025-10-18T12:12:37Z</time>
      </trkpt>
      <trkpt lat="43.22149" lon="5.47817">
        <ele>292</ele>
        <time>2025-10-18T12:12:38Z</time>
      </trkpt>
      <trkpt lat="43.22148" lon="5.47817">
        <ele>292</ele>
        <time>2025-10-18T12:12:39Z</time>
      </trkpt>
      <trkpt lat="43.22148" lon="5.47817">
        <ele>292</ele>
        <time>2025-10-18T12:12:40Z</time>
      </trkpt>
      <trkpt lat="43.22148" lon="5.47816">
        <ele>292.1</ele>
        <time>2025-10-18T12:12:41Z</time>
      </trkpt>
      <trkpt lat="43.22148" lon="5.47816">
        <ele>292</ele>
        <time>2025-10-18T12:12:42Z</time>
      </trkpt>
      <trkpt lat="43.22148" lon="5.47816">
        <ele>292</ele>
        <time>2025-10-18T12:12:43Z</time>
      </trkpt>
      <trkpt lat="43.22148" lon="5.47816">
        <ele>292</ele>
        <time>2025-10-18T12:12:44Z</time>
      </trkpt>
      <trkpt lat="43.22148" lon="5.47816">
        <ele>292</ele>
        <time>2025-10-18T12:12:45Z</time>
      </trkpt>
      <trkpt lat="43.22148" lon="5.47816">
        <ele>292</ele>
        <time>2025-10-18T12:12:46Z</time>
      </trkpt>
      <trkpt lat="43.22148" lon="5.47816">
        <ele>291.9</ele>
        <time>2025-10-18T12:12:47Z</time>
      </trkpt>
      <trkpt lat="43.22148" lon="5.47816">
        <ele>291.9</ele>
        <time>2025-10-18T12:12:48Z</time>
      </trkpt>
      <trkpt lat="43.22148" lon="5.47816">
        <ele>291.9</ele>
        <time>2025-10-18T12:12:49Z</time>
      </trkpt>
      <trkpt lat="43.22147" lon="5.47816">
        <ele>291.8</ele>
        <time>2025-10-18T12:12:50Z</time>
      </trkpt>
      <trkpt lat="43.22147" lon="5.47815">
        <ele>291.8</ele>
        <time>2025-10-18T12:12:51Z</time>
      </trkpt>
      <trkpt lat="43.22147" lon="5.47815">
        <ele>291.8</ele>
        <time>2025-10-18T12:12:52Z</time>
      </trkpt>
      <trkpt lat="43.22147" lon="5.47815">
        <ele>291.8</ele>
        <time>2025-10-18T12:12:53Z</time>
      </trkpt>
      <trkpt lat="43.22147" lon="5.47815">
        <ele>291.9</ele>
        <time>2025-10-18T12:12:54Z</time>
      </trkpt>
      <trkpt lat="43.22147" lon="5.47815">
        <ele>291.9</ele>
        <time>2025-10-18T12:12:55Z</time>
      </trkpt>
      <trkpt lat="43.22147" lon="5.47815">
        <ele>291.9</ele>
        <time>2025-10-18T12:12:56Z</time>
      </trkpt>
      <trkpt lat="43.22147" lon="5.47815">
        <ele>291.9</ele>
        <time>2025-10-18T12:12:57Z</time>
      </trkpt>
      <trkpt lat="43.22147" lon="5.47815">
        <ele>292</ele>
        <time>2025-10-18T12:12:58Z</time>
      </trkpt>
      <trkpt lat="43.22147" lon="5.47815">
        <ele>292</ele>
        <time>2025-10-18T12:12:59Z</time>
      </trkpt>
      <trkpt lat="43.22147" lon="5.47815">
        <ele>292</ele>
        <time>2025-10-18T12:13:00Z</time>
      </trkpt>
      <trkpt lat="43.22147" lon="5.47815">
        <ele>292</ele>
        <time>2025-10-18T12:13:01Z</time>
      </trkpt>
      <trkpt lat="43.22147" lon="5.47815">
        <ele>292</ele>
        <time>2025-10-18T12:13:02Z</time>
      </trkpt>
      <trkpt lat="43.22147" lon="5.47815">
        <ele>292</ele>
        <time>2025-10-18T12:13:03Z</time>
      </trkpt>
      <trkpt lat="43.22147" lon="5.47815">
        <ele>292.1</ele>
        <time>2025-10-18T12:13:04Z</time>
      </trkpt>
      <trkpt lat="43.22147" lon="5.47815">
        <ele>292.1</ele>
        <time>2025-10-18T12:13:05Z</time>
      </trkpt>
      <trkpt lat="43.22147" lon="5.47815">
        <ele>292.1</ele>
        <time>2025-10-18T12:13:06Z</time>
      </trkpt>
      <trkpt lat="43.22146" lon="5.47815">
        <ele>292.1</ele>
        <time>2025-10-18T12:13:07Z</time>
      </trkpt>
      <trkpt lat="43.22147" lon="5.47815">
        <ele>292.1</ele>
        <time>2025-10-18T12:13:08Z</time>
      </trkpt>
      <trkpt lat="43.22147" lon="5.47814">
        <ele>292.1</ele>
        <time>2025-10-18T12:13:09Z</time>
      </trkpt>
      <trkpt lat="43.22146" lon="5.47814">
        <ele>292</ele>
        <time>2025-10-18T12:13:10Z</time>
      </trkpt>
      <trkpt lat="43.22146" lon="5.47814">
        <ele>292</ele>
        <time>2025-10-18T12:13:11Z</time>
      </trkpt>
      <trkpt lat="43.22146" lon="5.47814">
        <ele>292</ele>
        <time>2025-10-18T12:13:12Z</time>
      </trkpt>
      <trkpt lat="43.22146" lon="5.47814">
        <ele>292</ele>
        <time>2025-10-18T12:13:13Z</time>
      </trkpt>
      <trkpt lat="43.22146" lon="5.47814">
        <ele>292</ele>
        <time>2025-10-18T12:13:14Z</time>
      </trkpt>
      <trkpt lat="43.22146" lon="5.47814">
        <ele>292.1</ele>
        <time>2025-10-18T12:13:15Z</time>
      </trkpt>
      <trkpt lat="43.22146" lon="5.47814">
        <ele>292.2</ele>
        <time>2025-10-18T12:13:16Z</time>
      </trkpt>
      <trkpt lat="43.22146" lon="5.47814">
        <ele>292.2</ele>
        <time>2025-10-18T12:13:17Z</time>
      </trkpt>
      <trkpt lat="43.22146" lon="5.47814">
        <ele>292.2</ele>
        <time>2025-10-18T12:13:18Z</time>
      </trkpt>
      <trkpt lat="43.22146" lon="5.47814">
        <ele>292.2</ele>
        <time>2025-10-18T12:13:19Z</time>
      </trkpt>
      <trkpt lat="43.22146" lon="5.47814">
        <ele>292.2</ele>
        <time>2025-10-18T12:13:20Z</time>
      </trkpt>
      <trkpt lat="43.22146" lon="5.47814">
        <ele>292.2</ele>
        <time>2025-10-18T12:13:21Z</time>
      </trkpt>
      <trkpt lat="43.22146" lon="5.47814">
        <ele>292.2</ele>
        <time>2025-10-18T12:13:22Z</time>
      </trkpt>
      <trkpt lat="43.22147" lon="5.47814">
        <ele>292.2</ele>
        <time>2025-10-18T12:13:23Z</time>
      </trkpt>
      <trkpt lat="43.22147" lon="5.47814">
        <ele>292.2</ele>
        <time>2025-10-18T12:13:24Z</time>
      </trkpt>
      <trkpt lat="43.22147" lon="5.47814">
        <ele>292.2</ele>
        <time>2025-10-18T12:13:25Z</time>
      </trkpt>
      <trkpt lat="43.22147" lon="5.47814">
        <ele>292.2</ele>
        <time>2025-10-18T12:13:26Z</time>
      </trkpt>
      <trkpt lat="43.22147" lon="5.47814">
        <ele>292.2</ele>
        <time>2025-10-18T12:13:27Z</time>
      </trkpt>
      <trkpt lat="43.22146" lon="5.47814">
        <ele>292.3</ele>
        <time>2025-10-18T12:13:28Z</time>
      </trkpt>
      <trkpt lat="43.22146" lon="5.47814">
        <ele>292.3</ele>
        <time>2025-10-18T12:13:29Z</time>
      </trkpt>
      <trkpt lat="43.22147" lon="5.47815">
        <ele>292.3</ele>
        <time>2025-10-18T12:13:30Z</time>
      </trkpt>
      <trkpt lat="43.22147" lon="5.47815">
        <ele>292.4</ele>
        <time>2025-10-18T12:13:31Z</time>
      </trkpt>
      <trkpt lat="43.22148" lon="5.47816">
        <ele>292.4</ele>
        <time>2025-10-18T12:13:32Z</time>
      </trkpt>
      <trkpt lat="43.22149" lon="5.47816">
        <ele>292.4</ele>
        <time>2025-10-18T12:13:33Z</time>
      </trkpt>
      <trkpt lat="43.22149" lon="5.47817">
        <ele>292.3</ele>
        <time>2025-10-18T12:13:34Z</time>
      </trkpt>
      <trkpt lat="43.2215" lon="5.47817">
        <ele>292.2</ele>
        <time>2025-10-18T12:13:35Z</time>
      </trkpt>
      <trkpt lat="43.2215" lon="5.47818">
        <ele>292</ele>
        <time>2025-10-18T12:13:36Z</time>
      </trkpt>
      <trkpt lat="43.22151" lon="5.47819">
        <ele>291.8</ele>
        <time>2025-10-18T12:13:37Z</time>
      </trkpt>
      <trkpt lat="43.22152" lon="5.4782">
        <ele>291.8</ele>
        <time>2025-10-18T12:13:38Z</time>
      </trkpt>
      <trkpt lat="43.22152" lon="5.4782">
        <ele>291.5</ele>
        <time>2025-10-18T12:13:39Z</time>
      </trkpt>
      <trkpt lat="43.22153" lon="5.4782">
        <ele>291.3</ele>
        <time>2025-10-18T12:13:40Z</time>
      </trkpt>
      <trkpt lat="43.22153" lon="5.47821">
        <ele>291.3</ele>
        <time>2025-10-18T12:13:41Z</time>
      </trkpt>
      <trkpt lat="43.22154" lon="5.47821">
        <ele>291.4</ele>
        <time>2025-10-18T12:13:42Z</time>
      </trkpt>
      <trkpt lat="43.22154" lon="5.47822">
        <ele>291.1</ele>
        <time>2025-10-18T12:13:43Z</time>
      </trkpt>
      <trkpt lat="43.22154" lon="5.47823">
        <ele>290.8</ele>
        <time>2025-10-18T12:13:44Z</time>
      </trkpt>
      <trkpt lat="43.22154" lon="5.47824">
        <ele>290.6</ele>
        <time>2025-10-18T12:13:45Z</time>
      </trkpt>
      <trkpt lat="43.22155" lon="5.47824">
        <ele>290.4</ele>
        <time>2025-10-18T12:13:46Z</time>
      </trkpt>
      <trkpt lat="43.22156" lon="5.47825">
        <ele>290.1</ele>
        <time>2025-10-18T12:13:47Z</time>
      </trkpt>
      <trkpt lat="43.22156" lon="5.47825">
        <ele>289.8</ele>
        <time>2025-10-18T12:13:48Z</time>
      </trkpt>
      <trkpt lat="43.22157" lon="5.47826">
        <ele>289.6</ele>
        <time>2025-10-18T12:13:49Z</time>
      </trkpt>
      <trkpt lat="43.22157" lon="5.47827">
        <ele>289.4</ele>
        <time>2025-10-18T12:13:50Z</time>
      </trkpt>
      <trkpt lat="43.22157" lon="5.47827">
        <ele>289.2</ele>
        <time>2025-10-18T12:13:51Z</time>
      </trkpt>
      <trkpt lat="43.22158" lon="5.47828">
        <ele>288.9</ele>
        <time>2025-10-18T12:13:52Z</time>
      </trkpt>
      <trkpt lat="43.22159" lon="5.47829">
        <ele>288.7</ele>
        <time>2025-10-18T12:13:53Z</time>
      </trkpt>
      <trkpt lat="43.2216" lon="5.4783">
        <ele>288.5</ele>
        <time>2025-10-18T12:13:54Z</time>
      </trkpt>
      <trkpt lat="43.2216" lon="5.4783">
        <ele>288.3</ele>
        <time>2025-10-18T12:13:55Z</time>
      </trkpt>
      <trkpt lat="43.22161" lon="5.47831">
        <ele>288.2</ele>
        <time>2025-10-18T12:13:56Z</time>
      </trkpt>
      <trkpt lat="43.22162" lon="5.47831">
        <ele>288</ele>
        <time>2025-10-18T12:13:57Z</time>
      </trkpt>
      <trkpt lat="43.22162" lon="5.47832">
        <ele>287.9</ele>
        <time>2025-10-18T12:13:58Z</time>
      </trkpt>
      <trkpt lat="43.22163" lon="5.47833">
        <ele>287.8</ele>
        <time>2025-10-18T12:13:59Z</time>
      </trkpt>
      <trkpt lat="43.22164" lon="5.47834">
        <ele>287.7</ele>
        <time>2025-10-18T12:14:00Z</time>
      </trkpt>
      <trkpt lat="43.22165" lon="5.47834">
        <ele>287.7</ele>
        <time>2025-10-18T12:14:01Z</time>
      </trkpt>
      <trkpt lat="43.22166" lon="5.47835">
        <ele>287.7</ele>
        <time>2025-10-18T12:14:02Z</time>
      </trkpt>
      <trkpt lat="43.22166" lon="5.47836">
        <ele>287.7</ele>
        <time>2025-10-18T12:14:03Z</time>
      </trkpt>
      <trkpt lat="43.22167" lon="5.47836">
        <ele>287.7</ele>
        <time>2025-10-18T12:14:04Z</time>
      </trkpt>
      <trkpt lat="43.22167" lon="5.47837">
        <ele>287.7</ele>
        <time>2025-10-18T12:14:05Z</time>
      </trkpt>
      <trkpt lat="43.22167" lon="5.47837">
        <ele>287.8</ele>
        <time>2025-10-18T12:14:06Z</time>
      </trkpt>
      <trkpt lat="43.22167" lon="5.47837">
        <ele>287.8</ele>
        <time>2025-10-18T12:14:07Z</time>
      </trkpt>
      <trkpt lat="43.22167" lon="5.47837">
        <ele>287.9</ele>
        <time>2025-10-18T12:14:08Z</time>
      </trkpt>
      <trkpt lat="43.22167" lon="5.47837">
        <ele>288.1</ele>
        <time>2025-10-18T12:14:09Z</time>
      </trkpt>
      <trkpt lat="43.22167" lon="5.47837">
        <ele>288.2</ele>
        <time>2025-10-18T12:14:10Z</time>
      </trkpt>
      <trkpt lat="43.22167" lon="5.47838">
        <ele>288.2</ele>
        <time>2025-10-18T12:14:11Z</time>
      </trkpt>
      <trkpt lat="43.22167" lon="5.47838">
        <ele>288.3</ele>
        <time>2025-10-18T12:14:12Z</time>
      </trkpt>
      <trkpt lat="43.22168" lon="5.47838">
        <ele>288.3</ele>
        <time>2025-10-18T12:14:13Z</time>
      </trkpt>
      <trkpt lat="43.22168" lon="5.47838">
        <ele>288.4</ele>
        <time>2025-10-18T12:14:14Z</time>
      </trkpt>
      <trkpt lat="43.22168" lon="5.47838">
        <ele>288.5</ele>
        <time>2025-10-18T12:14:15Z</time>
      </trkpt>
      <trkpt lat="43.22168" lon="5.47838">
        <ele>288.6</ele>
        <time>2025-10-18T12:14:16Z</time>
      </trkpt>
      <trkpt lat="43.22168" lon="5.47838">
        <ele>288.6</ele>
        <time>2025-10-18T12:14:17Z</time>
      </trkpt>
      <trkpt lat="43.22168" lon="5.47838">
        <ele>288.6</ele>
        <time>2025-10-18T12:14:18Z</time>
      </trkpt>
      <trkpt lat="43.22168" lon="5.47838">
        <ele>288.6</ele>
        <time>2025-10-18T12:14:19Z</time>
      </trkpt>
      <trkpt lat="43.22168" lon="5.47838">
        <ele>288.6</ele>
        <time>2025-10-18T12:14:20Z</time>
      </trkpt>
      <trkpt lat="43.22168" lon="5.47838">
        <ele>288.6</ele>
        <time>2025-10-18T12:14:21Z</time>
      </trkpt>
      <trkpt lat="43.22168" lon="5.47838">
        <ele>288.6</ele>
        <time>2025-10-18T12:14:22Z</time>
      </trkpt>
      <trkpt lat="43.22168" lon="5.47838">
        <ele>288.6</ele>
        <time>2025-10-18T12:14:23Z</time>
      </trkpt>
      <trkpt lat="43.22169" lon="5.47838">
        <ele>288.6</ele>
        <time>2025-10-18T12:14:24Z</time>
      </trkpt>
      <trkpt lat="43.22169" lon="5.47837">
        <ele>288.6</ele>
        <time>2025-10-18T12:14:25Z</time>
      </trkpt>
      <trkpt lat="43.2217" lon="5.47837">
        <ele>288.6</ele>
        <time>2025-10-18T12:14:26Z</time>
      </trkpt>
      <trkpt lat="43.22171" lon="5.47837">
        <ele>288.6</ele>
        <time>2025-10-18T12:14:27Z</time>
      </trkpt>
      <trkpt lat="43.22171" lon="5.47837">
        <ele>288.6</ele>
        <time>2025-10-18T12:14:28Z</time>
      </trkpt>
      <trkpt lat="43.22171" lon="5.47837">
        <ele>288.6</ele>
        <time>2025-10-18T12:14:29Z</time>
      </trkpt>
      <trkpt lat="43.2217" lon="5.47837">
        <ele>288.7</ele>
        <time>2025-10-18T12:14:30Z</time>
      </trkpt>
      <trkpt lat="43.22171" lon="5.47837">
        <ele>288.7</ele>
        <time>2025-10-18T12:14:31Z</time>
      </trkpt>
      <trkpt lat="43.22171" lon="5.47837">
        <ele>288.8</ele>
        <time>2025-10-18T12:14:32Z</time>
      </trkpt>
      <trkpt lat="43.22171" lon="5.47837">
        <ele>288.8</ele>
        <time>2025-10-18T12:14:33Z</time>
      </trkpt>
      <trkpt lat="43.22171" lon="5.47837">
        <ele>288.9</ele>
        <time>2025-10-18T12:14:34Z</time>
      </trkpt>
      <trkpt lat="43.22171" lon="5.47837">
        <ele>288.9</ele>
        <time>2025-10-18T12:14:35Z</time>
      </trkpt>
      <trkpt lat="43.22171" lon="5.47838">
        <ele>288.9</ele>
        <time>2025-10-18T12:14:36Z</time>
      </trkpt>
      <trkpt lat="43.22171" lon="5.47838">
        <ele>288.9</ele>
        <time>2025-10-18T12:14:37Z</time>
      </trkpt>
      <trkpt lat="43.22171" lon="5.47838">
        <ele>288.8</ele>
        <time>2025-10-18T12:14:38Z</time>
      </trkpt>
      <trkpt lat="43.22171" lon="5.47838">
        <ele>288.8</ele>
        <time>2025-10-18T12:14:39Z</time>
      </trkpt>
      <trkpt lat="43.22171" lon="5.47838">
        <ele>288.8</ele>
        <time>2025-10-18T12:14:40Z</time>
      </trkpt>
      <trkpt lat="43.22171" lon="5.47838">
        <ele>288.8</ele>
        <time>2025-10-18T12:14:41Z</time>
      </trkpt>
      <trkpt lat="43.22171" lon="5.47838">
        <ele>288.8</ele>
        <time>2025-10-18T12:14:42Z</time>
      </trkpt>
      <trkpt lat="43.22171" lon="5.47838">
        <ele>288.8</ele>
        <time>2025-10-18T12:14:43Z</time>
      </trkpt>
      <trkpt lat="43.22171" lon="5.47839">
        <ele>288.7</ele>
        <time>2025-10-18T12:14:44Z</time>
      </trkpt>
      <trkpt lat="43.22172" lon="5.47839">
        <ele>288.7</ele>
        <time>2025-10-18T12:14:45Z</time>
      </trkpt>
      <trkpt lat="43.22172" lon="5.47839">
        <ele>288.6</ele>
        <time>2025-10-18T12:14:46Z</time>
      </trkpt>
      <trkpt lat="43.22172" lon="5.47839">
        <ele>288.5</ele>
        <time>2025-10-18T12:14:47Z</time>
      </trkpt>
      <trkpt lat="43.22172" lon="5.47838">
        <ele>288.4</ele>
        <time>2025-10-18T12:14:48Z</time>
      </trkpt>
      <trkpt lat="43.22173" lon="5.47839">
        <ele>288.4</ele>
        <time>2025-10-18T12:14:49Z</time>
      </trkpt>
      <trkpt lat="43.22173" lon="5.47839">
        <ele>288.4</ele>
        <time>2025-10-18T12:14:50Z</time>
      </trkpt>
      <trkpt lat="43.22173" lon="5.47839">
        <ele>288.3</ele>
        <time>2025-10-18T12:14:51Z</time>
      </trkpt>
      <trkpt lat="43.22173" lon="5.47839">
        <ele>288.2</ele>
        <time>2025-10-18T12:14:52Z</time>
      </trkpt>
      <trkpt lat="43.22174" lon="5.47839">
        <ele>288.2</ele>
        <time>2025-10-18T12:14:53Z</time>
      </trkpt>
      <trkpt lat="43.22174" lon="5.47839">
        <ele>288.2</ele>
        <time>2025-10-18T12:14:54Z</time>
      </trkpt>
      <trkpt lat="43.22174" lon="5.47838">
        <ele>288.2</ele>
        <time>2025-10-18T12:14:55Z</time>
      </trkpt>
      <trkpt lat="43.22175" lon="5.47838">
        <ele>288.2</ele>
        <time>2025-10-18T12:14:56Z</time>
      </trkpt>
      <trkpt lat="43.22176" lon="5.47838">
        <ele>288.2</ele>
        <time>2025-10-18T12:14:57Z</time>
      </trkpt>
      <trkpt lat="43.22176" lon="5.47838">
        <ele>288.2</ele>
        <time>2025-10-18T12:14:58Z</time>
      </trkpt>
      <trkpt lat="43.22176" lon="5.47838">
        <ele>288.2</ele>
        <time>2025-10-18T12:14:59Z</time>
      </trkpt>
      <trkpt lat="43.22176" lon="5.47838">
        <ele>288.3</ele>
        <time>2025-10-18T12:15:00Z</time>
      </trkpt>
      <trkpt lat="43.22176" lon="5.47838">
        <ele>288.3</ele>
        <time>2025-10-18T12:15:01Z</time>
      </trkpt>
      <trkpt lat="43.22176" lon="5.47838">
        <ele>288.3</ele>
        <time>2025-10-18T12:15:02Z</time>
      </trkpt>
      <trkpt lat="43.22176" lon="5.47838">
        <ele>288.2</ele>
        <time>2025-10-18T12:15:03Z</time>
      </trkpt>
      <trkpt lat="43.22176" lon="5.47838">
        <ele>288.2</ele>
        <time>2025-10-18T12:15:04Z</time>
      </trkpt>
      <trkpt lat="43.22176" lon="5.47838">
        <ele>288.1</ele>
        <time>2025-10-18T12:15:05Z</time>
      </trkpt>
      <trkpt lat="43.22177" lon="5.47838">
        <ele>288.1</ele>
        <time>2025-10-18T12:15:06Z</time>
      </trkpt>
      <trkpt lat="43.22177" lon="5.47838">
        <ele>288.1</ele>
        <time>2025-10-18T12:15:07Z</time>
      </trkpt>
      <trkpt lat="43.22177" lon="5.47838">
        <ele>288.1</ele>
        <time>2025-10-18T12:15:08Z</time>
      </trkpt>
      <trkpt lat="43.22177" lon="5.47838">
        <ele>288.1</ele>
        <time>2025-10-18T12:15:09Z</time>
      </trkpt>
      <trkpt lat="43.22177" lon="5.47838">
        <ele>288.2</ele>
        <time>2025-10-18T12:15:10Z</time>
      </trkpt>
      <trkpt lat="43.22177" lon="5.47839">
        <ele>288.1</ele>
        <time>2025-10-18T12:15:11Z</time>
      </trkpt>
      <trkpt lat="43.22177" lon="5.47839">
        <ele>288.2</ele>
        <time>2025-10-18T12:15:12Z</time>
      </trkpt>
      <trkpt lat="43.22177" lon="5.47839">
        <ele>288.2</ele>
        <time>2025-10-18T12:15:13Z</time>
      </trkpt>
      <trkpt lat="43.22177" lon="5.47839">
        <ele>288.3</ele>
        <time>2025-10-18T12:15:14Z</time>
      </trkpt>
      <trkpt lat="43.22177" lon="5.47839">
        <ele>288.3</ele>
        <time>2025-10-18T12:15:15Z</time>
      </trkpt>
      <trkpt lat="43.22177" lon="5.47839">
        <ele>288.3</ele>
        <time>2025-10-18T12:15:16Z</time>
      </trkpt>
      <trkpt lat="43.22177" lon="5.47839">
        <ele>288.3</ele>
        <time>2025-10-18T12:15:17Z</time>
      </trkpt>
      <trkpt lat="43.22177" lon="5.47839">
        <ele>288.4</ele>
        <time>2025-10-18T12:15:18Z</time>
      </trkpt>
      <trkpt lat="43.22177" lon="5.4784">
        <ele>288.4</ele>
        <time>2025-10-18T12:15:19Z</time>
      </trkpt>
      <trkpt lat="43.22177" lon="5.4784">
        <ele>288.4</ele>
        <time>2025-10-18T12:15:20Z</time>
      </trkpt>
      <trkpt lat="43.22177" lon="5.4784">
        <ele>288.4</ele>
        <time>2025-10-18T12:15:21Z</time>
      </trkpt>
      <trkpt lat="43.22177" lon="5.4784">
        <ele>288.3</ele>
        <time>2025-10-18T12:15:22Z</time>
      </trkpt>
      <trkpt lat="43.22177" lon="5.4784">
        <ele>288.2</ele>
        <time>2025-10-18T12:15:23Z</time>
      </trkpt>
      <trkpt lat="43.22177" lon="5.4784">
        <ele>288.2</ele>
        <time>2025-10-18T12:15:24Z</time>
      </trkpt>
      <trkpt lat="43.22177" lon="5.4784">
        <ele>288.2</ele>
        <time>2025-10-18T12:15:25Z</time>
      </trkpt>
      <trkpt lat="43.22177" lon="5.4784">
        <ele>288.1</ele>
        <time>2025-10-18T12:15:26Z</time>
      </trkpt>
      <trkpt lat="43.22177" lon="5.4784">
        <ele>288.1</ele>
        <time>2025-10-18T12:15:27Z</time>
      </trkpt>
      <trkpt lat="43.22177" lon="5.4784">
        <ele>288.1</ele>
        <time>2025-10-18T12:15:28Z</time>
      </trkpt>
      <trkpt lat="43.22177" lon="5.4784">
        <ele>288.1</ele>
        <time>2025-10-18T12:15:29Z</time>
      </trkpt>
      <trkpt lat="43.22177" lon="5.4784">
        <ele>288.1</ele>
        <time>2025-10-18T12:15:30Z</time>
      </trkpt>
      <trkpt lat="43.22177" lon="5.4784">
        <ele>288.1</ele>
        <time>2025-10-18T12:15:31Z</time>
      </trkpt>
      <trkpt lat="43.22177" lon="5.4784">
        <ele>288.1</ele>
        <time>2025-10-18T12:15:32Z</time>
      </trkpt>
      <trkpt lat="43.22177" lon="5.4784">
        <ele>288.1</ele>
        <time>2025-10-18T12:15:33Z</time>
      </trkpt>
      <trkpt lat="43.22177" lon="5.4784">
        <ele>288.1</ele>
        <time>2025-10-18T12:15:34Z</time>
      </trkpt>
      <trkpt lat="43.22177" lon="5.4784">
        <ele>288.1</ele>
        <time>2025-10-18T12:15:35Z</time>
      </trkpt>
      <trkpt lat="43.22177" lon="5.4784">
        <ele>288</ele>
        <time>2025-10-18T12:15:36Z</time>
      </trkpt>
      <trkpt lat="43.22177" lon="5.4784">
        <ele>288</ele>
        <time>2025-10-18T12:15:37Z</time>
      </trkpt>
      <trkpt lat="43.22177" lon="5.4784">
        <ele>287.9</ele>
        <time>2025-10-18T12:15:38Z</time>
      </trkpt>
      <trkpt lat="43.22177" lon="5.4784">
        <ele>287.9</ele>
        <time>2025-10-18T12:15:39Z</time>
      </trkpt>
      <trkpt lat="43.22177" lon="5.4784">
        <ele>287.9</ele>
        <time>2025-10-18T12:15:40Z</time>
      </trkpt>
      <trkpt lat="43.22177" lon="5.4784">
        <ele>287.9</ele>
        <time>2025-10-18T12:15:41Z</time>
      </trkpt>
      <trkpt lat="43.22177" lon="5.4784">
        <ele>287.9</ele>
        <time>2025-10-18T12:15:42Z</time>
      </trkpt>
      <trkpt lat="43.22177" lon="5.4784">
        <ele>288</ele>
        <time>2025-10-18T12:15:43Z</time>
      </trkpt>
      <trkpt lat="43.22176" lon="5.4784">
        <ele>288</ele>
        <time>2025-10-18T12:15:44Z</time>
      </trkpt>
      <trkpt lat="43.22176" lon="5.4784">
        <ele>288.1</ele>
        <time>2025-10-18T12:15:45Z</time>
      </trkpt>
      <trkpt lat="43.22176" lon="5.4784">
        <ele>288.2</ele>
        <time>2025-10-18T12:15:46Z</time>
      </trkpt>
      <trkpt lat="43.22176" lon="5.47841">
        <ele>288.2</ele>
        <time>2025-10-18T12:15:47Z</time>
      </trkpt>
      <trkpt lat="43.22176" lon="5.47841">
        <ele>288.2</ele>
        <time>2025-10-18T12:15:48Z</time>
      </trkpt>
      <trkpt lat="43.22176" lon="5.47841">
        <ele>288.2</ele>
        <time>2025-10-18T12:15:49Z</time>
      </trkpt>
      <trkpt lat="43.22176" lon="5.47841">
        <ele>288.2</ele>
        <time>2025-10-18T12:15:50Z</time>
      </trkpt>
      <trkpt lat="43.22176" lon="5.47841">
        <ele>288.2</ele>
        <time>2025-10-18T12:15:51Z</time>
      </trkpt>
      <trkpt lat="43.22176" lon="5.47841">
        <ele>288.2</ele>
        <time>2025-10-18T12:15:52Z</time>
      </trkpt>
      <trkpt lat="43.22176" lon="5.47841">
        <ele>288.2</ele>
        <time>2025-10-18T12:15:53Z</time>
      </trkpt>
      <trkpt lat="43.22176" lon="5.47841">
        <ele>288.2</ele>
        <time>2025-10-18T12:15:54Z</time>
      </trkpt>
      <trkpt lat="43.22175" lon="5.47841">
        <ele>288.2</ele>
        <time>2025-10-18T12:15:55Z</time>
      </trkpt>
      <trkpt lat="43.22175" lon="5.47841">
        <ele>288.2</ele>
        <time>2025-10-18T12:15:56Z</time>
      </trkpt>
      <trkpt lat="43.22175" lon="5.47841">
        <ele>288.2</ele>
        <time>2025-10-18T12:15:57Z</time>
      </trkpt>
      <trkpt lat="43.22175" lon="5.47841">
        <ele>288.1</ele>
        <time>2025-10-18T12:15:58Z</time>
      </trkpt>
      <trkpt lat="43.22175" lon="5.47842">
        <ele>288.1</ele>
        <time>2025-10-18T12:15:59Z</time>
      </trkpt>
      <trkpt lat="43.22175" lon="5.47842">
        <ele>288.2</ele>
        <time>2025-10-18T12:16:00Z</time>
      </trkpt>
      <trkpt lat="43.22175" lon="5.47842">
        <ele>288.1</ele>
        <time>2025-10-18T12:16:01Z</time>
      </trkpt>
      <trkpt lat="43.22175" lon="5.47842">
        <ele>288.1</ele>
        <time>2025-10-18T12:16:02Z</time>
      </trkpt>
      <trkpt lat="43.22175" lon="5.47842">
        <ele>288.1</ele>
        <time>2025-10-18T12:16:03Z</time>
      </trkpt>
      <trkpt lat="43.22175" lon="5.47842">
        <ele>288.2</ele>
        <time>2025-10-18T12:16:04Z</time>
      </trkpt>
      <trkpt lat="43.22175" lon="5.47842">
        <ele>288.2</ele>
        <time>2025-10-18T12:16:05Z</time>
      </trkpt>
      <trkpt lat="43.22175" lon="5.47842">
        <ele>288.3</ele>
        <time>2025-10-18T12:16:06Z</time>
      </trkpt>
      <trkpt lat="43.22175" lon="5.47842">
        <ele>288.4</ele>
        <time>2025-10-18T12:16:07Z</time>
      </trkpt>
      <trkpt lat="43.22175" lon="5.47843">
        <ele>288.4</ele>
        <time>2025-10-18T12:16:08Z</time>
      </trkpt>
      <trkpt lat="43.22176" lon="5.47843">
        <ele>288.4</ele>
        <time>2025-10-18T12:16:09Z</time>
      </trkpt>
      <trkpt lat="43.22176" lon="5.47843">
        <ele>288.5</ele>
        <time>2025-10-18T12:16:10Z</time>
      </trkpt>
      <trkpt lat="43.22176" lon="5.47843">
        <ele>288.5</ele>
        <time>2025-10-18T12:16:11Z</time>
      </trkpt>
      <trkpt lat="43.22176" lon="5.47843">
        <ele>288.5</ele>
        <time>2025-10-18T12:16:12Z</time>
      </trkpt>
      <trkpt lat="43.22175" lon="5.47843">
        <ele>288.5</ele>
        <time>2025-10-18T12:16:13Z</time>
      </trkpt>
      <trkpt lat="43.22176" lon="5.47843">
        <ele>288.5</ele>
        <time>2025-10-18T12:16:14Z</time>
      </trkpt>
      <trkpt lat="43.22176" lon="5.47843">
        <ele>288.5</ele>
        <time>2025-10-18T12:16:15Z</time>
      </trkpt>
      <trkpt lat="43.22176" lon="5.47843">
        <ele>288.5</ele>
        <time>2025-10-18T12:16:16Z</time>
      </trkpt>
      <trkpt lat="43.22176" lon="5.47843">
        <ele>288.4</ele>
        <time>2025-10-18T12:16:17Z</time>
      </trkpt>
      <trkpt lat="43.22176" lon="5.47843">
        <ele>288.4</ele>
        <time>2025-10-18T12:16:18Z</time>
      </trkpt>
      <trkpt lat="43.22176" lon="5.47843">
        <ele>288.4</ele>
        <time>2025-10-18T12:16:19Z</time>
      </trkpt>
      <trkpt lat="43.22176" lon="5.47843">
        <ele>288.4</ele>
        <time>2025-10-18T12:16:20Z</time>
      </trkpt>
      <trkpt lat="43.22176" lon="5.47843">
        <ele>288.3</ele>
        <time>2025-10-18T12:16:21Z</time>
      </trkpt>
      <trkpt lat="43.22176" lon="5.47843">
        <ele>288.4</ele>
        <time>2025-10-18T12:16:22Z</time>
      </trkpt>
      <trkpt lat="43.22176" lon="5.47843">
        <ele>288.3</ele>
        <time>2025-10-18T12:16:23Z</time>
      </trkpt>
      <trkpt lat="43.22176" lon="5.47843">
        <ele>288.4</ele>
        <time>2025-10-18T12:16:24Z</time>
      </trkpt>
      <trkpt lat="43.22176" lon="5.47843">
        <ele>288.4</ele>
        <time>2025-10-18T12:16:25Z</time>
      </trkpt>
      <trkpt lat="43.22176" lon="5.47843">
        <ele>288.4</ele>
        <time>2025-10-18T12:16:26Z</time>
      </trkpt>
      <trkpt lat="43.22176" lon="5.47843">
        <ele>288.3</ele>
        <time>2025-10-18T12:16:27Z</time>
      </trkpt>
      <trkpt lat="43.22176" lon="5.47843">
        <ele>288.3</ele>
        <time>2025-10-18T12:16:28Z</time>
      </trkpt>
      <trkpt lat="43.22176" lon="5.47843">
        <ele>288.3</ele>
        <time>2025-10-18T12:16:29Z</time>
      </trkpt>
      <trkpt lat="43.22176" lon="5.47843">
        <ele>288.3</ele>
        <time>2025-10-18T12:16:30Z</time>
      </trkpt>
      <trkpt lat="43.22176" lon="5.47843">
        <ele>288.3</ele>
        <time>2025-10-18T12:16:31Z</time>
      </trkpt>
      <trkpt lat="43.22176" lon="5.47843">
        <ele>288.4</ele>
        <time>2025-10-18T12:16:32Z</time>
      </trkpt>
      <trkpt lat="43.22176" lon="5.47843">
        <ele>288.4</ele>
        <time>2025-10-18T12:16:33Z</time>
      </trkpt>
      <trkpt lat="43.22176" lon="5.47843">
        <ele>288.5</ele>
        <time>2025-10-18T12:16:34Z</time>
      </trkpt>
      <trkpt lat="43.22176" lon="5.47843">
        <ele>288.5</ele>
        <time>2025-10-18T12:16:35Z</time>
      </trkpt>
      <trkpt lat="43.22176" lon="5.47843">
        <ele>288.6</ele>
        <time>2025-10-18T12:16:36Z</time>
      </trkpt>
      <trkpt lat="43.22176" lon="5.47843">
        <ele>288.4</ele>
        <time>2025-10-18T12:16:37Z</time>
      </trkpt>
      <trkpt lat="43.22176" lon="5.47843">
        <ele>288.3</ele>
        <time>2025-10-18T12:16:38Z</time>
      </trkpt>
      <trkpt lat="43.22176" lon="5.47843">
        <ele>288.3</ele>
        <time>2025-10-18T12:16:39Z</time>
      </trkpt>
      <trkpt lat="43.22176" lon="5.47843">
        <ele>288.4</ele>
        <time>2025-10-18T12:16:40Z</time>
      </trkpt>
      <trkpt lat="43.22176" lon="5.47843">
        <ele>288.4</ele>
        <time>2025-10-18T12:16:41Z</time>
      </trkpt>
      <trkpt lat="43.22176" lon="5.47843">
        <ele>288.4</ele>
        <time>2025-10-18T12:16:42Z</time>
      </trkpt>
      <trkpt lat="43.22176" lon="5.47843">
        <ele>288.4</ele>
        <time>2025-10-18T12:16:43Z</time>
      </trkpt>
      <trkpt lat="43.22176" lon="5.47843">
        <ele>288.4</ele>
        <time>2025-10-18T12:16:44Z</time>
      </trkpt>
      <trkpt lat="43.22176" lon="5.47843">
        <ele>288.5</ele>
        <time>2025-10-18T12:16:45Z</time>
      </trkpt>
      <trkpt lat="43.22176" lon="5.47843">
        <ele>288.3</ele>
        <time>2025-10-18T12:16:46Z</time>
      </trkpt>
      <trkpt lat="43.22176" lon="5.47843">
        <ele>288.2</ele>
        <time>2025-10-18T12:16:47Z</time>
      </trkpt>
      <trkpt lat="43.22176" lon="5.47844">
        <ele>288.3</ele>
        <time>2025-10-18T12:16:48Z</time>
      </trkpt>
      <trkpt lat="43.22176" lon="5.47844">
        <ele>288.3</ele>
        <time>2025-10-18T12:16:49Z</time>
      </trkpt>
      <trkpt lat="43.22176" lon="5.47844">
        <ele>288.3</ele>
        <time>2025-10-18T12:16:50Z</time>
      </trkpt>
      <trkpt lat="43.22176" lon="5.47844">
        <ele>288.3</ele>
        <time>2025-10-18T12:16:51Z</time>
      </trkpt>
      <trkpt lat="43.22176" lon="5.47844">
        <ele>288.4</ele>
        <time>2025-10-18T12:16:52Z</time>
      </trkpt>
      <trkpt lat="43.22176" lon="5.47844">
        <ele>288.4</ele>
        <time>2025-10-18T12:16:53Z</time>
      </trkpt>
      <trkpt lat="43.22175" lon="5.47844">
        <ele>288.3</ele>
        <time>2025-10-18T12:16:54Z</time>
      </trkpt>
      <trkpt lat="43.22175" lon="5.47844">
        <ele>288.3</ele>
        <time>2025-10-18T12:16:55Z</time>
      </trkpt>
      <trkpt lat="43.22175" lon="5.47844">
        <ele>288.3</ele>
        <time>2025-10-18T12:16:56Z</time>
      </trkpt>
      <trkpt lat="43.22175" lon="5.47844">
        <ele>288.3</ele>
        <time>2025-10-18T12:16:57Z</time>
      </trkpt>
      <trkpt lat="43.22175" lon="5.47844">
        <ele>288.3</ele>
        <time>2025-10-18T12:16:58Z</time>
      </trkpt>
      <trkpt lat="43.22175" lon="5.47844">
        <ele>288.3</ele>
        <time>2025-10-18T12:16:59Z</time>
      </trkpt>
      <trkpt lat="43.22176" lon="5.47844">
        <ele>288.3</ele>
        <time>2025-10-18T12:17:00Z</time>
      </trkpt>
      <trkpt lat="43.22176" lon="5.47844">
        <ele>288.3</ele>
        <time>2025-10-18T12:17:01Z</time>
      </trkpt>
      <trkpt lat="43.22176" lon="5.47843">
        <ele>288.3</ele>
        <time>2025-10-18T12:17:02Z</time>
      </trkpt>
      <trkpt lat="43.22176" lon="5.47843">
        <ele>288.4</ele>
        <time>2025-10-18T12:17:03Z</time>
      </trkpt>
      <trkpt lat="43.22176" lon="5.47843">
        <ele>288.4</ele>
        <time>2025-10-18T12:17:04Z</time>
      </trkpt>
      <trkpt lat="43.22175" lon="5.47843">
        <ele>288.5</ele>
        <time>2025-10-18T12:17:05Z</time>
      </trkpt>
      <trkpt lat="43.22175" lon="5.47843">
        <ele>288.6</ele>
        <time>2025-10-18T12:17:06Z</time>
      </trkpt>
      <trkpt lat="43.22175" lon="5.47843">
        <ele>288.7</ele>
        <time>2025-10-18T12:17:07Z</time>
      </trkpt>
      <trkpt lat="43.22175" lon="5.47843">
        <ele>288.8</ele>
        <time>2025-10-18T12:17:08Z</time>
      </trkpt>
      <trkpt lat="43.22175" lon="5.47843">
        <ele>288.8</ele>
        <time>2025-10-18T12:17:09Z</time>
      </trkpt>
      <trkpt lat="43.22175" lon="5.47843">
        <ele>288.8</ele>
        <time>2025-10-18T12:17:10Z</time>
      </trkpt>
      <trkpt lat="43.22175" lon="5.47843">
        <ele>288.7</ele>
        <time>2025-10-18T12:17:11Z</time>
      </trkpt>
      <trkpt lat="43.22175" lon="5.47843">
        <ele>288.6</ele>
        <time>2025-10-18T12:17:12Z</time>
      </trkpt>
      <trkpt lat="43.22175" lon="5.47843">
        <ele>288.6</ele>
        <time>2025-10-18T12:17:13Z</time>
      </trkpt>
      <trkpt lat="43.22175" lon="5.47843">
        <ele>288.6</ele>
        <time>2025-10-18T12:17:14Z</time>
      </trkpt>
      <trkpt lat="43.22175" lon="5.47843">
        <ele>288.5</ele>
        <time>2025-10-18T12:17:15Z</time>
      </trkpt>
      <trkpt lat="43.22175" lon="5.47843">
        <ele>288.5</ele>
        <time>2025-10-18T12:17:16Z</time>
      </trkpt>
      <trkpt lat="43.22175" lon="5.47843">
        <ele>288.4</ele>
        <time>2025-10-18T12:17:17Z</time>
      </trkpt>
      <trkpt lat="43.22175" lon="5.47843">
        <ele>288.4</ele>
        <time>2025-10-18T12:17:18Z</time>
      </trkpt>
      <trkpt lat="43.22175" lon="5.47843">
        <ele>288.4</ele>
        <time>2025-10-18T12:17:19Z</time>
      </trkpt>
      <trkpt lat="43.22175" lon="5.47843">
        <ele>288.4</ele>
        <time>2025-10-18T12:17:20Z</time>
      </trkpt>
      <trkpt lat="43.22175" lon="5.47843">
        <ele>288.4</ele>
        <time>2025-10-18T12:17:21Z</time>
      </trkpt>
      <trkpt lat="43.22175" lon="5.47843">
        <ele>288.5</ele>
        <time>2025-10-18T12:17:22Z</time>
      </trkpt>
      <trkpt lat="43.22175" lon="5.47842">
        <ele>288.5</ele>
        <time>2025-10-18T12:17:23Z</time>
      </trkpt>
      <trkpt lat="43.22175" lon="5.47843">
        <ele>288.6</ele>
        <time>2025-10-18T12:17:24Z</time>
      </trkpt>
      <trkpt lat="43.22175" lon="5.47842">
        <ele>288.6</ele>
        <time>2025-10-18T12:17:25Z</time>
      </trkpt>
      <trkpt lat="43.22175" lon="5.47842">
        <ele>288.6</ele>
        <time>2025-10-18T12:17:26Z</time>
      </trkpt>
      <trkpt lat="43.22175" lon="5.47842">
        <ele>288.6</ele>
        <time>2025-10-18T12:17:27Z</time>
      </trkpt>
      <trkpt lat="43.22175" lon="5.47842">
        <ele>288.5</ele>
        <time>2025-10-18T12:17:28Z</time>
      </trkpt>
      <trkpt lat="43.22175" lon="5.47842">
        <ele>288.5</ele>
        <time>2025-10-18T12:17:29Z</time>
      </trkpt>
      <trkpt lat="43.22174" lon="5.47842">
        <ele>288.4</ele>
        <time>2025-10-18T12:17:30Z</time>
      </trkpt>
      <trkpt lat="43.22174" lon="5.47842">
        <ele>288.4</ele>
        <time>2025-10-18T12:17:31Z</time>
      </trkpt>
      <trkpt lat="43.22174" lon="5.47842">
        <ele>288.4</ele>
        <time>2025-10-18T12:17:32Z</time>
      </trkpt>
      <trkpt lat="43.22174" lon="5.47842">
        <ele>288.4</ele>
        <time>2025-10-18T12:17:33Z</time>
      </trkpt>
      <trkpt lat="43.22174" lon="5.47842">
        <ele>288.4</ele>
        <time>2025-10-18T12:17:34Z</time>
      </trkpt>
      <trkpt lat="43.22174" lon="5.47842">
        <ele>288.3</ele>
        <time>2025-10-18T12:17:35Z</time>
      </trkpt>
      <trkpt lat="43.22174" lon="5.47842">
        <ele>288.3</ele>
        <time>2025-10-18T12:17:36Z</time>
      </trkpt>
      <trkpt lat="43.22174" lon="5.47842">
        <ele>288.3</ele>
        <time>2025-10-18T12:17:37Z</time>
      </trkpt>
      <trkpt lat="43.22174" lon="5.47842">
        <ele>288.3</ele>
        <time>2025-10-18T12:17:38Z</time>
      </trkpt>
      <trkpt lat="43.22174" lon="5.47842">
        <ele>288.2</ele>
        <time>2025-10-18T12:17:39Z</time>
      </trkpt>
      <trkpt lat="43.22174" lon="5.47842">
        <ele>288.2</ele>
        <time>2025-10-18T12:17:40Z</time>
      </trkpt>
      <trkpt lat="43.22174" lon="5.47842">
        <ele>288.2</ele>
        <time>2025-10-18T12:17:41Z</time>
      </trkpt>
      <trkpt lat="43.22174" lon="5.47842">
        <ele>288.2</ele>
        <time>2025-10-18T12:17:42Z</time>
      </trkpt>
      <trkpt lat="43.22173" lon="5.47842">
        <ele>288.4</ele>
        <time>2025-10-18T12:17:43Z</time>
      </trkpt>
      <trkpt lat="43.22173" lon="5.47841">
        <ele>288.4</ele>
        <time>2025-10-18T12:17:44Z</time>
      </trkpt>
      <trkpt lat="43.22173" lon="5.47841">
        <ele>288.4</ele>
        <time>2025-10-18T12:17:45Z</time>
      </trkpt>
      <trkpt lat="43.22173" lon="5.47841">
        <ele>288.3</ele>
        <time>2025-10-18T12:17:46Z</time>
      </trkpt>
      <trkpt lat="43.22174" lon="5.47842">
        <ele>288.3</ele>
        <time>2025-10-18T12:17:47Z</time>
      </trkpt>
      <trkpt lat="43.22174" lon="5.47842">
        <ele>288.3</ele>
        <time>2025-10-18T12:17:48Z</time>
      </trkpt>
      <trkpt lat="43.22174" lon="5.47842">
        <ele>288.3</ele>
        <time>2025-10-18T12:17:49Z</time>
      </trkpt>
      <trkpt lat="43.22174" lon="5.47842">
        <ele>288.3</ele>
        <time>2025-10-18T12:17:50Z</time>
      </trkpt>
      <trkpt lat="43.22174" lon="5.47842">
        <ele>288.3</ele>
        <time>2025-10-18T12:17:51Z</time>
      </trkpt>
      <trkpt lat="43.22174" lon="5.47841">
        <ele>288.3</ele>
        <time>2025-10-18T12:17:52Z</time>
      </trkpt>
      <trkpt lat="43.22174" lon="5.47841">
        <ele>288.2</ele>
        <time>2025-10-18T12:17:53Z</time>
      </trkpt>
      <trkpt lat="43.22174" lon="5.47841">
        <ele>288.1</ele>
        <time>2025-10-18T12:17:54Z</time>
      </trkpt>
      <trkpt lat="43.22174" lon="5.47841">
        <ele>288.1</ele>
        <time>2025-10-18T12:17:55Z</time>
      </trkpt>
      <trkpt lat="43.22174" lon="5.47841">
        <ele>288.1</ele>
        <time>2025-10-18T12:17:56Z</time>
      </trkpt>
      <trkpt lat="43.22174" lon="5.47841">
        <ele>288.1</ele>
        <time>2025-10-18T12:17:57Z</time>
      </trkpt>
      <trkpt lat="43.22174" lon="5.47841">
        <ele>288</ele>
        <time>2025-10-18T12:17:58Z</time>
      </trkpt>
      <trkpt lat="43.22174" lon="5.47841">
        <ele>288</ele>
        <time>2025-10-18T12:17:59Z</time>
      </trkpt>
      <trkpt lat="43.22174" lon="5.47841">
        <ele>288</ele>
        <time>2025-10-18T12:18:00Z</time>
      </trkpt>
      <trkpt lat="43.22174" lon="5.47841">
        <ele>288</ele>
        <time>2025-10-18T12:18:01Z</time>
      </trkpt>
      <trkpt lat="43.22174" lon="5.47841">
        <ele>288.1</ele>
        <time>2025-10-18T12:18:02Z</time>
      </trkpt>
      <trkpt lat="43.22173" lon="5.47842">
        <ele>288.2</ele>
        <time>2025-10-18T12:18:03Z</time>
      </trkpt>
      <trkpt lat="43.22173" lon="5.47842">
        <ele>288.2</ele>
        <time>2025-10-18T12:18:04Z</time>
      </trkpt>
      <trkpt lat="43.22173" lon="5.47842">
        <ele>288.2</ele>
        <time>2025-10-18T12:18:05Z</time>
      </trkpt>
      <trkpt lat="43.22173" lon="5.47842">
        <ele>288.3</ele>
        <time>2025-10-18T12:18:06Z</time>
      </trkpt>
      <trkpt lat="43.22173" lon="5.47842">
        <ele>288.3</ele>
        <time>2025-10-18T12:18:07Z</time>
      </trkpt>
      <trkpt lat="43.22173" lon="5.47842">
        <ele>288.3</ele>
        <time>2025-10-18T12:18:08Z</time>
      </trkpt>
      <trkpt lat="43.22173" lon="5.47842">
        <ele>288.3</ele>
        <time>2025-10-18T12:18:09Z</time>
      </trkpt>
      <trkpt lat="43.22172" lon="5.47842">
        <ele>288.4</ele>
        <time>2025-10-18T12:18:10Z</time>
      </trkpt>
      <trkpt lat="43.22172" lon="5.47842">
        <ele>288.5</ele>
        <time>2025-10-18T12:18:11Z</time>
      </trkpt>
      <trkpt lat="43.22172" lon="5.47842">
        <ele>288.5</ele>
        <time>2025-10-18T12:18:12Z</time>
      </trkpt>
      <trkpt lat="43.22172" lon="5.47842">
        <ele>288.5</ele>
        <time>2025-10-18T12:18:13Z</time>
      </trkpt>
      <trkpt lat="43.22172" lon="5.47842">
        <ele>288.5</ele>
        <time>2025-10-18T12:18:14Z</time>
      </trkpt>
      <trkpt lat="43.22172" lon="5.47842">
        <ele>288.5</ele>
        <time>2025-10-18T12:18:15Z</time>
      </trkpt>
      <trkpt lat="43.22172" lon="5.47842">
        <ele>288.5</ele>
        <time>2025-10-18T12:18:16Z</time>
      </trkpt>
      <trkpt lat="43.22172" lon="5.47842">
        <ele>288.5</ele>
        <time>2025-10-18T12:18:17Z</time>
      </trkpt>
      <trkpt lat="43.22171" lon="5.47842">
        <ele>288.5</ele>
        <time>2025-10-18T12:18:18Z</time>
      </trkpt>
      <trkpt lat="43.22171" lon="5.47842">
        <ele>288.6</ele>
        <time>2025-10-18T12:18:19Z</time>
      </trkpt>
      <trkpt lat="43.22172" lon="5.47842">
        <ele>288.5</ele>
        <time>2025-10-18T12:18:20Z</time>
      </trkpt>
      <trkpt lat="43.22172" lon="5.47841">
        <ele>288.4</ele>
        <time>2025-10-18T12:18:21Z</time>
      </trkpt>
      <trkpt lat="43.22172" lon="5.47841">
        <ele>288.4</ele>
        <time>2025-10-18T12:18:22Z</time>
      </trkpt>
      <trkpt lat="43.22172" lon="5.4784">
        <ele>288.4</ele>
        <time>2025-10-18T12:18:23Z</time>
      </trkpt>
      <trkpt lat="43.22173" lon="5.4784">
        <ele>288.4</ele>
        <time>2025-10-18T12:18:24Z</time>
      </trkpt>
      <trkpt lat="43.22173" lon="5.47839">
        <ele>288.6</ele>
        <time>2025-10-18T12:18:25Z</time>
      </trkpt>
      <trkpt lat="43.22174" lon="5.47839">
        <ele>288.7</ele>
        <time>2025-10-18T12:18:26Z</time>
      </trkpt>
      <trkpt lat="43.22174" lon="5.47838">
        <ele>288.8</ele>
        <time>2025-10-18T12:18:27Z</time>
      </trkpt>
      <trkpt lat="43.22175" lon="5.47838">
        <ele>288.9</ele>
        <time>2025-10-18T12:18:28Z</time>
      </trkpt>
      <trkpt lat="43.22175" lon="5.47838">
        <ele>289.1</ele>
        <time>2025-10-18T12:18:29Z</time>
      </trkpt>
      <trkpt lat="43.22176" lon="5.47837">
        <ele>289.3</ele>
        <time>2025-10-18T12:18:30Z</time>
      </trkpt>
      <trkpt lat="43.22176" lon="5.47836">
        <ele>289.4</ele>
        <time>2025-10-18T12:18:31Z</time>
      </trkpt>
      <trkpt lat="43.22176" lon="5.47836">
        <ele>289.5</ele>
        <time>2025-10-18T12:18:32Z</time>
      </trkpt>
      <trkpt lat="43.22176" lon="5.47836">
        <ele>289.6</ele>
        <time>2025-10-18T12:18:33Z</time>
      </trkpt>
      <trkpt lat="43.22177" lon="5.47836">
        <ele>289.7</ele>
        <time>2025-10-18T12:18:34Z</time>
      </trkpt>
      <trkpt lat="43.22177" lon="5.47836">
        <ele>289.9</ele>
        <time>2025-10-18T12:18:35Z</time>
      </trkpt>
      <trkpt lat="43.22177" lon="5.47835">
        <ele>290.2</ele>
        <time>2025-10-18T12:18:36Z</time>
      </trkpt>
      <trkpt lat="43.22177" lon="5.47835">
        <ele>290.4</ele>
        <time>2025-10-18T12:18:37Z</time>
      </trkpt>
      <trkpt lat="43.22177" lon="5.47834">
        <ele>290.5</ele>
        <time>2025-10-18T12:18:38Z</time>
      </trkpt>
      <trkpt lat="43.22177" lon="5.47834">
        <ele>290.6</ele>
        <time>2025-10-18T12:18:39Z</time>
      </trkpt>
      <trkpt lat="43.22177" lon="5.47834">
        <ele>290.6</ele>
        <time>2025-10-18T12:18:40Z</time>
      </trkpt>
      <trkpt lat="43.22177" lon="5.47834">
        <ele>290.7</ele>
        <time>2025-10-18T12:18:41Z</time>
      </trkpt>
      <trkpt lat="43.22177" lon="5.47834">
        <ele>290.8</ele>
        <time>2025-10-18T12:18:42Z</time>
      </trkpt>
      <trkpt lat="43.22177" lon="5.47834">
        <ele>290.8</ele>
        <time>2025-10-18T12:18:43Z</time>
      </trkpt>
      <trkpt lat="43.22178" lon="5.47834">
        <ele>290.8</ele>
        <time>2025-10-18T12:18:44Z</time>
      </trkpt>
      <trkpt lat="43.22178" lon="5.47834">
        <ele>290.8</ele>
        <time>2025-10-18T12:18:45Z</time>
      </trkpt>
      <trkpt lat="43.22178" lon="5.47834">
        <ele>291</ele>
        <time>2025-10-18T12:18:46Z</time>
      </trkpt>
      <trkpt lat="43.22179" lon="5.47834">
        <ele>291.1</ele>
        <time>2025-10-18T12:18:47Z</time>
      </trkpt>
      <trkpt lat="43.22179" lon="5.47834">
        <ele>291.3</ele>
        <time>2025-10-18T12:18:48Z</time>
      </trkpt>
      <trkpt lat="43.22179" lon="5.47834">
        <ele>291.4</ele>
        <time>2025-10-18T12:18:49Z</time>
      </trkpt>
      <trkpt lat="43.22179" lon="5.47834">
        <ele>291.5</ele>
        <time>2025-10-18T12:18:50Z</time>
      </trkpt>
      <trkpt lat="43.22179" lon="5.47834">
        <ele>291.7</ele>
        <time>2025-10-18T12:18:51Z</time>
      </trkpt>
      <trkpt lat="43.2218" lon="5.47834">
        <ele>291.8</ele>
        <time>2025-10-18T12:18:52Z</time>
      </trkpt>
      <trkpt lat="43.2218" lon="5.47834">
        <ele>292</ele>
        <time>2025-10-18T12:18:53Z</time>
      </trkpt>
      <trkpt lat="43.22181" lon="5.47834">
        <ele>292</ele>
        <time>2025-10-18T12:18:54Z</time>
      </trkpt>
      <trkpt lat="43.22181" lon="5.47833">
        <ele>292.2</ele>
        <time>2025-10-18T12:18:55Z</time>
      </trkpt>
      <trkpt lat="43.22181" lon="5.47832">
        <ele>292.4</ele>
        <time>2025-10-18T12:18:56Z</time>
      </trkpt>
      <trkpt lat="43.22181" lon="5.47832">
        <ele>292.5</ele>
        <time>2025-10-18T12:18:57Z</time>
      </trkpt>
      <trkpt lat="43.22182" lon="5.47831">
        <ele>292.5</ele>
        <time>2025-10-18T12:18:58Z</time>
      </trkpt>
      <trkpt lat="43.22182" lon="5.4783">
        <ele>292.6</ele>
        <time>2025-10-18T12:18:59Z</time>
      </trkpt>
      <trkpt lat="43.22182" lon="5.47829">
        <ele>292.8</ele>
        <time>2025-10-18T12:19:00Z</time>
      </trkpt>
      <trkpt lat="43.22182" lon="5.47829">
        <ele>293</ele>
        <time>2025-10-18T12:19:01Z</time>
      </trkpt>
      <trkpt lat="43.22182" lon="5.47829">
        <ele>293.1</ele>
        <time>2025-10-18T12:19:02Z</time>
      </trkpt>
      <trkpt lat="43.22182" lon="5.47829">
        <ele>293.2</ele>
        <time>2025-10-18T12:19:03Z</time>
      </trkpt>
      <trkpt lat="43.22182" lon="5.47829">
        <ele>293.3</ele>
        <time>2025-10-18T12:19:04Z</time>
      </trkpt>
      <trkpt lat="43.22182" lon="5.47829">
        <ele>293.3</ele>
        <time>2025-10-18T12:19:05Z</time>
      </trkpt>
      <trkpt lat="43.22183" lon="5.47829">
        <ele>293.3</ele>
        <time>2025-10-18T12:19:06Z</time>
      </trkpt>
      <trkpt lat="43.22183" lon="5.47828">
        <ele>293.3</ele>
        <time>2025-10-18T12:19:07Z</time>
      </trkpt>
      <trkpt lat="43.22183" lon="5.47828">
        <ele>293.3</ele>
        <time>2025-10-18T12:19:08Z</time>
      </trkpt>
      <trkpt lat="43.22183" lon="5.47827">
        <ele>293.4</ele>
        <time>2025-10-18T12:19:09Z</time>
      </trkpt>
      <trkpt lat="43.22183" lon="5.47827">
        <ele>293.4</ele>
        <time>2025-10-18T12:19:10Z</time>
      </trkpt>
      <trkpt lat="43.22183" lon="5.47827">
        <ele>293.5</ele>
        <time>2025-10-18T12:19:11Z</time>
      </trkpt>
      <trkpt lat="43.22183" lon="5.47827">
        <ele>293.5</ele>
        <time>2025-10-18T12:19:12Z</time>
      </trkpt>
      <trkpt lat="43.22183" lon="5.47826">
        <ele>293.6</ele>
        <time>2025-10-18T12:19:13Z</time>
      </trkpt>
      <trkpt lat="43.22183" lon="5.47826">
        <ele>293.7</ele>
        <time>2025-10-18T12:19:14Z</time>
      </trkpt>
      <trkpt lat="43.22183" lon="5.47826">
        <ele>293.7</ele>
        <time>2025-10-18T12:19:15Z</time>
      </trkpt>
      <trkpt lat="43.22183" lon="5.47826">
        <ele>293.8</ele>
        <time>2025-10-18T12:19:16Z</time>
      </trkpt>
      <trkpt lat="43.22183" lon="5.47826">
        <ele>293.8</ele>
        <time>2025-10-18T12:19:17Z</time>
      </trkpt>
      <trkpt lat="43.22183" lon="5.47826">
        <ele>293.8</ele>
        <time>2025-10-18T12:19:18Z</time>
      </trkpt>
      <trkpt lat="43.22184" lon="5.47826">
        <ele>293.7</ele>
        <time>2025-10-18T12:19:19Z</time>
      </trkpt>
      <trkpt lat="43.22184" lon="5.47826">
        <ele>293.8</ele>
        <time>2025-10-18T12:19:20Z</time>
      </trkpt>
      <trkpt lat="43.22184" lon="5.47826">
        <ele>293.7</ele>
        <time>2025-10-18T12:19:21Z</time>
      </trkpt>
      <trkpt lat="43.22184" lon="5.47826">
        <ele>293.8</ele>
        <time>2025-10-18T12:19:22Z</time>
      </trkpt>
      <trkpt lat="43.22184" lon="5.47826">
        <ele>293.8</ele>
        <time>2025-10-18T12:19:23Z</time>
      </trkpt>
      <trkpt lat="43.22185" lon="5.47826">
        <ele>293.8</ele>
        <time>2025-10-18T12:19:24Z</time>
      </trkpt>
      <trkpt lat="43.22185" lon="5.47825">
        <ele>293.8</ele>
        <time>2025-10-18T12:19:25Z</time>
      </trkpt>
      <trkpt lat="43.22185" lon="5.47825">
        <ele>293.7</ele>
        <time>2025-10-18T12:19:26Z</time>
      </trkpt>
      <trkpt lat="43.22185" lon="5.47825">
        <ele>293.7</ele>
        <time>2025-10-18T12:19:27Z</time>
      </trkpt>
      <trkpt lat="43.22185" lon="5.47825">
        <ele>293.6</ele>
        <time>2025-10-18T12:19:28Z</time>
      </trkpt>
      <trkpt lat="43.22185" lon="5.47825">
        <ele>293.5</ele>
        <time>2025-10-18T12:19:29Z</time>
      </trkpt>
      <trkpt lat="43.22185" lon="5.47824">
        <ele>293.5</ele>
        <time>2025-10-18T12:19:30Z</time>
      </trkpt>
      <trkpt lat="43.22186" lon="5.47824">
        <ele>293.6</ele>
        <time>2025-10-18T12:19:31Z</time>
      </trkpt>
      <trkpt lat="43.22186" lon="5.47824">
        <ele>293.6</ele>
        <time>2025-10-18T12:19:32Z</time>
      </trkpt>
      <trkpt lat="43.22186" lon="5.47824">
        <ele>293.7</ele>
        <time>2025-10-18T12:19:33Z</time>
      </trkpt>
      <trkpt lat="43.22186" lon="5.47824">
        <ele>293.8</ele>
        <time>2025-10-18T12:19:34Z</time>
      </trkpt>
      <trkpt lat="43.22186" lon="5.47824">
        <ele>293.7</ele>
        <time>2025-10-18T12:19:35Z</time>
      </trkpt>
      <trkpt lat="43.22187" lon="5.47824">
        <ele>293.7</ele>
        <time>2025-10-18T12:19:36Z</time>
      </trkpt>
      <trkpt lat="43.22187" lon="5.47825">
        <ele>293.8</ele>
        <time>2025-10-18T12:19:37Z</time>
      </trkpt>
      <trkpt lat="43.22188" lon="5.47825">
        <ele>293.7</ele>
        <time>2025-10-18T12:19:38Z</time>
      </trkpt>
      <trkpt lat="43.22188" lon="5.47825">
        <ele>293.7</ele>
        <time>2025-10-18T12:19:39Z</time>
      </trkpt>
      <trkpt lat="43.22188" lon="5.47825">
        <ele>293.7</ele>
        <time>2025-10-18T12:19:40Z</time>
      </trkpt>
      <trkpt lat="43.22188" lon="5.47825">
        <ele>293.7</ele>
        <time>2025-10-18T12:19:41Z</time>
      </trkpt>
      <trkpt lat="43.22189" lon="5.47825">
        <ele>293.7</ele>
        <time>2025-10-18T12:19:42Z</time>
      </trkpt>
      <trkpt lat="43.22189" lon="5.47825">
        <ele>293.7</ele>
        <time>2025-10-18T12:19:43Z</time>
      </trkpt>
      <trkpt lat="43.22189" lon="5.47825">
        <ele>293.7</ele>
        <time>2025-10-18T12:19:44Z</time>
      </trkpt>
      <trkpt lat="43.22189" lon="5.47825">
        <ele>293.7</ele>
        <time>2025-10-18T12:19:45Z</time>
      </trkpt>
      <trkpt lat="43.22189" lon="5.47825">
        <ele>293.7</ele>
        <time>2025-10-18T12:19:46Z</time>
      </trkpt>
      <trkpt lat="43.22188" lon="5.47825">
        <ele>293.8</ele>
        <time>2025-10-18T12:19:47Z</time>
      </trkpt>
      <trkpt lat="43.22188" lon="5.47825">
        <ele>293.8</ele>
        <time>2025-10-18T12:19:48Z</time>
      </trkpt>
      <trkpt lat="43.22188" lon="5.47825">
        <ele>293.8</ele>
        <time>2025-10-18T12:19:49Z</time>
      </trkpt>
      <trkpt lat="43.22188" lon="5.47825">
        <ele>293.8</ele>
        <time>2025-10-18T12:19:50Z</time>
      </trkpt>
      <trkpt lat="43.22188" lon="5.47825">
        <ele>293.7</ele>
        <time>2025-10-18T12:19:51Z</time>
      </trkpt>
      <trkpt lat="43.22188" lon="5.47824">
        <ele>293.7</ele>
        <time>2025-10-18T12:19:52Z</time>
      </trkpt>
      <trkpt lat="43.22189" lon="5.47824">
        <ele>293.7</ele>
        <time>2025-10-18T12:19:53Z</time>
      </trkpt>
      <trkpt lat="43.22189" lon="5.47824">
        <ele>293.6</ele>
        <time>2025-10-18T12:19:54Z</time>
      </trkpt>
      <trkpt lat="43.22189" lon="5.47824">
        <ele>293.6</ele>
        <time>2025-10-18T12:19:55Z</time>
      </trkpt>
      <trkpt lat="43.22189" lon="5.47823">
        <ele>293.6</ele>
        <time>2025-10-18T12:19:56Z</time>
      </trkpt>
      <trkpt lat="43.2219" lon="5.47823">
        <ele>293.6</ele>
        <time>2025-10-18T12:19:57Z</time>
      </trkpt>
      <trkpt lat="43.2219" lon="5.47823">
        <ele>293.7</ele>
        <time>2025-10-18T12:19:58Z</time>
      </trkpt>
      <trkpt lat="43.2219" lon="5.47822">
        <ele>293.9</ele>
        <time>2025-10-18T12:19:59Z</time>
      </trkpt>
      <trkpt lat="43.22191" lon="5.47821">
        <ele>294</ele>
        <time>2025-10-18T12:20:00Z</time>
      </trkpt>
      <trkpt lat="43.22191" lon="5.47821">
        <ele>294.2</ele>
        <time>2025-10-18T12:20:01Z</time>
      </trkpt>
      <trkpt lat="43.22191" lon="5.4782">
        <ele>294.3</ele>
        <time>2025-10-18T12:20:02Z</time>
      </trkpt>
      <trkpt lat="43.22191" lon="5.47819">
        <ele>294.5</ele>
        <time>2025-10-18T12:20:03Z</time>
      </trkpt>
      <trkpt lat="43.22191" lon="5.47819">
        <ele>294.7</ele>
        <time>2025-10-18T12:20:04Z</time>
      </trkpt>
      <trkpt lat="43.22192" lon="5.47818">
        <ele>294.9</ele>
        <time>2025-10-18T12:20:05Z</time>
      </trkpt>
      <trkpt lat="43.22192" lon="5.47817">
        <ele>295</ele>
        <time>2025-10-18T12:20:06Z</time>
      </trkpt>
      <trkpt lat="43.22193" lon="5.47817">
        <ele>295.2</ele>
        <time>2025-10-18T12:20:07Z</time>
      </trkpt>
      <trkpt lat="43.22193" lon="5.47816">
        <ele>295.4</ele>
        <time>2025-10-18T12:20:08Z</time>
      </trkpt>
      <trkpt lat="43.22193" lon="5.47816">
        <ele>295.5</ele>
        <time>2025-10-18T12:20:09Z</time>
      </trkpt>
      <trkpt lat="43.22194" lon="5.47815">
        <ele>295.6</ele>
        <time>2025-10-18T12:20:10Z</time>
      </trkpt>
      <trkpt lat="43.22194" lon="5.47815">
        <ele>295.7</ele>
        <time>2025-10-18T12:20:11Z</time>
      </trkpt>
      <trkpt lat="43.22194" lon="5.47814">
        <ele>295.8</ele>
        <time>2025-10-18T12:20:12Z</time>
      </trkpt>
      <trkpt lat="43.22194" lon="5.47813">
        <ele>296</ele>
        <time>2025-10-18T12:20:13Z</time>
      </trkpt>
      <trkpt lat="43.22195" lon="5.47813">
        <ele>296.1</ele>
        <time>2025-10-18T12:20:14Z</time>
      </trkpt>
      <trkpt lat="43.22195" lon="5.47812">
        <ele>296.3</ele>
        <time>2025-10-18T12:20:15Z</time>
      </trkpt>
      <trkpt lat="43.22194" lon="5.47811">
        <ele>296.5</ele>
        <time>2025-10-18T12:20:16Z</time>
      </trkpt>
      <trkpt lat="43.22194" lon="5.47811">
        <ele>296.6</ele>
        <time>2025-10-18T12:20:17Z</time>
      </trkpt>
      <trkpt lat="43.22194" lon="5.47811">
        <ele>296.8</ele>
        <time>2025-10-18T12:20:18Z</time>
      </trkpt>
      <trkpt lat="43.22194" lon="5.4781">
        <ele>296.8</ele>
        <time>2025-10-18T12:20:19Z</time>
      </trkpt>
      <trkpt lat="43.22195" lon="5.47809">
        <ele>296.9</ele>
        <time>2025-10-18T12:20:20Z</time>
      </trkpt>
      <trkpt lat="43.22195" lon="5.47809">
        <ele>296.9</ele>
        <time>2025-10-18T12:20:21Z</time>
      </trkpt>
      <trkpt lat="43.22195" lon="5.47808">
        <ele>297</ele>
        <time>2025-10-18T12:20:22Z</time>
      </trkpt>
      <trkpt lat="43.22195" lon="5.47808">
        <ele>297.1</ele>
        <time>2025-10-18T12:20:23Z</time>
      </trkpt>
      <trkpt lat="43.22195" lon="5.47808">
        <ele>297.1</ele>
        <time>2025-10-18T12:20:24Z</time>
      </trkpt>
      <trkpt lat="43.22196" lon="5.47807">
        <ele>297.3</ele>
        <time>2025-10-18T12:20:25Z</time>
      </trkpt>
      <trkpt lat="43.22196" lon="5.47807">
        <ele>297.5</ele>
        <time>2025-10-18T12:20:26Z</time>
      </trkpt>
      <trkpt lat="43.22196" lon="5.47806">
        <ele>297.6</ele>
        <time>2025-10-18T12:20:27Z</time>
      </trkpt>
      <trkpt lat="43.22197" lon="5.47806">
        <ele>297.7</ele>
        <time>2025-10-18T12:20:28Z</time>
      </trkpt>
      <trkpt lat="43.22197" lon="5.47806">
        <ele>297.9</ele>
        <time>2025-10-18T12:20:29Z</time>
      </trkpt>
      <trkpt lat="43.22197" lon="5.47805">
        <ele>298.1</ele>
        <time>2025-10-18T12:20:30Z</time>
      </trkpt>
      <trkpt lat="43.22197" lon="5.47805">
        <ele>298.3</ele>
        <time>2025-10-18T12:20:31Z</time>
      </trkpt>
      <trkpt lat="43.22197" lon="5.47805">
        <ele>298.5</ele>
        <time>2025-10-18T12:20:32Z</time>
      </trkpt>
      <trkpt lat="43.22197" lon="5.47804">
        <ele>298.6</ele>
        <time>2025-10-18T12:20:33Z</time>
      </trkpt>
      <trkpt lat="43.22198" lon="5.47804">
        <ele>298.8</ele>
        <time>2025-10-18T12:20:34Z</time>
      </trkpt>
      <trkpt lat="43.22198" lon="5.47804">
        <ele>299</ele>
        <time>2025-10-18T12:20:35Z</time>
      </trkpt>
      <trkpt lat="43.22198" lon="5.47803">
        <ele>299.1</ele>
        <time>2025-10-18T12:20:36Z</time>
      </trkpt>
      <trkpt lat="43.22198" lon="5.47803">
        <ele>299.3</ele>
        <time>2025-10-18T12:20:37Z</time>
      </trkpt>
      <trkpt lat="43.22198" lon="5.47802">
        <ele>299.5</ele>
        <time>2025-10-18T12:20:38Z</time>
      </trkpt>
      <trkpt lat="43.22198" lon="5.47802">
        <ele>299.7</ele>
        <time>2025-10-18T12:20:39Z</time>
      </trkpt>
      <trkpt lat="43.22198" lon="5.47801">
        <ele>299.9</ele>
        <time>2025-10-18T12:20:40Z</time>
      </trkpt>
      <trkpt lat="43.22198" lon="5.47801">
        <ele>300.1</ele>
        <time>2025-10-18T12:20:41Z</time>
      </trkpt>
      <trkpt lat="43.22198" lon="5.47801">
        <ele>300.3</ele>
        <time>2025-10-18T12:20:42Z</time>
      </trkpt>
      <trkpt lat="43.22198" lon="5.47801">
        <ele>300.4</ele>
        <time>2025-10-18T12:20:43Z</time>
      </trkpt>
      <trkpt lat="43.22198" lon="5.478">
        <ele>300.7</ele>
        <time>2025-10-18T12:20:44Z</time>
      </trkpt>
      <trkpt lat="43.22198" lon="5.478">
        <ele>300.9</ele>
        <time>2025-10-18T12:20:45Z</time>
      </trkpt>
      <trkpt lat="43.22199" lon="5.478">
        <ele>301.1</ele>
        <time>2025-10-18T12:20:46Z</time>
      </trkpt>
      <trkpt lat="43.22199" lon="5.478">
        <ele>301.4</ele>
        <time>2025-10-18T12:20:47Z</time>
      </trkpt>
      <trkpt lat="43.22199" lon="5.47799">
        <ele>301.6</ele>
        <time>2025-10-18T12:20:48Z</time>
      </trkpt>
      <trkpt lat="43.22199" lon="5.47799">
        <ele>301.7</ele>
        <time>2025-10-18T12:20:49Z</time>
      </trkpt>
      <trkpt lat="43.22199" lon="5.47799">
        <ele>301.9</ele>
        <time>2025-10-18T12:20:50Z</time>
      </trkpt>
      <trkpt lat="43.22199" lon="5.47798">
        <ele>302</ele>
        <time>2025-10-18T12:20:51Z</time>
      </trkpt>
      <trkpt lat="43.222" lon="5.47798">
        <ele>302.2</ele>
        <time>2025-10-18T12:20:52Z</time>
      </trkpt>
      <trkpt lat="43.222" lon="5.47798">
        <ele>302.4</ele>
        <time>2025-10-18T12:20:53Z</time>
      </trkpt>
      <trkpt lat="43.222" lon="5.47798">
        <ele>302.7</ele>
        <time>2025-10-18T12:20:54Z</time>
      </trkpt>
      <trkpt lat="43.222" lon="5.47797">
        <ele>302.9</ele>
        <time>2025-10-18T12:20:55Z</time>
      </trkpt>
      <trkpt lat="43.222" lon="5.47797">
        <ele>303.1</ele>
        <time>2025-10-18T12:20:56Z</time>
      </trkpt>
      <trkpt lat="43.222" lon="5.47796">
        <ele>303.3</ele>
        <time>2025-10-18T12:20:57Z</time>
      </trkpt>
      <trkpt lat="43.222" lon="5.47796">
        <ele>303.5</ele>
        <time>2025-10-18T12:20:58Z</time>
      </trkpt>
      <trkpt lat="43.22201" lon="5.47796">
        <ele>303.7</ele>
        <time>2025-10-18T12:20:59Z</time>
      </trkpt>
      <trkpt lat="43.22201" lon="5.47795">
        <ele>303.8</ele>
        <time>2025-10-18T12:21:00Z</time>
      </trkpt>
      <trkpt lat="43.22201" lon="5.47795">
        <ele>304</ele>
        <time>2025-10-18T12:21:01Z</time>
      </trkpt>
      <trkpt lat="43.22201" lon="5.47794">
        <ele>304.2</ele>
        <time>2025-10-18T12:21:02Z</time>
      </trkpt>
      <trkpt lat="43.22201" lon="5.47793">
        <ele>304.3</ele>
        <time>2025-10-18T12:21:03Z</time>
      </trkpt>
      <trkpt lat="43.22201" lon="5.47792">
        <ele>304.5</ele>
        <time>2025-10-18T12:21:04Z</time>
      </trkpt>
      <trkpt lat="43.22201" lon="5.47792">
        <ele>304.7</ele>
        <time>2025-10-18T12:21:05Z</time>
      </trkpt>
      <trkpt lat="43.22201" lon="5.47792">
        <ele>304.9</ele>
        <time>2025-10-18T12:21:06Z</time>
      </trkpt>
      <trkpt lat="43.22201" lon="5.47792">
        <ele>305</ele>
        <time>2025-10-18T12:21:07Z</time>
      </trkpt>
      <trkpt lat="43.22201" lon="5.47791">
        <ele>305.1</ele>
        <time>2025-10-18T12:21:08Z</time>
      </trkpt>
      <trkpt lat="43.22201" lon="5.4779">
        <ele>305.1</ele>
        <time>2025-10-18T12:21:09Z</time>
      </trkpt>
      <trkpt lat="43.22202" lon="5.47791">
        <ele>305.2</ele>
        <time>2025-10-18T12:21:10Z</time>
      </trkpt>
      <trkpt lat="43.22202" lon="5.47791">
        <ele>305.3</ele>
        <time>2025-10-18T12:21:11Z</time>
      </trkpt>
      <trkpt lat="43.22202" lon="5.47791">
        <ele>305.3</ele>
        <time>2025-10-18T12:21:12Z</time>
      </trkpt>
      <trkpt lat="43.22202" lon="5.47791">
        <ele>305.4</ele>
        <time>2025-10-18T12:21:13Z</time>
      </trkpt>
      <trkpt lat="43.22201" lon="5.47791">
        <ele>305.4</ele>
        <time>2025-10-18T12:21:14Z</time>
      </trkpt>
      <trkpt lat="43.22201" lon="5.47791">
        <ele>305.5</ele>
        <time>2025-10-18T12:21:15Z</time>
      </trkpt>
      <trkpt lat="43.22201" lon="5.4779">
        <ele>305.5</ele>
        <time>2025-10-18T12:21:16Z</time>
      </trkpt>
      <trkpt lat="43.22201" lon="5.4779">
        <ele>305.5</ele>
        <time>2025-10-18T12:21:17Z</time>
      </trkpt>
      <trkpt lat="43.22201" lon="5.4779">
        <ele>305.6</ele>
        <time>2025-10-18T12:21:18Z</time>
      </trkpt>
      <trkpt lat="43.22201" lon="5.4779">
        <ele>305.7</ele>
        <time>2025-10-18T12:21:19Z</time>
      </trkpt>
      <trkpt lat="43.22201" lon="5.4779">
        <ele>305.8</ele>
        <time>2025-10-18T12:21:20Z</time>
      </trkpt>
      <trkpt lat="43.22201" lon="5.4779">
        <ele>305.9</ele>
        <time>2025-10-18T12:21:21Z</time>
      </trkpt>
      <trkpt lat="43.22201" lon="5.4779">
        <ele>306</ele>
        <time>2025-10-18T12:21:22Z</time>
      </trkpt>
      <trkpt lat="43.22201" lon="5.47789">
        <ele>306.1</ele>
        <time>2025-10-18T12:21:23Z</time>
      </trkpt>
      <trkpt lat="43.22201" lon="5.47789">
        <ele>306.3</ele>
        <time>2025-10-18T12:21:24Z</time>
      </trkpt>
      <trkpt lat="43.22202" lon="5.47789">
        <ele>306.3</ele>
        <time>2025-10-18T12:21:25Z</time>
      </trkpt>
      <trkpt lat="43.22202" lon="5.47789">
        <ele>306.5</ele>
        <time>2025-10-18T12:21:26Z</time>
      </trkpt>
      <trkpt lat="43.22202" lon="5.47789">
        <ele>306.7</ele>
        <time>2025-10-18T12:21:27Z</time>
      </trkpt>
      <trkpt lat="43.22202" lon="5.47789">
        <ele>306.9</ele>
        <time>2025-10-18T12:21:28Z</time>
      </trkpt>
      <trkpt lat="43.22202" lon="5.47789">
        <ele>307</ele>
        <time>2025-10-18T12:21:29Z</time>
      </trkpt>
      <trkpt lat="43.22202" lon="5.47789">
        <ele>307</ele>
        <time>2025-10-18T12:21:30Z</time>
      </trkpt>
      <trkpt lat="43.22202" lon="5.47789">
        <ele>307</ele>
        <time>2025-10-18T12:21:31Z</time>
      </trkpt>
      <trkpt lat="43.22202" lon="5.47789">
        <ele>307.1</ele>
        <time>2025-10-18T12:21:32Z</time>
      </trkpt>
      <trkpt lat="43.22202" lon="5.47789">
        <ele>307.1</ele>
        <time>2025-10-18T12:21:33Z</time>
      </trkpt>
      <trkpt lat="43.22202" lon="5.47788">
        <ele>307.1</ele>
        <time>2025-10-18T12:21:34Z</time>
      </trkpt>
      <trkpt lat="43.22202" lon="5.47788">
        <ele>307.1</ele>
        <time>2025-10-18T12:21:35Z</time>
      </trkpt>
      <trkpt lat="43.22202" lon="5.47787">
        <ele>307.2</ele>
        <time>2025-10-18T12:21:36Z</time>
      </trkpt>
      <trkpt lat="43.22202" lon="5.47787">
        <ele>307.3</ele>
        <time>2025-10-18T12:21:37Z</time>
      </trkpt>
      <trkpt lat="43.22202" lon="5.47786">
        <ele>307.4</ele>
        <time>2025-10-18T12:21:38Z</time>
      </trkpt>
      <trkpt lat="43.22202" lon="5.47786">
        <ele>307.6</ele>
        <time>2025-10-18T12:21:39Z</time>
      </trkpt>
      <trkpt lat="43.22202" lon="5.47786">
        <ele>307.7</ele>
        <time>2025-10-18T12:21:40Z</time>
      </trkpt>
      <trkpt lat="43.22202" lon="5.47786">
        <ele>307.8</ele>
        <time>2025-10-18T12:21:41Z</time>
      </trkpt>
      <trkpt lat="43.22202" lon="5.47785">
        <ele>308</ele>
        <time>2025-10-18T12:21:42Z</time>
      </trkpt>
      <trkpt lat="43.22202" lon="5.47785">
        <ele>308</ele>
        <time>2025-10-18T12:21:43Z</time>
      </trkpt>
      <trkpt lat="43.22202" lon="5.47784">
        <ele>308.1</ele>
        <time>2025-10-18T12:21:44Z</time>
      </trkpt>
      <trkpt lat="43.22202" lon="5.47784">
        <ele>308.2</ele>
        <time>2025-10-18T12:21:45Z</time>
      </trkpt>
      <trkpt lat="43.22202" lon="5.47784">
        <ele>308.4</ele>
        <time>2025-10-18T12:21:46Z</time>
      </trkpt>
      <trkpt lat="43.22202" lon="5.47783">
        <ele>308.7</ele>
        <time>2025-10-18T12:21:47Z</time>
      </trkpt>
      <trkpt lat="43.22202" lon="5.47783">
        <ele>308.9</ele>
        <time>2025-10-18T12:21:48Z</time>
      </trkpt>
      <trkpt lat="43.22202" lon="5.47783">
        <ele>309.1</ele>
        <time>2025-10-18T12:21:49Z</time>
      </trkpt>
      <trkpt lat="43.22203" lon="5.47782">
        <ele>309.1</ele>
        <time>2025-10-18T12:21:50Z</time>
      </trkpt>
      <trkpt lat="43.22203" lon="5.47782">
        <ele>309.2</ele>
        <time>2025-10-18T12:21:51Z</time>
      </trkpt>
      <trkpt lat="43.22203" lon="5.47781">
        <ele>309.4</ele>
        <time>2025-10-18T12:21:52Z</time>
      </trkpt>
      <trkpt lat="43.22203" lon="5.47781">
        <ele>309.6</ele>
        <time>2025-10-18T12:21:53Z</time>
      </trkpt>
      <trkpt lat="43.22203" lon="5.4778">
        <ele>309.8</ele>
        <time>2025-10-18T12:21:54Z</time>
      </trkpt>
      <trkpt lat="43.22203" lon="5.4778">
        <ele>310</ele>
        <time>2025-10-18T12:21:55Z</time>
      </trkpt>
      <trkpt lat="43.22203" lon="5.4778">
        <ele>310.1</ele>
        <time>2025-10-18T12:21:56Z</time>
      </trkpt>
      <trkpt lat="43.22203" lon="5.4778">
        <ele>310.2</ele>
        <time>2025-10-18T12:21:57Z</time>
      </trkpt>
      <trkpt lat="43.22202" lon="5.4778">
        <ele>310.4</ele>
        <time>2025-10-18T12:21:58Z</time>
      </trkpt>
      <trkpt lat="43.22203" lon="5.4778">
        <ele>310.5</ele>
        <time>2025-10-18T12:21:59Z</time>
      </trkpt>
      <trkpt lat="43.22203" lon="5.4778">
        <ele>310.7</ele>
        <time>2025-10-18T12:22:00Z</time>
      </trkpt>
      <trkpt lat="43.22203" lon="5.4778">
        <ele>310.9</ele>
        <time>2025-10-18T12:22:01Z</time>
      </trkpt>
      <trkpt lat="43.22203" lon="5.4778">
        <ele>311.2</ele>
        <time>2025-10-18T12:22:02Z</time>
      </trkpt>
      <trkpt lat="43.22203" lon="5.4778">
        <ele>311.5</ele>
        <time>2025-10-18T12:22:03Z</time>
      </trkpt>
      <trkpt lat="43.22203" lon="5.4778">
        <ele>311.6</ele>
        <time>2025-10-18T12:22:04Z</time>
      </trkpt>
      <trkpt lat="43.22203" lon="5.47779">
        <ele>311.7</ele>
        <time>2025-10-18T12:22:05Z</time>
      </trkpt>
      <trkpt lat="43.22203" lon="5.47778">
        <ele>311.9</ele>
        <time>2025-10-18T12:22:06Z</time>
      </trkpt>
      <trkpt lat="43.22203" lon="5.47778">
        <ele>312</ele>
        <time>2025-10-18T12:22:07Z</time>
      </trkpt>
      <trkpt lat="43.22203" lon="5.47778">
        <ele>312.1</ele>
        <time>2025-10-18T12:22:08Z</time>
      </trkpt>
      <trkpt lat="43.22203" lon="5.47778">
        <ele>312.2</ele>
        <time>2025-10-18T12:22:09Z</time>
      </trkpt>
      <trkpt lat="43.22203" lon="5.47777">
        <ele>312.4</ele>
        <time>2025-10-18T12:22:10Z</time>
      </trkpt>
      <trkpt lat="43.22202" lon="5.47777">
        <ele>312.5</ele>
        <time>2025-10-18T12:22:11Z</time>
      </trkpt>
      <trkpt lat="43.22202" lon="5.47777">
        <ele>312.6</ele>
        <time>2025-10-18T12:22:12Z</time>
      </trkpt>
      <trkpt lat="43.22202" lon="5.47777">
        <ele>312.6</ele>
        <time>2025-10-18T12:22:13Z</time>
      </trkpt>
      <trkpt lat="43.22202" lon="5.47776">
        <ele>312.5</ele>
        <time>2025-10-18T12:22:14Z</time>
      </trkpt>
      <trkpt lat="43.22202" lon="5.47775">
        <ele>312.4</ele>
        <time>2025-10-18T12:22:15Z</time>
      </trkpt>
      <trkpt lat="43.22202" lon="5.47775">
        <ele>312.4</ele>
        <time>2025-10-18T12:22:16Z</time>
      </trkpt>
      <trkpt lat="43.22202" lon="5.47775">
        <ele>312.5</ele>
        <time>2025-10-18T12:22:17Z</time>
      </trkpt>
      <trkpt lat="43.22202" lon="5.47774">
        <ele>312.5</ele>
        <time>2025-10-18T12:22:18Z</time>
      </trkpt>
      <trkpt lat="43.22201" lon="5.47774">
        <ele>312.6</ele>
        <time>2025-10-18T12:22:19Z</time>
      </trkpt>
      <trkpt lat="43.22201" lon="5.47773">
        <ele>312.6</ele>
        <time>2025-10-18T12:22:20Z</time>
      </trkpt>
      <trkpt lat="43.22201" lon="5.47772">
        <ele>312.7</ele>
        <time>2025-10-18T12:22:21Z</time>
      </trkpt>
      <trkpt lat="43.222" lon="5.47772">
        <ele>312.8</ele>
        <time>2025-10-18T12:22:22Z</time>
      </trkpt>
      <trkpt lat="43.222" lon="5.47772">
        <ele>312.9</ele>
        <time>2025-10-18T12:22:23Z</time>
      </trkpt>
      <trkpt lat="43.222" lon="5.47772">
        <ele>313</ele>
        <time>2025-10-18T12:22:24Z</time>
      </trkpt>
      <trkpt lat="43.222" lon="5.47771">
        <ele>313</ele>
        <time>2025-10-18T12:22:25Z</time>
      </trkpt>
      <trkpt lat="43.222" lon="5.47771">
        <ele>313.1</ele>
        <time>2025-10-18T12:22:26Z</time>
      </trkpt>
      <trkpt lat="43.222" lon="5.47771">
        <ele>313.2</ele>
        <time>2025-10-18T12:22:27Z</time>
      </trkpt>
      <trkpt lat="43.222" lon="5.47771">
        <ele>313.3</ele>
        <time>2025-10-18T12:22:28Z</time>
      </trkpt>
      <trkpt lat="43.22199" lon="5.47771">
        <ele>313.4</ele>
        <time>2025-10-18T12:22:29Z</time>
      </trkpt>
      <trkpt lat="43.22199" lon="5.47772">
        <ele>313.5</ele>
        <time>2025-10-18T12:22:30Z</time>
      </trkpt>
      <trkpt lat="43.222" lon="5.47772">
        <ele>313.6</ele>
        <time>2025-10-18T12:22:31Z</time>
      </trkpt>
      <trkpt lat="43.222" lon="5.47771">
        <ele>313.6</ele>
        <time>2025-10-18T12:22:32Z</time>
      </trkpt>
      <trkpt lat="43.222" lon="5.47771">
        <ele>313.6</ele>
        <time>2025-10-18T12:22:33Z</time>
      </trkpt>
      <trkpt lat="43.222" lon="5.47771">
        <ele>313.6</ele>
        <time>2025-10-18T12:22:34Z</time>
      </trkpt>
      <trkpt lat="43.22199" lon="5.4777">
        <ele>313.7</ele>
        <time>2025-10-18T12:22:35Z</time>
      </trkpt>
      <trkpt lat="43.22199" lon="5.4777">
        <ele>313.8</ele>
        <time>2025-10-18T12:22:36Z</time>
      </trkpt>
      <trkpt lat="43.22199" lon="5.4777">
        <ele>313.8</ele>
        <time>2025-10-18T12:22:37Z</time>
      </trkpt>
      <trkpt lat="43.22199" lon="5.4777">
        <ele>313.8</ele>
        <time>2025-10-18T12:22:38Z</time>
      </trkpt>
      <trkpt lat="43.22198" lon="5.4777">
        <ele>313.8</ele>
        <time>2025-10-18T12:22:39Z</time>
      </trkpt>
      <trkpt lat="43.22198" lon="5.4777">
        <ele>313.7</ele>
        <time>2025-10-18T12:22:40Z</time>
      </trkpt>
      <trkpt lat="43.22198" lon="5.4777">
        <ele>313.7</ele>
        <time>2025-10-18T12:22:41Z</time>
      </trkpt>
      <trkpt lat="43.22198" lon="5.4777">
        <ele>313.8</ele>
        <time>2025-10-18T12:22:42Z</time>
      </trkpt>
      <trkpt lat="43.22198" lon="5.4777">
        <ele>313.9</ele>
        <time>2025-10-18T12:22:43Z</time>
      </trkpt>
      <trkpt lat="43.22198" lon="5.47769">
        <ele>313.9</ele>
        <time>2025-10-18T12:22:44Z</time>
      </trkpt>
      <trkpt lat="43.22198" lon="5.4777">
        <ele>313.9</ele>
        <time>2025-10-18T12:22:45Z</time>
      </trkpt>
      <trkpt lat="43.22198" lon="5.4777">
        <ele>314</ele>
        <time>2025-10-18T12:22:46Z</time>
      </trkpt>
      <trkpt lat="43.22198" lon="5.4777">
        <ele>314.1</ele>
        <time>2025-10-18T12:22:47Z</time>
      </trkpt>
      <trkpt lat="43.22198" lon="5.47769">
        <ele>314.2</ele>
        <time>2025-10-18T12:22:48Z</time>
      </trkpt>
      <trkpt lat="43.22198" lon="5.47769">
        <ele>314.2</ele>
        <time>2025-10-18T12:22:49Z</time>
      </trkpt>
      <trkpt lat="43.22198" lon="5.47768">
        <ele>314.4</ele>
        <time>2025-10-18T12:22:50Z</time>
      </trkpt>
      <trkpt lat="43.22198" lon="5.47768">
        <ele>314.5</ele>
        <time>2025-10-18T12:22:51Z</time>
      </trkpt>
      <trkpt lat="43.22198" lon="5.47768">
        <ele>314.6</ele>
        <time>2025-10-18T12:22:52Z</time>
      </trkpt>
      <trkpt lat="43.22198" lon="5.47768">
        <ele>314.6</ele>
        <time>2025-10-18T12:22:53Z</time>
      </trkpt>
      <trkpt lat="43.22197" lon="5.47768">
        <ele>314.6</ele>
        <time>2025-10-18T12:22:54Z</time>
      </trkpt>
      <trkpt lat="43.22197" lon="5.47768">
        <ele>314.6</ele>
        <time>2025-10-18T12:22:55Z</time>
      </trkpt>
      <trkpt lat="43.22197" lon="5.47768">
        <ele>314.6</ele>
        <time>2025-10-18T12:22:56Z</time>
      </trkpt>
      <trkpt lat="43.22197" lon="5.47768">
        <ele>314.5</ele>
        <time>2025-10-18T12:22:57Z</time>
      </trkpt>
      <trkpt lat="43.22197" lon="5.47767">
        <ele>314.5</ele>
        <time>2025-10-18T12:22:58Z</time>
      </trkpt>
      <trkpt lat="43.22197" lon="5.47767">
        <ele>314.6</ele>
        <time>2025-10-18T12:22:59Z</time>
      </trkpt>
      <trkpt lat="43.22197" lon="5.47767">
        <ele>314.6</ele>
        <time>2025-10-18T12:23:00Z</time>
      </trkpt>
      <trkpt lat="43.22197" lon="5.47767">
        <ele>314.7</ele>
        <time>2025-10-18T12:23:01Z</time>
      </trkpt>
      <trkpt lat="43.22196" lon="5.47767">
        <ele>314.7</ele>
        <time>2025-10-18T12:23:02Z</time>
      </trkpt>
      <trkpt lat="43.22196" lon="5.47766">
        <ele>314.7</ele>
        <time>2025-10-18T12:23:03Z</time>
      </trkpt>
      <trkpt lat="43.22196" lon="5.47766">
        <ele>314.7</ele>
        <time>2025-10-18T12:23:04Z</time>
      </trkpt>
      <trkpt lat="43.22196" lon="5.47767">
        <ele>314.7</ele>
        <time>2025-10-18T12:23:05Z</time>
      </trkpt>
      <trkpt lat="43.22196" lon="5.47767">
        <ele>314.8</ele>
        <time>2025-10-18T12:23:06Z</time>
      </trkpt>
      <trkpt lat="43.22197" lon="5.47766">
        <ele>314.9</ele>
        <time>2025-10-18T12:23:07Z</time>
      </trkpt>
      <trkpt lat="43.22197" lon="5.47766">
        <ele>314.9</ele>
        <time>2025-10-18T12:23:08Z</time>
      </trkpt>
      <trkpt lat="43.22197" lon="5.47766">
        <ele>315</ele>
        <time>2025-10-18T12:23:09Z</time>
      </trkpt>
      <trkpt lat="43.22197" lon="5.47766">
        <ele>315</ele>
        <time>2025-10-18T12:23:10Z</time>
      </trkpt>
      <trkpt lat="43.22197" lon="5.47766">
        <ele>315.1</ele>
        <time>2025-10-18T12:23:11Z</time>
      </trkpt>
      <trkpt lat="43.22197" lon="5.47766">
        <ele>315.1</ele>
        <time>2025-10-18T12:23:12Z</time>
      </trkpt>
      <trkpt lat="43.22197" lon="5.47766">
        <ele>315.1</ele>
        <time>2025-10-18T12:23:13Z</time>
      </trkpt>
      <trkpt lat="43.22197" lon="5.47766">
        <ele>315.1</ele>
        <time>2025-10-18T12:23:14Z</time>
      </trkpt>
      <trkpt lat="43.22197" lon="5.47766">
        <ele>315.2</ele>
        <time>2025-10-18T12:23:15Z</time>
      </trkpt>
      <trkpt lat="43.22196" lon="5.47766">
        <ele>315.2</ele>
        <time>2025-10-18T12:23:16Z</time>
      </trkpt>
      <trkpt lat="43.22196" lon="5.47766">
        <ele>315.2</ele>
        <time>2025-10-18T12:23:17Z</time>
      </trkpt>
      <trkpt lat="43.22196" lon="5.47766">
        <ele>315.2</ele>
        <time>2025-10-18T12:23:18Z</time>
      </trkpt>
      <trkpt lat="43.22196" lon="5.47765">
        <ele>315.1</ele>
        <time>2025-10-18T12:23:19Z</time>
      </trkpt>
      <trkpt lat="43.22196" lon="5.47765">
        <ele>315.1</ele>
        <time>2025-10-18T12:23:20Z</time>
      </trkpt>
      <trkpt lat="43.22196" lon="5.47765">
        <ele>315.1</ele>
        <time>2025-10-18T12:23:21Z</time>
      </trkpt>
      <trkpt lat="43.22196" lon="5.47765">
        <ele>315.1</ele>
        <time>2025-10-18T12:23:22Z</time>
      </trkpt>
      <trkpt lat="43.22196" lon="5.47765">
        <ele>315.1</ele>
        <time>2025-10-18T12:23:23Z</time>
      </trkpt>
      <trkpt lat="43.22196" lon="5.47765">
        <ele>315.1</ele>
        <time>2025-10-18T12:23:24Z</time>
      </trkpt>
      <trkpt lat="43.22196" lon="5.47765">
        <ele>315.1</ele>
        <time>2025-10-18T12:23:25Z</time>
      </trkpt>
      <trkpt lat="43.22196" lon="5.47765">
        <ele>315.2</ele>
        <time>2025-10-18T12:23:26Z</time>
      </trkpt>
      <trkpt lat="43.22196" lon="5.47764">
        <ele>315.2</ele>
        <time>2025-10-18T12:23:27Z</time>
      </trkpt>
      <trkpt lat="43.22195" lon="5.47764">
        <ele>315.2</ele>
        <time>2025-10-18T12:23:28Z</time>
      </trkpt>
      <trkpt lat="43.22195" lon="5.47764">
        <ele>315.2</ele>
        <time>2025-10-18T12:23:29Z</time>
      </trkpt>
      <trkpt lat="43.22195" lon="5.47765">
        <ele>315.2</ele>
        <time>2025-10-18T12:23:30Z</time>
      </trkpt>
      <trkpt lat="43.22195" lon="5.47765">
        <ele>315.2</ele>
        <time>2025-10-18T12:23:31Z</time>
      </trkpt>
      <trkpt lat="43.22195" lon="5.47765">
        <ele>315.2</ele>
        <time>2025-10-18T12:23:32Z</time>
      </trkpt>
      <trkpt lat="43.22195" lon="5.47765">
        <ele>315.2</ele>
        <time>2025-10-18T12:23:33Z</time>
      </trkpt>
      <trkpt lat="43.22195" lon="5.47765">
        <ele>315.2</ele>
        <time>2025-10-18T12:23:34Z</time>
      </trkpt>
      <trkpt lat="43.22195" lon="5.47765">
        <ele>315.2</ele>
        <time>2025-10-18T12:23:35Z</time>
      </trkpt>
      <trkpt lat="43.22196" lon="5.47766">
        <ele>315.3</ele>
        <time>2025-10-18T12:23:36Z</time>
      </trkpt>
      <trkpt lat="43.22196" lon="5.47766">
        <ele>315.3</ele>
        <time>2025-10-18T12:23:37Z</time>
      </trkpt>
      <trkpt lat="43.22196" lon="5.47765">
        <ele>315.4</ele>
        <time>2025-10-18T12:23:38Z</time>
      </trkpt>
      <trkpt lat="43.22196" lon="5.47766">
        <ele>315.4</ele>
        <time>2025-10-18T12:23:39Z</time>
      </trkpt>
      <trkpt lat="43.22196" lon="5.47766">
        <ele>315.5</ele>
        <time>2025-10-18T12:23:40Z</time>
      </trkpt>
      <trkpt lat="43.22196" lon="5.47766">
        <ele>315.5</ele>
        <time>2025-10-18T12:23:41Z</time>
      </trkpt>
      <trkpt lat="43.22196" lon="5.47766">
        <ele>315.5</ele>
        <time>2025-10-18T12:23:42Z</time>
      </trkpt>
      <trkpt lat="43.22196" lon="5.47765">
        <ele>315.6</ele>
        <time>2025-10-18T12:23:43Z</time>
      </trkpt>
      <trkpt lat="43.22196" lon="5.47765">
        <ele>315.6</ele>
        <time>2025-10-18T12:23:44Z</time>
      </trkpt>
      <trkpt lat="43.22196" lon="5.47765">
        <ele>315.6</ele>
        <time>2025-10-18T12:23:45Z</time>
      </trkpt>
      <trkpt lat="43.22196" lon="5.47765">
        <ele>315.6</ele>
        <time>2025-10-18T12:23:46Z</time>
      </trkpt>
      <trkpt lat="43.22196" lon="5.47765">
        <ele>315.6</ele>
        <time>2025-10-18T12:23:47Z</time>
      </trkpt>
      <trkpt lat="43.22196" lon="5.47765">
        <ele>315.6</ele>
        <time>2025-10-18T12:23:48Z</time>
      </trkpt>
      <trkpt lat="43.22196" lon="5.47765">
        <ele>315.7</ele>
        <time>2025-10-18T12:23:49Z</time>
      </trkpt>
      <trkpt lat="43.22196" lon="5.47765">
        <ele>315.7</ele>
        <time>2025-10-18T12:23:50Z</time>
      </trkpt>
      <trkpt lat="43.22196" lon="5.47765">
        <ele>315.6</ele>
        <time>2025-10-18T12:23:51Z</time>
      </trkpt>
      <trkpt lat="43.22196" lon="5.47765">
        <ele>315.6</ele>
        <time>2025-10-18T12:23:52Z</time>
      </trkpt>
      <trkpt lat="43.22196" lon="5.47764">
        <ele>315.5</ele>
        <time>2025-10-18T12:23:53Z</time>
      </trkpt>
      <trkpt lat="43.22196" lon="5.47764">
        <ele>315.5</ele>
        <time>2025-10-18T12:23:54Z</time>
      </trkpt>
      <trkpt lat="43.22196" lon="5.47764">
        <ele>315.5</ele>
        <time>2025-10-18T12:23:55Z</time>
      </trkpt>
      <trkpt lat="43.22196" lon="5.47764">
        <ele>315.4</ele>
        <time>2025-10-18T12:23:56Z</time>
      </trkpt>
      <trkpt lat="43.22196" lon="5.47765">
        <ele>315.4</ele>
        <time>2025-10-18T12:23:57Z</time>
      </trkpt>
      <trkpt lat="43.22196" lon="5.47765">
        <ele>315.4</ele>
        <time>2025-10-18T12:23:58Z</time>
      </trkpt>
      <trkpt lat="43.22196" lon="5.47765">
        <ele>315.4</ele>
        <time>2025-10-18T12:23:59Z</time>
      </trkpt>
      <trkpt lat="43.22196" lon="5.47765">
        <ele>315.4</ele>
        <time>2025-10-18T12:24:00Z</time>
      </trkpt>
      <trkpt lat="43.22196" lon="5.47764">
        <ele>315.5</ele>
        <time>2025-10-18T12:24:01Z</time>
      </trkpt>
      <trkpt lat="43.22196" lon="5.47764">
        <ele>315.6</ele>
        <time>2025-10-18T12:24:02Z</time>
      </trkpt>
      <trkpt lat="43.22196" lon="5.47764">
        <ele>315.7</ele>
        <time>2025-10-18T12:24:03Z</time>
      </trkpt>
      <trkpt lat="43.22196" lon="5.47764">
        <ele>315.7</ele>
        <time>2025-10-18T12:24:04Z</time>
      </trkpt>
      <trkpt lat="43.22196" lon="5.47764">
        <ele>315.7</ele>
        <time>2025-10-18T12:24:05Z</time>
      </trkpt>
      <trkpt lat="43.22196" lon="5.47764">
        <ele>315.8</ele>
        <time>2025-10-18T12:24:06Z</time>
      </trkpt>
      <trkpt lat="43.22196" lon="5.47764">
        <ele>315.8</ele>
        <time>2025-10-18T12:24:07Z</time>
      </trkpt>
      <trkpt lat="43.22196" lon="5.47763">
        <ele>315.7</ele>
        <time>2025-10-18T12:24:08Z</time>
      </trkpt>
      <trkpt lat="43.22196" lon="5.47763">
        <ele>315.8</ele>
        <time>2025-10-18T12:24:09Z</time>
      </trkpt>
      <trkpt lat="43.22196" lon="5.47763">
        <ele>315.8</ele>
        <time>2025-10-18T12:24:10Z</time>
      </trkpt>
      <trkpt lat="43.22196" lon="5.47763">
        <ele>315.9</ele>
        <time>2025-10-18T12:24:11Z</time>
      </trkpt>
      <trkpt lat="43.22196" lon="5.47763">
        <ele>315.9</ele>
        <time>2025-10-18T12:24:12Z</time>
      </trkpt>
      <trkpt lat="43.22196" lon="5.47763">
        <ele>315.9</ele>
        <time>2025-10-18T12:24:13Z</time>
      </trkpt>
      <trkpt lat="43.22196" lon="5.47763">
        <ele>316</ele>
        <time>2025-10-18T12:24:14Z</time>
      </trkpt>
      <trkpt lat="43.22196" lon="5.47763">
        <ele>316</ele>
        <time>2025-10-18T12:24:15Z</time>
      </trkpt>
      <trkpt lat="43.22196" lon="5.47763">
        <ele>316</ele>
        <time>2025-10-18T12:24:16Z</time>
      </trkpt>
      <trkpt lat="43.22196" lon="5.47763">
        <ele>316</ele>
        <time>2025-10-18T12:24:17Z</time>
      </trkpt>
      <trkpt lat="43.22196" lon="5.47763">
        <ele>316.1</ele>
        <time>2025-10-18T12:24:18Z</time>
      </trkpt>
      <trkpt lat="43.22197" lon="5.47763">
        <ele>316.2</ele>
        <time>2025-10-18T12:24:19Z</time>
      </trkpt>
      <trkpt lat="43.22197" lon="5.47763">
        <ele>316.2</ele>
        <time>2025-10-18T12:24:20Z</time>
      </trkpt>
      <trkpt lat="43.22197" lon="5.47763">
        <ele>316.2</ele>
        <time>2025-10-18T12:24:21Z</time>
      </trkpt>
      <trkpt lat="43.22197" lon="5.47763">
        <ele>316.2</ele>
        <time>2025-10-18T12:24:22Z</time>
      </trkpt>
      <trkpt lat="43.22197" lon="5.47763">
        <ele>316.2</ele>
        <time>2025-10-18T12:24:23Z</time>
      </trkpt>
      <trkpt lat="43.22197" lon="5.47763">
        <ele>316.2</ele>
        <time>2025-10-18T12:24:24Z</time>
      </trkpt>
      <trkpt lat="43.22197" lon="5.47763">
        <ele>316.2</ele>
        <time>2025-10-18T12:24:25Z</time>
      </trkpt>
      <trkpt lat="43.22197" lon="5.47763">
        <ele>316.2</ele>
        <time>2025-10-18T12:24:26Z</time>
      </trkpt>
      <trkpt lat="43.22197" lon="5.47763">
        <ele>316.3</ele>
        <time>2025-10-18T12:24:27Z</time>
      </trkpt>
      <trkpt lat="43.22197" lon="5.47763">
        <ele>316.2</ele>
        <time>2025-10-18T12:24:28Z</time>
      </trkpt>
      <trkpt lat="43.22197" lon="5.47763">
        <ele>316.2</ele>
        <time>2025-10-18T12:24:29Z</time>
      </trkpt>
      <trkpt lat="43.22197" lon="5.47764">
        <ele>316.1</ele>
        <time>2025-10-18T12:24:30Z</time>
      </trkpt>
      <trkpt lat="43.22197" lon="5.47764">
        <ele>316.1</ele>
        <time>2025-10-18T12:24:31Z</time>
      </trkpt>
      <trkpt lat="43.22197" lon="5.47764">
        <ele>316.1</ele>
        <time>2025-10-18T12:24:32Z</time>
      </trkpt>
      <trkpt lat="43.22197" lon="5.47764">
        <ele>316.1</ele>
        <time>2025-10-18T12:24:33Z</time>
      </trkpt>
      <trkpt lat="43.22197" lon="5.47764">
        <ele>316.1</ele>
        <time>2025-10-18T12:24:34Z</time>
      </trkpt>
      <trkpt lat="43.22197" lon="5.47764">
        <ele>316.2</ele>
        <time>2025-10-18T12:24:35Z</time>
      </trkpt>
      <trkpt lat="43.22198" lon="5.47764">
        <ele>316.2</ele>
        <time>2025-10-18T12:24:36Z</time>
      </trkpt>
      <trkpt lat="43.22198" lon="5.47764">
        <ele>316.3</ele>
        <time>2025-10-18T12:24:37Z</time>
      </trkpt>
      <trkpt lat="43.22198" lon="5.47764">
        <ele>316.4</ele>
        <time>2025-10-18T12:24:38Z</time>
      </trkpt>
      <trkpt lat="43.22198" lon="5.47765">
        <ele>316.4</ele>
        <time>2025-10-18T12:24:39Z</time>
      </trkpt>
      <trkpt lat="43.22198" lon="5.47764">
        <ele>316.5</ele>
        <time>2025-10-18T12:24:40Z</time>
      </trkpt>
      <trkpt lat="43.22198" lon="5.47764">
        <ele>316.6</ele>
        <time>2025-10-18T12:24:41Z</time>
      </trkpt>
      <trkpt lat="43.22198" lon="5.47764">
        <ele>316.6</ele>
        <time>2025-10-18T12:24:42Z</time>
      </trkpt>
      <trkpt lat="43.22198" lon="5.47764">
        <ele>316.6</ele>
        <time>2025-10-18T12:24:43Z</time>
      </trkpt>
      <trkpt lat="43.22198" lon="5.47764">
        <ele>316.7</ele>
        <time>2025-10-18T12:24:44Z</time>
      </trkpt>
      <trkpt lat="43.22198" lon="5.47764">
        <ele>316.7</ele>
        <time>2025-10-18T12:24:45Z</time>
      </trkpt>
      <trkpt lat="43.22198" lon="5.47764">
        <ele>316.7</ele>
        <time>2025-10-18T12:24:46Z</time>
      </trkpt>
      <trkpt lat="43.22198" lon="5.47764">
        <ele>316.7</ele>
        <time>2025-10-18T12:24:47Z</time>
      </trkpt>
      <trkpt lat="43.22198" lon="5.47764">
        <ele>316.8</ele>
        <time>2025-10-18T12:24:48Z</time>
      </trkpt>
      <trkpt lat="43.22198" lon="5.47764">
        <ele>316.9</ele>
        <time>2025-10-18T12:24:49Z</time>
      </trkpt>
      <trkpt lat="43.22199" lon="5.47764">
        <ele>316.9</ele>
        <time>2025-10-18T12:24:50Z</time>
      </trkpt>
      <trkpt lat="43.22199" lon="5.47764">
        <ele>317.1</ele>
        <time>2025-10-18T12:24:51Z</time>
      </trkpt>
      <trkpt lat="43.22199" lon="5.47764">
        <ele>317.1</ele>
        <time>2025-10-18T12:24:52Z</time>
      </trkpt>
      <trkpt lat="43.22199" lon="5.47764">
        <ele>317.1</ele>
        <time>2025-10-18T12:24:53Z</time>
      </trkpt>
      <trkpt lat="43.22199" lon="5.47764">
        <ele>317.1</ele>
        <time>2025-10-18T12:24:54Z</time>
      </trkpt>
      <trkpt lat="43.22199" lon="5.47764">
        <ele>317.1</ele>
        <time>2025-10-18T12:24:55Z</time>
      </trkpt>
      <trkpt lat="43.222" lon="5.47764">
        <ele>317.1</ele>
        <time>2025-10-18T12:24:56Z</time>
      </trkpt>
      <trkpt lat="43.222" lon="5.47764">
        <ele>317.2</ele>
        <time>2025-10-18T12:24:57Z</time>
      </trkpt>
      <trkpt lat="43.222" lon="5.47764">
        <ele>317.2</ele>
        <time>2025-10-18T12:24:58Z</time>
      </trkpt>
      <trkpt lat="43.222" lon="5.47764">
        <ele>317.2</ele>
        <time>2025-10-18T12:24:59Z</time>
      </trkpt>
      <trkpt lat="43.222" lon="5.47764">
        <ele>317.2</ele>
        <time>2025-10-18T12:25:00Z</time>
      </trkpt>
      <trkpt lat="43.222" lon="5.47764">
        <ele>317.2</ele>
        <time>2025-10-18T12:25:01Z</time>
      </trkpt>
      <trkpt lat="43.222" lon="5.47764">
        <ele>317.2</ele>
        <time>2025-10-18T12:25:02Z</time>
      </trkpt>
      <trkpt lat="43.222" lon="5.47765">
        <ele>317.2</ele>
        <time>2025-10-18T12:25:03Z</time>
      </trkpt>
      <trkpt lat="43.222" lon="5.47765">
        <ele>317.2</ele>
        <time>2025-10-18T12:25:04Z</time>
      </trkpt>
      <trkpt lat="43.222" lon="5.47765">
        <ele>317.2</ele>
        <time>2025-10-18T12:25:05Z</time>
      </trkpt>
      <trkpt lat="43.222" lon="5.47765">
        <ele>317.3</ele>
        <time>2025-10-18T12:25:06Z</time>
      </trkpt>
      <trkpt lat="43.222" lon="5.47765">
        <ele>317.3</ele>
        <time>2025-10-18T12:25:07Z</time>
      </trkpt>
      <trkpt lat="43.222" lon="5.47765">
        <ele>317.4</ele>
        <time>2025-10-18T12:25:08Z</time>
      </trkpt>
      <trkpt lat="43.222" lon="5.47765">
        <ele>317.4</ele>
        <time>2025-10-18T12:25:09Z</time>
      </trkpt>
      <trkpt lat="43.222" lon="5.47765">
        <ele>317.3</ele>
        <time>2025-10-18T12:25:10Z</time>
      </trkpt>
      <trkpt lat="43.222" lon="5.47765">
        <ele>317.3</ele>
        <time>2025-10-18T12:25:11Z</time>
      </trkpt>
      <trkpt lat="43.222" lon="5.47766">
        <ele>317.4</ele>
        <time>2025-10-18T12:25:12Z</time>
      </trkpt>
      <trkpt lat="43.222" lon="5.47766">
        <ele>317.5</ele>
        <time>2025-10-18T12:25:13Z</time>
      </trkpt>
      <trkpt lat="43.222" lon="5.47766">
        <ele>317.4</ele>
        <time>2025-10-18T12:25:14Z</time>
      </trkpt>
      <trkpt lat="43.222" lon="5.47765">
        <ele>317.5</ele>
        <time>2025-10-18T12:25:15Z</time>
      </trkpt>
      <trkpt lat="43.222" lon="5.47765">
        <ele>317.5</ele>
        <time>2025-10-18T12:25:16Z</time>
      </trkpt>
      <trkpt lat="43.222" lon="5.47765">
        <ele>317.6</ele>
        <time>2025-10-18T12:25:17Z</time>
      </trkpt>
      <trkpt lat="43.22201" lon="5.47765">
        <ele>317.8</ele>
        <time>2025-10-18T12:25:18Z</time>
      </trkpt>
      <trkpt lat="43.22201" lon="5.47765">
        <ele>317.9</ele>
        <time>2025-10-18T12:25:19Z</time>
      </trkpt>
      <trkpt lat="43.22201" lon="5.47765">
        <ele>318.1</ele>
        <time>2025-10-18T12:25:20Z</time>
      </trkpt>
      <trkpt lat="43.22201" lon="5.47766">
        <ele>318.4</ele>
        <time>2025-10-18T12:25:21Z</time>
      </trkpt>
      <trkpt lat="43.22201" lon="5.47766">
        <ele>318.6</ele>
        <time>2025-10-18T12:25:22Z</time>
      </trkpt>
      <trkpt lat="43.22202" lon="5.47766">
        <ele>318.7</ele>
        <time>2025-10-18T12:25:23Z</time>
      </trkpt>
      <trkpt lat="43.22202" lon="5.47766">
        <ele>318.8</ele>
        <time>2025-10-18T12:25:24Z</time>
      </trkpt>
      <trkpt lat="43.22202" lon="5.47766">
        <ele>318.8</ele>
        <time>2025-10-18T12:25:25Z</time>
      </trkpt>
      <trkpt lat="43.22202" lon="5.47766">
        <ele>318.8</ele>
        <time>2025-10-18T12:25:26Z</time>
      </trkpt>
      <trkpt lat="43.22202" lon="5.47765">
        <ele>318.9</ele>
        <time>2025-10-18T12:25:27Z</time>
      </trkpt>
      <trkpt lat="43.22202" lon="5.47765">
        <ele>319</ele>
        <time>2025-10-18T12:25:28Z</time>
      </trkpt>
      <trkpt lat="43.22202" lon="5.47765">
        <ele>319.1</ele>
        <time>2025-10-18T12:25:29Z</time>
      </trkpt>
      <trkpt lat="43.22202" lon="5.47764">
        <ele>319.2</ele>
        <time>2025-10-18T12:25:30Z</time>
      </trkpt>
      <trkpt lat="43.22202" lon="5.47764">
        <ele>319.2</ele>
        <time>2025-10-18T12:25:31Z</time>
      </trkpt>
      <trkpt lat="43.22202" lon="5.47764">
        <ele>319.3</ele>
        <time>2025-10-18T12:25:32Z</time>
      </trkpt>
      <trkpt lat="43.22202" lon="5.47764">
        <ele>319.3</ele>
        <time>2025-10-18T12:25:33Z</time>
      </trkpt>
      <trkpt lat="43.22202" lon="5.47763">
        <ele>319.4</ele>
        <time>2025-10-18T12:25:34Z</time>
      </trkpt>
      <trkpt lat="43.22203" lon="5.47763">
        <ele>319.5</ele>
        <time>2025-10-18T12:25:35Z</time>
      </trkpt>
      <trkpt lat="43.22203" lon="5.47763">
        <ele>319.6</ele>
        <time>2025-10-18T12:25:36Z</time>
      </trkpt>
      <trkpt lat="43.22203" lon="5.47764">
        <ele>319.6</ele>
        <time>2025-10-18T12:25:37Z</time>
      </trkpt>
      <trkpt lat="43.22203" lon="5.47763">
        <ele>319.7</ele>
        <time>2025-10-18T12:25:38Z</time>
      </trkpt>
      <trkpt lat="43.22203" lon="5.47763">
        <ele>319.8</ele>
        <time>2025-10-18T12:25:39Z</time>
      </trkpt>
      <trkpt lat="43.22203" lon="5.47763">
        <ele>319.8</ele>
        <time>2025-10-18T12:25:40Z</time>
      </trkpt>
      <trkpt lat="43.22204" lon="5.47763">
        <ele>319.8</ele>
        <time>2025-10-18T12:25:41Z</time>
      </trkpt>
      <trkpt lat="43.22203" lon="5.47763">
        <ele>319.8</ele>
        <time>2025-10-18T12:25:42Z</time>
      </trkpt>
      <trkpt lat="43.22203" lon="5.47762">
        <ele>319.8</ele>
        <time>2025-10-18T12:25:43Z</time>
      </trkpt>
      <trkpt lat="43.22203" lon="5.47762">
        <ele>319.8</ele>
        <time>2025-10-18T12:25:44Z</time>
      </trkpt>
      <trkpt lat="43.22203" lon="5.47762">
        <ele>319.8</ele>
        <time>2025-10-18T12:25:45Z</time>
      </trkpt>
      <trkpt lat="43.22203" lon="5.47762">
        <ele>319.8</ele>
        <time>2025-10-18T12:25:46Z</time>
      </trkpt>
      <trkpt lat="43.22203" lon="5.47762">
        <ele>319.8</ele>
        <time>2025-10-18T12:25:47Z</time>
      </trkpt>
      <trkpt lat="43.22203" lon="5.47762">
        <ele>319.8</ele>
        <time>2025-10-18T12:25:48Z</time>
      </trkpt>
      <trkpt lat="43.22203" lon="5.47762">
        <ele>319.8</ele>
        <time>2025-10-18T12:25:49Z</time>
      </trkpt>
      <trkpt lat="43.22203" lon="5.47762">
        <ele>319.9</ele>
        <time>2025-10-18T12:25:50Z</time>
      </trkpt>
      <trkpt lat="43.22203" lon="5.47761">
        <ele>320</ele>
        <time>2025-10-18T12:25:51Z</time>
      </trkpt>
      <trkpt lat="43.22203" lon="5.47761">
        <ele>320</ele>
        <time>2025-10-18T12:25:52Z</time>
      </trkpt>
      <trkpt lat="43.22203" lon="5.4776">
        <ele>320</ele>
        <time>2025-10-18T12:25:53Z</time>
      </trkpt>
      <trkpt lat="43.22203" lon="5.47759">
        <ele>320</ele>
        <time>2025-10-18T12:25:54Z</time>
      </trkpt>
      <trkpt lat="43.22203" lon="5.47759">
        <ele>320.1</ele>
        <time>2025-10-18T12:25:55Z</time>
      </trkpt>
      <trkpt lat="43.22203" lon="5.47759">
        <ele>320</ele>
        <time>2025-10-18T12:25:56Z</time>
      </trkpt>
      <trkpt lat="43.22203" lon="5.47759">
        <ele>320</ele>
        <time>2025-10-18T12:25:57Z</time>
      </trkpt>
      <trkpt lat="43.22202" lon="5.47759">
        <ele>320.1</ele>
        <time>2025-10-18T12:25:58Z</time>
      </trkpt>
      <trkpt lat="43.22202" lon="5.47759">
        <ele>320.1</ele>
        <time>2025-10-18T12:25:59Z</time>
      </trkpt>
      <trkpt lat="43.22201" lon="5.47759">
        <ele>320.2</ele>
        <time>2025-10-18T12:26:00Z</time>
      </trkpt>
      <trkpt lat="43.22201" lon="5.47758">
        <ele>320.2</ele>
        <time>2025-10-18T12:26:01Z</time>
      </trkpt>
      <trkpt lat="43.22201" lon="5.47759">
        <ele>320.3</ele>
        <time>2025-10-18T12:26:02Z</time>
      </trkpt>
      <trkpt lat="43.222" lon="5.47759">
        <ele>320.4</ele>
        <time>2025-10-18T12:26:03Z</time>
      </trkpt>
      <trkpt lat="43.222" lon="5.47759">
        <ele>320.4</ele>
        <time>2025-10-18T12:26:04Z</time>
      </trkpt>
      <trkpt lat="43.222" lon="5.47759">
        <ele>320.4</ele>
        <time>2025-10-18T12:26:05Z</time>
      </trkpt>
      <trkpt lat="43.222" lon="5.47759">
        <ele>320.5</ele>
        <time>2025-10-18T12:26:06Z</time>
      </trkpt>
      <trkpt lat="43.222" lon="5.47759">
        <ele>320.5</ele>
        <time>2025-10-18T12:26:07Z</time>
      </trkpt>
      <trkpt lat="43.222" lon="5.47759">
        <ele>320.5</ele>
        <time>2025-10-18T12:26:08Z</time>
      </trkpt>
      <trkpt lat="43.22199" lon="5.47758">
        <ele>320.5</ele>
        <time>2025-10-18T12:26:09Z</time>
      </trkpt>
      <trkpt lat="43.22199" lon="5.47758">
        <ele>320.5</ele>
        <time>2025-10-18T12:26:10Z</time>
      </trkpt>
      <trkpt lat="43.22199" lon="5.47758">
        <ele>320.5</ele>
        <time>2025-10-18T12:26:11Z</time>
      </trkpt>
      <trkpt lat="43.22199" lon="5.47758">
        <ele>320.5</ele>
        <time>2025-10-18T12:26:12Z</time>
      </trkpt>
      <trkpt lat="43.22199" lon="5.47759">
        <ele>320.6</ele>
        <time>2025-10-18T12:26:13Z</time>
      </trkpt>
      <trkpt lat="43.222" lon="5.47759">
        <ele>320.6</ele>
        <time>2025-10-18T12:26:14Z</time>
      </trkpt>
      <trkpt lat="43.222" lon="5.47758">
        <ele>320.5</ele>
        <time>2025-10-18T12:26:15Z</time>
      </trkpt>
      <trkpt lat="43.22199" lon="5.47759">
        <ele>320.6</ele>
        <time>2025-10-18T12:26:16Z</time>
      </trkpt>
      <trkpt lat="43.22199" lon="5.47759">
        <ele>320.7</ele>
        <time>2025-10-18T12:26:17Z</time>
      </trkpt>
      <trkpt lat="43.22199" lon="5.47759">
        <ele>320.7</ele>
        <time>2025-10-18T12:26:18Z</time>
      </trkpt>
      <trkpt lat="43.22199" lon="5.47761">
        <ele>320.7</ele>
        <time>2025-10-18T12:26:19Z</time>
      </trkpt>
      <trkpt lat="43.22199" lon="5.47761">
        <ele>320.6</ele>
        <time>2025-10-18T12:26:20Z</time>
      </trkpt>
      <trkpt lat="43.222" lon="5.47761">
        <ele>320.5</ele>
        <time>2025-10-18T12:26:21Z</time>
      </trkpt>
      <trkpt lat="43.22201" lon="5.4776">
        <ele>320.5</ele>
        <time>2025-10-18T12:26:22Z</time>
      </trkpt>
      <trkpt lat="43.22201" lon="5.47761">
        <ele>320.4</ele>
        <time>2025-10-18T12:26:23Z</time>
      </trkpt>
      <trkpt lat="43.22202" lon="5.47761">
        <ele>320.3</ele>
        <time>2025-10-18T12:26:24Z</time>
      </trkpt>
      <trkpt lat="43.22202" lon="5.47761">
        <ele>320.2</ele>
        <time>2025-10-18T12:26:25Z</time>
      </trkpt>
      <trkpt lat="43.22201" lon="5.47762">
        <ele>320.1</ele>
        <time>2025-10-18T12:26:26Z</time>
      </trkpt>
      <trkpt lat="43.22201" lon="5.47763">
        <ele>320.1</ele>
        <time>2025-10-18T12:26:27Z</time>
      </trkpt>
      <trkpt lat="43.22201" lon="5.47764">
        <ele>320</ele>
        <time>2025-10-18T12:26:28Z</time>
      </trkpt>
      <trkpt lat="43.22201" lon="5.47764">
        <ele>319.9</ele>
        <time>2025-10-18T12:26:29Z</time>
      </trkpt>
      <trkpt lat="43.22201" lon="5.47764">
        <ele>319.9</ele>
        <time>2025-10-18T12:26:30Z</time>
      </trkpt>
      <trkpt lat="43.22201" lon="5.47765">
        <ele>319.8</ele>
        <time>2025-10-18T12:26:31Z</time>
      </trkpt>
      <trkpt lat="43.222" lon="5.47767">
        <ele>319.8</ele>
        <time>2025-10-18T12:26:32Z</time>
      </trkpt>
      <trkpt lat="43.22199" lon="5.47769">
        <ele>319.7</ele>
        <time>2025-10-18T12:26:33Z</time>
      </trkpt>
      <trkpt lat="43.22198" lon="5.47772">
        <ele>319.7</ele>
        <time>2025-10-18T12:26:34Z</time>
      </trkpt>
      <trkpt lat="43.22197" lon="5.47774">
        <ele>319.7</ele>
        <time>2025-10-18T12:26:35Z</time>
      </trkpt>
      <trkpt lat="43.22196" lon="5.47775">
        <ele>319.7</ele>
        <time>2025-10-18T12:26:36Z</time>
      </trkpt>
      <trkpt lat="43.22196" lon="5.47776">
        <ele>319.7</ele>
        <time>2025-10-18T12:26:37Z</time>
      </trkpt>
      <trkpt lat="43.22196" lon="5.47775">
        <ele>319.7</ele>
        <time>2025-10-18T12:26:38Z</time>
      </trkpt>
      <trkpt lat="43.22196" lon="5.47774">
        <ele>319.7</ele>
        <time>2025-10-18T12:26:39Z</time>
      </trkpt>
      <trkpt lat="43.22195" lon="5.47775">
        <ele>319.8</ele>
        <time>2025-10-18T12:26:40Z</time>
      </trkpt>
      <trkpt lat="43.22195" lon="5.47775">
        <ele>319.8</ele>
        <time>2025-10-18T12:26:41Z</time>
      </trkpt>
      <trkpt lat="43.22195" lon="5.47774">
        <ele>319.8</ele>
        <time>2025-10-18T12:26:42Z</time>
      </trkpt>
      <trkpt lat="43.22195" lon="5.47774">
        <ele>319.8</ele>
        <time>2025-10-18T12:26:43Z</time>
      </trkpt>
      <trkpt lat="43.22196" lon="5.47773">
        <ele>319.7</ele>
        <time>2025-10-18T12:26:44Z</time>
      </trkpt>
      <trkpt lat="43.22197" lon="5.47773">
        <ele>319.7</ele>
        <time>2025-10-18T12:26:45Z</time>
      </trkpt>
      <trkpt lat="43.22196" lon="5.47774">
        <ele>319.7</ele>
        <time>2025-10-18T12:26:46Z</time>
      </trkpt>
      <trkpt lat="43.22197" lon="5.47773">
        <ele>319.5</ele>
        <time>2025-10-18T12:26:47Z</time>
      </trkpt>
      <trkpt lat="43.22196" lon="5.47773">
        <ele>319.5</ele>
        <time>2025-10-18T12:26:48Z</time>
      </trkpt>
      <trkpt lat="43.22197" lon="5.47773">
        <ele>319.6</ele>
        <time>2025-10-18T12:26:49Z</time>
      </trkpt>
      <trkpt lat="43.22197" lon="5.47773">
        <ele>319.6</ele>
        <time>2025-10-18T12:26:50Z</time>
      </trkpt>
      <trkpt lat="43.22196" lon="5.47774">
        <ele>319.7</ele>
        <time>2025-10-18T12:26:51Z</time>
      </trkpt>
      <trkpt lat="43.22197" lon="5.47773">
        <ele>319.6</ele>
        <time>2025-10-18T12:26:52Z</time>
      </trkpt>
      <trkpt lat="43.22196" lon="5.47774">
        <ele>319.6</ele>
        <time>2025-10-18T12:26:53Z</time>
      </trkpt>
      <trkpt lat="43.22197" lon="5.47773">
        <ele>319.6</ele>
        <time>2025-10-18T12:26:54Z</time>
      </trkpt>
      <trkpt lat="43.22197" lon="5.47773">
        <ele>319.6</ele>
        <time>2025-10-18T12:26:55Z</time>
      </trkpt>
      <trkpt lat="43.22198" lon="5.47772">
        <ele>319.7</ele>
        <time>2025-10-18T12:26:56Z</time>
      </trkpt>
      <trkpt lat="43.22198" lon="5.47772">
        <ele>319.7</ele>
        <time>2025-10-18T12:26:57Z</time>
      </trkpt>
      <trkpt lat="43.22197" lon="5.47773">
        <ele>319.8</ele>
        <time>2025-10-18T12:26:58Z</time>
      </trkpt>
      <trkpt lat="43.22197" lon="5.47773">
        <ele>319.8</ele>
        <time>2025-10-18T12:26:59Z</time>
      </trkpt>
      <trkpt lat="43.22198" lon="5.47773">
        <ele>319.5</ele>
        <time>2025-10-18T12:27:00Z</time>
      </trkpt>
      <trkpt lat="43.22198" lon="5.47773">
        <ele>319.4</ele>
        <time>2025-10-18T12:27:01Z</time>
      </trkpt>
      <trkpt lat="43.22199" lon="5.47773">
        <ele>319.4</ele>
        <time>2025-10-18T12:27:02Z</time>
      </trkpt>
      <trkpt lat="43.22199" lon="5.47772">
        <ele>319.3</ele>
        <time>2025-10-18T12:27:03Z</time>
      </trkpt>
      <trkpt lat="43.22199" lon="5.47772">
        <ele>319.3</ele>
        <time>2025-10-18T12:27:04Z</time>
      </trkpt>
      <trkpt lat="43.222" lon="5.47771">
        <ele>319.4</ele>
        <time>2025-10-18T12:27:05Z</time>
      </trkpt>
      <trkpt lat="43.222" lon="5.4777">
        <ele>319.5</ele>
        <time>2025-10-18T12:27:06Z</time>
      </trkpt>
      <trkpt lat="43.22201" lon="5.4777">
        <ele>319.7</ele>
        <time>2025-10-18T12:27:07Z</time>
      </trkpt>
      <trkpt lat="43.22201" lon="5.4777">
        <ele>319.9</ele>
        <time>2025-10-18T12:27:08Z</time>
      </trkpt>
      <trkpt lat="43.22202" lon="5.4777">
        <ele>320</ele>
        <time>2025-10-18T12:27:09Z</time>
      </trkpt>
      <trkpt lat="43.22203" lon="5.4777">
        <ele>320.2</ele>
        <time>2025-10-18T12:27:10Z</time>
      </trkpt>
      <trkpt lat="43.22203" lon="5.4777">
        <ele>320.3</ele>
        <time>2025-10-18T12:27:11Z</time>
      </trkpt>
      <trkpt lat="43.22204" lon="5.4777">
        <ele>320.5</ele>
        <time>2025-10-18T12:27:12Z</time>
      </trkpt>
      <trkpt lat="43.22204" lon="5.47771">
        <ele>320.6</ele>
        <time>2025-10-18T12:27:13Z</time>
      </trkpt>
      <trkpt lat="43.22205" lon="5.47771">
        <ele>320.8</ele>
        <time>2025-10-18T12:27:14Z</time>
      </trkpt>
      <trkpt lat="43.22205" lon="5.4777">
        <ele>321</ele>
        <time>2025-10-18T12:27:15Z</time>
      </trkpt>
      <trkpt lat="43.22205" lon="5.4777">
        <ele>321.2</ele>
        <time>2025-10-18T12:27:16Z</time>
      </trkpt>
      <trkpt lat="43.22206" lon="5.4777">
        <ele>321.3</ele>
        <time>2025-10-18T12:27:17Z</time>
      </trkpt>
      <trkpt lat="43.22206" lon="5.4777">
        <ele>321.4</ele>
        <time>2025-10-18T12:27:18Z</time>
      </trkpt>
      <trkpt lat="43.22206" lon="5.4777">
        <ele>321.5</ele>
        <time>2025-10-18T12:27:19Z</time>
      </trkpt>
      <trkpt lat="43.22206" lon="5.4777">
        <ele>321.5</ele>
        <time>2025-10-18T12:27:20Z</time>
      </trkpt>
      <trkpt lat="43.22206" lon="5.4777">
        <ele>321.6</ele>
        <time>2025-10-18T12:27:21Z</time>
      </trkpt>
      <trkpt lat="43.22206" lon="5.4777">
        <ele>321.6</ele>
        <time>2025-10-18T12:27:22Z</time>
      </trkpt>
      <trkpt lat="43.22206" lon="5.4777">
        <ele>321.6</ele>
        <time>2025-10-18T12:27:23Z</time>
      </trkpt>
      <trkpt lat="43.22207" lon="5.4777">
        <ele>321.6</ele>
        <time>2025-10-18T12:27:24Z</time>
      </trkpt>
      <trkpt lat="43.22207" lon="5.4777">
        <ele>321.7</ele>
        <time>2025-10-18T12:27:25Z</time>
      </trkpt>
      <trkpt lat="43.22207" lon="5.4777">
        <ele>321.7</ele>
        <time>2025-10-18T12:27:26Z</time>
      </trkpt>
      <trkpt lat="43.22207" lon="5.4777">
        <ele>321.6</ele>
        <time>2025-10-18T12:27:27Z</time>
      </trkpt>
      <trkpt lat="43.22207" lon="5.4777">
        <ele>321.7</ele>
        <time>2025-10-18T12:27:28Z</time>
      </trkpt>
      <trkpt lat="43.22207" lon="5.4777">
        <ele>321.7</ele>
        <time>2025-10-18T12:27:29Z</time>
      </trkpt>
      <trkpt lat="43.22207" lon="5.4777">
        <ele>321.7</ele>
        <time>2025-10-18T12:27:30Z</time>
      </trkpt>
      <trkpt lat="43.22207" lon="5.4777">
        <ele>321.7</ele>
        <time>2025-10-18T12:27:31Z</time>
      </trkpt>
      <trkpt lat="43.22207" lon="5.4777">
        <ele>321.7</ele>
        <time>2025-10-18T12:27:32Z</time>
      </trkpt>
      <trkpt lat="43.22208" lon="5.4777">
        <ele>321.8</ele>
        <time>2025-10-18T12:27:33Z</time>
      </trkpt>
      <trkpt lat="43.22208" lon="5.47769">
        <ele>321.8</ele>
        <time>2025-10-18T12:27:34Z</time>
      </trkpt>
      <trkpt lat="43.22208" lon="5.47769">
        <ele>321.8</ele>
        <time>2025-10-18T12:27:35Z</time>
      </trkpt>
      <trkpt lat="43.22208" lon="5.47768">
        <ele>321.8</ele>
        <time>2025-10-18T12:27:36Z</time>
      </trkpt>
      <trkpt lat="43.22208" lon="5.47768">
        <ele>321.9</ele>
        <time>2025-10-18T12:27:37Z</time>
      </trkpt>
      <trkpt lat="43.22208" lon="5.47768">
        <ele>322</ele>
        <time>2025-10-18T12:27:38Z</time>
      </trkpt>
      <trkpt lat="43.22208" lon="5.47768">
        <ele>322.1</ele>
        <time>2025-10-18T12:27:39Z</time>
      </trkpt>
      <trkpt lat="43.22208" lon="5.47768">
        <ele>322.2</ele>
        <time>2025-10-18T12:27:40Z</time>
      </trkpt>
      <trkpt lat="43.22209" lon="5.47768">
        <ele>322.3</ele>
        <time>2025-10-18T12:27:41Z</time>
      </trkpt>
      <trkpt lat="43.22209" lon="5.47768">
        <ele>322.4</ele>
        <time>2025-10-18T12:27:42Z</time>
      </trkpt>
      <trkpt lat="43.22209" lon="5.47768">
        <ele>322.5</ele>
        <time>2025-10-18T12:27:43Z</time>
      </trkpt>
      <trkpt lat="43.2221" lon="5.47768">
        <ele>322.7</ele>
        <time>2025-10-18T12:27:44Z</time>
      </trkpt>
      <trkpt lat="43.2221" lon="5.47769">
        <ele>322.8</ele>
        <time>2025-10-18T12:27:45Z</time>
      </trkpt>
      <trkpt lat="43.2221" lon="5.47769">
        <ele>322.9</ele>
        <time>2025-10-18T12:27:46Z</time>
      </trkpt>
      <trkpt lat="43.2221" lon="5.47769">
        <ele>323.1</ele>
        <time>2025-10-18T12:27:47Z</time>
      </trkpt>
      <trkpt lat="43.22211" lon="5.47769">
        <ele>323.3</ele>
        <time>2025-10-18T12:27:48Z</time>
      </trkpt>
      <trkpt lat="43.22211" lon="5.47768">
        <ele>323.5</ele>
        <time>2025-10-18T12:27:49Z</time>
      </trkpt>
      <trkpt lat="43.22211" lon="5.47767">
        <ele>323.9</ele>
        <time>2025-10-18T12:27:50Z</time>
      </trkpt>
      <trkpt lat="43.22211" lon="5.47766">
        <ele>324</ele>
        <time>2025-10-18T12:27:51Z</time>
      </trkpt>
      <trkpt lat="43.22211" lon="5.47766">
        <ele>324.2</ele>
        <time>2025-10-18T12:27:52Z</time>
      </trkpt>
      <trkpt lat="43.22211" lon="5.47765">
        <ele>324.3</ele>
        <time>2025-10-18T12:27:53Z</time>
      </trkpt>
      <trkpt lat="43.22211" lon="5.47765">
        <ele>324.4</ele>
        <time>2025-10-18T12:27:54Z</time>
      </trkpt>
      <trkpt lat="43.22211" lon="5.47764">
        <ele>324.6</ele>
        <time>2025-10-18T12:27:55Z</time>
      </trkpt>
      <trkpt lat="43.22211" lon="5.47764">
        <ele>324.8</ele>
        <time>2025-10-18T12:27:56Z</time>
      </trkpt>
      <trkpt lat="43.22211" lon="5.47763">
        <ele>325</ele>
        <time>2025-10-18T12:27:57Z</time>
      </trkpt>
      <trkpt lat="43.22212" lon="5.47762">
        <ele>325.2</ele>
        <time>2025-10-18T12:27:58Z</time>
      </trkpt>
      <trkpt lat="43.22212" lon="5.47762">
        <ele>325.3</ele>
        <time>2025-10-18T12:27:59Z</time>
      </trkpt>
      <trkpt lat="43.22212" lon="5.47761">
        <ele>325.5</ele>
        <time>2025-10-18T12:28:00Z</time>
      </trkpt>
      <trkpt lat="43.22212" lon="5.4776">
        <ele>325.6</ele>
        <time>2025-10-18T12:28:01Z</time>
      </trkpt>
      <trkpt lat="43.22213" lon="5.47759">
        <ele>325.7</ele>
        <time>2025-10-18T12:28:02Z</time>
      </trkpt>
      <trkpt lat="43.22213" lon="5.47759">
        <ele>325.9</ele>
        <time>2025-10-18T12:28:03Z</time>
      </trkpt>
      <trkpt lat="43.22213" lon="5.47758">
        <ele>326.1</ele>
        <time>2025-10-18T12:28:04Z</time>
      </trkpt>
      <trkpt lat="43.22213" lon="5.47758">
        <ele>326.3</ele>
        <time>2025-10-18T12:28:05Z</time>
      </trkpt>
      <trkpt lat="43.22213" lon="5.47758">
        <ele>326.5</ele>
        <time>2025-10-18T12:28:06Z</time>
      </trkpt>
      <trkpt lat="43.22213" lon="5.47757">
        <ele>326.6</ele>
        <time>2025-10-18T12:28:07Z</time>
      </trkpt>
      <trkpt lat="43.22213" lon="5.47757">
        <ele>326.8</ele>
        <time>2025-10-18T12:28:08Z</time>
      </trkpt>
      <trkpt lat="43.22213" lon="5.47756">
        <ele>326.9</ele>
        <time>2025-10-18T12:28:09Z</time>
      </trkpt>
      <trkpt lat="43.22213" lon="5.47756">
        <ele>327.2</ele>
        <time>2025-10-18T12:28:10Z</time>
      </trkpt>
      <trkpt lat="43.22214" lon="5.47755">
        <ele>327.4</ele>
        <time>2025-10-18T12:28:11Z</time>
      </trkpt>
      <trkpt lat="43.22214" lon="5.47754">
        <ele>327.6</ele>
        <time>2025-10-18T12:28:12Z</time>
      </trkpt>
      <trkpt lat="43.22214" lon="5.47753">
        <ele>327.9</ele>
        <time>2025-10-18T12:28:13Z</time>
      </trkpt>
      <trkpt lat="43.22214" lon="5.47753">
        <ele>328.1</ele>
        <time>2025-10-18T12:28:14Z</time>
      </trkpt>
      <trkpt lat="43.22214" lon="5.47752">
        <ele>328.3</ele>
        <time>2025-10-18T12:28:15Z</time>
      </trkpt>
      <trkpt lat="43.22214" lon="5.47751">
        <ele>328.5</ele>
        <time>2025-10-18T12:28:16Z</time>
      </trkpt>
      <trkpt lat="43.22215" lon="5.47751">
        <ele>328.7</ele>
        <time>2025-10-18T12:28:17Z</time>
      </trkpt>
      <trkpt lat="43.22215" lon="5.4775">
        <ele>329</ele>
        <time>2025-10-18T12:28:18Z</time>
      </trkpt>
      <trkpt lat="43.22215" lon="5.4775">
        <ele>329.2</ele>
        <time>2025-10-18T12:28:19Z</time>
      </trkpt>
      <trkpt lat="43.22215" lon="5.4775">
        <ele>329.4</ele>
        <time>2025-10-18T12:28:20Z</time>
      </trkpt>
      <trkpt lat="43.22215" lon="5.47749">
        <ele>329.7</ele>
        <time>2025-10-18T12:28:21Z</time>
      </trkpt>
      <trkpt lat="43.22215" lon="5.47749">
        <ele>329.8</ele>
        <time>2025-10-18T12:28:22Z</time>
      </trkpt>
      <trkpt lat="43.22216" lon="5.4775">
        <ele>330</ele>
        <time>2025-10-18T12:28:23Z</time>
      </trkpt>
      <trkpt lat="43.22216" lon="5.4775">
        <ele>330.1</ele>
        <time>2025-10-18T12:28:24Z</time>
      </trkpt>
      <trkpt lat="43.22216" lon="5.4775">
        <ele>330.2</ele>
        <time>2025-10-18T12:28:25Z</time>
      </trkpt>
      <trkpt lat="43.22216" lon="5.4775">
        <ele>330.3</ele>
        <time>2025-10-18T12:28:26Z</time>
      </trkpt>
      <trkpt lat="43.22216" lon="5.4775">
        <ele>330.5</ele>
        <time>2025-10-18T12:28:27Z</time>
      </trkpt>
      <trkpt lat="43.22216" lon="5.4775">
        <ele>330.6</ele>
        <time>2025-10-18T12:28:28Z</time>
      </trkpt>
      <trkpt lat="43.22216" lon="5.4775">
        <ele>330.6</ele>
        <time>2025-10-18T12:28:29Z</time>
      </trkpt>
      <trkpt lat="43.22216" lon="5.4775">
        <ele>330.7</ele>
        <time>2025-10-18T12:28:30Z</time>
      </trkpt>
      <trkpt lat="43.22216" lon="5.4775">
        <ele>330.7</ele>
        <time>2025-10-18T12:28:31Z</time>
      </trkpt>
      <trkpt lat="43.22216" lon="5.4775">
        <ele>330.7</ele>
        <time>2025-10-18T12:28:32Z</time>
      </trkpt>
      <trkpt lat="43.22216" lon="5.4775">
        <ele>330.7</ele>
        <time>2025-10-18T12:28:33Z</time>
      </trkpt>
      <trkpt lat="43.22216" lon="5.4775">
        <ele>330.8</ele>
        <time>2025-10-18T12:28:34Z</time>
      </trkpt>
      <trkpt lat="43.22216" lon="5.4775">
        <ele>330.9</ele>
        <time>2025-10-18T12:28:35Z</time>
      </trkpt>
      <trkpt lat="43.22216" lon="5.4775">
        <ele>330.9</ele>
        <time>2025-10-18T12:28:36Z</time>
      </trkpt>
      <trkpt lat="43.22216" lon="5.4775">
        <ele>331</ele>
        <time>2025-10-18T12:28:37Z</time>
      </trkpt>
      <trkpt lat="43.22216" lon="5.4775">
        <ele>331</ele>
        <time>2025-10-18T12:28:38Z</time>
      </trkpt>
      <trkpt lat="43.22216" lon="5.4775">
        <ele>331</ele>
        <time>2025-10-18T12:28:39Z</time>
      </trkpt>
      <trkpt lat="43.22216" lon="5.4775">
        <ele>331.1</ele>
        <time>2025-10-18T12:28:40Z</time>
      </trkpt>
      <trkpt lat="43.22216" lon="5.4775">
        <ele>331</ele>
        <time>2025-10-18T12:28:41Z</time>
      </trkpt>
      <trkpt lat="43.22216" lon="5.4775">
        <ele>331</ele>
        <time>2025-10-18T12:28:42Z</time>
      </trkpt>
      <trkpt lat="43.22216" lon="5.47749">
        <ele>330.9</ele>
        <time>2025-10-18T12:28:43Z</time>
      </trkpt>
      <trkpt lat="43.22216" lon="5.47749">
        <ele>331</ele>
        <time>2025-10-18T12:28:44Z</time>
      </trkpt>
      <trkpt lat="43.22216" lon="5.47749">
        <ele>331.1</ele>
        <time>2025-10-18T12:28:45Z</time>
      </trkpt>
      <trkpt lat="43.22216" lon="5.47749">
        <ele>331.2</ele>
        <time>2025-10-18T12:28:46Z</time>
      </trkpt>
      <trkpt lat="43.22216" lon="5.47749">
        <ele>331.3</ele>
        <time>2025-10-18T12:28:47Z</time>
      </trkpt>
      <trkpt lat="43.22216" lon="5.47749">
        <ele>331.3</ele>
        <time>2025-10-18T12:28:48Z</time>
      </trkpt>
      <trkpt lat="43.22217" lon="5.47749">
        <ele>331.5</ele>
        <time>2025-10-18T12:28:49Z</time>
      </trkpt>
      <trkpt lat="43.22217" lon="5.47749">
        <ele>331.6</ele>
        <time>2025-10-18T12:28:50Z</time>
      </trkpt>
      <trkpt lat="43.22217" lon="5.47749">
        <ele>331.7</ele>
        <time>2025-10-18T12:28:51Z</time>
      </trkpt>
      <trkpt lat="43.22217" lon="5.47748">
        <ele>331.9</ele>
        <time>2025-10-18T12:28:52Z</time>
      </trkpt>
      <trkpt lat="43.22217" lon="5.47748">
        <ele>332</ele>
        <time>2025-10-18T12:28:53Z</time>
      </trkpt>
      <trkpt lat="43.22217" lon="5.47747">
        <ele>332.2</ele>
        <time>2025-10-18T12:28:54Z</time>
      </trkpt>
      <trkpt lat="43.22218" lon="5.47746">
        <ele>332.4</ele>
        <time>2025-10-18T12:28:55Z</time>
      </trkpt>
      <trkpt lat="43.22218" lon="5.47746">
        <ele>332.6</ele>
        <time>2025-10-18T12:28:56Z</time>
      </trkpt>
      <trkpt lat="43.22218" lon="5.47746">
        <ele>332.8</ele>
        <time>2025-10-18T12:28:57Z</time>
      </trkpt>
      <trkpt lat="43.22218" lon="5.47746">
        <ele>332.9</ele>
        <time>2025-10-18T12:28:58Z</time>
      </trkpt>
      <trkpt lat="43.22218" lon="5.47746">
        <ele>333</ele>
        <time>2025-10-18T12:28:59Z</time>
      </trkpt>
      <trkpt lat="43.22218" lon="5.47745">
        <ele>333.2</ele>
        <time>2025-10-18T12:29:00Z</time>
      </trkpt>
      <trkpt lat="43.22219" lon="5.47745">
        <ele>333.3</ele>
        <time>2025-10-18T12:29:01Z</time>
      </trkpt>
      <trkpt lat="43.22219" lon="5.47744">
        <ele>333.5</ele>
        <time>2025-10-18T12:29:02Z</time>
      </trkpt>
      <trkpt lat="43.22219" lon="5.47744">
        <ele>333.7</ele>
        <time>2025-10-18T12:29:03Z</time>
      </trkpt>
      <trkpt lat="43.22219" lon="5.47744">
        <ele>334</ele>
        <time>2025-10-18T12:29:04Z</time>
      </trkpt>
      <trkpt lat="43.22219" lon="5.47744">
        <ele>334.2</ele>
        <time>2025-10-18T12:29:05Z</time>
      </trkpt>
      <trkpt lat="43.22219" lon="5.47744">
        <ele>334.4</ele>
        <time>2025-10-18T12:29:06Z</time>
      </trkpt>
      <trkpt lat="43.22219" lon="5.47744">
        <ele>334.5</ele>
        <time>2025-10-18T12:29:07Z</time>
      </trkpt>
      <trkpt lat="43.22219" lon="5.47744">
        <ele>334.6</ele>
        <time>2025-10-18T12:29:08Z</time>
      </trkpt>
      <trkpt lat="43.22219" lon="5.47744">
        <ele>334.6</ele>
        <time>2025-10-18T12:29:09Z</time>
      </trkpt>
      <trkpt lat="43.22219" lon="5.47744">
        <ele>334.6</ele>
        <time>2025-10-18T12:29:10Z</time>
      </trkpt>
      <trkpt lat="43.22219" lon="5.47743">
        <ele>334.6</ele>
        <time>2025-10-18T12:29:11Z</time>
      </trkpt>
      <trkpt lat="43.22219" lon="5.47743">
        <ele>334.6</ele>
        <time>2025-10-18T12:29:12Z</time>
      </trkpt>
      <trkpt lat="43.22219" lon="5.47743">
        <ele>334.6</ele>
        <time>2025-10-18T12:29:13Z</time>
      </trkpt>
      <trkpt lat="43.22219" lon="5.47743">
        <ele>334.7</ele>
        <time>2025-10-18T12:29:14Z</time>
      </trkpt>
      <trkpt lat="43.22219" lon="5.47743">
        <ele>334.8</ele>
        <time>2025-10-18T12:29:15Z</time>
      </trkpt>
      <trkpt lat="43.22219" lon="5.47743">
        <ele>334.8</ele>
        <time>2025-10-18T12:29:16Z</time>
      </trkpt>
      <trkpt lat="43.22219" lon="5.47744">
        <ele>334.8</ele>
        <time>2025-10-18T12:29:17Z</time>
      </trkpt>
      <trkpt lat="43.22219" lon="5.47744">
        <ele>334.8</ele>
        <time>2025-10-18T12:29:18Z</time>
      </trkpt>
      <trkpt lat="43.22219" lon="5.47744">
        <ele>334.8</ele>
        <time>2025-10-18T12:29:19Z</time>
      </trkpt>
      <trkpt lat="43.22219" lon="5.47744">
        <ele>334.8</ele>
        <time>2025-10-18T12:29:20Z</time>
      </trkpt>
      <trkpt lat="43.22219" lon="5.47743">
        <ele>334.8</ele>
        <time>2025-10-18T12:29:21Z</time>
      </trkpt>
      <trkpt lat="43.22219" lon="5.47743">
        <ele>334.9</ele>
        <time>2025-10-18T12:29:22Z</time>
      </trkpt>
      <trkpt lat="43.22219" lon="5.47742">
        <ele>334.9</ele>
        <time>2025-10-18T12:29:23Z</time>
      </trkpt>
      <trkpt lat="43.22219" lon="5.47742">
        <ele>335</ele>
        <time>2025-10-18T12:29:24Z</time>
      </trkpt>
      <trkpt lat="43.22219" lon="5.47742">
        <ele>335</ele>
        <time>2025-10-18T12:29:25Z</time>
      </trkpt>
      <trkpt lat="43.22219" lon="5.47742">
        <ele>335.1</ele>
        <time>2025-10-18T12:29:26Z</time>
      </trkpt>
      <trkpt lat="43.22219" lon="5.47742">
        <ele>335.1</ele>
        <time>2025-10-18T12:29:27Z</time>
      </trkpt>
      <trkpt lat="43.22219" lon="5.47741">
        <ele>335.2</ele>
        <time>2025-10-18T12:29:28Z</time>
      </trkpt>
      <trkpt lat="43.22219" lon="5.47741">
        <ele>335.3</ele>
        <time>2025-10-18T12:29:29Z</time>
      </trkpt>
      <trkpt lat="43.22219" lon="5.47741">
        <ele>335.4</ele>
        <time>2025-10-18T12:29:30Z</time>
      </trkpt>
      <trkpt lat="43.22219" lon="5.47741">
        <ele>335.5</ele>
        <time>2025-10-18T12:29:31Z</time>
      </trkpt>
      <trkpt lat="43.22219" lon="5.47741">
        <ele>335.6</ele>
        <time>2025-10-18T12:29:32Z</time>
      </trkpt>
      <trkpt lat="43.22219" lon="5.47741">
        <ele>335.6</ele>
        <time>2025-10-18T12:29:33Z</time>
      </trkpt>
      <trkpt lat="43.22219" lon="5.4774">
        <ele>335.7</ele>
        <time>2025-10-18T12:29:34Z</time>
      </trkpt>
      <trkpt lat="43.22219" lon="5.47741">
        <ele>335.7</ele>
        <time>2025-10-18T12:29:35Z</time>
      </trkpt>
      <trkpt lat="43.22219" lon="5.4774">
        <ele>335.7</ele>
        <time>2025-10-18T12:29:36Z</time>
      </trkpt>
      <trkpt lat="43.22219" lon="5.4774">
        <ele>335.7</ele>
        <time>2025-10-18T12:29:37Z</time>
      </trkpt>
      <trkpt lat="43.22219" lon="5.4774">
        <ele>335.6</ele>
        <time>2025-10-18T12:29:38Z</time>
      </trkpt>
      <trkpt lat="43.22219" lon="5.4774">
        <ele>335.6</ele>
        <time>2025-10-18T12:29:39Z</time>
      </trkpt>
      <trkpt lat="43.22219" lon="5.4774">
        <ele>335.6</ele>
        <time>2025-10-18T12:29:40Z</time>
      </trkpt>
      <trkpt lat="43.22219" lon="5.4774">
        <ele>335.6</ele>
        <time>2025-10-18T12:29:41Z</time>
      </trkpt>
      <trkpt lat="43.22219" lon="5.4774">
        <ele>335.5</ele>
        <time>2025-10-18T12:29:42Z</time>
      </trkpt>
      <trkpt lat="43.22219" lon="5.4774">
        <ele>335.4</ele>
        <time>2025-10-18T12:29:43Z</time>
      </trkpt>
      <trkpt lat="43.22219" lon="5.4774">
        <ele>335.4</ele>
        <time>2025-10-18T12:29:44Z</time>
      </trkpt>
      <trkpt lat="43.22219" lon="5.4774">
        <ele>335.5</ele>
        <time>2025-10-18T12:29:45Z</time>
      </trkpt>
      <trkpt lat="43.22219" lon="5.4774">
        <ele>335.5</ele>
        <time>2025-10-18T12:29:46Z</time>
      </trkpt>
      <trkpt lat="43.22219" lon="5.4774">
        <ele>335.5</ele>
        <time>2025-10-18T12:29:47Z</time>
      </trkpt>
      <trkpt lat="43.22219" lon="5.4774">
        <ele>335.5</ele>
        <time>2025-10-18T12:29:48Z</time>
      </trkpt>
      <trkpt lat="43.2222" lon="5.4774">
        <ele>335.5</ele>
        <time>2025-10-18T12:29:49Z</time>
      </trkpt>
      <trkpt lat="43.2222" lon="5.4774">
        <ele>335.6</ele>
        <time>2025-10-18T12:29:50Z</time>
      </trkpt>
      <trkpt lat="43.2222" lon="5.4774">
        <ele>335.6</ele>
        <time>2025-10-18T12:29:51Z</time>
      </trkpt>
      <trkpt lat="43.2222" lon="5.4774">
        <ele>335.8</ele>
        <time>2025-10-18T12:29:52Z</time>
      </trkpt>
      <trkpt lat="43.2222" lon="5.4774">
        <ele>335.8</ele>
        <time>2025-10-18T12:29:53Z</time>
      </trkpt>
      <trkpt lat="43.2222" lon="5.47739">
        <ele>335.8</ele>
        <time>2025-10-18T12:29:54Z</time>
      </trkpt>
      <trkpt lat="43.2222" lon="5.47739">
        <ele>335.8</ele>
        <time>2025-10-18T12:29:55Z</time>
      </trkpt>
      <trkpt lat="43.2222" lon="5.47739">
        <ele>335.9</ele>
        <time>2025-10-18T12:29:56Z</time>
      </trkpt>
      <trkpt lat="43.22221" lon="5.4774">
        <ele>336</ele>
        <time>2025-10-18T12:29:57Z</time>
      </trkpt>
      <trkpt lat="43.22221" lon="5.4774">
        <ele>336</ele>
        <time>2025-10-18T12:29:58Z</time>
      </trkpt>
      <trkpt lat="43.22221" lon="5.4774">
        <ele>336.1</ele>
        <time>2025-10-18T12:29:59Z</time>
      </trkpt>
      <trkpt lat="43.22221" lon="5.4774">
        <ele>336.2</ele>
        <time>2025-10-18T12:30:00Z</time>
      </trkpt>
      <trkpt lat="43.22221" lon="5.4774">
        <ele>336.2</ele>
        <time>2025-10-18T12:30:01Z</time>
      </trkpt>
      <trkpt lat="43.22221" lon="5.4774">
        <ele>336.3</ele>
        <time>2025-10-18T12:30:02Z</time>
      </trkpt>
      <trkpt lat="43.22221" lon="5.4774">
        <ele>336.3</ele>
        <time>2025-10-18T12:30:03Z</time>
      </trkpt>
      <trkpt lat="43.22221" lon="5.4774">
        <ele>336.3</ele>
        <time>2025-10-18T12:30:04Z</time>
      </trkpt>
      <trkpt lat="43.22221" lon="5.47739">
        <ele>336.3</ele>
        <time>2025-10-18T12:30:05Z</time>
      </trkpt>
      <trkpt lat="43.2222" lon="5.47739">
        <ele>336.4</ele>
        <time>2025-10-18T12:30:06Z</time>
      </trkpt>
      <trkpt lat="43.22221" lon="5.4774">
        <ele>336.5</ele>
        <time>2025-10-18T12:30:07Z</time>
      </trkpt>
      <trkpt lat="43.22221" lon="5.4774">
        <ele>336.5</ele>
        <time>2025-10-18T12:30:08Z</time>
      </trkpt>
      <trkpt lat="43.22221" lon="5.4774">
        <ele>336.5</ele>
        <time>2025-10-18T12:30:09Z</time>
      </trkpt>
      <trkpt lat="43.22221" lon="5.4774">
        <ele>336.6</ele>
        <time>2025-10-18T12:30:10Z</time>
      </trkpt>
      <trkpt lat="43.22221" lon="5.4774">
        <ele>336.6</ele>
        <time>2025-10-18T12:30:11Z</time>
      </trkpt>
      <trkpt lat="43.22221" lon="5.4774">
        <ele>336.6</ele>
        <time>2025-10-18T12:30:12Z</time>
      </trkpt>
      <trkpt lat="43.22221" lon="5.4774">
        <ele>336.7</ele>
        <time>2025-10-18T12:30:13Z</time>
      </trkpt>
      <trkpt lat="43.22221" lon="5.4774">
        <ele>336.7</ele>
        <time>2025-10-18T12:30:14Z</time>
      </trkpt>
      <trkpt lat="43.22221" lon="5.4774">
        <ele>336.8</ele>
        <time>2025-10-18T12:30:15Z</time>
      </trkpt>
      <trkpt lat="43.22221" lon="5.4774">
        <ele>336.9</ele>
        <time>2025-10-18T12:30:16Z</time>
      </trkpt>
      <trkpt lat="43.22221" lon="5.4774">
        <ele>337.1</ele>
        <time>2025-10-18T12:30:17Z</time>
      </trkpt>
      <trkpt lat="43.22221" lon="5.4774">
        <ele>337.2</ele>
        <time>2025-10-18T12:30:18Z</time>
      </trkpt>
      <trkpt lat="43.22221" lon="5.47739">
        <ele>337.2</ele>
        <time>2025-10-18T12:30:19Z</time>
      </trkpt>
      <trkpt lat="43.22221" lon="5.47739">
        <ele>337.3</ele>
        <time>2025-10-18T12:30:20Z</time>
      </trkpt>
      <trkpt lat="43.22222" lon="5.47739">
        <ele>337.4</ele>
        <time>2025-10-18T12:30:21Z</time>
      </trkpt>
      <trkpt lat="43.22222" lon="5.47739">
        <ele>337.6</ele>
        <time>2025-10-18T12:30:22Z</time>
      </trkpt>
      <trkpt lat="43.22222" lon="5.47739">
        <ele>337.7</ele>
        <time>2025-10-18T12:30:23Z</time>
      </trkpt>
      <trkpt lat="43.22222" lon="5.47739">
        <ele>337.9</ele>
        <time>2025-10-18T12:30:24Z</time>
      </trkpt>
      <trkpt lat="43.22222" lon="5.47739">
        <ele>338</ele>
        <time>2025-10-18T12:30:25Z</time>
      </trkpt>
      <trkpt lat="43.22222" lon="5.47739">
        <ele>337.9</ele>
        <time>2025-10-18T12:30:26Z</time>
      </trkpt>
      <trkpt lat="43.22223" lon="5.47739">
        <ele>338</ele>
        <time>2025-10-18T12:30:27Z</time>
      </trkpt>
      <trkpt lat="43.22223" lon="5.47739">
        <ele>338.2</ele>
        <time>2025-10-18T12:30:28Z</time>
      </trkpt>
      <trkpt lat="43.22223" lon="5.47739">
        <ele>338.4</ele>
        <time>2025-10-18T12:30:29Z</time>
      </trkpt>
      <trkpt lat="43.22223" lon="5.47739">
        <ele>338.4</ele>
        <time>2025-10-18T12:30:30Z</time>
      </trkpt>
      <trkpt lat="43.22223" lon="5.47739">
        <ele>338.5</ele>
        <time>2025-10-18T12:30:31Z</time>
      </trkpt>
      <trkpt lat="43.22223" lon="5.47739">
        <ele>338.5</ele>
        <time>2025-10-18T12:30:32Z</time>
      </trkpt>
      <trkpt lat="43.22223" lon="5.47738">
        <ele>338.6</ele>
        <time>2025-10-18T12:30:33Z</time>
      </trkpt>
      <trkpt lat="43.22224" lon="5.47738">
        <ele>338.6</ele>
        <time>2025-10-18T12:30:34Z</time>
      </trkpt>
      <trkpt lat="43.22224" lon="5.47738">
        <ele>338.7</ele>
        <time>2025-10-18T12:30:35Z</time>
      </trkpt>
      <trkpt lat="43.22224" lon="5.47738">
        <ele>338.8</ele>
        <time>2025-10-18T12:30:36Z</time>
      </trkpt>
      <trkpt lat="43.22224" lon="5.47738">
        <ele>338.8</ele>
        <time>2025-10-18T12:30:37Z</time>
      </trkpt>
      <trkpt lat="43.22224" lon="5.47737">
        <ele>339</ele>
        <time>2025-10-18T12:30:38Z</time>
      </trkpt>
      <trkpt lat="43.22224" lon="5.47737">
        <ele>339.1</ele>
        <time>2025-10-18T12:30:39Z</time>
      </trkpt>
      <trkpt lat="43.22224" lon="5.47737">
        <ele>339.3</ele>
        <time>2025-10-18T12:30:40Z</time>
      </trkpt>
      <trkpt lat="43.22224" lon="5.47737">
        <ele>339.4</ele>
        <time>2025-10-18T12:30:41Z</time>
      </trkpt>
      <trkpt lat="43.22224" lon="5.47737">
        <ele>339.5</ele>
        <time>2025-10-18T12:30:42Z</time>
      </trkpt>
      <trkpt lat="43.22224" lon="5.47737">
        <ele>339.6</ele>
        <time>2025-10-18T12:30:43Z</time>
      </trkpt>
      <trkpt lat="43.22224" lon="5.47737">
        <ele>339.7</ele>
        <time>2025-10-18T12:30:44Z</time>
      </trkpt>
      <trkpt lat="43.22224" lon="5.47737">
        <ele>339.7</ele>
        <time>2025-10-18T12:30:45Z</time>
      </trkpt>
      <trkpt lat="43.22224" lon="5.47737">
        <ele>339.7</ele>
        <time>2025-10-18T12:30:46Z</time>
      </trkpt>
      <trkpt lat="43.22225" lon="5.47737">
        <ele>339.8</ele>
        <time>2025-10-18T12:30:47Z</time>
      </trkpt>
      <trkpt lat="43.22225" lon="5.47737">
        <ele>339.8</ele>
        <time>2025-10-18T12:30:48Z</time>
      </trkpt>
      <trkpt lat="43.22225" lon="5.47736">
        <ele>339.9</ele>
        <time>2025-10-18T12:30:49Z</time>
      </trkpt>
      <trkpt lat="43.22226" lon="5.47736">
        <ele>340</ele>
        <time>2025-10-18T12:30:50Z</time>
      </trkpt>
      <trkpt lat="43.22226" lon="5.47736">
        <ele>340.1</ele>
        <time>2025-10-18T12:30:51Z</time>
      </trkpt>
      <trkpt lat="43.22226" lon="5.47736">
        <ele>340.2</ele>
        <time>2025-10-18T12:30:52Z</time>
      </trkpt>
      <trkpt lat="43.22227" lon="5.47736">
        <ele>340.4</ele>
        <time>2025-10-18T12:30:53Z</time>
      </trkpt>
      <trkpt lat="43.22227" lon="5.47736">
        <ele>340.6</ele>
        <time>2025-10-18T12:30:54Z</time>
      </trkpt>
      <trkpt lat="43.22227" lon="5.47736">
        <ele>340.8</ele>
        <time>2025-10-18T12:30:55Z</time>
      </trkpt>
      <trkpt lat="43.22228" lon="5.47737">
        <ele>341</ele>
        <time>2025-10-18T12:30:56Z</time>
      </trkpt>
      <trkpt lat="43.22228" lon="5.47738">
        <ele>341.2</ele>
        <time>2025-10-18T12:30:57Z</time>
      </trkpt>
      <trkpt lat="43.22228" lon="5.47738">
        <ele>341.5</ele>
        <time>2025-10-18T12:30:58Z</time>
      </trkpt>
      <trkpt lat="43.22229" lon="5.47738">
        <ele>341.6</ele>
        <time>2025-10-18T12:30:59Z</time>
      </trkpt>
      <trkpt lat="43.22229" lon="5.47739">
        <ele>341.8</ele>
        <time>2025-10-18T12:31:00Z</time>
      </trkpt>
      <trkpt lat="43.2223" lon="5.47739">
        <ele>341.9</ele>
        <time>2025-10-18T12:31:01Z</time>
      </trkpt>
      <trkpt lat="43.2223" lon="5.47739">
        <ele>342.1</ele>
        <time>2025-10-18T12:31:02Z</time>
      </trkpt>
      <trkpt lat="43.2223" lon="5.47739">
        <ele>342.2</ele>
        <time>2025-10-18T12:31:03Z</time>
      </trkpt>
      <trkpt lat="43.2223" lon="5.47739">
        <ele>342.3</ele>
        <time>2025-10-18T12:31:04Z</time>
      </trkpt>
      <trkpt lat="43.2223" lon="5.47739">
        <ele>342.3</ele>
        <time>2025-10-18T12:31:05Z</time>
      </trkpt>
      <trkpt lat="43.2223" lon="5.47739">
        <ele>342.4</ele>
        <time>2025-10-18T12:31:06Z</time>
      </trkpt>
      <trkpt lat="43.2223" lon="5.47739">
        <ele>342.5</ele>
        <time>2025-10-18T12:31:07Z</time>
      </trkpt>
      <trkpt lat="43.2223" lon="5.4774">
        <ele>342.6</ele>
        <time>2025-10-18T12:31:08Z</time>
      </trkpt>
      <trkpt lat="43.2223" lon="5.4774">
        <ele>342.7</ele>
        <time>2025-10-18T12:31:09Z</time>
      </trkpt>
      <trkpt lat="43.2223" lon="5.4774">
        <ele>342.7</ele>
        <time>2025-10-18T12:31:10Z</time>
      </trkpt>
      <trkpt lat="43.22231" lon="5.4774">
        <ele>342.8</ele>
        <time>2025-10-18T12:31:11Z</time>
      </trkpt>
      <trkpt lat="43.22231" lon="5.4774">
        <ele>343</ele>
        <time>2025-10-18T12:31:12Z</time>
      </trkpt>
      <trkpt lat="43.22231" lon="5.4774">
        <ele>343.1</ele>
        <time>2025-10-18T12:31:13Z</time>
      </trkpt>
      <trkpt lat="43.22231" lon="5.4774">
        <ele>343.2</ele>
        <time>2025-10-18T12:31:14Z</time>
      </trkpt>
      <trkpt lat="43.22232" lon="5.4774">
        <ele>343.3</ele>
        <time>2025-10-18T12:31:15Z</time>
      </trkpt>
      <trkpt lat="43.22232" lon="5.4774">
        <ele>343.4</ele>
        <time>2025-10-18T12:31:16Z</time>
      </trkpt>
      <trkpt lat="43.22232" lon="5.47739">
        <ele>343.5</ele>
        <time>2025-10-18T12:31:17Z</time>
      </trkpt>
      <trkpt lat="43.22232" lon="5.4774">
        <ele>343.5</ele>
        <time>2025-10-18T12:31:18Z</time>
      </trkpt>
      <trkpt lat="43.22232" lon="5.4774">
        <ele>343.6</ele>
        <time>2025-10-18T12:31:19Z</time>
      </trkpt>
      <trkpt lat="43.22232" lon="5.4774">
        <ele>343.6</ele>
        <time>2025-10-18T12:31:20Z</time>
      </trkpt>
      <trkpt lat="43.22232" lon="5.4774">
        <ele>343.7</ele>
        <time>2025-10-18T12:31:21Z</time>
      </trkpt>
      <trkpt lat="43.22232" lon="5.47739">
        <ele>343.7</ele>
        <time>2025-10-18T12:31:22Z</time>
      </trkpt>
      <trkpt lat="43.22232" lon="5.47739">
        <ele>343.7</ele>
        <time>2025-10-18T12:31:23Z</time>
      </trkpt>
      <trkpt lat="43.22233" lon="5.47739">
        <ele>343.8</ele>
        <time>2025-10-18T12:31:24Z</time>
      </trkpt>
      <trkpt lat="43.22233" lon="5.47738">
        <ele>343.9</ele>
        <time>2025-10-18T12:31:25Z</time>
      </trkpt>
      <trkpt lat="43.22233" lon="5.47738">
        <ele>344</ele>
        <time>2025-10-18T12:31:26Z</time>
      </trkpt>
      <trkpt lat="43.22233" lon="5.47738">
        <ele>344.1</ele>
        <time>2025-10-18T12:31:27Z</time>
      </trkpt>
      <trkpt lat="43.22233" lon="5.47738">
        <ele>344.1</ele>
        <time>2025-10-18T12:31:28Z</time>
      </trkpt>
      <trkpt lat="43.22234" lon="5.47738">
        <ele>344.3</ele>
        <time>2025-10-18T12:31:29Z</time>
      </trkpt>
      <trkpt lat="43.22234" lon="5.47739">
        <ele>344.4</ele>
        <time>2025-10-18T12:31:30Z</time>
      </trkpt>
      <trkpt lat="43.22234" lon="5.47739">
        <ele>344.4</ele>
        <time>2025-10-18T12:31:31Z</time>
      </trkpt>
      <trkpt lat="43.22234" lon="5.47739">
        <ele>344.6</ele>
        <time>2025-10-18T12:31:32Z</time>
      </trkpt>
      <trkpt lat="43.22234" lon="5.47739">
        <ele>344.7</ele>
        <time>2025-10-18T12:31:33Z</time>
      </trkpt>
      <trkpt lat="43.22234" lon="5.47739">
        <ele>344.8</ele>
        <time>2025-10-18T12:31:34Z</time>
      </trkpt>
      <trkpt lat="43.22234" lon="5.47739">
        <ele>344.9</ele>
        <time>2025-10-18T12:31:35Z</time>
      </trkpt>
      <trkpt lat="43.22234" lon="5.4774">
        <ele>345</ele>
        <time>2025-10-18T12:31:36Z</time>
      </trkpt>
      <trkpt lat="43.22234" lon="5.4774">
        <ele>345</ele>
        <time>2025-10-18T12:31:37Z</time>
      </trkpt>
      <trkpt lat="43.22234" lon="5.4774">
        <ele>345.1</ele>
        <time>2025-10-18T12:31:38Z</time>
      </trkpt>
      <trkpt lat="43.22234" lon="5.4774">
        <ele>345</ele>
        <time>2025-10-18T12:31:39Z</time>
      </trkpt>
      <trkpt lat="43.22234" lon="5.47741">
        <ele>345</ele>
        <time>2025-10-18T12:31:40Z</time>
      </trkpt>
      <trkpt lat="43.22235" lon="5.47741">
        <ele>345</ele>
        <time>2025-10-18T12:31:41Z</time>
      </trkpt>
      <trkpt lat="43.22235" lon="5.47741">
        <ele>345</ele>
        <time>2025-10-18T12:31:42Z</time>
      </trkpt>
      <trkpt lat="43.22235" lon="5.47742">
        <ele>345.1</ele>
        <time>2025-10-18T12:31:43Z</time>
      </trkpt>
      <trkpt lat="43.22235" lon="5.47743">
        <ele>345.1</ele>
        <time>2025-10-18T12:31:44Z</time>
      </trkpt>
      <trkpt lat="43.22235" lon="5.47743">
        <ele>345.2</ele>
        <time>2025-10-18T12:31:45Z</time>
      </trkpt>
      <trkpt lat="43.22236" lon="5.47743">
        <ele>345.2</ele>
        <time>2025-10-18T12:31:46Z</time>
      </trkpt>
      <trkpt lat="43.22236" lon="5.47743">
        <ele>345.3</ele>
        <time>2025-10-18T12:31:47Z</time>
      </trkpt>
      <trkpt lat="43.22236" lon="5.47743">
        <ele>345.3</ele>
        <time>2025-10-18T12:31:48Z</time>
      </trkpt>
      <trkpt lat="43.22236" lon="5.47744">
        <ele>345.5</ele>
        <time>2025-10-18T12:31:49Z</time>
      </trkpt>
      <trkpt lat="43.22236" lon="5.47745">
        <ele>345.6</ele>
        <time>2025-10-18T12:31:50Z</time>
      </trkpt>
      <trkpt lat="43.22237" lon="5.47745">
        <ele>345.7</ele>
        <time>2025-10-18T12:31:51Z</time>
      </trkpt>
      <trkpt lat="43.22237" lon="5.47745">
        <ele>345.8</ele>
        <time>2025-10-18T12:31:52Z</time>
      </trkpt>
      <trkpt lat="43.22237" lon="5.47746">
        <ele>346</ele>
        <time>2025-10-18T12:31:53Z</time>
      </trkpt>
      <trkpt lat="43.22238" lon="5.47746">
        <ele>346.2</ele>
        <time>2025-10-18T12:31:54Z</time>
      </trkpt>
      <trkpt lat="43.22238" lon="5.47746">
        <ele>346.4</ele>
        <time>2025-10-18T12:31:55Z</time>
      </trkpt>
      <trkpt lat="43.22239" lon="5.47746">
        <ele>346.5</ele>
        <time>2025-10-18T12:31:56Z</time>
      </trkpt>
      <trkpt lat="43.22239" lon="5.47746">
        <ele>346.6</ele>
        <time>2025-10-18T12:31:57Z</time>
      </trkpt>
      <trkpt lat="43.22239" lon="5.47746">
        <ele>346.9</ele>
        <time>2025-10-18T12:31:58Z</time>
      </trkpt>
      <trkpt lat="43.22239" lon="5.47747">
        <ele>347.1</ele>
        <time>2025-10-18T12:31:59Z</time>
      </trkpt>
      <trkpt lat="43.2224" lon="5.47747">
        <ele>347.3</ele>
        <time>2025-10-18T12:32:00Z</time>
      </trkpt>
      <trkpt lat="43.2224" lon="5.47746">
        <ele>347.4</ele>
        <time>2025-10-18T12:32:01Z</time>
      </trkpt>
      <trkpt lat="43.22241" lon="5.47745">
        <ele>347.6</ele>
        <time>2025-10-18T12:32:02Z</time>
      </trkpt>
      <trkpt lat="43.22241" lon="5.47745">
        <ele>347.7</ele>
        <time>2025-10-18T12:32:03Z</time>
      </trkpt>
      <trkpt lat="43.22241" lon="5.47745">
        <ele>347.9</ele>
        <time>2025-10-18T12:32:04Z</time>
      </trkpt>
      <trkpt lat="43.22241" lon="5.47745">
        <ele>348.1</ele>
        <time>2025-10-18T12:32:05Z</time>
      </trkpt>
      <trkpt lat="43.22242" lon="5.47745">
        <ele>348.4</ele>
        <time>2025-10-18T12:32:06Z</time>
      </trkpt>
      <trkpt lat="43.22242" lon="5.47745">
        <ele>348.6</ele>
        <time>2025-10-18T12:32:07Z</time>
      </trkpt>
      <trkpt lat="43.22243" lon="5.47745">
        <ele>348.9</ele>
        <time>2025-10-18T12:32:08Z</time>
      </trkpt>
      <trkpt lat="43.22243" lon="5.47744">
        <ele>349.1</ele>
        <time>2025-10-18T12:32:09Z</time>
      </trkpt>
      <trkpt lat="43.22243" lon="5.47744">
        <ele>349.3</ele>
        <time>2025-10-18T12:32:10Z</time>
      </trkpt>
      <trkpt lat="43.22243" lon="5.47745">
        <ele>349.4</ele>
        <time>2025-10-18T12:32:11Z</time>
      </trkpt>
      <trkpt lat="43.22243" lon="5.47745">
        <ele>349.6</ele>
        <time>2025-10-18T12:32:12Z</time>
      </trkpt>
      <trkpt lat="43.22243" lon="5.47745">
        <ele>349.8</ele>
        <time>2025-10-18T12:32:13Z</time>
      </trkpt>
      <trkpt lat="43.22243" lon="5.47745">
        <ele>349.9</ele>
        <time>2025-10-18T12:32:14Z</time>
      </trkpt>
      <trkpt lat="43.22243" lon="5.47744">
        <ele>350</ele>
        <time>2025-10-18T12:32:15Z</time>
      </trkpt>
      <trkpt lat="43.22243" lon="5.47745">
        <ele>350</ele>
        <time>2025-10-18T12:32:16Z</time>
      </trkpt>
      <trkpt lat="43.22243" lon="5.47745">
        <ele>350.1</ele>
        <time>2025-10-18T12:32:17Z</time>
      </trkpt>
      <trkpt lat="43.22244" lon="5.47744">
        <ele>350.2</ele>
        <time>2025-10-18T12:32:18Z</time>
      </trkpt>
      <trkpt lat="43.22244" lon="5.47744">
        <ele>350.3</ele>
        <time>2025-10-18T12:32:19Z</time>
      </trkpt>
      <trkpt lat="43.22244" lon="5.47745">
        <ele>350.3</ele>
        <time>2025-10-18T12:32:20Z</time>
      </trkpt>
      <trkpt lat="43.22244" lon="5.47745">
        <ele>350.5</ele>
        <time>2025-10-18T12:32:21Z</time>
      </trkpt>
      <trkpt lat="43.22244" lon="5.47745">
        <ele>350.7</ele>
        <time>2025-10-18T12:32:22Z</time>
      </trkpt>
      <trkpt lat="43.22244" lon="5.47745">
        <ele>350.8</ele>
        <time>2025-10-18T12:32:23Z</time>
      </trkpt>
      <trkpt lat="43.22244" lon="5.47745">
        <ele>350.8</ele>
        <time>2025-10-18T12:32:24Z</time>
      </trkpt>
      <trkpt lat="43.22244" lon="5.47745">
        <ele>350.9</ele>
        <time>2025-10-18T12:32:25Z</time>
      </trkpt>
      <trkpt lat="43.22244" lon="5.47745">
        <ele>351</ele>
        <time>2025-10-18T12:32:26Z</time>
      </trkpt>
      <trkpt lat="43.22244" lon="5.47745">
        <ele>351</ele>
        <time>2025-10-18T12:32:27Z</time>
      </trkpt>
      <trkpt lat="43.22244" lon="5.47744">
        <ele>351.1</ele>
        <time>2025-10-18T12:32:28Z</time>
      </trkpt>
      <trkpt lat="43.22245" lon="5.47744">
        <ele>351.1</ele>
        <time>2025-10-18T12:32:29Z</time>
      </trkpt>
      <trkpt lat="43.22245" lon="5.47744">
        <ele>351.2</ele>
        <time>2025-10-18T12:32:30Z</time>
      </trkpt>
      <trkpt lat="43.22245" lon="5.47744">
        <ele>351.3</ele>
        <time>2025-10-18T12:32:31Z</time>
      </trkpt>
      <trkpt lat="43.22245" lon="5.47744">
        <ele>351.3</ele>
        <time>2025-10-18T12:32:32Z</time>
      </trkpt>
      <trkpt lat="43.22245" lon="5.47744">
        <ele>351.4</ele>
        <time>2025-10-18T12:32:33Z</time>
      </trkpt>
      <trkpt lat="43.22245" lon="5.47744">
        <ele>351.4</ele>
        <time>2025-10-18T12:32:34Z</time>
      </trkpt>
      <trkpt lat="43.22245" lon="5.47743">
        <ele>351.4</ele>
        <time>2025-10-18T12:32:35Z</time>
      </trkpt>
      <trkpt lat="43.22245" lon="5.47743">
        <ele>351.4</ele>
        <time>2025-10-18T12:32:36Z</time>
      </trkpt>
      <trkpt lat="43.22245" lon="5.47743">
        <ele>351.4</ele>
        <time>2025-10-18T12:32:37Z</time>
      </trkpt>
      <trkpt lat="43.22245" lon="5.47743">
        <ele>351.4</ele>
        <time>2025-10-18T12:32:38Z</time>
      </trkpt>
      <trkpt lat="43.22245" lon="5.47743">
        <ele>351.4</ele>
        <time>2025-10-18T12:32:39Z</time>
      </trkpt>
      <trkpt lat="43.22245" lon="5.47743">
        <ele>351.4</ele>
        <time>2025-10-18T12:32:40Z</time>
      </trkpt>
      <trkpt lat="43.22245" lon="5.47743">
        <ele>351.4</ele>
        <time>2025-10-18T12:32:41Z</time>
      </trkpt>
      <trkpt lat="43.22245" lon="5.47743">
        <ele>351.3</ele>
        <time>2025-10-18T12:32:42Z</time>
      </trkpt>
      <trkpt lat="43.22244" lon="5.47743">
        <ele>351.3</ele>
        <time>2025-10-18T12:32:43Z</time>
      </trkpt>
      <trkpt lat="43.22244" lon="5.47744">
        <ele>351.3</ele>
        <time>2025-10-18T12:32:44Z</time>
      </trkpt>
      <trkpt lat="43.22245" lon="5.47744">
        <ele>351.3</ele>
        <time>2025-10-18T12:32:45Z</time>
      </trkpt>
      <trkpt lat="43.22245" lon="5.47744">
        <ele>351.4</ele>
        <time>2025-10-18T12:32:46Z</time>
      </trkpt>
      <trkpt lat="43.22245" lon="5.47744">
        <ele>351.5</ele>
        <time>2025-10-18T12:32:47Z</time>
      </trkpt>
      <trkpt lat="43.22245" lon="5.47743">
        <ele>351.6</ele>
        <time>2025-10-18T12:32:48Z</time>
      </trkpt>
      <trkpt lat="43.22245" lon="5.47743">
        <ele>351.6</ele>
        <time>2025-10-18T12:32:49Z</time>
      </trkpt>
      <trkpt lat="43.22245" lon="5.47743">
        <ele>351.7</ele>
        <time>2025-10-18T12:32:50Z</time>
      </trkpt>
      <trkpt lat="43.22245" lon="5.47743">
        <ele>351.7</ele>
        <time>2025-10-18T12:32:51Z</time>
      </trkpt>
      <trkpt lat="43.22245" lon="5.47742">
        <ele>351.8</ele>
        <time>2025-10-18T12:32:52Z</time>
      </trkpt>
      <trkpt lat="43.22245" lon="5.47742">
        <ele>351.8</ele>
        <time>2025-10-18T12:32:53Z</time>
      </trkpt>
      <trkpt lat="43.22245" lon="5.47742">
        <ele>351.8</ele>
        <time>2025-10-18T12:32:54Z</time>
      </trkpt>
      <trkpt lat="43.22245" lon="5.47742">
        <ele>351.8</ele>
        <time>2025-10-18T12:32:55Z</time>
      </trkpt>
      <trkpt lat="43.22245" lon="5.47742">
        <ele>351.9</ele>
        <time>2025-10-18T12:32:56Z</time>
      </trkpt>
      <trkpt lat="43.22245" lon="5.47742">
        <ele>352</ele>
        <time>2025-10-18T12:32:57Z</time>
      </trkpt>
      <trkpt lat="43.22245" lon="5.47741">
        <ele>352</ele>
        <time>2025-10-18T12:32:58Z</time>
      </trkpt>
      <trkpt lat="43.22245" lon="5.47741">
        <ele>352</ele>
        <time>2025-10-18T12:32:59Z</time>
      </trkpt>
      <trkpt lat="43.22245" lon="5.47741">
        <ele>352</ele>
        <time>2025-10-18T12:33:00Z</time>
      </trkpt>
      <trkpt lat="43.22245" lon="5.47741">
        <ele>352</ele>
        <time>2025-10-18T12:33:01Z</time>
      </trkpt>
      <trkpt lat="43.22246" lon="5.47742">
        <ele>351.9</ele>
        <time>2025-10-18T12:33:02Z</time>
      </trkpt>
      <trkpt lat="43.22246" lon="5.47742">
        <ele>351.9</ele>
        <time>2025-10-18T12:33:03Z</time>
      </trkpt>
      <trkpt lat="43.22246" lon="5.47742">
        <ele>351.9</ele>
        <time>2025-10-18T12:33:04Z</time>
      </trkpt>
      <trkpt lat="43.22246" lon="5.47743">
        <ele>351.9</ele>
        <time>2025-10-18T12:33:05Z</time>
      </trkpt>
      <trkpt lat="43.22247" lon="5.47744">
        <ele>351.8</ele>
        <time>2025-10-18T12:33:06Z</time>
      </trkpt>
      <trkpt lat="43.22247" lon="5.47745">
        <ele>351.7</ele>
        <time>2025-10-18T12:33:07Z</time>
      </trkpt>
      <trkpt lat="43.22248" lon="5.47745">
        <ele>351.6</ele>
        <time>2025-10-18T12:33:08Z</time>
      </trkpt>
      <trkpt lat="43.22248" lon="5.47745">
        <ele>351.7</ele>
        <time>2025-10-18T12:33:09Z</time>
      </trkpt>
      <trkpt lat="43.22248" lon="5.47745">
        <ele>351.8</ele>
        <time>2025-10-18T12:33:10Z</time>
      </trkpt>
      <trkpt lat="43.22248" lon="5.47745">
        <ele>351.8</ele>
        <time>2025-10-18T12:33:11Z</time>
      </trkpt>
      <trkpt lat="43.22248" lon="5.47744">
        <ele>351.9</ele>
        <time>2025-10-18T12:33:12Z</time>
      </trkpt>
      <trkpt lat="43.22248" lon="5.47745">
        <ele>351.9</ele>
        <time>2025-10-18T12:33:13Z</time>
      </trkpt>
      <trkpt lat="43.22249" lon="5.47744">
        <ele>351.9</ele>
        <time>2025-10-18T12:33:14Z</time>
      </trkpt>
      <trkpt lat="43.22249" lon="5.47744">
        <ele>352</ele>
        <time>2025-10-18T12:33:15Z</time>
      </trkpt>
      <trkpt lat="43.22249" lon="5.47744">
        <ele>352.1</ele>
        <time>2025-10-18T12:33:16Z</time>
      </trkpt>
      <trkpt lat="43.22249" lon="5.47743">
        <ele>352.2</ele>
        <time>2025-10-18T12:33:17Z</time>
      </trkpt>
      <trkpt lat="43.2225" lon="5.47743">
        <ele>352.4</ele>
        <time>2025-10-18T12:33:18Z</time>
      </trkpt>
      <trkpt lat="43.2225" lon="5.47743">
        <ele>352.5</ele>
        <time>2025-10-18T12:33:19Z</time>
      </trkpt>
      <trkpt lat="43.2225" lon="5.47743">
        <ele>352.7</ele>
        <time>2025-10-18T12:33:20Z</time>
      </trkpt>
      <trkpt lat="43.22251" lon="5.47743">
        <ele>352.9</ele>
        <time>2025-10-18T12:33:21Z</time>
      </trkpt>
      <trkpt lat="43.22251" lon="5.47743">
        <ele>353</ele>
        <time>2025-10-18T12:33:22Z</time>
      </trkpt>
      <trkpt lat="43.22252" lon="5.47743">
        <ele>353.1</ele>
        <time>2025-10-18T12:33:23Z</time>
      </trkpt>
      <trkpt lat="43.22252" lon="5.47742">
        <ele>353.3</ele>
        <time>2025-10-18T12:33:24Z</time>
      </trkpt>
      <trkpt lat="43.22252" lon="5.47742">
        <ele>353.6</ele>
        <time>2025-10-18T12:33:25Z</time>
      </trkpt>
      <trkpt lat="43.22252" lon="5.47742">
        <ele>353.9</ele>
        <time>2025-10-18T12:33:26Z</time>
      </trkpt>
      <trkpt lat="43.22253" lon="5.47742">
        <ele>354.2</ele>
        <time>2025-10-18T12:33:27Z</time>
      </trkpt>
      <trkpt lat="43.22253" lon="5.47741">
        <ele>354.4</ele>
        <time>2025-10-18T12:33:28Z</time>
      </trkpt>
      <trkpt lat="43.22253" lon="5.47741">
        <ele>354.6</ele>
        <time>2025-10-18T12:33:29Z</time>
      </trkpt>
      <trkpt lat="43.22253" lon="5.47741">
        <ele>354.8</ele>
        <time>2025-10-18T12:33:30Z</time>
      </trkpt>
      <trkpt lat="43.22254" lon="5.47741">
        <ele>355.1</ele>
        <time>2025-10-18T12:33:31Z</time>
      </trkpt>
      <trkpt lat="43.22254" lon="5.47741">
        <ele>355.3</ele>
        <time>2025-10-18T12:33:32Z</time>
      </trkpt>
      <trkpt lat="43.22254" lon="5.47741">
        <ele>355.5</ele>
        <time>2025-10-18T12:33:33Z</time>
      </trkpt>
      <trkpt lat="43.22254" lon="5.47741">
        <ele>355.7</ele>
        <time>2025-10-18T12:33:34Z</time>
      </trkpt>
      <trkpt lat="43.22255" lon="5.47741">
        <ele>355.9</ele>
        <time>2025-10-18T12:33:35Z</time>
      </trkpt>
      <trkpt lat="43.22255" lon="5.47741">
        <ele>356</ele>
        <time>2025-10-18T12:33:36Z</time>
      </trkpt>
      <trkpt lat="43.22255" lon="5.47741">
        <ele>356.2</ele>
        <time>2025-10-18T12:33:37Z</time>
      </trkpt>
      <trkpt lat="43.22255" lon="5.47741">
        <ele>356.3</ele>
        <time>2025-10-18T12:33:38Z</time>
      </trkpt>
      <trkpt lat="43.22255" lon="5.47741">
        <ele>356.4</ele>
        <time>2025-10-18T12:33:39Z</time>
      </trkpt>
      <trkpt lat="43.22255" lon="5.4774">
        <ele>356.5</ele>
        <time>2025-10-18T12:33:40Z</time>
      </trkpt>
      <trkpt lat="43.22255" lon="5.4774">
        <ele>356.7</ele>
        <time>2025-10-18T12:33:41Z</time>
      </trkpt>
      <trkpt lat="43.22255" lon="5.4774">
        <ele>356.8</ele>
        <time>2025-10-18T12:33:42Z</time>
      </trkpt>
      <trkpt lat="43.22255" lon="5.4774">
        <ele>356.9</ele>
        <time>2025-10-18T12:33:43Z</time>
      </trkpt>
      <trkpt lat="43.22255" lon="5.47739">
        <ele>357</ele>
        <time>2025-10-18T12:33:44Z</time>
      </trkpt>
      <trkpt lat="43.22255" lon="5.47739">
        <ele>357</ele>
        <time>2025-10-18T12:33:45Z</time>
      </trkpt>
      <trkpt lat="43.22255" lon="5.47739">
        <ele>357.1</ele>
        <time>2025-10-18T12:33:46Z</time>
      </trkpt>
      <trkpt lat="43.22256" lon="5.4774">
        <ele>357.1</ele>
        <time>2025-10-18T12:33:47Z</time>
      </trkpt>
      <trkpt lat="43.22256" lon="5.4774">
        <ele>357.1</ele>
        <time>2025-10-18T12:33:48Z</time>
      </trkpt>
      <trkpt lat="43.22256" lon="5.4774">
        <ele>357.2</ele>
        <time>2025-10-18T12:33:49Z</time>
      </trkpt>
      <trkpt lat="43.22256" lon="5.4774">
        <ele>357.2</ele>
        <time>2025-10-18T12:33:50Z</time>
      </trkpt>
      <trkpt lat="43.22257" lon="5.47741">
        <ele>357.3</ele>
        <time>2025-10-18T12:33:51Z</time>
      </trkpt>
      <trkpt lat="43.22257" lon="5.47741">
        <ele>357.3</ele>
        <time>2025-10-18T12:33:52Z</time>
      </trkpt>
      <trkpt lat="43.22258" lon="5.47741">
        <ele>357.5</ele>
        <time>2025-10-18T12:33:53Z</time>
      </trkpt>
      <trkpt lat="43.22258" lon="5.4774">
        <ele>357.6</ele>
        <time>2025-10-18T12:33:54Z</time>
      </trkpt>
      <trkpt lat="43.22258" lon="5.47739">
        <ele>357.7</ele>
        <time>2025-10-18T12:33:55Z</time>
      </trkpt>
      <trkpt lat="43.22258" lon="5.47739">
        <ele>357.8</ele>
        <time>2025-10-18T12:33:56Z</time>
      </trkpt>
      <trkpt lat="43.22258" lon="5.47739">
        <ele>358</ele>
        <time>2025-10-18T12:33:57Z</time>
      </trkpt>
      <trkpt lat="43.22258" lon="5.47738">
        <ele>358.2</ele>
        <time>2025-10-18T12:33:58Z</time>
      </trkpt>
      <trkpt lat="43.22259" lon="5.47738">
        <ele>358.3</ele>
        <time>2025-10-18T12:33:59Z</time>
      </trkpt>
      <trkpt lat="43.22258" lon="5.47738">
        <ele>358.6</ele>
        <time>2025-10-18T12:34:00Z</time>
      </trkpt>
      <trkpt lat="43.22259" lon="5.47738">
        <ele>358.8</ele>
        <time>2025-10-18T12:34:01Z</time>
      </trkpt>
      <trkpt lat="43.22259" lon="5.47738">
        <ele>359</ele>
        <time>2025-10-18T12:34:02Z</time>
      </trkpt>
      <trkpt lat="43.22259" lon="5.47738">
        <ele>359.1</ele>
        <time>2025-10-18T12:34:03Z</time>
      </trkpt>
      <trkpt lat="43.22259" lon="5.47738">
        <ele>359.2</ele>
        <time>2025-10-18T12:34:04Z</time>
      </trkpt>
      <trkpt lat="43.22259" lon="5.47738">
        <ele>359.3</ele>
        <time>2025-10-18T12:34:05Z</time>
      </trkpt>
      <trkpt lat="43.22259" lon="5.47738">
        <ele>359.4</ele>
        <time>2025-10-18T12:34:06Z</time>
      </trkpt>
      <trkpt lat="43.22259" lon="5.47738">
        <ele>359.6</ele>
        <time>2025-10-18T12:34:07Z</time>
      </trkpt>
      <trkpt lat="43.2226" lon="5.47738">
        <ele>359.7</ele>
        <time>2025-10-18T12:34:08Z</time>
      </trkpt>
      <trkpt lat="43.2226" lon="5.47738">
        <ele>359.9</ele>
        <time>2025-10-18T12:34:09Z</time>
      </trkpt>
      <trkpt lat="43.22259" lon="5.47738">
        <ele>360</ele>
        <time>2025-10-18T12:34:10Z</time>
      </trkpt>
      <trkpt lat="43.2226" lon="5.47738">
        <ele>360.3</ele>
        <time>2025-10-18T12:34:11Z</time>
      </trkpt>
      <trkpt lat="43.2226" lon="5.47739">
        <ele>360.3</ele>
        <time>2025-10-18T12:34:12Z</time>
      </trkpt>
      <trkpt lat="43.2226" lon="5.47739">
        <ele>360.5</ele>
        <time>2025-10-18T12:34:13Z</time>
      </trkpt>
      <trkpt lat="43.22261" lon="5.4774">
        <ele>360.6</ele>
        <time>2025-10-18T12:34:14Z</time>
      </trkpt>
      <trkpt lat="43.22261" lon="5.47739">
        <ele>360.6</ele>
        <time>2025-10-18T12:34:15Z</time>
      </trkpt>
      <trkpt lat="43.22261" lon="5.47739">
        <ele>360.8</ele>
        <time>2025-10-18T12:34:16Z</time>
      </trkpt>
      <trkpt lat="43.22261" lon="5.4774">
        <ele>361</ele>
        <time>2025-10-18T12:34:17Z</time>
      </trkpt>
      <trkpt lat="43.22261" lon="5.4774">
        <ele>361.1</ele>
        <time>2025-10-18T12:34:18Z</time>
      </trkpt>
      <trkpt lat="43.22262" lon="5.4774">
        <ele>361.2</ele>
        <time>2025-10-18T12:34:19Z</time>
      </trkpt>
      <trkpt lat="43.22262" lon="5.4774">
        <ele>361.3</ele>
        <time>2025-10-18T12:34:20Z</time>
      </trkpt>
      <trkpt lat="43.22262" lon="5.4774">
        <ele>361.3</ele>
        <time>2025-10-18T12:34:21Z</time>
      </trkpt>
      <trkpt lat="43.22262" lon="5.4774">
        <ele>361.4</ele>
        <time>2025-10-18T12:34:22Z</time>
      </trkpt>
      <trkpt lat="43.22262" lon="5.47741">
        <ele>361.4</ele>
        <time>2025-10-18T12:34:23Z</time>
      </trkpt>
      <trkpt lat="43.22262" lon="5.47741">
        <ele>361.6</ele>
        <time>2025-10-18T12:34:24Z</time>
      </trkpt>
      <trkpt lat="43.22262" lon="5.47741">
        <ele>361.6</ele>
        <time>2025-10-18T12:34:25Z</time>
      </trkpt>
      <trkpt lat="43.22262" lon="5.47741">
        <ele>361.8</ele>
        <time>2025-10-18T12:34:26Z</time>
      </trkpt>
      <trkpt lat="43.22263" lon="5.47742">
        <ele>361.9</ele>
        <time>2025-10-18T12:34:27Z</time>
      </trkpt>
      <trkpt lat="43.22263" lon="5.47743">
        <ele>362</ele>
        <time>2025-10-18T12:34:28Z</time>
      </trkpt>
      <trkpt lat="43.22264" lon="5.47744">
        <ele>362</ele>
        <time>2025-10-18T12:34:29Z</time>
      </trkpt>
      <trkpt lat="43.22264" lon="5.47744">
        <ele>362</ele>
        <time>2025-10-18T12:34:30Z</time>
      </trkpt>
      <trkpt lat="43.22264" lon="5.47745">
        <ele>362.2</ele>
        <time>2025-10-18T12:34:31Z</time>
      </trkpt>
      <trkpt lat="43.22265" lon="5.47744">
        <ele>362.3</ele>
        <time>2025-10-18T12:34:32Z</time>
      </trkpt>
      <trkpt lat="43.22265" lon="5.47744">
        <ele>362.5</ele>
        <time>2025-10-18T12:34:33Z</time>
      </trkpt>
      <trkpt lat="43.22265" lon="5.47745">
        <ele>362.7</ele>
        <time>2025-10-18T12:34:34Z</time>
      </trkpt>
      <trkpt lat="43.22265" lon="5.47745">
        <ele>362.9</ele>
        <time>2025-10-18T12:34:35Z</time>
      </trkpt>
      <trkpt lat="43.22265" lon="5.47745">
        <ele>363</ele>
        <time>2025-10-18T12:34:36Z</time>
      </trkpt>
      <trkpt lat="43.22265" lon="5.47745">
        <ele>363.1</ele>
        <time>2025-10-18T12:34:37Z</time>
      </trkpt>
      <trkpt lat="43.22266" lon="5.47745">
        <ele>363.2</ele>
        <time>2025-10-18T12:34:38Z</time>
      </trkpt>
      <trkpt lat="43.22266" lon="5.47745">
        <ele>363.3</ele>
        <time>2025-10-18T12:34:39Z</time>
      </trkpt>
      <trkpt lat="43.22266" lon="5.47745">
        <ele>363.3</ele>
        <time>2025-10-18T12:34:40Z</time>
      </trkpt>
      <trkpt lat="43.22266" lon="5.47745">
        <ele>363.4</ele>
        <time>2025-10-18T12:34:41Z</time>
      </trkpt>
      <trkpt lat="43.22266" lon="5.47745">
        <ele>363.4</ele>
        <time>2025-10-18T12:34:42Z</time>
      </trkpt>
      <trkpt lat="43.22266" lon="5.47744">
        <ele>363.4</ele>
        <time>2025-10-18T12:34:43Z</time>
      </trkpt>
      <trkpt lat="43.22266" lon="5.47744">
        <ele>363.4</ele>
        <time>2025-10-18T12:34:44Z</time>
      </trkpt>
      <trkpt lat="43.22267" lon="5.47744">
        <ele>363.4</ele>
        <time>2025-10-18T12:34:45Z</time>
      </trkpt>
      <trkpt lat="43.22267" lon="5.47744">
        <ele>363.4</ele>
        <time>2025-10-18T12:34:46Z</time>
      </trkpt>
      <trkpt lat="43.22267" lon="5.47744">
        <ele>363.3</ele>
        <time>2025-10-18T12:34:47Z</time>
      </trkpt>
      <trkpt lat="43.22267" lon="5.47744">
        <ele>363.4</ele>
        <time>2025-10-18T12:34:48Z</time>
      </trkpt>
      <trkpt lat="43.22267" lon="5.47744">
        <ele>363.3</ele>
        <time>2025-10-18T12:34:49Z</time>
      </trkpt>
      <trkpt lat="43.22268" lon="5.47744">
        <ele>363.3</ele>
        <time>2025-10-18T12:34:50Z</time>
      </trkpt>
      <trkpt lat="43.22267" lon="5.47744">
        <ele>363.2</ele>
        <time>2025-10-18T12:34:51Z</time>
      </trkpt>
      <trkpt lat="43.22267" lon="5.47744">
        <ele>363.2</ele>
        <time>2025-10-18T12:34:52Z</time>
      </trkpt>
      <trkpt lat="43.22267" lon="5.47744">
        <ele>363.1</ele>
        <time>2025-10-18T12:34:53Z</time>
      </trkpt>
      <trkpt lat="43.22267" lon="5.47744">
        <ele>363.1</ele>
        <time>2025-10-18T12:34:54Z</time>
      </trkpt>
      <trkpt lat="43.22267" lon="5.47744">
        <ele>363.2</ele>
        <time>2025-10-18T12:34:55Z</time>
      </trkpt>
      <trkpt lat="43.22267" lon="5.47744">
        <ele>363.2</ele>
        <time>2025-10-18T12:34:56Z</time>
      </trkpt>
      <trkpt lat="43.22268" lon="5.47743">
        <ele>363.3</ele>
        <time>2025-10-18T12:34:57Z</time>
      </trkpt>
      <trkpt lat="43.22268" lon="5.47743">
        <ele>363.3</ele>
        <time>2025-10-18T12:34:58Z</time>
      </trkpt>
      <trkpt lat="43.22268" lon="5.47743">
        <ele>363.4</ele>
        <time>2025-10-18T12:34:59Z</time>
      </trkpt>
      <trkpt lat="43.22268" lon="5.47743">
        <ele>363.5</ele>
        <time>2025-10-18T12:35:00Z</time>
      </trkpt>
      <trkpt lat="43.22268" lon="5.47743">
        <ele>363.6</ele>
        <time>2025-10-18T12:35:01Z</time>
      </trkpt>
      <trkpt lat="43.22268" lon="5.47743">
        <ele>363.7</ele>
        <time>2025-10-18T12:35:02Z</time>
      </trkpt>
      <trkpt lat="43.22267" lon="5.47744">
        <ele>363.7</ele>
        <time>2025-10-18T12:35:03Z</time>
      </trkpt>
      <trkpt lat="43.22267" lon="5.47744">
        <ele>363.6</ele>
        <time>2025-10-18T12:35:04Z</time>
      </trkpt>
      <trkpt lat="43.22267" lon="5.47744">
        <ele>363.5</ele>
        <time>2025-10-18T12:35:05Z</time>
      </trkpt>
      <trkpt lat="43.22266" lon="5.47744">
        <ele>363.3</ele>
        <time>2025-10-18T12:35:06Z</time>
      </trkpt>
      <trkpt lat="43.22267" lon="5.47744">
        <ele>363.3</ele>
        <time>2025-10-18T12:35:07Z</time>
      </trkpt>
      <trkpt lat="43.22267" lon="5.47744">
        <ele>363.3</ele>
        <time>2025-10-18T12:35:08Z</time>
      </trkpt>
      <trkpt lat="43.22267" lon="5.47744">
        <ele>363.3</ele>
        <time>2025-10-18T12:35:09Z</time>
      </trkpt>
      <trkpt lat="43.22267" lon="5.47743">
        <ele>363.3</ele>
        <time>2025-10-18T12:35:10Z</time>
      </trkpt>
      <trkpt lat="43.22267" lon="5.47743">
        <ele>363.3</ele>
        <time>2025-10-18T12:35:11Z</time>
      </trkpt>
      <trkpt lat="43.22267" lon="5.47743">
        <ele>363.3</ele>
        <time>2025-10-18T12:35:12Z</time>
      </trkpt>
      <trkpt lat="43.22266" lon="5.47743">
        <ele>363.2</ele>
        <time>2025-10-18T12:35:13Z</time>
      </trkpt>
      <trkpt lat="43.22266" lon="5.47743">
        <ele>363.2</ele>
        <time>2025-10-18T12:35:14Z</time>
      </trkpt>
      <trkpt lat="43.22266" lon="5.47743">
        <ele>363.3</ele>
        <time>2025-10-18T12:35:15Z</time>
      </trkpt>
      <trkpt lat="43.22266" lon="5.47743">
        <ele>363.3</ele>
        <time>2025-10-18T12:35:16Z</time>
      </trkpt>
      <trkpt lat="43.22266" lon="5.47743">
        <ele>363.3</ele>
        <time>2025-10-18T12:35:17Z</time>
      </trkpt>
      <trkpt lat="43.22266" lon="5.47743">
        <ele>363.4</ele>
        <time>2025-10-18T12:35:18Z</time>
      </trkpt>
      <trkpt lat="43.22266" lon="5.47744">
        <ele>363.4</ele>
        <time>2025-10-18T12:35:19Z</time>
      </trkpt>
      <trkpt lat="43.22266" lon="5.47743">
        <ele>363.5</ele>
        <time>2025-10-18T12:35:20Z</time>
      </trkpt>
      <trkpt lat="43.22266" lon="5.47743">
        <ele>363.5</ele>
        <time>2025-10-18T12:35:21Z</time>
      </trkpt>
      <trkpt lat="43.22266" lon="5.47743">
        <ele>363.6</ele>
        <time>2025-10-18T12:35:22Z</time>
      </trkpt>
      <trkpt lat="43.22265" lon="5.47744">
        <ele>363.6</ele>
        <time>2025-10-18T12:35:23Z</time>
      </trkpt>
      <trkpt lat="43.22265" lon="5.47744">
        <ele>363.6</ele>
        <time>2025-10-18T12:35:24Z</time>
      </trkpt>
      <trkpt lat="43.22265" lon="5.47744">
        <ele>363.7</ele>
        <time>2025-10-18T12:35:25Z</time>
      </trkpt>
      <trkpt lat="43.22265" lon="5.47744">
        <ele>363.7</ele>
        <time>2025-10-18T12:35:26Z</time>
      </trkpt>
      <trkpt lat="43.22265" lon="5.47744">
        <ele>363.7</ele>
        <time>2025-10-18T12:35:27Z</time>
      </trkpt>
      <trkpt lat="43.22266" lon="5.47744">
        <ele>363.8</ele>
        <time>2025-10-18T12:35:28Z</time>
      </trkpt>
      <trkpt lat="43.22266" lon="5.47745">
        <ele>363.8</ele>
        <time>2025-10-18T12:35:29Z</time>
      </trkpt>
      <trkpt lat="43.22266" lon="5.47745">
        <ele>363.9</ele>
        <time>2025-10-18T12:35:30Z</time>
      </trkpt>
      <trkpt lat="43.22266" lon="5.47745">
        <ele>364</ele>
        <time>2025-10-18T12:35:31Z</time>
      </trkpt>
      <trkpt lat="43.22266" lon="5.47744">
        <ele>364.1</ele>
        <time>2025-10-18T12:35:32Z</time>
      </trkpt>
      <trkpt lat="43.22267" lon="5.47744">
        <ele>364.1</ele>
        <time>2025-10-18T12:35:33Z</time>
      </trkpt>
      <trkpt lat="43.22267" lon="5.47744">
        <ele>364.1</ele>
        <time>2025-10-18T12:35:34Z</time>
      </trkpt>
      <trkpt lat="43.22267" lon="5.47744">
        <ele>364</ele>
        <time>2025-10-18T12:35:35Z</time>
      </trkpt>
      <trkpt lat="43.22267" lon="5.47744">
        <ele>364</ele>
        <time>2025-10-18T12:35:36Z</time>
      </trkpt>
      <trkpt lat="43.22267" lon="5.47744">
        <ele>364.1</ele>
        <time>2025-10-18T12:35:37Z</time>
      </trkpt>
      <trkpt lat="43.22267" lon="5.47744">
        <ele>364.1</ele>
        <time>2025-10-18T12:35:38Z</time>
      </trkpt>
      <trkpt lat="43.22268" lon="5.47745">
        <ele>364.1</ele>
        <time>2025-10-18T12:35:39Z</time>
      </trkpt>
      <trkpt lat="43.22268" lon="5.47745">
        <ele>364.1</ele>
        <time>2025-10-18T12:35:40Z</time>
      </trkpt>
      <trkpt lat="43.22268" lon="5.47745">
        <ele>364.1</ele>
        <time>2025-10-18T12:35:41Z</time>
      </trkpt>
      <trkpt lat="43.22268" lon="5.47746">
        <ele>364.1</ele>
        <time>2025-10-18T12:35:42Z</time>
      </trkpt>
      <trkpt lat="43.22268" lon="5.47746">
        <ele>364.1</ele>
        <time>2025-10-18T12:35:43Z</time>
      </trkpt>
      <trkpt lat="43.22268" lon="5.47745">
        <ele>364.1</ele>
        <time>2025-10-18T12:35:44Z</time>
      </trkpt>
      <trkpt lat="43.22268" lon="5.47746">
        <ele>364.1</ele>
        <time>2025-10-18T12:35:45Z</time>
      </trkpt>
      <trkpt lat="43.22268" lon="5.47746">
        <ele>364.1</ele>
        <time>2025-10-18T12:35:46Z</time>
      </trkpt>
      <trkpt lat="43.22268" lon="5.47746">
        <ele>364</ele>
        <time>2025-10-18T12:35:47Z</time>
      </trkpt>
      <trkpt lat="43.22268" lon="5.47747">
        <ele>364</ele>
        <time>2025-10-18T12:35:48Z</time>
      </trkpt>
      <trkpt lat="43.22268" lon="5.47746">
        <ele>364</ele>
        <time>2025-10-18T12:35:49Z</time>
      </trkpt>
      <trkpt lat="43.22268" lon="5.47746">
        <ele>364</ele>
        <time>2025-10-18T12:35:50Z</time>
      </trkpt>
      <trkpt lat="43.22268" lon="5.47745">
        <ele>364.1</ele>
        <time>2025-10-18T12:35:51Z</time>
      </trkpt>
      <trkpt lat="43.22268" lon="5.47746">
        <ele>364.1</ele>
        <time>2025-10-18T12:35:52Z</time>
      </trkpt>
      <trkpt lat="43.22268" lon="5.47746">
        <ele>364.2</ele>
        <time>2025-10-18T12:35:53Z</time>
      </trkpt>
      <trkpt lat="43.22268" lon="5.47745">
        <ele>364.1</ele>
        <time>2025-10-18T12:35:54Z</time>
      </trkpt>
      <trkpt lat="43.22268" lon="5.47745">
        <ele>364</ele>
        <time>2025-10-18T12:35:55Z</time>
      </trkpt>
      <trkpt lat="43.22268" lon="5.47745">
        <ele>364</ele>
        <time>2025-10-18T12:35:56Z</time>
      </trkpt>
      <trkpt lat="43.22268" lon="5.47745">
        <ele>363.9</ele>
        <time>2025-10-18T12:35:57Z</time>
      </trkpt>
      <trkpt lat="43.22268" lon="5.47746">
        <ele>363.8</ele>
        <time>2025-10-18T12:35:58Z</time>
      </trkpt>
      <trkpt lat="43.22268" lon="5.47746">
        <ele>363.9</ele>
        <time>2025-10-18T12:35:59Z</time>
      </trkpt>
      <trkpt lat="43.22268" lon="5.47747">
        <ele>363.9</ele>
        <time>2025-10-18T12:36:00Z</time>
      </trkpt>
      <trkpt lat="43.22269" lon="5.47747">
        <ele>363.9</ele>
        <time>2025-10-18T12:36:01Z</time>
      </trkpt>
      <trkpt lat="43.2227" lon="5.47748">
        <ele>363.8</ele>
        <time>2025-10-18T12:36:02Z</time>
      </trkpt>
      <trkpt lat="43.2227" lon="5.47748">
        <ele>363.8</ele>
        <time>2025-10-18T12:36:03Z</time>
      </trkpt>
      <trkpt lat="43.2227" lon="5.47748">
        <ele>363.9</ele>
        <time>2025-10-18T12:36:04Z</time>
      </trkpt>
      <trkpt lat="43.2227" lon="5.47748">
        <ele>363.9</ele>
        <time>2025-10-18T12:36:05Z</time>
      </trkpt>
      <trkpt lat="43.2227" lon="5.47748">
        <ele>363.9</ele>
        <time>2025-10-18T12:36:06Z</time>
      </trkpt>
      <trkpt lat="43.2227" lon="5.47747">
        <ele>363.9</ele>
        <time>2025-10-18T12:36:07Z</time>
      </trkpt>
      <trkpt lat="43.2227" lon="5.47747">
        <ele>363.9</ele>
        <time>2025-10-18T12:36:08Z</time>
      </trkpt>
      <trkpt lat="43.22271" lon="5.47746">
        <ele>363.9</ele>
        <time>2025-10-18T12:36:09Z</time>
      </trkpt>
      <trkpt lat="43.22271" lon="5.47746">
        <ele>363.9</ele>
        <time>2025-10-18T12:36:10Z</time>
      </trkpt>
      <trkpt lat="43.22271" lon="5.47746">
        <ele>363.8</ele>
        <time>2025-10-18T12:36:11Z</time>
      </trkpt>
      <trkpt lat="43.22271" lon="5.47746">
        <ele>363.8</ele>
        <time>2025-10-18T12:36:12Z</time>
      </trkpt>
      <trkpt lat="43.22271" lon="5.47746">
        <ele>363.8</ele>
        <time>2025-10-18T12:36:13Z</time>
      </trkpt>
      <trkpt lat="43.22271" lon="5.47746">
        <ele>363.9</ele>
        <time>2025-10-18T12:36:14Z</time>
      </trkpt>
      <trkpt lat="43.22271" lon="5.47747">
        <ele>363.9</ele>
        <time>2025-10-18T12:36:15Z</time>
      </trkpt>
      <trkpt lat="43.22271" lon="5.47747">
        <ele>363.8</ele>
        <time>2025-10-18T12:36:16Z</time>
      </trkpt>
      <trkpt lat="43.22271" lon="5.47746">
        <ele>363.8</ele>
        <time>2025-10-18T12:36:17Z</time>
      </trkpt>
      <trkpt lat="43.22271" lon="5.47747">
        <ele>363.8</ele>
        <time>2025-10-18T12:36:18Z</time>
      </trkpt>
      <trkpt lat="43.22272" lon="5.47746">
        <ele>363.8</ele>
        <time>2025-10-18T12:36:19Z</time>
      </trkpt>
      <trkpt lat="43.22271" lon="5.47747">
        <ele>363.8</ele>
        <time>2025-10-18T12:36:20Z</time>
      </trkpt>
      <trkpt lat="43.22271" lon="5.47747">
        <ele>363.8</ele>
        <time>2025-10-18T12:36:21Z</time>
      </trkpt>
      <trkpt lat="43.22271" lon="5.47747">
        <ele>363.9</ele>
        <time>2025-10-18T12:36:22Z</time>
      </trkpt>
      <trkpt lat="43.22271" lon="5.47747">
        <ele>363.8</ele>
        <time>2025-10-18T12:36:23Z</time>
      </trkpt>
      <trkpt lat="43.22271" lon="5.47747">
        <ele>363.7</ele>
        <time>2025-10-18T12:36:24Z</time>
      </trkpt>
      <trkpt lat="43.22271" lon="5.47747">
        <ele>363.7</ele>
        <time>2025-10-18T12:36:25Z</time>
      </trkpt>
      <trkpt lat="43.22271" lon="5.47747">
        <ele>363.7</ele>
        <time>2025-10-18T12:36:26Z</time>
      </trkpt>
      <trkpt lat="43.22271" lon="5.47747">
        <ele>363.7</ele>
        <time>2025-10-18T12:36:27Z</time>
      </trkpt>
      <trkpt lat="43.22271" lon="5.47747">
        <ele>363.6</ele>
        <time>2025-10-18T12:36:28Z</time>
      </trkpt>
      <trkpt lat="43.22271" lon="5.47747">
        <ele>363.6</ele>
        <time>2025-10-18T12:36:29Z</time>
      </trkpt>
      <trkpt lat="43.22271" lon="5.47747">
        <ele>363.6</ele>
        <time>2025-10-18T12:36:30Z</time>
      </trkpt>
      <trkpt lat="43.22271" lon="5.47747">
        <ele>363.6</ele>
        <time>2025-10-18T12:36:31Z</time>
      </trkpt>
      <trkpt lat="43.22271" lon="5.47747">
        <ele>363.6</ele>
        <time>2025-10-18T12:36:32Z</time>
      </trkpt>
      <trkpt lat="43.22271" lon="5.47747">
        <ele>363.6</ele>
        <time>2025-10-18T12:36:33Z</time>
      </trkpt>
      <trkpt lat="43.22271" lon="5.47747">
        <ele>363.6</ele>
        <time>2025-10-18T12:36:34Z</time>
      </trkpt>
      <trkpt lat="43.22271" lon="5.47747">
        <ele>363.7</ele>
        <time>2025-10-18T12:36:35Z</time>
      </trkpt>
      <trkpt lat="43.22271" lon="5.47747">
        <ele>363.8</ele>
        <time>2025-10-18T12:36:36Z</time>
      </trkpt>
      <trkpt lat="43.2227" lon="5.47747">
        <ele>363.8</ele>
        <time>2025-10-18T12:36:37Z</time>
      </trkpt>
      <trkpt lat="43.2227" lon="5.47747">
        <ele>363.9</ele>
        <time>2025-10-18T12:36:38Z</time>
      </trkpt>
      <trkpt lat="43.2227" lon="5.47747">
        <ele>363.9</ele>
        <time>2025-10-18T12:36:39Z</time>
      </trkpt>
      <trkpt lat="43.2227" lon="5.47747">
        <ele>363.9</ele>
        <time>2025-10-18T12:36:40Z</time>
      </trkpt>
      <trkpt lat="43.2227" lon="5.47747">
        <ele>364</ele>
        <time>2025-10-18T12:36:41Z</time>
      </trkpt>
      <trkpt lat="43.2227" lon="5.47747">
        <ele>364</ele>
        <time>2025-10-18T12:36:42Z</time>
      </trkpt>
      <trkpt lat="43.2227" lon="5.47747">
        <ele>364.1</ele>
        <time>2025-10-18T12:36:43Z</time>
      </trkpt>
      <trkpt lat="43.2227" lon="5.47747">
        <ele>364.1</ele>
        <time>2025-10-18T12:36:44Z</time>
      </trkpt>
      <trkpt lat="43.2227" lon="5.47747">
        <ele>364.2</ele>
        <time>2025-10-18T12:36:45Z</time>
      </trkpt>
      <trkpt lat="43.22269" lon="5.47747">
        <ele>364.2</ele>
        <time>2025-10-18T12:36:46Z</time>
      </trkpt>
      <trkpt lat="43.22269" lon="5.47747">
        <ele>364.2</ele>
        <time>2025-10-18T12:36:47Z</time>
      </trkpt>
      <trkpt lat="43.22269" lon="5.47747">
        <ele>364.1</ele>
        <time>2025-10-18T12:36:48Z</time>
      </trkpt>
      <trkpt lat="43.22269" lon="5.47747">
        <ele>364</ele>
        <time>2025-10-18T12:36:49Z</time>
      </trkpt>
      <trkpt lat="43.22269" lon="5.47747">
        <ele>363.9</ele>
        <time>2025-10-18T12:36:50Z</time>
      </trkpt>
      <trkpt lat="43.22269" lon="5.47747">
        <ele>363.9</ele>
        <time>2025-10-18T12:36:51Z</time>
      </trkpt>
      <trkpt lat="43.22269" lon="5.47747">
        <ele>363.9</ele>
        <time>2025-10-18T12:36:52Z</time>
      </trkpt>
      <trkpt lat="43.22269" lon="5.47747">
        <ele>363.9</ele>
        <time>2025-10-18T12:36:53Z</time>
      </trkpt>
      <trkpt lat="43.22269" lon="5.47746">
        <ele>363.9</ele>
        <time>2025-10-18T12:36:54Z</time>
      </trkpt>
      <trkpt lat="43.22269" lon="5.47747">
        <ele>363.9</ele>
        <time>2025-10-18T12:36:55Z</time>
      </trkpt>
      <trkpt lat="43.22269" lon="5.47746">
        <ele>363.8</ele>
        <time>2025-10-18T12:36:56Z</time>
      </trkpt>
      <trkpt lat="43.22269" lon="5.47746">
        <ele>363.8</ele>
        <time>2025-10-18T12:36:57Z</time>
      </trkpt>
      <trkpt lat="43.22269" lon="5.47746">
        <ele>363.8</ele>
        <time>2025-10-18T12:36:58Z</time>
      </trkpt>
      <trkpt lat="43.22269" lon="5.47746">
        <ele>363.8</ele>
        <time>2025-10-18T12:36:59Z</time>
      </trkpt>
      <trkpt lat="43.22269" lon="5.47746">
        <ele>363.9</ele>
        <time>2025-10-18T12:37:00Z</time>
      </trkpt>
      <trkpt lat="43.22269" lon="5.47745">
        <ele>363.8</ele>
        <time>2025-10-18T12:37:01Z</time>
      </trkpt>
      <trkpt lat="43.22269" lon="5.47745">
        <ele>363.8</ele>
        <time>2025-10-18T12:37:02Z</time>
      </trkpt>
      <trkpt lat="43.22269" lon="5.47745">
        <ele>363.8</ele>
        <time>2025-10-18T12:37:03Z</time>
      </trkpt>
      <trkpt lat="43.22269" lon="5.47745">
        <ele>363.8</ele>
        <time>2025-10-18T12:37:04Z</time>
      </trkpt>
      <trkpt lat="43.22269" lon="5.47745">
        <ele>363.8</ele>
        <time>2025-10-18T12:37:05Z</time>
      </trkpt>
      <trkpt lat="43.22269" lon="5.47745">
        <ele>363.7</ele>
        <time>2025-10-18T12:37:06Z</time>
      </trkpt>
      <trkpt lat="43.22269" lon="5.47745">
        <ele>363.7</ele>
        <time>2025-10-18T12:37:07Z</time>
      </trkpt>
      <trkpt lat="43.22269" lon="5.47745">
        <ele>363.7</ele>
        <time>2025-10-18T12:37:08Z</time>
      </trkpt>
      <trkpt lat="43.22269" lon="5.47745">
        <ele>363.8</ele>
        <time>2025-10-18T12:37:09Z</time>
      </trkpt>
      <trkpt lat="43.22269" lon="5.47746">
        <ele>363.8</ele>
        <time>2025-10-18T12:37:10Z</time>
      </trkpt>
      <trkpt lat="43.22269" lon="5.47746">
        <ele>363.7</ele>
        <time>2025-10-18T12:37:11Z</time>
      </trkpt>
      <trkpt lat="43.22268" lon="5.47748">
        <ele>363.7</ele>
        <time>2025-10-18T12:37:12Z</time>
      </trkpt>
      <trkpt lat="43.22269" lon="5.47748">
        <ele>363.6</ele>
        <time>2025-10-18T12:37:13Z</time>
      </trkpt>
      <trkpt lat="43.22268" lon="5.47749">
        <ele>363.4</ele>
        <time>2025-10-18T12:37:14Z</time>
      </trkpt>
      <trkpt lat="43.22268" lon="5.47751">
        <ele>363.2</ele>
        <time>2025-10-18T12:37:15Z</time>
      </trkpt>
      <trkpt lat="43.22269" lon="5.47752">
        <ele>363.2</ele>
        <time>2025-10-18T12:37:16Z</time>
      </trkpt>
      <trkpt lat="43.22269" lon="5.47752">
        <ele>363.1</ele>
        <time>2025-10-18T12:37:17Z</time>
      </trkpt>
      <trkpt lat="43.22269" lon="5.47753">
        <ele>363</ele>
        <time>2025-10-18T12:37:18Z</time>
      </trkpt>
      <trkpt lat="43.22269" lon="5.47754">
        <ele>362.9</ele>
        <time>2025-10-18T12:37:19Z</time>
      </trkpt>
      <trkpt lat="43.22269" lon="5.47755">
        <ele>362.8</ele>
        <time>2025-10-18T12:37:20Z</time>
      </trkpt>
      <trkpt lat="43.22269" lon="5.47755">
        <ele>362.7</ele>
        <time>2025-10-18T12:37:21Z</time>
      </trkpt>
      <trkpt lat="43.22269" lon="5.47756">
        <ele>362.5</ele>
        <time>2025-10-18T12:37:22Z</time>
      </trkpt>
      <trkpt lat="43.22269" lon="5.47757">
        <ele>362.4</ele>
        <time>2025-10-18T12:37:23Z</time>
      </trkpt>
      <trkpt lat="43.22269" lon="5.47757">
        <ele>362.3</ele>
        <time>2025-10-18T12:37:24Z</time>
      </trkpt>
      <trkpt lat="43.22268" lon="5.47758">
        <ele>362.1</ele>
        <time>2025-10-18T12:37:25Z</time>
      </trkpt>
      <trkpt lat="43.22268" lon="5.47759">
        <ele>362</ele>
        <time>2025-10-18T12:37:26Z</time>
      </trkpt>
      <trkpt lat="43.22267" lon="5.47759">
        <ele>361.6</ele>
        <time>2025-10-18T12:37:27Z</time>
      </trkpt>
      <trkpt lat="43.22266" lon="5.4776">
        <ele>361.3</ele>
        <time>2025-10-18T12:37:28Z</time>
      </trkpt>
      <trkpt lat="43.22266" lon="5.47761">
        <ele>361.1</ele>
        <time>2025-10-18T12:37:29Z</time>
      </trkpt>
      <trkpt lat="43.22266" lon="5.47761">
        <ele>360.9</ele>
        <time>2025-10-18T12:37:30Z</time>
      </trkpt>
      <trkpt lat="43.22266" lon="5.47761">
        <ele>360.7</ele>
        <time>2025-10-18T12:37:31Z</time>
      </trkpt>
      <trkpt lat="43.22266" lon="5.47761">
        <ele>360.4</ele>
        <time>2025-10-18T12:37:32Z</time>
      </trkpt>
      <trkpt lat="43.22266" lon="5.47762">
        <ele>360.2</ele>
        <time>2025-10-18T12:37:33Z</time>
      </trkpt>
      <trkpt lat="43.22267" lon="5.47763">
        <ele>360</ele>
        <time>2025-10-18T12:37:34Z</time>
      </trkpt>
      <trkpt lat="43.22266" lon="5.47763">
        <ele>359.8</ele>
        <time>2025-10-18T12:37:35Z</time>
      </trkpt>
      <trkpt lat="43.22267" lon="5.47763">
        <ele>359.5</ele>
        <time>2025-10-18T12:37:36Z</time>
      </trkpt>
      <trkpt lat="43.22267" lon="5.47764">
        <ele>359.4</ele>
        <time>2025-10-18T12:37:37Z</time>
      </trkpt>
      <trkpt lat="43.22267" lon="5.47765">
        <ele>359.2</ele>
        <time>2025-10-18T12:37:38Z</time>
      </trkpt>
      <trkpt lat="43.22267" lon="5.47765">
        <ele>359</ele>
        <time>2025-10-18T12:37:39Z</time>
      </trkpt>
      <trkpt lat="43.22267" lon="5.47765">
        <ele>359</ele>
        <time>2025-10-18T12:37:40Z</time>
      </trkpt>
      <trkpt lat="43.22268" lon="5.47765">
        <ele>358.8</ele>
        <time>2025-10-18T12:37:41Z</time>
      </trkpt>
      <trkpt lat="43.22268" lon="5.47765">
        <ele>358.7</ele>
        <time>2025-10-18T12:37:42Z</time>
      </trkpt>
      <trkpt lat="43.22268" lon="5.47766">
        <ele>358.6</ele>
        <time>2025-10-18T12:37:43Z</time>
      </trkpt>
      <trkpt lat="43.22268" lon="5.47766">
        <ele>358.5</ele>
        <time>2025-10-18T12:37:44Z</time>
      </trkpt>
      <trkpt lat="43.22268" lon="5.47767">
        <ele>358.4</ele>
        <time>2025-10-18T12:37:45Z</time>
      </trkpt>
      <trkpt lat="43.22268" lon="5.47767">
        <ele>358.3</ele>
        <time>2025-10-18T12:37:46Z</time>
      </trkpt>
      <trkpt lat="43.22268" lon="5.47768">
        <ele>358.2</ele>
        <time>2025-10-18T12:37:47Z</time>
      </trkpt>
      <trkpt lat="43.22268" lon="5.47768">
        <ele>358.1</ele>
        <time>2025-10-18T12:37:48Z</time>
      </trkpt>
      <trkpt lat="43.22268" lon="5.47768">
        <ele>358.1</ele>
        <time>2025-10-18T12:37:49Z</time>
      </trkpt>
      <trkpt lat="43.22267" lon="5.47767">
        <ele>358</ele>
        <time>2025-10-18T12:37:50Z</time>
      </trkpt>
      <trkpt lat="43.22267" lon="5.47768">
        <ele>357.9</ele>
        <time>2025-10-18T12:37:51Z</time>
      </trkpt>
      <trkpt lat="43.22268" lon="5.47768">
        <ele>357.8</ele>
        <time>2025-10-18T12:37:52Z</time>
      </trkpt>
      <trkpt lat="43.22268" lon="5.47768">
        <ele>357.7</ele>
        <time>2025-10-18T12:37:53Z</time>
      </trkpt>
      <trkpt lat="43.22268" lon="5.47768">
        <ele>357.7</ele>
        <time>2025-10-18T12:37:54Z</time>
      </trkpt>
      <trkpt lat="43.22268" lon="5.47768">
        <ele>357.6</ele>
        <time>2025-10-18T12:37:55Z</time>
      </trkpt>
      <trkpt lat="43.22267" lon="5.47768">
        <ele>357.5</ele>
        <time>2025-10-18T12:37:56Z</time>
      </trkpt>
      <trkpt lat="43.22267" lon="5.47767">
        <ele>357.5</ele>
        <time>2025-10-18T12:37:57Z</time>
      </trkpt>
      <trkpt lat="43.22267" lon="5.47767">
        <ele>357.4</ele>
        <time>2025-10-18T12:37:58Z</time>
      </trkpt>
      <trkpt lat="43.22267" lon="5.47768">
        <ele>357.2</ele>
        <time>2025-10-18T12:37:59Z</time>
      </trkpt>
      <trkpt lat="43.22267" lon="5.47768">
        <ele>357</ele>
        <time>2025-10-18T12:38:00Z</time>
      </trkpt>
      <trkpt lat="43.22267" lon="5.47769">
        <ele>356.9</ele>
        <time>2025-10-18T12:38:01Z</time>
      </trkpt>
      <trkpt lat="43.22266" lon="5.4777">
        <ele>356.7</ele>
        <time>2025-10-18T12:38:02Z</time>
      </trkpt>
      <trkpt lat="43.22266" lon="5.4777">
        <ele>356.4</ele>
        <time>2025-10-18T12:38:03Z</time>
      </trkpt>
      <trkpt lat="43.22266" lon="5.4777">
        <ele>356.1</ele>
        <time>2025-10-18T12:38:04Z</time>
      </trkpt>
      <trkpt lat="43.22265" lon="5.47771">
        <ele>355.9</ele>
        <time>2025-10-18T12:38:05Z</time>
      </trkpt>
      <trkpt lat="43.22265" lon="5.47771">
        <ele>355.8</ele>
        <time>2025-10-18T12:38:06Z</time>
      </trkpt>
      <trkpt lat="43.22265" lon="5.47771">
        <ele>355.6</ele>
        <time>2025-10-18T12:38:07Z</time>
      </trkpt>
      <trkpt lat="43.22264" lon="5.47771">
        <ele>355.3</ele>
        <time>2025-10-18T12:38:08Z</time>
      </trkpt>
      <trkpt lat="43.22264" lon="5.47771">
        <ele>355</ele>
        <time>2025-10-18T12:38:09Z</time>
      </trkpt>
      <trkpt lat="43.22263" lon="5.47772">
        <ele>354.7</ele>
        <time>2025-10-18T12:38:10Z</time>
      </trkpt>
      <trkpt lat="43.22263" lon="5.47772">
        <ele>354.4</ele>
        <time>2025-10-18T12:38:11Z</time>
      </trkpt>
      <trkpt lat="43.22263" lon="5.47773">
        <ele>354.1</ele>
        <time>2025-10-18T12:38:12Z</time>
      </trkpt>
      <trkpt lat="43.22263" lon="5.47773">
        <ele>353.8</ele>
        <time>2025-10-18T12:38:13Z</time>
      </trkpt>
      <trkpt lat="43.22263" lon="5.47774">
        <ele>353.6</ele>
        <time>2025-10-18T12:38:14Z</time>
      </trkpt>
      <trkpt lat="43.22263" lon="5.47774">
        <ele>353.4</ele>
        <time>2025-10-18T12:38:15Z</time>
      </trkpt>
      <trkpt lat="43.22263" lon="5.47775">
        <ele>353.3</ele>
        <time>2025-10-18T12:38:16Z</time>
      </trkpt>
      <trkpt lat="43.22263" lon="5.47776">
        <ele>353.2</ele>
        <time>2025-10-18T12:38:17Z</time>
      </trkpt>
      <trkpt lat="43.22264" lon="5.47776">
        <ele>353.1</ele>
        <time>2025-10-18T12:38:18Z</time>
      </trkpt>
      <trkpt lat="43.22264" lon="5.47777">
        <ele>353.1</ele>
        <time>2025-10-18T12:38:19Z</time>
      </trkpt>
      <trkpt lat="43.22264" lon="5.47777">
        <ele>353</ele>
        <time>2025-10-18T12:38:20Z</time>
      </trkpt>
      <trkpt lat="43.22264" lon="5.47777">
        <ele>353</ele>
        <time>2025-10-18T12:38:21Z</time>
      </trkpt>
      <trkpt lat="43.22264" lon="5.47777">
        <ele>353</ele>
        <time>2025-10-18T12:38:22Z</time>
      </trkpt>
      <trkpt lat="43.22264" lon="5.47776">
        <ele>352.9</ele>
        <time>2025-10-18T12:38:23Z</time>
      </trkpt>
      <trkpt lat="43.22264" lon="5.47776">
        <ele>352.9</ele>
        <time>2025-10-18T12:38:24Z</time>
      </trkpt>
      <trkpt lat="43.22265" lon="5.47776">
        <ele>352.9</ele>
        <time>2025-10-18T12:38:25Z</time>
      </trkpt>
      <trkpt lat="43.22265" lon="5.47776">
        <ele>352.9</ele>
        <time>2025-10-18T12:38:26Z</time>
      </trkpt>
      <trkpt lat="43.22265" lon="5.47776">
        <ele>352.8</ele>
        <time>2025-10-18T12:38:27Z</time>
      </trkpt>
      <trkpt lat="43.22265" lon="5.47776">
        <ele>352.8</ele>
        <time>2025-10-18T12:38:28Z</time>
      </trkpt>
      <trkpt lat="43.22265" lon="5.47777">
        <ele>352.8</ele>
        <time>2025-10-18T12:38:29Z</time>
      </trkpt>
      <trkpt lat="43.22265" lon="5.47777">
        <ele>352.8</ele>
        <time>2025-10-18T12:38:30Z</time>
      </trkpt>
      <trkpt lat="43.22265" lon="5.47777">
        <ele>352.8</ele>
        <time>2025-10-18T12:38:31Z</time>
      </trkpt>
      <trkpt lat="43.22265" lon="5.47777">
        <ele>352.7</ele>
        <time>2025-10-18T12:38:32Z</time>
      </trkpt>
      <trkpt lat="43.22264" lon="5.47777">
        <ele>352.7</ele>
        <time>2025-10-18T12:38:33Z</time>
      </trkpt>
      <trkpt lat="43.22264" lon="5.47778">
        <ele>352.6</ele>
        <time>2025-10-18T12:38:34Z</time>
      </trkpt>
      <trkpt lat="43.22264" lon="5.47778">
        <ele>352.6</ele>
        <time>2025-10-18T12:38:35Z</time>
      </trkpt>
      <trkpt lat="43.22264" lon="5.47778">
        <ele>352.6</ele>
        <time>2025-10-18T12:38:36Z</time>
      </trkpt>
      <trkpt lat="43.22263" lon="5.47778">
        <ele>352.4</ele>
        <time>2025-10-18T12:38:37Z</time>
      </trkpt>
      <trkpt lat="43.22263" lon="5.47778">
        <ele>352.4</ele>
        <time>2025-10-18T12:38:38Z</time>
      </trkpt>
      <trkpt lat="43.22263" lon="5.47779">
        <ele>352.4</ele>
        <time>2025-10-18T12:38:39Z</time>
      </trkpt>
      <trkpt lat="43.22262" lon="5.4778">
        <ele>352.4</ele>
        <time>2025-10-18T12:38:40Z</time>
      </trkpt>
      <trkpt lat="43.22262" lon="5.4778">
        <ele>352.3</ele>
        <time>2025-10-18T12:38:41Z</time>
      </trkpt>
      <trkpt lat="43.22262" lon="5.4778">
        <ele>352.3</ele>
        <time>2025-10-18T12:38:42Z</time>
      </trkpt>
      <trkpt lat="43.22262" lon="5.47779">
        <ele>352.2</ele>
        <time>2025-10-18T12:38:43Z</time>
      </trkpt>
      <trkpt lat="43.22262" lon="5.47779">
        <ele>352.2</ele>
        <time>2025-10-18T12:38:44Z</time>
      </trkpt>
      <trkpt lat="43.22262" lon="5.47779">
        <ele>352.1</ele>
        <time>2025-10-18T12:38:45Z</time>
      </trkpt>
      <trkpt lat="43.22262" lon="5.47779">
        <ele>352</ele>
        <time>2025-10-18T12:38:46Z</time>
      </trkpt>
      <trkpt lat="43.22262" lon="5.47779">
        <ele>352.1</ele>
        <time>2025-10-18T12:38:47Z</time>
      </trkpt>
      <trkpt lat="43.22262" lon="5.47779">
        <ele>351.9</ele>
        <time>2025-10-18T12:38:48Z</time>
      </trkpt>
      <trkpt lat="43.22262" lon="5.47779">
        <ele>351.9</ele>
        <time>2025-10-18T12:38:49Z</time>
      </trkpt>
      <trkpt lat="43.22261" lon="5.47779">
        <ele>351.8</ele>
        <time>2025-10-18T12:38:50Z</time>
      </trkpt>
      <trkpt lat="43.22261" lon="5.4778">
        <ele>351.7</ele>
        <time>2025-10-18T12:38:51Z</time>
      </trkpt>
      <trkpt lat="43.22261" lon="5.4778">
        <ele>351.6</ele>
        <time>2025-10-18T12:38:52Z</time>
      </trkpt>
      <trkpt lat="43.22261" lon="5.4778">
        <ele>351.5</ele>
        <time>2025-10-18T12:38:53Z</time>
      </trkpt>
      <trkpt lat="43.22261" lon="5.4778">
        <ele>351.4</ele>
        <time>2025-10-18T12:38:54Z</time>
      </trkpt>
      <trkpt lat="43.22261" lon="5.47781">
        <ele>351.3</ele>
        <time>2025-10-18T12:38:55Z</time>
      </trkpt>
      <trkpt lat="43.2226" lon="5.47781">
        <ele>351.2</ele>
        <time>2025-10-18T12:38:56Z</time>
      </trkpt>
      <trkpt lat="43.22261" lon="5.47781">
        <ele>351.2</ele>
        <time>2025-10-18T12:38:57Z</time>
      </trkpt>
      <trkpt lat="43.22261" lon="5.47781">
        <ele>351.3</ele>
        <time>2025-10-18T12:38:58Z</time>
      </trkpt>
      <trkpt lat="43.22261" lon="5.47782">
        <ele>351.3</ele>
        <time>2025-10-18T12:38:59Z</time>
      </trkpt>
      <trkpt lat="43.22261" lon="5.47782">
        <ele>351.4</ele>
        <time>2025-10-18T12:39:00Z</time>
      </trkpt>
      <trkpt lat="43.22261" lon="5.47782">
        <ele>351.4</ele>
        <time>2025-10-18T12:39:01Z</time>
      </trkpt>
      <trkpt lat="43.22261" lon="5.47782">
        <ele>351.5</ele>
        <time>2025-10-18T12:39:02Z</time>
      </trkpt>
      <trkpt lat="43.22261" lon="5.47783">
        <ele>351.5</ele>
        <time>2025-10-18T12:39:03Z</time>
      </trkpt>
      <trkpt lat="43.2226" lon="5.47783">
        <ele>351.7</ele>
        <time>2025-10-18T12:39:04Z</time>
      </trkpt>
      <trkpt lat="43.2226" lon="5.47783">
        <ele>351.7</ele>
        <time>2025-10-18T12:39:05Z</time>
      </trkpt>
      <trkpt lat="43.2226" lon="5.47783">
        <ele>351.7</ele>
        <time>2025-10-18T12:39:06Z</time>
      </trkpt>
      <trkpt lat="43.2226" lon="5.47783">
        <ele>351.7</ele>
        <time>2025-10-18T12:39:07Z</time>
      </trkpt>
      <trkpt lat="43.2226" lon="5.47783">
        <ele>351.7</ele>
        <time>2025-10-18T12:39:08Z</time>
      </trkpt>
      <trkpt lat="43.2226" lon="5.47783">
        <ele>351.7</ele>
        <time>2025-10-18T12:39:09Z</time>
      </trkpt>
      <trkpt lat="43.22259" lon="5.47782">
        <ele>351.7</ele>
        <time>2025-10-18T12:39:10Z</time>
      </trkpt>
      <trkpt lat="43.22259" lon="5.47782">
        <ele>351.6</ele>
        <time>2025-10-18T12:39:11Z</time>
      </trkpt>
      <trkpt lat="43.2226" lon="5.47782">
        <ele>351.5</ele>
        <time>2025-10-18T12:39:12Z</time>
      </trkpt>
      <trkpt lat="43.2226" lon="5.47783">
        <ele>351.4</ele>
        <time>2025-10-18T12:39:13Z</time>
      </trkpt>
      <trkpt lat="43.2226" lon="5.47783">
        <ele>351.3</ele>
        <time>2025-10-18T12:39:14Z</time>
      </trkpt>
      <trkpt lat="43.2226" lon="5.47783">
        <ele>351.3</ele>
        <time>2025-10-18T12:39:15Z</time>
      </trkpt>
      <trkpt lat="43.2226" lon="5.47783">
        <ele>351.3</ele>
        <time>2025-10-18T12:39:16Z</time>
      </trkpt>
      <trkpt lat="43.2226" lon="5.47783">
        <ele>351.4</ele>
        <time>2025-10-18T12:39:17Z</time>
      </trkpt>
      <trkpt lat="43.2226" lon="5.47783">
        <ele>351.4</ele>
        <time>2025-10-18T12:39:18Z</time>
      </trkpt>
      <trkpt lat="43.2226" lon="5.47783">
        <ele>351.4</ele>
        <time>2025-10-18T12:39:19Z</time>
      </trkpt>
      <trkpt lat="43.2226" lon="5.47783">
        <ele>351.5</ele>
        <time>2025-10-18T12:39:20Z</time>
      </trkpt>
      <trkpt lat="43.22259" lon="5.47783">
        <ele>351.4</ele>
        <time>2025-10-18T12:39:21Z</time>
      </trkpt>
      <trkpt lat="43.22259" lon="5.47783">
        <ele>351.3</ele>
        <time>2025-10-18T12:39:22Z</time>
      </trkpt>
      <trkpt lat="43.22259" lon="5.47782">
        <ele>351.2</ele>
        <time>2025-10-18T12:39:23Z</time>
      </trkpt>
      <trkpt lat="43.22259" lon="5.47782">
        <ele>351.1</ele>
        <time>2025-10-18T12:39:24Z</time>
      </trkpt>
      <trkpt lat="43.2226" lon="5.47782">
        <ele>351</ele>
        <time>2025-10-18T12:39:25Z</time>
      </trkpt>
      <trkpt lat="43.22259" lon="5.47781">
        <ele>351</ele>
        <time>2025-10-18T12:39:26Z</time>
      </trkpt>
      <trkpt lat="43.22259" lon="5.47781">
        <ele>351</ele>
        <time>2025-10-18T12:39:27Z</time>
      </trkpt>
      <trkpt lat="43.22259" lon="5.47781">
        <ele>351</ele>
        <time>2025-10-18T12:39:28Z</time>
      </trkpt>
      <trkpt lat="43.22259" lon="5.47781">
        <ele>350.8</ele>
        <time>2025-10-18T12:39:29Z</time>
      </trkpt>
      <trkpt lat="43.22259" lon="5.4778">
        <ele>350.7</ele>
        <time>2025-10-18T12:39:30Z</time>
      </trkpt>
      <trkpt lat="43.22258" lon="5.4778">
        <ele>350.5</ele>
        <time>2025-10-18T12:39:31Z</time>
      </trkpt>
      <trkpt lat="43.22258" lon="5.4778">
        <ele>350.4</ele>
        <time>2025-10-18T12:39:32Z</time>
      </trkpt>
      <trkpt lat="43.22258" lon="5.4778">
        <ele>350.2</ele>
        <time>2025-10-18T12:39:33Z</time>
      </trkpt>
      <trkpt lat="43.22257" lon="5.4778">
        <ele>349.9</ele>
        <time>2025-10-18T12:39:34Z</time>
      </trkpt>
      <trkpt lat="43.22257" lon="5.4778">
        <ele>349.7</ele>
        <time>2025-10-18T12:39:35Z</time>
      </trkpt>
      <trkpt lat="43.22257" lon="5.4778">
        <ele>349.6</ele>
        <time>2025-10-18T12:39:36Z</time>
      </trkpt>
      <trkpt lat="43.22257" lon="5.4778">
        <ele>349.5</ele>
        <time>2025-10-18T12:39:37Z</time>
      </trkpt>
      <trkpt lat="43.22256" lon="5.4778">
        <ele>349.5</ele>
        <time>2025-10-18T12:39:38Z</time>
      </trkpt>
      <trkpt lat="43.22256" lon="5.4778">
        <ele>349.2</ele>
        <time>2025-10-18T12:39:39Z</time>
      </trkpt>
      <trkpt lat="43.22256" lon="5.4778">
        <ele>348.9</ele>
        <time>2025-10-18T12:39:40Z</time>
      </trkpt>
      <trkpt lat="43.22256" lon="5.4778">
        <ele>348.7</ele>
        <time>2025-10-18T12:39:41Z</time>
      </trkpt>
      <trkpt lat="43.22255" lon="5.4778">
        <ele>348.6</ele>
        <time>2025-10-18T12:39:42Z</time>
      </trkpt>
      <trkpt lat="43.22255" lon="5.4778">
        <ele>348.5</ele>
        <time>2025-10-18T12:39:43Z</time>
      </trkpt>
      <trkpt lat="43.22255" lon="5.4778">
        <ele>348.4</ele>
        <time>2025-10-18T12:39:44Z</time>
      </trkpt>
      <trkpt lat="43.22255" lon="5.47781">
        <ele>348.3</ele>
        <time>2025-10-18T12:39:45Z</time>
      </trkpt>
      <trkpt lat="43.22254" lon="5.47781">
        <ele>348.1</ele>
        <time>2025-10-18T12:39:46Z</time>
      </trkpt>
      <trkpt lat="43.22254" lon="5.47782">
        <ele>348</ele>
        <time>2025-10-18T12:39:47Z</time>
      </trkpt>
      <trkpt lat="43.22254" lon="5.47782">
        <ele>347.9</ele>
        <time>2025-10-18T12:39:48Z</time>
      </trkpt>
      <trkpt lat="43.22254" lon="5.47783">
        <ele>347.8</ele>
        <time>2025-10-18T12:39:49Z</time>
      </trkpt>
      <trkpt lat="43.22254" lon="5.47784">
        <ele>348</ele>
        <time>2025-10-18T12:39:50Z</time>
      </trkpt>
      <trkpt lat="43.22255" lon="5.47784">
        <ele>348.1</ele>
        <time>2025-10-18T12:39:51Z</time>
      </trkpt>
      <trkpt lat="43.22255" lon="5.47785">
        <ele>348.2</ele>
        <time>2025-10-18T12:39:52Z</time>
      </trkpt>
      <trkpt lat="43.22255" lon="5.47785">
        <ele>348.4</ele>
        <time>2025-10-18T12:39:53Z</time>
      </trkpt>
      <trkpt lat="43.22255" lon="5.47786">
        <ele>348.5</ele>
        <time>2025-10-18T12:39:54Z</time>
      </trkpt>
      <trkpt lat="43.22255" lon="5.47787">
        <ele>348.7</ele>
        <time>2025-10-18T12:39:55Z</time>
      </trkpt>
      <trkpt lat="43.22254" lon="5.47787">
        <ele>348.9</ele>
        <time>2025-10-18T12:39:56Z</time>
      </trkpt>
      <trkpt lat="43.22254" lon="5.47788">
        <ele>349</ele>
        <time>2025-10-18T12:39:57Z</time>
      </trkpt>
      <trkpt lat="43.22254" lon="5.47788">
        <ele>349.1</ele>
        <time>2025-10-18T12:39:58Z</time>
      </trkpt>
      <trkpt lat="43.22255" lon="5.47789">
        <ele>349.2</ele>
        <time>2025-10-18T12:39:59Z</time>
      </trkpt>
      <trkpt lat="43.22254" lon="5.47789">
        <ele>349.2</ele>
        <time>2025-10-18T12:40:00Z</time>
      </trkpt>
      <trkpt lat="43.22254" lon="5.47788">
        <ele>349.2</ele>
        <time>2025-10-18T12:40:01Z</time>
      </trkpt>
      <trkpt lat="43.22254" lon="5.47788">
        <ele>349.2</ele>
        <time>2025-10-18T12:40:02Z</time>
      </trkpt>
      <trkpt lat="43.22254" lon="5.47788">
        <ele>349.3</ele>
        <time>2025-10-18T12:40:03Z</time>
      </trkpt>
      <trkpt lat="43.22254" lon="5.47788">
        <ele>349.3</ele>
        <time>2025-10-18T12:40:04Z</time>
      </trkpt>
      <trkpt lat="43.22254" lon="5.47788">
        <ele>349.3</ele>
        <time>2025-10-18T12:40:05Z</time>
      </trkpt>
      <trkpt lat="43.22254" lon="5.47788">
        <ele>349.3</ele>
        <time>2025-10-18T12:40:06Z</time>
      </trkpt>
      <trkpt lat="43.22253" lon="5.47788">
        <ele>349.3</ele>
        <time>2025-10-18T12:40:07Z</time>
      </trkpt>
      <trkpt lat="43.22254" lon="5.47789">
        <ele>349.2</ele>
        <time>2025-10-18T12:40:08Z</time>
      </trkpt>
      <trkpt lat="43.22254" lon="5.4779">
        <ele>349.2</ele>
        <time>2025-10-18T12:40:09Z</time>
      </trkpt>
      <trkpt lat="43.22253" lon="5.47791">
        <ele>349.2</ele>
        <time>2025-10-18T12:40:10Z</time>
      </trkpt>
      <trkpt lat="43.22254" lon="5.47793">
        <ele>349.2</ele>
        <time>2025-10-18T12:40:11Z</time>
      </trkpt>
      <trkpt lat="43.22254" lon="5.47793">
        <ele>349.2</ele>
        <time>2025-10-18T12:40:12Z</time>
      </trkpt>
      <trkpt lat="43.22254" lon="5.47794">
        <ele>349.1</ele>
        <time>2025-10-18T12:40:13Z</time>
      </trkpt>
      <trkpt lat="43.22254" lon="5.47794">
        <ele>349.1</ele>
        <time>2025-10-18T12:40:14Z</time>
      </trkpt>
      <trkpt lat="43.22254" lon="5.47795">
        <ele>349</ele>
        <time>2025-10-18T12:40:15Z</time>
      </trkpt>
      <trkpt lat="43.22254" lon="5.47795">
        <ele>348.9</ele>
        <time>2025-10-18T12:40:16Z</time>
      </trkpt>
      <trkpt lat="43.22254" lon="5.47795">
        <ele>348.8</ele>
        <time>2025-10-18T12:40:17Z</time>
      </trkpt>
      <trkpt lat="43.22254" lon="5.47795">
        <ele>348.8</ele>
        <time>2025-10-18T12:40:18Z</time>
      </trkpt>
      <trkpt lat="43.22254" lon="5.47796">
        <ele>348.8</ele>
        <time>2025-10-18T12:40:19Z</time>
      </trkpt>
      <trkpt lat="43.22254" lon="5.47797">
        <ele>348.7</ele>
        <time>2025-10-18T12:40:20Z</time>
      </trkpt>
      <trkpt lat="43.22255" lon="5.47797">
        <ele>348.8</ele>
        <time>2025-10-18T12:40:21Z</time>
      </trkpt>
      <trkpt lat="43.22255" lon="5.47798">
        <ele>348.8</ele>
        <time>2025-10-18T12:40:22Z</time>
      </trkpt>
      <trkpt lat="43.22255" lon="5.47798">
        <ele>348.9</ele>
        <time>2025-10-18T12:40:23Z</time>
      </trkpt>
      <trkpt lat="43.22255" lon="5.47799">
        <ele>348.9</ele>
        <time>2025-10-18T12:40:24Z</time>
      </trkpt>
      <trkpt lat="43.22255" lon="5.47799">
        <ele>348.9</ele>
        <time>2025-10-18T12:40:25Z</time>
      </trkpt>
      <trkpt lat="43.22254" lon="5.478">
        <ele>348.8</ele>
        <time>2025-10-18T12:40:26Z</time>
      </trkpt>
      <trkpt lat="43.22254" lon="5.478">
        <ele>348.8</ele>
        <time>2025-10-18T12:40:27Z</time>
      </trkpt>
      <trkpt lat="43.22254" lon="5.47801">
        <ele>348.8</ele>
        <time>2025-10-18T12:40:28Z</time>
      </trkpt>
      <trkpt lat="43.22254" lon="5.47802">
        <ele>348.7</ele>
        <time>2025-10-18T12:40:29Z</time>
      </trkpt>
      <trkpt lat="43.22254" lon="5.47803">
        <ele>348.6</ele>
        <time>2025-10-18T12:40:30Z</time>
      </trkpt>
      <trkpt lat="43.22254" lon="5.47804">
        <ele>348.5</ele>
        <time>2025-10-18T12:40:31Z</time>
      </trkpt>
      <trkpt lat="43.22254" lon="5.47804">
        <ele>348.5</ele>
        <time>2025-10-18T12:40:32Z</time>
      </trkpt>
      <trkpt lat="43.22254" lon="5.47805">
        <ele>348.4</ele>
        <time>2025-10-18T12:40:33Z</time>
      </trkpt>
      <trkpt lat="43.22254" lon="5.47805">
        <ele>348.3</ele>
        <time>2025-10-18T12:40:34Z</time>
      </trkpt>
      <trkpt lat="43.22254" lon="5.47806">
        <ele>348.2</ele>
        <time>2025-10-18T12:40:35Z</time>
      </trkpt>
      <trkpt lat="43.22254" lon="5.47807">
        <ele>348.1</ele>
        <time>2025-10-18T12:40:36Z</time>
      </trkpt>
      <trkpt lat="43.22254" lon="5.47808">
        <ele>348</ele>
        <time>2025-10-18T12:40:37Z</time>
      </trkpt>
      <trkpt lat="43.22254" lon="5.47809">
        <ele>347.9</ele>
        <time>2025-10-18T12:40:38Z</time>
      </trkpt>
      <trkpt lat="43.22255" lon="5.47809">
        <ele>347.9</ele>
        <time>2025-10-18T12:40:39Z</time>
      </trkpt>
      <trkpt lat="43.22254" lon="5.4781">
        <ele>347.8</ele>
        <time>2025-10-18T12:40:40Z</time>
      </trkpt>
      <trkpt lat="43.22254" lon="5.47812">
        <ele>347.6</ele>
        <time>2025-10-18T12:40:41Z</time>
      </trkpt>
      <trkpt lat="43.22254" lon="5.47812">
        <ele>347.5</ele>
        <time>2025-10-18T12:40:42Z</time>
      </trkpt>
      <trkpt lat="43.22254" lon="5.47812">
        <ele>347.4</ele>
        <time>2025-10-18T12:40:43Z</time>
      </trkpt>
      <trkpt lat="43.22254" lon="5.47812">
        <ele>347.2</ele>
        <time>2025-10-18T12:40:44Z</time>
      </trkpt>
      <trkpt lat="43.22254" lon="5.47813">
        <ele>347.1</ele>
        <time>2025-10-18T12:40:45Z</time>
      </trkpt>
      <trkpt lat="43.22254" lon="5.47813">
        <ele>347.1</ele>
        <time>2025-10-18T12:40:46Z</time>
      </trkpt>
      <trkpt lat="43.22254" lon="5.47813">
        <ele>346.9</ele>
        <time>2025-10-18T12:40:47Z</time>
      </trkpt>
      <trkpt lat="43.22254" lon="5.47813">
        <ele>346.8</ele>
        <time>2025-10-18T12:40:48Z</time>
      </trkpt>
      <trkpt lat="43.22254" lon="5.47813">
        <ele>346.7</ele>
        <time>2025-10-18T12:40:49Z</time>
      </trkpt>
      <trkpt lat="43.22254" lon="5.47813">
        <ele>346.6</ele>
        <time>2025-10-18T12:40:50Z</time>
      </trkpt>
      <trkpt lat="43.22254" lon="5.47813">
        <ele>346.6</ele>
        <time>2025-10-18T12:40:51Z</time>
      </trkpt>
      <trkpt lat="43.22253" lon="5.47813">
        <ele>346.4</ele>
        <time>2025-10-18T12:40:52Z</time>
      </trkpt>
      <trkpt lat="43.22253" lon="5.47813">
        <ele>346.4</ele>
        <time>2025-10-18T12:40:53Z</time>
      </trkpt>
      <trkpt lat="43.22253" lon="5.47813">
        <ele>346.3</ele>
        <time>2025-10-18T12:40:54Z</time>
      </trkpt>
      <trkpt lat="43.22253" lon="5.47813">
        <ele>346.3</ele>
        <time>2025-10-18T12:40:55Z</time>
      </trkpt>
      <trkpt lat="43.22253" lon="5.47813">
        <ele>346.3</ele>
        <time>2025-10-18T12:40:56Z</time>
      </trkpt>
      <trkpt lat="43.22253" lon="5.47813">
        <ele>346.3</ele>
        <time>2025-10-18T12:40:57Z</time>
      </trkpt>
      <trkpt lat="43.22253" lon="5.47813">
        <ele>346.3</ele>
        <time>2025-10-18T12:40:58Z</time>
      </trkpt>
      <trkpt lat="43.22253" lon="5.47813">
        <ele>346.3</ele>
        <time>2025-10-18T12:40:59Z</time>
      </trkpt>
      <trkpt lat="43.22253" lon="5.47813">
        <ele>346.3</ele>
        <time>2025-10-18T12:41:00Z</time>
      </trkpt>
      <trkpt lat="43.22254" lon="5.47813">
        <ele>346.3</ele>
        <time>2025-10-18T12:41:01Z</time>
      </trkpt>
      <trkpt lat="43.22254" lon="5.47813">
        <ele>346.4</ele>
        <time>2025-10-18T12:41:02Z</time>
      </trkpt>
      <trkpt lat="43.22254" lon="5.47814">
        <ele>346.3</ele>
        <time>2025-10-18T12:41:03Z</time>
      </trkpt>
      <trkpt lat="43.22255" lon="5.47815">
        <ele>346.3</ele>
        <time>2025-10-18T12:41:04Z</time>
      </trkpt>
      <trkpt lat="43.22255" lon="5.47816">
        <ele>346.2</ele>
        <time>2025-10-18T12:41:05Z</time>
      </trkpt>
      <trkpt lat="43.22255" lon="5.47816">
        <ele>346.1</ele>
        <time>2025-10-18T12:41:06Z</time>
      </trkpt>
      <trkpt lat="43.22255" lon="5.47817">
        <ele>346</ele>
        <time>2025-10-18T12:41:07Z</time>
      </trkpt>
      <trkpt lat="43.22256" lon="5.47817">
        <ele>345.9</ele>
        <time>2025-10-18T12:41:08Z</time>
      </trkpt>
      <trkpt lat="43.22256" lon="5.47817">
        <ele>345.8</ele>
        <time>2025-10-18T12:41:09Z</time>
      </trkpt>
      <trkpt lat="43.22256" lon="5.47817">
        <ele>345.7</ele>
        <time>2025-10-18T12:41:10Z</time>
      </trkpt>
      <trkpt lat="43.22256" lon="5.47817">
        <ele>345.6</ele>
        <time>2025-10-18T12:41:11Z</time>
      </trkpt>
      <trkpt lat="43.22256" lon="5.47817">
        <ele>345.5</ele>
        <time>2025-10-18T12:41:12Z</time>
      </trkpt>
      <trkpt lat="43.22256" lon="5.47817">
        <ele>345.4</ele>
        <time>2025-10-18T12:41:13Z</time>
      </trkpt>
      <trkpt lat="43.22255" lon="5.47817">
        <ele>345.3</ele>
        <time>2025-10-18T12:41:14Z</time>
      </trkpt>
      <trkpt lat="43.22255" lon="5.47818">
        <ele>345.2</ele>
        <time>2025-10-18T12:41:15Z</time>
      </trkpt>
      <trkpt lat="43.22256" lon="5.47818">
        <ele>345</ele>
        <time>2025-10-18T12:41:16Z</time>
      </trkpt>
      <trkpt lat="43.22257" lon="5.47819">
        <ele>344.8</ele>
        <time>2025-10-18T12:41:17Z</time>
      </trkpt>
      <trkpt lat="43.22257" lon="5.47819">
        <ele>344.8</ele>
        <time>2025-10-18T12:41:18Z</time>
      </trkpt>
      <trkpt lat="43.22257" lon="5.4782">
        <ele>344.8</ele>
        <time>2025-10-18T12:41:19Z</time>
      </trkpt>
      <trkpt lat="43.22258" lon="5.4782">
        <ele>344.9</ele>
        <time>2025-10-18T12:41:20Z</time>
      </trkpt>
      <trkpt lat="43.22259" lon="5.4782">
        <ele>345</ele>
        <time>2025-10-18T12:41:21Z</time>
      </trkpt>
      <trkpt lat="43.22259" lon="5.47819">
        <ele>345.2</ele>
        <time>2025-10-18T12:41:22Z</time>
      </trkpt>
      <trkpt lat="43.22259" lon="5.4782">
        <ele>345.5</ele>
        <time>2025-10-18T12:41:23Z</time>
      </trkpt>
      <trkpt lat="43.2226" lon="5.4782">
        <ele>345.7</ele>
        <time>2025-10-18T12:41:24Z</time>
      </trkpt>
      <trkpt lat="43.22261" lon="5.47821">
        <ele>345.9</ele>
        <time>2025-10-18T12:41:25Z</time>
      </trkpt>
      <trkpt lat="43.22261" lon="5.47821">
        <ele>346.2</ele>
        <time>2025-10-18T12:41:26Z</time>
      </trkpt>
      <trkpt lat="43.22262" lon="5.47822">
        <ele>346.3</ele>
        <time>2025-10-18T12:41:27Z</time>
      </trkpt>
      <trkpt lat="43.22263" lon="5.47823">
        <ele>346.3</ele>
        <time>2025-10-18T12:41:28Z</time>
      </trkpt>
      <trkpt lat="43.22263" lon="5.47823">
        <ele>346.4</ele>
        <time>2025-10-18T12:41:29Z</time>
      </trkpt>
      <trkpt lat="43.22264" lon="5.47823">
        <ele>346.5</ele>
        <time>2025-10-18T12:41:30Z</time>
      </trkpt>
      <trkpt lat="43.22264" lon="5.47823">
        <ele>346.6</ele>
        <time>2025-10-18T12:41:31Z</time>
      </trkpt>
      <trkpt lat="43.22264" lon="5.47823">
        <ele>346.7</ele>
        <time>2025-10-18T12:41:32Z</time>
      </trkpt>
      <trkpt lat="43.22264" lon="5.47823">
        <ele>346.7</ele>
        <time>2025-10-18T12:41:33Z</time>
      </trkpt>
      <trkpt lat="43.22264" lon="5.47823">
        <ele>346.8</ele>
        <time>2025-10-18T12:41:34Z</time>
      </trkpt>
      <trkpt lat="43.22264" lon="5.47823">
        <ele>346.9</ele>
        <time>2025-10-18T12:41:35Z</time>
      </trkpt>
      <trkpt lat="43.22264" lon="5.47823">
        <ele>347.1</ele>
        <time>2025-10-18T12:41:36Z</time>
      </trkpt>
      <trkpt lat="43.22264" lon="5.47823">
        <ele>347.2</ele>
        <time>2025-10-18T12:41:37Z</time>
      </trkpt>
      <trkpt lat="43.22264" lon="5.47823">
        <ele>347.2</ele>
        <time>2025-10-18T12:41:38Z</time>
      </trkpt>
      <trkpt lat="43.22264" lon="5.47823">
        <ele>347.1</ele>
        <time>2025-10-18T12:41:39Z</time>
      </trkpt>
      <trkpt lat="43.22264" lon="5.47823">
        <ele>347</ele>
        <time>2025-10-18T12:41:40Z</time>
      </trkpt>
      <trkpt lat="43.22264" lon="5.47823">
        <ele>347.2</ele>
        <time>2025-10-18T12:41:41Z</time>
      </trkpt>
      <trkpt lat="43.22264" lon="5.47823">
        <ele>347.2</ele>
        <time>2025-10-18T12:41:42Z</time>
      </trkpt>
      <trkpt lat="43.22264" lon="5.47823">
        <ele>347.3</ele>
        <time>2025-10-18T12:41:43Z</time>
      </trkpt>
      <trkpt lat="43.22265" lon="5.47823">
        <ele>347.3</ele>
        <time>2025-10-18T12:41:44Z</time>
      </trkpt>
      <trkpt lat="43.22265" lon="5.47823">
        <ele>347.3</ele>
        <time>2025-10-18T12:41:45Z</time>
      </trkpt>
      <trkpt lat="43.22265" lon="5.47823">
        <ele>347.4</ele>
        <time>2025-10-18T12:41:46Z</time>
      </trkpt>
      <trkpt lat="43.22265" lon="5.47823">
        <ele>347.4</ele>
        <time>2025-10-18T12:41:47Z</time>
      </trkpt>
      <trkpt lat="43.22265" lon="5.47823">
        <ele>347.4</ele>
        <time>2025-10-18T12:41:48Z</time>
      </trkpt>
      <trkpt lat="43.22265" lon="5.47824">
        <ele>347.3</ele>
        <time>2025-10-18T12:41:49Z</time>
      </trkpt>
      <trkpt lat="43.22266" lon="5.47825">
        <ele>347.3</ele>
        <time>2025-10-18T12:41:50Z</time>
      </trkpt>
      <trkpt lat="43.22267" lon="5.47825">
        <ele>347.2</ele>
        <time>2025-10-18T12:41:51Z</time>
      </trkpt>
      <trkpt lat="43.22268" lon="5.47826">
        <ele>347.2</ele>
        <time>2025-10-18T12:41:52Z</time>
      </trkpt>
      <trkpt lat="43.22269" lon="5.47826">
        <ele>347.2</ele>
        <time>2025-10-18T12:41:53Z</time>
      </trkpt>
      <trkpt lat="43.22269" lon="5.47827">
        <ele>347.2</ele>
        <time>2025-10-18T12:41:54Z</time>
      </trkpt>
      <trkpt lat="43.2227" lon="5.47828">
        <ele>347.2</ele>
        <time>2025-10-18T12:41:55Z</time>
      </trkpt>
      <trkpt lat="43.2227" lon="5.47829">
        <ele>347.2</ele>
        <time>2025-10-18T12:41:56Z</time>
      </trkpt>
      <trkpt lat="43.22271" lon="5.4783">
        <ele>347.3</ele>
        <time>2025-10-18T12:41:57Z</time>
      </trkpt>
      <trkpt lat="43.22271" lon="5.4783">
        <ele>347.3</ele>
        <time>2025-10-18T12:41:58Z</time>
      </trkpt>
      <trkpt lat="43.22271" lon="5.4783">
        <ele>347.4</ele>
        <time>2025-10-18T12:41:59Z</time>
      </trkpt>
      <trkpt lat="43.22271" lon="5.4783">
        <ele>347.5</ele>
        <time>2025-10-18T12:42:00Z</time>
      </trkpt>
      <trkpt lat="43.22271" lon="5.4783">
        <ele>347.6</ele>
        <time>2025-10-18T12:42:01Z</time>
      </trkpt>
      <trkpt lat="43.22272" lon="5.47831">
        <ele>347.7</ele>
        <time>2025-10-18T12:42:02Z</time>
      </trkpt>
      <trkpt lat="43.22272" lon="5.47831">
        <ele>347.8</ele>
        <time>2025-10-18T12:42:03Z</time>
      </trkpt>
      <trkpt lat="43.22272" lon="5.47831">
        <ele>347.9</ele>
        <time>2025-10-18T12:42:04Z</time>
      </trkpt>
      <trkpt lat="43.22272" lon="5.47832">
        <ele>347.9</ele>
        <time>2025-10-18T12:42:05Z</time>
      </trkpt>
      <trkpt lat="43.22273" lon="5.47833">
        <ele>348</ele>
        <time>2025-10-18T12:42:06Z</time>
      </trkpt>
      <trkpt lat="43.22273" lon="5.47833">
        <ele>348.1</ele>
        <time>2025-10-18T12:42:07Z</time>
      </trkpt>
      <trkpt lat="43.22273" lon="5.47833">
        <ele>348.2</ele>
        <time>2025-10-18T12:42:08Z</time>
      </trkpt>
      <trkpt lat="43.22273" lon="5.47833">
        <ele>348.2</ele>
        <time>2025-10-18T12:42:09Z</time>
      </trkpt>
      <trkpt lat="43.22273" lon="5.47834">
        <ele>348.3</ele>
        <time>2025-10-18T12:42:10Z</time>
      </trkpt>
      <trkpt lat="43.22273" lon="5.47833">
        <ele>348.4</ele>
        <time>2025-10-18T12:42:11Z</time>
      </trkpt>
      <trkpt lat="43.22273" lon="5.47833">
        <ele>348.5</ele>
        <time>2025-10-18T12:42:12Z</time>
      </trkpt>
      <trkpt lat="43.22273" lon="5.47834">
        <ele>348.6</ele>
        <time>2025-10-18T12:42:13Z</time>
      </trkpt>
      <trkpt lat="43.22273" lon="5.47834">
        <ele>348.7</ele>
        <time>2025-10-18T12:42:14Z</time>
      </trkpt>
      <trkpt lat="43.22274" lon="5.47835">
        <ele>348.8</ele>
        <time>2025-10-18T12:42:15Z</time>
      </trkpt>
      <trkpt lat="43.22274" lon="5.47835">
        <ele>348.8</ele>
        <time>2025-10-18T12:42:16Z</time>
      </trkpt>
      <trkpt lat="43.22275" lon="5.47835">
        <ele>348.8</ele>
        <time>2025-10-18T12:42:17Z</time>
      </trkpt>
      <trkpt lat="43.22274" lon="5.47835">
        <ele>348.8</ele>
        <time>2025-10-18T12:42:18Z</time>
      </trkpt>
      <trkpt lat="43.22274" lon="5.47835">
        <ele>348.9</ele>
        <time>2025-10-18T12:42:19Z</time>
      </trkpt>
      <trkpt lat="43.22274" lon="5.47835">
        <ele>348.9</ele>
        <time>2025-10-18T12:42:20Z</time>
      </trkpt>
      <trkpt lat="43.22274" lon="5.47835">
        <ele>349</ele>
        <time>2025-10-18T12:42:21Z</time>
      </trkpt>
      <trkpt lat="43.22274" lon="5.47835">
        <ele>349</ele>
        <time>2025-10-18T12:42:22Z</time>
      </trkpt>
      <trkpt lat="43.22274" lon="5.47836">
        <ele>349</ele>
        <time>2025-10-18T12:42:23Z</time>
      </trkpt>
      <trkpt lat="43.22275" lon="5.47836">
        <ele>349.1</ele>
        <time>2025-10-18T12:42:24Z</time>
      </trkpt>
      <trkpt lat="43.22275" lon="5.47836">
        <ele>349.1</ele>
        <time>2025-10-18T12:42:25Z</time>
      </trkpt>
      <trkpt lat="43.22275" lon="5.47836">
        <ele>349.1</ele>
        <time>2025-10-18T12:42:26Z</time>
      </trkpt>
      <trkpt lat="43.22275" lon="5.47836">
        <ele>349.1</ele>
        <time>2025-10-18T12:42:27Z</time>
      </trkpt>
      <trkpt lat="43.22275" lon="5.47836">
        <ele>349.2</ele>
        <time>2025-10-18T12:42:28Z</time>
      </trkpt>
      <trkpt lat="43.22275" lon="5.47836">
        <ele>349.2</ele>
        <time>2025-10-18T12:42:29Z</time>
      </trkpt>
      <trkpt lat="43.22275" lon="5.47836">
        <ele>349.2</ele>
        <time>2025-10-18T12:42:30Z</time>
      </trkpt>
      <trkpt lat="43.22275" lon="5.47835">
        <ele>349.2</ele>
        <time>2025-10-18T12:42:31Z</time>
      </trkpt>
      <trkpt lat="43.22275" lon="5.47835">
        <ele>349.3</ele>
        <time>2025-10-18T12:42:32Z</time>
      </trkpt>
      <trkpt lat="43.22275" lon="5.47835">
        <ele>349.3</ele>
        <time>2025-10-18T12:42:33Z</time>
      </trkpt>
      <trkpt lat="43.22275" lon="5.47835">
        <ele>349.2</ele>
        <time>2025-10-18T12:42:34Z</time>
      </trkpt>
      <trkpt lat="43.22275" lon="5.47835">
        <ele>349.2</ele>
        <time>2025-10-18T12:42:35Z</time>
      </trkpt>
      <trkpt lat="43.22276" lon="5.47835">
        <ele>349.2</ele>
        <time>2025-10-18T12:42:36Z</time>
      </trkpt>
      <trkpt lat="43.22276" lon="5.47835">
        <ele>349.2</ele>
        <time>2025-10-18T12:42:37Z</time>
      </trkpt>
      <trkpt lat="43.22276" lon="5.47835">
        <ele>349.2</ele>
        <time>2025-10-18T12:42:38Z</time>
      </trkpt>
      <trkpt lat="43.22276" lon="5.47835">
        <ele>349.2</ele>
        <time>2025-10-18T12:42:39Z</time>
      </trkpt>
      <trkpt lat="43.22276" lon="5.47835">
        <ele>349.2</ele>
        <time>2025-10-18T12:42:40Z</time>
      </trkpt>
      <trkpt lat="43.22276" lon="5.47835">
        <ele>349.1</ele>
        <time>2025-10-18T12:42:41Z</time>
      </trkpt>
      <trkpt lat="43.22276" lon="5.47834">
        <ele>349.1</ele>
        <time>2025-10-18T12:42:42Z</time>
      </trkpt>
      <trkpt lat="43.22276" lon="5.47834">
        <ele>349.1</ele>
        <time>2025-10-18T12:42:43Z</time>
      </trkpt>
      <trkpt lat="43.22276" lon="5.47834">
        <ele>349</ele>
        <time>2025-10-18T12:42:44Z</time>
      </trkpt>
      <trkpt lat="43.22276" lon="5.47834">
        <ele>348.9</ele>
        <time>2025-10-18T12:42:45Z</time>
      </trkpt>
      <trkpt lat="43.22276" lon="5.47834">
        <ele>348.9</ele>
        <time>2025-10-18T12:42:46Z</time>
      </trkpt>
      <trkpt lat="43.22277" lon="5.47834">
        <ele>348.8</ele>
        <time>2025-10-18T12:42:47Z</time>
      </trkpt>
      <trkpt lat="43.22277" lon="5.47833">
        <ele>348.8</ele>
        <time>2025-10-18T12:42:48Z</time>
      </trkpt>
      <trkpt lat="43.22277" lon="5.47833">
        <ele>348.8</ele>
        <time>2025-10-18T12:42:49Z</time>
      </trkpt>
      <trkpt lat="43.22277" lon="5.47833">
        <ele>348.8</ele>
        <time>2025-10-18T12:42:50Z</time>
      </trkpt>
      <trkpt lat="43.22277" lon="5.47833">
        <ele>348.8</ele>
        <time>2025-10-18T12:42:51Z</time>
      </trkpt>
      <trkpt lat="43.22277" lon="5.47833">
        <ele>348.8</ele>
        <time>2025-10-18T12:42:52Z</time>
      </trkpt>
      <trkpt lat="43.22277" lon="5.47833">
        <ele>348.8</ele>
        <time>2025-10-18T12:42:53Z</time>
      </trkpt>
      <trkpt lat="43.22277" lon="5.47833">
        <ele>348.7</ele>
        <time>2025-10-18T12:42:54Z</time>
      </trkpt>
      <trkpt lat="43.22278" lon="5.47833">
        <ele>348.7</ele>
        <time>2025-10-18T12:42:55Z</time>
      </trkpt>
      <trkpt lat="43.22278" lon="5.47833">
        <ele>348.7</ele>
        <time>2025-10-18T12:42:56Z</time>
      </trkpt>
      <trkpt lat="43.22277" lon="5.47834">
        <ele>348.7</ele>
        <time>2025-10-18T12:42:57Z</time>
      </trkpt>
      <trkpt lat="43.22278" lon="5.47834">
        <ele>348.6</ele>
        <time>2025-10-18T12:42:58Z</time>
      </trkpt>
      <trkpt lat="43.22278" lon="5.47834">
        <ele>348.6</ele>
        <time>2025-10-18T12:42:59Z</time>
      </trkpt>
      <trkpt lat="43.22278" lon="5.47834">
        <ele>348.6</ele>
        <time>2025-10-18T12:43:00Z</time>
      </trkpt>
      <trkpt lat="43.22278" lon="5.47834">
        <ele>348.6</ele>
        <time>2025-10-18T12:43:01Z</time>
      </trkpt>
      <trkpt lat="43.22277" lon="5.47834">
        <ele>348.7</ele>
        <time>2025-10-18T12:43:02Z</time>
      </trkpt>
      <trkpt lat="43.22277" lon="5.47835">
        <ele>348.7</ele>
        <time>2025-10-18T12:43:03Z</time>
      </trkpt>
      <trkpt lat="43.22277" lon="5.47835">
        <ele>348.7</ele>
        <time>2025-10-18T12:43:04Z</time>
      </trkpt>
      <trkpt lat="43.22277" lon="5.47835">
        <ele>348.7</ele>
        <time>2025-10-18T12:43:05Z</time>
      </trkpt>
      <trkpt lat="43.22277" lon="5.47835">
        <ele>348.7</ele>
        <time>2025-10-18T12:43:06Z</time>
      </trkpt>
      <trkpt lat="43.22277" lon="5.47835">
        <ele>348.7</ele>
        <time>2025-10-18T12:43:07Z</time>
      </trkpt>
      <trkpt lat="43.22277" lon="5.47835">
        <ele>348.7</ele>
        <time>2025-10-18T12:43:08Z</time>
      </trkpt>
      <trkpt lat="43.22276" lon="5.47835">
        <ele>348.7</ele>
        <time>2025-10-18T12:43:09Z</time>
      </trkpt>
      <trkpt lat="43.22277" lon="5.47835">
        <ele>348.7</ele>
        <time>2025-10-18T12:43:10Z</time>
      </trkpt>
      <trkpt lat="43.22277" lon="5.47835">
        <ele>348.7</ele>
        <time>2025-10-18T12:43:11Z</time>
      </trkpt>
      <trkpt lat="43.22277" lon="5.47836">
        <ele>348.7</ele>
        <time>2025-10-18T12:43:12Z</time>
      </trkpt>
      <trkpt lat="43.22277" lon="5.47836">
        <ele>348.8</ele>
        <time>2025-10-18T12:43:13Z</time>
      </trkpt>
      <trkpt lat="43.22277" lon="5.47835">
        <ele>348.8</ele>
        <time>2025-10-18T12:43:14Z</time>
      </trkpt>
      <trkpt lat="43.22277" lon="5.47835">
        <ele>348.8</ele>
        <time>2025-10-18T12:43:15Z</time>
      </trkpt>
      <trkpt lat="43.22277" lon="5.47835">
        <ele>348.8</ele>
        <time>2025-10-18T12:43:16Z</time>
      </trkpt>
      <trkpt lat="43.22277" lon="5.47835">
        <ele>348.9</ele>
        <time>2025-10-18T12:43:17Z</time>
      </trkpt>
      <trkpt lat="43.22277" lon="5.47835">
        <ele>348.9</ele>
        <time>2025-10-18T12:43:18Z</time>
      </trkpt>
      <trkpt lat="43.22277" lon="5.47835">
        <ele>348.9</ele>
        <time>2025-10-18T12:43:19Z</time>
      </trkpt>
      <trkpt lat="43.22277" lon="5.47835">
        <ele>348.9</ele>
        <time>2025-10-18T12:43:20Z</time>
      </trkpt>
      <trkpt lat="43.22277" lon="5.47835">
        <ele>348.9</ele>
        <time>2025-10-18T12:43:21Z</time>
      </trkpt>
      <trkpt lat="43.22277" lon="5.47835">
        <ele>348.9</ele>
        <time>2025-10-18T12:43:22Z</time>
      </trkpt>
      <trkpt lat="43.22277" lon="5.47835">
        <ele>349</ele>
        <time>2025-10-18T12:43:23Z</time>
      </trkpt>
      <trkpt lat="43.22277" lon="5.47835">
        <ele>349</ele>
        <time>2025-10-18T12:43:24Z</time>
      </trkpt>
      <trkpt lat="43.22278" lon="5.47835">
        <ele>349</ele>
        <time>2025-10-18T12:43:25Z</time>
      </trkpt>
      <trkpt lat="43.22278" lon="5.47835">
        <ele>349</ele>
        <time>2025-10-18T12:43:26Z</time>
      </trkpt>
      <trkpt lat="43.22278" lon="5.47835">
        <ele>348.9</ele>
        <time>2025-10-18T12:43:27Z</time>
      </trkpt>
      <trkpt lat="43.22278" lon="5.47835">
        <ele>348.9</ele>
        <time>2025-10-18T12:43:28Z</time>
      </trkpt>
      <trkpt lat="43.22278" lon="5.47835">
        <ele>348.9</ele>
        <time>2025-10-18T12:43:29Z</time>
      </trkpt>
      <trkpt lat="43.22278" lon="5.47835">
        <ele>348.9</ele>
        <time>2025-10-18T12:43:30Z</time>
      </trkpt>
      <trkpt lat="43.22278" lon="5.47835">
        <ele>348.9</ele>
        <time>2025-10-18T12:43:31Z</time>
      </trkpt>
      <trkpt lat="43.22278" lon="5.47835">
        <ele>348.9</ele>
        <time>2025-10-18T12:43:32Z</time>
      </trkpt>
      <trkpt lat="43.22278" lon="5.47835">
        <ele>348.9</ele>
        <time>2025-10-18T12:43:33Z</time>
      </trkpt>
      <trkpt lat="43.22278" lon="5.47835">
        <ele>348.9</ele>
        <time>2025-10-18T12:43:34Z</time>
      </trkpt>
      <trkpt lat="43.22278" lon="5.47835">
        <ele>348.8</ele>
        <time>2025-10-18T12:43:35Z</time>
      </trkpt>
      <trkpt lat="43.22278" lon="5.47835">
        <ele>348.8</ele>
        <time>2025-10-18T12:43:36Z</time>
      </trkpt>
      <trkpt lat="43.22278" lon="5.47835">
        <ele>348.9</ele>
        <time>2025-10-18T12:43:37Z</time>
      </trkpt>
      <trkpt lat="43.22278" lon="5.47835">
        <ele>348.8</ele>
        <time>2025-10-18T12:43:38Z</time>
      </trkpt>
      <trkpt lat="43.22278" lon="5.47836">
        <ele>348.8</ele>
        <time>2025-10-18T12:43:39Z</time>
      </trkpt>
      <trkpt lat="43.22278" lon="5.47836">
        <ele>348.9</ele>
        <time>2025-10-18T12:43:40Z</time>
      </trkpt>
      <trkpt lat="43.22278" lon="5.47836">
        <ele>348.9</ele>
        <time>2025-10-18T12:43:41Z</time>
      </trkpt>
      <trkpt lat="43.22277" lon="5.47836">
        <ele>348.9</ele>
        <time>2025-10-18T12:43:42Z</time>
      </trkpt>
      <trkpt lat="43.22277" lon="5.47836">
        <ele>348.9</ele>
        <time>2025-10-18T12:43:43Z</time>
      </trkpt>
      <trkpt lat="43.22278" lon="5.47836">
        <ele>348.9</ele>
        <time>2025-10-18T12:43:44Z</time>
      </trkpt>
      <trkpt lat="43.22278" lon="5.47836">
        <ele>348.9</ele>
        <time>2025-10-18T12:43:45Z</time>
      </trkpt>
      <trkpt lat="43.22278" lon="5.47836">
        <ele>348.9</ele>
        <time>2025-10-18T12:43:46Z</time>
      </trkpt>
      <trkpt lat="43.22278" lon="5.47836">
        <ele>348.9</ele>
        <time>2025-10-18T12:43:47Z</time>
      </trkpt>
      <trkpt lat="43.22278" lon="5.47836">
        <ele>348.9</ele>
        <time>2025-10-18T12:43:48Z</time>
      </trkpt>
      <trkpt lat="43.22278" lon="5.47836">
        <ele>348.9</ele>
        <time>2025-10-18T12:43:49Z</time>
      </trkpt>
      <trkpt lat="43.22278" lon="5.47836">
        <ele>348.9</ele>
        <time>2025-10-18T12:43:50Z</time>
      </trkpt>
      <trkpt lat="43.22278" lon="5.47836">
        <ele>348.9</ele>
        <time>2025-10-18T12:43:51Z</time>
      </trkpt>
      <trkpt lat="43.22278" lon="5.47836">
        <ele>348.9</ele>
        <time>2025-10-18T12:43:52Z</time>
      </trkpt>
      <trkpt lat="43.22278" lon="5.47836">
        <ele>348.9</ele>
        <time>2025-10-18T12:43:53Z</time>
      </trkpt>
      <trkpt lat="43.22278" lon="5.47836">
        <ele>348.9</ele>
        <time>2025-10-18T12:43:54Z</time>
      </trkpt>
      <trkpt lat="43.22278" lon="5.47836">
        <ele>348.9</ele>
        <time>2025-10-18T12:43:55Z</time>
      </trkpt>
      <trkpt lat="43.22278" lon="5.47836">
        <ele>348.9</ele>
        <time>2025-10-18T12:43:56Z</time>
      </trkpt>
      <trkpt lat="43.22279" lon="5.47836">
        <ele>348.9</ele>
        <time>2025-10-18T12:43:57Z</time>
      </trkpt>
      <trkpt lat="43.22279" lon="5.47836">
        <ele>348.9</ele>
        <time>2025-10-18T12:43:58Z</time>
      </trkpt>
      <trkpt lat="43.22279" lon="5.47836">
        <ele>348.9</ele>
        <time>2025-10-18T12:43:59Z</time>
      </trkpt>
      <trkpt lat="43.22279" lon="5.47836">
        <ele>348.8</ele>
        <time>2025-10-18T12:44:00Z</time>
      </trkpt>
      <trkpt lat="43.22279" lon="5.47836">
        <ele>348.8</ele>
        <time>2025-10-18T12:44:01Z</time>
      </trkpt>
      <trkpt lat="43.22279" lon="5.47836">
        <ele>348.8</ele>
        <time>2025-10-18T12:44:02Z</time>
      </trkpt>
      <trkpt lat="43.22279" lon="5.47836">
        <ele>348.9</ele>
        <time>2025-10-18T12:44:03Z</time>
      </trkpt>
      <trkpt lat="43.22279" lon="5.47836">
        <ele>348.9</ele>
        <time>2025-10-18T12:44:04Z</time>
      </trkpt>
      <trkpt lat="43.22279" lon="5.47836">
        <ele>348.9</ele>
        <time>2025-10-18T12:44:05Z</time>
      </trkpt>
      <trkpt lat="43.22279" lon="5.47836">
        <ele>348.9</ele>
        <time>2025-10-18T12:44:06Z</time>
      </trkpt>
      <trkpt lat="43.22279" lon="5.47836">
        <ele>348.9</ele>
        <time>2025-10-18T12:44:07Z</time>
      </trkpt>
      <trkpt lat="43.22279" lon="5.47836">
        <ele>348.9</ele>
        <time>2025-10-18T12:44:08Z</time>
      </trkpt>
      <trkpt lat="43.22279" lon="5.47836">
        <ele>348.9</ele>
        <time>2025-10-18T12:44:09Z</time>
      </trkpt>
      <trkpt lat="43.22279" lon="5.47836">
        <ele>349</ele>
        <time>2025-10-18T12:44:10Z</time>
      </trkpt>
      <trkpt lat="43.22279" lon="5.47836">
        <ele>349</ele>
        <time>2025-10-18T12:44:11Z</time>
      </trkpt>
      <trkpt lat="43.22279" lon="5.47836">
        <ele>349</ele>
        <time>2025-10-18T12:44:12Z</time>
      </trkpt>
      <trkpt lat="43.22279" lon="5.47836">
        <ele>349</ele>
        <time>2025-10-18T12:44:13Z</time>
      </trkpt>
      <trkpt lat="43.22279" lon="5.47836">
        <ele>349</ele>
        <time>2025-10-18T12:44:14Z</time>
      </trkpt>
      <trkpt lat="43.22279" lon="5.47836">
        <ele>348.9</ele>
        <time>2025-10-18T12:44:15Z</time>
      </trkpt>
      <trkpt lat="43.22279" lon="5.47836">
        <ele>348.9</ele>
        <time>2025-10-18T12:44:16Z</time>
      </trkpt>
      <trkpt lat="43.22279" lon="5.47836">
        <ele>348.9</ele>
        <time>2025-10-18T12:44:17Z</time>
      </trkpt>
      <trkpt lat="43.22279" lon="5.47836">
        <ele>348.9</ele>
        <time>2025-10-18T12:44:18Z</time>
      </trkpt>
      <trkpt lat="43.22279" lon="5.47836">
        <ele>348.9</ele>
        <time>2025-10-18T12:44:19Z</time>
      </trkpt>
      <trkpt lat="43.22279" lon="5.47836">
        <ele>349</ele>
        <time>2025-10-18T12:44:20Z</time>
      </trkpt>
      <trkpt lat="43.22279" lon="5.47836">
        <ele>349</ele>
        <time>2025-10-18T12:44:21Z</time>
      </trkpt>
      <trkpt lat="43.22278" lon="5.47836">
        <ele>349</ele>
        <time>2025-10-18T12:44:22Z</time>
      </trkpt>
      <trkpt lat="43.22278" lon="5.47836">
        <ele>349</ele>
        <time>2025-10-18T12:44:23Z</time>
      </trkpt>
      <trkpt lat="43.22278" lon="5.47836">
        <ele>349</ele>
        <time>2025-10-18T12:44:24Z</time>
      </trkpt>
      <trkpt lat="43.22278" lon="5.47836">
        <ele>349</ele>
        <time>2025-10-18T12:44:25Z</time>
      </trkpt>
      <trkpt lat="43.22278" lon="5.47837">
        <ele>348.9</ele>
        <time>2025-10-18T12:44:26Z</time>
      </trkpt>
      <trkpt lat="43.22278" lon="5.47837">
        <ele>349</ele>
        <time>2025-10-18T12:44:27Z</time>
      </trkpt>
      <trkpt lat="43.22278" lon="5.47836">
        <ele>349</ele>
        <time>2025-10-18T12:44:28Z</time>
      </trkpt>
      <trkpt lat="43.22278" lon="5.47836">
        <ele>349.1</ele>
        <time>2025-10-18T12:44:29Z</time>
      </trkpt>
      <trkpt lat="43.22278" lon="5.47836">
        <ele>349.1</ele>
        <time>2025-10-18T12:44:30Z</time>
      </trkpt>
      <trkpt lat="43.22278" lon="5.47836">
        <ele>349.1</ele>
        <time>2025-10-18T12:44:31Z</time>
      </trkpt>
      <trkpt lat="43.22279" lon="5.47836">
        <ele>349</ele>
        <time>2025-10-18T12:44:32Z</time>
      </trkpt>
      <trkpt lat="43.22278" lon="5.47836">
        <ele>349</ele>
        <time>2025-10-18T12:44:33Z</time>
      </trkpt>
      <trkpt lat="43.22278" lon="5.47836">
        <ele>349</ele>
        <time>2025-10-18T12:44:34Z</time>
      </trkpt>
      <trkpt lat="43.22279" lon="5.47836">
        <ele>349</ele>
        <time>2025-10-18T12:44:35Z</time>
      </trkpt>
      <trkpt lat="43.22279" lon="5.47836">
        <ele>348.9</ele>
        <time>2025-10-18T12:44:36Z</time>
      </trkpt>
      <trkpt lat="43.22279" lon="5.47836">
        <ele>349</ele>
        <time>2025-10-18T12:44:37Z</time>
      </trkpt>
      <trkpt lat="43.22279" lon="5.47836">
        <ele>349.1</ele>
        <time>2025-10-18T12:44:38Z</time>
      </trkpt>
      <trkpt lat="43.22279" lon="5.47836">
        <ele>349</ele>
        <time>2025-10-18T12:44:39Z</time>
      </trkpt>
      <trkpt lat="43.22279" lon="5.47837">
        <ele>349.1</ele>
        <time>2025-10-18T12:44:40Z</time>
      </trkpt>
      <trkpt lat="43.22279" lon="5.47837">
        <ele>349.1</ele>
        <time>2025-10-18T12:44:41Z</time>
      </trkpt>
      <trkpt lat="43.22279" lon="5.47837">
        <ele>349.1</ele>
        <time>2025-10-18T12:44:42Z</time>
      </trkpt>
      <trkpt lat="43.22279" lon="5.47837">
        <ele>349.1</ele>
        <time>2025-10-18T12:44:43Z</time>
      </trkpt>
      <trkpt lat="43.22279" lon="5.47837">
        <ele>349.1</ele>
        <time>2025-10-18T12:44:44Z</time>
      </trkpt>
      <trkpt lat="43.22279" lon="5.47837">
        <ele>349.1</ele>
        <time>2025-10-18T12:44:45Z</time>
      </trkpt>
      <trkpt lat="43.22279" lon="5.47837">
        <ele>349.2</ele>
        <time>2025-10-18T12:44:46Z</time>
      </trkpt>
      <trkpt lat="43.22279" lon="5.47837">
        <ele>349.2</ele>
        <time>2025-10-18T12:44:47Z</time>
      </trkpt>
      <trkpt lat="43.22279" lon="5.47837">
        <ele>349.2</ele>
        <time>2025-10-18T12:44:48Z</time>
      </trkpt>
      <trkpt lat="43.22279" lon="5.47837">
        <ele>349.2</ele>
        <time>2025-10-18T12:44:49Z</time>
      </trkpt>
      <trkpt lat="43.22279" lon="5.47837">
        <ele>349.2</ele>
        <time>2025-10-18T12:44:50Z</time>
      </trkpt>
      <trkpt lat="43.22279" lon="5.47837">
        <ele>349.2</ele>
        <time>2025-10-18T12:44:51Z</time>
      </trkpt>
      <trkpt lat="43.22279" lon="5.47837">
        <ele>349.2</ele>
        <time>2025-10-18T12:44:52Z</time>
      </trkpt>
      <trkpt lat="43.22279" lon="5.47836">
        <ele>349.2</ele>
        <time>2025-10-18T12:44:53Z</time>
      </trkpt>
      <trkpt lat="43.22279" lon="5.47837">
        <ele>349.2</ele>
        <time>2025-10-18T12:44:54Z</time>
      </trkpt>
      <trkpt lat="43.22279" lon="5.47837">
        <ele>349.1</ele>
        <time>2025-10-18T12:44:55Z</time>
      </trkpt>
      <trkpt lat="43.22279" lon="5.47837">
        <ele>349.1</ele>
        <time>2025-10-18T12:44:56Z</time>
      </trkpt>
      <trkpt lat="43.22279" lon="5.47837">
        <ele>349.1</ele>
        <time>2025-10-18T12:44:57Z</time>
      </trkpt>
      <trkpt lat="43.22279" lon="5.47837">
        <ele>349.2</ele>
        <time>2025-10-18T12:44:58Z</time>
      </trkpt>
      <trkpt lat="43.22279" lon="5.47837">
        <ele>349.2</ele>
        <time>2025-10-18T12:44:59Z</time>
      </trkpt>
      <trkpt lat="43.22279" lon="5.47837">
        <ele>349.2</ele>
        <time>2025-10-18T12:45:00Z</time>
      </trkpt>
      <trkpt lat="43.22279" lon="5.47837">
        <ele>349.2</ele>
        <time>2025-10-18T12:45:01Z</time>
      </trkpt>
      <trkpt lat="43.22279" lon="5.47837">
        <ele>349.2</ele>
        <time>2025-10-18T12:45:02Z</time>
      </trkpt>
      <trkpt lat="43.22279" lon="5.47837">
        <ele>349.2</ele>
        <time>2025-10-18T12:45:03Z</time>
      </trkpt>
      <trkpt lat="43.22279" lon="5.47837">
        <ele>349.2</ele>
        <time>2025-10-18T12:45:04Z</time>
      </trkpt>
      <trkpt lat="43.22279" lon="5.47837">
        <ele>349.3</ele>
        <time>2025-10-18T12:45:05Z</time>
      </trkpt>
      <trkpt lat="43.22279" lon="5.47837">
        <ele>349.3</ele>
        <time>2025-10-18T12:45:06Z</time>
      </trkpt>
      <trkpt lat="43.22279" lon="5.47837">
        <ele>349.3</ele>
        <time>2025-10-18T12:45:07Z</time>
      </trkpt>
      <trkpt lat="43.22279" lon="5.47837">
        <ele>349.3</ele>
        <time>2025-10-18T12:45:08Z</time>
      </trkpt>
      <trkpt lat="43.22279" lon="5.47838">
        <ele>349.4</ele>
        <time>2025-10-18T12:45:09Z</time>
      </trkpt>
      <trkpt lat="43.22279" lon="5.47838">
        <ele>349.4</ele>
        <time>2025-10-18T12:45:10Z</time>
      </trkpt>
      <trkpt lat="43.22279" lon="5.47838">
        <ele>349.4</ele>
        <time>2025-10-18T12:45:11Z</time>
      </trkpt>
      <trkpt lat="43.22279" lon="5.47838">
        <ele>349.3</ele>
        <time>2025-10-18T12:45:12Z</time>
      </trkpt>
      <trkpt lat="43.22279" lon="5.47838">
        <ele>349.3</ele>
        <time>2025-10-18T12:45:13Z</time>
      </trkpt>
      <trkpt lat="43.22279" lon="5.47838">
        <ele>349.2</ele>
        <time>2025-10-18T12:45:14Z</time>
      </trkpt>
      <trkpt lat="43.22279" lon="5.47838">
        <ele>349.2</ele>
        <time>2025-10-18T12:45:15Z</time>
      </trkpt>
      <trkpt lat="43.22278" lon="5.47838">
        <ele>349.2</ele>
        <time>2025-10-18T12:45:16Z</time>
      </trkpt>
      <trkpt lat="43.22278" lon="5.47838">
        <ele>349.2</ele>
        <time>2025-10-18T12:45:17Z</time>
      </trkpt>
      <trkpt lat="43.22278" lon="5.47838">
        <ele>349.2</ele>
        <time>2025-10-18T12:45:18Z</time>
      </trkpt>
      <trkpt lat="43.22278" lon="5.47838">
        <ele>349.2</ele>
        <time>2025-10-18T12:45:19Z</time>
      </trkpt>
      <trkpt lat="43.22278" lon="5.47838">
        <ele>349.2</ele>
        <time>2025-10-18T12:45:20Z</time>
      </trkpt>
      <trkpt lat="43.22278" lon="5.47839">
        <ele>349.2</ele>
        <time>2025-10-18T12:45:21Z</time>
      </trkpt>
      <trkpt lat="43.22278" lon="5.47839">
        <ele>349.2</ele>
        <time>2025-10-18T12:45:22Z</time>
      </trkpt>
      <trkpt lat="43.22278" lon="5.47839">
        <ele>349.2</ele>
        <time>2025-10-18T12:45:23Z</time>
      </trkpt>
      <trkpt lat="43.22278" lon="5.47839">
        <ele>349.2</ele>
        <time>2025-10-18T12:45:24Z</time>
      </trkpt>
      <trkpt lat="43.22278" lon="5.47839">
        <ele>349.2</ele>
        <time>2025-10-18T12:45:25Z</time>
      </trkpt>
      <trkpt lat="43.22278" lon="5.47839">
        <ele>349.2</ele>
        <time>2025-10-18T12:45:26Z</time>
      </trkpt>
      <trkpt lat="43.22278" lon="5.47839">
        <ele>349.1</ele>
        <time>2025-10-18T12:45:27Z</time>
      </trkpt>
      <trkpt lat="43.22278" lon="5.47839">
        <ele>349.1</ele>
        <time>2025-10-18T12:45:28Z</time>
      </trkpt>
      <trkpt lat="43.22278" lon="5.47839">
        <ele>349</ele>
        <time>2025-10-18T12:45:29Z</time>
      </trkpt>
      <trkpt lat="43.22278" lon="5.4784">
        <ele>349</ele>
        <time>2025-10-18T12:45:30Z</time>
      </trkpt>
      <trkpt lat="43.22278" lon="5.4784">
        <ele>349</ele>
        <time>2025-10-18T12:45:31Z</time>
      </trkpt>
      <trkpt lat="43.22278" lon="5.4784">
        <ele>349</ele>
        <time>2025-10-18T12:45:32Z</time>
      </trkpt>
      <trkpt lat="43.22278" lon="5.4784">
        <ele>348.9</ele>
        <time>2025-10-18T12:45:33Z</time>
      </trkpt>
      <trkpt lat="43.22278" lon="5.4784">
        <ele>348.9</ele>
        <time>2025-10-18T12:45:34Z</time>
      </trkpt>
      <trkpt lat="43.22278" lon="5.4784">
        <ele>348.9</ele>
        <time>2025-10-18T12:45:35Z</time>
      </trkpt>
      <trkpt lat="43.22278" lon="5.4784">
        <ele>348.9</ele>
        <time>2025-10-18T12:45:36Z</time>
      </trkpt>
      <trkpt lat="43.22278" lon="5.4784">
        <ele>348.8</ele>
        <time>2025-10-18T12:45:37Z</time>
      </trkpt>
      <trkpt lat="43.22278" lon="5.4784">
        <ele>348.8</ele>
        <time>2025-10-18T12:45:38Z</time>
      </trkpt>
      <trkpt lat="43.22278" lon="5.47841">
        <ele>348.8</ele>
        <time>2025-10-18T12:45:39Z</time>
      </trkpt>
      <trkpt lat="43.22278" lon="5.47841">
        <ele>348.7</ele>
        <time>2025-10-18T12:45:40Z</time>
      </trkpt>
      <trkpt lat="43.22278" lon="5.47841">
        <ele>348.7</ele>
        <time>2025-10-18T12:45:41Z</time>
      </trkpt>
      <trkpt lat="43.22279" lon="5.4784">
        <ele>348.7</ele>
        <time>2025-10-18T12:45:42Z</time>
      </trkpt>
      <trkpt lat="43.22279" lon="5.4784">
        <ele>348.7</ele>
        <time>2025-10-18T12:45:43Z</time>
      </trkpt>
      <trkpt lat="43.22279" lon="5.4784">
        <ele>348.6</ele>
        <time>2025-10-18T12:45:44Z</time>
      </trkpt>
      <trkpt lat="43.22279" lon="5.4784">
        <ele>348.7</ele>
        <time>2025-10-18T12:45:45Z</time>
      </trkpt>
      <trkpt lat="43.22279" lon="5.4784">
        <ele>348.8</ele>
        <time>2025-10-18T12:45:46Z</time>
      </trkpt>
      <trkpt lat="43.22279" lon="5.47841">
        <ele>348.8</ele>
        <time>2025-10-18T12:45:47Z</time>
      </trkpt>
      <trkpt lat="43.22279" lon="5.47841">
        <ele>348.8</ele>
        <time>2025-10-18T12:45:48Z</time>
      </trkpt>
      <trkpt lat="43.22279" lon="5.47841">
        <ele>348.7</ele>
        <time>2025-10-18T12:45:49Z</time>
      </trkpt>
      <trkpt lat="43.22279" lon="5.47841">
        <ele>348.8</ele>
        <time>2025-10-18T12:45:50Z</time>
      </trkpt>
      <trkpt lat="43.22279" lon="5.47841">
        <ele>348.8</ele>
        <time>2025-10-18T12:45:51Z</time>
      </trkpt>
      <trkpt lat="43.22279" lon="5.47841">
        <ele>348.8</ele>
        <time>2025-10-18T12:45:52Z</time>
      </trkpt>
      <trkpt lat="43.22279" lon="5.47841">
        <ele>348.9</ele>
        <time>2025-10-18T12:45:53Z</time>
      </trkpt>
      <trkpt lat="43.22279" lon="5.47841">
        <ele>348.9</ele>
        <time>2025-10-18T12:45:54Z</time>
      </trkpt>
      <trkpt lat="43.22279" lon="5.47841">
        <ele>348.9</ele>
        <time>2025-10-18T12:45:55Z</time>
      </trkpt>
      <trkpt lat="43.22279" lon="5.47841">
        <ele>348.9</ele>
        <time>2025-10-18T12:45:56Z</time>
      </trkpt>
      <trkpt lat="43.22278" lon="5.47841">
        <ele>348.8</ele>
        <time>2025-10-18T12:45:57Z</time>
      </trkpt>
      <trkpt lat="43.22279" lon="5.47841">
        <ele>348.7</ele>
        <time>2025-10-18T12:45:58Z</time>
      </trkpt>
      <trkpt lat="43.22279" lon="5.47841">
        <ele>348.8</ele>
        <time>2025-10-18T12:45:59Z</time>
      </trkpt>
      <trkpt lat="43.22279" lon="5.47841">
        <ele>348.9</ele>
        <time>2025-10-18T12:46:00Z</time>
      </trkpt>
      <trkpt lat="43.22279" lon="5.4784">
        <ele>348.9</ele>
        <time>2025-10-18T12:46:01Z</time>
      </trkpt>
      <trkpt lat="43.22279" lon="5.4784">
        <ele>348.8</ele>
        <time>2025-10-18T12:46:02Z</time>
      </trkpt>
      <trkpt lat="43.22279" lon="5.4784">
        <ele>348.8</ele>
        <time>2025-10-18T12:46:03Z</time>
      </trkpt>
      <trkpt lat="43.22279" lon="5.4784">
        <ele>348.8</ele>
        <time>2025-10-18T12:46:04Z</time>
      </trkpt>
      <trkpt lat="43.22279" lon="5.4784">
        <ele>348.8</ele>
        <time>2025-10-18T12:46:05Z</time>
      </trkpt>
      <trkpt lat="43.22279" lon="5.4784">
        <ele>348.8</ele>
        <time>2025-10-18T12:46:06Z</time>
      </trkpt>
      <trkpt lat="43.22279" lon="5.4784">
        <ele>348.8</ele>
        <time>2025-10-18T12:46:07Z</time>
      </trkpt>
      <trkpt lat="43.2228" lon="5.47839">
        <ele>348.8</ele>
        <time>2025-10-18T12:46:08Z</time>
      </trkpt>
      <trkpt lat="43.2228" lon="5.47839">
        <ele>348.9</ele>
        <time>2025-10-18T12:46:09Z</time>
      </trkpt>
      <trkpt lat="43.2228" lon="5.47839">
        <ele>349</ele>
        <time>2025-10-18T12:46:10Z</time>
      </trkpt>
      <trkpt lat="43.2228" lon="5.47838">
        <ele>349</ele>
        <time>2025-10-18T12:46:11Z</time>
      </trkpt>
      <trkpt lat="43.2228" lon="5.47838">
        <ele>349.1</ele>
        <time>2025-10-18T12:46:12Z</time>
      </trkpt>
      <trkpt lat="43.2228" lon="5.47838">
        <ele>349</ele>
        <time>2025-10-18T12:46:13Z</time>
      </trkpt>
      <trkpt lat="43.22281" lon="5.47838">
        <ele>349</ele>
        <time>2025-10-18T12:46:14Z</time>
      </trkpt>
      <trkpt lat="43.22281" lon="5.47838">
        <ele>348.9</ele>
        <time>2025-10-18T12:46:15Z</time>
      </trkpt>
      <trkpt lat="43.22281" lon="5.47837">
        <ele>349</ele>
        <time>2025-10-18T12:46:16Z</time>
      </trkpt>
      <trkpt lat="43.22281" lon="5.47837">
        <ele>349</ele>
        <time>2025-10-18T12:46:17Z</time>
      </trkpt>
      <trkpt lat="43.22281" lon="5.47837">
        <ele>349</ele>
        <time>2025-10-18T12:46:18Z</time>
      </trkpt>
      <trkpt lat="43.22281" lon="5.47837">
        <ele>349</ele>
        <time>2025-10-18T12:46:19Z</time>
      </trkpt>
      <trkpt lat="43.22281" lon="5.47837">
        <ele>349</ele>
        <time>2025-10-18T12:46:20Z</time>
      </trkpt>
      <trkpt lat="43.22281" lon="5.47837">
        <ele>349</ele>
        <time>2025-10-18T12:46:21Z</time>
      </trkpt>
      <trkpt lat="43.22281" lon="5.47837">
        <ele>349</ele>
        <time>2025-10-18T12:46:22Z</time>
      </trkpt>
      <trkpt lat="43.22281" lon="5.47837">
        <ele>349</ele>
        <time>2025-10-18T12:46:23Z</time>
      </trkpt>
      <trkpt lat="43.22281" lon="5.47837">
        <ele>349</ele>
        <time>2025-10-18T12:46:24Z</time>
      </trkpt>
      <trkpt lat="43.22281" lon="5.47837">
        <ele>349</ele>
        <time>2025-10-18T12:46:25Z</time>
      </trkpt>
      <trkpt lat="43.22282" lon="5.47837">
        <ele>349</ele>
        <time>2025-10-18T12:46:26Z</time>
      </trkpt>
      <trkpt lat="43.22282" lon="5.47837">
        <ele>349</ele>
        <time>2025-10-18T12:46:27Z</time>
      </trkpt>
      <trkpt lat="43.22282" lon="5.47837">
        <ele>349</ele>
        <time>2025-10-18T12:46:28Z</time>
      </trkpt>
      <trkpt lat="43.22282" lon="5.47837">
        <ele>349</ele>
        <time>2025-10-18T12:46:29Z</time>
      </trkpt>
      <trkpt lat="43.22282" lon="5.47837">
        <ele>348.9</ele>
        <time>2025-10-18T12:46:30Z</time>
      </trkpt>
      <trkpt lat="43.22282" lon="5.47836">
        <ele>349</ele>
        <time>2025-10-18T12:46:31Z</time>
      </trkpt>
      <trkpt lat="43.22282" lon="5.47836">
        <ele>349</ele>
        <time>2025-10-18T12:46:32Z</time>
      </trkpt>
      <trkpt lat="43.22282" lon="5.47836">
        <ele>349</ele>
        <time>2025-10-18T12:46:33Z</time>
      </trkpt>
      <trkpt lat="43.22282" lon="5.47836">
        <ele>349</ele>
        <time>2025-10-18T12:46:34Z</time>
      </trkpt>
      <trkpt lat="43.22282" lon="5.47836">
        <ele>349</ele>
        <time>2025-10-18T12:46:35Z</time>
      </trkpt>
      <trkpt lat="43.22282" lon="5.47836">
        <ele>349</ele>
        <time>2025-10-18T12:46:36Z</time>
      </trkpt>
      <trkpt lat="43.22282" lon="5.47836">
        <ele>349.1</ele>
        <time>2025-10-18T12:46:37Z</time>
      </trkpt>
      <trkpt lat="43.22282" lon="5.47836">
        <ele>349.2</ele>
        <time>2025-10-18T12:46:38Z</time>
      </trkpt>
      <trkpt lat="43.22282" lon="5.47836">
        <ele>349.2</ele>
        <time>2025-10-18T12:46:39Z</time>
      </trkpt>
      <trkpt lat="43.22282" lon="5.47836">
        <ele>349.2</ele>
        <time>2025-10-18T12:46:40Z</time>
      </trkpt>
      <trkpt lat="43.22282" lon="5.47836">
        <ele>349.3</ele>
        <time>2025-10-18T12:46:41Z</time>
      </trkpt>
      <trkpt lat="43.22282" lon="5.47836">
        <ele>349.3</ele>
        <time>2025-10-18T12:46:42Z</time>
      </trkpt>
      <trkpt lat="43.22282" lon="5.47836">
        <ele>349.3</ele>
        <time>2025-10-18T12:46:43Z</time>
      </trkpt>
      <trkpt lat="43.22282" lon="5.47836">
        <ele>349.2</ele>
        <time>2025-10-18T12:46:44Z</time>
      </trkpt>
      <trkpt lat="43.22282" lon="5.47836">
        <ele>349.2</ele>
        <time>2025-10-18T12:46:45Z</time>
      </trkpt>
      <trkpt lat="43.22282" lon="5.47836">
        <ele>349.1</ele>
        <time>2025-10-18T12:46:46Z</time>
      </trkpt>
      <trkpt lat="43.22283" lon="5.47836">
        <ele>349.1</ele>
        <time>2025-10-18T12:46:47Z</time>
      </trkpt>
      <trkpt lat="43.22283" lon="5.47836">
        <ele>349.1</ele>
        <time>2025-10-18T12:46:48Z</time>
      </trkpt>
      <trkpt lat="43.22283" lon="5.47835">
        <ele>349.1</ele>
        <time>2025-10-18T12:46:49Z</time>
      </trkpt>
      <trkpt lat="43.22283" lon="5.47835">
        <ele>349</ele>
        <time>2025-10-18T12:46:50Z</time>
      </trkpt>
      <trkpt lat="43.22283" lon="5.47835">
        <ele>349</ele>
        <time>2025-10-18T12:46:51Z</time>
      </trkpt>
      <trkpt lat="43.22283" lon="5.47835">
        <ele>349</ele>
        <time>2025-10-18T12:46:52Z</time>
      </trkpt>
      <trkpt lat="43.22283" lon="5.47835">
        <ele>349.1</ele>
        <time>2025-10-18T12:46:53Z</time>
      </trkpt>
      <trkpt lat="43.22283" lon="5.47835">
        <ele>349.1</ele>
        <time>2025-10-18T12:46:54Z</time>
      </trkpt>
      <trkpt lat="43.22283" lon="5.47835">
        <ele>349.1</ele>
        <time>2025-10-18T12:46:55Z</time>
      </trkpt>
      <trkpt lat="43.22283" lon="5.47835">
        <ele>349.2</ele>
        <time>2025-10-18T12:46:56Z</time>
      </trkpt>
      <trkpt lat="43.22283" lon="5.47835">
        <ele>349.2</ele>
        <time>2025-10-18T12:46:57Z</time>
      </trkpt>
      <trkpt lat="43.22283" lon="5.47835">
        <ele>349.2</ele>
        <time>2025-10-18T12:46:58Z</time>
      </trkpt>
      <trkpt lat="43.22283" lon="5.47835">
        <ele>349.1</ele>
        <time>2025-10-18T12:46:59Z</time>
      </trkpt>
      <trkpt lat="43.22283" lon="5.47835">
        <ele>349.1</ele>
        <time>2025-10-18T12:47:00Z</time>
      </trkpt>
      <trkpt lat="43.22283" lon="5.47835">
        <ele>349.2</ele>
        <time>2025-10-18T12:47:01Z</time>
      </trkpt>
      <trkpt lat="43.22283" lon="5.47835">
        <ele>349.2</ele>
        <time>2025-10-18T12:47:02Z</time>
      </trkpt>
      <trkpt lat="43.22283" lon="5.47835">
        <ele>349.1</ele>
        <time>2025-10-18T12:47:03Z</time>
      </trkpt>
      <trkpt lat="43.22283" lon="5.47835">
        <ele>349.2</ele>
        <time>2025-10-18T12:47:04Z</time>
      </trkpt>
      <trkpt lat="43.22283" lon="5.47835">
        <ele>349.2</ele>
        <time>2025-10-18T12:47:05Z</time>
      </trkpt>
      <trkpt lat="43.22283" lon="5.47835">
        <ele>349.1</ele>
        <time>2025-10-18T12:47:06Z</time>
      </trkpt>
      <trkpt lat="43.22283" lon="5.47836">
        <ele>349.1</ele>
        <time>2025-10-18T12:47:07Z</time>
      </trkpt>
      <trkpt lat="43.22283" lon="5.47836">
        <ele>349</ele>
        <time>2025-10-18T12:47:08Z</time>
      </trkpt>
      <trkpt lat="43.22283" lon="5.47836">
        <ele>349</ele>
        <time>2025-10-18T12:47:09Z</time>
      </trkpt>
      <trkpt lat="43.22283" lon="5.47836">
        <ele>349</ele>
        <time>2025-10-18T12:47:10Z</time>
      </trkpt>
      <trkpt lat="43.22283" lon="5.47836">
        <ele>349.1</ele>
        <time>2025-10-18T12:47:11Z</time>
      </trkpt>
      <trkpt lat="43.22283" lon="5.47836">
        <ele>349.2</ele>
        <time>2025-10-18T12:47:12Z</time>
      </trkpt>
      <trkpt lat="43.22283" lon="5.47836">
        <ele>349.2</ele>
        <time>2025-10-18T12:47:13Z</time>
      </trkpt>
      <trkpt lat="43.22283" lon="5.47836">
        <ele>349.1</ele>
        <time>2025-10-18T12:47:14Z</time>
      </trkpt>
      <trkpt lat="43.22283" lon="5.47836">
        <ele>349.1</ele>
        <time>2025-10-18T12:47:15Z</time>
      </trkpt>
      <trkpt lat="43.22283" lon="5.47836">
        <ele>349.1</ele>
        <time>2025-10-18T12:47:16Z</time>
      </trkpt>
      <trkpt lat="43.22283" lon="5.47836">
        <ele>349.1</ele>
        <time>2025-10-18T12:47:17Z</time>
      </trkpt>
      <trkpt lat="43.22283" lon="5.47836">
        <ele>349.1</ele>
        <time>2025-10-18T12:47:18Z</time>
      </trkpt>
      <trkpt lat="43.22283" lon="5.47836">
        <ele>349.1</ele>
        <time>2025-10-18T12:47:19Z</time>
      </trkpt>
      <trkpt lat="43.22283" lon="5.47836">
        <ele>349.1</ele>
        <time>2025-10-18T12:47:20Z</time>
      </trkpt>
      <trkpt lat="43.22283" lon="5.47835">
        <ele>349.2</ele>
        <time>2025-10-18T12:47:21Z</time>
      </trkpt>
      <trkpt lat="43.22283" lon="5.47835">
        <ele>349.2</ele>
        <time>2025-10-18T12:47:22Z</time>
      </trkpt>
      <trkpt lat="43.22283" lon="5.47835">
        <ele>349.2</ele>
        <time>2025-10-18T12:47:23Z</time>
      </trkpt>
      <trkpt lat="43.22283" lon="5.47835">
        <ele>349.1</ele>
        <time>2025-10-18T12:47:24Z</time>
      </trkpt>
      <trkpt lat="43.22283" lon="5.47835">
        <ele>349.3</ele>
        <time>2025-10-18T12:47:25Z</time>
      </trkpt>
      <trkpt lat="43.22283" lon="5.47835">
        <ele>349.4</ele>
        <time>2025-10-18T12:47:26Z</time>
      </trkpt>
      <trkpt lat="43.22284" lon="5.47835">
        <ele>349.4</ele>
        <time>2025-10-18T12:47:27Z</time>
      </trkpt>
      <trkpt lat="43.22283" lon="5.47835">
        <ele>349.4</ele>
        <time>2025-10-18T12:47:28Z</time>
      </trkpt>
      <trkpt lat="43.22284" lon="5.47835">
        <ele>349.3</ele>
        <time>2025-10-18T12:47:29Z</time>
      </trkpt>
      <trkpt lat="43.22284" lon="5.47834">
        <ele>349.2</ele>
        <time>2025-10-18T12:47:30Z</time>
      </trkpt>
      <trkpt lat="43.22284" lon="5.47834">
        <ele>349.2</ele>
        <time>2025-10-18T12:47:31Z</time>
      </trkpt>
      <trkpt lat="43.22284" lon="5.47834">
        <ele>349.1</ele>
        <time>2025-10-18T12:47:32Z</time>
      </trkpt>
      <trkpt lat="43.22284" lon="5.47834">
        <ele>349.1</ele>
        <time>2025-10-18T12:47:33Z</time>
      </trkpt>
      <trkpt lat="43.22284" lon="5.47834">
        <ele>349.1</ele>
        <time>2025-10-18T12:47:34Z</time>
      </trkpt>
      <trkpt lat="43.22284" lon="5.47834">
        <ele>349.1</ele>
        <time>2025-10-18T12:47:35Z</time>
      </trkpt>
      <trkpt lat="43.22284" lon="5.47834">
        <ele>349.1</ele>
        <time>2025-10-18T12:47:36Z</time>
      </trkpt>
      <trkpt lat="43.22284" lon="5.47834">
        <ele>349.1</ele>
        <time>2025-10-18T12:47:37Z</time>
      </trkpt>
      <trkpt lat="43.22284" lon="5.47834">
        <ele>349.1</ele>
        <time>2025-10-18T12:47:38Z</time>
      </trkpt>
      <trkpt lat="43.22285" lon="5.47834">
        <ele>349</ele>
        <time>2025-10-18T12:47:39Z</time>
      </trkpt>
      <trkpt lat="43.22285" lon="5.47834">
        <ele>349</ele>
        <time>2025-10-18T12:47:40Z</time>
      </trkpt>
      <trkpt lat="43.22285" lon="5.47834">
        <ele>349</ele>
        <time>2025-10-18T12:47:41Z</time>
      </trkpt>
      <trkpt lat="43.22285" lon="5.47834">
        <ele>349.1</ele>
        <time>2025-10-18T12:47:42Z</time>
      </trkpt>
      <trkpt lat="43.22285" lon="5.47833">
        <ele>349.1</ele>
        <time>2025-10-18T12:47:43Z</time>
      </trkpt>
      <trkpt lat="43.22285" lon="5.47833">
        <ele>349.1</ele>
        <time>2025-10-18T12:47:44Z</time>
      </trkpt>
      <trkpt lat="43.22285" lon="5.47833">
        <ele>349.1</ele>
        <time>2025-10-18T12:47:45Z</time>
      </trkpt>
      <trkpt lat="43.22285" lon="5.47833">
        <ele>349.1</ele>
        <time>2025-10-18T12:47:46Z</time>
      </trkpt>
      <trkpt lat="43.22285" lon="5.47833">
        <ele>349.1</ele>
        <time>2025-10-18T12:47:47Z</time>
      </trkpt>
      <trkpt lat="43.22285" lon="5.47833">
        <ele>349.2</ele>
        <time>2025-10-18T12:47:48Z</time>
      </trkpt>
      <trkpt lat="43.22286" lon="5.47833">
        <ele>349.2</ele>
        <time>2025-10-18T12:47:49Z</time>
      </trkpt>
      <trkpt lat="43.22286" lon="5.47833">
        <ele>349.2</ele>
        <time>2025-10-18T12:47:50Z</time>
      </trkpt>
      <trkpt lat="43.22286" lon="5.47833">
        <ele>349.2</ele>
        <time>2025-10-18T12:47:51Z</time>
      </trkpt>
      <trkpt lat="43.22286" lon="5.47832">
        <ele>349.1</ele>
        <time>2025-10-18T12:47:52Z</time>
      </trkpt>
      <trkpt lat="43.22286" lon="5.47833">
        <ele>349.1</ele>
        <time>2025-10-18T12:47:53Z</time>
      </trkpt>
      <trkpt lat="43.22285" lon="5.47833">
        <ele>349</ele>
        <time>2025-10-18T12:47:54Z</time>
      </trkpt>
      <trkpt lat="43.22285" lon="5.47833">
        <ele>349</ele>
        <time>2025-10-18T12:47:55Z</time>
      </trkpt>
      <trkpt lat="43.22285" lon="5.47833">
        <ele>349</ele>
        <time>2025-10-18T12:47:56Z</time>
      </trkpt>
      <trkpt lat="43.22285" lon="5.47833">
        <ele>349.1</ele>
        <time>2025-10-18T12:47:57Z</time>
      </trkpt>
      <trkpt lat="43.22285" lon="5.47833">
        <ele>349.1</ele>
        <time>2025-10-18T12:47:58Z</time>
      </trkpt>
      <trkpt lat="43.22285" lon="5.47834">
        <ele>349.1</ele>
        <time>2025-10-18T12:47:59Z</time>
      </trkpt>
      <trkpt lat="43.22285" lon="5.47834">
        <ele>349.1</ele>
        <time>2025-10-18T12:48:00Z</time>
      </trkpt>
      <trkpt lat="43.22284" lon="5.47835">
        <ele>349.1</ele>
        <time>2025-10-18T12:48:01Z</time>
      </trkpt>
      <trkpt lat="43.22284" lon="5.47836">
        <ele>349.1</ele>
        <time>2025-10-18T12:48:02Z</time>
      </trkpt>
      <trkpt lat="43.22284" lon="5.47837">
        <ele>349.2</ele>
        <time>2025-10-18T12:48:03Z</time>
      </trkpt>
      <trkpt lat="43.22284" lon="5.47838">
        <ele>349.2</ele>
        <time>2025-10-18T12:48:04Z</time>
      </trkpt>
      <trkpt lat="43.22284" lon="5.47838">
        <ele>349.2</ele>
        <time>2025-10-18T12:48:05Z</time>
      </trkpt>
      <trkpt lat="43.22284" lon="5.47839">
        <ele>349.2</ele>
        <time>2025-10-18T12:48:06Z</time>
      </trkpt>
      <trkpt lat="43.22284" lon="5.47839">
        <ele>349.4</ele>
        <time>2025-10-18T12:48:07Z</time>
      </trkpt>
      <trkpt lat="43.22283" lon="5.4784">
        <ele>349.5</ele>
        <time>2025-10-18T12:48:08Z</time>
      </trkpt>
      <trkpt lat="43.22283" lon="5.47841">
        <ele>349.7</ele>
        <time>2025-10-18T12:48:09Z</time>
      </trkpt>
      <trkpt lat="43.22283" lon="5.47843">
        <ele>350</ele>
        <time>2025-10-18T12:48:10Z</time>
      </trkpt>
      <trkpt lat="43.22283" lon="5.47844">
        <ele>350.2</ele>
        <time>2025-10-18T12:48:11Z</time>
      </trkpt>
      <trkpt lat="43.22283" lon="5.47844">
        <ele>350.4</ele>
        <time>2025-10-18T12:48:12Z</time>
      </trkpt>
      <trkpt lat="43.22284" lon="5.47845">
        <ele>350.5</ele>
        <time>2025-10-18T12:48:13Z</time>
      </trkpt>
      <trkpt lat="43.22284" lon="5.47846">
        <ele>350.6</ele>
        <time>2025-10-18T12:48:14Z</time>
      </trkpt>
      <trkpt lat="43.22284" lon="5.47847">
        <ele>350.7</ele>
        <time>2025-10-18T12:48:15Z</time>
      </trkpt>
      <trkpt lat="43.22284" lon="5.47848">
        <ele>350.9</ele>
        <time>2025-10-18T12:48:16Z</time>
      </trkpt>
      <trkpt lat="43.22285" lon="5.47849">
        <ele>351</ele>
        <time>2025-10-18T12:48:17Z</time>
      </trkpt>
      <trkpt lat="43.22284" lon="5.4785">
        <ele>351.1</ele>
        <time>2025-10-18T12:48:18Z</time>
      </trkpt>
      <trkpt lat="43.22284" lon="5.47851">
        <ele>351.2</ele>
        <time>2025-10-18T12:48:19Z</time>
      </trkpt>
      <trkpt lat="43.22285" lon="5.47851">
        <ele>351.3</ele>
        <time>2025-10-18T12:48:20Z</time>
      </trkpt>
      <trkpt lat="43.22285" lon="5.47852">
        <ele>351.4</ele>
        <time>2025-10-18T12:48:21Z</time>
      </trkpt>
      <trkpt lat="43.22284" lon="5.47852">
        <ele>351.5</ele>
        <time>2025-10-18T12:48:22Z</time>
      </trkpt>
      <trkpt lat="43.22284" lon="5.47853">
        <ele>351.6</ele>
        <time>2025-10-18T12:48:23Z</time>
      </trkpt>
      <trkpt lat="43.22284" lon="5.47853">
        <ele>351.7</ele>
        <time>2025-10-18T12:48:24Z</time>
      </trkpt>
      <trkpt lat="43.22284" lon="5.47854">
        <ele>351.7</ele>
        <time>2025-10-18T12:48:25Z</time>
      </trkpt>
      <trkpt lat="43.22284" lon="5.47854">
        <ele>351.8</ele>
        <time>2025-10-18T12:48:26Z</time>
      </trkpt>
      <trkpt lat="43.22284" lon="5.47854">
        <ele>352</ele>
        <time>2025-10-18T12:48:27Z</time>
      </trkpt>
      <trkpt lat="43.22284" lon="5.47855">
        <ele>352.2</ele>
        <time>2025-10-18T12:48:28Z</time>
      </trkpt>
      <trkpt lat="43.22284" lon="5.47855">
        <ele>352.3</ele>
        <time>2025-10-18T12:48:29Z</time>
      </trkpt>
      <trkpt lat="43.22285" lon="5.47855">
        <ele>352.4</ele>
        <time>2025-10-18T12:48:30Z</time>
      </trkpt>
      <trkpt lat="43.22285" lon="5.47855">
        <ele>352.5</ele>
        <time>2025-10-18T12:48:31Z</time>
      </trkpt>
      <trkpt lat="43.22285" lon="5.47854">
        <ele>352.6</ele>
        <time>2025-10-18T12:48:32Z</time>
      </trkpt>
      <trkpt lat="43.22285" lon="5.47854">
        <ele>352.8</ele>
        <time>2025-10-18T12:48:33Z</time>
      </trkpt>
      <trkpt lat="43.22285" lon="5.47854">
        <ele>352.9</ele>
        <time>2025-10-18T12:48:34Z</time>
      </trkpt>
      <trkpt lat="43.22285" lon="5.47854">
        <ele>353</ele>
        <time>2025-10-18T12:48:35Z</time>
      </trkpt>
      <trkpt lat="43.22285" lon="5.47854">
        <ele>353.1</ele>
        <time>2025-10-18T12:48:36Z</time>
      </trkpt>
      <trkpt lat="43.22285" lon="5.47854">
        <ele>353.3</ele>
        <time>2025-10-18T12:48:37Z</time>
      </trkpt>
      <trkpt lat="43.22285" lon="5.47854">
        <ele>353.4</ele>
        <time>2025-10-18T12:48:38Z</time>
      </trkpt>
      <trkpt lat="43.22286" lon="5.47855">
        <ele>353.6</ele>
        <time>2025-10-18T12:48:39Z</time>
      </trkpt>
      <trkpt lat="43.22286" lon="5.47855">
        <ele>353.8</ele>
        <time>2025-10-18T12:48:40Z</time>
      </trkpt>
      <trkpt lat="43.22286" lon="5.47855">
        <ele>354</ele>
        <time>2025-10-18T12:48:41Z</time>
      </trkpt>
      <trkpt lat="43.22286" lon="5.47855">
        <ele>354.2</ele>
        <time>2025-10-18T12:48:42Z</time>
      </trkpt>
      <trkpt lat="43.22286" lon="5.47855">
        <ele>354.3</ele>
        <time>2025-10-18T12:48:43Z</time>
      </trkpt>
      <trkpt lat="43.22286" lon="5.47855">
        <ele>354.4</ele>
        <time>2025-10-18T12:48:44Z</time>
      </trkpt>
      <trkpt lat="43.22286" lon="5.47855">
        <ele>354.5</ele>
        <time>2025-10-18T12:48:45Z</time>
      </trkpt>
      <trkpt lat="43.22286" lon="5.47854">
        <ele>354.4</ele>
        <time>2025-10-18T12:48:46Z</time>
      </trkpt>
      <trkpt lat="43.22286" lon="5.47854">
        <ele>354.4</ele>
        <time>2025-10-18T12:48:47Z</time>
      </trkpt>
      <trkpt lat="43.22285" lon="5.47854">
        <ele>354.3</ele>
        <time>2025-10-18T12:48:48Z</time>
      </trkpt>
      <trkpt lat="43.22285" lon="5.47854">
        <ele>354.1</ele>
        <time>2025-10-18T12:48:49Z</time>
      </trkpt>
      <trkpt lat="43.22285" lon="5.47854">
        <ele>354.1</ele>
        <time>2025-10-18T12:48:50Z</time>
      </trkpt>
      <trkpt lat="43.22284" lon="5.47854">
        <ele>353.9</ele>
        <time>2025-10-18T12:48:51Z</time>
      </trkpt>
      <trkpt lat="43.22284" lon="5.47854">
        <ele>353.9</ele>
        <time>2025-10-18T12:48:52Z</time>
      </trkpt>
      <trkpt lat="43.22284" lon="5.47855">
        <ele>353.7</ele>
        <time>2025-10-18T12:48:53Z</time>
      </trkpt>
      <trkpt lat="43.22284" lon="5.47855">
        <ele>353.5</ele>
        <time>2025-10-18T12:48:54Z</time>
      </trkpt>
      <trkpt lat="43.22283" lon="5.47856">
        <ele>353.7</ele>
        <time>2025-10-18T12:48:55Z</time>
      </trkpt>
      <trkpt lat="43.22283" lon="5.47856">
        <ele>353.4</ele>
        <time>2025-10-18T12:48:56Z</time>
      </trkpt>
      <trkpt lat="43.22283" lon="5.47855">
        <ele>353.1</ele>
        <time>2025-10-18T12:48:57Z</time>
      </trkpt>
      <trkpt lat="43.22282" lon="5.47855">
        <ele>352.9</ele>
        <time>2025-10-18T12:48:58Z</time>
      </trkpt>
      <trkpt lat="43.22282" lon="5.47856">
        <ele>352.7</ele>
        <time>2025-10-18T12:48:59Z</time>
      </trkpt>
      <trkpt lat="43.22281" lon="5.47856">
        <ele>352.4</ele>
        <time>2025-10-18T12:49:00Z</time>
      </trkpt>
      <trkpt lat="43.22281" lon="5.47857">
        <ele>352.2</ele>
        <time>2025-10-18T12:49:01Z</time>
      </trkpt>
      <trkpt lat="43.22281" lon="5.47857">
        <ele>351.9</ele>
        <time>2025-10-18T12:49:02Z</time>
      </trkpt>
      <trkpt lat="43.2228" lon="5.47857">
        <ele>351.7</ele>
        <time>2025-10-18T12:49:03Z</time>
      </trkpt>
      <trkpt lat="43.2228" lon="5.47858">
        <ele>351.4</ele>
        <time>2025-10-18T12:49:04Z</time>
      </trkpt>
      <trkpt lat="43.2228" lon="5.47858">
        <ele>351.1</ele>
        <time>2025-10-18T12:49:05Z</time>
      </trkpt>
      <trkpt lat="43.2228" lon="5.47859">
        <ele>350.9</ele>
        <time>2025-10-18T12:49:06Z</time>
      </trkpt>
      <trkpt lat="43.22279" lon="5.47859">
        <ele>350.7</ele>
        <time>2025-10-18T12:49:07Z</time>
      </trkpt>
      <trkpt lat="43.2228" lon="5.47859">
        <ele>350.5</ele>
        <time>2025-10-18T12:49:08Z</time>
      </trkpt>
      <trkpt lat="43.2228" lon="5.4786">
        <ele>350.4</ele>
        <time>2025-10-18T12:49:09Z</time>
      </trkpt>
      <trkpt lat="43.2228" lon="5.4786">
        <ele>350.3</ele>
        <time>2025-10-18T12:49:10Z</time>
      </trkpt>
      <trkpt lat="43.22281" lon="5.47861">
        <ele>350.3</ele>
        <time>2025-10-18T12:49:11Z</time>
      </trkpt>
      <trkpt lat="43.22281" lon="5.47861">
        <ele>350.4</ele>
        <time>2025-10-18T12:49:12Z</time>
      </trkpt>
      <trkpt lat="43.22281" lon="5.47862">
        <ele>350.4</ele>
        <time>2025-10-18T12:49:13Z</time>
      </trkpt>
      <trkpt lat="43.22281" lon="5.47862">
        <ele>350.5</ele>
        <time>2025-10-18T12:49:14Z</time>
      </trkpt>
      <trkpt lat="43.22282" lon="5.47862">
        <ele>350.4</ele>
        <time>2025-10-18T12:49:15Z</time>
      </trkpt>
      <trkpt lat="43.22282" lon="5.47863">
        <ele>350.5</ele>
        <time>2025-10-18T12:49:16Z</time>
      </trkpt>
      <trkpt lat="43.22282" lon="5.47864">
        <ele>350.6</ele>
        <time>2025-10-18T12:49:17Z</time>
      </trkpt>
      <trkpt lat="43.22282" lon="5.47865">
        <ele>350.7</ele>
        <time>2025-10-18T12:49:18Z</time>
      </trkpt>
      <trkpt lat="43.22282" lon="5.47866">
        <ele>350.7</ele>
        <time>2025-10-18T12:49:19Z</time>
      </trkpt>
      <trkpt lat="43.22282" lon="5.47866">
        <ele>350.8</ele>
        <time>2025-10-18T12:49:20Z</time>
      </trkpt>
      <trkpt lat="43.22282" lon="5.47866">
        <ele>350.8</ele>
        <time>2025-10-18T12:49:21Z</time>
      </trkpt>
      <trkpt lat="43.22282" lon="5.47866">
        <ele>350.8</ele>
        <time>2025-10-18T12:49:22Z</time>
      </trkpt>
      <trkpt lat="43.22282" lon="5.47866">
        <ele>350.8</ele>
        <time>2025-10-18T12:49:23Z</time>
      </trkpt>
      <trkpt lat="43.22282" lon="5.47866">
        <ele>350.8</ele>
        <time>2025-10-18T12:49:24Z</time>
      </trkpt>
      <trkpt lat="43.22283" lon="5.47867">
        <ele>350.8</ele>
        <time>2025-10-18T12:49:25Z</time>
      </trkpt>
      <trkpt lat="43.22283" lon="5.47868">
        <ele>350.9</ele>
        <time>2025-10-18T12:49:26Z</time>
      </trkpt>
      <trkpt lat="43.22283" lon="5.47868">
        <ele>351</ele>
        <time>2025-10-18T12:49:27Z</time>
      </trkpt>
      <trkpt lat="43.22283" lon="5.47869">
        <ele>351.2</ele>
        <time>2025-10-18T12:49:28Z</time>
      </trkpt>
      <trkpt lat="43.22283" lon="5.4787">
        <ele>351.4</ele>
        <time>2025-10-18T12:49:29Z</time>
      </trkpt>
      <trkpt lat="43.22284" lon="5.47871">
        <ele>351.6</ele>
        <time>2025-10-18T12:49:30Z</time>
      </trkpt>
      <trkpt lat="43.22284" lon="5.47871">
        <ele>351.7</ele>
        <time>2025-10-18T12:49:31Z</time>
      </trkpt>
      <trkpt lat="43.22284" lon="5.47872">
        <ele>352</ele>
        <time>2025-10-18T12:49:32Z</time>
      </trkpt>
      <trkpt lat="43.22284" lon="5.47873">
        <ele>352.2</ele>
        <time>2025-10-18T12:49:33Z</time>
      </trkpt>
      <trkpt lat="43.22284" lon="5.47874">
        <ele>352.4</ele>
        <time>2025-10-18T12:49:34Z</time>
      </trkpt>
      <trkpt lat="43.22285" lon="5.47874">
        <ele>352.6</ele>
        <time>2025-10-18T12:49:35Z</time>
      </trkpt>
      <trkpt lat="43.22285" lon="5.47875">
        <ele>352.8</ele>
        <time>2025-10-18T12:49:36Z</time>
      </trkpt>
      <trkpt lat="43.22285" lon="5.47876">
        <ele>353.1</ele>
        <time>2025-10-18T12:49:37Z</time>
      </trkpt>
      <trkpt lat="43.22285" lon="5.47876">
        <ele>353.4</ele>
        <time>2025-10-18T12:49:38Z</time>
      </trkpt>
      <trkpt lat="43.22285" lon="5.47877">
        <ele>353.6</ele>
        <time>2025-10-18T12:49:39Z</time>
      </trkpt>
      <trkpt lat="43.22285" lon="5.47877">
        <ele>353.8</ele>
        <time>2025-10-18T12:49:40Z</time>
      </trkpt>
      <trkpt lat="43.22285" lon="5.47878">
        <ele>354</ele>
        <time>2025-10-18T12:49:41Z</time>
      </trkpt>
      <trkpt lat="43.22285" lon="5.47879">
        <ele>354.1</ele>
        <time>2025-10-18T12:49:42Z</time>
      </trkpt>
      <trkpt lat="43.22285" lon="5.4788">
        <ele>354.2</ele>
        <time>2025-10-18T12:49:43Z</time>
      </trkpt>
      <trkpt lat="43.22285" lon="5.4788">
        <ele>354.4</ele>
        <time>2025-10-18T12:49:44Z</time>
      </trkpt>
      <trkpt lat="43.22286" lon="5.4788">
        <ele>354.6</ele>
        <time>2025-10-18T12:49:45Z</time>
      </trkpt>
      <trkpt lat="43.22286" lon="5.4788">
        <ele>355</ele>
        <time>2025-10-18T12:49:46Z</time>
      </trkpt>
      <trkpt lat="43.22287" lon="5.4788">
        <ele>355.2</ele>
        <time>2025-10-18T12:49:47Z</time>
      </trkpt>
      <trkpt lat="43.22287" lon="5.47881">
        <ele>355.3</ele>
        <time>2025-10-18T12:49:48Z</time>
      </trkpt>
      <trkpt lat="43.22287" lon="5.47881">
        <ele>355.4</ele>
        <time>2025-10-18T12:49:49Z</time>
      </trkpt>
      <trkpt lat="43.22287" lon="5.47881">
        <ele>355.4</ele>
        <time>2025-10-18T12:49:50Z</time>
      </trkpt>
      <trkpt lat="43.22288" lon="5.47881">
        <ele>355.5</ele>
        <time>2025-10-18T12:49:51Z</time>
      </trkpt>
      <trkpt lat="43.22288" lon="5.47881">
        <ele>355.7</ele>
        <time>2025-10-18T12:49:52Z</time>
      </trkpt>
      <trkpt lat="43.22288" lon="5.4788">
        <ele>355.8</ele>
        <time>2025-10-18T12:49:53Z</time>
      </trkpt>
      <trkpt lat="43.22288" lon="5.4788">
        <ele>356</ele>
        <time>2025-10-18T12:49:54Z</time>
      </trkpt>
      <trkpt lat="43.22289" lon="5.4788">
        <ele>356.2</ele>
        <time>2025-10-18T12:49:55Z</time>
      </trkpt>
      <trkpt lat="43.22289" lon="5.4788">
        <ele>356.4</ele>
        <time>2025-10-18T12:49:56Z</time>
      </trkpt>
      <trkpt lat="43.22289" lon="5.47879">
        <ele>356.5</ele>
        <time>2025-10-18T12:49:57Z</time>
      </trkpt>
      <trkpt lat="43.22289" lon="5.4788">
        <ele>356.7</ele>
        <time>2025-10-18T12:49:58Z</time>
      </trkpt>
      <trkpt lat="43.22289" lon="5.4788">
        <ele>356.8</ele>
        <time>2025-10-18T12:49:59Z</time>
      </trkpt>
      <trkpt lat="43.22289" lon="5.4788">
        <ele>356.9</ele>
        <time>2025-10-18T12:50:00Z</time>
      </trkpt>
      <trkpt lat="43.2229" lon="5.4788">
        <ele>357</ele>
        <time>2025-10-18T12:50:01Z</time>
      </trkpt>
      <trkpt lat="43.2229" lon="5.4788">
        <ele>356.9</ele>
        <time>2025-10-18T12:50:02Z</time>
      </trkpt>
      <trkpt lat="43.2229" lon="5.4788">
        <ele>356.9</ele>
        <time>2025-10-18T12:50:03Z</time>
      </trkpt>
      <trkpt lat="43.2229" lon="5.4788">
        <ele>356.9</ele>
        <time>2025-10-18T12:50:04Z</time>
      </trkpt>
      <trkpt lat="43.2229" lon="5.4788">
        <ele>356.9</ele>
        <time>2025-10-18T12:50:05Z</time>
      </trkpt>
      <trkpt lat="43.2229" lon="5.4788">
        <ele>356.9</ele>
        <time>2025-10-18T12:50:06Z</time>
      </trkpt>
      <trkpt lat="43.2229" lon="5.47881">
        <ele>356.8</ele>
        <time>2025-10-18T12:50:07Z</time>
      </trkpt>
      <trkpt lat="43.2229" lon="5.47881">
        <ele>356.8</ele>
        <time>2025-10-18T12:50:08Z</time>
      </trkpt>
      <trkpt lat="43.2229" lon="5.47881">
        <ele>356.9</ele>
        <time>2025-10-18T12:50:09Z</time>
      </trkpt>
      <trkpt lat="43.2229" lon="5.47881">
        <ele>357</ele>
        <time>2025-10-18T12:50:10Z</time>
      </trkpt>
      <trkpt lat="43.22289" lon="5.47881">
        <ele>357.1</ele>
        <time>2025-10-18T12:50:11Z</time>
      </trkpt>
      <trkpt lat="43.22289" lon="5.47881">
        <ele>357.1</ele>
        <time>2025-10-18T12:50:12Z</time>
      </trkpt>
      <trkpt lat="43.22289" lon="5.47881">
        <ele>357.2</ele>
        <time>2025-10-18T12:50:13Z</time>
      </trkpt>
      <trkpt lat="43.22289" lon="5.47882">
        <ele>357.3</ele>
        <time>2025-10-18T12:50:14Z</time>
      </trkpt>
      <trkpt lat="43.22289" lon="5.47882">
        <ele>357.4</ele>
        <time>2025-10-18T12:50:15Z</time>
      </trkpt>
      <trkpt lat="43.22289" lon="5.47883">
        <ele>357.5</ele>
        <time>2025-10-18T12:50:16Z</time>
      </trkpt>
      <trkpt lat="43.22289" lon="5.47883">
        <ele>357.7</ele>
        <time>2025-10-18T12:50:17Z</time>
      </trkpt>
      <trkpt lat="43.22289" lon="5.47883">
        <ele>357.8</ele>
        <time>2025-10-18T12:50:18Z</time>
      </trkpt>
      <trkpt lat="43.22289" lon="5.47883">
        <ele>357.9</ele>
        <time>2025-10-18T12:50:19Z</time>
      </trkpt>
      <trkpt lat="43.22289" lon="5.47883">
        <ele>358</ele>
        <time>2025-10-18T12:50:20Z</time>
      </trkpt>
      <trkpt lat="43.22289" lon="5.47883">
        <ele>358.1</ele>
        <time>2025-10-18T12:50:21Z</time>
      </trkpt>
      <trkpt lat="43.22289" lon="5.47882">
        <ele>358.2</ele>
        <time>2025-10-18T12:50:22Z</time>
      </trkpt>
      <trkpt lat="43.22289" lon="5.47883">
        <ele>358.3</ele>
        <time>2025-10-18T12:50:23Z</time>
      </trkpt>
      <trkpt lat="43.22289" lon="5.47883">
        <ele>358.4</ele>
        <time>2025-10-18T12:50:24Z</time>
      </trkpt>
      <trkpt lat="43.22289" lon="5.47883">
        <ele>358.4</ele>
        <time>2025-10-18T12:50:25Z</time>
      </trkpt>
      <trkpt lat="43.22288" lon="5.47882">
        <ele>358.4</ele>
        <time>2025-10-18T12:50:26Z</time>
      </trkpt>
      <trkpt lat="43.22288" lon="5.47882">
        <ele>358.5</ele>
        <time>2025-10-18T12:50:27Z</time>
      </trkpt>
      <trkpt lat="43.22288" lon="5.47882">
        <ele>358.5</ele>
        <time>2025-10-18T12:50:28Z</time>
      </trkpt>
      <trkpt lat="43.22287" lon="5.47881">
        <ele>358.6</ele>
        <time>2025-10-18T12:50:29Z</time>
      </trkpt>
      <trkpt lat="43.22287" lon="5.47881">
        <ele>358.6</ele>
        <time>2025-10-18T12:50:30Z</time>
      </trkpt>
      <trkpt lat="43.22287" lon="5.47881">
        <ele>358.6</ele>
        <time>2025-10-18T12:50:31Z</time>
      </trkpt>
      <trkpt lat="43.22288" lon="5.47881">
        <ele>358.6</ele>
        <time>2025-10-18T12:50:32Z</time>
      </trkpt>
      <trkpt lat="43.22288" lon="5.47882">
        <ele>358.6</ele>
        <time>2025-10-18T12:50:33Z</time>
      </trkpt>
      <trkpt lat="43.22288" lon="5.47882">
        <ele>358.5</ele>
        <time>2025-10-18T12:50:34Z</time>
      </trkpt>
      <trkpt lat="43.22288" lon="5.47883">
        <ele>358.5</ele>
        <time>2025-10-18T12:50:35Z</time>
      </trkpt>
      <trkpt lat="43.22288" lon="5.47883">
        <ele>358.5</ele>
        <time>2025-10-18T12:50:36Z</time>
      </trkpt>
      <trkpt lat="43.22288" lon="5.47883">
        <ele>358.5</ele>
        <time>2025-10-18T12:50:37Z</time>
      </trkpt>
      <trkpt lat="43.22288" lon="5.47883">
        <ele>358.5</ele>
        <time>2025-10-18T12:50:38Z</time>
      </trkpt>
      <trkpt lat="43.22289" lon="5.47883">
        <ele>358.4</ele>
        <time>2025-10-18T12:50:39Z</time>
      </trkpt>
      <trkpt lat="43.22289" lon="5.47884">
        <ele>358.4</ele>
        <time>2025-10-18T12:50:40Z</time>
      </trkpt>
      <trkpt lat="43.22289" lon="5.47884">
        <ele>358.4</ele>
        <time>2025-10-18T12:50:41Z</time>
      </trkpt>
      <trkpt lat="43.22289" lon="5.47884">
        <ele>358.3</ele>
        <time>2025-10-18T12:50:42Z</time>
      </trkpt>
      <trkpt lat="43.22289" lon="5.47883">
        <ele>358.3</ele>
        <time>2025-10-18T12:50:43Z</time>
      </trkpt>
      <trkpt lat="43.22289" lon="5.47883">
        <ele>358.3</ele>
        <time>2025-10-18T12:50:44Z</time>
      </trkpt>
      <trkpt lat="43.22289" lon="5.47883">
        <ele>358.3</ele>
        <time>2025-10-18T12:50:45Z</time>
      </trkpt>
      <trkpt lat="43.22289" lon="5.47883">
        <ele>358.3</ele>
        <time>2025-10-18T12:50:46Z</time>
      </trkpt>
      <trkpt lat="43.22289" lon="5.47883">
        <ele>358.3</ele>
        <time>2025-10-18T12:50:47Z</time>
      </trkpt>
      <trkpt lat="43.2229" lon="5.47883">
        <ele>358.3</ele>
        <time>2025-10-18T12:50:48Z</time>
      </trkpt>
      <trkpt lat="43.2229" lon="5.47882">
        <ele>358.3</ele>
        <time>2025-10-18T12:50:49Z</time>
      </trkpt>
      <trkpt lat="43.2229" lon="5.47883">
        <ele>358.3</ele>
        <time>2025-10-18T12:50:50Z</time>
      </trkpt>
      <trkpt lat="43.2229" lon="5.47883">
        <ele>358.2</ele>
        <time>2025-10-18T12:50:51Z</time>
      </trkpt>
      <trkpt lat="43.2229" lon="5.47883">
        <ele>358.2</ele>
        <time>2025-10-18T12:50:52Z</time>
      </trkpt>
      <trkpt lat="43.22291" lon="5.47883">
        <ele>358.2</ele>
        <time>2025-10-18T12:50:53Z</time>
      </trkpt>
      <trkpt lat="43.22291" lon="5.47882">
        <ele>358.2</ele>
        <time>2025-10-18T12:50:54Z</time>
      </trkpt>
      <trkpt lat="43.22291" lon="5.47882">
        <ele>358.2</ele>
        <time>2025-10-18T12:50:55Z</time>
      </trkpt>
      <trkpt lat="43.22291" lon="5.47883">
        <ele>358.2</ele>
        <time>2025-10-18T12:50:56Z</time>
      </trkpt>
      <trkpt lat="43.2229" lon="5.47883">
        <ele>358.2</ele>
        <time>2025-10-18T12:50:57Z</time>
      </trkpt>
      <trkpt lat="43.2229" lon="5.47883">
        <ele>358.2</ele>
        <time>2025-10-18T12:50:58Z</time>
      </trkpt>
      <trkpt lat="43.2229" lon="5.47884">
        <ele>358.3</ele>
        <time>2025-10-18T12:50:59Z</time>
      </trkpt>
      <trkpt lat="43.22289" lon="5.47884">
        <ele>358.3</ele>
        <time>2025-10-18T12:51:00Z</time>
      </trkpt>
      <trkpt lat="43.22289" lon="5.47886">
        <ele>358.4</ele>
        <time>2025-10-18T12:51:01Z</time>
      </trkpt>
      <trkpt lat="43.22289" lon="5.47886">
        <ele>358.5</ele>
        <time>2025-10-18T12:51:02Z</time>
      </trkpt>
      <trkpt lat="43.22288" lon="5.47887">
        <ele>358.6</ele>
        <time>2025-10-18T12:51:03Z</time>
      </trkpt>
      <trkpt lat="43.22288" lon="5.47887">
        <ele>358.7</ele>
        <time>2025-10-18T12:51:04Z</time>
      </trkpt>
      <trkpt lat="43.22287" lon="5.47887">
        <ele>358.7</ele>
        <time>2025-10-18T12:51:05Z</time>
      </trkpt>
      <trkpt lat="43.22287" lon="5.47887">
        <ele>358.7</ele>
        <time>2025-10-18T12:51:06Z</time>
      </trkpt>
      <trkpt lat="43.22287" lon="5.47887">
        <ele>358.7</ele>
        <time>2025-10-18T12:51:07Z</time>
      </trkpt>
      <trkpt lat="43.22287" lon="5.47887">
        <ele>358.7</ele>
        <time>2025-10-18T12:51:08Z</time>
      </trkpt>
      <trkpt lat="43.22287" lon="5.47887">
        <ele>358.6</ele>
        <time>2025-10-18T12:51:09Z</time>
      </trkpt>
      <trkpt lat="43.22287" lon="5.47887">
        <ele>358.6</ele>
        <time>2025-10-18T12:51:10Z</time>
      </trkpt>
      <trkpt lat="43.22287" lon="5.47887">
        <ele>358.6</ele>
        <time>2025-10-18T12:51:11Z</time>
      </trkpt>
      <trkpt lat="43.22287" lon="5.47887">
        <ele>358.6</ele>
        <time>2025-10-18T12:51:12Z</time>
      </trkpt>
      <trkpt lat="43.22287" lon="5.47887">
        <ele>358.6</ele>
        <time>2025-10-18T12:51:13Z</time>
      </trkpt>
      <trkpt lat="43.22287" lon="5.47887">
        <ele>358.6</ele>
        <time>2025-10-18T12:51:14Z</time>
      </trkpt>
      <trkpt lat="43.22287" lon="5.47887">
        <ele>358.6</ele>
        <time>2025-10-18T12:51:15Z</time>
      </trkpt>
      <trkpt lat="43.22287" lon="5.47887">
        <ele>358.5</ele>
        <time>2025-10-18T12:51:16Z</time>
      </trkpt>
      <trkpt lat="43.22287" lon="5.47888">
        <ele>358.5</ele>
        <time>2025-10-18T12:51:17Z</time>
      </trkpt>
      <trkpt lat="43.22287" lon="5.47887">
        <ele>358.5</ele>
        <time>2025-10-18T12:51:18Z</time>
      </trkpt>
      <trkpt lat="43.22287" lon="5.47888">
        <ele>358.6</ele>
        <time>2025-10-18T12:51:19Z</time>
      </trkpt>
      <trkpt lat="43.22287" lon="5.47888">
        <ele>358.6</ele>
        <time>2025-10-18T12:51:20Z</time>
      </trkpt>
      <trkpt lat="43.22286" lon="5.47889">
        <ele>358.6</ele>
        <time>2025-10-18T12:51:21Z</time>
      </trkpt>
      <trkpt lat="43.22286" lon="5.4789">
        <ele>358.5</ele>
        <time>2025-10-18T12:51:22Z</time>
      </trkpt>
      <trkpt lat="43.22287" lon="5.4789">
        <ele>358.5</ele>
        <time>2025-10-18T12:51:23Z</time>
      </trkpt>
      <trkpt lat="43.22287" lon="5.4789">
        <ele>358.4</ele>
        <time>2025-10-18T12:51:24Z</time>
      </trkpt>
      <trkpt lat="43.22287" lon="5.4789">
        <ele>358.4</ele>
        <time>2025-10-18T12:51:25Z</time>
      </trkpt>
      <trkpt lat="43.22287" lon="5.4789">
        <ele>358.4</ele>
        <time>2025-10-18T12:51:26Z</time>
      </trkpt>
      <trkpt lat="43.22288" lon="5.4789">
        <ele>358.3</ele>
        <time>2025-10-18T12:51:27Z</time>
      </trkpt>
      <trkpt lat="43.22288" lon="5.47889">
        <ele>358.2</ele>
        <time>2025-10-18T12:51:28Z</time>
      </trkpt>
      <trkpt lat="43.22288" lon="5.47889">
        <ele>358.2</ele>
        <time>2025-10-18T12:51:29Z</time>
      </trkpt>
      <trkpt lat="43.22288" lon="5.47889">
        <ele>358.1</ele>
        <time>2025-10-18T12:51:30Z</time>
      </trkpt>
      <trkpt lat="43.22288" lon="5.47889">
        <ele>358.1</ele>
        <time>2025-10-18T12:51:31Z</time>
      </trkpt>
      <trkpt lat="43.22288" lon="5.47889">
        <ele>358.1</ele>
        <time>2025-10-18T12:51:32Z</time>
      </trkpt>
      <trkpt lat="43.22288" lon="5.47889">
        <ele>358.1</ele>
        <time>2025-10-18T12:51:33Z</time>
      </trkpt>
      <trkpt lat="43.22288" lon="5.47889">
        <ele>358.1</ele>
        <time>2025-10-18T12:51:34Z</time>
      </trkpt>
      <trkpt lat="43.22288" lon="5.47889">
        <ele>358.1</ele>
        <time>2025-10-18T12:51:35Z</time>
      </trkpt>
      <trkpt lat="43.22288" lon="5.47889">
        <ele>358.1</ele>
        <time>2025-10-18T12:51:36Z</time>
      </trkpt>
      <trkpt lat="43.22288" lon="5.47889">
        <ele>358.1</ele>
        <time>2025-10-18T12:51:37Z</time>
      </trkpt>
      <trkpt lat="43.22288" lon="5.47889">
        <ele>358.1</ele>
        <time>2025-10-18T12:51:38Z</time>
      </trkpt>
      <trkpt lat="43.22287" lon="5.4789">
        <ele>358.2</ele>
        <time>2025-10-18T12:51:39Z</time>
      </trkpt>
      <trkpt lat="43.22287" lon="5.4789">
        <ele>358.2</ele>
        <time>2025-10-18T12:51:40Z</time>
      </trkpt>
      <trkpt lat="43.22287" lon="5.4789">
        <ele>358.2</ele>
        <time>2025-10-18T12:51:41Z</time>
      </trkpt>
      <trkpt lat="43.22287" lon="5.4789">
        <ele>358.2</ele>
        <time>2025-10-18T12:51:42Z</time>
      </trkpt>
      <trkpt lat="43.22287" lon="5.4789">
        <ele>358.2</ele>
        <time>2025-10-18T12:51:43Z</time>
      </trkpt>
      <trkpt lat="43.22287" lon="5.47889">
        <ele>358.2</ele>
        <time>2025-10-18T12:51:44Z</time>
      </trkpt>
      <trkpt lat="43.22287" lon="5.4789">
        <ele>358.3</ele>
        <time>2025-10-18T12:51:45Z</time>
      </trkpt>
      <trkpt lat="43.22286" lon="5.4789">
        <ele>358.3</ele>
        <time>2025-10-18T12:51:46Z</time>
      </trkpt>
      <trkpt lat="43.22286" lon="5.47891">
        <ele>358.4</ele>
        <time>2025-10-18T12:51:47Z</time>
      </trkpt>
      <trkpt lat="43.22286" lon="5.47891">
        <ele>358.3</ele>
        <time>2025-10-18T12:51:48Z</time>
      </trkpt>
      <trkpt lat="43.22286" lon="5.47891">
        <ele>358.3</ele>
        <time>2025-10-18T12:51:49Z</time>
      </trkpt>
      <trkpt lat="43.22286" lon="5.47891">
        <ele>358.2</ele>
        <time>2025-10-18T12:51:50Z</time>
      </trkpt>
      <trkpt lat="43.22286" lon="5.47891">
        <ele>358.2</ele>
        <time>2025-10-18T12:51:51Z</time>
      </trkpt>
      <trkpt lat="43.22286" lon="5.47891">
        <ele>358.2</ele>
        <time>2025-10-18T12:51:52Z</time>
      </trkpt>
      <trkpt lat="43.22286" lon="5.47891">
        <ele>358.1</ele>
        <time>2025-10-18T12:51:53Z</time>
      </trkpt>
      <trkpt lat="43.22286" lon="5.47891">
        <ele>358</ele>
        <time>2025-10-18T12:51:54Z</time>
      </trkpt>
      <trkpt lat="43.22286" lon="5.47891">
        <ele>357.9</ele>
        <time>2025-10-18T12:51:55Z</time>
      </trkpt>
      <trkpt lat="43.22286" lon="5.47891">
        <ele>357.8</ele>
        <time>2025-10-18T12:51:56Z</time>
      </trkpt>
      <trkpt lat="43.22286" lon="5.47891">
        <ele>357.7</ele>
        <time>2025-10-18T12:51:57Z</time>
      </trkpt>
      <trkpt lat="43.22286" lon="5.47891">
        <ele>357.7</ele>
        <time>2025-10-18T12:51:58Z</time>
      </trkpt>
      <trkpt lat="43.22286" lon="5.47891">
        <ele>357.7</ele>
        <time>2025-10-18T12:51:59Z</time>
      </trkpt>
      <trkpt lat="43.22286" lon="5.47891">
        <ele>357.7</ele>
        <time>2025-10-18T12:52:00Z</time>
      </trkpt>
      <trkpt lat="43.22286" lon="5.47891">
        <ele>357.7</ele>
        <time>2025-10-18T12:52:01Z</time>
      </trkpt>
      <trkpt lat="43.22285" lon="5.47891">
        <ele>357.7</ele>
        <time>2025-10-18T12:52:02Z</time>
      </trkpt>
      <trkpt lat="43.22285" lon="5.47891">
        <ele>357.7</ele>
        <time>2025-10-18T12:52:03Z</time>
      </trkpt>
      <trkpt lat="43.22285" lon="5.4789">
        <ele>357.8</ele>
        <time>2025-10-18T12:52:04Z</time>
      </trkpt>
      <trkpt lat="43.22286" lon="5.4789">
        <ele>357.8</ele>
        <time>2025-10-18T12:52:05Z</time>
      </trkpt>
      <trkpt lat="43.22286" lon="5.4789">
        <ele>357.8</ele>
        <time>2025-10-18T12:52:06Z</time>
      </trkpt>
      <trkpt lat="43.22286" lon="5.47891">
        <ele>357.8</ele>
        <time>2025-10-18T12:52:07Z</time>
      </trkpt>
      <trkpt lat="43.22286" lon="5.47891">
        <ele>357.8</ele>
        <time>2025-10-18T12:52:08Z</time>
      </trkpt>
      <trkpt lat="43.22286" lon="5.47891">
        <ele>357.8</ele>
        <time>2025-10-18T12:52:09Z</time>
      </trkpt>
      <trkpt lat="43.22286" lon="5.47891">
        <ele>357.9</ele>
        <time>2025-10-18T12:52:10Z</time>
      </trkpt>
      <trkpt lat="43.22286" lon="5.47891">
        <ele>357.9</ele>
        <time>2025-10-18T12:52:11Z</time>
      </trkpt>
      <trkpt lat="43.22286" lon="5.47892">
        <ele>358</ele>
        <time>2025-10-18T12:52:12Z</time>
      </trkpt>
      <trkpt lat="43.22286" lon="5.47893">
        <ele>358</ele>
        <time>2025-10-18T12:52:13Z</time>
      </trkpt>
      <trkpt lat="43.22285" lon="5.47894">
        <ele>358</ele>
        <time>2025-10-18T12:52:14Z</time>
      </trkpt>
      <trkpt lat="43.22285" lon="5.47894">
        <ele>357.9</ele>
        <time>2025-10-18T12:52:15Z</time>
      </trkpt>
      <trkpt lat="43.22285" lon="5.47895">
        <ele>357.9</ele>
        <time>2025-10-18T12:52:16Z</time>
      </trkpt>
      <trkpt lat="43.22285" lon="5.47895">
        <ele>357.7</ele>
        <time>2025-10-18T12:52:17Z</time>
      </trkpt>
      <trkpt lat="43.22285" lon="5.47895">
        <ele>357.6</ele>
        <time>2025-10-18T12:52:18Z</time>
      </trkpt>
      <trkpt lat="43.22285" lon="5.47895">
        <ele>357.5</ele>
        <time>2025-10-18T12:52:19Z</time>
      </trkpt>
      <trkpt lat="43.22285" lon="5.47895">
        <ele>357.5</ele>
        <time>2025-10-18T12:52:20Z</time>
      </trkpt>
      <trkpt lat="43.22284" lon="5.47896">
        <ele>357.5</ele>
        <time>2025-10-18T12:52:21Z</time>
      </trkpt>
      <trkpt lat="43.22284" lon="5.47896">
        <ele>357.4</ele>
        <time>2025-10-18T12:52:22Z</time>
      </trkpt>
      <trkpt lat="43.22284" lon="5.47897">
        <ele>357.3</ele>
        <time>2025-10-18T12:52:23Z</time>
      </trkpt>
      <trkpt lat="43.22285" lon="5.47898">
        <ele>357.3</ele>
        <time>2025-10-18T12:52:24Z</time>
      </trkpt>
      <trkpt lat="43.22285" lon="5.47898">
        <ele>357.3</ele>
        <time>2025-10-18T12:52:25Z</time>
      </trkpt>
      <trkpt lat="43.22285" lon="5.47898">
        <ele>357.2</ele>
        <time>2025-10-18T12:52:26Z</time>
      </trkpt>
      <trkpt lat="43.22284" lon="5.47899">
        <ele>357.2</ele>
        <time>2025-10-18T12:52:27Z</time>
      </trkpt>
      <trkpt lat="43.22284" lon="5.47899">
        <ele>357.1</ele>
        <time>2025-10-18T12:52:28Z</time>
      </trkpt>
      <trkpt lat="43.22284" lon="5.479">
        <ele>357</ele>
        <time>2025-10-18T12:52:29Z</time>
      </trkpt>
      <trkpt lat="43.22284" lon="5.479">
        <ele>356.9</ele>
        <time>2025-10-18T12:52:30Z</time>
      </trkpt>
      <trkpt lat="43.22284" lon="5.47901">
        <ele>356.9</ele>
        <time>2025-10-18T12:52:31Z</time>
      </trkpt>
      <trkpt lat="43.22284" lon="5.47901">
        <ele>356.8</ele>
        <time>2025-10-18T12:52:32Z</time>
      </trkpt>
      <trkpt lat="43.22284" lon="5.47901">
        <ele>356.7</ele>
        <time>2025-10-18T12:52:33Z</time>
      </trkpt>
      <trkpt lat="43.22284" lon="5.47901">
        <ele>356.6</ele>
        <time>2025-10-18T12:52:34Z</time>
      </trkpt>
      <trkpt lat="43.22284" lon="5.47901">
        <ele>356.5</ele>
        <time>2025-10-18T12:52:35Z</time>
      </trkpt>
      <trkpt lat="43.22284" lon="5.47901">
        <ele>356.5</ele>
        <time>2025-10-18T12:52:36Z</time>
      </trkpt>
      <trkpt lat="43.22284" lon="5.47901">
        <ele>356.5</ele>
        <time>2025-10-18T12:52:37Z</time>
      </trkpt>
      <trkpt lat="43.22284" lon="5.47901">
        <ele>356.5</ele>
        <time>2025-10-18T12:52:38Z</time>
      </trkpt>
      <trkpt lat="43.22284" lon="5.47901">
        <ele>356.5</ele>
        <time>2025-10-18T12:52:39Z</time>
      </trkpt>
      <trkpt lat="43.22284" lon="5.47901">
        <ele>356.4</ele>
        <time>2025-10-18T12:52:40Z</time>
      </trkpt>
      <trkpt lat="43.22284" lon="5.47901">
        <ele>356.5</ele>
        <time>2025-10-18T12:52:41Z</time>
      </trkpt>
      <trkpt lat="43.22284" lon="5.47901">
        <ele>356.5</ele>
        <time>2025-10-18T12:52:42Z</time>
      </trkpt>
      <trkpt lat="43.22284" lon="5.47901">
        <ele>356.5</ele>
        <time>2025-10-18T12:52:43Z</time>
      </trkpt>
      <trkpt lat="43.22284" lon="5.47901">
        <ele>356.5</ele>
        <time>2025-10-18T12:52:44Z</time>
      </trkpt>
      <trkpt lat="43.22284" lon="5.47901">
        <ele>356.5</ele>
        <time>2025-10-18T12:52:45Z</time>
      </trkpt>
      <trkpt lat="43.22284" lon="5.47901">
        <ele>356.5</ele>
        <time>2025-10-18T12:52:46Z</time>
      </trkpt>
      <trkpt lat="43.22284" lon="5.47901">
        <ele>356.5</ele>
        <time>2025-10-18T12:52:47Z</time>
      </trkpt>
      <trkpt lat="43.22284" lon="5.47901">
        <ele>356.6</ele>
        <time>2025-10-18T12:52:48Z</time>
      </trkpt>
      <trkpt lat="43.22284" lon="5.47901">
        <ele>356.5</ele>
        <time>2025-10-18T12:52:49Z</time>
      </trkpt>
      <trkpt lat="43.22284" lon="5.47902">
        <ele>356.5</ele>
        <time>2025-10-18T12:52:50Z</time>
      </trkpt>
      <trkpt lat="43.22284" lon="5.47902">
        <ele>356.5</ele>
        <time>2025-10-18T12:52:51Z</time>
      </trkpt>
      <trkpt lat="43.22284" lon="5.47902">
        <ele>356.5</ele>
        <time>2025-10-18T12:52:52Z</time>
      </trkpt>
      <trkpt lat="43.22284" lon="5.47902">
        <ele>356.5</ele>
        <time>2025-10-18T12:52:53Z</time>
      </trkpt>
      <trkpt lat="43.22284" lon="5.47902">
        <ele>356.5</ele>
        <time>2025-10-18T12:52:54Z</time>
      </trkpt>
      <trkpt lat="43.22284" lon="5.47902">
        <ele>356.5</ele>
        <time>2025-10-18T12:52:55Z</time>
      </trkpt>
      <trkpt lat="43.22283" lon="5.47902">
        <ele>356.5</ele>
        <time>2025-10-18T12:52:56Z</time>
      </trkpt>
      <trkpt lat="43.22283" lon="5.47902">
        <ele>356.6</ele>
        <time>2025-10-18T12:52:57Z</time>
      </trkpt>
      <trkpt lat="43.22283" lon="5.47902">
        <ele>356.6</ele>
        <time>2025-10-18T12:52:58Z</time>
      </trkpt>
      <trkpt lat="43.22283" lon="5.47902">
        <ele>356.5</ele>
        <time>2025-10-18T12:52:59Z</time>
      </trkpt>
      <trkpt lat="43.22283" lon="5.47902">
        <ele>356.4</ele>
        <time>2025-10-18T12:53:00Z</time>
      </trkpt>
      <trkpt lat="43.22283" lon="5.47902">
        <ele>356.4</ele>
        <time>2025-10-18T12:53:01Z</time>
      </trkpt>
      <trkpt lat="43.22283" lon="5.47902">
        <ele>356.4</ele>
        <time>2025-10-18T12:53:02Z</time>
      </trkpt>
      <trkpt lat="43.22283" lon="5.47902">
        <ele>356.3</ele>
        <time>2025-10-18T12:53:03Z</time>
      </trkpt>
      <trkpt lat="43.22282" lon="5.47902">
        <ele>356.3</ele>
        <time>2025-10-18T12:53:04Z</time>
      </trkpt>
      <trkpt lat="43.22282" lon="5.47902">
        <ele>356.3</ele>
        <time>2025-10-18T12:53:05Z</time>
      </trkpt>
      <trkpt lat="43.22283" lon="5.47902">
        <ele>356.3</ele>
        <time>2025-10-18T12:53:06Z</time>
      </trkpt>
      <trkpt lat="43.22283" lon="5.47903">
        <ele>356.5</ele>
        <time>2025-10-18T12:53:07Z</time>
      </trkpt>
      <trkpt lat="43.22283" lon="5.47903">
        <ele>356.7</ele>
        <time>2025-10-18T12:53:08Z</time>
      </trkpt>
      <trkpt lat="43.22283" lon="5.47903">
        <ele>357.1</ele>
        <time>2025-10-18T12:53:09Z</time>
      </trkpt>
      <trkpt lat="43.22284" lon="5.47904">
        <ele>357.3</ele>
        <time>2025-10-18T12:53:10Z</time>
      </trkpt>
      <trkpt lat="43.22284" lon="5.47904">
        <ele>357.4</ele>
        <time>2025-10-18T12:53:11Z</time>
      </trkpt>
      <trkpt lat="43.22284" lon="5.47904">
        <ele>357.5</ele>
        <time>2025-10-18T12:53:12Z</time>
      </trkpt>
      <trkpt lat="43.22284" lon="5.47905">
        <ele>357.7</ele>
        <time>2025-10-18T12:53:13Z</time>
      </trkpt>
      <trkpt lat="43.22284" lon="5.47905">
        <ele>357.9</ele>
        <time>2025-10-18T12:53:14Z</time>
      </trkpt>
      <trkpt lat="43.22284" lon="5.47905">
        <ele>358.1</ele>
        <time>2025-10-18T12:53:15Z</time>
      </trkpt>
      <trkpt lat="43.22284" lon="5.47906">
        <ele>358.2</ele>
        <time>2025-10-18T12:53:16Z</time>
      </trkpt>
      <trkpt lat="43.22285" lon="5.47906">
        <ele>358.4</ele>
        <time>2025-10-18T12:53:17Z</time>
      </trkpt>
      <trkpt lat="43.22285" lon="5.47907">
        <ele>358.5</ele>
        <time>2025-10-18T12:53:18Z</time>
      </trkpt>
      <trkpt lat="43.22285" lon="5.47907">
        <ele>358.7</ele>
        <time>2025-10-18T12:53:19Z</time>
      </trkpt>
      <trkpt lat="43.22286" lon="5.47908">
        <ele>358.8</ele>
        <time>2025-10-18T12:53:20Z</time>
      </trkpt>
      <trkpt lat="43.22286" lon="5.47908">
        <ele>359</ele>
        <time>2025-10-18T12:53:21Z</time>
      </trkpt>
      <trkpt lat="43.22286" lon="5.47909">
        <ele>359.1</ele>
        <time>2025-10-18T12:53:22Z</time>
      </trkpt>
      <trkpt lat="43.22287" lon="5.47909">
        <ele>359.4</ele>
        <time>2025-10-18T12:53:23Z</time>
      </trkpt>
      <trkpt lat="43.22286" lon="5.47909">
        <ele>359.6</ele>
        <time>2025-10-18T12:53:24Z</time>
      </trkpt>
      <trkpt lat="43.22286" lon="5.47909">
        <ele>359.7</ele>
        <time>2025-10-18T12:53:25Z</time>
      </trkpt>
      <trkpt lat="43.22286" lon="5.47909">
        <ele>359.8</ele>
        <time>2025-10-18T12:53:26Z</time>
      </trkpt>
      <trkpt lat="43.22287" lon="5.4791">
        <ele>360</ele>
        <time>2025-10-18T12:53:27Z</time>
      </trkpt>
      <trkpt lat="43.22287" lon="5.4791">
        <ele>360.2</ele>
        <time>2025-10-18T12:53:28Z</time>
      </trkpt>
      <trkpt lat="43.22287" lon="5.47911">
        <ele>360.4</ele>
        <time>2025-10-18T12:53:29Z</time>
      </trkpt>
      <trkpt lat="43.22288" lon="5.47911">
        <ele>360.6</ele>
        <time>2025-10-18T12:53:30Z</time>
      </trkpt>
      <trkpt lat="43.22288" lon="5.47912">
        <ele>360.7</ele>
        <time>2025-10-18T12:53:31Z</time>
      </trkpt>
      <trkpt lat="43.22288" lon="5.47912">
        <ele>361</ele>
        <time>2025-10-18T12:53:32Z</time>
      </trkpt>
      <trkpt lat="43.22287" lon="5.47912">
        <ele>361.2</ele>
        <time>2025-10-18T12:53:33Z</time>
      </trkpt>
      <trkpt lat="43.22287" lon="5.47912">
        <ele>361.4</ele>
        <time>2025-10-18T12:53:34Z</time>
      </trkpt>
      <trkpt lat="43.22287" lon="5.47912">
        <ele>361.5</ele>
        <time>2025-10-18T12:53:35Z</time>
      </trkpt>
      <trkpt lat="43.22287" lon="5.47912">
        <ele>361.6</ele>
        <time>2025-10-18T12:53:36Z</time>
      </trkpt>
      <trkpt lat="43.22287" lon="5.47912">
        <ele>361.7</ele>
        <time>2025-10-18T12:53:37Z</time>
      </trkpt>
      <trkpt lat="43.22287" lon="5.47912">
        <ele>361.8</ele>
        <time>2025-10-18T12:53:38Z</time>
      </trkpt>
      <trkpt lat="43.22287" lon="5.47912">
        <ele>361.9</ele>
        <time>2025-10-18T12:53:39Z</time>
      </trkpt>
      <trkpt lat="43.22287" lon="5.47912">
        <ele>361.9</ele>
        <time>2025-10-18T12:53:40Z</time>
      </trkpt>
      <trkpt lat="43.22288" lon="5.47912">
        <ele>361.9</ele>
        <time>2025-10-18T12:53:41Z</time>
      </trkpt>
      <trkpt lat="43.22289" lon="5.47912">
        <ele>362.1</ele>
        <time>2025-10-18T12:53:42Z</time>
      </trkpt>
      <trkpt lat="43.22289" lon="5.47912">
        <ele>362.3</ele>
        <time>2025-10-18T12:53:43Z</time>
      </trkpt>
      <trkpt lat="43.22289" lon="5.47912">
        <ele>362.5</ele>
        <time>2025-10-18T12:53:44Z</time>
      </trkpt>
      <trkpt lat="43.2229" lon="5.47911">
        <ele>362.6</ele>
        <time>2025-10-18T12:53:45Z</time>
      </trkpt>
      <trkpt lat="43.2229" lon="5.47911">
        <ele>362.7</ele>
        <time>2025-10-18T12:53:46Z</time>
      </trkpt>
      <trkpt lat="43.22291" lon="5.47912">
        <ele>362.9</ele>
        <time>2025-10-18T12:53:47Z</time>
      </trkpt>
      <trkpt lat="43.22291" lon="5.47912">
        <ele>363.1</ele>
        <time>2025-10-18T12:53:48Z</time>
      </trkpt>
      <trkpt lat="43.22291" lon="5.47912">
        <ele>363.2</ele>
        <time>2025-10-18T12:53:49Z</time>
      </trkpt>
      <trkpt lat="43.22291" lon="5.47912">
        <ele>363.3</ele>
        <time>2025-10-18T12:53:50Z</time>
      </trkpt>
      <trkpt lat="43.22291" lon="5.47912">
        <ele>363.5</ele>
        <time>2025-10-18T12:53:51Z</time>
      </trkpt>
      <trkpt lat="43.22291" lon="5.47911">
        <ele>363.6</ele>
        <time>2025-10-18T12:53:52Z</time>
      </trkpt>
      <trkpt lat="43.22292" lon="5.4791">
        <ele>363.7</ele>
        <time>2025-10-18T12:53:53Z</time>
      </trkpt>
      <trkpt lat="43.22292" lon="5.4791">
        <ele>363.8</ele>
        <time>2025-10-18T12:53:54Z</time>
      </trkpt>
      <trkpt lat="43.22293" lon="5.47909">
        <ele>363.9</ele>
        <time>2025-10-18T12:53:55Z</time>
      </trkpt>
      <trkpt lat="43.22293" lon="5.47908">
        <ele>364.1</ele>
        <time>2025-10-18T12:53:56Z</time>
      </trkpt>
      <trkpt lat="43.22294" lon="5.47908">
        <ele>364.3</ele>
        <time>2025-10-18T12:53:57Z</time>
      </trkpt>
      <trkpt lat="43.22294" lon="5.47908">
        <ele>364.4</ele>
        <time>2025-10-18T12:53:58Z</time>
      </trkpt>
      <trkpt lat="43.22295" lon="5.47908">
        <ele>364.6</ele>
        <time>2025-10-18T12:53:59Z</time>
      </trkpt>
      <trkpt lat="43.22295" lon="5.47908">
        <ele>364.8</ele>
        <time>2025-10-18T12:54:00Z</time>
      </trkpt>
      <trkpt lat="43.22296" lon="5.47907">
        <ele>365</ele>
        <time>2025-10-18T12:54:01Z</time>
      </trkpt>
      <trkpt lat="43.22296" lon="5.47907">
        <ele>365.2</ele>
        <time>2025-10-18T12:54:02Z</time>
      </trkpt>
      <trkpt lat="43.22296" lon="5.47907">
        <ele>365.4</ele>
        <time>2025-10-18T12:54:03Z</time>
      </trkpt>
      <trkpt lat="43.22297" lon="5.47907">
        <ele>365.6</ele>
        <time>2025-10-18T12:54:04Z</time>
      </trkpt>
      <trkpt lat="43.22297" lon="5.47906">
        <ele>365.8</ele>
        <time>2025-10-18T12:54:05Z</time>
      </trkpt>
      <trkpt lat="43.22297" lon="5.47906">
        <ele>366</ele>
        <time>2025-10-18T12:54:06Z</time>
      </trkpt>
      <trkpt lat="43.22297" lon="5.47906">
        <ele>366.2</ele>
        <time>2025-10-18T12:54:07Z</time>
      </trkpt>
      <trkpt lat="43.22297" lon="5.47906">
        <ele>366.3</ele>
        <time>2025-10-18T12:54:08Z</time>
      </trkpt>
      <trkpt lat="43.22297" lon="5.47906">
        <ele>366.4</ele>
        <time>2025-10-18T12:54:09Z</time>
      </trkpt>
      <trkpt lat="43.22298" lon="5.47905">
        <ele>366.6</ele>
        <time>2025-10-18T12:54:10Z</time>
      </trkpt>
      <trkpt lat="43.22298" lon="5.47904">
        <ele>366.6</ele>
        <time>2025-10-18T12:54:11Z</time>
      </trkpt>
      <trkpt lat="43.22298" lon="5.47904">
        <ele>366.8</ele>
        <time>2025-10-18T12:54:12Z</time>
      </trkpt>
      <trkpt lat="43.22299" lon="5.47903">
        <ele>367</ele>
        <time>2025-10-18T12:54:13Z</time>
      </trkpt>
      <trkpt lat="43.22299" lon="5.47903">
        <ele>367.2</ele>
        <time>2025-10-18T12:54:14Z</time>
      </trkpt>
      <trkpt lat="43.22299" lon="5.47903">
        <ele>367.5</ele>
        <time>2025-10-18T12:54:15Z</time>
      </trkpt>
      <trkpt lat="43.22299" lon="5.47902">
        <ele>367.7</ele>
        <time>2025-10-18T12:54:16Z</time>
      </trkpt>
      <trkpt lat="43.22299" lon="5.47902">
        <ele>367.9</ele>
        <time>2025-10-18T12:54:17Z</time>
      </trkpt>
      <trkpt lat="43.22299" lon="5.47902">
        <ele>368.1</ele>
        <time>2025-10-18T12:54:18Z</time>
      </trkpt>
      <trkpt lat="43.22299" lon="5.47902">
        <ele>368.2</ele>
        <time>2025-10-18T12:54:19Z</time>
      </trkpt>
      <trkpt lat="43.22299" lon="5.47902">
        <ele>368.3</ele>
        <time>2025-10-18T12:54:20Z</time>
      </trkpt>
      <trkpt lat="43.22299" lon="5.47902">
        <ele>368.4</ele>
        <time>2025-10-18T12:54:21Z</time>
      </trkpt>
      <trkpt lat="43.22299" lon="5.47902">
        <ele>368.4</ele>
        <time>2025-10-18T12:54:22Z</time>
      </trkpt>
      <trkpt lat="43.22299" lon="5.47902">
        <ele>368.5</ele>
        <time>2025-10-18T12:54:23Z</time>
      </trkpt>
      <trkpt lat="43.22299" lon="5.47902">
        <ele>368.7</ele>
        <time>2025-10-18T12:54:24Z</time>
      </trkpt>
      <trkpt lat="43.22299" lon="5.47901">
        <ele>368.8</ele>
        <time>2025-10-18T12:54:25Z</time>
      </trkpt>
      <trkpt lat="43.22299" lon="5.47902">
        <ele>369</ele>
        <time>2025-10-18T12:54:26Z</time>
      </trkpt>
      <trkpt lat="43.22299" lon="5.47902">
        <ele>369.2</ele>
        <time>2025-10-18T12:54:27Z</time>
      </trkpt>
      <trkpt lat="43.223" lon="5.47902">
        <ele>369.4</ele>
        <time>2025-10-18T12:54:28Z</time>
      </trkpt>
      <trkpt lat="43.223" lon="5.47901">
        <ele>369.5</ele>
        <time>2025-10-18T12:54:29Z</time>
      </trkpt>
      <trkpt lat="43.223" lon="5.47902">
        <ele>369.7</ele>
        <time>2025-10-18T12:54:30Z</time>
      </trkpt>
      <trkpt lat="43.22301" lon="5.47902">
        <ele>370</ele>
        <time>2025-10-18T12:54:31Z</time>
      </trkpt>
      <trkpt lat="43.22301" lon="5.47902">
        <ele>370.1</ele>
        <time>2025-10-18T12:54:32Z</time>
      </trkpt>
      <trkpt lat="43.22301" lon="5.47901">
        <ele>370.4</ele>
        <time>2025-10-18T12:54:33Z</time>
      </trkpt>
      <trkpt lat="43.22301" lon="5.47901">
        <ele>370.5</ele>
        <time>2025-10-18T12:54:34Z</time>
      </trkpt>
      <trkpt lat="43.22301" lon="5.47901">
        <ele>370.8</ele>
        <time>2025-10-18T12:54:35Z</time>
      </trkpt>
      <trkpt lat="43.22302" lon="5.47901">
        <ele>371</ele>
        <time>2025-10-18T12:54:36Z</time>
      </trkpt>
      <trkpt lat="43.22302" lon="5.47901">
        <ele>371.2</ele>
        <time>2025-10-18T12:54:37Z</time>
      </trkpt>
      <trkpt lat="43.22302" lon="5.47901">
        <ele>371.3</ele>
        <time>2025-10-18T12:54:38Z</time>
      </trkpt>
      <trkpt lat="43.22302" lon="5.47901">
        <ele>371.5</ele>
        <time>2025-10-18T12:54:39Z</time>
      </trkpt>
      <trkpt lat="43.22302" lon="5.47901">
        <ele>371.7</ele>
        <time>2025-10-18T12:54:40Z</time>
      </trkpt>
      <trkpt lat="43.22303" lon="5.47901">
        <ele>372</ele>
        <time>2025-10-18T12:54:41Z</time>
      </trkpt>
      <trkpt lat="43.22303" lon="5.479">
        <ele>372.2</ele>
        <time>2025-10-18T12:54:42Z</time>
      </trkpt>
      <trkpt lat="43.22303" lon="5.479">
        <ele>372.4</ele>
        <time>2025-10-18T12:54:43Z</time>
      </trkpt>
      <trkpt lat="43.22304" lon="5.479">
        <ele>372.6</ele>
        <time>2025-10-18T12:54:44Z</time>
      </trkpt>
      <trkpt lat="43.22304" lon="5.47901">
        <ele>372.8</ele>
        <time>2025-10-18T12:54:45Z</time>
      </trkpt>
      <trkpt lat="43.22304" lon="5.479">
        <ele>373</ele>
        <time>2025-10-18T12:54:46Z</time>
      </trkpt>
      <trkpt lat="43.22304" lon="5.479">
        <ele>373.2</ele>
        <time>2025-10-18T12:54:47Z</time>
      </trkpt>
      <trkpt lat="43.22304" lon="5.479">
        <ele>373.3</ele>
        <time>2025-10-18T12:54:48Z</time>
      </trkpt>
      <trkpt lat="43.22304" lon="5.479">
        <ele>373.4</ele>
        <time>2025-10-18T12:54:49Z</time>
      </trkpt>
      <trkpt lat="43.22304" lon="5.479">
        <ele>373.5</ele>
        <time>2025-10-18T12:54:50Z</time>
      </trkpt>
      <trkpt lat="43.22304" lon="5.479">
        <ele>373.6</ele>
        <time>2025-10-18T12:54:51Z</time>
      </trkpt>
      <trkpt lat="43.22304" lon="5.479">
        <ele>373.8</ele>
        <time>2025-10-18T12:54:52Z</time>
      </trkpt>
      <trkpt lat="43.22304" lon="5.479">
        <ele>373.8</ele>
        <time>2025-10-18T12:54:53Z</time>
      </trkpt>
      <trkpt lat="43.22304" lon="5.47899">
        <ele>373.9</ele>
        <time>2025-10-18T12:54:54Z</time>
      </trkpt>
      <trkpt lat="43.22304" lon="5.47899">
        <ele>373.9</ele>
        <time>2025-10-18T12:54:55Z</time>
      </trkpt>
      <trkpt lat="43.22304" lon="5.47899">
        <ele>373.9</ele>
        <time>2025-10-18T12:54:56Z</time>
      </trkpt>
      <trkpt lat="43.22303" lon="5.47899">
        <ele>373.9</ele>
        <time>2025-10-18T12:54:57Z</time>
      </trkpt>
      <trkpt lat="43.22304" lon="5.47899">
        <ele>373.9</ele>
        <time>2025-10-18T12:54:58Z</time>
      </trkpt>
      <trkpt lat="43.22304" lon="5.479">
        <ele>373.9</ele>
        <time>2025-10-18T12:54:59Z</time>
      </trkpt>
      <trkpt lat="43.22304" lon="5.47899">
        <ele>373.9</ele>
        <time>2025-10-18T12:55:00Z</time>
      </trkpt>
      <trkpt lat="43.22305" lon="5.47899">
        <ele>374.1</ele>
        <time>2025-10-18T12:55:01Z</time>
      </trkpt>
      <trkpt lat="43.22305" lon="5.47899">
        <ele>374.2</ele>
        <time>2025-10-18T12:55:02Z</time>
      </trkpt>
      <trkpt lat="43.22305" lon="5.47898">
        <ele>374.3</ele>
        <time>2025-10-18T12:55:03Z</time>
      </trkpt>
      <trkpt lat="43.22305" lon="5.47898">
        <ele>374.4</ele>
        <time>2025-10-18T12:55:04Z</time>
      </trkpt>
      <trkpt lat="43.22305" lon="5.47898">
        <ele>374.5</ele>
        <time>2025-10-18T12:55:05Z</time>
      </trkpt>
      <trkpt lat="43.22306" lon="5.47898">
        <ele>374.7</ele>
        <time>2025-10-18T12:55:06Z</time>
      </trkpt>
      <trkpt lat="43.22306" lon="5.47899">
        <ele>374.8</ele>
        <time>2025-10-18T12:55:07Z</time>
      </trkpt>
      <trkpt lat="43.22307" lon="5.47899">
        <ele>375</ele>
        <time>2025-10-18T12:55:08Z</time>
      </trkpt>
      <trkpt lat="43.22307" lon="5.47898">
        <ele>375.2</ele>
        <time>2025-10-18T12:55:09Z</time>
      </trkpt>
      <trkpt lat="43.22307" lon="5.47897">
        <ele>375.4</ele>
        <time>2025-10-18T12:55:10Z</time>
      </trkpt>
      <trkpt lat="43.22307" lon="5.47897">
        <ele>375.5</ele>
        <time>2025-10-18T12:55:11Z</time>
      </trkpt>
      <trkpt lat="43.22307" lon="5.47897">
        <ele>375.7</ele>
        <time>2025-10-18T12:55:12Z</time>
      </trkpt>
      <trkpt lat="43.22307" lon="5.47897">
        <ele>375.8</ele>
        <time>2025-10-18T12:55:13Z</time>
      </trkpt>
      <trkpt lat="43.22307" lon="5.47897">
        <ele>375.8</ele>
        <time>2025-10-18T12:55:14Z</time>
      </trkpt>
      <trkpt lat="43.22307" lon="5.47898">
        <ele>375.8</ele>
        <time>2025-10-18T12:55:15Z</time>
      </trkpt>
      <trkpt lat="43.22307" lon="5.47899">
        <ele>375.9</ele>
        <time>2025-10-18T12:55:16Z</time>
      </trkpt>
      <trkpt lat="43.22307" lon="5.47899">
        <ele>376</ele>
        <time>2025-10-18T12:55:17Z</time>
      </trkpt>
      <trkpt lat="43.22308" lon="5.47899">
        <ele>376.1</ele>
        <time>2025-10-18T12:55:18Z</time>
      </trkpt>
      <trkpt lat="43.22308" lon="5.47899">
        <ele>376.2</ele>
        <time>2025-10-18T12:55:19Z</time>
      </trkpt>
      <trkpt lat="43.22308" lon="5.47899">
        <ele>376.3</ele>
        <time>2025-10-18T12:55:20Z</time>
      </trkpt>
      <trkpt lat="43.22309" lon="5.47899">
        <ele>376.3</ele>
        <time>2025-10-18T12:55:21Z</time>
      </trkpt>
      <trkpt lat="43.22309" lon="5.47899">
        <ele>376.5</ele>
        <time>2025-10-18T12:55:22Z</time>
      </trkpt>
      <trkpt lat="43.2231" lon="5.47899">
        <ele>376.7</ele>
        <time>2025-10-18T12:55:23Z</time>
      </trkpt>
      <trkpt lat="43.2231" lon="5.47898">
        <ele>376.9</ele>
        <time>2025-10-18T12:55:24Z</time>
      </trkpt>
      <trkpt lat="43.2231" lon="5.47898">
        <ele>377.1</ele>
        <time>2025-10-18T12:55:25Z</time>
      </trkpt>
      <trkpt lat="43.2231" lon="5.47898">
        <ele>377.3</ele>
        <time>2025-10-18T12:55:26Z</time>
      </trkpt>
      <trkpt lat="43.2231" lon="5.47898">
        <ele>377.5</ele>
        <time>2025-10-18T12:55:27Z</time>
      </trkpt>
      <trkpt lat="43.22311" lon="5.47898">
        <ele>377.6</ele>
        <time>2025-10-18T12:55:28Z</time>
      </trkpt>
      <trkpt lat="43.22311" lon="5.47897">
        <ele>377.8</ele>
        <time>2025-10-18T12:55:29Z</time>
      </trkpt>
      <trkpt lat="43.22311" lon="5.47897">
        <ele>377.9</ele>
        <time>2025-10-18T12:55:30Z</time>
      </trkpt>
      <trkpt lat="43.22311" lon="5.47898">
        <ele>378.1</ele>
        <time>2025-10-18T12:55:31Z</time>
      </trkpt>
      <trkpt lat="43.22311" lon="5.47898">
        <ele>378.1</ele>
        <time>2025-10-18T12:55:32Z</time>
      </trkpt>
      <trkpt lat="43.22311" lon="5.47898">
        <ele>378.2</ele>
        <time>2025-10-18T12:55:33Z</time>
      </trkpt>
      <trkpt lat="43.22311" lon="5.47898">
        <ele>378.2</ele>
        <time>2025-10-18T12:55:34Z</time>
      </trkpt>
      <trkpt lat="43.22312" lon="5.47899">
        <ele>378.4</ele>
        <time>2025-10-18T12:55:35Z</time>
      </trkpt>
      <trkpt lat="43.22312" lon="5.47899">
        <ele>378.6</ele>
        <time>2025-10-18T12:55:36Z</time>
      </trkpt>
      <trkpt lat="43.22313" lon="5.47899">
        <ele>378.7</ele>
        <time>2025-10-18T12:55:37Z</time>
      </trkpt>
      <trkpt lat="43.22313" lon="5.47899">
        <ele>378.8</ele>
        <time>2025-10-18T12:55:38Z</time>
      </trkpt>
      <trkpt lat="43.22313" lon="5.47899">
        <ele>378.9</ele>
        <time>2025-10-18T12:55:39Z</time>
      </trkpt>
      <trkpt lat="43.22313" lon="5.47899">
        <ele>379.1</ele>
        <time>2025-10-18T12:55:40Z</time>
      </trkpt>
      <trkpt lat="43.22313" lon="5.47899">
        <ele>379.2</ele>
        <time>2025-10-18T12:55:41Z</time>
      </trkpt>
      <trkpt lat="43.22313" lon="5.47899">
        <ele>379.4</ele>
        <time>2025-10-18T12:55:42Z</time>
      </trkpt>
      <trkpt lat="43.22313" lon="5.47899">
        <ele>379.5</ele>
        <time>2025-10-18T12:55:43Z</time>
      </trkpt>
      <trkpt lat="43.22313" lon="5.47899">
        <ele>379.6</ele>
        <time>2025-10-18T12:55:44Z</time>
      </trkpt>
      <trkpt lat="43.22314" lon="5.47899">
        <ele>379.7</ele>
        <time>2025-10-18T12:55:45Z</time>
      </trkpt>
      <trkpt lat="43.22314" lon="5.47899">
        <ele>379.8</ele>
        <time>2025-10-18T12:55:46Z</time>
      </trkpt>
      <trkpt lat="43.22314" lon="5.47899">
        <ele>379.8</ele>
        <time>2025-10-18T12:55:47Z</time>
      </trkpt>
      <trkpt lat="43.22314" lon="5.47899">
        <ele>379.9</ele>
        <time>2025-10-18T12:55:48Z</time>
      </trkpt>
      <trkpt lat="43.22314" lon="5.47899">
        <ele>379.9</ele>
        <time>2025-10-18T12:55:49Z</time>
      </trkpt>
      <trkpt lat="43.22314" lon="5.47899">
        <ele>379.8</ele>
        <time>2025-10-18T12:55:50Z</time>
      </trkpt>
      <trkpt lat="43.22314" lon="5.47899">
        <ele>379.8</ele>
        <time>2025-10-18T12:55:51Z</time>
      </trkpt>
      <trkpt lat="43.22314" lon="5.47898">
        <ele>379.8</ele>
        <time>2025-10-18T12:55:52Z</time>
      </trkpt>
      <trkpt lat="43.22314" lon="5.47898">
        <ele>379.9</ele>
        <time>2025-10-18T12:55:53Z</time>
      </trkpt>
      <trkpt lat="43.22314" lon="5.47897">
        <ele>380.1</ele>
        <time>2025-10-18T12:55:54Z</time>
      </trkpt>
      <trkpt lat="43.22314" lon="5.47896">
        <ele>380.2</ele>
        <time>2025-10-18T12:55:55Z</time>
      </trkpt>
      <trkpt lat="43.22315" lon="5.47896">
        <ele>380.2</ele>
        <time>2025-10-18T12:55:56Z</time>
      </trkpt>
      <trkpt lat="43.22315" lon="5.47896">
        <ele>380.4</ele>
        <time>2025-10-18T12:55:57Z</time>
      </trkpt>
      <trkpt lat="43.22315" lon="5.47896">
        <ele>380.5</ele>
        <time>2025-10-18T12:55:58Z</time>
      </trkpt>
      <trkpt lat="43.22315" lon="5.47896">
        <ele>380.6</ele>
        <time>2025-10-18T12:55:59Z</time>
      </trkpt>
      <trkpt lat="43.22315" lon="5.47896">
        <ele>380.9</ele>
        <time>2025-10-18T12:56:00Z</time>
      </trkpt>
      <trkpt lat="43.22316" lon="5.47897">
        <ele>381.2</ele>
        <time>2025-10-18T12:56:01Z</time>
      </trkpt>
      <trkpt lat="43.22316" lon="5.47897">
        <ele>381.3</ele>
        <time>2025-10-18T12:56:02Z</time>
      </trkpt>
      <trkpt lat="43.22316" lon="5.47896">
        <ele>381.5</ele>
        <time>2025-10-18T12:56:03Z</time>
      </trkpt>
      <trkpt lat="43.22317" lon="5.47896">
        <ele>381.7</ele>
        <time>2025-10-18T12:56:04Z</time>
      </trkpt>
      <trkpt lat="43.22317" lon="5.47896">
        <ele>381.9</ele>
        <time>2025-10-18T12:56:05Z</time>
      </trkpt>
      <trkpt lat="43.22317" lon="5.47896">
        <ele>382</ele>
        <time>2025-10-18T12:56:06Z</time>
      </trkpt>
      <trkpt lat="43.22317" lon="5.47896">
        <ele>382.1</ele>
        <time>2025-10-18T12:56:07Z</time>
      </trkpt>
      <trkpt lat="43.22317" lon="5.47895">
        <ele>382.2</ele>
        <time>2025-10-18T12:56:08Z</time>
      </trkpt>
      <trkpt lat="43.22318" lon="5.47895">
        <ele>382.2</ele>
        <time>2025-10-18T12:56:09Z</time>
      </trkpt>
      <trkpt lat="43.22318" lon="5.47894">
        <ele>382.4</ele>
        <time>2025-10-18T12:56:10Z</time>
      </trkpt>
      <trkpt lat="43.22318" lon="5.47894">
        <ele>382.4</ele>
        <time>2025-10-18T12:56:11Z</time>
      </trkpt>
      <trkpt lat="43.22318" lon="5.47894">
        <ele>382.6</ele>
        <time>2025-10-18T12:56:12Z</time>
      </trkpt>
      <trkpt lat="43.22318" lon="5.47893">
        <ele>382.7</ele>
        <time>2025-10-18T12:56:13Z</time>
      </trkpt>
      <trkpt lat="43.22319" lon="5.47893">
        <ele>382.8</ele>
        <time>2025-10-18T12:56:14Z</time>
      </trkpt>
      <trkpt lat="43.22318" lon="5.47893">
        <ele>382.9</ele>
        <time>2025-10-18T12:56:15Z</time>
      </trkpt>
      <trkpt lat="43.22318" lon="5.47893">
        <ele>383</ele>
        <time>2025-10-18T12:56:16Z</time>
      </trkpt>
      <trkpt lat="43.22318" lon="5.47893">
        <ele>383</ele>
        <time>2025-10-18T12:56:17Z</time>
      </trkpt>
      <trkpt lat="43.22319" lon="5.47893">
        <ele>383.2</ele>
        <time>2025-10-18T12:56:18Z</time>
      </trkpt>
      <trkpt lat="43.22319" lon="5.47893">
        <ele>383.4</ele>
        <time>2025-10-18T12:56:19Z</time>
      </trkpt>
      <trkpt lat="43.22319" lon="5.47892">
        <ele>383.5</ele>
        <time>2025-10-18T12:56:20Z</time>
      </trkpt>
      <trkpt lat="43.22319" lon="5.47892">
        <ele>383.7</ele>
        <time>2025-10-18T12:56:21Z</time>
      </trkpt>
      <trkpt lat="43.2232" lon="5.47892">
        <ele>383.8</ele>
        <time>2025-10-18T12:56:22Z</time>
      </trkpt>
      <trkpt lat="43.2232" lon="5.47892">
        <ele>384.1</ele>
        <time>2025-10-18T12:56:23Z</time>
      </trkpt>
      <trkpt lat="43.2232" lon="5.47891">
        <ele>384.2</ele>
        <time>2025-10-18T12:56:24Z</time>
      </trkpt>
      <trkpt lat="43.22321" lon="5.47892">
        <ele>384.5</ele>
        <time>2025-10-18T12:56:25Z</time>
      </trkpt>
      <trkpt lat="43.22321" lon="5.47892">
        <ele>384.8</ele>
        <time>2025-10-18T12:56:26Z</time>
      </trkpt>
      <trkpt lat="43.22321" lon="5.47892">
        <ele>384.9</ele>
        <time>2025-10-18T12:56:27Z</time>
      </trkpt>
      <trkpt lat="43.22321" lon="5.47892">
        <ele>385.1</ele>
        <time>2025-10-18T12:56:28Z</time>
      </trkpt>
      <trkpt lat="43.22321" lon="5.47892">
        <ele>385.1</ele>
        <time>2025-10-18T12:56:29Z</time>
      </trkpt>
      <trkpt lat="43.22321" lon="5.47891">
        <ele>385.3</ele>
        <time>2025-10-18T12:56:30Z</time>
      </trkpt>
      <trkpt lat="43.22322" lon="5.47891">
        <ele>385.4</ele>
        <time>2025-10-18T12:56:31Z</time>
      </trkpt>
      <trkpt lat="43.22322" lon="5.4789">
        <ele>385.6</ele>
        <time>2025-10-18T12:56:32Z</time>
      </trkpt>
      <trkpt lat="43.22322" lon="5.4789">
        <ele>385.8</ele>
        <time>2025-10-18T12:56:33Z</time>
      </trkpt>
      <trkpt lat="43.22322" lon="5.47889">
        <ele>386.1</ele>
        <time>2025-10-18T12:56:34Z</time>
      </trkpt>
      <trkpt lat="43.22322" lon="5.47889">
        <ele>386.2</ele>
        <time>2025-10-18T12:56:35Z</time>
      </trkpt>
      <trkpt lat="43.22322" lon="5.47889">
        <ele>386.3</ele>
        <time>2025-10-18T12:56:36Z</time>
      </trkpt>
      <trkpt lat="43.22323" lon="5.47889">
        <ele>386.3</ele>
        <time>2025-10-18T12:56:37Z</time>
      </trkpt>
      <trkpt lat="43.22323" lon="5.47889">
        <ele>386.4</ele>
        <time>2025-10-18T12:56:38Z</time>
      </trkpt>
      <trkpt lat="43.22323" lon="5.47889">
        <ele>386.4</ele>
        <time>2025-10-18T12:56:39Z</time>
      </trkpt>
      <trkpt lat="43.22323" lon="5.47889">
        <ele>386.4</ele>
        <time>2025-10-18T12:56:40Z</time>
      </trkpt>
      <trkpt lat="43.22323" lon="5.47889">
        <ele>386.4</ele>
        <time>2025-10-18T12:56:41Z</time>
      </trkpt>
      <trkpt lat="43.22323" lon="5.47889">
        <ele>386.5</ele>
        <time>2025-10-18T12:56:42Z</time>
      </trkpt>
      <trkpt lat="43.22323" lon="5.47888">
        <ele>386.5</ele>
        <time>2025-10-18T12:56:43Z</time>
      </trkpt>
      <trkpt lat="43.22323" lon="5.47888">
        <ele>386.6</ele>
        <time>2025-10-18T12:56:44Z</time>
      </trkpt>
      <trkpt lat="43.22323" lon="5.47888">
        <ele>386.6</ele>
        <time>2025-10-18T12:56:45Z</time>
      </trkpt>
      <trkpt lat="43.22323" lon="5.47888">
        <ele>386.7</ele>
        <time>2025-10-18T12:56:46Z</time>
      </trkpt>
      <trkpt lat="43.22324" lon="5.47888">
        <ele>386.7</ele>
        <time>2025-10-18T12:56:47Z</time>
      </trkpt>
      <trkpt lat="43.22324" lon="5.47888">
        <ele>386.6</ele>
        <time>2025-10-18T12:56:48Z</time>
      </trkpt>
      <trkpt lat="43.22324" lon="5.47888">
        <ele>386.7</ele>
        <time>2025-10-18T12:56:49Z</time>
      </trkpt>
      <trkpt lat="43.22324" lon="5.47888">
        <ele>386.8</ele>
        <time>2025-10-18T12:56:50Z</time>
      </trkpt>
      <trkpt lat="43.22324" lon="5.47888">
        <ele>386.7</ele>
        <time>2025-10-18T12:56:51Z</time>
      </trkpt>
      <trkpt lat="43.22324" lon="5.47888">
        <ele>386.7</ele>
        <time>2025-10-18T12:56:52Z</time>
      </trkpt>
      <trkpt lat="43.22324" lon="5.47888">
        <ele>386.7</ele>
        <time>2025-10-18T12:56:53Z</time>
      </trkpt>
      <trkpt lat="43.22324" lon="5.47889">
        <ele>386.7</ele>
        <time>2025-10-18T12:56:54Z</time>
      </trkpt>
      <trkpt lat="43.22324" lon="5.47889">
        <ele>386.7</ele>
        <time>2025-10-18T12:56:55Z</time>
      </trkpt>
      <trkpt lat="43.22324" lon="5.47889">
        <ele>386.7</ele>
        <time>2025-10-18T12:56:56Z</time>
      </trkpt>
      <trkpt lat="43.22324" lon="5.47889">
        <ele>386.7</ele>
        <time>2025-10-18T12:56:57Z</time>
      </trkpt>
      <trkpt lat="43.22324" lon="5.47889">
        <ele>386.7</ele>
        <time>2025-10-18T12:56:58Z</time>
      </trkpt>
      <trkpt lat="43.22324" lon="5.47889">
        <ele>386.7</ele>
        <time>2025-10-18T12:56:59Z</time>
      </trkpt>
      <trkpt lat="43.22325" lon="5.47889">
        <ele>386.6</ele>
        <time>2025-10-18T12:57:00Z</time>
      </trkpt>
      <trkpt lat="43.22325" lon="5.47889">
        <ele>386.6</ele>
        <time>2025-10-18T12:57:01Z</time>
      </trkpt>
      <trkpt lat="43.22325" lon="5.47888">
        <ele>386.6</ele>
        <time>2025-10-18T12:57:02Z</time>
      </trkpt>
      <trkpt lat="43.22325" lon="5.47889">
        <ele>386.6</ele>
        <time>2025-10-18T12:57:03Z</time>
      </trkpt>
      <trkpt lat="43.22325" lon="5.47889">
        <ele>386.6</ele>
        <time>2025-10-18T12:57:04Z</time>
      </trkpt>
      <trkpt lat="43.22325" lon="5.47889">
        <ele>386.6</ele>
        <time>2025-10-18T12:57:05Z</time>
      </trkpt>
      <trkpt lat="43.22325" lon="5.47888">
        <ele>386.6</ele>
        <time>2025-10-18T12:57:06Z</time>
      </trkpt>
      <trkpt lat="43.22325" lon="5.47888">
        <ele>386.6</ele>
        <time>2025-10-18T12:57:07Z</time>
      </trkpt>
      <trkpt lat="43.22325" lon="5.47888">
        <ele>386.6</ele>
        <time>2025-10-18T12:57:08Z</time>
      </trkpt>
      <trkpt lat="43.22325" lon="5.47888">
        <ele>386.5</ele>
        <time>2025-10-18T12:57:09Z</time>
      </trkpt>
      <trkpt lat="43.22325" lon="5.47888">
        <ele>386.4</ele>
        <time>2025-10-18T12:57:10Z</time>
      </trkpt>
      <trkpt lat="43.22324" lon="5.47888">
        <ele>386.4</ele>
        <time>2025-10-18T12:57:11Z</time>
      </trkpt>
      <trkpt lat="43.22325" lon="5.47888">
        <ele>386.4</ele>
        <time>2025-10-18T12:57:12Z</time>
      </trkpt>
      <trkpt lat="43.22325" lon="5.47888">
        <ele>386.3</ele>
        <time>2025-10-18T12:57:13Z</time>
      </trkpt>
      <trkpt lat="43.22325" lon="5.47888">
        <ele>386.4</ele>
        <time>2025-10-18T12:57:14Z</time>
      </trkpt>
      <trkpt lat="43.22325" lon="5.47888">
        <ele>386.4</ele>
        <time>2025-10-18T12:57:15Z</time>
      </trkpt>
      <trkpt lat="43.22325" lon="5.47888">
        <ele>386.4</ele>
        <time>2025-10-18T12:57:16Z</time>
      </trkpt>
      <trkpt lat="43.22324" lon="5.47888">
        <ele>386.4</ele>
        <time>2025-10-18T12:57:17Z</time>
      </trkpt>
      <trkpt lat="43.22324" lon="5.47888">
        <ele>386.4</ele>
        <time>2025-10-18T12:57:18Z</time>
      </trkpt>
      <trkpt lat="43.22325" lon="5.47887">
        <ele>386.4</ele>
        <time>2025-10-18T12:57:19Z</time>
      </trkpt>
      <trkpt lat="43.22325" lon="5.47887">
        <ele>386.4</ele>
        <time>2025-10-18T12:57:20Z</time>
      </trkpt>
      <trkpt lat="43.22325" lon="5.47887">
        <ele>386.5</ele>
        <time>2025-10-18T12:57:21Z</time>
      </trkpt>
      <trkpt lat="43.22325" lon="5.47887">
        <ele>386.5</ele>
        <time>2025-10-18T12:57:22Z</time>
      </trkpt>
      <trkpt lat="43.22325" lon="5.47887">
        <ele>386.5</ele>
        <time>2025-10-18T12:57:23Z</time>
      </trkpt>
      <trkpt lat="43.22325" lon="5.47887">
        <ele>386.5</ele>
        <time>2025-10-18T12:57:24Z</time>
      </trkpt>
      <trkpt lat="43.22325" lon="5.47887">
        <ele>386.5</ele>
        <time>2025-10-18T12:57:25Z</time>
      </trkpt>
      <trkpt lat="43.22325" lon="5.47887">
        <ele>386.5</ele>
        <time>2025-10-18T12:57:26Z</time>
      </trkpt>
      <trkpt lat="43.22325" lon="5.47887">
        <ele>386.6</ele>
        <time>2025-10-18T12:57:27Z</time>
      </trkpt>
      <trkpt lat="43.22325" lon="5.47887">
        <ele>386.5</ele>
        <time>2025-10-18T12:57:28Z</time>
      </trkpt>
      <trkpt lat="43.22325" lon="5.47887">
        <ele>386.5</ele>
        <time>2025-10-18T12:57:29Z</time>
      </trkpt>
      <trkpt lat="43.22325" lon="5.47887">
        <ele>386.5</ele>
        <time>2025-10-18T12:57:30Z</time>
      </trkpt>
      <trkpt lat="43.22325" lon="5.47888">
        <ele>386.6</ele>
        <time>2025-10-18T12:57:31Z</time>
      </trkpt>
      <trkpt lat="43.22325" lon="5.47888">
        <ele>386.6</ele>
        <time>2025-10-18T12:57:32Z</time>
      </trkpt>
      <trkpt lat="43.22325" lon="5.47888">
        <ele>386.6</ele>
        <time>2025-10-18T12:57:33Z</time>
      </trkpt>
      <trkpt lat="43.22325" lon="5.47887">
        <ele>386.7</ele>
        <time>2025-10-18T12:57:34Z</time>
      </trkpt>
      <trkpt lat="43.22325" lon="5.47887">
        <ele>386.7</ele>
        <time>2025-10-18T12:57:35Z</time>
      </trkpt>
      <trkpt lat="43.22325" lon="5.47887">
        <ele>386.7</ele>
        <time>2025-10-18T12:57:36Z</time>
      </trkpt>
      <trkpt lat="43.22325" lon="5.47887">
        <ele>386.7</ele>
        <time>2025-10-18T12:57:37Z</time>
      </trkpt>
      <trkpt lat="43.22325" lon="5.47887">
        <ele>386.8</ele>
        <time>2025-10-18T12:57:38Z</time>
      </trkpt>
      <trkpt lat="43.22325" lon="5.47887">
        <ele>386.7</ele>
        <time>2025-10-18T12:57:39Z</time>
      </trkpt>
      <trkpt lat="43.22325" lon="5.47887">
        <ele>386.7</ele>
        <time>2025-10-18T12:57:40Z</time>
      </trkpt>
      <trkpt lat="43.22326" lon="5.47888">
        <ele>386.7</ele>
        <time>2025-10-18T12:57:41Z</time>
      </trkpt>
      <trkpt lat="43.22326" lon="5.47888">
        <ele>386.7</ele>
        <time>2025-10-18T12:57:42Z</time>
      </trkpt>
      <trkpt lat="43.22326" lon="5.47889">
        <ele>386.9</ele>
        <time>2025-10-18T12:57:43Z</time>
      </trkpt>
      <trkpt lat="43.22327" lon="5.47889">
        <ele>387</ele>
        <time>2025-10-18T12:57:44Z</time>
      </trkpt>
      <trkpt lat="43.22327" lon="5.47889">
        <ele>387.2</ele>
        <time>2025-10-18T12:57:45Z</time>
      </trkpt>
      <trkpt lat="43.22327" lon="5.47889">
        <ele>387.3</ele>
        <time>2025-10-18T12:57:46Z</time>
      </trkpt>
      <trkpt lat="43.22327" lon="5.4789">
        <ele>387.3</ele>
        <time>2025-10-18T12:57:47Z</time>
      </trkpt>
      <trkpt lat="43.22328" lon="5.4789">
        <ele>387.4</ele>
        <time>2025-10-18T12:57:48Z</time>
      </trkpt>
      <trkpt lat="43.22328" lon="5.47891">
        <ele>387.6</ele>
        <time>2025-10-18T12:57:49Z</time>
      </trkpt>
      <trkpt lat="43.22328" lon="5.47891">
        <ele>387.7</ele>
        <time>2025-10-18T12:57:50Z</time>
      </trkpt>
      <trkpt lat="43.22328" lon="5.47891">
        <ele>387.8</ele>
        <time>2025-10-18T12:57:51Z</time>
      </trkpt>
      <trkpt lat="43.22328" lon="5.47891">
        <ele>387.9</ele>
        <time>2025-10-18T12:57:52Z</time>
      </trkpt>
      <trkpt lat="43.22328" lon="5.47891">
        <ele>388.1</ele>
        <time>2025-10-18T12:57:53Z</time>
      </trkpt>
      <trkpt lat="43.22328" lon="5.47891">
        <ele>388.2</ele>
        <time>2025-10-18T12:57:54Z</time>
      </trkpt>
      <trkpt lat="43.22329" lon="5.47891">
        <ele>388.4</ele>
        <time>2025-10-18T12:57:55Z</time>
      </trkpt>
      <trkpt lat="43.22329" lon="5.47891">
        <ele>388.6</ele>
        <time>2025-10-18T12:57:56Z</time>
      </trkpt>
      <trkpt lat="43.22329" lon="5.47892">
        <ele>388.8</ele>
        <time>2025-10-18T12:57:57Z</time>
      </trkpt>
      <trkpt lat="43.22329" lon="5.47891">
        <ele>388.9</ele>
        <time>2025-10-18T12:57:58Z</time>
      </trkpt>
      <trkpt lat="43.22329" lon="5.47891">
        <ele>389</ele>
        <time>2025-10-18T12:57:59Z</time>
      </trkpt>
      <trkpt lat="43.22329" lon="5.4789">
        <ele>389.2</ele>
        <time>2025-10-18T12:58:00Z</time>
      </trkpt>
      <trkpt lat="43.22329" lon="5.4789">
        <ele>389.4</ele>
        <time>2025-10-18T12:58:01Z</time>
      </trkpt>
      <trkpt lat="43.22329" lon="5.4789">
        <ele>389.6</ele>
        <time>2025-10-18T12:58:02Z</time>
      </trkpt>
      <trkpt lat="43.22329" lon="5.4789">
        <ele>389.8</ele>
        <time>2025-10-18T12:58:03Z</time>
      </trkpt>
      <trkpt lat="43.2233" lon="5.47889">
        <ele>389.9</ele>
        <time>2025-10-18T12:58:04Z</time>
      </trkpt>
      <trkpt lat="43.2233" lon="5.47889">
        <ele>390</ele>
        <time>2025-10-18T12:58:05Z</time>
      </trkpt>
      <trkpt lat="43.2233" lon="5.47889">
        <ele>390.2</ele>
        <time>2025-10-18T12:58:06Z</time>
      </trkpt>
      <trkpt lat="43.2233" lon="5.4789">
        <ele>390.2</ele>
        <time>2025-10-18T12:58:07Z</time>
      </trkpt>
      <trkpt lat="43.2233" lon="5.47889">
        <ele>390.3</ele>
        <time>2025-10-18T12:58:08Z</time>
      </trkpt>
      <trkpt lat="43.22331" lon="5.47889">
        <ele>390.5</ele>
        <time>2025-10-18T12:58:09Z</time>
      </trkpt>
      <trkpt lat="43.22331" lon="5.47889">
        <ele>390.6</ele>
        <time>2025-10-18T12:58:10Z</time>
      </trkpt>
      <trkpt lat="43.22331" lon="5.47888">
        <ele>390.8</ele>
        <time>2025-10-18T12:58:11Z</time>
      </trkpt>
      <trkpt lat="43.22332" lon="5.47888">
        <ele>390.9</ele>
        <time>2025-10-18T12:58:12Z</time>
      </trkpt>
      <trkpt lat="43.22332" lon="5.47888">
        <ele>391.2</ele>
        <time>2025-10-18T12:58:13Z</time>
      </trkpt>
      <trkpt lat="43.22332" lon="5.47887">
        <ele>391.4</ele>
        <time>2025-10-18T12:58:14Z</time>
      </trkpt>
      <trkpt lat="43.22333" lon="5.47888">
        <ele>391.7</ele>
        <time>2025-10-18T12:58:15Z</time>
      </trkpt>
      <trkpt lat="43.22333" lon="5.47887">
        <ele>391.9</ele>
        <time>2025-10-18T12:58:16Z</time>
      </trkpt>
      <trkpt lat="43.22333" lon="5.47887">
        <ele>392.2</ele>
        <time>2025-10-18T12:58:17Z</time>
      </trkpt>
      <trkpt lat="43.22333" lon="5.47888">
        <ele>392.4</ele>
        <time>2025-10-18T12:58:18Z</time>
      </trkpt>
      <trkpt lat="43.22333" lon="5.47889">
        <ele>392.5</ele>
        <time>2025-10-18T12:58:19Z</time>
      </trkpt>
      <trkpt lat="43.22333" lon="5.47889">
        <ele>392.6</ele>
        <time>2025-10-18T12:58:20Z</time>
      </trkpt>
      <trkpt lat="43.22333" lon="5.4789">
        <ele>392.8</ele>
        <time>2025-10-18T12:58:21Z</time>
      </trkpt>
      <trkpt lat="43.22333" lon="5.47891">
        <ele>392.9</ele>
        <time>2025-10-18T12:58:22Z</time>
      </trkpt>
      <trkpt lat="43.22333" lon="5.47891">
        <ele>393.1</ele>
        <time>2025-10-18T12:58:23Z</time>
      </trkpt>
      <trkpt lat="43.22333" lon="5.47891">
        <ele>393.2</ele>
        <time>2025-10-18T12:58:24Z</time>
      </trkpt>
      <trkpt lat="43.22333" lon="5.47891">
        <ele>393.3</ele>
        <time>2025-10-18T12:58:25Z</time>
      </trkpt>
      <trkpt lat="43.22333" lon="5.47891">
        <ele>393.4</ele>
        <time>2025-10-18T12:58:26Z</time>
      </trkpt>
      <trkpt lat="43.22334" lon="5.47892">
        <ele>393.5</ele>
        <time>2025-10-18T12:58:27Z</time>
      </trkpt>
      <trkpt lat="43.22334" lon="5.47892">
        <ele>393.6</ele>
        <time>2025-10-18T12:58:28Z</time>
      </trkpt>
      <trkpt lat="43.22334" lon="5.47892">
        <ele>393.7</ele>
        <time>2025-10-18T12:58:29Z</time>
      </trkpt>
      <trkpt lat="43.22335" lon="5.47892">
        <ele>393.8</ele>
        <time>2025-10-18T12:58:30Z</time>
      </trkpt>
      <trkpt lat="43.22335" lon="5.47892">
        <ele>393.9</ele>
        <time>2025-10-18T12:58:31Z</time>
      </trkpt>
      <trkpt lat="43.22335" lon="5.47892">
        <ele>394</ele>
        <time>2025-10-18T12:58:32Z</time>
      </trkpt>
      <trkpt lat="43.22335" lon="5.47892">
        <ele>394</ele>
        <time>2025-10-18T12:58:33Z</time>
      </trkpt>
      <trkpt lat="43.22334" lon="5.47892">
        <ele>394.1</ele>
        <time>2025-10-18T12:58:34Z</time>
      </trkpt>
      <trkpt lat="43.22334" lon="5.47892">
        <ele>394.1</ele>
        <time>2025-10-18T12:58:35Z</time>
      </trkpt>
      <trkpt lat="43.22334" lon="5.47892">
        <ele>394.1</ele>
        <time>2025-10-18T12:58:36Z</time>
      </trkpt>
      <trkpt lat="43.22334" lon="5.47892">
        <ele>394.2</ele>
        <time>2025-10-18T12:58:37Z</time>
      </trkpt>
      <trkpt lat="43.22334" lon="5.47892">
        <ele>394.3</ele>
        <time>2025-10-18T12:58:38Z</time>
      </trkpt>
      <trkpt lat="43.22334" lon="5.47892">
        <ele>394.3</ele>
        <time>2025-10-18T12:58:39Z</time>
      </trkpt>
      <trkpt lat="43.22334" lon="5.47893">
        <ele>394.3</ele>
        <time>2025-10-18T12:58:40Z</time>
      </trkpt>
      <trkpt lat="43.22334" lon="5.47893">
        <ele>394.3</ele>
        <time>2025-10-18T12:58:41Z</time>
      </trkpt>
      <trkpt lat="43.22334" lon="5.47893">
        <ele>394.4</ele>
        <time>2025-10-18T12:58:42Z</time>
      </trkpt>
      <trkpt lat="43.22334" lon="5.47894">
        <ele>394.4</ele>
        <time>2025-10-18T12:58:43Z</time>
      </trkpt>
      <trkpt lat="43.22335" lon="5.47894">
        <ele>394.5</ele>
        <time>2025-10-18T12:58:44Z</time>
      </trkpt>
      <trkpt lat="43.22335" lon="5.47895">
        <ele>394.5</ele>
        <time>2025-10-18T12:58:45Z</time>
      </trkpt>
      <trkpt lat="43.22336" lon="5.47895">
        <ele>394.6</ele>
        <time>2025-10-18T12:58:46Z</time>
      </trkpt>
      <trkpt lat="43.22336" lon="5.47896">
        <ele>394.7</ele>
        <time>2025-10-18T12:58:47Z</time>
      </trkpt>
      <trkpt lat="43.22336" lon="5.47897">
        <ele>394.8</ele>
        <time>2025-10-18T12:58:48Z</time>
      </trkpt>
      <trkpt lat="43.22337" lon="5.47898">
        <ele>394.9</ele>
        <time>2025-10-18T12:58:49Z</time>
      </trkpt>
      <trkpt lat="43.22337" lon="5.47899">
        <ele>395.1</ele>
        <time>2025-10-18T12:58:50Z</time>
      </trkpt>
      <trkpt lat="43.22337" lon="5.479">
        <ele>395.3</ele>
        <time>2025-10-18T12:58:51Z</time>
      </trkpt>
      <trkpt lat="43.22337" lon="5.479">
        <ele>395.5</ele>
        <time>2025-10-18T12:58:52Z</time>
      </trkpt>
      <trkpt lat="43.22337" lon="5.47901">
        <ele>395.6</ele>
        <time>2025-10-18T12:58:53Z</time>
      </trkpt>
      <trkpt lat="43.22337" lon="5.479">
        <ele>395.7</ele>
        <time>2025-10-18T12:58:54Z</time>
      </trkpt>
      <trkpt lat="43.22337" lon="5.479">
        <ele>395.9</ele>
        <time>2025-10-18T12:58:55Z</time>
      </trkpt>
      <trkpt lat="43.22337" lon="5.479">
        <ele>395.9</ele>
        <time>2025-10-18T12:58:56Z</time>
      </trkpt>
      <trkpt lat="43.22337" lon="5.47901">
        <ele>396</ele>
        <time>2025-10-18T12:58:57Z</time>
      </trkpt>
      <trkpt lat="43.22337" lon="5.47901">
        <ele>396</ele>
        <time>2025-10-18T12:58:58Z</time>
      </trkpt>
      <trkpt lat="43.22337" lon="5.47901">
        <ele>396</ele>
        <time>2025-10-18T12:58:59Z</time>
      </trkpt>
      <trkpt lat="43.22337" lon="5.47901">
        <ele>396</ele>
        <time>2025-10-18T12:59:00Z</time>
      </trkpt>
      <trkpt lat="43.22337" lon="5.47902">
        <ele>395.9</ele>
        <time>2025-10-18T12:59:01Z</time>
      </trkpt>
      <trkpt lat="43.22337" lon="5.47902">
        <ele>395.9</ele>
        <time>2025-10-18T12:59:02Z</time>
      </trkpt>
      <trkpt lat="43.22337" lon="5.47903">
        <ele>395.8</ele>
        <time>2025-10-18T12:59:03Z</time>
      </trkpt>
      <trkpt lat="43.22337" lon="5.47903">
        <ele>395.9</ele>
        <time>2025-10-18T12:59:04Z</time>
      </trkpt>
      <trkpt lat="43.22337" lon="5.47904">
        <ele>395.9</ele>
        <time>2025-10-18T12:59:05Z</time>
      </trkpt>
      <trkpt lat="43.22337" lon="5.47906">
        <ele>396</ele>
        <time>2025-10-18T12:59:06Z</time>
      </trkpt>
      <trkpt lat="43.22337" lon="5.47907">
        <ele>396</ele>
        <time>2025-10-18T12:59:07Z</time>
      </trkpt>
      <trkpt lat="43.22337" lon="5.47908">
        <ele>396</ele>
        <time>2025-10-18T12:59:08Z</time>
      </trkpt>
      <trkpt lat="43.22338" lon="5.47909">
        <ele>396.2</ele>
        <time>2025-10-18T12:59:09Z</time>
      </trkpt>
      <trkpt lat="43.22338" lon="5.4791">
        <ele>396.3</ele>
        <time>2025-10-18T12:59:10Z</time>
      </trkpt>
      <trkpt lat="43.22338" lon="5.4791">
        <ele>396.5</ele>
        <time>2025-10-18T12:59:11Z</time>
      </trkpt>
      <trkpt lat="43.22338" lon="5.47911">
        <ele>396.7</ele>
        <time>2025-10-18T12:59:12Z</time>
      </trkpt>
      <trkpt lat="43.22338" lon="5.47911">
        <ele>396.9</ele>
        <time>2025-10-18T12:59:13Z</time>
      </trkpt>
      <trkpt lat="43.22339" lon="5.47911">
        <ele>397.1</ele>
        <time>2025-10-18T12:59:14Z</time>
      </trkpt>
      <trkpt lat="43.22339" lon="5.47912">
        <ele>397.1</ele>
        <time>2025-10-18T12:59:15Z</time>
      </trkpt>
      <trkpt lat="43.22339" lon="5.47913">
        <ele>397.3</ele>
        <time>2025-10-18T12:59:16Z</time>
      </trkpt>
      <trkpt lat="43.22339" lon="5.47914">
        <ele>397.4</ele>
        <time>2025-10-18T12:59:17Z</time>
      </trkpt>
      <trkpt lat="43.2234" lon="5.47915">
        <ele>397.4</ele>
        <time>2025-10-18T12:59:18Z</time>
      </trkpt>
      <trkpt lat="43.2234" lon="5.47915">
        <ele>397.4</ele>
        <time>2025-10-18T12:59:19Z</time>
      </trkpt>
      <trkpt lat="43.2234" lon="5.47916">
        <ele>397.4</ele>
        <time>2025-10-18T12:59:20Z</time>
      </trkpt>
      <trkpt lat="43.2234" lon="5.47917">
        <ele>397.5</ele>
        <time>2025-10-18T12:59:21Z</time>
      </trkpt>
      <trkpt lat="43.22341" lon="5.47918">
        <ele>397.5</ele>
        <time>2025-10-18T12:59:22Z</time>
      </trkpt>
      <trkpt lat="43.22341" lon="5.47919">
        <ele>397.5</ele>
        <time>2025-10-18T12:59:23Z</time>
      </trkpt>
      <trkpt lat="43.22341" lon="5.47919">
        <ele>397.6</ele>
        <time>2025-10-18T12:59:24Z</time>
      </trkpt>
      <trkpt lat="43.22341" lon="5.4792">
        <ele>397.6</ele>
        <time>2025-10-18T12:59:25Z</time>
      </trkpt>
      <trkpt lat="43.22342" lon="5.4792">
        <ele>397.7</ele>
        <time>2025-10-18T12:59:26Z</time>
      </trkpt>
      <trkpt lat="43.22342" lon="5.47921">
        <ele>397.7</ele>
        <time>2025-10-18T12:59:27Z</time>
      </trkpt>
      <trkpt lat="43.22342" lon="5.47921">
        <ele>397.5</ele>
        <time>2025-10-18T12:59:28Z</time>
      </trkpt>
      <trkpt lat="43.22342" lon="5.47922">
        <ele>397.4</ele>
        <time>2025-10-18T12:59:29Z</time>
      </trkpt>
      <trkpt lat="43.22342" lon="5.47922">
        <ele>397.3</ele>
        <time>2025-10-18T12:59:30Z</time>
      </trkpt>
      <trkpt lat="43.22342" lon="5.47923">
        <ele>397.2</ele>
        <time>2025-10-18T12:59:31Z</time>
      </trkpt>
      <trkpt lat="43.22342" lon="5.47923">
        <ele>397.1</ele>
        <time>2025-10-18T12:59:32Z</time>
      </trkpt>
      <trkpt lat="43.22341" lon="5.47924">
        <ele>396.8</ele>
        <time>2025-10-18T12:59:33Z</time>
      </trkpt>
      <trkpt lat="43.22341" lon="5.47924">
        <ele>396.6</ele>
        <time>2025-10-18T12:59:34Z</time>
      </trkpt>
      <trkpt lat="43.22341" lon="5.47924">
        <ele>396.4</ele>
        <time>2025-10-18T12:59:35Z</time>
      </trkpt>
      <trkpt lat="43.22341" lon="5.47924">
        <ele>396.4</ele>
        <time>2025-10-18T12:59:36Z</time>
      </trkpt>
      <trkpt lat="43.22341" lon="5.47924">
        <ele>396.4</ele>
        <time>2025-10-18T12:59:37Z</time>
      </trkpt>
      <trkpt lat="43.22341" lon="5.47923">
        <ele>396.3</ele>
        <time>2025-10-18T12:59:38Z</time>
      </trkpt>
      <trkpt lat="43.22341" lon="5.47923">
        <ele>396.2</ele>
        <time>2025-10-18T12:59:39Z</time>
      </trkpt>
      <trkpt lat="43.2234" lon="5.47922">
        <ele>396.3</ele>
        <time>2025-10-18T12:59:40Z</time>
      </trkpt>
      <trkpt lat="43.2234" lon="5.47922">
        <ele>396.4</ele>
        <time>2025-10-18T12:59:41Z</time>
      </trkpt>
      <trkpt lat="43.22339" lon="5.47921">
        <ele>396.4</ele>
        <time>2025-10-18T12:59:42Z</time>
      </trkpt>
      <trkpt lat="43.22339" lon="5.47921">
        <ele>396.5</ele>
        <time>2025-10-18T12:59:43Z</time>
      </trkpt>
      <trkpt lat="43.22338" lon="5.4792">
        <ele>396.5</ele>
        <time>2025-10-18T12:59:44Z</time>
      </trkpt>
      <trkpt lat="43.22338" lon="5.47919">
        <ele>396.5</ele>
        <time>2025-10-18T12:59:45Z</time>
      </trkpt>
      <trkpt lat="43.22338" lon="5.47919">
        <ele>396.5</ele>
        <time>2025-10-18T12:59:46Z</time>
      </trkpt>
      <trkpt lat="43.22337" lon="5.47919">
        <ele>396.5</ele>
        <time>2025-10-18T12:59:47Z</time>
      </trkpt>
      <trkpt lat="43.22337" lon="5.47919">
        <ele>396.5</ele>
        <time>2025-10-18T12:59:48Z</time>
      </trkpt>
      <trkpt lat="43.22337" lon="5.4792">
        <ele>396.6</ele>
        <time>2025-10-18T12:59:49Z</time>
      </trkpt>
      <trkpt lat="43.22338" lon="5.4792">
        <ele>396.6</ele>
        <time>2025-10-18T12:59:50Z</time>
      </trkpt>
      <trkpt lat="43.22337" lon="5.4792">
        <ele>396.7</ele>
        <time>2025-10-18T12:59:51Z</time>
      </trkpt>
      <trkpt lat="43.22337" lon="5.4792">
        <ele>396.7</ele>
        <time>2025-10-18T12:59:52Z</time>
      </trkpt>
      <trkpt lat="43.22338" lon="5.4792">
        <ele>396.8</ele>
        <time>2025-10-18T12:59:53Z</time>
      </trkpt>
      <trkpt lat="43.22338" lon="5.4792">
        <ele>396.7</ele>
        <time>2025-10-18T12:59:54Z</time>
      </trkpt>
      <trkpt lat="43.22338" lon="5.4792">
        <ele>396.7</ele>
        <time>2025-10-18T12:59:55Z</time>
      </trkpt>
      <trkpt lat="43.22338" lon="5.4792">
        <ele>396.7</ele>
        <time>2025-10-18T12:59:56Z</time>
      </trkpt>
      <trkpt lat="43.22338" lon="5.4792">
        <ele>396.7</ele>
        <time>2025-10-18T12:59:57Z</time>
      </trkpt>
      <trkpt lat="43.22338" lon="5.4792">
        <ele>396.7</ele>
        <time>2025-10-18T12:59:58Z</time>
      </trkpt>
      <trkpt lat="43.22338" lon="5.4792">
        <ele>396.6</ele>
        <time>2025-10-18T12:59:59Z</time>
      </trkpt>
      <trkpt lat="43.22338" lon="5.4792">
        <ele>396.6</ele>
        <time>2025-10-18T13:00:00Z</time>
      </trkpt>
      <trkpt lat="43.22337" lon="5.4792">
        <ele>396.6</ele>
        <time>2025-10-18T13:00:01Z</time>
      </trkpt>
      <trkpt lat="43.22337" lon="5.4792">
        <ele>396.6</ele>
        <time>2025-10-18T13:00:02Z</time>
      </trkpt>
      <trkpt lat="43.22337" lon="5.4792">
        <ele>396.7</ele>
        <time>2025-10-18T13:00:03Z</time>
      </trkpt>
      <trkpt lat="43.22338" lon="5.4792">
        <ele>396.6</ele>
        <time>2025-10-18T13:00:04Z</time>
      </trkpt>
      <trkpt lat="43.22338" lon="5.4792">
        <ele>396.6</ele>
        <time>2025-10-18T13:00:05Z</time>
      </trkpt>
      <trkpt lat="43.22337" lon="5.4792">
        <ele>396.6</ele>
        <time>2025-10-18T13:00:06Z</time>
      </trkpt>
      <trkpt lat="43.22338" lon="5.47921">
        <ele>396.5</ele>
        <time>2025-10-18T13:00:07Z</time>
      </trkpt>
      <trkpt lat="43.22337" lon="5.47921">
        <ele>396.4</ele>
        <time>2025-10-18T13:00:08Z</time>
      </trkpt>
      <trkpt lat="43.22337" lon="5.47921">
        <ele>396.4</ele>
        <time>2025-10-18T13:00:09Z</time>
      </trkpt>
      <trkpt lat="43.22337" lon="5.47921">
        <ele>396.3</ele>
        <time>2025-10-18T13:00:10Z</time>
      </trkpt>
      <trkpt lat="43.22338" lon="5.47921">
        <ele>396.3</ele>
        <time>2025-10-18T13:00:11Z</time>
      </trkpt>
      <trkpt lat="43.22338" lon="5.47922">
        <ele>396.3</ele>
        <time>2025-10-18T13:00:12Z</time>
      </trkpt>
      <trkpt lat="43.22338" lon="5.47922">
        <ele>396.2</ele>
        <time>2025-10-18T13:00:13Z</time>
      </trkpt>
      <trkpt lat="43.22338" lon="5.47922">
        <ele>396.2</ele>
        <time>2025-10-18T13:00:14Z</time>
      </trkpt>
      <trkpt lat="43.22338" lon="5.47922">
        <ele>396.3</ele>
        <time>2025-10-18T13:00:15Z</time>
      </trkpt>
      <trkpt lat="43.22338" lon="5.47922">
        <ele>396.3</ele>
        <time>2025-10-18T13:00:16Z</time>
      </trkpt>
      <trkpt lat="43.22338" lon="5.47922">
        <ele>396.3</ele>
        <time>2025-10-18T13:00:17Z</time>
      </trkpt>
      <trkpt lat="43.22338" lon="5.47922">
        <ele>396.3</ele>
        <time>2025-10-18T13:00:18Z</time>
      </trkpt>
      <trkpt lat="43.22338" lon="5.47922">
        <ele>396.2</ele>
        <time>2025-10-18T13:00:19Z</time>
      </trkpt>
      <trkpt lat="43.22338" lon="5.47922">
        <ele>396.2</ele>
        <time>2025-10-18T13:00:20Z</time>
      </trkpt>
      <trkpt lat="43.22338" lon="5.47922">
        <ele>396.2</ele>
        <time>2025-10-18T13:00:21Z</time>
      </trkpt>
      <trkpt lat="43.22338" lon="5.47922">
        <ele>396.3</ele>
        <time>2025-10-18T13:00:22Z</time>
      </trkpt>
      <trkpt lat="43.22338" lon="5.47923">
        <ele>396.3</ele>
        <time>2025-10-18T13:00:23Z</time>
      </trkpt>
      <trkpt lat="43.22337" lon="5.47924">
        <ele>396.3</ele>
        <time>2025-10-18T13:00:24Z</time>
      </trkpt>
      <trkpt lat="43.22337" lon="5.47925">
        <ele>396.3</ele>
        <time>2025-10-18T13:00:25Z</time>
      </trkpt>
      <trkpt lat="43.22337" lon="5.47926">
        <ele>396.2</ele>
        <time>2025-10-18T13:00:26Z</time>
      </trkpt>
      <trkpt lat="43.22337" lon="5.47926">
        <ele>396</ele>
        <time>2025-10-18T13:00:27Z</time>
      </trkpt>
      <trkpt lat="43.22337" lon="5.47926">
        <ele>395.9</ele>
        <time>2025-10-18T13:00:28Z</time>
      </trkpt>
      <trkpt lat="43.22337" lon="5.47927">
        <ele>395.8</ele>
        <time>2025-10-18T13:00:29Z</time>
      </trkpt>
      <trkpt lat="43.22337" lon="5.47927">
        <ele>395.7</ele>
        <time>2025-10-18T13:00:30Z</time>
      </trkpt>
      <trkpt lat="43.22337" lon="5.47927">
        <ele>395.7</ele>
        <time>2025-10-18T13:00:31Z</time>
      </trkpt>
      <trkpt lat="43.22336" lon="5.47927">
        <ele>395.6</ele>
        <time>2025-10-18T13:00:32Z</time>
      </trkpt>
      <trkpt lat="43.22336" lon="5.47926">
        <ele>395.5</ele>
        <time>2025-10-18T13:00:33Z</time>
      </trkpt>
      <trkpt lat="43.22336" lon="5.47925">
        <ele>395.3</ele>
        <time>2025-10-18T13:00:34Z</time>
      </trkpt>
      <trkpt lat="43.22335" lon="5.47925">
        <ele>395.1</ele>
        <time>2025-10-18T13:00:35Z</time>
      </trkpt>
      <trkpt lat="43.22336" lon="5.47925">
        <ele>395</ele>
        <time>2025-10-18T13:00:36Z</time>
      </trkpt>
      <trkpt lat="43.22336" lon="5.47924">
        <ele>394.9</ele>
        <time>2025-10-18T13:00:37Z</time>
      </trkpt>
      <trkpt lat="43.22336" lon="5.47924">
        <ele>394.8</ele>
        <time>2025-10-18T13:00:38Z</time>
      </trkpt>
      <trkpt lat="43.22336" lon="5.47925">
        <ele>394.7</ele>
        <time>2025-10-18T13:00:39Z</time>
      </trkpt>
      <trkpt lat="43.22335" lon="5.47925">
        <ele>394.6</ele>
        <time>2025-10-18T13:00:40Z</time>
      </trkpt>
      <trkpt lat="43.22335" lon="5.47925">
        <ele>394.5</ele>
        <time>2025-10-18T13:00:41Z</time>
      </trkpt>
      <trkpt lat="43.22335" lon="5.47926">
        <ele>394.5</ele>
        <time>2025-10-18T13:00:42Z</time>
      </trkpt>
      <trkpt lat="43.22335" lon="5.47926">
        <ele>394.5</ele>
        <time>2025-10-18T13:00:43Z</time>
      </trkpt>
      <trkpt lat="43.22335" lon="5.47926">
        <ele>394.5</ele>
        <time>2025-10-18T13:00:44Z</time>
      </trkpt>
      <trkpt lat="43.22334" lon="5.47926">
        <ele>394.3</ele>
        <time>2025-10-18T13:00:45Z</time>
      </trkpt>
      <trkpt lat="43.22334" lon="5.47926">
        <ele>394.2</ele>
        <time>2025-10-18T13:00:46Z</time>
      </trkpt>
      <trkpt lat="43.22334" lon="5.47927">
        <ele>394.1</ele>
        <time>2025-10-18T13:00:47Z</time>
      </trkpt>
      <trkpt lat="43.22334" lon="5.47926">
        <ele>394.1</ele>
        <time>2025-10-18T13:00:48Z</time>
      </trkpt>
      <trkpt lat="43.22334" lon="5.47926">
        <ele>394.2</ele>
        <time>2025-10-18T13:00:49Z</time>
      </trkpt>
      <trkpt lat="43.22334" lon="5.47926">
        <ele>394.2</ele>
        <time>2025-10-18T13:00:50Z</time>
      </trkpt>
      <trkpt lat="43.22334" lon="5.47926">
        <ele>394.2</ele>
        <time>2025-10-18T13:00:51Z</time>
      </trkpt>
      <trkpt lat="43.22334" lon="5.47926">
        <ele>394.2</ele>
        <time>2025-10-18T13:00:52Z</time>
      </trkpt>
      <trkpt lat="43.22333" lon="5.47926">
        <ele>394.1</ele>
        <time>2025-10-18T13:00:53Z</time>
      </trkpt>
      <trkpt lat="43.22334" lon="5.47926">
        <ele>394</ele>
        <time>2025-10-18T13:00:54Z</time>
      </trkpt>
      <trkpt lat="43.22334" lon="5.47927">
        <ele>393.9</ele>
        <time>2025-10-18T13:00:55Z</time>
      </trkpt>
      <trkpt lat="43.22334" lon="5.47927">
        <ele>393.8</ele>
        <time>2025-10-18T13:00:56Z</time>
      </trkpt>
      <trkpt lat="43.22334" lon="5.47928">
        <ele>393.8</ele>
        <time>2025-10-18T13:00:57Z</time>
      </trkpt>
      <trkpt lat="43.22334" lon="5.47928">
        <ele>393.8</ele>
        <time>2025-10-18T13:00:58Z</time>
      </trkpt>
      <trkpt lat="43.22334" lon="5.47928">
        <ele>393.7</ele>
        <time>2025-10-18T13:00:59Z</time>
      </trkpt>
      <trkpt lat="43.22334" lon="5.47928">
        <ele>393.7</ele>
        <time>2025-10-18T13:01:00Z</time>
      </trkpt>
      <trkpt lat="43.22334" lon="5.47928">
        <ele>393.7</ele>
        <time>2025-10-18T13:01:01Z</time>
      </trkpt>
      <trkpt lat="43.22334" lon="5.47928">
        <ele>393.7</ele>
        <time>2025-10-18T13:01:02Z</time>
      </trkpt>
      <trkpt lat="43.22334" lon="5.47928">
        <ele>393.6</ele>
        <time>2025-10-18T13:01:03Z</time>
      </trkpt>
      <trkpt lat="43.22334" lon="5.47928">
        <ele>393.5</ele>
        <time>2025-10-18T13:01:04Z</time>
      </trkpt>
      <trkpt lat="43.22334" lon="5.47929">
        <ele>393.4</ele>
        <time>2025-10-18T13:01:05Z</time>
      </trkpt>
      <trkpt lat="43.22334" lon="5.47929">
        <ele>393.3</ele>
        <time>2025-10-18T13:01:06Z</time>
      </trkpt>
      <trkpt lat="43.22334" lon="5.47929">
        <ele>393.2</ele>
        <time>2025-10-18T13:01:07Z</time>
      </trkpt>
      <trkpt lat="43.22334" lon="5.47928">
        <ele>393.3</ele>
        <time>2025-10-18T13:01:08Z</time>
      </trkpt>
      <trkpt lat="43.22335" lon="5.47928">
        <ele>393.3</ele>
        <time>2025-10-18T13:01:09Z</time>
      </trkpt>
      <trkpt lat="43.22335" lon="5.47928">
        <ele>393.3</ele>
        <time>2025-10-18T13:01:10Z</time>
      </trkpt>
      <trkpt lat="43.22335" lon="5.47928">
        <ele>393.3</ele>
        <time>2025-10-18T13:01:11Z</time>
      </trkpt>
      <trkpt lat="43.22335" lon="5.47928">
        <ele>393.2</ele>
        <time>2025-10-18T13:01:12Z</time>
      </trkpt>
      <trkpt lat="43.22336" lon="5.47928">
        <ele>393.2</ele>
        <time>2025-10-18T13:01:13Z</time>
      </trkpt>
      <trkpt lat="43.22336" lon="5.47928">
        <ele>393.2</ele>
        <time>2025-10-18T13:01:14Z</time>
      </trkpt>
      <trkpt lat="43.22336" lon="5.47928">
        <ele>393.2</ele>
        <time>2025-10-18T13:01:15Z</time>
      </trkpt>
      <trkpt lat="43.22336" lon="5.47928">
        <ele>393.2</ele>
        <time>2025-10-18T13:01:16Z</time>
      </trkpt>
      <trkpt lat="43.22336" lon="5.47928">
        <ele>393.1</ele>
        <time>2025-10-18T13:01:17Z</time>
      </trkpt>
      <trkpt lat="43.22336" lon="5.47928">
        <ele>393.2</ele>
        <time>2025-10-18T13:01:18Z</time>
      </trkpt>
      <trkpt lat="43.22336" lon="5.47928">
        <ele>393.2</ele>
        <time>2025-10-18T13:01:19Z</time>
      </trkpt>
      <trkpt lat="43.22336" lon="5.47928">
        <ele>393.1</ele>
        <time>2025-10-18T13:01:20Z</time>
      </trkpt>
      <trkpt lat="43.22336" lon="5.47928">
        <ele>393.1</ele>
        <time>2025-10-18T13:01:21Z</time>
      </trkpt>
      <trkpt lat="43.22336" lon="5.47928">
        <ele>393.1</ele>
        <time>2025-10-18T13:01:22Z</time>
      </trkpt>
      <trkpt lat="43.22336" lon="5.47928">
        <ele>393</ele>
        <time>2025-10-18T13:01:23Z</time>
      </trkpt>
      <trkpt lat="43.22336" lon="5.47927">
        <ele>393</ele>
        <time>2025-10-18T13:01:24Z</time>
      </trkpt>
      <trkpt lat="43.22336" lon="5.47928">
        <ele>393</ele>
        <time>2025-10-18T13:01:25Z</time>
      </trkpt>
      <trkpt lat="43.22336" lon="5.47928">
        <ele>393</ele>
        <time>2025-10-18T13:01:26Z</time>
      </trkpt>
      <trkpt lat="43.22336" lon="5.47928">
        <ele>392.9</ele>
        <time>2025-10-18T13:01:27Z</time>
      </trkpt>
      <trkpt lat="43.22336" lon="5.47928">
        <ele>392.9</ele>
        <time>2025-10-18T13:01:28Z</time>
      </trkpt>
      <trkpt lat="43.22336" lon="5.47928">
        <ele>392.9</ele>
        <time>2025-10-18T13:01:29Z</time>
      </trkpt>
      <trkpt lat="43.22336" lon="5.47928">
        <ele>392.9</ele>
        <time>2025-10-18T13:01:30Z</time>
      </trkpt>
      <trkpt lat="43.22336" lon="5.47929">
        <ele>392.9</ele>
        <time>2025-10-18T13:01:31Z</time>
      </trkpt>
      <trkpt lat="43.22336" lon="5.47929">
        <ele>392.9</ele>
        <time>2025-10-18T13:01:32Z</time>
      </trkpt>
      <trkpt lat="43.22336" lon="5.47929">
        <ele>392.9</ele>
        <time>2025-10-18T13:01:33Z</time>
      </trkpt>
      <trkpt lat="43.22336" lon="5.47929">
        <ele>392.9</ele>
        <time>2025-10-18T13:01:34Z</time>
      </trkpt>
      <trkpt lat="43.22336" lon="5.47929">
        <ele>392.9</ele>
        <time>2025-10-18T13:01:35Z</time>
      </trkpt>
      <trkpt lat="43.22337" lon="5.47929">
        <ele>392.9</ele>
        <time>2025-10-18T13:01:36Z</time>
      </trkpt>
      <trkpt lat="43.22337" lon="5.47929">
        <ele>392.8</ele>
        <time>2025-10-18T13:01:37Z</time>
      </trkpt>
      <trkpt lat="43.22337" lon="5.4793">
        <ele>392.8</ele>
        <time>2025-10-18T13:01:38Z</time>
      </trkpt>
      <trkpt lat="43.22337" lon="5.4793">
        <ele>392.7</ele>
        <time>2025-10-18T13:01:39Z</time>
      </trkpt>
      <trkpt lat="43.22337" lon="5.4793">
        <ele>392.7</ele>
        <time>2025-10-18T13:01:40Z</time>
      </trkpt>
      <trkpt lat="43.22337" lon="5.4793">
        <ele>392.7</ele>
        <time>2025-10-18T13:01:41Z</time>
      </trkpt>
      <trkpt lat="43.22337" lon="5.4793">
        <ele>392.6</ele>
        <time>2025-10-18T13:01:42Z</time>
      </trkpt>
      <trkpt lat="43.22337" lon="5.4793">
        <ele>392.6</ele>
        <time>2025-10-18T13:01:43Z</time>
      </trkpt>
      <trkpt lat="43.22337" lon="5.4793">
        <ele>392.7</ele>
        <time>2025-10-18T13:01:44Z</time>
      </trkpt>
      <trkpt lat="43.22337" lon="5.4793">
        <ele>392.7</ele>
        <time>2025-10-18T13:01:45Z</time>
      </trkpt>
      <trkpt lat="43.22337" lon="5.4793">
        <ele>392.7</ele>
        <time>2025-10-18T13:01:46Z</time>
      </trkpt>
      <trkpt lat="43.22337" lon="5.47931">
        <ele>392.7</ele>
        <time>2025-10-18T13:01:47Z</time>
      </trkpt>
      <trkpt lat="43.22336" lon="5.47931">
        <ele>392.7</ele>
        <time>2025-10-18T13:01:48Z</time>
      </trkpt>
      <trkpt lat="43.22336" lon="5.47931">
        <ele>392.7</ele>
        <time>2025-10-18T13:01:49Z</time>
      </trkpt>
      <trkpt lat="43.22336" lon="5.47931">
        <ele>392.7</ele>
        <time>2025-10-18T13:01:50Z</time>
      </trkpt>
      <trkpt lat="43.22336" lon="5.47931">
        <ele>392.6</ele>
        <time>2025-10-18T13:01:51Z</time>
      </trkpt>
      <trkpt lat="43.22336" lon="5.4793">
        <ele>392.7</ele>
        <time>2025-10-18T13:01:52Z</time>
      </trkpt>
      <trkpt lat="43.22336" lon="5.4793">
        <ele>392.7</ele>
        <time>2025-10-18T13:01:53Z</time>
      </trkpt>
      <trkpt lat="43.22336" lon="5.4793">
        <ele>392.7</ele>
        <time>2025-10-18T13:01:54Z</time>
      </trkpt>
      <trkpt lat="43.22336" lon="5.4793">
        <ele>392.7</ele>
        <time>2025-10-18T13:01:55Z</time>
      </trkpt>
      <trkpt lat="43.22336" lon="5.4793">
        <ele>392.6</ele>
        <time>2025-10-18T13:01:56Z</time>
      </trkpt>
      <trkpt lat="43.22336" lon="5.4793">
        <ele>392.7</ele>
        <time>2025-10-18T13:01:57Z</time>
      </trkpt>
      <trkpt lat="43.22336" lon="5.4793">
        <ele>392.7</ele>
        <time>2025-10-18T13:01:58Z</time>
      </trkpt>
      <trkpt lat="43.22336" lon="5.4793">
        <ele>392.8</ele>
        <time>2025-10-18T13:01:59Z</time>
      </trkpt>
      <trkpt lat="43.22336" lon="5.47929">
        <ele>392.9</ele>
        <time>2025-10-18T13:02:00Z</time>
      </trkpt>
      <trkpt lat="43.22336" lon="5.47929">
        <ele>392.9</ele>
        <time>2025-10-18T13:02:01Z</time>
      </trkpt>
      <trkpt lat="43.22336" lon="5.47929">
        <ele>392.9</ele>
        <time>2025-10-18T13:02:02Z</time>
      </trkpt>
      <trkpt lat="43.22336" lon="5.47929">
        <ele>393</ele>
        <time>2025-10-18T13:02:03Z</time>
      </trkpt>
      <trkpt lat="43.22336" lon="5.47929">
        <ele>393</ele>
        <time>2025-10-18T13:02:04Z</time>
      </trkpt>
      <trkpt lat="43.22336" lon="5.47929">
        <ele>393</ele>
        <time>2025-10-18T13:02:05Z</time>
      </trkpt>
      <trkpt lat="43.22336" lon="5.47929">
        <ele>393</ele>
        <time>2025-10-18T13:02:06Z</time>
      </trkpt>
      <trkpt lat="43.22336" lon="5.47929">
        <ele>393</ele>
        <time>2025-10-18T13:02:07Z</time>
      </trkpt>
      <trkpt lat="43.22336" lon="5.47929">
        <ele>393</ele>
        <time>2025-10-18T13:02:08Z</time>
      </trkpt>
      <trkpt lat="43.22336" lon="5.47929">
        <ele>393.1</ele>
        <time>2025-10-18T13:02:09Z</time>
      </trkpt>
      <trkpt lat="43.22336" lon="5.47929">
        <ele>393.2</ele>
        <time>2025-10-18T13:02:10Z</time>
      </trkpt>
      <trkpt lat="43.22336" lon="5.47929">
        <ele>393.2</ele>
        <time>2025-10-18T13:02:11Z</time>
      </trkpt>
      <trkpt lat="43.22336" lon="5.47929">
        <ele>393.2</ele>
        <time>2025-10-18T13:02:12Z</time>
      </trkpt>
      <trkpt lat="43.22336" lon="5.47929">
        <ele>393.2</ele>
        <time>2025-10-18T13:02:13Z</time>
      </trkpt>
      <trkpt lat="43.22336" lon="5.47929">
        <ele>393.2</ele>
        <time>2025-10-18T13:02:14Z</time>
      </trkpt>
      <trkpt lat="43.22336" lon="5.47929">
        <ele>393.2</ele>
        <time>2025-10-18T13:02:15Z</time>
      </trkpt>
      <trkpt lat="43.22336" lon="5.47929">
        <ele>393.2</ele>
        <time>2025-10-18T13:02:16Z</time>
      </trkpt>
      <trkpt lat="43.22336" lon="5.47929">
        <ele>393.2</ele>
        <time>2025-10-18T13:02:17Z</time>
      </trkpt>
      <trkpt lat="43.22336" lon="5.47929">
        <ele>393.2</ele>
        <time>2025-10-18T13:02:18Z</time>
      </trkpt>
      <trkpt lat="43.22336" lon="5.47929">
        <ele>393.2</ele>
        <time>2025-10-18T13:02:19Z</time>
      </trkpt>
      <trkpt lat="43.22336" lon="5.47929">
        <ele>393.2</ele>
        <time>2025-10-18T13:02:20Z</time>
      </trkpt>
      <trkpt lat="43.22336" lon="5.47929">
        <ele>393.2</ele>
        <time>2025-10-18T13:02:21Z</time>
      </trkpt>
      <trkpt lat="43.22336" lon="5.47928">
        <ele>393.2</ele>
        <time>2025-10-18T13:02:22Z</time>
      </trkpt>
      <trkpt lat="43.22336" lon="5.47928">
        <ele>393.2</ele>
        <time>2025-10-18T13:02:23Z</time>
      </trkpt>
      <trkpt lat="43.22336" lon="5.47928">
        <ele>393.2</ele>
        <time>2025-10-18T13:02:24Z</time>
      </trkpt>
      <trkpt lat="43.22336" lon="5.47928">
        <ele>393.3</ele>
        <time>2025-10-18T13:02:25Z</time>
      </trkpt>
      <trkpt lat="43.22336" lon="5.47928">
        <ele>393.3</ele>
        <time>2025-10-18T13:02:26Z</time>
      </trkpt>
      <trkpt lat="43.22336" lon="5.47928">
        <ele>393.3</ele>
        <time>2025-10-18T13:02:27Z</time>
      </trkpt>
      <trkpt lat="43.22336" lon="5.47928">
        <ele>393.3</ele>
        <time>2025-10-18T13:02:28Z</time>
      </trkpt>
      <trkpt lat="43.22336" lon="5.47928">
        <ele>393.3</ele>
        <time>2025-10-18T13:02:29Z</time>
      </trkpt>
      <trkpt lat="43.22336" lon="5.47928">
        <ele>393.3</ele>
        <time>2025-10-18T13:02:30Z</time>
      </trkpt>
      <trkpt lat="43.22336" lon="5.47928">
        <ele>393.3</ele>
        <time>2025-10-18T13:02:31Z</time>
      </trkpt>
      <trkpt lat="43.22336" lon="5.47928">
        <ele>393.3</ele>
        <time>2025-10-18T13:02:32Z</time>
      </trkpt>
      <trkpt lat="43.22336" lon="5.47928">
        <ele>393.3</ele>
        <time>2025-10-18T13:02:33Z</time>
      </trkpt>
      <trkpt lat="43.22336" lon="5.47928">
        <ele>393.4</ele>
        <time>2025-10-18T13:02:34Z</time>
      </trkpt>
      <trkpt lat="43.22336" lon="5.47928">
        <ele>393.4</ele>
        <time>2025-10-18T13:02:35Z</time>
      </trkpt>
      <trkpt lat="43.22336" lon="5.47928">
        <ele>393.4</ele>
        <time>2025-10-18T13:02:36Z</time>
      </trkpt>
      <trkpt lat="43.22336" lon="5.47928">
        <ele>393.5</ele>
        <time>2025-10-18T13:02:37Z</time>
      </trkpt>
      <trkpt lat="43.22336" lon="5.47927">
        <ele>393.5</ele>
        <time>2025-10-18T13:02:38Z</time>
      </trkpt>
      <trkpt lat="43.22336" lon="5.47927">
        <ele>393.5</ele>
        <time>2025-10-18T13:02:39Z</time>
      </trkpt>
      <trkpt lat="43.22336" lon="5.47927">
        <ele>393.5</ele>
        <time>2025-10-18T13:02:40Z</time>
      </trkpt>
      <trkpt lat="43.22336" lon="5.47927">
        <ele>393.4</ele>
        <time>2025-10-18T13:02:41Z</time>
      </trkpt>
      <trkpt lat="43.22336" lon="5.47927">
        <ele>393.4</ele>
        <time>2025-10-18T13:02:42Z</time>
      </trkpt>
      <trkpt lat="43.22336" lon="5.47927">
        <ele>393.4</ele>
        <time>2025-10-18T13:02:43Z</time>
      </trkpt>
      <trkpt lat="43.22336" lon="5.47927">
        <ele>393.4</ele>
        <time>2025-10-18T13:02:44Z</time>
      </trkpt>
      <trkpt lat="43.22336" lon="5.47927">
        <ele>393.4</ele>
        <time>2025-10-18T13:02:45Z</time>
      </trkpt>
      <trkpt lat="43.22336" lon="5.47927">
        <ele>393.4</ele>
        <time>2025-10-18T13:02:46Z</time>
      </trkpt>
      <trkpt lat="43.22336" lon="5.47927">
        <ele>393.4</ele>
        <time>2025-10-18T13:02:47Z</time>
      </trkpt>
      <trkpt lat="43.22336" lon="5.47927">
        <ele>393.4</ele>
        <time>2025-10-18T13:02:48Z</time>
      </trkpt>
      <trkpt lat="43.22336" lon="5.47927">
        <ele>393.4</ele>
        <time>2025-10-18T13:02:49Z</time>
      </trkpt>
      <trkpt lat="43.22336" lon="5.47927">
        <ele>393.3</ele>
        <time>2025-10-18T13:02:50Z</time>
      </trkpt>
      <trkpt lat="43.22336" lon="5.47927">
        <ele>393.2</ele>
        <time>2025-10-18T13:02:51Z</time>
      </trkpt>
      <trkpt lat="43.22336" lon="5.47927">
        <ele>393.2</ele>
        <time>2025-10-18T13:02:52Z</time>
      </trkpt>
      <trkpt lat="43.22336" lon="5.47927">
        <ele>393.3</ele>
        <time>2025-10-18T13:02:53Z</time>
      </trkpt>
      <trkpt lat="43.22336" lon="5.47927">
        <ele>393.4</ele>
        <time>2025-10-18T13:02:54Z</time>
      </trkpt>
      <trkpt lat="43.22336" lon="5.47927">
        <ele>393.4</ele>
        <time>2025-10-18T13:02:55Z</time>
      </trkpt>
      <trkpt lat="43.22336" lon="5.47927">
        <ele>393.4</ele>
        <time>2025-10-18T13:02:56Z</time>
      </trkpt>
      <trkpt lat="43.22336" lon="5.47927">
        <ele>393.4</ele>
        <time>2025-10-18T13:02:57Z</time>
      </trkpt>
      <trkpt lat="43.22336" lon="5.47927">
        <ele>393.3</ele>
        <time>2025-10-18T13:02:58Z</time>
      </trkpt>
      <trkpt lat="43.22336" lon="5.47927">
        <ele>393.2</ele>
        <time>2025-10-18T13:02:59Z</time>
      </trkpt>
      <trkpt lat="43.22336" lon="5.47927">
        <ele>393.2</ele>
        <time>2025-10-18T13:03:00Z</time>
      </trkpt>
      <trkpt lat="43.22336" lon="5.47927">
        <ele>393.2</ele>
        <time>2025-10-18T13:03:01Z</time>
      </trkpt>
      <trkpt lat="43.22336" lon="5.47927">
        <ele>393.2</ele>
        <time>2025-10-18T13:03:02Z</time>
      </trkpt>
      <trkpt lat="43.22336" lon="5.47927">
        <ele>393.2</ele>
        <time>2025-10-18T13:03:03Z</time>
      </trkpt>
      <trkpt lat="43.22336" lon="5.47927">
        <ele>393.2</ele>
        <time>2025-10-18T13:03:04Z</time>
      </trkpt>
      <trkpt lat="43.22336" lon="5.47927">
        <ele>393.2</ele>
        <time>2025-10-18T13:03:05Z</time>
      </trkpt>
      <trkpt lat="43.22336" lon="5.47927">
        <ele>393.3</ele>
        <time>2025-10-18T13:03:06Z</time>
      </trkpt>
      <trkpt lat="43.22336" lon="5.47927">
        <ele>393.3</ele>
        <time>2025-10-18T13:03:07Z</time>
      </trkpt>
      <trkpt lat="43.22336" lon="5.47927">
        <ele>393.3</ele>
        <time>2025-10-18T13:03:08Z</time>
      </trkpt>
      <trkpt lat="43.22336" lon="5.47927">
        <ele>393.2</ele>
        <time>2025-10-18T13:03:09Z</time>
      </trkpt>
      <trkpt lat="43.22337" lon="5.47927">
        <ele>393.2</ele>
        <time>2025-10-18T13:03:10Z</time>
      </trkpt>
      <trkpt lat="43.22337" lon="5.47927">
        <ele>393.2</ele>
        <time>2025-10-18T13:03:11Z</time>
      </trkpt>
      <trkpt lat="43.22337" lon="5.47927">
        <ele>393.1</ele>
        <time>2025-10-18T13:03:12Z</time>
      </trkpt>
      <trkpt lat="43.22337" lon="5.47927">
        <ele>393.1</ele>
        <time>2025-10-18T13:03:13Z</time>
      </trkpt>
      <trkpt lat="43.22337" lon="5.47927">
        <ele>393.1</ele>
        <time>2025-10-18T13:03:14Z</time>
      </trkpt>
      <trkpt lat="43.22337" lon="5.47927">
        <ele>393.1</ele>
        <time>2025-10-18T13:03:15Z</time>
      </trkpt>
      <trkpt lat="43.22337" lon="5.47927">
        <ele>393.1</ele>
        <time>2025-10-18T13:03:16Z</time>
      </trkpt>
      <trkpt lat="43.22337" lon="5.47927">
        <ele>393.1</ele>
        <time>2025-10-18T13:03:17Z</time>
      </trkpt>
      <trkpt lat="43.22337" lon="5.47927">
        <ele>393.1</ele>
        <time>2025-10-18T13:03:18Z</time>
      </trkpt>
      <trkpt lat="43.22337" lon="5.47927">
        <ele>393.1</ele>
        <time>2025-10-18T13:03:19Z</time>
      </trkpt>
      <trkpt lat="43.22337" lon="5.47927">
        <ele>393.2</ele>
        <time>2025-10-18T13:03:20Z</time>
      </trkpt>
      <trkpt lat="43.22337" lon="5.47927">
        <ele>393.2</ele>
        <time>2025-10-18T13:03:21Z</time>
      </trkpt>
      <trkpt lat="43.22337" lon="5.47927">
        <ele>393.1</ele>
        <time>2025-10-18T13:03:22Z</time>
      </trkpt>
      <trkpt lat="43.22337" lon="5.47927">
        <ele>393.1</ele>
        <time>2025-10-18T13:03:23Z</time>
      </trkpt>
      <trkpt lat="43.22337" lon="5.47927">
        <ele>393.1</ele>
        <time>2025-10-18T13:03:24Z</time>
      </trkpt>
      <trkpt lat="43.22337" lon="5.47927">
        <ele>393.1</ele>
        <time>2025-10-18T13:03:25Z</time>
      </trkpt>
      <trkpt lat="43.22337" lon="5.47927">
        <ele>393</ele>
        <time>2025-10-18T13:03:26Z</time>
      </trkpt>
      <trkpt lat="43.22337" lon="5.47927">
        <ele>393</ele>
        <time>2025-10-18T13:03:27Z</time>
      </trkpt>
      <trkpt lat="43.22337" lon="5.47927">
        <ele>393.1</ele>
        <time>2025-10-18T13:03:28Z</time>
      </trkpt>
      <trkpt lat="43.22337" lon="5.47927">
        <ele>393.1</ele>
        <time>2025-10-18T13:03:29Z</time>
      </trkpt>
      <trkpt lat="43.22337" lon="5.47927">
        <ele>393.1</ele>
        <time>2025-10-18T13:03:30Z</time>
      </trkpt>
      <trkpt lat="43.22337" lon="5.47927">
        <ele>393.1</ele>
        <time>2025-10-18T13:03:31Z</time>
      </trkpt>
      <trkpt lat="43.22337" lon="5.47927">
        <ele>393.1</ele>
        <time>2025-10-18T13:03:32Z</time>
      </trkpt>
      <trkpt lat="43.22337" lon="5.47927">
        <ele>393.1</ele>
        <time>2025-10-18T13:03:33Z</time>
      </trkpt>
      <trkpt lat="43.22337" lon="5.47927">
        <ele>393.1</ele>
        <time>2025-10-18T13:03:34Z</time>
      </trkpt>
      <trkpt lat="43.22337" lon="5.47927">
        <ele>393.1</ele>
        <time>2025-10-18T13:03:35Z</time>
      </trkpt>
      <trkpt lat="43.22337" lon="5.47927">
        <ele>393.1</ele>
        <time>2025-10-18T13:03:36Z</time>
      </trkpt>
      <trkpt lat="43.22337" lon="5.47927">
        <ele>393.1</ele>
        <time>2025-10-18T13:03:37Z</time>
      </trkpt>
      <trkpt lat="43.22337" lon="5.47927">
        <ele>393.1</ele>
        <time>2025-10-18T13:03:38Z</time>
      </trkpt>
      <trkpt lat="43.22337" lon="5.47927">
        <ele>393.1</ele>
        <time>2025-10-18T13:03:39Z</time>
      </trkpt>
      <trkpt lat="43.22337" lon="5.47927">
        <ele>393.1</ele>
        <time>2025-10-18T13:03:40Z</time>
      </trkpt>
      <trkpt lat="43.22337" lon="5.47927">
        <ele>393.1</ele>
        <time>2025-10-18T13:03:41Z</time>
      </trkpt>
      <trkpt lat="43.22337" lon="5.47927">
        <ele>393.1</ele>
        <time>2025-10-18T13:03:42Z</time>
      </trkpt>
      <trkpt lat="43.22337" lon="5.47927">
        <ele>393.1</ele>
        <time>2025-10-18T13:03:43Z</time>
      </trkpt>
      <trkpt lat="43.22337" lon="5.47927">
        <ele>393.1</ele>
        <time>2025-10-18T13:03:44Z</time>
      </trkpt>
      <trkpt lat="43.22337" lon="5.47927">
        <ele>393.1</ele>
        <time>2025-10-18T13:03:45Z</time>
      </trkpt>
      <trkpt lat="43.22337" lon="5.47927">
        <ele>393.1</ele>
        <time>2025-10-18T13:03:46Z</time>
      </trkpt>
      <trkpt lat="43.22337" lon="5.47927">
        <ele>393.1</ele>
        <time>2025-10-18T13:03:47Z</time>
      </trkpt>
      <trkpt lat="43.22337" lon="5.47927">
        <ele>393.2</ele>
        <time>2025-10-18T13:03:48Z</time>
      </trkpt>
      <trkpt lat="43.22337" lon="5.47927">
        <ele>393.2</ele>
        <time>2025-10-18T13:03:49Z</time>
      </trkpt>
      <trkpt lat="43.22337" lon="5.47927">
        <ele>393.2</ele>
        <time>2025-10-18T13:03:50Z</time>
      </trkpt>
      <trkpt lat="43.22337" lon="5.47927">
        <ele>393.2</ele>
        <time>2025-10-18T13:03:51Z</time>
      </trkpt>
      <trkpt lat="43.22337" lon="5.47927">
        <ele>393.2</ele>
        <time>2025-10-18T13:03:52Z</time>
      </trkpt>
      <trkpt lat="43.22337" lon="5.47927">
        <ele>393.2</ele>
        <time>2025-10-18T13:03:53Z</time>
      </trkpt>
      <trkpt lat="43.22337" lon="5.47927">
        <ele>393.1</ele>
        <time>2025-10-18T13:03:54Z</time>
      </trkpt>
      <trkpt lat="43.22337" lon="5.47927">
        <ele>393</ele>
        <time>2025-10-18T13:03:55Z</time>
      </trkpt>
      <trkpt lat="43.22337" lon="5.47927">
        <ele>393</ele>
        <time>2025-10-18T13:03:56Z</time>
      </trkpt>
      <trkpt lat="43.22337" lon="5.47927">
        <ele>392.9</ele>
        <time>2025-10-18T13:03:57Z</time>
      </trkpt>
      <trkpt lat="43.22337" lon="5.47928">
        <ele>393</ele>
        <time>2025-10-18T13:03:58Z</time>
      </trkpt>
      <trkpt lat="43.22337" lon="5.47928">
        <ele>393</ele>
        <time>2025-10-18T13:03:59Z</time>
      </trkpt>
      <trkpt lat="43.22337" lon="5.47928">
        <ele>392.9</ele>
        <time>2025-10-18T13:04:00Z</time>
      </trkpt>
      <trkpt lat="43.22337" lon="5.47928">
        <ele>392.9</ele>
        <time>2025-10-18T13:04:01Z</time>
      </trkpt>
      <trkpt lat="43.22337" lon="5.47927">
        <ele>392.9</ele>
        <time>2025-10-18T13:04:02Z</time>
      </trkpt>
      <trkpt lat="43.22337" lon="5.47927">
        <ele>392.9</ele>
        <time>2025-10-18T13:04:03Z</time>
      </trkpt>
      <trkpt lat="43.22337" lon="5.47927">
        <ele>392.8</ele>
        <time>2025-10-18T13:04:04Z</time>
      </trkpt>
      <trkpt lat="43.22337" lon="5.47927">
        <ele>392.8</ele>
        <time>2025-10-18T13:04:05Z</time>
      </trkpt>
      <trkpt lat="43.22336" lon="5.47927">
        <ele>392.7</ele>
        <time>2025-10-18T13:04:06Z</time>
      </trkpt>
      <trkpt lat="43.22336" lon="5.47927">
        <ele>392.7</ele>
        <time>2025-10-18T13:04:07Z</time>
      </trkpt>
      <trkpt lat="43.22336" lon="5.47927">
        <ele>392.6</ele>
        <time>2025-10-18T13:04:08Z</time>
      </trkpt>
      <trkpt lat="43.22336" lon="5.47927">
        <ele>392.6</ele>
        <time>2025-10-18T13:04:09Z</time>
      </trkpt>
      <trkpt lat="43.22336" lon="5.47927">
        <ele>392.5</ele>
        <time>2025-10-18T13:04:10Z</time>
      </trkpt>
      <trkpt lat="43.22336" lon="5.47927">
        <ele>392.5</ele>
        <time>2025-10-18T13:04:11Z</time>
      </trkpt>
      <trkpt lat="43.22335" lon="5.47927">
        <ele>392.5</ele>
        <time>2025-10-18T13:04:12Z</time>
      </trkpt>
      <trkpt lat="43.22335" lon="5.47927">
        <ele>392.4</ele>
        <time>2025-10-18T13:04:13Z</time>
      </trkpt>
      <trkpt lat="43.22335" lon="5.47927">
        <ele>392.3</ele>
        <time>2025-10-18T13:04:14Z</time>
      </trkpt>
      <trkpt lat="43.22335" lon="5.47927">
        <ele>392.2</ele>
        <time>2025-10-18T13:04:15Z</time>
      </trkpt>
      <trkpt lat="43.22334" lon="5.47927">
        <ele>392.1</ele>
        <time>2025-10-18T13:04:16Z</time>
      </trkpt>
      <trkpt lat="43.22334" lon="5.47928">
        <ele>391.9</ele>
        <time>2025-10-18T13:04:17Z</time>
      </trkpt>
      <trkpt lat="43.22334" lon="5.47928">
        <ele>391.9</ele>
        <time>2025-10-18T13:04:18Z</time>
      </trkpt>
      <trkpt lat="43.22334" lon="5.47928">
        <ele>391.9</ele>
        <time>2025-10-18T13:04:19Z</time>
      </trkpt>
      <trkpt lat="43.22334" lon="5.47929">
        <ele>391.7</ele>
        <time>2025-10-18T13:04:20Z</time>
      </trkpt>
      <trkpt lat="43.22333" lon="5.47929">
        <ele>391.6</ele>
        <time>2025-10-18T13:04:21Z</time>
      </trkpt>
      <trkpt lat="43.22333" lon="5.47929">
        <ele>391.5</ele>
        <time>2025-10-18T13:04:22Z</time>
      </trkpt>
      <trkpt lat="43.22333" lon="5.4793">
        <ele>391.4</ele>
        <time>2025-10-18T13:04:23Z</time>
      </trkpt>
      <trkpt lat="43.22333" lon="5.4793">
        <ele>391.3</ele>
        <time>2025-10-18T13:04:24Z</time>
      </trkpt>
      <trkpt lat="43.22333" lon="5.4793">
        <ele>391.2</ele>
        <time>2025-10-18T13:04:25Z</time>
      </trkpt>
      <trkpt lat="43.22333" lon="5.4793">
        <ele>391.2</ele>
        <time>2025-10-18T13:04:26Z</time>
      </trkpt>
      <trkpt lat="43.22332" lon="5.4793">
        <ele>391.1</ele>
        <time>2025-10-18T13:04:27Z</time>
      </trkpt>
      <trkpt lat="43.22332" lon="5.4793">
        <ele>391</ele>
        <time>2025-10-18T13:04:28Z</time>
      </trkpt>
      <trkpt lat="43.22331" lon="5.47931">
        <ele>390.9</ele>
        <time>2025-10-18T13:04:29Z</time>
      </trkpt>
      <trkpt lat="43.2233" lon="5.47932">
        <ele>390.8</ele>
        <time>2025-10-18T13:04:30Z</time>
      </trkpt>
      <trkpt lat="43.2233" lon="5.47932">
        <ele>390.8</ele>
        <time>2025-10-18T13:04:31Z</time>
      </trkpt>
      <trkpt lat="43.22329" lon="5.47933">
        <ele>390.8</ele>
        <time>2025-10-18T13:04:32Z</time>
      </trkpt>
      <trkpt lat="43.22328" lon="5.47934">
        <ele>390.8</ele>
        <time>2025-10-18T13:04:33Z</time>
      </trkpt>
      <trkpt lat="43.22328" lon="5.47934">
        <ele>390.8</ele>
        <time>2025-10-18T13:04:34Z</time>
      </trkpt>
      <trkpt lat="43.22327" lon="5.47934">
        <ele>390.6</ele>
        <time>2025-10-18T13:04:35Z</time>
      </trkpt>
      <trkpt lat="43.22327" lon="5.47935">
        <ele>390.5</ele>
        <time>2025-10-18T13:04:36Z</time>
      </trkpt>
      <trkpt lat="43.22326" lon="5.47935">
        <ele>390.4</ele>
        <time>2025-10-18T13:04:37Z</time>
      </trkpt>
      <trkpt lat="43.22325" lon="5.47936">
        <ele>390.3</ele>
        <time>2025-10-18T13:04:38Z</time>
      </trkpt>
      <trkpt lat="43.22325" lon="5.47936">
        <ele>390.1</ele>
        <time>2025-10-18T13:04:39Z</time>
      </trkpt>
      <trkpt lat="43.22324" lon="5.47936">
        <ele>389.9</ele>
        <time>2025-10-18T13:04:40Z</time>
      </trkpt>
      <trkpt lat="43.22324" lon="5.47936">
        <ele>389.7</ele>
        <time>2025-10-18T13:04:41Z</time>
      </trkpt>
      <trkpt lat="43.22324" lon="5.47936">
        <ele>389.5</ele>
        <time>2025-10-18T13:04:42Z</time>
      </trkpt>
      <trkpt lat="43.22323" lon="5.47937">
        <ele>389.3</ele>
        <time>2025-10-18T13:04:43Z</time>
      </trkpt>
      <trkpt lat="43.22323" lon="5.47937">
        <ele>389</ele>
        <time>2025-10-18T13:04:44Z</time>
      </trkpt>
      <trkpt lat="43.22323" lon="5.47938">
        <ele>388.7</ele>
        <time>2025-10-18T13:04:45Z</time>
      </trkpt>
      <trkpt lat="43.22322" lon="5.47938">
        <ele>388.5</ele>
        <time>2025-10-18T13:04:46Z</time>
      </trkpt>
      <trkpt lat="43.22322" lon="5.47938">
        <ele>388.4</ele>
        <time>2025-10-18T13:04:47Z</time>
      </trkpt>
      <trkpt lat="43.22321" lon="5.47938">
        <ele>388.3</ele>
        <time>2025-10-18T13:04:48Z</time>
      </trkpt>
      <trkpt lat="43.22321" lon="5.47938">
        <ele>388.3</ele>
        <time>2025-10-18T13:04:49Z</time>
      </trkpt>
      <trkpt lat="43.2232" lon="5.47939">
        <ele>388.1</ele>
        <time>2025-10-18T13:04:50Z</time>
      </trkpt>
      <trkpt lat="43.2232" lon="5.47939">
        <ele>387.9</ele>
        <time>2025-10-18T13:04:51Z</time>
      </trkpt>
      <trkpt lat="43.22319" lon="5.47939">
        <ele>387.5</ele>
        <time>2025-10-18T13:04:52Z</time>
      </trkpt>
      <trkpt lat="43.22318" lon="5.47939">
        <ele>387.2</ele>
        <time>2025-10-18T13:04:53Z</time>
      </trkpt>
      <trkpt lat="43.22317" lon="5.47939">
        <ele>387</ele>
        <time>2025-10-18T13:04:54Z</time>
      </trkpt>
      <trkpt lat="43.22316" lon="5.47939">
        <ele>386.8</ele>
        <time>2025-10-18T13:04:55Z</time>
      </trkpt>
      <trkpt lat="43.22316" lon="5.4794">
        <ele>386.7</ele>
        <time>2025-10-18T13:04:56Z</time>
      </trkpt>
      <trkpt lat="43.22315" lon="5.47941">
        <ele>386.7</ele>
        <time>2025-10-18T13:04:57Z</time>
      </trkpt>
      <trkpt lat="43.22314" lon="5.47941">
        <ele>386.6</ele>
        <time>2025-10-18T13:04:58Z</time>
      </trkpt>
      <trkpt lat="43.22314" lon="5.47942">
        <ele>386.7</ele>
        <time>2025-10-18T13:04:59Z</time>
      </trkpt>
      <trkpt lat="43.22314" lon="5.47943">
        <ele>386.7</ele>
        <time>2025-10-18T13:05:00Z</time>
      </trkpt>
      <trkpt lat="43.22314" lon="5.47943">
        <ele>386.6</ele>
        <time>2025-10-18T13:05:01Z</time>
      </trkpt>
      <trkpt lat="43.22314" lon="5.47942">
        <ele>386.4</ele>
        <time>2025-10-18T13:05:02Z</time>
      </trkpt>
      <trkpt lat="43.22314" lon="5.47942">
        <ele>386.3</ele>
        <time>2025-10-18T13:05:03Z</time>
      </trkpt>
      <trkpt lat="43.22314" lon="5.47942">
        <ele>386.1</ele>
        <time>2025-10-18T13:05:04Z</time>
      </trkpt>
      <trkpt lat="43.22313" lon="5.47942">
        <ele>386</ele>
        <time>2025-10-18T13:05:05Z</time>
      </trkpt>
      <trkpt lat="43.22313" lon="5.47942">
        <ele>386.1</ele>
        <time>2025-10-18T13:05:06Z</time>
      </trkpt>
      <trkpt lat="43.22313" lon="5.47942">
        <ele>386.1</ele>
        <time>2025-10-18T13:05:07Z</time>
      </trkpt>
      <trkpt lat="43.22312" lon="5.47942">
        <ele>386.1</ele>
        <time>2025-10-18T13:05:08Z</time>
      </trkpt>
      <trkpt lat="43.22312" lon="5.47942">
        <ele>386</ele>
        <time>2025-10-18T13:05:09Z</time>
      </trkpt>
      <trkpt lat="43.22312" lon="5.47942">
        <ele>386</ele>
        <time>2025-10-18T13:05:10Z</time>
      </trkpt>
      <trkpt lat="43.22311" lon="5.47942">
        <ele>386</ele>
        <time>2025-10-18T13:05:11Z</time>
      </trkpt>
      <trkpt lat="43.22311" lon="5.47943">
        <ele>385.9</ele>
        <time>2025-10-18T13:05:12Z</time>
      </trkpt>
      <trkpt lat="43.22311" lon="5.47942">
        <ele>385.8</ele>
        <time>2025-10-18T13:05:13Z</time>
      </trkpt>
      <trkpt lat="43.22311" lon="5.47942">
        <ele>385.7</ele>
        <time>2025-10-18T13:05:14Z</time>
      </trkpt>
      <trkpt lat="43.22311" lon="5.47942">
        <ele>385.6</ele>
        <time>2025-10-18T13:05:15Z</time>
      </trkpt>
      <trkpt lat="43.22311" lon="5.47942">
        <ele>385.5</ele>
        <time>2025-10-18T13:05:16Z</time>
      </trkpt>
      <trkpt lat="43.22311" lon="5.47942">
        <ele>385.5</ele>
        <time>2025-10-18T13:05:17Z</time>
      </trkpt>
      <trkpt lat="43.22311" lon="5.47942">
        <ele>385.4</ele>
        <time>2025-10-18T13:05:18Z</time>
      </trkpt>
      <trkpt lat="43.2231" lon="5.47941">
        <ele>385.3</ele>
        <time>2025-10-18T13:05:19Z</time>
      </trkpt>
      <trkpt lat="43.22309" lon="5.47941">
        <ele>385.2</ele>
        <time>2025-10-18T13:05:20Z</time>
      </trkpt>
      <trkpt lat="43.22308" lon="5.47941">
        <ele>385.2</ele>
        <time>2025-10-18T13:05:21Z</time>
      </trkpt>
      <trkpt lat="43.22308" lon="5.47941">
        <ele>385.1</ele>
        <time>2025-10-18T13:05:22Z</time>
      </trkpt>
      <trkpt lat="43.22307" lon="5.47941">
        <ele>385.3</ele>
        <time>2025-10-18T13:05:23Z</time>
      </trkpt>
      <trkpt lat="43.22307" lon="5.47941">
        <ele>385.4</ele>
        <time>2025-10-18T13:05:24Z</time>
      </trkpt>
      <trkpt lat="43.22306" lon="5.47941">
        <ele>385.5</ele>
        <time>2025-10-18T13:05:25Z</time>
      </trkpt>
      <trkpt lat="43.22306" lon="5.47941">
        <ele>385.6</ele>
        <time>2025-10-18T13:05:26Z</time>
      </trkpt>
      <trkpt lat="43.22306" lon="5.4794">
        <ele>385.7</ele>
        <time>2025-10-18T13:05:27Z</time>
      </trkpt>
      <trkpt lat="43.22306" lon="5.4794">
        <ele>385.8</ele>
        <time>2025-10-18T13:05:28Z</time>
      </trkpt>
      <trkpt lat="43.22306" lon="5.4794">
        <ele>385.9</ele>
        <time>2025-10-18T13:05:29Z</time>
      </trkpt>
      <trkpt lat="43.22306" lon="5.47941">
        <ele>385.9</ele>
        <time>2025-10-18T13:05:30Z</time>
      </trkpt>
      <trkpt lat="43.22305" lon="5.47941">
        <ele>386</ele>
        <time>2025-10-18T13:05:31Z</time>
      </trkpt>
      <trkpt lat="43.22305" lon="5.47941">
        <ele>386.1</ele>
        <time>2025-10-18T13:05:32Z</time>
      </trkpt>
      <trkpt lat="43.22305" lon="5.47941">
        <ele>386.3</ele>
        <time>2025-10-18T13:05:33Z</time>
      </trkpt>
      <trkpt lat="43.22305" lon="5.4794">
        <ele>386.3</ele>
        <time>2025-10-18T13:05:34Z</time>
      </trkpt>
      <trkpt lat="43.22305" lon="5.4794">
        <ele>386.3</ele>
        <time>2025-10-18T13:05:35Z</time>
      </trkpt>
      <trkpt lat="43.22305" lon="5.4794">
        <ele>386.3</ele>
        <time>2025-10-18T13:05:36Z</time>
      </trkpt>
      <trkpt lat="43.22305" lon="5.4794">
        <ele>386.3</ele>
        <time>2025-10-18T13:05:37Z</time>
      </trkpt>
      <trkpt lat="43.22305" lon="5.4794">
        <ele>386.3</ele>
        <time>2025-10-18T13:05:38Z</time>
      </trkpt>
      <trkpt lat="43.22305" lon="5.47939">
        <ele>386.3</ele>
        <time>2025-10-18T13:05:39Z</time>
      </trkpt>
      <trkpt lat="43.22305" lon="5.47939">
        <ele>386.2</ele>
        <time>2025-10-18T13:05:40Z</time>
      </trkpt>
      <trkpt lat="43.22305" lon="5.47939">
        <ele>386.2</ele>
        <time>2025-10-18T13:05:41Z</time>
      </trkpt>
      <trkpt lat="43.22305" lon="5.4794">
        <ele>386.2</ele>
        <time>2025-10-18T13:05:42Z</time>
      </trkpt>
      <trkpt lat="43.22305" lon="5.4794">
        <ele>386.2</ele>
        <time>2025-10-18T13:05:43Z</time>
      </trkpt>
      <trkpt lat="43.22305" lon="5.47939">
        <ele>386.2</ele>
        <time>2025-10-18T13:05:44Z</time>
      </trkpt>
      <trkpt lat="43.22305" lon="5.4794">
        <ele>386.1</ele>
        <time>2025-10-18T13:05:45Z</time>
      </trkpt>
      <trkpt lat="43.22305" lon="5.4794">
        <ele>386.1</ele>
        <time>2025-10-18T13:05:46Z</time>
      </trkpt>
      <trkpt lat="43.22305" lon="5.4794">
        <ele>386.1</ele>
        <time>2025-10-18T13:05:47Z</time>
      </trkpt>
      <trkpt lat="43.22305" lon="5.4794">
        <ele>386.2</ele>
        <time>2025-10-18T13:05:48Z</time>
      </trkpt>
      <trkpt lat="43.22305" lon="5.4794">
        <ele>386.2</ele>
        <time>2025-10-18T13:05:49Z</time>
      </trkpt>
      <trkpt lat="43.22305" lon="5.4794">
        <ele>386.2</ele>
        <time>2025-10-18T13:05:50Z</time>
      </trkpt>
      <trkpt lat="43.22305" lon="5.4794">
        <ele>386.3</ele>
        <time>2025-10-18T13:05:51Z</time>
      </trkpt>
      <trkpt lat="43.22306" lon="5.4794">
        <ele>386.3</ele>
        <time>2025-10-18T13:05:52Z</time>
      </trkpt>
      <trkpt lat="43.22306" lon="5.4794">
        <ele>386.3</ele>
        <time>2025-10-18T13:05:53Z</time>
      </trkpt>
      <trkpt lat="43.22306" lon="5.4794">
        <ele>386.3</ele>
        <time>2025-10-18T13:05:54Z</time>
      </trkpt>
      <trkpt lat="43.22306" lon="5.4794">
        <ele>386.3</ele>
        <time>2025-10-18T13:05:55Z</time>
      </trkpt>
      <trkpt lat="43.22306" lon="5.4794">
        <ele>386.3</ele>
        <time>2025-10-18T13:05:56Z</time>
      </trkpt>
      <trkpt lat="43.22306" lon="5.4794">
        <ele>386.3</ele>
        <time>2025-10-18T13:05:57Z</time>
      </trkpt>
      <trkpt lat="43.22306" lon="5.4794">
        <ele>386.3</ele>
        <time>2025-10-18T13:05:58Z</time>
      </trkpt>
      <trkpt lat="43.22306" lon="5.4794">
        <ele>386.4</ele>
        <time>2025-10-18T13:05:59Z</time>
      </trkpt>
      <trkpt lat="43.22306" lon="5.4794">
        <ele>386.5</ele>
        <time>2025-10-18T13:06:00Z</time>
      </trkpt>
      <trkpt lat="43.22306" lon="5.47941">
        <ele>386.5</ele>
        <time>2025-10-18T13:06:01Z</time>
      </trkpt>
      <trkpt lat="43.22306" lon="5.47941">
        <ele>386.6</ele>
        <time>2025-10-18T13:06:02Z</time>
      </trkpt>
      <trkpt lat="43.22306" lon="5.47941">
        <ele>386.5</ele>
        <time>2025-10-18T13:06:03Z</time>
      </trkpt>
      <trkpt lat="43.22306" lon="5.47941">
        <ele>386.5</ele>
        <time>2025-10-18T13:06:04Z</time>
      </trkpt>
      <trkpt lat="43.22307" lon="5.4794">
        <ele>386.5</ele>
        <time>2025-10-18T13:06:05Z</time>
      </trkpt>
      <trkpt lat="43.22306" lon="5.4794">
        <ele>386.5</ele>
        <time>2025-10-18T13:06:06Z</time>
      </trkpt>
      <trkpt lat="43.22306" lon="5.47941">
        <ele>386.6</ele>
        <time>2025-10-18T13:06:07Z</time>
      </trkpt>
      <trkpt lat="43.22306" lon="5.47941">
        <ele>386.6</ele>
        <time>2025-10-18T13:06:08Z</time>
      </trkpt>
      <trkpt lat="43.22306" lon="5.47941">
        <ele>386.6</ele>
        <time>2025-10-18T13:06:09Z</time>
      </trkpt>
      <trkpt lat="43.22306" lon="5.47941">
        <ele>386.5</ele>
        <time>2025-10-18T13:06:10Z</time>
      </trkpt>
      <trkpt lat="43.22307" lon="5.47941">
        <ele>386.5</ele>
        <time>2025-10-18T13:06:11Z</time>
      </trkpt>
      <trkpt lat="43.22307" lon="5.47941">
        <ele>386.5</ele>
        <time>2025-10-18T13:06:12Z</time>
      </trkpt>
      <trkpt lat="43.22308" lon="5.47942">
        <ele>386.5</ele>
        <time>2025-10-18T13:06:13Z</time>
      </trkpt>
      <trkpt lat="43.22309" lon="5.47942">
        <ele>386.4</ele>
        <time>2025-10-18T13:06:14Z</time>
      </trkpt>
      <trkpt lat="43.22309" lon="5.47942">
        <ele>386.2</ele>
        <time>2025-10-18T13:06:15Z</time>
      </trkpt>
      <trkpt lat="43.22309" lon="5.47942">
        <ele>386</ele>
        <time>2025-10-18T13:06:16Z</time>
      </trkpt>
      <trkpt lat="43.22309" lon="5.47942">
        <ele>385.9</ele>
        <time>2025-10-18T13:06:17Z</time>
      </trkpt>
      <trkpt lat="43.22309" lon="5.47942">
        <ele>385.7</ele>
        <time>2025-10-18T13:06:18Z</time>
      </trkpt>
      <trkpt lat="43.22309" lon="5.47942">
        <ele>385.7</ele>
        <time>2025-10-18T13:06:19Z</time>
      </trkpt>
      <trkpt lat="43.22309" lon="5.47943">
        <ele>385.6</ele>
        <time>2025-10-18T13:06:20Z</time>
      </trkpt>
      <trkpt lat="43.22309" lon="5.47943">
        <ele>385.6</ele>
        <time>2025-10-18T13:06:21Z</time>
      </trkpt>
      <trkpt lat="43.22309" lon="5.47943">
        <ele>385.6</ele>
        <time>2025-10-18T13:06:22Z</time>
      </trkpt>
      <trkpt lat="43.2231" lon="5.47943">
        <ele>385.5</ele>
        <time>2025-10-18T13:06:23Z</time>
      </trkpt>
      <trkpt lat="43.2231" lon="5.47943">
        <ele>385.5</ele>
        <time>2025-10-18T13:06:24Z</time>
      </trkpt>
      <trkpt lat="43.2231" lon="5.47943">
        <ele>385.5</ele>
        <time>2025-10-18T13:06:25Z</time>
      </trkpt>
      <trkpt lat="43.2231" lon="5.47943">
        <ele>385.6</ele>
        <time>2025-10-18T13:06:26Z</time>
      </trkpt>
      <trkpt lat="43.2231" lon="5.47943">
        <ele>385.7</ele>
        <time>2025-10-18T13:06:27Z</time>
      </trkpt>
      <trkpt lat="43.2231" lon="5.47943">
        <ele>385.7</ele>
        <time>2025-10-18T13:06:28Z</time>
      </trkpt>
      <trkpt lat="43.2231" lon="5.47943">
        <ele>385.8</ele>
        <time>2025-10-18T13:06:29Z</time>
      </trkpt>
      <trkpt lat="43.2231" lon="5.47943">
        <ele>385.8</ele>
        <time>2025-10-18T13:06:30Z</time>
      </trkpt>
      <trkpt lat="43.22311" lon="5.47943">
        <ele>385.9</ele>
        <time>2025-10-18T13:06:31Z</time>
      </trkpt>
      <trkpt lat="43.22312" lon="5.47944">
        <ele>386</ele>
        <time>2025-10-18T13:06:32Z</time>
      </trkpt>
      <trkpt lat="43.22313" lon="5.47944">
        <ele>386.1</ele>
        <time>2025-10-18T13:06:33Z</time>
      </trkpt>
      <trkpt lat="43.22313" lon="5.47943">
        <ele>386.2</ele>
        <time>2025-10-18T13:06:34Z</time>
      </trkpt>
      <trkpt lat="43.22313" lon="5.47943">
        <ele>386.2</ele>
        <time>2025-10-18T13:06:35Z</time>
      </trkpt>
      <trkpt lat="43.22314" lon="5.47943">
        <ele>386.3</ele>
        <time>2025-10-18T13:06:36Z</time>
      </trkpt>
      <trkpt lat="43.22314" lon="5.47943">
        <ele>386.3</ele>
        <time>2025-10-18T13:06:37Z</time>
      </trkpt>
      <trkpt lat="43.22315" lon="5.47942">
        <ele>386.3</ele>
        <time>2025-10-18T13:06:38Z</time>
      </trkpt>
      <trkpt lat="43.22315" lon="5.47942">
        <ele>386.3</ele>
        <time>2025-10-18T13:06:39Z</time>
      </trkpt>
      <trkpt lat="43.22316" lon="5.47942">
        <ele>386.3</ele>
        <time>2025-10-18T13:06:40Z</time>
      </trkpt>
      <trkpt lat="43.22317" lon="5.47941">
        <ele>386.3</ele>
        <time>2025-10-18T13:06:41Z</time>
      </trkpt>
      <trkpt lat="43.22317" lon="5.47941">
        <ele>386.4</ele>
        <time>2025-10-18T13:06:42Z</time>
      </trkpt>
      <trkpt lat="43.22317" lon="5.47941">
        <ele>386.6</ele>
        <time>2025-10-18T13:06:43Z</time>
      </trkpt>
      <trkpt lat="43.22318" lon="5.4794">
        <ele>386.8</ele>
        <time>2025-10-18T13:06:44Z</time>
      </trkpt>
      <trkpt lat="43.22319" lon="5.4794">
        <ele>387</ele>
        <time>2025-10-18T13:06:45Z</time>
      </trkpt>
      <trkpt lat="43.22319" lon="5.4794">
        <ele>387.2</ele>
        <time>2025-10-18T13:06:46Z</time>
      </trkpt>
      <trkpt lat="43.2232" lon="5.4794">
        <ele>387.4</ele>
        <time>2025-10-18T13:06:47Z</time>
      </trkpt>
      <trkpt lat="43.2232" lon="5.47939">
        <ele>387.5</ele>
        <time>2025-10-18T13:06:48Z</time>
      </trkpt>
      <trkpt lat="43.2232" lon="5.47939">
        <ele>387.7</ele>
        <time>2025-10-18T13:06:49Z</time>
      </trkpt>
      <trkpt lat="43.22321" lon="5.47938">
        <ele>387.8</ele>
        <time>2025-10-18T13:06:50Z</time>
      </trkpt>
      <trkpt lat="43.22321" lon="5.47938">
        <ele>388</ele>
        <time>2025-10-18T13:06:51Z</time>
      </trkpt>
      <trkpt lat="43.22322" lon="5.47938">
        <ele>388.3</ele>
        <time>2025-10-18T13:06:52Z</time>
      </trkpt>
      <trkpt lat="43.22322" lon="5.47938">
        <ele>388.4</ele>
        <time>2025-10-18T13:06:53Z</time>
      </trkpt>
      <trkpt lat="43.22322" lon="5.47938">
        <ele>388.6</ele>
        <time>2025-10-18T13:06:54Z</time>
      </trkpt>
      <trkpt lat="43.22322" lon="5.47939">
        <ele>388.8</ele>
        <time>2025-10-18T13:06:55Z</time>
      </trkpt>
      <trkpt lat="43.22322" lon="5.4794">
        <ele>388.9</ele>
        <time>2025-10-18T13:06:56Z</time>
      </trkpt>
      <trkpt lat="43.22323" lon="5.4794">
        <ele>389</ele>
        <time>2025-10-18T13:06:57Z</time>
      </trkpt>
      <trkpt lat="43.22323" lon="5.4794">
        <ele>389</ele>
        <time>2025-10-18T13:06:58Z</time>
      </trkpt>
      <trkpt lat="43.22324" lon="5.4794">
        <ele>389.1</ele>
        <time>2025-10-18T13:06:59Z</time>
      </trkpt>
      <trkpt lat="43.22325" lon="5.47941">
        <ele>389.1</ele>
        <time>2025-10-18T13:07:00Z</time>
      </trkpt>
      <trkpt lat="43.22325" lon="5.47941">
        <ele>389.2</ele>
        <time>2025-10-18T13:07:01Z</time>
      </trkpt>
      <trkpt lat="43.22325" lon="5.47941">
        <ele>389.2</ele>
        <time>2025-10-18T13:07:02Z</time>
      </trkpt>
      <trkpt lat="43.22325" lon="5.47941">
        <ele>389.2</ele>
        <time>2025-10-18T13:07:03Z</time>
      </trkpt>
      <trkpt lat="43.22325" lon="5.47941">
        <ele>389.2</ele>
        <time>2025-10-18T13:07:04Z</time>
      </trkpt>
      <trkpt lat="43.22325" lon="5.47941">
        <ele>389.1</ele>
        <time>2025-10-18T13:07:05Z</time>
      </trkpt>
      <trkpt lat="43.22325" lon="5.47941">
        <ele>389.1</ele>
        <time>2025-10-18T13:07:06Z</time>
      </trkpt>
      <trkpt lat="43.22325" lon="5.47941">
        <ele>389.1</ele>
        <time>2025-10-18T13:07:07Z</time>
      </trkpt>
      <trkpt lat="43.22326" lon="5.47942">
        <ele>389</ele>
        <time>2025-10-18T13:07:08Z</time>
      </trkpt>
      <trkpt lat="43.22326" lon="5.47941">
        <ele>389</ele>
        <time>2025-10-18T13:07:09Z</time>
      </trkpt>
      <trkpt lat="43.22327" lon="5.4794">
        <ele>389</ele>
        <time>2025-10-18T13:07:10Z</time>
      </trkpt>
      <trkpt lat="43.22327" lon="5.47939">
        <ele>389.1</ele>
        <time>2025-10-18T13:07:11Z</time>
      </trkpt>
      <trkpt lat="43.22326" lon="5.47938">
        <ele>389</ele>
        <time>2025-10-18T13:07:12Z</time>
      </trkpt>
      <trkpt lat="43.22326" lon="5.47937">
        <ele>389.5</ele>
        <time>2025-10-18T13:07:13Z</time>
      </trkpt>
      <trkpt lat="43.22326" lon="5.47936">
        <ele>389.6</ele>
        <time>2025-10-18T13:07:14Z</time>
      </trkpt>
      <trkpt lat="43.22326" lon="5.47935">
        <ele>389.7</ele>
        <time>2025-10-18T13:07:15Z</time>
      </trkpt>
      <trkpt lat="43.22326" lon="5.47934">
        <ele>389.8</ele>
        <time>2025-10-18T13:07:16Z</time>
      </trkpt>
      <trkpt lat="43.22327" lon="5.47934">
        <ele>389.7</ele>
        <time>2025-10-18T13:07:17Z</time>
      </trkpt>
      <trkpt lat="43.22327" lon="5.47934">
        <ele>389.9</ele>
        <time>2025-10-18T13:07:18Z</time>
      </trkpt>
      <trkpt lat="43.22328" lon="5.47933">
        <ele>390.1</ele>
        <time>2025-10-18T13:07:19Z</time>
      </trkpt>
      <trkpt lat="43.22328" lon="5.47933">
        <ele>390.4</ele>
        <time>2025-10-18T13:07:20Z</time>
      </trkpt>
      <trkpt lat="43.22329" lon="5.47932">
        <ele>390.6</ele>
        <time>2025-10-18T13:07:21Z</time>
      </trkpt>
      <trkpt lat="43.22329" lon="5.47932">
        <ele>390.8</ele>
        <time>2025-10-18T13:07:22Z</time>
      </trkpt>
      <trkpt lat="43.2233" lon="5.47932">
        <ele>390.9</ele>
        <time>2025-10-18T13:07:23Z</time>
      </trkpt>
      <trkpt lat="43.2233" lon="5.47932">
        <ele>391</ele>
        <time>2025-10-18T13:07:24Z</time>
      </trkpt>
      <trkpt lat="43.2233" lon="5.47932">
        <ele>391.3</ele>
        <time>2025-10-18T13:07:25Z</time>
      </trkpt>
      <trkpt lat="43.2233" lon="5.47932">
        <ele>391.4</ele>
        <time>2025-10-18T13:07:26Z</time>
      </trkpt>
      <trkpt lat="43.2233" lon="5.47932">
        <ele>391.6</ele>
        <time>2025-10-18T13:07:27Z</time>
      </trkpt>
      <trkpt lat="43.22331" lon="5.47932">
        <ele>391.8</ele>
        <time>2025-10-18T13:07:28Z</time>
      </trkpt>
      <trkpt lat="43.2233" lon="5.47932">
        <ele>392</ele>
        <time>2025-10-18T13:07:29Z</time>
      </trkpt>
      <trkpt lat="43.22331" lon="5.47932">
        <ele>392.1</ele>
        <time>2025-10-18T13:07:30Z</time>
      </trkpt>
      <trkpt lat="43.22331" lon="5.47932">
        <ele>392.2</ele>
        <time>2025-10-18T13:07:31Z</time>
      </trkpt>
      <trkpt lat="43.22331" lon="5.47933">
        <ele>392.3</ele>
        <time>2025-10-18T13:07:32Z</time>
      </trkpt>
      <trkpt lat="43.22332" lon="5.47933">
        <ele>392.4</ele>
        <time>2025-10-18T13:07:33Z</time>
      </trkpt>
      <trkpt lat="43.22332" lon="5.47933">
        <ele>392.3</ele>
        <time>2025-10-18T13:07:34Z</time>
      </trkpt>
      <trkpt lat="43.22332" lon="5.47933">
        <ele>392.2</ele>
        <time>2025-10-18T13:07:35Z</time>
      </trkpt>
      <trkpt lat="43.22333" lon="5.47933">
        <ele>392.2</ele>
        <time>2025-10-18T13:07:36Z</time>
      </trkpt>
      <trkpt lat="43.22333" lon="5.47933">
        <ele>392.2</ele>
        <time>2025-10-18T13:07:37Z</time>
      </trkpt>
      <trkpt lat="43.22333" lon="5.47933">
        <ele>392.2</ele>
        <time>2025-10-18T13:07:38Z</time>
      </trkpt>
      <trkpt lat="43.22333" lon="5.47932">
        <ele>392.2</ele>
        <time>2025-10-18T13:07:39Z</time>
      </trkpt>
      <trkpt lat="43.22333" lon="5.47932">
        <ele>392.2</ele>
        <time>2025-10-18T13:07:40Z</time>
      </trkpt>
      <trkpt lat="43.22333" lon="5.47932">
        <ele>392.2</ele>
        <time>2025-10-18T13:07:41Z</time>
      </trkpt>
      <trkpt lat="43.22333" lon="5.47932">
        <ele>392.2</ele>
        <time>2025-10-18T13:07:42Z</time>
      </trkpt>
      <trkpt lat="43.22333" lon="5.47932">
        <ele>392.3</ele>
        <time>2025-10-18T13:07:43Z</time>
      </trkpt>
      <trkpt lat="43.22332" lon="5.47931">
        <ele>392.3</ele>
        <time>2025-10-18T13:07:44Z</time>
      </trkpt>
      <trkpt lat="43.22332" lon="5.47931">
        <ele>392.4</ele>
        <time>2025-10-18T13:07:45Z</time>
      </trkpt>
      <trkpt lat="43.22332" lon="5.47931">
        <ele>392.4</ele>
        <time>2025-10-18T13:07:46Z</time>
      </trkpt>
      <trkpt lat="43.22332" lon="5.47931">
        <ele>392.5</ele>
        <time>2025-10-18T13:07:47Z</time>
      </trkpt>
      <trkpt lat="43.22332" lon="5.4793">
        <ele>392.5</ele>
        <time>2025-10-18T13:07:48Z</time>
      </trkpt>
      <trkpt lat="43.22332" lon="5.4793">
        <ele>392.5</ele>
        <time>2025-10-18T13:07:49Z</time>
      </trkpt>
      <trkpt lat="43.22333" lon="5.4793">
        <ele>392.4</ele>
        <time>2025-10-18T13:07:50Z</time>
      </trkpt>
      <trkpt lat="43.22333" lon="5.47929">
        <ele>392.4</ele>
        <time>2025-10-18T13:07:51Z</time>
      </trkpt>
      <trkpt lat="43.22333" lon="5.4793">
        <ele>392.4</ele>
        <time>2025-10-18T13:07:52Z</time>
      </trkpt>
      <trkpt lat="43.22333" lon="5.4793">
        <ele>392.5</ele>
        <time>2025-10-18T13:07:53Z</time>
      </trkpt>
      <trkpt lat="43.22333" lon="5.4793">
        <ele>392.4</ele>
        <time>2025-10-18T13:07:54Z</time>
      </trkpt>
      <trkpt lat="43.22333" lon="5.47929">
        <ele>392.3</ele>
        <time>2025-10-18T13:07:55Z</time>
      </trkpt>
      <trkpt lat="43.22333" lon="5.47929">
        <ele>392.3</ele>
        <time>2025-10-18T13:07:56Z</time>
      </trkpt>
      <trkpt lat="43.22333" lon="5.47929">
        <ele>392.4</ele>
        <time>2025-10-18T13:07:57Z</time>
      </trkpt>
      <trkpt lat="43.22333" lon="5.47929">
        <ele>392.4</ele>
        <time>2025-10-18T13:07:58Z</time>
      </trkpt>
      <trkpt lat="43.22333" lon="5.47929">
        <ele>392.5</ele>
        <time>2025-10-18T13:07:59Z</time>
      </trkpt>
      <trkpt lat="43.22333" lon="5.47929">
        <ele>392.5</ele>
        <time>2025-10-18T13:08:00Z</time>
      </trkpt>
      <trkpt lat="43.22333" lon="5.47929">
        <ele>392.5</ele>
        <time>2025-10-18T13:08:01Z</time>
      </trkpt>
      <trkpt lat="43.22333" lon="5.47929">
        <ele>392.5</ele>
        <time>2025-10-18T13:08:02Z</time>
      </trkpt>
      <trkpt lat="43.22333" lon="5.47929">
        <ele>392.5</ele>
        <time>2025-10-18T13:08:03Z</time>
      </trkpt>
      <trkpt lat="43.22333" lon="5.47929">
        <ele>392.6</ele>
        <time>2025-10-18T13:08:04Z</time>
      </trkpt>
      <trkpt lat="43.22333" lon="5.47929">
        <ele>392.7</ele>
        <time>2025-10-18T13:08:05Z</time>
      </trkpt>
      <trkpt lat="43.22333" lon="5.47928">
        <ele>392.6</ele>
        <time>2025-10-18T13:08:06Z</time>
      </trkpt>
      <trkpt lat="43.22333" lon="5.47928">
        <ele>392.6</ele>
        <time>2025-10-18T13:08:07Z</time>
      </trkpt>
      <trkpt lat="43.22333" lon="5.47928">
        <ele>392.7</ele>
        <time>2025-10-18T13:08:08Z</time>
      </trkpt>
      <trkpt lat="43.22333" lon="5.47928">
        <ele>392.7</ele>
        <time>2025-10-18T13:08:09Z</time>
      </trkpt>
      <trkpt lat="43.22333" lon="5.47928">
        <ele>392.7</ele>
        <time>2025-10-18T13:08:10Z</time>
      </trkpt>
      <trkpt lat="43.22334" lon="5.47928">
        <ele>392.7</ele>
        <time>2025-10-18T13:08:11Z</time>
      </trkpt>
      <trkpt lat="43.22334" lon="5.47928">
        <ele>392.6</ele>
        <time>2025-10-18T13:08:12Z</time>
      </trkpt>
      <trkpt lat="43.22334" lon="5.47928">
        <ele>392.6</ele>
        <time>2025-10-18T13:08:13Z</time>
      </trkpt>
      <trkpt lat="43.22334" lon="5.47928">
        <ele>392.6</ele>
        <time>2025-10-18T13:08:14Z</time>
      </trkpt>
      <trkpt lat="43.22334" lon="5.47928">
        <ele>392.5</ele>
        <time>2025-10-18T13:08:15Z</time>
      </trkpt>
      <trkpt lat="43.22333" lon="5.47928">
        <ele>392.5</ele>
        <time>2025-10-18T13:08:16Z</time>
      </trkpt>
      <trkpt lat="43.22334" lon="5.47928">
        <ele>392.5</ele>
        <time>2025-10-18T13:08:17Z</time>
      </trkpt>
      <trkpt lat="43.22333" lon="5.47928">
        <ele>392.5</ele>
        <time>2025-10-18T13:08:18Z</time>
      </trkpt>
      <trkpt lat="43.22333" lon="5.47928">
        <ele>392.5</ele>
        <time>2025-10-18T13:08:19Z</time>
      </trkpt>
      <trkpt lat="43.22333" lon="5.47928">
        <ele>392.4</ele>
        <time>2025-10-18T13:08:20Z</time>
      </trkpt>
      <trkpt lat="43.22333" lon="5.47928">
        <ele>392.4</ele>
        <time>2025-10-18T13:08:21Z</time>
      </trkpt>
      <trkpt lat="43.22333" lon="5.47928">
        <ele>392.3</ele>
        <time>2025-10-18T13:08:22Z</time>
      </trkpt>
      <trkpt lat="43.22333" lon="5.47928">
        <ele>392.2</ele>
        <time>2025-10-18T13:08:23Z</time>
      </trkpt>
      <trkpt lat="43.22333" lon="5.47928">
        <ele>392.2</ele>
        <time>2025-10-18T13:08:24Z</time>
      </trkpt>
      <trkpt lat="43.22333" lon="5.47928">
        <ele>392.2</ele>
        <time>2025-10-18T13:08:25Z</time>
      </trkpt>
      <trkpt lat="43.22333" lon="5.47928">
        <ele>392.2</ele>
        <time>2025-10-18T13:08:26Z</time>
      </trkpt>
      <trkpt lat="43.22333" lon="5.47928">
        <ele>392.2</ele>
        <time>2025-10-18T13:08:27Z</time>
      </trkpt>
      <trkpt lat="43.22333" lon="5.47928">
        <ele>392.2</ele>
        <time>2025-10-18T13:08:28Z</time>
      </trkpt>
      <trkpt lat="43.22334" lon="5.47928">
        <ele>392.2</ele>
        <time>2025-10-18T13:08:29Z</time>
      </trkpt>
      <trkpt lat="43.22334" lon="5.47928">
        <ele>392.2</ele>
        <time>2025-10-18T13:08:30Z</time>
      </trkpt>
      <trkpt lat="43.22334" lon="5.47928">
        <ele>392.2</ele>
        <time>2025-10-18T13:08:31Z</time>
      </trkpt>
      <trkpt lat="43.22334" lon="5.47928">
        <ele>392.2</ele>
        <time>2025-10-18T13:08:32Z</time>
      </trkpt>
      <trkpt lat="43.22334" lon="5.47929">
        <ele>392.2</ele>
        <time>2025-10-18T13:08:33Z</time>
      </trkpt>
      <trkpt lat="43.22334" lon="5.47929">
        <ele>392.1</ele>
        <time>2025-10-18T13:08:34Z</time>
      </trkpt>
      <trkpt lat="43.22334" lon="5.47929">
        <ele>392.1</ele>
        <time>2025-10-18T13:08:35Z</time>
      </trkpt>
      <trkpt lat="43.22334" lon="5.47929">
        <ele>392.1</ele>
        <time>2025-10-18T13:08:36Z</time>
      </trkpt>
      <trkpt lat="43.22335" lon="5.47929">
        <ele>392.1</ele>
        <time>2025-10-18T13:08:37Z</time>
      </trkpt>
      <trkpt lat="43.22335" lon="5.47929">
        <ele>392.1</ele>
        <time>2025-10-18T13:08:38Z</time>
      </trkpt>
      <trkpt lat="43.22335" lon="5.47929">
        <ele>392.2</ele>
        <time>2025-10-18T13:08:39Z</time>
      </trkpt>
      <trkpt lat="43.22335" lon="5.47929">
        <ele>392.3</ele>
        <time>2025-10-18T13:08:40Z</time>
      </trkpt>
      <trkpt lat="43.22335" lon="5.47929">
        <ele>392.4</ele>
        <time>2025-10-18T13:08:41Z</time>
      </trkpt>
      <trkpt lat="43.22335" lon="5.47929">
        <ele>392.5</ele>
        <time>2025-10-18T13:08:42Z</time>
      </trkpt>
      <trkpt lat="43.22335" lon="5.47929">
        <ele>392.6</ele>
        <time>2025-10-18T13:08:43Z</time>
      </trkpt>
      <trkpt lat="43.22336" lon="5.47929">
        <ele>392.6</ele>
        <time>2025-10-18T13:08:44Z</time>
      </trkpt>
      <trkpt lat="43.22336" lon="5.47929">
        <ele>392.6</ele>
        <time>2025-10-18T13:08:45Z</time>
      </trkpt>
      <trkpt lat="43.22335" lon="5.47929">
        <ele>392.6</ele>
        <time>2025-10-18T13:08:46Z</time>
      </trkpt>
      <trkpt lat="43.22335" lon="5.47929">
        <ele>392.6</ele>
        <time>2025-10-18T13:08:47Z</time>
      </trkpt>
      <trkpt lat="43.22335" lon="5.47929">
        <ele>392.5</ele>
        <time>2025-10-18T13:08:48Z</time>
      </trkpt>
      <trkpt lat="43.22335" lon="5.47929">
        <ele>392.5</ele>
        <time>2025-10-18T13:08:49Z</time>
      </trkpt>
      <trkpt lat="43.22335" lon="5.47929">
        <ele>392.6</ele>
        <time>2025-10-18T13:08:50Z</time>
      </trkpt>
      <trkpt lat="43.22335" lon="5.47929">
        <ele>392.7</ele>
        <time>2025-10-18T13:08:51Z</time>
      </trkpt>
      <trkpt lat="43.22335" lon="5.47929">
        <ele>392.7</ele>
        <time>2025-10-18T13:08:52Z</time>
      </trkpt>
      <trkpt lat="43.22335" lon="5.47929">
        <ele>392.7</ele>
        <time>2025-10-18T13:08:53Z</time>
      </trkpt>
      <trkpt lat="43.22335" lon="5.4793">
        <ele>392.6</ele>
        <time>2025-10-18T13:08:54Z</time>
      </trkpt>
      <trkpt lat="43.22335" lon="5.4793">
        <ele>392.6</ele>
        <time>2025-10-18T13:08:55Z</time>
      </trkpt>
      <trkpt lat="43.22335" lon="5.4793">
        <ele>392.6</ele>
        <time>2025-10-18T13:08:56Z</time>
      </trkpt>
      <trkpt lat="43.22335" lon="5.4793">
        <ele>392.5</ele>
        <time>2025-10-18T13:08:57Z</time>
      </trkpt>
      <trkpt lat="43.22335" lon="5.4793">
        <ele>392.6</ele>
        <time>2025-10-18T13:08:58Z</time>
      </trkpt>
      <trkpt lat="43.22335" lon="5.4793">
        <ele>392.6</ele>
        <time>2025-10-18T13:08:59Z</time>
      </trkpt>
      <trkpt lat="43.22335" lon="5.47929">
        <ele>392.7</ele>
        <time>2025-10-18T13:09:00Z</time>
      </trkpt>
      <trkpt lat="43.22335" lon="5.47929">
        <ele>392.7</ele>
        <time>2025-10-18T13:09:01Z</time>
      </trkpt>
      <trkpt lat="43.22335" lon="5.47929">
        <ele>392.8</ele>
        <time>2025-10-18T13:09:02Z</time>
      </trkpt>
      <trkpt lat="43.22336" lon="5.47929">
        <ele>392.7</ele>
        <time>2025-10-18T13:09:03Z</time>
      </trkpt>
      <trkpt lat="43.22336" lon="5.47929">
        <ele>392.8</ele>
        <time>2025-10-18T13:09:04Z</time>
      </trkpt>
      <trkpt lat="43.22336" lon="5.47929">
        <ele>392.7</ele>
        <time>2025-10-18T13:09:05Z</time>
      </trkpt>
      <trkpt lat="43.22336" lon="5.47929">
        <ele>392.7</ele>
        <time>2025-10-18T13:09:06Z</time>
      </trkpt>
      <trkpt lat="43.22337" lon="5.47929">
        <ele>392.8</ele>
        <time>2025-10-18T13:09:07Z</time>
      </trkpt>
      <trkpt lat="43.22337" lon="5.47929">
        <ele>392.7</ele>
        <time>2025-10-18T13:09:08Z</time>
      </trkpt>
      <trkpt lat="43.22337" lon="5.47929">
        <ele>392.7</ele>
        <time>2025-10-18T13:09:09Z</time>
      </trkpt>
      <trkpt lat="43.22337" lon="5.47929">
        <ele>392.7</ele>
        <time>2025-10-18T13:09:10Z</time>
      </trkpt>
      <trkpt lat="43.22337" lon="5.47929">
        <ele>392.7</ele>
        <time>2025-10-18T13:09:11Z</time>
      </trkpt>
      <trkpt lat="43.22337" lon="5.47929">
        <ele>392.7</ele>
        <time>2025-10-18T13:09:12Z</time>
      </trkpt>
      <trkpt lat="43.22337" lon="5.47929">
        <ele>392.7</ele>
        <time>2025-10-18T13:09:13Z</time>
      </trkpt>
      <trkpt lat="43.22337" lon="5.47929">
        <ele>392.6</ele>
        <time>2025-10-18T13:09:14Z</time>
      </trkpt>
      <trkpt lat="43.22337" lon="5.4793">
        <ele>392.7</ele>
        <time>2025-10-18T13:09:15Z</time>
      </trkpt>
      <trkpt lat="43.22337" lon="5.4793">
        <ele>392.7</ele>
        <time>2025-10-18T13:09:16Z</time>
      </trkpt>
      <trkpt lat="43.22338" lon="5.47929">
        <ele>392.8</ele>
        <time>2025-10-18T13:09:17Z</time>
      </trkpt>
      <trkpt lat="43.22337" lon="5.47929">
        <ele>392.8</ele>
        <time>2025-10-18T13:09:18Z</time>
      </trkpt>
      <trkpt lat="43.22337" lon="5.47929">
        <ele>392.7</ele>
        <time>2025-10-18T13:09:19Z</time>
      </trkpt>
      <trkpt lat="43.22337" lon="5.4793">
        <ele>392.7</ele>
        <time>2025-10-18T13:09:20Z</time>
      </trkpt>
      <trkpt lat="43.22337" lon="5.4793">
        <ele>392.7</ele>
        <time>2025-10-18T13:09:21Z</time>
      </trkpt>
      <trkpt lat="43.22337" lon="5.4793">
        <ele>392.7</ele>
        <time>2025-10-18T13:09:22Z</time>
      </trkpt>
      <trkpt lat="43.22338" lon="5.4793">
        <ele>392.8</ele>
        <time>2025-10-18T13:09:23Z</time>
      </trkpt>
      <trkpt lat="43.22337" lon="5.4793">
        <ele>392.7</ele>
        <time>2025-10-18T13:09:24Z</time>
      </trkpt>
      <trkpt lat="43.22337" lon="5.4793">
        <ele>392.6</ele>
        <time>2025-10-18T13:09:25Z</time>
      </trkpt>
      <trkpt lat="43.22337" lon="5.4793">
        <ele>392.6</ele>
        <time>2025-10-18T13:09:26Z</time>
      </trkpt>
      <trkpt lat="43.22337" lon="5.4793">
        <ele>392.5</ele>
        <time>2025-10-18T13:09:27Z</time>
      </trkpt>
      <trkpt lat="43.22337" lon="5.4793">
        <ele>392.5</ele>
        <time>2025-10-18T13:09:28Z</time>
      </trkpt>
      <trkpt lat="43.22337" lon="5.47929">
        <ele>392.5</ele>
        <time>2025-10-18T13:09:29Z</time>
      </trkpt>
      <trkpt lat="43.22337" lon="5.47929">
        <ele>392.5</ele>
        <time>2025-10-18T13:09:30Z</time>
      </trkpt>
      <trkpt lat="43.22336" lon="5.47929">
        <ele>392.5</ele>
        <time>2025-10-18T13:09:31Z</time>
      </trkpt>
      <trkpt lat="43.22336" lon="5.47929">
        <ele>392.5</ele>
        <time>2025-10-18T13:09:32Z</time>
      </trkpt>
      <trkpt lat="43.22336" lon="5.47929">
        <ele>392.4</ele>
        <time>2025-10-18T13:09:33Z</time>
      </trkpt>
      <trkpt lat="43.22336" lon="5.47929">
        <ele>392.4</ele>
        <time>2025-10-18T13:09:34Z</time>
      </trkpt>
      <trkpt lat="43.22336" lon="5.47929">
        <ele>392.4</ele>
        <time>2025-10-18T13:09:35Z</time>
      </trkpt>
      <trkpt lat="43.22336" lon="5.47928">
        <ele>392.4</ele>
        <time>2025-10-18T13:09:36Z</time>
      </trkpt>
      <trkpt lat="43.22335" lon="5.47928">
        <ele>392.4</ele>
        <time>2025-10-18T13:09:37Z</time>
      </trkpt>
      <trkpt lat="43.22335" lon="5.47928">
        <ele>392.5</ele>
        <time>2025-10-18T13:09:38Z</time>
      </trkpt>
      <trkpt lat="43.22335" lon="5.47928">
        <ele>392.5</ele>
        <time>2025-10-18T13:09:39Z</time>
      </trkpt>
      <trkpt lat="43.22335" lon="5.47928">
        <ele>392.5</ele>
        <time>2025-10-18T13:09:40Z</time>
      </trkpt>
      <trkpt lat="43.22335" lon="5.47928">
        <ele>392.5</ele>
        <time>2025-10-18T13:09:41Z</time>
      </trkpt>
      <trkpt lat="43.22335" lon="5.47928">
        <ele>392.5</ele>
        <time>2025-10-18T13:09:42Z</time>
      </trkpt>
      <trkpt lat="43.22335" lon="5.47928">
        <ele>392.5</ele>
        <time>2025-10-18T13:09:43Z</time>
      </trkpt>
      <trkpt lat="43.22335" lon="5.47928">
        <ele>392.6</ele>
        <time>2025-10-18T13:09:44Z</time>
      </trkpt>
      <trkpt lat="43.22335" lon="5.47928">
        <ele>392.6</ele>
        <time>2025-10-18T13:09:45Z</time>
      </trkpt>
      <trkpt lat="43.22335" lon="5.47928">
        <ele>392.7</ele>
        <time>2025-10-18T13:09:46Z</time>
      </trkpt>
      <trkpt lat="43.22335" lon="5.47928">
        <ele>392.8</ele>
        <time>2025-10-18T13:09:47Z</time>
      </trkpt>
      <trkpt lat="43.22335" lon="5.47928">
        <ele>392.8</ele>
        <time>2025-10-18T13:09:48Z</time>
      </trkpt>
      <trkpt lat="43.22335" lon="5.47928">
        <ele>392.8</ele>
        <time>2025-10-18T13:09:49Z</time>
      </trkpt>
      <trkpt lat="43.22335" lon="5.47928">
        <ele>392.8</ele>
        <time>2025-10-18T13:09:50Z</time>
      </trkpt>
      <trkpt lat="43.22335" lon="5.47928">
        <ele>392.8</ele>
        <time>2025-10-18T13:09:51Z</time>
      </trkpt>
      <trkpt lat="43.22335" lon="5.47928">
        <ele>392.7</ele>
        <time>2025-10-18T13:09:52Z</time>
      </trkpt>
      <trkpt lat="43.22335" lon="5.47928">
        <ele>392.8</ele>
        <time>2025-10-18T13:09:53Z</time>
      </trkpt>
      <trkpt lat="43.22335" lon="5.47928">
        <ele>392.8</ele>
        <time>2025-10-18T13:09:54Z</time>
      </trkpt>
      <trkpt lat="43.22335" lon="5.47928">
        <ele>392.8</ele>
        <time>2025-10-18T13:09:55Z</time>
      </trkpt>
      <trkpt lat="43.22335" lon="5.47928">
        <ele>392.7</ele>
        <time>2025-10-18T13:09:56Z</time>
      </trkpt>
      <trkpt lat="43.22335" lon="5.47928">
        <ele>392.6</ele>
        <time>2025-10-18T13:09:57Z</time>
      </trkpt>
      <trkpt lat="43.22335" lon="5.47928">
        <ele>392.6</ele>
        <time>2025-10-18T13:09:58Z</time>
      </trkpt>
      <trkpt lat="43.22335" lon="5.47928">
        <ele>392.6</ele>
        <time>2025-10-18T13:09:59Z</time>
      </trkpt>
      <trkpt lat="43.22334" lon="5.47928">
        <ele>392.6</ele>
        <time>2025-10-18T13:10:00Z</time>
      </trkpt>
      <trkpt lat="43.22334" lon="5.47928">
        <ele>392.6</ele>
        <time>2025-10-18T13:10:01Z</time>
      </trkpt>
      <trkpt lat="43.22334" lon="5.47927">
        <ele>392.6</ele>
        <time>2025-10-18T13:10:02Z</time>
      </trkpt>
      <trkpt lat="43.22334" lon="5.47927">
        <ele>392.6</ele>
        <time>2025-10-18T13:10:03Z</time>
      </trkpt>
      <trkpt lat="43.22334" lon="5.47927">
        <ele>392.6</ele>
        <time>2025-10-18T13:10:04Z</time>
      </trkpt>
      <trkpt lat="43.22334" lon="5.47927">
        <ele>392.6</ele>
        <time>2025-10-18T13:10:05Z</time>
      </trkpt>
      <trkpt lat="43.22334" lon="5.47927">
        <ele>392.6</ele>
        <time>2025-10-18T13:10:06Z</time>
      </trkpt>
      <trkpt lat="43.22334" lon="5.47927">
        <ele>392.6</ele>
        <time>2025-10-18T13:10:07Z</time>
      </trkpt>
      <trkpt lat="43.22334" lon="5.47927">
        <ele>392.6</ele>
        <time>2025-10-18T13:10:08Z</time>
      </trkpt>
      <trkpt lat="43.22334" lon="5.47927">
        <ele>392.6</ele>
        <time>2025-10-18T13:10:09Z</time>
      </trkpt>
      <trkpt lat="43.22334" lon="5.47927">
        <ele>392.5</ele>
        <time>2025-10-18T13:10:10Z</time>
      </trkpt>
      <trkpt lat="43.22334" lon="5.47927">
        <ele>392.5</ele>
        <time>2025-10-18T13:10:11Z</time>
      </trkpt>
      <trkpt lat="43.22334" lon="5.47927">
        <ele>392.4</ele>
        <time>2025-10-18T13:10:12Z</time>
      </trkpt>
      <trkpt lat="43.22334" lon="5.47927">
        <ele>392.4</ele>
        <time>2025-10-18T13:10:13Z</time>
      </trkpt>
      <trkpt lat="43.22334" lon="5.47927">
        <ele>392.3</ele>
        <time>2025-10-18T13:10:14Z</time>
      </trkpt>
      <trkpt lat="43.22334" lon="5.47927">
        <ele>392.3</ele>
        <time>2025-10-18T13:10:15Z</time>
      </trkpt>
      <trkpt lat="43.22334" lon="5.47927">
        <ele>392.3</ele>
        <time>2025-10-18T13:10:16Z</time>
      </trkpt>
      <trkpt lat="43.22334" lon="5.47927">
        <ele>392.3</ele>
        <time>2025-10-18T13:10:17Z</time>
      </trkpt>
      <trkpt lat="43.22334" lon="5.47927">
        <ele>392.3</ele>
        <time>2025-10-18T13:10:18Z</time>
      </trkpt>
      <trkpt lat="43.22334" lon="5.47927">
        <ele>392.4</ele>
        <time>2025-10-18T13:10:19Z</time>
      </trkpt>
      <trkpt lat="43.22334" lon="5.47927">
        <ele>392.5</ele>
        <time>2025-10-18T13:10:20Z</time>
      </trkpt>
      <trkpt lat="43.22334" lon="5.47927">
        <ele>392.5</ele>
        <time>2025-10-18T13:10:21Z</time>
      </trkpt>
      <trkpt lat="43.22334" lon="5.47927">
        <ele>392.6</ele>
        <time>2025-10-18T13:10:22Z</time>
      </trkpt>
      <trkpt lat="43.22334" lon="5.47927">
        <ele>392.7</ele>
        <time>2025-10-18T13:10:23Z</time>
      </trkpt>
      <trkpt lat="43.22334" lon="5.47927">
        <ele>392.7</ele>
        <time>2025-10-18T13:10:24Z</time>
      </trkpt>
      <trkpt lat="43.22334" lon="5.47927">
        <ele>392.8</ele>
        <time>2025-10-18T13:10:25Z</time>
      </trkpt>
      <trkpt lat="43.22333" lon="5.47927">
        <ele>392.8</ele>
        <time>2025-10-18T13:10:26Z</time>
      </trkpt>
      <trkpt lat="43.22333" lon="5.47927">
        <ele>392.8</ele>
        <time>2025-10-18T13:10:27Z</time>
      </trkpt>
      <trkpt lat="43.22333" lon="5.47927">
        <ele>392.8</ele>
        <time>2025-10-18T13:10:28Z</time>
      </trkpt>
      <trkpt lat="43.22333" lon="5.47927">
        <ele>392.8</ele>
        <time>2025-10-18T13:10:29Z</time>
      </trkpt>
      <trkpt lat="43.22333" lon="5.47927">
        <ele>392.8</ele>
        <time>2025-10-18T13:10:30Z</time>
      </trkpt>
      <trkpt lat="43.22333" lon="5.47928">
        <ele>392.8</ele>
        <time>2025-10-18T13:10:31Z</time>
      </trkpt>
      <trkpt lat="43.22333" lon="5.47928">
        <ele>392.7</ele>
        <time>2025-10-18T13:10:32Z</time>
      </trkpt>
      <trkpt lat="43.22333" lon="5.47928">
        <ele>392.8</ele>
        <time>2025-10-18T13:10:33Z</time>
      </trkpt>
      <trkpt lat="43.22334" lon="5.47928">
        <ele>392.8</ele>
        <time>2025-10-18T13:10:34Z</time>
      </trkpt>
      <trkpt lat="43.22334" lon="5.47928">
        <ele>392.9</ele>
        <time>2025-10-18T13:10:35Z</time>
      </trkpt>
      <trkpt lat="43.22334" lon="5.47928">
        <ele>393</ele>
        <time>2025-10-18T13:10:36Z</time>
      </trkpt>
      <trkpt lat="43.22334" lon="5.47928">
        <ele>393</ele>
        <time>2025-10-18T13:10:37Z</time>
      </trkpt>
      <trkpt lat="43.22334" lon="5.47928">
        <ele>393.1</ele>
        <time>2025-10-18T13:10:38Z</time>
      </trkpt>
      <trkpt lat="43.22333" lon="5.47928">
        <ele>393</ele>
        <time>2025-10-18T13:10:39Z</time>
      </trkpt>
      <trkpt lat="43.22333" lon="5.47928">
        <ele>392.9</ele>
        <time>2025-10-18T13:10:40Z</time>
      </trkpt>
      <trkpt lat="43.22333" lon="5.47928">
        <ele>392.8</ele>
        <time>2025-10-18T13:10:41Z</time>
      </trkpt>
      <trkpt lat="43.22334" lon="5.47928">
        <ele>392.7</ele>
        <time>2025-10-18T13:10:42Z</time>
      </trkpt>
      <trkpt lat="43.22334" lon="5.47928">
        <ele>392.7</ele>
        <time>2025-10-18T13:10:43Z</time>
      </trkpt>
      <trkpt lat="43.22334" lon="5.47928">
        <ele>392.7</ele>
        <time>2025-10-18T13:10:44Z</time>
      </trkpt>
      <trkpt lat="43.22334" lon="5.47928">
        <ele>392.6</ele>
        <time>2025-10-18T13:10:45Z</time>
      </trkpt>
      <trkpt lat="43.22334" lon="5.47928">
        <ele>392.6</ele>
        <time>2025-10-18T13:10:46Z</time>
      </trkpt>
      <trkpt lat="43.22334" lon="5.47928">
        <ele>392.6</ele>
        <time>2025-10-18T13:10:47Z</time>
      </trkpt>
      <trkpt lat="43.22334" lon="5.47928">
        <ele>392.6</ele>
        <time>2025-10-18T13:10:48Z</time>
      </trkpt>
      <trkpt lat="43.22334" lon="5.47928">
        <ele>392.6</ele>
        <time>2025-10-18T13:10:49Z</time>
      </trkpt>
      <trkpt lat="43.22334" lon="5.47928">
        <ele>392.6</ele>
        <time>2025-10-18T13:10:50Z</time>
      </trkpt>
      <trkpt lat="43.22334" lon="5.47928">
        <ele>392.7</ele>
        <time>2025-10-18T13:10:51Z</time>
      </trkpt>
      <trkpt lat="43.22334" lon="5.47928">
        <ele>392.7</ele>
        <time>2025-10-18T13:10:52Z</time>
      </trkpt>
      <trkpt lat="43.22334" lon="5.47928">
        <ele>392.7</ele>
        <time>2025-10-18T13:10:53Z</time>
      </trkpt>
      <trkpt lat="43.22334" lon="5.47928">
        <ele>392.8</ele>
        <time>2025-10-18T13:10:54Z</time>
      </trkpt>
      <trkpt lat="43.22334" lon="5.47928">
        <ele>392.8</ele>
        <time>2025-10-18T13:10:55Z</time>
      </trkpt>
      <trkpt lat="43.22334" lon="5.47928">
        <ele>392.8</ele>
        <time>2025-10-18T13:10:56Z</time>
      </trkpt>
      <trkpt lat="43.22334" lon="5.47928">
        <ele>392.9</ele>
        <time>2025-10-18T13:10:57Z</time>
      </trkpt>
      <trkpt lat="43.22334" lon="5.47928">
        <ele>393</ele>
        <time>2025-10-18T13:10:58Z</time>
      </trkpt>
      <trkpt lat="43.22334" lon="5.47928">
        <ele>393</ele>
        <time>2025-10-18T13:10:59Z</time>
      </trkpt>
      <trkpt lat="43.22334" lon="5.47928">
        <ele>393</ele>
        <time>2025-10-18T13:11:00Z</time>
      </trkpt>
      <trkpt lat="43.22334" lon="5.47928">
        <ele>393</ele>
        <time>2025-10-18T13:11:01Z</time>
      </trkpt>
      <trkpt lat="43.22334" lon="5.47928">
        <ele>393</ele>
        <time>2025-10-18T13:11:02Z</time>
      </trkpt>
      <trkpt lat="43.22334" lon="5.47928">
        <ele>393</ele>
        <time>2025-10-18T13:11:03Z</time>
      </trkpt>
      <trkpt lat="43.22335" lon="5.47928">
        <ele>393.1</ele>
        <time>2025-10-18T13:11:04Z</time>
      </trkpt>
      <trkpt lat="43.22335" lon="5.47928">
        <ele>393.1</ele>
        <time>2025-10-18T13:11:05Z</time>
      </trkpt>
      <trkpt lat="43.22335" lon="5.47928">
        <ele>393.1</ele>
        <time>2025-10-18T13:11:06Z</time>
      </trkpt>
      <trkpt lat="43.22335" lon="5.47928">
        <ele>393.1</ele>
        <time>2025-10-18T13:11:07Z</time>
      </trkpt>
      <trkpt lat="43.22335" lon="5.47928">
        <ele>393.1</ele>
        <time>2025-10-18T13:11:08Z</time>
      </trkpt>
      <trkpt lat="43.22335" lon="5.47928">
        <ele>393.1</ele>
        <time>2025-10-18T13:11:09Z</time>
      </trkpt>
      <trkpt lat="43.22335" lon="5.47928">
        <ele>393.1</ele>
        <time>2025-10-18T13:11:10Z</time>
      </trkpt>
      <trkpt lat="43.22335" lon="5.47927">
        <ele>393.1</ele>
        <time>2025-10-18T13:11:11Z</time>
      </trkpt>
      <trkpt lat="43.22335" lon="5.47927">
        <ele>393</ele>
        <time>2025-10-18T13:11:12Z</time>
      </trkpt>
      <trkpt lat="43.22335" lon="5.47927">
        <ele>393</ele>
        <time>2025-10-18T13:11:13Z</time>
      </trkpt>
      <trkpt lat="43.22335" lon="5.47927">
        <ele>393.1</ele>
        <time>2025-10-18T13:11:14Z</time>
      </trkpt>
      <trkpt lat="43.22335" lon="5.47927">
        <ele>393.2</ele>
        <time>2025-10-18T13:11:15Z</time>
      </trkpt>
      <trkpt lat="43.22335" lon="5.47927">
        <ele>393.2</ele>
        <time>2025-10-18T13:11:16Z</time>
      </trkpt>
      <trkpt lat="43.22335" lon="5.47927">
        <ele>393.2</ele>
        <time>2025-10-18T13:11:17Z</time>
      </trkpt>
      <trkpt lat="43.22335" lon="5.47927">
        <ele>393.1</ele>
        <time>2025-10-18T13:11:18Z</time>
      </trkpt>
      <trkpt lat="43.22335" lon="5.47927">
        <ele>393.2</ele>
        <time>2025-10-18T13:11:19Z</time>
      </trkpt>
      <trkpt lat="43.22335" lon="5.47927">
        <ele>393.2</ele>
        <time>2025-10-18T13:11:20Z</time>
      </trkpt>
      <trkpt lat="43.22335" lon="5.47927">
        <ele>393.2</ele>
        <time>2025-10-18T13:11:21Z</time>
      </trkpt>
      <trkpt lat="43.22335" lon="5.47928">
        <ele>393.2</ele>
        <time>2025-10-18T13:11:22Z</time>
      </trkpt>
      <trkpt lat="43.22335" lon="5.47928">
        <ele>393.2</ele>
        <time>2025-10-18T13:11:23Z</time>
      </trkpt>
      <trkpt lat="43.22335" lon="5.47928">
        <ele>393.2</ele>
        <time>2025-10-18T13:11:24Z</time>
      </trkpt>
      <trkpt lat="43.22335" lon="5.47928">
        <ele>393.1</ele>
        <time>2025-10-18T13:11:25Z</time>
      </trkpt>
      <trkpt lat="43.22335" lon="5.47928">
        <ele>393</ele>
        <time>2025-10-18T13:11:26Z</time>
      </trkpt>
      <trkpt lat="43.22335" lon="5.47928">
        <ele>393</ele>
        <time>2025-10-18T13:11:27Z</time>
      </trkpt>
      <trkpt lat="43.22335" lon="5.47928">
        <ele>392.9</ele>
        <time>2025-10-18T13:11:28Z</time>
      </trkpt>
      <trkpt lat="43.22335" lon="5.47928">
        <ele>392.9</ele>
        <time>2025-10-18T13:11:29Z</time>
      </trkpt>
      <trkpt lat="43.22335" lon="5.47928">
        <ele>392.9</ele>
        <time>2025-10-18T13:11:30Z</time>
      </trkpt>
      <trkpt lat="43.22335" lon="5.47928">
        <ele>392.9</ele>
        <time>2025-10-18T13:11:31Z</time>
      </trkpt>
      <trkpt lat="43.22335" lon="5.47928">
        <ele>392.9</ele>
        <time>2025-10-18T13:11:32Z</time>
      </trkpt>
      <trkpt lat="43.22335" lon="5.47928">
        <ele>392.9</ele>
        <time>2025-10-18T13:11:33Z</time>
      </trkpt>
      <trkpt lat="43.22335" lon="5.47927">
        <ele>392.9</ele>
        <time>2025-10-18T13:11:34Z</time>
      </trkpt>
      <trkpt lat="43.22335" lon="5.47928">
        <ele>392.9</ele>
        <time>2025-10-18T13:11:35Z</time>
      </trkpt>
      <trkpt lat="43.22335" lon="5.47928">
        <ele>392.8</ele>
        <time>2025-10-18T13:11:36Z</time>
      </trkpt>
      <trkpt lat="43.22335" lon="5.47928">
        <ele>392.7</ele>
        <time>2025-10-18T13:11:37Z</time>
      </trkpt>
      <trkpt lat="43.22335" lon="5.47928">
        <ele>392.6</ele>
        <time>2025-10-18T13:11:38Z</time>
      </trkpt>
      <trkpt lat="43.22335" lon="5.47928">
        <ele>392.6</ele>
        <time>2025-10-18T13:11:39Z</time>
      </trkpt>
      <trkpt lat="43.22335" lon="5.47928">
        <ele>392.6</ele>
        <time>2025-10-18T13:11:40Z</time>
      </trkpt>
      <trkpt lat="43.22335" lon="5.47928">
        <ele>392.6</ele>
        <time>2025-10-18T13:11:41Z</time>
      </trkpt>
      <trkpt lat="43.22335" lon="5.47928">
        <ele>392.7</ele>
        <time>2025-10-18T13:11:42Z</time>
      </trkpt>
      <trkpt lat="43.22335" lon="5.47927">
        <ele>392.7</ele>
        <time>2025-10-18T13:11:43Z</time>
      </trkpt>
      <trkpt lat="43.22334" lon="5.47927">
        <ele>392.8</ele>
        <time>2025-10-18T13:11:44Z</time>
      </trkpt>
      <trkpt lat="43.22334" lon="5.47927">
        <ele>392.9</ele>
        <time>2025-10-18T13:11:45Z</time>
      </trkpt>
      <trkpt lat="43.22334" lon="5.47927">
        <ele>392.8</ele>
        <time>2025-10-18T13:11:46Z</time>
      </trkpt>
      <trkpt lat="43.22334" lon="5.47927">
        <ele>392.8</ele>
        <time>2025-10-18T13:11:47Z</time>
      </trkpt>
      <trkpt lat="43.22334" lon="5.47927">
        <ele>392.8</ele>
        <time>2025-10-18T13:11:48Z</time>
      </trkpt>
      <trkpt lat="43.22334" lon="5.47927">
        <ele>392.8</ele>
        <time>2025-10-18T13:11:49Z</time>
      </trkpt>
      <trkpt lat="43.22334" lon="5.47927">
        <ele>392.8</ele>
        <time>2025-10-18T13:11:50Z</time>
      </trkpt>
      <trkpt lat="43.22334" lon="5.47927">
        <ele>392.7</ele>
        <time>2025-10-18T13:11:51Z</time>
      </trkpt>
      <trkpt lat="43.22334" lon="5.47927">
        <ele>392.7</ele>
        <time>2025-10-18T13:11:52Z</time>
      </trkpt>
      <trkpt lat="43.22334" lon="5.47927">
        <ele>392.7</ele>
        <time>2025-10-18T13:11:53Z</time>
      </trkpt>
      <trkpt lat="43.22334" lon="5.47927">
        <ele>392.6</ele>
        <time>2025-10-18T13:11:54Z</time>
      </trkpt>
      <trkpt lat="43.22334" lon="5.47927">
        <ele>392.6</ele>
        <time>2025-10-18T13:11:55Z</time>
      </trkpt>
      <trkpt lat="43.22334" lon="5.47927">
        <ele>392.6</ele>
        <time>2025-10-18T13:11:56Z</time>
      </trkpt>
      <trkpt lat="43.22335" lon="5.47927">
        <ele>392.6</ele>
        <time>2025-10-18T13:11:57Z</time>
      </trkpt>
      <trkpt lat="43.22335" lon="5.47927">
        <ele>392.6</ele>
        <time>2025-10-18T13:11:58Z</time>
      </trkpt>
      <trkpt lat="43.22335" lon="5.47927">
        <ele>392.6</ele>
        <time>2025-10-18T13:11:59Z</time>
      </trkpt>
      <trkpt lat="43.22335" lon="5.47927">
        <ele>392.7</ele>
        <time>2025-10-18T13:12:00Z</time>
      </trkpt>
      <trkpt lat="43.22335" lon="5.47927">
        <ele>392.7</ele>
        <time>2025-10-18T13:12:01Z</time>
      </trkpt>
      <trkpt lat="43.22335" lon="5.47927">
        <ele>392.8</ele>
        <time>2025-10-18T13:12:02Z</time>
      </trkpt>
      <trkpt lat="43.22334" lon="5.47927">
        <ele>392.8</ele>
        <time>2025-10-18T13:12:03Z</time>
      </trkpt>
      <trkpt lat="43.22334" lon="5.47928">
        <ele>392.8</ele>
        <time>2025-10-18T13:12:04Z</time>
      </trkpt>
      <trkpt lat="43.22335" lon="5.47928">
        <ele>392.7</ele>
        <time>2025-10-18T13:12:05Z</time>
      </trkpt>
      <trkpt lat="43.22334" lon="5.47928">
        <ele>392.7</ele>
        <time>2025-10-18T13:12:06Z</time>
      </trkpt>
      <trkpt lat="43.22335" lon="5.47928">
        <ele>392.7</ele>
        <time>2025-10-18T13:12:07Z</time>
      </trkpt>
      <trkpt lat="43.22335" lon="5.47928">
        <ele>392.7</ele>
        <time>2025-10-18T13:12:08Z</time>
      </trkpt>
      <trkpt lat="43.22335" lon="5.47928">
        <ele>392.7</ele>
        <time>2025-10-18T13:12:09Z</time>
      </trkpt>
      <trkpt lat="43.22335" lon="5.47928">
        <ele>392.7</ele>
        <time>2025-10-18T13:12:10Z</time>
      </trkpt>
      <trkpt lat="43.22335" lon="5.47928">
        <ele>392.7</ele>
        <time>2025-10-18T13:12:11Z</time>
      </trkpt>
      <trkpt lat="43.22334" lon="5.47928">
        <ele>392.7</ele>
        <time>2025-10-18T13:12:12Z</time>
      </trkpt>
      <trkpt lat="43.22335" lon="5.47928">
        <ele>392.7</ele>
        <time>2025-10-18T13:12:13Z</time>
      </trkpt>
      <trkpt lat="43.22335" lon="5.47928">
        <ele>392.7</ele>
        <time>2025-10-18T13:12:14Z</time>
      </trkpt>
      <trkpt lat="43.22335" lon="5.47928">
        <ele>392.7</ele>
        <time>2025-10-18T13:12:15Z</time>
      </trkpt>
      <trkpt lat="43.22335" lon="5.47929">
        <ele>392.7</ele>
        <time>2025-10-18T13:12:16Z</time>
      </trkpt>
      <trkpt lat="43.22335" lon="5.47929">
        <ele>392.6</ele>
        <time>2025-10-18T13:12:17Z</time>
      </trkpt>
      <trkpt lat="43.22335" lon="5.47929">
        <ele>392.6</ele>
        <time>2025-10-18T13:12:18Z</time>
      </trkpt>
      <trkpt lat="43.22335" lon="5.47929">
        <ele>392.6</ele>
        <time>2025-10-18T13:12:19Z</time>
      </trkpt>
      <trkpt lat="43.22335" lon="5.47929">
        <ele>392.5</ele>
        <time>2025-10-18T13:12:20Z</time>
      </trkpt>
      <trkpt lat="43.22335" lon="5.47929">
        <ele>392.4</ele>
        <time>2025-10-18T13:12:21Z</time>
      </trkpt>
      <trkpt lat="43.22335" lon="5.47929">
        <ele>392.3</ele>
        <time>2025-10-18T13:12:22Z</time>
      </trkpt>
      <trkpt lat="43.22335" lon="5.47929">
        <ele>392.3</ele>
        <time>2025-10-18T13:12:23Z</time>
      </trkpt>
      <trkpt lat="43.22335" lon="5.47929">
        <ele>392.3</ele>
        <time>2025-10-18T13:12:24Z</time>
      </trkpt>
      <trkpt lat="43.22335" lon="5.47929">
        <ele>392.2</ele>
        <time>2025-10-18T13:12:25Z</time>
      </trkpt>
      <trkpt lat="43.22335" lon="5.47929">
        <ele>392.2</ele>
        <time>2025-10-18T13:12:26Z</time>
      </trkpt>
      <trkpt lat="43.22335" lon="5.47929">
        <ele>392.1</ele>
        <time>2025-10-18T13:12:27Z</time>
      </trkpt>
      <trkpt lat="43.22335" lon="5.47929">
        <ele>392.1</ele>
        <time>2025-10-18T13:12:28Z</time>
      </trkpt>
      <trkpt lat="43.22335" lon="5.47929">
        <ele>392.1</ele>
        <time>2025-10-18T13:12:29Z</time>
      </trkpt>
      <trkpt lat="43.22335" lon="5.47928">
        <ele>392.1</ele>
        <time>2025-10-18T13:12:30Z</time>
      </trkpt>
      <trkpt lat="43.22335" lon="5.47928">
        <ele>392.1</ele>
        <time>2025-10-18T13:12:31Z</time>
      </trkpt>
      <trkpt lat="43.22335" lon="5.47928">
        <ele>392.1</ele>
        <time>2025-10-18T13:12:32Z</time>
      </trkpt>
      <trkpt lat="43.22335" lon="5.47929">
        <ele>392.1</ele>
        <time>2025-10-18T13:12:33Z</time>
      </trkpt>
      <trkpt lat="43.22335" lon="5.47929">
        <ele>392.1</ele>
        <time>2025-10-18T13:12:34Z</time>
      </trkpt>
      <trkpt lat="43.22335" lon="5.47929">
        <ele>392.1</ele>
        <time>2025-10-18T13:12:35Z</time>
      </trkpt>
      <trkpt lat="43.22335" lon="5.47929">
        <ele>392.1</ele>
        <time>2025-10-18T13:12:36Z</time>
      </trkpt>
      <trkpt lat="43.22334" lon="5.47929">
        <ele>392</ele>
        <time>2025-10-18T13:12:37Z</time>
      </trkpt>
      <trkpt lat="43.22334" lon="5.47929">
        <ele>392</ele>
        <time>2025-10-18T13:12:38Z</time>
      </trkpt>
      <trkpt lat="43.22334" lon="5.47929">
        <ele>392</ele>
        <time>2025-10-18T13:12:39Z</time>
      </trkpt>
      <trkpt lat="43.22334" lon="5.47929">
        <ele>391.9</ele>
        <time>2025-10-18T13:12:40Z</time>
      </trkpt>
      <trkpt lat="43.22334" lon="5.47929">
        <ele>391.9</ele>
        <time>2025-10-18T13:12:41Z</time>
      </trkpt>
      <trkpt lat="43.22334" lon="5.47929">
        <ele>391.9</ele>
        <time>2025-10-18T13:12:42Z</time>
      </trkpt>
      <trkpt lat="43.22334" lon="5.47929">
        <ele>391.8</ele>
        <time>2025-10-18T13:12:43Z</time>
      </trkpt>
      <trkpt lat="43.22334" lon="5.47929">
        <ele>391.8</ele>
        <time>2025-10-18T13:12:44Z</time>
      </trkpt>
      <trkpt lat="43.22334" lon="5.47929">
        <ele>391.8</ele>
        <time>2025-10-18T13:12:45Z</time>
      </trkpt>
      <trkpt lat="43.22334" lon="5.47929">
        <ele>391.8</ele>
        <time>2025-10-18T13:12:46Z</time>
      </trkpt>
      <trkpt lat="43.22334" lon="5.47929">
        <ele>391.7</ele>
        <time>2025-10-18T13:12:47Z</time>
      </trkpt>
      <trkpt lat="43.22334" lon="5.47929">
        <ele>391.7</ele>
        <time>2025-10-18T13:12:48Z</time>
      </trkpt>
      <trkpt lat="43.22335" lon="5.47929">
        <ele>391.7</ele>
        <time>2025-10-18T13:12:49Z</time>
      </trkpt>
      <trkpt lat="43.22335" lon="5.4793">
        <ele>391.8</ele>
        <time>2025-10-18T13:12:50Z</time>
      </trkpt>
      <trkpt lat="43.22335" lon="5.4793">
        <ele>391.8</ele>
        <time>2025-10-18T13:12:51Z</time>
      </trkpt>
      <trkpt lat="43.22336" lon="5.4793">
        <ele>391.9</ele>
        <time>2025-10-18T13:12:52Z</time>
      </trkpt>
      <trkpt lat="43.22336" lon="5.4793">
        <ele>391.9</ele>
        <time>2025-10-18T13:12:53Z</time>
      </trkpt>
      <trkpt lat="43.22336" lon="5.4793">
        <ele>391.8</ele>
        <time>2025-10-18T13:12:54Z</time>
      </trkpt>
      <trkpt lat="43.22336" lon="5.4793">
        <ele>391.7</ele>
        <time>2025-10-18T13:12:55Z</time>
      </trkpt>
      <trkpt lat="43.22336" lon="5.4793">
        <ele>391.5</ele>
        <time>2025-10-18T13:12:56Z</time>
      </trkpt>
      <trkpt lat="43.22336" lon="5.4793">
        <ele>391.5</ele>
        <time>2025-10-18T13:12:57Z</time>
      </trkpt>
      <trkpt lat="43.22336" lon="5.4793">
        <ele>391.5</ele>
        <time>2025-10-18T13:12:58Z</time>
      </trkpt>
      <trkpt lat="43.22336" lon="5.47931">
        <ele>391.4</ele>
        <time>2025-10-18T13:12:59Z</time>
      </trkpt>
      <trkpt lat="43.22337" lon="5.47931">
        <ele>391.4</ele>
        <time>2025-10-18T13:13:00Z</time>
      </trkpt>
      <trkpt lat="43.22337" lon="5.47931">
        <ele>391.2</ele>
        <time>2025-10-18T13:13:01Z</time>
      </trkpt>
      <trkpt lat="43.22337" lon="5.47931">
        <ele>391.1</ele>
        <time>2025-10-18T13:13:02Z</time>
      </trkpt>
      <trkpt lat="43.22337" lon="5.47931">
        <ele>391.1</ele>
        <time>2025-10-18T13:13:03Z</time>
      </trkpt>
      <trkpt lat="43.22337" lon="5.47931">
        <ele>391</ele>
        <time>2025-10-18T13:13:04Z</time>
      </trkpt>
      <trkpt lat="43.22337" lon="5.47931">
        <ele>391</ele>
        <time>2025-10-18T13:13:05Z</time>
      </trkpt>
      <trkpt lat="43.22337" lon="5.47931">
        <ele>391</ele>
        <time>2025-10-18T13:13:06Z</time>
      </trkpt>
      <trkpt lat="43.22336" lon="5.47931">
        <ele>390.9</ele>
        <time>2025-10-18T13:13:07Z</time>
      </trkpt>
      <trkpt lat="43.22336" lon="5.47931">
        <ele>390.9</ele>
        <time>2025-10-18T13:13:08Z</time>
      </trkpt>
      <trkpt lat="43.22336" lon="5.47932">
        <ele>390.8</ele>
        <time>2025-10-18T13:13:09Z</time>
      </trkpt>
      <trkpt lat="43.22335" lon="5.47932">
        <ele>390.7</ele>
        <time>2025-10-18T13:13:10Z</time>
      </trkpt>
      <trkpt lat="43.22335" lon="5.47932">
        <ele>390.6</ele>
        <time>2025-10-18T13:13:11Z</time>
      </trkpt>
      <trkpt lat="43.22335" lon="5.47932">
        <ele>390.6</ele>
        <time>2025-10-18T13:13:12Z</time>
      </trkpt>
      <trkpt lat="43.22335" lon="5.47932">
        <ele>390.5</ele>
        <time>2025-10-18T13:13:13Z</time>
      </trkpt>
      <trkpt lat="43.22335" lon="5.47932">
        <ele>390.4</ele>
        <time>2025-10-18T13:13:14Z</time>
      </trkpt>
      <trkpt lat="43.22336" lon="5.47932">
        <ele>390.4</ele>
        <time>2025-10-18T13:13:15Z</time>
      </trkpt>
      <trkpt lat="43.22335" lon="5.47932">
        <ele>390.3</ele>
        <time>2025-10-18T13:13:16Z</time>
      </trkpt>
      <trkpt lat="43.22336" lon="5.47932">
        <ele>390.3</ele>
        <time>2025-10-18T13:13:17Z</time>
      </trkpt>
      <trkpt lat="43.22336" lon="5.47933">
        <ele>390.3</ele>
        <time>2025-10-18T13:13:18Z</time>
      </trkpt>
      <trkpt lat="43.22337" lon="5.47933">
        <ele>390.2</ele>
        <time>2025-10-18T13:13:19Z</time>
      </trkpt>
      <trkpt lat="43.22338" lon="5.47933">
        <ele>390.1</ele>
        <time>2025-10-18T13:13:20Z</time>
      </trkpt>
      <trkpt lat="43.22338" lon="5.47934">
        <ele>390</ele>
        <time>2025-10-18T13:13:21Z</time>
      </trkpt>
      <trkpt lat="43.22339" lon="5.47934">
        <ele>390.1</ele>
        <time>2025-10-18T13:13:22Z</time>
      </trkpt>
      <trkpt lat="43.22339" lon="5.47934">
        <ele>390</ele>
        <time>2025-10-18T13:13:23Z</time>
      </trkpt>
      <trkpt lat="43.2234" lon="5.47934">
        <ele>389.9</ele>
        <time>2025-10-18T13:13:24Z</time>
      </trkpt>
      <trkpt lat="43.2234" lon="5.47934">
        <ele>389.9</ele>
        <time>2025-10-18T13:13:25Z</time>
      </trkpt>
      <trkpt lat="43.2234" lon="5.47934">
        <ele>389.8</ele>
        <time>2025-10-18T13:13:26Z</time>
      </trkpt>
      <trkpt lat="43.2234" lon="5.47934">
        <ele>389.8</ele>
        <time>2025-10-18T13:13:27Z</time>
      </trkpt>
      <trkpt lat="43.2234" lon="5.47934">
        <ele>389.8</ele>
        <time>2025-10-18T13:13:28Z</time>
      </trkpt>
      <trkpt lat="43.2234" lon="5.47933">
        <ele>389.8</ele>
        <time>2025-10-18T13:13:29Z</time>
      </trkpt>
      <trkpt lat="43.2234" lon="5.47933">
        <ele>389.8</ele>
        <time>2025-10-18T13:13:30Z</time>
      </trkpt>
      <trkpt lat="43.2234" lon="5.47933">
        <ele>389.7</ele>
        <time>2025-10-18T13:13:31Z</time>
      </trkpt>
      <trkpt lat="43.2234" lon="5.47932">
        <ele>389.7</ele>
        <time>2025-10-18T13:13:32Z</time>
      </trkpt>
      <trkpt lat="43.2234" lon="5.47932">
        <ele>389.7</ele>
        <time>2025-10-18T13:13:33Z</time>
      </trkpt>
      <trkpt lat="43.22341" lon="5.47932">
        <ele>389.7</ele>
        <time>2025-10-18T13:13:34Z</time>
      </trkpt>
      <trkpt lat="43.22341" lon="5.47932">
        <ele>389.7</ele>
        <time>2025-10-18T13:13:35Z</time>
      </trkpt>
      <trkpt lat="43.22341" lon="5.47932">
        <ele>389.7</ele>
        <time>2025-10-18T13:13:36Z</time>
      </trkpt>
      <trkpt lat="43.22341" lon="5.47932">
        <ele>389.7</ele>
        <time>2025-10-18T13:13:37Z</time>
      </trkpt>
      <trkpt lat="43.22341" lon="5.47932">
        <ele>389.7</ele>
        <time>2025-10-18T13:13:38Z</time>
      </trkpt>
      <trkpt lat="43.22341" lon="5.47932">
        <ele>389.8</ele>
        <time>2025-10-18T13:13:39Z</time>
      </trkpt>
      <trkpt lat="43.22341" lon="5.47932">
        <ele>389.8</ele>
        <time>2025-10-18T13:13:40Z</time>
      </trkpt>
      <trkpt lat="43.22341" lon="5.47932">
        <ele>389.8</ele>
        <time>2025-10-18T13:13:41Z</time>
      </trkpt>
      <trkpt lat="43.22341" lon="5.47933">
        <ele>389.8</ele>
        <time>2025-10-18T13:13:42Z</time>
      </trkpt>
      <trkpt lat="43.22341" lon="5.47934">
        <ele>389.7</ele>
        <time>2025-10-18T13:13:43Z</time>
      </trkpt>
      <trkpt lat="43.22341" lon="5.47934">
        <ele>389.6</ele>
        <time>2025-10-18T13:13:44Z</time>
      </trkpt>
      <trkpt lat="43.22341" lon="5.47935">
        <ele>389.6</ele>
        <time>2025-10-18T13:13:45Z</time>
      </trkpt>
      <trkpt lat="43.22342" lon="5.47935">
        <ele>389.4</ele>
        <time>2025-10-18T13:13:46Z</time>
      </trkpt>
      <trkpt lat="43.22341" lon="5.47935">
        <ele>389.2</ele>
        <time>2025-10-18T13:13:47Z</time>
      </trkpt>
      <trkpt lat="43.22341" lon="5.47935">
        <ele>389</ele>
        <time>2025-10-18T13:13:48Z</time>
      </trkpt>
      <trkpt lat="43.22341" lon="5.47934">
        <ele>388.9</ele>
        <time>2025-10-18T13:13:49Z</time>
      </trkpt>
      <trkpt lat="43.22341" lon="5.47934">
        <ele>388.9</ele>
        <time>2025-10-18T13:13:50Z</time>
      </trkpt>
      <trkpt lat="43.22341" lon="5.47934">
        <ele>388.8</ele>
        <time>2025-10-18T13:13:51Z</time>
      </trkpt>
      <trkpt lat="43.22342" lon="5.47934">
        <ele>388.8</ele>
        <time>2025-10-18T13:13:52Z</time>
      </trkpt>
      <trkpt lat="43.22342" lon="5.47934">
        <ele>388.8</ele>
        <time>2025-10-18T13:13:53Z</time>
      </trkpt>
      <trkpt lat="43.22342" lon="5.47934">
        <ele>388.8</ele>
        <time>2025-10-18T13:13:54Z</time>
      </trkpt>
      <trkpt lat="43.22342" lon="5.47934">
        <ele>388.7</ele>
        <time>2025-10-18T13:13:55Z</time>
      </trkpt>
      <trkpt lat="43.22342" lon="5.47934">
        <ele>388.7</ele>
        <time>2025-10-18T13:13:56Z</time>
      </trkpt>
      <trkpt lat="43.22342" lon="5.47934">
        <ele>388.7</ele>
        <time>2025-10-18T13:13:57Z</time>
      </trkpt>
      <trkpt lat="43.22342" lon="5.47934">
        <ele>388.6</ele>
        <time>2025-10-18T13:13:58Z</time>
      </trkpt>
      <trkpt lat="43.22342" lon="5.47934">
        <ele>388.6</ele>
        <time>2025-10-18T13:13:59Z</time>
      </trkpt>
      <trkpt lat="43.22342" lon="5.47933">
        <ele>388.5</ele>
        <time>2025-10-18T13:14:00Z</time>
      </trkpt>
      <trkpt lat="43.22342" lon="5.47933">
        <ele>388.5</ele>
        <time>2025-10-18T13:14:01Z</time>
      </trkpt>
      <trkpt lat="43.22342" lon="5.47933">
        <ele>388.4</ele>
        <time>2025-10-18T13:14:02Z</time>
      </trkpt>
      <trkpt lat="43.22342" lon="5.47933">
        <ele>388.4</ele>
        <time>2025-10-18T13:14:03Z</time>
      </trkpt>
      <trkpt lat="43.22342" lon="5.47933">
        <ele>388.4</ele>
        <time>2025-10-18T13:14:04Z</time>
      </trkpt>
      <trkpt lat="43.22342" lon="5.47934">
        <ele>388.4</ele>
        <time>2025-10-18T13:14:05Z</time>
      </trkpt>
      <trkpt lat="43.22342" lon="5.47934">
        <ele>388.4</ele>
        <time>2025-10-18T13:14:06Z</time>
      </trkpt>
      <trkpt lat="43.22342" lon="5.47934">
        <ele>388.4</ele>
        <time>2025-10-18T13:14:07Z</time>
      </trkpt>
      <trkpt lat="43.22342" lon="5.47934">
        <ele>388.4</ele>
        <time>2025-10-18T13:14:08Z</time>
      </trkpt>
      <trkpt lat="43.22341" lon="5.47934">
        <ele>388.4</ele>
        <time>2025-10-18T13:14:09Z</time>
      </trkpt>
      <trkpt lat="43.22341" lon="5.47934">
        <ele>388.4</ele>
        <time>2025-10-18T13:14:10Z</time>
      </trkpt>
      <trkpt lat="43.2234" lon="5.47934">
        <ele>388.2</ele>
        <time>2025-10-18T13:14:11Z</time>
      </trkpt>
      <trkpt lat="43.2234" lon="5.47934">
        <ele>388.1</ele>
        <time>2025-10-18T13:14:12Z</time>
      </trkpt>
      <trkpt lat="43.2234" lon="5.47934">
        <ele>388.1</ele>
        <time>2025-10-18T13:14:13Z</time>
      </trkpt>
      <trkpt lat="43.2234" lon="5.47934">
        <ele>388.1</ele>
        <time>2025-10-18T13:14:14Z</time>
      </trkpt>
      <trkpt lat="43.2234" lon="5.47934">
        <ele>388.1</ele>
        <time>2025-10-18T13:14:15Z</time>
      </trkpt>
      <trkpt lat="43.2234" lon="5.47934">
        <ele>388.1</ele>
        <time>2025-10-18T13:14:16Z</time>
      </trkpt>
      <trkpt lat="43.2234" lon="5.47934">
        <ele>388.1</ele>
        <time>2025-10-18T13:14:17Z</time>
      </trkpt>
      <trkpt lat="43.2234" lon="5.47934">
        <ele>388.1</ele>
        <time>2025-10-18T13:14:18Z</time>
      </trkpt>
      <trkpt lat="43.2234" lon="5.47934">
        <ele>388.1</ele>
        <time>2025-10-18T13:14:19Z</time>
      </trkpt>
      <trkpt lat="43.2234" lon="5.47935">
        <ele>388.1</ele>
        <time>2025-10-18T13:14:20Z</time>
      </trkpt>
      <trkpt lat="43.2234" lon="5.47935">
        <ele>388.2</ele>
        <time>2025-10-18T13:14:21Z</time>
      </trkpt>
      <trkpt lat="43.2234" lon="5.47935">
        <ele>388.1</ele>
        <time>2025-10-18T13:14:22Z</time>
      </trkpt>
      <trkpt lat="43.2234" lon="5.47936">
        <ele>387.9</ele>
        <time>2025-10-18T13:14:23Z</time>
      </trkpt>
      <trkpt lat="43.2234" lon="5.47936">
        <ele>387.8</ele>
        <time>2025-10-18T13:14:24Z</time>
      </trkpt>
      <trkpt lat="43.2234" lon="5.47937">
        <ele>387.6</ele>
        <time>2025-10-18T13:14:25Z</time>
      </trkpt>
      <trkpt lat="43.22339" lon="5.47937">
        <ele>387.4</ele>
        <time>2025-10-18T13:14:26Z</time>
      </trkpt>
      <trkpt lat="43.22339" lon="5.47938">
        <ele>387.3</ele>
        <time>2025-10-18T13:14:27Z</time>
      </trkpt>
      <trkpt lat="43.22339" lon="5.47937">
        <ele>387.2</ele>
        <time>2025-10-18T13:14:28Z</time>
      </trkpt>
      <trkpt lat="43.22339" lon="5.47938">
        <ele>387</ele>
        <time>2025-10-18T13:14:29Z</time>
      </trkpt>
      <trkpt lat="43.22339" lon="5.47938">
        <ele>386.9</ele>
        <time>2025-10-18T13:14:30Z</time>
      </trkpt>
      <trkpt lat="43.2234" lon="5.47938">
        <ele>386.8</ele>
        <time>2025-10-18T13:14:31Z</time>
      </trkpt>
      <trkpt lat="43.2234" lon="5.47938">
        <ele>386.7</ele>
        <time>2025-10-18T13:14:32Z</time>
      </trkpt>
      <trkpt lat="43.2234" lon="5.47938">
        <ele>386.6</ele>
        <time>2025-10-18T13:14:33Z</time>
      </trkpt>
      <trkpt lat="43.2234" lon="5.47938">
        <ele>386.4</ele>
        <time>2025-10-18T13:14:34Z</time>
      </trkpt>
      <trkpt lat="43.22339" lon="5.47939">
        <ele>386.3</ele>
        <time>2025-10-18T13:14:35Z</time>
      </trkpt>
      <trkpt lat="43.2234" lon="5.4794">
        <ele>386</ele>
        <time>2025-10-18T13:14:36Z</time>
      </trkpt>
      <trkpt lat="43.2234" lon="5.47941">
        <ele>385.8</ele>
        <time>2025-10-18T13:14:37Z</time>
      </trkpt>
      <trkpt lat="43.22341" lon="5.47941">
        <ele>385.6</ele>
        <time>2025-10-18T13:14:38Z</time>
      </trkpt>
      <trkpt lat="43.22341" lon="5.4794">
        <ele>385.4</ele>
        <time>2025-10-18T13:14:39Z</time>
      </trkpt>
      <trkpt lat="43.22341" lon="5.4794">
        <ele>385.3</ele>
        <time>2025-10-18T13:14:40Z</time>
      </trkpt>
      <trkpt lat="43.22341" lon="5.4794">
        <ele>385.2</ele>
        <time>2025-10-18T13:14:41Z</time>
      </trkpt>
      <trkpt lat="43.2234" lon="5.4794">
        <ele>385.2</ele>
        <time>2025-10-18T13:14:42Z</time>
      </trkpt>
      <trkpt lat="43.22341" lon="5.4794">
        <ele>385.1</ele>
        <time>2025-10-18T13:14:43Z</time>
      </trkpt>
      <trkpt lat="43.22341" lon="5.4794">
        <ele>385</ele>
        <time>2025-10-18T13:14:44Z</time>
      </trkpt>
      <trkpt lat="43.22342" lon="5.4794">
        <ele>385</ele>
        <time>2025-10-18T13:14:45Z</time>
      </trkpt>
      <trkpt lat="43.22342" lon="5.4794">
        <ele>385</ele>
        <time>2025-10-18T13:14:46Z</time>
      </trkpt>
      <trkpt lat="43.22342" lon="5.47941">
        <ele>385</ele>
        <time>2025-10-18T13:14:47Z</time>
      </trkpt>
      <trkpt lat="43.22342" lon="5.47941">
        <ele>385</ele>
        <time>2025-10-18T13:14:48Z</time>
      </trkpt>
      <trkpt lat="43.22341" lon="5.47941">
        <ele>385</ele>
        <time>2025-10-18T13:14:49Z</time>
      </trkpt>
      <trkpt lat="43.22341" lon="5.47941">
        <ele>385.1</ele>
        <time>2025-10-18T13:14:50Z</time>
      </trkpt>
      <trkpt lat="43.22341" lon="5.47941">
        <ele>385.1</ele>
        <time>2025-10-18T13:14:51Z</time>
      </trkpt>
      <trkpt lat="43.22341" lon="5.47941">
        <ele>385.1</ele>
        <time>2025-10-18T13:14:52Z</time>
      </trkpt>
      <trkpt lat="43.22341" lon="5.47941">
        <ele>385.1</ele>
        <time>2025-10-18T13:14:53Z</time>
      </trkpt>
      <trkpt lat="43.22341" lon="5.47941">
        <ele>385.1</ele>
        <time>2025-10-18T13:14:54Z</time>
      </trkpt>
      <trkpt lat="43.22341" lon="5.47941">
        <ele>385.1</ele>
        <time>2025-10-18T13:14:55Z</time>
      </trkpt>
      <trkpt lat="43.22341" lon="5.47941">
        <ele>385.2</ele>
        <time>2025-10-18T13:14:56Z</time>
      </trkpt>
      <trkpt lat="43.22342" lon="5.47941">
        <ele>385.2</ele>
        <time>2025-10-18T13:14:57Z</time>
      </trkpt>
      <trkpt lat="43.22342" lon="5.47941">
        <ele>385.2</ele>
        <time>2025-10-18T13:14:58Z</time>
      </trkpt>
      <trkpt lat="43.22341" lon="5.47941">
        <ele>385.2</ele>
        <time>2025-10-18T13:14:59Z</time>
      </trkpt>
      <trkpt lat="43.22341" lon="5.47941">
        <ele>385.1</ele>
        <time>2025-10-18T13:15:00Z</time>
      </trkpt>
      <trkpt lat="43.22341" lon="5.47941">
        <ele>385.1</ele>
        <time>2025-10-18T13:15:01Z</time>
      </trkpt>
      <trkpt lat="43.22341" lon="5.4794">
        <ele>385.1</ele>
        <time>2025-10-18T13:15:02Z</time>
      </trkpt>
      <trkpt lat="43.22341" lon="5.4794">
        <ele>385.1</ele>
        <time>2025-10-18T13:15:03Z</time>
      </trkpt>
      <trkpt lat="43.22341" lon="5.4794">
        <ele>385</ele>
        <time>2025-10-18T13:15:04Z</time>
      </trkpt>
      <trkpt lat="43.22341" lon="5.47939">
        <ele>385</ele>
        <time>2025-10-18T13:15:05Z</time>
      </trkpt>
      <trkpt lat="43.22341" lon="5.47939">
        <ele>385</ele>
        <time>2025-10-18T13:15:06Z</time>
      </trkpt>
      <trkpt lat="43.2234" lon="5.4794">
        <ele>385</ele>
        <time>2025-10-18T13:15:07Z</time>
      </trkpt>
      <trkpt lat="43.22339" lon="5.4794">
        <ele>385.1</ele>
        <time>2025-10-18T13:15:08Z</time>
      </trkpt>
      <trkpt lat="43.22339" lon="5.4794">
        <ele>385</ele>
        <time>2025-10-18T13:15:09Z</time>
      </trkpt>
      <trkpt lat="43.22339" lon="5.4794">
        <ele>384.8</ele>
        <time>2025-10-18T13:15:10Z</time>
      </trkpt>
      <trkpt lat="43.22339" lon="5.4794">
        <ele>384.8</ele>
        <time>2025-10-18T13:15:11Z</time>
      </trkpt>
      <trkpt lat="43.22339" lon="5.4794">
        <ele>384.6</ele>
        <time>2025-10-18T13:15:12Z</time>
      </trkpt>
      <trkpt lat="43.22339" lon="5.4794">
        <ele>384.5</ele>
        <time>2025-10-18T13:15:13Z</time>
      </trkpt>
      <trkpt lat="43.22339" lon="5.4794">
        <ele>384.4</ele>
        <time>2025-10-18T13:15:14Z</time>
      </trkpt>
      <trkpt lat="43.22339" lon="5.4794">
        <ele>384.4</ele>
        <time>2025-10-18T13:15:15Z</time>
      </trkpt>
      <trkpt lat="43.22339" lon="5.4794">
        <ele>384.3</ele>
        <time>2025-10-18T13:15:16Z</time>
      </trkpt>
      <trkpt lat="43.22339" lon="5.4794">
        <ele>384.2</ele>
        <time>2025-10-18T13:15:17Z</time>
      </trkpt>
      <trkpt lat="43.22339" lon="5.4794">
        <ele>384.2</ele>
        <time>2025-10-18T13:15:18Z</time>
      </trkpt>
      <trkpt lat="43.22339" lon="5.4794">
        <ele>384.1</ele>
        <time>2025-10-18T13:15:19Z</time>
      </trkpt>
      <trkpt lat="43.22339" lon="5.4794">
        <ele>384.1</ele>
        <time>2025-10-18T13:15:20Z</time>
      </trkpt>
      <trkpt lat="43.22339" lon="5.47941">
        <ele>384</ele>
        <time>2025-10-18T13:15:21Z</time>
      </trkpt>
      <trkpt lat="43.22339" lon="5.47941">
        <ele>383.9</ele>
        <time>2025-10-18T13:15:22Z</time>
      </trkpt>
      <trkpt lat="43.22339" lon="5.47941">
        <ele>383.9</ele>
        <time>2025-10-18T13:15:23Z</time>
      </trkpt>
      <trkpt lat="43.2234" lon="5.47941">
        <ele>383.8</ele>
        <time>2025-10-18T13:15:24Z</time>
      </trkpt>
      <trkpt lat="43.2234" lon="5.47941">
        <ele>383.7</ele>
        <time>2025-10-18T13:15:25Z</time>
      </trkpt>
      <trkpt lat="43.2234" lon="5.47941">
        <ele>383.6</ele>
        <time>2025-10-18T13:15:26Z</time>
      </trkpt>
      <trkpt lat="43.2234" lon="5.47942">
        <ele>383.4</ele>
        <time>2025-10-18T13:15:27Z</time>
      </trkpt>
      <trkpt lat="43.22339" lon="5.47942">
        <ele>383.2</ele>
        <time>2025-10-18T13:15:28Z</time>
      </trkpt>
      <trkpt lat="43.22339" lon="5.47942">
        <ele>383</ele>
        <time>2025-10-18T13:15:29Z</time>
      </trkpt>
      <trkpt lat="43.22339" lon="5.47942">
        <ele>382.8</ele>
        <time>2025-10-18T13:15:30Z</time>
      </trkpt>
      <trkpt lat="43.22339" lon="5.47942">
        <ele>382.6</ele>
        <time>2025-10-18T13:15:31Z</time>
      </trkpt>
      <trkpt lat="43.22339" lon="5.47942">
        <ele>382.4</ele>
        <time>2025-10-18T13:15:32Z</time>
      </trkpt>
      <trkpt lat="43.22339" lon="5.47943">
        <ele>382.3</ele>
        <time>2025-10-18T13:15:33Z</time>
      </trkpt>
      <trkpt lat="43.22339" lon="5.47943">
        <ele>382.1</ele>
        <time>2025-10-18T13:15:34Z</time>
      </trkpt>
      <trkpt lat="43.22339" lon="5.47943">
        <ele>381.9</ele>
        <time>2025-10-18T13:15:35Z</time>
      </trkpt>
      <trkpt lat="43.2234" lon="5.47943">
        <ele>381.7</ele>
        <time>2025-10-18T13:15:36Z</time>
      </trkpt>
      <trkpt lat="43.22341" lon="5.47943">
        <ele>381.6</ele>
        <time>2025-10-18T13:15:37Z</time>
      </trkpt>
      <trkpt lat="43.22341" lon="5.47944">
        <ele>381.5</ele>
        <time>2025-10-18T13:15:38Z</time>
      </trkpt>
      <trkpt lat="43.22341" lon="5.47945">
        <ele>381.4</ele>
        <time>2025-10-18T13:15:39Z</time>
      </trkpt>
      <trkpt lat="43.22342" lon="5.47945">
        <ele>381.1</ele>
        <time>2025-10-18T13:15:40Z</time>
      </trkpt>
      <trkpt lat="43.22342" lon="5.47945">
        <ele>381</ele>
        <time>2025-10-18T13:15:41Z</time>
      </trkpt>
      <trkpt lat="43.22342" lon="5.47945">
        <ele>380.9</ele>
        <time>2025-10-18T13:15:42Z</time>
      </trkpt>
      <trkpt lat="43.22342" lon="5.47945">
        <ele>380.7</ele>
        <time>2025-10-18T13:15:43Z</time>
      </trkpt>
      <trkpt lat="43.22342" lon="5.47945">
        <ele>380.7</ele>
        <time>2025-10-18T13:15:44Z</time>
      </trkpt>
      <trkpt lat="43.22342" lon="5.47945">
        <ele>380.7</ele>
        <time>2025-10-18T13:15:45Z</time>
      </trkpt>
      <trkpt lat="43.22342" lon="5.47946">
        <ele>380.5</ele>
        <time>2025-10-18T13:15:46Z</time>
      </trkpt>
      <trkpt lat="43.22342" lon="5.47946">
        <ele>380.5</ele>
        <time>2025-10-18T13:15:47Z</time>
      </trkpt>
      <trkpt lat="43.22342" lon="5.47946">
        <ele>380.5</ele>
        <time>2025-10-18T13:15:48Z</time>
      </trkpt>
      <trkpt lat="43.22342" lon="5.47947">
        <ele>380.5</ele>
        <time>2025-10-18T13:15:49Z</time>
      </trkpt>
      <trkpt lat="43.22342" lon="5.47948">
        <ele>380.4</ele>
        <time>2025-10-18T13:15:50Z</time>
      </trkpt>
      <trkpt lat="43.22343" lon="5.47948">
        <ele>380.3</ele>
        <time>2025-10-18T13:15:51Z</time>
      </trkpt>
      <trkpt lat="43.22343" lon="5.47948">
        <ele>380.2</ele>
        <time>2025-10-18T13:15:52Z</time>
      </trkpt>
      <trkpt lat="43.22343" lon="5.47949">
        <ele>380.2</ele>
        <time>2025-10-18T13:15:53Z</time>
      </trkpt>
      <trkpt lat="43.22343" lon="5.47949">
        <ele>380.1</ele>
        <time>2025-10-18T13:15:54Z</time>
      </trkpt>
      <trkpt lat="43.22343" lon="5.47949">
        <ele>380.1</ele>
        <time>2025-10-18T13:15:55Z</time>
      </trkpt>
      <trkpt lat="43.22343" lon="5.47948">
        <ele>380</ele>
        <time>2025-10-18T13:15:56Z</time>
      </trkpt>
      <trkpt lat="43.22343" lon="5.47948">
        <ele>380</ele>
        <time>2025-10-18T13:15:57Z</time>
      </trkpt>
      <trkpt lat="43.22343" lon="5.47948">
        <ele>379.9</ele>
        <time>2025-10-18T13:15:58Z</time>
      </trkpt>
      <trkpt lat="43.22343" lon="5.47948">
        <ele>379.8</ele>
        <time>2025-10-18T13:15:59Z</time>
      </trkpt>
      <trkpt lat="43.22343" lon="5.47948">
        <ele>379.6</ele>
        <time>2025-10-18T13:16:00Z</time>
      </trkpt>
      <trkpt lat="43.22343" lon="5.47948">
        <ele>379.6</ele>
        <time>2025-10-18T13:16:01Z</time>
      </trkpt>
      <trkpt lat="43.22343" lon="5.47948">
        <ele>379.5</ele>
        <time>2025-10-18T13:16:02Z</time>
      </trkpt>
      <trkpt lat="43.22343" lon="5.47949">
        <ele>379.5</ele>
        <time>2025-10-18T13:16:03Z</time>
      </trkpt>
      <trkpt lat="43.22344" lon="5.47949">
        <ele>379.7</ele>
        <time>2025-10-18T13:16:04Z</time>
      </trkpt>
      <trkpt lat="43.22344" lon="5.47949">
        <ele>379.6</ele>
        <time>2025-10-18T13:16:05Z</time>
      </trkpt>
      <trkpt lat="43.22344" lon="5.47949">
        <ele>379.5</ele>
        <time>2025-10-18T13:16:06Z</time>
      </trkpt>
      <trkpt lat="43.22344" lon="5.47949">
        <ele>379.5</ele>
        <time>2025-10-18T13:16:07Z</time>
      </trkpt>
      <trkpt lat="43.22344" lon="5.47949">
        <ele>379.5</ele>
        <time>2025-10-18T13:16:08Z</time>
      </trkpt>
      <trkpt lat="43.22343" lon="5.47949">
        <ele>379.4</ele>
        <time>2025-10-18T13:16:09Z</time>
      </trkpt>
      <trkpt lat="43.22343" lon="5.47949">
        <ele>379.4</ele>
        <time>2025-10-18T13:16:10Z</time>
      </trkpt>
      <trkpt lat="43.22343" lon="5.47949">
        <ele>379.4</ele>
        <time>2025-10-18T13:16:11Z</time>
      </trkpt>
      <trkpt lat="43.22343" lon="5.47949">
        <ele>379.3</ele>
        <time>2025-10-18T13:16:12Z</time>
      </trkpt>
      <trkpt lat="43.22343" lon="5.47949">
        <ele>379.3</ele>
        <time>2025-10-18T13:16:13Z</time>
      </trkpt>
      <trkpt lat="43.22344" lon="5.4795">
        <ele>379.3</ele>
        <time>2025-10-18T13:16:14Z</time>
      </trkpt>
      <trkpt lat="43.22344" lon="5.4795">
        <ele>379.3</ele>
        <time>2025-10-18T13:16:15Z</time>
      </trkpt>
      <trkpt lat="43.22344" lon="5.47951">
        <ele>379.3</ele>
        <time>2025-10-18T13:16:16Z</time>
      </trkpt>
      <trkpt lat="43.22344" lon="5.47952">
        <ele>379.2</ele>
        <time>2025-10-18T13:16:17Z</time>
      </trkpt>
      <trkpt lat="43.22344" lon="5.47952">
        <ele>379.1</ele>
        <time>2025-10-18T13:16:18Z</time>
      </trkpt>
      <trkpt lat="43.22345" lon="5.47952">
        <ele>379</ele>
        <time>2025-10-18T13:16:19Z</time>
      </trkpt>
      <trkpt lat="43.22345" lon="5.47953">
        <ele>379</ele>
        <time>2025-10-18T13:16:20Z</time>
      </trkpt>
      <trkpt lat="43.22345" lon="5.47954">
        <ele>378.8</ele>
        <time>2025-10-18T13:16:21Z</time>
      </trkpt>
      <trkpt lat="43.22345" lon="5.47954">
        <ele>378.7</ele>
        <time>2025-10-18T13:16:22Z</time>
      </trkpt>
      <trkpt lat="43.22346" lon="5.47955">
        <ele>378.5</ele>
        <time>2025-10-18T13:16:23Z</time>
      </trkpt>
      <trkpt lat="43.22346" lon="5.47955">
        <ele>378.3</ele>
        <time>2025-10-18T13:16:24Z</time>
      </trkpt>
      <trkpt lat="43.22346" lon="5.47955">
        <ele>378</ele>
        <time>2025-10-18T13:16:25Z</time>
      </trkpt>
      <trkpt lat="43.22346" lon="5.47956">
        <ele>377.8</ele>
        <time>2025-10-18T13:16:26Z</time>
      </trkpt>
      <trkpt lat="43.22347" lon="5.47957">
        <ele>377.6</ele>
        <time>2025-10-18T13:16:27Z</time>
      </trkpt>
      <trkpt lat="43.22347" lon="5.47957">
        <ele>377.5</ele>
        <time>2025-10-18T13:16:28Z</time>
      </trkpt>
      <trkpt lat="43.22347" lon="5.47958">
        <ele>377.3</ele>
        <time>2025-10-18T13:16:29Z</time>
      </trkpt>
      <trkpt lat="43.22348" lon="5.47958">
        <ele>377.1</ele>
        <time>2025-10-18T13:16:30Z</time>
      </trkpt>
      <trkpt lat="43.22348" lon="5.47959">
        <ele>377</ele>
        <time>2025-10-18T13:16:31Z</time>
      </trkpt>
      <trkpt lat="43.22347" lon="5.47959">
        <ele>376.8</ele>
        <time>2025-10-18T13:16:32Z</time>
      </trkpt>
      <trkpt lat="43.22347" lon="5.47959">
        <ele>376.6</ele>
        <time>2025-10-18T13:16:33Z</time>
      </trkpt>
      <trkpt lat="43.22347" lon="5.4796">
        <ele>376.5</ele>
        <time>2025-10-18T13:16:34Z</time>
      </trkpt>
      <trkpt lat="43.22347" lon="5.4796">
        <ele>376.4</ele>
        <time>2025-10-18T13:16:35Z</time>
      </trkpt>
      <trkpt lat="43.22347" lon="5.4796">
        <ele>376.3</ele>
        <time>2025-10-18T13:16:36Z</time>
      </trkpt>
      <trkpt lat="43.22348" lon="5.4796">
        <ele>376.2</ele>
        <time>2025-10-18T13:16:37Z</time>
      </trkpt>
      <trkpt lat="43.22348" lon="5.4796">
        <ele>376.1</ele>
        <time>2025-10-18T13:16:38Z</time>
      </trkpt>
      <trkpt lat="43.22348" lon="5.4796">
        <ele>376.1</ele>
        <time>2025-10-18T13:16:39Z</time>
      </trkpt>
      <trkpt lat="43.22347" lon="5.4796">
        <ele>376</ele>
        <time>2025-10-18T13:16:40Z</time>
      </trkpt>
      <trkpt lat="43.22347" lon="5.4796">
        <ele>376.1</ele>
        <time>2025-10-18T13:16:41Z</time>
      </trkpt>
      <trkpt lat="43.22347" lon="5.4796">
        <ele>376.1</ele>
        <time>2025-10-18T13:16:42Z</time>
      </trkpt>
      <trkpt lat="43.22347" lon="5.4796">
        <ele>376</ele>
        <time>2025-10-18T13:16:43Z</time>
      </trkpt>
      <trkpt lat="43.22347" lon="5.4796">
        <ele>375.9</ele>
        <time>2025-10-18T13:16:44Z</time>
      </trkpt>
      <trkpt lat="43.22347" lon="5.4796">
        <ele>376</ele>
        <time>2025-10-18T13:16:45Z</time>
      </trkpt>
      <trkpt lat="43.22347" lon="5.4796">
        <ele>376</ele>
        <time>2025-10-18T13:16:46Z</time>
      </trkpt>
      <trkpt lat="43.22347" lon="5.4796">
        <ele>376.1</ele>
        <time>2025-10-18T13:16:47Z</time>
      </trkpt>
      <trkpt lat="43.22347" lon="5.4796">
        <ele>376</ele>
        <time>2025-10-18T13:16:48Z</time>
      </trkpt>
      <trkpt lat="43.22347" lon="5.4796">
        <ele>376</ele>
        <time>2025-10-18T13:16:49Z</time>
      </trkpt>
      <trkpt lat="43.22347" lon="5.4796">
        <ele>375.9</ele>
        <time>2025-10-18T13:16:50Z</time>
      </trkpt>
      <trkpt lat="43.22347" lon="5.4796">
        <ele>376</ele>
        <time>2025-10-18T13:16:51Z</time>
      </trkpt>
      <trkpt lat="43.22347" lon="5.4796">
        <ele>376</ele>
        <time>2025-10-18T13:16:52Z</time>
      </trkpt>
      <trkpt lat="43.22348" lon="5.4796">
        <ele>376.1</ele>
        <time>2025-10-18T13:16:53Z</time>
      </trkpt>
      <trkpt lat="43.22348" lon="5.4796">
        <ele>376.1</ele>
        <time>2025-10-18T13:16:54Z</time>
      </trkpt>
      <trkpt lat="43.22348" lon="5.4796">
        <ele>376.1</ele>
        <time>2025-10-18T13:16:55Z</time>
      </trkpt>
      <trkpt lat="43.22348" lon="5.4796">
        <ele>376</ele>
        <time>2025-10-18T13:16:56Z</time>
      </trkpt>
      <trkpt lat="43.22348" lon="5.47961">
        <ele>376</ele>
        <time>2025-10-18T13:16:57Z</time>
      </trkpt>
      <trkpt lat="43.22348" lon="5.47961">
        <ele>376</ele>
        <time>2025-10-18T13:16:58Z</time>
      </trkpt>
      <trkpt lat="43.22348" lon="5.47962">
        <ele>375.8</ele>
        <time>2025-10-18T13:16:59Z</time>
      </trkpt>
      <trkpt lat="43.22348" lon="5.47962">
        <ele>375.7</ele>
        <time>2025-10-18T13:17:00Z</time>
      </trkpt>
      <trkpt lat="43.22349" lon="5.47963">
        <ele>375.5</ele>
        <time>2025-10-18T13:17:01Z</time>
      </trkpt>
      <trkpt lat="43.22349" lon="5.47963">
        <ele>375.3</ele>
        <time>2025-10-18T13:17:02Z</time>
      </trkpt>
      <trkpt lat="43.22349" lon="5.47964">
        <ele>375.2</ele>
        <time>2025-10-18T13:17:03Z</time>
      </trkpt>
      <trkpt lat="43.22349" lon="5.47964">
        <ele>375.1</ele>
        <time>2025-10-18T13:17:04Z</time>
      </trkpt>
      <trkpt lat="43.22349" lon="5.47964">
        <ele>375</ele>
        <time>2025-10-18T13:17:05Z</time>
      </trkpt>
      <trkpt lat="43.22349" lon="5.47964">
        <ele>374.9</ele>
        <time>2025-10-18T13:17:06Z</time>
      </trkpt>
      <trkpt lat="43.22349" lon="5.47964">
        <ele>374.9</ele>
        <time>2025-10-18T13:17:07Z</time>
      </trkpt>
      <trkpt lat="43.22349" lon="5.47965">
        <ele>374.8</ele>
        <time>2025-10-18T13:17:08Z</time>
      </trkpt>
      <trkpt lat="43.22349" lon="5.47965">
        <ele>374.7</ele>
        <time>2025-10-18T13:17:09Z</time>
      </trkpt>
      <trkpt lat="43.22349" lon="5.47965">
        <ele>374.7</ele>
        <time>2025-10-18T13:17:10Z</time>
      </trkpt>
      <trkpt lat="43.22349" lon="5.47965">
        <ele>374.6</ele>
        <time>2025-10-18T13:17:11Z</time>
      </trkpt>
      <trkpt lat="43.22349" lon="5.47965">
        <ele>374.5</ele>
        <time>2025-10-18T13:17:12Z</time>
      </trkpt>
      <trkpt lat="43.22349" lon="5.47965">
        <ele>374.4</ele>
        <time>2025-10-18T13:17:13Z</time>
      </trkpt>
      <trkpt lat="43.22349" lon="5.47965">
        <ele>374.4</ele>
        <time>2025-10-18T13:17:14Z</time>
      </trkpt>
      <trkpt lat="43.22349" lon="5.47965">
        <ele>374.4</ele>
        <time>2025-10-18T13:17:15Z</time>
      </trkpt>
      <trkpt lat="43.22349" lon="5.47965">
        <ele>374.4</ele>
        <time>2025-10-18T13:17:16Z</time>
      </trkpt>
      <trkpt lat="43.22349" lon="5.47965">
        <ele>374.3</ele>
        <time>2025-10-18T13:17:17Z</time>
      </trkpt>
      <trkpt lat="43.22349" lon="5.47965">
        <ele>374.4</ele>
        <time>2025-10-18T13:17:18Z</time>
      </trkpt>
      <trkpt lat="43.22349" lon="5.47964">
        <ele>374.4</ele>
        <time>2025-10-18T13:17:19Z</time>
      </trkpt>
      <trkpt lat="43.22349" lon="5.47964">
        <ele>374.4</ele>
        <time>2025-10-18T13:17:20Z</time>
      </trkpt>
      <trkpt lat="43.22349" lon="5.47964">
        <ele>374.4</ele>
        <time>2025-10-18T13:17:21Z</time>
      </trkpt>
      <trkpt lat="43.22349" lon="5.47964">
        <ele>374.4</ele>
        <time>2025-10-18T13:17:22Z</time>
      </trkpt>
      <trkpt lat="43.22349" lon="5.47964">
        <ele>374.4</ele>
        <time>2025-10-18T13:17:23Z</time>
      </trkpt>
      <trkpt lat="43.22349" lon="5.47964">
        <ele>374.4</ele>
        <time>2025-10-18T13:17:24Z</time>
      </trkpt>
      <trkpt lat="43.22349" lon="5.47964">
        <ele>374.4</ele>
        <time>2025-10-18T13:17:25Z</time>
      </trkpt>
      <trkpt lat="43.22349" lon="5.47964">
        <ele>374.4</ele>
        <time>2025-10-18T13:17:26Z</time>
      </trkpt>
      <trkpt lat="43.22349" lon="5.47964">
        <ele>374.3</ele>
        <time>2025-10-18T13:17:27Z</time>
      </trkpt>
      <trkpt lat="43.22349" lon="5.47964">
        <ele>374.3</ele>
        <time>2025-10-18T13:17:28Z</time>
      </trkpt>
      <trkpt lat="43.22349" lon="5.47965">
        <ele>374.4</ele>
        <time>2025-10-18T13:17:29Z</time>
      </trkpt>
      <trkpt lat="43.22349" lon="5.47965">
        <ele>374.4</ele>
        <time>2025-10-18T13:17:30Z</time>
      </trkpt>
      <trkpt lat="43.22349" lon="5.47965">
        <ele>374.4</ele>
        <time>2025-10-18T13:17:31Z</time>
      </trkpt>
      <trkpt lat="43.22349" lon="5.47965">
        <ele>374.4</ele>
        <time>2025-10-18T13:17:32Z</time>
      </trkpt>
      <trkpt lat="43.22349" lon="5.47965">
        <ele>374.4</ele>
        <time>2025-10-18T13:17:33Z</time>
      </trkpt>
      <trkpt lat="43.22349" lon="5.47965">
        <ele>374.4</ele>
        <time>2025-10-18T13:17:34Z</time>
      </trkpt>
      <trkpt lat="43.22349" lon="5.47965">
        <ele>374.4</ele>
        <time>2025-10-18T13:17:35Z</time>
      </trkpt>
      <trkpt lat="43.22349" lon="5.47965">
        <ele>374.4</ele>
        <time>2025-10-18T13:17:36Z</time>
      </trkpt>
      <trkpt lat="43.22349" lon="5.47965">
        <ele>374.4</ele>
        <time>2025-10-18T13:17:37Z</time>
      </trkpt>
      <trkpt lat="43.22349" lon="5.47965">
        <ele>374.5</ele>
        <time>2025-10-18T13:17:38Z</time>
      </trkpt>
      <trkpt lat="43.22349" lon="5.47965">
        <ele>374.4</ele>
        <time>2025-10-18T13:17:39Z</time>
      </trkpt>
      <trkpt lat="43.22349" lon="5.47965">
        <ele>374.4</ele>
        <time>2025-10-18T13:17:40Z</time>
      </trkpt>
      <trkpt lat="43.22349" lon="5.47965">
        <ele>374.3</ele>
        <time>2025-10-18T13:17:41Z</time>
      </trkpt>
      <trkpt lat="43.22349" lon="5.47965">
        <ele>374.4</ele>
        <time>2025-10-18T13:17:42Z</time>
      </trkpt>
      <trkpt lat="43.22348" lon="5.47965">
        <ele>374.4</ele>
        <time>2025-10-18T13:17:43Z</time>
      </trkpt>
      <trkpt lat="43.22349" lon="5.47965">
        <ele>374.4</ele>
        <time>2025-10-18T13:17:44Z</time>
      </trkpt>
      <trkpt lat="43.22349" lon="5.47965">
        <ele>374.4</ele>
        <time>2025-10-18T13:17:45Z</time>
      </trkpt>
      <trkpt lat="43.22349" lon="5.47965">
        <ele>374.3</ele>
        <time>2025-10-18T13:17:46Z</time>
      </trkpt>
      <trkpt lat="43.22349" lon="5.47965">
        <ele>374.3</ele>
        <time>2025-10-18T13:17:47Z</time>
      </trkpt>
      <trkpt lat="43.2235" lon="5.47966">
        <ele>374.1</ele>
        <time>2025-10-18T13:17:48Z</time>
      </trkpt>
      <trkpt lat="43.2235" lon="5.47966">
        <ele>373.9</ele>
        <time>2025-10-18T13:17:49Z</time>
      </trkpt>
      <trkpt lat="43.2235" lon="5.47966">
        <ele>373.8</ele>
        <time>2025-10-18T13:17:50Z</time>
      </trkpt>
      <trkpt lat="43.2235" lon="5.47966">
        <ele>373.6</ele>
        <time>2025-10-18T13:17:51Z</time>
      </trkpt>
      <trkpt lat="43.2235" lon="5.47966">
        <ele>373.5</ele>
        <time>2025-10-18T13:17:52Z</time>
      </trkpt>
      <trkpt lat="43.2235" lon="5.47966">
        <ele>373.3</ele>
        <time>2025-10-18T13:17:53Z</time>
      </trkpt>
      <trkpt lat="43.2235" lon="5.47966">
        <ele>373.2</ele>
        <time>2025-10-18T13:17:54Z</time>
      </trkpt>
      <trkpt lat="43.2235" lon="5.47966">
        <ele>373.2</ele>
        <time>2025-10-18T13:17:55Z</time>
      </trkpt>
      <trkpt lat="43.2235" lon="5.47966">
        <ele>373.1</ele>
        <time>2025-10-18T13:17:56Z</time>
      </trkpt>
      <trkpt lat="43.2235" lon="5.47966">
        <ele>373.1</ele>
        <time>2025-10-18T13:17:57Z</time>
      </trkpt>
      <trkpt lat="43.2235" lon="5.47966">
        <ele>373.2</ele>
        <time>2025-10-18T13:17:58Z</time>
      </trkpt>
      <trkpt lat="43.2235" lon="5.47966">
        <ele>373.2</ele>
        <time>2025-10-18T13:17:59Z</time>
      </trkpt>
      <trkpt lat="43.2235" lon="5.47966">
        <ele>373.2</ele>
        <time>2025-10-18T13:18:00Z</time>
      </trkpt>
      <trkpt lat="43.2235" lon="5.47966">
        <ele>373.1</ele>
        <time>2025-10-18T13:18:01Z</time>
      </trkpt>
      <trkpt lat="43.2235" lon="5.47966">
        <ele>373.1</ele>
        <time>2025-10-18T13:18:02Z</time>
      </trkpt>
      <trkpt lat="43.2235" lon="5.47966">
        <ele>373.2</ele>
        <time>2025-10-18T13:18:03Z</time>
      </trkpt>
      <trkpt lat="43.2235" lon="5.47966">
        <ele>373.2</ele>
        <time>2025-10-18T13:18:04Z</time>
      </trkpt>
      <trkpt lat="43.2235" lon="5.47966">
        <ele>373.2</ele>
        <time>2025-10-18T13:18:05Z</time>
      </trkpt>
      <trkpt lat="43.2235" lon="5.47966">
        <ele>373.2</ele>
        <time>2025-10-18T13:18:06Z</time>
      </trkpt>
      <trkpt lat="43.2235" lon="5.47966">
        <ele>373.1</ele>
        <time>2025-10-18T13:18:07Z</time>
      </trkpt>
      <trkpt lat="43.2235" lon="5.47966">
        <ele>373.1</ele>
        <time>2025-10-18T13:18:08Z</time>
      </trkpt>
      <trkpt lat="43.2235" lon="5.47966">
        <ele>373.1</ele>
        <time>2025-10-18T13:18:09Z</time>
      </trkpt>
      <trkpt lat="43.2235" lon="5.47966">
        <ele>373.1</ele>
        <time>2025-10-18T13:18:10Z</time>
      </trkpt>
      <trkpt lat="43.2235" lon="5.47966">
        <ele>373.1</ele>
        <time>2025-10-18T13:18:11Z</time>
      </trkpt>
      <trkpt lat="43.2235" lon="5.47966">
        <ele>373.1</ele>
        <time>2025-10-18T13:18:12Z</time>
      </trkpt>
      <trkpt lat="43.2235" lon="5.47966">
        <ele>373.1</ele>
        <time>2025-10-18T13:18:13Z</time>
      </trkpt>
      <trkpt lat="43.2235" lon="5.47966">
        <ele>373.1</ele>
        <time>2025-10-18T13:18:14Z</time>
      </trkpt>
      <trkpt lat="43.2235" lon="5.47966">
        <ele>373.1</ele>
        <time>2025-10-18T13:18:15Z</time>
      </trkpt>
      <trkpt lat="43.2235" lon="5.47966">
        <ele>373.2</ele>
        <time>2025-10-18T13:18:16Z</time>
      </trkpt>
      <trkpt lat="43.2235" lon="5.47966">
        <ele>373.2</ele>
        <time>2025-10-18T13:18:17Z</time>
      </trkpt>
      <trkpt lat="43.2235" lon="5.47966">
        <ele>373.2</ele>
        <time>2025-10-18T13:18:18Z</time>
      </trkpt>
      <trkpt lat="43.22351" lon="5.47967">
        <ele>373.3</ele>
        <time>2025-10-18T13:18:19Z</time>
      </trkpt>
      <trkpt lat="43.22351" lon="5.47967">
        <ele>373.2</ele>
        <time>2025-10-18T13:18:20Z</time>
      </trkpt>
      <trkpt lat="43.22351" lon="5.47967">
        <ele>373.2</ele>
        <time>2025-10-18T13:18:21Z</time>
      </trkpt>
      <trkpt lat="43.22351" lon="5.47967">
        <ele>373.1</ele>
        <time>2025-10-18T13:18:22Z</time>
      </trkpt>
      <trkpt lat="43.22351" lon="5.47968">
        <ele>373.1</ele>
        <time>2025-10-18T13:18:23Z</time>
      </trkpt>
      <trkpt lat="43.22351" lon="5.47968">
        <ele>373</ele>
        <time>2025-10-18T13:18:24Z</time>
      </trkpt>
      <trkpt lat="43.22351" lon="5.47968">
        <ele>372.9</ele>
        <time>2025-10-18T13:18:25Z</time>
      </trkpt>
      <trkpt lat="43.22351" lon="5.47968">
        <ele>372.9</ele>
        <time>2025-10-18T13:18:26Z</time>
      </trkpt>
      <trkpt lat="43.22351" lon="5.47968">
        <ele>372.9</ele>
        <time>2025-10-18T13:18:27Z</time>
      </trkpt>
      <trkpt lat="43.22351" lon="5.47968">
        <ele>372.9</ele>
        <time>2025-10-18T13:18:28Z</time>
      </trkpt>
      <trkpt lat="43.22351" lon="5.47968">
        <ele>372.9</ele>
        <time>2025-10-18T13:18:29Z</time>
      </trkpt>
      <trkpt lat="43.22351" lon="5.47968">
        <ele>372.9</ele>
        <time>2025-10-18T13:18:30Z</time>
      </trkpt>
      <trkpt lat="43.22351" lon="5.47968">
        <ele>372.9</ele>
        <time>2025-10-18T13:18:31Z</time>
      </trkpt>
      <trkpt lat="43.22352" lon="5.47968">
        <ele>372.9</ele>
        <time>2025-10-18T13:18:32Z</time>
      </trkpt>
      <trkpt lat="43.22352" lon="5.47968">
        <ele>372.9</ele>
        <time>2025-10-18T13:18:33Z</time>
      </trkpt>
      <trkpt lat="43.22352" lon="5.47968">
        <ele>372.9</ele>
        <time>2025-10-18T13:18:34Z</time>
      </trkpt>
      <trkpt lat="43.22352" lon="5.47968">
        <ele>372.9</ele>
        <time>2025-10-18T13:18:35Z</time>
      </trkpt>
      <trkpt lat="43.22352" lon="5.47968">
        <ele>372.8</ele>
        <time>2025-10-18T13:18:36Z</time>
      </trkpt>
      <trkpt lat="43.22353" lon="5.47968">
        <ele>372.8</ele>
        <time>2025-10-18T13:18:37Z</time>
      </trkpt>
      <trkpt lat="43.22353" lon="5.47968">
        <ele>372.9</ele>
        <time>2025-10-18T13:18:38Z</time>
      </trkpt>
      <trkpt lat="43.22353" lon="5.47969">
        <ele>372.8</ele>
        <time>2025-10-18T13:18:39Z</time>
      </trkpt>
      <trkpt lat="43.22353" lon="5.47969">
        <ele>372.8</ele>
        <time>2025-10-18T13:18:40Z</time>
      </trkpt>
      <trkpt lat="43.22353" lon="5.47969">
        <ele>372.8</ele>
        <time>2025-10-18T13:18:41Z</time>
      </trkpt>
      <trkpt lat="43.22353" lon="5.47969">
        <ele>372.8</ele>
        <time>2025-10-18T13:18:42Z</time>
      </trkpt>
      <trkpt lat="43.22353" lon="5.47969">
        <ele>372.8</ele>
        <time>2025-10-18T13:18:43Z</time>
      </trkpt>
      <trkpt lat="43.22354" lon="5.47969">
        <ele>372.8</ele>
        <time>2025-10-18T13:18:44Z</time>
      </trkpt>
      <trkpt lat="43.22354" lon="5.47969">
        <ele>372.8</ele>
        <time>2025-10-18T13:18:45Z</time>
      </trkpt>
      <trkpt lat="43.22354" lon="5.47969">
        <ele>372.7</ele>
        <time>2025-10-18T13:18:46Z</time>
      </trkpt>
      <trkpt lat="43.22354" lon="5.47969">
        <ele>372.7</ele>
        <time>2025-10-18T13:18:47Z</time>
      </trkpt>
      <trkpt lat="43.22354" lon="5.47969">
        <ele>372.7</ele>
        <time>2025-10-18T13:18:48Z</time>
      </trkpt>
      <trkpt lat="43.22354" lon="5.47969">
        <ele>372.7</ele>
        <time>2025-10-18T13:18:49Z</time>
      </trkpt>
      <trkpt lat="43.22354" lon="5.47969">
        <ele>372.7</ele>
        <time>2025-10-18T13:18:50Z</time>
      </trkpt>
      <trkpt lat="43.22354" lon="5.47969">
        <ele>372.8</ele>
        <time>2025-10-18T13:18:51Z</time>
      </trkpt>
      <trkpt lat="43.22354" lon="5.47969">
        <ele>372.7</ele>
        <time>2025-10-18T13:18:52Z</time>
      </trkpt>
      <trkpt lat="43.22354" lon="5.47969">
        <ele>372.8</ele>
        <time>2025-10-18T13:18:53Z</time>
      </trkpt>
      <trkpt lat="43.22354" lon="5.47969">
        <ele>372.9</ele>
        <time>2025-10-18T13:18:54Z</time>
      </trkpt>
      <trkpt lat="43.22354" lon="5.47969">
        <ele>372.9</ele>
        <time>2025-10-18T13:18:55Z</time>
      </trkpt>
      <trkpt lat="43.22355" lon="5.47969">
        <ele>372.9</ele>
        <time>2025-10-18T13:18:56Z</time>
      </trkpt>
      <trkpt lat="43.22354" lon="5.47969">
        <ele>372.9</ele>
        <time>2025-10-18T13:18:57Z</time>
      </trkpt>
      <trkpt lat="43.22354" lon="5.47969">
        <ele>372.9</ele>
        <time>2025-10-18T13:18:58Z</time>
      </trkpt>
      <trkpt lat="43.22354" lon="5.4797">
        <ele>372.9</ele>
        <time>2025-10-18T13:18:59Z</time>
      </trkpt>
      <trkpt lat="43.22354" lon="5.4797">
        <ele>372.9</ele>
        <time>2025-10-18T13:19:00Z</time>
      </trkpt>
      <trkpt lat="43.22354" lon="5.4797">
        <ele>372.9</ele>
        <time>2025-10-18T13:19:01Z</time>
      </trkpt>
      <trkpt lat="43.22354" lon="5.4797">
        <ele>372.9</ele>
        <time>2025-10-18T13:19:02Z</time>
      </trkpt>
      <trkpt lat="43.22354" lon="5.4797">
        <ele>372.9</ele>
        <time>2025-10-18T13:19:03Z</time>
      </trkpt>
      <trkpt lat="43.22354" lon="5.4797">
        <ele>372.9</ele>
        <time>2025-10-18T13:19:04Z</time>
      </trkpt>
      <trkpt lat="43.22355" lon="5.4797">
        <ele>372.9</ele>
        <time>2025-10-18T13:19:05Z</time>
      </trkpt>
      <trkpt lat="43.22355" lon="5.4797">
        <ele>372.9</ele>
        <time>2025-10-18T13:19:06Z</time>
      </trkpt>
      <trkpt lat="43.22355" lon="5.4797">
        <ele>373</ele>
        <time>2025-10-18T13:19:07Z</time>
      </trkpt>
      <trkpt lat="43.22355" lon="5.4797">
        <ele>373</ele>
        <time>2025-10-18T13:19:08Z</time>
      </trkpt>
      <trkpt lat="43.22355" lon="5.4797">
        <ele>373</ele>
        <time>2025-10-18T13:19:09Z</time>
      </trkpt>
      <trkpt lat="43.22355" lon="5.4797">
        <ele>373</ele>
        <time>2025-10-18T13:19:10Z</time>
      </trkpt>
      <trkpt lat="43.22355" lon="5.4797">
        <ele>373</ele>
        <time>2025-10-18T13:19:11Z</time>
      </trkpt>
      <trkpt lat="43.22355" lon="5.4797">
        <ele>373</ele>
        <time>2025-10-18T13:19:12Z</time>
      </trkpt>
      <trkpt lat="43.22355" lon="5.4797">
        <ele>373.1</ele>
        <time>2025-10-18T13:19:13Z</time>
      </trkpt>
      <trkpt lat="43.22355" lon="5.4797">
        <ele>373.1</ele>
        <time>2025-10-18T13:19:14Z</time>
      </trkpt>
      <trkpt lat="43.22355" lon="5.4797">
        <ele>373.1</ele>
        <time>2025-10-18T13:19:15Z</time>
      </trkpt>
      <trkpt lat="43.22355" lon="5.4797">
        <ele>373</ele>
        <time>2025-10-18T13:19:16Z</time>
      </trkpt>
      <trkpt lat="43.22355" lon="5.4797">
        <ele>372.9</ele>
        <time>2025-10-18T13:19:17Z</time>
      </trkpt>
      <trkpt lat="43.22356" lon="5.4797">
        <ele>372.8</ele>
        <time>2025-10-18T13:19:18Z</time>
      </trkpt>
      <trkpt lat="43.22356" lon="5.4797">
        <ele>372.8</ele>
        <time>2025-10-18T13:19:19Z</time>
      </trkpt>
      <trkpt lat="43.22356" lon="5.4797">
        <ele>372.8</ele>
        <time>2025-10-18T13:19:20Z</time>
      </trkpt>
      <trkpt lat="43.22356" lon="5.4797">
        <ele>372.9</ele>
        <time>2025-10-18T13:19:21Z</time>
      </trkpt>
      <trkpt lat="43.22356" lon="5.47969">
        <ele>372.9</ele>
        <time>2025-10-18T13:19:22Z</time>
      </trkpt>
      <trkpt lat="43.22356" lon="5.47969">
        <ele>373</ele>
        <time>2025-10-18T13:19:23Z</time>
      </trkpt>
      <trkpt lat="43.22356" lon="5.47969">
        <ele>372.9</ele>
        <time>2025-10-18T13:19:24Z</time>
      </trkpt>
      <trkpt lat="43.22357" lon="5.47969">
        <ele>372.9</ele>
        <time>2025-10-18T13:19:25Z</time>
      </trkpt>
      <trkpt lat="43.22357" lon="5.47969">
        <ele>372.9</ele>
        <time>2025-10-18T13:19:26Z</time>
      </trkpt>
      <trkpt lat="43.22357" lon="5.47969">
        <ele>372.8</ele>
        <time>2025-10-18T13:19:27Z</time>
      </trkpt>
      <trkpt lat="43.22357" lon="5.47969">
        <ele>372.9</ele>
        <time>2025-10-18T13:19:28Z</time>
      </trkpt>
      <trkpt lat="43.22357" lon="5.47969">
        <ele>372.9</ele>
        <time>2025-10-18T13:19:29Z</time>
      </trkpt>
      <trkpt lat="43.22357" lon="5.47969">
        <ele>372.9</ele>
        <time>2025-10-18T13:19:30Z</time>
      </trkpt>
      <trkpt lat="43.22357" lon="5.47969">
        <ele>372.9</ele>
        <time>2025-10-18T13:19:31Z</time>
      </trkpt>
      <trkpt lat="43.22357" lon="5.47969">
        <ele>372.8</ele>
        <time>2025-10-18T13:19:32Z</time>
      </trkpt>
      <trkpt lat="43.22357" lon="5.47969">
        <ele>372.7</ele>
        <time>2025-10-18T13:19:33Z</time>
      </trkpt>
      <trkpt lat="43.22357" lon="5.4797">
        <ele>372.7</ele>
        <time>2025-10-18T13:19:34Z</time>
      </trkpt>
      <trkpt lat="43.22356" lon="5.4797">
        <ele>372.6</ele>
        <time>2025-10-18T13:19:35Z</time>
      </trkpt>
      <trkpt lat="43.22356" lon="5.47971">
        <ele>372.6</ele>
        <time>2025-10-18T13:19:36Z</time>
      </trkpt>
      <trkpt lat="43.22357" lon="5.47972">
        <ele>372.4</ele>
        <time>2025-10-18T13:19:37Z</time>
      </trkpt>
      <trkpt lat="43.22356" lon="5.47972">
        <ele>372.1</ele>
        <time>2025-10-18T13:19:38Z</time>
      </trkpt>
      <trkpt lat="43.22356" lon="5.47972">
        <ele>371.9</ele>
        <time>2025-10-18T13:19:39Z</time>
      </trkpt>
      <trkpt lat="43.22356" lon="5.47972">
        <ele>371.8</ele>
        <time>2025-10-18T13:19:40Z</time>
      </trkpt>
      <trkpt lat="43.22356" lon="5.47973">
        <ele>371.7</ele>
        <time>2025-10-18T13:19:41Z</time>
      </trkpt>
      <trkpt lat="43.22356" lon="5.47973">
        <ele>371.5</ele>
        <time>2025-10-18T13:19:42Z</time>
      </trkpt>
      <trkpt lat="43.22356" lon="5.47974">
        <ele>371.4</ele>
        <time>2025-10-18T13:19:43Z</time>
      </trkpt>
      <trkpt lat="43.22357" lon="5.47974">
        <ele>371.2</ele>
        <time>2025-10-18T13:19:44Z</time>
      </trkpt>
      <trkpt lat="43.22357" lon="5.47974">
        <ele>371.1</ele>
        <time>2025-10-18T13:19:45Z</time>
      </trkpt>
      <trkpt lat="43.22357" lon="5.47975">
        <ele>371</ele>
        <time>2025-10-18T13:19:46Z</time>
      </trkpt>
      <trkpt lat="43.22357" lon="5.47975">
        <ele>370.9</ele>
        <time>2025-10-18T13:19:47Z</time>
      </trkpt>
      <trkpt lat="43.22357" lon="5.47974">
        <ele>370.8</ele>
        <time>2025-10-18T13:19:48Z</time>
      </trkpt>
      <trkpt lat="43.22357" lon="5.47974">
        <ele>370.8</ele>
        <time>2025-10-18T13:19:49Z</time>
      </trkpt>
      <trkpt lat="43.22357" lon="5.47974">
        <ele>370.8</ele>
        <time>2025-10-18T13:19:50Z</time>
      </trkpt>
      <trkpt lat="43.22357" lon="5.47974">
        <ele>370.7</ele>
        <time>2025-10-18T13:19:51Z</time>
      </trkpt>
      <trkpt lat="43.22357" lon="5.47974">
        <ele>370.6</ele>
        <time>2025-10-18T13:19:52Z</time>
      </trkpt>
      <trkpt lat="43.22356" lon="5.47974">
        <ele>370.5</ele>
        <time>2025-10-18T13:19:53Z</time>
      </trkpt>
      <trkpt lat="43.22356" lon="5.47974">
        <ele>370.5</ele>
        <time>2025-10-18T13:19:54Z</time>
      </trkpt>
      <trkpt lat="43.22355" lon="5.47974">
        <ele>370.3</ele>
        <time>2025-10-18T13:19:55Z</time>
      </trkpt>
      <trkpt lat="43.22354" lon="5.47975">
        <ele>370.3</ele>
        <time>2025-10-18T13:19:56Z</time>
      </trkpt>
      <trkpt lat="43.22354" lon="5.47975">
        <ele>370.1</ele>
        <time>2025-10-18T13:19:57Z</time>
      </trkpt>
      <trkpt lat="43.22354" lon="5.47975">
        <ele>370</ele>
        <time>2025-10-18T13:19:58Z</time>
      </trkpt>
      <trkpt lat="43.22354" lon="5.47975">
        <ele>369.9</ele>
        <time>2025-10-18T13:19:59Z</time>
      </trkpt>
      <trkpt lat="43.22354" lon="5.47975">
        <ele>369.9</ele>
        <time>2025-10-18T13:20:00Z</time>
      </trkpt>
      <trkpt lat="43.22354" lon="5.47975">
        <ele>369.8</ele>
        <time>2025-10-18T13:20:01Z</time>
      </trkpt>
      <trkpt lat="43.22354" lon="5.47974">
        <ele>369.7</ele>
        <time>2025-10-18T13:20:02Z</time>
      </trkpt>
      <trkpt lat="43.22354" lon="5.47975">
        <ele>369.6</ele>
        <time>2025-10-18T13:20:03Z</time>
      </trkpt>
      <trkpt lat="43.22353" lon="5.47975">
        <ele>369.5</ele>
        <time>2025-10-18T13:20:04Z</time>
      </trkpt>
      <trkpt lat="43.22353" lon="5.47975">
        <ele>369.4</ele>
        <time>2025-10-18T13:20:05Z</time>
      </trkpt>
      <trkpt lat="43.22353" lon="5.47975">
        <ele>369.1</ele>
        <time>2025-10-18T13:20:06Z</time>
      </trkpt>
      <trkpt lat="43.22352" lon="5.47976">
        <ele>368.9</ele>
        <time>2025-10-18T13:20:07Z</time>
      </trkpt>
      <trkpt lat="43.22352" lon="5.47976">
        <ele>368.7</ele>
        <time>2025-10-18T13:20:08Z</time>
      </trkpt>
      <trkpt lat="43.22351" lon="5.47977">
        <ele>368.4</ele>
        <time>2025-10-18T13:20:09Z</time>
      </trkpt>
      <trkpt lat="43.22351" lon="5.47977">
        <ele>368.2</ele>
        <time>2025-10-18T13:20:10Z</time>
      </trkpt>
      <trkpt lat="43.22351" lon="5.47978">
        <ele>368</ele>
        <time>2025-10-18T13:20:11Z</time>
      </trkpt>
      <trkpt lat="43.22351" lon="5.47978">
        <ele>367.8</ele>
        <time>2025-10-18T13:20:12Z</time>
      </trkpt>
      <trkpt lat="43.22351" lon="5.47978">
        <ele>367.7</ele>
        <time>2025-10-18T13:20:13Z</time>
      </trkpt>
      <trkpt lat="43.22351" lon="5.47978">
        <ele>367.5</ele>
        <time>2025-10-18T13:20:14Z</time>
      </trkpt>
      <trkpt lat="43.2235" lon="5.47979">
        <ele>367.4</ele>
        <time>2025-10-18T13:20:15Z</time>
      </trkpt>
      <trkpt lat="43.2235" lon="5.47979">
        <ele>367.3</ele>
        <time>2025-10-18T13:20:16Z</time>
      </trkpt>
      <trkpt lat="43.2235" lon="5.47979">
        <ele>367.2</ele>
        <time>2025-10-18T13:20:17Z</time>
      </trkpt>
      <trkpt lat="43.2235" lon="5.47979">
        <ele>367.1</ele>
        <time>2025-10-18T13:20:18Z</time>
      </trkpt>
      <trkpt lat="43.2235" lon="5.47979">
        <ele>367.1</ele>
        <time>2025-10-18T13:20:19Z</time>
      </trkpt>
      <trkpt lat="43.2235" lon="5.47979">
        <ele>367.2</ele>
        <time>2025-10-18T13:20:20Z</time>
      </trkpt>
      <trkpt lat="43.2235" lon="5.47979">
        <ele>367.1</ele>
        <time>2025-10-18T13:20:21Z</time>
      </trkpt>
      <trkpt lat="43.2235" lon="5.47979">
        <ele>367.1</ele>
        <time>2025-10-18T13:20:22Z</time>
      </trkpt>
      <trkpt lat="43.2235" lon="5.47979">
        <ele>367.2</ele>
        <time>2025-10-18T13:20:23Z</time>
      </trkpt>
      <trkpt lat="43.22349" lon="5.4798">
        <ele>367.3</ele>
        <time>2025-10-18T13:20:24Z</time>
      </trkpt>
      <trkpt lat="43.22349" lon="5.4798">
        <ele>367.4</ele>
        <time>2025-10-18T13:20:25Z</time>
      </trkpt>
      <trkpt lat="43.22349" lon="5.4798">
        <ele>367.4</ele>
        <time>2025-10-18T13:20:26Z</time>
      </trkpt>
      <trkpt lat="43.22349" lon="5.4798">
        <ele>367.4</ele>
        <time>2025-10-18T13:20:27Z</time>
      </trkpt>
      <trkpt lat="43.22349" lon="5.4798">
        <ele>367.4</ele>
        <time>2025-10-18T13:20:28Z</time>
      </trkpt>
      <trkpt lat="43.22349" lon="5.47979">
        <ele>367.4</ele>
        <time>2025-10-18T13:20:29Z</time>
      </trkpt>
      <trkpt lat="43.22349" lon="5.47979">
        <ele>367.4</ele>
        <time>2025-10-18T13:20:30Z</time>
      </trkpt>
      <trkpt lat="43.22349" lon="5.47979">
        <ele>367.4</ele>
        <time>2025-10-18T13:20:31Z</time>
      </trkpt>
      <trkpt lat="43.22349" lon="5.4798">
        <ele>367.4</ele>
        <time>2025-10-18T13:20:32Z</time>
      </trkpt>
      <trkpt lat="43.22349" lon="5.4798">
        <ele>367.4</ele>
        <time>2025-10-18T13:20:33Z</time>
      </trkpt>
      <trkpt lat="43.22349" lon="5.4798">
        <ele>367.4</ele>
        <time>2025-10-18T13:20:34Z</time>
      </trkpt>
      <trkpt lat="43.22349" lon="5.4798">
        <ele>367.4</ele>
        <time>2025-10-18T13:20:35Z</time>
      </trkpt>
      <trkpt lat="43.22349" lon="5.4798">
        <ele>367.4</ele>
        <time>2025-10-18T13:20:36Z</time>
      </trkpt>
      <trkpt lat="43.22348" lon="5.4798">
        <ele>367.4</ele>
        <time>2025-10-18T13:20:37Z</time>
      </trkpt>
      <trkpt lat="43.22348" lon="5.4798">
        <ele>367.4</ele>
        <time>2025-10-18T13:20:38Z</time>
      </trkpt>
      <trkpt lat="43.22348" lon="5.4798">
        <ele>367.4</ele>
        <time>2025-10-18T13:20:39Z</time>
      </trkpt>
      <trkpt lat="43.22348" lon="5.4798">
        <ele>367.4</ele>
        <time>2025-10-18T13:20:40Z</time>
      </trkpt>
      <trkpt lat="43.22348" lon="5.4798">
        <ele>367.4</ele>
        <time>2025-10-18T13:20:41Z</time>
      </trkpt>
      <trkpt lat="43.22348" lon="5.4798">
        <ele>367.3</ele>
        <time>2025-10-18T13:20:42Z</time>
      </trkpt>
      <trkpt lat="43.22348" lon="5.4798">
        <ele>367.3</ele>
        <time>2025-10-18T13:20:43Z</time>
      </trkpt>
      <trkpt lat="43.22348" lon="5.4798">
        <ele>367.3</ele>
        <time>2025-10-18T13:20:44Z</time>
      </trkpt>
      <trkpt lat="43.22348" lon="5.4798">
        <ele>367.3</ele>
        <time>2025-10-18T13:20:45Z</time>
      </trkpt>
      <trkpt lat="43.22348" lon="5.47981">
        <ele>367.2</ele>
        <time>2025-10-18T13:20:46Z</time>
      </trkpt>
      <trkpt lat="43.22348" lon="5.47981">
        <ele>367.1</ele>
        <time>2025-10-18T13:20:47Z</time>
      </trkpt>
      <trkpt lat="43.22348" lon="5.47981">
        <ele>367.1</ele>
        <time>2025-10-18T13:20:48Z</time>
      </trkpt>
      <trkpt lat="43.22347" lon="5.47981">
        <ele>367.1</ele>
        <time>2025-10-18T13:20:49Z</time>
      </trkpt>
      <trkpt lat="43.22347" lon="5.47981">
        <ele>367.1</ele>
        <time>2025-10-18T13:20:50Z</time>
      </trkpt>
      <trkpt lat="43.22347" lon="5.47981">
        <ele>367.1</ele>
        <time>2025-10-18T13:20:51Z</time>
      </trkpt>
      <trkpt lat="43.22347" lon="5.47981">
        <ele>367.1</ele>
        <time>2025-10-18T13:20:52Z</time>
      </trkpt>
      <trkpt lat="43.22347" lon="5.47981">
        <ele>367.1</ele>
        <time>2025-10-18T13:20:53Z</time>
      </trkpt>
      <trkpt lat="43.22347" lon="5.47981">
        <ele>367</ele>
        <time>2025-10-18T13:20:54Z</time>
      </trkpt>
      <trkpt lat="43.22347" lon="5.47981">
        <ele>366.9</ele>
        <time>2025-10-18T13:20:55Z</time>
      </trkpt>
      <trkpt lat="43.22347" lon="5.47981">
        <ele>366.9</ele>
        <time>2025-10-18T13:20:56Z</time>
      </trkpt>
      <trkpt lat="43.22347" lon="5.47981">
        <ele>367</ele>
        <time>2025-10-18T13:20:57Z</time>
      </trkpt>
      <trkpt lat="43.22347" lon="5.47981">
        <ele>367</ele>
        <time>2025-10-18T13:20:58Z</time>
      </trkpt>
      <trkpt lat="43.22347" lon="5.47981">
        <ele>367</ele>
        <time>2025-10-18T13:20:59Z</time>
      </trkpt>
      <trkpt lat="43.22347" lon="5.47981">
        <ele>366.9</ele>
        <time>2025-10-18T13:21:00Z</time>
      </trkpt>
      <trkpt lat="43.22347" lon="5.47981">
        <ele>366.8</ele>
        <time>2025-10-18T13:21:01Z</time>
      </trkpt>
      <trkpt lat="43.22347" lon="5.47981">
        <ele>366.7</ele>
        <time>2025-10-18T13:21:02Z</time>
      </trkpt>
      <trkpt lat="43.22347" lon="5.47982">
        <ele>366.7</ele>
        <time>2025-10-18T13:21:03Z</time>
      </trkpt>
      <trkpt lat="43.22347" lon="5.47982">
        <ele>366.7</ele>
        <time>2025-10-18T13:21:04Z</time>
      </trkpt>
      <trkpt lat="43.22347" lon="5.47982">
        <ele>366.7</ele>
        <time>2025-10-18T13:21:05Z</time>
      </trkpt>
      <trkpt lat="43.22347" lon="5.47982">
        <ele>366.7</ele>
        <time>2025-10-18T13:21:06Z</time>
      </trkpt>
      <trkpt lat="43.22347" lon="5.47982">
        <ele>366.6</ele>
        <time>2025-10-18T13:21:07Z</time>
      </trkpt>
      <trkpt lat="43.22347" lon="5.47982">
        <ele>366.6</ele>
        <time>2025-10-18T13:21:08Z</time>
      </trkpt>
      <trkpt lat="43.22347" lon="5.47982">
        <ele>366.6</ele>
        <time>2025-10-18T13:21:09Z</time>
      </trkpt>
      <trkpt lat="43.22347" lon="5.47982">
        <ele>366.6</ele>
        <time>2025-10-18T13:21:10Z</time>
      </trkpt>
      <trkpt lat="43.22347" lon="5.47982">
        <ele>366.5</ele>
        <time>2025-10-18T13:21:11Z</time>
      </trkpt>
      <trkpt lat="43.22347" lon="5.47982">
        <ele>366.5</ele>
        <time>2025-10-18T13:21:12Z</time>
      </trkpt>
      <trkpt lat="43.22347" lon="5.47981">
        <ele>366.6</ele>
        <time>2025-10-18T13:21:13Z</time>
      </trkpt>
      <trkpt lat="43.22347" lon="5.47981">
        <ele>366.7</ele>
        <time>2025-10-18T13:21:14Z</time>
      </trkpt>
      <trkpt lat="43.22347" lon="5.47981">
        <ele>366.7</ele>
        <time>2025-10-18T13:21:15Z</time>
      </trkpt>
      <trkpt lat="43.22347" lon="5.47981">
        <ele>366.8</ele>
        <time>2025-10-18T13:21:16Z</time>
      </trkpt>
      <trkpt lat="43.22347" lon="5.47981">
        <ele>366.7</ele>
        <time>2025-10-18T13:21:17Z</time>
      </trkpt>
      <trkpt lat="43.22347" lon="5.47981">
        <ele>366.7</ele>
        <time>2025-10-18T13:21:18Z</time>
      </trkpt>
      <trkpt lat="43.22347" lon="5.47981">
        <ele>366.8</ele>
        <time>2025-10-18T13:21:19Z</time>
      </trkpt>
      <trkpt lat="43.22347" lon="5.47981">
        <ele>366.8</ele>
        <time>2025-10-18T13:21:20Z</time>
      </trkpt>
      <trkpt lat="43.22347" lon="5.47981">
        <ele>366.8</ele>
        <time>2025-10-18T13:21:21Z</time>
      </trkpt>
      <trkpt lat="43.22347" lon="5.47982">
        <ele>366.8</ele>
        <time>2025-10-18T13:21:22Z</time>
      </trkpt>
      <trkpt lat="43.22347" lon="5.47982">
        <ele>366.9</ele>
        <time>2025-10-18T13:21:23Z</time>
      </trkpt>
      <trkpt lat="43.22347" lon="5.47982">
        <ele>367</ele>
        <time>2025-10-18T13:21:24Z</time>
      </trkpt>
      <trkpt lat="43.22347" lon="5.47982">
        <ele>367</ele>
        <time>2025-10-18T13:21:25Z</time>
      </trkpt>
      <trkpt lat="43.22347" lon="5.47982">
        <ele>367</ele>
        <time>2025-10-18T13:21:26Z</time>
      </trkpt>
      <trkpt lat="43.22347" lon="5.47982">
        <ele>366.9</ele>
        <time>2025-10-18T13:21:27Z</time>
      </trkpt>
      <trkpt lat="43.22347" lon="5.47982">
        <ele>366.9</ele>
        <time>2025-10-18T13:21:28Z</time>
      </trkpt>
      <trkpt lat="43.22347" lon="5.47982">
        <ele>367</ele>
        <time>2025-10-18T13:21:29Z</time>
      </trkpt>
      <trkpt lat="43.22347" lon="5.47981">
        <ele>367</ele>
        <time>2025-10-18T13:21:30Z</time>
      </trkpt>
      <trkpt lat="43.22347" lon="5.47981">
        <ele>367</ele>
        <time>2025-10-18T13:21:31Z</time>
      </trkpt>
      <trkpt lat="43.22347" lon="5.47981">
        <ele>366.8</ele>
        <time>2025-10-18T13:21:32Z</time>
      </trkpt>
      <trkpt lat="43.22347" lon="5.47981">
        <ele>366.8</ele>
        <time>2025-10-18T13:21:33Z</time>
      </trkpt>
      <trkpt lat="43.22347" lon="5.47981">
        <ele>366.7</ele>
        <time>2025-10-18T13:21:34Z</time>
      </trkpt>
      <trkpt lat="43.22347" lon="5.47981">
        <ele>366.6</ele>
        <time>2025-10-18T13:21:35Z</time>
      </trkpt>
      <trkpt lat="43.22347" lon="5.47981">
        <ele>366.6</ele>
        <time>2025-10-18T13:21:36Z</time>
      </trkpt>
      <trkpt lat="43.22347" lon="5.47981">
        <ele>366.5</ele>
        <time>2025-10-18T13:21:37Z</time>
      </trkpt>
      <trkpt lat="43.22347" lon="5.47981">
        <ele>366.5</ele>
        <time>2025-10-18T13:21:38Z</time>
      </trkpt>
      <trkpt lat="43.22347" lon="5.47981">
        <ele>366.5</ele>
        <time>2025-10-18T13:21:39Z</time>
      </trkpt>
      <trkpt lat="43.22347" lon="5.47981">
        <ele>366.6</ele>
        <time>2025-10-18T13:21:40Z</time>
      </trkpt>
      <trkpt lat="43.22348" lon="5.47981">
        <ele>366.6</ele>
        <time>2025-10-18T13:21:41Z</time>
      </trkpt>
      <trkpt lat="43.22348" lon="5.47981">
        <ele>366.6</ele>
        <time>2025-10-18T13:21:42Z</time>
      </trkpt>
      <trkpt lat="43.22348" lon="5.47981">
        <ele>366.6</ele>
        <time>2025-10-18T13:21:43Z</time>
      </trkpt>
      <trkpt lat="43.22348" lon="5.47981">
        <ele>366.6</ele>
        <time>2025-10-18T13:21:44Z</time>
      </trkpt>
      <trkpt lat="43.22348" lon="5.47981">
        <ele>366.7</ele>
        <time>2025-10-18T13:21:45Z</time>
      </trkpt>
      <trkpt lat="43.22347" lon="5.47981">
        <ele>366.8</ele>
        <time>2025-10-18T13:21:46Z</time>
      </trkpt>
      <trkpt lat="43.22347" lon="5.47981">
        <ele>366.8</ele>
        <time>2025-10-18T13:21:47Z</time>
      </trkpt>
      <trkpt lat="43.22347" lon="5.47981">
        <ele>366.9</ele>
        <time>2025-10-18T13:21:48Z</time>
      </trkpt>
      <trkpt lat="43.22347" lon="5.47982">
        <ele>366.9</ele>
        <time>2025-10-18T13:21:49Z</time>
      </trkpt>
      <trkpt lat="43.22347" lon="5.47981">
        <ele>366.9</ele>
        <time>2025-10-18T13:21:50Z</time>
      </trkpt>
      <trkpt lat="43.22348" lon="5.47981">
        <ele>366.9</ele>
        <time>2025-10-18T13:21:51Z</time>
      </trkpt>
      <trkpt lat="43.22348" lon="5.47982">
        <ele>367</ele>
        <time>2025-10-18T13:21:52Z</time>
      </trkpt>
      <trkpt lat="43.22348" lon="5.47982">
        <ele>367</ele>
        <time>2025-10-18T13:21:53Z</time>
      </trkpt>
      <trkpt lat="43.22347" lon="5.47983">
        <ele>367</ele>
        <time>2025-10-18T13:21:54Z</time>
      </trkpt>
      <trkpt lat="43.22347" lon="5.47983">
        <ele>367</ele>
        <time>2025-10-18T13:21:55Z</time>
      </trkpt>
      <trkpt lat="43.22347" lon="5.47983">
        <ele>367.1</ele>
        <time>2025-10-18T13:21:56Z</time>
      </trkpt>
      <trkpt lat="43.22347" lon="5.47983">
        <ele>367.1</ele>
        <time>2025-10-18T13:21:57Z</time>
      </trkpt>
      <trkpt lat="43.22348" lon="5.47983">
        <ele>367.1</ele>
        <time>2025-10-18T13:21:58Z</time>
      </trkpt>
      <trkpt lat="43.22348" lon="5.47983">
        <ele>367.1</ele>
        <time>2025-10-18T13:21:59Z</time>
      </trkpt>
      <trkpt lat="43.22349" lon="5.47983">
        <ele>366.9</ele>
        <time>2025-10-18T13:22:00Z</time>
      </trkpt>
      <trkpt lat="43.22349" lon="5.47983">
        <ele>366.9</ele>
        <time>2025-10-18T13:22:01Z</time>
      </trkpt>
      <trkpt lat="43.2235" lon="5.47983">
        <ele>366.7</ele>
        <time>2025-10-18T13:22:02Z</time>
      </trkpt>
      <trkpt lat="43.2235" lon="5.47983">
        <ele>366.7</ele>
        <time>2025-10-18T13:22:03Z</time>
      </trkpt>
      <trkpt lat="43.2235" lon="5.47983">
        <ele>366.6</ele>
        <time>2025-10-18T13:22:04Z</time>
      </trkpt>
      <trkpt lat="43.22351" lon="5.47983">
        <ele>366.5</ele>
        <time>2025-10-18T13:22:05Z</time>
      </trkpt>
      <trkpt lat="43.22351" lon="5.47983">
        <ele>366.4</ele>
        <time>2025-10-18T13:22:06Z</time>
      </trkpt>
      <trkpt lat="43.22351" lon="5.47983">
        <ele>366.3</ele>
        <time>2025-10-18T13:22:07Z</time>
      </trkpt>
      <trkpt lat="43.22351" lon="5.47984">
        <ele>366.3</ele>
        <time>2025-10-18T13:22:08Z</time>
      </trkpt>
      <trkpt lat="43.22351" lon="5.47984">
        <ele>366.2</ele>
        <time>2025-10-18T13:22:09Z</time>
      </trkpt>
      <trkpt lat="43.22351" lon="5.47984">
        <ele>366</ele>
        <time>2025-10-18T13:22:10Z</time>
      </trkpt>
      <trkpt lat="43.22351" lon="5.47984">
        <ele>365.5</ele>
        <time>2025-10-18T13:22:11Z</time>
      </trkpt>
      <trkpt lat="43.22351" lon="5.47985">
        <ele>365.4</ele>
        <time>2025-10-18T13:22:12Z</time>
      </trkpt>
      <trkpt lat="43.22351" lon="5.47985">
        <ele>365.3</ele>
        <time>2025-10-18T13:22:13Z</time>
      </trkpt>
      <trkpt lat="43.22351" lon="5.47985">
        <ele>365.3</ele>
        <time>2025-10-18T13:22:14Z</time>
      </trkpt>
      <trkpt lat="43.22351" lon="5.47985">
        <ele>365.3</ele>
        <time>2025-10-18T13:22:15Z</time>
      </trkpt>
      <trkpt lat="43.22351" lon="5.47986">
        <ele>365.2</ele>
        <time>2025-10-18T13:22:16Z</time>
      </trkpt>
      <trkpt lat="43.22351" lon="5.47986">
        <ele>365.1</ele>
        <time>2025-10-18T13:22:17Z</time>
      </trkpt>
      <trkpt lat="43.22351" lon="5.47986">
        <ele>365</ele>
        <time>2025-10-18T13:22:18Z</time>
      </trkpt>
      <trkpt lat="43.22351" lon="5.47986">
        <ele>364.9</ele>
        <time>2025-10-18T13:22:19Z</time>
      </trkpt>
      <trkpt lat="43.22351" lon="5.47986">
        <ele>364.7</ele>
        <time>2025-10-18T13:22:20Z</time>
      </trkpt>
      <trkpt lat="43.22352" lon="5.47986">
        <ele>364.6</ele>
        <time>2025-10-18T13:22:21Z</time>
      </trkpt>
      <trkpt lat="43.22352" lon="5.47986">
        <ele>364.5</ele>
        <time>2025-10-18T13:22:22Z</time>
      </trkpt>
      <trkpt lat="43.22353" lon="5.47986">
        <ele>364.4</ele>
        <time>2025-10-18T13:22:23Z</time>
      </trkpt>
      <trkpt lat="43.22353" lon="5.47986">
        <ele>364.3</ele>
        <time>2025-10-18T13:22:24Z</time>
      </trkpt>
      <trkpt lat="43.22353" lon="5.47985">
        <ele>364.2</ele>
        <time>2025-10-18T13:22:25Z</time>
      </trkpt>
      <trkpt lat="43.22353" lon="5.47985">
        <ele>364.2</ele>
        <time>2025-10-18T13:22:26Z</time>
      </trkpt>
      <trkpt lat="43.22353" lon="5.47985">
        <ele>364.1</ele>
        <time>2025-10-18T13:22:27Z</time>
      </trkpt>
      <trkpt lat="43.22353" lon="5.47986">
        <ele>364</ele>
        <time>2025-10-18T13:22:28Z</time>
      </trkpt>
      <trkpt lat="43.22353" lon="5.47986">
        <ele>364</ele>
        <time>2025-10-18T13:22:29Z</time>
      </trkpt>
      <trkpt lat="43.22353" lon="5.47986">
        <ele>364</ele>
        <time>2025-10-18T13:22:30Z</time>
      </trkpt>
      <trkpt lat="43.22353" lon="5.47986">
        <ele>364</ele>
        <time>2025-10-18T13:22:31Z</time>
      </trkpt>
      <trkpt lat="43.22353" lon="5.47986">
        <ele>364</ele>
        <time>2025-10-18T13:22:32Z</time>
      </trkpt>
      <trkpt lat="43.22353" lon="5.47986">
        <ele>364</ele>
        <time>2025-10-18T13:22:33Z</time>
      </trkpt>
      <trkpt lat="43.22353" lon="5.47986">
        <ele>364</ele>
        <time>2025-10-18T13:22:34Z</time>
      </trkpt>
      <trkpt lat="43.22353" lon="5.47986">
        <ele>364.1</ele>
        <time>2025-10-18T13:22:35Z</time>
      </trkpt>
      <trkpt lat="43.22353" lon="5.47986">
        <ele>364.1</ele>
        <time>2025-10-18T13:22:36Z</time>
      </trkpt>
      <trkpt lat="43.22353" lon="5.47986">
        <ele>364.1</ele>
        <time>2025-10-18T13:22:37Z</time>
      </trkpt>
      <trkpt lat="43.22353" lon="5.47987">
        <ele>364.1</ele>
        <time>2025-10-18T13:22:38Z</time>
      </trkpt>
      <trkpt lat="43.22353" lon="5.47987">
        <ele>364</ele>
        <time>2025-10-18T13:22:39Z</time>
      </trkpt>
      <trkpt lat="43.22353" lon="5.47987">
        <ele>364</ele>
        <time>2025-10-18T13:22:40Z</time>
      </trkpt>
      <trkpt lat="43.22353" lon="5.47987">
        <ele>364</ele>
        <time>2025-10-18T13:22:41Z</time>
      </trkpt>
      <trkpt lat="43.22353" lon="5.47987">
        <ele>364</ele>
        <time>2025-10-18T13:22:42Z</time>
      </trkpt>
      <trkpt lat="43.22353" lon="5.47987">
        <ele>363.9</ele>
        <time>2025-10-18T13:22:43Z</time>
      </trkpt>
      <trkpt lat="43.22353" lon="5.47988">
        <ele>363.9</ele>
        <time>2025-10-18T13:22:44Z</time>
      </trkpt>
      <trkpt lat="43.22353" lon="5.47988">
        <ele>363.9</ele>
        <time>2025-10-18T13:22:45Z</time>
      </trkpt>
      <trkpt lat="43.22353" lon="5.47988">
        <ele>363.9</ele>
        <time>2025-10-18T13:22:46Z</time>
      </trkpt>
      <trkpt lat="43.22353" lon="5.47988">
        <ele>363.9</ele>
        <time>2025-10-18T13:22:47Z</time>
      </trkpt>
      <trkpt lat="43.22353" lon="5.47988">
        <ele>363.8</ele>
        <time>2025-10-18T13:22:48Z</time>
      </trkpt>
      <trkpt lat="43.22353" lon="5.47988">
        <ele>363.8</ele>
        <time>2025-10-18T13:22:49Z</time>
      </trkpt>
      <trkpt lat="43.22353" lon="5.47988">
        <ele>363.8</ele>
        <time>2025-10-18T13:22:50Z</time>
      </trkpt>
      <trkpt lat="43.22353" lon="5.47988">
        <ele>363.8</ele>
        <time>2025-10-18T13:22:51Z</time>
      </trkpt>
      <trkpt lat="43.22353" lon="5.47988">
        <ele>363.7</ele>
        <time>2025-10-18T13:22:52Z</time>
      </trkpt>
      <trkpt lat="43.22353" lon="5.47988">
        <ele>363.7</ele>
        <time>2025-10-18T13:22:53Z</time>
      </trkpt>
      <trkpt lat="43.22353" lon="5.47988">
        <ele>363.7</ele>
        <time>2025-10-18T13:22:54Z</time>
      </trkpt>
      <trkpt lat="43.22353" lon="5.47988">
        <ele>363.8</ele>
        <time>2025-10-18T13:22:55Z</time>
      </trkpt>
      <trkpt lat="43.22353" lon="5.47987">
        <ele>363.8</ele>
        <time>2025-10-18T13:22:56Z</time>
      </trkpt>
      <trkpt lat="43.22353" lon="5.47987">
        <ele>363.9</ele>
        <time>2025-10-18T13:22:57Z</time>
      </trkpt>
      <trkpt lat="43.22353" lon="5.47987">
        <ele>363.9</ele>
        <time>2025-10-18T13:22:58Z</time>
      </trkpt>
      <trkpt lat="43.22354" lon="5.47987">
        <ele>363.9</ele>
        <time>2025-10-18T13:22:59Z</time>
      </trkpt>
      <trkpt lat="43.22354" lon="5.47987">
        <ele>363.8</ele>
        <time>2025-10-18T13:23:00Z</time>
      </trkpt>
      <trkpt lat="43.22354" lon="5.47987">
        <ele>363.8</ele>
        <time>2025-10-18T13:23:01Z</time>
      </trkpt>
      <trkpt lat="43.22354" lon="5.47987">
        <ele>363.8</ele>
        <time>2025-10-18T13:23:02Z</time>
      </trkpt>
      <trkpt lat="43.22354" lon="5.47987">
        <ele>363.8</ele>
        <time>2025-10-18T13:23:03Z</time>
      </trkpt>
      <trkpt lat="43.22354" lon="5.47987">
        <ele>363.8</ele>
        <time>2025-10-18T13:23:04Z</time>
      </trkpt>
      <trkpt lat="43.22354" lon="5.47987">
        <ele>363.9</ele>
        <time>2025-10-18T13:23:05Z</time>
      </trkpt>
      <trkpt lat="43.22354" lon="5.47987">
        <ele>363.9</ele>
        <time>2025-10-18T13:23:06Z</time>
      </trkpt>
      <trkpt lat="43.22354" lon="5.47987">
        <ele>363.9</ele>
        <time>2025-10-18T13:23:07Z</time>
      </trkpt>
      <trkpt lat="43.22354" lon="5.47987">
        <ele>363.8</ele>
        <time>2025-10-18T13:23:08Z</time>
      </trkpt>
      <trkpt lat="43.22354" lon="5.47988">
        <ele>363.8</ele>
        <time>2025-10-18T13:23:09Z</time>
      </trkpt>
      <trkpt lat="43.22354" lon="5.47988">
        <ele>363.7</ele>
        <time>2025-10-18T13:23:10Z</time>
      </trkpt>
      <trkpt lat="43.22354" lon="5.47989">
        <ele>363.6</ele>
        <time>2025-10-18T13:23:11Z</time>
      </trkpt>
      <trkpt lat="43.22354" lon="5.47989">
        <ele>363.4</ele>
        <time>2025-10-18T13:23:12Z</time>
      </trkpt>
      <trkpt lat="43.22354" lon="5.47989">
        <ele>363.4</ele>
        <time>2025-10-18T13:23:13Z</time>
      </trkpt>
      <trkpt lat="43.22354" lon="5.4799">
        <ele>363.3</ele>
        <time>2025-10-18T13:23:14Z</time>
      </trkpt>
      <trkpt lat="43.22354" lon="5.4799">
        <ele>363.2</ele>
        <time>2025-10-18T13:23:15Z</time>
      </trkpt>
      <trkpt lat="43.22354" lon="5.4799">
        <ele>363.2</ele>
        <time>2025-10-18T13:23:16Z</time>
      </trkpt>
      <trkpt lat="43.22354" lon="5.4799">
        <ele>363.1</ele>
        <time>2025-10-18T13:23:17Z</time>
      </trkpt>
      <trkpt lat="43.22354" lon="5.4799">
        <ele>363.1</ele>
        <time>2025-10-18T13:23:18Z</time>
      </trkpt>
      <trkpt lat="43.22354" lon="5.4799">
        <ele>363</ele>
        <time>2025-10-18T13:23:19Z</time>
      </trkpt>
      <trkpt lat="43.22354" lon="5.4799">
        <ele>362.9</ele>
        <time>2025-10-18T13:23:20Z</time>
      </trkpt>
      <trkpt lat="43.22354" lon="5.47991">
        <ele>362.9</ele>
        <time>2025-10-18T13:23:21Z</time>
      </trkpt>
      <trkpt lat="43.22354" lon="5.47991">
        <ele>362.8</ele>
        <time>2025-10-18T13:23:22Z</time>
      </trkpt>
      <trkpt lat="43.22355" lon="5.47992">
        <ele>362.6</ele>
        <time>2025-10-18T13:23:23Z</time>
      </trkpt>
      <trkpt lat="43.22355" lon="5.47993">
        <ele>362.4</ele>
        <time>2025-10-18T13:23:24Z</time>
      </trkpt>
      <trkpt lat="43.22355" lon="5.47993">
        <ele>362.2</ele>
        <time>2025-10-18T13:23:25Z</time>
      </trkpt>
      <trkpt lat="43.22355" lon="5.47994">
        <ele>361.9</ele>
        <time>2025-10-18T13:23:26Z</time>
      </trkpt>
      <trkpt lat="43.22355" lon="5.47995">
        <ele>361.6</ele>
        <time>2025-10-18T13:23:27Z</time>
      </trkpt>
      <trkpt lat="43.22355" lon="5.47995">
        <ele>361.3</ele>
        <time>2025-10-18T13:23:28Z</time>
      </trkpt>
      <trkpt lat="43.22355" lon="5.47995">
        <ele>361.1</ele>
        <time>2025-10-18T13:23:29Z</time>
      </trkpt>
      <trkpt lat="43.22355" lon="5.47996">
        <ele>360.8</ele>
        <time>2025-10-18T13:23:30Z</time>
      </trkpt>
      <trkpt lat="43.22355" lon="5.47996">
        <ele>360.6</ele>
        <time>2025-10-18T13:23:31Z</time>
      </trkpt>
      <trkpt lat="43.22355" lon="5.47995">
        <ele>360.4</ele>
        <time>2025-10-18T13:23:32Z</time>
      </trkpt>
      <trkpt lat="43.22355" lon="5.47995">
        <ele>360.3</ele>
        <time>2025-10-18T13:23:33Z</time>
      </trkpt>
      <trkpt lat="43.22355" lon="5.47995">
        <ele>360.2</ele>
        <time>2025-10-18T13:23:34Z</time>
      </trkpt>
      <trkpt lat="43.22355" lon="5.47996">
        <ele>360.1</ele>
        <time>2025-10-18T13:23:35Z</time>
      </trkpt>
      <trkpt lat="43.22355" lon="5.47996">
        <ele>360</ele>
        <time>2025-10-18T13:23:36Z</time>
      </trkpt>
      <trkpt lat="43.22355" lon="5.47996">
        <ele>359.9</ele>
        <time>2025-10-18T13:23:37Z</time>
      </trkpt>
      <trkpt lat="43.22355" lon="5.47996">
        <ele>359.8</ele>
        <time>2025-10-18T13:23:38Z</time>
      </trkpt>
      <trkpt lat="43.22355" lon="5.47997">
        <ele>359.6</ele>
        <time>2025-10-18T13:23:39Z</time>
      </trkpt>
      <trkpt lat="43.22355" lon="5.47997">
        <ele>359.5</ele>
        <time>2025-10-18T13:23:40Z</time>
      </trkpt>
      <trkpt lat="43.22356" lon="5.47998">
        <ele>359.2</ele>
        <time>2025-10-18T13:23:41Z</time>
      </trkpt>
      <trkpt lat="43.22356" lon="5.47998">
        <ele>359</ele>
        <time>2025-10-18T13:23:42Z</time>
      </trkpt>
      <trkpt lat="43.22356" lon="5.47999">
        <ele>358.9</ele>
        <time>2025-10-18T13:23:43Z</time>
      </trkpt>
      <trkpt lat="43.22356" lon="5.47999">
        <ele>358.7</ele>
        <time>2025-10-18T13:23:44Z</time>
      </trkpt>
      <trkpt lat="43.22356" lon="5.48">
        <ele>358.4</ele>
        <time>2025-10-18T13:23:45Z</time>
      </trkpt>
      <trkpt lat="43.22356" lon="5.48">
        <ele>358.2</ele>
        <time>2025-10-18T13:23:46Z</time>
      </trkpt>
      <trkpt lat="43.22357" lon="5.48001">
        <ele>358</ele>
        <time>2025-10-18T13:23:47Z</time>
      </trkpt>
      <trkpt lat="43.22357" lon="5.48002">
        <ele>357.7</ele>
        <time>2025-10-18T13:23:48Z</time>
      </trkpt>
      <trkpt lat="43.22357" lon="5.48003">
        <ele>357.4</ele>
        <time>2025-10-18T13:23:49Z</time>
      </trkpt>
      <trkpt lat="43.22358" lon="5.48003">
        <ele>357.2</ele>
        <time>2025-10-18T13:23:50Z</time>
      </trkpt>
      <trkpt lat="43.22358" lon="5.48004">
        <ele>356.9</ele>
        <time>2025-10-18T13:23:51Z</time>
      </trkpt>
      <trkpt lat="43.22358" lon="5.48004">
        <ele>356.7</ele>
        <time>2025-10-18T13:23:52Z</time>
      </trkpt>
      <trkpt lat="43.22358" lon="5.48005">
        <ele>356.5</ele>
        <time>2025-10-18T13:23:53Z</time>
      </trkpt>
      <trkpt lat="43.22358" lon="5.48006">
        <ele>356.1</ele>
        <time>2025-10-18T13:23:54Z</time>
      </trkpt>
      <trkpt lat="43.22358" lon="5.48006">
        <ele>355.8</ele>
        <time>2025-10-18T13:23:55Z</time>
      </trkpt>
      <trkpt lat="43.22358" lon="5.48006">
        <ele>355.6</ele>
        <time>2025-10-18T13:23:56Z</time>
      </trkpt>
      <trkpt lat="43.22358" lon="5.48006">
        <ele>355.4</ele>
        <time>2025-10-18T13:23:57Z</time>
      </trkpt>
      <trkpt lat="43.22358" lon="5.48007">
        <ele>355.2</ele>
        <time>2025-10-18T13:23:58Z</time>
      </trkpt>
      <trkpt lat="43.22358" lon="5.48007">
        <ele>355.1</ele>
        <time>2025-10-18T13:23:59Z</time>
      </trkpt>
      <trkpt lat="43.22358" lon="5.48007">
        <ele>354.9</ele>
        <time>2025-10-18T13:24:00Z</time>
      </trkpt>
      <trkpt lat="43.22358" lon="5.48007">
        <ele>354.8</ele>
        <time>2025-10-18T13:24:01Z</time>
      </trkpt>
      <trkpt lat="43.22358" lon="5.48007">
        <ele>354.7</ele>
        <time>2025-10-18T13:24:02Z</time>
      </trkpt>
      <trkpt lat="43.22358" lon="5.48007">
        <ele>354.5</ele>
        <time>2025-10-18T13:24:03Z</time>
      </trkpt>
      <trkpt lat="43.22358" lon="5.48007">
        <ele>354.4</ele>
        <time>2025-10-18T13:24:04Z</time>
      </trkpt>
      <trkpt lat="43.22358" lon="5.48008">
        <ele>354.4</ele>
        <time>2025-10-18T13:24:05Z</time>
      </trkpt>
      <trkpt lat="43.22358" lon="5.48008">
        <ele>354.4</ele>
        <time>2025-10-18T13:24:06Z</time>
      </trkpt>
      <trkpt lat="43.22358" lon="5.48008">
        <ele>354.4</ele>
        <time>2025-10-18T13:24:07Z</time>
      </trkpt>
      <trkpt lat="43.22358" lon="5.48008">
        <ele>354.3</ele>
        <time>2025-10-18T13:24:08Z</time>
      </trkpt>
      <trkpt lat="43.22358" lon="5.48008">
        <ele>354.3</ele>
        <time>2025-10-18T13:24:09Z</time>
      </trkpt>
      <trkpt lat="43.22358" lon="5.48008">
        <ele>354.3</ele>
        <time>2025-10-18T13:24:10Z</time>
      </trkpt>
      <trkpt lat="43.22358" lon="5.48008">
        <ele>354.2</ele>
        <time>2025-10-18T13:24:11Z</time>
      </trkpt>
      <trkpt lat="43.22358" lon="5.48008">
        <ele>354.2</ele>
        <time>2025-10-18T13:24:12Z</time>
      </trkpt>
      <trkpt lat="43.22358" lon="5.48008">
        <ele>354.2</ele>
        <time>2025-10-18T13:24:13Z</time>
      </trkpt>
      <trkpt lat="43.22358" lon="5.48009">
        <ele>354.1</ele>
        <time>2025-10-18T13:24:14Z</time>
      </trkpt>
      <trkpt lat="43.22358" lon="5.48009">
        <ele>354</ele>
        <time>2025-10-18T13:24:15Z</time>
      </trkpt>
      <trkpt lat="43.22358" lon="5.4801">
        <ele>353.9</ele>
        <time>2025-10-18T13:24:16Z</time>
      </trkpt>
      <trkpt lat="43.22358" lon="5.4801">
        <ele>353.7</ele>
        <time>2025-10-18T13:24:17Z</time>
      </trkpt>
      <trkpt lat="43.22358" lon="5.48011">
        <ele>353.6</ele>
        <time>2025-10-18T13:24:18Z</time>
      </trkpt>
      <trkpt lat="43.22359" lon="5.48011">
        <ele>353.4</ele>
        <time>2025-10-18T13:24:19Z</time>
      </trkpt>
      <trkpt lat="43.22359" lon="5.48012">
        <ele>353.3</ele>
        <time>2025-10-18T13:24:20Z</time>
      </trkpt>
      <trkpt lat="43.22359" lon="5.48012">
        <ele>353.1</ele>
        <time>2025-10-18T13:24:21Z</time>
      </trkpt>
      <trkpt lat="43.22359" lon="5.48012">
        <ele>352.9</ele>
        <time>2025-10-18T13:24:22Z</time>
      </trkpt>
      <trkpt lat="43.22359" lon="5.48012">
        <ele>352.8</ele>
        <time>2025-10-18T13:24:23Z</time>
      </trkpt>
      <trkpt lat="43.2236" lon="5.48012">
        <ele>352.7</ele>
        <time>2025-10-18T13:24:24Z</time>
      </trkpt>
      <trkpt lat="43.2236" lon="5.48012">
        <ele>352.7</ele>
        <time>2025-10-18T13:24:25Z</time>
      </trkpt>
      <trkpt lat="43.2236" lon="5.48012">
        <ele>352.6</ele>
        <time>2025-10-18T13:24:26Z</time>
      </trkpt>
      <trkpt lat="43.2236" lon="5.48012">
        <ele>352.5</ele>
        <time>2025-10-18T13:24:27Z</time>
      </trkpt>
      <trkpt lat="43.2236" lon="5.48012">
        <ele>352.5</ele>
        <time>2025-10-18T13:24:28Z</time>
      </trkpt>
      <trkpt lat="43.2236" lon="5.48012">
        <ele>352.5</ele>
        <time>2025-10-18T13:24:29Z</time>
      </trkpt>
      <trkpt lat="43.2236" lon="5.48011">
        <ele>352.5</ele>
        <time>2025-10-18T13:24:30Z</time>
      </trkpt>
      <trkpt lat="43.2236" lon="5.48011">
        <ele>352.5</ele>
        <time>2025-10-18T13:24:31Z</time>
      </trkpt>
      <trkpt lat="43.2236" lon="5.48011">
        <ele>352.5</ele>
        <time>2025-10-18T13:24:32Z</time>
      </trkpt>
      <trkpt lat="43.22361" lon="5.48012">
        <ele>352.4</ele>
        <time>2025-10-18T13:24:33Z</time>
      </trkpt>
      <trkpt lat="43.22361" lon="5.48012">
        <ele>352.4</ele>
        <time>2025-10-18T13:24:34Z</time>
      </trkpt>
      <trkpt lat="43.22361" lon="5.48012">
        <ele>352.3</ele>
        <time>2025-10-18T13:24:35Z</time>
      </trkpt>
      <trkpt lat="43.22361" lon="5.48011">
        <ele>352.3</ele>
        <time>2025-10-18T13:24:36Z</time>
      </trkpt>
      <trkpt lat="43.22361" lon="5.48011">
        <ele>352.2</ele>
        <time>2025-10-18T13:24:37Z</time>
      </trkpt>
      <trkpt lat="43.22361" lon="5.48011">
        <ele>352.3</ele>
        <time>2025-10-18T13:24:38Z</time>
      </trkpt>
      <trkpt lat="43.22361" lon="5.48011">
        <ele>352.3</ele>
        <time>2025-10-18T13:24:39Z</time>
      </trkpt>
      <trkpt lat="43.22362" lon="5.48011">
        <ele>352.3</ele>
        <time>2025-10-18T13:24:40Z</time>
      </trkpt>
      <trkpt lat="43.22362" lon="5.4801">
        <ele>352.2</ele>
        <time>2025-10-18T13:24:41Z</time>
      </trkpt>
      <trkpt lat="43.22362" lon="5.4801">
        <ele>352.2</ele>
        <time>2025-10-18T13:24:42Z</time>
      </trkpt>
      <trkpt lat="43.22362" lon="5.4801">
        <ele>352.3</ele>
        <time>2025-10-18T13:24:43Z</time>
      </trkpt>
      <trkpt lat="43.22362" lon="5.4801">
        <ele>352.3</ele>
        <time>2025-10-18T13:24:44Z</time>
      </trkpt>
      <trkpt lat="43.22362" lon="5.4801">
        <ele>352.4</ele>
        <time>2025-10-18T13:24:45Z</time>
      </trkpt>
      <trkpt lat="43.22362" lon="5.4801">
        <ele>352.4</ele>
        <time>2025-10-18T13:24:46Z</time>
      </trkpt>
      <trkpt lat="43.22362" lon="5.4801">
        <ele>352.5</ele>
        <time>2025-10-18T13:24:47Z</time>
      </trkpt>
      <trkpt lat="43.22362" lon="5.4801">
        <ele>352.4</ele>
        <time>2025-10-18T13:24:48Z</time>
      </trkpt>
      <trkpt lat="43.22363" lon="5.4801">
        <ele>352.3</ele>
        <time>2025-10-18T13:24:49Z</time>
      </trkpt>
      <trkpt lat="43.22363" lon="5.4801">
        <ele>352.3</ele>
        <time>2025-10-18T13:24:50Z</time>
      </trkpt>
      <trkpt lat="43.22363" lon="5.4801">
        <ele>352.4</ele>
        <time>2025-10-18T13:24:51Z</time>
      </trkpt>
      <trkpt lat="43.22362" lon="5.4801">
        <ele>352.4</ele>
        <time>2025-10-18T13:24:52Z</time>
      </trkpt>
      <trkpt lat="43.22363" lon="5.4801">
        <ele>352.5</ele>
        <time>2025-10-18T13:24:53Z</time>
      </trkpt>
      <trkpt lat="43.22363" lon="5.4801">
        <ele>352.5</ele>
        <time>2025-10-18T13:24:54Z</time>
      </trkpt>
      <trkpt lat="43.22363" lon="5.4801">
        <ele>352.5</ele>
        <time>2025-10-18T13:24:55Z</time>
      </trkpt>
      <trkpt lat="43.22362" lon="5.4801">
        <ele>352.5</ele>
        <time>2025-10-18T13:24:56Z</time>
      </trkpt>
      <trkpt lat="43.22362" lon="5.4801">
        <ele>352.5</ele>
        <time>2025-10-18T13:24:57Z</time>
      </trkpt>
      <trkpt lat="43.22362" lon="5.4801">
        <ele>352.5</ele>
        <time>2025-10-18T13:24:58Z</time>
      </trkpt>
      <trkpt lat="43.22362" lon="5.4801">
        <ele>352.6</ele>
        <time>2025-10-18T13:24:59Z</time>
      </trkpt>
      <trkpt lat="43.22362" lon="5.4801">
        <ele>352.7</ele>
        <time>2025-10-18T13:25:00Z</time>
      </trkpt>
      <trkpt lat="43.22362" lon="5.4801">
        <ele>352.7</ele>
        <time>2025-10-18T13:25:01Z</time>
      </trkpt>
      <trkpt lat="43.22362" lon="5.4801">
        <ele>352.7</ele>
        <time>2025-10-18T13:25:02Z</time>
      </trkpt>
      <trkpt lat="43.22362" lon="5.4801">
        <ele>352.6</ele>
        <time>2025-10-18T13:25:03Z</time>
      </trkpt>
      <trkpt lat="43.22362" lon="5.48011">
        <ele>352.6</ele>
        <time>2025-10-18T13:25:04Z</time>
      </trkpt>
      <trkpt lat="43.22362" lon="5.48011">
        <ele>352.5</ele>
        <time>2025-10-18T13:25:05Z</time>
      </trkpt>
      <trkpt lat="43.22362" lon="5.48011">
        <ele>352.5</ele>
        <time>2025-10-18T13:25:06Z</time>
      </trkpt>
      <trkpt lat="43.22362" lon="5.48011">
        <ele>352.5</ele>
        <time>2025-10-18T13:25:07Z</time>
      </trkpt>
      <trkpt lat="43.22362" lon="5.48011">
        <ele>352.3</ele>
        <time>2025-10-18T13:25:08Z</time>
      </trkpt>
      <trkpt lat="43.22362" lon="5.48011">
        <ele>352.3</ele>
        <time>2025-10-18T13:25:09Z</time>
      </trkpt>
      <trkpt lat="43.22362" lon="5.48011">
        <ele>352.3</ele>
        <time>2025-10-18T13:25:10Z</time>
      </trkpt>
      <trkpt lat="43.22362" lon="5.48011">
        <ele>352.3</ele>
        <time>2025-10-18T13:25:11Z</time>
      </trkpt>
      <trkpt lat="43.22362" lon="5.48011">
        <ele>352.4</ele>
        <time>2025-10-18T13:25:12Z</time>
      </trkpt>
      <trkpt lat="43.22362" lon="5.48011">
        <ele>352.3</ele>
        <time>2025-10-18T13:25:13Z</time>
      </trkpt>
      <trkpt lat="43.22362" lon="5.48011">
        <ele>352.2</ele>
        <time>2025-10-18T13:25:14Z</time>
      </trkpt>
      <trkpt lat="43.22362" lon="5.48011">
        <ele>352.2</ele>
        <time>2025-10-18T13:25:15Z</time>
      </trkpt>
      <trkpt lat="43.22362" lon="5.48011">
        <ele>352.2</ele>
        <time>2025-10-18T13:25:16Z</time>
      </trkpt>
      <trkpt lat="43.22362" lon="5.48011">
        <ele>352.3</ele>
        <time>2025-10-18T13:25:17Z</time>
      </trkpt>
      <trkpt lat="43.22363" lon="5.48011">
        <ele>352.2</ele>
        <time>2025-10-18T13:25:18Z</time>
      </trkpt>
      <trkpt lat="43.22362" lon="5.48011">
        <ele>352.2</ele>
        <time>2025-10-18T13:25:19Z</time>
      </trkpt>
      <trkpt lat="43.22362" lon="5.4801">
        <ele>352.2</ele>
        <time>2025-10-18T13:25:20Z</time>
      </trkpt>
      <trkpt lat="43.22362" lon="5.48011">
        <ele>352.2</ele>
        <time>2025-10-18T13:25:21Z</time>
      </trkpt>
      <trkpt lat="43.22362" lon="5.48011">
        <ele>352.2</ele>
        <time>2025-10-18T13:25:22Z</time>
      </trkpt>
      <trkpt lat="43.22362" lon="5.48011">
        <ele>352.2</ele>
        <time>2025-10-18T13:25:23Z</time>
      </trkpt>
      <trkpt lat="43.22362" lon="5.48011">
        <ele>352.3</ele>
        <time>2025-10-18T13:25:24Z</time>
      </trkpt>
      <trkpt lat="43.22362" lon="5.48011">
        <ele>352.3</ele>
        <time>2025-10-18T13:25:25Z</time>
      </trkpt>
      <trkpt lat="43.22362" lon="5.48011">
        <ele>352.3</ele>
        <time>2025-10-18T13:25:26Z</time>
      </trkpt>
      <trkpt lat="43.22362" lon="5.48011">
        <ele>352.3</ele>
        <time>2025-10-18T13:25:27Z</time>
      </trkpt>
      <trkpt lat="43.22362" lon="5.48011">
        <ele>352.2</ele>
        <time>2025-10-18T13:25:28Z</time>
      </trkpt>
      <trkpt lat="43.22362" lon="5.48011">
        <ele>352.3</ele>
        <time>2025-10-18T13:25:29Z</time>
      </trkpt>
      <trkpt lat="43.22362" lon="5.48011">
        <ele>352.3</ele>
        <time>2025-10-18T13:25:30Z</time>
      </trkpt>
      <trkpt lat="43.22362" lon="5.48011">
        <ele>352.4</ele>
        <time>2025-10-18T13:25:31Z</time>
      </trkpt>
      <trkpt lat="43.22361" lon="5.48011">
        <ele>352.4</ele>
        <time>2025-10-18T13:25:32Z</time>
      </trkpt>
      <trkpt lat="43.22361" lon="5.48011">
        <ele>352.4</ele>
        <time>2025-10-18T13:25:33Z</time>
      </trkpt>
      <trkpt lat="43.22362" lon="5.48011">
        <ele>352.4</ele>
        <time>2025-10-18T13:25:34Z</time>
      </trkpt>
      <trkpt lat="43.22362" lon="5.48011">
        <ele>352.5</ele>
        <time>2025-10-18T13:25:35Z</time>
      </trkpt>
      <trkpt lat="43.22362" lon="5.48011">
        <ele>352.5</ele>
        <time>2025-10-18T13:25:36Z</time>
      </trkpt>
      <trkpt lat="43.22362" lon="5.48011">
        <ele>352.5</ele>
        <time>2025-10-18T13:25:37Z</time>
      </trkpt>
      <trkpt lat="43.22362" lon="5.48011">
        <ele>352.5</ele>
        <time>2025-10-18T13:25:38Z</time>
      </trkpt>
      <trkpt lat="43.22362" lon="5.4801">
        <ele>352.6</ele>
        <time>2025-10-18T13:25:39Z</time>
      </trkpt>
      <trkpt lat="43.22362" lon="5.4801">
        <ele>352.6</ele>
        <time>2025-10-18T13:25:40Z</time>
      </trkpt>
      <trkpt lat="43.22362" lon="5.4801">
        <ele>352.7</ele>
        <time>2025-10-18T13:25:41Z</time>
      </trkpt>
      <trkpt lat="43.22362" lon="5.4801">
        <ele>352.7</ele>
        <time>2025-10-18T13:25:42Z</time>
      </trkpt>
      <trkpt lat="43.22362" lon="5.4801">
        <ele>352.7</ele>
        <time>2025-10-18T13:25:43Z</time>
      </trkpt>
      <trkpt lat="43.22362" lon="5.4801">
        <ele>352.8</ele>
        <time>2025-10-18T13:25:44Z</time>
      </trkpt>
      <trkpt lat="43.22362" lon="5.4801">
        <ele>352.7</ele>
        <time>2025-10-18T13:25:45Z</time>
      </trkpt>
      <trkpt lat="43.22362" lon="5.4801">
        <ele>352.7</ele>
        <time>2025-10-18T13:25:46Z</time>
      </trkpt>
      <trkpt lat="43.22362" lon="5.4801">
        <ele>352.7</ele>
        <time>2025-10-18T13:25:47Z</time>
      </trkpt>
      <trkpt lat="43.22362" lon="5.4801">
        <ele>352.7</ele>
        <time>2025-10-18T13:25:48Z</time>
      </trkpt>
      <trkpt lat="43.22362" lon="5.4801">
        <ele>352.7</ele>
        <time>2025-10-18T13:25:49Z</time>
      </trkpt>
      <trkpt lat="43.22362" lon="5.4801">
        <ele>352.7</ele>
        <time>2025-10-18T13:25:50Z</time>
      </trkpt>
      <trkpt lat="43.22362" lon="5.4801">
        <ele>352.7</ele>
        <time>2025-10-18T13:25:51Z</time>
      </trkpt>
      <trkpt lat="43.22362" lon="5.48009">
        <ele>352.8</ele>
        <time>2025-10-18T13:25:52Z</time>
      </trkpt>
      <trkpt lat="43.22362" lon="5.48009">
        <ele>352.8</ele>
        <time>2025-10-18T13:25:53Z</time>
      </trkpt>
      <trkpt lat="43.22362" lon="5.4801">
        <ele>352.8</ele>
        <time>2025-10-18T13:25:54Z</time>
      </trkpt>
      <trkpt lat="43.22362" lon="5.48009">
        <ele>352.8</ele>
        <time>2025-10-18T13:25:55Z</time>
      </trkpt>
      <trkpt lat="43.22362" lon="5.48009">
        <ele>352.8</ele>
        <time>2025-10-18T13:25:56Z</time>
      </trkpt>
      <trkpt lat="43.22362" lon="5.48009">
        <ele>352.8</ele>
        <time>2025-10-18T13:25:57Z</time>
      </trkpt>
      <trkpt lat="43.22362" lon="5.48009">
        <ele>352.8</ele>
        <time>2025-10-18T13:25:58Z</time>
      </trkpt>
      <trkpt lat="43.22363" lon="5.48009">
        <ele>352.8</ele>
        <time>2025-10-18T13:25:59Z</time>
      </trkpt>
      <trkpt lat="43.22363" lon="5.48009">
        <ele>352.8</ele>
        <time>2025-10-18T13:26:00Z</time>
      </trkpt>
      <trkpt lat="43.22363" lon="5.48009">
        <ele>352.8</ele>
        <time>2025-10-18T13:26:01Z</time>
      </trkpt>
      <trkpt lat="43.22363" lon="5.48009">
        <ele>352.9</ele>
        <time>2025-10-18T13:26:02Z</time>
      </trkpt>
      <trkpt lat="43.22363" lon="5.48009">
        <ele>352.9</ele>
        <time>2025-10-18T13:26:03Z</time>
      </trkpt>
      <trkpt lat="43.22363" lon="5.48009">
        <ele>352.8</ele>
        <time>2025-10-18T13:26:04Z</time>
      </trkpt>
      <trkpt lat="43.22363" lon="5.48008">
        <ele>352.9</ele>
        <time>2025-10-18T13:26:05Z</time>
      </trkpt>
      <trkpt lat="43.22363" lon="5.48008">
        <ele>352.8</ele>
        <time>2025-10-18T13:26:06Z</time>
      </trkpt>
      <trkpt lat="43.22363" lon="5.48008">
        <ele>352.8</ele>
        <time>2025-10-18T13:26:07Z</time>
      </trkpt>
      <trkpt lat="43.22363" lon="5.48008">
        <ele>352.8</ele>
        <time>2025-10-18T13:26:08Z</time>
      </trkpt>
      <trkpt lat="43.22363" lon="5.48008">
        <ele>352.8</ele>
        <time>2025-10-18T13:26:09Z</time>
      </trkpt>
      <trkpt lat="43.22363" lon="5.48008">
        <ele>352.7</ele>
        <time>2025-10-18T13:26:10Z</time>
      </trkpt>
      <trkpt lat="43.22363" lon="5.48008">
        <ele>352.7</ele>
        <time>2025-10-18T13:26:11Z</time>
      </trkpt>
      <trkpt lat="43.22363" lon="5.48008">
        <ele>352.7</ele>
        <time>2025-10-18T13:26:12Z</time>
      </trkpt>
      <trkpt lat="43.22363" lon="5.48008">
        <ele>352.6</ele>
        <time>2025-10-18T13:26:13Z</time>
      </trkpt>
      <trkpt lat="43.22363" lon="5.48008">
        <ele>352.6</ele>
        <time>2025-10-18T13:26:14Z</time>
      </trkpt>
      <trkpt lat="43.22363" lon="5.48008">
        <ele>352.6</ele>
        <time>2025-10-18T13:26:15Z</time>
      </trkpt>
      <trkpt lat="43.22363" lon="5.48008">
        <ele>352.6</ele>
        <time>2025-10-18T13:26:16Z</time>
      </trkpt>
      <trkpt lat="43.22363" lon="5.48009">
        <ele>352.6</ele>
        <time>2025-10-18T13:26:17Z</time>
      </trkpt>
      <trkpt lat="43.22364" lon="5.48009">
        <ele>352.6</ele>
        <time>2025-10-18T13:26:18Z</time>
      </trkpt>
      <trkpt lat="43.22364" lon="5.4801">
        <ele>352.6</ele>
        <time>2025-10-18T13:26:19Z</time>
      </trkpt>
      <trkpt lat="43.22365" lon="5.4801">
        <ele>352.6</ele>
        <time>2025-10-18T13:26:20Z</time>
      </trkpt>
      <trkpt lat="43.22365" lon="5.48011">
        <ele>352.6</ele>
        <time>2025-10-18T13:26:21Z</time>
      </trkpt>
      <trkpt lat="43.22365" lon="5.48011">
        <ele>352.6</ele>
        <time>2025-10-18T13:26:22Z</time>
      </trkpt>
      <trkpt lat="43.22365" lon="5.48011">
        <ele>352.5</ele>
        <time>2025-10-18T13:26:23Z</time>
      </trkpt>
      <trkpt lat="43.22366" lon="5.48012">
        <ele>352.3</ele>
        <time>2025-10-18T13:26:24Z</time>
      </trkpt>
      <trkpt lat="43.22366" lon="5.48012">
        <ele>352.2</ele>
        <time>2025-10-18T13:26:25Z</time>
      </trkpt>
      <trkpt lat="43.22367" lon="5.48013">
        <ele>352</ele>
        <time>2025-10-18T13:26:26Z</time>
      </trkpt>
      <trkpt lat="43.22367" lon="5.48013">
        <ele>351.9</ele>
        <time>2025-10-18T13:26:27Z</time>
      </trkpt>
      <trkpt lat="43.22367" lon="5.48014">
        <ele>351.7</ele>
        <time>2025-10-18T13:26:28Z</time>
      </trkpt>
      <trkpt lat="43.22367" lon="5.48014">
        <ele>351.6</ele>
        <time>2025-10-18T13:26:29Z</time>
      </trkpt>
      <trkpt lat="43.22367" lon="5.48014">
        <ele>351.5</ele>
        <time>2025-10-18T13:26:30Z</time>
      </trkpt>
      <trkpt lat="43.22368" lon="5.48014">
        <ele>351.4</ele>
        <time>2025-10-18T13:26:31Z</time>
      </trkpt>
      <trkpt lat="43.22368" lon="5.48015">
        <ele>351.4</ele>
        <time>2025-10-18T13:26:32Z</time>
      </trkpt>
      <trkpt lat="43.22369" lon="5.48016">
        <ele>351.4</ele>
        <time>2025-10-18T13:26:33Z</time>
      </trkpt>
      <trkpt lat="43.2237" lon="5.48016">
        <ele>351.3</ele>
        <time>2025-10-18T13:26:34Z</time>
      </trkpt>
      <trkpt lat="43.22371" lon="5.48017">
        <ele>351.3</ele>
        <time>2025-10-18T13:26:35Z</time>
      </trkpt>
      <trkpt lat="43.22371" lon="5.48017">
        <ele>351.2</ele>
        <time>2025-10-18T13:26:36Z</time>
      </trkpt>
      <trkpt lat="43.22371" lon="5.48019">
        <ele>351.2</ele>
        <time>2025-10-18T13:26:37Z</time>
      </trkpt>
      <trkpt lat="43.22373" lon="5.4802">
        <ele>351.1</ele>
        <time>2025-10-18T13:26:38Z</time>
      </trkpt>
      <trkpt lat="43.22374" lon="5.48022">
        <ele>351</ele>
        <time>2025-10-18T13:26:39Z</time>
      </trkpt>
      <trkpt lat="43.22375" lon="5.48023">
        <ele>350.7</ele>
        <time>2025-10-18T13:26:40Z</time>
      </trkpt>
      <trkpt lat="43.22377" lon="5.48024">
        <ele>350.7</ele>
        <time>2025-10-18T13:26:41Z</time>
      </trkpt>
      <trkpt lat="43.22378" lon="5.48025">
        <ele>350.6</ele>
        <time>2025-10-18T13:26:42Z</time>
      </trkpt>
      <trkpt lat="43.22379" lon="5.48026">
        <ele>350.5</ele>
        <time>2025-10-18T13:26:43Z</time>
      </trkpt>
      <trkpt lat="43.2238" lon="5.48027">
        <ele>350.4</ele>
        <time>2025-10-18T13:26:44Z</time>
      </trkpt>
      <trkpt lat="43.2238" lon="5.48027">
        <ele>350.3</ele>
        <time>2025-10-18T13:26:45Z</time>
      </trkpt>
      <trkpt lat="43.2238" lon="5.48027">
        <ele>350.3</ele>
        <time>2025-10-18T13:26:46Z</time>
      </trkpt>
      <trkpt lat="43.22381" lon="5.48028">
        <ele>350.2</ele>
        <time>2025-10-18T13:26:47Z</time>
      </trkpt>
      <trkpt lat="43.22381" lon="5.48028">
        <ele>350.2</ele>
        <time>2025-10-18T13:26:48Z</time>
      </trkpt>
      <trkpt lat="43.22381" lon="5.48028">
        <ele>350.2</ele>
        <time>2025-10-18T13:26:49Z</time>
      </trkpt>
      <trkpt lat="43.22381" lon="5.48028">
        <ele>350.1</ele>
        <time>2025-10-18T13:26:50Z</time>
      </trkpt>
      <trkpt lat="43.22382" lon="5.48027">
        <ele>350.1</ele>
        <time>2025-10-18T13:26:51Z</time>
      </trkpt>
      <trkpt lat="43.22382" lon="5.48027">
        <ele>350.1</ele>
        <time>2025-10-18T13:26:52Z</time>
      </trkpt>
      <trkpt lat="43.22382" lon="5.48027">
        <ele>350.1</ele>
        <time>2025-10-18T13:26:53Z</time>
      </trkpt>
      <trkpt lat="43.22382" lon="5.48028">
        <ele>350</ele>
        <time>2025-10-18T13:26:54Z</time>
      </trkpt>
      <trkpt lat="43.22382" lon="5.48028">
        <ele>350</ele>
        <time>2025-10-18T13:26:55Z</time>
      </trkpt>
      <trkpt lat="43.22382" lon="5.48028">
        <ele>350</ele>
        <time>2025-10-18T13:26:56Z</time>
      </trkpt>
      <trkpt lat="43.22383" lon="5.48029">
        <ele>349.9</ele>
        <time>2025-10-18T13:26:57Z</time>
      </trkpt>
      <trkpt lat="43.22383" lon="5.48029">
        <ele>349.9</ele>
        <time>2025-10-18T13:26:58Z</time>
      </trkpt>
      <trkpt lat="43.22383" lon="5.48029">
        <ele>349.9</ele>
        <time>2025-10-18T13:26:59Z</time>
      </trkpt>
      <trkpt lat="43.22383" lon="5.48029">
        <ele>349.9</ele>
        <time>2025-10-18T13:27:00Z</time>
      </trkpt>
      <trkpt lat="43.22383" lon="5.48029">
        <ele>349.9</ele>
        <time>2025-10-18T13:27:01Z</time>
      </trkpt>
      <trkpt lat="43.22383" lon="5.48029">
        <ele>349.9</ele>
        <time>2025-10-18T13:27:02Z</time>
      </trkpt>
      <trkpt lat="43.22383" lon="5.48029">
        <ele>349.9</ele>
        <time>2025-10-18T13:27:03Z</time>
      </trkpt>
      <trkpt lat="43.22383" lon="5.48029">
        <ele>350</ele>
        <time>2025-10-18T13:27:04Z</time>
      </trkpt>
      <trkpt lat="43.22383" lon="5.48029">
        <ele>350</ele>
        <time>2025-10-18T13:27:05Z</time>
      </trkpt>
      <trkpt lat="43.22383" lon="5.48029">
        <ele>350.1</ele>
        <time>2025-10-18T13:27:06Z</time>
      </trkpt>
      <trkpt lat="43.22384" lon="5.48029">
        <ele>350.2</ele>
        <time>2025-10-18T13:27:07Z</time>
      </trkpt>
      <trkpt lat="43.22384" lon="5.48029">
        <ele>350.3</ele>
        <time>2025-10-18T13:27:08Z</time>
      </trkpt>
      <trkpt lat="43.22383" lon="5.48029">
        <ele>350.4</ele>
        <time>2025-10-18T13:27:09Z</time>
      </trkpt>
      <trkpt lat="43.22383" lon="5.4803">
        <ele>350.4</ele>
        <time>2025-10-18T13:27:10Z</time>
      </trkpt>
      <trkpt lat="43.22383" lon="5.48029">
        <ele>350.5</ele>
        <time>2025-10-18T13:27:11Z</time>
      </trkpt>
      <trkpt lat="43.22383" lon="5.4803">
        <ele>350.6</ele>
        <time>2025-10-18T13:27:12Z</time>
      </trkpt>
      <trkpt lat="43.22383" lon="5.48029">
        <ele>350.5</ele>
        <time>2025-10-18T13:27:13Z</time>
      </trkpt>
      <trkpt lat="43.22383" lon="5.48029">
        <ele>350.5</ele>
        <time>2025-10-18T13:27:14Z</time>
      </trkpt>
      <trkpt lat="43.22383" lon="5.48029">
        <ele>350.6</ele>
        <time>2025-10-18T13:27:15Z</time>
      </trkpt>
      <trkpt lat="43.22383" lon="5.48029">
        <ele>350.6</ele>
        <time>2025-10-18T13:27:16Z</time>
      </trkpt>
      <trkpt lat="43.22383" lon="5.48029">
        <ele>350.6</ele>
        <time>2025-10-18T13:27:17Z</time>
      </trkpt>
      <trkpt lat="43.22383" lon="5.48029">
        <ele>350.5</ele>
        <time>2025-10-18T13:27:18Z</time>
      </trkpt>
      <trkpt lat="43.22383" lon="5.48029">
        <ele>350.5</ele>
        <time>2025-10-18T13:27:19Z</time>
      </trkpt>
      <trkpt lat="43.22384" lon="5.48029">
        <ele>350.5</ele>
        <time>2025-10-18T13:27:20Z</time>
      </trkpt>
      <trkpt lat="43.22383" lon="5.48029">
        <ele>350.5</ele>
        <time>2025-10-18T13:27:21Z</time>
      </trkpt>
      <trkpt lat="43.22384" lon="5.48029">
        <ele>350.4</ele>
        <time>2025-10-18T13:27:22Z</time>
      </trkpt>
      <trkpt lat="43.22384" lon="5.48029">
        <ele>350.4</ele>
        <time>2025-10-18T13:27:23Z</time>
      </trkpt>
      <trkpt lat="43.22384" lon="5.4803">
        <ele>350.3</ele>
        <time>2025-10-18T13:27:24Z</time>
      </trkpt>
      <trkpt lat="43.22384" lon="5.4803">
        <ele>350.2</ele>
        <time>2025-10-18T13:27:25Z</time>
      </trkpt>
      <trkpt lat="43.22384" lon="5.48031">
        <ele>350.2</ele>
        <time>2025-10-18T13:27:26Z</time>
      </trkpt>
      <trkpt lat="43.22384" lon="5.48031">
        <ele>350.2</ele>
        <time>2025-10-18T13:27:27Z</time>
      </trkpt>
      <trkpt lat="43.22385" lon="5.48032">
        <ele>350.1</ele>
        <time>2025-10-18T13:27:28Z</time>
      </trkpt>
      <trkpt lat="43.22385" lon="5.48032">
        <ele>350</ele>
        <time>2025-10-18T13:27:29Z</time>
      </trkpt>
      <trkpt lat="43.22385" lon="5.48033">
        <ele>349.9</ele>
        <time>2025-10-18T13:27:30Z</time>
      </trkpt>
      <trkpt lat="43.22385" lon="5.48033">
        <ele>349.8</ele>
        <time>2025-10-18T13:27:31Z</time>
      </trkpt>
      <trkpt lat="43.22386" lon="5.48033">
        <ele>349.7</ele>
        <time>2025-10-18T13:27:32Z</time>
      </trkpt>
      <trkpt lat="43.22386" lon="5.48033">
        <ele>349.7</ele>
        <time>2025-10-18T13:27:33Z</time>
      </trkpt>
      <trkpt lat="43.22386" lon="5.48033">
        <ele>349.7</ele>
        <time>2025-10-18T13:27:34Z</time>
      </trkpt>
      <trkpt lat="43.22386" lon="5.48033">
        <ele>349.6</ele>
        <time>2025-10-18T13:27:35Z</time>
      </trkpt>
      <trkpt lat="43.22385" lon="5.48033">
        <ele>349.6</ele>
        <time>2025-10-18T13:27:36Z</time>
      </trkpt>
      <trkpt lat="43.22385" lon="5.48034">
        <ele>349.5</ele>
        <time>2025-10-18T13:27:37Z</time>
      </trkpt>
      <trkpt lat="43.22385" lon="5.48033">
        <ele>349.5</ele>
        <time>2025-10-18T13:27:38Z</time>
      </trkpt>
      <trkpt lat="43.22386" lon="5.48033">
        <ele>349.5</ele>
        <time>2025-10-18T13:27:39Z</time>
      </trkpt>
      <trkpt lat="43.22385" lon="5.48033">
        <ele>349.5</ele>
        <time>2025-10-18T13:27:40Z</time>
      </trkpt>
      <trkpt lat="43.22385" lon="5.48033">
        <ele>349.6</ele>
        <time>2025-10-18T13:27:41Z</time>
      </trkpt>
      <trkpt lat="43.22385" lon="5.48034">
        <ele>349.7</ele>
        <time>2025-10-18T13:27:42Z</time>
      </trkpt>
      <trkpt lat="43.22385" lon="5.48034">
        <ele>349.8</ele>
        <time>2025-10-18T13:27:43Z</time>
      </trkpt>
      <trkpt lat="43.22385" lon="5.48034">
        <ele>349.9</ele>
        <time>2025-10-18T13:27:44Z</time>
      </trkpt>
      <trkpt lat="43.22385" lon="5.48034">
        <ele>350</ele>
        <time>2025-10-18T13:27:45Z</time>
      </trkpt>
      <trkpt lat="43.22385" lon="5.48034">
        <ele>350</ele>
        <time>2025-10-18T13:27:46Z</time>
      </trkpt>
      <trkpt lat="43.22385" lon="5.48034">
        <ele>350</ele>
        <time>2025-10-18T13:27:47Z</time>
      </trkpt>
      <trkpt lat="43.22385" lon="5.48034">
        <ele>350.1</ele>
        <time>2025-10-18T13:27:48Z</time>
      </trkpt>
      <trkpt lat="43.22385" lon="5.48034">
        <ele>350.1</ele>
        <time>2025-10-18T13:27:49Z</time>
      </trkpt>
      <trkpt lat="43.22385" lon="5.48034">
        <ele>350.1</ele>
        <time>2025-10-18T13:27:50Z</time>
      </trkpt>
      <trkpt lat="43.22385" lon="5.48034">
        <ele>350.1</ele>
        <time>2025-10-18T13:27:51Z</time>
      </trkpt>
      <trkpt lat="43.22385" lon="5.48034">
        <ele>350.2</ele>
        <time>2025-10-18T13:27:52Z</time>
      </trkpt>
      <trkpt lat="43.22385" lon="5.48034">
        <ele>350.2</ele>
        <time>2025-10-18T13:27:53Z</time>
      </trkpt>
      <trkpt lat="43.22385" lon="5.48034">
        <ele>350.2</ele>
        <time>2025-10-18T13:27:54Z</time>
      </trkpt>
      <trkpt lat="43.22385" lon="5.48034">
        <ele>350.3</ele>
        <time>2025-10-18T13:27:55Z</time>
      </trkpt>
      <trkpt lat="43.22385" lon="5.48034">
        <ele>350.2</ele>
        <time>2025-10-18T13:27:56Z</time>
      </trkpt>
      <trkpt lat="43.22385" lon="5.48034">
        <ele>350.2</ele>
        <time>2025-10-18T13:27:57Z</time>
      </trkpt>
      <trkpt lat="43.22385" lon="5.48034">
        <ele>350.2</ele>
        <time>2025-10-18T13:27:58Z</time>
      </trkpt>
      <trkpt lat="43.22384" lon="5.48034">
        <ele>350.1</ele>
        <time>2025-10-18T13:27:59Z</time>
      </trkpt>
      <trkpt lat="43.22384" lon="5.48034">
        <ele>350</ele>
        <time>2025-10-18T13:28:00Z</time>
      </trkpt>
      <trkpt lat="43.22384" lon="5.48034">
        <ele>350</ele>
        <time>2025-10-18T13:28:01Z</time>
      </trkpt>
      <trkpt lat="43.22384" lon="5.48034">
        <ele>350</ele>
        <time>2025-10-18T13:28:02Z</time>
      </trkpt>
      <trkpt lat="43.22384" lon="5.48034">
        <ele>350</ele>
        <time>2025-10-18T13:28:03Z</time>
      </trkpt>
      <trkpt lat="43.22384" lon="5.48035">
        <ele>350</ele>
        <time>2025-10-18T13:28:04Z</time>
      </trkpt>
      <trkpt lat="43.22384" lon="5.48035">
        <ele>350</ele>
        <time>2025-10-18T13:28:05Z</time>
      </trkpt>
      <trkpt lat="43.22384" lon="5.48035">
        <ele>350</ele>
        <time>2025-10-18T13:28:06Z</time>
      </trkpt>
      <trkpt lat="43.22384" lon="5.48035">
        <ele>349.9</ele>
        <time>2025-10-18T13:28:07Z</time>
      </trkpt>
      <trkpt lat="43.22384" lon="5.48035">
        <ele>349.9</ele>
        <time>2025-10-18T13:28:08Z</time>
      </trkpt>
      <trkpt lat="43.22385" lon="5.48035">
        <ele>349.9</ele>
        <time>2025-10-18T13:28:09Z</time>
      </trkpt>
      <trkpt lat="43.22385" lon="5.48036">
        <ele>349.8</ele>
        <time>2025-10-18T13:28:10Z</time>
      </trkpt>
      <trkpt lat="43.22385" lon="5.48036">
        <ele>349.9</ele>
        <time>2025-10-18T13:28:11Z</time>
      </trkpt>
      <trkpt lat="43.22386" lon="5.48036">
        <ele>350</ele>
        <time>2025-10-18T13:28:12Z</time>
      </trkpt>
      <trkpt lat="43.22386" lon="5.48037">
        <ele>350.2</ele>
        <time>2025-10-18T13:28:13Z</time>
      </trkpt>
      <trkpt lat="43.22386" lon="5.48037">
        <ele>350.3</ele>
        <time>2025-10-18T13:28:14Z</time>
      </trkpt>
      <trkpt lat="43.22387" lon="5.48037">
        <ele>350.5</ele>
        <time>2025-10-18T13:28:15Z</time>
      </trkpt>
      <trkpt lat="43.22387" lon="5.48038">
        <ele>350.6</ele>
        <time>2025-10-18T13:28:16Z</time>
      </trkpt>
      <trkpt lat="43.22387" lon="5.48038">
        <ele>350.7</ele>
        <time>2025-10-18T13:28:17Z</time>
      </trkpt>
      <trkpt lat="43.22387" lon="5.48038">
        <ele>350.6</ele>
        <time>2025-10-18T13:28:18Z</time>
      </trkpt>
      <trkpt lat="43.22387" lon="5.48039">
        <ele>350.5</ele>
        <time>2025-10-18T13:28:19Z</time>
      </trkpt>
      <trkpt lat="43.22387" lon="5.48039">
        <ele>350.5</ele>
        <time>2025-10-18T13:28:20Z</time>
      </trkpt>
      <trkpt lat="43.22387" lon="5.4804">
        <ele>350.4</ele>
        <time>2025-10-18T13:28:21Z</time>
      </trkpt>
      <trkpt lat="43.22387" lon="5.4804">
        <ele>350.4</ele>
        <time>2025-10-18T13:28:22Z</time>
      </trkpt>
      <trkpt lat="43.22387" lon="5.4804">
        <ele>350.4</ele>
        <time>2025-10-18T13:28:23Z</time>
      </trkpt>
      <trkpt lat="43.22388" lon="5.4804">
        <ele>350.5</ele>
        <time>2025-10-18T13:28:24Z</time>
      </trkpt>
      <trkpt lat="43.22388" lon="5.48041">
        <ele>350.6</ele>
        <time>2025-10-18T13:28:25Z</time>
      </trkpt>
      <trkpt lat="43.22389" lon="5.48041">
        <ele>350.6</ele>
        <time>2025-10-18T13:28:26Z</time>
      </trkpt>
      <trkpt lat="43.22389" lon="5.48041">
        <ele>350.7</ele>
        <time>2025-10-18T13:28:27Z</time>
      </trkpt>
      <trkpt lat="43.22389" lon="5.48041">
        <ele>350.7</ele>
        <time>2025-10-18T13:28:28Z</time>
      </trkpt>
      <trkpt lat="43.22389" lon="5.4804">
        <ele>350.8</ele>
        <time>2025-10-18T13:28:29Z</time>
      </trkpt>
      <trkpt lat="43.22389" lon="5.4804">
        <ele>350.8</ele>
        <time>2025-10-18T13:28:30Z</time>
      </trkpt>
      <trkpt lat="43.22389" lon="5.4804">
        <ele>350.8</ele>
        <time>2025-10-18T13:28:31Z</time>
      </trkpt>
      <trkpt lat="43.22389" lon="5.48041">
        <ele>350.8</ele>
        <time>2025-10-18T13:28:32Z</time>
      </trkpt>
      <trkpt lat="43.22389" lon="5.48042">
        <ele>350.7</ele>
        <time>2025-10-18T13:28:33Z</time>
      </trkpt>
      <trkpt lat="43.22389" lon="5.48043">
        <ele>350.6</ele>
        <time>2025-10-18T13:28:34Z</time>
      </trkpt>
      <trkpt lat="43.22388" lon="5.48044">
        <ele>350.5</ele>
        <time>2025-10-18T13:28:35Z</time>
      </trkpt>
      <trkpt lat="43.22388" lon="5.48044">
        <ele>350.3</ele>
        <time>2025-10-18T13:28:36Z</time>
      </trkpt>
      <trkpt lat="43.22388" lon="5.48045">
        <ele>350.1</ele>
        <time>2025-10-18T13:28:37Z</time>
      </trkpt>
      <trkpt lat="43.22388" lon="5.48045">
        <ele>349.8</ele>
        <time>2025-10-18T13:28:38Z</time>
      </trkpt>
      <trkpt lat="43.22387" lon="5.48045">
        <ele>349.5</ele>
        <time>2025-10-18T13:28:39Z</time>
      </trkpt>
      <trkpt lat="43.22387" lon="5.48046">
        <ele>349.2</ele>
        <time>2025-10-18T13:28:40Z</time>
      </trkpt>
      <trkpt lat="43.22387" lon="5.48046">
        <ele>348.9</ele>
        <time>2025-10-18T13:28:41Z</time>
      </trkpt>
      <trkpt lat="43.22388" lon="5.48047">
        <ele>348.9</ele>
        <time>2025-10-18T13:28:42Z</time>
      </trkpt>
      <trkpt lat="43.22388" lon="5.48047">
        <ele>348.6</ele>
        <time>2025-10-18T13:28:43Z</time>
      </trkpt>
      <trkpt lat="43.22388" lon="5.48048">
        <ele>348.4</ele>
        <time>2025-10-18T13:28:44Z</time>
      </trkpt>
      <trkpt lat="43.22388" lon="5.48048">
        <ele>348.2</ele>
        <time>2025-10-18T13:28:45Z</time>
      </trkpt>
      <trkpt lat="43.22388" lon="5.48048">
        <ele>348</ele>
        <time>2025-10-18T13:28:46Z</time>
      </trkpt>
      <trkpt lat="43.22388" lon="5.48049">
        <ele>347.9</ele>
        <time>2025-10-18T13:28:47Z</time>
      </trkpt>
      <trkpt lat="43.22387" lon="5.48049">
        <ele>347.8</ele>
        <time>2025-10-18T13:28:48Z</time>
      </trkpt>
      <trkpt lat="43.22387" lon="5.4805">
        <ele>347.6</ele>
        <time>2025-10-18T13:28:49Z</time>
      </trkpt>
      <trkpt lat="43.22387" lon="5.48051">
        <ele>347.5</ele>
        <time>2025-10-18T13:28:50Z</time>
      </trkpt>
      <trkpt lat="43.22386" lon="5.48052">
        <ele>347.4</ele>
        <time>2025-10-18T13:28:51Z</time>
      </trkpt>
      <trkpt lat="43.22386" lon="5.48052">
        <ele>347.3</ele>
        <time>2025-10-18T13:28:52Z</time>
      </trkpt>
      <trkpt lat="43.22386" lon="5.48053">
        <ele>347.1</ele>
        <time>2025-10-18T13:28:53Z</time>
      </trkpt>
      <trkpt lat="43.22386" lon="5.48053">
        <ele>347</ele>
        <time>2025-10-18T13:28:54Z</time>
      </trkpt>
      <trkpt lat="43.22386" lon="5.48053">
        <ele>347</ele>
        <time>2025-10-18T13:28:55Z</time>
      </trkpt>
      <trkpt lat="43.22386" lon="5.48053">
        <ele>346.9</ele>
        <time>2025-10-18T13:28:56Z</time>
      </trkpt>
      <trkpt lat="43.22385" lon="5.48053">
        <ele>346.7</ele>
        <time>2025-10-18T13:28:57Z</time>
      </trkpt>
      <trkpt lat="43.22384" lon="5.48054">
        <ele>346.6</ele>
        <time>2025-10-18T13:28:58Z</time>
      </trkpt>
      <trkpt lat="43.22383" lon="5.48054">
        <ele>346.5</ele>
        <time>2025-10-18T13:28:59Z</time>
      </trkpt>
      <trkpt lat="43.22383" lon="5.48054">
        <ele>346.4</ele>
        <time>2025-10-18T13:29:00Z</time>
      </trkpt>
      <trkpt lat="43.22383" lon="5.48055">
        <ele>346.3</ele>
        <time>2025-10-18T13:29:01Z</time>
      </trkpt>
      <trkpt lat="43.22383" lon="5.48055">
        <ele>346.2</ele>
        <time>2025-10-18T13:29:02Z</time>
      </trkpt>
      <trkpt lat="43.22382" lon="5.48056">
        <ele>346.1</ele>
        <time>2025-10-18T13:29:03Z</time>
      </trkpt>
      <trkpt lat="43.22382" lon="5.48056">
        <ele>346</ele>
        <time>2025-10-18T13:29:04Z</time>
      </trkpt>
      <trkpt lat="43.22382" lon="5.48056">
        <ele>345.9</ele>
        <time>2025-10-18T13:29:05Z</time>
      </trkpt>
      <trkpt lat="43.22382" lon="5.48056">
        <ele>345.8</ele>
        <time>2025-10-18T13:29:06Z</time>
      </trkpt>
      <trkpt lat="43.22381" lon="5.48057">
        <ele>345.6</ele>
        <time>2025-10-18T13:29:07Z</time>
      </trkpt>
      <trkpt lat="43.22381" lon="5.48057">
        <ele>345.5</ele>
        <time>2025-10-18T13:29:08Z</time>
      </trkpt>
      <trkpt lat="43.22381" lon="5.48058">
        <ele>345.3</ele>
        <time>2025-10-18T13:29:09Z</time>
      </trkpt>
      <trkpt lat="43.22381" lon="5.48058">
        <ele>345.2</ele>
        <time>2025-10-18T13:29:10Z</time>
      </trkpt>
      <trkpt lat="43.22381" lon="5.48058">
        <ele>344.9</ele>
        <time>2025-10-18T13:29:11Z</time>
      </trkpt>
      <trkpt lat="43.22381" lon="5.48058">
        <ele>344.7</ele>
        <time>2025-10-18T13:29:12Z</time>
      </trkpt>
      <trkpt lat="43.22381" lon="5.48059">
        <ele>344.5</ele>
        <time>2025-10-18T13:29:13Z</time>
      </trkpt>
      <trkpt lat="43.22381" lon="5.4806">
        <ele>344.3</ele>
        <time>2025-10-18T13:29:14Z</time>
      </trkpt>
      <trkpt lat="43.2238" lon="5.48061">
        <ele>344.1</ele>
        <time>2025-10-18T13:29:15Z</time>
      </trkpt>
      <trkpt lat="43.2238" lon="5.48061">
        <ele>343.9</ele>
        <time>2025-10-18T13:29:16Z</time>
      </trkpt>
      <trkpt lat="43.2238" lon="5.48061">
        <ele>343.7</ele>
        <time>2025-10-18T13:29:17Z</time>
      </trkpt>
      <trkpt lat="43.2238" lon="5.48061">
        <ele>343.6</ele>
        <time>2025-10-18T13:29:18Z</time>
      </trkpt>
      <trkpt lat="43.2238" lon="5.48061">
        <ele>343.4</ele>
        <time>2025-10-18T13:29:19Z</time>
      </trkpt>
      <trkpt lat="43.22381" lon="5.48061">
        <ele>343.3</ele>
        <time>2025-10-18T13:29:20Z</time>
      </trkpt>
      <trkpt lat="43.22381" lon="5.48061">
        <ele>343.2</ele>
        <time>2025-10-18T13:29:21Z</time>
      </trkpt>
      <trkpt lat="43.22382" lon="5.48061">
        <ele>343.2</ele>
        <time>2025-10-18T13:29:22Z</time>
      </trkpt>
      <trkpt lat="43.22382" lon="5.48061">
        <ele>343.2</ele>
        <time>2025-10-18T13:29:23Z</time>
      </trkpt>
      <trkpt lat="43.22382" lon="5.48061">
        <ele>343.2</ele>
        <time>2025-10-18T13:29:24Z</time>
      </trkpt>
      <trkpt lat="43.22383" lon="5.48061">
        <ele>343.2</ele>
        <time>2025-10-18T13:29:25Z</time>
      </trkpt>
      <trkpt lat="43.22383" lon="5.48061">
        <ele>343.3</ele>
        <time>2025-10-18T13:29:26Z</time>
      </trkpt>
      <trkpt lat="43.22384" lon="5.48062">
        <ele>343.3</ele>
        <time>2025-10-18T13:29:27Z</time>
      </trkpt>
      <trkpt lat="43.22384" lon="5.48062">
        <ele>343.3</ele>
        <time>2025-10-18T13:29:28Z</time>
      </trkpt>
      <trkpt lat="43.22385" lon="5.48062">
        <ele>343.2</ele>
        <time>2025-10-18T13:29:29Z</time>
      </trkpt>
      <trkpt lat="43.22385" lon="5.48062">
        <ele>343.3</ele>
        <time>2025-10-18T13:29:30Z</time>
      </trkpt>
      <trkpt lat="43.22385" lon="5.48062">
        <ele>343.4</ele>
        <time>2025-10-18T13:29:31Z</time>
      </trkpt>
      <trkpt lat="43.22385" lon="5.48062">
        <ele>343.5</ele>
        <time>2025-10-18T13:29:32Z</time>
      </trkpt>
      <trkpt lat="43.22386" lon="5.48062">
        <ele>343.6</ele>
        <time>2025-10-18T13:29:33Z</time>
      </trkpt>
      <trkpt lat="43.22386" lon="5.48062">
        <ele>343.7</ele>
        <time>2025-10-18T13:29:34Z</time>
      </trkpt>
      <trkpt lat="43.22387" lon="5.48062">
        <ele>343.8</ele>
        <time>2025-10-18T13:29:35Z</time>
      </trkpt>
      <trkpt lat="43.22387" lon="5.48062">
        <ele>343.9</ele>
        <time>2025-10-18T13:29:36Z</time>
      </trkpt>
      <trkpt lat="43.22387" lon="5.48062">
        <ele>344.1</ele>
        <time>2025-10-18T13:29:37Z</time>
      </trkpt>
      <trkpt lat="43.22388" lon="5.48063">
        <ele>344.2</ele>
        <time>2025-10-18T13:29:38Z</time>
      </trkpt>
      <trkpt lat="43.22388" lon="5.48064">
        <ele>344.3</ele>
        <time>2025-10-18T13:29:39Z</time>
      </trkpt>
      <trkpt lat="43.22388" lon="5.48065">
        <ele>344.3</ele>
        <time>2025-10-18T13:29:40Z</time>
      </trkpt>
      <trkpt lat="43.22389" lon="5.48065">
        <ele>344.4</ele>
        <time>2025-10-18T13:29:41Z</time>
      </trkpt>
      <trkpt lat="43.22389" lon="5.48066">
        <ele>344.5</ele>
        <time>2025-10-18T13:29:42Z</time>
      </trkpt>
      <trkpt lat="43.2239" lon="5.48066">
        <ele>344.6</ele>
        <time>2025-10-18T13:29:43Z</time>
      </trkpt>
      <trkpt lat="43.22391" lon="5.48067">
        <ele>344.8</ele>
        <time>2025-10-18T13:29:44Z</time>
      </trkpt>
      <trkpt lat="43.22391" lon="5.48068">
        <ele>344.9</ele>
        <time>2025-10-18T13:29:45Z</time>
      </trkpt>
      <trkpt lat="43.22391" lon="5.48069">
        <ele>345</ele>
        <time>2025-10-18T13:29:46Z</time>
      </trkpt>
      <trkpt lat="43.22391" lon="5.48069">
        <ele>345.1</ele>
        <time>2025-10-18T13:29:47Z</time>
      </trkpt>
      <trkpt lat="43.22391" lon="5.48069">
        <ele>345.2</ele>
        <time>2025-10-18T13:29:48Z</time>
      </trkpt>
      <trkpt lat="43.2239" lon="5.48069">
        <ele>345.2</ele>
        <time>2025-10-18T13:29:49Z</time>
      </trkpt>
      <trkpt lat="43.22391" lon="5.48069">
        <ele>345.3</ele>
        <time>2025-10-18T13:29:50Z</time>
      </trkpt>
      <trkpt lat="43.22391" lon="5.48069">
        <ele>345.3</ele>
        <time>2025-10-18T13:29:51Z</time>
      </trkpt>
      <trkpt lat="43.2239" lon="5.48069">
        <ele>345.3</ele>
        <time>2025-10-18T13:29:52Z</time>
      </trkpt>
      <trkpt lat="43.22391" lon="5.48069">
        <ele>345.3</ele>
        <time>2025-10-18T13:29:53Z</time>
      </trkpt>
      <trkpt lat="43.22391" lon="5.48069">
        <ele>345.3</ele>
        <time>2025-10-18T13:29:54Z</time>
      </trkpt>
      <trkpt lat="43.22391" lon="5.48069">
        <ele>345.3</ele>
        <time>2025-10-18T13:29:55Z</time>
      </trkpt>
      <trkpt lat="43.22391" lon="5.48069">
        <ele>345.3</ele>
        <time>2025-10-18T13:29:56Z</time>
      </trkpt>
      <trkpt lat="43.2239" lon="5.4807">
        <ele>345.2</ele>
        <time>2025-10-18T13:29:57Z</time>
      </trkpt>
      <trkpt lat="43.2239" lon="5.4807">
        <ele>345.2</ele>
        <time>2025-10-18T13:29:58Z</time>
      </trkpt>
      <trkpt lat="43.2239" lon="5.4807">
        <ele>345.2</ele>
        <time>2025-10-18T13:29:59Z</time>
      </trkpt>
      <trkpt lat="43.2239" lon="5.4807">
        <ele>345.2</ele>
        <time>2025-10-18T13:30:00Z</time>
      </trkpt>
      <trkpt lat="43.2239" lon="5.4807">
        <ele>345.3</ele>
        <time>2025-10-18T13:30:01Z</time>
      </trkpt>
      <trkpt lat="43.2239" lon="5.4807">
        <ele>345.3</ele>
        <time>2025-10-18T13:30:02Z</time>
      </trkpt>
      <trkpt lat="43.2239" lon="5.4807">
        <ele>345.3</ele>
        <time>2025-10-18T13:30:03Z</time>
      </trkpt>
      <trkpt lat="43.2239" lon="5.4807">
        <ele>345.3</ele>
        <time>2025-10-18T13:30:04Z</time>
      </trkpt>
      <trkpt lat="43.2239" lon="5.4807">
        <ele>345.4</ele>
        <time>2025-10-18T13:30:05Z</time>
      </trkpt>
      <trkpt lat="43.2239" lon="5.4807">
        <ele>345.4</ele>
        <time>2025-10-18T13:30:06Z</time>
      </trkpt>
      <trkpt lat="43.22389" lon="5.4807">
        <ele>345.4</ele>
        <time>2025-10-18T13:30:07Z</time>
      </trkpt>
      <trkpt lat="43.22388" lon="5.48071">
        <ele>345.4</ele>
        <time>2025-10-18T13:30:08Z</time>
      </trkpt>
      <trkpt lat="43.22389" lon="5.48071">
        <ele>345.4</ele>
        <time>2025-10-18T13:30:09Z</time>
      </trkpt>
      <trkpt lat="43.22389" lon="5.48071">
        <ele>345.4</ele>
        <time>2025-10-18T13:30:10Z</time>
      </trkpt>
      <trkpt lat="43.22388" lon="5.48072">
        <ele>345.4</ele>
        <time>2025-10-18T13:30:11Z</time>
      </trkpt>
      <trkpt lat="43.22387" lon="5.48073">
        <ele>345.4</ele>
        <time>2025-10-18T13:30:12Z</time>
      </trkpt>
      <trkpt lat="43.22387" lon="5.48073">
        <ele>345.4</ele>
        <time>2025-10-18T13:30:13Z</time>
      </trkpt>
      <trkpt lat="43.22387" lon="5.48073">
        <ele>345.3</ele>
        <time>2025-10-18T13:30:14Z</time>
      </trkpt>
      <trkpt lat="43.22387" lon="5.48073">
        <ele>345.3</ele>
        <time>2025-10-18T13:30:15Z</time>
      </trkpt>
      <trkpt lat="43.22387" lon="5.48073">
        <ele>345.3</ele>
        <time>2025-10-18T13:30:16Z</time>
      </trkpt>
      <trkpt lat="43.22386" lon="5.48073">
        <ele>345.3</ele>
        <time>2025-10-18T13:30:17Z</time>
      </trkpt>
      <trkpt lat="43.22386" lon="5.48073">
        <ele>345.3</ele>
        <time>2025-10-18T13:30:18Z</time>
      </trkpt>
      <trkpt lat="43.22386" lon="5.48073">
        <ele>345.3</ele>
        <time>2025-10-18T13:30:19Z</time>
      </trkpt>
      <trkpt lat="43.22386" lon="5.48073">
        <ele>345.3</ele>
        <time>2025-10-18T13:30:20Z</time>
      </trkpt>
      <trkpt lat="43.22386" lon="5.48073">
        <ele>345.3</ele>
        <time>2025-10-18T13:30:21Z</time>
      </trkpt>
      <trkpt lat="43.22386" lon="5.48073">
        <ele>345.3</ele>
        <time>2025-10-18T13:30:22Z</time>
      </trkpt>
      <trkpt lat="43.22386" lon="5.48073">
        <ele>345.3</ele>
        <time>2025-10-18T13:30:23Z</time>
      </trkpt>
      <trkpt lat="43.22386" lon="5.48073">
        <ele>345.4</ele>
        <time>2025-10-18T13:30:24Z</time>
      </trkpt>
      <trkpt lat="43.22387" lon="5.48072">
        <ele>345.4</ele>
        <time>2025-10-18T13:30:25Z</time>
      </trkpt>
      <trkpt lat="43.22388" lon="5.48072">
        <ele>345.5</ele>
        <time>2025-10-18T13:30:26Z</time>
      </trkpt>
      <trkpt lat="43.22389" lon="5.48071">
        <ele>345.5</ele>
        <time>2025-10-18T13:30:27Z</time>
      </trkpt>
      <trkpt lat="43.2239" lon="5.48071">
        <ele>345.5</ele>
        <time>2025-10-18T13:30:28Z</time>
      </trkpt>
      <trkpt lat="43.2239" lon="5.48071">
        <ele>345.5</ele>
        <time>2025-10-18T13:30:29Z</time>
      </trkpt>
      <trkpt lat="43.22391" lon="5.4807">
        <ele>345.5</ele>
        <time>2025-10-18T13:30:30Z</time>
      </trkpt>
      <trkpt lat="43.22391" lon="5.4807">
        <ele>345.5</ele>
        <time>2025-10-18T13:30:31Z</time>
      </trkpt>
      <trkpt lat="43.22392" lon="5.4807">
        <ele>345.5</ele>
        <time>2025-10-18T13:30:32Z</time>
      </trkpt>
      <trkpt lat="43.22392" lon="5.4807">
        <ele>345.5</ele>
        <time>2025-10-18T13:30:33Z</time>
      </trkpt>
      <trkpt lat="43.22392" lon="5.4807">
        <ele>345.5</ele>
        <time>2025-10-18T13:30:34Z</time>
      </trkpt>
      <trkpt lat="43.22392" lon="5.4807">
        <ele>345.5</ele>
        <time>2025-10-18T13:30:35Z</time>
      </trkpt>
      <trkpt lat="43.22393" lon="5.48069">
        <ele>345.5</ele>
        <time>2025-10-18T13:30:36Z</time>
      </trkpt>
      <trkpt lat="43.22393" lon="5.48069">
        <ele>345.6</ele>
        <time>2025-10-18T13:30:37Z</time>
      </trkpt>
      <trkpt lat="43.22393" lon="5.48069">
        <ele>345.6</ele>
        <time>2025-10-18T13:30:38Z</time>
      </trkpt>
      <trkpt lat="43.22393" lon="5.48069">
        <ele>345.5</ele>
        <time>2025-10-18T13:30:39Z</time>
      </trkpt>
      <trkpt lat="43.22394" lon="5.48069">
        <ele>345.5</ele>
        <time>2025-10-18T13:30:40Z</time>
      </trkpt>
      <trkpt lat="43.22393" lon="5.48069">
        <ele>345.5</ele>
        <time>2025-10-18T13:30:41Z</time>
      </trkpt>
      <trkpt lat="43.22394" lon="5.48069">
        <ele>345.6</ele>
        <time>2025-10-18T13:30:42Z</time>
      </trkpt>
      <trkpt lat="43.22395" lon="5.48069">
        <ele>345.5</ele>
        <time>2025-10-18T13:30:43Z</time>
      </trkpt>
      <trkpt lat="43.22395" lon="5.48069">
        <ele>345.6</ele>
        <time>2025-10-18T13:30:44Z</time>
      </trkpt>
      <trkpt lat="43.22394" lon="5.4807">
        <ele>345.6</ele>
        <time>2025-10-18T13:30:45Z</time>
      </trkpt>
      <trkpt lat="43.22393" lon="5.4807">
        <ele>345.6</ele>
        <time>2025-10-18T13:30:46Z</time>
      </trkpt>
      <trkpt lat="43.22393" lon="5.48071">
        <ele>345.6</ele>
        <time>2025-10-18T13:30:47Z</time>
      </trkpt>
      <trkpt lat="43.22393" lon="5.48071">
        <ele>345.6</ele>
        <time>2025-10-18T13:30:48Z</time>
      </trkpt>
      <trkpt lat="43.22393" lon="5.4807">
        <ele>345.6</ele>
        <time>2025-10-18T13:30:49Z</time>
      </trkpt>
      <trkpt lat="43.22392" lon="5.48071">
        <ele>345.6</ele>
        <time>2025-10-18T13:30:50Z</time>
      </trkpt>
      <trkpt lat="43.22392" lon="5.48071">
        <ele>345.6</ele>
        <time>2025-10-18T13:30:51Z</time>
      </trkpt>
      <trkpt lat="43.22392" lon="5.48071">
        <ele>345.6</ele>
        <time>2025-10-18T13:30:52Z</time>
      </trkpt>
      <trkpt lat="43.22392" lon="5.4807">
        <ele>345.5</ele>
        <time>2025-10-18T13:30:53Z</time>
      </trkpt>
      <trkpt lat="43.22393" lon="5.48069">
        <ele>345.5</ele>
        <time>2025-10-18T13:30:54Z</time>
      </trkpt>
      <trkpt lat="43.22393" lon="5.48069">
        <ele>345.4</ele>
        <time>2025-10-18T13:30:55Z</time>
      </trkpt>
      <trkpt lat="43.22393" lon="5.48069">
        <ele>345.4</ele>
        <time>2025-10-18T13:30:56Z</time>
      </trkpt>
      <trkpt lat="43.22394" lon="5.48069">
        <ele>345.3</ele>
        <time>2025-10-18T13:30:57Z</time>
      </trkpt>
      <trkpt lat="43.22394" lon="5.48069">
        <ele>345.2</ele>
        <time>2025-10-18T13:30:58Z</time>
      </trkpt>
      <trkpt lat="43.22393" lon="5.48069">
        <ele>345.1</ele>
        <time>2025-10-18T13:30:59Z</time>
      </trkpt>
      <trkpt lat="43.22393" lon="5.48069">
        <ele>345.1</ele>
        <time>2025-10-18T13:31:00Z</time>
      </trkpt>
      <trkpt lat="43.22393" lon="5.48069">
        <ele>345</ele>
        <time>2025-10-18T13:31:01Z</time>
      </trkpt>
      <trkpt lat="43.22393" lon="5.48069">
        <ele>345</ele>
        <time>2025-10-18T13:31:02Z</time>
      </trkpt>
      <trkpt lat="43.22392" lon="5.4807">
        <ele>345</ele>
        <time>2025-10-18T13:31:03Z</time>
      </trkpt>
      <trkpt lat="43.22392" lon="5.4807">
        <ele>345</ele>
        <time>2025-10-18T13:31:04Z</time>
      </trkpt>
      <trkpt lat="43.22391" lon="5.48071">
        <ele>345</ele>
        <time>2025-10-18T13:31:05Z</time>
      </trkpt>
      <trkpt lat="43.22391" lon="5.48071">
        <ele>345</ele>
        <time>2025-10-18T13:31:06Z</time>
      </trkpt>
      <trkpt lat="43.22391" lon="5.48071">
        <ele>345</ele>
        <time>2025-10-18T13:31:07Z</time>
      </trkpt>
      <trkpt lat="43.22392" lon="5.48071">
        <ele>345</ele>
        <time>2025-10-18T13:31:08Z</time>
      </trkpt>
      <trkpt lat="43.22392" lon="5.4807">
        <ele>345</ele>
        <time>2025-10-18T13:31:09Z</time>
      </trkpt>
      <trkpt lat="43.22392" lon="5.4807">
        <ele>345</ele>
        <time>2025-10-18T13:31:10Z</time>
      </trkpt>
      <trkpt lat="43.22392" lon="5.4807">
        <ele>345</ele>
        <time>2025-10-18T13:31:11Z</time>
      </trkpt>
      <trkpt lat="43.22392" lon="5.4807">
        <ele>345.1</ele>
        <time>2025-10-18T13:31:12Z</time>
      </trkpt>
      <trkpt lat="43.22392" lon="5.48071">
        <ele>345.1</ele>
        <time>2025-10-18T13:31:13Z</time>
      </trkpt>
      <trkpt lat="43.22391" lon="5.48071">
        <ele>345.1</ele>
        <time>2025-10-18T13:31:14Z</time>
      </trkpt>
      <trkpt lat="43.22391" lon="5.48071">
        <ele>345.1</ele>
        <time>2025-10-18T13:31:15Z</time>
      </trkpt>
      <trkpt lat="43.2239" lon="5.48072">
        <ele>345.1</ele>
        <time>2025-10-18T13:31:16Z</time>
      </trkpt>
      <trkpt lat="43.2239" lon="5.48072">
        <ele>345.1</ele>
        <time>2025-10-18T13:31:17Z</time>
      </trkpt>
      <trkpt lat="43.2239" lon="5.48072">
        <ele>345.1</ele>
        <time>2025-10-18T13:31:18Z</time>
      </trkpt>
      <trkpt lat="43.2239" lon="5.48072">
        <ele>345.1</ele>
        <time>2025-10-18T13:31:19Z</time>
      </trkpt>
      <trkpt lat="43.22389" lon="5.48073">
        <ele>345.1</ele>
        <time>2025-10-18T13:31:20Z</time>
      </trkpt>
      <trkpt lat="43.2239" lon="5.48072">
        <ele>345.1</ele>
        <time>2025-10-18T13:31:21Z</time>
      </trkpt>
      <trkpt lat="43.2239" lon="5.48072">
        <ele>345</ele>
        <time>2025-10-18T13:31:22Z</time>
      </trkpt>
      <trkpt lat="43.22391" lon="5.48071">
        <ele>344.9</ele>
        <time>2025-10-18T13:31:23Z</time>
      </trkpt>
      <trkpt lat="43.22391" lon="5.48071">
        <ele>344.9</ele>
        <time>2025-10-18T13:31:24Z</time>
      </trkpt>
      <trkpt lat="43.22391" lon="5.4807">
        <ele>344.8</ele>
        <time>2025-10-18T13:31:25Z</time>
      </trkpt>
      <trkpt lat="43.22391" lon="5.4807">
        <ele>344.8</ele>
        <time>2025-10-18T13:31:26Z</time>
      </trkpt>
      <trkpt lat="43.22391" lon="5.4807">
        <ele>344.8</ele>
        <time>2025-10-18T13:31:27Z</time>
      </trkpt>
      <trkpt lat="43.22391" lon="5.48071">
        <ele>344.9</ele>
        <time>2025-10-18T13:31:28Z</time>
      </trkpt>
      <trkpt lat="43.22391" lon="5.4807">
        <ele>344.9</ele>
        <time>2025-10-18T13:31:29Z</time>
      </trkpt>
      <trkpt lat="43.22391" lon="5.48071">
        <ele>344.9</ele>
        <time>2025-10-18T13:31:30Z</time>
      </trkpt>
      <trkpt lat="43.2239" lon="5.48071">
        <ele>345</ele>
        <time>2025-10-18T13:31:31Z</time>
      </trkpt>
      <trkpt lat="43.22391" lon="5.4807">
        <ele>345.1</ele>
        <time>2025-10-18T13:31:32Z</time>
      </trkpt>
      <trkpt lat="43.2239" lon="5.48071">
        <ele>345.1</ele>
        <time>2025-10-18T13:31:33Z</time>
      </trkpt>
      <trkpt lat="43.2239" lon="5.48071">
        <ele>345.1</ele>
        <time>2025-10-18T13:31:34Z</time>
      </trkpt>
      <trkpt lat="43.22389" lon="5.48071">
        <ele>345.1</ele>
        <time>2025-10-18T13:31:35Z</time>
      </trkpt>
      <trkpt lat="43.2239" lon="5.48071">
        <ele>345</ele>
        <time>2025-10-18T13:31:36Z</time>
      </trkpt>
      <trkpt lat="43.2239" lon="5.48071">
        <ele>345</ele>
        <time>2025-10-18T13:31:37Z</time>
      </trkpt>
      <trkpt lat="43.2239" lon="5.48071">
        <ele>345</ele>
        <time>2025-10-18T13:31:38Z</time>
      </trkpt>
      <trkpt lat="43.2239" lon="5.48071">
        <ele>345</ele>
        <time>2025-10-18T13:31:39Z</time>
      </trkpt>
      <trkpt lat="43.2239" lon="5.4807">
        <ele>345</ele>
        <time>2025-10-18T13:31:40Z</time>
      </trkpt>
      <trkpt lat="43.22391" lon="5.4807">
        <ele>345</ele>
        <time>2025-10-18T13:31:41Z</time>
      </trkpt>
      <trkpt lat="43.22392" lon="5.48069">
        <ele>345</ele>
        <time>2025-10-18T13:31:42Z</time>
      </trkpt>
      <trkpt lat="43.22392" lon="5.48069">
        <ele>345.1</ele>
        <time>2025-10-18T13:31:43Z</time>
      </trkpt>
      <trkpt lat="43.22392" lon="5.48069">
        <ele>345.1</ele>
        <time>2025-10-18T13:31:44Z</time>
      </trkpt>
      <trkpt lat="43.22392" lon="5.48069">
        <ele>345.2</ele>
        <time>2025-10-18T13:31:45Z</time>
      </trkpt>
      <trkpt lat="43.22392" lon="5.48069">
        <ele>345.2</ele>
        <time>2025-10-18T13:31:46Z</time>
      </trkpt>
      <trkpt lat="43.22393" lon="5.48069">
        <ele>345.3</ele>
        <time>2025-10-18T13:31:47Z</time>
      </trkpt>
      <trkpt lat="43.22393" lon="5.48069">
        <ele>345.4</ele>
        <time>2025-10-18T13:31:48Z</time>
      </trkpt>
      <trkpt lat="43.22393" lon="5.48069">
        <ele>345.4</ele>
        <time>2025-10-18T13:31:49Z</time>
      </trkpt>
      <trkpt lat="43.22392" lon="5.48069">
        <ele>345.4</ele>
        <time>2025-10-18T13:31:50Z</time>
      </trkpt>
      <trkpt lat="43.22392" lon="5.48069">
        <ele>345.4</ele>
        <time>2025-10-18T13:31:51Z</time>
      </trkpt>
      <trkpt lat="43.22392" lon="5.48069">
        <ele>345.4</ele>
        <time>2025-10-18T13:31:52Z</time>
      </trkpt>
      <trkpt lat="43.22393" lon="5.48069">
        <ele>345.4</ele>
        <time>2025-10-18T13:31:53Z</time>
      </trkpt>
      <trkpt lat="43.22393" lon="5.48069">
        <ele>345.4</ele>
        <time>2025-10-18T13:31:54Z</time>
      </trkpt>
      <trkpt lat="43.22393" lon="5.48069">
        <ele>345.3</ele>
        <time>2025-10-18T13:31:55Z</time>
      </trkpt>
      <trkpt lat="43.22393" lon="5.48068">
        <ele>345.3</ele>
        <time>2025-10-18T13:31:56Z</time>
      </trkpt>
      <trkpt lat="43.22393" lon="5.48068">
        <ele>345.3</ele>
        <time>2025-10-18T13:31:57Z</time>
      </trkpt>
      <trkpt lat="43.22393" lon="5.48068">
        <ele>345.2</ele>
        <time>2025-10-18T13:31:58Z</time>
      </trkpt>
      <trkpt lat="43.22393" lon="5.48068">
        <ele>345.3</ele>
        <time>2025-10-18T13:31:59Z</time>
      </trkpt>
      <trkpt lat="43.22393" lon="5.48068">
        <ele>345.2</ele>
        <time>2025-10-18T13:32:00Z</time>
      </trkpt>
      <trkpt lat="43.22392" lon="5.48069">
        <ele>345.2</ele>
        <time>2025-10-18T13:32:01Z</time>
      </trkpt>
      <trkpt lat="43.22393" lon="5.48068">
        <ele>345.2</ele>
        <time>2025-10-18T13:32:02Z</time>
      </trkpt>
      <trkpt lat="43.22393" lon="5.48069">
        <ele>345.1</ele>
        <time>2025-10-18T13:32:03Z</time>
      </trkpt>
      <trkpt lat="43.22392" lon="5.48069">
        <ele>345.1</ele>
        <time>2025-10-18T13:32:04Z</time>
      </trkpt>
      <trkpt lat="43.22392" lon="5.4807">
        <ele>345.1</ele>
        <time>2025-10-18T13:32:05Z</time>
      </trkpt>
      <trkpt lat="43.22392" lon="5.48071">
        <ele>345</ele>
        <time>2025-10-18T13:32:06Z</time>
      </trkpt>
      <trkpt lat="43.22392" lon="5.48071">
        <ele>344.9</ele>
        <time>2025-10-18T13:32:07Z</time>
      </trkpt>
      <trkpt lat="43.22392" lon="5.48072">
        <ele>344.9</ele>
        <time>2025-10-18T13:32:08Z</time>
      </trkpt>
      <trkpt lat="43.22392" lon="5.48072">
        <ele>344.9</ele>
        <time>2025-10-18T13:32:09Z</time>
      </trkpt>
      <trkpt lat="43.22393" lon="5.48072">
        <ele>344.8</ele>
        <time>2025-10-18T13:32:10Z</time>
      </trkpt>
      <trkpt lat="43.22391" lon="5.48074">
        <ele>344.8</ele>
        <time>2025-10-18T13:32:11Z</time>
      </trkpt>
      <trkpt lat="43.2239" lon="5.48075">
        <ele>344.8</ele>
        <time>2025-10-18T13:32:12Z</time>
      </trkpt>
      <trkpt lat="43.2239" lon="5.48075">
        <ele>344.8</ele>
        <time>2025-10-18T13:32:13Z</time>
      </trkpt>
      <trkpt lat="43.22391" lon="5.48074">
        <ele>344.8</ele>
        <time>2025-10-18T13:32:14Z</time>
      </trkpt>
      <trkpt lat="43.22392" lon="5.48075">
        <ele>344.6</ele>
        <time>2025-10-18T13:32:15Z</time>
      </trkpt>
      <trkpt lat="43.22392" lon="5.48075">
        <ele>344.4</ele>
        <time>2025-10-18T13:32:16Z</time>
      </trkpt>
      <trkpt lat="43.22392" lon="5.48076">
        <ele>344.3</ele>
        <time>2025-10-18T13:32:17Z</time>
      </trkpt>
      <trkpt lat="43.22392" lon="5.48076">
        <ele>344.3</ele>
        <time>2025-10-18T13:32:18Z</time>
      </trkpt>
      <trkpt lat="43.22392" lon="5.48076">
        <ele>344.3</ele>
        <time>2025-10-18T13:32:19Z</time>
      </trkpt>
      <trkpt lat="43.22392" lon="5.48076">
        <ele>344.3</ele>
        <time>2025-10-18T13:32:20Z</time>
      </trkpt>
      <trkpt lat="43.22392" lon="5.48076">
        <ele>344.3</ele>
        <time>2025-10-18T13:32:21Z</time>
      </trkpt>
      <trkpt lat="43.22392" lon="5.48076">
        <ele>344.3</ele>
        <time>2025-10-18T13:32:22Z</time>
      </trkpt>
      <trkpt lat="43.22392" lon="5.48076">
        <ele>344.3</ele>
        <time>2025-10-18T13:32:23Z</time>
      </trkpt>
      <trkpt lat="43.22392" lon="5.48076">
        <ele>344.3</ele>
        <time>2025-10-18T13:32:24Z</time>
      </trkpt>
      <trkpt lat="43.22391" lon="5.48077">
        <ele>344.3</ele>
        <time>2025-10-18T13:32:25Z</time>
      </trkpt>
      <trkpt lat="43.22391" lon="5.48077">
        <ele>344.2</ele>
        <time>2025-10-18T13:32:26Z</time>
      </trkpt>
      <trkpt lat="43.2239" lon="5.48077">
        <ele>344.3</ele>
        <time>2025-10-18T13:32:27Z</time>
      </trkpt>
      <trkpt lat="43.2239" lon="5.48078">
        <ele>344.3</ele>
        <time>2025-10-18T13:32:28Z</time>
      </trkpt>
      <trkpt lat="43.2239" lon="5.48078">
        <ele>344.2</ele>
        <time>2025-10-18T13:32:29Z</time>
      </trkpt>
      <trkpt lat="43.2239" lon="5.48079">
        <ele>344.2</ele>
        <time>2025-10-18T13:32:30Z</time>
      </trkpt>
      <trkpt lat="43.2239" lon="5.4808">
        <ele>344.3</ele>
        <time>2025-10-18T13:32:31Z</time>
      </trkpt>
      <trkpt lat="43.22391" lon="5.48081">
        <ele>344.3</ele>
        <time>2025-10-18T13:32:32Z</time>
      </trkpt>
      <trkpt lat="43.22391" lon="5.48082">
        <ele>344.5</ele>
        <time>2025-10-18T13:32:33Z</time>
      </trkpt>
      <trkpt lat="43.22391" lon="5.48083">
        <ele>344.7</ele>
        <time>2025-10-18T13:32:34Z</time>
      </trkpt>
      <trkpt lat="43.22392" lon="5.48083">
        <ele>344.8</ele>
        <time>2025-10-18T13:32:35Z</time>
      </trkpt>
      <trkpt lat="43.22393" lon="5.48083">
        <ele>345</ele>
        <time>2025-10-18T13:32:36Z</time>
      </trkpt>
      <trkpt lat="43.22393" lon="5.48084">
        <ele>345.4</ele>
        <time>2025-10-18T13:32:37Z</time>
      </trkpt>
      <trkpt lat="43.22393" lon="5.48085">
        <ele>345.6</ele>
        <time>2025-10-18T13:32:38Z</time>
      </trkpt>
      <trkpt lat="43.22394" lon="5.48084">
        <ele>345.8</ele>
        <time>2025-10-18T13:32:39Z</time>
      </trkpt>
      <trkpt lat="43.22394" lon="5.48085">
        <ele>346</ele>
        <time>2025-10-18T13:32:40Z</time>
      </trkpt>
      <trkpt lat="43.22393" lon="5.48085">
        <ele>346.1</ele>
        <time>2025-10-18T13:32:41Z</time>
      </trkpt>
      <trkpt lat="43.22393" lon="5.48087">
        <ele>346.2</ele>
        <time>2025-10-18T13:32:42Z</time>
      </trkpt>
      <trkpt lat="43.22392" lon="5.48088">
        <ele>346.2</ele>
        <time>2025-10-18T13:32:43Z</time>
      </trkpt>
      <trkpt lat="43.22393" lon="5.48089">
        <ele>346.3</ele>
        <time>2025-10-18T13:32:44Z</time>
      </trkpt>
      <trkpt lat="43.22393" lon="5.4809">
        <ele>346.5</ele>
        <time>2025-10-18T13:32:45Z</time>
      </trkpt>
      <trkpt lat="43.22394" lon="5.4809">
        <ele>346.5</ele>
        <time>2025-10-18T13:32:46Z</time>
      </trkpt>
      <trkpt lat="43.22393" lon="5.48092">
        <ele>346.6</ele>
        <time>2025-10-18T13:32:47Z</time>
      </trkpt>
      <trkpt lat="43.22392" lon="5.48092">
        <ele>346.7</ele>
        <time>2025-10-18T13:32:48Z</time>
      </trkpt>
      <trkpt lat="43.22392" lon="5.48093">
        <ele>346.7</ele>
        <time>2025-10-18T13:32:49Z</time>
      </trkpt>
      <trkpt lat="43.22392" lon="5.48093">
        <ele>346.8</ele>
        <time>2025-10-18T13:32:50Z</time>
      </trkpt>
      <trkpt lat="43.22391" lon="5.48093">
        <ele>346.8</ele>
        <time>2025-10-18T13:32:51Z</time>
      </trkpt>
      <trkpt lat="43.22391" lon="5.48094">
        <ele>346.9</ele>
        <time>2025-10-18T13:32:52Z</time>
      </trkpt>
      <trkpt lat="43.2239" lon="5.48095">
        <ele>346.9</ele>
        <time>2025-10-18T13:32:53Z</time>
      </trkpt>
      <trkpt lat="43.22391" lon="5.48095">
        <ele>346.9</ele>
        <time>2025-10-18T13:32:54Z</time>
      </trkpt>
      <trkpt lat="43.2239" lon="5.48096">
        <ele>346.9</ele>
        <time>2025-10-18T13:32:55Z</time>
      </trkpt>
      <trkpt lat="43.22389" lon="5.48097">
        <ele>347</ele>
        <time>2025-10-18T13:32:56Z</time>
      </trkpt>
      <trkpt lat="43.22389" lon="5.48098">
        <ele>347</ele>
        <time>2025-10-18T13:32:57Z</time>
      </trkpt>
      <trkpt lat="43.22389" lon="5.48098">
        <ele>347.1</ele>
        <time>2025-10-18T13:32:58Z</time>
      </trkpt>
      <trkpt lat="43.22389" lon="5.48098">
        <ele>347.3</ele>
        <time>2025-10-18T13:32:59Z</time>
      </trkpt>
      <trkpt lat="43.22391" lon="5.48097">
        <ele>347.4</ele>
        <time>2025-10-18T13:33:00Z</time>
      </trkpt>
      <trkpt lat="43.22391" lon="5.48097">
        <ele>347.4</ele>
        <time>2025-10-18T13:33:01Z</time>
      </trkpt>
      <trkpt lat="43.22392" lon="5.48097">
        <ele>347.5</ele>
        <time>2025-10-18T13:33:02Z</time>
      </trkpt>
      <trkpt lat="43.22388" lon="5.48099">
        <ele>347.5</ele>
        <time>2025-10-18T13:33:03Z</time>
      </trkpt>
      <trkpt lat="43.22384" lon="5.48101">
        <ele>347.4</ele>
        <time>2025-10-18T13:33:04Z</time>
      </trkpt>
      <trkpt lat="43.22381" lon="5.48103">
        <ele>347.4</ele>
        <time>2025-10-18T13:33:05Z</time>
      </trkpt>
      <trkpt lat="43.22379" lon="5.48104">
        <ele>347.3</ele>
        <time>2025-10-18T13:33:06Z</time>
      </trkpt>
      <trkpt lat="43.22378" lon="5.48104">
        <ele>347.3</ele>
        <time>2025-10-18T13:33:07Z</time>
      </trkpt>
      <trkpt lat="43.22377" lon="5.48105">
        <ele>347.3</ele>
        <time>2025-10-18T13:33:08Z</time>
      </trkpt>
      <trkpt lat="43.22377" lon="5.48105">
        <ele>347.3</ele>
        <time>2025-10-18T13:33:09Z</time>
      </trkpt>
      <trkpt lat="43.22376" lon="5.48106">
        <ele>347.3</ele>
        <time>2025-10-18T13:33:10Z</time>
      </trkpt>
      <trkpt lat="43.22375" lon="5.48106">
        <ele>347.2</ele>
        <time>2025-10-18T13:33:11Z</time>
      </trkpt>
      <trkpt lat="43.22375" lon="5.48106">
        <ele>347.3</ele>
        <time>2025-10-18T13:33:12Z</time>
      </trkpt>
      <trkpt lat="43.22375" lon="5.48106">
        <ele>347.3</ele>
        <time>2025-10-18T13:33:13Z</time>
      </trkpt>
      <trkpt lat="43.22375" lon="5.48106">
        <ele>347.2</ele>
        <time>2025-10-18T13:33:14Z</time>
      </trkpt>
      <trkpt lat="43.22375" lon="5.48107">
        <ele>347.2</ele>
        <time>2025-10-18T13:33:15Z</time>
      </trkpt>
      <trkpt lat="43.22374" lon="5.48107">
        <ele>347.1</ele>
        <time>2025-10-18T13:33:16Z</time>
      </trkpt>
      <trkpt lat="43.22374" lon="5.48107">
        <ele>347.1</ele>
        <time>2025-10-18T13:33:17Z</time>
      </trkpt>
      <trkpt lat="43.22373" lon="5.48107">
        <ele>347.1</ele>
        <time>2025-10-18T13:33:18Z</time>
      </trkpt>
      <trkpt lat="43.22373" lon="5.48107">
        <ele>347.1</ele>
        <time>2025-10-18T13:33:19Z</time>
      </trkpt>
      <trkpt lat="43.22373" lon="5.48108">
        <ele>347</ele>
        <time>2025-10-18T13:33:20Z</time>
      </trkpt>
      <trkpt lat="43.22374" lon="5.48108">
        <ele>346.9</ele>
        <time>2025-10-18T13:33:21Z</time>
      </trkpt>
      <trkpt lat="43.22374" lon="5.48108">
        <ele>346.8</ele>
        <time>2025-10-18T13:33:22Z</time>
      </trkpt>
      <trkpt lat="43.22374" lon="5.48108">
        <ele>346.8</ele>
        <time>2025-10-18T13:33:23Z</time>
      </trkpt>
      <trkpt lat="43.22374" lon="5.48108">
        <ele>346.9</ele>
        <time>2025-10-18T13:33:24Z</time>
      </trkpt>
      <trkpt lat="43.22375" lon="5.48108">
        <ele>346.9</ele>
        <time>2025-10-18T13:33:25Z</time>
      </trkpt>
      <trkpt lat="43.22376" lon="5.48109">
        <ele>346.9</ele>
        <time>2025-10-18T13:33:26Z</time>
      </trkpt>
      <trkpt lat="43.22376" lon="5.48109">
        <ele>346.9</ele>
        <time>2025-10-18T13:33:27Z</time>
      </trkpt>
      <trkpt lat="43.22376" lon="5.48109">
        <ele>346.9</ele>
        <time>2025-10-18T13:33:28Z</time>
      </trkpt>
      <trkpt lat="43.22376" lon="5.48109">
        <ele>346.9</ele>
        <time>2025-10-18T13:33:29Z</time>
      </trkpt>
      <trkpt lat="43.22376" lon="5.48109">
        <ele>346.9</ele>
        <time>2025-10-18T13:33:30Z</time>
      </trkpt>
      <trkpt lat="43.22376" lon="5.48109">
        <ele>346.9</ele>
        <time>2025-10-18T13:33:31Z</time>
      </trkpt>
      <trkpt lat="43.22376" lon="5.48109">
        <ele>346.9</ele>
        <time>2025-10-18T13:33:32Z</time>
      </trkpt>
      <trkpt lat="43.22376" lon="5.48109">
        <ele>346.9</ele>
        <time>2025-10-18T13:33:33Z</time>
      </trkpt>
      <trkpt lat="43.22376" lon="5.48109">
        <ele>347</ele>
        <time>2025-10-18T13:33:34Z</time>
      </trkpt>
      <trkpt lat="43.22376" lon="5.48109">
        <ele>347</ele>
        <time>2025-10-18T13:33:35Z</time>
      </trkpt>
      <trkpt lat="43.22376" lon="5.48108">
        <ele>347.1</ele>
        <time>2025-10-18T13:33:36Z</time>
      </trkpt>
      <trkpt lat="43.22375" lon="5.48108">
        <ele>347.2</ele>
        <time>2025-10-18T13:33:37Z</time>
      </trkpt>
      <trkpt lat="43.22375" lon="5.48108">
        <ele>347.2</ele>
        <time>2025-10-18T13:33:38Z</time>
      </trkpt>
      <trkpt lat="43.22375" lon="5.48108">
        <ele>347.3</ele>
        <time>2025-10-18T13:33:39Z</time>
      </trkpt>
      <trkpt lat="43.22375" lon="5.48108">
        <ele>347.3</ele>
        <time>2025-10-18T13:33:40Z</time>
      </trkpt>
      <trkpt lat="43.22374" lon="5.48108">
        <ele>347.3</ele>
        <time>2025-10-18T13:33:41Z</time>
      </trkpt>
      <trkpt lat="43.22374" lon="5.48108">
        <ele>347.2</ele>
        <time>2025-10-18T13:33:42Z</time>
      </trkpt>
      <trkpt lat="43.22374" lon="5.48108">
        <ele>347.2</ele>
        <time>2025-10-18T13:33:43Z</time>
      </trkpt>
      <trkpt lat="43.22374" lon="5.48107">
        <ele>347.2</ele>
        <time>2025-10-18T13:33:44Z</time>
      </trkpt>
      <trkpt lat="43.22374" lon="5.48107">
        <ele>347.1</ele>
        <time>2025-10-18T13:33:45Z</time>
      </trkpt>
      <trkpt lat="43.22374" lon="5.48107">
        <ele>347.1</ele>
        <time>2025-10-18T13:33:46Z</time>
      </trkpt>
      <trkpt lat="43.22374" lon="5.48107">
        <ele>347.2</ele>
        <time>2025-10-18T13:33:47Z</time>
      </trkpt>
      <trkpt lat="43.22374" lon="5.48107">
        <ele>347.2</ele>
        <time>2025-10-18T13:33:48Z</time>
      </trkpt>
      <trkpt lat="43.22374" lon="5.48107">
        <ele>347.1</ele>
        <time>2025-10-18T13:33:49Z</time>
      </trkpt>
      <trkpt lat="43.22374" lon="5.48107">
        <ele>347.1</ele>
        <time>2025-10-18T13:33:50Z</time>
      </trkpt>
      <trkpt lat="43.22374" lon="5.48107">
        <ele>347.1</ele>
        <time>2025-10-18T13:33:51Z</time>
      </trkpt>
      <trkpt lat="43.22375" lon="5.48107">
        <ele>347.1</ele>
        <time>2025-10-18T13:33:52Z</time>
      </trkpt>
      <trkpt lat="43.22375" lon="5.48107">
        <ele>347.1</ele>
        <time>2025-10-18T13:33:53Z</time>
      </trkpt>
      <trkpt lat="43.22375" lon="5.48107">
        <ele>347.2</ele>
        <time>2025-10-18T13:33:54Z</time>
      </trkpt>
      <trkpt lat="43.22376" lon="5.48107">
        <ele>347.2</ele>
        <time>2025-10-18T13:33:55Z</time>
      </trkpt>
      <trkpt lat="43.22376" lon="5.48107">
        <ele>347.1</ele>
        <time>2025-10-18T13:33:56Z</time>
      </trkpt>
      <trkpt lat="43.22377" lon="5.48107">
        <ele>347.1</ele>
        <time>2025-10-18T13:33:57Z</time>
      </trkpt>
      <trkpt lat="43.22378" lon="5.48107">
        <ele>347</ele>
        <time>2025-10-18T13:33:58Z</time>
      </trkpt>
      <trkpt lat="43.22378" lon="5.48107">
        <ele>347</ele>
        <time>2025-10-18T13:33:59Z</time>
      </trkpt>
      <trkpt lat="43.22379" lon="5.48107">
        <ele>347</ele>
        <time>2025-10-18T13:34:00Z</time>
      </trkpt>
      <trkpt lat="43.2238" lon="5.48106">
        <ele>347</ele>
        <time>2025-10-18T13:34:01Z</time>
      </trkpt>
      <trkpt lat="43.22381" lon="5.48107">
        <ele>347</ele>
        <time>2025-10-18T13:34:02Z</time>
      </trkpt>
      <trkpt lat="43.2238" lon="5.48107">
        <ele>346.9</ele>
        <time>2025-10-18T13:34:03Z</time>
      </trkpt>
      <trkpt lat="43.22381" lon="5.48107">
        <ele>346.8</ele>
        <time>2025-10-18T13:34:04Z</time>
      </trkpt>
      <trkpt lat="43.22381" lon="5.48107">
        <ele>346.8</ele>
        <time>2025-10-18T13:34:05Z</time>
      </trkpt>
      <trkpt lat="43.2238" lon="5.48107">
        <ele>346.8</ele>
        <time>2025-10-18T13:34:06Z</time>
      </trkpt>
      <trkpt lat="43.2238" lon="5.48106">
        <ele>346.8</ele>
        <time>2025-10-18T13:34:07Z</time>
      </trkpt>
      <trkpt lat="43.2238" lon="5.48106">
        <ele>346.7</ele>
        <time>2025-10-18T13:34:08Z</time>
      </trkpt>
      <trkpt lat="43.22379" lon="5.48106">
        <ele>346.7</ele>
        <time>2025-10-18T13:34:09Z</time>
      </trkpt>
      <trkpt lat="43.22379" lon="5.48106">
        <ele>346.7</ele>
        <time>2025-10-18T13:34:10Z</time>
      </trkpt>
      <trkpt lat="43.22379" lon="5.48106">
        <ele>346.7</ele>
        <time>2025-10-18T13:34:11Z</time>
      </trkpt>
      <trkpt lat="43.22378" lon="5.48106">
        <ele>346.7</ele>
        <time>2025-10-18T13:34:12Z</time>
      </trkpt>
      <trkpt lat="43.22378" lon="5.48107">
        <ele>346.7</ele>
        <time>2025-10-18T13:34:13Z</time>
      </trkpt>
      <trkpt lat="43.22378" lon="5.48106">
        <ele>346.8</ele>
        <time>2025-10-18T13:34:14Z</time>
      </trkpt>
      <trkpt lat="43.22377" lon="5.48106">
        <ele>346.9</ele>
        <time>2025-10-18T13:34:15Z</time>
      </trkpt>
      <trkpt lat="43.22378" lon="5.48106">
        <ele>346.9</ele>
        <time>2025-10-18T13:34:16Z</time>
      </trkpt>
      <trkpt lat="43.22379" lon="5.48106">
        <ele>347</ele>
        <time>2025-10-18T13:34:17Z</time>
      </trkpt>
      <trkpt lat="43.22378" lon="5.48106">
        <ele>347</ele>
        <time>2025-10-18T13:34:18Z</time>
      </trkpt>
      <trkpt lat="43.22379" lon="5.48106">
        <ele>347.1</ele>
        <time>2025-10-18T13:34:19Z</time>
      </trkpt>
      <trkpt lat="43.22379" lon="5.48106">
        <ele>347.1</ele>
        <time>2025-10-18T13:34:20Z</time>
      </trkpt>
      <trkpt lat="43.2238" lon="5.48106">
        <ele>347.1</ele>
        <time>2025-10-18T13:34:21Z</time>
      </trkpt>
      <trkpt lat="43.22381" lon="5.48106">
        <ele>347.1</ele>
        <time>2025-10-18T13:34:22Z</time>
      </trkpt>
      <trkpt lat="43.22381" lon="5.48106">
        <ele>347</ele>
        <time>2025-10-18T13:34:23Z</time>
      </trkpt>
      <trkpt lat="43.22381" lon="5.48106">
        <ele>347.1</ele>
        <time>2025-10-18T13:34:24Z</time>
      </trkpt>
      <trkpt lat="43.22381" lon="5.48106">
        <ele>347.2</ele>
        <time>2025-10-18T13:34:25Z</time>
      </trkpt>
      <trkpt lat="43.22381" lon="5.48106">
        <ele>347.2</ele>
        <time>2025-10-18T13:34:26Z</time>
      </trkpt>
      <trkpt lat="43.22381" lon="5.48105">
        <ele>347.2</ele>
        <time>2025-10-18T13:34:27Z</time>
      </trkpt>
      <trkpt lat="43.22381" lon="5.48105">
        <ele>347.1</ele>
        <time>2025-10-18T13:34:28Z</time>
      </trkpt>
      <trkpt lat="43.22381" lon="5.48105">
        <ele>347.1</ele>
        <time>2025-10-18T13:34:29Z</time>
      </trkpt>
      <trkpt lat="43.2238" lon="5.48104">
        <ele>347</ele>
        <time>2025-10-18T13:34:30Z</time>
      </trkpt>
      <trkpt lat="43.22379" lon="5.48104">
        <ele>346.9</ele>
        <time>2025-10-18T13:34:31Z</time>
      </trkpt>
      <trkpt lat="43.22378" lon="5.48104">
        <ele>346.9</ele>
        <time>2025-10-18T13:34:32Z</time>
      </trkpt>
      <trkpt lat="43.22376" lon="5.48103">
        <ele>346.9</ele>
        <time>2025-10-18T13:34:33Z</time>
      </trkpt>
      <trkpt lat="43.22375" lon="5.48103">
        <ele>346.9</ele>
        <time>2025-10-18T13:34:34Z</time>
      </trkpt>
      <trkpt lat="43.22375" lon="5.48102">
        <ele>346.9</ele>
        <time>2025-10-18T13:34:35Z</time>
      </trkpt>
      <trkpt lat="43.22374" lon="5.48102">
        <ele>346.9</ele>
        <time>2025-10-18T13:34:36Z</time>
      </trkpt>
      <trkpt lat="43.22374" lon="5.48102">
        <ele>346.8</ele>
        <time>2025-10-18T13:34:37Z</time>
      </trkpt>
      <trkpt lat="43.22373" lon="5.48101">
        <ele>346.8</ele>
        <time>2025-10-18T13:34:38Z</time>
      </trkpt>
      <trkpt lat="43.22373" lon="5.48101">
        <ele>346.8</ele>
        <time>2025-10-18T13:34:39Z</time>
      </trkpt>
      <trkpt lat="43.22373" lon="5.48101">
        <ele>346.8</ele>
        <time>2025-10-18T13:34:40Z</time>
      </trkpt>
      <trkpt lat="43.22373" lon="5.48101">
        <ele>346.8</ele>
        <time>2025-10-18T13:34:41Z</time>
      </trkpt>
      <trkpt lat="43.22373" lon="5.48101">
        <ele>346.8</ele>
        <time>2025-10-18T13:34:42Z</time>
      </trkpt>
      <trkpt lat="43.22373" lon="5.48101">
        <ele>346.9</ele>
        <time>2025-10-18T13:34:43Z</time>
      </trkpt>
      <trkpt lat="43.22373" lon="5.48101">
        <ele>346.9</ele>
        <time>2025-10-18T13:34:44Z</time>
      </trkpt>
      <trkpt lat="43.22373" lon="5.48101">
        <ele>346.9</ele>
        <time>2025-10-18T13:34:45Z</time>
      </trkpt>
      <trkpt lat="43.22373" lon="5.48101">
        <ele>346.9</ele>
        <time>2025-10-18T13:34:46Z</time>
      </trkpt>
      <trkpt lat="43.22373" lon="5.48101">
        <ele>346.8</ele>
        <time>2025-10-18T13:34:47Z</time>
      </trkpt>
      <trkpt lat="43.22373" lon="5.48101">
        <ele>346.9</ele>
        <time>2025-10-18T13:34:48Z</time>
      </trkpt>
      <trkpt lat="43.22373" lon="5.48101">
        <ele>346.9</ele>
        <time>2025-10-18T13:34:49Z</time>
      </trkpt>
      <trkpt lat="43.22372" lon="5.48101">
        <ele>346.9</ele>
        <time>2025-10-18T13:34:50Z</time>
      </trkpt>
      <trkpt lat="43.22371" lon="5.48101">
        <ele>346.9</ele>
        <time>2025-10-18T13:34:51Z</time>
      </trkpt>
      <trkpt lat="43.22371" lon="5.481">
        <ele>346.9</ele>
        <time>2025-10-18T13:34:52Z</time>
      </trkpt>
      <trkpt lat="43.2237" lon="5.481">
        <ele>346.9</ele>
        <time>2025-10-18T13:34:53Z</time>
      </trkpt>
      <trkpt lat="43.2237" lon="5.481">
        <ele>347</ele>
        <time>2025-10-18T13:34:54Z</time>
      </trkpt>
      <trkpt lat="43.22371" lon="5.481">
        <ele>347</ele>
        <time>2025-10-18T13:34:55Z</time>
      </trkpt>
      <trkpt lat="43.22371" lon="5.481">
        <ele>347</ele>
        <time>2025-10-18T13:34:56Z</time>
      </trkpt>
      <trkpt lat="43.22372" lon="5.481">
        <ele>347</ele>
        <time>2025-10-18T13:34:57Z</time>
      </trkpt>
      <trkpt lat="43.22372" lon="5.481">
        <ele>347</ele>
        <time>2025-10-18T13:34:58Z</time>
      </trkpt>
      <trkpt lat="43.22373" lon="5.481">
        <ele>347</ele>
        <time>2025-10-18T13:34:59Z</time>
      </trkpt>
      <trkpt lat="43.22373" lon="5.481">
        <ele>347</ele>
        <time>2025-10-18T13:35:00Z</time>
      </trkpt>
      <trkpt lat="43.22374" lon="5.48101">
        <ele>347</ele>
        <time>2025-10-18T13:35:01Z</time>
      </trkpt>
      <trkpt lat="43.22374" lon="5.48101">
        <ele>346.9</ele>
        <time>2025-10-18T13:35:02Z</time>
      </trkpt>
      <trkpt lat="43.22374" lon="5.48101">
        <ele>346.9</ele>
        <time>2025-10-18T13:35:03Z</time>
      </trkpt>
      <trkpt lat="43.22373" lon="5.481">
        <ele>346.8</ele>
        <time>2025-10-18T13:35:04Z</time>
      </trkpt>
      <trkpt lat="43.22372" lon="5.481">
        <ele>346.8</ele>
        <time>2025-10-18T13:35:05Z</time>
      </trkpt>
      <trkpt lat="43.22371" lon="5.48099">
        <ele>346.8</ele>
        <time>2025-10-18T13:35:06Z</time>
      </trkpt>
      <trkpt lat="43.2237" lon="5.48099">
        <ele>346.8</ele>
        <time>2025-10-18T13:35:07Z</time>
      </trkpt>
      <trkpt lat="43.22369" lon="5.48098">
        <ele>346.8</ele>
        <time>2025-10-18T13:35:08Z</time>
      </trkpt>
      <trkpt lat="43.22368" lon="5.48098">
        <ele>346.8</ele>
        <time>2025-10-18T13:35:09Z</time>
      </trkpt>
      <trkpt lat="43.22367" lon="5.48098">
        <ele>346.8</ele>
        <time>2025-10-18T13:35:10Z</time>
      </trkpt>
      <trkpt lat="43.22366" lon="5.48097">
        <ele>346.8</ele>
        <time>2025-10-18T13:35:11Z</time>
      </trkpt>
      <trkpt lat="43.22364" lon="5.48097">
        <ele>346.8</ele>
        <time>2025-10-18T13:35:12Z</time>
      </trkpt>
      <trkpt lat="43.22363" lon="5.48097">
        <ele>346.8</ele>
        <time>2025-10-18T13:35:13Z</time>
      </trkpt>
      <trkpt lat="43.22363" lon="5.48097">
        <ele>346.7</ele>
        <time>2025-10-18T13:35:14Z</time>
      </trkpt>
      <trkpt lat="43.22362" lon="5.48097">
        <ele>346.6</ele>
        <time>2025-10-18T13:35:15Z</time>
      </trkpt>
      <trkpt lat="43.22362" lon="5.48097">
        <ele>346.7</ele>
        <time>2025-10-18T13:35:16Z</time>
      </trkpt>
      <trkpt lat="43.22361" lon="5.48097">
        <ele>346.7</ele>
        <time>2025-10-18T13:35:17Z</time>
      </trkpt>
      <trkpt lat="43.22361" lon="5.48097">
        <ele>346.7</ele>
        <time>2025-10-18T13:35:18Z</time>
      </trkpt>
      <trkpt lat="43.22361" lon="5.48097">
        <ele>346.7</ele>
        <time>2025-10-18T13:35:19Z</time>
      </trkpt>
      <trkpt lat="43.22361" lon="5.48097">
        <ele>346.7</ele>
        <time>2025-10-18T13:35:20Z</time>
      </trkpt>
      <trkpt lat="43.22361" lon="5.48097">
        <ele>346.7</ele>
        <time>2025-10-18T13:35:21Z</time>
      </trkpt>
      <trkpt lat="43.2236" lon="5.48097">
        <ele>346.7</ele>
        <time>2025-10-18T13:35:22Z</time>
      </trkpt>
      <trkpt lat="43.2236" lon="5.48097">
        <ele>346.8</ele>
        <time>2025-10-18T13:35:23Z</time>
      </trkpt>
      <trkpt lat="43.22359" lon="5.48096">
        <ele>346.8</ele>
        <time>2025-10-18T13:35:24Z</time>
      </trkpt>
      <trkpt lat="43.22359" lon="5.48096">
        <ele>346.8</ele>
        <time>2025-10-18T13:35:25Z</time>
      </trkpt>
      <trkpt lat="43.22359" lon="5.48096">
        <ele>346.8</ele>
        <time>2025-10-18T13:35:26Z</time>
      </trkpt>
      <trkpt lat="43.2236" lon="5.48095">
        <ele>346.8</ele>
        <time>2025-10-18T13:35:27Z</time>
      </trkpt>
      <trkpt lat="43.2236" lon="5.48094">
        <ele>346.8</ele>
        <time>2025-10-18T13:35:28Z</time>
      </trkpt>
      <trkpt lat="43.22361" lon="5.48093">
        <ele>346.7</ele>
        <time>2025-10-18T13:35:29Z</time>
      </trkpt>
      <trkpt lat="43.22361" lon="5.48093">
        <ele>346.8</ele>
        <time>2025-10-18T13:35:30Z</time>
      </trkpt>
      <trkpt lat="43.22361" lon="5.48092">
        <ele>346.9</ele>
        <time>2025-10-18T13:35:31Z</time>
      </trkpt>
      <trkpt lat="43.22361" lon="5.48091">
        <ele>347</ele>
        <time>2025-10-18T13:35:32Z</time>
      </trkpt>
      <trkpt lat="43.2236" lon="5.48091">
        <ele>346.9</ele>
        <time>2025-10-18T13:35:33Z</time>
      </trkpt>
      <trkpt lat="43.2236" lon="5.4809">
        <ele>347</ele>
        <time>2025-10-18T13:35:34Z</time>
      </trkpt>
      <trkpt lat="43.22359" lon="5.48089">
        <ele>347</ele>
        <time>2025-10-18T13:35:35Z</time>
      </trkpt>
      <trkpt lat="43.22359" lon="5.48089">
        <ele>347</ele>
        <time>2025-10-18T13:35:36Z</time>
      </trkpt>
      <trkpt lat="43.22359" lon="5.48089">
        <ele>347</ele>
        <time>2025-10-18T13:35:37Z</time>
      </trkpt>
      <trkpt lat="43.22359" lon="5.48088">
        <ele>347</ele>
        <time>2025-10-18T13:35:38Z</time>
      </trkpt>
      <trkpt lat="43.22359" lon="5.48088">
        <ele>347.1</ele>
        <time>2025-10-18T13:35:39Z</time>
      </trkpt>
      <trkpt lat="43.22359" lon="5.48088">
        <ele>347.1</ele>
        <time>2025-10-18T13:35:40Z</time>
      </trkpt>
      <trkpt lat="43.2236" lon="5.48087">
        <ele>347.1</ele>
        <time>2025-10-18T13:35:41Z</time>
      </trkpt>
      <trkpt lat="43.22361" lon="5.48087">
        <ele>347.1</ele>
        <time>2025-10-18T13:35:42Z</time>
      </trkpt>
      <trkpt lat="43.22362" lon="5.48087">
        <ele>347.1</ele>
        <time>2025-10-18T13:35:43Z</time>
      </trkpt>
      <trkpt lat="43.22362" lon="5.48087">
        <ele>347.2</ele>
        <time>2025-10-18T13:35:44Z</time>
      </trkpt>
      <trkpt lat="43.22362" lon="5.48087">
        <ele>347.2</ele>
        <time>2025-10-18T13:35:45Z</time>
      </trkpt>
      <trkpt lat="43.22362" lon="5.48087">
        <ele>347.2</ele>
        <time>2025-10-18T13:35:46Z</time>
      </trkpt>
      <trkpt lat="43.22362" lon="5.48087">
        <ele>347.1</ele>
        <time>2025-10-18T13:35:47Z</time>
      </trkpt>
      <trkpt lat="43.22362" lon="5.48087">
        <ele>347.1</ele>
        <time>2025-10-18T13:35:48Z</time>
      </trkpt>
      <trkpt lat="43.22363" lon="5.48087">
        <ele>347.1</ele>
        <time>2025-10-18T13:35:49Z</time>
      </trkpt>
      <trkpt lat="43.22363" lon="5.48087">
        <ele>347.1</ele>
        <time>2025-10-18T13:35:50Z</time>
      </trkpt>
      <trkpt lat="43.22363" lon="5.48086">
        <ele>347.1</ele>
        <time>2025-10-18T13:35:51Z</time>
      </trkpt>
      <trkpt lat="43.22363" lon="5.48086">
        <ele>347.1</ele>
        <time>2025-10-18T13:35:52Z</time>
      </trkpt>
      <trkpt lat="43.22363" lon="5.48086">
        <ele>347.1</ele>
        <time>2025-10-18T13:35:53Z</time>
      </trkpt>
      <trkpt lat="43.22363" lon="5.48086">
        <ele>346.9</ele>
        <time>2025-10-18T13:35:54Z</time>
      </trkpt>
      <trkpt lat="43.22363" lon="5.48086">
        <ele>346.9</ele>
        <time>2025-10-18T13:35:55Z</time>
      </trkpt>
      <trkpt lat="43.22364" lon="5.48086">
        <ele>346.9</ele>
        <time>2025-10-18T13:35:56Z</time>
      </trkpt>
      <trkpt lat="43.22363" lon="5.48085">
        <ele>347</ele>
        <time>2025-10-18T13:35:57Z</time>
      </trkpt>
      <trkpt lat="43.22363" lon="5.48085">
        <ele>347</ele>
        <time>2025-10-18T13:35:58Z</time>
      </trkpt>
      <trkpt lat="43.22363" lon="5.48085">
        <ele>347</ele>
        <time>2025-10-18T13:35:59Z</time>
      </trkpt>
      <trkpt lat="43.22363" lon="5.48085">
        <ele>347</ele>
        <time>2025-10-18T13:36:00Z</time>
      </trkpt>
      <trkpt lat="43.22362" lon="5.48085">
        <ele>347</ele>
        <time>2025-10-18T13:36:01Z</time>
      </trkpt>
      <trkpt lat="43.22362" lon="5.48085">
        <ele>347</ele>
        <time>2025-10-18T13:36:02Z</time>
      </trkpt>
      <trkpt lat="43.22362" lon="5.48085">
        <ele>347</ele>
        <time>2025-10-18T13:36:03Z</time>
      </trkpt>
      <trkpt lat="43.22361" lon="5.48086">
        <ele>347</ele>
        <time>2025-10-18T13:36:04Z</time>
      </trkpt>
      <trkpt lat="43.22361" lon="5.48086">
        <ele>347</ele>
        <time>2025-10-18T13:36:05Z</time>
      </trkpt>
      <trkpt lat="43.2236" lon="5.48086">
        <ele>347</ele>
        <time>2025-10-18T13:36:06Z</time>
      </trkpt>
      <trkpt lat="43.2236" lon="5.48086">
        <ele>347</ele>
        <time>2025-10-18T13:36:07Z</time>
      </trkpt>
      <trkpt lat="43.22359" lon="5.48086">
        <ele>346.9</ele>
        <time>2025-10-18T13:36:08Z</time>
      </trkpt>
      <trkpt lat="43.22359" lon="5.48086">
        <ele>346.8</ele>
        <time>2025-10-18T13:36:09Z</time>
      </trkpt>
      <trkpt lat="43.22359" lon="5.48087">
        <ele>346.7</ele>
        <time>2025-10-18T13:36:10Z</time>
      </trkpt>
      <trkpt lat="43.22358" lon="5.48087">
        <ele>346.8</ele>
        <time>2025-10-18T13:36:11Z</time>
      </trkpt>
      <trkpt lat="43.22358" lon="5.48087">
        <ele>346.8</ele>
        <time>2025-10-18T13:36:12Z</time>
      </trkpt>
      <trkpt lat="43.22358" lon="5.48087">
        <ele>346.8</ele>
        <time>2025-10-18T13:36:13Z</time>
      </trkpt>
      <trkpt lat="43.22358" lon="5.48087">
        <ele>346.8</ele>
        <time>2025-10-18T13:36:14Z</time>
      </trkpt>
      <trkpt lat="43.22358" lon="5.48087">
        <ele>346.8</ele>
        <time>2025-10-18T13:36:15Z</time>
      </trkpt>
      <trkpt lat="43.22358" lon="5.48087">
        <ele>346.8</ele>
        <time>2025-10-18T13:36:16Z</time>
      </trkpt>
      <trkpt lat="43.22359" lon="5.48087">
        <ele>346.8</ele>
        <time>2025-10-18T13:36:17Z</time>
      </trkpt>
      <trkpt lat="43.22359" lon="5.48087">
        <ele>346.8</ele>
        <time>2025-10-18T13:36:18Z</time>
      </trkpt>
      <trkpt lat="43.22359" lon="5.48087">
        <ele>346.8</ele>
        <time>2025-10-18T13:36:19Z</time>
      </trkpt>
      <trkpt lat="43.2236" lon="5.48086">
        <ele>346.7</ele>
        <time>2025-10-18T13:36:20Z</time>
      </trkpt>
      <trkpt lat="43.2236" lon="5.48086">
        <ele>346.7</ele>
        <time>2025-10-18T13:36:21Z</time>
      </trkpt>
      <trkpt lat="43.2236" lon="5.48086">
        <ele>346.7</ele>
        <time>2025-10-18T13:36:22Z</time>
      </trkpt>
      <trkpt lat="43.2236" lon="5.48086">
        <ele>346.7</ele>
        <time>2025-10-18T13:36:23Z</time>
      </trkpt>
      <trkpt lat="43.22359" lon="5.48086">
        <ele>346.7</ele>
        <time>2025-10-18T13:36:24Z</time>
      </trkpt>
      <trkpt lat="43.22359" lon="5.48086">
        <ele>346.7</ele>
        <time>2025-10-18T13:36:25Z</time>
      </trkpt>
      <trkpt lat="43.22359" lon="5.48086">
        <ele>346.7</ele>
        <time>2025-10-18T13:36:26Z</time>
      </trkpt>
      <trkpt lat="43.22359" lon="5.48086">
        <ele>346.9</ele>
        <time>2025-10-18T13:36:27Z</time>
      </trkpt>
      <trkpt lat="43.22359" lon="5.48086">
        <ele>347</ele>
        <time>2025-10-18T13:36:28Z</time>
      </trkpt>
      <trkpt lat="43.22359" lon="5.48085">
        <ele>347</ele>
        <time>2025-10-18T13:36:29Z</time>
      </trkpt>
      <trkpt lat="43.22359" lon="5.48085">
        <ele>347</ele>
        <time>2025-10-18T13:36:30Z</time>
      </trkpt>
      <trkpt lat="43.22359" lon="5.48085">
        <ele>347</ele>
        <time>2025-10-18T13:36:31Z</time>
      </trkpt>
      <trkpt lat="43.22358" lon="5.48085">
        <ele>347</ele>
        <time>2025-10-18T13:36:32Z</time>
      </trkpt>
      <trkpt lat="43.22358" lon="5.48084">
        <ele>347</ele>
        <time>2025-10-18T13:36:33Z</time>
      </trkpt>
      <trkpt lat="43.22358" lon="5.48085">
        <ele>347.1</ele>
        <time>2025-10-18T13:36:34Z</time>
      </trkpt>
      <trkpt lat="43.22359" lon="5.48085">
        <ele>347.2</ele>
        <time>2025-10-18T13:36:35Z</time>
      </trkpt>
      <trkpt lat="43.22359" lon="5.48086">
        <ele>347.2</ele>
        <time>2025-10-18T13:36:36Z</time>
      </trkpt>
      <trkpt lat="43.2236" lon="5.48087">
        <ele>347.2</ele>
        <time>2025-10-18T13:36:37Z</time>
      </trkpt>
      <trkpt lat="43.2236" lon="5.48087">
        <ele>347.1</ele>
        <time>2025-10-18T13:36:38Z</time>
      </trkpt>
      <trkpt lat="43.2236" lon="5.48087">
        <ele>346.9</ele>
        <time>2025-10-18T13:36:39Z</time>
      </trkpt>
      <trkpt lat="43.2236" lon="5.48088">
        <ele>347</ele>
        <time>2025-10-18T13:36:40Z</time>
      </trkpt>
      <trkpt lat="43.2236" lon="5.48088">
        <ele>346.9</ele>
        <time>2025-10-18T13:36:41Z</time>
      </trkpt>
      <trkpt lat="43.2236" lon="5.48088">
        <ele>346.8</ele>
        <time>2025-10-18T13:36:42Z</time>
      </trkpt>
      <trkpt lat="43.22361" lon="5.48089">
        <ele>346.7</ele>
        <time>2025-10-18T13:36:43Z</time>
      </trkpt>
      <trkpt lat="43.22362" lon="5.4809">
        <ele>346.7</ele>
        <time>2025-10-18T13:36:44Z</time>
      </trkpt>
      <trkpt lat="43.22361" lon="5.48089">
        <ele>346.6</ele>
        <time>2025-10-18T13:36:45Z</time>
      </trkpt>
      <trkpt lat="43.22362" lon="5.48089">
        <ele>346.6</ele>
        <time>2025-10-18T13:36:46Z</time>
      </trkpt>
      <trkpt lat="43.22362" lon="5.48088">
        <ele>346.5</ele>
        <time>2025-10-18T13:36:47Z</time>
      </trkpt>
      <trkpt lat="43.22362" lon="5.48088">
        <ele>346.4</ele>
        <time>2025-10-18T13:36:48Z</time>
      </trkpt>
      <trkpt lat="43.22362" lon="5.48088">
        <ele>346.3</ele>
        <time>2025-10-18T13:36:49Z</time>
      </trkpt>
      <trkpt lat="43.22362" lon="5.48088">
        <ele>346.3</ele>
        <time>2025-10-18T13:36:50Z</time>
      </trkpt>
      <trkpt lat="43.22363" lon="5.48088">
        <ele>346.2</ele>
        <time>2025-10-18T13:36:51Z</time>
      </trkpt>
      <trkpt lat="43.22363" lon="5.48088">
        <ele>346.2</ele>
        <time>2025-10-18T13:36:52Z</time>
      </trkpt>
      <trkpt lat="43.22364" lon="5.48088">
        <ele>346.2</ele>
        <time>2025-10-18T13:36:53Z</time>
      </trkpt>
      <trkpt lat="43.22365" lon="5.48088">
        <ele>346.2</ele>
        <time>2025-10-18T13:36:54Z</time>
      </trkpt>
      <trkpt lat="43.22366" lon="5.48088">
        <ele>346.3</ele>
        <time>2025-10-18T13:36:55Z</time>
      </trkpt>
      <trkpt lat="43.22367" lon="5.48088">
        <ele>346.2</ele>
        <time>2025-10-18T13:36:56Z</time>
      </trkpt>
      <trkpt lat="43.22368" lon="5.48088">
        <ele>346.2</ele>
        <time>2025-10-18T13:36:57Z</time>
      </trkpt>
      <trkpt lat="43.22369" lon="5.48088">
        <ele>346.2</ele>
        <time>2025-10-18T13:36:58Z</time>
      </trkpt>
      <trkpt lat="43.22369" lon="5.48088">
        <ele>346.3</ele>
        <time>2025-10-18T13:36:59Z</time>
      </trkpt>
      <trkpt lat="43.2237" lon="5.48087">
        <ele>346.3</ele>
        <time>2025-10-18T13:37:00Z</time>
      </trkpt>
      <trkpt lat="43.2237" lon="5.48087">
        <ele>346.3</ele>
        <time>2025-10-18T13:37:01Z</time>
      </trkpt>
      <trkpt lat="43.2237" lon="5.48086">
        <ele>346.3</ele>
        <time>2025-10-18T13:37:02Z</time>
      </trkpt>
      <trkpt lat="43.22369" lon="5.48086">
        <ele>346.2</ele>
        <time>2025-10-18T13:37:03Z</time>
      </trkpt>
      <trkpt lat="43.22369" lon="5.48085">
        <ele>346.3</ele>
        <time>2025-10-18T13:37:04Z</time>
      </trkpt>
      <trkpt lat="43.22369" lon="5.48085">
        <ele>346.3</ele>
        <time>2025-10-18T13:37:05Z</time>
      </trkpt>
      <trkpt lat="43.22369" lon="5.48084">
        <ele>346.2</ele>
        <time>2025-10-18T13:37:06Z</time>
      </trkpt>
      <trkpt lat="43.2237" lon="5.48084">
        <ele>346.2</ele>
        <time>2025-10-18T13:37:07Z</time>
      </trkpt>
      <trkpt lat="43.2237" lon="5.48084">
        <ele>346.2</ele>
        <time>2025-10-18T13:37:08Z</time>
      </trkpt>
      <trkpt lat="43.2237" lon="5.48083">
        <ele>346.2</ele>
        <time>2025-10-18T13:37:09Z</time>
      </trkpt>
      <trkpt lat="43.2237" lon="5.48083">
        <ele>346.2</ele>
        <time>2025-10-18T13:37:10Z</time>
      </trkpt>
      <trkpt lat="43.22371" lon="5.48083">
        <ele>346.2</ele>
        <time>2025-10-18T13:37:11Z</time>
      </trkpt>
      <trkpt lat="43.22371" lon="5.48083">
        <ele>346.2</ele>
        <time>2025-10-18T13:37:12Z</time>
      </trkpt>
      <trkpt lat="43.22371" lon="5.48083">
        <ele>346.2</ele>
        <time>2025-10-18T13:37:13Z</time>
      </trkpt>
      <trkpt lat="43.22372" lon="5.48082">
        <ele>346.2</ele>
        <time>2025-10-18T13:37:14Z</time>
      </trkpt>
      <trkpt lat="43.22371" lon="5.48082">
        <ele>346.2</ele>
        <time>2025-10-18T13:37:15Z</time>
      </trkpt>
      <trkpt lat="43.22371" lon="5.48082">
        <ele>346.2</ele>
        <time>2025-10-18T13:37:16Z</time>
      </trkpt>
      <trkpt lat="43.22372" lon="5.48082">
        <ele>346.1</ele>
        <time>2025-10-18T13:37:17Z</time>
      </trkpt>
      <trkpt lat="43.22371" lon="5.48082">
        <ele>346.1</ele>
        <time>2025-10-18T13:37:18Z</time>
      </trkpt>
      <trkpt lat="43.22371" lon="5.48081">
        <ele>346</ele>
        <time>2025-10-18T13:37:19Z</time>
      </trkpt>
      <trkpt lat="43.22372" lon="5.48081">
        <ele>346</ele>
        <time>2025-10-18T13:37:20Z</time>
      </trkpt>
      <trkpt lat="43.22372" lon="5.48081">
        <ele>346</ele>
        <time>2025-10-18T13:37:21Z</time>
      </trkpt>
      <trkpt lat="43.22371" lon="5.48081">
        <ele>346</ele>
        <time>2025-10-18T13:37:22Z</time>
      </trkpt>
      <trkpt lat="43.22372" lon="5.48081">
        <ele>345.9</ele>
        <time>2025-10-18T13:37:23Z</time>
      </trkpt>
      <trkpt lat="43.22372" lon="5.48081">
        <ele>345.9</ele>
        <time>2025-10-18T13:37:24Z</time>
      </trkpt>
      <trkpt lat="43.22372" lon="5.48081">
        <ele>346</ele>
        <time>2025-10-18T13:37:25Z</time>
      </trkpt>
      <trkpt lat="43.22372" lon="5.48081">
        <ele>346</ele>
        <time>2025-10-18T13:37:26Z</time>
      </trkpt>
      <trkpt lat="43.22372" lon="5.48081">
        <ele>345.9</ele>
        <time>2025-10-18T13:37:27Z</time>
      </trkpt>
      <trkpt lat="43.22372" lon="5.48081">
        <ele>346</ele>
        <time>2025-10-18T13:37:28Z</time>
      </trkpt>
      <trkpt lat="43.22372" lon="5.48081">
        <ele>346.1</ele>
        <time>2025-10-18T13:37:29Z</time>
      </trkpt>
      <trkpt lat="43.22373" lon="5.48081">
        <ele>346.1</ele>
        <time>2025-10-18T13:37:30Z</time>
      </trkpt>
      <trkpt lat="43.22373" lon="5.48081">
        <ele>346.2</ele>
        <time>2025-10-18T13:37:31Z</time>
      </trkpt>
      <trkpt lat="43.22374" lon="5.48082">
        <ele>346.2</ele>
        <time>2025-10-18T13:37:32Z</time>
      </trkpt>
      <trkpt lat="43.22374" lon="5.48082">
        <ele>346.2</ele>
        <time>2025-10-18T13:37:33Z</time>
      </trkpt>
      <trkpt lat="43.22375" lon="5.48082">
        <ele>346.2</ele>
        <time>2025-10-18T13:37:34Z</time>
      </trkpt>
      <trkpt lat="43.22375" lon="5.48082">
        <ele>346.3</ele>
        <time>2025-10-18T13:37:35Z</time>
      </trkpt>
      <trkpt lat="43.22376" lon="5.48082">
        <ele>346.4</ele>
        <time>2025-10-18T13:37:36Z</time>
      </trkpt>
      <trkpt lat="43.22376" lon="5.48083">
        <ele>346.3</ele>
        <time>2025-10-18T13:37:37Z</time>
      </trkpt>
      <trkpt lat="43.22377" lon="5.48083">
        <ele>346.4</ele>
        <time>2025-10-18T13:37:38Z</time>
      </trkpt>
      <trkpt lat="43.22377" lon="5.48083">
        <ele>346.2</ele>
        <time>2025-10-18T13:37:39Z</time>
      </trkpt>
      <trkpt lat="43.22378" lon="5.48083">
        <ele>346.2</ele>
        <time>2025-10-18T13:37:40Z</time>
      </trkpt>
      <trkpt lat="43.22378" lon="5.48083">
        <ele>346.2</ele>
        <time>2025-10-18T13:37:41Z</time>
      </trkpt>
      <trkpt lat="43.22378" lon="5.48083">
        <ele>346.2</ele>
        <time>2025-10-18T13:37:42Z</time>
      </trkpt>
      <trkpt lat="43.22378" lon="5.48082">
        <ele>346.2</ele>
        <time>2025-10-18T13:37:43Z</time>
      </trkpt>
      <trkpt lat="43.22378" lon="5.48082">
        <ele>346.2</ele>
        <time>2025-10-18T13:37:44Z</time>
      </trkpt>
      <trkpt lat="43.22378" lon="5.48082">
        <ele>346.2</ele>
        <time>2025-10-18T13:37:45Z</time>
      </trkpt>
      <trkpt lat="43.22378" lon="5.48082">
        <ele>346.2</ele>
        <time>2025-10-18T13:37:46Z</time>
      </trkpt>
      <trkpt lat="43.22377" lon="5.48082">
        <ele>346.1</ele>
        <time>2025-10-18T13:37:47Z</time>
      </trkpt>
      <trkpt lat="43.22377" lon="5.48082">
        <ele>346.1</ele>
        <time>2025-10-18T13:37:48Z</time>
      </trkpt>
      <trkpt lat="43.22376" lon="5.48082">
        <ele>346.1</ele>
        <time>2025-10-18T13:37:49Z</time>
      </trkpt>
      <trkpt lat="43.22375" lon="5.48081">
        <ele>346.1</ele>
        <time>2025-10-18T13:37:50Z</time>
      </trkpt>
      <trkpt lat="43.22375" lon="5.48081">
        <ele>346.1</ele>
        <time>2025-10-18T13:37:51Z</time>
      </trkpt>
      <trkpt lat="43.22374" lon="5.48081">
        <ele>346</ele>
        <time>2025-10-18T13:37:52Z</time>
      </trkpt>
      <trkpt lat="43.22373" lon="5.48081">
        <ele>346.1</ele>
        <time>2025-10-18T13:37:53Z</time>
      </trkpt>
      <trkpt lat="43.22373" lon="5.48081">
        <ele>346.1</ele>
        <time>2025-10-18T13:37:54Z</time>
      </trkpt>
      <trkpt lat="43.22372" lon="5.48081">
        <ele>346.1</ele>
        <time>2025-10-18T13:37:55Z</time>
      </trkpt>
      <trkpt lat="43.22372" lon="5.4808">
        <ele>346.1</ele>
        <time>2025-10-18T13:37:56Z</time>
      </trkpt>
      <trkpt lat="43.22371" lon="5.4808">
        <ele>346.1</ele>
        <time>2025-10-18T13:37:57Z</time>
      </trkpt>
      <trkpt lat="43.22371" lon="5.4808">
        <ele>346.2</ele>
        <time>2025-10-18T13:37:58Z</time>
      </trkpt>
      <trkpt lat="43.22371" lon="5.4808">
        <ele>346.3</ele>
        <time>2025-10-18T13:37:59Z</time>
      </trkpt>
      <trkpt lat="43.2237" lon="5.4808">
        <ele>346.4</ele>
        <time>2025-10-18T13:38:00Z</time>
      </trkpt>
      <trkpt lat="43.2237" lon="5.4808">
        <ele>346.5</ele>
        <time>2025-10-18T13:38:01Z</time>
      </trkpt>
      <trkpt lat="43.2237" lon="5.4808">
        <ele>346.5</ele>
        <time>2025-10-18T13:38:02Z</time>
      </trkpt>
      <trkpt lat="43.22371" lon="5.4808">
        <ele>346.5</ele>
        <time>2025-10-18T13:38:03Z</time>
      </trkpt>
      <trkpt lat="43.22371" lon="5.4808">
        <ele>346.5</ele>
        <time>2025-10-18T13:38:04Z</time>
      </trkpt>
      <trkpt lat="43.22372" lon="5.4808">
        <ele>346.4</ele>
        <time>2025-10-18T13:38:05Z</time>
      </trkpt>
      <trkpt lat="43.22372" lon="5.48081">
        <ele>346.4</ele>
        <time>2025-10-18T13:38:06Z</time>
      </trkpt>
      <trkpt lat="43.22372" lon="5.48081">
        <ele>346.4</ele>
        <time>2025-10-18T13:38:07Z</time>
      </trkpt>
      <trkpt lat="43.22373" lon="5.48081">
        <ele>346.4</ele>
        <time>2025-10-18T13:38:08Z</time>
      </trkpt>
      <trkpt lat="43.22374" lon="5.48082">
        <ele>346.4</ele>
        <time>2025-10-18T13:38:09Z</time>
      </trkpt>
      <trkpt lat="43.22374" lon="5.48082">
        <ele>346.4</ele>
        <time>2025-10-18T13:38:10Z</time>
      </trkpt>
      <trkpt lat="43.22374" lon="5.48082">
        <ele>346.4</ele>
        <time>2025-10-18T13:38:11Z</time>
      </trkpt>
      <trkpt lat="43.22374" lon="5.48082">
        <ele>346.4</ele>
        <time>2025-10-18T13:38:12Z</time>
      </trkpt>
      <trkpt lat="43.22374" lon="5.48082">
        <ele>346.5</ele>
        <time>2025-10-18T13:38:13Z</time>
      </trkpt>
      <trkpt lat="43.22374" lon="5.48082">
        <ele>346.4</ele>
        <time>2025-10-18T13:38:14Z</time>
      </trkpt>
      <trkpt lat="43.22374" lon="5.48082">
        <ele>346.5</ele>
        <time>2025-10-18T13:38:15Z</time>
      </trkpt>
      <trkpt lat="43.22374" lon="5.48083">
        <ele>346.5</ele>
        <time>2025-10-18T13:38:16Z</time>
      </trkpt>
      <trkpt lat="43.22374" lon="5.48083">
        <ele>346.6</ele>
        <time>2025-10-18T13:38:17Z</time>
      </trkpt>
      <trkpt lat="43.22374" lon="5.48083">
        <ele>346.6</ele>
        <time>2025-10-18T13:38:18Z</time>
      </trkpt>
      <trkpt lat="43.22374" lon="5.48083">
        <ele>346.7</ele>
        <time>2025-10-18T13:38:19Z</time>
      </trkpt>
      <trkpt lat="43.22374" lon="5.48083">
        <ele>346.6</ele>
        <time>2025-10-18T13:38:20Z</time>
      </trkpt>
      <trkpt lat="43.22375" lon="5.48083">
        <ele>346.5</ele>
        <time>2025-10-18T13:38:21Z</time>
      </trkpt>
      <trkpt lat="43.22375" lon="5.48084">
        <ele>346.4</ele>
        <time>2025-10-18T13:38:22Z</time>
      </trkpt>
      <trkpt lat="43.22375" lon="5.48084">
        <ele>346.4</ele>
        <time>2025-10-18T13:38:23Z</time>
      </trkpt>
      <trkpt lat="43.22375" lon="5.48084">
        <ele>346.4</ele>
        <time>2025-10-18T13:38:24Z</time>
      </trkpt>
      <trkpt lat="43.22375" lon="5.48084">
        <ele>346.4</ele>
        <time>2025-10-18T13:38:25Z</time>
      </trkpt>
      <trkpt lat="43.22376" lon="5.48084">
        <ele>346.4</ele>
        <time>2025-10-18T13:38:26Z</time>
      </trkpt>
      <trkpt lat="43.22376" lon="5.48084">
        <ele>346.5</ele>
        <time>2025-10-18T13:38:27Z</time>
      </trkpt>
      <trkpt lat="43.22377" lon="5.48085">
        <ele>346.5</ele>
        <time>2025-10-18T13:38:28Z</time>
      </trkpt>
      <trkpt lat="43.22377" lon="5.48085">
        <ele>346.5</ele>
        <time>2025-10-18T13:38:29Z</time>
      </trkpt>
      <trkpt lat="43.22378" lon="5.48085">
        <ele>346.5</ele>
        <time>2025-10-18T13:38:30Z</time>
      </trkpt>
      <trkpt lat="43.22378" lon="5.48085">
        <ele>346.5</ele>
        <time>2025-10-18T13:38:31Z</time>
      </trkpt>
      <trkpt lat="43.22378" lon="5.48086">
        <ele>346.6</ele>
        <time>2025-10-18T13:38:32Z</time>
      </trkpt>
      <trkpt lat="43.22379" lon="5.48086">
        <ele>346.6</ele>
        <time>2025-10-18T13:38:33Z</time>
      </trkpt>
      <trkpt lat="43.22379" lon="5.48086">
        <ele>346.6</ele>
        <time>2025-10-18T13:38:34Z</time>
      </trkpt>
      <trkpt lat="43.22379" lon="5.48086">
        <ele>346.6</ele>
        <time>2025-10-18T13:38:35Z</time>
      </trkpt>
      <trkpt lat="43.22379" lon="5.48086">
        <ele>346.6</ele>
        <time>2025-10-18T13:38:36Z</time>
      </trkpt>
      <trkpt lat="43.22379" lon="5.48086">
        <ele>346.7</ele>
        <time>2025-10-18T13:38:37Z</time>
      </trkpt>
      <trkpt lat="43.22379" lon="5.48086">
        <ele>346.7</ele>
        <time>2025-10-18T13:38:38Z</time>
      </trkpt>
      <trkpt lat="43.22379" lon="5.48086">
        <ele>346.7</ele>
        <time>2025-10-18T13:38:39Z</time>
      </trkpt>
      <trkpt lat="43.2238" lon="5.48086">
        <ele>346.7</ele>
        <time>2025-10-18T13:38:40Z</time>
      </trkpt>
      <trkpt lat="43.2238" lon="5.48086">
        <ele>346.7</ele>
        <time>2025-10-18T13:38:41Z</time>
      </trkpt>
      <trkpt lat="43.2238" lon="5.48086">
        <ele>346.7</ele>
        <time>2025-10-18T13:38:42Z</time>
      </trkpt>
      <trkpt lat="43.2238" lon="5.48086">
        <ele>346.7</ele>
        <time>2025-10-18T13:38:43Z</time>
      </trkpt>
      <trkpt lat="43.2238" lon="5.48086">
        <ele>346.8</ele>
        <time>2025-10-18T13:38:44Z</time>
      </trkpt>
      <trkpt lat="43.2238" lon="5.48086">
        <ele>346.7</ele>
        <time>2025-10-18T13:38:45Z</time>
      </trkpt>
      <trkpt lat="43.2238" lon="5.48086">
        <ele>346.7</ele>
        <time>2025-10-18T13:38:46Z</time>
      </trkpt>
      <trkpt lat="43.2238" lon="5.48086">
        <ele>346.6</ele>
        <time>2025-10-18T13:38:47Z</time>
      </trkpt>
      <trkpt lat="43.2238" lon="5.48086">
        <ele>346.6</ele>
        <time>2025-10-18T13:38:48Z</time>
      </trkpt>
      <trkpt lat="43.22381" lon="5.48086">
        <ele>346.6</ele>
        <time>2025-10-18T13:38:49Z</time>
      </trkpt>
      <trkpt lat="43.22381" lon="5.48086">
        <ele>346.6</ele>
        <time>2025-10-18T13:38:50Z</time>
      </trkpt>
      <trkpt lat="43.2238" lon="5.48086">
        <ele>346.5</ele>
        <time>2025-10-18T13:38:51Z</time>
      </trkpt>
      <trkpt lat="43.2238" lon="5.48086">
        <ele>346.6</ele>
        <time>2025-10-18T13:38:52Z</time>
      </trkpt>
      <trkpt lat="43.22379" lon="5.48085">
        <ele>346.7</ele>
        <time>2025-10-18T13:38:53Z</time>
      </trkpt>
      <trkpt lat="43.22379" lon="5.48085">
        <ele>346.6</ele>
        <time>2025-10-18T13:38:54Z</time>
      </trkpt>
      <trkpt lat="43.22379" lon="5.48085">
        <ele>346.6</ele>
        <time>2025-10-18T13:38:55Z</time>
      </trkpt>
      <trkpt lat="43.22378" lon="5.48085">
        <ele>346.6</ele>
        <time>2025-10-18T13:38:56Z</time>
      </trkpt>
      <trkpt lat="43.22378" lon="5.48084">
        <ele>346.6</ele>
        <time>2025-10-18T13:38:57Z</time>
      </trkpt>
      <trkpt lat="43.22377" lon="5.48084">
        <ele>346.6</ele>
        <time>2025-10-18T13:38:58Z</time>
      </trkpt>
      <trkpt lat="43.22377" lon="5.48084">
        <ele>346.6</ele>
        <time>2025-10-18T13:38:59Z</time>
      </trkpt>
      <trkpt lat="43.22377" lon="5.48084">
        <ele>346.6</ele>
        <time>2025-10-18T13:39:00Z</time>
      </trkpt>
      <trkpt lat="43.22377" lon="5.48084">
        <ele>346.6</ele>
        <time>2025-10-18T13:39:01Z</time>
      </trkpt>
      <trkpt lat="43.22377" lon="5.48084">
        <ele>346.6</ele>
        <time>2025-10-18T13:39:02Z</time>
      </trkpt>
      <trkpt lat="43.22377" lon="5.48084">
        <ele>346.6</ele>
        <time>2025-10-18T13:39:03Z</time>
      </trkpt>
      <trkpt lat="43.22377" lon="5.48084">
        <ele>346.6</ele>
        <time>2025-10-18T13:39:04Z</time>
      </trkpt>
      <trkpt lat="43.22378" lon="5.48084">
        <ele>346.5</ele>
        <time>2025-10-18T13:39:05Z</time>
      </trkpt>
      <trkpt lat="43.22378" lon="5.48084">
        <ele>346.4</ele>
        <time>2025-10-18T13:39:06Z</time>
      </trkpt>
      <trkpt lat="43.22378" lon="5.48084">
        <ele>346.4</ele>
        <time>2025-10-18T13:39:07Z</time>
      </trkpt>
      <trkpt lat="43.22378" lon="5.48084">
        <ele>346.3</ele>
        <time>2025-10-18T13:39:08Z</time>
      </trkpt>
      <trkpt lat="43.22379" lon="5.48084">
        <ele>346.3</ele>
        <time>2025-10-18T13:39:09Z</time>
      </trkpt>
      <trkpt lat="43.22379" lon="5.48083">
        <ele>346.4</ele>
        <time>2025-10-18T13:39:10Z</time>
      </trkpt>
      <trkpt lat="43.22379" lon="5.48083">
        <ele>346.4</ele>
        <time>2025-10-18T13:39:11Z</time>
      </trkpt>
      <trkpt lat="43.22379" lon="5.48083">
        <ele>346.5</ele>
        <time>2025-10-18T13:39:12Z</time>
      </trkpt>
      <trkpt lat="43.22379" lon="5.48084">
        <ele>346.6</ele>
        <time>2025-10-18T13:39:13Z</time>
      </trkpt>
      <trkpt lat="43.22379" lon="5.48084">
        <ele>346.6</ele>
        <time>2025-10-18T13:39:14Z</time>
      </trkpt>
      <trkpt lat="43.22378" lon="5.48084">
        <ele>346.7</ele>
        <time>2025-10-18T13:39:15Z</time>
      </trkpt>
      <trkpt lat="43.22378" lon="5.48084">
        <ele>346.7</ele>
        <time>2025-10-18T13:39:16Z</time>
      </trkpt>
      <trkpt lat="43.22378" lon="5.48084">
        <ele>346.7</ele>
        <time>2025-10-18T13:39:17Z</time>
      </trkpt>
      <trkpt lat="43.22378" lon="5.48084">
        <ele>346.7</ele>
        <time>2025-10-18T13:39:18Z</time>
      </trkpt>
      <trkpt lat="43.22378" lon="5.48084">
        <ele>346.7</ele>
        <time>2025-10-18T13:39:19Z</time>
      </trkpt>
      <trkpt lat="43.22377" lon="5.48084">
        <ele>346.7</ele>
        <time>2025-10-18T13:39:20Z</time>
      </trkpt>
      <trkpt lat="43.22377" lon="5.48084">
        <ele>346.7</ele>
        <time>2025-10-18T13:39:21Z</time>
      </trkpt>
      <trkpt lat="43.22377" lon="5.48084">
        <ele>346.7</ele>
        <time>2025-10-18T13:39:22Z</time>
      </trkpt>
      <trkpt lat="43.22376" lon="5.48084">
        <ele>346.7</ele>
        <time>2025-10-18T13:39:23Z</time>
      </trkpt>
      <trkpt lat="43.22376" lon="5.48084">
        <ele>346.7</ele>
        <time>2025-10-18T13:39:24Z</time>
      </trkpt>
      <trkpt lat="43.22376" lon="5.48084">
        <ele>346.7</ele>
        <time>2025-10-18T13:39:25Z</time>
      </trkpt>
      <trkpt lat="43.22375" lon="5.48084">
        <ele>346.8</ele>
        <time>2025-10-18T13:39:26Z</time>
      </trkpt>
      <trkpt lat="43.22375" lon="5.48084">
        <ele>346.8</ele>
        <time>2025-10-18T13:39:27Z</time>
      </trkpt>
      <trkpt lat="43.22375" lon="5.48084">
        <ele>346.9</ele>
        <time>2025-10-18T13:39:28Z</time>
      </trkpt>
      <trkpt lat="43.22374" lon="5.48084">
        <ele>346.8</ele>
        <time>2025-10-18T13:39:29Z</time>
      </trkpt>
      <trkpt lat="43.22374" lon="5.48084">
        <ele>346.8</ele>
        <time>2025-10-18T13:39:30Z</time>
      </trkpt>
      <trkpt lat="43.22374" lon="5.48084">
        <ele>346.8</ele>
        <time>2025-10-18T13:39:31Z</time>
      </trkpt>
      <trkpt lat="43.22373" lon="5.48084">
        <ele>346.8</ele>
        <time>2025-10-18T13:39:32Z</time>
      </trkpt>
      <trkpt lat="43.22373" lon="5.48084">
        <ele>346.9</ele>
        <time>2025-10-18T13:39:33Z</time>
      </trkpt>
      <trkpt lat="43.22374" lon="5.48084">
        <ele>346.9</ele>
        <time>2025-10-18T13:39:34Z</time>
      </trkpt>
      <trkpt lat="43.22374" lon="5.48084">
        <ele>346.9</ele>
        <time>2025-10-18T13:39:35Z</time>
      </trkpt>
      <trkpt lat="43.22374" lon="5.48084">
        <ele>346.9</ele>
        <time>2025-10-18T13:39:36Z</time>
      </trkpt>
      <trkpt lat="43.22375" lon="5.48083">
        <ele>346.9</ele>
        <time>2025-10-18T13:39:37Z</time>
      </trkpt>
      <trkpt lat="43.22374" lon="5.48083">
        <ele>346.8</ele>
        <time>2025-10-18T13:39:38Z</time>
      </trkpt>
      <trkpt lat="43.22374" lon="5.48083">
        <ele>346.7</ele>
        <time>2025-10-18T13:39:39Z</time>
      </trkpt>
      <trkpt lat="43.22374" lon="5.48083">
        <ele>346.7</ele>
        <time>2025-10-18T13:39:40Z</time>
      </trkpt>
      <trkpt lat="43.22374" lon="5.48083">
        <ele>346.6</ele>
        <time>2025-10-18T13:39:41Z</time>
      </trkpt>
      <trkpt lat="43.22374" lon="5.48082">
        <ele>346.6</ele>
        <time>2025-10-18T13:39:42Z</time>
      </trkpt>
      <trkpt lat="43.22374" lon="5.48082">
        <ele>346.6</ele>
        <time>2025-10-18T13:39:43Z</time>
      </trkpt>
      <trkpt lat="43.22374" lon="5.48082">
        <ele>346.5</ele>
        <time>2025-10-18T13:39:44Z</time>
      </trkpt>
      <trkpt lat="43.22373" lon="5.48082">
        <ele>346.5</ele>
        <time>2025-10-18T13:39:45Z</time>
      </trkpt>
      <trkpt lat="43.22373" lon="5.48082">
        <ele>346.6</ele>
        <time>2025-10-18T13:39:46Z</time>
      </trkpt>
      <trkpt lat="43.22373" lon="5.48081">
        <ele>346.6</ele>
        <time>2025-10-18T13:39:47Z</time>
      </trkpt>
      <trkpt lat="43.22373" lon="5.48081">
        <ele>346.6</ele>
        <time>2025-10-18T13:39:48Z</time>
      </trkpt>
      <trkpt lat="43.22373" lon="5.48081">
        <ele>346.6</ele>
        <time>2025-10-18T13:39:49Z</time>
      </trkpt>
      <trkpt lat="43.22373" lon="5.48081">
        <ele>346.5</ele>
        <time>2025-10-18T13:39:50Z</time>
      </trkpt>
      <trkpt lat="43.22374" lon="5.48081">
        <ele>346.5</ele>
        <time>2025-10-18T13:39:51Z</time>
      </trkpt>
      <trkpt lat="43.22374" lon="5.48081">
        <ele>346.5</ele>
        <time>2025-10-18T13:39:52Z</time>
      </trkpt>
      <trkpt lat="43.22374" lon="5.48081">
        <ele>346.5</ele>
        <time>2025-10-18T13:39:53Z</time>
      </trkpt>
      <trkpt lat="43.22374" lon="5.48081">
        <ele>346.5</ele>
        <time>2025-10-18T13:39:54Z</time>
      </trkpt>
      <trkpt lat="43.22375" lon="5.48081">
        <ele>346.5</ele>
        <time>2025-10-18T13:39:55Z</time>
      </trkpt>
      <trkpt lat="43.22375" lon="5.48081">
        <ele>346.5</ele>
        <time>2025-10-18T13:39:56Z</time>
      </trkpt>
      <trkpt lat="43.22376" lon="5.48081">
        <ele>346.5</ele>
        <time>2025-10-18T13:39:57Z</time>
      </trkpt>
      <trkpt lat="43.22376" lon="5.48081">
        <ele>346.5</ele>
        <time>2025-10-18T13:39:58Z</time>
      </trkpt>
      <trkpt lat="43.22377" lon="5.48082">
        <ele>346.5</ele>
        <time>2025-10-18T13:39:59Z</time>
      </trkpt>
      <trkpt lat="43.22377" lon="5.48082">
        <ele>346.6</ele>
        <time>2025-10-18T13:40:00Z</time>
      </trkpt>
      <trkpt lat="43.22378" lon="5.48082">
        <ele>346.6</ele>
        <time>2025-10-18T13:40:01Z</time>
      </trkpt>
      <trkpt lat="43.22378" lon="5.48082">
        <ele>346.6</ele>
        <time>2025-10-18T13:40:02Z</time>
      </trkpt>
      <trkpt lat="43.22378" lon="5.48082">
        <ele>346.6</ele>
        <time>2025-10-18T13:40:03Z</time>
      </trkpt>
      <trkpt lat="43.22379" lon="5.48082">
        <ele>346.6</ele>
        <time>2025-10-18T13:40:04Z</time>
      </trkpt>
      <trkpt lat="43.22379" lon="5.48082">
        <ele>346.5</ele>
        <time>2025-10-18T13:40:05Z</time>
      </trkpt>
      <trkpt lat="43.2238" lon="5.48082">
        <ele>346.5</ele>
        <time>2025-10-18T13:40:06Z</time>
      </trkpt>
      <trkpt lat="43.2238" lon="5.48082">
        <ele>346.5</ele>
        <time>2025-10-18T13:40:07Z</time>
      </trkpt>
      <trkpt lat="43.22381" lon="5.48082">
        <ele>346.5</ele>
        <time>2025-10-18T13:40:08Z</time>
      </trkpt>
      <trkpt lat="43.22381" lon="5.48082">
        <ele>346.5</ele>
        <time>2025-10-18T13:40:09Z</time>
      </trkpt>
      <trkpt lat="43.22381" lon="5.48082">
        <ele>346.5</ele>
        <time>2025-10-18T13:40:10Z</time>
      </trkpt>
      <trkpt lat="43.22382" lon="5.48082">
        <ele>346.5</ele>
        <time>2025-10-18T13:40:11Z</time>
      </trkpt>
      <trkpt lat="43.22382" lon="5.48082">
        <ele>346.6</ele>
        <time>2025-10-18T13:40:12Z</time>
      </trkpt>
      <trkpt lat="43.22382" lon="5.48082">
        <ele>346.6</ele>
        <time>2025-10-18T13:40:13Z</time>
      </trkpt>
      <trkpt lat="43.22382" lon="5.48083">
        <ele>346.7</ele>
        <time>2025-10-18T13:40:14Z</time>
      </trkpt>
      <trkpt lat="43.22381" lon="5.48083">
        <ele>346.7</ele>
        <time>2025-10-18T13:40:15Z</time>
      </trkpt>
      <trkpt lat="43.2238" lon="5.48083">
        <ele>346.8</ele>
        <time>2025-10-18T13:40:16Z</time>
      </trkpt>
      <trkpt lat="43.2238" lon="5.48083">
        <ele>346.8</ele>
        <time>2025-10-18T13:40:17Z</time>
      </trkpt>
      <trkpt lat="43.2238" lon="5.48083">
        <ele>346.8</ele>
        <time>2025-10-18T13:40:18Z</time>
      </trkpt>
      <trkpt lat="43.22379" lon="5.48083">
        <ele>346.8</ele>
        <time>2025-10-18T13:40:19Z</time>
      </trkpt>
      <trkpt lat="43.22379" lon="5.48083">
        <ele>346.9</ele>
        <time>2025-10-18T13:40:20Z</time>
      </trkpt>
      <trkpt lat="43.22379" lon="5.48083">
        <ele>346.8</ele>
        <time>2025-10-18T13:40:21Z</time>
      </trkpt>
      <trkpt lat="43.22379" lon="5.48083">
        <ele>346.8</ele>
        <time>2025-10-18T13:40:22Z</time>
      </trkpt>
      <trkpt lat="43.22378" lon="5.48083">
        <ele>346.7</ele>
        <time>2025-10-18T13:40:23Z</time>
      </trkpt>
      <trkpt lat="43.22378" lon="5.48084">
        <ele>346.6</ele>
        <time>2025-10-18T13:40:24Z</time>
      </trkpt>
      <trkpt lat="43.22378" lon="5.48084">
        <ele>346.6</ele>
        <time>2025-10-18T13:40:25Z</time>
      </trkpt>
      <trkpt lat="43.22378" lon="5.48084">
        <ele>346.6</ele>
        <time>2025-10-18T13:40:26Z</time>
      </trkpt>
      <trkpt lat="43.22378" lon="5.48084">
        <ele>346.6</ele>
        <time>2025-10-18T13:40:27Z</time>
      </trkpt>
      <trkpt lat="43.22379" lon="5.48084">
        <ele>346.6</ele>
        <time>2025-10-18T13:40:28Z</time>
      </trkpt>
      <trkpt lat="43.22378" lon="5.48085">
        <ele>346.6</ele>
        <time>2025-10-18T13:40:29Z</time>
      </trkpt>
      <trkpt lat="43.22378" lon="5.48085">
        <ele>346.6</ele>
        <time>2025-10-18T13:40:30Z</time>
      </trkpt>
      <trkpt lat="43.22378" lon="5.48085">
        <ele>346.6</ele>
        <time>2025-10-18T13:40:31Z</time>
      </trkpt>
      <trkpt lat="43.22378" lon="5.48085">
        <ele>346.6</ele>
        <time>2025-10-18T13:40:32Z</time>
      </trkpt>
      <trkpt lat="43.22378" lon="5.48085">
        <ele>346.6</ele>
        <time>2025-10-18T13:40:33Z</time>
      </trkpt>
      <trkpt lat="43.22378" lon="5.48085">
        <ele>346.6</ele>
        <time>2025-10-18T13:40:34Z</time>
      </trkpt>
      <trkpt lat="43.22378" lon="5.48085">
        <ele>346.6</ele>
        <time>2025-10-18T13:40:35Z</time>
      </trkpt>
      <trkpt lat="43.22378" lon="5.48086">
        <ele>346.6</ele>
        <time>2025-10-18T13:40:36Z</time>
      </trkpt>
      <trkpt lat="43.22378" lon="5.48085">
        <ele>346.6</ele>
        <time>2025-10-18T13:40:37Z</time>
      </trkpt>
      <trkpt lat="43.22378" lon="5.48085">
        <ele>346.6</ele>
        <time>2025-10-18T13:40:38Z</time>
      </trkpt>
      <trkpt lat="43.22378" lon="5.48085">
        <ele>346.7</ele>
        <time>2025-10-18T13:40:39Z</time>
      </trkpt>
      <trkpt lat="43.22377" lon="5.48085">
        <ele>346.7</ele>
        <time>2025-10-18T13:40:40Z</time>
      </trkpt>
      <trkpt lat="43.22377" lon="5.48085">
        <ele>346.8</ele>
        <time>2025-10-18T13:40:41Z</time>
      </trkpt>
      <trkpt lat="43.22377" lon="5.48085">
        <ele>346.8</ele>
        <time>2025-10-18T13:40:42Z</time>
      </trkpt>
      <trkpt lat="43.22377" lon="5.48084">
        <ele>346.8</ele>
        <time>2025-10-18T13:40:43Z</time>
      </trkpt>
      <trkpt lat="43.22376" lon="5.48084">
        <ele>346.8</ele>
        <time>2025-10-18T13:40:44Z</time>
      </trkpt>
      <trkpt lat="43.22376" lon="5.48084">
        <ele>346.8</ele>
        <time>2025-10-18T13:40:45Z</time>
      </trkpt>
      <trkpt lat="43.22375" lon="5.48084">
        <ele>346.8</ele>
        <time>2025-10-18T13:40:46Z</time>
      </trkpt>
      <trkpt lat="43.22375" lon="5.48083">
        <ele>346.9</ele>
        <time>2025-10-18T13:40:47Z</time>
      </trkpt>
      <trkpt lat="43.22375" lon="5.48083">
        <ele>346.9</ele>
        <time>2025-10-18T13:40:48Z</time>
      </trkpt>
      <trkpt lat="43.22373" lon="5.48083">
        <ele>346.9</ele>
        <time>2025-10-18T13:40:49Z</time>
      </trkpt>
      <trkpt lat="43.22373" lon="5.48082">
        <ele>346.9</ele>
        <time>2025-10-18T13:40:50Z</time>
      </trkpt>
      <trkpt lat="43.22372" lon="5.48082">
        <ele>346.9</ele>
        <time>2025-10-18T13:40:51Z</time>
      </trkpt>
      <trkpt lat="43.22372" lon="5.48082">
        <ele>346.8</ele>
        <time>2025-10-18T13:40:52Z</time>
      </trkpt>
      <trkpt lat="43.22372" lon="5.48082">
        <ele>346.9</ele>
        <time>2025-10-18T13:40:53Z</time>
      </trkpt>
      <trkpt lat="43.22372" lon="5.48083">
        <ele>346.8</ele>
        <time>2025-10-18T13:40:54Z</time>
      </trkpt>
      <trkpt lat="43.22371" lon="5.48083">
        <ele>346.7</ele>
        <time>2025-10-18T13:40:55Z</time>
      </trkpt>
      <trkpt lat="43.22371" lon="5.48083">
        <ele>346.6</ele>
        <time>2025-10-18T13:40:56Z</time>
      </trkpt>
      <trkpt lat="43.2237" lon="5.48083">
        <ele>346.6</ele>
        <time>2025-10-18T13:40:57Z</time>
      </trkpt>
      <trkpt lat="43.2237" lon="5.48083">
        <ele>346.6</ele>
        <time>2025-10-18T13:40:58Z</time>
      </trkpt>
      <trkpt lat="43.22369" lon="5.48084">
        <ele>346.6</ele>
        <time>2025-10-18T13:40:59Z</time>
      </trkpt>
      <trkpt lat="43.22369" lon="5.48084">
        <ele>346.6</ele>
        <time>2025-10-18T13:41:00Z</time>
      </trkpt>
      <trkpt lat="43.22368" lon="5.48084">
        <ele>346.7</ele>
        <time>2025-10-18T13:41:01Z</time>
      </trkpt>
      <trkpt lat="43.22367" lon="5.48084">
        <ele>346.7</ele>
        <time>2025-10-18T13:41:02Z</time>
      </trkpt>
      <trkpt lat="43.22366" lon="5.48084">
        <ele>346.6</ele>
        <time>2025-10-18T13:41:03Z</time>
      </trkpt>
      <trkpt lat="43.22366" lon="5.48084">
        <ele>346.6</ele>
        <time>2025-10-18T13:41:04Z</time>
      </trkpt>
      <trkpt lat="43.22365" lon="5.48084">
        <ele>346.6</ele>
        <time>2025-10-18T13:41:05Z</time>
      </trkpt>
      <trkpt lat="43.22364" lon="5.48084">
        <ele>346.5</ele>
        <time>2025-10-18T13:41:06Z</time>
      </trkpt>
      <trkpt lat="43.22363" lon="5.48084">
        <ele>346.5</ele>
        <time>2025-10-18T13:41:07Z</time>
      </trkpt>
      <trkpt lat="43.22363" lon="5.48084">
        <ele>346.6</ele>
        <time>2025-10-18T13:41:08Z</time>
      </trkpt>
      <trkpt lat="43.22362" lon="5.48084">
        <ele>346.7</ele>
        <time>2025-10-18T13:41:09Z</time>
      </trkpt>
      <trkpt lat="43.22362" lon="5.48084">
        <ele>346.8</ele>
        <time>2025-10-18T13:41:10Z</time>
      </trkpt>
      <trkpt lat="43.22361" lon="5.48084">
        <ele>346.8</ele>
        <time>2025-10-18T13:41:11Z</time>
      </trkpt>
      <trkpt lat="43.2236" lon="5.48084">
        <ele>346.8</ele>
        <time>2025-10-18T13:41:12Z</time>
      </trkpt>
      <trkpt lat="43.22359" lon="5.48084">
        <ele>346.8</ele>
        <time>2025-10-18T13:41:13Z</time>
      </trkpt>
      <trkpt lat="43.22359" lon="5.48084">
        <ele>346.9</ele>
        <time>2025-10-18T13:41:14Z</time>
      </trkpt>
      <trkpt lat="43.22358" lon="5.48084">
        <ele>346.9</ele>
        <time>2025-10-18T13:41:15Z</time>
      </trkpt>
      <trkpt lat="43.22357" lon="5.48084">
        <ele>346.9</ele>
        <time>2025-10-18T13:41:16Z</time>
      </trkpt>
      <trkpt lat="43.22357" lon="5.48084">
        <ele>346.9</ele>
        <time>2025-10-18T13:41:17Z</time>
      </trkpt>
      <trkpt lat="43.22357" lon="5.48083">
        <ele>346.9</ele>
        <time>2025-10-18T13:41:18Z</time>
      </trkpt>
      <trkpt lat="43.22356" lon="5.48083">
        <ele>346.9</ele>
        <time>2025-10-18T13:41:19Z</time>
      </trkpt>
      <trkpt lat="43.22356" lon="5.48083">
        <ele>346.9</ele>
        <time>2025-10-18T13:41:20Z</time>
      </trkpt>
      <trkpt lat="43.22356" lon="5.48083">
        <ele>346.8</ele>
        <time>2025-10-18T13:41:21Z</time>
      </trkpt>
      <trkpt lat="43.22356" lon="5.48083">
        <ele>346.7</ele>
        <time>2025-10-18T13:41:22Z</time>
      </trkpt>
      <trkpt lat="43.22355" lon="5.48083">
        <ele>346.6</ele>
        <time>2025-10-18T13:41:23Z</time>
      </trkpt>
      <trkpt lat="43.22356" lon="5.48083">
        <ele>346.6</ele>
        <time>2025-10-18T13:41:24Z</time>
      </trkpt>
      <trkpt lat="43.22355" lon="5.48083">
        <ele>346.6</ele>
        <time>2025-10-18T13:41:25Z</time>
      </trkpt>
      <trkpt lat="43.22355" lon="5.48083">
        <ele>346.6</ele>
        <time>2025-10-18T13:41:26Z</time>
      </trkpt>
      <trkpt lat="43.22355" lon="5.48083">
        <ele>346.6</ele>
        <time>2025-10-18T13:41:27Z</time>
      </trkpt>
      <trkpt lat="43.22355" lon="5.48083">
        <ele>346.6</ele>
        <time>2025-10-18T13:41:28Z</time>
      </trkpt>
      <trkpt lat="43.22354" lon="5.48083">
        <ele>346.6</ele>
        <time>2025-10-18T13:41:29Z</time>
      </trkpt>
      <trkpt lat="43.22354" lon="5.48084">
        <ele>346.7</ele>
        <time>2025-10-18T13:41:30Z</time>
      </trkpt>
      <trkpt lat="43.22354" lon="5.48084">
        <ele>346.6</ele>
        <time>2025-10-18T13:41:31Z</time>
      </trkpt>
      <trkpt lat="43.22354" lon="5.48084">
        <ele>346.6</ele>
        <time>2025-10-18T13:41:32Z</time>
      </trkpt>
      <trkpt lat="43.22353" lon="5.48084">
        <ele>346.6</ele>
        <time>2025-10-18T13:41:33Z</time>
      </trkpt>
      <trkpt lat="43.22353" lon="5.48084">
        <ele>346.7</ele>
        <time>2025-10-18T13:41:34Z</time>
      </trkpt>
      <trkpt lat="43.22353" lon="5.48084">
        <ele>346.8</ele>
        <time>2025-10-18T13:41:35Z</time>
      </trkpt>
      <trkpt lat="43.22352" lon="5.48084">
        <ele>346.9</ele>
        <time>2025-10-18T13:41:36Z</time>
      </trkpt>
      <trkpt lat="43.22352" lon="5.48084">
        <ele>346.8</ele>
        <time>2025-10-18T13:41:37Z</time>
      </trkpt>
      <trkpt lat="43.22352" lon="5.48085">
        <ele>346.9</ele>
        <time>2025-10-18T13:41:38Z</time>
      </trkpt>
      <trkpt lat="43.22353" lon="5.48085">
        <ele>346.9</ele>
        <time>2025-10-18T13:41:39Z</time>
      </trkpt>
      <trkpt lat="43.22352" lon="5.48085">
        <ele>346.9</ele>
        <time>2025-10-18T13:41:40Z</time>
      </trkpt>
      <trkpt lat="43.22352" lon="5.48085">
        <ele>346.9</ele>
        <time>2025-10-18T13:41:41Z</time>
      </trkpt>
      <trkpt lat="43.22352" lon="5.48084">
        <ele>346.9</ele>
        <time>2025-10-18T13:41:42Z</time>
      </trkpt>
      <trkpt lat="43.22351" lon="5.48084">
        <ele>346.9</ele>
        <time>2025-10-18T13:41:43Z</time>
      </trkpt>
      <trkpt lat="43.22351" lon="5.48084">
        <ele>346.9</ele>
        <time>2025-10-18T13:41:44Z</time>
      </trkpt>
      <trkpt lat="43.22351" lon="5.48084">
        <ele>346.9</ele>
        <time>2025-10-18T13:41:45Z</time>
      </trkpt>
      <trkpt lat="43.2235" lon="5.48084">
        <ele>347</ele>
        <time>2025-10-18T13:41:46Z</time>
      </trkpt>
      <trkpt lat="43.2235" lon="5.48084">
        <ele>347.1</ele>
        <time>2025-10-18T13:41:47Z</time>
      </trkpt>
      <trkpt lat="43.22349" lon="5.48084">
        <ele>347.2</ele>
        <time>2025-10-18T13:41:48Z</time>
      </trkpt>
      <trkpt lat="43.22349" lon="5.48083">
        <ele>347.2</ele>
        <time>2025-10-18T13:41:49Z</time>
      </trkpt>
      <trkpt lat="43.22349" lon="5.48084">
        <ele>347.2</ele>
        <time>2025-10-18T13:41:50Z</time>
      </trkpt>
      <trkpt lat="43.22348" lon="5.48084">
        <ele>347.2</ele>
        <time>2025-10-18T13:41:51Z</time>
      </trkpt>
      <trkpt lat="43.22348" lon="5.48084">
        <ele>347.1</ele>
        <time>2025-10-18T13:41:52Z</time>
      </trkpt>
      <trkpt lat="43.22348" lon="5.48083">
        <ele>347</ele>
        <time>2025-10-18T13:41:53Z</time>
      </trkpt>
      <trkpt lat="43.22347" lon="5.48083">
        <ele>347</ele>
        <time>2025-10-18T13:41:54Z</time>
      </trkpt>
      <trkpt lat="43.22347" lon="5.48083">
        <ele>346.9</ele>
        <time>2025-10-18T13:41:55Z</time>
      </trkpt>
      <trkpt lat="43.22347" lon="5.48083">
        <ele>346.9</ele>
        <time>2025-10-18T13:41:56Z</time>
      </trkpt>
      <trkpt lat="43.22347" lon="5.48083">
        <ele>346.9</ele>
        <time>2025-10-18T13:41:57Z</time>
      </trkpt>
      <trkpt lat="43.22347" lon="5.48083">
        <ele>346.8</ele>
        <time>2025-10-18T13:41:58Z</time>
      </trkpt>
      <trkpt lat="43.22347" lon="5.48083">
        <ele>346.8</ele>
        <time>2025-10-18T13:41:59Z</time>
      </trkpt>
      <trkpt lat="43.22347" lon="5.48083">
        <ele>346.7</ele>
        <time>2025-10-18T13:42:00Z</time>
      </trkpt>
      <trkpt lat="43.22347" lon="5.48084">
        <ele>346.7</ele>
        <time>2025-10-18T13:42:01Z</time>
      </trkpt>
      <trkpt lat="43.22347" lon="5.48084">
        <ele>346.7</ele>
        <time>2025-10-18T13:42:02Z</time>
      </trkpt>
      <trkpt lat="43.22348" lon="5.48084">
        <ele>346.8</ele>
        <time>2025-10-18T13:42:03Z</time>
      </trkpt>
      <trkpt lat="43.22347" lon="5.48084">
        <ele>346.8</ele>
        <time>2025-10-18T13:42:04Z</time>
      </trkpt>
      <trkpt lat="43.22347" lon="5.48084">
        <ele>346.9</ele>
        <time>2025-10-18T13:42:05Z</time>
      </trkpt>
      <trkpt lat="43.22347" lon="5.48084">
        <ele>346.9</ele>
        <time>2025-10-18T13:42:06Z</time>
      </trkpt>
      <trkpt lat="43.22346" lon="5.48084">
        <ele>346.9</ele>
        <time>2025-10-18T13:42:07Z</time>
      </trkpt>
      <trkpt lat="43.22345" lon="5.48084">
        <ele>347</ele>
        <time>2025-10-18T13:42:08Z</time>
      </trkpt>
      <trkpt lat="43.22344" lon="5.48084">
        <ele>347</ele>
        <time>2025-10-18T13:42:09Z</time>
      </trkpt>
      <trkpt lat="43.22344" lon="5.48084">
        <ele>347</ele>
        <time>2025-10-18T13:42:10Z</time>
      </trkpt>
      <trkpt lat="43.22344" lon="5.48084">
        <ele>346.9</ele>
        <time>2025-10-18T13:42:11Z</time>
      </trkpt>
      <trkpt lat="43.22343" lon="5.48084">
        <ele>347</ele>
        <time>2025-10-18T13:42:12Z</time>
      </trkpt>
      <trkpt lat="43.22343" lon="5.48084">
        <ele>347.1</ele>
        <time>2025-10-18T13:42:13Z</time>
      </trkpt>
      <trkpt lat="43.22342" lon="5.48083">
        <ele>347.1</ele>
        <time>2025-10-18T13:42:14Z</time>
      </trkpt>
      <trkpt lat="43.22342" lon="5.48083">
        <ele>347.1</ele>
        <time>2025-10-18T13:42:15Z</time>
      </trkpt>
      <trkpt lat="43.22341" lon="5.48083">
        <ele>347.1</ele>
        <time>2025-10-18T13:42:16Z</time>
      </trkpt>
      <trkpt lat="43.22341" lon="5.48083">
        <ele>347.1</ele>
        <time>2025-10-18T13:42:17Z</time>
      </trkpt>
      <trkpt lat="43.22341" lon="5.48083">
        <ele>347.1</ele>
        <time>2025-10-18T13:42:18Z</time>
      </trkpt>
      <trkpt lat="43.22341" lon="5.48083">
        <ele>347</ele>
        <time>2025-10-18T13:42:19Z</time>
      </trkpt>
      <trkpt lat="43.22341" lon="5.48084">
        <ele>346.9</ele>
        <time>2025-10-18T13:42:20Z</time>
      </trkpt>
      <trkpt lat="43.22341" lon="5.48084">
        <ele>346.9</ele>
        <time>2025-10-18T13:42:21Z</time>
      </trkpt>
      <trkpt lat="43.22341" lon="5.48084">
        <ele>346.9</ele>
        <time>2025-10-18T13:42:22Z</time>
      </trkpt>
      <trkpt lat="43.22341" lon="5.48083">
        <ele>346.9</ele>
        <time>2025-10-18T13:42:23Z</time>
      </trkpt>
      <trkpt lat="43.22341" lon="5.48083">
        <ele>346.9</ele>
        <time>2025-10-18T13:42:24Z</time>
      </trkpt>
      <trkpt lat="43.2234" lon="5.48083">
        <ele>346.9</ele>
        <time>2025-10-18T13:42:25Z</time>
      </trkpt>
      <trkpt lat="43.22339" lon="5.48083">
        <ele>346.9</ele>
        <time>2025-10-18T13:42:26Z</time>
      </trkpt>
      <trkpt lat="43.22339" lon="5.48083">
        <ele>346.9</ele>
        <time>2025-10-18T13:42:27Z</time>
      </trkpt>
      <trkpt lat="43.22338" lon="5.48083">
        <ele>346.8</ele>
        <time>2025-10-18T13:42:28Z</time>
      </trkpt>
      <trkpt lat="43.22338" lon="5.48082">
        <ele>346.8</ele>
        <time>2025-10-18T13:42:29Z</time>
      </trkpt>
      <trkpt lat="43.22338" lon="5.48082">
        <ele>346.7</ele>
        <time>2025-10-18T13:42:30Z</time>
      </trkpt>
      <trkpt lat="43.22338" lon="5.48082">
        <ele>346.7</ele>
        <time>2025-10-18T13:42:31Z</time>
      </trkpt>
      <trkpt lat="43.22338" lon="5.48082">
        <ele>346.6</ele>
        <time>2025-10-18T13:42:32Z</time>
      </trkpt>
      <trkpt lat="43.22337" lon="5.48082">
        <ele>346.6</ele>
        <time>2025-10-18T13:42:33Z</time>
      </trkpt>
      <trkpt lat="43.22337" lon="5.48082">
        <ele>346.5</ele>
        <time>2025-10-18T13:42:34Z</time>
      </trkpt>
      <trkpt lat="43.22337" lon="5.48082">
        <ele>346.5</ele>
        <time>2025-10-18T13:42:35Z</time>
      </trkpt>
      <trkpt lat="43.22337" lon="5.48082">
        <ele>346.5</ele>
        <time>2025-10-18T13:42:36Z</time>
      </trkpt>
      <trkpt lat="43.22337" lon="5.48082">
        <ele>346.6</ele>
        <time>2025-10-18T13:42:37Z</time>
      </trkpt>
      <trkpt lat="43.22337" lon="5.48082">
        <ele>346.6</ele>
        <time>2025-10-18T13:42:38Z</time>
      </trkpt>
      <trkpt lat="43.22337" lon="5.48082">
        <ele>346.6</ele>
        <time>2025-10-18T13:42:39Z</time>
      </trkpt>
      <trkpt lat="43.22338" lon="5.48082">
        <ele>346.5</ele>
        <time>2025-10-18T13:42:40Z</time>
      </trkpt>
      <trkpt lat="43.22337" lon="5.48082">
        <ele>346.5</ele>
        <time>2025-10-18T13:42:41Z</time>
      </trkpt>
      <trkpt lat="43.22337" lon="5.48082">
        <ele>346.5</ele>
        <time>2025-10-18T13:42:42Z</time>
      </trkpt>
      <trkpt lat="43.22337" lon="5.48082">
        <ele>346.5</ele>
        <time>2025-10-18T13:42:43Z</time>
      </trkpt>
      <trkpt lat="43.22337" lon="5.48082">
        <ele>346.5</ele>
        <time>2025-10-18T13:42:44Z</time>
      </trkpt>
      <trkpt lat="43.22336" lon="5.48082">
        <ele>346.4</ele>
        <time>2025-10-18T13:42:45Z</time>
      </trkpt>
      <trkpt lat="43.22336" lon="5.48082">
        <ele>346.3</ele>
        <time>2025-10-18T13:42:46Z</time>
      </trkpt>
      <trkpt lat="43.22336" lon="5.48082">
        <ele>346.3</ele>
        <time>2025-10-18T13:42:47Z</time>
      </trkpt>
      <trkpt lat="43.22335" lon="5.48082">
        <ele>346.3</ele>
        <time>2025-10-18T13:42:48Z</time>
      </trkpt>
      <trkpt lat="43.22335" lon="5.48082">
        <ele>346.3</ele>
        <time>2025-10-18T13:42:49Z</time>
      </trkpt>
      <trkpt lat="43.22334" lon="5.48082">
        <ele>346.2</ele>
        <time>2025-10-18T13:42:50Z</time>
      </trkpt>
      <trkpt lat="43.22333" lon="5.48082">
        <ele>346.2</ele>
        <time>2025-10-18T13:42:51Z</time>
      </trkpt>
      <trkpt lat="43.22333" lon="5.48082">
        <ele>346.2</ele>
        <time>2025-10-18T13:42:52Z</time>
      </trkpt>
      <trkpt lat="43.22333" lon="5.48081">
        <ele>346.2</ele>
        <time>2025-10-18T13:42:53Z</time>
      </trkpt>
      <trkpt lat="43.22333" lon="5.48081">
        <ele>346.3</ele>
        <time>2025-10-18T13:42:54Z</time>
      </trkpt>
      <trkpt lat="43.22332" lon="5.48081">
        <ele>346.2</ele>
        <time>2025-10-18T13:42:55Z</time>
      </trkpt>
      <trkpt lat="43.22332" lon="5.48081">
        <ele>346.2</ele>
        <time>2025-10-18T13:42:56Z</time>
      </trkpt>
      <trkpt lat="43.22332" lon="5.48081">
        <ele>346.2</ele>
        <time>2025-10-18T13:42:57Z</time>
      </trkpt>
      <trkpt lat="43.22332" lon="5.48081">
        <ele>346.2</ele>
        <time>2025-10-18T13:42:58Z</time>
      </trkpt>
      <trkpt lat="43.22332" lon="5.48082">
        <ele>346.2</ele>
        <time>2025-10-18T13:42:59Z</time>
      </trkpt>
      <trkpt lat="43.22333" lon="5.48082">
        <ele>346.2</ele>
        <time>2025-10-18T13:43:00Z</time>
      </trkpt>
      <trkpt lat="43.22333" lon="5.48082">
        <ele>346.2</ele>
        <time>2025-10-18T13:43:01Z</time>
      </trkpt>
      <trkpt lat="43.22333" lon="5.48082">
        <ele>346.2</ele>
        <time>2025-10-18T13:43:02Z</time>
      </trkpt>
      <trkpt lat="43.22333" lon="5.48082">
        <ele>346.3</ele>
        <time>2025-10-18T13:43:03Z</time>
      </trkpt>
      <trkpt lat="43.22333" lon="5.48082">
        <ele>346.4</ele>
        <time>2025-10-18T13:43:04Z</time>
      </trkpt>
      <trkpt lat="43.22334" lon="5.48083">
        <ele>346.4</ele>
        <time>2025-10-18T13:43:05Z</time>
      </trkpt>
      <trkpt lat="43.22334" lon="5.48083">
        <ele>346.5</ele>
        <time>2025-10-18T13:43:06Z</time>
      </trkpt>
      <trkpt lat="43.22334" lon="5.48083">
        <ele>346.5</ele>
        <time>2025-10-18T13:43:07Z</time>
      </trkpt>
      <trkpt lat="43.22335" lon="5.48083">
        <ele>346.5</ele>
        <time>2025-10-18T13:43:08Z</time>
      </trkpt>
      <trkpt lat="43.22335" lon="5.48083">
        <ele>346.6</ele>
        <time>2025-10-18T13:43:09Z</time>
      </trkpt>
      <trkpt lat="43.22335" lon="5.48083">
        <ele>346.6</ele>
        <time>2025-10-18T13:43:10Z</time>
      </trkpt>
      <trkpt lat="43.22336" lon="5.48083">
        <ele>346.6</ele>
        <time>2025-10-18T13:43:11Z</time>
      </trkpt>
      <trkpt lat="43.22336" lon="5.48083">
        <ele>346.7</ele>
        <time>2025-10-18T13:43:12Z</time>
      </trkpt>
      <trkpt lat="43.22336" lon="5.48083">
        <ele>346.8</ele>
        <time>2025-10-18T13:43:13Z</time>
      </trkpt>
      <trkpt lat="43.22337" lon="5.48082">
        <ele>346.8</ele>
        <time>2025-10-18T13:43:14Z</time>
      </trkpt>
      <trkpt lat="43.22338" lon="5.48082">
        <ele>346.8</ele>
        <time>2025-10-18T13:43:15Z</time>
      </trkpt>
      <trkpt lat="43.22338" lon="5.48082">
        <ele>346.8</ele>
        <time>2025-10-18T13:43:16Z</time>
      </trkpt>
      <trkpt lat="43.22338" lon="5.48082">
        <ele>346.8</ele>
        <time>2025-10-18T13:43:17Z</time>
      </trkpt>
      <trkpt lat="43.22338" lon="5.48082">
        <ele>346.8</ele>
        <time>2025-10-18T13:43:18Z</time>
      </trkpt>
      <trkpt lat="43.22338" lon="5.48082">
        <ele>346.8</ele>
        <time>2025-10-18T13:43:19Z</time>
      </trkpt>
      <trkpt lat="43.22338" lon="5.48082">
        <ele>346.8</ele>
        <time>2025-10-18T13:43:20Z</time>
      </trkpt>
      <trkpt lat="43.22337" lon="5.48082">
        <ele>346.8</ele>
        <time>2025-10-18T13:43:21Z</time>
      </trkpt>
      <trkpt lat="43.22336" lon="5.48082">
        <ele>346.8</ele>
        <time>2025-10-18T13:43:22Z</time>
      </trkpt>
      <trkpt lat="43.22335" lon="5.48082">
        <ele>346.8</ele>
        <time>2025-10-18T13:43:23Z</time>
      </trkpt>
      <trkpt lat="43.22335" lon="5.48081">
        <ele>346.9</ele>
        <time>2025-10-18T13:43:24Z</time>
      </trkpt>
      <trkpt lat="43.22334" lon="5.48081">
        <ele>346.8</ele>
        <time>2025-10-18T13:43:25Z</time>
      </trkpt>
      <trkpt lat="43.22334" lon="5.48082">
        <ele>346.8</ele>
        <time>2025-10-18T13:43:26Z</time>
      </trkpt>
      <trkpt lat="43.22334" lon="5.48082">
        <ele>346.8</ele>
        <time>2025-10-18T13:43:27Z</time>
      </trkpt>
      <trkpt lat="43.22333" lon="5.48081">
        <ele>346.8</ele>
        <time>2025-10-18T13:43:28Z</time>
      </trkpt>
      <trkpt lat="43.22333" lon="5.48082">
        <ele>346.7</ele>
        <time>2025-10-18T13:43:29Z</time>
      </trkpt>
      <trkpt lat="43.22333" lon="5.48082">
        <ele>346.6</ele>
        <time>2025-10-18T13:43:30Z</time>
      </trkpt>
      <trkpt lat="43.22332" lon="5.48082">
        <ele>346.7</ele>
        <time>2025-10-18T13:43:31Z</time>
      </trkpt>
      <trkpt lat="43.22333" lon="5.48082">
        <ele>346.6</ele>
        <time>2025-10-18T13:43:32Z</time>
      </trkpt>
      <trkpt lat="43.22333" lon="5.48081">
        <ele>346.6</ele>
        <time>2025-10-18T13:43:33Z</time>
      </trkpt>
      <trkpt lat="43.22332" lon="5.48081">
        <ele>346.6</ele>
        <time>2025-10-18T13:43:34Z</time>
      </trkpt>
      <trkpt lat="43.22332" lon="5.48081">
        <ele>346.6</ele>
        <time>2025-10-18T13:43:35Z</time>
      </trkpt>
      <trkpt lat="43.22332" lon="5.48081">
        <ele>346.6</ele>
        <time>2025-10-18T13:43:36Z</time>
      </trkpt>
      <trkpt lat="43.22332" lon="5.4808">
        <ele>346.6</ele>
        <time>2025-10-18T13:43:37Z</time>
      </trkpt>
      <trkpt lat="43.22332" lon="5.4808">
        <ele>346.7</ele>
        <time>2025-10-18T13:43:38Z</time>
      </trkpt>
      <trkpt lat="43.22332" lon="5.4808">
        <ele>346.7</ele>
        <time>2025-10-18T13:43:39Z</time>
      </trkpt>
      <trkpt lat="43.22332" lon="5.4808">
        <ele>346.7</ele>
        <time>2025-10-18T13:43:40Z</time>
      </trkpt>
      <trkpt lat="43.22331" lon="5.4808">
        <ele>346.6</ele>
        <time>2025-10-18T13:43:41Z</time>
      </trkpt>
      <trkpt lat="43.22331" lon="5.4808">
        <ele>346.6</ele>
        <time>2025-10-18T13:43:42Z</time>
      </trkpt>
      <trkpt lat="43.2233" lon="5.4808">
        <ele>346.5</ele>
        <time>2025-10-18T13:43:43Z</time>
      </trkpt>
      <trkpt lat="43.2233" lon="5.48079">
        <ele>346.5</ele>
        <time>2025-10-18T13:43:44Z</time>
      </trkpt>
      <trkpt lat="43.22329" lon="5.48079">
        <ele>346.6</ele>
        <time>2025-10-18T13:43:45Z</time>
      </trkpt>
      <trkpt lat="43.22329" lon="5.48079">
        <ele>346.6</ele>
        <time>2025-10-18T13:43:46Z</time>
      </trkpt>
      <trkpt lat="43.22328" lon="5.48079">
        <ele>346.7</ele>
        <time>2025-10-18T13:43:47Z</time>
      </trkpt>
      <trkpt lat="43.22327" lon="5.48079">
        <ele>346.7</ele>
        <time>2025-10-18T13:43:48Z</time>
      </trkpt>
      <trkpt lat="43.22326" lon="5.48079">
        <ele>346.7</ele>
        <time>2025-10-18T13:43:49Z</time>
      </trkpt>
      <trkpt lat="43.22326" lon="5.48078">
        <ele>346.9</ele>
        <time>2025-10-18T13:43:50Z</time>
      </trkpt>
      <trkpt lat="43.22327" lon="5.48078">
        <ele>347</ele>
        <time>2025-10-18T13:43:51Z</time>
      </trkpt>
      <trkpt lat="43.22327" lon="5.48078">
        <ele>347</ele>
        <time>2025-10-18T13:43:52Z</time>
      </trkpt>
      <trkpt lat="43.22327" lon="5.48078">
        <ele>347.1</ele>
        <time>2025-10-18T13:43:53Z</time>
      </trkpt>
      <trkpt lat="43.22327" lon="5.48077">
        <ele>347.2</ele>
        <time>2025-10-18T13:43:54Z</time>
      </trkpt>
      <trkpt lat="43.22327" lon="5.48078">
        <ele>347.2</ele>
        <time>2025-10-18T13:43:55Z</time>
      </trkpt>
      <trkpt lat="43.22328" lon="5.48078">
        <ele>347.2</ele>
        <time>2025-10-18T13:43:56Z</time>
      </trkpt>
      <trkpt lat="43.22328" lon="5.48079">
        <ele>347.2</ele>
        <time>2025-10-18T13:43:57Z</time>
      </trkpt>
      <trkpt lat="43.22329" lon="5.48079">
        <ele>347.2</ele>
        <time>2025-10-18T13:43:58Z</time>
      </trkpt>
      <trkpt lat="43.22329" lon="5.48079">
        <ele>347.1</ele>
        <time>2025-10-18T13:43:59Z</time>
      </trkpt>
      <trkpt lat="43.22329" lon="5.4808">
        <ele>347.1</ele>
        <time>2025-10-18T13:44:00Z</time>
      </trkpt>
      <trkpt lat="43.22329" lon="5.4808">
        <ele>347.1</ele>
        <time>2025-10-18T13:44:01Z</time>
      </trkpt>
      <trkpt lat="43.22328" lon="5.48079">
        <ele>347</ele>
        <time>2025-10-18T13:44:02Z</time>
      </trkpt>
      <trkpt lat="43.22328" lon="5.48079">
        <ele>346.9</ele>
        <time>2025-10-18T13:44:03Z</time>
      </trkpt>
      <trkpt lat="43.22329" lon="5.48079">
        <ele>347</ele>
        <time>2025-10-18T13:44:04Z</time>
      </trkpt>
      <trkpt lat="43.22329" lon="5.48079">
        <ele>346.7</ele>
        <time>2025-10-18T13:44:05Z</time>
      </trkpt>
      <trkpt lat="43.22329" lon="5.48079">
        <ele>346.7</ele>
        <time>2025-10-18T13:44:06Z</time>
      </trkpt>
      <trkpt lat="43.2233" lon="5.48079">
        <ele>346.7</ele>
        <time>2025-10-18T13:44:07Z</time>
      </trkpt>
      <trkpt lat="43.2233" lon="5.48079">
        <ele>346.7</ele>
        <time>2025-10-18T13:44:08Z</time>
      </trkpt>
      <trkpt lat="43.22331" lon="5.4808">
        <ele>346.8</ele>
        <time>2025-10-18T13:44:09Z</time>
      </trkpt>
      <trkpt lat="43.22331" lon="5.4808">
        <ele>346.8</ele>
        <time>2025-10-18T13:44:10Z</time>
      </trkpt>
      <trkpt lat="43.22331" lon="5.4808">
        <ele>346.9</ele>
        <time>2025-10-18T13:44:11Z</time>
      </trkpt>
      <trkpt lat="43.22331" lon="5.4808">
        <ele>347</ele>
        <time>2025-10-18T13:44:12Z</time>
      </trkpt>
      <trkpt lat="43.22332" lon="5.4808">
        <ele>347.1</ele>
        <time>2025-10-18T13:44:13Z</time>
      </trkpt>
      <trkpt lat="43.22332" lon="5.48081">
        <ele>347.1</ele>
        <time>2025-10-18T13:44:14Z</time>
      </trkpt>
      <trkpt lat="43.22332" lon="5.48081">
        <ele>347.1</ele>
        <time>2025-10-18T13:44:15Z</time>
      </trkpt>
      <trkpt lat="43.22332" lon="5.48081">
        <ele>347.1</ele>
        <time>2025-10-18T13:44:16Z</time>
      </trkpt>
      <trkpt lat="43.22332" lon="5.48081">
        <ele>347.1</ele>
        <time>2025-10-18T13:44:17Z</time>
      </trkpt>
      <trkpt lat="43.22332" lon="5.48081">
        <ele>347.1</ele>
        <time>2025-10-18T13:44:18Z</time>
      </trkpt>
      <trkpt lat="43.22332" lon="5.48081">
        <ele>347.1</ele>
        <time>2025-10-18T13:44:19Z</time>
      </trkpt>
      <trkpt lat="43.22332" lon="5.48081">
        <ele>347.1</ele>
        <time>2025-10-18T13:44:20Z</time>
      </trkpt>
      <trkpt lat="43.22333" lon="5.48081">
        <ele>347.1</ele>
        <time>2025-10-18T13:44:21Z</time>
      </trkpt>
      <trkpt lat="43.22333" lon="5.4808">
        <ele>347.1</ele>
        <time>2025-10-18T13:44:22Z</time>
      </trkpt>
      <trkpt lat="43.22333" lon="5.4808">
        <ele>347</ele>
        <time>2025-10-18T13:44:23Z</time>
      </trkpt>
      <trkpt lat="43.22333" lon="5.4808">
        <ele>347.1</ele>
        <time>2025-10-18T13:44:24Z</time>
      </trkpt>
      <trkpt lat="43.22334" lon="5.4808">
        <ele>347.1</ele>
        <time>2025-10-18T13:44:25Z</time>
      </trkpt>
      <trkpt lat="43.22334" lon="5.4808">
        <ele>347.1</ele>
        <time>2025-10-18T13:44:26Z</time>
      </trkpt>
      <trkpt lat="43.22334" lon="5.48079">
        <ele>347.1</ele>
        <time>2025-10-18T13:44:27Z</time>
      </trkpt>
      <trkpt lat="43.22335" lon="5.48079">
        <ele>347.1</ele>
        <time>2025-10-18T13:44:28Z</time>
      </trkpt>
      <trkpt lat="43.22335" lon="5.48079">
        <ele>347</ele>
        <time>2025-10-18T13:44:29Z</time>
      </trkpt>
      <trkpt lat="43.22335" lon="5.48079">
        <ele>347.1</ele>
        <time>2025-10-18T13:44:30Z</time>
      </trkpt>
      <trkpt lat="43.22335" lon="5.48079">
        <ele>347.1</ele>
        <time>2025-10-18T13:44:31Z</time>
      </trkpt>
      <trkpt lat="43.22335" lon="5.48079">
        <ele>347.1</ele>
        <time>2025-10-18T13:44:32Z</time>
      </trkpt>
      <trkpt lat="43.22335" lon="5.48079">
        <ele>347.1</ele>
        <time>2025-10-18T13:44:33Z</time>
      </trkpt>
      <trkpt lat="43.22335" lon="5.48079">
        <ele>347.1</ele>
        <time>2025-10-18T13:44:34Z</time>
      </trkpt>
      <trkpt lat="43.22335" lon="5.48079">
        <ele>347</ele>
        <time>2025-10-18T13:44:35Z</time>
      </trkpt>
      <trkpt lat="43.22335" lon="5.48079">
        <ele>347</ele>
        <time>2025-10-18T13:44:36Z</time>
      </trkpt>
      <trkpt lat="43.22335" lon="5.48079">
        <ele>347</ele>
        <time>2025-10-18T13:44:37Z</time>
      </trkpt>
      <trkpt lat="43.22335" lon="5.48079">
        <ele>347</ele>
        <time>2025-10-18T13:44:38Z</time>
      </trkpt>
      <trkpt lat="43.22335" lon="5.48079">
        <ele>347</ele>
        <time>2025-10-18T13:44:39Z</time>
      </trkpt>
      <trkpt lat="43.22335" lon="5.48079">
        <ele>346.9</ele>
        <time>2025-10-18T13:44:40Z</time>
      </trkpt>
      <trkpt lat="43.22335" lon="5.48079">
        <ele>346.9</ele>
        <time>2025-10-18T13:44:41Z</time>
      </trkpt>
      <trkpt lat="43.22335" lon="5.48079">
        <ele>346.8</ele>
        <time>2025-10-18T13:44:42Z</time>
      </trkpt>
      <trkpt lat="43.22335" lon="5.48079">
        <ele>346.9</ele>
        <time>2025-10-18T13:44:43Z</time>
      </trkpt>
      <trkpt lat="43.22335" lon="5.48079">
        <ele>346.8</ele>
        <time>2025-10-18T13:44:44Z</time>
      </trkpt>
      <trkpt lat="43.22335" lon="5.4808">
        <ele>346.8</ele>
        <time>2025-10-18T13:44:45Z</time>
      </trkpt>
      <trkpt lat="43.22336" lon="5.4808">
        <ele>346.9</ele>
        <time>2025-10-18T13:44:46Z</time>
      </trkpt>
      <trkpt lat="43.22336" lon="5.4808">
        <ele>346.9</ele>
        <time>2025-10-18T13:44:47Z</time>
      </trkpt>
      <trkpt lat="43.22336" lon="5.4808">
        <ele>346.9</ele>
        <time>2025-10-18T13:44:48Z</time>
      </trkpt>
      <trkpt lat="43.22337" lon="5.48081">
        <ele>346.8</ele>
        <time>2025-10-18T13:44:49Z</time>
      </trkpt>
      <trkpt lat="43.22338" lon="5.48081">
        <ele>346.8</ele>
        <time>2025-10-18T13:44:50Z</time>
      </trkpt>
      <trkpt lat="43.22338" lon="5.48081">
        <ele>346.8</ele>
        <time>2025-10-18T13:44:51Z</time>
      </trkpt>
      <trkpt lat="43.22339" lon="5.48082">
        <ele>346.8</ele>
        <time>2025-10-18T13:44:52Z</time>
      </trkpt>
      <trkpt lat="43.22339" lon="5.48082">
        <ele>346.9</ele>
        <time>2025-10-18T13:44:53Z</time>
      </trkpt>
      <trkpt lat="43.2234" lon="5.48082">
        <ele>346.9</ele>
        <time>2025-10-18T13:44:54Z</time>
      </trkpt>
      <trkpt lat="43.22341" lon="5.48082">
        <ele>346.9</ele>
        <time>2025-10-18T13:44:55Z</time>
      </trkpt>
      <trkpt lat="43.22341" lon="5.48083">
        <ele>347</ele>
        <time>2025-10-18T13:44:56Z</time>
      </trkpt>
      <trkpt lat="43.22342" lon="5.48083">
        <ele>347</ele>
        <time>2025-10-18T13:44:57Z</time>
      </trkpt>
      <trkpt lat="43.22342" lon="5.48083">
        <ele>347</ele>
        <time>2025-10-18T13:44:58Z</time>
      </trkpt>
      <trkpt lat="43.22343" lon="5.48084">
        <ele>347</ele>
        <time>2025-10-18T13:44:59Z</time>
      </trkpt>
      <trkpt lat="43.22343" lon="5.48084">
        <ele>347</ele>
        <time>2025-10-18T13:45:00Z</time>
      </trkpt>
      <trkpt lat="43.22344" lon="5.48084">
        <ele>347</ele>
        <time>2025-10-18T13:45:01Z</time>
      </trkpt>
      <trkpt lat="43.22345" lon="5.48084">
        <ele>346.9</ele>
        <time>2025-10-18T13:45:02Z</time>
      </trkpt>
      <trkpt lat="43.22345" lon="5.48085">
        <ele>347</ele>
        <time>2025-10-18T13:45:03Z</time>
      </trkpt>
      <trkpt lat="43.22346" lon="5.48085">
        <ele>347.1</ele>
        <time>2025-10-18T13:45:04Z</time>
      </trkpt>
      <trkpt lat="43.22346" lon="5.48086">
        <ele>347.1</ele>
        <time>2025-10-18T13:45:05Z</time>
      </trkpt>
      <trkpt lat="43.22347" lon="5.48086">
        <ele>347.1</ele>
        <time>2025-10-18T13:45:06Z</time>
      </trkpt>
      <trkpt lat="43.22347" lon="5.48086">
        <ele>347</ele>
        <time>2025-10-18T13:45:07Z</time>
      </trkpt>
      <trkpt lat="43.22347" lon="5.48087">
        <ele>347</ele>
        <time>2025-10-18T13:45:08Z</time>
      </trkpt>
      <trkpt lat="43.22348" lon="5.48087">
        <ele>347</ele>
        <time>2025-10-18T13:45:09Z</time>
      </trkpt>
      <trkpt lat="43.22348" lon="5.48087">
        <ele>346.9</ele>
        <time>2025-10-18T13:45:10Z</time>
      </trkpt>
      <trkpt lat="43.22349" lon="5.48088">
        <ele>347</ele>
        <time>2025-10-18T13:45:11Z</time>
      </trkpt>
      <trkpt lat="43.22349" lon="5.48088">
        <ele>347.1</ele>
        <time>2025-10-18T13:45:12Z</time>
      </trkpt>
      <trkpt lat="43.2235" lon="5.48088">
        <ele>347.1</ele>
        <time>2025-10-18T13:45:13Z</time>
      </trkpt>
      <trkpt lat="43.22351" lon="5.48088">
        <ele>347.1</ele>
        <time>2025-10-18T13:45:14Z</time>
      </trkpt>
      <trkpt lat="43.22351" lon="5.48088">
        <ele>347.1</ele>
        <time>2025-10-18T13:45:15Z</time>
      </trkpt>
      <trkpt lat="43.22352" lon="5.48088">
        <ele>347.1</ele>
        <time>2025-10-18T13:45:16Z</time>
      </trkpt>
      <trkpt lat="43.22352" lon="5.48088">
        <ele>347.1</ele>
        <time>2025-10-18T13:45:17Z</time>
      </trkpt>
      <trkpt lat="43.22353" lon="5.48088">
        <ele>347.1</ele>
        <time>2025-10-18T13:45:18Z</time>
      </trkpt>
      <trkpt lat="43.22353" lon="5.48088">
        <ele>347.1</ele>
        <time>2025-10-18T13:45:19Z</time>
      </trkpt>
      <trkpt lat="43.22354" lon="5.48089">
        <ele>347.1</ele>
        <time>2025-10-18T13:45:20Z</time>
      </trkpt>
      <trkpt lat="43.22354" lon="5.48089">
        <ele>347.2</ele>
        <time>2025-10-18T13:45:21Z</time>
      </trkpt>
      <trkpt lat="43.22354" lon="5.48089">
        <ele>347.2</ele>
        <time>2025-10-18T13:45:22Z</time>
      </trkpt>
      <trkpt lat="43.22354" lon="5.48089">
        <ele>347.2</ele>
        <time>2025-10-18T13:45:23Z</time>
      </trkpt>
      <trkpt lat="43.22354" lon="5.48089">
        <ele>347.2</ele>
        <time>2025-10-18T13:45:24Z</time>
      </trkpt>
      <trkpt lat="43.22354" lon="5.48088">
        <ele>347.2</ele>
        <time>2025-10-18T13:45:25Z</time>
      </trkpt>
      <trkpt lat="43.22354" lon="5.48088">
        <ele>347.2</ele>
        <time>2025-10-18T13:45:26Z</time>
      </trkpt>
      <trkpt lat="43.22354" lon="5.48088">
        <ele>347.2</ele>
        <time>2025-10-18T13:45:27Z</time>
      </trkpt>
      <trkpt lat="43.22355" lon="5.48088">
        <ele>347.2</ele>
        <time>2025-10-18T13:45:28Z</time>
      </trkpt>
      <trkpt lat="43.22355" lon="5.48088">
        <ele>347.1</ele>
        <time>2025-10-18T13:45:29Z</time>
      </trkpt>
      <trkpt lat="43.22355" lon="5.48088">
        <ele>347</ele>
        <time>2025-10-18T13:45:30Z</time>
      </trkpt>
      <trkpt lat="43.22355" lon="5.48088">
        <ele>347</ele>
        <time>2025-10-18T13:45:31Z</time>
      </trkpt>
      <trkpt lat="43.22355" lon="5.48088">
        <ele>347.1</ele>
        <time>2025-10-18T13:45:32Z</time>
      </trkpt>
      <trkpt lat="43.22355" lon="5.48088">
        <ele>347.2</ele>
        <time>2025-10-18T13:45:33Z</time>
      </trkpt>
      <trkpt lat="43.22356" lon="5.48088">
        <ele>347.1</ele>
        <time>2025-10-18T13:45:34Z</time>
      </trkpt>
      <trkpt lat="43.22356" lon="5.48088">
        <ele>347.1</ele>
        <time>2025-10-18T13:45:35Z</time>
      </trkpt>
      <trkpt lat="43.22356" lon="5.48088">
        <ele>347.1</ele>
        <time>2025-10-18T13:45:36Z</time>
      </trkpt>
      <trkpt lat="43.22356" lon="5.48087">
        <ele>347.1</ele>
        <time>2025-10-18T13:45:37Z</time>
      </trkpt>
      <trkpt lat="43.22356" lon="5.48087">
        <ele>347.1</ele>
        <time>2025-10-18T13:45:38Z</time>
      </trkpt>
      <trkpt lat="43.22356" lon="5.48087">
        <ele>347.2</ele>
        <time>2025-10-18T13:45:39Z</time>
      </trkpt>
      <trkpt lat="43.22357" lon="5.48087">
        <ele>347.1</ele>
        <time>2025-10-18T13:45:40Z</time>
      </trkpt>
      <trkpt lat="43.22357" lon="5.48087">
        <ele>347.1</ele>
        <time>2025-10-18T13:45:41Z</time>
      </trkpt>
      <trkpt lat="43.22357" lon="5.48087">
        <ele>347.1</ele>
        <time>2025-10-18T13:45:42Z</time>
      </trkpt>
      <trkpt lat="43.22357" lon="5.48087">
        <ele>347.1</ele>
        <time>2025-10-18T13:45:43Z</time>
      </trkpt>
      <trkpt lat="43.22357" lon="5.48087">
        <ele>347</ele>
        <time>2025-10-18T13:45:44Z</time>
      </trkpt>
      <trkpt lat="43.22357" lon="5.48087">
        <ele>347</ele>
        <time>2025-10-18T13:45:45Z</time>
      </trkpt>
      <trkpt lat="43.22357" lon="5.48087">
        <ele>347</ele>
        <time>2025-10-18T13:45:46Z</time>
      </trkpt>
      <trkpt lat="43.22357" lon="5.48087">
        <ele>347</ele>
        <time>2025-10-18T13:45:47Z</time>
      </trkpt>
      <trkpt lat="43.22356" lon="5.48087">
        <ele>347</ele>
        <time>2025-10-18T13:45:48Z</time>
      </trkpt>
      <trkpt lat="43.22356" lon="5.48088">
        <ele>347</ele>
        <time>2025-10-18T13:45:49Z</time>
      </trkpt>
      <trkpt lat="43.22356" lon="5.48088">
        <ele>347</ele>
        <time>2025-10-18T13:45:50Z</time>
      </trkpt>
      <trkpt lat="43.22356" lon="5.48088">
        <ele>347</ele>
        <time>2025-10-18T13:45:51Z</time>
      </trkpt>
      <trkpt lat="43.22356" lon="5.48088">
        <ele>346.9</ele>
        <time>2025-10-18T13:45:52Z</time>
      </trkpt>
      <trkpt lat="43.22356" lon="5.48089">
        <ele>346.8</ele>
        <time>2025-10-18T13:45:53Z</time>
      </trkpt>
      <trkpt lat="43.22356" lon="5.48089">
        <ele>346.8</ele>
        <time>2025-10-18T13:45:54Z</time>
      </trkpt>
      <trkpt lat="43.22356" lon="5.48089">
        <ele>346.9</ele>
        <time>2025-10-18T13:45:55Z</time>
      </trkpt>
      <trkpt lat="43.22357" lon="5.48089">
        <ele>346.9</ele>
        <time>2025-10-18T13:45:56Z</time>
      </trkpt>
      <trkpt lat="43.22357" lon="5.48089">
        <ele>346.9</ele>
        <time>2025-10-18T13:45:57Z</time>
      </trkpt>
      <trkpt lat="43.22357" lon="5.4809">
        <ele>347</ele>
        <time>2025-10-18T13:45:58Z</time>
      </trkpt>
      <trkpt lat="43.22358" lon="5.4809">
        <ele>347</ele>
        <time>2025-10-18T13:45:59Z</time>
      </trkpt>
      <trkpt lat="43.22358" lon="5.4809">
        <ele>347</ele>
        <time>2025-10-18T13:46:00Z</time>
      </trkpt>
      <trkpt lat="43.22359" lon="5.4809">
        <ele>347</ele>
        <time>2025-10-18T13:46:01Z</time>
      </trkpt>
      <trkpt lat="43.22359" lon="5.4809">
        <ele>347.1</ele>
        <time>2025-10-18T13:46:02Z</time>
      </trkpt>
      <trkpt lat="43.22359" lon="5.4809">
        <ele>347.1</ele>
        <time>2025-10-18T13:46:03Z</time>
      </trkpt>
      <trkpt lat="43.22359" lon="5.4809">
        <ele>347.1</ele>
        <time>2025-10-18T13:46:04Z</time>
      </trkpt>
      <trkpt lat="43.22359" lon="5.48089">
        <ele>347.1</ele>
        <time>2025-10-18T13:46:05Z</time>
      </trkpt>
      <trkpt lat="43.2236" lon="5.48089">
        <ele>347.1</ele>
        <time>2025-10-18T13:46:06Z</time>
      </trkpt>
      <trkpt lat="43.2236" lon="5.48088">
        <ele>347.1</ele>
        <time>2025-10-18T13:46:07Z</time>
      </trkpt>
      <trkpt lat="43.2236" lon="5.48088">
        <ele>347.1</ele>
        <time>2025-10-18T13:46:08Z</time>
      </trkpt>
      <trkpt lat="43.2236" lon="5.48087">
        <ele>347.1</ele>
        <time>2025-10-18T13:46:09Z</time>
      </trkpt>
      <trkpt lat="43.2236" lon="5.48087">
        <ele>347.1</ele>
        <time>2025-10-18T13:46:10Z</time>
      </trkpt>
      <trkpt lat="43.2236" lon="5.48087">
        <ele>347.2</ele>
        <time>2025-10-18T13:46:11Z</time>
      </trkpt>
      <trkpt lat="43.2236" lon="5.48086">
        <ele>347.2</ele>
        <time>2025-10-18T13:46:12Z</time>
      </trkpt>
      <trkpt lat="43.2236" lon="5.48086">
        <ele>347.2</ele>
        <time>2025-10-18T13:46:13Z</time>
      </trkpt>
      <trkpt lat="43.22359" lon="5.48086">
        <ele>347.2</ele>
        <time>2025-10-18T13:46:14Z</time>
      </trkpt>
      <trkpt lat="43.22359" lon="5.48085">
        <ele>347.2</ele>
        <time>2025-10-18T13:46:15Z</time>
      </trkpt>
      <trkpt lat="43.22359" lon="5.48085">
        <ele>347.2</ele>
        <time>2025-10-18T13:46:16Z</time>
      </trkpt>
      <trkpt lat="43.22359" lon="5.48085">
        <ele>347.3</ele>
        <time>2025-10-18T13:46:17Z</time>
      </trkpt>
      <trkpt lat="43.22359" lon="5.48085">
        <ele>347.2</ele>
        <time>2025-10-18T13:46:18Z</time>
      </trkpt>
      <trkpt lat="43.22358" lon="5.48085">
        <ele>347.1</ele>
        <time>2025-10-18T13:46:19Z</time>
      </trkpt>
      <trkpt lat="43.22358" lon="5.48084">
        <ele>347.1</ele>
        <time>2025-10-18T13:46:20Z</time>
      </trkpt>
      <trkpt lat="43.22358" lon="5.48084">
        <ele>347.1</ele>
        <time>2025-10-18T13:46:21Z</time>
      </trkpt>
      <trkpt lat="43.22358" lon="5.48084">
        <ele>347.1</ele>
        <time>2025-10-18T13:46:22Z</time>
      </trkpt>
      <trkpt lat="43.22358" lon="5.48084">
        <ele>347.1</ele>
        <time>2025-10-18T13:46:23Z</time>
      </trkpt>
      <trkpt lat="43.22357" lon="5.48084">
        <ele>347</ele>
        <time>2025-10-18T13:46:24Z</time>
      </trkpt>
      <trkpt lat="43.22357" lon="5.48084">
        <ele>346.9</ele>
        <time>2025-10-18T13:46:25Z</time>
      </trkpt>
      <trkpt lat="43.22358" lon="5.48085">
        <ele>346.9</ele>
        <time>2025-10-18T13:46:26Z</time>
      </trkpt>
      <trkpt lat="43.22358" lon="5.48085">
        <ele>346.9</ele>
        <time>2025-10-18T13:46:27Z</time>
      </trkpt>
      <trkpt lat="43.22358" lon="5.48085">
        <ele>347</ele>
        <time>2025-10-18T13:46:28Z</time>
      </trkpt>
      <trkpt lat="43.22358" lon="5.48085">
        <ele>347</ele>
        <time>2025-10-18T13:46:29Z</time>
      </trkpt>
      <trkpt lat="43.22358" lon="5.48086">
        <ele>347</ele>
        <time>2025-10-18T13:46:30Z</time>
      </trkpt>
      <trkpt lat="43.22359" lon="5.48086">
        <ele>347</ele>
        <time>2025-10-18T13:46:31Z</time>
      </trkpt>
      <trkpt lat="43.22359" lon="5.48086">
        <ele>347</ele>
        <time>2025-10-18T13:46:32Z</time>
      </trkpt>
      <trkpt lat="43.22359" lon="5.48086">
        <ele>346.9</ele>
        <time>2025-10-18T13:46:33Z</time>
      </trkpt>
      <trkpt lat="43.22359" lon="5.48086">
        <ele>346.9</ele>
        <time>2025-10-18T13:46:34Z</time>
      </trkpt>
      <trkpt lat="43.22359" lon="5.48086">
        <ele>347</ele>
        <time>2025-10-18T13:46:35Z</time>
      </trkpt>
      <trkpt lat="43.22357" lon="5.48086">
        <ele>347</ele>
        <time>2025-10-18T13:46:36Z</time>
      </trkpt>
      <trkpt lat="43.22357" lon="5.48086">
        <ele>347</ele>
        <time>2025-10-18T13:46:37Z</time>
      </trkpt>
      <trkpt lat="43.22357" lon="5.48085">
        <ele>346.9</ele>
        <time>2025-10-18T13:46:38Z</time>
      </trkpt>
      <trkpt lat="43.22356" lon="5.48085">
        <ele>346.9</ele>
        <time>2025-10-18T13:46:39Z</time>
      </trkpt>
      <trkpt lat="43.22356" lon="5.48085">
        <ele>347</ele>
        <time>2025-10-18T13:46:40Z</time>
      </trkpt>
      <trkpt lat="43.22355" lon="5.48085">
        <ele>347</ele>
        <time>2025-10-18T13:46:41Z</time>
      </trkpt>
      <trkpt lat="43.22355" lon="5.48085">
        <ele>347</ele>
        <time>2025-10-18T13:46:42Z</time>
      </trkpt>
      <trkpt lat="43.22355" lon="5.48085">
        <ele>347</ele>
        <time>2025-10-18T13:46:43Z</time>
      </trkpt>
      <trkpt lat="43.22355" lon="5.48086">
        <ele>346.9</ele>
        <time>2025-10-18T13:46:44Z</time>
      </trkpt>
      <trkpt lat="43.22356" lon="5.48086">
        <ele>346.9</ele>
        <time>2025-10-18T13:46:45Z</time>
      </trkpt>
      <trkpt lat="43.22357" lon="5.48086">
        <ele>346.9</ele>
        <time>2025-10-18T13:46:46Z</time>
      </trkpt>
      <trkpt lat="43.22357" lon="5.48086">
        <ele>347</ele>
        <time>2025-10-18T13:46:47Z</time>
      </trkpt>
      <trkpt lat="43.22358" lon="5.48087">
        <ele>347</ele>
        <time>2025-10-18T13:46:48Z</time>
      </trkpt>
      <trkpt lat="43.22358" lon="5.48087">
        <ele>346.9</ele>
        <time>2025-10-18T13:46:49Z</time>
      </trkpt>
      <trkpt lat="43.22359" lon="5.48087">
        <ele>346.9</ele>
        <time>2025-10-18T13:46:50Z</time>
      </trkpt>
      <trkpt lat="43.2236" lon="5.48087">
        <ele>346.8</ele>
        <time>2025-10-18T13:46:51Z</time>
      </trkpt>
      <trkpt lat="43.22361" lon="5.48087">
        <ele>346.8</ele>
        <time>2025-10-18T13:46:52Z</time>
      </trkpt>
      <trkpt lat="43.22362" lon="5.48087">
        <ele>346.8</ele>
        <time>2025-10-18T13:46:53Z</time>
      </trkpt>
      <trkpt lat="43.22362" lon="5.48087">
        <ele>346.8</ele>
        <time>2025-10-18T13:46:54Z</time>
      </trkpt>
      <trkpt lat="43.22363" lon="5.48087">
        <ele>346.8</ele>
        <time>2025-10-18T13:46:55Z</time>
      </trkpt>
      <trkpt lat="43.22363" lon="5.48087">
        <ele>346.8</ele>
        <time>2025-10-18T13:46:56Z</time>
      </trkpt>
      <trkpt lat="43.22364" lon="5.48087">
        <ele>346.8</ele>
        <time>2025-10-18T13:46:57Z</time>
      </trkpt>
      <trkpt lat="43.22365" lon="5.48087">
        <ele>346.8</ele>
        <time>2025-10-18T13:46:58Z</time>
      </trkpt>
      <trkpt lat="43.22365" lon="5.48087">
        <ele>346.8</ele>
        <time>2025-10-18T13:46:59Z</time>
      </trkpt>
      <trkpt lat="43.22365" lon="5.48086">
        <ele>346.7</ele>
        <time>2025-10-18T13:47:00Z</time>
      </trkpt>
      <trkpt lat="43.22365" lon="5.48086">
        <ele>346.7</ele>
        <time>2025-10-18T13:47:01Z</time>
      </trkpt>
      <trkpt lat="43.22366" lon="5.48086">
        <ele>346.8</ele>
        <time>2025-10-18T13:47:02Z</time>
      </trkpt>
      <trkpt lat="43.22366" lon="5.48086">
        <ele>346.8</ele>
        <time>2025-10-18T13:47:03Z</time>
      </trkpt>
      <trkpt lat="43.22367" lon="5.48086">
        <ele>346.8</ele>
        <time>2025-10-18T13:47:04Z</time>
      </trkpt>
      <trkpt lat="43.22367" lon="5.48086">
        <ele>346.9</ele>
        <time>2025-10-18T13:47:05Z</time>
      </trkpt>
      <trkpt lat="43.22367" lon="5.48086">
        <ele>346.9</ele>
        <time>2025-10-18T13:47:06Z</time>
      </trkpt>
      <trkpt lat="43.22368" lon="5.48086">
        <ele>346.9</ele>
        <time>2025-10-18T13:47:07Z</time>
      </trkpt>
      <trkpt lat="43.22368" lon="5.48086">
        <ele>347</ele>
        <time>2025-10-18T13:47:08Z</time>
      </trkpt>
      <trkpt lat="43.22369" lon="5.48086">
        <ele>347</ele>
        <time>2025-10-18T13:47:09Z</time>
      </trkpt>
      <trkpt lat="43.2237" lon="5.48086">
        <ele>347.1</ele>
        <time>2025-10-18T13:47:10Z</time>
      </trkpt>
      <trkpt lat="43.22371" lon="5.48086">
        <ele>347.1</ele>
        <time>2025-10-18T13:47:11Z</time>
      </trkpt>
      <trkpt lat="43.22371" lon="5.48086">
        <ele>347.1</ele>
        <time>2025-10-18T13:47:12Z</time>
      </trkpt>
      <trkpt lat="43.22371" lon="5.48086">
        <ele>347.2</ele>
        <time>2025-10-18T13:47:13Z</time>
      </trkpt>
      <trkpt lat="43.22371" lon="5.48086">
        <ele>347.2</ele>
        <time>2025-10-18T13:47:14Z</time>
      </trkpt>
      <trkpt lat="43.22371" lon="5.48085">
        <ele>347.2</ele>
        <time>2025-10-18T13:47:15Z</time>
      </trkpt>
      <trkpt lat="43.22372" lon="5.48085">
        <ele>347.3</ele>
        <time>2025-10-18T13:47:16Z</time>
      </trkpt>
      <trkpt lat="43.22372" lon="5.48085">
        <ele>347.2</ele>
        <time>2025-10-18T13:47:17Z</time>
      </trkpt>
      <trkpt lat="43.22372" lon="5.48085">
        <ele>347.2</ele>
        <time>2025-10-18T13:47:18Z</time>
      </trkpt>
      <trkpt lat="43.22372" lon="5.48085">
        <ele>347.2</ele>
        <time>2025-10-18T13:47:19Z</time>
      </trkpt>
      <trkpt lat="43.22372" lon="5.48085">
        <ele>347.1</ele>
        <time>2025-10-18T13:47:20Z</time>
      </trkpt>
      <trkpt lat="43.22372" lon="5.48084">
        <ele>347.1</ele>
        <time>2025-10-18T13:47:21Z</time>
      </trkpt>
      <trkpt lat="43.22372" lon="5.48084">
        <ele>347.1</ele>
        <time>2025-10-18T13:47:22Z</time>
      </trkpt>
      <trkpt lat="43.22372" lon="5.48084">
        <ele>347.1</ele>
        <time>2025-10-18T13:47:23Z</time>
      </trkpt>
      <trkpt lat="43.22372" lon="5.48084">
        <ele>347.1</ele>
        <time>2025-10-18T13:47:24Z</time>
      </trkpt>
      <trkpt lat="43.22372" lon="5.48084">
        <ele>347.1</ele>
        <time>2025-10-18T13:47:25Z</time>
      </trkpt>
      <trkpt lat="43.22372" lon="5.48084">
        <ele>347</ele>
        <time>2025-10-18T13:47:26Z</time>
      </trkpt>
      <trkpt lat="43.22372" lon="5.48084">
        <ele>347</ele>
        <time>2025-10-18T13:47:27Z</time>
      </trkpt>
      <trkpt lat="43.22372" lon="5.48084">
        <ele>347</ele>
        <time>2025-10-18T13:47:28Z</time>
      </trkpt>
      <trkpt lat="43.22371" lon="5.48083">
        <ele>346.9</ele>
        <time>2025-10-18T13:47:29Z</time>
      </trkpt>
      <trkpt lat="43.22371" lon="5.48083">
        <ele>346.8</ele>
        <time>2025-10-18T13:47:30Z</time>
      </trkpt>
      <trkpt lat="43.22371" lon="5.48082">
        <ele>346.8</ele>
        <time>2025-10-18T13:47:31Z</time>
      </trkpt>
      <trkpt lat="43.2237" lon="5.48082">
        <ele>346.7</ele>
        <time>2025-10-18T13:47:32Z</time>
      </trkpt>
      <trkpt lat="43.2237" lon="5.48081">
        <ele>346.7</ele>
        <time>2025-10-18T13:47:33Z</time>
      </trkpt>
      <trkpt lat="43.2237" lon="5.48081">
        <ele>346.7</ele>
        <time>2025-10-18T13:47:34Z</time>
      </trkpt>
      <trkpt lat="43.2237" lon="5.48081">
        <ele>346.6</ele>
        <time>2025-10-18T13:47:35Z</time>
      </trkpt>
      <trkpt lat="43.2237" lon="5.4808">
        <ele>346.6</ele>
        <time>2025-10-18T13:47:36Z</time>
      </trkpt>
      <trkpt lat="43.2237" lon="5.4808">
        <ele>346.6</ele>
        <time>2025-10-18T13:47:37Z</time>
      </trkpt>
      <trkpt lat="43.22369" lon="5.4808">
        <ele>346.6</ele>
        <time>2025-10-18T13:47:38Z</time>
      </trkpt>
      <trkpt lat="43.22369" lon="5.48079">
        <ele>346.6</ele>
        <time>2025-10-18T13:47:39Z</time>
      </trkpt>
      <trkpt lat="43.22369" lon="5.48079">
        <ele>346.7</ele>
        <time>2025-10-18T13:47:40Z</time>
      </trkpt>
      <trkpt lat="43.22368" lon="5.48079">
        <ele>346.8</ele>
        <time>2025-10-18T13:47:41Z</time>
      </trkpt>
      <trkpt lat="43.22367" lon="5.48078">
        <ele>346.9</ele>
        <time>2025-10-18T13:47:42Z</time>
      </trkpt>
      <trkpt lat="43.22367" lon="5.48078">
        <ele>346.9</ele>
        <time>2025-10-18T13:47:43Z</time>
      </trkpt>
      <trkpt lat="43.22366" lon="5.48078">
        <ele>346.9</ele>
        <time>2025-10-18T13:47:44Z</time>
      </trkpt>
      <trkpt lat="43.22366" lon="5.48077">
        <ele>346.9</ele>
        <time>2025-10-18T13:47:45Z</time>
      </trkpt>
      <trkpt lat="43.22365" lon="5.48077">
        <ele>346.9</ele>
        <time>2025-10-18T13:47:46Z</time>
      </trkpt>
      <trkpt lat="43.22365" lon="5.48077">
        <ele>346.8</ele>
        <time>2025-10-18T13:47:47Z</time>
      </trkpt>
      <trkpt lat="43.22364" lon="5.48077">
        <ele>346.8</ele>
        <time>2025-10-18T13:47:48Z</time>
      </trkpt>
      <trkpt lat="43.22363" lon="5.48076">
        <ele>346.8</ele>
        <time>2025-10-18T13:47:49Z</time>
      </trkpt>
      <trkpt lat="43.22363" lon="5.48076">
        <ele>346.8</ele>
        <time>2025-10-18T13:47:50Z</time>
      </trkpt>
      <trkpt lat="43.22362" lon="5.48076">
        <ele>346.8</ele>
        <time>2025-10-18T13:47:51Z</time>
      </trkpt>
      <trkpt lat="43.22362" lon="5.48076">
        <ele>346.8</ele>
        <time>2025-10-18T13:47:52Z</time>
      </trkpt>
      <trkpt lat="43.22362" lon="5.48076">
        <ele>346.7</ele>
        <time>2025-10-18T13:47:53Z</time>
      </trkpt>
      <trkpt lat="43.22362" lon="5.48075">
        <ele>346.8</ele>
        <time>2025-10-18T13:47:54Z</time>
      </trkpt>
      <trkpt lat="43.22362" lon="5.48075">
        <ele>346.8</ele>
        <time>2025-10-18T13:47:55Z</time>
      </trkpt>
      <trkpt lat="43.22362" lon="5.48075">
        <ele>346.9</ele>
        <time>2025-10-18T13:47:56Z</time>
      </trkpt>
      <trkpt lat="43.22363" lon="5.48074">
        <ele>346.9</ele>
        <time>2025-10-18T13:47:57Z</time>
      </trkpt>
      <trkpt lat="43.22363" lon="5.48074">
        <ele>346.9</ele>
        <time>2025-10-18T13:47:58Z</time>
      </trkpt>
      <trkpt lat="43.22363" lon="5.48074">
        <ele>347</ele>
        <time>2025-10-18T13:47:59Z</time>
      </trkpt>
      <trkpt lat="43.22363" lon="5.48073">
        <ele>347.1</ele>
        <time>2025-10-18T13:48:00Z</time>
      </trkpt>
      <trkpt lat="43.22363" lon="5.48073">
        <ele>347.1</ele>
        <time>2025-10-18T13:48:01Z</time>
      </trkpt>
      <trkpt lat="43.22363" lon="5.48073">
        <ele>347.1</ele>
        <time>2025-10-18T13:48:02Z</time>
      </trkpt>
      <trkpt lat="43.22363" lon="5.48073">
        <ele>347.1</ele>
        <time>2025-10-18T13:48:03Z</time>
      </trkpt>
      <trkpt lat="43.22363" lon="5.48073">
        <ele>347.1</ele>
        <time>2025-10-18T13:48:04Z</time>
      </trkpt>
      <trkpt lat="43.22362" lon="5.48072">
        <ele>347.1</ele>
        <time>2025-10-18T13:48:05Z</time>
      </trkpt>
      <trkpt lat="43.22362" lon="5.48072">
        <ele>347.2</ele>
        <time>2025-10-18T13:48:06Z</time>
      </trkpt>
      <trkpt lat="43.22362" lon="5.48072">
        <ele>347.3</ele>
        <time>2025-10-18T13:48:07Z</time>
      </trkpt>
      <trkpt lat="43.22362" lon="5.48072">
        <ele>347.3</ele>
        <time>2025-10-18T13:48:08Z</time>
      </trkpt>
      <trkpt lat="43.22362" lon="5.48073">
        <ele>347.2</ele>
        <time>2025-10-18T13:48:09Z</time>
      </trkpt>
      <trkpt lat="43.22362" lon="5.48073">
        <ele>347.2</ele>
        <time>2025-10-18T13:48:10Z</time>
      </trkpt>
      <trkpt lat="43.22362" lon="5.48073">
        <ele>347.2</ele>
        <time>2025-10-18T13:48:11Z</time>
      </trkpt>
      <trkpt lat="43.22361" lon="5.48073">
        <ele>347.2</ele>
        <time>2025-10-18T13:48:12Z</time>
      </trkpt>
      <trkpt lat="43.22361" lon="5.48073">
        <ele>347.2</ele>
        <time>2025-10-18T13:48:13Z</time>
      </trkpt>
      <trkpt lat="43.22361" lon="5.48073">
        <ele>347.1</ele>
        <time>2025-10-18T13:48:14Z</time>
      </trkpt>
      <trkpt lat="43.22361" lon="5.48073">
        <ele>347.1</ele>
        <time>2025-10-18T13:48:15Z</time>
      </trkpt>
      <trkpt lat="43.22361" lon="5.48073">
        <ele>347</ele>
        <time>2025-10-18T13:48:16Z</time>
      </trkpt>
      <trkpt lat="43.22361" lon="5.48073">
        <ele>347</ele>
        <time>2025-10-18T13:48:17Z</time>
      </trkpt>
      <trkpt lat="43.22361" lon="5.48073">
        <ele>346.9</ele>
        <time>2025-10-18T13:48:18Z</time>
      </trkpt>
      <trkpt lat="43.22361" lon="5.48072">
        <ele>346.8</ele>
        <time>2025-10-18T13:48:19Z</time>
      </trkpt>
      <trkpt lat="43.22361" lon="5.48072">
        <ele>346.8</ele>
        <time>2025-10-18T13:48:20Z</time>
      </trkpt>
      <trkpt lat="43.22361" lon="5.48072">
        <ele>346.8</ele>
        <time>2025-10-18T13:48:21Z</time>
      </trkpt>
      <trkpt lat="43.22362" lon="5.48072">
        <ele>346.8</ele>
        <time>2025-10-18T13:48:22Z</time>
      </trkpt>
      <trkpt lat="43.22362" lon="5.48072">
        <ele>346.8</ele>
        <time>2025-10-18T13:48:23Z</time>
      </trkpt>
      <trkpt lat="43.22362" lon="5.48071">
        <ele>346.8</ele>
        <time>2025-10-18T13:48:24Z</time>
      </trkpt>
      <trkpt lat="43.22363" lon="5.48071">
        <ele>346.6</ele>
        <time>2025-10-18T13:48:25Z</time>
      </trkpt>
      <trkpt lat="43.22363" lon="5.48071">
        <ele>346.6</ele>
        <time>2025-10-18T13:48:26Z</time>
      </trkpt>
      <trkpt lat="43.22363" lon="5.48071">
        <ele>346.6</ele>
        <time>2025-10-18T13:48:27Z</time>
      </trkpt>
      <trkpt lat="43.22363" lon="5.4807">
        <ele>346.7</ele>
        <time>2025-10-18T13:48:28Z</time>
      </trkpt>
      <trkpt lat="43.22364" lon="5.4807">
        <ele>346.8</ele>
        <time>2025-10-18T13:48:29Z</time>
      </trkpt>
      <trkpt lat="43.22364" lon="5.4807">
        <ele>346.8</ele>
        <time>2025-10-18T13:48:30Z</time>
      </trkpt>
      <trkpt lat="43.22364" lon="5.4807">
        <ele>346.9</ele>
        <time>2025-10-18T13:48:31Z</time>
      </trkpt>
      <trkpt lat="43.22364" lon="5.4807">
        <ele>346.9</ele>
        <time>2025-10-18T13:48:32Z</time>
      </trkpt>
      <trkpt lat="43.22364" lon="5.48069">
        <ele>346.8</ele>
        <time>2025-10-18T13:48:33Z</time>
      </trkpt>
      <trkpt lat="43.22363" lon="5.48069">
        <ele>346.8</ele>
        <time>2025-10-18T13:48:34Z</time>
      </trkpt>
      <trkpt lat="43.22363" lon="5.48069">
        <ele>346.8</ele>
        <time>2025-10-18T13:48:35Z</time>
      </trkpt>
      <trkpt lat="43.22363" lon="5.48069">
        <ele>346.8</ele>
        <time>2025-10-18T13:48:36Z</time>
      </trkpt>
      <trkpt lat="43.22363" lon="5.48069">
        <ele>346.8</ele>
        <time>2025-10-18T13:48:37Z</time>
      </trkpt>
      <trkpt lat="43.22363" lon="5.48069">
        <ele>346.8</ele>
        <time>2025-10-18T13:48:38Z</time>
      </trkpt>
      <trkpt lat="43.22363" lon="5.48069">
        <ele>346.8</ele>
        <time>2025-10-18T13:48:39Z</time>
      </trkpt>
      <trkpt lat="43.22363" lon="5.48069">
        <ele>346.9</ele>
        <time>2025-10-18T13:48:40Z</time>
      </trkpt>
      <trkpt lat="43.22363" lon="5.48069">
        <ele>347</ele>
        <time>2025-10-18T13:48:41Z</time>
      </trkpt>
      <trkpt lat="43.22363" lon="5.48069">
        <ele>347.1</ele>
        <time>2025-10-18T13:48:42Z</time>
      </trkpt>
      <trkpt lat="43.22363" lon="5.48069">
        <ele>347.1</ele>
        <time>2025-10-18T13:48:43Z</time>
      </trkpt>
      <trkpt lat="43.22363" lon="5.48069">
        <ele>347.1</ele>
        <time>2025-10-18T13:48:44Z</time>
      </trkpt>
      <trkpt lat="43.22363" lon="5.48069">
        <ele>347.1</ele>
        <time>2025-10-18T13:48:45Z</time>
      </trkpt>
      <trkpt lat="43.22363" lon="5.48069">
        <ele>347.1</ele>
        <time>2025-10-18T13:48:46Z</time>
      </trkpt>
      <trkpt lat="43.22363" lon="5.48069">
        <ele>347.1</ele>
        <time>2025-10-18T13:48:47Z</time>
      </trkpt>
      <trkpt lat="43.22364" lon="5.48069">
        <ele>347.1</ele>
        <time>2025-10-18T13:48:48Z</time>
      </trkpt>
      <trkpt lat="43.22364" lon="5.48069">
        <ele>347.1</ele>
        <time>2025-10-18T13:48:49Z</time>
      </trkpt>
      <trkpt lat="43.22364" lon="5.48069">
        <ele>347.1</ele>
        <time>2025-10-18T13:48:50Z</time>
      </trkpt>
      <trkpt lat="43.22365" lon="5.48068">
        <ele>347.1</ele>
        <time>2025-10-18T13:48:51Z</time>
      </trkpt>
      <trkpt lat="43.22364" lon="5.48068">
        <ele>347.1</ele>
        <time>2025-10-18T13:48:52Z</time>
      </trkpt>
      <trkpt lat="43.22364" lon="5.48068">
        <ele>347.1</ele>
        <time>2025-10-18T13:48:53Z</time>
      </trkpt>
      <trkpt lat="43.22364" lon="5.48068">
        <ele>347.2</ele>
        <time>2025-10-18T13:48:54Z</time>
      </trkpt>
      <trkpt lat="43.22363" lon="5.48067">
        <ele>347.3</ele>
        <time>2025-10-18T13:48:55Z</time>
      </trkpt>
      <trkpt lat="43.22362" lon="5.48066">
        <ele>347.2</ele>
        <time>2025-10-18T13:48:56Z</time>
      </trkpt>
      <trkpt lat="43.2236" lon="5.48065">
        <ele>347.1</ele>
        <time>2025-10-18T13:48:57Z</time>
      </trkpt>
      <trkpt lat="43.22359" lon="5.48065">
        <ele>347.1</ele>
        <time>2025-10-18T13:48:58Z</time>
      </trkpt>
      <trkpt lat="43.22358" lon="5.48064">
        <ele>347.1</ele>
        <time>2025-10-18T13:48:59Z</time>
      </trkpt>
      <trkpt lat="43.22356" lon="5.48063">
        <ele>347.2</ele>
        <time>2025-10-18T13:49:00Z</time>
      </trkpt>
      <trkpt lat="43.22354" lon="5.48062">
        <ele>347.2</ele>
        <time>2025-10-18T13:49:01Z</time>
      </trkpt>
      <trkpt lat="43.22353" lon="5.48061">
        <ele>347.2</ele>
        <time>2025-10-18T13:49:02Z</time>
      </trkpt>
      <trkpt lat="43.22351" lon="5.4806">
        <ele>347.2</ele>
        <time>2025-10-18T13:49:03Z</time>
      </trkpt>
      <trkpt lat="43.22349" lon="5.48059">
        <ele>347.2</ele>
        <time>2025-10-18T13:49:04Z</time>
      </trkpt>
      <trkpt lat="43.22349" lon="5.48059">
        <ele>347.2</ele>
        <time>2025-10-18T13:49:05Z</time>
      </trkpt>
      <trkpt lat="43.22348" lon="5.48058">
        <ele>347.2</ele>
        <time>2025-10-18T13:49:06Z</time>
      </trkpt>
      <trkpt lat="43.22347" lon="5.48057">
        <ele>347.3</ele>
        <time>2025-10-18T13:49:07Z</time>
      </trkpt>
      <trkpt lat="43.22347" lon="5.48057">
        <ele>347.2</ele>
        <time>2025-10-18T13:49:08Z</time>
      </trkpt>
      <trkpt lat="43.22346" lon="5.48056">
        <ele>347.2</ele>
        <time>2025-10-18T13:49:09Z</time>
      </trkpt>
      <trkpt lat="43.22346" lon="5.48056">
        <ele>347.2</ele>
        <time>2025-10-18T13:49:10Z</time>
      </trkpt>
      <trkpt lat="43.22347" lon="5.48056">
        <ele>347.3</ele>
        <time>2025-10-18T13:49:11Z</time>
      </trkpt>
      <trkpt lat="43.22347" lon="5.48056">
        <ele>347.2</ele>
        <time>2025-10-18T13:49:12Z</time>
      </trkpt>
      <trkpt lat="43.22347" lon="5.48055">
        <ele>347.2</ele>
        <time>2025-10-18T13:49:13Z</time>
      </trkpt>
      <trkpt lat="43.22348" lon="5.48055">
        <ele>347.2</ele>
        <time>2025-10-18T13:49:14Z</time>
      </trkpt>
      <trkpt lat="43.22348" lon="5.48055">
        <ele>347.3</ele>
        <time>2025-10-18T13:49:15Z</time>
      </trkpt>
      <trkpt lat="43.22348" lon="5.48055">
        <ele>347.3</ele>
        <time>2025-10-18T13:49:16Z</time>
      </trkpt>
      <trkpt lat="43.22348" lon="5.48055">
        <ele>347.2</ele>
        <time>2025-10-18T13:49:17Z</time>
      </trkpt>
      <trkpt lat="43.22348" lon="5.48054">
        <ele>347.2</ele>
        <time>2025-10-18T13:49:18Z</time>
      </trkpt>
      <trkpt lat="43.22348" lon="5.48054">
        <ele>347.2</ele>
        <time>2025-10-18T13:49:19Z</time>
      </trkpt>
      <trkpt lat="43.22349" lon="5.48054">
        <ele>347.3</ele>
        <time>2025-10-18T13:49:20Z</time>
      </trkpt>
      <trkpt lat="43.2235" lon="5.48055">
        <ele>347.3</ele>
        <time>2025-10-18T13:49:21Z</time>
      </trkpt>
      <trkpt lat="43.22351" lon="5.48054">
        <ele>347.4</ele>
        <time>2025-10-18T13:49:22Z</time>
      </trkpt>
      <trkpt lat="43.22351" lon="5.48054">
        <ele>347.4</ele>
        <time>2025-10-18T13:49:23Z</time>
      </trkpt>
      <trkpt lat="43.22351" lon="5.48054">
        <ele>347.4</ele>
        <time>2025-10-18T13:49:24Z</time>
      </trkpt>
      <trkpt lat="43.22351" lon="5.48054">
        <ele>347.4</ele>
        <time>2025-10-18T13:49:25Z</time>
      </trkpt>
      <trkpt lat="43.22351" lon="5.48054">
        <ele>347.5</ele>
        <time>2025-10-18T13:49:26Z</time>
      </trkpt>
      <trkpt lat="43.22352" lon="5.48054">
        <ele>347.4</ele>
        <time>2025-10-18T13:49:27Z</time>
      </trkpt>
      <trkpt lat="43.22352" lon="5.48054">
        <ele>347.4</ele>
        <time>2025-10-18T13:49:28Z</time>
      </trkpt>
      <trkpt lat="43.22353" lon="5.48054">
        <ele>347.2</ele>
        <time>2025-10-18T13:49:29Z</time>
      </trkpt>
      <trkpt lat="43.22353" lon="5.48053">
        <ele>347.2</ele>
        <time>2025-10-18T13:49:30Z</time>
      </trkpt>
      <trkpt lat="43.22353" lon="5.48053">
        <ele>347.1</ele>
        <time>2025-10-18T13:49:31Z</time>
      </trkpt>
      <trkpt lat="43.22353" lon="5.48053">
        <ele>347.1</ele>
        <time>2025-10-18T13:49:32Z</time>
      </trkpt>
      <trkpt lat="43.22354" lon="5.48053">
        <ele>347.1</ele>
        <time>2025-10-18T13:49:33Z</time>
      </trkpt>
      <trkpt lat="43.22354" lon="5.48053">
        <ele>347</ele>
        <time>2025-10-18T13:49:34Z</time>
      </trkpt>
      <trkpt lat="43.22355" lon="5.48053">
        <ele>347</ele>
        <time>2025-10-18T13:49:35Z</time>
      </trkpt>
      <trkpt lat="43.22355" lon="5.48053">
        <ele>347.1</ele>
        <time>2025-10-18T13:49:36Z</time>
      </trkpt>
      <trkpt lat="43.22356" lon="5.48053">
        <ele>347.1</ele>
        <time>2025-10-18T13:49:37Z</time>
      </trkpt>
      <trkpt lat="43.22356" lon="5.48053">
        <ele>347.1</ele>
        <time>2025-10-18T13:49:38Z</time>
      </trkpt>
      <trkpt lat="43.22356" lon="5.48053">
        <ele>347.2</ele>
        <time>2025-10-18T13:49:39Z</time>
      </trkpt>
      <trkpt lat="43.22357" lon="5.48053">
        <ele>347.2</ele>
        <time>2025-10-18T13:49:40Z</time>
      </trkpt>
      <trkpt lat="43.22357" lon="5.48053">
        <ele>347.2</ele>
        <time>2025-10-18T13:49:41Z</time>
      </trkpt>
      <trkpt lat="43.22357" lon="5.48053">
        <ele>347.2</ele>
        <time>2025-10-18T13:49:42Z</time>
      </trkpt>
      <trkpt lat="43.22358" lon="5.48053">
        <ele>347.2</ele>
        <time>2025-10-18T13:49:43Z</time>
      </trkpt>
      <trkpt lat="43.22358" lon="5.48053">
        <ele>347.2</ele>
        <time>2025-10-18T13:49:44Z</time>
      </trkpt>
      <trkpt lat="43.22358" lon="5.48053">
        <ele>347.2</ele>
        <time>2025-10-18T13:49:45Z</time>
      </trkpt>
      <trkpt lat="43.22358" lon="5.48053">
        <ele>347.2</ele>
        <time>2025-10-18T13:49:46Z</time>
      </trkpt>
      <trkpt lat="43.22358" lon="5.48053">
        <ele>347.2</ele>
        <time>2025-10-18T13:49:47Z</time>
      </trkpt>
      <trkpt lat="43.22358" lon="5.48053">
        <ele>347.2</ele>
        <time>2025-10-18T13:49:48Z</time>
      </trkpt>
      <trkpt lat="43.22358" lon="5.48053">
        <ele>347.3</ele>
        <time>2025-10-18T13:49:49Z</time>
      </trkpt>
      <trkpt lat="43.22357" lon="5.48053">
        <ele>347.3</ele>
        <time>2025-10-18T13:49:50Z</time>
      </trkpt>
      <trkpt lat="43.22357" lon="5.48053">
        <ele>347.3</ele>
        <time>2025-10-18T13:49:51Z</time>
      </trkpt>
      <trkpt lat="43.22357" lon="5.48053">
        <ele>347.3</ele>
        <time>2025-10-18T13:49:52Z</time>
      </trkpt>
      <trkpt lat="43.22357" lon="5.48053">
        <ele>347.3</ele>
        <time>2025-10-18T13:49:53Z</time>
      </trkpt>
      <trkpt lat="43.22358" lon="5.48053">
        <ele>347.4</ele>
        <time>2025-10-18T13:49:54Z</time>
      </trkpt>
      <trkpt lat="43.22358" lon="5.48053">
        <ele>347.4</ele>
        <time>2025-10-18T13:49:55Z</time>
      </trkpt>
      <trkpt lat="43.22358" lon="5.48053">
        <ele>347.5</ele>
        <time>2025-10-18T13:49:56Z</time>
      </trkpt>
      <trkpt lat="43.22359" lon="5.48053">
        <ele>347.5</ele>
        <time>2025-10-18T13:49:57Z</time>
      </trkpt>
      <trkpt lat="43.22359" lon="5.48053">
        <ele>347.5</ele>
        <time>2025-10-18T13:49:58Z</time>
      </trkpt>
      <trkpt lat="43.2236" lon="5.48053">
        <ele>347.4</ele>
        <time>2025-10-18T13:49:59Z</time>
      </trkpt>
      <trkpt lat="43.2236" lon="5.48054">
        <ele>347.4</ele>
        <time>2025-10-18T13:50:00Z</time>
      </trkpt>
      <trkpt lat="43.22361" lon="5.48054">
        <ele>347.4</ele>
        <time>2025-10-18T13:50:01Z</time>
      </trkpt>
      <trkpt lat="43.22362" lon="5.48053">
        <ele>347.4</ele>
        <time>2025-10-18T13:50:02Z</time>
      </trkpt>
      <trkpt lat="43.22362" lon="5.48053">
        <ele>347.5</ele>
        <time>2025-10-18T13:50:03Z</time>
      </trkpt>
      <trkpt lat="43.22363" lon="5.48053">
        <ele>347.5</ele>
        <time>2025-10-18T13:50:04Z</time>
      </trkpt>
      <trkpt lat="43.22363" lon="5.48053">
        <ele>347.5</ele>
        <time>2025-10-18T13:50:05Z</time>
      </trkpt>
      <trkpt lat="43.22364" lon="5.48053">
        <ele>347.4</ele>
        <time>2025-10-18T13:50:06Z</time>
      </trkpt>
      <trkpt lat="43.22364" lon="5.48053">
        <ele>347.4</ele>
        <time>2025-10-18T13:50:07Z</time>
      </trkpt>
      <trkpt lat="43.22364" lon="5.48053">
        <ele>347.5</ele>
        <time>2025-10-18T13:50:08Z</time>
      </trkpt>
      <trkpt lat="43.22364" lon="5.48053">
        <ele>347.4</ele>
        <time>2025-10-18T13:50:09Z</time>
      </trkpt>
      <trkpt lat="43.22364" lon="5.48053">
        <ele>347.4</ele>
        <time>2025-10-18T13:50:10Z</time>
      </trkpt>
      <trkpt lat="43.22364" lon="5.48052">
        <ele>347.4</ele>
        <time>2025-10-18T13:50:11Z</time>
      </trkpt>
      <trkpt lat="43.22363" lon="5.48052">
        <ele>347.4</ele>
        <time>2025-10-18T13:50:12Z</time>
      </trkpt>
      <trkpt lat="43.22363" lon="5.48052">
        <ele>347.2</ele>
        <time>2025-10-18T13:50:13Z</time>
      </trkpt>
      <trkpt lat="43.22363" lon="5.48051">
        <ele>347.1</ele>
        <time>2025-10-18T13:50:14Z</time>
      </trkpt>
      <trkpt lat="43.22363" lon="5.48051">
        <ele>347.1</ele>
        <time>2025-10-18T13:50:15Z</time>
      </trkpt>
      <trkpt lat="43.22363" lon="5.48051">
        <ele>347.1</ele>
        <time>2025-10-18T13:50:16Z</time>
      </trkpt>
      <trkpt lat="43.22363" lon="5.48051">
        <ele>347.1</ele>
        <time>2025-10-18T13:50:17Z</time>
      </trkpt>
      <trkpt lat="43.22363" lon="5.4805">
        <ele>347.1</ele>
        <time>2025-10-18T13:50:18Z</time>
      </trkpt>
      <trkpt lat="43.22363" lon="5.4805">
        <ele>347.1</ele>
        <time>2025-10-18T13:50:19Z</time>
      </trkpt>
      <trkpt lat="43.22363" lon="5.4805">
        <ele>347.1</ele>
        <time>2025-10-18T13:50:20Z</time>
      </trkpt>
      <trkpt lat="43.22363" lon="5.4805">
        <ele>347.2</ele>
        <time>2025-10-18T13:50:21Z</time>
      </trkpt>
      <trkpt lat="43.22363" lon="5.4805">
        <ele>347.2</ele>
        <time>2025-10-18T13:50:22Z</time>
      </trkpt>
      <trkpt lat="43.22363" lon="5.4805">
        <ele>347.2</ele>
        <time>2025-10-18T13:50:23Z</time>
      </trkpt>
      <trkpt lat="43.22363" lon="5.4805">
        <ele>347.2</ele>
        <time>2025-10-18T13:50:24Z</time>
      </trkpt>
      <trkpt lat="43.22363" lon="5.4805">
        <ele>347.2</ele>
        <time>2025-10-18T13:50:25Z</time>
      </trkpt>
      <trkpt lat="43.22363" lon="5.48049">
        <ele>347.3</ele>
        <time>2025-10-18T13:50:26Z</time>
      </trkpt>
      <trkpt lat="43.22363" lon="5.48049">
        <ele>347.3</ele>
        <time>2025-10-18T13:50:27Z</time>
      </trkpt>
      <trkpt lat="43.22363" lon="5.48049">
        <ele>347.3</ele>
        <time>2025-10-18T13:50:28Z</time>
      </trkpt>
      <trkpt lat="43.22363" lon="5.48049">
        <ele>347.2</ele>
        <time>2025-10-18T13:50:29Z</time>
      </trkpt>
      <trkpt lat="43.22363" lon="5.48049">
        <ele>347.1</ele>
        <time>2025-10-18T13:50:30Z</time>
      </trkpt>
      <trkpt lat="43.22362" lon="5.48049">
        <ele>347.1</ele>
        <time>2025-10-18T13:50:31Z</time>
      </trkpt>
      <trkpt lat="43.22362" lon="5.48048">
        <ele>347.1</ele>
        <time>2025-10-18T13:50:32Z</time>
      </trkpt>
      <trkpt lat="43.22362" lon="5.48048">
        <ele>347.1</ele>
        <time>2025-10-18T13:50:33Z</time>
      </trkpt>
      <trkpt lat="43.22362" lon="5.48048">
        <ele>347.1</ele>
        <time>2025-10-18T13:50:34Z</time>
      </trkpt>
      <trkpt lat="43.22362" lon="5.48048">
        <ele>347.1</ele>
        <time>2025-10-18T13:50:35Z</time>
      </trkpt>
      <trkpt lat="43.22362" lon="5.48048">
        <ele>347.1</ele>
        <time>2025-10-18T13:50:36Z</time>
      </trkpt>
      <trkpt lat="43.22362" lon="5.48048">
        <ele>347.1</ele>
        <time>2025-10-18T13:50:37Z</time>
      </trkpt>
      <trkpt lat="43.22362" lon="5.48048">
        <ele>347.1</ele>
        <time>2025-10-18T13:50:38Z</time>
      </trkpt>
      <trkpt lat="43.22362" lon="5.48048">
        <ele>347.1</ele>
        <time>2025-10-18T13:50:39Z</time>
      </trkpt>
      <trkpt lat="43.22363" lon="5.48048">
        <ele>347.1</ele>
        <time>2025-10-18T13:50:40Z</time>
      </trkpt>
      <trkpt lat="43.22363" lon="5.48048">
        <ele>347.1</ele>
        <time>2025-10-18T13:50:41Z</time>
      </trkpt>
      <trkpt lat="43.22363" lon="5.48049">
        <ele>347.1</ele>
        <time>2025-10-18T13:50:42Z</time>
      </trkpt>
      <trkpt lat="43.22363" lon="5.48049">
        <ele>347</ele>
        <time>2025-10-18T13:50:43Z</time>
      </trkpt>
      <trkpt lat="43.22363" lon="5.48049">
        <ele>346.9</ele>
        <time>2025-10-18T13:50:44Z</time>
      </trkpt>
      <trkpt lat="43.22363" lon="5.48049">
        <ele>346.9</ele>
        <time>2025-10-18T13:50:45Z</time>
      </trkpt>
      <trkpt lat="43.22363" lon="5.48049">
        <ele>346.9</ele>
        <time>2025-10-18T13:50:46Z</time>
      </trkpt>
      <trkpt lat="43.22364" lon="5.48049">
        <ele>346.9</ele>
        <time>2025-10-18T13:50:47Z</time>
      </trkpt>
      <trkpt lat="43.22364" lon="5.48049">
        <ele>346.9</ele>
        <time>2025-10-18T13:50:48Z</time>
      </trkpt>
      <trkpt lat="43.22364" lon="5.48049">
        <ele>346.9</ele>
        <time>2025-10-18T13:50:49Z</time>
      </trkpt>
      <trkpt lat="43.22364" lon="5.48049">
        <ele>346.9</ele>
        <time>2025-10-18T13:50:50Z</time>
      </trkpt>
      <trkpt lat="43.22364" lon="5.48048">
        <ele>347</ele>
        <time>2025-10-18T13:50:51Z</time>
      </trkpt>
      <trkpt lat="43.22364" lon="5.48048">
        <ele>347</ele>
        <time>2025-10-18T13:50:52Z</time>
      </trkpt>
      <trkpt lat="43.22364" lon="5.48048">
        <ele>347.1</ele>
        <time>2025-10-18T13:50:53Z</time>
      </trkpt>
      <trkpt lat="43.22365" lon="5.48048">
        <ele>347.1</ele>
        <time>2025-10-18T13:50:54Z</time>
      </trkpt>
      <trkpt lat="43.22365" lon="5.48048">
        <ele>347</ele>
        <time>2025-10-18T13:50:55Z</time>
      </trkpt>
      <trkpt lat="43.22365" lon="5.48048">
        <ele>347</ele>
        <time>2025-10-18T13:50:56Z</time>
      </trkpt>
      <trkpt lat="43.22365" lon="5.48048">
        <ele>347</ele>
        <time>2025-10-18T13:50:57Z</time>
      </trkpt>
      <trkpt lat="43.22365" lon="5.48047">
        <ele>347</ele>
        <time>2025-10-18T13:50:58Z</time>
      </trkpt>
      <trkpt lat="43.22365" lon="5.48047">
        <ele>346.9</ele>
        <time>2025-10-18T13:50:59Z</time>
      </trkpt>
      <trkpt lat="43.22365" lon="5.48047">
        <ele>346.9</ele>
        <time>2025-10-18T13:51:00Z</time>
      </trkpt>
      <trkpt lat="43.22365" lon="5.48047">
        <ele>346.9</ele>
        <time>2025-10-18T13:51:01Z</time>
      </trkpt>
      <trkpt lat="43.22365" lon="5.48047">
        <ele>346.9</ele>
        <time>2025-10-18T13:51:02Z</time>
      </trkpt>
      <trkpt lat="43.22365" lon="5.48047">
        <ele>346.9</ele>
        <time>2025-10-18T13:51:03Z</time>
      </trkpt>
      <trkpt lat="43.22364" lon="5.48046">
        <ele>346.9</ele>
        <time>2025-10-18T13:51:04Z</time>
      </trkpt>
      <trkpt lat="43.22364" lon="5.48046">
        <ele>346.9</ele>
        <time>2025-10-18T13:51:05Z</time>
      </trkpt>
      <trkpt lat="43.22364" lon="5.48046">
        <ele>346.9</ele>
        <time>2025-10-18T13:51:06Z</time>
      </trkpt>
      <trkpt lat="43.22364" lon="5.48046">
        <ele>346.9</ele>
        <time>2025-10-18T13:51:07Z</time>
      </trkpt>
      <trkpt lat="43.22364" lon="5.48046">
        <ele>346.9</ele>
        <time>2025-10-18T13:51:08Z</time>
      </trkpt>
      <trkpt lat="43.22364" lon="5.48046">
        <ele>346.9</ele>
        <time>2025-10-18T13:51:09Z</time>
      </trkpt>
      <trkpt lat="43.22364" lon="5.48046">
        <ele>346.9</ele>
        <time>2025-10-18T13:51:10Z</time>
      </trkpt>
      <trkpt lat="43.22364" lon="5.48045">
        <ele>347</ele>
        <time>2025-10-18T13:51:11Z</time>
      </trkpt>
      <trkpt lat="43.22364" lon="5.48045">
        <ele>347.1</ele>
        <time>2025-10-18T13:51:12Z</time>
      </trkpt>
      <trkpt lat="43.22364" lon="5.48045">
        <ele>347.1</ele>
        <time>2025-10-18T13:51:13Z</time>
      </trkpt>
      <trkpt lat="43.22365" lon="5.48045">
        <ele>347.1</ele>
        <time>2025-10-18T13:51:14Z</time>
      </trkpt>
      <trkpt lat="43.22365" lon="5.48044">
        <ele>347.1</ele>
        <time>2025-10-18T13:51:15Z</time>
      </trkpt>
      <trkpt lat="43.22365" lon="5.48044">
        <ele>347</ele>
        <time>2025-10-18T13:51:16Z</time>
      </trkpt>
      <trkpt lat="43.22365" lon="5.48044">
        <ele>347</ele>
        <time>2025-10-18T13:51:17Z</time>
      </trkpt>
      <trkpt lat="43.22365" lon="5.48044">
        <ele>347</ele>
        <time>2025-10-18T13:51:18Z</time>
      </trkpt>
      <trkpt lat="43.22365" lon="5.48044">
        <ele>347</ele>
        <time>2025-10-18T13:51:19Z</time>
      </trkpt>
      <trkpt lat="43.22366" lon="5.48044">
        <ele>347</ele>
        <time>2025-10-18T13:51:20Z</time>
      </trkpt>
      <trkpt lat="43.22365" lon="5.48044">
        <ele>347</ele>
        <time>2025-10-18T13:51:21Z</time>
      </trkpt>
      <trkpt lat="43.22366" lon="5.48044">
        <ele>347</ele>
        <time>2025-10-18T13:51:22Z</time>
      </trkpt>
      <trkpt lat="43.22366" lon="5.48044">
        <ele>347</ele>
        <time>2025-10-18T13:51:23Z</time>
      </trkpt>
      <trkpt lat="43.22366" lon="5.48044">
        <ele>346.9</ele>
        <time>2025-10-18T13:51:24Z</time>
      </trkpt>
      <trkpt lat="43.22366" lon="5.48044">
        <ele>346.9</ele>
        <time>2025-10-18T13:51:25Z</time>
      </trkpt>
      <trkpt lat="43.22366" lon="5.48044">
        <ele>346.8</ele>
        <time>2025-10-18T13:51:26Z</time>
      </trkpt>
      <trkpt lat="43.22366" lon="5.48044">
        <ele>346.8</ele>
        <time>2025-10-18T13:51:27Z</time>
      </trkpt>
      <trkpt lat="43.22366" lon="5.48044">
        <ele>346.7</ele>
        <time>2025-10-18T13:51:28Z</time>
      </trkpt>
      <trkpt lat="43.22366" lon="5.48044">
        <ele>346.7</ele>
        <time>2025-10-18T13:51:29Z</time>
      </trkpt>
      <trkpt lat="43.22366" lon="5.48044">
        <ele>346.7</ele>
        <time>2025-10-18T13:51:30Z</time>
      </trkpt>
      <trkpt lat="43.22366" lon="5.48043">
        <ele>346.8</ele>
        <time>2025-10-18T13:51:31Z</time>
      </trkpt>
      <trkpt lat="43.22366" lon="5.48043">
        <ele>346.9</ele>
        <time>2025-10-18T13:51:32Z</time>
      </trkpt>
      <trkpt lat="43.22366" lon="5.48043">
        <ele>347</ele>
        <time>2025-10-18T13:51:33Z</time>
      </trkpt>
      <trkpt lat="43.22366" lon="5.48043">
        <ele>347</ele>
        <time>2025-10-18T13:51:34Z</time>
      </trkpt>
      <trkpt lat="43.22366" lon="5.48043">
        <ele>347</ele>
        <time>2025-10-18T13:51:35Z</time>
      </trkpt>
      <trkpt lat="43.22366" lon="5.48042">
        <ele>347</ele>
        <time>2025-10-18T13:51:36Z</time>
      </trkpt>
      <trkpt lat="43.22366" lon="5.48042">
        <ele>347</ele>
        <time>2025-10-18T13:51:37Z</time>
      </trkpt>
      <trkpt lat="43.22366" lon="5.48042">
        <ele>347</ele>
        <time>2025-10-18T13:51:38Z</time>
      </trkpt>
      <trkpt lat="43.22367" lon="5.48042">
        <ele>347.1</ele>
        <time>2025-10-18T13:51:39Z</time>
      </trkpt>
      <trkpt lat="43.22367" lon="5.48042">
        <ele>347.1</ele>
        <time>2025-10-18T13:51:40Z</time>
      </trkpt>
      <trkpt lat="43.22367" lon="5.48042">
        <ele>347.1</ele>
        <time>2025-10-18T13:51:41Z</time>
      </trkpt>
      <trkpt lat="43.22367" lon="5.48042">
        <ele>347</ele>
        <time>2025-10-18T13:51:42Z</time>
      </trkpt>
      <trkpt lat="43.22367" lon="5.48042">
        <ele>347.1</ele>
        <time>2025-10-18T13:51:43Z</time>
      </trkpt>
      <trkpt lat="43.22366" lon="5.48042">
        <ele>347.2</ele>
        <time>2025-10-18T13:51:44Z</time>
      </trkpt>
      <trkpt lat="43.22366" lon="5.48042">
        <ele>347.2</ele>
        <time>2025-10-18T13:51:45Z</time>
      </trkpt>
      <trkpt lat="43.22366" lon="5.48042">
        <ele>347.3</ele>
        <time>2025-10-18T13:51:46Z</time>
      </trkpt>
      <trkpt lat="43.22366" lon="5.48042">
        <ele>347.2</ele>
        <time>2025-10-18T13:51:47Z</time>
      </trkpt>
      <trkpt lat="43.22365" lon="5.48042">
        <ele>347.2</ele>
        <time>2025-10-18T13:51:48Z</time>
      </trkpt>
      <trkpt lat="43.22365" lon="5.48042">
        <ele>347.1</ele>
        <time>2025-10-18T13:51:49Z</time>
      </trkpt>
      <trkpt lat="43.22365" lon="5.48042">
        <ele>347.1</ele>
        <time>2025-10-18T13:51:50Z</time>
      </trkpt>
      <trkpt lat="43.22364" lon="5.48042">
        <ele>347</ele>
        <time>2025-10-18T13:51:51Z</time>
      </trkpt>
      <trkpt lat="43.22364" lon="5.48042">
        <ele>347</ele>
        <time>2025-10-18T13:51:52Z</time>
      </trkpt>
      <trkpt lat="43.22364" lon="5.48042">
        <ele>347.1</ele>
        <time>2025-10-18T13:51:53Z</time>
      </trkpt>
      <trkpt lat="43.22364" lon="5.48042">
        <ele>347.1</ele>
        <time>2025-10-18T13:51:54Z</time>
      </trkpt>
      <trkpt lat="43.22364" lon="5.48042">
        <ele>347.1</ele>
        <time>2025-10-18T13:51:55Z</time>
      </trkpt>
      <trkpt lat="43.22364" lon="5.48042">
        <ele>347</ele>
        <time>2025-10-18T13:51:56Z</time>
      </trkpt>
      <trkpt lat="43.22364" lon="5.48042">
        <ele>347</ele>
        <time>2025-10-18T13:51:57Z</time>
      </trkpt>
      <trkpt lat="43.22363" lon="5.48042">
        <ele>347</ele>
        <time>2025-10-18T13:51:58Z</time>
      </trkpt>
      <trkpt lat="43.22363" lon="5.48042">
        <ele>346.9</ele>
        <time>2025-10-18T13:51:59Z</time>
      </trkpt>
      <trkpt lat="43.22363" lon="5.48042">
        <ele>346.9</ele>
        <time>2025-10-18T13:52:00Z</time>
      </trkpt>
      <trkpt lat="43.22363" lon="5.48042">
        <ele>346.9</ele>
        <time>2025-10-18T13:52:01Z</time>
      </trkpt>
      <trkpt lat="43.22363" lon="5.48042">
        <ele>346.9</ele>
        <time>2025-10-18T13:52:02Z</time>
      </trkpt>
      <trkpt lat="43.22363" lon="5.48042">
        <ele>346.9</ele>
        <time>2025-10-18T13:52:03Z</time>
      </trkpt>
      <trkpt lat="43.22363" lon="5.48043">
        <ele>346.9</ele>
        <time>2025-10-18T13:52:04Z</time>
      </trkpt>
      <trkpt lat="43.22362" lon="5.48043">
        <ele>347</ele>
        <time>2025-10-18T13:52:05Z</time>
      </trkpt>
      <trkpt lat="43.22362" lon="5.48043">
        <ele>347</ele>
        <time>2025-10-18T13:52:06Z</time>
      </trkpt>
      <trkpt lat="43.22362" lon="5.48043">
        <ele>347.1</ele>
        <time>2025-10-18T13:52:07Z</time>
      </trkpt>
      <trkpt lat="43.22362" lon="5.48043">
        <ele>347.1</ele>
        <time>2025-10-18T13:52:08Z</time>
      </trkpt>
      <trkpt lat="43.22362" lon="5.48044">
        <ele>347.1</ele>
        <time>2025-10-18T13:52:09Z</time>
      </trkpt>
      <trkpt lat="43.22361" lon="5.48044">
        <ele>347.1</ele>
        <time>2025-10-18T13:52:10Z</time>
      </trkpt>
      <trkpt lat="43.22361" lon="5.48044">
        <ele>347.1</ele>
        <time>2025-10-18T13:52:11Z</time>
      </trkpt>
      <trkpt lat="43.22361" lon="5.48044">
        <ele>347.2</ele>
        <time>2025-10-18T13:52:12Z</time>
      </trkpt>
      <trkpt lat="43.22361" lon="5.48044">
        <ele>347.2</ele>
        <time>2025-10-18T13:52:13Z</time>
      </trkpt>
      <trkpt lat="43.22361" lon="5.48044">
        <ele>347.3</ele>
        <time>2025-10-18T13:52:14Z</time>
      </trkpt>
      <trkpt lat="43.2236" lon="5.48045">
        <ele>347.3</ele>
        <time>2025-10-18T13:52:15Z</time>
      </trkpt>
      <trkpt lat="43.2236" lon="5.48045">
        <ele>347.3</ele>
        <time>2025-10-18T13:52:16Z</time>
      </trkpt>
      <trkpt lat="43.2236" lon="5.48045">
        <ele>347.4</ele>
        <time>2025-10-18T13:52:17Z</time>
      </trkpt>
      <trkpt lat="43.2236" lon="5.48045">
        <ele>347.3</ele>
        <time>2025-10-18T13:52:18Z</time>
      </trkpt>
      <trkpt lat="43.22359" lon="5.48045">
        <ele>347.3</ele>
        <time>2025-10-18T13:52:19Z</time>
      </trkpt>
      <trkpt lat="43.22359" lon="5.48045">
        <ele>347.3</ele>
        <time>2025-10-18T13:52:20Z</time>
      </trkpt>
      <trkpt lat="43.22359" lon="5.48046">
        <ele>347.3</ele>
        <time>2025-10-18T13:52:21Z</time>
      </trkpt>
      <trkpt lat="43.22359" lon="5.48046">
        <ele>347.3</ele>
        <time>2025-10-18T13:52:22Z</time>
      </trkpt>
      <trkpt lat="43.22359" lon="5.48046">
        <ele>347.3</ele>
        <time>2025-10-18T13:52:23Z</time>
      </trkpt>
      <trkpt lat="43.22359" lon="5.48046">
        <ele>347.3</ele>
        <time>2025-10-18T13:52:24Z</time>
      </trkpt>
      <trkpt lat="43.22359" lon="5.48046">
        <ele>347.3</ele>
        <time>2025-10-18T13:52:25Z</time>
      </trkpt>
      <trkpt lat="43.22359" lon="5.48046">
        <ele>347.3</ele>
        <time>2025-10-18T13:52:26Z</time>
      </trkpt>
      <trkpt lat="43.22359" lon="5.48046">
        <ele>347.3</ele>
        <time>2025-10-18T13:52:27Z</time>
      </trkpt>
      <trkpt lat="43.22359" lon="5.48046">
        <ele>347.3</ele>
        <time>2025-10-18T13:52:28Z</time>
      </trkpt>
      <trkpt lat="43.22359" lon="5.48046">
        <ele>347.4</ele>
        <time>2025-10-18T13:52:29Z</time>
      </trkpt>
      <trkpt lat="43.2236" lon="5.48046">
        <ele>347.4</ele>
        <time>2025-10-18T13:52:30Z</time>
      </trkpt>
      <trkpt lat="43.2236" lon="5.48046">
        <ele>347.4</ele>
        <time>2025-10-18T13:52:31Z</time>
      </trkpt>
      <trkpt lat="43.2236" lon="5.48046">
        <ele>347.4</ele>
        <time>2025-10-18T13:52:32Z</time>
      </trkpt>
      <trkpt lat="43.22361" lon="5.48046">
        <ele>347.4</ele>
        <time>2025-10-18T13:52:33Z</time>
      </trkpt>
      <trkpt lat="43.22361" lon="5.48046">
        <ele>347.3</ele>
        <time>2025-10-18T13:52:34Z</time>
      </trkpt>
      <trkpt lat="43.22361" lon="5.48046">
        <ele>347.2</ele>
        <time>2025-10-18T13:52:35Z</time>
      </trkpt>
      <trkpt lat="43.22362" lon="5.48046">
        <ele>347.2</ele>
        <time>2025-10-18T13:52:36Z</time>
      </trkpt>
      <trkpt lat="43.22362" lon="5.48047">
        <ele>347.2</ele>
        <time>2025-10-18T13:52:37Z</time>
      </trkpt>
      <trkpt lat="43.22362" lon="5.48047">
        <ele>347.1</ele>
        <time>2025-10-18T13:52:38Z</time>
      </trkpt>
      <trkpt lat="43.22363" lon="5.48047">
        <ele>347.1</ele>
        <time>2025-10-18T13:52:39Z</time>
      </trkpt>
      <trkpt lat="43.22363" lon="5.48047">
        <ele>347.1</ele>
        <time>2025-10-18T13:52:40Z</time>
      </trkpt>
      <trkpt lat="43.22364" lon="5.48047">
        <ele>347.1</ele>
        <time>2025-10-18T13:52:41Z</time>
      </trkpt>
      <trkpt lat="43.22364" lon="5.48047">
        <ele>347.2</ele>
        <time>2025-10-18T13:52:42Z</time>
      </trkpt>
      <trkpt lat="43.22364" lon="5.48047">
        <ele>347.2</ele>
        <time>2025-10-18T13:52:43Z</time>
      </trkpt>
      <trkpt lat="43.22365" lon="5.48047">
        <ele>347.2</ele>
        <time>2025-10-18T13:52:44Z</time>
      </trkpt>
      <trkpt lat="43.22365" lon="5.48047">
        <ele>347.2</ele>
        <time>2025-10-18T13:52:45Z</time>
      </trkpt>
      <trkpt lat="43.22365" lon="5.48046">
        <ele>347.1</ele>
        <time>2025-10-18T13:52:46Z</time>
      </trkpt>
      <trkpt lat="43.22366" lon="5.48046">
        <ele>347.1</ele>
        <time>2025-10-18T13:52:47Z</time>
      </trkpt>
      <trkpt lat="43.22366" lon="5.48046">
        <ele>347.1</ele>
        <time>2025-10-18T13:52:48Z</time>
      </trkpt>
      <trkpt lat="43.22367" lon="5.48046">
        <ele>347.2</ele>
        <time>2025-10-18T13:52:49Z</time>
      </trkpt>
      <trkpt lat="43.22367" lon="5.48046">
        <ele>347.2</ele>
        <time>2025-10-18T13:52:50Z</time>
      </trkpt>
      <trkpt lat="43.22368" lon="5.48046">
        <ele>347.2</ele>
        <time>2025-10-18T13:52:51Z</time>
      </trkpt>
      <trkpt lat="43.22368" lon="5.48046">
        <ele>347.2</ele>
        <time>2025-10-18T13:52:52Z</time>
      </trkpt>
      <trkpt lat="43.22369" lon="5.48046">
        <ele>347.2</ele>
        <time>2025-10-18T13:52:53Z</time>
      </trkpt>
      <trkpt lat="43.22369" lon="5.48046">
        <ele>347.2</ele>
        <time>2025-10-18T13:52:54Z</time>
      </trkpt>
      <trkpt lat="43.2237" lon="5.48046">
        <ele>347.3</ele>
        <time>2025-10-18T13:52:55Z</time>
      </trkpt>
      <trkpt lat="43.2237" lon="5.48046">
        <ele>347.3</ele>
        <time>2025-10-18T13:52:56Z</time>
      </trkpt>
      <trkpt lat="43.22371" lon="5.48046">
        <ele>347.2</ele>
        <time>2025-10-18T13:52:57Z</time>
      </trkpt>
      <trkpt lat="43.22372" lon="5.48046">
        <ele>347.1</ele>
        <time>2025-10-18T13:52:58Z</time>
      </trkpt>
      <trkpt lat="43.22372" lon="5.48046">
        <ele>347.2</ele>
        <time>2025-10-18T13:52:59Z</time>
      </trkpt>
      <trkpt lat="43.22373" lon="5.48046">
        <ele>347.2</ele>
        <time>2025-10-18T13:53:00Z</time>
      </trkpt>
      <trkpt lat="43.22373" lon="5.48046">
        <ele>347.2</ele>
        <time>2025-10-18T13:53:01Z</time>
      </trkpt>
      <trkpt lat="43.22373" lon="5.48046">
        <ele>347.3</ele>
        <time>2025-10-18T13:53:02Z</time>
      </trkpt>
      <trkpt lat="43.22374" lon="5.48046">
        <ele>347.3</ele>
        <time>2025-10-18T13:53:03Z</time>
      </trkpt>
      <trkpt lat="43.22374" lon="5.48046">
        <ele>347.3</ele>
        <time>2025-10-18T13:53:04Z</time>
      </trkpt>
      <trkpt lat="43.22374" lon="5.48046">
        <ele>347.3</ele>
        <time>2025-10-18T13:53:05Z</time>
      </trkpt>
      <trkpt lat="43.22375" lon="5.48046">
        <ele>347.3</ele>
        <time>2025-10-18T13:53:06Z</time>
      </trkpt>
      <trkpt lat="43.22375" lon="5.48046">
        <ele>347.3</ele>
        <time>2025-10-18T13:53:07Z</time>
      </trkpt>
      <trkpt lat="43.22375" lon="5.48046">
        <ele>347.3</ele>
        <time>2025-10-18T13:53:08Z</time>
      </trkpt>
      <trkpt lat="43.22375" lon="5.48047">
        <ele>347.3</ele>
        <time>2025-10-18T13:53:09Z</time>
      </trkpt>
      <trkpt lat="43.22376" lon="5.48047">
        <ele>347.4</ele>
        <time>2025-10-18T13:53:10Z</time>
      </trkpt>
      <trkpt lat="43.22376" lon="5.48047">
        <ele>347.4</ele>
        <time>2025-10-18T13:53:11Z</time>
      </trkpt>
      <trkpt lat="43.22376" lon="5.48047">
        <ele>347.4</ele>
        <time>2025-10-18T13:53:12Z</time>
      </trkpt>
      <trkpt lat="43.22377" lon="5.48047">
        <ele>347.4</ele>
        <time>2025-10-18T13:53:13Z</time>
      </trkpt>
      <trkpt lat="43.22377" lon="5.48047">
        <ele>347.3</ele>
        <time>2025-10-18T13:53:14Z</time>
      </trkpt>
      <trkpt lat="43.22377" lon="5.48047">
        <ele>347.3</ele>
        <time>2025-10-18T13:53:15Z</time>
      </trkpt>
      <trkpt lat="43.22377" lon="5.48047">
        <ele>347.2</ele>
        <time>2025-10-18T13:53:16Z</time>
      </trkpt>
      <trkpt lat="43.22377" lon="5.48047">
        <ele>347.3</ele>
        <time>2025-10-18T13:53:17Z</time>
      </trkpt>
      <trkpt lat="43.22377" lon="5.48047">
        <ele>347.2</ele>
        <time>2025-10-18T13:53:18Z</time>
      </trkpt>
      <trkpt lat="43.22378" lon="5.48048">
        <ele>347.1</ele>
        <time>2025-10-18T13:53:19Z</time>
      </trkpt>
      <trkpt lat="43.22378" lon="5.48048">
        <ele>347.1</ele>
        <time>2025-10-18T13:53:20Z</time>
      </trkpt>
      <trkpt lat="43.22379" lon="5.48048">
        <ele>347</ele>
        <time>2025-10-18T13:53:21Z</time>
      </trkpt>
      <trkpt lat="43.22379" lon="5.48048">
        <ele>347</ele>
        <time>2025-10-18T13:53:22Z</time>
      </trkpt>
      <trkpt lat="43.22379" lon="5.48048">
        <ele>346.9</ele>
        <time>2025-10-18T13:53:23Z</time>
      </trkpt>
      <trkpt lat="43.2238" lon="5.48048">
        <ele>346.9</ele>
        <time>2025-10-18T13:53:24Z</time>
      </trkpt>
      <trkpt lat="43.2238" lon="5.48048">
        <ele>347</ele>
        <time>2025-10-18T13:53:25Z</time>
      </trkpt>
      <trkpt lat="43.2238" lon="5.48048">
        <ele>347</ele>
        <time>2025-10-18T13:53:26Z</time>
      </trkpt>
      <trkpt lat="43.2238" lon="5.48048">
        <ele>347</ele>
        <time>2025-10-18T13:53:27Z</time>
      </trkpt>
      <trkpt lat="43.22381" lon="5.48047">
        <ele>347</ele>
        <time>2025-10-18T13:53:28Z</time>
      </trkpt>
      <trkpt lat="43.22381" lon="5.48047">
        <ele>347</ele>
        <time>2025-10-18T13:53:29Z</time>
      </trkpt>
      <trkpt lat="43.22381" lon="5.48047">
        <ele>347</ele>
        <time>2025-10-18T13:53:30Z</time>
      </trkpt>
      <trkpt lat="43.22381" lon="5.48047">
        <ele>347</ele>
        <time>2025-10-18T13:53:31Z</time>
      </trkpt>
      <trkpt lat="43.22381" lon="5.48047">
        <ele>347</ele>
        <time>2025-10-18T13:53:32Z</time>
      </trkpt>
      <trkpt lat="43.22381" lon="5.48047">
        <ele>347</ele>
        <time>2025-10-18T13:53:33Z</time>
      </trkpt>
      <trkpt lat="43.22381" lon="5.48047">
        <ele>347</ele>
        <time>2025-10-18T13:53:34Z</time>
      </trkpt>
      <trkpt lat="43.22381" lon="5.48048">
        <ele>347</ele>
        <time>2025-10-18T13:53:35Z</time>
      </trkpt>
      <trkpt lat="43.22381" lon="5.48048">
        <ele>347</ele>
        <time>2025-10-18T13:53:36Z</time>
      </trkpt>
      <trkpt lat="43.22381" lon="5.48048">
        <ele>347</ele>
        <time>2025-10-18T13:53:37Z</time>
      </trkpt>
      <trkpt lat="43.22381" lon="5.48048">
        <ele>346.9</ele>
        <time>2025-10-18T13:53:38Z</time>
      </trkpt>
      <trkpt lat="43.22381" lon="5.48048">
        <ele>346.9</ele>
        <time>2025-10-18T13:53:39Z</time>
      </trkpt>
      <trkpt lat="43.22381" lon="5.48048">
        <ele>346.9</ele>
        <time>2025-10-18T13:53:40Z</time>
      </trkpt>
      <trkpt lat="43.22381" lon="5.48048">
        <ele>347</ele>
        <time>2025-10-18T13:53:41Z</time>
      </trkpt>
      <trkpt lat="43.22381" lon="5.48048">
        <ele>347</ele>
        <time>2025-10-18T13:53:42Z</time>
      </trkpt>
      <trkpt lat="43.22381" lon="5.48048">
        <ele>347</ele>
        <time>2025-10-18T13:53:43Z</time>
      </trkpt>
      <trkpt lat="43.22381" lon="5.48047">
        <ele>347</ele>
        <time>2025-10-18T13:53:44Z</time>
      </trkpt>
      <trkpt lat="43.22381" lon="5.48047">
        <ele>347</ele>
        <time>2025-10-18T13:53:45Z</time>
      </trkpt>
      <trkpt lat="43.22381" lon="5.48047">
        <ele>347</ele>
        <time>2025-10-18T13:53:46Z</time>
      </trkpt>
      <trkpt lat="43.22381" lon="5.48047">
        <ele>347.1</ele>
        <time>2025-10-18T13:53:47Z</time>
      </trkpt>
      <trkpt lat="43.22381" lon="5.48047">
        <ele>347</ele>
        <time>2025-10-18T13:53:48Z</time>
      </trkpt>
      <trkpt lat="43.22382" lon="5.48047">
        <ele>347</ele>
        <time>2025-10-18T13:53:49Z</time>
      </trkpt>
      <trkpt lat="43.22382" lon="5.48047">
        <ele>347</ele>
        <time>2025-10-18T13:53:50Z</time>
      </trkpt>
      <trkpt lat="43.22382" lon="5.48047">
        <ele>347</ele>
        <time>2025-10-18T13:53:51Z</time>
      </trkpt>
      <trkpt lat="43.22381" lon="5.48046">
        <ele>347</ele>
        <time>2025-10-18T13:53:52Z</time>
      </trkpt>
      <trkpt lat="43.22381" lon="5.48046">
        <ele>347</ele>
        <time>2025-10-18T13:53:53Z</time>
      </trkpt>
      <trkpt lat="43.22381" lon="5.48046">
        <ele>347</ele>
        <time>2025-10-18T13:53:54Z</time>
      </trkpt>
      <trkpt lat="43.22381" lon="5.48046">
        <ele>346.9</ele>
        <time>2025-10-18T13:53:55Z</time>
      </trkpt>
      <trkpt lat="43.22381" lon="5.48046">
        <ele>346.9</ele>
        <time>2025-10-18T13:53:56Z</time>
      </trkpt>
      <trkpt lat="43.22381" lon="5.48046">
        <ele>346.9</ele>
        <time>2025-10-18T13:53:57Z</time>
      </trkpt>
      <trkpt lat="43.2238" lon="5.48045">
        <ele>346.9</ele>
        <time>2025-10-18T13:53:58Z</time>
      </trkpt>
      <trkpt lat="43.2238" lon="5.48045">
        <ele>346.9</ele>
        <time>2025-10-18T13:53:59Z</time>
      </trkpt>
      <trkpt lat="43.22379" lon="5.48045">
        <ele>346.9</ele>
        <time>2025-10-18T13:54:00Z</time>
      </trkpt>
      <trkpt lat="43.22379" lon="5.48044">
        <ele>346.9</ele>
        <time>2025-10-18T13:54:01Z</time>
      </trkpt>
      <trkpt lat="43.22378" lon="5.48043">
        <ele>346.9</ele>
        <time>2025-10-18T13:54:02Z</time>
      </trkpt>
      <trkpt lat="43.22377" lon="5.48043">
        <ele>346.9</ele>
        <time>2025-10-18T13:54:03Z</time>
      </trkpt>
      <trkpt lat="43.22377" lon="5.48042">
        <ele>347</ele>
        <time>2025-10-18T13:54:04Z</time>
      </trkpt>
      <trkpt lat="43.22377" lon="5.48042">
        <ele>347</ele>
        <time>2025-10-18T13:54:05Z</time>
      </trkpt>
      <trkpt lat="43.22377" lon="5.48042">
        <ele>347</ele>
        <time>2025-10-18T13:54:06Z</time>
      </trkpt>
      <trkpt lat="43.22377" lon="5.48042">
        <ele>347</ele>
        <time>2025-10-18T13:54:07Z</time>
      </trkpt>
      <trkpt lat="43.22377" lon="5.48042">
        <ele>347</ele>
        <time>2025-10-18T13:54:08Z</time>
      </trkpt>
      <trkpt lat="43.22378" lon="5.48042">
        <ele>347</ele>
        <time>2025-10-18T13:54:09Z</time>
      </trkpt>
      <trkpt lat="43.22378" lon="5.48043">
        <ele>347</ele>
        <time>2025-10-18T13:54:10Z</time>
      </trkpt>
      <trkpt lat="43.22379" lon="5.48043">
        <ele>347</ele>
        <time>2025-10-18T13:54:11Z</time>
      </trkpt>
      <trkpt lat="43.22379" lon="5.48043">
        <ele>347.1</ele>
        <time>2025-10-18T13:54:12Z</time>
      </trkpt>
      <trkpt lat="43.22379" lon="5.48043">
        <ele>347.1</ele>
        <time>2025-10-18T13:54:13Z</time>
      </trkpt>
      <trkpt lat="43.2238" lon="5.48044">
        <ele>347.1</ele>
        <time>2025-10-18T13:54:14Z</time>
      </trkpt>
      <trkpt lat="43.22381" lon="5.48044">
        <ele>347.1</ele>
        <time>2025-10-18T13:54:15Z</time>
      </trkpt>
      <trkpt lat="43.22382" lon="5.48045">
        <ele>347.1</ele>
        <time>2025-10-18T13:54:16Z</time>
      </trkpt>
      <trkpt lat="43.22382" lon="5.48045">
        <ele>347.1</ele>
        <time>2025-10-18T13:54:17Z</time>
      </trkpt>
      <trkpt lat="43.22383" lon="5.48046">
        <ele>347.1</ele>
        <time>2025-10-18T13:54:18Z</time>
      </trkpt>
      <trkpt lat="43.22383" lon="5.48046">
        <ele>347.2</ele>
        <time>2025-10-18T13:54:19Z</time>
      </trkpt>
      <trkpt lat="43.22384" lon="5.48046">
        <ele>347.2</ele>
        <time>2025-10-18T13:54:20Z</time>
      </trkpt>
      <trkpt lat="43.22384" lon="5.48047">
        <ele>347.2</ele>
        <time>2025-10-18T13:54:21Z</time>
      </trkpt>
      <trkpt lat="43.22384" lon="5.48046">
        <ele>347.2</ele>
        <time>2025-10-18T13:54:22Z</time>
      </trkpt>
      <trkpt lat="43.22384" lon="5.48046">
        <ele>347.1</ele>
        <time>2025-10-18T13:54:23Z</time>
      </trkpt>
      <trkpt lat="43.22383" lon="5.48045">
        <ele>347.1</ele>
        <time>2025-10-18T13:54:24Z</time>
      </trkpt>
      <trkpt lat="43.22383" lon="5.48045">
        <ele>347.1</ele>
        <time>2025-10-18T13:54:25Z</time>
      </trkpt>
      <trkpt lat="43.22382" lon="5.48044">
        <ele>347.1</ele>
        <time>2025-10-18T13:54:26Z</time>
      </trkpt>
      <trkpt lat="43.22382" lon="5.48044">
        <ele>347.1</ele>
        <time>2025-10-18T13:54:27Z</time>
      </trkpt>
      <trkpt lat="43.22382" lon="5.48043">
        <ele>347.1</ele>
        <time>2025-10-18T13:54:28Z</time>
      </trkpt>
      <trkpt lat="43.22382" lon="5.48043">
        <ele>347</ele>
        <time>2025-10-18T13:54:29Z</time>
      </trkpt>
      <trkpt lat="43.22382" lon="5.48043">
        <ele>347</ele>
        <time>2025-10-18T13:54:30Z</time>
      </trkpt>
      <trkpt lat="43.22381" lon="5.48042">
        <ele>347</ele>
        <time>2025-10-18T13:54:31Z</time>
      </trkpt>
      <trkpt lat="43.22381" lon="5.48042">
        <ele>347.1</ele>
        <time>2025-10-18T13:54:32Z</time>
      </trkpt>
      <trkpt lat="43.22381" lon="5.48042">
        <ele>347.1</ele>
        <time>2025-10-18T13:54:33Z</time>
      </trkpt>
      <trkpt lat="43.22381" lon="5.48041">
        <ele>347.1</ele>
        <time>2025-10-18T13:54:34Z</time>
      </trkpt>
      <trkpt lat="43.22381" lon="5.48041">
        <ele>347</ele>
        <time>2025-10-18T13:54:35Z</time>
      </trkpt>
      <trkpt lat="43.22381" lon="5.48041">
        <ele>347.1</ele>
        <time>2025-10-18T13:54:36Z</time>
      </trkpt>
      <trkpt lat="43.22381" lon="5.48041">
        <ele>347.1</ele>
        <time>2025-10-18T13:54:37Z</time>
      </trkpt>
      <trkpt lat="43.22381" lon="5.48041">
        <ele>347.1</ele>
        <time>2025-10-18T13:54:38Z</time>
      </trkpt>
      <trkpt lat="43.22381" lon="5.48041">
        <ele>347.1</ele>
        <time>2025-10-18T13:54:39Z</time>
      </trkpt>
      <trkpt lat="43.22381" lon="5.48041">
        <ele>347</ele>
        <time>2025-10-18T13:54:40Z</time>
      </trkpt>
      <trkpt lat="43.22382" lon="5.48041">
        <ele>347</ele>
        <time>2025-10-18T13:54:41Z</time>
      </trkpt>
      <trkpt lat="43.22382" lon="5.48041">
        <ele>346.9</ele>
        <time>2025-10-18T13:54:42Z</time>
      </trkpt>
      <trkpt lat="43.22382" lon="5.48041">
        <ele>346.9</ele>
        <time>2025-10-18T13:54:43Z</time>
      </trkpt>
      <trkpt lat="43.22381" lon="5.48041">
        <ele>346.9</ele>
        <time>2025-10-18T13:54:44Z</time>
      </trkpt>
      <trkpt lat="43.22381" lon="5.48041">
        <ele>346.9</ele>
        <time>2025-10-18T13:54:45Z</time>
      </trkpt>
      <trkpt lat="43.22381" lon="5.48041">
        <ele>346.9</ele>
        <time>2025-10-18T13:54:46Z</time>
      </trkpt>
      <trkpt lat="43.22381" lon="5.48041">
        <ele>346.8</ele>
        <time>2025-10-18T13:54:47Z</time>
      </trkpt>
      <trkpt lat="43.22381" lon="5.48041">
        <ele>346.8</ele>
        <time>2025-10-18T13:54:48Z</time>
      </trkpt>
      <trkpt lat="43.22381" lon="5.48041">
        <ele>346.8</ele>
        <time>2025-10-18T13:54:49Z</time>
      </trkpt>
      <trkpt lat="43.22381" lon="5.48041">
        <ele>346.9</ele>
        <time>2025-10-18T13:54:50Z</time>
      </trkpt>
      <trkpt lat="43.22381" lon="5.48041">
        <ele>346.8</ele>
        <time>2025-10-18T13:54:51Z</time>
      </trkpt>
      <trkpt lat="43.22381" lon="5.48041">
        <ele>346.8</ele>
        <time>2025-10-18T13:54:52Z</time>
      </trkpt>
      <trkpt lat="43.2238" lon="5.48041">
        <ele>346.8</ele>
        <time>2025-10-18T13:54:53Z</time>
      </trkpt>
      <trkpt lat="43.2238" lon="5.48041">
        <ele>346.8</ele>
        <time>2025-10-18T13:54:54Z</time>
      </trkpt>
      <trkpt lat="43.2238" lon="5.48041">
        <ele>346.8</ele>
        <time>2025-10-18T13:54:55Z</time>
      </trkpt>
      <trkpt lat="43.2238" lon="5.4804">
        <ele>346.9</ele>
        <time>2025-10-18T13:54:56Z</time>
      </trkpt>
      <trkpt lat="43.2238" lon="5.4804">
        <ele>346.9</ele>
        <time>2025-10-18T13:54:57Z</time>
      </trkpt>
      <trkpt lat="43.2238" lon="5.4804">
        <ele>346.9</ele>
        <time>2025-10-18T13:54:58Z</time>
      </trkpt>
      <trkpt lat="43.22379" lon="5.4804">
        <ele>346.9</ele>
        <time>2025-10-18T13:54:59Z</time>
      </trkpt>
      <trkpt lat="43.22379" lon="5.4804">
        <ele>347</ele>
        <time>2025-10-18T13:55:00Z</time>
      </trkpt>
      <trkpt lat="43.22379" lon="5.4804">
        <ele>347</ele>
        <time>2025-10-18T13:55:01Z</time>
      </trkpt>
      <trkpt lat="43.22379" lon="5.4804">
        <ele>347</ele>
        <time>2025-10-18T13:55:02Z</time>
      </trkpt>
      <trkpt lat="43.22379" lon="5.4804">
        <ele>347.1</ele>
        <time>2025-10-18T13:55:03Z</time>
      </trkpt>
      <trkpt lat="43.22379" lon="5.4804">
        <ele>347.1</ele>
        <time>2025-10-18T13:55:04Z</time>
      </trkpt>
      <trkpt lat="43.2238" lon="5.4804">
        <ele>347.1</ele>
        <time>2025-10-18T13:55:05Z</time>
      </trkpt>
      <trkpt lat="43.2238" lon="5.4804">
        <ele>347.1</ele>
        <time>2025-10-18T13:55:06Z</time>
      </trkpt>
      <trkpt lat="43.2238" lon="5.48041">
        <ele>347.1</ele>
        <time>2025-10-18T13:55:07Z</time>
      </trkpt>
      <trkpt lat="43.2238" lon="5.48041">
        <ele>347.1</ele>
        <time>2025-10-18T13:55:08Z</time>
      </trkpt>
      <trkpt lat="43.2238" lon="5.48041">
        <ele>347.1</ele>
        <time>2025-10-18T13:55:09Z</time>
      </trkpt>
      <trkpt lat="43.2238" lon="5.48041">
        <ele>347.1</ele>
        <time>2025-10-18T13:55:10Z</time>
      </trkpt>
      <trkpt lat="43.22381" lon="5.4804">
        <ele>347.1</ele>
        <time>2025-10-18T13:55:11Z</time>
      </trkpt>
      <trkpt lat="43.22381" lon="5.4804">
        <ele>347.1</ele>
        <time>2025-10-18T13:55:12Z</time>
      </trkpt>
      <trkpt lat="43.22381" lon="5.4804">
        <ele>347.1</ele>
        <time>2025-10-18T13:55:13Z</time>
      </trkpt>
      <trkpt lat="43.22381" lon="5.4804">
        <ele>347.1</ele>
        <time>2025-10-18T13:55:14Z</time>
      </trkpt>
      <trkpt lat="43.22381" lon="5.4804">
        <ele>347.1</ele>
        <time>2025-10-18T13:55:15Z</time>
      </trkpt>
      <trkpt lat="43.22381" lon="5.4804">
        <ele>347.1</ele>
        <time>2025-10-18T13:55:16Z</time>
      </trkpt>
      <trkpt lat="43.2238" lon="5.4804">
        <ele>347.2</ele>
        <time>2025-10-18T13:55:17Z</time>
      </trkpt>
      <trkpt lat="43.2238" lon="5.48039">
        <ele>347.2</ele>
        <time>2025-10-18T13:55:18Z</time>
      </trkpt>
      <trkpt lat="43.2238" lon="5.4804">
        <ele>347.2</ele>
        <time>2025-10-18T13:55:19Z</time>
      </trkpt>
      <trkpt lat="43.2238" lon="5.48039">
        <ele>347.1</ele>
        <time>2025-10-18T13:55:20Z</time>
      </trkpt>
      <trkpt lat="43.2238" lon="5.48039">
        <ele>347.2</ele>
        <time>2025-10-18T13:55:21Z</time>
      </trkpt>
      <trkpt lat="43.22379" lon="5.48039">
        <ele>347.3</ele>
        <time>2025-10-18T13:55:22Z</time>
      </trkpt>
      <trkpt lat="43.22379" lon="5.48039">
        <ele>347.2</ele>
        <time>2025-10-18T13:55:23Z</time>
      </trkpt>
      <trkpt lat="43.22379" lon="5.48039">
        <ele>347.1</ele>
        <time>2025-10-18T13:55:24Z</time>
      </trkpt>
      <trkpt lat="43.22379" lon="5.48039">
        <ele>347</ele>
        <time>2025-10-18T13:55:25Z</time>
      </trkpt>
      <trkpt lat="43.22378" lon="5.48039">
        <ele>347</ele>
        <time>2025-10-18T13:55:26Z</time>
      </trkpt>
      <trkpt lat="43.22378" lon="5.48039">
        <ele>347</ele>
        <time>2025-10-18T13:55:27Z</time>
      </trkpt>
      <trkpt lat="43.22378" lon="5.48039">
        <ele>347</ele>
        <time>2025-10-18T13:55:28Z</time>
      </trkpt>
      <trkpt lat="43.22378" lon="5.48039">
        <ele>347</ele>
        <time>2025-10-18T13:55:29Z</time>
      </trkpt>
      <trkpt lat="43.22378" lon="5.48038">
        <ele>347.1</ele>
        <time>2025-10-18T13:55:30Z</time>
      </trkpt>
      <trkpt lat="43.22378" lon="5.48038">
        <ele>347.1</ele>
        <time>2025-10-18T13:55:31Z</time>
      </trkpt>
      <trkpt lat="43.22378" lon="5.48038">
        <ele>347.1</ele>
        <time>2025-10-18T13:55:32Z</time>
      </trkpt>
      <trkpt lat="43.22378" lon="5.48038">
        <ele>347.1</ele>
        <time>2025-10-18T13:55:33Z</time>
      </trkpt>
      <trkpt lat="43.22378" lon="5.48038">
        <ele>347.1</ele>
        <time>2025-10-18T13:55:34Z</time>
      </trkpt>
      <trkpt lat="43.22379" lon="5.48038">
        <ele>347.1</ele>
        <time>2025-10-18T13:55:35Z</time>
      </trkpt>
      <trkpt lat="43.22379" lon="5.48038">
        <ele>347.2</ele>
        <time>2025-10-18T13:55:36Z</time>
      </trkpt>
      <trkpt lat="43.22379" lon="5.48038">
        <ele>347.2</ele>
        <time>2025-10-18T13:55:37Z</time>
      </trkpt>
      <trkpt lat="43.22379" lon="5.48037">
        <ele>347.3</ele>
        <time>2025-10-18T13:55:38Z</time>
      </trkpt>
      <trkpt lat="43.22379" lon="5.48037">
        <ele>347.3</ele>
        <time>2025-10-18T13:55:39Z</time>
      </trkpt>
      <trkpt lat="43.2238" lon="5.48037">
        <ele>347.3</ele>
        <time>2025-10-18T13:55:40Z</time>
      </trkpt>
      <trkpt lat="43.2238" lon="5.48037">
        <ele>347.3</ele>
        <time>2025-10-18T13:55:41Z</time>
      </trkpt>
      <trkpt lat="43.2238" lon="5.48037">
        <ele>347.4</ele>
        <time>2025-10-18T13:55:42Z</time>
      </trkpt>
      <trkpt lat="43.2238" lon="5.48037">
        <ele>347.4</ele>
        <time>2025-10-18T13:55:43Z</time>
      </trkpt>
      <trkpt lat="43.22381" lon="5.48037">
        <ele>347.4</ele>
        <time>2025-10-18T13:55:44Z</time>
      </trkpt>
      <trkpt lat="43.22381" lon="5.48037">
        <ele>347.3</ele>
        <time>2025-10-18T13:55:45Z</time>
      </trkpt>
      <trkpt lat="43.22381" lon="5.48037">
        <ele>347.3</ele>
        <time>2025-10-18T13:55:46Z</time>
      </trkpt>
      <trkpt lat="43.22382" lon="5.48037">
        <ele>347.3</ele>
        <time>2025-10-18T13:55:47Z</time>
      </trkpt>
      <trkpt lat="43.22382" lon="5.48037">
        <ele>347.2</ele>
        <time>2025-10-18T13:55:48Z</time>
      </trkpt>
      <trkpt lat="43.22382" lon="5.48038">
        <ele>347.2</ele>
        <time>2025-10-18T13:55:49Z</time>
      </trkpt>
      <trkpt lat="43.22383" lon="5.48038">
        <ele>347.1</ele>
        <time>2025-10-18T13:55:50Z</time>
      </trkpt>
      <trkpt lat="43.22383" lon="5.48038">
        <ele>347.1</ele>
        <time>2025-10-18T13:55:51Z</time>
      </trkpt>
      <trkpt lat="43.22384" lon="5.48038">
        <ele>347.2</ele>
        <time>2025-10-18T13:55:52Z</time>
      </trkpt>
      <trkpt lat="43.22384" lon="5.48039">
        <ele>347.3</ele>
        <time>2025-10-18T13:55:53Z</time>
      </trkpt>
      <trkpt lat="43.22384" lon="5.48039">
        <ele>347.3</ele>
        <time>2025-10-18T13:55:54Z</time>
      </trkpt>
      <trkpt lat="43.22385" lon="5.48039">
        <ele>347.3</ele>
        <time>2025-10-18T13:55:55Z</time>
      </trkpt>
      <trkpt lat="43.22385" lon="5.48039">
        <ele>347.4</ele>
        <time>2025-10-18T13:55:56Z</time>
      </trkpt>
      <trkpt lat="43.22385" lon="5.48039">
        <ele>347.4</ele>
        <time>2025-10-18T13:55:57Z</time>
      </trkpt>
      <trkpt lat="43.22385" lon="5.48039">
        <ele>347.4</ele>
        <time>2025-10-18T13:55:58Z</time>
      </trkpt>
      <trkpt lat="43.22385" lon="5.48039">
        <ele>347.4</ele>
        <time>2025-10-18T13:55:59Z</time>
      </trkpt>
      <trkpt lat="43.22385" lon="5.48039">
        <ele>347.5</ele>
        <time>2025-10-18T13:56:00Z</time>
      </trkpt>
      <trkpt lat="43.22385" lon="5.48039">
        <ele>347.5</ele>
        <time>2025-10-18T13:56:01Z</time>
      </trkpt>
      <trkpt lat="43.22385" lon="5.48039">
        <ele>347.5</ele>
        <time>2025-10-18T13:56:02Z</time>
      </trkpt>
      <trkpt lat="43.22386" lon="5.4804">
        <ele>347.4</ele>
        <time>2025-10-18T13:56:03Z</time>
      </trkpt>
      <trkpt lat="43.22386" lon="5.4804">
        <ele>347.4</ele>
        <time>2025-10-18T13:56:04Z</time>
      </trkpt>
      <trkpt lat="43.22386" lon="5.4804">
        <ele>347.4</ele>
        <time>2025-10-18T13:56:05Z</time>
      </trkpt>
      <trkpt lat="43.22386" lon="5.4804">
        <ele>347.4</ele>
        <time>2025-10-18T13:56:06Z</time>
      </trkpt>
      <trkpt lat="43.22386" lon="5.4804">
        <ele>347.4</ele>
        <time>2025-10-18T13:56:07Z</time>
      </trkpt>
      <trkpt lat="43.22386" lon="5.4804">
        <ele>347.3</ele>
        <time>2025-10-18T13:56:08Z</time>
      </trkpt>
      <trkpt lat="43.22386" lon="5.4804">
        <ele>347.3</ele>
        <time>2025-10-18T13:56:09Z</time>
      </trkpt>
      <trkpt lat="43.22387" lon="5.4804">
        <ele>347.3</ele>
        <time>2025-10-18T13:56:10Z</time>
      </trkpt>
      <trkpt lat="43.22387" lon="5.4804">
        <ele>347.2</ele>
        <time>2025-10-18T13:56:11Z</time>
      </trkpt>
      <trkpt lat="43.22387" lon="5.4804">
        <ele>347.2</ele>
        <time>2025-10-18T13:56:12Z</time>
      </trkpt>
      <trkpt lat="43.22388" lon="5.4804">
        <ele>347.1</ele>
        <time>2025-10-18T13:56:13Z</time>
      </trkpt>
      <trkpt lat="43.22388" lon="5.4804">
        <ele>347.1</ele>
        <time>2025-10-18T13:56:14Z</time>
      </trkpt>
      <trkpt lat="43.22388" lon="5.48041">
        <ele>347.1</ele>
        <time>2025-10-18T13:56:15Z</time>
      </trkpt>
      <trkpt lat="43.22389" lon="5.48041">
        <ele>347.1</ele>
        <time>2025-10-18T13:56:16Z</time>
      </trkpt>
      <trkpt lat="43.22389" lon="5.48041">
        <ele>347.1</ele>
        <time>2025-10-18T13:56:17Z</time>
      </trkpt>
      <trkpt lat="43.22389" lon="5.48041">
        <ele>347.1</ele>
        <time>2025-10-18T13:56:18Z</time>
      </trkpt>
      <trkpt lat="43.2239" lon="5.48042">
        <ele>347.1</ele>
        <time>2025-10-18T13:56:19Z</time>
      </trkpt>
      <trkpt lat="43.2239" lon="5.48042">
        <ele>347.1</ele>
        <time>2025-10-18T13:56:20Z</time>
      </trkpt>
      <trkpt lat="43.2239" lon="5.48042">
        <ele>347.1</ele>
        <time>2025-10-18T13:56:21Z</time>
      </trkpt>
      <trkpt lat="43.2239" lon="5.48042">
        <ele>347.1</ele>
        <time>2025-10-18T13:56:22Z</time>
      </trkpt>
      <trkpt lat="43.2239" lon="5.48042">
        <ele>347.1</ele>
        <time>2025-10-18T13:56:23Z</time>
      </trkpt>
      <trkpt lat="43.2239" lon="5.48042">
        <ele>347</ele>
        <time>2025-10-18T13:56:24Z</time>
      </trkpt>
      <trkpt lat="43.2239" lon="5.48042">
        <ele>347</ele>
        <time>2025-10-18T13:56:25Z</time>
      </trkpt>
      <trkpt lat="43.2239" lon="5.48041">
        <ele>347</ele>
        <time>2025-10-18T13:56:26Z</time>
      </trkpt>
      <trkpt lat="43.22389" lon="5.48041">
        <ele>347</ele>
        <time>2025-10-18T13:56:27Z</time>
      </trkpt>
      <trkpt lat="43.22389" lon="5.48041">
        <ele>347</ele>
        <time>2025-10-18T13:56:28Z</time>
      </trkpt>
      <trkpt lat="43.22389" lon="5.48041">
        <ele>347.1</ele>
        <time>2025-10-18T13:56:29Z</time>
      </trkpt>
      <trkpt lat="43.22389" lon="5.4804">
        <ele>347</ele>
        <time>2025-10-18T13:56:30Z</time>
      </trkpt>
      <trkpt lat="43.22389" lon="5.4804">
        <ele>347</ele>
        <time>2025-10-18T13:56:31Z</time>
      </trkpt>
      <trkpt lat="43.22389" lon="5.4804">
        <ele>347</ele>
        <time>2025-10-18T13:56:32Z</time>
      </trkpt>
      <trkpt lat="43.22389" lon="5.4804">
        <ele>347</ele>
        <time>2025-10-18T13:56:33Z</time>
      </trkpt>
      <trkpt lat="43.22389" lon="5.4804">
        <ele>347</ele>
        <time>2025-10-18T13:56:34Z</time>
      </trkpt>
      <trkpt lat="43.22389" lon="5.4804">
        <ele>347</ele>
        <time>2025-10-18T13:56:35Z</time>
      </trkpt>
      <trkpt lat="43.22388" lon="5.48039">
        <ele>347</ele>
        <time>2025-10-18T13:56:36Z</time>
      </trkpt>
      <trkpt lat="43.22388" lon="5.48039">
        <ele>347.1</ele>
        <time>2025-10-18T13:56:37Z</time>
      </trkpt>
      <trkpt lat="43.22388" lon="5.48039">
        <ele>347</ele>
        <time>2025-10-18T13:56:38Z</time>
      </trkpt>
      <trkpt lat="43.22388" lon="5.48039">
        <ele>347</ele>
        <time>2025-10-18T13:56:39Z</time>
      </trkpt>
      <trkpt lat="43.22388" lon="5.48039">
        <ele>347</ele>
        <time>2025-10-18T13:56:40Z</time>
      </trkpt>
      <trkpt lat="43.22387" lon="5.48039">
        <ele>347.1</ele>
        <time>2025-10-18T13:56:41Z</time>
      </trkpt>
      <trkpt lat="43.22387" lon="5.48039">
        <ele>347.1</ele>
        <time>2025-10-18T13:56:42Z</time>
      </trkpt>
      <trkpt lat="43.22387" lon="5.48039">
        <ele>347.1</ele>
        <time>2025-10-18T13:56:43Z</time>
      </trkpt>
      <trkpt lat="43.22387" lon="5.48039">
        <ele>347.2</ele>
        <time>2025-10-18T13:56:44Z</time>
      </trkpt>
      <trkpt lat="43.22387" lon="5.48038">
        <ele>347.2</ele>
        <time>2025-10-18T13:56:45Z</time>
      </trkpt>
      <trkpt lat="43.22387" lon="5.48038">
        <ele>347.2</ele>
        <time>2025-10-18T13:56:46Z</time>
      </trkpt>
      <trkpt lat="43.22387" lon="5.48039">
        <ele>347.2</ele>
        <time>2025-10-18T13:56:47Z</time>
      </trkpt>
      <trkpt lat="43.22387" lon="5.48039">
        <ele>347.2</ele>
        <time>2025-10-18T13:56:48Z</time>
      </trkpt>
      <trkpt lat="43.22387" lon="5.48039">
        <ele>347.2</ele>
        <time>2025-10-18T13:56:49Z</time>
      </trkpt>
      <trkpt lat="43.22387" lon="5.48039">
        <ele>347.1</ele>
        <time>2025-10-18T13:56:50Z</time>
      </trkpt>
      <trkpt lat="43.22387" lon="5.48039">
        <ele>347.1</ele>
        <time>2025-10-18T13:56:51Z</time>
      </trkpt>
      <trkpt lat="43.22387" lon="5.48039">
        <ele>347.1</ele>
        <time>2025-10-18T13:56:52Z</time>
      </trkpt>
      <trkpt lat="43.22388" lon="5.48039">
        <ele>347.1</ele>
        <time>2025-10-18T13:56:53Z</time>
      </trkpt>
      <trkpt lat="43.22388" lon="5.48039">
        <ele>347.1</ele>
        <time>2025-10-18T13:56:54Z</time>
      </trkpt>
      <trkpt lat="43.22388" lon="5.48039">
        <ele>347.1</ele>
        <time>2025-10-18T13:56:55Z</time>
      </trkpt>
      <trkpt lat="43.22389" lon="5.48039">
        <ele>347.2</ele>
        <time>2025-10-18T13:56:56Z</time>
      </trkpt>
      <trkpt lat="43.22389" lon="5.48039">
        <ele>347.2</ele>
        <time>2025-10-18T13:56:57Z</time>
      </trkpt>
      <trkpt lat="43.22389" lon="5.48039">
        <ele>347.1</ele>
        <time>2025-10-18T13:56:58Z</time>
      </trkpt>
      <trkpt lat="43.22389" lon="5.48038">
        <ele>347.1</ele>
        <time>2025-10-18T13:56:59Z</time>
      </trkpt>
      <trkpt lat="43.22389" lon="5.48038">
        <ele>347.1</ele>
        <time>2025-10-18T13:57:00Z</time>
      </trkpt>
      <trkpt lat="43.22389" lon="5.48038">
        <ele>347.1</ele>
        <time>2025-10-18T13:57:01Z</time>
      </trkpt>
      <trkpt lat="43.22389" lon="5.48038">
        <ele>347.2</ele>
        <time>2025-10-18T13:57:02Z</time>
      </trkpt>
      <trkpt lat="43.22389" lon="5.48038">
        <ele>347.2</ele>
        <time>2025-10-18T13:57:03Z</time>
      </trkpt>
      <trkpt lat="43.22389" lon="5.48038">
        <ele>347.1</ele>
        <time>2025-10-18T13:57:04Z</time>
      </trkpt>
      <trkpt lat="43.22389" lon="5.48038">
        <ele>347.1</ele>
        <time>2025-10-18T13:57:05Z</time>
      </trkpt>
      <trkpt lat="43.22389" lon="5.48038">
        <ele>347</ele>
        <time>2025-10-18T13:57:06Z</time>
      </trkpt>
      <trkpt lat="43.22389" lon="5.48038">
        <ele>347</ele>
        <time>2025-10-18T13:57:07Z</time>
      </trkpt>
      <trkpt lat="43.22389" lon="5.48038">
        <ele>347</ele>
        <time>2025-10-18T13:57:08Z</time>
      </trkpt>
      <trkpt lat="43.2239" lon="5.48038">
        <ele>347</ele>
        <time>2025-10-18T13:57:09Z</time>
      </trkpt>
      <trkpt lat="43.2239" lon="5.48038">
        <ele>347</ele>
        <time>2025-10-18T13:57:10Z</time>
      </trkpt>
      <trkpt lat="43.2239" lon="5.48038">
        <ele>347</ele>
        <time>2025-10-18T13:57:11Z</time>
      </trkpt>
      <trkpt lat="43.2239" lon="5.48038">
        <ele>347</ele>
        <time>2025-10-18T13:57:12Z</time>
      </trkpt>
      <trkpt lat="43.22391" lon="5.48038">
        <ele>347</ele>
        <time>2025-10-18T13:57:13Z</time>
      </trkpt>
      <trkpt lat="43.22391" lon="5.48038">
        <ele>347.1</ele>
        <time>2025-10-18T13:57:14Z</time>
      </trkpt>
      <trkpt lat="43.22391" lon="5.48038">
        <ele>347.1</ele>
        <time>2025-10-18T13:57:15Z</time>
      </trkpt>
      <trkpt lat="43.22391" lon="5.48038">
        <ele>347.1</ele>
        <time>2025-10-18T13:57:16Z</time>
      </trkpt>
      <trkpt lat="43.22391" lon="5.48039">
        <ele>347.1</ele>
        <time>2025-10-18T13:57:17Z</time>
      </trkpt>
      <trkpt lat="43.22392" lon="5.48041">
        <ele>347.2</ele>
        <time>2025-10-18T13:57:18Z</time>
      </trkpt>
      <trkpt lat="43.22392" lon="5.48042">
        <ele>347.3</ele>
        <time>2025-10-18T13:57:19Z</time>
      </trkpt>
      <trkpt lat="43.22392" lon="5.48042">
        <ele>347.3</ele>
        <time>2025-10-18T13:57:20Z</time>
      </trkpt>
      <trkpt lat="43.22392" lon="5.48043">
        <ele>347.3</ele>
        <time>2025-10-18T13:57:21Z</time>
      </trkpt>
      <trkpt lat="43.22392" lon="5.48044">
        <ele>347.3</ele>
        <time>2025-10-18T13:57:22Z</time>
      </trkpt>
      <trkpt lat="43.22392" lon="5.48045">
        <ele>347.4</ele>
        <time>2025-10-18T13:57:23Z</time>
      </trkpt>
      <trkpt lat="43.22392" lon="5.48045">
        <ele>347.4</ele>
        <time>2025-10-18T13:57:24Z</time>
      </trkpt>
      <trkpt lat="43.22392" lon="5.48045">
        <ele>347.4</ele>
        <time>2025-10-18T13:57:25Z</time>
      </trkpt>
      <trkpt lat="43.22392" lon="5.48045">
        <ele>347.4</ele>
        <time>2025-10-18T13:57:26Z</time>
      </trkpt>
      <trkpt lat="43.22392" lon="5.48045">
        <ele>347.4</ele>
        <time>2025-10-18T13:57:27Z</time>
      </trkpt>
      <trkpt lat="43.22392" lon="5.48046">
        <ele>347.3</ele>
        <time>2025-10-18T13:57:28Z</time>
      </trkpt>
      <trkpt lat="43.22391" lon="5.48047">
        <ele>347.3</ele>
        <time>2025-10-18T13:57:29Z</time>
      </trkpt>
      <trkpt lat="43.22391" lon="5.48048">
        <ele>347.2</ele>
        <time>2025-10-18T13:57:30Z</time>
      </trkpt>
      <trkpt lat="43.22391" lon="5.48049">
        <ele>347.2</ele>
        <time>2025-10-18T13:57:31Z</time>
      </trkpt>
      <trkpt lat="43.22391" lon="5.48049">
        <ele>347.3</ele>
        <time>2025-10-18T13:57:32Z</time>
      </trkpt>
      <trkpt lat="43.22391" lon="5.4805">
        <ele>347.3</ele>
        <time>2025-10-18T13:57:33Z</time>
      </trkpt>
      <trkpt lat="43.2239" lon="5.4805">
        <ele>347.3</ele>
        <time>2025-10-18T13:57:34Z</time>
      </trkpt>
      <trkpt lat="43.2239" lon="5.4805">
        <ele>347.3</ele>
        <time>2025-10-18T13:57:35Z</time>
      </trkpt>
      <trkpt lat="43.2239" lon="5.4805">
        <ele>347.2</ele>
        <time>2025-10-18T13:57:36Z</time>
      </trkpt>
      <trkpt lat="43.22391" lon="5.4805">
        <ele>347.2</ele>
        <time>2025-10-18T13:57:37Z</time>
      </trkpt>
      <trkpt lat="43.2239" lon="5.48051">
        <ele>347.3</ele>
        <time>2025-10-18T13:57:38Z</time>
      </trkpt>
      <trkpt lat="43.2239" lon="5.48051">
        <ele>347.3</ele>
        <time>2025-10-18T13:57:39Z</time>
      </trkpt>
      <trkpt lat="43.2239" lon="5.48051">
        <ele>347.3</ele>
        <time>2025-10-18T13:57:40Z</time>
      </trkpt>
      <trkpt lat="43.22389" lon="5.48051">
        <ele>347.4</ele>
        <time>2025-10-18T13:57:41Z</time>
      </trkpt>
      <trkpt lat="43.22389" lon="5.48051">
        <ele>347.4</ele>
        <time>2025-10-18T13:57:42Z</time>
      </trkpt>
      <trkpt lat="43.22389" lon="5.48052">
        <ele>347.3</ele>
        <time>2025-10-18T13:57:43Z</time>
      </trkpt>
      <trkpt lat="43.22388" lon="5.48052">
        <ele>347.3</ele>
        <time>2025-10-18T13:57:44Z</time>
      </trkpt>
      <trkpt lat="43.22388" lon="5.48053">
        <ele>347.2</ele>
        <time>2025-10-18T13:57:45Z</time>
      </trkpt>
      <trkpt lat="43.22388" lon="5.48054">
        <ele>347.1</ele>
        <time>2025-10-18T13:57:46Z</time>
      </trkpt>
      <trkpt lat="43.22388" lon="5.48054">
        <ele>347</ele>
        <time>2025-10-18T13:57:47Z</time>
      </trkpt>
      <trkpt lat="43.22387" lon="5.48054">
        <ele>346.9</ele>
        <time>2025-10-18T13:57:48Z</time>
      </trkpt>
      <trkpt lat="43.22387" lon="5.48054">
        <ele>346.7</ele>
        <time>2025-10-18T13:57:49Z</time>
      </trkpt>
      <trkpt lat="43.22388" lon="5.48055">
        <ele>346.6</ele>
        <time>2025-10-18T13:57:50Z</time>
      </trkpt>
      <trkpt lat="43.22388" lon="5.48056">
        <ele>346.5</ele>
        <time>2025-10-18T13:57:51Z</time>
      </trkpt>
      <trkpt lat="43.22389" lon="5.48056">
        <ele>346.3</ele>
        <time>2025-10-18T13:57:52Z</time>
      </trkpt>
      <trkpt lat="43.22389" lon="5.48057">
        <ele>346.2</ele>
        <time>2025-10-18T13:57:53Z</time>
      </trkpt>
      <trkpt lat="43.22388" lon="5.48057">
        <ele>346.1</ele>
        <time>2025-10-18T13:57:54Z</time>
      </trkpt>
      <trkpt lat="43.22388" lon="5.48058">
        <ele>346.1</ele>
        <time>2025-10-18T13:57:55Z</time>
      </trkpt>
      <trkpt lat="43.22388" lon="5.48058">
        <ele>346</ele>
        <time>2025-10-18T13:57:56Z</time>
      </trkpt>
      <trkpt lat="43.22389" lon="5.48059">
        <ele>345.9</ele>
        <time>2025-10-18T13:57:57Z</time>
      </trkpt>
      <trkpt lat="43.22389" lon="5.4806">
        <ele>345.9</ele>
        <time>2025-10-18T13:57:58Z</time>
      </trkpt>
      <trkpt lat="43.2239" lon="5.48061">
        <ele>345.9</ele>
        <time>2025-10-18T13:57:59Z</time>
      </trkpt>
      <trkpt lat="43.22391" lon="5.48062">
        <ele>345.9</ele>
        <time>2025-10-18T13:58:00Z</time>
      </trkpt>
      <trkpt lat="43.22391" lon="5.48063">
        <ele>345.9</ele>
        <time>2025-10-18T13:58:01Z</time>
      </trkpt>
      <trkpt lat="43.22392" lon="5.48064">
        <ele>345.9</ele>
        <time>2025-10-18T13:58:02Z</time>
      </trkpt>
      <trkpt lat="43.22392" lon="5.48065">
        <ele>345.9</ele>
        <time>2025-10-18T13:58:03Z</time>
      </trkpt>
      <trkpt lat="43.22392" lon="5.48065">
        <ele>345.9</ele>
        <time>2025-10-18T13:58:04Z</time>
      </trkpt>
      <trkpt lat="43.22392" lon="5.48066">
        <ele>345.9</ele>
        <time>2025-10-18T13:58:05Z</time>
      </trkpt>
      <trkpt lat="43.22392" lon="5.48066">
        <ele>345.9</ele>
        <time>2025-10-18T13:58:06Z</time>
      </trkpt>
      <trkpt lat="43.22393" lon="5.48067">
        <ele>345.9</ele>
        <time>2025-10-18T13:58:07Z</time>
      </trkpt>
      <trkpt lat="43.22393" lon="5.48067">
        <ele>346</ele>
        <time>2025-10-18T13:58:08Z</time>
      </trkpt>
      <trkpt lat="43.22393" lon="5.48068">
        <ele>346</ele>
        <time>2025-10-18T13:58:09Z</time>
      </trkpt>
      <trkpt lat="43.22394" lon="5.48068">
        <ele>346</ele>
        <time>2025-10-18T13:58:10Z</time>
      </trkpt>
      <trkpt lat="43.22394" lon="5.48069">
        <ele>346</ele>
        <time>2025-10-18T13:58:11Z</time>
      </trkpt>
      <trkpt lat="43.22395" lon="5.4807">
        <ele>346</ele>
        <time>2025-10-18T13:58:12Z</time>
      </trkpt>
      <trkpt lat="43.22395" lon="5.4807">
        <ele>346</ele>
        <time>2025-10-18T13:58:13Z</time>
      </trkpt>
      <trkpt lat="43.22395" lon="5.4807">
        <ele>346</ele>
        <time>2025-10-18T13:58:14Z</time>
      </trkpt>
      <trkpt lat="43.22396" lon="5.48071">
        <ele>346</ele>
        <time>2025-10-18T13:58:15Z</time>
      </trkpt>
      <trkpt lat="43.22396" lon="5.48071">
        <ele>346</ele>
        <time>2025-10-18T13:58:16Z</time>
      </trkpt>
      <trkpt lat="43.22396" lon="5.48071">
        <ele>346</ele>
        <time>2025-10-18T13:58:17Z</time>
      </trkpt>
      <trkpt lat="43.22396" lon="5.48072">
        <ele>346</ele>
        <time>2025-10-18T13:58:18Z</time>
      </trkpt>
      <trkpt lat="43.22396" lon="5.48072">
        <ele>346</ele>
        <time>2025-10-18T13:58:19Z</time>
      </trkpt>
      <trkpt lat="43.22396" lon="5.48072">
        <ele>346.1</ele>
        <time>2025-10-18T13:58:20Z</time>
      </trkpt>
      <trkpt lat="43.22396" lon="5.48073">
        <ele>346.1</ele>
        <time>2025-10-18T13:58:21Z</time>
      </trkpt>
      <trkpt lat="43.22395" lon="5.48074">
        <ele>346.1</ele>
        <time>2025-10-18T13:58:22Z</time>
      </trkpt>
      <trkpt lat="43.22395" lon="5.48075">
        <ele>346.1</ele>
        <time>2025-10-18T13:58:23Z</time>
      </trkpt>
      <trkpt lat="43.22394" lon="5.48075">
        <ele>346.1</ele>
        <time>2025-10-18T13:58:24Z</time>
      </trkpt>
      <trkpt lat="43.22394" lon="5.48076">
        <ele>346</ele>
        <time>2025-10-18T13:58:25Z</time>
      </trkpt>
      <trkpt lat="43.22394" lon="5.48077">
        <ele>346.1</ele>
        <time>2025-10-18T13:58:26Z</time>
      </trkpt>
      <trkpt lat="43.22394" lon="5.48078">
        <ele>346.1</ele>
        <time>2025-10-18T13:58:27Z</time>
      </trkpt>
      <trkpt lat="43.22393" lon="5.48078">
        <ele>346.1</ele>
        <time>2025-10-18T13:58:28Z</time>
      </trkpt>
      <trkpt lat="43.22393" lon="5.48079">
        <ele>346.1</ele>
        <time>2025-10-18T13:58:29Z</time>
      </trkpt>
      <trkpt lat="43.22392" lon="5.48079">
        <ele>346.1</ele>
        <time>2025-10-18T13:58:30Z</time>
      </trkpt>
      <trkpt lat="43.22392" lon="5.4808">
        <ele>346.1</ele>
        <time>2025-10-18T13:58:31Z</time>
      </trkpt>
      <trkpt lat="43.22392" lon="5.48082">
        <ele>346.1</ele>
        <time>2025-10-18T13:58:32Z</time>
      </trkpt>
      <trkpt lat="43.22391" lon="5.48082">
        <ele>346.1</ele>
        <time>2025-10-18T13:58:33Z</time>
      </trkpt>
      <trkpt lat="43.22391" lon="5.48083">
        <ele>346</ele>
        <time>2025-10-18T13:58:34Z</time>
      </trkpt>
      <trkpt lat="43.22391" lon="5.48085">
        <ele>346</ele>
        <time>2025-10-18T13:58:35Z</time>
      </trkpt>
      <trkpt lat="43.22391" lon="5.48085">
        <ele>346.1</ele>
        <time>2025-10-18T13:58:36Z</time>
      </trkpt>
      <trkpt lat="43.22391" lon="5.48086">
        <ele>346</ele>
        <time>2025-10-18T13:58:37Z</time>
      </trkpt>
      <trkpt lat="43.22391" lon="5.48086">
        <ele>345.9</ele>
        <time>2025-10-18T13:58:38Z</time>
      </trkpt>
      <trkpt lat="43.22391" lon="5.48087">
        <ele>346</ele>
        <time>2025-10-18T13:58:39Z</time>
      </trkpt>
      <trkpt lat="43.22392" lon="5.48087">
        <ele>346</ele>
        <time>2025-10-18T13:58:40Z</time>
      </trkpt>
      <trkpt lat="43.22391" lon="5.48088">
        <ele>346</ele>
        <time>2025-10-18T13:58:41Z</time>
      </trkpt>
      <trkpt lat="43.22391" lon="5.48089">
        <ele>346.1</ele>
        <time>2025-10-18T13:58:42Z</time>
      </trkpt>
      <trkpt lat="43.22392" lon="5.4809">
        <ele>346.1</ele>
        <time>2025-10-18T13:58:43Z</time>
      </trkpt>
      <trkpt lat="43.22392" lon="5.48091">
        <ele>346.2</ele>
        <time>2025-10-18T13:58:44Z</time>
      </trkpt>
      <trkpt lat="43.22392" lon="5.48091">
        <ele>346.1</ele>
        <time>2025-10-18T13:58:45Z</time>
      </trkpt>
      <trkpt lat="43.22392" lon="5.48091">
        <ele>346.1</ele>
        <time>2025-10-18T13:58:46Z</time>
      </trkpt>
      <trkpt lat="43.22392" lon="5.48091">
        <ele>346</ele>
        <time>2025-10-18T13:58:47Z</time>
      </trkpt>
      <trkpt lat="43.22392" lon="5.48092">
        <ele>346.1</ele>
        <time>2025-10-18T13:58:48Z</time>
      </trkpt>
      <trkpt lat="43.22392" lon="5.48092">
        <ele>346.1</ele>
        <time>2025-10-18T13:58:49Z</time>
      </trkpt>
      <trkpt lat="43.22392" lon="5.48092">
        <ele>346.2</ele>
        <time>2025-10-18T13:58:50Z</time>
      </trkpt>
      <trkpt lat="43.22392" lon="5.48092">
        <ele>346.3</ele>
        <time>2025-10-18T13:58:51Z</time>
      </trkpt>
      <trkpt lat="43.22393" lon="5.48093">
        <ele>346.4</ele>
        <time>2025-10-18T13:58:52Z</time>
      </trkpt>
      <trkpt lat="43.22393" lon="5.48093">
        <ele>346.4</ele>
        <time>2025-10-18T13:58:53Z</time>
      </trkpt>
      <trkpt lat="43.22393" lon="5.48093">
        <ele>346.5</ele>
        <time>2025-10-18T13:58:54Z</time>
      </trkpt>
      <trkpt lat="43.22393" lon="5.48093">
        <ele>346.4</ele>
        <time>2025-10-18T13:58:55Z</time>
      </trkpt>
      <trkpt lat="43.22393" lon="5.48093">
        <ele>346.4</ele>
        <time>2025-10-18T13:58:56Z</time>
      </trkpt>
      <trkpt lat="43.22393" lon="5.48094">
        <ele>346.4</ele>
        <time>2025-10-18T13:58:57Z</time>
      </trkpt>
      <trkpt lat="43.22393" lon="5.48094">
        <ele>346.4</ele>
        <time>2025-10-18T13:58:58Z</time>
      </trkpt>
      <trkpt lat="43.22393" lon="5.48094">
        <ele>346.4</ele>
        <time>2025-10-18T13:58:59Z</time>
      </trkpt>
      <trkpt lat="43.22393" lon="5.48094">
        <ele>346.4</ele>
        <time>2025-10-18T13:59:00Z</time>
      </trkpt>
      <trkpt lat="43.22393" lon="5.48094">
        <ele>346.5</ele>
        <time>2025-10-18T13:59:01Z</time>
      </trkpt>
      <trkpt lat="43.22393" lon="5.48094">
        <ele>346.5</ele>
        <time>2025-10-18T13:59:02Z</time>
      </trkpt>
      <trkpt lat="43.22392" lon="5.48094">
        <ele>346.5</ele>
        <time>2025-10-18T13:59:03Z</time>
      </trkpt>
      <trkpt lat="43.22392" lon="5.48094">
        <ele>346.6</ele>
        <time>2025-10-18T13:59:04Z</time>
      </trkpt>
      <trkpt lat="43.22392" lon="5.48094">
        <ele>346.6</ele>
        <time>2025-10-18T13:59:05Z</time>
      </trkpt>
      <trkpt lat="43.22392" lon="5.48093">
        <ele>346.6</ele>
        <time>2025-10-18T13:59:06Z</time>
      </trkpt>
      <trkpt lat="43.22392" lon="5.48094">
        <ele>346.6</ele>
        <time>2025-10-18T13:59:07Z</time>
      </trkpt>
      <trkpt lat="43.22392" lon="5.48094">
        <ele>346.5</ele>
        <time>2025-10-18T13:59:08Z</time>
      </trkpt>
      <trkpt lat="43.22392" lon="5.48094">
        <ele>346.5</ele>
        <time>2025-10-18T13:59:09Z</time>
      </trkpt>
      <trkpt lat="43.22391" lon="5.48094">
        <ele>346.4</ele>
        <time>2025-10-18T13:59:10Z</time>
      </trkpt>
      <trkpt lat="43.22391" lon="5.48094">
        <ele>346.3</ele>
        <time>2025-10-18T13:59:11Z</time>
      </trkpt>
      <trkpt lat="43.22391" lon="5.48094">
        <ele>346.3</ele>
        <time>2025-10-18T13:59:12Z</time>
      </trkpt>
      <trkpt lat="43.22391" lon="5.48094">
        <ele>346.3</ele>
        <time>2025-10-18T13:59:13Z</time>
      </trkpt>
      <trkpt lat="43.22391" lon="5.48094">
        <ele>346.3</ele>
        <time>2025-10-18T13:59:14Z</time>
      </trkpt>
      <trkpt lat="43.22391" lon="5.48094">
        <ele>346.4</ele>
        <time>2025-10-18T13:59:15Z</time>
      </trkpt>
      <trkpt lat="43.22391" lon="5.48094">
        <ele>346.4</ele>
        <time>2025-10-18T13:59:16Z</time>
      </trkpt>
      <trkpt lat="43.22391" lon="5.48094">
        <ele>346.4</ele>
        <time>2025-10-18T13:59:17Z</time>
      </trkpt>
      <trkpt lat="43.2239" lon="5.48094">
        <ele>346.5</ele>
        <time>2025-10-18T13:59:18Z</time>
      </trkpt>
      <trkpt lat="43.2239" lon="5.48094">
        <ele>346.5</ele>
        <time>2025-10-18T13:59:19Z</time>
      </trkpt>
      <trkpt lat="43.2239" lon="5.48094">
        <ele>346.5</ele>
        <time>2025-10-18T13:59:20Z</time>
      </trkpt>
      <trkpt lat="43.2239" lon="5.48094">
        <ele>346.5</ele>
        <time>2025-10-18T13:59:21Z</time>
      </trkpt>
      <trkpt lat="43.22389" lon="5.48094">
        <ele>346.4</ele>
        <time>2025-10-18T13:59:22Z</time>
      </trkpt>
      <trkpt lat="43.22389" lon="5.48095">
        <ele>346.4</ele>
        <time>2025-10-18T13:59:23Z</time>
      </trkpt>
      <trkpt lat="43.22389" lon="5.48095">
        <ele>346.4</ele>
        <time>2025-10-18T13:59:24Z</time>
      </trkpt>
      <trkpt lat="43.22388" lon="5.48095">
        <ele>346.4</ele>
        <time>2025-10-18T13:59:25Z</time>
      </trkpt>
      <trkpt lat="43.22388" lon="5.48095">
        <ele>346.4</ele>
        <time>2025-10-18T13:59:26Z</time>
      </trkpt>
      <trkpt lat="43.22388" lon="5.48095">
        <ele>346.5</ele>
        <time>2025-10-18T13:59:27Z</time>
      </trkpt>
      <trkpt lat="43.22388" lon="5.48095">
        <ele>346.5</ele>
        <time>2025-10-18T13:59:28Z</time>
      </trkpt>
      <trkpt lat="43.22388" lon="5.48095">
        <ele>346.6</ele>
        <time>2025-10-18T13:59:29Z</time>
      </trkpt>
      <trkpt lat="43.22388" lon="5.48096">
        <ele>346.5</ele>
        <time>2025-10-18T13:59:30Z</time>
      </trkpt>
      <trkpt lat="43.22388" lon="5.48096">
        <ele>346.5</ele>
        <time>2025-10-18T13:59:31Z</time>
      </trkpt>
      <trkpt lat="43.22388" lon="5.48096">
        <ele>346.6</ele>
        <time>2025-10-18T13:59:32Z</time>
      </trkpt>
      <trkpt lat="43.22387" lon="5.48096">
        <ele>346.6</ele>
        <time>2025-10-18T13:59:33Z</time>
      </trkpt>
      <trkpt lat="43.22387" lon="5.48096">
        <ele>346.6</ele>
        <time>2025-10-18T13:59:34Z</time>
      </trkpt>
      <trkpt lat="43.22387" lon="5.48096">
        <ele>346.6</ele>
        <time>2025-10-18T13:59:35Z</time>
      </trkpt>
      <trkpt lat="43.22387" lon="5.48096">
        <ele>346.6</ele>
        <time>2025-10-18T13:59:36Z</time>
      </trkpt>
      <trkpt lat="43.22387" lon="5.48096">
        <ele>346.5</ele>
        <time>2025-10-18T13:59:37Z</time>
      </trkpt>
      <trkpt lat="43.22386" lon="5.48096">
        <ele>346.5</ele>
        <time>2025-10-18T13:59:38Z</time>
      </trkpt>
      <trkpt lat="43.22387" lon="5.48096">
        <ele>346.4</ele>
        <time>2025-10-18T13:59:39Z</time>
      </trkpt>
      <trkpt lat="43.22387" lon="5.48097">
        <ele>346.4</ele>
        <time>2025-10-18T13:59:40Z</time>
      </trkpt>
      <trkpt lat="43.22387" lon="5.48098">
        <ele>346.4</ele>
        <time>2025-10-18T13:59:41Z</time>
      </trkpt>
      <trkpt lat="43.22388" lon="5.48099">
        <ele>346.5</ele>
        <time>2025-10-18T13:59:42Z</time>
      </trkpt>
      <trkpt lat="43.22388" lon="5.48099">
        <ele>346.6</ele>
        <time>2025-10-18T13:59:43Z</time>
      </trkpt>
      <trkpt lat="43.22388" lon="5.481">
        <ele>346.7</ele>
        <time>2025-10-18T13:59:44Z</time>
      </trkpt>
      <trkpt lat="43.22389" lon="5.481">
        <ele>346.9</ele>
        <time>2025-10-18T13:59:45Z</time>
      </trkpt>
      <trkpt lat="43.22389" lon="5.48101">
        <ele>347.1</ele>
        <time>2025-10-18T13:59:46Z</time>
      </trkpt>
      <trkpt lat="43.22389" lon="5.48101">
        <ele>347.2</ele>
        <time>2025-10-18T13:59:47Z</time>
      </trkpt>
      <trkpt lat="43.22389" lon="5.48101">
        <ele>347.3</ele>
        <time>2025-10-18T13:59:48Z</time>
      </trkpt>
      <trkpt lat="43.22389" lon="5.48101">
        <ele>347.4</ele>
        <time>2025-10-18T13:59:49Z</time>
      </trkpt>
      <trkpt lat="43.22389" lon="5.48102">
        <ele>347.5</ele>
        <time>2025-10-18T13:59:50Z</time>
      </trkpt>
      <trkpt lat="43.22389" lon="5.48102">
        <ele>347.5</ele>
        <time>2025-10-18T13:59:51Z</time>
      </trkpt>
      <trkpt lat="43.22389" lon="5.48102">
        <ele>347.6</ele>
        <time>2025-10-18T13:59:52Z</time>
      </trkpt>
      <trkpt lat="43.22389" lon="5.48102">
        <ele>347.6</ele>
        <time>2025-10-18T13:59:53Z</time>
      </trkpt>
      <trkpt lat="43.22389" lon="5.48102">
        <ele>347.6</ele>
        <time>2025-10-18T13:59:54Z</time>
      </trkpt>
      <trkpt lat="43.22389" lon="5.48102">
        <ele>347.6</ele>
        <time>2025-10-18T13:59:55Z</time>
      </trkpt>
      <trkpt lat="43.22389" lon="5.48102">
        <ele>347.6</ele>
        <time>2025-10-18T13:59:56Z</time>
      </trkpt>
      <trkpt lat="43.22389" lon="5.48102">
        <ele>347.6</ele>
        <time>2025-10-18T13:59:57Z</time>
      </trkpt>
      <trkpt lat="43.22389" lon="5.48103">
        <ele>347.6</ele>
        <time>2025-10-18T13:59:58Z</time>
      </trkpt>
      <trkpt lat="43.22389" lon="5.48103">
        <ele>347.5</ele>
        <time>2025-10-18T13:59:59Z</time>
      </trkpt>
      <trkpt lat="43.22389" lon="5.48103">
        <ele>347.4</ele>
        <time>2025-10-18T14:00:00Z</time>
      </trkpt>
      <trkpt lat="43.22388" lon="5.48104">
        <ele>347.3</ele>
        <time>2025-10-18T14:00:01Z</time>
      </trkpt>
      <trkpt lat="43.22388" lon="5.48104">
        <ele>347.2</ele>
        <time>2025-10-18T14:00:02Z</time>
      </trkpt>
      <trkpt lat="43.22388" lon="5.48105">
        <ele>347.1</ele>
        <time>2025-10-18T14:00:03Z</time>
      </trkpt>
      <trkpt lat="43.22388" lon="5.48104">
        <ele>347.1</ele>
        <time>2025-10-18T14:00:04Z</time>
      </trkpt>
      <trkpt lat="43.22389" lon="5.48104">
        <ele>346.9</ele>
        <time>2025-10-18T14:00:05Z</time>
      </trkpt>
      <trkpt lat="43.22388" lon="5.48105">
        <ele>346.8</ele>
        <time>2025-10-18T14:00:06Z</time>
      </trkpt>
      <trkpt lat="43.22388" lon="5.48106">
        <ele>346.7</ele>
        <time>2025-10-18T14:00:07Z</time>
      </trkpt>
      <trkpt lat="43.22388" lon="5.48106">
        <ele>346.6</ele>
        <time>2025-10-18T14:00:08Z</time>
      </trkpt>
      <trkpt lat="43.22388" lon="5.48107">
        <ele>346.5</ele>
        <time>2025-10-18T14:00:09Z</time>
      </trkpt>
      <trkpt lat="43.22387" lon="5.48107">
        <ele>346.4</ele>
        <time>2025-10-18T14:00:10Z</time>
      </trkpt>
      <trkpt lat="43.22387" lon="5.48108">
        <ele>346.3</ele>
        <time>2025-10-18T14:00:11Z</time>
      </trkpt>
      <trkpt lat="43.22387" lon="5.48109">
        <ele>346.3</ele>
        <time>2025-10-18T14:00:12Z</time>
      </trkpt>
      <trkpt lat="43.22387" lon="5.48109">
        <ele>346.2</ele>
        <time>2025-10-18T14:00:13Z</time>
      </trkpt>
      <trkpt lat="43.22387" lon="5.4811">
        <ele>346.1</ele>
        <time>2025-10-18T14:00:14Z</time>
      </trkpt>
      <trkpt lat="43.22387" lon="5.4811">
        <ele>346</ele>
        <time>2025-10-18T14:00:15Z</time>
      </trkpt>
      <trkpt lat="43.22387" lon="5.48111">
        <ele>346</ele>
        <time>2025-10-18T14:00:16Z</time>
      </trkpt>
      <trkpt lat="43.22387" lon="5.48112">
        <ele>345.9</ele>
        <time>2025-10-18T14:00:17Z</time>
      </trkpt>
      <trkpt lat="43.22387" lon="5.48112">
        <ele>345.8</ele>
        <time>2025-10-18T14:00:18Z</time>
      </trkpt>
      <trkpt lat="43.22387" lon="5.48112">
        <ele>345.7</ele>
        <time>2025-10-18T14:00:19Z</time>
      </trkpt>
      <trkpt lat="43.22387" lon="5.48113">
        <ele>345.7</ele>
        <time>2025-10-18T14:00:20Z</time>
      </trkpt>
      <trkpt lat="43.22386" lon="5.48114">
        <ele>345.6</ele>
        <time>2025-10-18T14:00:21Z</time>
      </trkpt>
      <trkpt lat="43.22386" lon="5.48114">
        <ele>345.6</ele>
        <time>2025-10-18T14:00:22Z</time>
      </trkpt>
      <trkpt lat="43.22386" lon="5.48114">
        <ele>345.5</ele>
        <time>2025-10-18T14:00:23Z</time>
      </trkpt>
      <trkpt lat="43.22386" lon="5.48114">
        <ele>345.5</ele>
        <time>2025-10-18T14:00:24Z</time>
      </trkpt>
      <trkpt lat="43.22386" lon="5.48114">
        <ele>345.5</ele>
        <time>2025-10-18T14:00:25Z</time>
      </trkpt>
      <trkpt lat="43.22386" lon="5.48114">
        <ele>345.5</ele>
        <time>2025-10-18T14:00:26Z</time>
      </trkpt>
      <trkpt lat="43.22386" lon="5.48114">
        <ele>345.5</ele>
        <time>2025-10-18T14:00:27Z</time>
      </trkpt>
      <trkpt lat="43.22387" lon="5.48114">
        <ele>345.4</ele>
        <time>2025-10-18T14:00:28Z</time>
      </trkpt>
      <trkpt lat="43.22387" lon="5.48115">
        <ele>345.4</ele>
        <time>2025-10-18T14:00:29Z</time>
      </trkpt>
      <trkpt lat="43.22387" lon="5.48115">
        <ele>345.4</ele>
        <time>2025-10-18T14:00:30Z</time>
      </trkpt>
      <trkpt lat="43.22387" lon="5.48115">
        <ele>345.4</ele>
        <time>2025-10-18T14:00:31Z</time>
      </trkpt>
      <trkpt lat="43.22386" lon="5.48116">
        <ele>345.4</ele>
        <time>2025-10-18T14:00:32Z</time>
      </trkpt>
      <trkpt lat="43.22386" lon="5.48117">
        <ele>345.3</ele>
        <time>2025-10-18T14:00:33Z</time>
      </trkpt>
      <trkpt lat="43.22386" lon="5.48117">
        <ele>345.3</ele>
        <time>2025-10-18T14:00:34Z</time>
      </trkpt>
      <trkpt lat="43.22386" lon="5.48117">
        <ele>345.3</ele>
        <time>2025-10-18T14:00:35Z</time>
      </trkpt>
      <trkpt lat="43.22386" lon="5.48118">
        <ele>345.3</ele>
        <time>2025-10-18T14:00:36Z</time>
      </trkpt>
      <trkpt lat="43.22386" lon="5.48118">
        <ele>345.2</ele>
        <time>2025-10-18T14:00:37Z</time>
      </trkpt>
      <trkpt lat="43.22385" lon="5.48118">
        <ele>345.1</ele>
        <time>2025-10-18T14:00:38Z</time>
      </trkpt>
      <trkpt lat="43.22385" lon="5.48119">
        <ele>345</ele>
        <time>2025-10-18T14:00:39Z</time>
      </trkpt>
      <trkpt lat="43.22385" lon="5.48119">
        <ele>344.9</ele>
        <time>2025-10-18T14:00:40Z</time>
      </trkpt>
      <trkpt lat="43.22385" lon="5.4812">
        <ele>344.8</ele>
        <time>2025-10-18T14:00:41Z</time>
      </trkpt>
      <trkpt lat="43.22385" lon="5.48121">
        <ele>344.8</ele>
        <time>2025-10-18T14:00:42Z</time>
      </trkpt>
      <trkpt lat="43.22385" lon="5.48121">
        <ele>344.7</ele>
        <time>2025-10-18T14:00:43Z</time>
      </trkpt>
      <trkpt lat="43.22385" lon="5.48121">
        <ele>344.7</ele>
        <time>2025-10-18T14:00:44Z</time>
      </trkpt>
      <trkpt lat="43.22385" lon="5.48121">
        <ele>344.7</ele>
        <time>2025-10-18T14:00:45Z</time>
      </trkpt>
      <trkpt lat="43.22385" lon="5.48121">
        <ele>344.7</ele>
        <time>2025-10-18T14:00:46Z</time>
      </trkpt>
      <trkpt lat="43.22385" lon="5.48121">
        <ele>344.7</ele>
        <time>2025-10-18T14:00:47Z</time>
      </trkpt>
      <trkpt lat="43.22385" lon="5.48121">
        <ele>344.7</ele>
        <time>2025-10-18T14:00:48Z</time>
      </trkpt>
      <trkpt lat="43.22385" lon="5.48121">
        <ele>344.6</ele>
        <time>2025-10-18T14:00:49Z</time>
      </trkpt>
      <trkpt lat="43.22385" lon="5.48121">
        <ele>344.5</ele>
        <time>2025-10-18T14:00:50Z</time>
      </trkpt>
      <trkpt lat="43.22385" lon="5.48122">
        <ele>344.5</ele>
        <time>2025-10-18T14:00:51Z</time>
      </trkpt>
      <trkpt lat="43.22385" lon="5.48122">
        <ele>344.5</ele>
        <time>2025-10-18T14:00:52Z</time>
      </trkpt>
      <trkpt lat="43.22384" lon="5.48121">
        <ele>344.5</ele>
        <time>2025-10-18T14:00:53Z</time>
      </trkpt>
      <trkpt lat="43.22384" lon="5.48121">
        <ele>344.4</ele>
        <time>2025-10-18T14:00:54Z</time>
      </trkpt>
      <trkpt lat="43.22384" lon="5.48121">
        <ele>344.3</ele>
        <time>2025-10-18T14:00:55Z</time>
      </trkpt>
      <trkpt lat="43.22384" lon="5.48121">
        <ele>344.3</ele>
        <time>2025-10-18T14:00:56Z</time>
      </trkpt>
      <trkpt lat="43.22384" lon="5.48122">
        <ele>344.3</ele>
        <time>2025-10-18T14:00:57Z</time>
      </trkpt>
      <trkpt lat="43.22384" lon="5.48122">
        <ele>344.3</ele>
        <time>2025-10-18T14:00:58Z</time>
      </trkpt>
      <trkpt lat="43.22384" lon="5.48122">
        <ele>344.2</ele>
        <time>2025-10-18T14:00:59Z</time>
      </trkpt>
      <trkpt lat="43.22384" lon="5.48122">
        <ele>344.2</ele>
        <time>2025-10-18T14:01:00Z</time>
      </trkpt>
      <trkpt lat="43.22384" lon="5.48122">
        <ele>344.1</ele>
        <time>2025-10-18T14:01:01Z</time>
      </trkpt>
      <trkpt lat="43.22384" lon="5.48122">
        <ele>344.1</ele>
        <time>2025-10-18T14:01:02Z</time>
      </trkpt>
      <trkpt lat="43.22384" lon="5.48122">
        <ele>344.2</ele>
        <time>2025-10-18T14:01:03Z</time>
      </trkpt>
      <trkpt lat="43.22384" lon="5.48122">
        <ele>344.2</ele>
        <time>2025-10-18T14:01:04Z</time>
      </trkpt>
      <trkpt lat="43.22384" lon="5.48122">
        <ele>344.2</ele>
        <time>2025-10-18T14:01:05Z</time>
      </trkpt>
      <trkpt lat="43.22384" lon="5.48122">
        <ele>344.2</ele>
        <time>2025-10-18T14:01:06Z</time>
      </trkpt>
      <trkpt lat="43.22384" lon="5.48122">
        <ele>344.1</ele>
        <time>2025-10-18T14:01:07Z</time>
      </trkpt>
      <trkpt lat="43.22384" lon="5.48122">
        <ele>344</ele>
        <time>2025-10-18T14:01:08Z</time>
      </trkpt>
      <trkpt lat="43.22384" lon="5.48122">
        <ele>344</ele>
        <time>2025-10-18T14:01:09Z</time>
      </trkpt>
      <trkpt lat="43.22383" lon="5.48122">
        <ele>344</ele>
        <time>2025-10-18T14:01:10Z</time>
      </trkpt>
      <trkpt lat="43.22383" lon="5.48122">
        <ele>344.1</ele>
        <time>2025-10-18T14:01:11Z</time>
      </trkpt>
      <trkpt lat="43.22383" lon="5.48123">
        <ele>344.2</ele>
        <time>2025-10-18T14:01:12Z</time>
      </trkpt>
      <trkpt lat="43.22382" lon="5.48123">
        <ele>344.2</ele>
        <time>2025-10-18T14:01:13Z</time>
      </trkpt>
      <trkpt lat="43.22382" lon="5.48124">
        <ele>344</ele>
        <time>2025-10-18T14:01:14Z</time>
      </trkpt>
      <trkpt lat="43.22382" lon="5.48125">
        <ele>343.9</ele>
        <time>2025-10-18T14:01:15Z</time>
      </trkpt>
      <trkpt lat="43.22382" lon="5.48125">
        <ele>343.8</ele>
        <time>2025-10-18T14:01:16Z</time>
      </trkpt>
      <trkpt lat="43.22382" lon="5.48126">
        <ele>343.7</ele>
        <time>2025-10-18T14:01:17Z</time>
      </trkpt>
      <trkpt lat="43.22381" lon="5.48126">
        <ele>343.6</ele>
        <time>2025-10-18T14:01:18Z</time>
      </trkpt>
      <trkpt lat="43.22381" lon="5.48126">
        <ele>343.6</ele>
        <time>2025-10-18T14:01:19Z</time>
      </trkpt>
      <trkpt lat="43.22381" lon="5.48126">
        <ele>343.5</ele>
        <time>2025-10-18T14:01:20Z</time>
      </trkpt>
      <trkpt lat="43.22381" lon="5.48127">
        <ele>343.5</ele>
        <time>2025-10-18T14:01:21Z</time>
      </trkpt>
      <trkpt lat="43.22382" lon="5.48127">
        <ele>343.5</ele>
        <time>2025-10-18T14:01:22Z</time>
      </trkpt>
      <trkpt lat="43.22382" lon="5.48127">
        <ele>343.5</ele>
        <time>2025-10-18T14:01:23Z</time>
      </trkpt>
      <trkpt lat="43.22382" lon="5.48127">
        <ele>343.5</ele>
        <time>2025-10-18T14:01:24Z</time>
      </trkpt>
      <trkpt lat="43.22382" lon="5.48126">
        <ele>343.6</ele>
        <time>2025-10-18T14:01:25Z</time>
      </trkpt>
      <trkpt lat="43.22382" lon="5.48126">
        <ele>343.6</ele>
        <time>2025-10-18T14:01:26Z</time>
      </trkpt>
      <trkpt lat="43.22382" lon="5.48127">
        <ele>343.6</ele>
        <time>2025-10-18T14:01:27Z</time>
      </trkpt>
      <trkpt lat="43.22382" lon="5.48127">
        <ele>343.6</ele>
        <time>2025-10-18T14:01:28Z</time>
      </trkpt>
      <trkpt lat="43.22381" lon="5.48128">
        <ele>343.5</ele>
        <time>2025-10-18T14:01:29Z</time>
      </trkpt>
      <trkpt lat="43.22381" lon="5.48128">
        <ele>343.4</ele>
        <time>2025-10-18T14:01:30Z</time>
      </trkpt>
      <trkpt lat="43.22381" lon="5.48129">
        <ele>343.3</ele>
        <time>2025-10-18T14:01:31Z</time>
      </trkpt>
      <trkpt lat="43.22381" lon="5.48129">
        <ele>343.2</ele>
        <time>2025-10-18T14:01:32Z</time>
      </trkpt>
      <trkpt lat="43.22381" lon="5.48129">
        <ele>343.1</ele>
        <time>2025-10-18T14:01:33Z</time>
      </trkpt>
      <trkpt lat="43.2238" lon="5.48129">
        <ele>343.1</ele>
        <time>2025-10-18T14:01:34Z</time>
      </trkpt>
      <trkpt lat="43.2238" lon="5.4813">
        <ele>343.1</ele>
        <time>2025-10-18T14:01:35Z</time>
      </trkpt>
      <trkpt lat="43.2238" lon="5.48131">
        <ele>343.1</ele>
        <time>2025-10-18T14:01:36Z</time>
      </trkpt>
      <trkpt lat="43.2238" lon="5.48131">
        <ele>343.1</ele>
        <time>2025-10-18T14:01:37Z</time>
      </trkpt>
      <trkpt lat="43.2238" lon="5.48132">
        <ele>343.2</ele>
        <time>2025-10-18T14:01:38Z</time>
      </trkpt>
      <trkpt lat="43.2238" lon="5.48132">
        <ele>343.3</ele>
        <time>2025-10-18T14:01:39Z</time>
      </trkpt>
      <trkpt lat="43.2238" lon="5.48133">
        <ele>343.5</ele>
        <time>2025-10-18T14:01:40Z</time>
      </trkpt>
      <trkpt lat="43.22379" lon="5.48134">
        <ele>343.6</ele>
        <time>2025-10-18T14:01:41Z</time>
      </trkpt>
      <trkpt lat="43.22379" lon="5.48134">
        <ele>343.6</ele>
        <time>2025-10-18T14:01:42Z</time>
      </trkpt>
      <trkpt lat="43.22379" lon="5.48134">
        <ele>343.7</ele>
        <time>2025-10-18T14:01:43Z</time>
      </trkpt>
      <trkpt lat="43.22379" lon="5.48134">
        <ele>343.8</ele>
        <time>2025-10-18T14:01:44Z</time>
      </trkpt>
      <trkpt lat="43.2238" lon="5.48134">
        <ele>343.8</ele>
        <time>2025-10-18T14:01:45Z</time>
      </trkpt>
      <trkpt lat="43.2238" lon="5.48134">
        <ele>343.9</ele>
        <time>2025-10-18T14:01:46Z</time>
      </trkpt>
      <trkpt lat="43.2238" lon="5.48134">
        <ele>344</ele>
        <time>2025-10-18T14:01:47Z</time>
      </trkpt>
      <trkpt lat="43.2238" lon="5.48134">
        <ele>344</ele>
        <time>2025-10-18T14:01:48Z</time>
      </trkpt>
      <trkpt lat="43.2238" lon="5.48134">
        <ele>344.1</ele>
        <time>2025-10-18T14:01:49Z</time>
      </trkpt>
      <trkpt lat="43.2238" lon="5.48135">
        <ele>344.1</ele>
        <time>2025-10-18T14:01:50Z</time>
      </trkpt>
      <trkpt lat="43.2238" lon="5.48135">
        <ele>344.3</ele>
        <time>2025-10-18T14:01:51Z</time>
      </trkpt>
      <trkpt lat="43.2238" lon="5.48136">
        <ele>344.3</ele>
        <time>2025-10-18T14:01:52Z</time>
      </trkpt>
      <trkpt lat="43.2238" lon="5.48136">
        <ele>344.5</ele>
        <time>2025-10-18T14:01:53Z</time>
      </trkpt>
      <trkpt lat="43.2238" lon="5.48137">
        <ele>344.6</ele>
        <time>2025-10-18T14:01:54Z</time>
      </trkpt>
      <trkpt lat="43.2238" lon="5.48137">
        <ele>344.8</ele>
        <time>2025-10-18T14:01:55Z</time>
      </trkpt>
      <trkpt lat="43.22379" lon="5.48138">
        <ele>344.9</ele>
        <time>2025-10-18T14:01:56Z</time>
      </trkpt>
      <trkpt lat="43.22379" lon="5.48139">
        <ele>345.1</ele>
        <time>2025-10-18T14:01:57Z</time>
      </trkpt>
      <trkpt lat="43.2238" lon="5.48139">
        <ele>345.3</ele>
        <time>2025-10-18T14:01:58Z</time>
      </trkpt>
      <trkpt lat="43.2238" lon="5.48139">
        <ele>345.4</ele>
        <time>2025-10-18T14:01:59Z</time>
      </trkpt>
      <trkpt lat="43.2238" lon="5.4814">
        <ele>345.7</ele>
        <time>2025-10-18T14:02:00Z</time>
      </trkpt>
      <trkpt lat="43.2238" lon="5.4814">
        <ele>345.9</ele>
        <time>2025-10-18T14:02:01Z</time>
      </trkpt>
      <trkpt lat="43.2238" lon="5.48141">
        <ele>346</ele>
        <time>2025-10-18T14:02:02Z</time>
      </trkpt>
      <trkpt lat="43.2238" lon="5.48141">
        <ele>346.2</ele>
        <time>2025-10-18T14:02:03Z</time>
      </trkpt>
      <trkpt lat="43.22379" lon="5.48142">
        <ele>346.3</ele>
        <time>2025-10-18T14:02:04Z</time>
      </trkpt>
      <trkpt lat="43.22379" lon="5.48142">
        <ele>346.4</ele>
        <time>2025-10-18T14:02:05Z</time>
      </trkpt>
      <trkpt lat="43.22379" lon="5.48142">
        <ele>346.4</ele>
        <time>2025-10-18T14:02:06Z</time>
      </trkpt>
      <trkpt lat="43.22379" lon="5.48142">
        <ele>346.6</ele>
        <time>2025-10-18T14:02:07Z</time>
      </trkpt>
      <trkpt lat="43.22379" lon="5.48142">
        <ele>346.6</ele>
        <time>2025-10-18T14:02:08Z</time>
      </trkpt>
      <trkpt lat="43.22379" lon="5.48142">
        <ele>346.6</ele>
        <time>2025-10-18T14:02:09Z</time>
      </trkpt>
      <trkpt lat="43.22379" lon="5.48142">
        <ele>346.6</ele>
        <time>2025-10-18T14:02:10Z</time>
      </trkpt>
      <trkpt lat="43.22379" lon="5.48142">
        <ele>346.6</ele>
        <time>2025-10-18T14:02:11Z</time>
      </trkpt>
      <trkpt lat="43.22379" lon="5.48142">
        <ele>346.6</ele>
        <time>2025-10-18T14:02:12Z</time>
      </trkpt>
      <trkpt lat="43.22379" lon="5.48142">
        <ele>346.6</ele>
        <time>2025-10-18T14:02:13Z</time>
      </trkpt>
      <trkpt lat="43.22379" lon="5.48142">
        <ele>346.6</ele>
        <time>2025-10-18T14:02:14Z</time>
      </trkpt>
      <trkpt lat="43.22378" lon="5.48142">
        <ele>346.6</ele>
        <time>2025-10-18T14:02:15Z</time>
      </trkpt>
      <trkpt lat="43.22378" lon="5.48142">
        <ele>346.6</ele>
        <time>2025-10-18T14:02:16Z</time>
      </trkpt>
      <trkpt lat="43.22378" lon="5.48142">
        <ele>346.6</ele>
        <time>2025-10-18T14:02:17Z</time>
      </trkpt>
      <trkpt lat="43.22378" lon="5.48142">
        <ele>346.6</ele>
        <time>2025-10-18T14:02:18Z</time>
      </trkpt>
      <trkpt lat="43.22378" lon="5.48142">
        <ele>346.7</ele>
        <time>2025-10-18T14:02:19Z</time>
      </trkpt>
      <trkpt lat="43.22378" lon="5.48142">
        <ele>346.8</ele>
        <time>2025-10-18T14:02:20Z</time>
      </trkpt>
      <trkpt lat="43.22378" lon="5.48142">
        <ele>346.9</ele>
        <time>2025-10-18T14:02:21Z</time>
      </trkpt>
      <trkpt lat="43.22378" lon="5.48142">
        <ele>346.9</ele>
        <time>2025-10-18T14:02:22Z</time>
      </trkpt>
      <trkpt lat="43.22378" lon="5.48142">
        <ele>347</ele>
        <time>2025-10-18T14:02:23Z</time>
      </trkpt>
      <trkpt lat="43.22378" lon="5.48142">
        <ele>347</ele>
        <time>2025-10-18T14:02:24Z</time>
      </trkpt>
      <trkpt lat="43.22378" lon="5.48142">
        <ele>347</ele>
        <time>2025-10-18T14:02:25Z</time>
      </trkpt>
      <trkpt lat="43.22378" lon="5.48142">
        <ele>347.1</ele>
        <time>2025-10-18T14:02:26Z</time>
      </trkpt>
      <trkpt lat="43.22378" lon="5.48142">
        <ele>347.1</ele>
        <time>2025-10-18T14:02:27Z</time>
      </trkpt>
      <trkpt lat="43.22378" lon="5.48142">
        <ele>347.1</ele>
        <time>2025-10-18T14:02:28Z</time>
      </trkpt>
      <trkpt lat="43.22378" lon="5.48142">
        <ele>347</ele>
        <time>2025-10-18T14:02:29Z</time>
      </trkpt>
      <trkpt lat="43.22378" lon="5.48142">
        <ele>347</ele>
        <time>2025-10-18T14:02:30Z</time>
      </trkpt>
      <trkpt lat="43.22378" lon="5.48142">
        <ele>346.9</ele>
        <time>2025-10-18T14:02:31Z</time>
      </trkpt>
      <trkpt lat="43.22378" lon="5.48142">
        <ele>346.9</ele>
        <time>2025-10-18T14:02:32Z</time>
      </trkpt>
      <trkpt lat="43.22378" lon="5.48142">
        <ele>346.9</ele>
        <time>2025-10-18T14:02:33Z</time>
      </trkpt>
      <trkpt lat="43.22378" lon="5.48142">
        <ele>346.9</ele>
        <time>2025-10-18T14:02:34Z</time>
      </trkpt>
      <trkpt lat="43.22378" lon="5.48142">
        <ele>346.9</ele>
        <time>2025-10-18T14:02:35Z</time>
      </trkpt>
      <trkpt lat="43.22378" lon="5.48142">
        <ele>347</ele>
        <time>2025-10-18T14:02:36Z</time>
      </trkpt>
      <trkpt lat="43.22378" lon="5.48143">
        <ele>347.1</ele>
        <time>2025-10-18T14:02:37Z</time>
      </trkpt>
      <trkpt lat="43.22379" lon="5.48143">
        <ele>347.2</ele>
        <time>2025-10-18T14:02:38Z</time>
      </trkpt>
      <trkpt lat="43.22379" lon="5.48144">
        <ele>347.3</ele>
        <time>2025-10-18T14:02:39Z</time>
      </trkpt>
      <trkpt lat="43.22379" lon="5.48144">
        <ele>347.3</ele>
        <time>2025-10-18T14:02:40Z</time>
      </trkpt>
      <trkpt lat="43.22379" lon="5.48144">
        <ele>347.4</ele>
        <time>2025-10-18T14:02:41Z</time>
      </trkpt>
      <trkpt lat="43.22379" lon="5.48144">
        <ele>347.5</ele>
        <time>2025-10-18T14:02:42Z</time>
      </trkpt>
      <trkpt lat="43.22379" lon="5.48145">
        <ele>347.6</ele>
        <time>2025-10-18T14:02:43Z</time>
      </trkpt>
      <trkpt lat="43.22379" lon="5.48145">
        <ele>347.7</ele>
        <time>2025-10-18T14:02:44Z</time>
      </trkpt>
      <trkpt lat="43.2238" lon="5.48145">
        <ele>347.8</ele>
        <time>2025-10-18T14:02:45Z</time>
      </trkpt>
      <trkpt lat="43.2238" lon="5.48145">
        <ele>347.9</ele>
        <time>2025-10-18T14:02:46Z</time>
      </trkpt>
      <trkpt lat="43.2238" lon="5.48146">
        <ele>348</ele>
        <time>2025-10-18T14:02:47Z</time>
      </trkpt>
      <trkpt lat="43.2238" lon="5.48146">
        <ele>348.1</ele>
        <time>2025-10-18T14:02:48Z</time>
      </trkpt>
      <trkpt lat="43.2238" lon="5.48146">
        <ele>348.1</ele>
        <time>2025-10-18T14:02:49Z</time>
      </trkpt>
      <trkpt lat="43.2238" lon="5.48145">
        <ele>348.3</ele>
        <time>2025-10-18T14:02:50Z</time>
      </trkpt>
      <trkpt lat="43.2238" lon="5.48145">
        <ele>348.4</ele>
        <time>2025-10-18T14:02:51Z</time>
      </trkpt>
      <trkpt lat="43.2238" lon="5.48145">
        <ele>348.4</ele>
        <time>2025-10-18T14:02:52Z</time>
      </trkpt>
      <trkpt lat="43.2238" lon="5.48145">
        <ele>348.5</ele>
        <time>2025-10-18T14:02:53Z</time>
      </trkpt>
      <trkpt lat="43.2238" lon="5.48145">
        <ele>348.5</ele>
        <time>2025-10-18T14:02:54Z</time>
      </trkpt>
      <trkpt lat="43.2238" lon="5.48146">
        <ele>348.5</ele>
        <time>2025-10-18T14:02:55Z</time>
      </trkpt>
      <trkpt lat="43.2238" lon="5.48146">
        <ele>348.5</ele>
        <time>2025-10-18T14:02:56Z</time>
      </trkpt>
      <trkpt lat="43.2238" lon="5.48147">
        <ele>348.5</ele>
        <time>2025-10-18T14:02:57Z</time>
      </trkpt>
      <trkpt lat="43.2238" lon="5.48148">
        <ele>348.5</ele>
        <time>2025-10-18T14:02:58Z</time>
      </trkpt>
      <trkpt lat="43.2238" lon="5.48148">
        <ele>348.6</ele>
        <time>2025-10-18T14:02:59Z</time>
      </trkpt>
      <trkpt lat="43.2238" lon="5.48149">
        <ele>348.5</ele>
        <time>2025-10-18T14:03:00Z</time>
      </trkpt>
      <trkpt lat="43.2238" lon="5.48149">
        <ele>348.6</ele>
        <time>2025-10-18T14:03:01Z</time>
      </trkpt>
      <trkpt lat="43.2238" lon="5.48149">
        <ele>348.7</ele>
        <time>2025-10-18T14:03:02Z</time>
      </trkpt>
      <trkpt lat="43.2238" lon="5.48149">
        <ele>348.8</ele>
        <time>2025-10-18T14:03:03Z</time>
      </trkpt>
      <trkpt lat="43.2238" lon="5.48149">
        <ele>348.9</ele>
        <time>2025-10-18T14:03:04Z</time>
      </trkpt>
      <trkpt lat="43.2238" lon="5.48149">
        <ele>348.9</ele>
        <time>2025-10-18T14:03:05Z</time>
      </trkpt>
      <trkpt lat="43.22379" lon="5.48149">
        <ele>349</ele>
        <time>2025-10-18T14:03:06Z</time>
      </trkpt>
      <trkpt lat="43.22379" lon="5.48149">
        <ele>349.1</ele>
        <time>2025-10-18T14:03:07Z</time>
      </trkpt>
      <trkpt lat="43.22379" lon="5.4815">
        <ele>349.1</ele>
        <time>2025-10-18T14:03:08Z</time>
      </trkpt>
      <trkpt lat="43.22379" lon="5.4815">
        <ele>349</ele>
        <time>2025-10-18T14:03:09Z</time>
      </trkpt>
      <trkpt lat="43.2238" lon="5.4815">
        <ele>349.1</ele>
        <time>2025-10-18T14:03:10Z</time>
      </trkpt>
      <trkpt lat="43.2238" lon="5.4815">
        <ele>349.3</ele>
        <time>2025-10-18T14:03:11Z</time>
      </trkpt>
      <trkpt lat="43.2238" lon="5.4815">
        <ele>349.4</ele>
        <time>2025-10-18T14:03:12Z</time>
      </trkpt>
      <trkpt lat="43.2238" lon="5.4815">
        <ele>349.5</ele>
        <time>2025-10-18T14:03:13Z</time>
      </trkpt>
      <trkpt lat="43.22381" lon="5.48151">
        <ele>349.6</ele>
        <time>2025-10-18T14:03:14Z</time>
      </trkpt>
      <trkpt lat="43.22381" lon="5.48151">
        <ele>349.6</ele>
        <time>2025-10-18T14:03:15Z</time>
      </trkpt>
      <trkpt lat="43.22381" lon="5.48151">
        <ele>349.8</ele>
        <time>2025-10-18T14:03:16Z</time>
      </trkpt>
      <trkpt lat="43.22381" lon="5.4815">
        <ele>350</ele>
        <time>2025-10-18T14:03:17Z</time>
      </trkpt>
      <trkpt lat="43.22381" lon="5.48151">
        <ele>350.1</ele>
        <time>2025-10-18T14:03:18Z</time>
      </trkpt>
      <trkpt lat="43.22381" lon="5.48151">
        <ele>350.3</ele>
        <time>2025-10-18T14:03:19Z</time>
      </trkpt>
      <trkpt lat="43.22381" lon="5.48151">
        <ele>350.5</ele>
        <time>2025-10-18T14:03:20Z</time>
      </trkpt>
      <trkpt lat="43.22381" lon="5.48152">
        <ele>350.7</ele>
        <time>2025-10-18T14:03:21Z</time>
      </trkpt>
      <trkpt lat="43.22381" lon="5.48152">
        <ele>350.8</ele>
        <time>2025-10-18T14:03:22Z</time>
      </trkpt>
      <trkpt lat="43.22381" lon="5.48152">
        <ele>351</ele>
        <time>2025-10-18T14:03:23Z</time>
      </trkpt>
      <trkpt lat="43.22381" lon="5.48152">
        <ele>351.2</ele>
        <time>2025-10-18T14:03:24Z</time>
      </trkpt>
      <trkpt lat="43.22381" lon="5.48152">
        <ele>351.3</ele>
        <time>2025-10-18T14:03:25Z</time>
      </trkpt>
      <trkpt lat="43.22381" lon="5.48153">
        <ele>351.3</ele>
        <time>2025-10-18T14:03:26Z</time>
      </trkpt>
      <trkpt lat="43.22381" lon="5.48153">
        <ele>351.4</ele>
        <time>2025-10-18T14:03:27Z</time>
      </trkpt>
      <trkpt lat="43.22381" lon="5.48154">
        <ele>351.5</ele>
        <time>2025-10-18T14:03:28Z</time>
      </trkpt>
      <trkpt lat="43.22381" lon="5.48154">
        <ele>351.6</ele>
        <time>2025-10-18T14:03:29Z</time>
      </trkpt>
      <trkpt lat="43.22381" lon="5.48154">
        <ele>351.8</ele>
        <time>2025-10-18T14:03:30Z</time>
      </trkpt>
      <trkpt lat="43.22381" lon="5.48154">
        <ele>352</ele>
        <time>2025-10-18T14:03:31Z</time>
      </trkpt>
      <trkpt lat="43.22381" lon="5.48154">
        <ele>352.1</ele>
        <time>2025-10-18T14:03:32Z</time>
      </trkpt>
      <trkpt lat="43.22382" lon="5.48154">
        <ele>352.1</ele>
        <time>2025-10-18T14:03:33Z</time>
      </trkpt>
      <trkpt lat="43.22382" lon="5.48154">
        <ele>352.2</ele>
        <time>2025-10-18T14:03:34Z</time>
      </trkpt>
      <trkpt lat="43.22382" lon="5.48154">
        <ele>352.2</ele>
        <time>2025-10-18T14:03:35Z</time>
      </trkpt>
      <trkpt lat="43.22382" lon="5.48154">
        <ele>352.2</ele>
        <time>2025-10-18T14:03:36Z</time>
      </trkpt>
      <trkpt lat="43.22382" lon="5.48154">
        <ele>352.2</ele>
        <time>2025-10-18T14:03:37Z</time>
      </trkpt>
      <trkpt lat="43.22382" lon="5.48154">
        <ele>352.3</ele>
        <time>2025-10-18T14:03:38Z</time>
      </trkpt>
      <trkpt lat="43.22382" lon="5.48154">
        <ele>352.4</ele>
        <time>2025-10-18T14:03:39Z</time>
      </trkpt>
      <trkpt lat="43.22382" lon="5.48154">
        <ele>352.4</ele>
        <time>2025-10-18T14:03:40Z</time>
      </trkpt>
      <trkpt lat="43.22382" lon="5.48154">
        <ele>352.3</ele>
        <time>2025-10-18T14:03:41Z</time>
      </trkpt>
      <trkpt lat="43.22382" lon="5.48154">
        <ele>352.2</ele>
        <time>2025-10-18T14:03:42Z</time>
      </trkpt>
      <trkpt lat="43.22382" lon="5.48154">
        <ele>352.1</ele>
        <time>2025-10-18T14:03:43Z</time>
      </trkpt>
      <trkpt lat="43.22382" lon="5.48154">
        <ele>352</ele>
        <time>2025-10-18T14:03:44Z</time>
      </trkpt>
      <trkpt lat="43.22382" lon="5.48154">
        <ele>351.9</ele>
        <time>2025-10-18T14:03:45Z</time>
      </trkpt>
      <trkpt lat="43.22382" lon="5.48154">
        <ele>351.8</ele>
        <time>2025-10-18T14:03:46Z</time>
      </trkpt>
      <trkpt lat="43.22382" lon="5.48154">
        <ele>351.7</ele>
        <time>2025-10-18T14:03:47Z</time>
      </trkpt>
      <trkpt lat="43.22382" lon="5.48154">
        <ele>351.7</ele>
        <time>2025-10-18T14:03:48Z</time>
      </trkpt>
      <trkpt lat="43.22382" lon="5.48154">
        <ele>351.7</ele>
        <time>2025-10-18T14:03:49Z</time>
      </trkpt>
      <trkpt lat="43.22382" lon="5.48154">
        <ele>351.6</ele>
        <time>2025-10-18T14:03:50Z</time>
      </trkpt>
      <trkpt lat="43.22382" lon="5.48154">
        <ele>351.7</ele>
        <time>2025-10-18T14:03:51Z</time>
      </trkpt>
      <trkpt lat="43.22382" lon="5.48154">
        <ele>351.7</ele>
        <time>2025-10-18T14:03:52Z</time>
      </trkpt>
      <trkpt lat="43.22382" lon="5.48154">
        <ele>351.7</ele>
        <time>2025-10-18T14:03:53Z</time>
      </trkpt>
      <trkpt lat="43.22382" lon="5.48154">
        <ele>351.7</ele>
        <time>2025-10-18T14:03:54Z</time>
      </trkpt>
      <trkpt lat="43.22383" lon="5.48154">
        <ele>351.7</ele>
        <time>2025-10-18T14:03:55Z</time>
      </trkpt>
      <trkpt lat="43.22383" lon="5.48154">
        <ele>351.8</ele>
        <time>2025-10-18T14:03:56Z</time>
      </trkpt>
      <trkpt lat="43.22383" lon="5.48154">
        <ele>351.8</ele>
        <time>2025-10-18T14:03:57Z</time>
      </trkpt>
      <trkpt lat="43.22383" lon="5.48154">
        <ele>351.8</ele>
        <time>2025-10-18T14:03:58Z</time>
      </trkpt>
      <trkpt lat="43.22383" lon="5.48154">
        <ele>351.9</ele>
        <time>2025-10-18T14:03:59Z</time>
      </trkpt>
      <trkpt lat="43.22383" lon="5.48154">
        <ele>352</ele>
        <time>2025-10-18T14:04:00Z</time>
      </trkpt>
      <trkpt lat="43.22383" lon="5.48154">
        <ele>352</ele>
        <time>2025-10-18T14:04:01Z</time>
      </trkpt>
      <trkpt lat="43.22383" lon="5.48155">
        <ele>351.9</ele>
        <time>2025-10-18T14:04:02Z</time>
      </trkpt>
      <trkpt lat="43.22383" lon="5.48155">
        <ele>351.9</ele>
        <time>2025-10-18T14:04:03Z</time>
      </trkpt>
      <trkpt lat="43.22383" lon="5.48155">
        <ele>351.9</ele>
        <time>2025-10-18T14:04:04Z</time>
      </trkpt>
      <trkpt lat="43.22383" lon="5.48155">
        <ele>352</ele>
        <time>2025-10-18T14:04:05Z</time>
      </trkpt>
      <trkpt lat="43.22383" lon="5.48155">
        <ele>352</ele>
        <time>2025-10-18T14:04:06Z</time>
      </trkpt>
      <trkpt lat="43.22383" lon="5.48155">
        <ele>352.1</ele>
        <time>2025-10-18T14:04:07Z</time>
      </trkpt>
      <trkpt lat="43.22383" lon="5.48155">
        <ele>352.1</ele>
        <time>2025-10-18T14:04:08Z</time>
      </trkpt>
      <trkpt lat="43.22383" lon="5.48155">
        <ele>352</ele>
        <time>2025-10-18T14:04:09Z</time>
      </trkpt>
      <trkpt lat="43.22383" lon="5.48155">
        <ele>352</ele>
        <time>2025-10-18T14:04:10Z</time>
      </trkpt>
      <trkpt lat="43.22383" lon="5.48155">
        <ele>352</ele>
        <time>2025-10-18T14:04:11Z</time>
      </trkpt>
      <trkpt lat="43.22383" lon="5.48155">
        <ele>351.9</ele>
        <time>2025-10-18T14:04:12Z</time>
      </trkpt>
      <trkpt lat="43.22383" lon="5.48155">
        <ele>351.8</ele>
        <time>2025-10-18T14:04:13Z</time>
      </trkpt>
      <trkpt lat="43.22384" lon="5.48155">
        <ele>351.8</ele>
        <time>2025-10-18T14:04:14Z</time>
      </trkpt>
      <trkpt lat="43.22384" lon="5.48155">
        <ele>351.8</ele>
        <time>2025-10-18T14:04:15Z</time>
      </trkpt>
      <trkpt lat="43.22384" lon="5.48155">
        <ele>351.8</ele>
        <time>2025-10-18T14:04:16Z</time>
      </trkpt>
      <trkpt lat="43.22384" lon="5.48155">
        <ele>351.9</ele>
        <time>2025-10-18T14:04:17Z</time>
      </trkpt>
      <trkpt lat="43.22384" lon="5.48155">
        <ele>351.8</ele>
        <time>2025-10-18T14:04:18Z</time>
      </trkpt>
      <trkpt lat="43.22384" lon="5.48155">
        <ele>351.9</ele>
        <time>2025-10-18T14:04:19Z</time>
      </trkpt>
      <trkpt lat="43.22384" lon="5.48155">
        <ele>351.9</ele>
        <time>2025-10-18T14:04:20Z</time>
      </trkpt>
      <trkpt lat="43.22384" lon="5.48155">
        <ele>352</ele>
        <time>2025-10-18T14:04:21Z</time>
      </trkpt>
      <trkpt lat="43.22384" lon="5.48155">
        <ele>351.9</ele>
        <time>2025-10-18T14:04:22Z</time>
      </trkpt>
      <trkpt lat="43.22384" lon="5.48155">
        <ele>351.9</ele>
        <time>2025-10-18T14:04:23Z</time>
      </trkpt>
      <trkpt lat="43.22384" lon="5.48155">
        <ele>351.9</ele>
        <time>2025-10-18T14:04:24Z</time>
      </trkpt>
      <trkpt lat="43.22384" lon="5.48155">
        <ele>351.9</ele>
        <time>2025-10-18T14:04:25Z</time>
      </trkpt>
      <trkpt lat="43.22384" lon="5.48155">
        <ele>351.9</ele>
        <time>2025-10-18T14:04:26Z</time>
      </trkpt>
      <trkpt lat="43.22384" lon="5.48155">
        <ele>351.9</ele>
        <time>2025-10-18T14:04:27Z</time>
      </trkpt>
      <trkpt lat="43.22384" lon="5.48155">
        <ele>351.9</ele>
        <time>2025-10-18T14:04:28Z</time>
      </trkpt>
      <trkpt lat="43.22385" lon="5.48155">
        <ele>352</ele>
        <time>2025-10-18T14:04:29Z</time>
      </trkpt>
      <trkpt lat="43.22385" lon="5.48155">
        <ele>351.9</ele>
        <time>2025-10-18T14:04:30Z</time>
      </trkpt>
      <trkpt lat="43.22385" lon="5.48155">
        <ele>351.9</ele>
        <time>2025-10-18T14:04:31Z</time>
      </trkpt>
      <trkpt lat="43.22385" lon="5.48155">
        <ele>351.9</ele>
        <time>2025-10-18T14:04:32Z</time>
      </trkpt>
      <trkpt lat="43.22385" lon="5.48155">
        <ele>351.9</ele>
        <time>2025-10-18T14:04:33Z</time>
      </trkpt>
      <trkpt lat="43.22385" lon="5.48155">
        <ele>351.9</ele>
        <time>2025-10-18T14:04:34Z</time>
      </trkpt>
      <trkpt lat="43.22385" lon="5.48155">
        <ele>351.8</ele>
        <time>2025-10-18T14:04:35Z</time>
      </trkpt>
      <trkpt lat="43.22385" lon="5.48155">
        <ele>351.8</ele>
        <time>2025-10-18T14:04:36Z</time>
      </trkpt>
      <trkpt lat="43.22385" lon="5.48155">
        <ele>351.8</ele>
        <time>2025-10-18T14:04:37Z</time>
      </trkpt>
      <trkpt lat="43.22385" lon="5.48155">
        <ele>351.9</ele>
        <time>2025-10-18T14:04:38Z</time>
      </trkpt>
      <trkpt lat="43.22385" lon="5.48155">
        <ele>351.9</ele>
        <time>2025-10-18T14:04:39Z</time>
      </trkpt>
      <trkpt lat="43.22385" lon="5.48155">
        <ele>351.9</ele>
        <time>2025-10-18T14:04:40Z</time>
      </trkpt>
      <trkpt lat="43.22385" lon="5.48155">
        <ele>351.9</ele>
        <time>2025-10-18T14:04:41Z</time>
      </trkpt>
      <trkpt lat="43.22385" lon="5.48155">
        <ele>351.9</ele>
        <time>2025-10-18T14:04:42Z</time>
      </trkpt>
      <trkpt lat="43.22385" lon="5.48155">
        <ele>351.9</ele>
        <time>2025-10-18T14:04:43Z</time>
      </trkpt>
      <trkpt lat="43.22385" lon="5.48156">
        <ele>351.9</ele>
        <time>2025-10-18T14:04:44Z</time>
      </trkpt>
      <trkpt lat="43.22385" lon="5.48156">
        <ele>351.9</ele>
        <time>2025-10-18T14:04:45Z</time>
      </trkpt>
      <trkpt lat="43.22385" lon="5.48156">
        <ele>351.8</ele>
        <time>2025-10-18T14:04:46Z</time>
      </trkpt>
      <trkpt lat="43.22385" lon="5.48156">
        <ele>351.8</ele>
        <time>2025-10-18T14:04:47Z</time>
      </trkpt>
      <trkpt lat="43.22386" lon="5.48156">
        <ele>351.8</ele>
        <time>2025-10-18T14:04:48Z</time>
      </trkpt>
      <trkpt lat="43.22386" lon="5.48156">
        <ele>351.8</ele>
        <time>2025-10-18T14:04:49Z</time>
      </trkpt>
      <trkpt lat="43.22386" lon="5.48156">
        <ele>351.7</ele>
        <time>2025-10-18T14:04:50Z</time>
      </trkpt>
      <trkpt lat="43.22386" lon="5.48156">
        <ele>351.7</ele>
        <time>2025-10-18T14:04:51Z</time>
      </trkpt>
      <trkpt lat="43.22386" lon="5.48156">
        <ele>351.7</ele>
        <time>2025-10-18T14:04:52Z</time>
      </trkpt>
      <trkpt lat="43.22386" lon="5.48156">
        <ele>351.6</ele>
        <time>2025-10-18T14:04:53Z</time>
      </trkpt>
      <trkpt lat="43.22387" lon="5.48156">
        <ele>351.5</ele>
        <time>2025-10-18T14:04:54Z</time>
      </trkpt>
      <trkpt lat="43.22387" lon="5.48156">
        <ele>351.5</ele>
        <time>2025-10-18T14:04:55Z</time>
      </trkpt>
      <trkpt lat="43.22387" lon="5.48156">
        <ele>351.5</ele>
        <time>2025-10-18T14:04:56Z</time>
      </trkpt>
      <trkpt lat="43.22387" lon="5.48156">
        <ele>351.6</ele>
        <time>2025-10-18T14:04:57Z</time>
      </trkpt>
      <trkpt lat="43.22387" lon="5.48156">
        <ele>351.6</ele>
        <time>2025-10-18T14:04:58Z</time>
      </trkpt>
      <trkpt lat="43.22387" lon="5.48156">
        <ele>351.7</ele>
        <time>2025-10-18T14:04:59Z</time>
      </trkpt>
      <trkpt lat="43.22387" lon="5.48156">
        <ele>351.7</ele>
        <time>2025-10-18T14:05:00Z</time>
      </trkpt>
      <trkpt lat="43.22387" lon="5.48156">
        <ele>351.6</ele>
        <time>2025-10-18T14:05:01Z</time>
      </trkpt>
      <trkpt lat="43.22387" lon="5.48156">
        <ele>351.6</ele>
        <time>2025-10-18T14:05:02Z</time>
      </trkpt>
      <trkpt lat="43.22387" lon="5.48156">
        <ele>351.6</ele>
        <time>2025-10-18T14:05:03Z</time>
      </trkpt>
      <trkpt lat="43.22387" lon="5.48156">
        <ele>351.6</ele>
        <time>2025-10-18T14:05:04Z</time>
      </trkpt>
      <trkpt lat="43.22387" lon="5.48156">
        <ele>351.6</ele>
        <time>2025-10-18T14:05:05Z</time>
      </trkpt>
      <trkpt lat="43.22387" lon="5.48156">
        <ele>351.7</ele>
        <time>2025-10-18T14:05:06Z</time>
      </trkpt>
      <trkpt lat="43.22387" lon="5.48156">
        <ele>351.7</ele>
        <time>2025-10-18T14:05:07Z</time>
      </trkpt>
      <trkpt lat="43.22387" lon="5.48156">
        <ele>351.6</ele>
        <time>2025-10-18T14:05:08Z</time>
      </trkpt>
      <trkpt lat="43.22387" lon="5.48156">
        <ele>351.6</ele>
        <time>2025-10-18T14:05:09Z</time>
      </trkpt>
      <trkpt lat="43.22387" lon="5.48156">
        <ele>351.6</ele>
        <time>2025-10-18T14:05:10Z</time>
      </trkpt>
      <trkpt lat="43.22387" lon="5.48156">
        <ele>351.6</ele>
        <time>2025-10-18T14:05:11Z</time>
      </trkpt>
      <trkpt lat="43.22387" lon="5.48156">
        <ele>351.6</ele>
        <time>2025-10-18T14:05:12Z</time>
      </trkpt>
      <trkpt lat="43.22387" lon="5.48156">
        <ele>351.7</ele>
        <time>2025-10-18T14:05:13Z</time>
      </trkpt>
      <trkpt lat="43.22387" lon="5.48156">
        <ele>351.7</ele>
        <time>2025-10-18T14:05:14Z</time>
      </trkpt>
      <trkpt lat="43.22387" lon="5.48156">
        <ele>351.7</ele>
        <time>2025-10-18T14:05:15Z</time>
      </trkpt>
      <trkpt lat="43.22387" lon="5.48156">
        <ele>351.7</ele>
        <time>2025-10-18T14:05:16Z</time>
      </trkpt>
      <trkpt lat="43.22387" lon="5.48156">
        <ele>351.7</ele>
        <time>2025-10-18T14:05:17Z</time>
      </trkpt>
      <trkpt lat="43.22387" lon="5.48156">
        <ele>351.6</ele>
        <time>2025-10-18T14:05:18Z</time>
      </trkpt>
      <trkpt lat="43.22387" lon="5.48156">
        <ele>351.7</ele>
        <time>2025-10-18T14:05:19Z</time>
      </trkpt>
      <trkpt lat="43.22387" lon="5.48156">
        <ele>351.7</ele>
        <time>2025-10-18T14:05:20Z</time>
      </trkpt>
      <trkpt lat="43.22387" lon="5.48156">
        <ele>351.8</ele>
        <time>2025-10-18T14:05:21Z</time>
      </trkpt>
      <trkpt lat="43.22387" lon="5.48156">
        <ele>351.8</ele>
        <time>2025-10-18T14:05:22Z</time>
      </trkpt>
      <trkpt lat="43.22387" lon="5.48156">
        <ele>351.8</ele>
        <time>2025-10-18T14:05:23Z</time>
      </trkpt>
      <trkpt lat="43.22387" lon="5.48156">
        <ele>351.8</ele>
        <time>2025-10-18T14:05:24Z</time>
      </trkpt>
      <trkpt lat="43.22387" lon="5.48156">
        <ele>351.8</ele>
        <time>2025-10-18T14:05:25Z</time>
      </trkpt>
      <trkpt lat="43.22387" lon="5.48156">
        <ele>351.7</ele>
        <time>2025-10-18T14:05:26Z</time>
      </trkpt>
      <trkpt lat="43.22387" lon="5.48156">
        <ele>351.7</ele>
        <time>2025-10-18T14:05:27Z</time>
      </trkpt>
      <trkpt lat="43.22387" lon="5.48156">
        <ele>351.8</ele>
        <time>2025-10-18T14:05:28Z</time>
      </trkpt>
      <trkpt lat="43.22387" lon="5.48156">
        <ele>351.8</ele>
        <time>2025-10-18T14:05:29Z</time>
      </trkpt>
      <trkpt lat="43.22387" lon="5.48156">
        <ele>351.8</ele>
        <time>2025-10-18T14:05:30Z</time>
      </trkpt>
      <trkpt lat="43.22387" lon="5.48156">
        <ele>351.9</ele>
        <time>2025-10-18T14:05:31Z</time>
      </trkpt>
      <trkpt lat="43.22387" lon="5.48156">
        <ele>351.8</ele>
        <time>2025-10-18T14:05:32Z</time>
      </trkpt>
      <trkpt lat="43.22387" lon="5.48156">
        <ele>351.7</ele>
        <time>2025-10-18T14:05:33Z</time>
      </trkpt>
      <trkpt lat="43.22387" lon="5.48156">
        <ele>351.6</ele>
        <time>2025-10-18T14:05:34Z</time>
      </trkpt>
      <trkpt lat="43.22387" lon="5.48156">
        <ele>351.7</ele>
        <time>2025-10-18T14:05:35Z</time>
      </trkpt>
      <trkpt lat="43.22387" lon="5.48156">
        <ele>351.7</ele>
        <time>2025-10-18T14:05:36Z</time>
      </trkpt>
      <trkpt lat="43.22387" lon="5.48156">
        <ele>351.6</ele>
        <time>2025-10-18T14:05:37Z</time>
      </trkpt>
      <trkpt lat="43.22387" lon="5.48156">
        <ele>351.5</ele>
        <time>2025-10-18T14:05:38Z</time>
      </trkpt>
      <trkpt lat="43.22387" lon="5.48156">
        <ele>351.4</ele>
        <time>2025-10-18T14:05:39Z</time>
      </trkpt>
      <trkpt lat="43.22387" lon="5.48156">
        <ele>351.4</ele>
        <time>2025-10-18T14:05:40Z</time>
      </trkpt>
      <trkpt lat="43.22387" lon="5.48156">
        <ele>351.4</ele>
        <time>2025-10-18T14:05:41Z</time>
      </trkpt>
      <trkpt lat="43.22387" lon="5.48156">
        <ele>351.4</ele>
        <time>2025-10-18T14:05:42Z</time>
      </trkpt>
      <trkpt lat="43.22387" lon="5.48156">
        <ele>351.3</ele>
        <time>2025-10-18T14:05:43Z</time>
      </trkpt>
      <trkpt lat="43.22387" lon="5.48156">
        <ele>351.2</ele>
        <time>2025-10-18T14:05:44Z</time>
      </trkpt>
      <trkpt lat="43.22387" lon="5.48156">
        <ele>351.2</ele>
        <time>2025-10-18T14:05:45Z</time>
      </trkpt>
      <trkpt lat="43.22387" lon="5.48156">
        <ele>351.2</ele>
        <time>2025-10-18T14:05:46Z</time>
      </trkpt>
      <trkpt lat="43.22387" lon="5.48156">
        <ele>351.3</ele>
        <time>2025-10-18T14:05:47Z</time>
      </trkpt>
      <trkpt lat="43.22387" lon="5.48156">
        <ele>351.2</ele>
        <time>2025-10-18T14:05:48Z</time>
      </trkpt>
      <trkpt lat="43.22388" lon="5.48156">
        <ele>351.2</ele>
        <time>2025-10-18T14:05:49Z</time>
      </trkpt>
      <trkpt lat="43.22388" lon="5.48156">
        <ele>351.2</ele>
        <time>2025-10-18T14:05:50Z</time>
      </trkpt>
      <trkpt lat="43.22388" lon="5.48156">
        <ele>351.2</ele>
        <time>2025-10-18T14:05:51Z</time>
      </trkpt>
      <trkpt lat="43.22388" lon="5.48156">
        <ele>351.2</ele>
        <time>2025-10-18T14:05:52Z</time>
      </trkpt>
      <trkpt lat="43.22388" lon="5.48156">
        <ele>351.3</ele>
        <time>2025-10-18T14:05:53Z</time>
      </trkpt>
      <trkpt lat="43.22388" lon="5.48156">
        <ele>351.3</ele>
        <time>2025-10-18T14:05:54Z</time>
      </trkpt>
      <trkpt lat="43.22388" lon="5.48156">
        <ele>351.4</ele>
        <time>2025-10-18T14:05:55Z</time>
      </trkpt>
      <trkpt lat="43.22388" lon="5.48156">
        <ele>351.4</ele>
        <time>2025-10-18T14:05:56Z</time>
      </trkpt>
      <trkpt lat="43.22388" lon="5.48156">
        <ele>351.5</ele>
        <time>2025-10-18T14:05:57Z</time>
      </trkpt>
      <trkpt lat="43.22388" lon="5.48156">
        <ele>351.4</ele>
        <time>2025-10-18T14:05:58Z</time>
      </trkpt>
      <trkpt lat="43.22388" lon="5.48156">
        <ele>351.4</ele>
        <time>2025-10-18T14:05:59Z</time>
      </trkpt>
      <trkpt lat="43.22388" lon="5.48156">
        <ele>351.4</ele>
        <time>2025-10-18T14:06:00Z</time>
      </trkpt>
      <trkpt lat="43.22388" lon="5.48156">
        <ele>351.4</ele>
        <time>2025-10-18T14:06:01Z</time>
      </trkpt>
      <trkpt lat="43.22388" lon="5.48156">
        <ele>351.4</ele>
        <time>2025-10-18T14:06:02Z</time>
      </trkpt>
      <trkpt lat="43.22388" lon="5.48156">
        <ele>351.3</ele>
        <time>2025-10-18T14:06:03Z</time>
      </trkpt>
      <trkpt lat="43.22388" lon="5.48156">
        <ele>351.3</ele>
        <time>2025-10-18T14:06:04Z</time>
      </trkpt>
      <trkpt lat="43.22388" lon="5.48156">
        <ele>351.3</ele>
        <time>2025-10-18T14:06:05Z</time>
      </trkpt>
      <trkpt lat="43.22388" lon="5.48156">
        <ele>351.3</ele>
        <time>2025-10-18T14:06:06Z</time>
      </trkpt>
      <trkpt lat="43.22388" lon="5.48156">
        <ele>351.3</ele>
        <time>2025-10-18T14:06:07Z</time>
      </trkpt>
      <trkpt lat="43.22388" lon="5.48156">
        <ele>351.3</ele>
        <time>2025-10-18T14:06:08Z</time>
      </trkpt>
      <trkpt lat="43.22388" lon="5.48156">
        <ele>351.3</ele>
        <time>2025-10-18T14:06:09Z</time>
      </trkpt>
      <trkpt lat="43.22388" lon="5.48156">
        <ele>351.3</ele>
        <time>2025-10-18T14:06:10Z</time>
      </trkpt>
      <trkpt lat="43.22388" lon="5.48156">
        <ele>351.3</ele>
        <time>2025-10-18T14:06:11Z</time>
      </trkpt>
      <trkpt lat="43.22388" lon="5.48156">
        <ele>351.3</ele>
        <time>2025-10-18T14:06:12Z</time>
      </trkpt>
      <trkpt lat="43.22388" lon="5.48156">
        <ele>351.4</ele>
        <time>2025-10-18T14:06:13Z</time>
      </trkpt>
      <trkpt lat="43.22388" lon="5.48156">
        <ele>351.3</ele>
        <time>2025-10-18T14:06:14Z</time>
      </trkpt>
      <trkpt lat="43.22388" lon="5.48156">
        <ele>351.3</ele>
        <time>2025-10-18T14:06:15Z</time>
      </trkpt>
      <trkpt lat="43.22388" lon="5.48156">
        <ele>351.3</ele>
        <time>2025-10-18T14:06:16Z</time>
      </trkpt>
      <trkpt lat="43.22388" lon="5.48156">
        <ele>351.2</ele>
        <time>2025-10-18T14:06:17Z</time>
      </trkpt>
      <trkpt lat="43.22388" lon="5.48156">
        <ele>351.2</ele>
        <time>2025-10-18T14:06:18Z</time>
      </trkpt>
      <trkpt lat="43.22388" lon="5.48156">
        <ele>351.3</ele>
        <time>2025-10-18T14:06:19Z</time>
      </trkpt>
      <trkpt lat="43.22388" lon="5.48156">
        <ele>351.2</ele>
        <time>2025-10-18T14:06:20Z</time>
      </trkpt>
      <trkpt lat="43.22388" lon="5.48156">
        <ele>351.2</ele>
        <time>2025-10-18T14:06:21Z</time>
      </trkpt>
      <trkpt lat="43.22388" lon="5.48156">
        <ele>351.3</ele>
        <time>2025-10-18T14:06:22Z</time>
      </trkpt>
      <trkpt lat="43.22388" lon="5.48156">
        <ele>351.3</ele>
        <time>2025-10-18T14:06:23Z</time>
      </trkpt>
      <trkpt lat="43.22388" lon="5.48156">
        <ele>351.3</ele>
        <time>2025-10-18T14:06:24Z</time>
      </trkpt>
      <trkpt lat="43.22388" lon="5.48156">
        <ele>351.4</ele>
        <time>2025-10-18T14:06:25Z</time>
      </trkpt>
      <trkpt lat="43.22388" lon="5.48156">
        <ele>351.4</ele>
        <time>2025-10-18T14:06:26Z</time>
      </trkpt>
      <trkpt lat="43.22388" lon="5.48156">
        <ele>351.4</ele>
        <time>2025-10-18T14:06:27Z</time>
      </trkpt>
      <trkpt lat="43.22388" lon="5.48156">
        <ele>351.4</ele>
        <time>2025-10-18T14:06:28Z</time>
      </trkpt>
      <trkpt lat="43.22388" lon="5.48156">
        <ele>351.4</ele>
        <time>2025-10-18T14:06:29Z</time>
      </trkpt>
      <trkpt lat="43.22388" lon="5.48156">
        <ele>351.4</ele>
        <time>2025-10-18T14:06:30Z</time>
      </trkpt>
      <trkpt lat="43.22388" lon="5.48156">
        <ele>351.4</ele>
        <time>2025-10-18T14:06:31Z</time>
      </trkpt>
      <trkpt lat="43.22388" lon="5.48156">
        <ele>351.3</ele>
        <time>2025-10-18T14:06:32Z</time>
      </trkpt>
      <trkpt lat="43.22388" lon="5.48156">
        <ele>351.3</ele>
        <time>2025-10-18T14:06:33Z</time>
      </trkpt>
      <trkpt lat="43.22388" lon="5.48156">
        <ele>351.3</ele>
        <time>2025-10-18T14:06:34Z</time>
      </trkpt>
      <trkpt lat="43.22388" lon="5.48156">
        <ele>351.3</ele>
        <time>2025-10-18T14:06:35Z</time>
      </trkpt>
      <trkpt lat="43.22388" lon="5.48156">
        <ele>351.3</ele>
        <time>2025-10-18T14:06:36Z</time>
      </trkpt>
      <trkpt lat="43.22388" lon="5.48156">
        <ele>351.3</ele>
        <time>2025-10-18T14:06:37Z</time>
      </trkpt>
      <trkpt lat="43.22388" lon="5.48156">
        <ele>351.3</ele>
        <time>2025-10-18T14:06:38Z</time>
      </trkpt>
      <trkpt lat="43.22388" lon="5.48156">
        <ele>351.3</ele>
        <time>2025-10-18T14:06:39Z</time>
      </trkpt>
      <trkpt lat="43.22389" lon="5.48156">
        <ele>351.3</ele>
        <time>2025-10-18T14:06:40Z</time>
      </trkpt>
      <trkpt lat="43.22389" lon="5.48156">
        <ele>351.3</ele>
        <time>2025-10-18T14:06:41Z</time>
      </trkpt>
      <trkpt lat="43.22389" lon="5.48156">
        <ele>351.4</ele>
        <time>2025-10-18T14:06:42Z</time>
      </trkpt>
      <trkpt lat="43.22389" lon="5.48156">
        <ele>351.4</ele>
        <time>2025-10-18T14:06:43Z</time>
      </trkpt>
      <trkpt lat="43.22389" lon="5.48156">
        <ele>351.4</ele>
        <time>2025-10-18T14:06:44Z</time>
      </trkpt>
      <trkpt lat="43.22389" lon="5.48156">
        <ele>351.4</ele>
        <time>2025-10-18T14:06:45Z</time>
      </trkpt>
      <trkpt lat="43.22389" lon="5.48156">
        <ele>351.3</ele>
        <time>2025-10-18T14:06:46Z</time>
      </trkpt>
      <trkpt lat="43.22389" lon="5.48156">
        <ele>351.3</ele>
        <time>2025-10-18T14:06:47Z</time>
      </trkpt>
      <trkpt lat="43.22389" lon="5.48156">
        <ele>351.5</ele>
        <time>2025-10-18T14:06:48Z</time>
      </trkpt>
      <trkpt lat="43.22389" lon="5.48156">
        <ele>351.6</ele>
        <time>2025-10-18T14:06:49Z</time>
      </trkpt>
      <trkpt lat="43.22389" lon="5.48156">
        <ele>351.6</ele>
        <time>2025-10-18T14:06:50Z</time>
      </trkpt>
      <trkpt lat="43.22389" lon="5.48156">
        <ele>351.6</ele>
        <time>2025-10-18T14:06:51Z</time>
      </trkpt>
      <trkpt lat="43.22389" lon="5.48156">
        <ele>351.6</ele>
        <time>2025-10-18T14:06:52Z</time>
      </trkpt>
      <trkpt lat="43.22389" lon="5.48156">
        <ele>351.5</ele>
        <time>2025-10-18T14:06:53Z</time>
      </trkpt>
      <trkpt lat="43.22389" lon="5.48156">
        <ele>351.4</ele>
        <time>2025-10-18T14:06:54Z</time>
      </trkpt>
      <trkpt lat="43.22389" lon="5.48156">
        <ele>351.3</ele>
        <time>2025-10-18T14:06:55Z</time>
      </trkpt>
      <trkpt lat="43.22389" lon="5.48156">
        <ele>351.3</ele>
        <time>2025-10-18T14:06:56Z</time>
      </trkpt>
      <trkpt lat="43.22389" lon="5.48156">
        <ele>351.2</ele>
        <time>2025-10-18T14:06:57Z</time>
      </trkpt>
      <trkpt lat="43.22389" lon="5.48156">
        <ele>351.2</ele>
        <time>2025-10-18T14:06:58Z</time>
      </trkpt>
      <trkpt lat="43.22389" lon="5.48156">
        <ele>351.2</ele>
        <time>2025-10-18T14:06:59Z</time>
      </trkpt>
      <trkpt lat="43.22389" lon="5.48156">
        <ele>351.2</ele>
        <time>2025-10-18T14:07:00Z</time>
      </trkpt>
      <trkpt lat="43.22389" lon="5.48156">
        <ele>351.2</ele>
        <time>2025-10-18T14:07:01Z</time>
      </trkpt>
      <trkpt lat="43.22389" lon="5.48156">
        <ele>351.1</ele>
        <time>2025-10-18T14:07:02Z</time>
      </trkpt>
      <trkpt lat="43.22389" lon="5.48156">
        <ele>351</ele>
        <time>2025-10-18T14:07:03Z</time>
      </trkpt>
      <trkpt lat="43.22389" lon="5.48156">
        <ele>351</ele>
        <time>2025-10-18T14:07:04Z</time>
      </trkpt>
      <trkpt lat="43.22389" lon="5.48156">
        <ele>351</ele>
        <time>2025-10-18T14:07:05Z</time>
      </trkpt>
      <trkpt lat="43.22389" lon="5.48156">
        <ele>351.1</ele>
        <time>2025-10-18T14:07:06Z</time>
      </trkpt>
      <trkpt lat="43.22389" lon="5.48156">
        <ele>351.1</ele>
        <time>2025-10-18T14:07:07Z</time>
      </trkpt>
      <trkpt lat="43.22389" lon="5.48156">
        <ele>351.1</ele>
        <time>2025-10-18T14:07:08Z</time>
      </trkpt>
      <trkpt lat="43.22389" lon="5.48156">
        <ele>351.2</ele>
        <time>2025-10-18T14:07:09Z</time>
      </trkpt>
      <trkpt lat="43.22389" lon="5.48156">
        <ele>351.3</ele>
        <time>2025-10-18T14:07:10Z</time>
      </trkpt>
      <trkpt lat="43.22389" lon="5.48156">
        <ele>351.3</ele>
        <time>2025-10-18T14:07:11Z</time>
      </trkpt>
      <trkpt lat="43.22389" lon="5.48156">
        <ele>351.3</ele>
        <time>2025-10-18T14:07:12Z</time>
      </trkpt>
      <trkpt lat="43.22389" lon="5.48156">
        <ele>351.3</ele>
        <time>2025-10-18T14:07:13Z</time>
      </trkpt>
      <trkpt lat="43.22389" lon="5.48156">
        <ele>351.3</ele>
        <time>2025-10-18T14:07:14Z</time>
      </trkpt>
      <trkpt lat="43.22389" lon="5.48156">
        <ele>351.3</ele>
        <time>2025-10-18T14:07:15Z</time>
      </trkpt>
      <trkpt lat="43.2239" lon="5.48156">
        <ele>351.3</ele>
        <time>2025-10-18T14:07:16Z</time>
      </trkpt>
      <trkpt lat="43.2239" lon="5.48156">
        <ele>351.3</ele>
        <time>2025-10-18T14:07:17Z</time>
      </trkpt>
      <trkpt lat="43.2239" lon="5.48156">
        <ele>351.3</ele>
        <time>2025-10-18T14:07:18Z</time>
      </trkpt>
      <trkpt lat="43.2239" lon="5.48156">
        <ele>351.3</ele>
        <time>2025-10-18T14:07:19Z</time>
      </trkpt>
      <trkpt lat="43.2239" lon="5.48156">
        <ele>351.3</ele>
        <time>2025-10-18T14:07:20Z</time>
      </trkpt>
      <trkpt lat="43.2239" lon="5.48156">
        <ele>351.4</ele>
        <time>2025-10-18T14:07:21Z</time>
      </trkpt>
      <trkpt lat="43.22389" lon="5.48156">
        <ele>351.4</ele>
        <time>2025-10-18T14:07:22Z</time>
      </trkpt>
      <trkpt lat="43.22389" lon="5.48156">
        <ele>351.4</ele>
        <time>2025-10-18T14:07:23Z</time>
      </trkpt>
      <trkpt lat="43.22389" lon="5.48156">
        <ele>351.4</ele>
        <time>2025-10-18T14:07:24Z</time>
      </trkpt>
      <trkpt lat="43.22389" lon="5.48156">
        <ele>351.5</ele>
        <time>2025-10-18T14:07:25Z</time>
      </trkpt>
      <trkpt lat="43.22389" lon="5.48156">
        <ele>351.5</ele>
        <time>2025-10-18T14:07:26Z</time>
      </trkpt>
      <trkpt lat="43.22389" lon="5.48156">
        <ele>351.5</ele>
        <time>2025-10-18T14:07:27Z</time>
      </trkpt>
      <trkpt lat="43.2239" lon="5.48156">
        <ele>351.5</ele>
        <time>2025-10-18T14:07:28Z</time>
      </trkpt>
      <trkpt lat="43.2239" lon="5.48156">
        <ele>351.6</ele>
        <time>2025-10-18T14:07:29Z</time>
      </trkpt>
      <trkpt lat="43.2239" lon="5.48156">
        <ele>351.6</ele>
        <time>2025-10-18T14:07:30Z</time>
      </trkpt>
      <trkpt lat="43.2239" lon="5.48156">
        <ele>351.6</ele>
        <time>2025-10-18T14:07:31Z</time>
      </trkpt>
      <trkpt lat="43.2239" lon="5.48156">
        <ele>351.6</ele>
        <time>2025-10-18T14:07:32Z</time>
      </trkpt>
      <trkpt lat="43.2239" lon="5.48156">
        <ele>351.6</ele>
        <time>2025-10-18T14:07:33Z</time>
      </trkpt>
      <trkpt lat="43.2239" lon="5.48156">
        <ele>351.8</ele>
        <time>2025-10-18T14:07:34Z</time>
      </trkpt>
      <trkpt lat="43.2239" lon="5.48156">
        <ele>351.8</ele>
        <time>2025-10-18T14:07:35Z</time>
      </trkpt>
      <trkpt lat="43.2239" lon="5.48156">
        <ele>351.8</ele>
        <time>2025-10-18T14:07:36Z</time>
      </trkpt>
      <trkpt lat="43.2239" lon="5.48156">
        <ele>351.8</ele>
        <time>2025-10-18T14:07:37Z</time>
      </trkpt>
      <trkpt lat="43.2239" lon="5.48156">
        <ele>351.8</ele>
        <time>2025-10-18T14:07:38Z</time>
      </trkpt>
      <trkpt lat="43.22389" lon="5.48156">
        <ele>351.7</ele>
        <time>2025-10-18T14:07:39Z</time>
      </trkpt>
      <trkpt lat="43.22389" lon="5.48156">
        <ele>351.7</ele>
        <time>2025-10-18T14:07:40Z</time>
      </trkpt>
      <trkpt lat="43.22389" lon="5.48156">
        <ele>351.6</ele>
        <time>2025-10-18T14:07:41Z</time>
      </trkpt>
      <trkpt lat="43.22389" lon="5.48156">
        <ele>351.6</ele>
        <time>2025-10-18T14:07:42Z</time>
      </trkpt>
      <trkpt lat="43.22389" lon="5.48156">
        <ele>351.6</ele>
        <time>2025-10-18T14:07:43Z</time>
      </trkpt>
      <trkpt lat="43.22389" lon="5.48156">
        <ele>351.6</ele>
        <time>2025-10-18T14:07:44Z</time>
      </trkpt>
      <trkpt lat="43.22389" lon="5.48156">
        <ele>351.6</ele>
        <time>2025-10-18T14:07:45Z</time>
      </trkpt>
      <trkpt lat="43.22389" lon="5.48156">
        <ele>351.6</ele>
        <time>2025-10-18T14:07:46Z</time>
      </trkpt>
      <trkpt lat="43.22389" lon="5.48156">
        <ele>351.6</ele>
        <time>2025-10-18T14:07:47Z</time>
      </trkpt>
      <trkpt lat="43.22389" lon="5.48156">
        <ele>351.6</ele>
        <time>2025-10-18T14:07:48Z</time>
      </trkpt>
      <trkpt lat="43.22389" lon="5.48156">
        <ele>351.6</ele>
        <time>2025-10-18T14:07:49Z</time>
      </trkpt>
      <trkpt lat="43.22389" lon="5.48156">
        <ele>351.6</ele>
        <time>2025-10-18T14:07:50Z</time>
      </trkpt>
      <trkpt lat="43.22389" lon="5.48156">
        <ele>351.6</ele>
        <time>2025-10-18T14:07:51Z</time>
      </trkpt>
      <trkpt lat="43.22389" lon="5.48156">
        <ele>351.6</ele>
        <time>2025-10-18T14:07:52Z</time>
      </trkpt>
      <trkpt lat="43.22389" lon="5.48156">
        <ele>351.6</ele>
        <time>2025-10-18T14:07:53Z</time>
      </trkpt>
      <trkpt lat="43.22389" lon="5.48156">
        <ele>351.6</ele>
        <time>2025-10-18T14:07:54Z</time>
      </trkpt>
      <trkpt lat="43.22389" lon="5.48156">
        <ele>351.6</ele>
        <time>2025-10-18T14:07:55Z</time>
      </trkpt>
      <trkpt lat="43.22389" lon="5.48156">
        <ele>351.6</ele>
        <time>2025-10-18T14:07:56Z</time>
      </trkpt>
      <trkpt lat="43.22389" lon="5.48156">
        <ele>351.6</ele>
        <time>2025-10-18T14:07:57Z</time>
      </trkpt>
      <trkpt lat="43.22389" lon="5.48156">
        <ele>351.6</ele>
        <time>2025-10-18T14:07:58Z</time>
      </trkpt>
      <trkpt lat="43.22389" lon="5.48156">
        <ele>351.6</ele>
        <time>2025-10-18T14:07:59Z</time>
      </trkpt>
      <trkpt lat="43.22389" lon="5.48156">
        <ele>351.6</ele>
        <time>2025-10-18T14:08:00Z</time>
      </trkpt>
      <trkpt lat="43.22389" lon="5.48156">
        <ele>351.6</ele>
        <time>2025-10-18T14:08:01Z</time>
      </trkpt>
      <trkpt lat="43.22389" lon="5.48156">
        <ele>351.6</ele>
        <time>2025-10-18T14:08:02Z</time>
      </trkpt>
      <trkpt lat="43.22389" lon="5.48156">
        <ele>351.6</ele>
        <time>2025-10-18T14:08:03Z</time>
      </trkpt>
      <trkpt lat="43.22389" lon="5.48156">
        <ele>351.6</ele>
        <time>2025-10-18T14:08:04Z</time>
      </trkpt>
      <trkpt lat="43.22389" lon="5.48156">
        <ele>351.6</ele>
        <time>2025-10-18T14:08:05Z</time>
      </trkpt>
      <trkpt lat="43.22389" lon="5.48156">
        <ele>351.6</ele>
        <time>2025-10-18T14:08:06Z</time>
      </trkpt>
      <trkpt lat="43.22389" lon="5.48156">
        <ele>351.6</ele>
        <time>2025-10-18T14:08:07Z</time>
      </trkpt>
      <trkpt lat="43.22389" lon="5.48156">
        <ele>351.6</ele>
        <time>2025-10-18T14:08:08Z</time>
      </trkpt>
      <trkpt lat="43.22389" lon="5.48156">
        <ele>351.5</ele>
        <time>2025-10-18T14:08:09Z</time>
      </trkpt>
      <trkpt lat="43.22389" lon="5.48156">
        <ele>351.5</ele>
        <time>2025-10-18T14:08:10Z</time>
      </trkpt>
      <trkpt lat="43.22389" lon="5.48156">
        <ele>351.4</ele>
        <time>2025-10-18T14:08:11Z</time>
      </trkpt>
      <trkpt lat="43.22389" lon="5.48156">
        <ele>351.4</ele>
        <time>2025-10-18T14:08:12Z</time>
      </trkpt>
      <trkpt lat="43.22389" lon="5.48156">
        <ele>351.3</ele>
        <time>2025-10-18T14:08:13Z</time>
      </trkpt>
      <trkpt lat="43.22389" lon="5.48156">
        <ele>351.3</ele>
        <time>2025-10-18T14:08:14Z</time>
      </trkpt>
      <trkpt lat="43.22389" lon="5.48156">
        <ele>351.3</ele>
        <time>2025-10-18T14:08:15Z</time>
      </trkpt>
      <trkpt lat="43.22389" lon="5.48156">
        <ele>351.3</ele>
        <time>2025-10-18T14:08:16Z</time>
      </trkpt>
      <trkpt lat="43.22389" lon="5.48156">
        <ele>351.3</ele>
        <time>2025-10-18T14:08:17Z</time>
      </trkpt>
      <trkpt lat="43.22389" lon="5.48156">
        <ele>351.3</ele>
        <time>2025-10-18T14:08:18Z</time>
      </trkpt>
      <trkpt lat="43.22389" lon="5.48156">
        <ele>351.4</ele>
        <time>2025-10-18T14:08:19Z</time>
      </trkpt>
      <trkpt lat="43.22389" lon="5.48156">
        <ele>351.5</ele>
        <time>2025-10-18T14:08:20Z</time>
      </trkpt>
      <trkpt lat="43.22389" lon="5.48156">
        <ele>351.5</ele>
        <time>2025-10-18T14:08:21Z</time>
      </trkpt>
      <trkpt lat="43.22389" lon="5.48156">
        <ele>351.5</ele>
        <time>2025-10-18T14:08:22Z</time>
      </trkpt>
      <trkpt lat="43.22389" lon="5.48156">
        <ele>351.6</ele>
        <time>2025-10-18T14:08:23Z</time>
      </trkpt>
      <trkpt lat="43.22389" lon="5.48156">
        <ele>351.6</ele>
        <time>2025-10-18T14:08:24Z</time>
      </trkpt>
      <trkpt lat="43.22389" lon="5.48156">
        <ele>351.7</ele>
        <time>2025-10-18T14:08:25Z</time>
      </trkpt>
      <trkpt lat="43.22389" lon="5.48156">
        <ele>351.7</ele>
        <time>2025-10-18T14:08:26Z</time>
      </trkpt>
      <trkpt lat="43.22389" lon="5.48156">
        <ele>351.7</ele>
        <time>2025-10-18T14:08:27Z</time>
      </trkpt>
      <trkpt lat="43.22389" lon="5.48157">
        <ele>351.7</ele>
        <time>2025-10-18T14:08:28Z</time>
      </trkpt>
      <trkpt lat="43.22389" lon="5.48157">
        <ele>351.7</ele>
        <time>2025-10-18T14:08:29Z</time>
      </trkpt>
      <trkpt lat="43.22389" lon="5.48157">
        <ele>351.6</ele>
        <time>2025-10-18T14:08:30Z</time>
      </trkpt>
      <trkpt lat="43.22389" lon="5.48157">
        <ele>351.6</ele>
        <time>2025-10-18T14:08:31Z</time>
      </trkpt>
      <trkpt lat="43.22389" lon="5.48157">
        <ele>351.6</ele>
        <time>2025-10-18T14:08:32Z</time>
      </trkpt>
      <trkpt lat="43.22388" lon="5.48157">
        <ele>351.6</ele>
        <time>2025-10-18T14:08:33Z</time>
      </trkpt>
      <trkpt lat="43.22388" lon="5.48157">
        <ele>351.7</ele>
        <time>2025-10-18T14:08:34Z</time>
      </trkpt>
      <trkpt lat="43.22388" lon="5.48157">
        <ele>351.8</ele>
        <time>2025-10-18T14:08:35Z</time>
      </trkpt>
      <trkpt lat="43.22388" lon="5.48156">
        <ele>351.9</ele>
        <time>2025-10-18T14:08:36Z</time>
      </trkpt>
      <trkpt lat="43.22388" lon="5.48156">
        <ele>352</ele>
        <time>2025-10-18T14:08:37Z</time>
      </trkpt>
      <trkpt lat="43.22388" lon="5.48157">
        <ele>352.1</ele>
        <time>2025-10-18T14:08:38Z</time>
      </trkpt>
      <trkpt lat="43.22387" lon="5.48157">
        <ele>352.1</ele>
        <time>2025-10-18T14:08:39Z</time>
      </trkpt>
      <trkpt lat="43.22387" lon="5.48157">
        <ele>352.2</ele>
        <time>2025-10-18T14:08:40Z</time>
      </trkpt>
      <trkpt lat="43.22387" lon="5.48158">
        <ele>352.4</ele>
        <time>2025-10-18T14:08:41Z</time>
      </trkpt>
      <trkpt lat="43.22387" lon="5.48158">
        <ele>352.4</ele>
        <time>2025-10-18T14:08:42Z</time>
      </trkpt>
      <trkpt lat="43.22387" lon="5.48158">
        <ele>352.5</ele>
        <time>2025-10-18T14:08:43Z</time>
      </trkpt>
      <trkpt lat="43.22387" lon="5.48159">
        <ele>352.7</ele>
        <time>2025-10-18T14:08:44Z</time>
      </trkpt>
      <trkpt lat="43.22387" lon="5.48159">
        <ele>352.8</ele>
        <time>2025-10-18T14:08:45Z</time>
      </trkpt>
      <trkpt lat="43.22387" lon="5.48159">
        <ele>352.9</ele>
        <time>2025-10-18T14:08:46Z</time>
      </trkpt>
      <trkpt lat="43.22387" lon="5.48159">
        <ele>352.9</ele>
        <time>2025-10-18T14:08:47Z</time>
      </trkpt>
      <trkpt lat="43.22387" lon="5.4816">
        <ele>353</ele>
        <time>2025-10-18T14:08:48Z</time>
      </trkpt>
      <trkpt lat="43.22387" lon="5.4816">
        <ele>353</ele>
        <time>2025-10-18T14:08:49Z</time>
      </trkpt>
      <trkpt lat="43.22387" lon="5.4816">
        <ele>353.1</ele>
        <time>2025-10-18T14:08:50Z</time>
      </trkpt>
      <trkpt lat="43.22387" lon="5.4816">
        <ele>353.2</ele>
        <time>2025-10-18T14:08:51Z</time>
      </trkpt>
      <trkpt lat="43.22387" lon="5.4816">
        <ele>353.3</ele>
        <time>2025-10-18T14:08:52Z</time>
      </trkpt>
      <trkpt lat="43.22387" lon="5.48161">
        <ele>353.3</ele>
        <time>2025-10-18T14:08:53Z</time>
      </trkpt>
      <trkpt lat="43.22386" lon="5.48161">
        <ele>353.4</ele>
        <time>2025-10-18T14:08:54Z</time>
      </trkpt>
      <trkpt lat="43.22386" lon="5.48162">
        <ele>353.3</ele>
        <time>2025-10-18T14:08:55Z</time>
      </trkpt>
      <trkpt lat="43.22385" lon="5.48162">
        <ele>353.3</ele>
        <time>2025-10-18T14:08:56Z</time>
      </trkpt>
      <trkpt lat="43.22385" lon="5.48162">
        <ele>353.3</ele>
        <time>2025-10-18T14:08:57Z</time>
      </trkpt>
      <trkpt lat="43.22385" lon="5.48163">
        <ele>353.2</ele>
        <time>2025-10-18T14:08:58Z</time>
      </trkpt>
      <trkpt lat="43.22386" lon="5.48164">
        <ele>353.1</ele>
        <time>2025-10-18T14:08:59Z</time>
      </trkpt>
      <trkpt lat="43.22386" lon="5.48164">
        <ele>353.1</ele>
        <time>2025-10-18T14:09:00Z</time>
      </trkpt>
      <trkpt lat="43.22386" lon="5.48165">
        <ele>353.1</ele>
        <time>2025-10-18T14:09:01Z</time>
      </trkpt>
      <trkpt lat="43.22386" lon="5.48165">
        <ele>353.1</ele>
        <time>2025-10-18T14:09:02Z</time>
      </trkpt>
      <trkpt lat="43.22385" lon="5.48165">
        <ele>353.3</ele>
        <time>2025-10-18T14:09:03Z</time>
      </trkpt>
      <trkpt lat="43.22386" lon="5.48165">
        <ele>353.4</ele>
        <time>2025-10-18T14:09:04Z</time>
      </trkpt>
      <trkpt lat="43.22386" lon="5.48165">
        <ele>353.6</ele>
        <time>2025-10-18T14:09:05Z</time>
      </trkpt>
      <trkpt lat="43.22386" lon="5.48165">
        <ele>353.7</ele>
        <time>2025-10-18T14:09:06Z</time>
      </trkpt>
      <trkpt lat="43.22386" lon="5.48166">
        <ele>353.8</ele>
        <time>2025-10-18T14:09:07Z</time>
      </trkpt>
      <trkpt lat="43.22386" lon="5.48166">
        <ele>353.9</ele>
        <time>2025-10-18T14:09:08Z</time>
      </trkpt>
      <trkpt lat="43.22386" lon="5.48166">
        <ele>353.9</ele>
        <time>2025-10-18T14:09:09Z</time>
      </trkpt>
      <trkpt lat="43.22386" lon="5.48167">
        <ele>354</ele>
        <time>2025-10-18T14:09:10Z</time>
      </trkpt>
      <trkpt lat="43.22386" lon="5.48167">
        <ele>354.1</ele>
        <time>2025-10-18T14:09:11Z</time>
      </trkpt>
      <trkpt lat="43.22386" lon="5.48168">
        <ele>354.1</ele>
        <time>2025-10-18T14:09:12Z</time>
      </trkpt>
      <trkpt lat="43.22386" lon="5.48169">
        <ele>354.2</ele>
        <time>2025-10-18T14:09:13Z</time>
      </trkpt>
      <trkpt lat="43.22386" lon="5.48169">
        <ele>354.4</ele>
        <time>2025-10-18T14:09:14Z</time>
      </trkpt>
      <trkpt lat="43.22386" lon="5.4817">
        <ele>354.6</ele>
        <time>2025-10-18T14:09:15Z</time>
      </trkpt>
      <trkpt lat="43.22386" lon="5.4817">
        <ele>354.7</ele>
        <time>2025-10-18T14:09:16Z</time>
      </trkpt>
      <trkpt lat="43.22387" lon="5.4817">
        <ele>354.8</ele>
        <time>2025-10-18T14:09:17Z</time>
      </trkpt>
      <trkpt lat="43.22387" lon="5.48171">
        <ele>354.9</ele>
        <time>2025-10-18T14:09:18Z</time>
      </trkpt>
      <trkpt lat="43.22387" lon="5.48171">
        <ele>355.1</ele>
        <time>2025-10-18T14:09:19Z</time>
      </trkpt>
      <trkpt lat="43.22387" lon="5.48172">
        <ele>355.3</ele>
        <time>2025-10-18T14:09:20Z</time>
      </trkpt>
      <trkpt lat="43.22387" lon="5.48172">
        <ele>355.4</ele>
        <time>2025-10-18T14:09:21Z</time>
      </trkpt>
      <trkpt lat="43.22388" lon="5.48173">
        <ele>355.6</ele>
        <time>2025-10-18T14:09:22Z</time>
      </trkpt>
      <trkpt lat="43.22388" lon="5.48173">
        <ele>355.8</ele>
        <time>2025-10-18T14:09:23Z</time>
      </trkpt>
      <trkpt lat="43.22388" lon="5.48174">
        <ele>356</ele>
        <time>2025-10-18T14:09:24Z</time>
      </trkpt>
      <trkpt lat="43.22388" lon="5.48174">
        <ele>356.2</ele>
        <time>2025-10-18T14:09:25Z</time>
      </trkpt>
      <trkpt lat="43.22388" lon="5.48175">
        <ele>356.4</ele>
        <time>2025-10-18T14:09:26Z</time>
      </trkpt>
      <trkpt lat="43.22388" lon="5.48175">
        <ele>356.5</ele>
        <time>2025-10-18T14:09:27Z</time>
      </trkpt>
      <trkpt lat="43.22388" lon="5.48175">
        <ele>356.6</ele>
        <time>2025-10-18T14:09:28Z</time>
      </trkpt>
      <trkpt lat="43.22388" lon="5.48176">
        <ele>356.7</ele>
        <time>2025-10-18T14:09:29Z</time>
      </trkpt>
      <trkpt lat="43.22389" lon="5.48176">
        <ele>356.8</ele>
        <time>2025-10-18T14:09:30Z</time>
      </trkpt>
      <trkpt lat="43.22389" lon="5.48177">
        <ele>357</ele>
        <time>2025-10-18T14:09:31Z</time>
      </trkpt>
      <trkpt lat="43.22389" lon="5.48177">
        <ele>357.2</ele>
        <time>2025-10-18T14:09:32Z</time>
      </trkpt>
      <trkpt lat="43.22389" lon="5.48178">
        <ele>357.3</ele>
        <time>2025-10-18T14:09:33Z</time>
      </trkpt>
      <trkpt lat="43.22389" lon="5.48178">
        <ele>357.4</ele>
        <time>2025-10-18T14:09:34Z</time>
      </trkpt>
      <trkpt lat="43.2239" lon="5.48178">
        <ele>357.7</ele>
        <time>2025-10-18T14:09:35Z</time>
      </trkpt>
      <trkpt lat="43.2239" lon="5.48178">
        <ele>357.8</ele>
        <time>2025-10-18T14:09:36Z</time>
      </trkpt>
      <trkpt lat="43.2239" lon="5.48179">
        <ele>357.9</ele>
        <time>2025-10-18T14:09:37Z</time>
      </trkpt>
      <trkpt lat="43.2239" lon="5.48179">
        <ele>358.1</ele>
        <time>2025-10-18T14:09:38Z</time>
      </trkpt>
      <trkpt lat="43.2239" lon="5.48179">
        <ele>358.2</ele>
        <time>2025-10-18T14:09:39Z</time>
      </trkpt>
      <trkpt lat="43.2239" lon="5.4818">
        <ele>358.2</ele>
        <time>2025-10-18T14:09:40Z</time>
      </trkpt>
      <trkpt lat="43.22391" lon="5.4818">
        <ele>358.3</ele>
        <time>2025-10-18T14:09:41Z</time>
      </trkpt>
      <trkpt lat="43.22391" lon="5.4818">
        <ele>358.4</ele>
        <time>2025-10-18T14:09:42Z</time>
      </trkpt>
      <trkpt lat="43.22391" lon="5.4818">
        <ele>358.4</ele>
        <time>2025-10-18T14:09:43Z</time>
      </trkpt>
      <trkpt lat="43.22391" lon="5.48181">
        <ele>358.5</ele>
        <time>2025-10-18T14:09:44Z</time>
      </trkpt>
      <trkpt lat="43.22391" lon="5.48181">
        <ele>358.6</ele>
        <time>2025-10-18T14:09:45Z</time>
      </trkpt>
      <trkpt lat="43.22392" lon="5.48181">
        <ele>358.7</ele>
        <time>2025-10-18T14:09:46Z</time>
      </trkpt>
      <trkpt lat="43.22392" lon="5.48182">
        <ele>359</ele>
        <time>2025-10-18T14:09:47Z</time>
      </trkpt>
      <trkpt lat="43.22392" lon="5.48182">
        <ele>359</ele>
        <time>2025-10-18T14:09:48Z</time>
      </trkpt>
      <trkpt lat="43.22392" lon="5.48182">
        <ele>359.1</ele>
        <time>2025-10-18T14:09:49Z</time>
      </trkpt>
      <trkpt lat="43.22392" lon="5.48182">
        <ele>359.1</ele>
        <time>2025-10-18T14:09:50Z</time>
      </trkpt>
      <trkpt lat="43.22392" lon="5.48182">
        <ele>359.1</ele>
        <time>2025-10-18T14:09:51Z</time>
      </trkpt>
      <trkpt lat="43.22392" lon="5.48182">
        <ele>359.1</ele>
        <time>2025-10-18T14:09:52Z</time>
      </trkpt>
      <trkpt lat="43.22392" lon="5.48182">
        <ele>359.1</ele>
        <time>2025-10-18T14:09:53Z</time>
      </trkpt>
      <trkpt lat="43.22392" lon="5.48182">
        <ele>359.1</ele>
        <time>2025-10-18T14:09:54Z</time>
      </trkpt>
      <trkpt lat="43.22392" lon="5.48182">
        <ele>359.1</ele>
        <time>2025-10-18T14:09:55Z</time>
      </trkpt>
      <trkpt lat="43.22392" lon="5.48182">
        <ele>359.1</ele>
        <time>2025-10-18T14:09:56Z</time>
      </trkpt>
      <trkpt lat="43.22393" lon="5.48182">
        <ele>359.1</ele>
        <time>2025-10-18T14:09:57Z</time>
      </trkpt>
      <trkpt lat="43.22393" lon="5.48182">
        <ele>359.1</ele>
        <time>2025-10-18T14:09:58Z</time>
      </trkpt>
      <trkpt lat="43.22393" lon="5.48183">
        <ele>359.1</ele>
        <time>2025-10-18T14:09:59Z</time>
      </trkpt>
      <trkpt lat="43.22393" lon="5.48183">
        <ele>359.1</ele>
        <time>2025-10-18T14:10:00Z</time>
      </trkpt>
      <trkpt lat="43.22393" lon="5.48183">
        <ele>359.2</ele>
        <time>2025-10-18T14:10:01Z</time>
      </trkpt>
      <trkpt lat="43.22394" lon="5.48183">
        <ele>359.3</ele>
        <time>2025-10-18T14:10:02Z</time>
      </trkpt>
      <trkpt lat="43.22394" lon="5.48183">
        <ele>359.5</ele>
        <time>2025-10-18T14:10:03Z</time>
      </trkpt>
      <trkpt lat="43.22394" lon="5.48183">
        <ele>359.6</ele>
        <time>2025-10-18T14:10:04Z</time>
      </trkpt>
      <trkpt lat="43.22394" lon="5.48183">
        <ele>359.7</ele>
        <time>2025-10-18T14:10:05Z</time>
      </trkpt>
      <trkpt lat="43.22394" lon="5.48183">
        <ele>359.7</ele>
        <time>2025-10-18T14:10:06Z</time>
      </trkpt>
      <trkpt lat="43.22394" lon="5.48183">
        <ele>359.7</ele>
        <time>2025-10-18T14:10:07Z</time>
      </trkpt>
      <trkpt lat="43.22394" lon="5.48183">
        <ele>359.8</ele>
        <time>2025-10-18T14:10:08Z</time>
      </trkpt>
      <trkpt lat="43.22395" lon="5.48183">
        <ele>359.9</ele>
        <time>2025-10-18T14:10:09Z</time>
      </trkpt>
      <trkpt lat="43.22395" lon="5.48183">
        <ele>360</ele>
        <time>2025-10-18T14:10:10Z</time>
      </trkpt>
      <trkpt lat="43.22395" lon="5.48183">
        <ele>360.2</ele>
        <time>2025-10-18T14:10:11Z</time>
      </trkpt>
      <trkpt lat="43.22395" lon="5.48183">
        <ele>360.3</ele>
        <time>2025-10-18T14:10:12Z</time>
      </trkpt>
      <trkpt lat="43.22396" lon="5.48183">
        <ele>360.4</ele>
        <time>2025-10-18T14:10:13Z</time>
      </trkpt>
      <trkpt lat="43.22396" lon="5.48183">
        <ele>360.6</ele>
        <time>2025-10-18T14:10:14Z</time>
      </trkpt>
      <trkpt lat="43.22396" lon="5.48183">
        <ele>360.7</ele>
        <time>2025-10-18T14:10:15Z</time>
      </trkpt>
      <trkpt lat="43.22396" lon="5.48183">
        <ele>360.8</ele>
        <time>2025-10-18T14:10:16Z</time>
      </trkpt>
      <trkpt lat="43.22396" lon="5.48183">
        <ele>360.9</ele>
        <time>2025-10-18T14:10:17Z</time>
      </trkpt>
      <trkpt lat="43.22396" lon="5.48183">
        <ele>360.9</ele>
        <time>2025-10-18T14:10:18Z</time>
      </trkpt>
      <trkpt lat="43.22396" lon="5.48183">
        <ele>360.9</ele>
        <time>2025-10-18T14:10:19Z</time>
      </trkpt>
      <trkpt lat="43.22396" lon="5.48182">
        <ele>360.9</ele>
        <time>2025-10-18T14:10:20Z</time>
      </trkpt>
      <trkpt lat="43.22396" lon="5.48182">
        <ele>360.9</ele>
        <time>2025-10-18T14:10:21Z</time>
      </trkpt>
      <trkpt lat="43.22396" lon="5.48182">
        <ele>360.9</ele>
        <time>2025-10-18T14:10:22Z</time>
      </trkpt>
      <trkpt lat="43.22396" lon="5.48182">
        <ele>360.9</ele>
        <time>2025-10-18T14:10:23Z</time>
      </trkpt>
      <trkpt lat="43.22396" lon="5.48182">
        <ele>361</ele>
        <time>2025-10-18T14:10:24Z</time>
      </trkpt>
      <trkpt lat="43.22396" lon="5.48182">
        <ele>361.1</ele>
        <time>2025-10-18T14:10:25Z</time>
      </trkpt>
      <trkpt lat="43.22396" lon="5.48182">
        <ele>361.1</ele>
        <time>2025-10-18T14:10:26Z</time>
      </trkpt>
      <trkpt lat="43.22396" lon="5.48183">
        <ele>361.2</ele>
        <time>2025-10-18T14:10:27Z</time>
      </trkpt>
      <trkpt lat="43.22396" lon="5.48183">
        <ele>361.2</ele>
        <time>2025-10-18T14:10:28Z</time>
      </trkpt>
      <trkpt lat="43.22397" lon="5.48183">
        <ele>361.2</ele>
        <time>2025-10-18T14:10:29Z</time>
      </trkpt>
      <trkpt lat="43.22397" lon="5.48184">
        <ele>361.2</ele>
        <time>2025-10-18T14:10:30Z</time>
      </trkpt>
      <trkpt lat="43.22397" lon="5.48184">
        <ele>361.4</ele>
        <time>2025-10-18T14:10:31Z</time>
      </trkpt>
      <trkpt lat="43.22397" lon="5.48184">
        <ele>361.5</ele>
        <time>2025-10-18T14:10:32Z</time>
      </trkpt>
      <trkpt lat="43.22398" lon="5.48184">
        <ele>361.7</ele>
        <time>2025-10-18T14:10:33Z</time>
      </trkpt>
      <trkpt lat="43.22398" lon="5.48183">
        <ele>361.8</ele>
        <time>2025-10-18T14:10:34Z</time>
      </trkpt>
      <trkpt lat="43.22398" lon="5.48183">
        <ele>361.9</ele>
        <time>2025-10-18T14:10:35Z</time>
      </trkpt>
      <trkpt lat="43.22398" lon="5.48183">
        <ele>362</ele>
        <time>2025-10-18T14:10:36Z</time>
      </trkpt>
      <trkpt lat="43.22399" lon="5.48183">
        <ele>362</ele>
        <time>2025-10-18T14:10:37Z</time>
      </trkpt>
      <trkpt lat="43.22399" lon="5.48183">
        <ele>362.1</ele>
        <time>2025-10-18T14:10:38Z</time>
      </trkpt>
      <trkpt lat="43.22399" lon="5.48183">
        <ele>362.3</ele>
        <time>2025-10-18T14:10:39Z</time>
      </trkpt>
      <trkpt lat="43.22399" lon="5.48183">
        <ele>362.4</ele>
        <time>2025-10-18T14:10:40Z</time>
      </trkpt>
      <trkpt lat="43.22399" lon="5.48183">
        <ele>362.5</ele>
        <time>2025-10-18T14:10:41Z</time>
      </trkpt>
      <trkpt lat="43.22399" lon="5.48183">
        <ele>362.6</ele>
        <time>2025-10-18T14:10:42Z</time>
      </trkpt>
      <trkpt lat="43.22399" lon="5.48183">
        <ele>362.8</ele>
        <time>2025-10-18T14:10:43Z</time>
      </trkpt>
      <trkpt lat="43.22399" lon="5.48183">
        <ele>362.9</ele>
        <time>2025-10-18T14:10:44Z</time>
      </trkpt>
      <trkpt lat="43.22399" lon="5.48183">
        <ele>363</ele>
        <time>2025-10-18T14:10:45Z</time>
      </trkpt>
      <trkpt lat="43.224" lon="5.48183">
        <ele>363.1</ele>
        <time>2025-10-18T14:10:46Z</time>
      </trkpt>
      <trkpt lat="43.224" lon="5.48183">
        <ele>363.1</ele>
        <time>2025-10-18T14:10:47Z</time>
      </trkpt>
      <trkpt lat="43.22401" lon="5.48183">
        <ele>363.3</ele>
        <time>2025-10-18T14:10:48Z</time>
      </trkpt>
      <trkpt lat="43.22401" lon="5.48183">
        <ele>363.4</ele>
        <time>2025-10-18T14:10:49Z</time>
      </trkpt>
      <trkpt lat="43.22401" lon="5.48184">
        <ele>363.5</ele>
        <time>2025-10-18T14:10:50Z</time>
      </trkpt>
      <trkpt lat="43.22402" lon="5.48184">
        <ele>363.6</ele>
        <time>2025-10-18T14:10:51Z</time>
      </trkpt>
      <trkpt lat="43.22402" lon="5.48184">
        <ele>363.7</ele>
        <time>2025-10-18T14:10:52Z</time>
      </trkpt>
      <trkpt lat="43.22402" lon="5.48184">
        <ele>363.9</ele>
        <time>2025-10-18T14:10:53Z</time>
      </trkpt>
      <trkpt lat="43.22402" lon="5.48184">
        <ele>364</ele>
        <time>2025-10-18T14:10:54Z</time>
      </trkpt>
      <trkpt lat="43.22403" lon="5.48184">
        <ele>364.1</ele>
        <time>2025-10-18T14:10:55Z</time>
      </trkpt>
      <trkpt lat="43.22403" lon="5.48185">
        <ele>364.4</ele>
        <time>2025-10-18T14:10:56Z</time>
      </trkpt>
      <trkpt lat="43.22403" lon="5.48184">
        <ele>364.5</ele>
        <time>2025-10-18T14:10:57Z</time>
      </trkpt>
      <trkpt lat="43.22403" lon="5.48184">
        <ele>364.7</ele>
        <time>2025-10-18T14:10:58Z</time>
      </trkpt>
      <trkpt lat="43.22404" lon="5.48184">
        <ele>364.8</ele>
        <time>2025-10-18T14:10:59Z</time>
      </trkpt>
      <trkpt lat="43.22404" lon="5.48184">
        <ele>364.9</ele>
        <time>2025-10-18T14:11:00Z</time>
      </trkpt>
      <trkpt lat="43.22404" lon="5.48184">
        <ele>365</ele>
        <time>2025-10-18T14:11:01Z</time>
      </trkpt>
      <trkpt lat="43.22404" lon="5.48185">
        <ele>365.1</ele>
        <time>2025-10-18T14:11:02Z</time>
      </trkpt>
      <trkpt lat="43.22404" lon="5.48185">
        <ele>365.2</ele>
        <time>2025-10-18T14:11:03Z</time>
      </trkpt>
      <trkpt lat="43.22405" lon="5.48185">
        <ele>365.4</ele>
        <time>2025-10-18T14:11:04Z</time>
      </trkpt>
      <trkpt lat="43.22405" lon="5.48185">
        <ele>365.6</ele>
        <time>2025-10-18T14:11:05Z</time>
      </trkpt>
      <trkpt lat="43.22405" lon="5.48185">
        <ele>365.8</ele>
        <time>2025-10-18T14:11:06Z</time>
      </trkpt>
      <trkpt lat="43.22405" lon="5.48185">
        <ele>366</ele>
        <time>2025-10-18T14:11:07Z</time>
      </trkpt>
      <trkpt lat="43.22405" lon="5.48185">
        <ele>366.1</ele>
        <time>2025-10-18T14:11:08Z</time>
      </trkpt>
      <trkpt lat="43.22405" lon="5.48185">
        <ele>366.2</ele>
        <time>2025-10-18T14:11:09Z</time>
      </trkpt>
      <trkpt lat="43.22405" lon="5.48185">
        <ele>366.2</ele>
        <time>2025-10-18T14:11:10Z</time>
      </trkpt>
      <trkpt lat="43.22405" lon="5.48185">
        <ele>366.3</ele>
        <time>2025-10-18T14:11:11Z</time>
      </trkpt>
      <trkpt lat="43.22406" lon="5.48185">
        <ele>366.4</ele>
        <time>2025-10-18T14:11:12Z</time>
      </trkpt>
      <trkpt lat="43.22406" lon="5.48185">
        <ele>366.5</ele>
        <time>2025-10-18T14:11:13Z</time>
      </trkpt>
      <trkpt lat="43.22406" lon="5.48185">
        <ele>366.6</ele>
        <time>2025-10-18T14:11:14Z</time>
      </trkpt>
      <trkpt lat="43.22407" lon="5.48184">
        <ele>366.7</ele>
        <time>2025-10-18T14:11:15Z</time>
      </trkpt>
      <trkpt lat="43.22407" lon="5.48184">
        <ele>366.9</ele>
        <time>2025-10-18T14:11:16Z</time>
      </trkpt>
      <trkpt lat="43.22407" lon="5.48184">
        <ele>367.1</ele>
        <time>2025-10-18T14:11:17Z</time>
      </trkpt>
      <trkpt lat="43.22408" lon="5.48184">
        <ele>367.3</ele>
        <time>2025-10-18T14:11:18Z</time>
      </trkpt>
      <trkpt lat="43.22407" lon="5.48183">
        <ele>367.4</ele>
        <time>2025-10-18T14:11:19Z</time>
      </trkpt>
      <trkpt lat="43.22407" lon="5.48183">
        <ele>367.5</ele>
        <time>2025-10-18T14:11:20Z</time>
      </trkpt>
      <trkpt lat="43.22408" lon="5.48182">
        <ele>367.6</ele>
        <time>2025-10-18T14:11:21Z</time>
      </trkpt>
      <trkpt lat="43.22408" lon="5.48182">
        <ele>367.9</ele>
        <time>2025-10-18T14:11:22Z</time>
      </trkpt>
      <trkpt lat="43.22408" lon="5.48181">
        <ele>368.1</ele>
        <time>2025-10-18T14:11:23Z</time>
      </trkpt>
      <trkpt lat="43.22408" lon="5.48181">
        <ele>368.2</ele>
        <time>2025-10-18T14:11:24Z</time>
      </trkpt>
      <trkpt lat="43.22408" lon="5.48181">
        <ele>368.2</ele>
        <time>2025-10-18T14:11:25Z</time>
      </trkpt>
      <trkpt lat="43.22408" lon="5.48181">
        <ele>368.2</ele>
        <time>2025-10-18T14:11:26Z</time>
      </trkpt>
      <trkpt lat="43.22408" lon="5.48181">
        <ele>368.2</ele>
        <time>2025-10-18T14:11:27Z</time>
      </trkpt>
      <trkpt lat="43.22408" lon="5.48181">
        <ele>368.2</ele>
        <time>2025-10-18T14:11:28Z</time>
      </trkpt>
      <trkpt lat="43.22408" lon="5.48181">
        <ele>368.2</ele>
        <time>2025-10-18T14:11:29Z</time>
      </trkpt>
      <trkpt lat="43.22408" lon="5.48181">
        <ele>368.3</ele>
        <time>2025-10-18T14:11:30Z</time>
      </trkpt>
      <trkpt lat="43.22409" lon="5.48181">
        <ele>368.3</ele>
        <time>2025-10-18T14:11:31Z</time>
      </trkpt>
      <trkpt lat="43.22409" lon="5.48181">
        <ele>368.3</ele>
        <time>2025-10-18T14:11:32Z</time>
      </trkpt>
      <trkpt lat="43.22409" lon="5.48181">
        <ele>368.4</ele>
        <time>2025-10-18T14:11:33Z</time>
      </trkpt>
      <trkpt lat="43.2241" lon="5.48181">
        <ele>368.4</ele>
        <time>2025-10-18T14:11:34Z</time>
      </trkpt>
      <trkpt lat="43.2241" lon="5.48182">
        <ele>368.4</ele>
        <time>2025-10-18T14:11:35Z</time>
      </trkpt>
      <trkpt lat="43.2241" lon="5.48182">
        <ele>368.6</ele>
        <time>2025-10-18T14:11:36Z</time>
      </trkpt>
      <trkpt lat="43.22411" lon="5.48182">
        <ele>368.7</ele>
        <time>2025-10-18T14:11:37Z</time>
      </trkpt>
      <trkpt lat="43.22411" lon="5.48182">
        <ele>368.8</ele>
        <time>2025-10-18T14:11:38Z</time>
      </trkpt>
      <trkpt lat="43.22411" lon="5.48182">
        <ele>368.9</ele>
        <time>2025-10-18T14:11:39Z</time>
      </trkpt>
      <trkpt lat="43.22412" lon="5.48182">
        <ele>369</ele>
        <time>2025-10-18T14:11:40Z</time>
      </trkpt>
      <trkpt lat="43.22412" lon="5.48182">
        <ele>369.1</ele>
        <time>2025-10-18T14:11:41Z</time>
      </trkpt>
      <trkpt lat="43.22413" lon="5.48182">
        <ele>369.1</ele>
        <time>2025-10-18T14:11:42Z</time>
      </trkpt>
      <trkpt lat="43.22413" lon="5.48182">
        <ele>369.3</ele>
        <time>2025-10-18T14:11:43Z</time>
      </trkpt>
      <trkpt lat="43.22413" lon="5.48182">
        <ele>369.5</ele>
        <time>2025-10-18T14:11:44Z</time>
      </trkpt>
      <trkpt lat="43.22413" lon="5.48183">
        <ele>369.6</ele>
        <time>2025-10-18T14:11:45Z</time>
      </trkpt>
      <trkpt lat="43.22414" lon="5.48183">
        <ele>369.7</ele>
        <time>2025-10-18T14:11:46Z</time>
      </trkpt>
      <trkpt lat="43.22414" lon="5.48183">
        <ele>369.8</ele>
        <time>2025-10-18T14:11:47Z</time>
      </trkpt>
      <trkpt lat="43.22414" lon="5.48183">
        <ele>370</ele>
        <time>2025-10-18T14:11:48Z</time>
      </trkpt>
      <trkpt lat="43.22414" lon="5.48183">
        <ele>370.2</ele>
        <time>2025-10-18T14:11:49Z</time>
      </trkpt>
      <trkpt lat="43.22414" lon="5.48183">
        <ele>370.3</ele>
        <time>2025-10-18T14:11:50Z</time>
      </trkpt>
      <trkpt lat="43.22414" lon="5.48182">
        <ele>370.4</ele>
        <time>2025-10-18T14:11:51Z</time>
      </trkpt>
      <trkpt lat="43.22414" lon="5.48182">
        <ele>370.5</ele>
        <time>2025-10-18T14:11:52Z</time>
      </trkpt>
      <trkpt lat="43.22414" lon="5.48181">
        <ele>370.6</ele>
        <time>2025-10-18T14:11:53Z</time>
      </trkpt>
      <trkpt lat="43.22415" lon="5.48181">
        <ele>370.8</ele>
        <time>2025-10-18T14:11:54Z</time>
      </trkpt>
      <trkpt lat="43.22415" lon="5.48181">
        <ele>370.8</ele>
        <time>2025-10-18T14:11:55Z</time>
      </trkpt>
      <trkpt lat="43.22415" lon="5.4818">
        <ele>371.1</ele>
        <time>2025-10-18T14:11:56Z</time>
      </trkpt>
      <trkpt lat="43.22415" lon="5.4818">
        <ele>371.3</ele>
        <time>2025-10-18T14:11:57Z</time>
      </trkpt>
      <trkpt lat="43.22415" lon="5.4818">
        <ele>371.5</ele>
        <time>2025-10-18T14:11:58Z</time>
      </trkpt>
      <trkpt lat="43.22415" lon="5.4818">
        <ele>371.6</ele>
        <time>2025-10-18T14:11:59Z</time>
      </trkpt>
      <trkpt lat="43.22415" lon="5.4818">
        <ele>371.7</ele>
        <time>2025-10-18T14:12:00Z</time>
      </trkpt>
      <trkpt lat="43.22415" lon="5.4818">
        <ele>371.9</ele>
        <time>2025-10-18T14:12:01Z</time>
      </trkpt>
      <trkpt lat="43.22415" lon="5.4818">
        <ele>372</ele>
        <time>2025-10-18T14:12:02Z</time>
      </trkpt>
      <trkpt lat="43.22415" lon="5.4818">
        <ele>372.1</ele>
        <time>2025-10-18T14:12:03Z</time>
      </trkpt>
      <trkpt lat="43.22415" lon="5.4818">
        <ele>372.1</ele>
        <time>2025-10-18T14:12:04Z</time>
      </trkpt>
      <trkpt lat="43.22415" lon="5.4818">
        <ele>372.2</ele>
        <time>2025-10-18T14:12:05Z</time>
      </trkpt>
      <trkpt lat="43.22415" lon="5.4818">
        <ele>372.2</ele>
        <time>2025-10-18T14:12:06Z</time>
      </trkpt>
      <trkpt lat="43.22415" lon="5.48179">
        <ele>372.3</ele>
        <time>2025-10-18T14:12:07Z</time>
      </trkpt>
      <trkpt lat="43.22415" lon="5.48179">
        <ele>372.3</ele>
        <time>2025-10-18T14:12:08Z</time>
      </trkpt>
      <trkpt lat="43.22415" lon="5.48179">
        <ele>372.2</ele>
        <time>2025-10-18T14:12:09Z</time>
      </trkpt>
      <trkpt lat="43.22415" lon="5.48179">
        <ele>372.3</ele>
        <time>2025-10-18T14:12:10Z</time>
      </trkpt>
      <trkpt lat="43.22415" lon="5.48179">
        <ele>372.3</ele>
        <time>2025-10-18T14:12:11Z</time>
      </trkpt>
      <trkpt lat="43.22415" lon="5.48179">
        <ele>372.3</ele>
        <time>2025-10-18T14:12:12Z</time>
      </trkpt>
      <trkpt lat="43.22415" lon="5.48179">
        <ele>372.3</ele>
        <time>2025-10-18T14:12:13Z</time>
      </trkpt>
      <trkpt lat="43.22415" lon="5.48179">
        <ele>372.4</ele>
        <time>2025-10-18T14:12:14Z</time>
      </trkpt>
      <trkpt lat="43.22415" lon="5.48179">
        <ele>372.4</ele>
        <time>2025-10-18T14:12:15Z</time>
      </trkpt>
      <trkpt lat="43.22415" lon="5.48179">
        <ele>372.4</ele>
        <time>2025-10-18T14:12:16Z</time>
      </trkpt>
      <trkpt lat="43.22415" lon="5.4818">
        <ele>372.4</ele>
        <time>2025-10-18T14:12:17Z</time>
      </trkpt>
      <trkpt lat="43.22415" lon="5.4818">
        <ele>372.4</ele>
        <time>2025-10-18T14:12:18Z</time>
      </trkpt>
      <trkpt lat="43.22415" lon="5.4818">
        <ele>372.5</ele>
        <time>2025-10-18T14:12:19Z</time>
      </trkpt>
      <trkpt lat="43.22415" lon="5.4818">
        <ele>372.6</ele>
        <time>2025-10-18T14:12:20Z</time>
      </trkpt>
      <trkpt lat="43.22415" lon="5.4818">
        <ele>372.6</ele>
        <time>2025-10-18T14:12:21Z</time>
      </trkpt>
      <trkpt lat="43.22415" lon="5.4818">
        <ele>372.6</ele>
        <time>2025-10-18T14:12:22Z</time>
      </trkpt>
      <trkpt lat="43.22416" lon="5.48181">
        <ele>372.7</ele>
        <time>2025-10-18T14:12:23Z</time>
      </trkpt>
      <trkpt lat="43.22416" lon="5.4818">
        <ele>372.8</ele>
        <time>2025-10-18T14:12:24Z</time>
      </trkpt>
      <trkpt lat="43.22417" lon="5.4818">
        <ele>372.8</ele>
        <time>2025-10-18T14:12:25Z</time>
      </trkpt>
      <trkpt lat="43.22417" lon="5.4818">
        <ele>373</ele>
        <time>2025-10-18T14:12:26Z</time>
      </trkpt>
      <trkpt lat="43.22417" lon="5.4818">
        <ele>373.1</ele>
        <time>2025-10-18T14:12:27Z</time>
      </trkpt>
      <trkpt lat="43.22417" lon="5.4818">
        <ele>373.2</ele>
        <time>2025-10-18T14:12:28Z</time>
      </trkpt>
      <trkpt lat="43.22417" lon="5.4818">
        <ele>373.3</ele>
        <time>2025-10-18T14:12:29Z</time>
      </trkpt>
      <trkpt lat="43.22417" lon="5.4818">
        <ele>373.3</ele>
        <time>2025-10-18T14:12:30Z</time>
      </trkpt>
      <trkpt lat="43.22417" lon="5.4818">
        <ele>373.4</ele>
        <time>2025-10-18T14:12:31Z</time>
      </trkpt>
      <trkpt lat="43.22417" lon="5.48179">
        <ele>373.6</ele>
        <time>2025-10-18T14:12:32Z</time>
      </trkpt>
      <trkpt lat="43.22417" lon="5.48179">
        <ele>373.7</ele>
        <time>2025-10-18T14:12:33Z</time>
      </trkpt>
      <trkpt lat="43.22417" lon="5.48179">
        <ele>373.8</ele>
        <time>2025-10-18T14:12:34Z</time>
      </trkpt>
      <trkpt lat="43.22417" lon="5.48179">
        <ele>373.8</ele>
        <time>2025-10-18T14:12:35Z</time>
      </trkpt>
      <trkpt lat="43.22417" lon="5.48179">
        <ele>373.8</ele>
        <time>2025-10-18T14:12:36Z</time>
      </trkpt>
      <trkpt lat="43.22417" lon="5.48179">
        <ele>373.8</ele>
        <time>2025-10-18T14:12:37Z</time>
      </trkpt>
      <trkpt lat="43.22417" lon="5.48179">
        <ele>373.8</ele>
        <time>2025-10-18T14:12:38Z</time>
      </trkpt>
      <trkpt lat="43.22417" lon="5.48179">
        <ele>373.9</ele>
        <time>2025-10-18T14:12:39Z</time>
      </trkpt>
      <trkpt lat="43.22418" lon="5.4818">
        <ele>373.9</ele>
        <time>2025-10-18T14:12:40Z</time>
      </trkpt>
      <trkpt lat="43.22418" lon="5.48179">
        <ele>374</ele>
        <time>2025-10-18T14:12:41Z</time>
      </trkpt>
      <trkpt lat="43.22418" lon="5.48179">
        <ele>374</ele>
        <time>2025-10-18T14:12:42Z</time>
      </trkpt>
      <trkpt lat="43.22419" lon="5.48179">
        <ele>374.1</ele>
        <time>2025-10-18T14:12:43Z</time>
      </trkpt>
      <trkpt lat="43.22419" lon="5.48179">
        <ele>374.2</ele>
        <time>2025-10-18T14:12:44Z</time>
      </trkpt>
      <trkpt lat="43.2242" lon="5.4818">
        <ele>374.4</ele>
        <time>2025-10-18T14:12:45Z</time>
      </trkpt>
      <trkpt lat="43.2242" lon="5.4818">
        <ele>374.5</ele>
        <time>2025-10-18T14:12:46Z</time>
      </trkpt>
      <trkpt lat="43.2242" lon="5.4818">
        <ele>374.7</ele>
        <time>2025-10-18T14:12:47Z</time>
      </trkpt>
      <trkpt lat="43.22421" lon="5.4818">
        <ele>374.8</ele>
        <time>2025-10-18T14:12:48Z</time>
      </trkpt>
      <trkpt lat="43.22421" lon="5.4818">
        <ele>374.9</ele>
        <time>2025-10-18T14:12:49Z</time>
      </trkpt>
      <trkpt lat="43.22422" lon="5.48181">
        <ele>375</ele>
        <time>2025-10-18T14:12:50Z</time>
      </trkpt>
      <trkpt lat="43.22422" lon="5.48181">
        <ele>375.1</ele>
        <time>2025-10-18T14:12:51Z</time>
      </trkpt>
      <trkpt lat="43.22422" lon="5.4818">
        <ele>375.2</ele>
        <time>2025-10-18T14:12:52Z</time>
      </trkpt>
      <trkpt lat="43.22423" lon="5.4818">
        <ele>375.4</ele>
        <time>2025-10-18T14:12:53Z</time>
      </trkpt>
      <trkpt lat="43.22423" lon="5.4818">
        <ele>375.5</ele>
        <time>2025-10-18T14:12:54Z</time>
      </trkpt>
      <trkpt lat="43.22424" lon="5.48181">
        <ele>375.7</ele>
        <time>2025-10-18T14:12:55Z</time>
      </trkpt>
      <trkpt lat="43.22424" lon="5.48181">
        <ele>375.8</ele>
        <time>2025-10-18T14:12:56Z</time>
      </trkpt>
      <trkpt lat="43.22424" lon="5.48181">
        <ele>376</ele>
        <time>2025-10-18T14:12:57Z</time>
      </trkpt>
      <trkpt lat="43.22425" lon="5.48181">
        <ele>376.1</ele>
        <time>2025-10-18T14:12:58Z</time>
      </trkpt>
      <trkpt lat="43.22425" lon="5.48181">
        <ele>376.2</ele>
        <time>2025-10-18T14:12:59Z</time>
      </trkpt>
      <trkpt lat="43.22425" lon="5.48181">
        <ele>376.4</ele>
        <time>2025-10-18T14:13:00Z</time>
      </trkpt>
      <trkpt lat="43.22425" lon="5.48182">
        <ele>376.6</ele>
        <time>2025-10-18T14:13:01Z</time>
      </trkpt>
      <trkpt lat="43.22426" lon="5.48182">
        <ele>376.8</ele>
        <time>2025-10-18T14:13:02Z</time>
      </trkpt>
      <trkpt lat="43.22426" lon="5.48182">
        <ele>376.9</ele>
        <time>2025-10-18T14:13:03Z</time>
      </trkpt>
      <trkpt lat="43.22426" lon="5.48182">
        <ele>377</ele>
        <time>2025-10-18T14:13:04Z</time>
      </trkpt>
      <trkpt lat="43.22426" lon="5.48182">
        <ele>377.2</ele>
        <time>2025-10-18T14:13:05Z</time>
      </trkpt>
      <trkpt lat="43.22427" lon="5.48183">
        <ele>377.3</ele>
        <time>2025-10-18T14:13:06Z</time>
      </trkpt>
      <trkpt lat="43.22427" lon="5.48183">
        <ele>377.4</ele>
        <time>2025-10-18T14:13:07Z</time>
      </trkpt>
      <trkpt lat="43.22428" lon="5.48183">
        <ele>377.6</ele>
        <time>2025-10-18T14:13:08Z</time>
      </trkpt>
      <trkpt lat="43.22428" lon="5.48183">
        <ele>377.7</ele>
        <time>2025-10-18T14:13:09Z</time>
      </trkpt>
      <trkpt lat="43.22429" lon="5.48182">
        <ele>377.9</ele>
        <time>2025-10-18T14:13:10Z</time>
      </trkpt>
      <trkpt lat="43.22429" lon="5.48182">
        <ele>378</ele>
        <time>2025-10-18T14:13:11Z</time>
      </trkpt>
      <trkpt lat="43.22429" lon="5.48181">
        <ele>378.1</ele>
        <time>2025-10-18T14:13:12Z</time>
      </trkpt>
      <trkpt lat="43.22429" lon="5.48181">
        <ele>378.3</ele>
        <time>2025-10-18T14:13:13Z</time>
      </trkpt>
      <trkpt lat="43.2243" lon="5.4818">
        <ele>378.4</ele>
        <time>2025-10-18T14:13:14Z</time>
      </trkpt>
      <trkpt lat="43.2243" lon="5.4818">
        <ele>378.6</ele>
        <time>2025-10-18T14:13:15Z</time>
      </trkpt>
      <trkpt lat="43.2243" lon="5.4818">
        <ele>378.8</ele>
        <time>2025-10-18T14:13:16Z</time>
      </trkpt>
      <trkpt lat="43.2243" lon="5.48179">
        <ele>379</ele>
        <time>2025-10-18T14:13:17Z</time>
      </trkpt>
      <trkpt lat="43.22431" lon="5.48179">
        <ele>379.1</ele>
        <time>2025-10-18T14:13:18Z</time>
      </trkpt>
      <trkpt lat="43.22431" lon="5.48178">
        <ele>379.2</ele>
        <time>2025-10-18T14:13:19Z</time>
      </trkpt>
      <trkpt lat="43.2243" lon="5.48178">
        <ele>379.3</ele>
        <time>2025-10-18T14:13:20Z</time>
      </trkpt>
      <trkpt lat="43.2243" lon="5.48178">
        <ele>379.4</ele>
        <time>2025-10-18T14:13:21Z</time>
      </trkpt>
      <trkpt lat="43.2243" lon="5.48178">
        <ele>379.5</ele>
        <time>2025-10-18T14:13:22Z</time>
      </trkpt>
      <trkpt lat="43.2243" lon="5.48178">
        <ele>379.6</ele>
        <time>2025-10-18T14:13:23Z</time>
      </trkpt>
      <trkpt lat="43.2243" lon="5.48177">
        <ele>379.8</ele>
        <time>2025-10-18T14:13:24Z</time>
      </trkpt>
      <trkpt lat="43.2243" lon="5.48178">
        <ele>379.9</ele>
        <time>2025-10-18T14:13:25Z</time>
      </trkpt>
      <trkpt lat="43.2243" lon="5.48178">
        <ele>380</ele>
        <time>2025-10-18T14:13:26Z</time>
      </trkpt>
      <trkpt lat="43.2243" lon="5.48178">
        <ele>380.1</ele>
        <time>2025-10-18T14:13:27Z</time>
      </trkpt>
      <trkpt lat="43.2243" lon="5.48178">
        <ele>380.2</ele>
        <time>2025-10-18T14:13:28Z</time>
      </trkpt>
      <trkpt lat="43.2243" lon="5.48178">
        <ele>380.2</ele>
        <time>2025-10-18T14:13:29Z</time>
      </trkpt>
      <trkpt lat="43.2243" lon="5.48178">
        <ele>380.2</ele>
        <time>2025-10-18T14:13:30Z</time>
      </trkpt>
      <trkpt lat="43.2243" lon="5.48178">
        <ele>380.2</ele>
        <time>2025-10-18T14:13:31Z</time>
      </trkpt>
      <trkpt lat="43.2243" lon="5.48178">
        <ele>380.2</ele>
        <time>2025-10-18T14:13:32Z</time>
      </trkpt>
      <trkpt lat="43.2243" lon="5.48178">
        <ele>380.2</ele>
        <time>2025-10-18T14:13:33Z</time>
      </trkpt>
      <trkpt lat="43.2243" lon="5.48178">
        <ele>380.1</ele>
        <time>2025-10-18T14:13:34Z</time>
      </trkpt>
      <trkpt lat="43.2243" lon="5.48178">
        <ele>380.1</ele>
        <time>2025-10-18T14:13:35Z</time>
      </trkpt>
      <trkpt lat="43.2243" lon="5.48178">
        <ele>380.1</ele>
        <time>2025-10-18T14:13:36Z</time>
      </trkpt>
      <trkpt lat="43.22431" lon="5.48178">
        <ele>380.1</ele>
        <time>2025-10-18T14:13:37Z</time>
      </trkpt>
      <trkpt lat="43.22431" lon="5.48179">
        <ele>380.1</ele>
        <time>2025-10-18T14:13:38Z</time>
      </trkpt>
      <trkpt lat="43.22432" lon="5.48179">
        <ele>380.2</ele>
        <time>2025-10-18T14:13:39Z</time>
      </trkpt>
      <trkpt lat="43.22432" lon="5.48179">
        <ele>380.3</ele>
        <time>2025-10-18T14:13:40Z</time>
      </trkpt>
      <trkpt lat="43.22432" lon="5.48179">
        <ele>380.4</ele>
        <time>2025-10-18T14:13:41Z</time>
      </trkpt>
      <trkpt lat="43.22433" lon="5.4818">
        <ele>380.5</ele>
        <time>2025-10-18T14:13:42Z</time>
      </trkpt>
      <trkpt lat="43.22433" lon="5.4818">
        <ele>380.6</ele>
        <time>2025-10-18T14:13:43Z</time>
      </trkpt>
      <trkpt lat="43.22433" lon="5.4818">
        <ele>380.8</ele>
        <time>2025-10-18T14:13:44Z</time>
      </trkpt>
      <trkpt lat="43.22434" lon="5.4818">
        <ele>381</ele>
        <time>2025-10-18T14:13:45Z</time>
      </trkpt>
      <trkpt lat="43.22434" lon="5.4818">
        <ele>381.1</ele>
        <time>2025-10-18T14:13:46Z</time>
      </trkpt>
      <trkpt lat="43.22435" lon="5.4818">
        <ele>381.2</ele>
        <time>2025-10-18T14:13:47Z</time>
      </trkpt>
      <trkpt lat="43.22435" lon="5.48181">
        <ele>381.3</ele>
        <time>2025-10-18T14:13:48Z</time>
      </trkpt>
      <trkpt lat="43.22435" lon="5.48181">
        <ele>381.4</ele>
        <time>2025-10-18T14:13:49Z</time>
      </trkpt>
      <trkpt lat="43.22435" lon="5.48181">
        <ele>381.6</ele>
        <time>2025-10-18T14:13:50Z</time>
      </trkpt>
      <trkpt lat="43.22435" lon="5.48181">
        <ele>381.6</ele>
        <time>2025-10-18T14:13:51Z</time>
      </trkpt>
      <trkpt lat="43.22435" lon="5.48181">
        <ele>381.8</ele>
        <time>2025-10-18T14:13:52Z</time>
      </trkpt>
      <trkpt lat="43.22436" lon="5.48181">
        <ele>381.7</ele>
        <time>2025-10-18T14:13:53Z</time>
      </trkpt>
      <trkpt lat="43.22436" lon="5.48181">
        <ele>381.8</ele>
        <time>2025-10-18T14:13:54Z</time>
      </trkpt>
      <trkpt lat="43.22436" lon="5.48181">
        <ele>381.9</ele>
        <time>2025-10-18T14:13:55Z</time>
      </trkpt>
      <trkpt lat="43.22437" lon="5.48182">
        <ele>382</ele>
        <time>2025-10-18T14:13:56Z</time>
      </trkpt>
      <trkpt lat="43.22437" lon="5.48182">
        <ele>382.1</ele>
        <time>2025-10-18T14:13:57Z</time>
      </trkpt>
      <trkpt lat="43.22438" lon="5.48183">
        <ele>382.1</ele>
        <time>2025-10-18T14:13:58Z</time>
      </trkpt>
      <trkpt lat="43.22438" lon="5.48183">
        <ele>382.3</ele>
        <time>2025-10-18T14:13:59Z</time>
      </trkpt>
      <trkpt lat="43.22439" lon="5.48183">
        <ele>382.4</ele>
        <time>2025-10-18T14:14:00Z</time>
      </trkpt>
      <trkpt lat="43.22439" lon="5.48184">
        <ele>382.4</ele>
        <time>2025-10-18T14:14:01Z</time>
      </trkpt>
      <trkpt lat="43.2244" lon="5.48184">
        <ele>382.5</ele>
        <time>2025-10-18T14:14:02Z</time>
      </trkpt>
      <trkpt lat="43.2244" lon="5.48184">
        <ele>382.6</ele>
        <time>2025-10-18T14:14:03Z</time>
      </trkpt>
      <trkpt lat="43.2244" lon="5.48184">
        <ele>382.7</ele>
        <time>2025-10-18T14:14:04Z</time>
      </trkpt>
      <trkpt lat="43.2244" lon="5.48185">
        <ele>382.8</ele>
        <time>2025-10-18T14:14:05Z</time>
      </trkpt>
      <trkpt lat="43.22441" lon="5.48185">
        <ele>382.9</ele>
        <time>2025-10-18T14:14:06Z</time>
      </trkpt>
      <trkpt lat="43.22442" lon="5.48186">
        <ele>383</ele>
        <time>2025-10-18T14:14:07Z</time>
      </trkpt>
      <trkpt lat="43.22442" lon="5.48186">
        <ele>383.1</ele>
        <time>2025-10-18T14:14:08Z</time>
      </trkpt>
      <trkpt lat="43.22443" lon="5.48187">
        <ele>383.1</ele>
        <time>2025-10-18T14:14:09Z</time>
      </trkpt>
      <trkpt lat="43.22443" lon="5.48188">
        <ele>383.1</ele>
        <time>2025-10-18T14:14:10Z</time>
      </trkpt>
      <trkpt lat="43.22444" lon="5.48188">
        <ele>383.1</ele>
        <time>2025-10-18T14:14:11Z</time>
      </trkpt>
      <trkpt lat="43.22445" lon="5.48188">
        <ele>383.2</ele>
        <time>2025-10-18T14:14:12Z</time>
      </trkpt>
      <trkpt lat="43.22445" lon="5.48188">
        <ele>383.2</ele>
        <time>2025-10-18T14:14:13Z</time>
      </trkpt>
      <trkpt lat="43.22446" lon="5.48188">
        <ele>383.3</ele>
        <time>2025-10-18T14:14:14Z</time>
      </trkpt>
      <trkpt lat="43.22447" lon="5.48188">
        <ele>383.4</ele>
        <time>2025-10-18T14:14:15Z</time>
      </trkpt>
      <trkpt lat="43.22448" lon="5.48189">
        <ele>383.5</ele>
        <time>2025-10-18T14:14:16Z</time>
      </trkpt>
      <trkpt lat="43.22448" lon="5.48189">
        <ele>383.6</ele>
        <time>2025-10-18T14:14:17Z</time>
      </trkpt>
      <trkpt lat="43.22449" lon="5.48189">
        <ele>383.6</ele>
        <time>2025-10-18T14:14:18Z</time>
      </trkpt>
      <trkpt lat="43.2245" lon="5.48189">
        <ele>383.7</ele>
        <time>2025-10-18T14:14:19Z</time>
      </trkpt>
      <trkpt lat="43.2245" lon="5.48189">
        <ele>383.7</ele>
        <time>2025-10-18T14:14:20Z</time>
      </trkpt>
      <trkpt lat="43.22451" lon="5.48189">
        <ele>383.8</ele>
        <time>2025-10-18T14:14:21Z</time>
      </trkpt>
      <trkpt lat="43.22452" lon="5.4819">
        <ele>383.9</ele>
        <time>2025-10-18T14:14:22Z</time>
      </trkpt>
      <trkpt lat="43.22452" lon="5.4819">
        <ele>383.9</ele>
        <time>2025-10-18T14:14:23Z</time>
      </trkpt>
      <trkpt lat="43.22453" lon="5.4819">
        <ele>384.1</ele>
        <time>2025-10-18T14:14:24Z</time>
      </trkpt>
      <trkpt lat="43.22453" lon="5.48191">
        <ele>384.2</ele>
        <time>2025-10-18T14:14:25Z</time>
      </trkpt>
      <trkpt lat="43.22454" lon="5.48191">
        <ele>384.1</ele>
        <time>2025-10-18T14:14:26Z</time>
      </trkpt>
      <trkpt lat="43.22454" lon="5.48192">
        <ele>384.3</ele>
        <time>2025-10-18T14:14:27Z</time>
      </trkpt>
      <trkpt lat="43.22455" lon="5.48192">
        <ele>384.4</ele>
        <time>2025-10-18T14:14:28Z</time>
      </trkpt>
      <trkpt lat="43.22455" lon="5.48192">
        <ele>384.4</ele>
        <time>2025-10-18T14:14:29Z</time>
      </trkpt>
      <trkpt lat="43.22455" lon="5.48192">
        <ele>384.4</ele>
        <time>2025-10-18T14:14:30Z</time>
      </trkpt>
      <trkpt lat="43.22455" lon="5.48193">
        <ele>384.5</ele>
        <time>2025-10-18T14:14:31Z</time>
      </trkpt>
      <trkpt lat="43.22455" lon="5.48193">
        <ele>384.5</ele>
        <time>2025-10-18T14:14:32Z</time>
      </trkpt>
      <trkpt lat="43.22455" lon="5.48193">
        <ele>384.6</ele>
        <time>2025-10-18T14:14:33Z</time>
      </trkpt>
      <trkpt lat="43.22455" lon="5.48193">
        <ele>384.7</ele>
        <time>2025-10-18T14:14:34Z</time>
      </trkpt>
      <trkpt lat="43.22456" lon="5.48193">
        <ele>384.7</ele>
        <time>2025-10-18T14:14:35Z</time>
      </trkpt>
      <trkpt lat="43.22456" lon="5.48193">
        <ele>384.7</ele>
        <time>2025-10-18T14:14:36Z</time>
      </trkpt>
      <trkpt lat="43.22456" lon="5.48193">
        <ele>384.7</ele>
        <time>2025-10-18T14:14:37Z</time>
      </trkpt>
      <trkpt lat="43.22457" lon="5.48193">
        <ele>384.7</ele>
        <time>2025-10-18T14:14:38Z</time>
      </trkpt>
      <trkpt lat="43.22457" lon="5.48193">
        <ele>384.7</ele>
        <time>2025-10-18T14:14:39Z</time>
      </trkpt>
      <trkpt lat="43.22457" lon="5.48193">
        <ele>384.8</ele>
        <time>2025-10-18T14:14:40Z</time>
      </trkpt>
      <trkpt lat="43.22457" lon="5.48193">
        <ele>385</ele>
        <time>2025-10-18T14:14:41Z</time>
      </trkpt>
      <trkpt lat="43.22457" lon="5.48194">
        <ele>385</ele>
        <time>2025-10-18T14:14:42Z</time>
      </trkpt>
      <trkpt lat="43.22458" lon="5.48194">
        <ele>385.1</ele>
        <time>2025-10-18T14:14:43Z</time>
      </trkpt>
      <trkpt lat="43.22458" lon="5.48193">
        <ele>385.2</ele>
        <time>2025-10-18T14:14:44Z</time>
      </trkpt>
      <trkpt lat="43.22459" lon="5.48193">
        <ele>385.2</ele>
        <time>2025-10-18T14:14:45Z</time>
      </trkpt>
      <trkpt lat="43.22459" lon="5.48193">
        <ele>385.2</ele>
        <time>2025-10-18T14:14:46Z</time>
      </trkpt>
      <trkpt lat="43.22459" lon="5.48193">
        <ele>385.3</ele>
        <time>2025-10-18T14:14:47Z</time>
      </trkpt>
      <trkpt lat="43.22459" lon="5.48193">
        <ele>385.3</ele>
        <time>2025-10-18T14:14:48Z</time>
      </trkpt>
      <trkpt lat="43.22459" lon="5.48193">
        <ele>385.3</ele>
        <time>2025-10-18T14:14:49Z</time>
      </trkpt>
      <trkpt lat="43.22459" lon="5.48193">
        <ele>385.3</ele>
        <time>2025-10-18T14:14:50Z</time>
      </trkpt>
      <trkpt lat="43.22459" lon="5.48193">
        <ele>385.3</ele>
        <time>2025-10-18T14:14:51Z</time>
      </trkpt>
      <trkpt lat="43.22459" lon="5.48194">
        <ele>385.2</ele>
        <time>2025-10-18T14:14:52Z</time>
      </trkpt>
      <trkpt lat="43.22459" lon="5.48194">
        <ele>385.2</ele>
        <time>2025-10-18T14:14:53Z</time>
      </trkpt>
      <trkpt lat="43.22459" lon="5.48194">
        <ele>385.2</ele>
        <time>2025-10-18T14:14:54Z</time>
      </trkpt>
      <trkpt lat="43.22459" lon="5.48194">
        <ele>385.2</ele>
        <time>2025-10-18T14:14:55Z</time>
      </trkpt>
      <trkpt lat="43.22459" lon="5.48194">
        <ele>385.2</ele>
        <time>2025-10-18T14:14:56Z</time>
      </trkpt>
      <trkpt lat="43.22459" lon="5.48195">
        <ele>385.2</ele>
        <time>2025-10-18T14:14:57Z</time>
      </trkpt>
      <trkpt lat="43.22459" lon="5.48195">
        <ele>385.3</ele>
        <time>2025-10-18T14:14:58Z</time>
      </trkpt>
      <trkpt lat="43.22459" lon="5.48195">
        <ele>385.4</ele>
        <time>2025-10-18T14:14:59Z</time>
      </trkpt>
      <trkpt lat="43.22459" lon="5.48195">
        <ele>385.4</ele>
        <time>2025-10-18T14:15:00Z</time>
      </trkpt>
      <trkpt lat="43.22459" lon="5.48195">
        <ele>385.5</ele>
        <time>2025-10-18T14:15:01Z</time>
      </trkpt>
      <trkpt lat="43.22459" lon="5.48195">
        <ele>385.5</ele>
        <time>2025-10-18T14:15:02Z</time>
      </trkpt>
      <trkpt lat="43.22459" lon="5.48195">
        <ele>385.4</ele>
        <time>2025-10-18T14:15:03Z</time>
      </trkpt>
      <trkpt lat="43.22459" lon="5.48195">
        <ele>385.4</ele>
        <time>2025-10-18T14:15:04Z</time>
      </trkpt>
      <trkpt lat="43.22459" lon="5.48195">
        <ele>385.4</ele>
        <time>2025-10-18T14:15:05Z</time>
      </trkpt>
      <trkpt lat="43.22459" lon="5.48196">
        <ele>385.4</ele>
        <time>2025-10-18T14:15:06Z</time>
      </trkpt>
      <trkpt lat="43.22459" lon="5.48196">
        <ele>385.4</ele>
        <time>2025-10-18T14:15:07Z</time>
      </trkpt>
      <trkpt lat="43.22459" lon="5.48196">
        <ele>385.4</ele>
        <time>2025-10-18T14:15:08Z</time>
      </trkpt>
      <trkpt lat="43.22459" lon="5.48196">
        <ele>385.4</ele>
        <time>2025-10-18T14:15:09Z</time>
      </trkpt>
      <trkpt lat="43.2246" lon="5.48196">
        <ele>385.4</ele>
        <time>2025-10-18T14:15:10Z</time>
      </trkpt>
      <trkpt lat="43.22459" lon="5.48197">
        <ele>385.4</ele>
        <time>2025-10-18T14:15:11Z</time>
      </trkpt>
      <trkpt lat="43.22459" lon="5.48197">
        <ele>385.4</ele>
        <time>2025-10-18T14:15:12Z</time>
      </trkpt>
      <trkpt lat="43.22459" lon="5.48197">
        <ele>385.2</ele>
        <time>2025-10-18T14:15:13Z</time>
      </trkpt>
      <trkpt lat="43.22459" lon="5.48198">
        <ele>385.2</ele>
        <time>2025-10-18T14:15:14Z</time>
      </trkpt>
      <trkpt lat="43.22459" lon="5.48198">
        <ele>385.2</ele>
        <time>2025-10-18T14:15:15Z</time>
      </trkpt>
      <trkpt lat="43.2246" lon="5.48198">
        <ele>385.2</ele>
        <time>2025-10-18T14:15:16Z</time>
      </trkpt>
      <trkpt lat="43.2246" lon="5.48198">
        <ele>385.3</ele>
        <time>2025-10-18T14:15:17Z</time>
      </trkpt>
      <trkpt lat="43.2246" lon="5.48198">
        <ele>385.3</ele>
        <time>2025-10-18T14:15:18Z</time>
      </trkpt>
      <trkpt lat="43.22461" lon="5.48199">
        <ele>385.4</ele>
        <time>2025-10-18T14:15:19Z</time>
      </trkpt>
      <trkpt lat="43.22461" lon="5.482">
        <ele>385.5</ele>
        <time>2025-10-18T14:15:20Z</time>
      </trkpt>
      <trkpt lat="43.22462" lon="5.482">
        <ele>385.6</ele>
        <time>2025-10-18T14:15:21Z</time>
      </trkpt>
      <trkpt lat="43.22462" lon="5.48201">
        <ele>385.6</ele>
        <time>2025-10-18T14:15:22Z</time>
      </trkpt>
      <trkpt lat="43.22463" lon="5.48201">
        <ele>385.6</ele>
        <time>2025-10-18T14:15:23Z</time>
      </trkpt>
      <trkpt lat="43.22463" lon="5.48202">
        <ele>385.6</ele>
        <time>2025-10-18T14:15:24Z</time>
      </trkpt>
      <trkpt lat="43.22463" lon="5.48202">
        <ele>385.6</ele>
        <time>2025-10-18T14:15:25Z</time>
      </trkpt>
      <trkpt lat="43.22464" lon="5.48202">
        <ele>385.7</ele>
        <time>2025-10-18T14:15:26Z</time>
      </trkpt>
      <trkpt lat="43.22464" lon="5.48202">
        <ele>385.7</ele>
        <time>2025-10-18T14:15:27Z</time>
      </trkpt>
      <trkpt lat="43.22464" lon="5.48202">
        <ele>385.8</ele>
        <time>2025-10-18T14:15:28Z</time>
      </trkpt>
      <trkpt lat="43.22464" lon="5.48202">
        <ele>385.8</ele>
        <time>2025-10-18T14:15:29Z</time>
      </trkpt>
      <trkpt lat="43.22464" lon="5.48202">
        <ele>385.9</ele>
        <time>2025-10-18T14:15:30Z</time>
      </trkpt>
      <trkpt lat="43.22464" lon="5.48202">
        <ele>385.9</ele>
        <time>2025-10-18T14:15:31Z</time>
      </trkpt>
      <trkpt lat="43.22464" lon="5.48202">
        <ele>385.8</ele>
        <time>2025-10-18T14:15:32Z</time>
      </trkpt>
      <trkpt lat="43.22465" lon="5.48202">
        <ele>385.8</ele>
        <time>2025-10-18T14:15:33Z</time>
      </trkpt>
      <trkpt lat="43.22465" lon="5.48202">
        <ele>385.7</ele>
        <time>2025-10-18T14:15:34Z</time>
      </trkpt>
      <trkpt lat="43.22465" lon="5.48202">
        <ele>385.8</ele>
        <time>2025-10-18T14:15:35Z</time>
      </trkpt>
      <trkpt lat="43.22466" lon="5.48203">
        <ele>385.9</ele>
        <time>2025-10-18T14:15:36Z</time>
      </trkpt>
      <trkpt lat="43.22467" lon="5.48202">
        <ele>386.1</ele>
        <time>2025-10-18T14:15:37Z</time>
      </trkpt>
      <trkpt lat="43.22467" lon="5.48202">
        <ele>386.2</ele>
        <time>2025-10-18T14:15:38Z</time>
      </trkpt>
      <trkpt lat="43.22468" lon="5.48202">
        <ele>386.2</ele>
        <time>2025-10-18T14:15:39Z</time>
      </trkpt>
      <trkpt lat="43.22468" lon="5.48202">
        <ele>386.4</ele>
        <time>2025-10-18T14:15:40Z</time>
      </trkpt>
      <trkpt lat="43.22469" lon="5.48203">
        <ele>385.9</ele>
        <time>2025-10-18T14:15:41Z</time>
      </trkpt>
      <trkpt lat="43.2247" lon="5.48202">
        <ele>386.1</ele>
        <time>2025-10-18T14:15:42Z</time>
      </trkpt>
      <trkpt lat="43.2247" lon="5.48203">
        <ele>386.4</ele>
        <time>2025-10-18T14:15:43Z</time>
      </trkpt>
      <trkpt lat="43.22471" lon="5.48203">
        <ele>386.6</ele>
        <time>2025-10-18T14:15:44Z</time>
      </trkpt>
      <trkpt lat="43.22471" lon="5.48203">
        <ele>386.8</ele>
        <time>2025-10-18T14:15:45Z</time>
      </trkpt>
      <trkpt lat="43.22471" lon="5.48203">
        <ele>386.9</ele>
        <time>2025-10-18T14:15:46Z</time>
      </trkpt>
      <trkpt lat="43.22471" lon="5.48203">
        <ele>386.9</ele>
        <time>2025-10-18T14:15:47Z</time>
      </trkpt>
      <trkpt lat="43.22471" lon="5.48203">
        <ele>387</ele>
        <time>2025-10-18T14:15:48Z</time>
      </trkpt>
      <trkpt lat="43.22471" lon="5.48203">
        <ele>387</ele>
        <time>2025-10-18T14:15:49Z</time>
      </trkpt>
      <trkpt lat="43.22471" lon="5.48203">
        <ele>387</ele>
        <time>2025-10-18T14:15:50Z</time>
      </trkpt>
      <trkpt lat="43.22471" lon="5.48202">
        <ele>387</ele>
        <time>2025-10-18T14:15:51Z</time>
      </trkpt>
      <trkpt lat="43.22471" lon="5.48203">
        <ele>387.1</ele>
        <time>2025-10-18T14:15:52Z</time>
      </trkpt>
      <trkpt lat="43.22471" lon="5.48203">
        <ele>387.2</ele>
        <time>2025-10-18T14:15:53Z</time>
      </trkpt>
      <trkpt lat="43.22471" lon="5.48202">
        <ele>387.2</ele>
        <time>2025-10-18T14:15:54Z</time>
      </trkpt>
      <trkpt lat="43.22471" lon="5.48202">
        <ele>387.3</ele>
        <time>2025-10-18T14:15:55Z</time>
      </trkpt>
      <trkpt lat="43.22471" lon="5.48202">
        <ele>387.4</ele>
        <time>2025-10-18T14:15:56Z</time>
      </trkpt>
      <trkpt lat="43.22471" lon="5.48202">
        <ele>387.4</ele>
        <time>2025-10-18T14:15:57Z</time>
      </trkpt>
      <trkpt lat="43.22472" lon="5.48202">
        <ele>387.4</ele>
        <time>2025-10-18T14:15:58Z</time>
      </trkpt>
      <trkpt lat="43.22472" lon="5.48202">
        <ele>387.4</ele>
        <time>2025-10-18T14:15:59Z</time>
      </trkpt>
      <trkpt lat="43.22472" lon="5.48202">
        <ele>387.1</ele>
        <time>2025-10-18T14:16:00Z</time>
      </trkpt>
      <trkpt lat="43.22472" lon="5.48203">
        <ele>387.2</ele>
        <time>2025-10-18T14:16:01Z</time>
      </trkpt>
      <trkpt lat="43.22473" lon="5.48203">
        <ele>387.4</ele>
        <time>2025-10-18T14:16:02Z</time>
      </trkpt>
      <trkpt lat="43.22474" lon="5.48203">
        <ele>387.3</ele>
        <time>2025-10-18T14:16:03Z</time>
      </trkpt>
      <trkpt lat="43.22475" lon="5.48204">
        <ele>387.4</ele>
        <time>2025-10-18T14:16:04Z</time>
      </trkpt>
      <trkpt lat="43.22476" lon="5.48204">
        <ele>387.5</ele>
        <time>2025-10-18T14:16:05Z</time>
      </trkpt>
      <trkpt lat="43.22476" lon="5.48204">
        <ele>387.6</ele>
        <time>2025-10-18T14:16:06Z</time>
      </trkpt>
      <trkpt lat="43.22477" lon="5.48204">
        <ele>387.8</ele>
        <time>2025-10-18T14:16:07Z</time>
      </trkpt>
      <trkpt lat="43.22478" lon="5.48204">
        <ele>387.7</ele>
        <time>2025-10-18T14:16:08Z</time>
      </trkpt>
      <trkpt lat="43.22478" lon="5.48205">
        <ele>387.9</ele>
        <time>2025-10-18T14:16:09Z</time>
      </trkpt>
      <trkpt lat="43.22479" lon="5.48206">
        <ele>388.2</ele>
        <time>2025-10-18T14:16:10Z</time>
      </trkpt>
      <trkpt lat="43.2248" lon="5.48207">
        <ele>387.9</ele>
        <time>2025-10-18T14:16:11Z</time>
      </trkpt>
      <trkpt lat="43.2248" lon="5.48207">
        <ele>387.9</ele>
        <time>2025-10-18T14:16:12Z</time>
      </trkpt>
      <trkpt lat="43.22481" lon="5.48208">
        <ele>388.1</ele>
        <time>2025-10-18T14:16:13Z</time>
      </trkpt>
      <trkpt lat="43.22481" lon="5.48209">
        <ele>388</ele>
        <time>2025-10-18T14:16:14Z</time>
      </trkpt>
      <trkpt lat="43.22482" lon="5.4821">
        <ele>388.1</ele>
        <time>2025-10-18T14:16:15Z</time>
      </trkpt>
      <trkpt lat="43.22482" lon="5.4821">
        <ele>388.3</ele>
        <time>2025-10-18T14:16:16Z</time>
      </trkpt>
      <trkpt lat="43.22482" lon="5.4821">
        <ele>388.4</ele>
        <time>2025-10-18T14:16:17Z</time>
      </trkpt>
      <trkpt lat="43.22483" lon="5.4821">
        <ele>388.6</ele>
        <time>2025-10-18T14:16:18Z</time>
      </trkpt>
      <trkpt lat="43.22483" lon="5.48211">
        <ele>388.8</ele>
        <time>2025-10-18T14:16:19Z</time>
      </trkpt>
      <trkpt lat="43.22484" lon="5.48212">
        <ele>389.1</ele>
        <time>2025-10-18T14:16:20Z</time>
      </trkpt>
      <trkpt lat="43.22484" lon="5.48212">
        <ele>389.3</ele>
        <time>2025-10-18T14:16:21Z</time>
      </trkpt>
      <trkpt lat="43.22485" lon="5.48212">
        <ele>389.6</ele>
        <time>2025-10-18T14:16:22Z</time>
      </trkpt>
      <trkpt lat="43.22485" lon="5.48212">
        <ele>389.8</ele>
        <time>2025-10-18T14:16:23Z</time>
      </trkpt>
      <trkpt lat="43.22486" lon="5.48213">
        <ele>389.9</ele>
        <time>2025-10-18T14:16:24Z</time>
      </trkpt>
      <trkpt lat="43.22487" lon="5.48213">
        <ele>390</ele>
        <time>2025-10-18T14:16:25Z</time>
      </trkpt>
      <trkpt lat="43.22487" lon="5.48213">
        <ele>390</ele>
        <time>2025-10-18T14:16:26Z</time>
      </trkpt>
      <trkpt lat="43.22488" lon="5.48213">
        <ele>390.1</ele>
        <time>2025-10-18T14:16:27Z</time>
      </trkpt>
      <trkpt lat="43.22488" lon="5.48213">
        <ele>390.3</ele>
        <time>2025-10-18T14:16:28Z</time>
      </trkpt>
      <trkpt lat="43.22489" lon="5.48213">
        <ele>390.4</ele>
        <time>2025-10-18T14:16:29Z</time>
      </trkpt>
      <trkpt lat="43.22489" lon="5.48213">
        <ele>390.7</ele>
        <time>2025-10-18T14:16:30Z</time>
      </trkpt>
      <trkpt lat="43.2249" lon="5.48213">
        <ele>390.9</ele>
        <time>2025-10-18T14:16:31Z</time>
      </trkpt>
      <trkpt lat="43.2249" lon="5.48213">
        <ele>391</ele>
        <time>2025-10-18T14:16:32Z</time>
      </trkpt>
      <trkpt lat="43.2249" lon="5.48214">
        <ele>391.2</ele>
        <time>2025-10-18T14:16:33Z</time>
      </trkpt>
      <trkpt lat="43.22491" lon="5.48215">
        <ele>391.3</ele>
        <time>2025-10-18T14:16:34Z</time>
      </trkpt>
      <trkpt lat="43.22493" lon="5.48215">
        <ele>391.4</ele>
        <time>2025-10-18T14:16:35Z</time>
      </trkpt>
      <trkpt lat="43.22493" lon="5.48215">
        <ele>391.5</ele>
        <time>2025-10-18T14:16:36Z</time>
      </trkpt>
      <trkpt lat="43.22493" lon="5.48216">
        <ele>391.6</ele>
        <time>2025-10-18T14:16:37Z</time>
      </trkpt>
      <trkpt lat="43.22495" lon="5.48216">
        <ele>391.7</ele>
        <time>2025-10-18T14:16:38Z</time>
      </trkpt>
      <trkpt lat="43.22495" lon="5.48216">
        <ele>392.2</ele>
        <time>2025-10-18T14:16:39Z</time>
      </trkpt>
      <trkpt lat="43.22496" lon="5.48217">
        <ele>392.3</ele>
        <time>2025-10-18T14:16:40Z</time>
      </trkpt>
      <trkpt lat="43.22497" lon="5.48217">
        <ele>392.3</ele>
        <time>2025-10-18T14:16:41Z</time>
      </trkpt>
      <trkpt lat="43.22497" lon="5.48218">
        <ele>392.5</ele>
        <time>2025-10-18T14:16:42Z</time>
      </trkpt>
      <trkpt lat="43.22497" lon="5.48219">
        <ele>392.6</ele>
        <time>2025-10-18T14:16:43Z</time>
      </trkpt>
      <trkpt lat="43.22497" lon="5.48219">
        <ele>392.6</ele>
        <time>2025-10-18T14:16:44Z</time>
      </trkpt>
      <trkpt lat="43.22497" lon="5.48219">
        <ele>392.7</ele>
        <time>2025-10-18T14:16:45Z</time>
      </trkpt>
      <trkpt lat="43.22497" lon="5.48219">
        <ele>392.8</ele>
        <time>2025-10-18T14:16:46Z</time>
      </trkpt>
      <trkpt lat="43.22496" lon="5.48218">
        <ele>392.8</ele>
        <time>2025-10-18T14:16:47Z</time>
      </trkpt>
      <trkpt lat="43.22496" lon="5.48218">
        <ele>393</ele>
        <time>2025-10-18T14:16:48Z</time>
      </trkpt>
      <trkpt lat="43.22496" lon="5.48218">
        <ele>392.8</ele>
        <time>2025-10-18T14:16:49Z</time>
      </trkpt>
      <trkpt lat="43.22496" lon="5.48219">
        <ele>392.8</ele>
        <time>2025-10-18T14:16:50Z</time>
      </trkpt>
      <trkpt lat="43.22496" lon="5.4822">
        <ele>392.6</ele>
        <time>2025-10-18T14:16:51Z</time>
      </trkpt>
      <trkpt lat="43.22496" lon="5.4822">
        <ele>392.1</ele>
        <time>2025-10-18T14:16:52Z</time>
      </trkpt>
      <trkpt lat="43.22496" lon="5.48221">
        <ele>392</ele>
        <time>2025-10-18T14:16:53Z</time>
      </trkpt>
      <trkpt lat="43.22497" lon="5.48221">
        <ele>392.1</ele>
        <time>2025-10-18T14:16:54Z</time>
      </trkpt>
      <trkpt lat="43.22497" lon="5.48221">
        <ele>392.3</ele>
        <time>2025-10-18T14:16:55Z</time>
      </trkpt>
      <trkpt lat="43.22497" lon="5.48221">
        <ele>392.5</ele>
        <time>2025-10-18T14:16:56Z</time>
      </trkpt>
      <trkpt lat="43.22496" lon="5.48222">
        <ele>392.9</ele>
        <time>2025-10-18T14:16:57Z</time>
      </trkpt>
      <trkpt lat="43.22496" lon="5.48224">
        <ele>393</ele>
        <time>2025-10-18T14:16:58Z</time>
      </trkpt>
      <trkpt lat="43.22496" lon="5.48224">
        <ele>393.1</ele>
        <time>2025-10-18T14:16:59Z</time>
      </trkpt>
      <trkpt lat="43.22496" lon="5.48224">
        <ele>393.2</ele>
        <time>2025-10-18T14:17:00Z</time>
      </trkpt>
      <trkpt lat="43.22496" lon="5.48224">
        <ele>393.3</ele>
        <time>2025-10-18T14:17:01Z</time>
      </trkpt>
      <trkpt lat="43.22497" lon="5.48225">
        <ele>393.6</ele>
        <time>2025-10-18T14:17:02Z</time>
      </trkpt>
      <trkpt lat="43.22497" lon="5.48226">
        <ele>393.7</ele>
        <time>2025-10-18T14:17:03Z</time>
      </trkpt>
      <trkpt lat="43.22497" lon="5.48226">
        <ele>393.7</ele>
        <time>2025-10-18T14:17:04Z</time>
      </trkpt>
      <trkpt lat="43.22496" lon="5.48227">
        <ele>393.9</ele>
        <time>2025-10-18T14:17:05Z</time>
      </trkpt>
      <trkpt lat="43.22496" lon="5.48227">
        <ele>394.2</ele>
        <time>2025-10-18T14:17:06Z</time>
      </trkpt>
      <trkpt lat="43.22496" lon="5.48228">
        <ele>394.2</ele>
        <time>2025-10-18T14:17:07Z</time>
      </trkpt>
      <trkpt lat="43.22496" lon="5.48228">
        <ele>394.5</ele>
        <time>2025-10-18T14:17:08Z</time>
      </trkpt>
      <trkpt lat="43.22496" lon="5.48229">
        <ele>394.5</ele>
        <time>2025-10-18T14:17:09Z</time>
      </trkpt>
      <trkpt lat="43.22496" lon="5.48229">
        <ele>394.5</ele>
        <time>2025-10-18T14:17:10Z</time>
      </trkpt>
      <trkpt lat="43.22496" lon="5.4823">
        <ele>394.7</ele>
        <time>2025-10-18T14:17:11Z</time>
      </trkpt>
      <trkpt lat="43.22495" lon="5.4823">
        <ele>394.7</ele>
        <time>2025-10-18T14:17:12Z</time>
      </trkpt>
      <trkpt lat="43.22494" lon="5.4823">
        <ele>395</ele>
        <time>2025-10-18T14:17:13Z</time>
      </trkpt>
      <trkpt lat="43.22494" lon="5.4823">
        <ele>395.3</ele>
        <time>2025-10-18T14:17:14Z</time>
      </trkpt>
      <trkpt lat="43.22494" lon="5.48231">
        <ele>395.5</ele>
        <time>2025-10-18T14:17:15Z</time>
      </trkpt>
      <trkpt lat="43.22495" lon="5.48231">
        <ele>395.6</ele>
        <time>2025-10-18T14:17:16Z</time>
      </trkpt>
      <trkpt lat="43.22495" lon="5.48231">
        <ele>395.5</ele>
        <time>2025-10-18T14:17:17Z</time>
      </trkpt>
      <trkpt lat="43.22494" lon="5.48231">
        <ele>395.6</ele>
        <time>2025-10-18T14:17:18Z</time>
      </trkpt>
      <trkpt lat="43.22494" lon="5.48232">
        <ele>395.6</ele>
        <time>2025-10-18T14:17:19Z</time>
      </trkpt>
      <trkpt lat="43.22494" lon="5.48232">
        <ele>395.7</ele>
        <time>2025-10-18T14:17:20Z</time>
      </trkpt>
      <trkpt lat="43.22494" lon="5.48232">
        <ele>395.6</ele>
        <time>2025-10-18T14:17:21Z</time>
      </trkpt>
      <trkpt lat="43.22494" lon="5.48232">
        <ele>395.7</ele>
        <time>2025-10-18T14:17:22Z</time>
      </trkpt>
      <trkpt lat="43.22495" lon="5.48232">
        <ele>394.7</ele>
        <time>2025-10-18T14:17:23Z</time>
      </trkpt>
      <trkpt lat="43.22495" lon="5.48231">
        <ele>394.8</ele>
        <time>2025-10-18T14:17:24Z</time>
      </trkpt>
      <trkpt lat="43.22495" lon="5.48231">
        <ele>395.1</ele>
        <time>2025-10-18T14:17:25Z</time>
      </trkpt>
      <trkpt lat="43.22495" lon="5.48231">
        <ele>395.3</ele>
        <time>2025-10-18T14:17:26Z</time>
      </trkpt>
      <trkpt lat="43.22496" lon="5.48231">
        <ele>395.6</ele>
        <time>2025-10-18T14:17:27Z</time>
      </trkpt>
      <trkpt lat="43.22496" lon="5.4823">
        <ele>395.8</ele>
        <time>2025-10-18T14:17:28Z</time>
      </trkpt>
      <trkpt lat="43.22495" lon="5.48231">
        <ele>395.9</ele>
        <time>2025-10-18T14:17:29Z</time>
      </trkpt>
      <trkpt lat="43.22495" lon="5.48229">
        <ele>396.1</ele>
        <time>2025-10-18T14:17:30Z</time>
      </trkpt>
      <trkpt lat="43.22494" lon="5.48228">
        <ele>396.4</ele>
        <time>2025-10-18T14:17:31Z</time>
      </trkpt>
      <trkpt lat="43.22493" lon="5.48227">
        <ele>396.4</ele>
        <time>2025-10-18T14:17:32Z</time>
      </trkpt>
      <trkpt lat="43.22492" lon="5.48225">
        <ele>396.4</ele>
        <time>2025-10-18T14:17:33Z</time>
      </trkpt>
      <trkpt lat="43.22491" lon="5.48224">
        <ele>396.4</ele>
        <time>2025-10-18T14:17:34Z</time>
      </trkpt>
      <trkpt lat="43.2249" lon="5.48222">
        <ele>396.4</ele>
        <time>2025-10-18T14:17:35Z</time>
      </trkpt>
      <trkpt lat="43.22489" lon="5.48221">
        <ele>396.4</ele>
        <time>2025-10-18T14:17:36Z</time>
      </trkpt>
      <trkpt lat="43.22488" lon="5.48219">
        <ele>396.4</ele>
        <time>2025-10-18T14:17:37Z</time>
      </trkpt>
      <trkpt lat="43.22488" lon="5.48218">
        <ele>396.4</ele>
        <time>2025-10-18T14:17:38Z</time>
      </trkpt>
      <trkpt lat="43.22487" lon="5.48216">
        <ele>396.4</ele>
        <time>2025-10-18T14:17:39Z</time>
      </trkpt>
      <trkpt lat="43.22486" lon="5.48215">
        <ele>396.5</ele>
        <time>2025-10-18T14:17:40Z</time>
      </trkpt>
      <trkpt lat="43.22485" lon="5.48214">
        <ele>396.6</ele>
        <time>2025-10-18T14:17:41Z</time>
      </trkpt>
      <trkpt lat="43.22485" lon="5.48213">
        <ele>396.6</ele>
        <time>2025-10-18T14:17:42Z</time>
      </trkpt>
      <trkpt lat="43.22485" lon="5.48212">
        <ele>396.5</ele>
        <time>2025-10-18T14:17:43Z</time>
      </trkpt>
      <trkpt lat="43.22485" lon="5.48212">
        <ele>396.5</ele>
        <time>2025-10-18T14:17:44Z</time>
      </trkpt>
      <trkpt lat="43.22485" lon="5.48212">
        <ele>396.6</ele>
        <time>2025-10-18T14:17:45Z</time>
      </trkpt>
      <trkpt lat="43.22485" lon="5.48211">
        <ele>396.6</ele>
        <time>2025-10-18T14:17:46Z</time>
      </trkpt>
      <trkpt lat="43.22485" lon="5.48211">
        <ele>396.7</ele>
        <time>2025-10-18T14:17:47Z</time>
      </trkpt>
      <trkpt lat="43.22484" lon="5.48211">
        <ele>396.7</ele>
        <time>2025-10-18T14:17:48Z</time>
      </trkpt>
      <trkpt lat="43.22484" lon="5.48211">
        <ele>396.7</ele>
        <time>2025-10-18T14:17:49Z</time>
      </trkpt>
      <trkpt lat="43.22484" lon="5.48211">
        <ele>396.7</ele>
        <time>2025-10-18T14:17:50Z</time>
      </trkpt>
      <trkpt lat="43.22485" lon="5.4821">
        <ele>396.7</ele>
        <time>2025-10-18T14:17:51Z</time>
      </trkpt>
      <trkpt lat="43.22485" lon="5.4821">
        <ele>396.8</ele>
        <time>2025-10-18T14:17:52Z</time>
      </trkpt>
      <trkpt lat="43.22485" lon="5.4821">
        <ele>396.7</ele>
        <time>2025-10-18T14:17:53Z</time>
      </trkpt>
      <trkpt lat="43.22485" lon="5.4821">
        <ele>396.6</ele>
        <time>2025-10-18T14:17:54Z</time>
      </trkpt>
      <trkpt lat="43.22486" lon="5.4821">
        <ele>396.9</ele>
        <time>2025-10-18T14:17:55Z</time>
      </trkpt>
      <trkpt lat="43.22487" lon="5.48211">
        <ele>396.8</ele>
        <time>2025-10-18T14:17:56Z</time>
      </trkpt>
      <trkpt lat="43.22487" lon="5.48211">
        <ele>396.7</ele>
        <time>2025-10-18T14:17:57Z</time>
      </trkpt>
      <trkpt lat="43.22487" lon="5.48211">
        <ele>396.4</ele>
        <time>2025-10-18T14:17:58Z</time>
      </trkpt>
      <trkpt lat="43.22487" lon="5.48212">
        <ele>396.4</ele>
        <time>2025-10-18T14:17:59Z</time>
      </trkpt>
      <trkpt lat="43.22487" lon="5.48212">
        <ele>396.6</ele>
        <time>2025-10-18T14:18:00Z</time>
      </trkpt>
      <trkpt lat="43.22487" lon="5.48212">
        <ele>396.6</ele>
        <time>2025-10-18T14:18:01Z</time>
      </trkpt>
      <trkpt lat="43.22487" lon="5.48213">
        <ele>396.8</ele>
        <time>2025-10-18T14:18:02Z</time>
      </trkpt>
      <trkpt lat="43.22487" lon="5.48213">
        <ele>396.8</ele>
        <time>2025-10-18T14:18:03Z</time>
      </trkpt>
      <trkpt lat="43.22487" lon="5.48213">
        <ele>396.8</ele>
        <time>2025-10-18T14:18:04Z</time>
      </trkpt>
      <trkpt lat="43.22487" lon="5.48212">
        <ele>396.8</ele>
        <time>2025-10-18T14:18:05Z</time>
      </trkpt>
      <trkpt lat="43.22487" lon="5.48212">
        <ele>396.8</ele>
        <time>2025-10-18T14:18:06Z</time>
      </trkpt>
      <trkpt lat="43.22487" lon="5.48212">
        <ele>396.8</ele>
        <time>2025-10-18T14:18:07Z</time>
      </trkpt>
      <trkpt lat="43.22487" lon="5.48211">
        <ele>396.7</ele>
        <time>2025-10-18T14:18:08Z</time>
      </trkpt>
      <trkpt lat="43.22487" lon="5.48211">
        <ele>396.7</ele>
        <time>2025-10-18T14:18:09Z</time>
      </trkpt>
      <trkpt lat="43.22487" lon="5.48211">
        <ele>396.7</ele>
        <time>2025-10-18T14:18:10Z</time>
      </trkpt>
      <trkpt lat="43.22486" lon="5.4821">
        <ele>396.7</ele>
        <time>2025-10-18T14:18:11Z</time>
      </trkpt>
      <trkpt lat="43.22486" lon="5.4821">
        <ele>396.7</ele>
        <time>2025-10-18T14:18:12Z</time>
      </trkpt>
      <trkpt lat="43.22486" lon="5.48209">
        <ele>396.7</ele>
        <time>2025-10-18T14:18:13Z</time>
      </trkpt>
      <trkpt lat="43.22486" lon="5.48209">
        <ele>396.7</ele>
        <time>2025-10-18T14:18:14Z</time>
      </trkpt>
      <trkpt lat="43.22486" lon="5.48208">
        <ele>396.8</ele>
        <time>2025-10-18T14:18:15Z</time>
      </trkpt>
      <trkpt lat="43.22486" lon="5.48208">
        <ele>396.8</ele>
        <time>2025-10-18T14:18:16Z</time>
      </trkpt>
      <trkpt lat="43.22485" lon="5.48207">
        <ele>396.9</ele>
        <time>2025-10-18T14:18:17Z</time>
      </trkpt>
      <trkpt lat="43.22485" lon="5.48207">
        <ele>397</ele>
        <time>2025-10-18T14:18:18Z</time>
      </trkpt>
      <trkpt lat="43.22486" lon="5.48207">
        <ele>397</ele>
        <time>2025-10-18T14:18:19Z</time>
      </trkpt>
      <trkpt lat="43.22486" lon="5.48207">
        <ele>397.1</ele>
        <time>2025-10-18T14:18:20Z</time>
      </trkpt>
      <trkpt lat="43.22486" lon="5.48207">
        <ele>397.2</ele>
        <time>2025-10-18T14:18:21Z</time>
      </trkpt>
      <trkpt lat="43.22486" lon="5.48208">
        <ele>397.3</ele>
        <time>2025-10-18T14:18:22Z</time>
      </trkpt>
      <trkpt lat="43.22487" lon="5.48208">
        <ele>397.3</ele>
        <time>2025-10-18T14:18:23Z</time>
      </trkpt>
      <trkpt lat="43.22487" lon="5.48208">
        <ele>397.4</ele>
        <time>2025-10-18T14:18:24Z</time>
      </trkpt>
      <trkpt lat="43.22487" lon="5.48208">
        <ele>397.5</ele>
        <time>2025-10-18T14:18:25Z</time>
      </trkpt>
      <trkpt lat="43.22487" lon="5.48208">
        <ele>397.5</ele>
        <time>2025-10-18T14:18:26Z</time>
      </trkpt>
      <trkpt lat="43.22487" lon="5.48208">
        <ele>397.4</ele>
        <time>2025-10-18T14:18:27Z</time>
      </trkpt>
      <trkpt lat="43.22487" lon="5.48207">
        <ele>397.7</ele>
        <time>2025-10-18T14:18:28Z</time>
      </trkpt>
      <trkpt lat="43.22488" lon="5.48208">
        <ele>397.6</ele>
        <time>2025-10-18T14:18:29Z</time>
      </trkpt>
      <trkpt lat="43.22489" lon="5.48208">
        <ele>398</ele>
        <time>2025-10-18T14:18:30Z</time>
      </trkpt>
      <trkpt lat="43.22489" lon="5.48209">
        <ele>398.1</ele>
        <time>2025-10-18T14:18:31Z</time>
      </trkpt>
      <trkpt lat="43.2249" lon="5.48209">
        <ele>398.2</ele>
        <time>2025-10-18T14:18:32Z</time>
      </trkpt>
      <trkpt lat="43.22491" lon="5.4821">
        <ele>398.2</ele>
        <time>2025-10-18T14:18:33Z</time>
      </trkpt>
      <trkpt lat="43.22491" lon="5.48211">
        <ele>398.2</ele>
        <time>2025-10-18T14:18:34Z</time>
      </trkpt>
      <trkpt lat="43.22492" lon="5.48212">
        <ele>398.2</ele>
        <time>2025-10-18T14:18:35Z</time>
      </trkpt>
      <trkpt lat="43.22492" lon="5.48212">
        <ele>398.2</ele>
        <time>2025-10-18T14:18:36Z</time>
      </trkpt>
      <trkpt lat="43.22493" lon="5.48213">
        <ele>398.2</ele>
        <time>2025-10-18T14:18:37Z</time>
      </trkpt>
      <trkpt lat="43.22493" lon="5.48214">
        <ele>398</ele>
        <time>2025-10-18T14:18:38Z</time>
      </trkpt>
      <trkpt lat="43.22493" lon="5.48214">
        <ele>398.2</ele>
        <time>2025-10-18T14:18:39Z</time>
      </trkpt>
      <trkpt lat="43.22494" lon="5.48214">
        <ele>398.3</ele>
        <time>2025-10-18T14:18:40Z</time>
      </trkpt>
      <trkpt lat="43.22493" lon="5.48214">
        <ele>398.4</ele>
        <time>2025-10-18T14:18:41Z</time>
      </trkpt>
      <trkpt lat="43.22494" lon="5.48215">
        <ele>398.6</ele>
        <time>2025-10-18T14:18:42Z</time>
      </trkpt>
      <trkpt lat="43.22494" lon="5.48215">
        <ele>398.7</ele>
        <time>2025-10-18T14:18:43Z</time>
      </trkpt>
      <trkpt lat="43.22494" lon="5.48216">
        <ele>398.9</ele>
        <time>2025-10-18T14:18:44Z</time>
      </trkpt>
      <trkpt lat="43.22494" lon="5.48217">
        <ele>399</ele>
        <time>2025-10-18T14:18:45Z</time>
      </trkpt>
      <trkpt lat="43.22494" lon="5.48217">
        <ele>399.2</ele>
        <time>2025-10-18T14:18:46Z</time>
      </trkpt>
      <trkpt lat="43.22495" lon="5.48218">
        <ele>399.5</ele>
        <time>2025-10-18T14:18:47Z</time>
      </trkpt>
      <trkpt lat="43.22495" lon="5.48218">
        <ele>399.7</ele>
        <time>2025-10-18T14:18:48Z</time>
      </trkpt>
      <trkpt lat="43.22496" lon="5.48219">
        <ele>399.9</ele>
        <time>2025-10-18T14:18:49Z</time>
      </trkpt>
      <trkpt lat="43.22496" lon="5.4822">
        <ele>400</ele>
        <time>2025-10-18T14:18:50Z</time>
      </trkpt>
      <trkpt lat="43.22496" lon="5.4822">
        <ele>400.2</ele>
        <time>2025-10-18T14:18:51Z</time>
      </trkpt>
      <trkpt lat="43.22497" lon="5.48221">
        <ele>400</ele>
        <time>2025-10-18T14:18:52Z</time>
      </trkpt>
      <trkpt lat="43.22497" lon="5.48221">
        <ele>400</ele>
        <time>2025-10-18T14:18:53Z</time>
      </trkpt>
      <trkpt lat="43.22497" lon="5.48222">
        <ele>399.8</ele>
        <time>2025-10-18T14:18:54Z</time>
      </trkpt>
      <trkpt lat="43.22497" lon="5.48222">
        <ele>399.6</ele>
        <time>2025-10-18T14:18:55Z</time>
      </trkpt>
      <trkpt lat="43.22498" lon="5.48221">
        <ele>400.1</ele>
        <time>2025-10-18T14:18:56Z</time>
      </trkpt>
      <trkpt lat="43.22498" lon="5.48221">
        <ele>400.5</ele>
        <time>2025-10-18T14:18:57Z</time>
      </trkpt>
      <trkpt lat="43.22498" lon="5.48221">
        <ele>400.9</ele>
        <time>2025-10-18T14:18:58Z</time>
      </trkpt>
      <trkpt lat="43.22498" lon="5.48221">
        <ele>401.2</ele>
        <time>2025-10-18T14:18:59Z</time>
      </trkpt>
      <trkpt lat="43.22499" lon="5.48221">
        <ele>401.4</ele>
        <time>2025-10-18T14:19:00Z</time>
      </trkpt>
      <trkpt lat="43.22499" lon="5.48221">
        <ele>401.6</ele>
        <time>2025-10-18T14:19:01Z</time>
      </trkpt>
      <trkpt lat="43.225" lon="5.48221">
        <ele>401.8</ele>
        <time>2025-10-18T14:19:02Z</time>
      </trkpt>
      <trkpt lat="43.225" lon="5.48221">
        <ele>402.1</ele>
        <time>2025-10-18T14:19:03Z</time>
      </trkpt>
      <trkpt lat="43.225" lon="5.48221">
        <ele>402.3</ele>
        <time>2025-10-18T14:19:04Z</time>
      </trkpt>
      <trkpt lat="43.225" lon="5.48221">
        <ele>402.4</ele>
        <time>2025-10-18T14:19:05Z</time>
      </trkpt>
      <trkpt lat="43.22501" lon="5.48221">
        <ele>402.6</ele>
        <time>2025-10-18T14:19:06Z</time>
      </trkpt>
      <trkpt lat="43.22501" lon="5.4822">
        <ele>402.8</ele>
        <time>2025-10-18T14:19:07Z</time>
      </trkpt>
      <trkpt lat="43.22501" lon="5.4822">
        <ele>402.9</ele>
        <time>2025-10-18T14:19:08Z</time>
      </trkpt>
      <trkpt lat="43.22501" lon="5.48221">
        <ele>403.2</ele>
        <time>2025-10-18T14:19:09Z</time>
      </trkpt>
      <trkpt lat="43.22502" lon="5.48221">
        <ele>403.4</ele>
        <time>2025-10-18T14:19:10Z</time>
      </trkpt>
      <trkpt lat="43.22503" lon="5.48221">
        <ele>403.6</ele>
        <time>2025-10-18T14:19:11Z</time>
      </trkpt>
      <trkpt lat="43.22503" lon="5.48221">
        <ele>403.8</ele>
        <time>2025-10-18T14:19:12Z</time>
      </trkpt>
      <trkpt lat="43.22504" lon="5.4822">
        <ele>404</ele>
        <time>2025-10-18T14:19:13Z</time>
      </trkpt>
      <trkpt lat="43.22505" lon="5.4822">
        <ele>404.2</ele>
        <time>2025-10-18T14:19:14Z</time>
      </trkpt>
      <trkpt lat="43.22505" lon="5.4822">
        <ele>404.5</ele>
        <time>2025-10-18T14:19:15Z</time>
      </trkpt>
      <trkpt lat="43.22506" lon="5.48221">
        <ele>404.6</ele>
        <time>2025-10-18T14:19:16Z</time>
      </trkpt>
      <trkpt lat="43.22506" lon="5.48221">
        <ele>404.8</ele>
        <time>2025-10-18T14:19:17Z</time>
      </trkpt>
      <trkpt lat="43.22506" lon="5.48221">
        <ele>404.9</ele>
        <time>2025-10-18T14:19:18Z</time>
      </trkpt>
      <trkpt lat="43.22507" lon="5.48221">
        <ele>405.1</ele>
        <time>2025-10-18T14:19:19Z</time>
      </trkpt>
      <trkpt lat="43.22508" lon="5.48221">
        <ele>405.2</ele>
        <time>2025-10-18T14:19:20Z</time>
      </trkpt>
      <trkpt lat="43.22508" lon="5.48221">
        <ele>405.4</ele>
        <time>2025-10-18T14:19:21Z</time>
      </trkpt>
      <trkpt lat="43.22509" lon="5.48221">
        <ele>405.7</ele>
        <time>2025-10-18T14:19:22Z</time>
      </trkpt>
      <trkpt lat="43.2251" lon="5.48221">
        <ele>405.8</ele>
        <time>2025-10-18T14:19:23Z</time>
      </trkpt>
      <trkpt lat="43.2251" lon="5.4822">
        <ele>406</ele>
        <time>2025-10-18T14:19:24Z</time>
      </trkpt>
      <trkpt lat="43.22511" lon="5.48221">
        <ele>406.2</ele>
        <time>2025-10-18T14:19:25Z</time>
      </trkpt>
      <trkpt lat="43.22511" lon="5.48221">
        <ele>406.5</ele>
        <time>2025-10-18T14:19:26Z</time>
      </trkpt>
      <trkpt lat="43.22512" lon="5.48221">
        <ele>406.8</ele>
        <time>2025-10-18T14:19:27Z</time>
      </trkpt>
      <trkpt lat="43.22512" lon="5.48221">
        <ele>407</ele>
        <time>2025-10-18T14:19:28Z</time>
      </trkpt>
      <trkpt lat="43.22512" lon="5.48221">
        <ele>407.1</ele>
        <time>2025-10-18T14:19:29Z</time>
      </trkpt>
      <trkpt lat="43.22513" lon="5.48221">
        <ele>407.1</ele>
        <time>2025-10-18T14:19:30Z</time>
      </trkpt>
      <trkpt lat="43.22513" lon="5.48221">
        <ele>407.2</ele>
        <time>2025-10-18T14:19:31Z</time>
      </trkpt>
      <trkpt lat="43.22513" lon="5.4822">
        <ele>407.3</ele>
        <time>2025-10-18T14:19:32Z</time>
      </trkpt>
      <trkpt lat="43.22513" lon="5.4822">
        <ele>407.3</ele>
        <time>2025-10-18T14:19:33Z</time>
      </trkpt>
      <trkpt lat="43.22514" lon="5.4822">
        <ele>407.4</ele>
        <time>2025-10-18T14:19:34Z</time>
      </trkpt>
      <trkpt lat="43.22514" lon="5.4822">
        <ele>407.4</ele>
        <time>2025-10-18T14:19:35Z</time>
      </trkpt>
      <trkpt lat="43.22514" lon="5.48219">
        <ele>407.4</ele>
        <time>2025-10-18T14:19:36Z</time>
      </trkpt>
      <trkpt lat="43.22514" lon="5.48219">
        <ele>407.3</ele>
        <time>2025-10-18T14:19:37Z</time>
      </trkpt>
      <trkpt lat="43.22514" lon="5.48219">
        <ele>407.3</ele>
        <time>2025-10-18T14:19:38Z</time>
      </trkpt>
      <trkpt lat="43.22514" lon="5.48219">
        <ele>407.3</ele>
        <time>2025-10-18T14:19:39Z</time>
      </trkpt>
      <trkpt lat="43.22514" lon="5.48219">
        <ele>407.3</ele>
        <time>2025-10-18T14:19:40Z</time>
      </trkpt>
      <trkpt lat="43.22514" lon="5.48219">
        <ele>407.3</ele>
        <time>2025-10-18T14:19:41Z</time>
      </trkpt>
      <trkpt lat="43.22515" lon="5.48219">
        <ele>407.3</ele>
        <time>2025-10-18T14:19:42Z</time>
      </trkpt>
      <trkpt lat="43.22515" lon="5.48219">
        <ele>407.4</ele>
        <time>2025-10-18T14:19:43Z</time>
      </trkpt>
      <trkpt lat="43.22516" lon="5.48218">
        <ele>407.4</ele>
        <time>2025-10-18T14:19:44Z</time>
      </trkpt>
      <trkpt lat="43.22516" lon="5.48218">
        <ele>407.4</ele>
        <time>2025-10-18T14:19:45Z</time>
      </trkpt>
      <trkpt lat="43.22517" lon="5.48217">
        <ele>407.5</ele>
        <time>2025-10-18T14:19:46Z</time>
      </trkpt>
      <trkpt lat="43.22517" lon="5.48216">
        <ele>407.6</ele>
        <time>2025-10-18T14:19:47Z</time>
      </trkpt>
      <trkpt lat="43.22518" lon="5.48215">
        <ele>407.8</ele>
        <time>2025-10-18T14:19:48Z</time>
      </trkpt>
      <trkpt lat="43.22519" lon="5.48215">
        <ele>407.9</ele>
        <time>2025-10-18T14:19:49Z</time>
      </trkpt>
      <trkpt lat="43.22519" lon="5.48214">
        <ele>408.1</ele>
        <time>2025-10-18T14:19:50Z</time>
      </trkpt>
      <trkpt lat="43.22519" lon="5.48214">
        <ele>408.3</ele>
        <time>2025-10-18T14:19:51Z</time>
      </trkpt>
      <trkpt lat="43.2252" lon="5.48214">
        <ele>408.6</ele>
        <time>2025-10-18T14:19:52Z</time>
      </trkpt>
      <trkpt lat="43.2252" lon="5.48214">
        <ele>408.7</ele>
        <time>2025-10-18T14:19:53Z</time>
      </trkpt>
      <trkpt lat="43.2252" lon="5.48213">
        <ele>408.9</ele>
        <time>2025-10-18T14:19:54Z</time>
      </trkpt>
      <trkpt lat="43.2252" lon="5.48213">
        <ele>409.1</ele>
        <time>2025-10-18T14:19:55Z</time>
      </trkpt>
      <trkpt lat="43.2252" lon="5.48212">
        <ele>409.2</ele>
        <time>2025-10-18T14:19:56Z</time>
      </trkpt>
      <trkpt lat="43.2252" lon="5.48212">
        <ele>409.3</ele>
        <time>2025-10-18T14:19:57Z</time>
      </trkpt>
      <trkpt lat="43.2252" lon="5.48212">
        <ele>409.4</ele>
        <time>2025-10-18T14:19:58Z</time>
      </trkpt>
      <trkpt lat="43.2252" lon="5.48212">
        <ele>409.4</ele>
        <time>2025-10-18T14:19:59Z</time>
      </trkpt>
      <trkpt lat="43.2252" lon="5.48212">
        <ele>409.3</ele>
        <time>2025-10-18T14:20:00Z</time>
      </trkpt>
      <trkpt lat="43.22521" lon="5.48212">
        <ele>409.3</ele>
        <time>2025-10-18T14:20:01Z</time>
      </trkpt>
      <trkpt lat="43.2252" lon="5.48211">
        <ele>409.3</ele>
        <time>2025-10-18T14:20:02Z</time>
      </trkpt>
      <trkpt lat="43.2252" lon="5.4821">
        <ele>409.3</ele>
        <time>2025-10-18T14:20:03Z</time>
      </trkpt>
      <trkpt lat="43.2252" lon="5.48209">
        <ele>409.3</ele>
        <time>2025-10-18T14:20:04Z</time>
      </trkpt>
      <trkpt lat="43.2252" lon="5.48208">
        <ele>409.4</ele>
        <time>2025-10-18T14:20:05Z</time>
      </trkpt>
      <trkpt lat="43.2252" lon="5.48207">
        <ele>409.5</ele>
        <time>2025-10-18T14:20:06Z</time>
      </trkpt>
      <trkpt lat="43.2252" lon="5.48206">
        <ele>409.6</ele>
        <time>2025-10-18T14:20:07Z</time>
      </trkpt>
      <trkpt lat="43.2252" lon="5.48206">
        <ele>409.6</ele>
        <time>2025-10-18T14:20:08Z</time>
      </trkpt>
      <trkpt lat="43.2252" lon="5.48205">
        <ele>409.8</ele>
        <time>2025-10-18T14:20:09Z</time>
      </trkpt>
      <trkpt lat="43.2252" lon="5.48204">
        <ele>409.9</ele>
        <time>2025-10-18T14:20:10Z</time>
      </trkpt>
      <trkpt lat="43.22521" lon="5.48204">
        <ele>410.1</ele>
        <time>2025-10-18T14:20:11Z</time>
      </trkpt>
      <trkpt lat="43.22521" lon="5.48204">
        <ele>410.3</ele>
        <time>2025-10-18T14:20:12Z</time>
      </trkpt>
      <trkpt lat="43.22522" lon="5.48204">
        <ele>410.5</ele>
        <time>2025-10-18T14:20:13Z</time>
      </trkpt>
      <trkpt lat="43.22523" lon="5.48204">
        <ele>410.6</ele>
        <time>2025-10-18T14:20:14Z</time>
      </trkpt>
      <trkpt lat="43.22523" lon="5.48205">
        <ele>410.7</ele>
        <time>2025-10-18T14:20:15Z</time>
      </trkpt>
      <trkpt lat="43.22524" lon="5.48205">
        <ele>410.9</ele>
        <time>2025-10-18T14:20:16Z</time>
      </trkpt>
      <trkpt lat="43.22525" lon="5.48204">
        <ele>411</ele>
        <time>2025-10-18T14:20:17Z</time>
      </trkpt>
      <trkpt lat="43.22525" lon="5.48204">
        <ele>411.3</ele>
        <time>2025-10-18T14:20:18Z</time>
      </trkpt>
      <trkpt lat="43.22525" lon="5.48204">
        <ele>411.5</ele>
        <time>2025-10-18T14:20:19Z</time>
      </trkpt>
      <trkpt lat="43.22526" lon="5.48204">
        <ele>411.6</ele>
        <time>2025-10-18T14:20:20Z</time>
      </trkpt>
      <trkpt lat="43.22526" lon="5.48204">
        <ele>411.8</ele>
        <time>2025-10-18T14:20:21Z</time>
      </trkpt>
      <trkpt lat="43.22527" lon="5.48204">
        <ele>412</ele>
        <time>2025-10-18T14:20:22Z</time>
      </trkpt>
      <trkpt lat="43.22527" lon="5.48204">
        <ele>412.2</ele>
        <time>2025-10-18T14:20:23Z</time>
      </trkpt>
      <trkpt lat="43.22528" lon="5.48204">
        <ele>412.3</ele>
        <time>2025-10-18T14:20:24Z</time>
      </trkpt>
      <trkpt lat="43.22528" lon="5.48203">
        <ele>412.4</ele>
        <time>2025-10-18T14:20:25Z</time>
      </trkpt>
      <trkpt lat="43.22529" lon="5.48203">
        <ele>412.6</ele>
        <time>2025-10-18T14:20:26Z</time>
      </trkpt>
      <trkpt lat="43.2253" lon="5.48203">
        <ele>412.7</ele>
        <time>2025-10-18T14:20:27Z</time>
      </trkpt>
      <trkpt lat="43.2253" lon="5.48203">
        <ele>412.8</ele>
        <time>2025-10-18T14:20:28Z</time>
      </trkpt>
      <trkpt lat="43.2253" lon="5.48203">
        <ele>412.9</ele>
        <time>2025-10-18T14:20:29Z</time>
      </trkpt>
      <trkpt lat="43.22531" lon="5.48203">
        <ele>413.2</ele>
        <time>2025-10-18T14:20:30Z</time>
      </trkpt>
      <trkpt lat="43.22532" lon="5.48203">
        <ele>413.4</ele>
        <time>2025-10-18T14:20:31Z</time>
      </trkpt>
      <trkpt lat="43.22532" lon="5.48203">
        <ele>413.5</ele>
        <time>2025-10-18T14:20:32Z</time>
      </trkpt>
      <trkpt lat="43.22532" lon="5.48203">
        <ele>413.6</ele>
        <time>2025-10-18T14:20:33Z</time>
      </trkpt>
      <trkpt lat="43.22533" lon="5.48203">
        <ele>413.9</ele>
        <time>2025-10-18T14:20:34Z</time>
      </trkpt>
      <trkpt lat="43.22533" lon="5.48204">
        <ele>414.1</ele>
        <time>2025-10-18T14:20:35Z</time>
      </trkpt>
      <trkpt lat="43.22534" lon="5.48204">
        <ele>414.3</ele>
        <time>2025-10-18T14:20:36Z</time>
      </trkpt>
      <trkpt lat="43.22534" lon="5.48205">
        <ele>414.5</ele>
        <time>2025-10-18T14:20:37Z</time>
      </trkpt>
      <trkpt lat="43.22535" lon="5.48206">
        <ele>414.6</ele>
        <time>2025-10-18T14:20:38Z</time>
      </trkpt>
      <trkpt lat="43.22535" lon="5.48207">
        <ele>414.7</ele>
        <time>2025-10-18T14:20:39Z</time>
      </trkpt>
      <trkpt lat="43.22535" lon="5.48207">
        <ele>414.9</ele>
        <time>2025-10-18T14:20:40Z</time>
      </trkpt>
      <trkpt lat="43.22535" lon="5.48208">
        <ele>415</ele>
        <time>2025-10-18T14:20:41Z</time>
      </trkpt>
      <trkpt lat="43.22535" lon="5.48209">
        <ele>415.1</ele>
        <time>2025-10-18T14:20:42Z</time>
      </trkpt>
      <trkpt lat="43.22535" lon="5.4821">
        <ele>415.2</ele>
        <time>2025-10-18T14:20:43Z</time>
      </trkpt>
      <trkpt lat="43.22536" lon="5.48211">
        <ele>415.3</ele>
        <time>2025-10-18T14:20:44Z</time>
      </trkpt>
      <trkpt lat="43.22536" lon="5.48212">
        <ele>415.4</ele>
        <time>2025-10-18T14:20:45Z</time>
      </trkpt>
      <trkpt lat="43.22535" lon="5.48213">
        <ele>415.4</ele>
        <time>2025-10-18T14:20:46Z</time>
      </trkpt>
      <trkpt lat="43.22535" lon="5.48213">
        <ele>415.5</ele>
        <time>2025-10-18T14:20:47Z</time>
      </trkpt>
      <trkpt lat="43.22534" lon="5.48214">
        <ele>415.7</ele>
        <time>2025-10-18T14:20:48Z</time>
      </trkpt>
      <trkpt lat="43.22534" lon="5.48215">
        <ele>416</ele>
        <time>2025-10-18T14:20:49Z</time>
      </trkpt>
      <trkpt lat="43.22534" lon="5.48216">
        <ele>416.2</ele>
        <time>2025-10-18T14:20:50Z</time>
      </trkpt>
      <trkpt lat="43.22534" lon="5.48217">
        <ele>416.3</ele>
        <time>2025-10-18T14:20:51Z</time>
      </trkpt>
      <trkpt lat="43.22534" lon="5.48218">
        <ele>416.5</ele>
        <time>2025-10-18T14:20:52Z</time>
      </trkpt>
      <trkpt lat="43.22534" lon="5.48219">
        <ele>416.8</ele>
        <time>2025-10-18T14:20:53Z</time>
      </trkpt>
      <trkpt lat="43.22534" lon="5.4822">
        <ele>417.1</ele>
        <time>2025-10-18T14:20:54Z</time>
      </trkpt>
      <trkpt lat="43.22534" lon="5.48221">
        <ele>417.4</ele>
        <time>2025-10-18T14:20:55Z</time>
      </trkpt>
      <trkpt lat="43.22533" lon="5.48222">
        <ele>417.6</ele>
        <time>2025-10-18T14:20:56Z</time>
      </trkpt>
      <trkpt lat="43.22533" lon="5.48223">
        <ele>417.6</ele>
        <time>2025-10-18T14:20:57Z</time>
      </trkpt>
      <trkpt lat="43.22532" lon="5.48225">
        <ele>417.6</ele>
        <time>2025-10-18T14:20:58Z</time>
      </trkpt>
      <trkpt lat="43.22532" lon="5.48226">
        <ele>417.7</ele>
        <time>2025-10-18T14:20:59Z</time>
      </trkpt>
      <trkpt lat="43.22531" lon="5.48227">
        <ele>417.8</ele>
        <time>2025-10-18T14:21:00Z</time>
      </trkpt>
      <trkpt lat="43.22531" lon="5.48228">
        <ele>418</ele>
        <time>2025-10-18T14:21:01Z</time>
      </trkpt>
      <trkpt lat="43.2253" lon="5.48229">
        <ele>417.7</ele>
        <time>2025-10-18T14:21:02Z</time>
      </trkpt>
      <trkpt lat="43.2253" lon="5.4823">
        <ele>417.9</ele>
        <time>2025-10-18T14:21:03Z</time>
      </trkpt>
      <trkpt lat="43.2253" lon="5.4823">
        <ele>418.1</ele>
        <time>2025-10-18T14:21:04Z</time>
      </trkpt>
      <trkpt lat="43.2253" lon="5.48231">
        <ele>418.2</ele>
        <time>2025-10-18T14:21:05Z</time>
      </trkpt>
      <trkpt lat="43.22529" lon="5.48232">
        <ele>418.3</ele>
        <time>2025-10-18T14:21:06Z</time>
      </trkpt>
      <trkpt lat="43.22529" lon="5.48233">
        <ele>418.4</ele>
        <time>2025-10-18T14:21:07Z</time>
      </trkpt>
      <trkpt lat="43.22529" lon="5.48234">
        <ele>418.4</ele>
        <time>2025-10-18T14:21:08Z</time>
      </trkpt>
      <trkpt lat="43.22528" lon="5.48235">
        <ele>418.5</ele>
        <time>2025-10-18T14:21:09Z</time>
      </trkpt>
      <trkpt lat="43.22528" lon="5.48236">
        <ele>418.6</ele>
        <time>2025-10-18T14:21:10Z</time>
      </trkpt>
      <trkpt lat="43.22528" lon="5.48237">
        <ele>418.7</ele>
        <time>2025-10-18T14:21:11Z</time>
      </trkpt>
      <trkpt lat="43.22528" lon="5.48237">
        <ele>418.7</ele>
        <time>2025-10-18T14:21:12Z</time>
      </trkpt>
      <trkpt lat="43.22528" lon="5.48238">
        <ele>418.8</ele>
        <time>2025-10-18T14:21:13Z</time>
      </trkpt>
      <trkpt lat="43.22528" lon="5.48239">
        <ele>418.8</ele>
        <time>2025-10-18T14:21:14Z</time>
      </trkpt>
      <trkpt lat="43.22528" lon="5.48239">
        <ele>418.9</ele>
        <time>2025-10-18T14:21:15Z</time>
      </trkpt>
      <trkpt lat="43.22528" lon="5.4824">
        <ele>418.9</ele>
        <time>2025-10-18T14:21:16Z</time>
      </trkpt>
      <trkpt lat="43.22528" lon="5.48241">
        <ele>418.9</ele>
        <time>2025-10-18T14:21:17Z</time>
      </trkpt>
      <trkpt lat="43.22528" lon="5.48241">
        <ele>418.9</ele>
        <time>2025-10-18T14:21:18Z</time>
      </trkpt>
      <trkpt lat="43.22528" lon="5.48241">
        <ele>419</ele>
        <time>2025-10-18T14:21:19Z</time>
      </trkpt>
      <trkpt lat="43.22528" lon="5.48241">
        <ele>419</ele>
        <time>2025-10-18T14:21:20Z</time>
      </trkpt>
      <trkpt lat="43.22528" lon="5.48242">
        <ele>419.1</ele>
        <time>2025-10-18T14:21:21Z</time>
      </trkpt>
      <trkpt lat="43.22528" lon="5.48242">
        <ele>419.2</ele>
        <time>2025-10-18T14:21:22Z</time>
      </trkpt>
      <trkpt lat="43.22528" lon="5.48243">
        <ele>419.2</ele>
        <time>2025-10-18T14:21:23Z</time>
      </trkpt>
      <trkpt lat="43.22528" lon="5.48243">
        <ele>419.3</ele>
        <time>2025-10-18T14:21:24Z</time>
      </trkpt>
      <trkpt lat="43.22528" lon="5.48243">
        <ele>419.3</ele>
        <time>2025-10-18T14:21:25Z</time>
      </trkpt>
      <trkpt lat="43.22528" lon="5.48244">
        <ele>419.4</ele>
        <time>2025-10-18T14:21:26Z</time>
      </trkpt>
      <trkpt lat="43.22529" lon="5.48244">
        <ele>419.6</ele>
        <time>2025-10-18T14:21:27Z</time>
      </trkpt>
      <trkpt lat="43.22529" lon="5.48244">
        <ele>419.7</ele>
        <time>2025-10-18T14:21:28Z</time>
      </trkpt>
      <trkpt lat="43.22529" lon="5.48245">
        <ele>419.9</ele>
        <time>2025-10-18T14:21:29Z</time>
      </trkpt>
      <trkpt lat="43.22529" lon="5.48245">
        <ele>420</ele>
        <time>2025-10-18T14:21:30Z</time>
      </trkpt>
      <trkpt lat="43.22529" lon="5.48245">
        <ele>420.1</ele>
        <time>2025-10-18T14:21:31Z</time>
      </trkpt>
      <trkpt lat="43.22529" lon="5.48245">
        <ele>420.4</ele>
        <time>2025-10-18T14:21:32Z</time>
      </trkpt>
      <trkpt lat="43.2253" lon="5.48245">
        <ele>420.5</ele>
        <time>2025-10-18T14:21:33Z</time>
      </trkpt>
      <trkpt lat="43.2253" lon="5.48245">
        <ele>420.6</ele>
        <time>2025-10-18T14:21:34Z</time>
      </trkpt>
      <trkpt lat="43.2253" lon="5.48245">
        <ele>420.8</ele>
        <time>2025-10-18T14:21:35Z</time>
      </trkpt>
      <trkpt lat="43.22531" lon="5.48245">
        <ele>420.9</ele>
        <time>2025-10-18T14:21:36Z</time>
      </trkpt>
      <trkpt lat="43.22531" lon="5.48245">
        <ele>421</ele>
        <time>2025-10-18T14:21:37Z</time>
      </trkpt>
      <trkpt lat="43.22532" lon="5.48245">
        <ele>421.1</ele>
        <time>2025-10-18T14:21:38Z</time>
      </trkpt>
      <trkpt lat="43.22532" lon="5.48245">
        <ele>421.2</ele>
        <time>2025-10-18T14:21:39Z</time>
      </trkpt>
      <trkpt lat="43.22533" lon="5.48244">
        <ele>421.4</ele>
        <time>2025-10-18T14:21:40Z</time>
      </trkpt>
      <trkpt lat="43.22533" lon="5.48244">
        <ele>421.6</ele>
        <time>2025-10-18T14:21:41Z</time>
      </trkpt>
      <trkpt lat="43.22534" lon="5.48244">
        <ele>421.8</ele>
        <time>2025-10-18T14:21:42Z</time>
      </trkpt>
      <trkpt lat="43.22534" lon="5.48243">
        <ele>422</ele>
        <time>2025-10-18T14:21:43Z</time>
      </trkpt>
      <trkpt lat="43.22535" lon="5.48243">
        <ele>422.2</ele>
        <time>2025-10-18T14:21:44Z</time>
      </trkpt>
      <trkpt lat="43.22535" lon="5.48243">
        <ele>422.3</ele>
        <time>2025-10-18T14:21:45Z</time>
      </trkpt>
      <trkpt lat="43.22536" lon="5.48243">
        <ele>422.5</ele>
        <time>2025-10-18T14:21:46Z</time>
      </trkpt>
      <trkpt lat="43.22536" lon="5.48243">
        <ele>422.6</ele>
        <time>2025-10-18T14:21:47Z</time>
      </trkpt>
      <trkpt lat="43.22536" lon="5.48243">
        <ele>422.7</ele>
        <time>2025-10-18T14:21:48Z</time>
      </trkpt>
      <trkpt lat="43.22537" lon="5.48243">
        <ele>422.9</ele>
        <time>2025-10-18T14:21:49Z</time>
      </trkpt>
      <trkpt lat="43.22538" lon="5.48242">
        <ele>423</ele>
        <time>2025-10-18T14:21:50Z</time>
      </trkpt>
      <trkpt lat="43.22538" lon="5.48242">
        <ele>423.2</ele>
        <time>2025-10-18T14:21:51Z</time>
      </trkpt>
      <trkpt lat="43.22539" lon="5.48242">
        <ele>423.3</ele>
        <time>2025-10-18T14:21:52Z</time>
      </trkpt>
      <trkpt lat="43.22539" lon="5.48242">
        <ele>423.5</ele>
        <time>2025-10-18T14:21:53Z</time>
      </trkpt>
      <trkpt lat="43.2254" lon="5.48242">
        <ele>423.6</ele>
        <time>2025-10-18T14:21:54Z</time>
      </trkpt>
      <trkpt lat="43.2254" lon="5.48242">
        <ele>423.7</ele>
        <time>2025-10-18T14:21:55Z</time>
      </trkpt>
      <trkpt lat="43.22541" lon="5.48241">
        <ele>423.9</ele>
        <time>2025-10-18T14:21:56Z</time>
      </trkpt>
      <trkpt lat="43.22541" lon="5.48241">
        <ele>424.1</ele>
        <time>2025-10-18T14:21:57Z</time>
      </trkpt>
      <trkpt lat="43.22541" lon="5.48242">
        <ele>424.3</ele>
        <time>2025-10-18T14:21:58Z</time>
      </trkpt>
      <trkpt lat="43.22542" lon="5.48242">
        <ele>424.5</ele>
        <time>2025-10-18T14:21:59Z</time>
      </trkpt>
      <trkpt lat="43.22542" lon="5.48241">
        <ele>424.7</ele>
        <time>2025-10-18T14:22:00Z</time>
      </trkpt>
      <trkpt lat="43.22543" lon="5.48241">
        <ele>424.9</ele>
        <time>2025-10-18T14:22:01Z</time>
      </trkpt>
      <trkpt lat="43.22543" lon="5.48241">
        <ele>425</ele>
        <time>2025-10-18T14:22:02Z</time>
      </trkpt>
      <trkpt lat="43.22544" lon="5.48241">
        <ele>425.2</ele>
        <time>2025-10-18T14:22:03Z</time>
      </trkpt>
      <trkpt lat="43.22544" lon="5.4824">
        <ele>425.4</ele>
        <time>2025-10-18T14:22:04Z</time>
      </trkpt>
      <trkpt lat="43.22545" lon="5.4824">
        <ele>425.6</ele>
        <time>2025-10-18T14:22:05Z</time>
      </trkpt>
      <trkpt lat="43.22545" lon="5.4824">
        <ele>425.8</ele>
        <time>2025-10-18T14:22:06Z</time>
      </trkpt>
      <trkpt lat="43.22545" lon="5.48239">
        <ele>426</ele>
        <time>2025-10-18T14:22:07Z</time>
      </trkpt>
      <trkpt lat="43.22546" lon="5.48239">
        <ele>426.2</ele>
        <time>2025-10-18T14:22:08Z</time>
      </trkpt>
      <trkpt lat="43.22546" lon="5.48238">
        <ele>426.3</ele>
        <time>2025-10-18T14:22:09Z</time>
      </trkpt>
      <trkpt lat="43.22547" lon="5.48238">
        <ele>426.5</ele>
        <time>2025-10-18T14:22:10Z</time>
      </trkpt>
      <trkpt lat="43.22547" lon="5.48237">
        <ele>426.6</ele>
        <time>2025-10-18T14:22:11Z</time>
      </trkpt>
      <trkpt lat="43.22548" lon="5.48236">
        <ele>426.7</ele>
        <time>2025-10-18T14:22:12Z</time>
      </trkpt>
      <trkpt lat="43.22548" lon="5.48235">
        <ele>426.8</ele>
        <time>2025-10-18T14:22:13Z</time>
      </trkpt>
      <trkpt lat="43.22549" lon="5.48234">
        <ele>427</ele>
        <time>2025-10-18T14:22:14Z</time>
      </trkpt>
      <trkpt lat="43.22549" lon="5.48233">
        <ele>427</ele>
        <time>2025-10-18T14:22:15Z</time>
      </trkpt>
      <trkpt lat="43.22549" lon="5.48232">
        <ele>427.2</ele>
        <time>2025-10-18T14:22:16Z</time>
      </trkpt>
      <trkpt lat="43.22549" lon="5.48232">
        <ele>427.4</ele>
        <time>2025-10-18T14:22:17Z</time>
      </trkpt>
      <trkpt lat="43.2255" lon="5.48231">
        <ele>427.6</ele>
        <time>2025-10-18T14:22:18Z</time>
      </trkpt>
      <trkpt lat="43.2255" lon="5.48231">
        <ele>427.8</ele>
        <time>2025-10-18T14:22:19Z</time>
      </trkpt>
      <trkpt lat="43.22551" lon="5.4823">
        <ele>427.9</ele>
        <time>2025-10-18T14:22:20Z</time>
      </trkpt>
      <trkpt lat="43.22551" lon="5.4823">
        <ele>428</ele>
        <time>2025-10-18T14:22:21Z</time>
      </trkpt>
      <trkpt lat="43.22552" lon="5.4823">
        <ele>428.2</ele>
        <time>2025-10-18T14:22:22Z</time>
      </trkpt>
      <trkpt lat="43.22552" lon="5.4823">
        <ele>428.3</ele>
        <time>2025-10-18T14:22:23Z</time>
      </trkpt>
      <trkpt lat="43.22553" lon="5.4823">
        <ele>428.5</ele>
        <time>2025-10-18T14:22:24Z</time>
      </trkpt>
      <trkpt lat="43.22553" lon="5.48229">
        <ele>428.7</ele>
        <time>2025-10-18T14:22:25Z</time>
      </trkpt>
      <trkpt lat="43.22554" lon="5.48229">
        <ele>429</ele>
        <time>2025-10-18T14:22:26Z</time>
      </trkpt>
      <trkpt lat="43.22554" lon="5.48228">
        <ele>429.3</ele>
        <time>2025-10-18T14:22:27Z</time>
      </trkpt>
      <trkpt lat="43.22554" lon="5.48227">
        <ele>429.6</ele>
        <time>2025-10-18T14:22:28Z</time>
      </trkpt>
      <trkpt lat="43.22555" lon="5.48227">
        <ele>429.9</ele>
        <time>2025-10-18T14:22:29Z</time>
      </trkpt>
      <trkpt lat="43.22556" lon="5.48226">
        <ele>430.1</ele>
        <time>2025-10-18T14:22:30Z</time>
      </trkpt>
      <trkpt lat="43.22556" lon="5.48226">
        <ele>430.3</ele>
        <time>2025-10-18T14:22:31Z</time>
      </trkpt>
      <trkpt lat="43.22557" lon="5.48225">
        <ele>430.5</ele>
        <time>2025-10-18T14:22:32Z</time>
      </trkpt>
      <trkpt lat="43.22557" lon="5.48224">
        <ele>430.7</ele>
        <time>2025-10-18T14:22:33Z</time>
      </trkpt>
      <trkpt lat="43.22557" lon="5.48224">
        <ele>430.9</ele>
        <time>2025-10-18T14:22:34Z</time>
      </trkpt>
      <trkpt lat="43.22558" lon="5.48223">
        <ele>431.1</ele>
        <time>2025-10-18T14:22:35Z</time>
      </trkpt>
      <trkpt lat="43.22558" lon="5.48222">
        <ele>431.2</ele>
        <time>2025-10-18T14:22:36Z</time>
      </trkpt>
      <trkpt lat="43.22559" lon="5.48221">
        <ele>431.3</ele>
        <time>2025-10-18T14:22:37Z</time>
      </trkpt>
      <trkpt lat="43.22559" lon="5.48221">
        <ele>431.4</ele>
        <time>2025-10-18T14:22:38Z</time>
      </trkpt>
      <trkpt lat="43.22559" lon="5.4822">
        <ele>431.5</ele>
        <time>2025-10-18T14:22:39Z</time>
      </trkpt>
      <trkpt lat="43.2256" lon="5.48219">
        <ele>431.5</ele>
        <time>2025-10-18T14:22:40Z</time>
      </trkpt>
      <trkpt lat="43.2256" lon="5.48218">
        <ele>431.6</ele>
        <time>2025-10-18T14:22:41Z</time>
      </trkpt>
      <trkpt lat="43.22561" lon="5.48218">
        <ele>431.8</ele>
        <time>2025-10-18T14:22:42Z</time>
      </trkpt>
      <trkpt lat="43.22561" lon="5.48217">
        <ele>431.9</ele>
        <time>2025-10-18T14:22:43Z</time>
      </trkpt>
      <trkpt lat="43.22562" lon="5.48217">
        <ele>431.9</ele>
        <time>2025-10-18T14:22:44Z</time>
      </trkpt>
      <trkpt lat="43.22562" lon="5.48216">
        <ele>432</ele>
        <time>2025-10-18T14:22:45Z</time>
      </trkpt>
      <trkpt lat="43.22563" lon="5.48216">
        <ele>432</ele>
        <time>2025-10-18T14:22:46Z</time>
      </trkpt>
      <trkpt lat="43.22563" lon="5.48216">
        <ele>432.2</ele>
        <time>2025-10-18T14:22:47Z</time>
      </trkpt>
      <trkpt lat="43.22564" lon="5.48215">
        <ele>432.3</ele>
        <time>2025-10-18T14:22:48Z</time>
      </trkpt>
      <trkpt lat="43.22564" lon="5.48214">
        <ele>432.4</ele>
        <time>2025-10-18T14:22:49Z</time>
      </trkpt>
      <trkpt lat="43.22565" lon="5.48214">
        <ele>432.5</ele>
        <time>2025-10-18T14:22:50Z</time>
      </trkpt>
      <trkpt lat="43.22565" lon="5.48213">
        <ele>432.6</ele>
        <time>2025-10-18T14:22:51Z</time>
      </trkpt>
      <trkpt lat="43.22566" lon="5.48213">
        <ele>432.8</ele>
        <time>2025-10-18T14:22:52Z</time>
      </trkpt>
      <trkpt lat="43.22566" lon="5.48212">
        <ele>432.9</ele>
        <time>2025-10-18T14:22:53Z</time>
      </trkpt>
      <trkpt lat="43.22567" lon="5.48211">
        <ele>433.1</ele>
        <time>2025-10-18T14:22:54Z</time>
      </trkpt>
      <trkpt lat="43.22567" lon="5.4821">
        <ele>433.2</ele>
        <time>2025-10-18T14:22:55Z</time>
      </trkpt>
      <trkpt lat="43.22568" lon="5.4821">
        <ele>433.4</ele>
        <time>2025-10-18T14:22:56Z</time>
      </trkpt>
      <trkpt lat="43.22569" lon="5.48209">
        <ele>433.5</ele>
        <time>2025-10-18T14:22:57Z</time>
      </trkpt>
      <trkpt lat="43.22569" lon="5.48209">
        <ele>433.7</ele>
        <time>2025-10-18T14:22:58Z</time>
      </trkpt>
      <trkpt lat="43.2257" lon="5.48208">
        <ele>433.9</ele>
        <time>2025-10-18T14:22:59Z</time>
      </trkpt>
      <trkpt lat="43.2257" lon="5.48208">
        <ele>434</ele>
        <time>2025-10-18T14:23:00Z</time>
      </trkpt>
      <trkpt lat="43.22571" lon="5.48207">
        <ele>434</ele>
        <time>2025-10-18T14:23:01Z</time>
      </trkpt>
      <trkpt lat="43.22572" lon="5.48207">
        <ele>434.2</ele>
        <time>2025-10-18T14:23:02Z</time>
      </trkpt>
      <trkpt lat="43.22572" lon="5.48207">
        <ele>434.5</ele>
        <time>2025-10-18T14:23:03Z</time>
      </trkpt>
      <trkpt lat="43.22573" lon="5.48207">
        <ele>434.6</ele>
        <time>2025-10-18T14:23:04Z</time>
      </trkpt>
      <trkpt lat="43.22573" lon="5.48207">
        <ele>434.6</ele>
        <time>2025-10-18T14:23:05Z</time>
      </trkpt>
      <trkpt lat="43.22574" lon="5.48207">
        <ele>434.7</ele>
        <time>2025-10-18T14:23:06Z</time>
      </trkpt>
      <trkpt lat="43.22575" lon="5.48207">
        <ele>434.8</ele>
        <time>2025-10-18T14:23:07Z</time>
      </trkpt>
      <trkpt lat="43.22575" lon="5.48207">
        <ele>435</ele>
        <time>2025-10-18T14:23:08Z</time>
      </trkpt>
      <trkpt lat="43.22576" lon="5.48207">
        <ele>435.2</ele>
        <time>2025-10-18T14:23:09Z</time>
      </trkpt>
      <trkpt lat="43.22576" lon="5.48206">
        <ele>435.5</ele>
        <time>2025-10-18T14:23:10Z</time>
      </trkpt>
      <trkpt lat="43.22577" lon="5.48206">
        <ele>435.7</ele>
        <time>2025-10-18T14:23:11Z</time>
      </trkpt>
      <trkpt lat="43.22577" lon="5.48206">
        <ele>435.8</ele>
        <time>2025-10-18T14:23:12Z</time>
      </trkpt>
      <trkpt lat="43.22578" lon="5.48205">
        <ele>435.9</ele>
        <time>2025-10-18T14:23:13Z</time>
      </trkpt>
      <trkpt lat="43.22579" lon="5.48205">
        <ele>436.2</ele>
        <time>2025-10-18T14:23:14Z</time>
      </trkpt>
      <trkpt lat="43.22579" lon="5.48205">
        <ele>436.5</ele>
        <time>2025-10-18T14:23:15Z</time>
      </trkpt>
      <trkpt lat="43.22579" lon="5.48204">
        <ele>436.7</ele>
        <time>2025-10-18T14:23:16Z</time>
      </trkpt>
      <trkpt lat="43.2258" lon="5.48204">
        <ele>436.9</ele>
        <time>2025-10-18T14:23:17Z</time>
      </trkpt>
      <trkpt lat="43.2258" lon="5.48204">
        <ele>437</ele>
        <time>2025-10-18T14:23:18Z</time>
      </trkpt>
      <trkpt lat="43.22581" lon="5.48204">
        <ele>437.2</ele>
        <time>2025-10-18T14:23:19Z</time>
      </trkpt>
      <trkpt lat="43.22581" lon="5.48203">
        <ele>437.3</ele>
        <time>2025-10-18T14:23:20Z</time>
      </trkpt>
      <trkpt lat="43.22582" lon="5.48203">
        <ele>437.6</ele>
        <time>2025-10-18T14:23:21Z</time>
      </trkpt>
      <trkpt lat="43.22583" lon="5.48203">
        <ele>437.8</ele>
        <time>2025-10-18T14:23:22Z</time>
      </trkpt>
      <trkpt lat="43.22583" lon="5.48203">
        <ele>438</ele>
        <time>2025-10-18T14:23:23Z</time>
      </trkpt>
      <trkpt lat="43.22584" lon="5.48203">
        <ele>438.2</ele>
        <time>2025-10-18T14:23:24Z</time>
      </trkpt>
      <trkpt lat="43.22584" lon="5.48203">
        <ele>438.4</ele>
        <time>2025-10-18T14:23:25Z</time>
      </trkpt>
      <trkpt lat="43.22585" lon="5.48203">
        <ele>438.5</ele>
        <time>2025-10-18T14:23:26Z</time>
      </trkpt>
      <trkpt lat="43.22586" lon="5.48203">
        <ele>438.6</ele>
        <time>2025-10-18T14:23:27Z</time>
      </trkpt>
      <trkpt lat="43.22586" lon="5.48202">
        <ele>438.8</ele>
        <time>2025-10-18T14:23:28Z</time>
      </trkpt>
      <trkpt lat="43.22587" lon="5.48202">
        <ele>439</ele>
        <time>2025-10-18T14:23:29Z</time>
      </trkpt>
      <trkpt lat="43.22588" lon="5.48201">
        <ele>439.1</ele>
        <time>2025-10-18T14:23:30Z</time>
      </trkpt>
      <trkpt lat="43.22588" lon="5.48201">
        <ele>439.2</ele>
        <time>2025-10-18T14:23:31Z</time>
      </trkpt>
      <trkpt lat="43.22589" lon="5.482">
        <ele>439.3</ele>
        <time>2025-10-18T14:23:32Z</time>
      </trkpt>
      <trkpt lat="43.2259" lon="5.482">
        <ele>439.5</ele>
        <time>2025-10-18T14:23:33Z</time>
      </trkpt>
      <trkpt lat="43.2259" lon="5.48199">
        <ele>439.7</ele>
        <time>2025-10-18T14:23:34Z</time>
      </trkpt>
      <trkpt lat="43.22591" lon="5.48199">
        <ele>439.9</ele>
        <time>2025-10-18T14:23:35Z</time>
      </trkpt>
      <trkpt lat="43.22591" lon="5.48199">
        <ele>440.1</ele>
        <time>2025-10-18T14:23:36Z</time>
      </trkpt>
      <trkpt lat="43.22592" lon="5.48199">
        <ele>440.3</ele>
        <time>2025-10-18T14:23:37Z</time>
      </trkpt>
      <trkpt lat="43.22592" lon="5.48199">
        <ele>440.4</ele>
        <time>2025-10-18T14:23:38Z</time>
      </trkpt>
      <trkpt lat="43.22593" lon="5.48199">
        <ele>440.5</ele>
        <time>2025-10-18T14:23:39Z</time>
      </trkpt>
      <trkpt lat="43.22594" lon="5.48199">
        <ele>440.6</ele>
        <time>2025-10-18T14:23:40Z</time>
      </trkpt>
      <trkpt lat="43.22594" lon="5.482">
        <ele>440.6</ele>
        <time>2025-10-18T14:23:41Z</time>
      </trkpt>
      <trkpt lat="43.22595" lon="5.48199">
        <ele>440.7</ele>
        <time>2025-10-18T14:23:42Z</time>
      </trkpt>
      <trkpt lat="43.22596" lon="5.48199">
        <ele>440.9</ele>
        <time>2025-10-18T14:23:43Z</time>
      </trkpt>
      <trkpt lat="43.22596" lon="5.48199">
        <ele>441</ele>
        <time>2025-10-18T14:23:44Z</time>
      </trkpt>
      <trkpt lat="43.22597" lon="5.482">
        <ele>441.1</ele>
        <time>2025-10-18T14:23:45Z</time>
      </trkpt>
      <trkpt lat="43.22598" lon="5.48199">
        <ele>441.2</ele>
        <time>2025-10-18T14:23:46Z</time>
      </trkpt>
      <trkpt lat="43.22598" lon="5.48199">
        <ele>441.4</ele>
        <time>2025-10-18T14:23:47Z</time>
      </trkpt>
      <trkpt lat="43.22599" lon="5.48199">
        <ele>441.5</ele>
        <time>2025-10-18T14:23:48Z</time>
      </trkpt>
      <trkpt lat="43.22599" lon="5.482">
        <ele>441.6</ele>
        <time>2025-10-18T14:23:49Z</time>
      </trkpt>
      <trkpt lat="43.226" lon="5.482">
        <ele>441.7</ele>
        <time>2025-10-18T14:23:50Z</time>
      </trkpt>
      <trkpt lat="43.22601" lon="5.482">
        <ele>441.8</ele>
        <time>2025-10-18T14:23:51Z</time>
      </trkpt>
      <trkpt lat="43.22601" lon="5.48201">
        <ele>441.9</ele>
        <time>2025-10-18T14:23:52Z</time>
      </trkpt>
      <trkpt lat="43.22601" lon="5.48201">
        <ele>442</ele>
        <time>2025-10-18T14:23:53Z</time>
      </trkpt>
      <trkpt lat="43.22601" lon="5.48201">
        <ele>442.1</ele>
        <time>2025-10-18T14:23:54Z</time>
      </trkpt>
      <trkpt lat="43.22602" lon="5.48201">
        <ele>442.2</ele>
        <time>2025-10-18T14:23:55Z</time>
      </trkpt>
      <trkpt lat="43.22602" lon="5.48201">
        <ele>442.3</ele>
        <time>2025-10-18T14:23:56Z</time>
      </trkpt>
      <trkpt lat="43.22602" lon="5.48201">
        <ele>442.3</ele>
        <time>2025-10-18T14:23:57Z</time>
      </trkpt>
      <trkpt lat="43.22602" lon="5.48201">
        <ele>442.3</ele>
        <time>2025-10-18T14:23:58Z</time>
      </trkpt>
      <trkpt lat="43.22603" lon="5.482">
        <ele>442.3</ele>
        <time>2025-10-18T14:23:59Z</time>
      </trkpt>
      <trkpt lat="43.22603" lon="5.482">
        <ele>442.4</ele>
        <time>2025-10-18T14:24:00Z</time>
      </trkpt>
      <trkpt lat="43.22603" lon="5.482">
        <ele>442.5</ele>
        <time>2025-10-18T14:24:01Z</time>
      </trkpt>
      <trkpt lat="43.22603" lon="5.482">
        <ele>442.7</ele>
        <time>2025-10-18T14:24:02Z</time>
      </trkpt>
      <trkpt lat="43.22604" lon="5.482">
        <ele>442.8</ele>
        <time>2025-10-18T14:24:03Z</time>
      </trkpt>
      <trkpt lat="43.22604" lon="5.482">
        <ele>442.9</ele>
        <time>2025-10-18T14:24:04Z</time>
      </trkpt>
      <trkpt lat="43.22604" lon="5.482">
        <ele>443</ele>
        <time>2025-10-18T14:24:05Z</time>
      </trkpt>
      <trkpt lat="43.22603" lon="5.482">
        <ele>443.1</ele>
        <time>2025-10-18T14:24:06Z</time>
      </trkpt>
      <trkpt lat="43.22603" lon="5.482">
        <ele>443.2</ele>
        <time>2025-10-18T14:24:07Z</time>
      </trkpt>
      <trkpt lat="43.22603" lon="5.48199">
        <ele>443.2</ele>
        <time>2025-10-18T14:24:08Z</time>
      </trkpt>
      <trkpt lat="43.22603" lon="5.48199">
        <ele>443.2</ele>
        <time>2025-10-18T14:24:09Z</time>
      </trkpt>
      <trkpt lat="43.22604" lon="5.48199">
        <ele>443.2</ele>
        <time>2025-10-18T14:24:10Z</time>
      </trkpt>
      <trkpt lat="43.22604" lon="5.48198">
        <ele>443.1</ele>
        <time>2025-10-18T14:24:11Z</time>
      </trkpt>
      <trkpt lat="43.22604" lon="5.48198">
        <ele>443.1</ele>
        <time>2025-10-18T14:24:12Z</time>
      </trkpt>
      <trkpt lat="43.22604" lon="5.48198">
        <ele>443.1</ele>
        <time>2025-10-18T14:24:13Z</time>
      </trkpt>
      <trkpt lat="43.22604" lon="5.48198">
        <ele>443</ele>
        <time>2025-10-18T14:24:14Z</time>
      </trkpt>
      <trkpt lat="43.22604" lon="5.48198">
        <ele>442.9</ele>
        <time>2025-10-18T14:24:15Z</time>
      </trkpt>
      <trkpt lat="43.22604" lon="5.48197">
        <ele>443</ele>
        <time>2025-10-18T14:24:16Z</time>
      </trkpt>
      <trkpt lat="43.22604" lon="5.48197">
        <ele>443.1</ele>
        <time>2025-10-18T14:24:17Z</time>
      </trkpt>
      <trkpt lat="43.22604" lon="5.48197">
        <ele>443.1</ele>
        <time>2025-10-18T14:24:18Z</time>
      </trkpt>
      <trkpt lat="43.22604" lon="5.48197">
        <ele>443.3</ele>
        <time>2025-10-18T14:24:19Z</time>
      </trkpt>
      <trkpt lat="43.22604" lon="5.48197">
        <ele>443.3</ele>
        <time>2025-10-18T14:24:20Z</time>
      </trkpt>
      <trkpt lat="43.22605" lon="5.48197">
        <ele>443.3</ele>
        <time>2025-10-18T14:24:21Z</time>
      </trkpt>
      <trkpt lat="43.22605" lon="5.48197">
        <ele>443.3</ele>
        <time>2025-10-18T14:24:22Z</time>
      </trkpt>
      <trkpt lat="43.22605" lon="5.48197">
        <ele>443.3</ele>
        <time>2025-10-18T14:24:23Z</time>
      </trkpt>
      <trkpt lat="43.22605" lon="5.48197">
        <ele>443.3</ele>
        <time>2025-10-18T14:24:24Z</time>
      </trkpt>
      <trkpt lat="43.22605" lon="5.48197">
        <ele>443.3</ele>
        <time>2025-10-18T14:24:25Z</time>
      </trkpt>
      <trkpt lat="43.22605" lon="5.48197">
        <ele>443.3</ele>
        <time>2025-10-18T14:24:26Z</time>
      </trkpt>
      <trkpt lat="43.22605" lon="5.48197">
        <ele>443.2</ele>
        <time>2025-10-18T14:24:27Z</time>
      </trkpt>
      <trkpt lat="43.22605" lon="5.48197">
        <ele>443.2</ele>
        <time>2025-10-18T14:24:28Z</time>
      </trkpt>
      <trkpt lat="43.22605" lon="5.48197">
        <ele>443.3</ele>
        <time>2025-10-18T14:24:29Z</time>
      </trkpt>
      <trkpt lat="43.22605" lon="5.48197">
        <ele>443.1</ele>
        <time>2025-10-18T14:24:30Z</time>
      </trkpt>
      <trkpt lat="43.22605" lon="5.48197">
        <ele>442.9</ele>
        <time>2025-10-18T14:24:31Z</time>
      </trkpt>
      <trkpt lat="43.22605" lon="5.48197">
        <ele>442.8</ele>
        <time>2025-10-18T14:24:32Z</time>
      </trkpt>
      <trkpt lat="43.22605" lon="5.48197">
        <ele>442.8</ele>
        <time>2025-10-18T14:24:33Z</time>
      </trkpt>
      <trkpt lat="43.22605" lon="5.48196">
        <ele>442.8</ele>
        <time>2025-10-18T14:24:34Z</time>
      </trkpt>
      <trkpt lat="43.22606" lon="5.48196">
        <ele>442.8</ele>
        <time>2025-10-18T14:24:35Z</time>
      </trkpt>
      <trkpt lat="43.22606" lon="5.48197">
        <ele>442.8</ele>
        <time>2025-10-18T14:24:36Z</time>
      </trkpt>
      <trkpt lat="43.22607" lon="5.48197">
        <ele>442.8</ele>
        <time>2025-10-18T14:24:37Z</time>
      </trkpt>
      <trkpt lat="43.22607" lon="5.48197">
        <ele>442.8</ele>
        <time>2025-10-18T14:24:38Z</time>
      </trkpt>
      <trkpt lat="43.22607" lon="5.48198">
        <ele>442.8</ele>
        <time>2025-10-18T14:24:39Z</time>
      </trkpt>
      <trkpt lat="43.22608" lon="5.48198">
        <ele>442.9</ele>
        <time>2025-10-18T14:24:40Z</time>
      </trkpt>
      <trkpt lat="43.22609" lon="5.48199">
        <ele>442.9</ele>
        <time>2025-10-18T14:24:41Z</time>
      </trkpt>
      <trkpt lat="43.22609" lon="5.48199">
        <ele>443</ele>
        <time>2025-10-18T14:24:42Z</time>
      </trkpt>
      <trkpt lat="43.2261" lon="5.48199">
        <ele>443.1</ele>
        <time>2025-10-18T14:24:43Z</time>
      </trkpt>
      <trkpt lat="43.22611" lon="5.48199">
        <ele>443.1</ele>
        <time>2025-10-18T14:24:44Z</time>
      </trkpt>
      <trkpt lat="43.22612" lon="5.48199">
        <ele>443.2</ele>
        <time>2025-10-18T14:24:45Z</time>
      </trkpt>
      <trkpt lat="43.22612" lon="5.48199">
        <ele>443.2</ele>
        <time>2025-10-18T14:24:46Z</time>
      </trkpt>
      <trkpt lat="43.22613" lon="5.48199">
        <ele>443.2</ele>
        <time>2025-10-18T14:24:47Z</time>
      </trkpt>
      <trkpt lat="43.22613" lon="5.48199">
        <ele>443.3</ele>
        <time>2025-10-18T14:24:48Z</time>
      </trkpt>
      <trkpt lat="43.22614" lon="5.48199">
        <ele>443.2</ele>
        <time>2025-10-18T14:24:49Z</time>
      </trkpt>
      <trkpt lat="43.22615" lon="5.482">
        <ele>443.2</ele>
        <time>2025-10-18T14:24:50Z</time>
      </trkpt>
      <trkpt lat="43.22615" lon="5.482">
        <ele>443.1</ele>
        <time>2025-10-18T14:24:51Z</time>
      </trkpt>
      <trkpt lat="43.22615" lon="5.482">
        <ele>443</ele>
        <time>2025-10-18T14:24:52Z</time>
      </trkpt>
      <trkpt lat="43.22615" lon="5.482">
        <ele>443.1</ele>
        <time>2025-10-18T14:24:53Z</time>
      </trkpt>
      <trkpt lat="43.22615" lon="5.482">
        <ele>443.2</ele>
        <time>2025-10-18T14:24:54Z</time>
      </trkpt>
      <trkpt lat="43.22615" lon="5.482">
        <ele>443.2</ele>
        <time>2025-10-18T14:24:55Z</time>
      </trkpt>
      <trkpt lat="43.22615" lon="5.482">
        <ele>443.3</ele>
        <time>2025-10-18T14:24:56Z</time>
      </trkpt>
      <trkpt lat="43.22615" lon="5.482">
        <ele>443.3</ele>
        <time>2025-10-18T14:24:57Z</time>
      </trkpt>
      <trkpt lat="43.22615" lon="5.482">
        <ele>443.4</ele>
        <time>2025-10-18T14:24:58Z</time>
      </trkpt>
      <trkpt lat="43.22615" lon="5.48199">
        <ele>443.4</ele>
        <time>2025-10-18T14:24:59Z</time>
      </trkpt>
      <trkpt lat="43.22615" lon="5.48199">
        <ele>443.4</ele>
        <time>2025-10-18T14:25:00Z</time>
      </trkpt>
      <trkpt lat="43.22615" lon="5.48199">
        <ele>443.4</ele>
        <time>2025-10-18T14:25:01Z</time>
      </trkpt>
      <trkpt lat="43.22615" lon="5.48199">
        <ele>443.5</ele>
        <time>2025-10-18T14:25:02Z</time>
      </trkpt>
      <trkpt lat="43.22615" lon="5.48199">
        <ele>443.5</ele>
        <time>2025-10-18T14:25:03Z</time>
      </trkpt>
      <trkpt lat="43.22615" lon="5.48199">
        <ele>443.5</ele>
        <time>2025-10-18T14:25:04Z</time>
      </trkpt>
      <trkpt lat="43.22615" lon="5.48199">
        <ele>443.6</ele>
        <time>2025-10-18T14:25:05Z</time>
      </trkpt>
      <trkpt lat="43.22615" lon="5.48199">
        <ele>443.6</ele>
        <time>2025-10-18T14:25:06Z</time>
      </trkpt>
      <trkpt lat="43.22615" lon="5.48199">
        <ele>443.6</ele>
        <time>2025-10-18T14:25:07Z</time>
      </trkpt>
      <trkpt lat="43.22615" lon="5.48199">
        <ele>443.6</ele>
        <time>2025-10-18T14:25:08Z</time>
      </trkpt>
      <trkpt lat="43.22615" lon="5.48199">
        <ele>443.6</ele>
        <time>2025-10-18T14:25:09Z</time>
      </trkpt>
      <trkpt lat="43.22615" lon="5.48199">
        <ele>443.6</ele>
        <time>2025-10-18T14:25:10Z</time>
      </trkpt>
      <trkpt lat="43.22615" lon="5.48199">
        <ele>443.5</ele>
        <time>2025-10-18T14:25:11Z</time>
      </trkpt>
      <trkpt lat="43.22615" lon="5.48199">
        <ele>443.4</ele>
        <time>2025-10-18T14:25:12Z</time>
      </trkpt>
      <trkpt lat="43.22615" lon="5.48199">
        <ele>443.4</ele>
        <time>2025-10-18T14:25:13Z</time>
      </trkpt>
      <trkpt lat="43.22615" lon="5.48199">
        <ele>443.4</ele>
        <time>2025-10-18T14:25:14Z</time>
      </trkpt>
      <trkpt lat="43.22615" lon="5.48199">
        <ele>443.4</ele>
        <time>2025-10-18T14:25:15Z</time>
      </trkpt>
      <trkpt lat="43.22615" lon="5.48199">
        <ele>443.4</ele>
        <time>2025-10-18T14:25:16Z</time>
      </trkpt>
      <trkpt lat="43.22616" lon="5.48199">
        <ele>443.4</ele>
        <time>2025-10-18T14:25:17Z</time>
      </trkpt>
      <trkpt lat="43.22616" lon="5.48198">
        <ele>443.4</ele>
        <time>2025-10-18T14:25:18Z</time>
      </trkpt>
      <trkpt lat="43.22616" lon="5.48198">
        <ele>443.4</ele>
        <time>2025-10-18T14:25:19Z</time>
      </trkpt>
      <trkpt lat="43.22616" lon="5.48198">
        <ele>443.4</ele>
        <time>2025-10-18T14:25:20Z</time>
      </trkpt>
      <trkpt lat="43.22616" lon="5.48198">
        <ele>443.4</ele>
        <time>2025-10-18T14:25:21Z</time>
      </trkpt>
      <trkpt lat="43.22616" lon="5.48198">
        <ele>443.3</ele>
        <time>2025-10-18T14:25:22Z</time>
      </trkpt>
      <trkpt lat="43.22616" lon="5.48198">
        <ele>443.3</ele>
        <time>2025-10-18T14:25:23Z</time>
      </trkpt>
      <trkpt lat="43.22616" lon="5.48198">
        <ele>443.2</ele>
        <time>2025-10-18T14:25:24Z</time>
      </trkpt>
      <trkpt lat="43.22616" lon="5.48198">
        <ele>443.2</ele>
        <time>2025-10-18T14:25:25Z</time>
      </trkpt>
      <trkpt lat="43.22616" lon="5.48197">
        <ele>443.1</ele>
        <time>2025-10-18T14:25:26Z</time>
      </trkpt>
      <trkpt lat="43.22617" lon="5.48197">
        <ele>443</ele>
        <time>2025-10-18T14:25:27Z</time>
      </trkpt>
      <trkpt lat="43.22617" lon="5.48197">
        <ele>443</ele>
        <time>2025-10-18T14:25:28Z</time>
      </trkpt>
      <trkpt lat="43.22617" lon="5.48197">
        <ele>442.9</ele>
        <time>2025-10-18T14:25:29Z</time>
      </trkpt>
      <trkpt lat="43.22617" lon="5.48197">
        <ele>443</ele>
        <time>2025-10-18T14:25:30Z</time>
      </trkpt>
      <trkpt lat="43.22617" lon="5.48197">
        <ele>443</ele>
        <time>2025-10-18T14:25:31Z</time>
      </trkpt>
      <trkpt lat="43.22617" lon="5.48197">
        <ele>443.1</ele>
        <time>2025-10-18T14:25:32Z</time>
      </trkpt>
      <trkpt lat="43.22617" lon="5.48197">
        <ele>443.1</ele>
        <time>2025-10-18T14:25:33Z</time>
      </trkpt>
      <trkpt lat="43.22617" lon="5.48197">
        <ele>443.1</ele>
        <time>2025-10-18T14:25:34Z</time>
      </trkpt>
      <trkpt lat="43.22617" lon="5.48197">
        <ele>443.2</ele>
        <time>2025-10-18T14:25:35Z</time>
      </trkpt>
      <trkpt lat="43.22617" lon="5.48196">
        <ele>443.4</ele>
        <time>2025-10-18T14:25:36Z</time>
      </trkpt>
      <trkpt lat="43.22617" lon="5.48196">
        <ele>443.4</ele>
        <time>2025-10-18T14:25:37Z</time>
      </trkpt>
      <trkpt lat="43.22616" lon="5.48196">
        <ele>443.4</ele>
        <time>2025-10-18T14:25:38Z</time>
      </trkpt>
      <trkpt lat="43.22616" lon="5.48196">
        <ele>443.4</ele>
        <time>2025-10-18T14:25:39Z</time>
      </trkpt>
      <trkpt lat="43.22616" lon="5.48196">
        <ele>443.4</ele>
        <time>2025-10-18T14:25:40Z</time>
      </trkpt>
      <trkpt lat="43.22616" lon="5.48195">
        <ele>443.4</ele>
        <time>2025-10-18T14:25:41Z</time>
      </trkpt>
      <trkpt lat="43.22615" lon="5.48195">
        <ele>443.4</ele>
        <time>2025-10-18T14:25:42Z</time>
      </trkpt>
      <trkpt lat="43.22614" lon="5.48195">
        <ele>443.5</ele>
        <time>2025-10-18T14:25:43Z</time>
      </trkpt>
      <trkpt lat="43.22613" lon="5.48195">
        <ele>443.5</ele>
        <time>2025-10-18T14:25:44Z</time>
      </trkpt>
      <trkpt lat="43.22612" lon="5.48195">
        <ele>443.5</ele>
        <time>2025-10-18T14:25:45Z</time>
      </trkpt>
      <trkpt lat="43.22611" lon="5.48195">
        <ele>443.5</ele>
        <time>2025-10-18T14:25:46Z</time>
      </trkpt>
      <trkpt lat="43.2261" lon="5.48194">
        <ele>443.5</ele>
        <time>2025-10-18T14:25:47Z</time>
      </trkpt>
      <trkpt lat="43.22609" lon="5.48194">
        <ele>443.5</ele>
        <time>2025-10-18T14:25:48Z</time>
      </trkpt>
      <trkpt lat="43.22609" lon="5.48194">
        <ele>443.5</ele>
        <time>2025-10-18T14:25:49Z</time>
      </trkpt>
      <trkpt lat="43.22608" lon="5.48193">
        <ele>443.5</ele>
        <time>2025-10-18T14:25:50Z</time>
      </trkpt>
      <trkpt lat="43.22607" lon="5.48194">
        <ele>443.4</ele>
        <time>2025-10-18T14:25:51Z</time>
      </trkpt>
      <trkpt lat="43.22606" lon="5.48194">
        <ele>443.4</ele>
        <time>2025-10-18T14:25:52Z</time>
      </trkpt>
      <trkpt lat="43.22605" lon="5.48194">
        <ele>443.3</ele>
        <time>2025-10-18T14:25:53Z</time>
      </trkpt>
      <trkpt lat="43.22605" lon="5.48194">
        <ele>443.2</ele>
        <time>2025-10-18T14:25:54Z</time>
      </trkpt>
      <trkpt lat="43.22605" lon="5.48194">
        <ele>443.1</ele>
        <time>2025-10-18T14:25:55Z</time>
      </trkpt>
      <trkpt lat="43.22605" lon="5.48194">
        <ele>443</ele>
        <time>2025-10-18T14:25:56Z</time>
      </trkpt>
      <trkpt lat="43.22605" lon="5.48194">
        <ele>442.9</ele>
        <time>2025-10-18T14:25:57Z</time>
      </trkpt>
      <trkpt lat="43.22605" lon="5.48194">
        <ele>442.8</ele>
        <time>2025-10-18T14:25:58Z</time>
      </trkpt>
      <trkpt lat="43.22605" lon="5.48194">
        <ele>442.8</ele>
        <time>2025-10-18T14:25:59Z</time>
      </trkpt>
      <trkpt lat="43.22605" lon="5.48194">
        <ele>442.7</ele>
        <time>2025-10-18T14:26:00Z</time>
      </trkpt>
      <trkpt lat="43.22605" lon="5.48194">
        <ele>442.7</ele>
        <time>2025-10-18T14:26:01Z</time>
      </trkpt>
      <trkpt lat="43.22605" lon="5.48194">
        <ele>442.7</ele>
        <time>2025-10-18T14:26:02Z</time>
      </trkpt>
      <trkpt lat="43.22605" lon="5.48195">
        <ele>442.8</ele>
        <time>2025-10-18T14:26:03Z</time>
      </trkpt>
      <trkpt lat="43.22605" lon="5.48195">
        <ele>442.8</ele>
        <time>2025-10-18T14:26:04Z</time>
      </trkpt>
      <trkpt lat="43.22605" lon="5.48195">
        <ele>442.9</ele>
        <time>2025-10-18T14:26:05Z</time>
      </trkpt>
      <trkpt lat="43.22605" lon="5.48195">
        <ele>442.9</ele>
        <time>2025-10-18T14:26:06Z</time>
      </trkpt>
      <trkpt lat="43.22605" lon="5.48195">
        <ele>443</ele>
        <time>2025-10-18T14:26:07Z</time>
      </trkpt>
      <trkpt lat="43.22605" lon="5.48195">
        <ele>443.1</ele>
        <time>2025-10-18T14:26:08Z</time>
      </trkpt>
      <trkpt lat="43.22604" lon="5.48195">
        <ele>443.1</ele>
        <time>2025-10-18T14:26:09Z</time>
      </trkpt>
      <trkpt lat="43.22604" lon="5.48195">
        <ele>443.2</ele>
        <time>2025-10-18T14:26:10Z</time>
      </trkpt>
      <trkpt lat="43.22604" lon="5.48195">
        <ele>443.2</ele>
        <time>2025-10-18T14:26:11Z</time>
      </trkpt>
      <trkpt lat="43.22604" lon="5.48195">
        <ele>443.2</ele>
        <time>2025-10-18T14:26:12Z</time>
      </trkpt>
      <trkpt lat="43.22604" lon="5.48195">
        <ele>443.2</ele>
        <time>2025-10-18T14:26:13Z</time>
      </trkpt>
      <trkpt lat="43.22604" lon="5.48195">
        <ele>443.1</ele>
        <time>2025-10-18T14:26:14Z</time>
      </trkpt>
      <trkpt lat="43.22604" lon="5.48195">
        <ele>443.1</ele>
        <time>2025-10-18T14:26:15Z</time>
      </trkpt>
      <trkpt lat="43.22604" lon="5.48195">
        <ele>443.1</ele>
        <time>2025-10-18T14:26:16Z</time>
      </trkpt>
      <trkpt lat="43.22604" lon="5.48195">
        <ele>443.1</ele>
        <time>2025-10-18T14:26:17Z</time>
      </trkpt>
      <trkpt lat="43.22604" lon="5.48195">
        <ele>443.2</ele>
        <time>2025-10-18T14:26:18Z</time>
      </trkpt>
      <trkpt lat="43.22604" lon="5.48195">
        <ele>443.3</ele>
        <time>2025-10-18T14:26:19Z</time>
      </trkpt>
      <trkpt lat="43.22604" lon="5.48194">
        <ele>443.3</ele>
        <time>2025-10-18T14:26:20Z</time>
      </trkpt>
      <trkpt lat="43.22604" lon="5.48194">
        <ele>443.3</ele>
        <time>2025-10-18T14:26:21Z</time>
      </trkpt>
      <trkpt lat="43.22604" lon="5.48194">
        <ele>443.3</ele>
        <time>2025-10-18T14:26:22Z</time>
      </trkpt>
      <trkpt lat="43.22604" lon="5.48194">
        <ele>443.2</ele>
        <time>2025-10-18T14:26:23Z</time>
      </trkpt>
      <trkpt lat="43.22604" lon="5.48194">
        <ele>443.2</ele>
        <time>2025-10-18T14:26:24Z</time>
      </trkpt>
      <trkpt lat="43.22604" lon="5.48194">
        <ele>443.2</ele>
        <time>2025-10-18T14:26:25Z</time>
      </trkpt>
      <trkpt lat="43.22604" lon="5.48194">
        <ele>443.1</ele>
        <time>2025-10-18T14:26:26Z</time>
      </trkpt>
      <trkpt lat="43.22604" lon="5.48194">
        <ele>443.1</ele>
        <time>2025-10-18T14:26:27Z</time>
      </trkpt>
      <trkpt lat="43.22604" lon="5.48195">
        <ele>443</ele>
        <time>2025-10-18T14:26:28Z</time>
      </trkpt>
      <trkpt lat="43.22604" lon="5.48195">
        <ele>443</ele>
        <time>2025-10-18T14:26:29Z</time>
      </trkpt>
      <trkpt lat="43.22604" lon="5.48196">
        <ele>442.9</ele>
        <time>2025-10-18T14:26:30Z</time>
      </trkpt>
      <trkpt lat="43.22604" lon="5.48196">
        <ele>442.8</ele>
        <time>2025-10-18T14:26:31Z</time>
      </trkpt>
      <trkpt lat="43.22604" lon="5.48196">
        <ele>442.8</ele>
        <time>2025-10-18T14:26:32Z</time>
      </trkpt>
      <trkpt lat="43.22604" lon="5.48195">
        <ele>442.7</ele>
        <time>2025-10-18T14:26:33Z</time>
      </trkpt>
      <trkpt lat="43.22604" lon="5.48195">
        <ele>442.7</ele>
        <time>2025-10-18T14:26:34Z</time>
      </trkpt>
      <trkpt lat="43.22604" lon="5.48195">
        <ele>442.7</ele>
        <time>2025-10-18T14:26:35Z</time>
      </trkpt>
      <trkpt lat="43.22604" lon="5.48195">
        <ele>442.7</ele>
        <time>2025-10-18T14:26:36Z</time>
      </trkpt>
      <trkpt lat="43.22604" lon="5.48195">
        <ele>442.7</ele>
        <time>2025-10-18T14:26:37Z</time>
      </trkpt>
      <trkpt lat="43.22604" lon="5.48195">
        <ele>442.7</ele>
        <time>2025-10-18T14:26:38Z</time>
      </trkpt>
      <trkpt lat="43.22604" lon="5.48195">
        <ele>442.7</ele>
        <time>2025-10-18T14:26:39Z</time>
      </trkpt>
      <trkpt lat="43.22604" lon="5.48195">
        <ele>442.8</ele>
        <time>2025-10-18T14:26:40Z</time>
      </trkpt>
      <trkpt lat="43.22605" lon="5.48195">
        <ele>442.8</ele>
        <time>2025-10-18T14:26:41Z</time>
      </trkpt>
      <trkpt lat="43.22605" lon="5.48196">
        <ele>442.8</ele>
        <time>2025-10-18T14:26:42Z</time>
      </trkpt>
      <trkpt lat="43.22605" lon="5.48196">
        <ele>442.8</ele>
        <time>2025-10-18T14:26:43Z</time>
      </trkpt>
      <trkpt lat="43.22605" lon="5.48196">
        <ele>442.8</ele>
        <time>2025-10-18T14:26:44Z</time>
      </trkpt>
      <trkpt lat="43.22605" lon="5.48196">
        <ele>442.8</ele>
        <time>2025-10-18T14:26:45Z</time>
      </trkpt>
      <trkpt lat="43.22605" lon="5.48197">
        <ele>442.8</ele>
        <time>2025-10-18T14:26:46Z</time>
      </trkpt>
      <trkpt lat="43.22605" lon="5.48197">
        <ele>442.8</ele>
        <time>2025-10-18T14:26:47Z</time>
      </trkpt>
      <trkpt lat="43.22606" lon="5.48197">
        <ele>442.8</ele>
        <time>2025-10-18T14:26:48Z</time>
      </trkpt>
      <trkpt lat="43.22606" lon="5.48197">
        <ele>442.8</ele>
        <time>2025-10-18T14:26:49Z</time>
      </trkpt>
      <trkpt lat="43.22606" lon="5.48198">
        <ele>442.8</ele>
        <time>2025-10-18T14:26:50Z</time>
      </trkpt>
      <trkpt lat="43.22606" lon="5.48198">
        <ele>442.9</ele>
        <time>2025-10-18T14:26:51Z</time>
      </trkpt>
      <trkpt lat="43.22606" lon="5.48198">
        <ele>443</ele>
        <time>2025-10-18T14:26:52Z</time>
      </trkpt>
      <trkpt lat="43.22606" lon="5.48198">
        <ele>443.1</ele>
        <time>2025-10-18T14:26:53Z</time>
      </trkpt>
      <trkpt lat="43.22606" lon="5.48198">
        <ele>443.1</ele>
        <time>2025-10-18T14:26:54Z</time>
      </trkpt>
      <trkpt lat="43.22606" lon="5.48198">
        <ele>443.2</ele>
        <time>2025-10-18T14:26:55Z</time>
      </trkpt>
      <trkpt lat="43.22606" lon="5.48198">
        <ele>443.2</ele>
        <time>2025-10-18T14:26:56Z</time>
      </trkpt>
      <trkpt lat="43.22606" lon="5.48198">
        <ele>443.2</ele>
        <time>2025-10-18T14:26:57Z</time>
      </trkpt>
      <trkpt lat="43.22606" lon="5.48198">
        <ele>443.1</ele>
        <time>2025-10-18T14:26:58Z</time>
      </trkpt>
      <trkpt lat="43.22606" lon="5.48198">
        <ele>443.1</ele>
        <time>2025-10-18T14:26:59Z</time>
      </trkpt>
      <trkpt lat="43.22607" lon="5.48198">
        <ele>443.2</ele>
        <time>2025-10-18T14:27:00Z</time>
      </trkpt>
      <trkpt lat="43.22607" lon="5.48198">
        <ele>443.2</ele>
        <time>2025-10-18T14:27:01Z</time>
      </trkpt>
      <trkpt lat="43.22607" lon="5.48198">
        <ele>443.2</ele>
        <time>2025-10-18T14:27:02Z</time>
      </trkpt>
      <trkpt lat="43.22607" lon="5.48198">
        <ele>443.1</ele>
        <time>2025-10-18T14:27:03Z</time>
      </trkpt>
      <trkpt lat="43.22607" lon="5.48198">
        <ele>443.1</ele>
        <time>2025-10-18T14:27:04Z</time>
      </trkpt>
      <trkpt lat="43.22607" lon="5.48198">
        <ele>443.1</ele>
        <time>2025-10-18T14:27:05Z</time>
      </trkpt>
      <trkpt lat="43.22607" lon="5.48198">
        <ele>443</ele>
        <time>2025-10-18T14:27:06Z</time>
      </trkpt>
      <trkpt lat="43.22607" lon="5.48198">
        <ele>443.1</ele>
        <time>2025-10-18T14:27:07Z</time>
      </trkpt>
      <trkpt lat="43.22607" lon="5.48198">
        <ele>443.1</ele>
        <time>2025-10-18T14:27:08Z</time>
      </trkpt>
      <trkpt lat="43.22607" lon="5.48198">
        <ele>443</ele>
        <time>2025-10-18T14:27:09Z</time>
      </trkpt>
      <trkpt lat="43.22607" lon="5.48198">
        <ele>443</ele>
        <time>2025-10-18T14:27:10Z</time>
      </trkpt>
      <trkpt lat="43.22607" lon="5.48198">
        <ele>443</ele>
        <time>2025-10-18T14:27:11Z</time>
      </trkpt>
      <trkpt lat="43.22607" lon="5.48198">
        <ele>442.9</ele>
        <time>2025-10-18T14:27:12Z</time>
      </trkpt>
      <trkpt lat="43.22607" lon="5.48198">
        <ele>442.9</ele>
        <time>2025-10-18T14:27:13Z</time>
      </trkpt>
      <trkpt lat="43.22607" lon="5.48198">
        <ele>442.9</ele>
        <time>2025-10-18T14:27:14Z</time>
      </trkpt>
      <trkpt lat="43.22608" lon="5.48198">
        <ele>442.9</ele>
        <time>2025-10-18T14:27:15Z</time>
      </trkpt>
      <trkpt lat="43.22608" lon="5.48198">
        <ele>442.9</ele>
        <time>2025-10-18T14:27:16Z</time>
      </trkpt>
      <trkpt lat="43.22608" lon="5.48198">
        <ele>443</ele>
        <time>2025-10-18T14:27:17Z</time>
      </trkpt>
      <trkpt lat="43.22608" lon="5.48198">
        <ele>443</ele>
        <time>2025-10-18T14:27:18Z</time>
      </trkpt>
      <trkpt lat="43.22608" lon="5.48198">
        <ele>443</ele>
        <time>2025-10-18T14:27:19Z</time>
      </trkpt>
      <trkpt lat="43.22608" lon="5.48199">
        <ele>442.9</ele>
        <time>2025-10-18T14:27:20Z</time>
      </trkpt>
      <trkpt lat="43.22608" lon="5.48199">
        <ele>442.9</ele>
        <time>2025-10-18T14:27:21Z</time>
      </trkpt>
      <trkpt lat="43.22608" lon="5.48199">
        <ele>443</ele>
        <time>2025-10-18T14:27:22Z</time>
      </trkpt>
      <trkpt lat="43.22608" lon="5.48199">
        <ele>443</ele>
        <time>2025-10-18T14:27:23Z</time>
      </trkpt>
      <trkpt lat="43.22608" lon="5.48199">
        <ele>443</ele>
        <time>2025-10-18T14:27:24Z</time>
      </trkpt>
      <trkpt lat="43.22608" lon="5.482">
        <ele>443</ele>
        <time>2025-10-18T14:27:25Z</time>
      </trkpt>
      <trkpt lat="43.22608" lon="5.482">
        <ele>443</ele>
        <time>2025-10-18T14:27:26Z</time>
      </trkpt>
      <trkpt lat="43.22608" lon="5.482">
        <ele>443</ele>
        <time>2025-10-18T14:27:27Z</time>
      </trkpt>
      <trkpt lat="43.22608" lon="5.482">
        <ele>443</ele>
        <time>2025-10-18T14:27:28Z</time>
      </trkpt>
      <trkpt lat="43.22607" lon="5.482">
        <ele>443</ele>
        <time>2025-10-18T14:27:29Z</time>
      </trkpt>
      <trkpt lat="43.22607" lon="5.482">
        <ele>443.1</ele>
        <time>2025-10-18T14:27:30Z</time>
      </trkpt>
      <trkpt lat="43.22607" lon="5.482">
        <ele>443.1</ele>
        <time>2025-10-18T14:27:31Z</time>
      </trkpt>
      <trkpt lat="43.22607" lon="5.482">
        <ele>443.1</ele>
        <time>2025-10-18T14:27:32Z</time>
      </trkpt>
      <trkpt lat="43.22607" lon="5.482">
        <ele>443.1</ele>
        <time>2025-10-18T14:27:33Z</time>
      </trkpt>
      <trkpt lat="43.22607" lon="5.482">
        <ele>443</ele>
        <time>2025-10-18T14:27:34Z</time>
      </trkpt>
      <trkpt lat="43.22607" lon="5.482">
        <ele>443</ele>
        <time>2025-10-18T14:27:35Z</time>
      </trkpt>
      <trkpt lat="43.22607" lon="5.482">
        <ele>443</ele>
        <time>2025-10-18T14:27:36Z</time>
      </trkpt>
      <trkpt lat="43.22607" lon="5.48199">
        <ele>442.9</ele>
        <time>2025-10-18T14:27:37Z</time>
      </trkpt>
      <trkpt lat="43.22607" lon="5.48199">
        <ele>442.9</ele>
        <time>2025-10-18T14:27:38Z</time>
      </trkpt>
      <trkpt lat="43.22607" lon="5.48199">
        <ele>442.9</ele>
        <time>2025-10-18T14:27:39Z</time>
      </trkpt>
      <trkpt lat="43.22607" lon="5.48199">
        <ele>442.9</ele>
        <time>2025-10-18T14:27:40Z</time>
      </trkpt>
      <trkpt lat="43.22607" lon="5.48199">
        <ele>443</ele>
        <time>2025-10-18T14:27:41Z</time>
      </trkpt>
      <trkpt lat="43.22607" lon="5.48199">
        <ele>443</ele>
        <time>2025-10-18T14:27:42Z</time>
      </trkpt>
      <trkpt lat="43.22607" lon="5.48199">
        <ele>443</ele>
        <time>2025-10-18T14:27:43Z</time>
      </trkpt>
      <trkpt lat="43.22607" lon="5.482">
        <ele>443</ele>
        <time>2025-10-18T14:27:44Z</time>
      </trkpt>
      <trkpt lat="43.22607" lon="5.482">
        <ele>442.9</ele>
        <time>2025-10-18T14:27:45Z</time>
      </trkpt>
      <trkpt lat="43.22607" lon="5.482">
        <ele>442.9</ele>
        <time>2025-10-18T14:27:46Z</time>
      </trkpt>
      <trkpt lat="43.22607" lon="5.48199">
        <ele>442.9</ele>
        <time>2025-10-18T14:27:47Z</time>
      </trkpt>
      <trkpt lat="43.22607" lon="5.48199">
        <ele>442.8</ele>
        <time>2025-10-18T14:27:48Z</time>
      </trkpt>
      <trkpt lat="43.22607" lon="5.48199">
        <ele>442.8</ele>
        <time>2025-10-18T14:27:49Z</time>
      </trkpt>
      <trkpt lat="43.22607" lon="5.48199">
        <ele>442.8</ele>
        <time>2025-10-18T14:27:50Z</time>
      </trkpt>
      <trkpt lat="43.22607" lon="5.48199">
        <ele>442.8</ele>
        <time>2025-10-18T14:27:51Z</time>
      </trkpt>
      <trkpt lat="43.22607" lon="5.48199">
        <ele>442.8</ele>
        <time>2025-10-18T14:27:52Z</time>
      </trkpt>
      <trkpt lat="43.22607" lon="5.48199">
        <ele>442.8</ele>
        <time>2025-10-18T14:27:53Z</time>
      </trkpt>
      <trkpt lat="43.22607" lon="5.48198">
        <ele>442.8</ele>
        <time>2025-10-18T14:27:54Z</time>
      </trkpt>
      <trkpt lat="43.22607" lon="5.48198">
        <ele>442.8</ele>
        <time>2025-10-18T14:27:55Z</time>
      </trkpt>
      <trkpt lat="43.22607" lon="5.48198">
        <ele>442.8</ele>
        <time>2025-10-18T14:27:56Z</time>
      </trkpt>
      <trkpt lat="43.22607" lon="5.48198">
        <ele>442.8</ele>
        <time>2025-10-18T14:27:57Z</time>
      </trkpt>
      <trkpt lat="43.22607" lon="5.48199">
        <ele>442.9</ele>
        <time>2025-10-18T14:27:58Z</time>
      </trkpt>
      <trkpt lat="43.22607" lon="5.48199">
        <ele>442.9</ele>
        <time>2025-10-18T14:27:59Z</time>
      </trkpt>
      <trkpt lat="43.22607" lon="5.48199">
        <ele>442.9</ele>
        <time>2025-10-18T14:28:00Z</time>
      </trkpt>
      <trkpt lat="43.22607" lon="5.48199">
        <ele>442.9</ele>
        <time>2025-10-18T14:28:01Z</time>
      </trkpt>
      <trkpt lat="43.22607" lon="5.48199">
        <ele>443</ele>
        <time>2025-10-18T14:28:02Z</time>
      </trkpt>
      <trkpt lat="43.22607" lon="5.48199">
        <ele>442.9</ele>
        <time>2025-10-18T14:28:03Z</time>
      </trkpt>
      <trkpt lat="43.22607" lon="5.48199">
        <ele>442.9</ele>
        <time>2025-10-18T14:28:04Z</time>
      </trkpt>
      <trkpt lat="43.22607" lon="5.48199">
        <ele>442.9</ele>
        <time>2025-10-18T14:28:05Z</time>
      </trkpt>
      <trkpt lat="43.22607" lon="5.48199">
        <ele>442.8</ele>
        <time>2025-10-18T14:28:06Z</time>
      </trkpt>
      <trkpt lat="43.22607" lon="5.48199">
        <ele>442.9</ele>
        <time>2025-10-18T14:28:07Z</time>
      </trkpt>
      <trkpt lat="43.22607" lon="5.48199">
        <ele>442.9</ele>
        <time>2025-10-18T14:28:08Z</time>
      </trkpt>
      <trkpt lat="43.22607" lon="5.48199">
        <ele>442.8</ele>
        <time>2025-10-18T14:28:09Z</time>
      </trkpt>
      <trkpt lat="43.22607" lon="5.48199">
        <ele>442.8</ele>
        <time>2025-10-18T14:28:10Z</time>
      </trkpt>
      <trkpt lat="43.22607" lon="5.48199">
        <ele>442.9</ele>
        <time>2025-10-18T14:28:11Z</time>
      </trkpt>
      <trkpt lat="43.22607" lon="5.48199">
        <ele>442.9</ele>
        <time>2025-10-18T14:28:12Z</time>
      </trkpt>
      <trkpt lat="43.22607" lon="5.48199">
        <ele>443</ele>
        <time>2025-10-18T14:28:13Z</time>
      </trkpt>
      <trkpt lat="43.22607" lon="5.48199">
        <ele>443</ele>
        <time>2025-10-18T14:28:14Z</time>
      </trkpt>
      <trkpt lat="43.22607" lon="5.48199">
        <ele>443</ele>
        <time>2025-10-18T14:28:15Z</time>
      </trkpt>
      <trkpt lat="43.22607" lon="5.48199">
        <ele>443</ele>
        <time>2025-10-18T14:28:16Z</time>
      </trkpt>
      <trkpt lat="43.22607" lon="5.48199">
        <ele>443</ele>
        <time>2025-10-18T14:28:17Z</time>
      </trkpt>
      <trkpt lat="43.22607" lon="5.48199">
        <ele>442.9</ele>
        <time>2025-10-18T14:28:18Z</time>
      </trkpt>
      <trkpt lat="43.22607" lon="5.48199">
        <ele>442.9</ele>
        <time>2025-10-18T14:28:19Z</time>
      </trkpt>
      <trkpt lat="43.22607" lon="5.48199">
        <ele>442.9</ele>
        <time>2025-10-18T14:28:20Z</time>
      </trkpt>
      <trkpt lat="43.22607" lon="5.48199">
        <ele>442.9</ele>
        <time>2025-10-18T14:28:21Z</time>
      </trkpt>
      <trkpt lat="43.22607" lon="5.48199">
        <ele>442.9</ele>
        <time>2025-10-18T14:28:22Z</time>
      </trkpt>
      <trkpt lat="43.22607" lon="5.48199">
        <ele>442.8</ele>
        <time>2025-10-18T14:28:23Z</time>
      </trkpt>
      <trkpt lat="43.22607" lon="5.48199">
        <ele>442.8</ele>
        <time>2025-10-18T14:28:24Z</time>
      </trkpt>
      <trkpt lat="43.22607" lon="5.48199">
        <ele>442.8</ele>
        <time>2025-10-18T14:28:25Z</time>
      </trkpt>
      <trkpt lat="43.22607" lon="5.48199">
        <ele>442.8</ele>
        <time>2025-10-18T14:28:26Z</time>
      </trkpt>
      <trkpt lat="43.22607" lon="5.48199">
        <ele>442.8</ele>
        <time>2025-10-18T14:28:27Z</time>
      </trkpt>
      <trkpt lat="43.22607" lon="5.48199">
        <ele>442.8</ele>
        <time>2025-10-18T14:28:28Z</time>
      </trkpt>
      <trkpt lat="43.22607" lon="5.48199">
        <ele>442.8</ele>
        <time>2025-10-18T14:28:29Z</time>
      </trkpt>
      <trkpt lat="43.22607" lon="5.48199">
        <ele>442.8</ele>
        <time>2025-10-18T14:28:30Z</time>
      </trkpt>
      <trkpt lat="43.22607" lon="5.48199">
        <ele>442.8</ele>
        <time>2025-10-18T14:28:31Z</time>
      </trkpt>
      <trkpt lat="43.22607" lon="5.48199">
        <ele>442.8</ele>
        <time>2025-10-18T14:28:32Z</time>
      </trkpt>
      <trkpt lat="43.22607" lon="5.48199">
        <ele>442.8</ele>
        <time>2025-10-18T14:28:33Z</time>
      </trkpt>
      <trkpt lat="43.22607" lon="5.48199">
        <ele>442.8</ele>
        <time>2025-10-18T14:28:34Z</time>
      </trkpt>
      <trkpt lat="43.22607" lon="5.48199">
        <ele>442.8</ele>
        <time>2025-10-18T14:28:35Z</time>
      </trkpt>
      <trkpt lat="43.22607" lon="5.48199">
        <ele>442.8</ele>
        <time>2025-10-18T14:28:36Z</time>
      </trkpt>
      <trkpt lat="43.22607" lon="5.48199">
        <ele>442.8</ele>
        <time>2025-10-18T14:28:37Z</time>
      </trkpt>
      <trkpt lat="43.22607" lon="5.48199">
        <ele>442.7</ele>
        <time>2025-10-18T14:28:38Z</time>
      </trkpt>
      <trkpt lat="43.22607" lon="5.48199">
        <ele>442.7</ele>
        <time>2025-10-18T14:28:39Z</time>
      </trkpt>
      <trkpt lat="43.22607" lon="5.48199">
        <ele>442.7</ele>
        <time>2025-10-18T14:28:40Z</time>
      </trkpt>
      <trkpt lat="43.22607" lon="5.48199">
        <ele>442.7</ele>
        <time>2025-10-18T14:28:41Z</time>
      </trkpt>
      <trkpt lat="43.22607" lon="5.48199">
        <ele>442.6</ele>
        <time>2025-10-18T14:28:42Z</time>
      </trkpt>
      <trkpt lat="43.22607" lon="5.48199">
        <ele>442.6</ele>
        <time>2025-10-18T14:28:43Z</time>
      </trkpt>
      <trkpt lat="43.22607" lon="5.48199">
        <ele>442.6</ele>
        <time>2025-10-18T14:28:44Z</time>
      </trkpt>
      <trkpt lat="43.22607" lon="5.48199">
        <ele>442.6</ele>
        <time>2025-10-18T14:28:45Z</time>
      </trkpt>
      <trkpt lat="43.22607" lon="5.48199">
        <ele>442.6</ele>
        <time>2025-10-18T14:28:46Z</time>
      </trkpt>
      <trkpt lat="43.22607" lon="5.48199">
        <ele>442.6</ele>
        <time>2025-10-18T14:28:47Z</time>
      </trkpt>
      <trkpt lat="43.22607" lon="5.48199">
        <ele>442.6</ele>
        <time>2025-10-18T14:28:48Z</time>
      </trkpt>
      <trkpt lat="43.22607" lon="5.48199">
        <ele>442.6</ele>
        <time>2025-10-18T14:28:49Z</time>
      </trkpt>
      <trkpt lat="43.22607" lon="5.48199">
        <ele>442.6</ele>
        <time>2025-10-18T14:28:50Z</time>
      </trkpt>
      <trkpt lat="43.22607" lon="5.48199">
        <ele>442.7</ele>
        <time>2025-10-18T14:28:51Z</time>
      </trkpt>
      <trkpt lat="43.22607" lon="5.48199">
        <ele>442.7</ele>
        <time>2025-10-18T14:28:52Z</time>
      </trkpt>
      <trkpt lat="43.22607" lon="5.48199">
        <ele>442.8</ele>
        <time>2025-10-18T14:28:53Z</time>
      </trkpt>
      <trkpt lat="43.22607" lon="5.48199">
        <ele>442.8</ele>
        <time>2025-10-18T14:28:54Z</time>
      </trkpt>
      <trkpt lat="43.22607" lon="5.48199">
        <ele>442.9</ele>
        <time>2025-10-18T14:28:55Z</time>
      </trkpt>
      <trkpt lat="43.22607" lon="5.48199">
        <ele>443</ele>
        <time>2025-10-18T14:28:56Z</time>
      </trkpt>
      <trkpt lat="43.22607" lon="5.48199">
        <ele>443</ele>
        <time>2025-10-18T14:28:57Z</time>
      </trkpt>
      <trkpt lat="43.22607" lon="5.48199">
        <ele>443.1</ele>
        <time>2025-10-18T14:28:58Z</time>
      </trkpt>
      <trkpt lat="43.22607" lon="5.48199">
        <ele>443.1</ele>
        <time>2025-10-18T14:28:59Z</time>
      </trkpt>
      <trkpt lat="43.22607" lon="5.48199">
        <ele>443.1</ele>
        <time>2025-10-18T14:29:00Z</time>
      </trkpt>
      <trkpt lat="43.22607" lon="5.48199">
        <ele>443.1</ele>
        <time>2025-10-18T14:29:01Z</time>
      </trkpt>
      <trkpt lat="43.22607" lon="5.48199">
        <ele>443.1</ele>
        <time>2025-10-18T14:29:02Z</time>
      </trkpt>
      <trkpt lat="43.22607" lon="5.48199">
        <ele>443.2</ele>
        <time>2025-10-18T14:29:03Z</time>
      </trkpt>
      <trkpt lat="43.22607" lon="5.48199">
        <ele>443.2</ele>
        <time>2025-10-18T14:29:04Z</time>
      </trkpt>
      <trkpt lat="43.22607" lon="5.48199">
        <ele>443.1</ele>
        <time>2025-10-18T14:29:05Z</time>
      </trkpt>
      <trkpt lat="43.22607" lon="5.48199">
        <ele>443.2</ele>
        <time>2025-10-18T14:29:06Z</time>
      </trkpt>
      <trkpt lat="43.22607" lon="5.48199">
        <ele>443.1</ele>
        <time>2025-10-18T14:29:07Z</time>
      </trkpt>
      <trkpt lat="43.22607" lon="5.48199">
        <ele>443</ele>
        <time>2025-10-18T14:29:08Z</time>
      </trkpt>
      <trkpt lat="43.22607" lon="5.48199">
        <ele>443</ele>
        <time>2025-10-18T14:29:09Z</time>
      </trkpt>
      <trkpt lat="43.22607" lon="5.48199">
        <ele>443</ele>
        <time>2025-10-18T14:29:10Z</time>
      </trkpt>
      <trkpt lat="43.22607" lon="5.48199">
        <ele>443</ele>
        <time>2025-10-18T14:29:11Z</time>
      </trkpt>
      <trkpt lat="43.22607" lon="5.48199">
        <ele>443</ele>
        <time>2025-10-18T14:29:12Z</time>
      </trkpt>
      <trkpt lat="43.22607" lon="5.482">
        <ele>443</ele>
        <time>2025-10-18T14:29:13Z</time>
      </trkpt>
      <trkpt lat="43.22607" lon="5.482">
        <ele>443</ele>
        <time>2025-10-18T14:29:14Z</time>
      </trkpt>
      <trkpt lat="43.22607" lon="5.482">
        <ele>443</ele>
        <time>2025-10-18T14:29:15Z</time>
      </trkpt>
      <trkpt lat="43.22607" lon="5.482">
        <ele>443</ele>
        <time>2025-10-18T14:29:16Z</time>
      </trkpt>
      <trkpt lat="43.22607" lon="5.482">
        <ele>443</ele>
        <time>2025-10-18T14:29:17Z</time>
      </trkpt>
      <trkpt lat="43.22607" lon="5.482">
        <ele>443</ele>
        <time>2025-10-18T14:29:18Z</time>
      </trkpt>
      <trkpt lat="43.22607" lon="5.482">
        <ele>443</ele>
        <time>2025-10-18T14:29:19Z</time>
      </trkpt>
      <trkpt lat="43.22607" lon="5.482">
        <ele>443</ele>
        <time>2025-10-18T14:29:20Z</time>
      </trkpt>
      <trkpt lat="43.22607" lon="5.482">
        <ele>443</ele>
        <time>2025-10-18T14:29:21Z</time>
      </trkpt>
      <trkpt lat="43.22607" lon="5.482">
        <ele>443</ele>
        <time>2025-10-18T14:29:22Z</time>
      </trkpt>
      <trkpt lat="43.22607" lon="5.482">
        <ele>443</ele>
        <time>2025-10-18T14:29:23Z</time>
      </trkpt>
      <trkpt lat="43.22607" lon="5.482">
        <ele>442.9</ele>
        <time>2025-10-18T14:29:24Z</time>
      </trkpt>
      <trkpt lat="43.22607" lon="5.482">
        <ele>442.9</ele>
        <time>2025-10-18T14:29:25Z</time>
      </trkpt>
      <trkpt lat="43.22607" lon="5.482">
        <ele>442.9</ele>
        <time>2025-10-18T14:29:26Z</time>
      </trkpt>
      <trkpt lat="43.22607" lon="5.482">
        <ele>442.9</ele>
        <time>2025-10-18T14:29:27Z</time>
      </trkpt>
      <trkpt lat="43.22607" lon="5.482">
        <ele>442.9</ele>
        <time>2025-10-18T14:29:28Z</time>
      </trkpt>
      <trkpt lat="43.22607" lon="5.482">
        <ele>442.9</ele>
        <time>2025-10-18T14:29:29Z</time>
      </trkpt>
      <trkpt lat="43.22607" lon="5.482">
        <ele>442.9</ele>
        <time>2025-10-18T14:29:30Z</time>
      </trkpt>
      <trkpt lat="43.22607" lon="5.482">
        <ele>442.9</ele>
        <time>2025-10-18T14:29:31Z</time>
      </trkpt>
      <trkpt lat="43.22607" lon="5.482">
        <ele>442.9</ele>
        <time>2025-10-18T14:29:32Z</time>
      </trkpt>
      <trkpt lat="43.22607" lon="5.482">
        <ele>442.9</ele>
        <time>2025-10-18T14:29:33Z</time>
      </trkpt>
      <trkpt lat="43.22607" lon="5.482">
        <ele>442.9</ele>
        <time>2025-10-18T14:29:34Z</time>
      </trkpt>
      <trkpt lat="43.22607" lon="5.48199">
        <ele>442.9</ele>
        <time>2025-10-18T14:29:35Z</time>
      </trkpt>
      <trkpt lat="43.22607" lon="5.48199">
        <ele>442.8</ele>
        <time>2025-10-18T14:29:36Z</time>
      </trkpt>
      <trkpt lat="43.22607" lon="5.48199">
        <ele>442.8</ele>
        <time>2025-10-18T14:29:37Z</time>
      </trkpt>
      <trkpt lat="43.22607" lon="5.48199">
        <ele>442.8</ele>
        <time>2025-10-18T14:29:38Z</time>
      </trkpt>
      <trkpt lat="43.22606" lon="5.48199">
        <ele>442.7</ele>
        <time>2025-10-18T14:29:39Z</time>
      </trkpt>
      <trkpt lat="43.22606" lon="5.482">
        <ele>442.7</ele>
        <time>2025-10-18T14:29:40Z</time>
      </trkpt>
      <trkpt lat="43.22606" lon="5.48199">
        <ele>442.7</ele>
        <time>2025-10-18T14:29:41Z</time>
      </trkpt>
      <trkpt lat="43.22606" lon="5.48199">
        <ele>442.7</ele>
        <time>2025-10-18T14:29:42Z</time>
      </trkpt>
      <trkpt lat="43.22606" lon="5.482">
        <ele>442.7</ele>
        <time>2025-10-18T14:29:43Z</time>
      </trkpt>
      <trkpt lat="43.22606" lon="5.482">
        <ele>442.7</ele>
        <time>2025-10-18T14:29:44Z</time>
      </trkpt>
      <trkpt lat="43.22606" lon="5.482">
        <ele>442.7</ele>
        <time>2025-10-18T14:29:45Z</time>
      </trkpt>
      <trkpt lat="43.22606" lon="5.482">
        <ele>442.6</ele>
        <time>2025-10-18T14:29:46Z</time>
      </trkpt>
      <trkpt lat="43.22606" lon="5.482">
        <ele>442.7</ele>
        <time>2025-10-18T14:29:47Z</time>
      </trkpt>
      <trkpt lat="43.22606" lon="5.48201">
        <ele>442.7</ele>
        <time>2025-10-18T14:29:48Z</time>
      </trkpt>
      <trkpt lat="43.22606" lon="5.48202">
        <ele>442.7</ele>
        <time>2025-10-18T14:29:49Z</time>
      </trkpt>
      <trkpt lat="43.22605" lon="5.48203">
        <ele>442.8</ele>
        <time>2025-10-18T14:29:50Z</time>
      </trkpt>
      <trkpt lat="43.22605" lon="5.48204">
        <ele>442.8</ele>
        <time>2025-10-18T14:29:51Z</time>
      </trkpt>
      <trkpt lat="43.22605" lon="5.48204">
        <ele>442.8</ele>
        <time>2025-10-18T14:29:52Z</time>
      </trkpt>
      <trkpt lat="43.22605" lon="5.48205">
        <ele>442.8</ele>
        <time>2025-10-18T14:29:53Z</time>
      </trkpt>
      <trkpt lat="43.22605" lon="5.48206">
        <ele>442.8</ele>
        <time>2025-10-18T14:29:54Z</time>
      </trkpt>
      <trkpt lat="43.22604" lon="5.48206">
        <ele>442.8</ele>
        <time>2025-10-18T14:29:55Z</time>
      </trkpt>
      <trkpt lat="43.22604" lon="5.48207">
        <ele>442.8</ele>
        <time>2025-10-18T14:29:56Z</time>
      </trkpt>
      <trkpt lat="43.22604" lon="5.48208">
        <ele>442.9</ele>
        <time>2025-10-18T14:29:57Z</time>
      </trkpt>
      <trkpt lat="43.22604" lon="5.48208">
        <ele>442.9</ele>
        <time>2025-10-18T14:29:58Z</time>
      </trkpt>
      <trkpt lat="43.22604" lon="5.48209">
        <ele>443</ele>
        <time>2025-10-18T14:29:59Z</time>
      </trkpt>
      <trkpt lat="43.22604" lon="5.48209">
        <ele>443</ele>
        <time>2025-10-18T14:30:00Z</time>
      </trkpt>
      <trkpt lat="43.22604" lon="5.4821">
        <ele>443.1</ele>
        <time>2025-10-18T14:30:01Z</time>
      </trkpt>
      <trkpt lat="43.22604" lon="5.48211">
        <ele>443.2</ele>
        <time>2025-10-18T14:30:02Z</time>
      </trkpt>
      <trkpt lat="43.22603" lon="5.48212">
        <ele>443.2</ele>
        <time>2025-10-18T14:30:03Z</time>
      </trkpt>
      <trkpt lat="43.22603" lon="5.48212">
        <ele>443.3</ele>
        <time>2025-10-18T14:30:04Z</time>
      </trkpt>
      <trkpt lat="43.22603" lon="5.48213">
        <ele>443.4</ele>
        <time>2025-10-18T14:30:05Z</time>
      </trkpt>
      <trkpt lat="43.22603" lon="5.48214">
        <ele>443.5</ele>
        <time>2025-10-18T14:30:06Z</time>
      </trkpt>
      <trkpt lat="43.22603" lon="5.48215">
        <ele>443.6</ele>
        <time>2025-10-18T14:30:07Z</time>
      </trkpt>
      <trkpt lat="43.22602" lon="5.48216">
        <ele>443.6</ele>
        <time>2025-10-18T14:30:08Z</time>
      </trkpt>
      <trkpt lat="43.22602" lon="5.48217">
        <ele>443.8</ele>
        <time>2025-10-18T14:30:09Z</time>
      </trkpt>
      <trkpt lat="43.22602" lon="5.48218">
        <ele>444</ele>
        <time>2025-10-18T14:30:10Z</time>
      </trkpt>
      <trkpt lat="43.22602" lon="5.48219">
        <ele>444.2</ele>
        <time>2025-10-18T14:30:11Z</time>
      </trkpt>
      <trkpt lat="43.22602" lon="5.4822">
        <ele>444.4</ele>
        <time>2025-10-18T14:30:12Z</time>
      </trkpt>
      <trkpt lat="43.22601" lon="5.48221">
        <ele>444.6</ele>
        <time>2025-10-18T14:30:13Z</time>
      </trkpt>
      <trkpt lat="43.22601" lon="5.48222">
        <ele>444.7</ele>
        <time>2025-10-18T14:30:14Z</time>
      </trkpt>
      <trkpt lat="43.22601" lon="5.48223">
        <ele>444.8</ele>
        <time>2025-10-18T14:30:15Z</time>
      </trkpt>
      <trkpt lat="43.22601" lon="5.48224">
        <ele>444.8</ele>
        <time>2025-10-18T14:30:16Z</time>
      </trkpt>
      <trkpt lat="43.22601" lon="5.48226">
        <ele>444.8</ele>
        <time>2025-10-18T14:30:17Z</time>
      </trkpt>
      <trkpt lat="43.22601" lon="5.48227">
        <ele>444.8</ele>
        <time>2025-10-18T14:30:18Z</time>
      </trkpt>
      <trkpt lat="43.226" lon="5.48228">
        <ele>444.9</ele>
        <time>2025-10-18T14:30:19Z</time>
      </trkpt>
      <trkpt lat="43.226" lon="5.48229">
        <ele>445.2</ele>
        <time>2025-10-18T14:30:20Z</time>
      </trkpt>
      <trkpt lat="43.226" lon="5.4823">
        <ele>445.3</ele>
        <time>2025-10-18T14:30:21Z</time>
      </trkpt>
      <trkpt lat="43.22599" lon="5.48231">
        <ele>445.6</ele>
        <time>2025-10-18T14:30:22Z</time>
      </trkpt>
      <trkpt lat="43.22599" lon="5.48232">
        <ele>445.7</ele>
        <time>2025-10-18T14:30:23Z</time>
      </trkpt>
      <trkpt lat="43.22599" lon="5.48234">
        <ele>445.7</ele>
        <time>2025-10-18T14:30:24Z</time>
      </trkpt>
      <trkpt lat="43.22599" lon="5.48235">
        <ele>445.7</ele>
        <time>2025-10-18T14:30:25Z</time>
      </trkpt>
      <trkpt lat="43.22599" lon="5.48236">
        <ele>445.8</ele>
        <time>2025-10-18T14:30:26Z</time>
      </trkpt>
      <trkpt lat="43.22599" lon="5.48237">
        <ele>445.9</ele>
        <time>2025-10-18T14:30:27Z</time>
      </trkpt>
      <trkpt lat="43.22598" lon="5.48238">
        <ele>445.9</ele>
        <time>2025-10-18T14:30:28Z</time>
      </trkpt>
      <trkpt lat="43.22598" lon="5.48239">
        <ele>446</ele>
        <time>2025-10-18T14:30:29Z</time>
      </trkpt>
      <trkpt lat="43.22598" lon="5.4824">
        <ele>446.2</ele>
        <time>2025-10-18T14:30:30Z</time>
      </trkpt>
      <trkpt lat="43.22598" lon="5.48241">
        <ele>446.2</ele>
        <time>2025-10-18T14:30:31Z</time>
      </trkpt>
      <trkpt lat="43.22598" lon="5.48242">
        <ele>446.1</ele>
        <time>2025-10-18T14:30:32Z</time>
      </trkpt>
      <trkpt lat="43.22598" lon="5.48242">
        <ele>446.2</ele>
        <time>2025-10-18T14:30:33Z</time>
      </trkpt>
      <trkpt lat="43.22597" lon="5.48243">
        <ele>446.2</ele>
        <time>2025-10-18T14:30:34Z</time>
      </trkpt>
      <trkpt lat="43.22597" lon="5.48244">
        <ele>446.2</ele>
        <time>2025-10-18T14:30:35Z</time>
      </trkpt>
      <trkpt lat="43.22597" lon="5.48245">
        <ele>446.3</ele>
        <time>2025-10-18T14:30:36Z</time>
      </trkpt>
      <trkpt lat="43.22597" lon="5.48247">
        <ele>446.3</ele>
        <time>2025-10-18T14:30:37Z</time>
      </trkpt>
      <trkpt lat="43.22596" lon="5.48248">
        <ele>446.3</ele>
        <time>2025-10-18T14:30:38Z</time>
      </trkpt>
      <trkpt lat="43.22596" lon="5.4825">
        <ele>446.4</ele>
        <time>2025-10-18T14:30:39Z</time>
      </trkpt>
      <trkpt lat="43.22596" lon="5.48251">
        <ele>446.4</ele>
        <time>2025-10-18T14:30:40Z</time>
      </trkpt>
      <trkpt lat="43.22597" lon="5.48253">
        <ele>446.4</ele>
        <time>2025-10-18T14:30:41Z</time>
      </trkpt>
      <trkpt lat="43.22597" lon="5.48254">
        <ele>446.4</ele>
        <time>2025-10-18T14:30:42Z</time>
      </trkpt>
      <trkpt lat="43.22596" lon="5.48255">
        <ele>446.4</ele>
        <time>2025-10-18T14:30:43Z</time>
      </trkpt>
      <trkpt lat="43.22596" lon="5.48257">
        <ele>446.4</ele>
        <time>2025-10-18T14:30:44Z</time>
      </trkpt>
      <trkpt lat="43.22596" lon="5.48258">
        <ele>446.5</ele>
        <time>2025-10-18T14:30:45Z</time>
      </trkpt>
      <trkpt lat="43.22596" lon="5.48259">
        <ele>446.5</ele>
        <time>2025-10-18T14:30:46Z</time>
      </trkpt>
      <trkpt lat="43.22597" lon="5.48261">
        <ele>446.6</ele>
        <time>2025-10-18T14:30:47Z</time>
      </trkpt>
      <trkpt lat="43.22597" lon="5.48262">
        <ele>446.6</ele>
        <time>2025-10-18T14:30:48Z</time>
      </trkpt>
      <trkpt lat="43.22597" lon="5.48263">
        <ele>446.7</ele>
        <time>2025-10-18T14:30:49Z</time>
      </trkpt>
      <trkpt lat="43.22597" lon="5.48264">
        <ele>446.7</ele>
        <time>2025-10-18T14:30:50Z</time>
      </trkpt>
      <trkpt lat="43.22597" lon="5.48265">
        <ele>446.7</ele>
        <time>2025-10-18T14:30:51Z</time>
      </trkpt>
      <trkpt lat="43.22597" lon="5.48266">
        <ele>446.7</ele>
        <time>2025-10-18T14:30:52Z</time>
      </trkpt>
      <trkpt lat="43.22597" lon="5.48267">
        <ele>446.7</ele>
        <time>2025-10-18T14:30:53Z</time>
      </trkpt>
      <trkpt lat="43.22597" lon="5.48268">
        <ele>446.7</ele>
        <time>2025-10-18T14:30:54Z</time>
      </trkpt>
      <trkpt lat="43.22597" lon="5.48269">
        <ele>446.8</ele>
        <time>2025-10-18T14:30:55Z</time>
      </trkpt>
      <trkpt lat="43.22597" lon="5.4827">
        <ele>446.8</ele>
        <time>2025-10-18T14:30:56Z</time>
      </trkpt>
      <trkpt lat="43.22598" lon="5.48271">
        <ele>446.8</ele>
        <time>2025-10-18T14:30:57Z</time>
      </trkpt>
      <trkpt lat="43.22598" lon="5.48272">
        <ele>446.8</ele>
        <time>2025-10-18T14:30:58Z</time>
      </trkpt>
      <trkpt lat="43.22598" lon="5.48273">
        <ele>446.8</ele>
        <time>2025-10-18T14:30:59Z</time>
      </trkpt>
      <trkpt lat="43.22598" lon="5.48274">
        <ele>446.8</ele>
        <time>2025-10-18T14:31:00Z</time>
      </trkpt>
      <trkpt lat="43.22599" lon="5.48275">
        <ele>446.8</ele>
        <time>2025-10-18T14:31:01Z</time>
      </trkpt>
      <trkpt lat="43.22599" lon="5.48276">
        <ele>446.9</ele>
        <time>2025-10-18T14:31:02Z</time>
      </trkpt>
      <trkpt lat="43.22599" lon="5.48277">
        <ele>447</ele>
        <time>2025-10-18T14:31:03Z</time>
      </trkpt>
      <trkpt lat="43.22599" lon="5.48278">
        <ele>447</ele>
        <time>2025-10-18T14:31:04Z</time>
      </trkpt>
      <trkpt lat="43.22599" lon="5.48279">
        <ele>447.1</ele>
        <time>2025-10-18T14:31:05Z</time>
      </trkpt>
      <trkpt lat="43.22599" lon="5.48281">
        <ele>447</ele>
        <time>2025-10-18T14:31:06Z</time>
      </trkpt>
      <trkpt lat="43.22599" lon="5.48282">
        <ele>446.9</ele>
        <time>2025-10-18T14:31:07Z</time>
      </trkpt>
      <trkpt lat="43.226" lon="5.48283">
        <ele>446.9</ele>
        <time>2025-10-18T14:31:08Z</time>
      </trkpt>
      <trkpt lat="43.226" lon="5.48284">
        <ele>446.9</ele>
        <time>2025-10-18T14:31:09Z</time>
      </trkpt>
      <trkpt lat="43.226" lon="5.48285">
        <ele>447</ele>
        <time>2025-10-18T14:31:10Z</time>
      </trkpt>
      <trkpt lat="43.226" lon="5.48286">
        <ele>447</ele>
        <time>2025-10-18T14:31:11Z</time>
      </trkpt>
      <trkpt lat="43.226" lon="5.48287">
        <ele>447.1</ele>
        <time>2025-10-18T14:31:12Z</time>
      </trkpt>
      <trkpt lat="43.226" lon="5.48288">
        <ele>447</ele>
        <time>2025-10-18T14:31:13Z</time>
      </trkpt>
      <trkpt lat="43.226" lon="5.48289">
        <ele>447</ele>
        <time>2025-10-18T14:31:14Z</time>
      </trkpt>
      <trkpt lat="43.226" lon="5.4829">
        <ele>447</ele>
        <time>2025-10-18T14:31:15Z</time>
      </trkpt>
      <trkpt lat="43.226" lon="5.48291">
        <ele>447</ele>
        <time>2025-10-18T14:31:16Z</time>
      </trkpt>
      <trkpt lat="43.226" lon="5.48292">
        <ele>446.9</ele>
        <time>2025-10-18T14:31:17Z</time>
      </trkpt>
      <trkpt lat="43.22601" lon="5.48293">
        <ele>446.9</ele>
        <time>2025-10-18T14:31:18Z</time>
      </trkpt>
      <trkpt lat="43.22601" lon="5.48294">
        <ele>446.8</ele>
        <time>2025-10-18T14:31:19Z</time>
      </trkpt>
      <trkpt lat="43.22601" lon="5.48296">
        <ele>446.7</ele>
        <time>2025-10-18T14:31:20Z</time>
      </trkpt>
      <trkpt lat="43.22601" lon="5.48297">
        <ele>446.6</ele>
        <time>2025-10-18T14:31:21Z</time>
      </trkpt>
      <trkpt lat="43.22601" lon="5.48298">
        <ele>446.5</ele>
        <time>2025-10-18T14:31:22Z</time>
      </trkpt>
      <trkpt lat="43.22602" lon="5.48299">
        <ele>446.5</ele>
        <time>2025-10-18T14:31:23Z</time>
      </trkpt>
      <trkpt lat="43.22601" lon="5.483">
        <ele>446.4</ele>
        <time>2025-10-18T14:31:24Z</time>
      </trkpt>
      <trkpt lat="43.22602" lon="5.48301">
        <ele>446.4</ele>
        <time>2025-10-18T14:31:25Z</time>
      </trkpt>
      <trkpt lat="43.22602" lon="5.48302">
        <ele>446.4</ele>
        <time>2025-10-18T14:31:26Z</time>
      </trkpt>
      <trkpt lat="43.22602" lon="5.48303">
        <ele>446.4</ele>
        <time>2025-10-18T14:31:27Z</time>
      </trkpt>
      <trkpt lat="43.22602" lon="5.48304">
        <ele>446.4</ele>
        <time>2025-10-18T14:31:28Z</time>
      </trkpt>
      <trkpt lat="43.22602" lon="5.48304">
        <ele>446.2</ele>
        <time>2025-10-18T14:31:29Z</time>
      </trkpt>
      <trkpt lat="43.22602" lon="5.48305">
        <ele>446.2</ele>
        <time>2025-10-18T14:31:30Z</time>
      </trkpt>
      <trkpt lat="43.22602" lon="5.48306">
        <ele>446.1</ele>
        <time>2025-10-18T14:31:31Z</time>
      </trkpt>
      <trkpt lat="43.22602" lon="5.48306">
        <ele>446</ele>
        <time>2025-10-18T14:31:32Z</time>
      </trkpt>
      <trkpt lat="43.22602" lon="5.48306">
        <ele>446</ele>
        <time>2025-10-18T14:31:33Z</time>
      </trkpt>
      <trkpt lat="43.22602" lon="5.48306">
        <ele>445.9</ele>
        <time>2025-10-18T14:31:34Z</time>
      </trkpt>
      <trkpt lat="43.22602" lon="5.48306">
        <ele>445.9</ele>
        <time>2025-10-18T14:31:35Z</time>
      </trkpt>
      <trkpt lat="43.22602" lon="5.48306">
        <ele>446</ele>
        <time>2025-10-18T14:31:36Z</time>
      </trkpt>
      <trkpt lat="43.22603" lon="5.48306">
        <ele>446</ele>
        <time>2025-10-18T14:31:37Z</time>
      </trkpt>
      <trkpt lat="43.22603" lon="5.48306">
        <ele>446</ele>
        <time>2025-10-18T14:31:38Z</time>
      </trkpt>
      <trkpt lat="43.22604" lon="5.48305">
        <ele>446</ele>
        <time>2025-10-18T14:31:39Z</time>
      </trkpt>
      <trkpt lat="43.22604" lon="5.48305">
        <ele>446</ele>
        <time>2025-10-18T14:31:40Z</time>
      </trkpt>
      <trkpt lat="43.22605" lon="5.48306">
        <ele>445.9</ele>
        <time>2025-10-18T14:31:41Z</time>
      </trkpt>
      <trkpt lat="43.22606" lon="5.48307">
        <ele>445.9</ele>
        <time>2025-10-18T14:31:42Z</time>
      </trkpt>
      <trkpt lat="43.22607" lon="5.48307">
        <ele>445.9</ele>
        <time>2025-10-18T14:31:43Z</time>
      </trkpt>
      <trkpt lat="43.22608" lon="5.48308">
        <ele>445.8</ele>
        <time>2025-10-18T14:31:44Z</time>
      </trkpt>
      <trkpt lat="43.22608" lon="5.48309">
        <ele>446.2</ele>
        <time>2025-10-18T14:31:45Z</time>
      </trkpt>
      <trkpt lat="43.22608" lon="5.4831">
        <ele>446.3</ele>
        <time>2025-10-18T14:31:46Z</time>
      </trkpt>
      <trkpt lat="43.22608" lon="5.48312">
        <ele>446.3</ele>
        <time>2025-10-18T14:31:47Z</time>
      </trkpt>
      <trkpt lat="43.22608" lon="5.48313">
        <ele>446.2</ele>
        <time>2025-10-18T14:31:48Z</time>
      </trkpt>
      <trkpt lat="43.22608" lon="5.48314">
        <ele>446.2</ele>
        <time>2025-10-18T14:31:49Z</time>
      </trkpt>
      <trkpt lat="43.22608" lon="5.48314">
        <ele>446.1</ele>
        <time>2025-10-18T14:31:50Z</time>
      </trkpt>
      <trkpt lat="43.22609" lon="5.48314">
        <ele>446.1</ele>
        <time>2025-10-18T14:31:51Z</time>
      </trkpt>
      <trkpt lat="43.22609" lon="5.48315">
        <ele>446.1</ele>
        <time>2025-10-18T14:31:52Z</time>
      </trkpt>
      <trkpt lat="43.2261" lon="5.48316">
        <ele>446.1</ele>
        <time>2025-10-18T14:31:53Z</time>
      </trkpt>
      <trkpt lat="43.2261" lon="5.48316">
        <ele>446.1</ele>
        <time>2025-10-18T14:31:54Z</time>
      </trkpt>
      <trkpt lat="43.2261" lon="5.48316">
        <ele>446</ele>
        <time>2025-10-18T14:31:55Z</time>
      </trkpt>
      <trkpt lat="43.2261" lon="5.48316">
        <ele>446</ele>
        <time>2025-10-18T14:31:56Z</time>
      </trkpt>
      <trkpt lat="43.2261" lon="5.48316">
        <ele>445.9</ele>
        <time>2025-10-18T14:31:57Z</time>
      </trkpt>
      <trkpt lat="43.2261" lon="5.48316">
        <ele>445.8</ele>
        <time>2025-10-18T14:31:58Z</time>
      </trkpt>
      <trkpt lat="43.2261" lon="5.48315">
        <ele>445.8</ele>
        <time>2025-10-18T14:31:59Z</time>
      </trkpt>
      <trkpt lat="43.2261" lon="5.48316">
        <ele>445.7</ele>
        <time>2025-10-18T14:32:00Z</time>
      </trkpt>
      <trkpt lat="43.22611" lon="5.48316">
        <ele>445.7</ele>
        <time>2025-10-18T14:32:01Z</time>
      </trkpt>
      <trkpt lat="43.22611" lon="5.48316">
        <ele>445.6</ele>
        <time>2025-10-18T14:32:02Z</time>
      </trkpt>
      <trkpt lat="43.22611" lon="5.48316">
        <ele>445.7</ele>
        <time>2025-10-18T14:32:03Z</time>
      </trkpt>
      <trkpt lat="43.22611" lon="5.48316">
        <ele>445.7</ele>
        <time>2025-10-18T14:32:04Z</time>
      </trkpt>
      <trkpt lat="43.22611" lon="5.48316">
        <ele>445.6</ele>
        <time>2025-10-18T14:32:05Z</time>
      </trkpt>
      <trkpt lat="43.22611" lon="5.48316">
        <ele>445.6</ele>
        <time>2025-10-18T14:32:06Z</time>
      </trkpt>
      <trkpt lat="43.22611" lon="5.48317">
        <ele>445.6</ele>
        <time>2025-10-18T14:32:07Z</time>
      </trkpt>
      <trkpt lat="43.22611" lon="5.48318">
        <ele>445.4</ele>
        <time>2025-10-18T14:32:08Z</time>
      </trkpt>
      <trkpt lat="43.22612" lon="5.48319">
        <ele>445.4</ele>
        <time>2025-10-18T14:32:09Z</time>
      </trkpt>
      <trkpt lat="43.22612" lon="5.48319">
        <ele>445.5</ele>
        <time>2025-10-18T14:32:10Z</time>
      </trkpt>
      <trkpt lat="43.22612" lon="5.4832">
        <ele>445.3</ele>
        <time>2025-10-18T14:32:11Z</time>
      </trkpt>
      <trkpt lat="43.22613" lon="5.48322">
        <ele>445.4</ele>
        <time>2025-10-18T14:32:12Z</time>
      </trkpt>
      <trkpt lat="43.22613" lon="5.48323">
        <ele>445.3</ele>
        <time>2025-10-18T14:32:13Z</time>
      </trkpt>
      <trkpt lat="43.22613" lon="5.48324">
        <ele>445.3</ele>
        <time>2025-10-18T14:32:14Z</time>
      </trkpt>
      <trkpt lat="43.22614" lon="5.48325">
        <ele>445.3</ele>
        <time>2025-10-18T14:32:15Z</time>
      </trkpt>
      <trkpt lat="43.22614" lon="5.48326">
        <ele>445.2</ele>
        <time>2025-10-18T14:32:16Z</time>
      </trkpt>
      <trkpt lat="43.22615" lon="5.48328">
        <ele>445.2</ele>
        <time>2025-10-18T14:32:17Z</time>
      </trkpt>
      <trkpt lat="43.22615" lon="5.48328">
        <ele>445.2</ele>
        <time>2025-10-18T14:32:18Z</time>
      </trkpt>
      <trkpt lat="43.22615" lon="5.48329">
        <ele>445.1</ele>
        <time>2025-10-18T14:32:19Z</time>
      </trkpt>
      <trkpt lat="43.22616" lon="5.4833">
        <ele>445</ele>
        <time>2025-10-18T14:32:20Z</time>
      </trkpt>
      <trkpt lat="43.22616" lon="5.4833">
        <ele>445</ele>
        <time>2025-10-18T14:32:21Z</time>
      </trkpt>
      <trkpt lat="43.22616" lon="5.48331">
        <ele>444.9</ele>
        <time>2025-10-18T14:32:22Z</time>
      </trkpt>
      <trkpt lat="43.22617" lon="5.48332">
        <ele>444.8</ele>
        <time>2025-10-18T14:32:23Z</time>
      </trkpt>
      <trkpt lat="43.22618" lon="5.48334">
        <ele>444.8</ele>
        <time>2025-10-18T14:32:24Z</time>
      </trkpt>
      <trkpt lat="43.22618" lon="5.48335">
        <ele>444.8</ele>
        <time>2025-10-18T14:32:25Z</time>
      </trkpt>
      <trkpt lat="43.22619" lon="5.48336">
        <ele>444.8</ele>
        <time>2025-10-18T14:32:26Z</time>
      </trkpt>
      <trkpt lat="43.22619" lon="5.48336">
        <ele>444.8</ele>
        <time>2025-10-18T14:32:27Z</time>
      </trkpt>
      <trkpt lat="43.2262" lon="5.48337">
        <ele>444.6</ele>
        <time>2025-10-18T14:32:28Z</time>
      </trkpt>
      <trkpt lat="43.2262" lon="5.48338">
        <ele>444.5</ele>
        <time>2025-10-18T14:32:29Z</time>
      </trkpt>
      <trkpt lat="43.2262" lon="5.48339">
        <ele>444.4</ele>
        <time>2025-10-18T14:32:30Z</time>
      </trkpt>
      <trkpt lat="43.2262" lon="5.48339">
        <ele>444.3</ele>
        <time>2025-10-18T14:32:31Z</time>
      </trkpt>
      <trkpt lat="43.2262" lon="5.4834">
        <ele>444.2</ele>
        <time>2025-10-18T14:32:32Z</time>
      </trkpt>
      <trkpt lat="43.22621" lon="5.48341">
        <ele>444.2</ele>
        <time>2025-10-18T14:32:33Z</time>
      </trkpt>
      <trkpt lat="43.22621" lon="5.48342">
        <ele>444.1</ele>
        <time>2025-10-18T14:32:34Z</time>
      </trkpt>
      <trkpt lat="43.22622" lon="5.48342">
        <ele>444.1</ele>
        <time>2025-10-18T14:32:35Z</time>
      </trkpt>
      <trkpt lat="43.22622" lon="5.48343">
        <ele>444</ele>
        <time>2025-10-18T14:32:36Z</time>
      </trkpt>
      <trkpt lat="43.22623" lon="5.48343">
        <ele>444</ele>
        <time>2025-10-18T14:32:37Z</time>
      </trkpt>
      <trkpt lat="43.22623" lon="5.48344">
        <ele>444</ele>
        <time>2025-10-18T14:32:38Z</time>
      </trkpt>
      <trkpt lat="43.22623" lon="5.48345">
        <ele>443.9</ele>
        <time>2025-10-18T14:32:39Z</time>
      </trkpt>
      <trkpt lat="43.22624" lon="5.48347">
        <ele>443.9</ele>
        <time>2025-10-18T14:32:40Z</time>
      </trkpt>
      <trkpt lat="43.22624" lon="5.48348">
        <ele>443.8</ele>
        <time>2025-10-18T14:32:41Z</time>
      </trkpt>
      <trkpt lat="43.22625" lon="5.48349">
        <ele>443.8</ele>
        <time>2025-10-18T14:32:42Z</time>
      </trkpt>
      <trkpt lat="43.22625" lon="5.4835">
        <ele>443.7</ele>
        <time>2025-10-18T14:32:43Z</time>
      </trkpt>
      <trkpt lat="43.22626" lon="5.48351">
        <ele>443.7</ele>
        <time>2025-10-18T14:32:44Z</time>
      </trkpt>
      <trkpt lat="43.22627" lon="5.48352">
        <ele>443.6</ele>
        <time>2025-10-18T14:32:45Z</time>
      </trkpt>
      <trkpt lat="43.22627" lon="5.48353">
        <ele>443.6</ele>
        <time>2025-10-18T14:32:46Z</time>
      </trkpt>
      <trkpt lat="43.22628" lon="5.48354">
        <ele>443.5</ele>
        <time>2025-10-18T14:32:47Z</time>
      </trkpt>
      <trkpt lat="43.22628" lon="5.48355">
        <ele>443.4</ele>
        <time>2025-10-18T14:32:48Z</time>
      </trkpt>
      <trkpt lat="43.22629" lon="5.48356">
        <ele>443.3</ele>
        <time>2025-10-18T14:32:49Z</time>
      </trkpt>
      <trkpt lat="43.22629" lon="5.48357">
        <ele>443.2</ele>
        <time>2025-10-18T14:32:50Z</time>
      </trkpt>
      <trkpt lat="43.2263" lon="5.48357">
        <ele>443.2</ele>
        <time>2025-10-18T14:32:51Z</time>
      </trkpt>
      <trkpt lat="43.2263" lon="5.48358">
        <ele>443.1</ele>
        <time>2025-10-18T14:32:52Z</time>
      </trkpt>
      <trkpt lat="43.22631" lon="5.48359">
        <ele>443.1</ele>
        <time>2025-10-18T14:32:53Z</time>
      </trkpt>
      <trkpt lat="43.22631" lon="5.4836">
        <ele>443.1</ele>
        <time>2025-10-18T14:32:54Z</time>
      </trkpt>
      <trkpt lat="43.22632" lon="5.48361">
        <ele>443.1</ele>
        <time>2025-10-18T14:32:55Z</time>
      </trkpt>
      <trkpt lat="43.22632" lon="5.48362">
        <ele>443</ele>
        <time>2025-10-18T14:32:56Z</time>
      </trkpt>
      <trkpt lat="43.22633" lon="5.48363">
        <ele>443</ele>
        <time>2025-10-18T14:32:57Z</time>
      </trkpt>
      <trkpt lat="43.22634" lon="5.48364">
        <ele>443.1</ele>
        <time>2025-10-18T14:32:58Z</time>
      </trkpt>
      <trkpt lat="43.22634" lon="5.48365">
        <ele>443.1</ele>
        <time>2025-10-18T14:32:59Z</time>
      </trkpt>
      <trkpt lat="43.22635" lon="5.48366">
        <ele>443</ele>
        <time>2025-10-18T14:33:00Z</time>
      </trkpt>
      <trkpt lat="43.22635" lon="5.48367">
        <ele>443</ele>
        <time>2025-10-18T14:33:01Z</time>
      </trkpt>
      <trkpt lat="43.22636" lon="5.48368">
        <ele>443</ele>
        <time>2025-10-18T14:33:02Z</time>
      </trkpt>
      <trkpt lat="43.22637" lon="5.48369">
        <ele>442.9</ele>
        <time>2025-10-18T14:33:03Z</time>
      </trkpt>
      <trkpt lat="43.22637" lon="5.4837">
        <ele>442.8</ele>
        <time>2025-10-18T14:33:04Z</time>
      </trkpt>
      <trkpt lat="43.22638" lon="5.48371">
        <ele>442.8</ele>
        <time>2025-10-18T14:33:05Z</time>
      </trkpt>
      <trkpt lat="43.22638" lon="5.48372">
        <ele>442.7</ele>
        <time>2025-10-18T14:33:06Z</time>
      </trkpt>
      <trkpt lat="43.22639" lon="5.48374">
        <ele>442.6</ele>
        <time>2025-10-18T14:33:07Z</time>
      </trkpt>
      <trkpt lat="43.2264" lon="5.48375">
        <ele>442.6</ele>
        <time>2025-10-18T14:33:08Z</time>
      </trkpt>
      <trkpt lat="43.2264" lon="5.48376">
        <ele>442.5</ele>
        <time>2025-10-18T14:33:09Z</time>
      </trkpt>
      <trkpt lat="43.22641" lon="5.48377">
        <ele>442.3</ele>
        <time>2025-10-18T14:33:10Z</time>
      </trkpt>
      <trkpt lat="43.22642" lon="5.48378">
        <ele>442.3</ele>
        <time>2025-10-18T14:33:11Z</time>
      </trkpt>
      <trkpt lat="43.22642" lon="5.48379">
        <ele>442.2</ele>
        <time>2025-10-18T14:33:12Z</time>
      </trkpt>
      <trkpt lat="43.22643" lon="5.4838">
        <ele>442.2</ele>
        <time>2025-10-18T14:33:13Z</time>
      </trkpt>
      <trkpt lat="43.22643" lon="5.48381">
        <ele>442.1</ele>
        <time>2025-10-18T14:33:14Z</time>
      </trkpt>
      <trkpt lat="43.22644" lon="5.48381">
        <ele>442</ele>
        <time>2025-10-18T14:33:15Z</time>
      </trkpt>
      <trkpt lat="43.22644" lon="5.48382">
        <ele>442.1</ele>
        <time>2025-10-18T14:33:16Z</time>
      </trkpt>
      <trkpt lat="43.22645" lon="5.48383">
        <ele>442.1</ele>
        <time>2025-10-18T14:33:17Z</time>
      </trkpt>
      <trkpt lat="43.22646" lon="5.48384">
        <ele>442.1</ele>
        <time>2025-10-18T14:33:18Z</time>
      </trkpt>
      <trkpt lat="43.22646" lon="5.48385">
        <ele>442</ele>
        <time>2025-10-18T14:33:19Z</time>
      </trkpt>
      <trkpt lat="43.22646" lon="5.48386">
        <ele>441.9</ele>
        <time>2025-10-18T14:33:20Z</time>
      </trkpt>
      <trkpt lat="43.22647" lon="5.48386">
        <ele>441.8</ele>
        <time>2025-10-18T14:33:21Z</time>
      </trkpt>
      <trkpt lat="43.22648" lon="5.48387">
        <ele>441.7</ele>
        <time>2025-10-18T14:33:22Z</time>
      </trkpt>
      <trkpt lat="43.22648" lon="5.48388">
        <ele>441.7</ele>
        <time>2025-10-18T14:33:23Z</time>
      </trkpt>
      <trkpt lat="43.22649" lon="5.4839">
        <ele>441.5</ele>
        <time>2025-10-18T14:33:24Z</time>
      </trkpt>
      <trkpt lat="43.22649" lon="5.48391">
        <ele>441.5</ele>
        <time>2025-10-18T14:33:25Z</time>
      </trkpt>
      <trkpt lat="43.2265" lon="5.48392">
        <ele>441.3</ele>
        <time>2025-10-18T14:33:26Z</time>
      </trkpt>
      <trkpt lat="43.22651" lon="5.48393">
        <ele>441.2</ele>
        <time>2025-10-18T14:33:27Z</time>
      </trkpt>
      <trkpt lat="43.22651" lon="5.48394">
        <ele>440.9</ele>
        <time>2025-10-18T14:33:28Z</time>
      </trkpt>
      <trkpt lat="43.22651" lon="5.48395">
        <ele>440.7</ele>
        <time>2025-10-18T14:33:29Z</time>
      </trkpt>
      <trkpt lat="43.22652" lon="5.48396">
        <ele>440.7</ele>
        <time>2025-10-18T14:33:30Z</time>
      </trkpt>
      <trkpt lat="43.22653" lon="5.48397">
        <ele>440.6</ele>
        <time>2025-10-18T14:33:31Z</time>
      </trkpt>
      <trkpt lat="43.22653" lon="5.48398">
        <ele>440.5</ele>
        <time>2025-10-18T14:33:32Z</time>
      </trkpt>
      <trkpt lat="43.22654" lon="5.48399">
        <ele>440.4</ele>
        <time>2025-10-18T14:33:33Z</time>
      </trkpt>
      <trkpt lat="43.22654" lon="5.484">
        <ele>440.3</ele>
        <time>2025-10-18T14:33:34Z</time>
      </trkpt>
      <trkpt lat="43.22654" lon="5.484">
        <ele>440.2</ele>
        <time>2025-10-18T14:33:35Z</time>
      </trkpt>
      <trkpt lat="43.22654" lon="5.484">
        <ele>440.1</ele>
        <time>2025-10-18T14:33:36Z</time>
      </trkpt>
      <trkpt lat="43.22654" lon="5.48401">
        <ele>439.9</ele>
        <time>2025-10-18T14:33:37Z</time>
      </trkpt>
      <trkpt lat="43.22654" lon="5.48401">
        <ele>439.8</ele>
        <time>2025-10-18T14:33:38Z</time>
      </trkpt>
      <trkpt lat="43.22654" lon="5.48401">
        <ele>439.7</ele>
        <time>2025-10-18T14:33:39Z</time>
      </trkpt>
      <trkpt lat="43.22654" lon="5.48402">
        <ele>439.6</ele>
        <time>2025-10-18T14:33:40Z</time>
      </trkpt>
      <trkpt lat="43.22655" lon="5.48403">
        <ele>439.6</ele>
        <time>2025-10-18T14:33:41Z</time>
      </trkpt>
      <trkpt lat="43.22656" lon="5.48405">
        <ele>439.5</ele>
        <time>2025-10-18T14:33:42Z</time>
      </trkpt>
      <trkpt lat="43.22656" lon="5.48406">
        <ele>439.4</ele>
        <time>2025-10-18T14:33:43Z</time>
      </trkpt>
      <trkpt lat="43.22657" lon="5.48407">
        <ele>439.4</ele>
        <time>2025-10-18T14:33:44Z</time>
      </trkpt>
      <trkpt lat="43.22657" lon="5.48408">
        <ele>439.3</ele>
        <time>2025-10-18T14:33:45Z</time>
      </trkpt>
      <trkpt lat="43.22658" lon="5.48409">
        <ele>439.2</ele>
        <time>2025-10-18T14:33:46Z</time>
      </trkpt>
      <trkpt lat="43.22659" lon="5.4841">
        <ele>439.1</ele>
        <time>2025-10-18T14:33:47Z</time>
      </trkpt>
      <trkpt lat="43.22659" lon="5.4841">
        <ele>439.1</ele>
        <time>2025-10-18T14:33:48Z</time>
      </trkpt>
      <trkpt lat="43.22659" lon="5.48411">
        <ele>439</ele>
        <time>2025-10-18T14:33:49Z</time>
      </trkpt>
      <trkpt lat="43.22659" lon="5.48411">
        <ele>438.9</ele>
        <time>2025-10-18T14:33:50Z</time>
      </trkpt>
      <trkpt lat="43.22659" lon="5.48412">
        <ele>438.9</ele>
        <time>2025-10-18T14:33:51Z</time>
      </trkpt>
      <trkpt lat="43.2266" lon="5.48412">
        <ele>438.8</ele>
        <time>2025-10-18T14:33:52Z</time>
      </trkpt>
      <trkpt lat="43.22661" lon="5.48413">
        <ele>438.7</ele>
        <time>2025-10-18T14:33:53Z</time>
      </trkpt>
      <trkpt lat="43.22661" lon="5.48414">
        <ele>438.5</ele>
        <time>2025-10-18T14:33:54Z</time>
      </trkpt>
      <trkpt lat="43.22662" lon="5.48415">
        <ele>438.3</ele>
        <time>2025-10-18T14:33:55Z</time>
      </trkpt>
      <trkpt lat="43.22662" lon="5.48415">
        <ele>438.2</ele>
        <time>2025-10-18T14:33:56Z</time>
      </trkpt>
      <trkpt lat="43.22663" lon="5.48416">
        <ele>438.1</ele>
        <time>2025-10-18T14:33:57Z</time>
      </trkpt>
      <trkpt lat="43.22663" lon="5.48416">
        <ele>438</ele>
        <time>2025-10-18T14:33:58Z</time>
      </trkpt>
      <trkpt lat="43.22664" lon="5.48417">
        <ele>437.9</ele>
        <time>2025-10-18T14:33:59Z</time>
      </trkpt>
      <trkpt lat="43.22664" lon="5.48418">
        <ele>437.8</ele>
        <time>2025-10-18T14:34:00Z</time>
      </trkpt>
      <trkpt lat="43.22665" lon="5.48419">
        <ele>437.7</ele>
        <time>2025-10-18T14:34:01Z</time>
      </trkpt>
      <trkpt lat="43.22666" lon="5.4842">
        <ele>437.6</ele>
        <time>2025-10-18T14:34:02Z</time>
      </trkpt>
      <trkpt lat="43.22667" lon="5.4842">
        <ele>437.5</ele>
        <time>2025-10-18T14:34:03Z</time>
      </trkpt>
      <trkpt lat="43.22667" lon="5.48421">
        <ele>437.4</ele>
        <time>2025-10-18T14:34:04Z</time>
      </trkpt>
      <trkpt lat="43.22668" lon="5.48422">
        <ele>437.2</ele>
        <time>2025-10-18T14:34:05Z</time>
      </trkpt>
      <trkpt lat="43.22668" lon="5.48423">
        <ele>437.2</ele>
        <time>2025-10-18T14:34:06Z</time>
      </trkpt>
      <trkpt lat="43.22669" lon="5.48423">
        <ele>437</ele>
        <time>2025-10-18T14:34:07Z</time>
      </trkpt>
      <trkpt lat="43.22669" lon="5.48424">
        <ele>436.8</ele>
        <time>2025-10-18T14:34:08Z</time>
      </trkpt>
      <trkpt lat="43.2267" lon="5.48425">
        <ele>436.7</ele>
        <time>2025-10-18T14:34:09Z</time>
      </trkpt>
      <trkpt lat="43.2267" lon="5.48425">
        <ele>436.5</ele>
        <time>2025-10-18T14:34:10Z</time>
      </trkpt>
      <trkpt lat="43.22671" lon="5.48426">
        <ele>436.4</ele>
        <time>2025-10-18T14:34:11Z</time>
      </trkpt>
      <trkpt lat="43.22671" lon="5.48426">
        <ele>436.2</ele>
        <time>2025-10-18T14:34:12Z</time>
      </trkpt>
      <trkpt lat="43.22672" lon="5.48427">
        <ele>436.1</ele>
        <time>2025-10-18T14:34:13Z</time>
      </trkpt>
      <trkpt lat="43.22672" lon="5.48427">
        <ele>436</ele>
        <time>2025-10-18T14:34:14Z</time>
      </trkpt>
      <trkpt lat="43.22672" lon="5.48427">
        <ele>435.9</ele>
        <time>2025-10-18T14:34:15Z</time>
      </trkpt>
      <trkpt lat="43.22672" lon="5.48427">
        <ele>435.8</ele>
        <time>2025-10-18T14:34:16Z</time>
      </trkpt>
      <trkpt lat="43.22673" lon="5.48428">
        <ele>435.7</ele>
        <time>2025-10-18T14:34:17Z</time>
      </trkpt>
      <trkpt lat="43.22673" lon="5.48428">
        <ele>435.7</ele>
        <time>2025-10-18T14:34:18Z</time>
      </trkpt>
      <trkpt lat="43.22674" lon="5.48429">
        <ele>435.5</ele>
        <time>2025-10-18T14:34:19Z</time>
      </trkpt>
      <trkpt lat="43.22675" lon="5.4843">
        <ele>435.4</ele>
        <time>2025-10-18T14:34:20Z</time>
      </trkpt>
      <trkpt lat="43.22675" lon="5.4843">
        <ele>435.4</ele>
        <time>2025-10-18T14:34:21Z</time>
      </trkpt>
      <trkpt lat="43.22676" lon="5.48431">
        <ele>435.3</ele>
        <time>2025-10-18T14:34:22Z</time>
      </trkpt>
      <trkpt lat="43.22676" lon="5.48432">
        <ele>435.2</ele>
        <time>2025-10-18T14:34:23Z</time>
      </trkpt>
      <trkpt lat="43.22677" lon="5.48432">
        <ele>435</ele>
        <time>2025-10-18T14:34:24Z</time>
      </trkpt>
      <trkpt lat="43.22677" lon="5.48433">
        <ele>434.8</ele>
        <time>2025-10-18T14:34:25Z</time>
      </trkpt>
      <trkpt lat="43.22678" lon="5.48433">
        <ele>434.7</ele>
        <time>2025-10-18T14:34:26Z</time>
      </trkpt>
      <trkpt lat="43.22678" lon="5.48434">
        <ele>434.6</ele>
        <time>2025-10-18T14:34:27Z</time>
      </trkpt>
      <trkpt lat="43.22679" lon="5.48435">
        <ele>434.4</ele>
        <time>2025-10-18T14:34:28Z</time>
      </trkpt>
      <trkpt lat="43.22679" lon="5.48435">
        <ele>434.3</ele>
        <time>2025-10-18T14:34:29Z</time>
      </trkpt>
      <trkpt lat="43.2268" lon="5.48435">
        <ele>434.2</ele>
        <time>2025-10-18T14:34:30Z</time>
      </trkpt>
      <trkpt lat="43.22681" lon="5.48436">
        <ele>434.1</ele>
        <time>2025-10-18T14:34:31Z</time>
      </trkpt>
      <trkpt lat="43.22681" lon="5.48436">
        <ele>434</ele>
        <time>2025-10-18T14:34:32Z</time>
      </trkpt>
      <trkpt lat="43.22682" lon="5.48437">
        <ele>433.8</ele>
        <time>2025-10-18T14:34:33Z</time>
      </trkpt>
      <trkpt lat="43.22682" lon="5.48437">
        <ele>433.6</ele>
        <time>2025-10-18T14:34:34Z</time>
      </trkpt>
      <trkpt lat="43.22683" lon="5.48438">
        <ele>433.4</ele>
        <time>2025-10-18T14:34:35Z</time>
      </trkpt>
      <trkpt lat="43.22683" lon="5.48438">
        <ele>433.3</ele>
        <time>2025-10-18T14:34:36Z</time>
      </trkpt>
      <trkpt lat="43.22683" lon="5.48439">
        <ele>433.1</ele>
        <time>2025-10-18T14:34:37Z</time>
      </trkpt>
      <trkpt lat="43.22683" lon="5.4844">
        <ele>433</ele>
        <time>2025-10-18T14:34:38Z</time>
      </trkpt>
      <trkpt lat="43.22683" lon="5.48441">
        <ele>432.8</ele>
        <time>2025-10-18T14:34:39Z</time>
      </trkpt>
      <trkpt lat="43.22684" lon="5.48441">
        <ele>432.7</ele>
        <time>2025-10-18T14:34:40Z</time>
      </trkpt>
      <trkpt lat="43.22684" lon="5.48442">
        <ele>432.6</ele>
        <time>2025-10-18T14:34:41Z</time>
      </trkpt>
      <trkpt lat="43.22685" lon="5.48442">
        <ele>432.5</ele>
        <time>2025-10-18T14:34:42Z</time>
      </trkpt>
      <trkpt lat="43.22685" lon="5.48443">
        <ele>432.4</ele>
        <time>2025-10-18T14:34:43Z</time>
      </trkpt>
      <trkpt lat="43.22686" lon="5.48444">
        <ele>432.2</ele>
        <time>2025-10-18T14:34:44Z</time>
      </trkpt>
      <trkpt lat="43.22686" lon="5.48445">
        <ele>432.1</ele>
        <time>2025-10-18T14:34:45Z</time>
      </trkpt>
      <trkpt lat="43.22686" lon="5.48445">
        <ele>431.8</ele>
        <time>2025-10-18T14:34:46Z</time>
      </trkpt>
      <trkpt lat="43.22687" lon="5.48445">
        <ele>431.7</ele>
        <time>2025-10-18T14:34:47Z</time>
      </trkpt>
      <trkpt lat="43.22688" lon="5.48445">
        <ele>431.6</ele>
        <time>2025-10-18T14:34:48Z</time>
      </trkpt>
      <trkpt lat="43.22688" lon="5.48446">
        <ele>431.4</ele>
        <time>2025-10-18T14:34:49Z</time>
      </trkpt>
      <trkpt lat="43.22689" lon="5.48446">
        <ele>431.2</ele>
        <time>2025-10-18T14:34:50Z</time>
      </trkpt>
      <trkpt lat="43.22689" lon="5.48447">
        <ele>431</ele>
        <time>2025-10-18T14:34:51Z</time>
      </trkpt>
      <trkpt lat="43.22689" lon="5.48448">
        <ele>430.9</ele>
        <time>2025-10-18T14:34:52Z</time>
      </trkpt>
      <trkpt lat="43.2269" lon="5.48449">
        <ele>430.7</ele>
        <time>2025-10-18T14:34:53Z</time>
      </trkpt>
      <trkpt lat="43.2269" lon="5.4845">
        <ele>430.6</ele>
        <time>2025-10-18T14:34:54Z</time>
      </trkpt>
      <trkpt lat="43.22691" lon="5.4845">
        <ele>430.5</ele>
        <time>2025-10-18T14:34:55Z</time>
      </trkpt>
      <trkpt lat="43.22691" lon="5.48451">
        <ele>430.3</ele>
        <time>2025-10-18T14:34:56Z</time>
      </trkpt>
      <trkpt lat="43.22692" lon="5.48451">
        <ele>430.1</ele>
        <time>2025-10-18T14:34:57Z</time>
      </trkpt>
      <trkpt lat="43.22693" lon="5.48452">
        <ele>429.9</ele>
        <time>2025-10-18T14:34:58Z</time>
      </trkpt>
      <trkpt lat="43.22693" lon="5.48453">
        <ele>429.8</ele>
        <time>2025-10-18T14:34:59Z</time>
      </trkpt>
      <trkpt lat="43.22694" lon="5.48453">
        <ele>429.7</ele>
        <time>2025-10-18T14:35:00Z</time>
      </trkpt>
      <trkpt lat="43.22694" lon="5.48454">
        <ele>429.6</ele>
        <time>2025-10-18T14:35:01Z</time>
      </trkpt>
      <trkpt lat="43.22695" lon="5.48455">
        <ele>429.4</ele>
        <time>2025-10-18T14:35:02Z</time>
      </trkpt>
      <trkpt lat="43.22695" lon="5.48455">
        <ele>429.3</ele>
        <time>2025-10-18T14:35:03Z</time>
      </trkpt>
      <trkpt lat="43.22696" lon="5.48456">
        <ele>429.2</ele>
        <time>2025-10-18T14:35:04Z</time>
      </trkpt>
      <trkpt lat="43.22696" lon="5.48456">
        <ele>429.1</ele>
        <time>2025-10-18T14:35:05Z</time>
      </trkpt>
      <trkpt lat="43.22697" lon="5.48457">
        <ele>429</ele>
        <time>2025-10-18T14:35:06Z</time>
      </trkpt>
      <trkpt lat="43.22697" lon="5.48458">
        <ele>428.9</ele>
        <time>2025-10-18T14:35:07Z</time>
      </trkpt>
      <trkpt lat="43.22698" lon="5.48458">
        <ele>428.7</ele>
        <time>2025-10-18T14:35:08Z</time>
      </trkpt>
      <trkpt lat="43.22698" lon="5.48459">
        <ele>428.6</ele>
        <time>2025-10-18T14:35:09Z</time>
      </trkpt>
      <trkpt lat="43.22698" lon="5.4846">
        <ele>428.5</ele>
        <time>2025-10-18T14:35:10Z</time>
      </trkpt>
      <trkpt lat="43.22699" lon="5.4846">
        <ele>428.4</ele>
        <time>2025-10-18T14:35:11Z</time>
      </trkpt>
      <trkpt lat="43.22699" lon="5.48461">
        <ele>428.1</ele>
        <time>2025-10-18T14:35:12Z</time>
      </trkpt>
      <trkpt lat="43.22699" lon="5.48462">
        <ele>427.9</ele>
        <time>2025-10-18T14:35:13Z</time>
      </trkpt>
      <trkpt lat="43.227" lon="5.48463">
        <ele>427.8</ele>
        <time>2025-10-18T14:35:14Z</time>
      </trkpt>
      <trkpt lat="43.227" lon="5.48463">
        <ele>427.6</ele>
        <time>2025-10-18T14:35:15Z</time>
      </trkpt>
      <trkpt lat="43.22701" lon="5.48464">
        <ele>427.6</ele>
        <time>2025-10-18T14:35:16Z</time>
      </trkpt>
      <trkpt lat="43.22701" lon="5.48465">
        <ele>427.5</ele>
        <time>2025-10-18T14:35:17Z</time>
      </trkpt>
      <trkpt lat="43.22702" lon="5.48466">
        <ele>427.4</ele>
        <time>2025-10-18T14:35:18Z</time>
      </trkpt>
      <trkpt lat="43.22702" lon="5.48467">
        <ele>427.3</ele>
        <time>2025-10-18T14:35:19Z</time>
      </trkpt>
      <trkpt lat="43.22703" lon="5.48467">
        <ele>427.1</ele>
        <time>2025-10-18T14:35:20Z</time>
      </trkpt>
      <trkpt lat="43.22703" lon="5.48468">
        <ele>427</ele>
        <time>2025-10-18T14:35:21Z</time>
      </trkpt>
      <trkpt lat="43.22704" lon="5.48469">
        <ele>426.9</ele>
        <time>2025-10-18T14:35:22Z</time>
      </trkpt>
      <trkpt lat="43.22704" lon="5.4847">
        <ele>426.8</ele>
        <time>2025-10-18T14:35:23Z</time>
      </trkpt>
      <trkpt lat="43.22705" lon="5.48471">
        <ele>426.6</ele>
        <time>2025-10-18T14:35:24Z</time>
      </trkpt>
      <trkpt lat="43.22705" lon="5.48472">
        <ele>426.5</ele>
        <time>2025-10-18T14:35:25Z</time>
      </trkpt>
      <trkpt lat="43.22705" lon="5.48473">
        <ele>426.3</ele>
        <time>2025-10-18T14:35:26Z</time>
      </trkpt>
      <trkpt lat="43.22706" lon="5.48473">
        <ele>426.2</ele>
        <time>2025-10-18T14:35:27Z</time>
      </trkpt>
      <trkpt lat="43.22706" lon="5.48474">
        <ele>426</ele>
        <time>2025-10-18T14:35:28Z</time>
      </trkpt>
      <trkpt lat="43.22707" lon="5.48475">
        <ele>425.9</ele>
        <time>2025-10-18T14:35:29Z</time>
      </trkpt>
      <trkpt lat="43.22707" lon="5.48476">
        <ele>425.8</ele>
        <time>2025-10-18T14:35:30Z</time>
      </trkpt>
      <trkpt lat="43.22708" lon="5.48477">
        <ele>425.7</ele>
        <time>2025-10-18T14:35:31Z</time>
      </trkpt>
      <trkpt lat="43.22709" lon="5.48478">
        <ele>425.6</ele>
        <time>2025-10-18T14:35:32Z</time>
      </trkpt>
      <trkpt lat="43.22709" lon="5.48479">
        <ele>425.5</ele>
        <time>2025-10-18T14:35:33Z</time>
      </trkpt>
      <trkpt lat="43.2271" lon="5.4848">
        <ele>425.5</ele>
        <time>2025-10-18T14:35:34Z</time>
      </trkpt>
      <trkpt lat="43.2271" lon="5.48481">
        <ele>425.3</ele>
        <time>2025-10-18T14:35:35Z</time>
      </trkpt>
      <trkpt lat="43.22711" lon="5.48481">
        <ele>425.2</ele>
        <time>2025-10-18T14:35:36Z</time>
      </trkpt>
      <trkpt lat="43.22711" lon="5.48482">
        <ele>425.1</ele>
        <time>2025-10-18T14:35:37Z</time>
      </trkpt>
      <trkpt lat="43.22711" lon="5.48484">
        <ele>424.9</ele>
        <time>2025-10-18T14:35:38Z</time>
      </trkpt>
      <trkpt lat="43.22712" lon="5.48485">
        <ele>424.8</ele>
        <time>2025-10-18T14:35:39Z</time>
      </trkpt>
      <trkpt lat="43.22712" lon="5.48486">
        <ele>424.7</ele>
        <time>2025-10-18T14:35:40Z</time>
      </trkpt>
      <trkpt lat="43.22713" lon="5.48487">
        <ele>424.6</ele>
        <time>2025-10-18T14:35:41Z</time>
      </trkpt>
      <trkpt lat="43.22713" lon="5.48488">
        <ele>424.4</ele>
        <time>2025-10-18T14:35:42Z</time>
      </trkpt>
      <trkpt lat="43.22714" lon="5.48489">
        <ele>424.3</ele>
        <time>2025-10-18T14:35:43Z</time>
      </trkpt>
      <trkpt lat="43.22714" lon="5.4849">
        <ele>424.2</ele>
        <time>2025-10-18T14:35:44Z</time>
      </trkpt>
      <trkpt lat="43.22714" lon="5.48492">
        <ele>424</ele>
        <time>2025-10-18T14:35:45Z</time>
      </trkpt>
      <trkpt lat="43.22715" lon="5.48493">
        <ele>424</ele>
        <time>2025-10-18T14:35:46Z</time>
      </trkpt>
      <trkpt lat="43.22715" lon="5.48494">
        <ele>424</ele>
        <time>2025-10-18T14:35:47Z</time>
      </trkpt>
      <trkpt lat="43.22715" lon="5.48495">
        <ele>423.9</ele>
        <time>2025-10-18T14:35:48Z</time>
      </trkpt>
      <trkpt lat="43.22716" lon="5.48496">
        <ele>423.9</ele>
        <time>2025-10-18T14:35:49Z</time>
      </trkpt>
      <trkpt lat="43.22716" lon="5.48498">
        <ele>423.7</ele>
        <time>2025-10-18T14:35:50Z</time>
      </trkpt>
      <trkpt lat="43.22716" lon="5.48499">
        <ele>423.7</ele>
        <time>2025-10-18T14:35:51Z</time>
      </trkpt>
      <trkpt lat="43.22716" lon="5.485">
        <ele>423.6</ele>
        <time>2025-10-18T14:35:52Z</time>
      </trkpt>
      <trkpt lat="43.22716" lon="5.48502">
        <ele>423.5</ele>
        <time>2025-10-18T14:35:53Z</time>
      </trkpt>
      <trkpt lat="43.22716" lon="5.48503">
        <ele>423.5</ele>
        <time>2025-10-18T14:35:54Z</time>
      </trkpt>
      <trkpt lat="43.22717" lon="5.48504">
        <ele>423.4</ele>
        <time>2025-10-18T14:35:55Z</time>
      </trkpt>
      <trkpt lat="43.22718" lon="5.48505">
        <ele>423.4</ele>
        <time>2025-10-18T14:35:56Z</time>
      </trkpt>
      <trkpt lat="43.22718" lon="5.48506">
        <ele>423.4</ele>
        <time>2025-10-18T14:35:57Z</time>
      </trkpt>
      <trkpt lat="43.22718" lon="5.48507">
        <ele>423.3</ele>
        <time>2025-10-18T14:35:58Z</time>
      </trkpt>
      <trkpt lat="43.22719" lon="5.48508">
        <ele>423.3</ele>
        <time>2025-10-18T14:35:59Z</time>
      </trkpt>
      <trkpt lat="43.22719" lon="5.48509">
        <ele>423.2</ele>
        <time>2025-10-18T14:36:00Z</time>
      </trkpt>
      <trkpt lat="43.22719" lon="5.48511">
        <ele>423</ele>
        <time>2025-10-18T14:36:01Z</time>
      </trkpt>
      <trkpt lat="43.22719" lon="5.48512">
        <ele>422.8</ele>
        <time>2025-10-18T14:36:02Z</time>
      </trkpt>
      <trkpt lat="43.2272" lon="5.48513">
        <ele>422.7</ele>
        <time>2025-10-18T14:36:03Z</time>
      </trkpt>
      <trkpt lat="43.2272" lon="5.48514">
        <ele>422.6</ele>
        <time>2025-10-18T14:36:04Z</time>
      </trkpt>
      <trkpt lat="43.22721" lon="5.48515">
        <ele>422.5</ele>
        <time>2025-10-18T14:36:05Z</time>
      </trkpt>
      <trkpt lat="43.22721" lon="5.48516">
        <ele>422.5</ele>
        <time>2025-10-18T14:36:06Z</time>
      </trkpt>
      <trkpt lat="43.22721" lon="5.48517">
        <ele>422.3</ele>
        <time>2025-10-18T14:36:07Z</time>
      </trkpt>
      <trkpt lat="43.22721" lon="5.48518">
        <ele>422.2</ele>
        <time>2025-10-18T14:36:08Z</time>
      </trkpt>
      <trkpt lat="43.22721" lon="5.4852">
        <ele>422</ele>
        <time>2025-10-18T14:36:09Z</time>
      </trkpt>
      <trkpt lat="43.22722" lon="5.48521">
        <ele>421.9</ele>
        <time>2025-10-18T14:36:10Z</time>
      </trkpt>
      <trkpt lat="43.22722" lon="5.48522">
        <ele>421.8</ele>
        <time>2025-10-18T14:36:11Z</time>
      </trkpt>
      <trkpt lat="43.22722" lon="5.48523">
        <ele>421.7</ele>
        <time>2025-10-18T14:36:12Z</time>
      </trkpt>
      <trkpt lat="43.22722" lon="5.48524">
        <ele>421.5</ele>
        <time>2025-10-18T14:36:13Z</time>
      </trkpt>
      <trkpt lat="43.22722" lon="5.48525">
        <ele>421.4</ele>
        <time>2025-10-18T14:36:14Z</time>
      </trkpt>
      <trkpt lat="43.22722" lon="5.48526">
        <ele>421.3</ele>
        <time>2025-10-18T14:36:15Z</time>
      </trkpt>
      <trkpt lat="43.22722" lon="5.48527">
        <ele>421.1</ele>
        <time>2025-10-18T14:36:16Z</time>
      </trkpt>
      <trkpt lat="43.22722" lon="5.48528">
        <ele>420.9</ele>
        <time>2025-10-18T14:36:17Z</time>
      </trkpt>
      <trkpt lat="43.22723" lon="5.48529">
        <ele>420.8</ele>
        <time>2025-10-18T14:36:18Z</time>
      </trkpt>
      <trkpt lat="43.22723" lon="5.4853">
        <ele>420.8</ele>
        <time>2025-10-18T14:36:19Z</time>
      </trkpt>
      <trkpt lat="43.22723" lon="5.48531">
        <ele>420.5</ele>
        <time>2025-10-18T14:36:20Z</time>
      </trkpt>
      <trkpt lat="43.22724" lon="5.48532">
        <ele>420.4</ele>
        <time>2025-10-18T14:36:21Z</time>
      </trkpt>
      <trkpt lat="43.22725" lon="5.48533">
        <ele>420.3</ele>
        <time>2025-10-18T14:36:22Z</time>
      </trkpt>
      <trkpt lat="43.22725" lon="5.48534">
        <ele>420.1</ele>
        <time>2025-10-18T14:36:23Z</time>
      </trkpt>
      <trkpt lat="43.22725" lon="5.48536">
        <ele>420</ele>
        <time>2025-10-18T14:36:24Z</time>
      </trkpt>
      <trkpt lat="43.22725" lon="5.48537">
        <ele>419.8</ele>
        <time>2025-10-18T14:36:25Z</time>
      </trkpt>
      <trkpt lat="43.22725" lon="5.48538">
        <ele>419.8</ele>
        <time>2025-10-18T14:36:26Z</time>
      </trkpt>
      <trkpt lat="43.22726" lon="5.48539">
        <ele>419.7</ele>
        <time>2025-10-18T14:36:27Z</time>
      </trkpt>
      <trkpt lat="43.22726" lon="5.48541">
        <ele>419.7</ele>
        <time>2025-10-18T14:36:28Z</time>
      </trkpt>
      <trkpt lat="43.22726" lon="5.48542">
        <ele>419.5</ele>
        <time>2025-10-18T14:36:29Z</time>
      </trkpt>
      <trkpt lat="43.22726" lon="5.48543">
        <ele>419.4</ele>
        <time>2025-10-18T14:36:30Z</time>
      </trkpt>
      <trkpt lat="43.22727" lon="5.48544">
        <ele>419.3</ele>
        <time>2025-10-18T14:36:31Z</time>
      </trkpt>
      <trkpt lat="43.22727" lon="5.48546">
        <ele>419.2</ele>
        <time>2025-10-18T14:36:32Z</time>
      </trkpt>
      <trkpt lat="43.22727" lon="5.48547">
        <ele>419.2</ele>
        <time>2025-10-18T14:36:33Z</time>
      </trkpt>
      <trkpt lat="43.22728" lon="5.48548">
        <ele>419.1</ele>
        <time>2025-10-18T14:36:34Z</time>
      </trkpt>
      <trkpt lat="43.22728" lon="5.4855">
        <ele>419.1</ele>
        <time>2025-10-18T14:36:35Z</time>
      </trkpt>
      <trkpt lat="43.22728" lon="5.48551">
        <ele>419.1</ele>
        <time>2025-10-18T14:36:36Z</time>
      </trkpt>
      <trkpt lat="43.22729" lon="5.48551">
        <ele>419.1</ele>
        <time>2025-10-18T14:36:37Z</time>
      </trkpt>
      <trkpt lat="43.22729" lon="5.48552">
        <ele>419.1</ele>
        <time>2025-10-18T14:36:38Z</time>
      </trkpt>
      <trkpt lat="43.22729" lon="5.48553">
        <ele>419</ele>
        <time>2025-10-18T14:36:39Z</time>
      </trkpt>
      <trkpt lat="43.22729" lon="5.48554">
        <ele>419</ele>
        <time>2025-10-18T14:36:40Z</time>
      </trkpt>
      <trkpt lat="43.22729" lon="5.48555">
        <ele>419</ele>
        <time>2025-10-18T14:36:41Z</time>
      </trkpt>
      <trkpt lat="43.22729" lon="5.48556">
        <ele>418.9</ele>
        <time>2025-10-18T14:36:42Z</time>
      </trkpt>
      <trkpt lat="43.2273" lon="5.48558">
        <ele>418.9</ele>
        <time>2025-10-18T14:36:43Z</time>
      </trkpt>
      <trkpt lat="43.2273" lon="5.48559">
        <ele>418.8</ele>
        <time>2025-10-18T14:36:44Z</time>
      </trkpt>
      <trkpt lat="43.2273" lon="5.4856">
        <ele>418.9</ele>
        <time>2025-10-18T14:36:45Z</time>
      </trkpt>
      <trkpt lat="43.22731" lon="5.48561">
        <ele>419</ele>
        <time>2025-10-18T14:36:46Z</time>
      </trkpt>
      <trkpt lat="43.22731" lon="5.48563">
        <ele>419</ele>
        <time>2025-10-18T14:36:47Z</time>
      </trkpt>
      <trkpt lat="43.22731" lon="5.48564">
        <ele>419</ele>
        <time>2025-10-18T14:36:48Z</time>
      </trkpt>
      <trkpt lat="43.22732" lon="5.48565">
        <ele>418.9</ele>
        <time>2025-10-18T14:36:49Z</time>
      </trkpt>
      <trkpt lat="43.22732" lon="5.48566">
        <ele>418.8</ele>
        <time>2025-10-18T14:36:50Z</time>
      </trkpt>
      <trkpt lat="43.22732" lon="5.48567">
        <ele>418.8</ele>
        <time>2025-10-18T14:36:51Z</time>
      </trkpt>
      <trkpt lat="43.22732" lon="5.48568">
        <ele>418.7</ele>
        <time>2025-10-18T14:36:52Z</time>
      </trkpt>
      <trkpt lat="43.22733" lon="5.48569">
        <ele>418.7</ele>
        <time>2025-10-18T14:36:53Z</time>
      </trkpt>
      <trkpt lat="43.22733" lon="5.48571">
        <ele>418.6</ele>
        <time>2025-10-18T14:36:54Z</time>
      </trkpt>
      <trkpt lat="43.22733" lon="5.48572">
        <ele>418.6</ele>
        <time>2025-10-18T14:36:55Z</time>
      </trkpt>
      <trkpt lat="43.22734" lon="5.48573">
        <ele>418.5</ele>
        <time>2025-10-18T14:36:56Z</time>
      </trkpt>
      <trkpt lat="43.22734" lon="5.48575">
        <ele>418.4</ele>
        <time>2025-10-18T14:36:57Z</time>
      </trkpt>
      <trkpt lat="43.22734" lon="5.48576">
        <ele>418.3</ele>
        <time>2025-10-18T14:36:58Z</time>
      </trkpt>
      <trkpt lat="43.22734" lon="5.48577">
        <ele>418.2</ele>
        <time>2025-10-18T14:36:59Z</time>
      </trkpt>
      <trkpt lat="43.22735" lon="5.48579">
        <ele>418.2</ele>
        <time>2025-10-18T14:37:00Z</time>
      </trkpt>
      <trkpt lat="43.22735" lon="5.4858">
        <ele>418.1</ele>
        <time>2025-10-18T14:37:01Z</time>
      </trkpt>
      <trkpt lat="43.22735" lon="5.48581">
        <ele>418.2</ele>
        <time>2025-10-18T14:37:02Z</time>
      </trkpt>
      <trkpt lat="43.22736" lon="5.48582">
        <ele>418.1</ele>
        <time>2025-10-18T14:37:03Z</time>
      </trkpt>
      <trkpt lat="43.22737" lon="5.48583">
        <ele>418</ele>
        <time>2025-10-18T14:37:04Z</time>
      </trkpt>
      <trkpt lat="43.22737" lon="5.48585">
        <ele>418</ele>
        <time>2025-10-18T14:37:05Z</time>
      </trkpt>
      <trkpt lat="43.22738" lon="5.48586">
        <ele>417.9</ele>
        <time>2025-10-18T14:37:06Z</time>
      </trkpt>
      <trkpt lat="43.22738" lon="5.48587">
        <ele>417.8</ele>
        <time>2025-10-18T14:37:07Z</time>
      </trkpt>
      <trkpt lat="43.22739" lon="5.48588">
        <ele>417.8</ele>
        <time>2025-10-18T14:37:08Z</time>
      </trkpt>
      <trkpt lat="43.22739" lon="5.48589">
        <ele>417.7</ele>
        <time>2025-10-18T14:37:09Z</time>
      </trkpt>
      <trkpt lat="43.22739" lon="5.4859">
        <ele>417.7</ele>
        <time>2025-10-18T14:37:10Z</time>
      </trkpt>
      <trkpt lat="43.2274" lon="5.48591">
        <ele>417.6</ele>
        <time>2025-10-18T14:37:11Z</time>
      </trkpt>
      <trkpt lat="43.22741" lon="5.48592">
        <ele>417.5</ele>
        <time>2025-10-18T14:37:12Z</time>
      </trkpt>
      <trkpt lat="43.22741" lon="5.48593">
        <ele>417.5</ele>
        <time>2025-10-18T14:37:13Z</time>
      </trkpt>
      <trkpt lat="43.22742" lon="5.48594">
        <ele>417.4</ele>
        <time>2025-10-18T14:37:14Z</time>
      </trkpt>
      <trkpt lat="43.22742" lon="5.48595">
        <ele>417.3</ele>
        <time>2025-10-18T14:37:15Z</time>
      </trkpt>
      <trkpt lat="43.22743" lon="5.48596">
        <ele>417.2</ele>
        <time>2025-10-18T14:37:16Z</time>
      </trkpt>
      <trkpt lat="43.22743" lon="5.48598">
        <ele>417</ele>
        <time>2025-10-18T14:37:17Z</time>
      </trkpt>
      <trkpt lat="43.22744" lon="5.48599">
        <ele>416.9</ele>
        <time>2025-10-18T14:37:18Z</time>
      </trkpt>
      <trkpt lat="43.22744" lon="5.486">
        <ele>416.8</ele>
        <time>2025-10-18T14:37:19Z</time>
      </trkpt>
      <trkpt lat="43.22745" lon="5.48601">
        <ele>416.8</ele>
        <time>2025-10-18T14:37:20Z</time>
      </trkpt>
      <trkpt lat="43.22745" lon="5.48602">
        <ele>416.7</ele>
        <time>2025-10-18T14:37:21Z</time>
      </trkpt>
      <trkpt lat="43.22746" lon="5.48603">
        <ele>416.7</ele>
        <time>2025-10-18T14:37:22Z</time>
      </trkpt>
      <trkpt lat="43.22746" lon="5.48604">
        <ele>416.6</ele>
        <time>2025-10-18T14:37:23Z</time>
      </trkpt>
      <trkpt lat="43.22747" lon="5.48605">
        <ele>416.5</ele>
        <time>2025-10-18T14:37:24Z</time>
      </trkpt>
      <trkpt lat="43.22747" lon="5.48606">
        <ele>416.5</ele>
        <time>2025-10-18T14:37:25Z</time>
      </trkpt>
      <trkpt lat="43.22747" lon="5.48607">
        <ele>416.5</ele>
        <time>2025-10-18T14:37:26Z</time>
      </trkpt>
      <trkpt lat="43.22748" lon="5.48608">
        <ele>416.4</ele>
        <time>2025-10-18T14:37:27Z</time>
      </trkpt>
      <trkpt lat="43.22748" lon="5.48609">
        <ele>416.3</ele>
        <time>2025-10-18T14:37:28Z</time>
      </trkpt>
      <trkpt lat="43.22748" lon="5.4861">
        <ele>416.1</ele>
        <time>2025-10-18T14:37:29Z</time>
      </trkpt>
      <trkpt lat="43.22749" lon="5.48611">
        <ele>415.9</ele>
        <time>2025-10-18T14:37:30Z</time>
      </trkpt>
      <trkpt lat="43.22749" lon="5.48612">
        <ele>415.8</ele>
        <time>2025-10-18T14:37:31Z</time>
      </trkpt>
      <trkpt lat="43.2275" lon="5.48613">
        <ele>415.7</ele>
        <time>2025-10-18T14:37:32Z</time>
      </trkpt>
      <trkpt lat="43.2275" lon="5.48614">
        <ele>415.5</ele>
        <time>2025-10-18T14:37:33Z</time>
      </trkpt>
      <trkpt lat="43.2275" lon="5.48615">
        <ele>415.4</ele>
        <time>2025-10-18T14:37:34Z</time>
      </trkpt>
      <trkpt lat="43.22751" lon="5.48616">
        <ele>415.3</ele>
        <time>2025-10-18T14:37:35Z</time>
      </trkpt>
      <trkpt lat="43.22751" lon="5.48617">
        <ele>415.2</ele>
        <time>2025-10-18T14:37:36Z</time>
      </trkpt>
      <trkpt lat="43.22751" lon="5.48618">
        <ele>415.1</ele>
        <time>2025-10-18T14:37:37Z</time>
      </trkpt>
      <trkpt lat="43.22752" lon="5.48619">
        <ele>415</ele>
        <time>2025-10-18T14:37:38Z</time>
      </trkpt>
      <trkpt lat="43.22752" lon="5.4862">
        <ele>414.9</ele>
        <time>2025-10-18T14:37:39Z</time>
      </trkpt>
      <trkpt lat="43.22752" lon="5.48621">
        <ele>414.8</ele>
        <time>2025-10-18T14:37:40Z</time>
      </trkpt>
      <trkpt lat="43.22753" lon="5.48622">
        <ele>414.7</ele>
        <time>2025-10-18T14:37:41Z</time>
      </trkpt>
      <trkpt lat="43.22753" lon="5.48623">
        <ele>414.6</ele>
        <time>2025-10-18T14:37:42Z</time>
      </trkpt>
      <trkpt lat="43.22753" lon="5.48624">
        <ele>414.4</ele>
        <time>2025-10-18T14:37:43Z</time>
      </trkpt>
      <trkpt lat="43.22754" lon="5.48625">
        <ele>414.3</ele>
        <time>2025-10-18T14:37:44Z</time>
      </trkpt>
      <trkpt lat="43.22754" lon="5.48626">
        <ele>414.2</ele>
        <time>2025-10-18T14:37:45Z</time>
      </trkpt>
      <trkpt lat="43.22755" lon="5.48627">
        <ele>414.1</ele>
        <time>2025-10-18T14:37:46Z</time>
      </trkpt>
      <trkpt lat="43.22755" lon="5.48628">
        <ele>414</ele>
        <time>2025-10-18T14:37:47Z</time>
      </trkpt>
      <trkpt lat="43.22755" lon="5.48629">
        <ele>413.9</ele>
        <time>2025-10-18T14:37:48Z</time>
      </trkpt>
      <trkpt lat="43.22755" lon="5.4863">
        <ele>413.8</ele>
        <time>2025-10-18T14:37:49Z</time>
      </trkpt>
      <trkpt lat="43.22756" lon="5.48631">
        <ele>413.7</ele>
        <time>2025-10-18T14:37:50Z</time>
      </trkpt>
      <trkpt lat="43.22756" lon="5.48632">
        <ele>413.6</ele>
        <time>2025-10-18T14:37:51Z</time>
      </trkpt>
      <trkpt lat="43.22756" lon="5.48634">
        <ele>413.5</ele>
        <time>2025-10-18T14:37:52Z</time>
      </trkpt>
      <trkpt lat="43.22757" lon="5.48635">
        <ele>413.4</ele>
        <time>2025-10-18T14:37:53Z</time>
      </trkpt>
      <trkpt lat="43.22757" lon="5.48636">
        <ele>413.3</ele>
        <time>2025-10-18T14:37:54Z</time>
      </trkpt>
      <trkpt lat="43.22758" lon="5.48637">
        <ele>413.2</ele>
        <time>2025-10-18T14:37:55Z</time>
      </trkpt>
      <trkpt lat="43.22758" lon="5.48638">
        <ele>413.2</ele>
        <time>2025-10-18T14:37:56Z</time>
      </trkpt>
      <trkpt lat="43.22759" lon="5.48639">
        <ele>413.1</ele>
        <time>2025-10-18T14:37:57Z</time>
      </trkpt>
      <trkpt lat="43.22759" lon="5.4864">
        <ele>413</ele>
        <time>2025-10-18T14:37:58Z</time>
      </trkpt>
      <trkpt lat="43.22759" lon="5.48642">
        <ele>412.9</ele>
        <time>2025-10-18T14:37:59Z</time>
      </trkpt>
      <trkpt lat="43.2276" lon="5.48643">
        <ele>412.9</ele>
        <time>2025-10-18T14:38:00Z</time>
      </trkpt>
      <trkpt lat="43.2276" lon="5.48644">
        <ele>412.8</ele>
        <time>2025-10-18T14:38:01Z</time>
      </trkpt>
      <trkpt lat="43.2276" lon="5.48645">
        <ele>412.7</ele>
        <time>2025-10-18T14:38:02Z</time>
      </trkpt>
      <trkpt lat="43.22761" lon="5.48647">
        <ele>412.6</ele>
        <time>2025-10-18T14:38:03Z</time>
      </trkpt>
      <trkpt lat="43.22761" lon="5.48648">
        <ele>412.5</ele>
        <time>2025-10-18T14:38:04Z</time>
      </trkpt>
      <trkpt lat="43.22762" lon="5.48649">
        <ele>412.3</ele>
        <time>2025-10-18T14:38:05Z</time>
      </trkpt>
      <trkpt lat="43.22762" lon="5.4865">
        <ele>412.2</ele>
        <time>2025-10-18T14:38:06Z</time>
      </trkpt>
      <trkpt lat="43.22763" lon="5.48651">
        <ele>412.1</ele>
        <time>2025-10-18T14:38:07Z</time>
      </trkpt>
      <trkpt lat="43.22763" lon="5.48652">
        <ele>412</ele>
        <time>2025-10-18T14:38:08Z</time>
      </trkpt>
      <trkpt lat="43.22763" lon="5.48653">
        <ele>411.9</ele>
        <time>2025-10-18T14:38:09Z</time>
      </trkpt>
      <trkpt lat="43.22763" lon="5.48654">
        <ele>411.8</ele>
        <time>2025-10-18T14:38:10Z</time>
      </trkpt>
      <trkpt lat="43.22764" lon="5.48655">
        <ele>411.8</ele>
        <time>2025-10-18T14:38:11Z</time>
      </trkpt>
      <trkpt lat="43.22764" lon="5.48656">
        <ele>411.7</ele>
        <time>2025-10-18T14:38:12Z</time>
      </trkpt>
      <trkpt lat="43.22764" lon="5.48658">
        <ele>411.7</ele>
        <time>2025-10-18T14:38:13Z</time>
      </trkpt>
      <trkpt lat="43.22764" lon="5.48659">
        <ele>411.7</ele>
        <time>2025-10-18T14:38:14Z</time>
      </trkpt>
      <trkpt lat="43.22764" lon="5.4866">
        <ele>411.7</ele>
        <time>2025-10-18T14:38:15Z</time>
      </trkpt>
      <trkpt lat="43.22765" lon="5.48661">
        <ele>411.7</ele>
        <time>2025-10-18T14:38:16Z</time>
      </trkpt>
      <trkpt lat="43.22765" lon="5.48663">
        <ele>411.7</ele>
        <time>2025-10-18T14:38:17Z</time>
      </trkpt>
      <trkpt lat="43.22765" lon="5.48664">
        <ele>411.6</ele>
        <time>2025-10-18T14:38:18Z</time>
      </trkpt>
      <trkpt lat="43.22765" lon="5.48665">
        <ele>411.4</ele>
        <time>2025-10-18T14:38:19Z</time>
      </trkpt>
      <trkpt lat="43.22765" lon="5.48667">
        <ele>411.3</ele>
        <time>2025-10-18T14:38:20Z</time>
      </trkpt>
      <trkpt lat="43.22766" lon="5.48668">
        <ele>411.2</ele>
        <time>2025-10-18T14:38:21Z</time>
      </trkpt>
      <trkpt lat="43.22766" lon="5.48669">
        <ele>411.2</ele>
        <time>2025-10-18T14:38:22Z</time>
      </trkpt>
      <trkpt lat="43.22766" lon="5.48671">
        <ele>411.2</ele>
        <time>2025-10-18T14:38:23Z</time>
      </trkpt>
      <trkpt lat="43.22766" lon="5.48672">
        <ele>411.2</ele>
        <time>2025-10-18T14:38:24Z</time>
      </trkpt>
      <trkpt lat="43.22767" lon="5.48673">
        <ele>411.1</ele>
        <time>2025-10-18T14:38:25Z</time>
      </trkpt>
      <trkpt lat="43.22767" lon="5.48674">
        <ele>411</ele>
        <time>2025-10-18T14:38:26Z</time>
      </trkpt>
      <trkpt lat="43.22767" lon="5.48676">
        <ele>410.9</ele>
        <time>2025-10-18T14:38:27Z</time>
      </trkpt>
      <trkpt lat="43.22767" lon="5.48677">
        <ele>410.8</ele>
        <time>2025-10-18T14:38:28Z</time>
      </trkpt>
      <trkpt lat="43.22767" lon="5.48679">
        <ele>410.7</ele>
        <time>2025-10-18T14:38:29Z</time>
      </trkpt>
      <trkpt lat="43.22768" lon="5.4868">
        <ele>410.7</ele>
        <time>2025-10-18T14:38:30Z</time>
      </trkpt>
      <trkpt lat="43.22768" lon="5.48681">
        <ele>410.6</ele>
        <time>2025-10-18T14:38:31Z</time>
      </trkpt>
      <trkpt lat="43.22768" lon="5.48683">
        <ele>410.7</ele>
        <time>2025-10-18T14:38:32Z</time>
      </trkpt>
      <trkpt lat="43.22768" lon="5.48684">
        <ele>410.6</ele>
        <time>2025-10-18T14:38:33Z</time>
      </trkpt>
      <trkpt lat="43.22769" lon="5.48685">
        <ele>410.5</ele>
        <time>2025-10-18T14:38:34Z</time>
      </trkpt>
      <trkpt lat="43.22769" lon="5.48687">
        <ele>410.3</ele>
        <time>2025-10-18T14:38:35Z</time>
      </trkpt>
      <trkpt lat="43.22769" lon="5.48688">
        <ele>410.2</ele>
        <time>2025-10-18T14:38:36Z</time>
      </trkpt>
      <trkpt lat="43.22769" lon="5.48689">
        <ele>410.1</ele>
        <time>2025-10-18T14:38:37Z</time>
      </trkpt>
      <trkpt lat="43.22769" lon="5.48691">
        <ele>410</ele>
        <time>2025-10-18T14:38:38Z</time>
      </trkpt>
      <trkpt lat="43.2277" lon="5.48692">
        <ele>410</ele>
        <time>2025-10-18T14:38:39Z</time>
      </trkpt>
      <trkpt lat="43.2277" lon="5.48693">
        <ele>409.9</ele>
        <time>2025-10-18T14:38:40Z</time>
      </trkpt>
      <trkpt lat="43.2277" lon="5.48695">
        <ele>409.8</ele>
        <time>2025-10-18T14:38:41Z</time>
      </trkpt>
      <trkpt lat="43.2277" lon="5.48696">
        <ele>409.7</ele>
        <time>2025-10-18T14:38:42Z</time>
      </trkpt>
      <trkpt lat="43.2277" lon="5.48697">
        <ele>409.6</ele>
        <time>2025-10-18T14:38:43Z</time>
      </trkpt>
      <trkpt lat="43.22771" lon="5.48698">
        <ele>409.5</ele>
        <time>2025-10-18T14:38:44Z</time>
      </trkpt>
      <trkpt lat="43.22771" lon="5.48699">
        <ele>409.4</ele>
        <time>2025-10-18T14:38:45Z</time>
      </trkpt>
      <trkpt lat="43.22771" lon="5.48701">
        <ele>409.4</ele>
        <time>2025-10-18T14:38:46Z</time>
      </trkpt>
      <trkpt lat="43.22771" lon="5.48702">
        <ele>409.2</ele>
        <time>2025-10-18T14:38:47Z</time>
      </trkpt>
      <trkpt lat="43.22771" lon="5.48703">
        <ele>409.1</ele>
        <time>2025-10-18T14:38:48Z</time>
      </trkpt>
      <trkpt lat="43.22772" lon="5.48705">
        <ele>409</ele>
        <time>2025-10-18T14:38:49Z</time>
      </trkpt>
      <trkpt lat="43.22772" lon="5.48706">
        <ele>408.9</ele>
        <time>2025-10-18T14:38:50Z</time>
      </trkpt>
      <trkpt lat="43.22772" lon="5.48707">
        <ele>408.8</ele>
        <time>2025-10-18T14:38:51Z</time>
      </trkpt>
      <trkpt lat="43.22772" lon="5.48708">
        <ele>408.6</ele>
        <time>2025-10-18T14:38:52Z</time>
      </trkpt>
      <trkpt lat="43.22772" lon="5.48709">
        <ele>408.5</ele>
        <time>2025-10-18T14:38:53Z</time>
      </trkpt>
      <trkpt lat="43.22772" lon="5.48711">
        <ele>408.4</ele>
        <time>2025-10-18T14:38:54Z</time>
      </trkpt>
      <trkpt lat="43.22772" lon="5.48712">
        <ele>408.3</ele>
        <time>2025-10-18T14:38:55Z</time>
      </trkpt>
      <trkpt lat="43.22773" lon="5.48713">
        <ele>408.2</ele>
        <time>2025-10-18T14:38:56Z</time>
      </trkpt>
      <trkpt lat="43.22773" lon="5.48714">
        <ele>408</ele>
        <time>2025-10-18T14:38:57Z</time>
      </trkpt>
      <trkpt lat="43.22773" lon="5.48716">
        <ele>408</ele>
        <time>2025-10-18T14:38:58Z</time>
      </trkpt>
      <trkpt lat="43.22773" lon="5.48717">
        <ele>407.9</ele>
        <time>2025-10-18T14:38:59Z</time>
      </trkpt>
      <trkpt lat="43.22773" lon="5.48718">
        <ele>407.9</ele>
        <time>2025-10-18T14:39:00Z</time>
      </trkpt>
      <trkpt lat="43.22774" lon="5.48719">
        <ele>407.8</ele>
        <time>2025-10-18T14:39:01Z</time>
      </trkpt>
      <trkpt lat="43.22774" lon="5.4872">
        <ele>407.7</ele>
        <time>2025-10-18T14:39:02Z</time>
      </trkpt>
      <trkpt lat="43.22774" lon="5.48721">
        <ele>407.5</ele>
        <time>2025-10-18T14:39:03Z</time>
      </trkpt>
      <trkpt lat="43.22774" lon="5.48722">
        <ele>407.3</ele>
        <time>2025-10-18T14:39:04Z</time>
      </trkpt>
      <trkpt lat="43.22774" lon="5.48723">
        <ele>407.1</ele>
        <time>2025-10-18T14:39:05Z</time>
      </trkpt>
      <trkpt lat="43.22774" lon="5.48724">
        <ele>407.1</ele>
        <time>2025-10-18T14:39:06Z</time>
      </trkpt>
      <trkpt lat="43.22775" lon="5.48725">
        <ele>407</ele>
        <time>2025-10-18T14:39:07Z</time>
      </trkpt>
      <trkpt lat="43.22775" lon="5.48726">
        <ele>406.9</ele>
        <time>2025-10-18T14:39:08Z</time>
      </trkpt>
      <trkpt lat="43.22775" lon="5.48727">
        <ele>406.8</ele>
        <time>2025-10-18T14:39:09Z</time>
      </trkpt>
      <trkpt lat="43.22775" lon="5.48728">
        <ele>406.6</ele>
        <time>2025-10-18T14:39:10Z</time>
      </trkpt>
      <trkpt lat="43.22776" lon="5.48729">
        <ele>406.5</ele>
        <time>2025-10-18T14:39:11Z</time>
      </trkpt>
      <trkpt lat="43.22776" lon="5.48731">
        <ele>406.4</ele>
        <time>2025-10-18T14:39:12Z</time>
      </trkpt>
      <trkpt lat="43.22776" lon="5.48731">
        <ele>406.3</ele>
        <time>2025-10-18T14:39:13Z</time>
      </trkpt>
      <trkpt lat="43.22776" lon="5.48733">
        <ele>406.2</ele>
        <time>2025-10-18T14:39:14Z</time>
      </trkpt>
      <trkpt lat="43.22776" lon="5.48734">
        <ele>406</ele>
        <time>2025-10-18T14:39:15Z</time>
      </trkpt>
      <trkpt lat="43.22776" lon="5.48735">
        <ele>406</ele>
        <time>2025-10-18T14:39:16Z</time>
      </trkpt>
      <trkpt lat="43.22777" lon="5.48736">
        <ele>405.9</ele>
        <time>2025-10-18T14:39:17Z</time>
      </trkpt>
      <trkpt lat="43.22777" lon="5.48737">
        <ele>405.8</ele>
        <time>2025-10-18T14:39:18Z</time>
      </trkpt>
      <trkpt lat="43.22777" lon="5.48738">
        <ele>405.7</ele>
        <time>2025-10-18T14:39:19Z</time>
      </trkpt>
      <trkpt lat="43.22777" lon="5.48739">
        <ele>405.6</ele>
        <time>2025-10-18T14:39:20Z</time>
      </trkpt>
      <trkpt lat="43.22778" lon="5.4874">
        <ele>405.5</ele>
        <time>2025-10-18T14:39:21Z</time>
      </trkpt>
      <trkpt lat="43.22778" lon="5.48741">
        <ele>405.5</ele>
        <time>2025-10-18T14:39:22Z</time>
      </trkpt>
      <trkpt lat="43.22778" lon="5.48742">
        <ele>405.3</ele>
        <time>2025-10-18T14:39:23Z</time>
      </trkpt>
      <trkpt lat="43.22778" lon="5.48743">
        <ele>405</ele>
        <time>2025-10-18T14:39:24Z</time>
      </trkpt>
      <trkpt lat="43.22778" lon="5.48744">
        <ele>404.8</ele>
        <time>2025-10-18T14:39:25Z</time>
      </trkpt>
      <trkpt lat="43.22778" lon="5.48745">
        <ele>404.7</ele>
        <time>2025-10-18T14:39:26Z</time>
      </trkpt>
      <trkpt lat="43.22779" lon="5.48746">
        <ele>404.7</ele>
        <time>2025-10-18T14:39:27Z</time>
      </trkpt>
      <trkpt lat="43.22779" lon="5.48747">
        <ele>404.6</ele>
        <time>2025-10-18T14:39:28Z</time>
      </trkpt>
      <trkpt lat="43.22779" lon="5.48748">
        <ele>404.4</ele>
        <time>2025-10-18T14:39:29Z</time>
      </trkpt>
      <trkpt lat="43.22779" lon="5.48749">
        <ele>404.4</ele>
        <time>2025-10-18T14:39:30Z</time>
      </trkpt>
      <trkpt lat="43.2278" lon="5.4875">
        <ele>404.2</ele>
        <time>2025-10-18T14:39:31Z</time>
      </trkpt>
      <trkpt lat="43.2278" lon="5.48752">
        <ele>404.1</ele>
        <time>2025-10-18T14:39:32Z</time>
      </trkpt>
      <trkpt lat="43.2278" lon="5.48753">
        <ele>403.9</ele>
        <time>2025-10-18T14:39:33Z</time>
      </trkpt>
      <trkpt lat="43.2278" lon="5.48754">
        <ele>403.9</ele>
        <time>2025-10-18T14:39:34Z</time>
      </trkpt>
      <trkpt lat="43.22781" lon="5.48755">
        <ele>403.7</ele>
        <time>2025-10-18T14:39:35Z</time>
      </trkpt>
      <trkpt lat="43.22781" lon="5.48756">
        <ele>403.6</ele>
        <time>2025-10-18T14:39:36Z</time>
      </trkpt>
      <trkpt lat="43.22781" lon="5.48757">
        <ele>403.5</ele>
        <time>2025-10-18T14:39:37Z</time>
      </trkpt>
      <trkpt lat="43.22781" lon="5.48758">
        <ele>403.5</ele>
        <time>2025-10-18T14:39:38Z</time>
      </trkpt>
      <trkpt lat="43.22781" lon="5.48759">
        <ele>403.4</ele>
        <time>2025-10-18T14:39:39Z</time>
      </trkpt>
      <trkpt lat="43.22782" lon="5.4876">
        <ele>403.3</ele>
        <time>2025-10-18T14:39:40Z</time>
      </trkpt>
      <trkpt lat="43.22782" lon="5.48761">
        <ele>403.1</ele>
        <time>2025-10-18T14:39:41Z</time>
      </trkpt>
      <trkpt lat="43.22782" lon="5.48762">
        <ele>403</ele>
        <time>2025-10-18T14:39:42Z</time>
      </trkpt>
      <trkpt lat="43.22782" lon="5.48763">
        <ele>402.9</ele>
        <time>2025-10-18T14:39:43Z</time>
      </trkpt>
      <trkpt lat="43.22782" lon="5.48763">
        <ele>402.8</ele>
        <time>2025-10-18T14:39:44Z</time>
      </trkpt>
      <trkpt lat="43.22783" lon="5.48765">
        <ele>402.8</ele>
        <time>2025-10-18T14:39:45Z</time>
      </trkpt>
      <trkpt lat="43.22783" lon="5.48765">
        <ele>402.7</ele>
        <time>2025-10-18T14:39:46Z</time>
      </trkpt>
      <trkpt lat="43.22783" lon="5.48766">
        <ele>402.6</ele>
        <time>2025-10-18T14:39:47Z</time>
      </trkpt>
      <trkpt lat="43.22783" lon="5.48767">
        <ele>402.5</ele>
        <time>2025-10-18T14:39:48Z</time>
      </trkpt>
      <trkpt lat="43.22783" lon="5.48768">
        <ele>402.4</ele>
        <time>2025-10-18T14:39:49Z</time>
      </trkpt>
      <trkpt lat="43.22784" lon="5.48769">
        <ele>402.2</ele>
        <time>2025-10-18T14:39:50Z</time>
      </trkpt>
      <trkpt lat="43.22784" lon="5.48771">
        <ele>402.1</ele>
        <time>2025-10-18T14:39:51Z</time>
      </trkpt>
      <trkpt lat="43.22784" lon="5.48771">
        <ele>402</ele>
        <time>2025-10-18T14:39:52Z</time>
      </trkpt>
      <trkpt lat="43.22784" lon="5.48773">
        <ele>402</ele>
        <time>2025-10-18T14:39:53Z</time>
      </trkpt>
      <trkpt lat="43.22784" lon="5.48774">
        <ele>401.9</ele>
        <time>2025-10-18T14:39:54Z</time>
      </trkpt>
      <trkpt lat="43.22784" lon="5.48775">
        <ele>401.8</ele>
        <time>2025-10-18T14:39:55Z</time>
      </trkpt>
      <trkpt lat="43.22785" lon="5.48776">
        <ele>401.8</ele>
        <time>2025-10-18T14:39:56Z</time>
      </trkpt>
      <trkpt lat="43.22785" lon="5.48777">
        <ele>401.7</ele>
        <time>2025-10-18T14:39:57Z</time>
      </trkpt>
      <trkpt lat="43.22785" lon="5.48778">
        <ele>401.6</ele>
        <time>2025-10-18T14:39:58Z</time>
      </trkpt>
      <trkpt lat="43.22785" lon="5.48779">
        <ele>401.6</ele>
        <time>2025-10-18T14:39:59Z</time>
      </trkpt>
      <trkpt lat="43.22785" lon="5.48781">
        <ele>401.5</ele>
        <time>2025-10-18T14:40:00Z</time>
      </trkpt>
      <trkpt lat="43.22786" lon="5.48782">
        <ele>401.3</ele>
        <time>2025-10-18T14:40:01Z</time>
      </trkpt>
      <trkpt lat="43.22786" lon="5.48782">
        <ele>401.1</ele>
        <time>2025-10-18T14:40:02Z</time>
      </trkpt>
      <trkpt lat="43.22786" lon="5.48784">
        <ele>400.9</ele>
        <time>2025-10-18T14:40:03Z</time>
      </trkpt>
      <trkpt lat="43.22786" lon="5.48785">
        <ele>400.9</ele>
        <time>2025-10-18T14:40:04Z</time>
      </trkpt>
      <trkpt lat="43.22786" lon="5.48785">
        <ele>400.8</ele>
        <time>2025-10-18T14:40:05Z</time>
      </trkpt>
      <trkpt lat="43.22786" lon="5.48787">
        <ele>400.7</ele>
        <time>2025-10-18T14:40:06Z</time>
      </trkpt>
      <trkpt lat="43.22785" lon="5.48788">
        <ele>400.6</ele>
        <time>2025-10-18T14:40:07Z</time>
      </trkpt>
      <trkpt lat="43.22786" lon="5.48789">
        <ele>400.6</ele>
        <time>2025-10-18T14:40:08Z</time>
      </trkpt>
      <trkpt lat="43.22786" lon="5.4879">
        <ele>400.5</ele>
        <time>2025-10-18T14:40:09Z</time>
      </trkpt>
      <trkpt lat="43.22786" lon="5.48791">
        <ele>400.3</ele>
        <time>2025-10-18T14:40:10Z</time>
      </trkpt>
      <trkpt lat="43.22786" lon="5.48792">
        <ele>400.2</ele>
        <time>2025-10-18T14:40:11Z</time>
      </trkpt>
      <trkpt lat="43.22786" lon="5.48793">
        <ele>400</ele>
        <time>2025-10-18T14:40:12Z</time>
      </trkpt>
      <trkpt lat="43.22786" lon="5.48794">
        <ele>400</ele>
        <time>2025-10-18T14:40:13Z</time>
      </trkpt>
      <trkpt lat="43.22786" lon="5.48795">
        <ele>399.9</ele>
        <time>2025-10-18T14:40:14Z</time>
      </trkpt>
      <trkpt lat="43.22786" lon="5.48796">
        <ele>399.8</ele>
        <time>2025-10-18T14:40:15Z</time>
      </trkpt>
      <trkpt lat="43.22786" lon="5.48797">
        <ele>399.7</ele>
        <time>2025-10-18T14:40:16Z</time>
      </trkpt>
      <trkpt lat="43.22786" lon="5.48798">
        <ele>399.6</ele>
        <time>2025-10-18T14:40:17Z</time>
      </trkpt>
      <trkpt lat="43.22787" lon="5.48799">
        <ele>399.5</ele>
        <time>2025-10-18T14:40:18Z</time>
      </trkpt>
      <trkpt lat="43.22787" lon="5.48799">
        <ele>399.3</ele>
        <time>2025-10-18T14:40:19Z</time>
      </trkpt>
      <trkpt lat="43.22787" lon="5.48801">
        <ele>399.2</ele>
        <time>2025-10-18T14:40:20Z</time>
      </trkpt>
      <trkpt lat="43.22787" lon="5.48802">
        <ele>399.2</ele>
        <time>2025-10-18T14:40:21Z</time>
      </trkpt>
      <trkpt lat="43.22788" lon="5.48803">
        <ele>399</ele>
        <time>2025-10-18T14:40:22Z</time>
      </trkpt>
      <trkpt lat="43.22788" lon="5.48803">
        <ele>398.9</ele>
        <time>2025-10-18T14:40:23Z</time>
      </trkpt>
      <trkpt lat="43.22788" lon="5.48804">
        <ele>398.7</ele>
        <time>2025-10-18T14:40:24Z</time>
      </trkpt>
      <trkpt lat="43.22788" lon="5.48806">
        <ele>398.6</ele>
        <time>2025-10-18T14:40:25Z</time>
      </trkpt>
      <trkpt lat="43.22788" lon="5.48807">
        <ele>398.4</ele>
        <time>2025-10-18T14:40:26Z</time>
      </trkpt>
      <trkpt lat="43.22789" lon="5.48808">
        <ele>398.3</ele>
        <time>2025-10-18T14:40:27Z</time>
      </trkpt>
      <trkpt lat="43.22789" lon="5.48809">
        <ele>398.3</ele>
        <time>2025-10-18T14:40:28Z</time>
      </trkpt>
      <trkpt lat="43.22789" lon="5.48809">
        <ele>398.2</ele>
        <time>2025-10-18T14:40:29Z</time>
      </trkpt>
      <trkpt lat="43.2279" lon="5.4881">
        <ele>398</ele>
        <time>2025-10-18T14:40:30Z</time>
      </trkpt>
      <trkpt lat="43.2279" lon="5.48811">
        <ele>397.9</ele>
        <time>2025-10-18T14:40:31Z</time>
      </trkpt>
      <trkpt lat="43.2279" lon="5.48812">
        <ele>397.7</ele>
        <time>2025-10-18T14:40:32Z</time>
      </trkpt>
      <trkpt lat="43.2279" lon="5.48813">
        <ele>397.6</ele>
        <time>2025-10-18T14:40:33Z</time>
      </trkpt>
      <trkpt lat="43.2279" lon="5.48814">
        <ele>397.4</ele>
        <time>2025-10-18T14:40:34Z</time>
      </trkpt>
      <trkpt lat="43.2279" lon="5.48815">
        <ele>397.3</ele>
        <time>2025-10-18T14:40:35Z</time>
      </trkpt>
      <trkpt lat="43.2279" lon="5.48816">
        <ele>397.3</ele>
        <time>2025-10-18T14:40:36Z</time>
      </trkpt>
      <trkpt lat="43.22791" lon="5.48817">
        <ele>397.2</ele>
        <time>2025-10-18T14:40:37Z</time>
      </trkpt>
      <trkpt lat="43.22791" lon="5.48818">
        <ele>397.1</ele>
        <time>2025-10-18T14:40:38Z</time>
      </trkpt>
      <trkpt lat="43.22791" lon="5.48819">
        <ele>397.1</ele>
        <time>2025-10-18T14:40:39Z</time>
      </trkpt>
      <trkpt lat="43.22791" lon="5.4882">
        <ele>397</ele>
        <time>2025-10-18T14:40:40Z</time>
      </trkpt>
      <trkpt lat="43.22791" lon="5.48821">
        <ele>396.8</ele>
        <time>2025-10-18T14:40:41Z</time>
      </trkpt>
      <trkpt lat="43.22791" lon="5.48822">
        <ele>396.6</ele>
        <time>2025-10-18T14:40:42Z</time>
      </trkpt>
      <trkpt lat="43.22791" lon="5.48823">
        <ele>396.5</ele>
        <time>2025-10-18T14:40:43Z</time>
      </trkpt>
      <trkpt lat="43.22791" lon="5.48824">
        <ele>396.4</ele>
        <time>2025-10-18T14:40:44Z</time>
      </trkpt>
      <trkpt lat="43.22791" lon="5.48825">
        <ele>396.3</ele>
        <time>2025-10-18T14:40:45Z</time>
      </trkpt>
      <trkpt lat="43.22792" lon="5.48826">
        <ele>396.2</ele>
        <time>2025-10-18T14:40:46Z</time>
      </trkpt>
      <trkpt lat="43.22792" lon="5.48828">
        <ele>396</ele>
        <time>2025-10-18T14:40:47Z</time>
      </trkpt>
      <trkpt lat="43.22792" lon="5.48829">
        <ele>395.9</ele>
        <time>2025-10-18T14:40:48Z</time>
      </trkpt>
      <trkpt lat="43.22793" lon="5.4883">
        <ele>395.8</ele>
        <time>2025-10-18T14:40:49Z</time>
      </trkpt>
      <trkpt lat="43.22793" lon="5.48831">
        <ele>395.7</ele>
        <time>2025-10-18T14:40:50Z</time>
      </trkpt>
      <trkpt lat="43.22793" lon="5.48832">
        <ele>395.5</ele>
        <time>2025-10-18T14:40:51Z</time>
      </trkpt>
      <trkpt lat="43.22793" lon="5.48833">
        <ele>395.3</ele>
        <time>2025-10-18T14:40:52Z</time>
      </trkpt>
      <trkpt lat="43.22794" lon="5.48834">
        <ele>395.2</ele>
        <time>2025-10-18T14:40:53Z</time>
      </trkpt>
      <trkpt lat="43.22794" lon="5.48835">
        <ele>395.1</ele>
        <time>2025-10-18T14:40:54Z</time>
      </trkpt>
      <trkpt lat="43.22794" lon="5.48836">
        <ele>395</ele>
        <time>2025-10-18T14:40:55Z</time>
      </trkpt>
      <trkpt lat="43.22794" lon="5.48837">
        <ele>394.8</ele>
        <time>2025-10-18T14:40:56Z</time>
      </trkpt>
      <trkpt lat="43.22794" lon="5.48837">
        <ele>394.7</ele>
        <time>2025-10-18T14:40:57Z</time>
      </trkpt>
      <trkpt lat="43.22795" lon="5.48838">
        <ele>394.6</ele>
        <time>2025-10-18T14:40:58Z</time>
      </trkpt>
      <trkpt lat="43.22795" lon="5.48839">
        <ele>394.4</ele>
        <time>2025-10-18T14:40:59Z</time>
      </trkpt>
      <trkpt lat="43.22795" lon="5.4884">
        <ele>394.3</ele>
        <time>2025-10-18T14:41:00Z</time>
      </trkpt>
      <trkpt lat="43.22795" lon="5.48842">
        <ele>394.2</ele>
        <time>2025-10-18T14:41:01Z</time>
      </trkpt>
      <trkpt lat="43.22795" lon="5.48843">
        <ele>394</ele>
        <time>2025-10-18T14:41:02Z</time>
      </trkpt>
      <trkpt lat="43.22795" lon="5.48844">
        <ele>393.9</ele>
        <time>2025-10-18T14:41:03Z</time>
      </trkpt>
      <trkpt lat="43.22795" lon="5.48845">
        <ele>393.9</ele>
        <time>2025-10-18T14:41:04Z</time>
      </trkpt>
      <trkpt lat="43.22795" lon="5.48846">
        <ele>393.8</ele>
        <time>2025-10-18T14:41:05Z</time>
      </trkpt>
      <trkpt lat="43.22795" lon="5.48847">
        <ele>393.7</ele>
        <time>2025-10-18T14:41:06Z</time>
      </trkpt>
      <trkpt lat="43.22795" lon="5.48847">
        <ele>393.6</ele>
        <time>2025-10-18T14:41:07Z</time>
      </trkpt>
      <trkpt lat="43.22795" lon="5.48848">
        <ele>393.4</ele>
        <time>2025-10-18T14:41:08Z</time>
      </trkpt>
      <trkpt lat="43.22795" lon="5.48849">
        <ele>393.3</ele>
        <time>2025-10-18T14:41:09Z</time>
      </trkpt>
      <trkpt lat="43.22796" lon="5.48851">
        <ele>393.1</ele>
        <time>2025-10-18T14:41:10Z</time>
      </trkpt>
      <trkpt lat="43.22796" lon="5.48852">
        <ele>393</ele>
        <time>2025-10-18T14:41:11Z</time>
      </trkpt>
      <trkpt lat="43.22796" lon="5.48853">
        <ele>392.9</ele>
        <time>2025-10-18T14:41:12Z</time>
      </trkpt>
      <trkpt lat="43.22796" lon="5.48854">
        <ele>392.7</ele>
        <time>2025-10-18T14:41:13Z</time>
      </trkpt>
      <trkpt lat="43.22796" lon="5.48856">
        <ele>392.6</ele>
        <time>2025-10-18T14:41:14Z</time>
      </trkpt>
      <trkpt lat="43.22796" lon="5.48857">
        <ele>392.5</ele>
        <time>2025-10-18T14:41:15Z</time>
      </trkpt>
      <trkpt lat="43.22796" lon="5.48858">
        <ele>392.4</ele>
        <time>2025-10-18T14:41:16Z</time>
      </trkpt>
      <trkpt lat="43.22797" lon="5.48859">
        <ele>392.3</ele>
        <time>2025-10-18T14:41:17Z</time>
      </trkpt>
      <trkpt lat="43.22797" lon="5.4886">
        <ele>392.1</ele>
        <time>2025-10-18T14:41:18Z</time>
      </trkpt>
      <trkpt lat="43.22797" lon="5.48861">
        <ele>392.1</ele>
        <time>2025-10-18T14:41:19Z</time>
      </trkpt>
      <trkpt lat="43.22797" lon="5.48862">
        <ele>392</ele>
        <time>2025-10-18T14:41:20Z</time>
      </trkpt>
      <trkpt lat="43.22797" lon="5.48863">
        <ele>392</ele>
        <time>2025-10-18T14:41:21Z</time>
      </trkpt>
      <trkpt lat="43.22797" lon="5.48864">
        <ele>391.9</ele>
        <time>2025-10-18T14:41:22Z</time>
      </trkpt>
      <trkpt lat="43.22797" lon="5.48865">
        <ele>391.8</ele>
        <time>2025-10-18T14:41:23Z</time>
      </trkpt>
      <trkpt lat="43.22797" lon="5.48866">
        <ele>391.6</ele>
        <time>2025-10-18T14:41:24Z</time>
      </trkpt>
      <trkpt lat="43.22797" lon="5.48867">
        <ele>391.5</ele>
        <time>2025-10-18T14:41:25Z</time>
      </trkpt>
      <trkpt lat="43.22797" lon="5.48869">
        <ele>391.4</ele>
        <time>2025-10-18T14:41:26Z</time>
      </trkpt>
      <trkpt lat="43.22797" lon="5.4887">
        <ele>391.4</ele>
        <time>2025-10-18T14:41:27Z</time>
      </trkpt>
      <trkpt lat="43.22797" lon="5.48871">
        <ele>391.3</ele>
        <time>2025-10-18T14:41:28Z</time>
      </trkpt>
      <trkpt lat="43.22797" lon="5.48872">
        <ele>391.2</ele>
        <time>2025-10-18T14:41:29Z</time>
      </trkpt>
      <trkpt lat="43.22797" lon="5.48874">
        <ele>391.1</ele>
        <time>2025-10-18T14:41:30Z</time>
      </trkpt>
      <trkpt lat="43.22797" lon="5.48875">
        <ele>391.1</ele>
        <time>2025-10-18T14:41:31Z</time>
      </trkpt>
      <trkpt lat="43.22797" lon="5.48876">
        <ele>390.9</ele>
        <time>2025-10-18T14:41:32Z</time>
      </trkpt>
      <trkpt lat="43.22797" lon="5.48877">
        <ele>390.8</ele>
        <time>2025-10-18T14:41:33Z</time>
      </trkpt>
      <trkpt lat="43.22797" lon="5.48879">
        <ele>390.7</ele>
        <time>2025-10-18T14:41:34Z</time>
      </trkpt>
      <trkpt lat="43.22797" lon="5.4888">
        <ele>390.6</ele>
        <time>2025-10-18T14:41:35Z</time>
      </trkpt>
      <trkpt lat="43.22797" lon="5.48881">
        <ele>390.5</ele>
        <time>2025-10-18T14:41:36Z</time>
      </trkpt>
      <trkpt lat="43.22798" lon="5.48882">
        <ele>390.4</ele>
        <time>2025-10-18T14:41:37Z</time>
      </trkpt>
      <trkpt lat="43.22798" lon="5.48883">
        <ele>390.4</ele>
        <time>2025-10-18T14:41:38Z</time>
      </trkpt>
      <trkpt lat="43.22798" lon="5.48885">
        <ele>390.2</ele>
        <time>2025-10-18T14:41:39Z</time>
      </trkpt>
      <trkpt lat="43.22799" lon="5.48886">
        <ele>390.1</ele>
        <time>2025-10-18T14:41:40Z</time>
      </trkpt>
      <trkpt lat="43.22799" lon="5.48887">
        <ele>390.1</ele>
        <time>2025-10-18T14:41:41Z</time>
      </trkpt>
      <trkpt lat="43.22799" lon="5.48889">
        <ele>390</ele>
        <time>2025-10-18T14:41:42Z</time>
      </trkpt>
      <trkpt lat="43.22799" lon="5.4889">
        <ele>389.9</ele>
        <time>2025-10-18T14:41:43Z</time>
      </trkpt>
      <trkpt lat="43.22799" lon="5.48892">
        <ele>389.8</ele>
        <time>2025-10-18T14:41:44Z</time>
      </trkpt>
      <trkpt lat="43.22799" lon="5.48893">
        <ele>389.7</ele>
        <time>2025-10-18T14:41:45Z</time>
      </trkpt>
      <trkpt lat="43.22799" lon="5.48894">
        <ele>389.6</ele>
        <time>2025-10-18T14:41:46Z</time>
      </trkpt>
      <trkpt lat="43.22799" lon="5.48896">
        <ele>389.5</ele>
        <time>2025-10-18T14:41:47Z</time>
      </trkpt>
      <trkpt lat="43.22799" lon="5.48897">
        <ele>389.4</ele>
        <time>2025-10-18T14:41:48Z</time>
      </trkpt>
      <trkpt lat="43.22799" lon="5.48898">
        <ele>389.3</ele>
        <time>2025-10-18T14:41:49Z</time>
      </trkpt>
      <trkpt lat="43.22799" lon="5.489">
        <ele>389.3</ele>
        <time>2025-10-18T14:41:50Z</time>
      </trkpt>
      <trkpt lat="43.22799" lon="5.48901">
        <ele>389.3</ele>
        <time>2025-10-18T14:41:51Z</time>
      </trkpt>
      <trkpt lat="43.22799" lon="5.48902">
        <ele>389.2</ele>
        <time>2025-10-18T14:41:52Z</time>
      </trkpt>
      <trkpt lat="43.228" lon="5.48904">
        <ele>389.2</ele>
        <time>2025-10-18T14:41:53Z</time>
      </trkpt>
      <trkpt lat="43.228" lon="5.48905">
        <ele>389.1</ele>
        <time>2025-10-18T14:41:54Z</time>
      </trkpt>
      <trkpt lat="43.22799" lon="5.48906">
        <ele>389</ele>
        <time>2025-10-18T14:41:55Z</time>
      </trkpt>
      <trkpt lat="43.228" lon="5.48908">
        <ele>388.9</ele>
        <time>2025-10-18T14:41:56Z</time>
      </trkpt>
      <trkpt lat="43.22799" lon="5.48909">
        <ele>388.8</ele>
        <time>2025-10-18T14:41:57Z</time>
      </trkpt>
      <trkpt lat="43.228" lon="5.4891">
        <ele>388.7</ele>
        <time>2025-10-18T14:41:58Z</time>
      </trkpt>
      <trkpt lat="43.228" lon="5.48911">
        <ele>388.6</ele>
        <time>2025-10-18T14:41:59Z</time>
      </trkpt>
      <trkpt lat="43.228" lon="5.48912">
        <ele>388.5</ele>
        <time>2025-10-18T14:42:00Z</time>
      </trkpt>
      <trkpt lat="43.228" lon="5.48913">
        <ele>388.5</ele>
        <time>2025-10-18T14:42:01Z</time>
      </trkpt>
      <trkpt lat="43.228" lon="5.48915">
        <ele>388.3</ele>
        <time>2025-10-18T14:42:02Z</time>
      </trkpt>
      <trkpt lat="43.228" lon="5.48916">
        <ele>388.1</ele>
        <time>2025-10-18T14:42:03Z</time>
      </trkpt>
      <trkpt lat="43.228" lon="5.48917">
        <ele>388</ele>
        <time>2025-10-18T14:42:04Z</time>
      </trkpt>
      <trkpt lat="43.228" lon="5.48918">
        <ele>388</ele>
        <time>2025-10-18T14:42:05Z</time>
      </trkpt>
      <trkpt lat="43.228" lon="5.48919">
        <ele>387.9</ele>
        <time>2025-10-18T14:42:06Z</time>
      </trkpt>
      <trkpt lat="43.22801" lon="5.48921">
        <ele>387.8</ele>
        <time>2025-10-18T14:42:07Z</time>
      </trkpt>
      <trkpt lat="43.228" lon="5.48922">
        <ele>387.8</ele>
        <time>2025-10-18T14:42:08Z</time>
      </trkpt>
      <trkpt lat="43.228" lon="5.48923">
        <ele>387.8</ele>
        <time>2025-10-18T14:42:09Z</time>
      </trkpt>
      <trkpt lat="43.22801" lon="5.48924">
        <ele>387.7</ele>
        <time>2025-10-18T14:42:10Z</time>
      </trkpt>
      <trkpt lat="43.22801" lon="5.48926">
        <ele>387.6</ele>
        <time>2025-10-18T14:42:11Z</time>
      </trkpt>
      <trkpt lat="43.22801" lon="5.48927">
        <ele>387.5</ele>
        <time>2025-10-18T14:42:12Z</time>
      </trkpt>
      <trkpt lat="43.22801" lon="5.48928">
        <ele>387.5</ele>
        <time>2025-10-18T14:42:13Z</time>
      </trkpt>
      <trkpt lat="43.22801" lon="5.48929">
        <ele>387.4</ele>
        <time>2025-10-18T14:42:14Z</time>
      </trkpt>
      <trkpt lat="43.22801" lon="5.4893">
        <ele>387.3</ele>
        <time>2025-10-18T14:42:15Z</time>
      </trkpt>
      <trkpt lat="43.22801" lon="5.48931">
        <ele>387.2</ele>
        <time>2025-10-18T14:42:16Z</time>
      </trkpt>
      <trkpt lat="43.22801" lon="5.48932">
        <ele>387.1</ele>
        <time>2025-10-18T14:42:17Z</time>
      </trkpt>
      <trkpt lat="43.22801" lon="5.48934">
        <ele>387.1</ele>
        <time>2025-10-18T14:42:18Z</time>
      </trkpt>
      <trkpt lat="43.22801" lon="5.48935">
        <ele>387.1</ele>
        <time>2025-10-18T14:42:19Z</time>
      </trkpt>
      <trkpt lat="43.22801" lon="5.48936">
        <ele>387</ele>
        <time>2025-10-18T14:42:20Z</time>
      </trkpt>
      <trkpt lat="43.22801" lon="5.48937">
        <ele>387</ele>
        <time>2025-10-18T14:42:21Z</time>
      </trkpt>
      <trkpt lat="43.22801" lon="5.48938">
        <ele>386.9</ele>
        <time>2025-10-18T14:42:22Z</time>
      </trkpt>
      <trkpt lat="43.22801" lon="5.48939">
        <ele>386.9</ele>
        <time>2025-10-18T14:42:23Z</time>
      </trkpt>
      <trkpt lat="43.22801" lon="5.4894">
        <ele>386.8</ele>
        <time>2025-10-18T14:42:24Z</time>
      </trkpt>
      <trkpt lat="43.22801" lon="5.4894">
        <ele>386.8</ele>
        <time>2025-10-18T14:42:25Z</time>
      </trkpt>
      <trkpt lat="43.22801" lon="5.48941">
        <ele>386.8</ele>
        <time>2025-10-18T14:42:26Z</time>
      </trkpt>
      <trkpt lat="43.22801" lon="5.48941">
        <ele>386.8</ele>
        <time>2025-10-18T14:42:27Z</time>
      </trkpt>
      <trkpt lat="43.22801" lon="5.48941">
        <ele>386.8</ele>
        <time>2025-10-18T14:42:28Z</time>
      </trkpt>
      <trkpt lat="43.22801" lon="5.48941">
        <ele>386.7</ele>
        <time>2025-10-18T14:42:29Z</time>
      </trkpt>
      <trkpt lat="43.22801" lon="5.48941">
        <ele>386.7</ele>
        <time>2025-10-18T14:42:30Z</time>
      </trkpt>
      <trkpt lat="43.22801" lon="5.48942">
        <ele>386.6</ele>
        <time>2025-10-18T14:42:31Z</time>
      </trkpt>
      <trkpt lat="43.22801" lon="5.48943">
        <ele>386.6</ele>
        <time>2025-10-18T14:42:32Z</time>
      </trkpt>
      <trkpt lat="43.22801" lon="5.48945">
        <ele>386.6</ele>
        <time>2025-10-18T14:42:33Z</time>
      </trkpt>
      <trkpt lat="43.22802" lon="5.48946">
        <ele>386.6</ele>
        <time>2025-10-18T14:42:34Z</time>
      </trkpt>
      <trkpt lat="43.22802" lon="5.48948">
        <ele>386.8</ele>
        <time>2025-10-18T14:42:35Z</time>
      </trkpt>
      <trkpt lat="43.22802" lon="5.48949">
        <ele>386.8</ele>
        <time>2025-10-18T14:42:36Z</time>
      </trkpt>
      <trkpt lat="43.22802" lon="5.48951">
        <ele>386.5</ele>
        <time>2025-10-18T14:42:37Z</time>
      </trkpt>
      <trkpt lat="43.22802" lon="5.48952">
        <ele>386.5</ele>
        <time>2025-10-18T14:42:38Z</time>
      </trkpt>
      <trkpt lat="43.22802" lon="5.48954">
        <ele>386.4</ele>
        <time>2025-10-18T14:42:39Z</time>
      </trkpt>
      <trkpt lat="43.22802" lon="5.48955">
        <ele>386.4</ele>
        <time>2025-10-18T14:42:40Z</time>
      </trkpt>
      <trkpt lat="43.22802" lon="5.48957">
        <ele>386.3</ele>
        <time>2025-10-18T14:42:41Z</time>
      </trkpt>
      <trkpt lat="43.22802" lon="5.48958">
        <ele>386.1</ele>
        <time>2025-10-18T14:42:42Z</time>
      </trkpt>
      <trkpt lat="43.22802" lon="5.4896">
        <ele>385.9</ele>
        <time>2025-10-18T14:42:43Z</time>
      </trkpt>
      <trkpt lat="43.22802" lon="5.48961">
        <ele>385.8</ele>
        <time>2025-10-18T14:42:44Z</time>
      </trkpt>
      <trkpt lat="43.22803" lon="5.48963">
        <ele>385.5</ele>
        <time>2025-10-18T14:42:45Z</time>
      </trkpt>
      <trkpt lat="43.22803" lon="5.48964">
        <ele>385.4</ele>
        <time>2025-10-18T14:42:46Z</time>
      </trkpt>
      <trkpt lat="43.22803" lon="5.48965">
        <ele>385.3</ele>
        <time>2025-10-18T14:42:47Z</time>
      </trkpt>
      <trkpt lat="43.22803" lon="5.48967">
        <ele>385.1</ele>
        <time>2025-10-18T14:42:48Z</time>
      </trkpt>
      <trkpt lat="43.22803" lon="5.48968">
        <ele>385.1</ele>
        <time>2025-10-18T14:42:49Z</time>
      </trkpt>
      <trkpt lat="43.22803" lon="5.48969">
        <ele>385.1</ele>
        <time>2025-10-18T14:42:50Z</time>
      </trkpt>
      <trkpt lat="43.22803" lon="5.48971">
        <ele>385</ele>
        <time>2025-10-18T14:42:51Z</time>
      </trkpt>
      <trkpt lat="43.22804" lon="5.48972">
        <ele>384.9</ele>
        <time>2025-10-18T14:42:52Z</time>
      </trkpt>
      <trkpt lat="43.22804" lon="5.48973">
        <ele>384.9</ele>
        <time>2025-10-18T14:42:53Z</time>
      </trkpt>
      <trkpt lat="43.22804" lon="5.48974">
        <ele>384.8</ele>
        <time>2025-10-18T14:42:54Z</time>
      </trkpt>
      <trkpt lat="43.22804" lon="5.48976">
        <ele>384.8</ele>
        <time>2025-10-18T14:42:55Z</time>
      </trkpt>
      <trkpt lat="43.22804" lon="5.48977">
        <ele>384.7</ele>
        <time>2025-10-18T14:42:56Z</time>
      </trkpt>
      <trkpt lat="43.22804" lon="5.48979">
        <ele>384.6</ele>
        <time>2025-10-18T14:42:57Z</time>
      </trkpt>
      <trkpt lat="43.22804" lon="5.4898">
        <ele>384.5</ele>
        <time>2025-10-18T14:42:58Z</time>
      </trkpt>
      <trkpt lat="43.22804" lon="5.48981">
        <ele>384.3</ele>
        <time>2025-10-18T14:42:59Z</time>
      </trkpt>
      <trkpt lat="43.22804" lon="5.48983">
        <ele>384.2</ele>
        <time>2025-10-18T14:43:00Z</time>
      </trkpt>
      <trkpt lat="43.22804" lon="5.48984">
        <ele>384.1</ele>
        <time>2025-10-18T14:43:01Z</time>
      </trkpt>
      <trkpt lat="43.22804" lon="5.48985">
        <ele>384.1</ele>
        <time>2025-10-18T14:43:02Z</time>
      </trkpt>
      <trkpt lat="43.22804" lon="5.48987">
        <ele>384</ele>
        <time>2025-10-18T14:43:03Z</time>
      </trkpt>
      <trkpt lat="43.22804" lon="5.48988">
        <ele>383.9</ele>
        <time>2025-10-18T14:43:04Z</time>
      </trkpt>
      <trkpt lat="43.22804" lon="5.48989">
        <ele>383.8</ele>
        <time>2025-10-18T14:43:05Z</time>
      </trkpt>
      <trkpt lat="43.22804" lon="5.4899">
        <ele>383.7</ele>
        <time>2025-10-18T14:43:06Z</time>
      </trkpt>
      <trkpt lat="43.22804" lon="5.48992">
        <ele>383.6</ele>
        <time>2025-10-18T14:43:07Z</time>
      </trkpt>
      <trkpt lat="43.22804" lon="5.48993">
        <ele>383.5</ele>
        <time>2025-10-18T14:43:08Z</time>
      </trkpt>
      <trkpt lat="43.22804" lon="5.48994">
        <ele>383.4</ele>
        <time>2025-10-18T14:43:09Z</time>
      </trkpt>
      <trkpt lat="43.22804" lon="5.48995">
        <ele>383.3</ele>
        <time>2025-10-18T14:43:10Z</time>
      </trkpt>
      <trkpt lat="43.22804" lon="5.48997">
        <ele>383.2</ele>
        <time>2025-10-18T14:43:11Z</time>
      </trkpt>
      <trkpt lat="43.22804" lon="5.48998">
        <ele>383.1</ele>
        <time>2025-10-18T14:43:12Z</time>
      </trkpt>
      <trkpt lat="43.22804" lon="5.48999">
        <ele>383</ele>
        <time>2025-10-18T14:43:13Z</time>
      </trkpt>
      <trkpt lat="43.22804" lon="5.49001">
        <ele>382.8</ele>
        <time>2025-10-18T14:43:14Z</time>
      </trkpt>
      <trkpt lat="43.22804" lon="5.49002">
        <ele>382.6</ele>
        <time>2025-10-18T14:43:15Z</time>
      </trkpt>
      <trkpt lat="43.22804" lon="5.49003">
        <ele>382.4</ele>
        <time>2025-10-18T14:43:16Z</time>
      </trkpt>
      <trkpt lat="43.22804" lon="5.49004">
        <ele>382.3</ele>
        <time>2025-10-18T14:43:17Z</time>
      </trkpt>
      <trkpt lat="43.22804" lon="5.49005">
        <ele>382.1</ele>
        <time>2025-10-18T14:43:18Z</time>
      </trkpt>
      <trkpt lat="43.22804" lon="5.49006">
        <ele>381.9</ele>
        <time>2025-10-18T14:43:19Z</time>
      </trkpt>
      <trkpt lat="43.22805" lon="5.49007">
        <ele>381.8</ele>
        <time>2025-10-18T14:43:20Z</time>
      </trkpt>
      <trkpt lat="43.22805" lon="5.49008">
        <ele>381.6</ele>
        <time>2025-10-18T14:43:21Z</time>
      </trkpt>
      <trkpt lat="43.22805" lon="5.49009">
        <ele>381.3</ele>
        <time>2025-10-18T14:43:22Z</time>
      </trkpt>
      <trkpt lat="43.22805" lon="5.4901">
        <ele>381.1</ele>
        <time>2025-10-18T14:43:23Z</time>
      </trkpt>
      <trkpt lat="43.22805" lon="5.49011">
        <ele>380.9</ele>
        <time>2025-10-18T14:43:24Z</time>
      </trkpt>
      <trkpt lat="43.22805" lon="5.49011">
        <ele>380.8</ele>
        <time>2025-10-18T14:43:25Z</time>
      </trkpt>
      <trkpt lat="43.22805" lon="5.49012">
        <ele>380.6</ele>
        <time>2025-10-18T14:43:26Z</time>
      </trkpt>
      <trkpt lat="43.22805" lon="5.49013">
        <ele>380.5</ele>
        <time>2025-10-18T14:43:27Z</time>
      </trkpt>
      <trkpt lat="43.22805" lon="5.49014">
        <ele>380.4</ele>
        <time>2025-10-18T14:43:28Z</time>
      </trkpt>
      <trkpt lat="43.22805" lon="5.49015">
        <ele>380.3</ele>
        <time>2025-10-18T14:43:29Z</time>
      </trkpt>
      <trkpt lat="43.22805" lon="5.49015">
        <ele>380.1</ele>
        <time>2025-10-18T14:43:30Z</time>
      </trkpt>
      <trkpt lat="43.22805" lon="5.49016">
        <ele>380</ele>
        <time>2025-10-18T14:43:31Z</time>
      </trkpt>
      <trkpt lat="43.22805" lon="5.49017">
        <ele>380</ele>
        <time>2025-10-18T14:43:32Z</time>
      </trkpt>
      <trkpt lat="43.22805" lon="5.49018">
        <ele>379.8</ele>
        <time>2025-10-18T14:43:33Z</time>
      </trkpt>
      <trkpt lat="43.22805" lon="5.49019">
        <ele>379.8</ele>
        <time>2025-10-18T14:43:34Z</time>
      </trkpt>
      <trkpt lat="43.22805" lon="5.4902">
        <ele>379.6</ele>
        <time>2025-10-18T14:43:35Z</time>
      </trkpt>
      <trkpt lat="43.22805" lon="5.49021">
        <ele>379.4</ele>
        <time>2025-10-18T14:43:36Z</time>
      </trkpt>
      <trkpt lat="43.22805" lon="5.49023">
        <ele>379.3</ele>
        <time>2025-10-18T14:43:37Z</time>
      </trkpt>
      <trkpt lat="43.22805" lon="5.49023">
        <ele>379.1</ele>
        <time>2025-10-18T14:43:38Z</time>
      </trkpt>
      <trkpt lat="43.22805" lon="5.49024">
        <ele>379.1</ele>
        <time>2025-10-18T14:43:39Z</time>
      </trkpt>
      <trkpt lat="43.22804" lon="5.49025">
        <ele>378.9</ele>
        <time>2025-10-18T14:43:40Z</time>
      </trkpt>
      <trkpt lat="43.22805" lon="5.49026">
        <ele>378.7</ele>
        <time>2025-10-18T14:43:41Z</time>
      </trkpt>
      <trkpt lat="43.22805" lon="5.49028">
        <ele>378.6</ele>
        <time>2025-10-18T14:43:42Z</time>
      </trkpt>
      <trkpt lat="43.22805" lon="5.49029">
        <ele>378.4</ele>
        <time>2025-10-18T14:43:43Z</time>
      </trkpt>
      <trkpt lat="43.22805" lon="5.4903">
        <ele>378.3</ele>
        <time>2025-10-18T14:43:44Z</time>
      </trkpt>
      <trkpt lat="43.22805" lon="5.49031">
        <ele>378.2</ele>
        <time>2025-10-18T14:43:45Z</time>
      </trkpt>
      <trkpt lat="43.22805" lon="5.49033">
        <ele>378</ele>
        <time>2025-10-18T14:43:46Z</time>
      </trkpt>
      <trkpt lat="43.22805" lon="5.49034">
        <ele>377.9</ele>
        <time>2025-10-18T14:43:47Z</time>
      </trkpt>
      <trkpt lat="43.22805" lon="5.49035">
        <ele>377.8</ele>
        <time>2025-10-18T14:43:48Z</time>
      </trkpt>
      <trkpt lat="43.22805" lon="5.49036">
        <ele>377.6</ele>
        <time>2025-10-18T14:43:49Z</time>
      </trkpt>
      <trkpt lat="43.22805" lon="5.49037">
        <ele>377.4</ele>
        <time>2025-10-18T14:43:50Z</time>
      </trkpt>
      <trkpt lat="43.22805" lon="5.49038">
        <ele>377.3</ele>
        <time>2025-10-18T14:43:51Z</time>
      </trkpt>
      <trkpt lat="43.22805" lon="5.49039">
        <ele>377.1</ele>
        <time>2025-10-18T14:43:52Z</time>
      </trkpt>
      <trkpt lat="43.22806" lon="5.49041">
        <ele>376.9</ele>
        <time>2025-10-18T14:43:53Z</time>
      </trkpt>
      <trkpt lat="43.22806" lon="5.49042">
        <ele>376.8</ele>
        <time>2025-10-18T14:43:54Z</time>
      </trkpt>
      <trkpt lat="43.22806" lon="5.49042">
        <ele>376.6</ele>
        <time>2025-10-18T14:43:55Z</time>
      </trkpt>
      <trkpt lat="43.22807" lon="5.49043">
        <ele>376.4</ele>
        <time>2025-10-18T14:43:56Z</time>
      </trkpt>
      <trkpt lat="43.22807" lon="5.49044">
        <ele>376.3</ele>
        <time>2025-10-18T14:43:57Z</time>
      </trkpt>
      <trkpt lat="43.22808" lon="5.49045">
        <ele>376.2</ele>
        <time>2025-10-18T14:43:58Z</time>
      </trkpt>
      <trkpt lat="43.22808" lon="5.49046">
        <ele>376</ele>
        <time>2025-10-18T14:43:59Z</time>
      </trkpt>
      <trkpt lat="43.22808" lon="5.49047">
        <ele>375.9</ele>
        <time>2025-10-18T14:44:00Z</time>
      </trkpt>
      <trkpt lat="43.22808" lon="5.49049">
        <ele>375.7</ele>
        <time>2025-10-18T14:44:01Z</time>
      </trkpt>
      <trkpt lat="43.22809" lon="5.4905">
        <ele>375.6</ele>
        <time>2025-10-18T14:44:02Z</time>
      </trkpt>
      <trkpt lat="43.22809" lon="5.49051">
        <ele>375.5</ele>
        <time>2025-10-18T14:44:03Z</time>
      </trkpt>
      <trkpt lat="43.22809" lon="5.49052">
        <ele>375.4</ele>
        <time>2025-10-18T14:44:04Z</time>
      </trkpt>
      <trkpt lat="43.22808" lon="5.49053">
        <ele>375.4</ele>
        <time>2025-10-18T14:44:05Z</time>
      </trkpt>
      <trkpt lat="43.22808" lon="5.49055">
        <ele>375.2</ele>
        <time>2025-10-18T14:44:06Z</time>
      </trkpt>
      <trkpt lat="43.22808" lon="5.49056">
        <ele>375.1</ele>
        <time>2025-10-18T14:44:07Z</time>
      </trkpt>
      <trkpt lat="43.22808" lon="5.49057">
        <ele>374.9</ele>
        <time>2025-10-18T14:44:08Z</time>
      </trkpt>
      <trkpt lat="43.22808" lon="5.49058">
        <ele>374.8</ele>
        <time>2025-10-18T14:44:09Z</time>
      </trkpt>
      <trkpt lat="43.22808" lon="5.49058">
        <ele>374.7</ele>
        <time>2025-10-18T14:44:10Z</time>
      </trkpt>
      <trkpt lat="43.22808" lon="5.49059">
        <ele>374.6</ele>
        <time>2025-10-18T14:44:11Z</time>
      </trkpt>
      <trkpt lat="43.22808" lon="5.4906">
        <ele>374.4</ele>
        <time>2025-10-18T14:44:12Z</time>
      </trkpt>
      <trkpt lat="43.22808" lon="5.49061">
        <ele>374.1</ele>
        <time>2025-10-18T14:44:13Z</time>
      </trkpt>
      <trkpt lat="43.22808" lon="5.49063">
        <ele>373.9</ele>
        <time>2025-10-18T14:44:14Z</time>
      </trkpt>
      <trkpt lat="43.22808" lon="5.49064">
        <ele>373.8</ele>
        <time>2025-10-18T14:44:15Z</time>
      </trkpt>
      <trkpt lat="43.22808" lon="5.49065">
        <ele>373.7</ele>
        <time>2025-10-18T14:44:16Z</time>
      </trkpt>
      <trkpt lat="43.22807" lon="5.49066">
        <ele>373.5</ele>
        <time>2025-10-18T14:44:17Z</time>
      </trkpt>
      <trkpt lat="43.22807" lon="5.49068">
        <ele>373.4</ele>
        <time>2025-10-18T14:44:18Z</time>
      </trkpt>
      <trkpt lat="43.22807" lon="5.49069">
        <ele>373.2</ele>
        <time>2025-10-18T14:44:19Z</time>
      </trkpt>
      <trkpt lat="43.22808" lon="5.4907">
        <ele>373.1</ele>
        <time>2025-10-18T14:44:20Z</time>
      </trkpt>
      <trkpt lat="43.22808" lon="5.49072">
        <ele>372.9</ele>
        <time>2025-10-18T14:44:21Z</time>
      </trkpt>
      <trkpt lat="43.22808" lon="5.49073">
        <ele>372.7</ele>
        <time>2025-10-18T14:44:22Z</time>
      </trkpt>
      <trkpt lat="43.22808" lon="5.49074">
        <ele>372.6</ele>
        <time>2025-10-18T14:44:23Z</time>
      </trkpt>
      <trkpt lat="43.22808" lon="5.49076">
        <ele>372.4</ele>
        <time>2025-10-18T14:44:24Z</time>
      </trkpt>
      <trkpt lat="43.22808" lon="5.49077">
        <ele>372.2</ele>
        <time>2025-10-18T14:44:25Z</time>
      </trkpt>
      <trkpt lat="43.22809" lon="5.49078">
        <ele>372</ele>
        <time>2025-10-18T14:44:26Z</time>
      </trkpt>
      <trkpt lat="43.22809" lon="5.49079">
        <ele>371.8</ele>
        <time>2025-10-18T14:44:27Z</time>
      </trkpt>
      <trkpt lat="43.22809" lon="5.49081">
        <ele>371.6</ele>
        <time>2025-10-18T14:44:28Z</time>
      </trkpt>
      <trkpt lat="43.22809" lon="5.49082">
        <ele>371.5</ele>
        <time>2025-10-18T14:44:29Z</time>
      </trkpt>
      <trkpt lat="43.22809" lon="5.49084">
        <ele>371.2</ele>
        <time>2025-10-18T14:44:30Z</time>
      </trkpt>
      <trkpt lat="43.22809" lon="5.49085">
        <ele>371</ele>
        <time>2025-10-18T14:44:31Z</time>
      </trkpt>
      <trkpt lat="43.22809" lon="5.49087">
        <ele>370.9</ele>
        <time>2025-10-18T14:44:32Z</time>
      </trkpt>
      <trkpt lat="43.22809" lon="5.49088">
        <ele>370.7</ele>
        <time>2025-10-18T14:44:33Z</time>
      </trkpt>
      <trkpt lat="43.22809" lon="5.49089">
        <ele>370.6</ele>
        <time>2025-10-18T14:44:34Z</time>
      </trkpt>
      <trkpt lat="43.22809" lon="5.49091">
        <ele>370.5</ele>
        <time>2025-10-18T14:44:35Z</time>
      </trkpt>
      <trkpt lat="43.22809" lon="5.49092">
        <ele>370.5</ele>
        <time>2025-10-18T14:44:36Z</time>
      </trkpt>
      <trkpt lat="43.22809" lon="5.49093">
        <ele>370.4</ele>
        <time>2025-10-18T14:44:37Z</time>
      </trkpt>
      <trkpt lat="43.22809" lon="5.49095">
        <ele>370.3</ele>
        <time>2025-10-18T14:44:38Z</time>
      </trkpt>
      <trkpt lat="43.22809" lon="5.49096">
        <ele>370.2</ele>
        <time>2025-10-18T14:44:39Z</time>
      </trkpt>
      <trkpt lat="43.22809" lon="5.49098">
        <ele>370.1</ele>
        <time>2025-10-18T14:44:40Z</time>
      </trkpt>
      <trkpt lat="43.22809" lon="5.49099">
        <ele>369.9</ele>
        <time>2025-10-18T14:44:41Z</time>
      </trkpt>
      <trkpt lat="43.22809" lon="5.491">
        <ele>369.8</ele>
        <time>2025-10-18T14:44:42Z</time>
      </trkpt>
      <trkpt lat="43.22809" lon="5.49102">
        <ele>369.6</ele>
        <time>2025-10-18T14:44:43Z</time>
      </trkpt>
      <trkpt lat="43.22809" lon="5.49103">
        <ele>369.5</ele>
        <time>2025-10-18T14:44:44Z</time>
      </trkpt>
      <trkpt lat="43.22809" lon="5.49105">
        <ele>369.3</ele>
        <time>2025-10-18T14:44:45Z</time>
      </trkpt>
      <trkpt lat="43.22809" lon="5.49106">
        <ele>369.1</ele>
        <time>2025-10-18T14:44:46Z</time>
      </trkpt>
      <trkpt lat="43.22809" lon="5.49107">
        <ele>368.9</ele>
        <time>2025-10-18T14:44:47Z</time>
      </trkpt>
      <trkpt lat="43.22809" lon="5.49108">
        <ele>368.7</ele>
        <time>2025-10-18T14:44:48Z</time>
      </trkpt>
      <trkpt lat="43.22809" lon="5.4911">
        <ele>368.6</ele>
        <time>2025-10-18T14:44:49Z</time>
      </trkpt>
      <trkpt lat="43.22809" lon="5.49111">
        <ele>368.5</ele>
        <time>2025-10-18T14:44:50Z</time>
      </trkpt>
      <trkpt lat="43.2281" lon="5.49112">
        <ele>368.4</ele>
        <time>2025-10-18T14:44:51Z</time>
      </trkpt>
      <trkpt lat="43.22809" lon="5.49113">
        <ele>368.1</ele>
        <time>2025-10-18T14:44:52Z</time>
      </trkpt>
      <trkpt lat="43.22809" lon="5.49114">
        <ele>368</ele>
        <time>2025-10-18T14:44:53Z</time>
      </trkpt>
      <trkpt lat="43.22809" lon="5.49116">
        <ele>367.8</ele>
        <time>2025-10-18T14:44:54Z</time>
      </trkpt>
      <trkpt lat="43.22809" lon="5.49117">
        <ele>367.7</ele>
        <time>2025-10-18T14:44:55Z</time>
      </trkpt>
      <trkpt lat="43.22809" lon="5.49119">
        <ele>367.5</ele>
        <time>2025-10-18T14:44:56Z</time>
      </trkpt>
      <trkpt lat="43.22809" lon="5.4912">
        <ele>367.4</ele>
        <time>2025-10-18T14:44:57Z</time>
      </trkpt>
      <trkpt lat="43.22809" lon="5.49121">
        <ele>367.1</ele>
        <time>2025-10-18T14:44:58Z</time>
      </trkpt>
      <trkpt lat="43.22809" lon="5.49122">
        <ele>366.9</ele>
        <time>2025-10-18T14:44:59Z</time>
      </trkpt>
      <trkpt lat="43.22809" lon="5.49123">
        <ele>366.8</ele>
        <time>2025-10-18T14:45:00Z</time>
      </trkpt>
      <trkpt lat="43.22808" lon="5.49123">
        <ele>366.6</ele>
        <time>2025-10-18T14:45:01Z</time>
      </trkpt>
      <trkpt lat="43.22808" lon="5.49124">
        <ele>366.5</ele>
        <time>2025-10-18T14:45:02Z</time>
      </trkpt>
      <trkpt lat="43.22808" lon="5.49126">
        <ele>366.3</ele>
        <time>2025-10-18T14:45:03Z</time>
      </trkpt>
      <trkpt lat="43.22808" lon="5.49127">
        <ele>366.1</ele>
        <time>2025-10-18T14:45:04Z</time>
      </trkpt>
      <trkpt lat="43.22808" lon="5.49128">
        <ele>366</ele>
        <time>2025-10-18T14:45:05Z</time>
      </trkpt>
      <trkpt lat="43.22808" lon="5.49129">
        <ele>365.9</ele>
        <time>2025-10-18T14:45:06Z</time>
      </trkpt>
      <trkpt lat="43.22808" lon="5.4913">
        <ele>365.7</ele>
        <time>2025-10-18T14:45:07Z</time>
      </trkpt>
      <trkpt lat="43.22808" lon="5.49131">
        <ele>365.5</ele>
        <time>2025-10-18T14:45:08Z</time>
      </trkpt>
      <trkpt lat="43.22808" lon="5.49132">
        <ele>365.3</ele>
        <time>2025-10-18T14:45:09Z</time>
      </trkpt>
      <trkpt lat="43.22808" lon="5.49133">
        <ele>365.1</ele>
        <time>2025-10-18T14:45:10Z</time>
      </trkpt>
      <trkpt lat="43.22808" lon="5.49134">
        <ele>365</ele>
        <time>2025-10-18T14:45:11Z</time>
      </trkpt>
      <trkpt lat="43.22808" lon="5.49135">
        <ele>364.9</ele>
        <time>2025-10-18T14:45:12Z</time>
      </trkpt>
      <trkpt lat="43.22808" lon="5.49136">
        <ele>364.6</ele>
        <time>2025-10-18T14:45:13Z</time>
      </trkpt>
      <trkpt lat="43.22808" lon="5.49137">
        <ele>364.6</ele>
        <time>2025-10-18T14:45:14Z</time>
      </trkpt>
      <trkpt lat="43.22808" lon="5.49138">
        <ele>364.5</ele>
        <time>2025-10-18T14:45:15Z</time>
      </trkpt>
      <trkpt lat="43.22808" lon="5.49139">
        <ele>364.4</ele>
        <time>2025-10-18T14:45:16Z</time>
      </trkpt>
      <trkpt lat="43.22808" lon="5.4914">
        <ele>364.3</ele>
        <time>2025-10-18T14:45:17Z</time>
      </trkpt>
      <trkpt lat="43.22808" lon="5.49141">
        <ele>364.1</ele>
        <time>2025-10-18T14:45:18Z</time>
      </trkpt>
      <trkpt lat="43.22808" lon="5.49142">
        <ele>363.8</ele>
        <time>2025-10-18T14:45:19Z</time>
      </trkpt>
      <trkpt lat="43.22808" lon="5.49143">
        <ele>363.7</ele>
        <time>2025-10-18T14:45:20Z</time>
      </trkpt>
      <trkpt lat="43.22808" lon="5.49144">
        <ele>363.5</ele>
        <time>2025-10-18T14:45:21Z</time>
      </trkpt>
      <trkpt lat="43.22808" lon="5.49145">
        <ele>363.4</ele>
        <time>2025-10-18T14:45:22Z</time>
      </trkpt>
      <trkpt lat="43.22808" lon="5.49146">
        <ele>363.4</ele>
        <time>2025-10-18T14:45:23Z</time>
      </trkpt>
      <trkpt lat="43.22808" lon="5.49147">
        <ele>363.3</ele>
        <time>2025-10-18T14:45:24Z</time>
      </trkpt>
      <trkpt lat="43.22808" lon="5.49148">
        <ele>363.2</ele>
        <time>2025-10-18T14:45:25Z</time>
      </trkpt>
      <trkpt lat="43.22808" lon="5.49149">
        <ele>363.1</ele>
        <time>2025-10-18T14:45:26Z</time>
      </trkpt>
      <trkpt lat="43.22808" lon="5.49149">
        <ele>363.1</ele>
        <time>2025-10-18T14:45:27Z</time>
      </trkpt>
      <trkpt lat="43.22808" lon="5.49149">
        <ele>363</ele>
        <time>2025-10-18T14:45:28Z</time>
      </trkpt>
      <trkpt lat="43.22808" lon="5.4915">
        <ele>362.9</ele>
        <time>2025-10-18T14:45:29Z</time>
      </trkpt>
      <trkpt lat="43.22808" lon="5.49151">
        <ele>362.8</ele>
        <time>2025-10-18T14:45:30Z</time>
      </trkpt>
      <trkpt lat="43.22808" lon="5.49152">
        <ele>362.7</ele>
        <time>2025-10-18T14:45:31Z</time>
      </trkpt>
      <trkpt lat="43.22808" lon="5.49152">
        <ele>362.5</ele>
        <time>2025-10-18T14:45:32Z</time>
      </trkpt>
      <trkpt lat="43.22808" lon="5.49153">
        <ele>362.4</ele>
        <time>2025-10-18T14:45:33Z</time>
      </trkpt>
      <trkpt lat="43.22808" lon="5.49154">
        <ele>362.3</ele>
        <time>2025-10-18T14:45:34Z</time>
      </trkpt>
      <trkpt lat="43.22808" lon="5.49155">
        <ele>362.1</ele>
        <time>2025-10-18T14:45:35Z</time>
      </trkpt>
      <trkpt lat="43.22808" lon="5.49156">
        <ele>362</ele>
        <time>2025-10-18T14:45:36Z</time>
      </trkpt>
      <trkpt lat="43.22808" lon="5.49157">
        <ele>361.9</ele>
        <time>2025-10-18T14:45:37Z</time>
      </trkpt>
      <trkpt lat="43.22808" lon="5.49158">
        <ele>361.9</ele>
        <time>2025-10-18T14:45:38Z</time>
      </trkpt>
      <trkpt lat="43.22808" lon="5.49159">
        <ele>361.7</ele>
        <time>2025-10-18T14:45:39Z</time>
      </trkpt>
      <trkpt lat="43.22808" lon="5.4916">
        <ele>361.5</ele>
        <time>2025-10-18T14:45:40Z</time>
      </trkpt>
      <trkpt lat="43.22808" lon="5.49161">
        <ele>361.3</ele>
        <time>2025-10-18T14:45:41Z</time>
      </trkpt>
      <trkpt lat="43.22808" lon="5.49162">
        <ele>361.1</ele>
        <time>2025-10-18T14:45:42Z</time>
      </trkpt>
      <trkpt lat="43.22808" lon="5.49162">
        <ele>360.9</ele>
        <time>2025-10-18T14:45:43Z</time>
      </trkpt>
      <trkpt lat="43.22808" lon="5.49164">
        <ele>360.8</ele>
        <time>2025-10-18T14:45:44Z</time>
      </trkpt>
      <trkpt lat="43.22808" lon="5.49165">
        <ele>360.8</ele>
        <time>2025-10-18T14:45:45Z</time>
      </trkpt>
      <trkpt lat="43.22808" lon="5.49166">
        <ele>360.6</ele>
        <time>2025-10-18T14:45:46Z</time>
      </trkpt>
      <trkpt lat="43.22808" lon="5.49167">
        <ele>360.5</ele>
        <time>2025-10-18T14:45:47Z</time>
      </trkpt>
      <trkpt lat="43.22808" lon="5.49168">
        <ele>360.4</ele>
        <time>2025-10-18T14:45:48Z</time>
      </trkpt>
      <trkpt lat="43.22808" lon="5.49169">
        <ele>360.2</ele>
        <time>2025-10-18T14:45:49Z</time>
      </trkpt>
      <trkpt lat="43.22808" lon="5.4917">
        <ele>360</ele>
        <time>2025-10-18T14:45:50Z</time>
      </trkpt>
      <trkpt lat="43.22808" lon="5.49171">
        <ele>359.9</ele>
        <time>2025-10-18T14:45:51Z</time>
      </trkpt>
      <trkpt lat="43.22808" lon="5.49171">
        <ele>359.8</ele>
        <time>2025-10-18T14:45:52Z</time>
      </trkpt>
      <trkpt lat="43.22808" lon="5.49172">
        <ele>359.7</ele>
        <time>2025-10-18T14:45:53Z</time>
      </trkpt>
      <trkpt lat="43.22808" lon="5.49173">
        <ele>359.4</ele>
        <time>2025-10-18T14:45:54Z</time>
      </trkpt>
      <trkpt lat="43.22808" lon="5.49174">
        <ele>359.3</ele>
        <time>2025-10-18T14:45:55Z</time>
      </trkpt>
      <trkpt lat="43.22808" lon="5.49175">
        <ele>359.1</ele>
        <time>2025-10-18T14:45:56Z</time>
      </trkpt>
      <trkpt lat="43.22808" lon="5.49176">
        <ele>359</ele>
        <time>2025-10-18T14:45:57Z</time>
      </trkpt>
      <trkpt lat="43.22809" lon="5.49177">
        <ele>358.9</ele>
        <time>2025-10-18T14:45:58Z</time>
      </trkpt>
      <trkpt lat="43.22809" lon="5.49178">
        <ele>358.8</ele>
        <time>2025-10-18T14:45:59Z</time>
      </trkpt>
      <trkpt lat="43.22808" lon="5.49179">
        <ele>358.6</ele>
        <time>2025-10-18T14:46:00Z</time>
      </trkpt>
      <trkpt lat="43.22808" lon="5.4918">
        <ele>358.5</ele>
        <time>2025-10-18T14:46:01Z</time>
      </trkpt>
      <trkpt lat="43.22808" lon="5.49181">
        <ele>358.3</ele>
        <time>2025-10-18T14:46:02Z</time>
      </trkpt>
      <trkpt lat="43.22808" lon="5.49181">
        <ele>358.2</ele>
        <time>2025-10-18T14:46:03Z</time>
      </trkpt>
      <trkpt lat="43.22809" lon="5.49182">
        <ele>358</ele>
        <time>2025-10-18T14:46:04Z</time>
      </trkpt>
      <trkpt lat="43.22809" lon="5.49183">
        <ele>357.8</ele>
        <time>2025-10-18T14:46:05Z</time>
      </trkpt>
      <trkpt lat="43.22809" lon="5.49184">
        <ele>357.7</ele>
        <time>2025-10-18T14:46:06Z</time>
      </trkpt>
      <trkpt lat="43.22808" lon="5.49185">
        <ele>357.6</ele>
        <time>2025-10-18T14:46:07Z</time>
      </trkpt>
      <trkpt lat="43.22808" lon="5.49186">
        <ele>357.5</ele>
        <time>2025-10-18T14:46:08Z</time>
      </trkpt>
      <trkpt lat="43.22808" lon="5.49186">
        <ele>357.3</ele>
        <time>2025-10-18T14:46:09Z</time>
      </trkpt>
      <trkpt lat="43.22808" lon="5.49187">
        <ele>357.1</ele>
        <time>2025-10-18T14:46:10Z</time>
      </trkpt>
      <trkpt lat="43.22808" lon="5.49188">
        <ele>357</ele>
        <time>2025-10-18T14:46:11Z</time>
      </trkpt>
      <trkpt lat="43.22808" lon="5.49189">
        <ele>356.8</ele>
        <time>2025-10-18T14:46:12Z</time>
      </trkpt>
      <trkpt lat="43.22808" lon="5.4919">
        <ele>356.7</ele>
        <time>2025-10-18T14:46:13Z</time>
      </trkpt>
      <trkpt lat="43.22808" lon="5.49191">
        <ele>356.6</ele>
        <time>2025-10-18T14:46:14Z</time>
      </trkpt>
      <trkpt lat="43.22808" lon="5.49192">
        <ele>356.5</ele>
        <time>2025-10-18T14:46:15Z</time>
      </trkpt>
      <trkpt lat="43.22808" lon="5.49194">
        <ele>356.3</ele>
        <time>2025-10-18T14:46:16Z</time>
      </trkpt>
      <trkpt lat="43.22808" lon="5.49194">
        <ele>356.2</ele>
        <time>2025-10-18T14:46:17Z</time>
      </trkpt>
      <trkpt lat="43.22808" lon="5.49195">
        <ele>356.1</ele>
        <time>2025-10-18T14:46:18Z</time>
      </trkpt>
      <trkpt lat="43.22808" lon="5.49196">
        <ele>356</ele>
        <time>2025-10-18T14:46:19Z</time>
      </trkpt>
      <trkpt lat="43.22808" lon="5.49197">
        <ele>355.8</ele>
        <time>2025-10-18T14:46:20Z</time>
      </trkpt>
      <trkpt lat="43.22808" lon="5.49198">
        <ele>355.7</ele>
        <time>2025-10-18T14:46:21Z</time>
      </trkpt>
      <trkpt lat="43.22808" lon="5.49199">
        <ele>355.5</ele>
        <time>2025-10-18T14:46:22Z</time>
      </trkpt>
      <trkpt lat="43.22808" lon="5.492">
        <ele>355.4</ele>
        <time>2025-10-18T14:46:23Z</time>
      </trkpt>
      <trkpt lat="43.22808" lon="5.49201">
        <ele>355.3</ele>
        <time>2025-10-18T14:46:24Z</time>
      </trkpt>
      <trkpt lat="43.22808" lon="5.49202">
        <ele>355.2</ele>
        <time>2025-10-18T14:46:25Z</time>
      </trkpt>
      <trkpt lat="43.22808" lon="5.49203">
        <ele>355.1</ele>
        <time>2025-10-18T14:46:26Z</time>
      </trkpt>
      <trkpt lat="43.22807" lon="5.49204">
        <ele>355</ele>
        <time>2025-10-18T14:46:27Z</time>
      </trkpt>
      <trkpt lat="43.22807" lon="5.49205">
        <ele>354.8</ele>
        <time>2025-10-18T14:46:28Z</time>
      </trkpt>
      <trkpt lat="43.22807" lon="5.49206">
        <ele>354.7</ele>
        <time>2025-10-18T14:46:29Z</time>
      </trkpt>
      <trkpt lat="43.22806" lon="5.49207">
        <ele>354.5</ele>
        <time>2025-10-18T14:46:30Z</time>
      </trkpt>
      <trkpt lat="43.22806" lon="5.49208">
        <ele>354.4</ele>
        <time>2025-10-18T14:46:31Z</time>
      </trkpt>
      <trkpt lat="43.22806" lon="5.49209">
        <ele>354.2</ele>
        <time>2025-10-18T14:46:32Z</time>
      </trkpt>
      <trkpt lat="43.22806" lon="5.4921">
        <ele>354.1</ele>
        <time>2025-10-18T14:46:33Z</time>
      </trkpt>
      <trkpt lat="43.22805" lon="5.49211">
        <ele>354</ele>
        <time>2025-10-18T14:46:34Z</time>
      </trkpt>
      <trkpt lat="43.22805" lon="5.49213">
        <ele>353.9</ele>
        <time>2025-10-18T14:46:35Z</time>
      </trkpt>
      <trkpt lat="43.22805" lon="5.49214">
        <ele>353.7</ele>
        <time>2025-10-18T14:46:36Z</time>
      </trkpt>
      <trkpt lat="43.22805" lon="5.49215">
        <ele>353.5</ele>
        <time>2025-10-18T14:46:37Z</time>
      </trkpt>
      <trkpt lat="43.22805" lon="5.49216">
        <ele>353.3</ele>
        <time>2025-10-18T14:46:38Z</time>
      </trkpt>
      <trkpt lat="43.22804" lon="5.49217">
        <ele>353.1</ele>
        <time>2025-10-18T14:46:39Z</time>
      </trkpt>
      <trkpt lat="43.22803" lon="5.49218">
        <ele>352.9</ele>
        <time>2025-10-18T14:46:40Z</time>
      </trkpt>
      <trkpt lat="43.22803" lon="5.49218">
        <ele>352.8</ele>
        <time>2025-10-18T14:46:41Z</time>
      </trkpt>
      <trkpt lat="43.22803" lon="5.49219">
        <ele>352.7</ele>
        <time>2025-10-18T14:46:42Z</time>
      </trkpt>
      <trkpt lat="43.22803" lon="5.49221">
        <ele>352.6</ele>
        <time>2025-10-18T14:46:43Z</time>
      </trkpt>
      <trkpt lat="43.22802" lon="5.49222">
        <ele>352.5</ele>
        <time>2025-10-18T14:46:44Z</time>
      </trkpt>
      <trkpt lat="43.22802" lon="5.49223">
        <ele>352.3</ele>
        <time>2025-10-18T14:46:45Z</time>
      </trkpt>
      <trkpt lat="43.22802" lon="5.49224">
        <ele>352.1</ele>
        <time>2025-10-18T14:46:46Z</time>
      </trkpt>
      <trkpt lat="43.22801" lon="5.49225">
        <ele>351.9</ele>
        <time>2025-10-18T14:46:47Z</time>
      </trkpt>
      <trkpt lat="43.22801" lon="5.49226">
        <ele>351.8</ele>
        <time>2025-10-18T14:46:48Z</time>
      </trkpt>
      <trkpt lat="43.22801" lon="5.49227">
        <ele>351.7</ele>
        <time>2025-10-18T14:46:49Z</time>
      </trkpt>
      <trkpt lat="43.228" lon="5.49228">
        <ele>351.5</ele>
        <time>2025-10-18T14:46:50Z</time>
      </trkpt>
      <trkpt lat="43.228" lon="5.49229">
        <ele>351.4</ele>
        <time>2025-10-18T14:46:51Z</time>
      </trkpt>
      <trkpt lat="43.228" lon="5.4923">
        <ele>351.4</ele>
        <time>2025-10-18T14:46:52Z</time>
      </trkpt>
      <trkpt lat="43.22799" lon="5.49231">
        <ele>351.3</ele>
        <time>2025-10-18T14:46:53Z</time>
      </trkpt>
      <trkpt lat="43.22799" lon="5.49233">
        <ele>351.2</ele>
        <time>2025-10-18T14:46:54Z</time>
      </trkpt>
      <trkpt lat="43.22799" lon="5.49234">
        <ele>351</ele>
        <time>2025-10-18T14:46:55Z</time>
      </trkpt>
      <trkpt lat="43.22799" lon="5.49235">
        <ele>350.8</ele>
        <time>2025-10-18T14:46:56Z</time>
      </trkpt>
      <trkpt lat="43.22798" lon="5.49236">
        <ele>350.7</ele>
        <time>2025-10-18T14:46:57Z</time>
      </trkpt>
      <trkpt lat="43.22798" lon="5.49237">
        <ele>350.7</ele>
        <time>2025-10-18T14:46:58Z</time>
      </trkpt>
      <trkpt lat="43.22798" lon="5.49239">
        <ele>350.5</ele>
        <time>2025-10-18T14:46:59Z</time>
      </trkpt>
      <trkpt lat="43.22798" lon="5.4924">
        <ele>350.4</ele>
        <time>2025-10-18T14:47:00Z</time>
      </trkpt>
      <trkpt lat="43.22798" lon="5.49241">
        <ele>350.3</ele>
        <time>2025-10-18T14:47:01Z</time>
      </trkpt>
      <trkpt lat="43.22798" lon="5.49242">
        <ele>350.2</ele>
        <time>2025-10-18T14:47:02Z</time>
      </trkpt>
      <trkpt lat="43.22798" lon="5.49243">
        <ele>350.1</ele>
        <time>2025-10-18T14:47:03Z</time>
      </trkpt>
      <trkpt lat="43.22798" lon="5.49245">
        <ele>350.1</ele>
        <time>2025-10-18T14:47:04Z</time>
      </trkpt>
      <trkpt lat="43.22798" lon="5.49246">
        <ele>349.9</ele>
        <time>2025-10-18T14:47:05Z</time>
      </trkpt>
      <trkpt lat="43.22798" lon="5.49247">
        <ele>349.8</ele>
        <time>2025-10-18T14:47:06Z</time>
      </trkpt>
      <trkpt lat="43.22798" lon="5.49248">
        <ele>349.7</ele>
        <time>2025-10-18T14:47:07Z</time>
      </trkpt>
      <trkpt lat="43.22798" lon="5.49249">
        <ele>349.5</ele>
        <time>2025-10-18T14:47:08Z</time>
      </trkpt>
      <trkpt lat="43.22798" lon="5.49251">
        <ele>349.3</ele>
        <time>2025-10-18T14:47:09Z</time>
      </trkpt>
      <trkpt lat="43.22797" lon="5.49252">
        <ele>349.2</ele>
        <time>2025-10-18T14:47:10Z</time>
      </trkpt>
      <trkpt lat="43.22797" lon="5.49253">
        <ele>349</ele>
        <time>2025-10-18T14:47:11Z</time>
      </trkpt>
      <trkpt lat="43.22797" lon="5.49254">
        <ele>348.9</ele>
        <time>2025-10-18T14:47:12Z</time>
      </trkpt>
      <trkpt lat="43.22796" lon="5.49255">
        <ele>348.8</ele>
        <time>2025-10-18T14:47:13Z</time>
      </trkpt>
      <trkpt lat="43.22795" lon="5.49257">
        <ele>348.8</ele>
        <time>2025-10-18T14:47:14Z</time>
      </trkpt>
      <trkpt lat="43.22795" lon="5.49258">
        <ele>348.7</ele>
        <time>2025-10-18T14:47:15Z</time>
      </trkpt>
      <trkpt lat="43.22795" lon="5.49259">
        <ele>348.6</ele>
        <time>2025-10-18T14:47:16Z</time>
      </trkpt>
      <trkpt lat="43.22794" lon="5.49261">
        <ele>348.5</ele>
        <time>2025-10-18T14:47:17Z</time>
      </trkpt>
      <trkpt lat="43.22794" lon="5.49262">
        <ele>348.4</ele>
        <time>2025-10-18T14:47:18Z</time>
      </trkpt>
      <trkpt lat="43.22793" lon="5.49263">
        <ele>348.3</ele>
        <time>2025-10-18T14:47:19Z</time>
      </trkpt>
      <trkpt lat="43.22793" lon="5.49264">
        <ele>348.2</ele>
        <time>2025-10-18T14:47:20Z</time>
      </trkpt>
      <trkpt lat="43.22793" lon="5.49266">
        <ele>348.1</ele>
        <time>2025-10-18T14:47:21Z</time>
      </trkpt>
      <trkpt lat="43.22792" lon="5.49267">
        <ele>347.9</ele>
        <time>2025-10-18T14:47:22Z</time>
      </trkpt>
      <trkpt lat="43.22792" lon="5.49268">
        <ele>347.8</ele>
        <time>2025-10-18T14:47:23Z</time>
      </trkpt>
      <trkpt lat="43.22791" lon="5.4927">
        <ele>347.8</ele>
        <time>2025-10-18T14:47:24Z</time>
      </trkpt>
      <trkpt lat="43.22791" lon="5.49271">
        <ele>347.7</ele>
        <time>2025-10-18T14:47:25Z</time>
      </trkpt>
      <trkpt lat="43.22791" lon="5.49273">
        <ele>347.6</ele>
        <time>2025-10-18T14:47:26Z</time>
      </trkpt>
      <trkpt lat="43.22791" lon="5.49274">
        <ele>347.5</ele>
        <time>2025-10-18T14:47:27Z</time>
      </trkpt>
      <trkpt lat="43.22791" lon="5.49275">
        <ele>347.3</ele>
        <time>2025-10-18T14:47:28Z</time>
      </trkpt>
      <trkpt lat="43.22791" lon="5.49276">
        <ele>347.1</ele>
        <time>2025-10-18T14:47:29Z</time>
      </trkpt>
      <trkpt lat="43.22791" lon="5.49277">
        <ele>347</ele>
        <time>2025-10-18T14:47:30Z</time>
      </trkpt>
      <trkpt lat="43.22791" lon="5.49279">
        <ele>346.9</ele>
        <time>2025-10-18T14:47:31Z</time>
      </trkpt>
      <trkpt lat="43.2279" lon="5.4928">
        <ele>346.8</ele>
        <time>2025-10-18T14:47:32Z</time>
      </trkpt>
      <trkpt lat="43.2279" lon="5.49282">
        <ele>346.7</ele>
        <time>2025-10-18T14:47:33Z</time>
      </trkpt>
      <trkpt lat="43.2279" lon="5.49283">
        <ele>346.7</ele>
        <time>2025-10-18T14:47:34Z</time>
      </trkpt>
      <trkpt lat="43.2279" lon="5.49284">
        <ele>346.6</ele>
        <time>2025-10-18T14:47:35Z</time>
      </trkpt>
      <trkpt lat="43.22789" lon="5.49285">
        <ele>346.4</ele>
        <time>2025-10-18T14:47:36Z</time>
      </trkpt>
      <trkpt lat="43.22789" lon="5.49286">
        <ele>346.3</ele>
        <time>2025-10-18T14:47:37Z</time>
      </trkpt>
      <trkpt lat="43.22789" lon="5.49287">
        <ele>346.1</ele>
        <time>2025-10-18T14:47:38Z</time>
      </trkpt>
      <trkpt lat="43.22789" lon="5.49289">
        <ele>346</ele>
        <time>2025-10-18T14:47:39Z</time>
      </trkpt>
      <trkpt lat="43.22788" lon="5.4929">
        <ele>345.9</ele>
        <time>2025-10-18T14:47:40Z</time>
      </trkpt>
      <trkpt lat="43.22788" lon="5.49291">
        <ele>345.8</ele>
        <time>2025-10-18T14:47:41Z</time>
      </trkpt>
      <trkpt lat="43.22788" lon="5.49292">
        <ele>345.7</ele>
        <time>2025-10-18T14:47:42Z</time>
      </trkpt>
      <trkpt lat="43.22788" lon="5.49293">
        <ele>345.6</ele>
        <time>2025-10-18T14:47:43Z</time>
      </trkpt>
      <trkpt lat="43.22788" lon="5.49294">
        <ele>345.6</ele>
        <time>2025-10-18T14:47:44Z</time>
      </trkpt>
      <trkpt lat="43.22787" lon="5.49295">
        <ele>345.4</ele>
        <time>2025-10-18T14:47:45Z</time>
      </trkpt>
      <trkpt lat="43.22787" lon="5.49296">
        <ele>345.4</ele>
        <time>2025-10-18T14:47:46Z</time>
      </trkpt>
      <trkpt lat="43.22787" lon="5.49297">
        <ele>345.3</ele>
        <time>2025-10-18T14:47:47Z</time>
      </trkpt>
      <trkpt lat="43.22786" lon="5.49298">
        <ele>345.2</ele>
        <time>2025-10-18T14:47:48Z</time>
      </trkpt>
      <trkpt lat="43.22785" lon="5.49299">
        <ele>345.2</ele>
        <time>2025-10-18T14:47:49Z</time>
      </trkpt>
      <trkpt lat="43.22785" lon="5.49301">
        <ele>345</ele>
        <time>2025-10-18T14:47:50Z</time>
      </trkpt>
      <trkpt lat="43.22785" lon="5.49302">
        <ele>344.8</ele>
        <time>2025-10-18T14:47:51Z</time>
      </trkpt>
      <trkpt lat="43.22785" lon="5.49303">
        <ele>344.6</ele>
        <time>2025-10-18T14:47:52Z</time>
      </trkpt>
      <trkpt lat="43.22785" lon="5.49304">
        <ele>344.6</ele>
        <time>2025-10-18T14:47:53Z</time>
      </trkpt>
      <trkpt lat="43.22784" lon="5.49306">
        <ele>344.5</ele>
        <time>2025-10-18T14:47:54Z</time>
      </trkpt>
      <trkpt lat="43.22784" lon="5.49307">
        <ele>344.5</ele>
        <time>2025-10-18T14:47:55Z</time>
      </trkpt>
      <trkpt lat="43.22784" lon="5.49309">
        <ele>344.4</ele>
        <time>2025-10-18T14:47:56Z</time>
      </trkpt>
      <trkpt lat="43.22784" lon="5.49311">
        <ele>344.3</ele>
        <time>2025-10-18T14:47:57Z</time>
      </trkpt>
      <trkpt lat="43.22783" lon="5.49312">
        <ele>344.2</ele>
        <time>2025-10-18T14:47:58Z</time>
      </trkpt>
      <trkpt lat="43.22783" lon="5.49314">
        <ele>344.1</ele>
        <time>2025-10-18T14:47:59Z</time>
      </trkpt>
      <trkpt lat="43.22783" lon="5.49315">
        <ele>344</ele>
        <time>2025-10-18T14:48:00Z</time>
      </trkpt>
      <trkpt lat="43.22783" lon="5.49317">
        <ele>343.9</ele>
        <time>2025-10-18T14:48:01Z</time>
      </trkpt>
      <trkpt lat="43.22783" lon="5.49318">
        <ele>343.8</ele>
        <time>2025-10-18T14:48:02Z</time>
      </trkpt>
      <trkpt lat="43.22782" lon="5.49319">
        <ele>343.6</ele>
        <time>2025-10-18T14:48:03Z</time>
      </trkpt>
      <trkpt lat="43.22782" lon="5.4932">
        <ele>343.5</ele>
        <time>2025-10-18T14:48:04Z</time>
      </trkpt>
      <trkpt lat="43.22782" lon="5.49321">
        <ele>343.3</ele>
        <time>2025-10-18T14:48:05Z</time>
      </trkpt>
      <trkpt lat="43.22781" lon="5.49322">
        <ele>343.2</ele>
        <time>2025-10-18T14:48:06Z</time>
      </trkpt>
      <trkpt lat="43.22781" lon="5.49323">
        <ele>343</ele>
        <time>2025-10-18T14:48:07Z</time>
      </trkpt>
      <trkpt lat="43.22781" lon="5.49324">
        <ele>342.9</ele>
        <time>2025-10-18T14:48:08Z</time>
      </trkpt>
      <trkpt lat="43.2278" lon="5.49325">
        <ele>342.8</ele>
        <time>2025-10-18T14:48:09Z</time>
      </trkpt>
      <trkpt lat="43.2278" lon="5.49327">
        <ele>342.7</ele>
        <time>2025-10-18T14:48:10Z</time>
      </trkpt>
      <trkpt lat="43.2278" lon="5.49328">
        <ele>342.6</ele>
        <time>2025-10-18T14:48:11Z</time>
      </trkpt>
      <trkpt lat="43.2278" lon="5.49329">
        <ele>342.4</ele>
        <time>2025-10-18T14:48:12Z</time>
      </trkpt>
      <trkpt lat="43.2278" lon="5.4933">
        <ele>342.3</ele>
        <time>2025-10-18T14:48:13Z</time>
      </trkpt>
      <trkpt lat="43.22779" lon="5.49332">
        <ele>342.2</ele>
        <time>2025-10-18T14:48:14Z</time>
      </trkpt>
      <trkpt lat="43.22779" lon="5.49333">
        <ele>342</ele>
        <time>2025-10-18T14:48:15Z</time>
      </trkpt>
      <trkpt lat="43.22779" lon="5.49334">
        <ele>341.9</ele>
        <time>2025-10-18T14:48:16Z</time>
      </trkpt>
      <trkpt lat="43.22779" lon="5.49336">
        <ele>341.8</ele>
        <time>2025-10-18T14:48:17Z</time>
      </trkpt>
      <trkpt lat="43.22779" lon="5.49337">
        <ele>341.6</ele>
        <time>2025-10-18T14:48:18Z</time>
      </trkpt>
      <trkpt lat="43.22779" lon="5.49339">
        <ele>341.5</ele>
        <time>2025-10-18T14:48:19Z</time>
      </trkpt>
      <trkpt lat="43.22779" lon="5.4934">
        <ele>341.4</ele>
        <time>2025-10-18T14:48:20Z</time>
      </trkpt>
      <trkpt lat="43.22778" lon="5.49342">
        <ele>341.3</ele>
        <time>2025-10-18T14:48:21Z</time>
      </trkpt>
      <trkpt lat="43.22778" lon="5.49343">
        <ele>341.2</ele>
        <time>2025-10-18T14:48:22Z</time>
      </trkpt>
      <trkpt lat="43.22778" lon="5.49344">
        <ele>341</ele>
        <time>2025-10-18T14:48:23Z</time>
      </trkpt>
      <trkpt lat="43.22778" lon="5.49345">
        <ele>340.9</ele>
        <time>2025-10-18T14:48:24Z</time>
      </trkpt>
      <trkpt lat="43.22777" lon="5.49347">
        <ele>340.7</ele>
        <time>2025-10-18T14:48:25Z</time>
      </trkpt>
      <trkpt lat="43.22777" lon="5.49348">
        <ele>340.6</ele>
        <time>2025-10-18T14:48:26Z</time>
      </trkpt>
      <trkpt lat="43.22777" lon="5.49349">
        <ele>340.4</ele>
        <time>2025-10-18T14:48:27Z</time>
      </trkpt>
      <trkpt lat="43.22777" lon="5.4935">
        <ele>340.2</ele>
        <time>2025-10-18T14:48:28Z</time>
      </trkpt>
      <trkpt lat="43.22777" lon="5.49351">
        <ele>340</ele>
        <time>2025-10-18T14:48:29Z</time>
      </trkpt>
      <trkpt lat="43.22776" lon="5.49353">
        <ele>339.8</ele>
        <time>2025-10-18T14:48:30Z</time>
      </trkpt>
      <trkpt lat="43.22776" lon="5.49354">
        <ele>339.7</ele>
        <time>2025-10-18T14:48:31Z</time>
      </trkpt>
      <trkpt lat="43.22776" lon="5.49355">
        <ele>339.5</ele>
        <time>2025-10-18T14:48:32Z</time>
      </trkpt>
      <trkpt lat="43.22776" lon="5.49357">
        <ele>339.3</ele>
        <time>2025-10-18T14:48:33Z</time>
      </trkpt>
      <trkpt lat="43.22775" lon="5.49358">
        <ele>339</ele>
        <time>2025-10-18T14:48:34Z</time>
      </trkpt>
      <trkpt lat="43.22775" lon="5.49359">
        <ele>338.8</ele>
        <time>2025-10-18T14:48:35Z</time>
      </trkpt>
      <trkpt lat="43.22775" lon="5.4936">
        <ele>338.8</ele>
        <time>2025-10-18T14:48:36Z</time>
      </trkpt>
      <trkpt lat="43.22775" lon="5.49361">
        <ele>338.7</ele>
        <time>2025-10-18T14:48:37Z</time>
      </trkpt>
      <trkpt lat="43.22775" lon="5.49363">
        <ele>338.5</ele>
        <time>2025-10-18T14:48:38Z</time>
      </trkpt>
      <trkpt lat="43.22774" lon="5.49364">
        <ele>338.4</ele>
        <time>2025-10-18T14:48:39Z</time>
      </trkpt>
      <trkpt lat="43.22774" lon="5.49366">
        <ele>338.3</ele>
        <time>2025-10-18T14:48:40Z</time>
      </trkpt>
      <trkpt lat="43.22774" lon="5.49367">
        <ele>338.2</ele>
        <time>2025-10-18T14:48:41Z</time>
      </trkpt>
      <trkpt lat="43.22774" lon="5.49368">
        <ele>337.9</ele>
        <time>2025-10-18T14:48:42Z</time>
      </trkpt>
      <trkpt lat="43.22774" lon="5.49369">
        <ele>337.8</ele>
        <time>2025-10-18T14:48:43Z</time>
      </trkpt>
      <trkpt lat="43.22774" lon="5.4937">
        <ele>337.6</ele>
        <time>2025-10-18T14:48:44Z</time>
      </trkpt>
      <trkpt lat="43.22774" lon="5.49371">
        <ele>337.4</ele>
        <time>2025-10-18T14:48:45Z</time>
      </trkpt>
      <trkpt lat="43.22774" lon="5.49372">
        <ele>337.3</ele>
        <time>2025-10-18T14:48:46Z</time>
      </trkpt>
      <trkpt lat="43.22773" lon="5.49374">
        <ele>337.2</ele>
        <time>2025-10-18T14:48:47Z</time>
      </trkpt>
      <trkpt lat="43.22773" lon="5.49375">
        <ele>337.1</ele>
        <time>2025-10-18T14:48:48Z</time>
      </trkpt>
      <trkpt lat="43.22772" lon="5.49376">
        <ele>336.9</ele>
        <time>2025-10-18T14:48:49Z</time>
      </trkpt>
      <trkpt lat="43.22772" lon="5.49377">
        <ele>336.7</ele>
        <time>2025-10-18T14:48:50Z</time>
      </trkpt>
      <trkpt lat="43.22771" lon="5.49378">
        <ele>336.4</ele>
        <time>2025-10-18T14:48:51Z</time>
      </trkpt>
      <trkpt lat="43.22771" lon="5.49379">
        <ele>336.1</ele>
        <time>2025-10-18T14:48:52Z</time>
      </trkpt>
      <trkpt lat="43.22771" lon="5.4938">
        <ele>335.9</ele>
        <time>2025-10-18T14:48:53Z</time>
      </trkpt>
      <trkpt lat="43.22771" lon="5.49381">
        <ele>335.7</ele>
        <time>2025-10-18T14:48:54Z</time>
      </trkpt>
      <trkpt lat="43.22771" lon="5.49383">
        <ele>335.5</ele>
        <time>2025-10-18T14:48:55Z</time>
      </trkpt>
      <trkpt lat="43.2277" lon="5.49384">
        <ele>335.4</ele>
        <time>2025-10-18T14:48:56Z</time>
      </trkpt>
      <trkpt lat="43.22771" lon="5.49385">
        <ele>335.3</ele>
        <time>2025-10-18T14:48:57Z</time>
      </trkpt>
      <trkpt lat="43.2277" lon="5.49385">
        <ele>335.1</ele>
        <time>2025-10-18T14:48:58Z</time>
      </trkpt>
      <trkpt lat="43.2277" lon="5.49385">
        <ele>334.9</ele>
        <time>2025-10-18T14:48:59Z</time>
      </trkpt>
      <trkpt lat="43.22769" lon="5.49386">
        <ele>334.6</ele>
        <time>2025-10-18T14:49:00Z</time>
      </trkpt>
      <trkpt lat="43.22768" lon="5.49387">
        <ele>334.4</ele>
        <time>2025-10-18T14:49:01Z</time>
      </trkpt>
      <trkpt lat="43.22768" lon="5.49388">
        <ele>334.3</ele>
        <time>2025-10-18T14:49:02Z</time>
      </trkpt>
      <trkpt lat="43.22768" lon="5.4939">
        <ele>334.2</ele>
        <time>2025-10-18T14:49:03Z</time>
      </trkpt>
      <trkpt lat="43.22768" lon="5.49391">
        <ele>334.1</ele>
        <time>2025-10-18T14:49:04Z</time>
      </trkpt>
      <trkpt lat="43.22767" lon="5.49392">
        <ele>334</ele>
        <time>2025-10-18T14:49:05Z</time>
      </trkpt>
      <trkpt lat="43.22767" lon="5.49393">
        <ele>333.9</ele>
        <time>2025-10-18T14:49:06Z</time>
      </trkpt>
      <trkpt lat="43.22767" lon="5.49394">
        <ele>333.8</ele>
        <time>2025-10-18T14:49:07Z</time>
      </trkpt>
      <trkpt lat="43.22766" lon="5.49395">
        <ele>333.7</ele>
        <time>2025-10-18T14:49:08Z</time>
      </trkpt>
      <trkpt lat="43.22766" lon="5.49396">
        <ele>333.6</ele>
        <time>2025-10-18T14:49:09Z</time>
      </trkpt>
      <trkpt lat="43.22766" lon="5.49396">
        <ele>333.5</ele>
        <time>2025-10-18T14:49:10Z</time>
      </trkpt>
      <trkpt lat="43.22765" lon="5.49397">
        <ele>333.4</ele>
        <time>2025-10-18T14:49:11Z</time>
      </trkpt>
      <trkpt lat="43.22765" lon="5.49398">
        <ele>333.3</ele>
        <time>2025-10-18T14:49:12Z</time>
      </trkpt>
      <trkpt lat="43.22764" lon="5.49399">
        <ele>333.1</ele>
        <time>2025-10-18T14:49:13Z</time>
      </trkpt>
      <trkpt lat="43.22764" lon="5.49401">
        <ele>333</ele>
        <time>2025-10-18T14:49:14Z</time>
      </trkpt>
      <trkpt lat="43.22764" lon="5.49402">
        <ele>332.8</ele>
        <time>2025-10-18T14:49:15Z</time>
      </trkpt>
      <trkpt lat="43.22763" lon="5.49403">
        <ele>332.7</ele>
        <time>2025-10-18T14:49:16Z</time>
      </trkpt>
      <trkpt lat="43.22763" lon="5.49404">
        <ele>332.5</ele>
        <time>2025-10-18T14:49:17Z</time>
      </trkpt>
      <trkpt lat="43.22763" lon="5.49405">
        <ele>332.4</ele>
        <time>2025-10-18T14:49:18Z</time>
      </trkpt>
      <trkpt lat="43.22763" lon="5.49406">
        <ele>332.2</ele>
        <time>2025-10-18T14:49:19Z</time>
      </trkpt>
      <trkpt lat="43.22762" lon="5.49408">
        <ele>332</ele>
        <time>2025-10-18T14:49:20Z</time>
      </trkpt>
      <trkpt lat="43.22762" lon="5.49409">
        <ele>331.8</ele>
        <time>2025-10-18T14:49:21Z</time>
      </trkpt>
      <trkpt lat="43.22761" lon="5.4941">
        <ele>331.7</ele>
        <time>2025-10-18T14:49:22Z</time>
      </trkpt>
      <trkpt lat="43.22761" lon="5.49411">
        <ele>331.4</ele>
        <time>2025-10-18T14:49:23Z</time>
      </trkpt>
      <trkpt lat="43.2276" lon="5.49411">
        <ele>331.2</ele>
        <time>2025-10-18T14:49:24Z</time>
      </trkpt>
      <trkpt lat="43.2276" lon="5.49412">
        <ele>331</ele>
        <time>2025-10-18T14:49:25Z</time>
      </trkpt>
      <trkpt lat="43.22759" lon="5.49414">
        <ele>330.9</ele>
        <time>2025-10-18T14:49:26Z</time>
      </trkpt>
      <trkpt lat="43.22759" lon="5.49415">
        <ele>330.7</ele>
        <time>2025-10-18T14:49:27Z</time>
      </trkpt>
      <trkpt lat="43.22759" lon="5.49416">
        <ele>330.6</ele>
        <time>2025-10-18T14:49:28Z</time>
      </trkpt>
      <trkpt lat="43.22759" lon="5.49417">
        <ele>330.3</ele>
        <time>2025-10-18T14:49:29Z</time>
      </trkpt>
      <trkpt lat="43.22759" lon="5.49417">
        <ele>330.1</ele>
        <time>2025-10-18T14:49:30Z</time>
      </trkpt>
      <trkpt lat="43.22759" lon="5.49418">
        <ele>330</ele>
        <time>2025-10-18T14:49:31Z</time>
      </trkpt>
      <trkpt lat="43.22759" lon="5.49419">
        <ele>329.8</ele>
        <time>2025-10-18T14:49:32Z</time>
      </trkpt>
      <trkpt lat="43.22759" lon="5.4942">
        <ele>329.5</ele>
        <time>2025-10-18T14:49:33Z</time>
      </trkpt>
      <trkpt lat="43.22759" lon="5.49421">
        <ele>329.3</ele>
        <time>2025-10-18T14:49:34Z</time>
      </trkpt>
      <trkpt lat="43.22759" lon="5.49422">
        <ele>329.2</ele>
        <time>2025-10-18T14:49:35Z</time>
      </trkpt>
      <trkpt lat="43.22758" lon="5.49423">
        <ele>329.1</ele>
        <time>2025-10-18T14:49:36Z</time>
      </trkpt>
      <trkpt lat="43.22758" lon="5.49424">
        <ele>328.9</ele>
        <time>2025-10-18T14:49:37Z</time>
      </trkpt>
      <trkpt lat="43.22758" lon="5.49425">
        <ele>328.8</ele>
        <time>2025-10-18T14:49:38Z</time>
      </trkpt>
      <trkpt lat="43.22758" lon="5.49425">
        <ele>328.6</ele>
        <time>2025-10-18T14:49:39Z</time>
      </trkpt>
      <trkpt lat="43.22758" lon="5.49426">
        <ele>328.5</ele>
        <time>2025-10-18T14:49:40Z</time>
      </trkpt>
      <trkpt lat="43.22757" lon="5.49427">
        <ele>328.4</ele>
        <time>2025-10-18T14:49:41Z</time>
      </trkpt>
      <trkpt lat="43.22757" lon="5.49428">
        <ele>328.3</ele>
        <time>2025-10-18T14:49:42Z</time>
      </trkpt>
      <trkpt lat="43.22757" lon="5.49429">
        <ele>328.2</ele>
        <time>2025-10-18T14:49:43Z</time>
      </trkpt>
      <trkpt lat="43.22757" lon="5.4943">
        <ele>327.9</ele>
        <time>2025-10-18T14:49:44Z</time>
      </trkpt>
      <trkpt lat="43.22757" lon="5.49431">
        <ele>327.7</ele>
        <time>2025-10-18T14:49:45Z</time>
      </trkpt>
      <trkpt lat="43.22756" lon="5.49432">
        <ele>327.6</ele>
        <time>2025-10-18T14:49:46Z</time>
      </trkpt>
      <trkpt lat="43.22756" lon="5.49433">
        <ele>327.3</ele>
        <time>2025-10-18T14:49:47Z</time>
      </trkpt>
      <trkpt lat="43.22756" lon="5.49434">
        <ele>327.2</ele>
        <time>2025-10-18T14:49:48Z</time>
      </trkpt>
      <trkpt lat="43.22756" lon="5.49435">
        <ele>327.1</ele>
        <time>2025-10-18T14:49:49Z</time>
      </trkpt>
      <trkpt lat="43.22755" lon="5.49436">
        <ele>327.1</ele>
        <time>2025-10-18T14:49:50Z</time>
      </trkpt>
      <trkpt lat="43.22755" lon="5.49438">
        <ele>326.9</ele>
        <time>2025-10-18T14:49:51Z</time>
      </trkpt>
      <trkpt lat="43.22755" lon="5.49439">
        <ele>326.8</ele>
        <time>2025-10-18T14:49:52Z</time>
      </trkpt>
      <trkpt lat="43.22755" lon="5.4944">
        <ele>326.7</ele>
        <time>2025-10-18T14:49:53Z</time>
      </trkpt>
      <trkpt lat="43.22754" lon="5.49441">
        <ele>326.3</ele>
        <time>2025-10-18T14:49:54Z</time>
      </trkpt>
      <trkpt lat="43.22754" lon="5.49442">
        <ele>326.1</ele>
        <time>2025-10-18T14:49:55Z</time>
      </trkpt>
      <trkpt lat="43.22754" lon="5.49442">
        <ele>326</ele>
        <time>2025-10-18T14:49:56Z</time>
      </trkpt>
      <trkpt lat="43.22754" lon="5.49443">
        <ele>325.8</ele>
        <time>2025-10-18T14:49:57Z</time>
      </trkpt>
      <trkpt lat="43.22754" lon="5.49445">
        <ele>325.6</ele>
        <time>2025-10-18T14:49:58Z</time>
      </trkpt>
      <trkpt lat="43.22753" lon="5.49446">
        <ele>325.5</ele>
        <time>2025-10-18T14:49:59Z</time>
      </trkpt>
      <trkpt lat="43.22753" lon="5.49447">
        <ele>325.4</ele>
        <time>2025-10-18T14:50:00Z</time>
      </trkpt>
      <trkpt lat="43.22753" lon="5.49448">
        <ele>325.2</ele>
        <time>2025-10-18T14:50:01Z</time>
      </trkpt>
      <trkpt lat="43.22753" lon="5.49449">
        <ele>325</ele>
        <time>2025-10-18T14:50:02Z</time>
      </trkpt>
      <trkpt lat="43.22753" lon="5.4945">
        <ele>324.9</ele>
        <time>2025-10-18T14:50:03Z</time>
      </trkpt>
      <trkpt lat="43.22753" lon="5.49451">
        <ele>324.6</ele>
        <time>2025-10-18T14:50:04Z</time>
      </trkpt>
      <trkpt lat="43.22753" lon="5.49452">
        <ele>324.4</ele>
        <time>2025-10-18T14:50:05Z</time>
      </trkpt>
      <trkpt lat="43.22753" lon="5.49453">
        <ele>324.2</ele>
        <time>2025-10-18T14:50:06Z</time>
      </trkpt>
      <trkpt lat="43.22753" lon="5.49454">
        <ele>324</ele>
        <time>2025-10-18T14:50:07Z</time>
      </trkpt>
      <trkpt lat="43.22753" lon="5.49455">
        <ele>323.8</ele>
        <time>2025-10-18T14:50:08Z</time>
      </trkpt>
      <trkpt lat="43.22753" lon="5.49456">
        <ele>323.6</ele>
        <time>2025-10-18T14:50:09Z</time>
      </trkpt>
      <trkpt lat="43.22753" lon="5.49457">
        <ele>323.4</ele>
        <time>2025-10-18T14:50:10Z</time>
      </trkpt>
      <trkpt lat="43.22753" lon="5.49458">
        <ele>323.2</ele>
        <time>2025-10-18T14:50:11Z</time>
      </trkpt>
      <trkpt lat="43.22753" lon="5.49458">
        <ele>323</ele>
        <time>2025-10-18T14:50:12Z</time>
      </trkpt>
      <trkpt lat="43.22753" lon="5.49459">
        <ele>322.8</ele>
        <time>2025-10-18T14:50:13Z</time>
      </trkpt>
      <trkpt lat="43.22753" lon="5.4946">
        <ele>322.7</ele>
        <time>2025-10-18T14:50:14Z</time>
      </trkpt>
      <trkpt lat="43.22752" lon="5.49461">
        <ele>322.6</ele>
        <time>2025-10-18T14:50:15Z</time>
      </trkpt>
      <trkpt lat="43.22752" lon="5.49462">
        <ele>322.4</ele>
        <time>2025-10-18T14:50:16Z</time>
      </trkpt>
      <trkpt lat="43.22751" lon="5.49463">
        <ele>322.2</ele>
        <time>2025-10-18T14:50:17Z</time>
      </trkpt>
      <trkpt lat="43.22751" lon="5.49464">
        <ele>322</ele>
        <time>2025-10-18T14:50:18Z</time>
      </trkpt>
      <trkpt lat="43.22752" lon="5.49465">
        <ele>321.9</ele>
        <time>2025-10-18T14:50:19Z</time>
      </trkpt>
      <trkpt lat="43.22752" lon="5.49466">
        <ele>321.7</ele>
        <time>2025-10-18T14:50:20Z</time>
      </trkpt>
      <trkpt lat="43.22752" lon="5.49467">
        <ele>321.6</ele>
        <time>2025-10-18T14:50:21Z</time>
      </trkpt>
      <trkpt lat="43.22751" lon="5.49467">
        <ele>321.5</ele>
        <time>2025-10-18T14:50:22Z</time>
      </trkpt>
      <trkpt lat="43.22751" lon="5.49468">
        <ele>321.4</ele>
        <time>2025-10-18T14:50:23Z</time>
      </trkpt>
      <trkpt lat="43.22751" lon="5.49469">
        <ele>321.2</ele>
        <time>2025-10-18T14:50:24Z</time>
      </trkpt>
      <trkpt lat="43.22751" lon="5.4947">
        <ele>321</ele>
        <time>2025-10-18T14:50:25Z</time>
      </trkpt>
      <trkpt lat="43.2275" lon="5.49472">
        <ele>320.8</ele>
        <time>2025-10-18T14:50:26Z</time>
      </trkpt>
      <trkpt lat="43.2275" lon="5.49473">
        <ele>320.8</ele>
        <time>2025-10-18T14:50:27Z</time>
      </trkpt>
      <trkpt lat="43.2275" lon="5.49474">
        <ele>320.8</ele>
        <time>2025-10-18T14:50:28Z</time>
      </trkpt>
      <trkpt lat="43.22751" lon="5.49475">
        <ele>320.7</ele>
        <time>2025-10-18T14:50:29Z</time>
      </trkpt>
      <trkpt lat="43.22751" lon="5.49475">
        <ele>320.6</ele>
        <time>2025-10-18T14:50:30Z</time>
      </trkpt>
      <trkpt lat="43.22751" lon="5.49476">
        <ele>320.5</ele>
        <time>2025-10-18T14:50:31Z</time>
      </trkpt>
      <trkpt lat="43.2275" lon="5.49477">
        <ele>320.4</ele>
        <time>2025-10-18T14:50:32Z</time>
      </trkpt>
      <trkpt lat="43.2275" lon="5.49478">
        <ele>320.3</ele>
        <time>2025-10-18T14:50:33Z</time>
      </trkpt>
      <trkpt lat="43.2275" lon="5.49479">
        <ele>320.1</ele>
        <time>2025-10-18T14:50:34Z</time>
      </trkpt>
      <trkpt lat="43.2275" lon="5.49479">
        <ele>320</ele>
        <time>2025-10-18T14:50:35Z</time>
      </trkpt>
      <trkpt lat="43.22749" lon="5.4948">
        <ele>319.9</ele>
        <time>2025-10-18T14:50:36Z</time>
      </trkpt>
      <trkpt lat="43.2275" lon="5.49481">
        <ele>319.7</ele>
        <time>2025-10-18T14:50:37Z</time>
      </trkpt>
      <trkpt lat="43.2275" lon="5.49482">
        <ele>319.5</ele>
        <time>2025-10-18T14:50:38Z</time>
      </trkpt>
      <trkpt lat="43.2275" lon="5.49483">
        <ele>319.4</ele>
        <time>2025-10-18T14:50:39Z</time>
      </trkpt>
      <trkpt lat="43.2275" lon="5.49484">
        <ele>319.2</ele>
        <time>2025-10-18T14:50:40Z</time>
      </trkpt>
      <trkpt lat="43.22749" lon="5.49485">
        <ele>319.1</ele>
        <time>2025-10-18T14:50:41Z</time>
      </trkpt>
      <trkpt lat="43.22749" lon="5.49486">
        <ele>318.9</ele>
        <time>2025-10-18T14:50:42Z</time>
      </trkpt>
      <trkpt lat="43.2275" lon="5.49487">
        <ele>318.7</ele>
        <time>2025-10-18T14:50:43Z</time>
      </trkpt>
      <trkpt lat="43.2275" lon="5.49488">
        <ele>318.5</ele>
        <time>2025-10-18T14:50:44Z</time>
      </trkpt>
      <trkpt lat="43.2275" lon="5.49489">
        <ele>318.3</ele>
        <time>2025-10-18T14:50:45Z</time>
      </trkpt>
      <trkpt lat="43.2275" lon="5.4949">
        <ele>318.2</ele>
        <time>2025-10-18T14:50:46Z</time>
      </trkpt>
      <trkpt lat="43.2275" lon="5.49491">
        <ele>318.1</ele>
        <time>2025-10-18T14:50:47Z</time>
      </trkpt>
      <trkpt lat="43.2275" lon="5.49492">
        <ele>317.9</ele>
        <time>2025-10-18T14:50:48Z</time>
      </trkpt>
      <trkpt lat="43.2275" lon="5.49493">
        <ele>317.7</ele>
        <time>2025-10-18T14:50:49Z</time>
      </trkpt>
      <trkpt lat="43.2275" lon="5.49494">
        <ele>317.5</ele>
        <time>2025-10-18T14:50:50Z</time>
      </trkpt>
      <trkpt lat="43.2275" lon="5.49495">
        <ele>317.4</ele>
        <time>2025-10-18T14:50:51Z</time>
      </trkpt>
      <trkpt lat="43.2275" lon="5.49496">
        <ele>317.2</ele>
        <time>2025-10-18T14:50:52Z</time>
      </trkpt>
      <trkpt lat="43.2275" lon="5.49497">
        <ele>317.1</ele>
        <time>2025-10-18T14:50:53Z</time>
      </trkpt>
      <trkpt lat="43.2275" lon="5.49498">
        <ele>317</ele>
        <time>2025-10-18T14:50:54Z</time>
      </trkpt>
      <trkpt lat="43.2275" lon="5.49499">
        <ele>316.9</ele>
        <time>2025-10-18T14:50:55Z</time>
      </trkpt>
      <trkpt lat="43.2275" lon="5.49499">
        <ele>316.7</ele>
        <time>2025-10-18T14:50:56Z</time>
      </trkpt>
      <trkpt lat="43.2275" lon="5.495">
        <ele>316.4</ele>
        <time>2025-10-18T14:50:57Z</time>
      </trkpt>
      <trkpt lat="43.2275" lon="5.49502">
        <ele>316.2</ele>
        <time>2025-10-18T14:50:58Z</time>
      </trkpt>
      <trkpt lat="43.2275" lon="5.49502">
        <ele>316</ele>
        <time>2025-10-18T14:50:59Z</time>
      </trkpt>
      <trkpt lat="43.2275" lon="5.49502">
        <ele>315.9</ele>
        <time>2025-10-18T14:51:00Z</time>
      </trkpt>
      <trkpt lat="43.2275" lon="5.49503">
        <ele>315.7</ele>
        <time>2025-10-18T14:51:01Z</time>
      </trkpt>
      <trkpt lat="43.2275" lon="5.49504">
        <ele>315.5</ele>
        <time>2025-10-18T14:51:02Z</time>
      </trkpt>
      <trkpt lat="43.2275" lon="5.49505">
        <ele>315.5</ele>
        <time>2025-10-18T14:51:03Z</time>
      </trkpt>
      <trkpt lat="43.22749" lon="5.49506">
        <ele>315.4</ele>
        <time>2025-10-18T14:51:04Z</time>
      </trkpt>
      <trkpt lat="43.22749" lon="5.49506">
        <ele>315.3</ele>
        <time>2025-10-18T14:51:05Z</time>
      </trkpt>
      <trkpt lat="43.22748" lon="5.49507">
        <ele>315.2</ele>
        <time>2025-10-18T14:51:06Z</time>
      </trkpt>
      <trkpt lat="43.22748" lon="5.49508">
        <ele>315.1</ele>
        <time>2025-10-18T14:51:07Z</time>
      </trkpt>
      <trkpt lat="43.22748" lon="5.49509">
        <ele>315</ele>
        <time>2025-10-18T14:51:08Z</time>
      </trkpt>
      <trkpt lat="43.22748" lon="5.4951">
        <ele>314.9</ele>
        <time>2025-10-18T14:51:09Z</time>
      </trkpt>
      <trkpt lat="43.22748" lon="5.49511">
        <ele>314.8</ele>
        <time>2025-10-18T14:51:10Z</time>
      </trkpt>
      <trkpt lat="43.22747" lon="5.49512">
        <ele>314.7</ele>
        <time>2025-10-18T14:51:11Z</time>
      </trkpt>
      <trkpt lat="43.22747" lon="5.49513">
        <ele>314.4</ele>
        <time>2025-10-18T14:51:12Z</time>
      </trkpt>
      <trkpt lat="43.22747" lon="5.49514">
        <ele>314.2</ele>
        <time>2025-10-18T14:51:13Z</time>
      </trkpt>
      <trkpt lat="43.22747" lon="5.49516">
        <ele>314</ele>
        <time>2025-10-18T14:51:14Z</time>
      </trkpt>
      <trkpt lat="43.22748" lon="5.49517">
        <ele>314</ele>
        <time>2025-10-18T14:51:15Z</time>
      </trkpt>
      <trkpt lat="43.22748" lon="5.49517">
        <ele>313.9</ele>
        <time>2025-10-18T14:51:16Z</time>
      </trkpt>
      <trkpt lat="43.22748" lon="5.49519">
        <ele>313.7</ele>
        <time>2025-10-18T14:51:17Z</time>
      </trkpt>
      <trkpt lat="43.22748" lon="5.4952">
        <ele>313.4</ele>
        <time>2025-10-18T14:51:18Z</time>
      </trkpt>
      <trkpt lat="43.22748" lon="5.49521">
        <ele>313.2</ele>
        <time>2025-10-18T14:51:19Z</time>
      </trkpt>
      <trkpt lat="43.22749" lon="5.49522">
        <ele>313</ele>
        <time>2025-10-18T14:51:20Z</time>
      </trkpt>
      <trkpt lat="43.22749" lon="5.49523">
        <ele>312.8</ele>
        <time>2025-10-18T14:51:21Z</time>
      </trkpt>
      <trkpt lat="43.22749" lon="5.49524">
        <ele>312.7</ele>
        <time>2025-10-18T14:51:22Z</time>
      </trkpt>
      <trkpt lat="43.22749" lon="5.49525">
        <ele>312.4</ele>
        <time>2025-10-18T14:51:23Z</time>
      </trkpt>
      <trkpt lat="43.2275" lon="5.49526">
        <ele>312.3</ele>
        <time>2025-10-18T14:51:24Z</time>
      </trkpt>
      <trkpt lat="43.22749" lon="5.49527">
        <ele>312.2</ele>
        <time>2025-10-18T14:51:25Z</time>
      </trkpt>
      <trkpt lat="43.2275" lon="5.49528">
        <ele>312</ele>
        <time>2025-10-18T14:51:26Z</time>
      </trkpt>
      <trkpt lat="43.2275" lon="5.49529">
        <ele>312</ele>
        <time>2025-10-18T14:51:27Z</time>
      </trkpt>
      <trkpt lat="43.2275" lon="5.49531">
        <ele>311.8</ele>
        <time>2025-10-18T14:51:28Z</time>
      </trkpt>
      <trkpt lat="43.2275" lon="5.49532">
        <ele>311.6</ele>
        <time>2025-10-18T14:51:29Z</time>
      </trkpt>
      <trkpt lat="43.2275" lon="5.49532">
        <ele>311.5</ele>
        <time>2025-10-18T14:51:30Z</time>
      </trkpt>
      <trkpt lat="43.2275" lon="5.49534">
        <ele>311.3</ele>
        <time>2025-10-18T14:51:31Z</time>
      </trkpt>
      <trkpt lat="43.2275" lon="5.49534">
        <ele>311.2</ele>
        <time>2025-10-18T14:51:32Z</time>
      </trkpt>
      <trkpt lat="43.2275" lon="5.49535">
        <ele>311.1</ele>
        <time>2025-10-18T14:51:33Z</time>
      </trkpt>
      <trkpt lat="43.22751" lon="5.49536">
        <ele>311.1</ele>
        <time>2025-10-18T14:51:34Z</time>
      </trkpt>
      <trkpt lat="43.22751" lon="5.49537">
        <ele>311</ele>
        <time>2025-10-18T14:51:35Z</time>
      </trkpt>
      <trkpt lat="43.22751" lon="5.49538">
        <ele>310.9</ele>
        <time>2025-10-18T14:51:36Z</time>
      </trkpt>
      <trkpt lat="43.22751" lon="5.49539">
        <ele>310.8</ele>
        <time>2025-10-18T14:51:37Z</time>
      </trkpt>
      <trkpt lat="43.22752" lon="5.4954">
        <ele>310.6</ele>
        <time>2025-10-18T14:51:38Z</time>
      </trkpt>
      <trkpt lat="43.22752" lon="5.49542">
        <ele>310.5</ele>
        <time>2025-10-18T14:51:39Z</time>
      </trkpt>
      <trkpt lat="43.22752" lon="5.49543">
        <ele>310.4</ele>
        <time>2025-10-18T14:51:40Z</time>
      </trkpt>
      <trkpt lat="43.22752" lon="5.49544">
        <ele>310.3</ele>
        <time>2025-10-18T14:51:41Z</time>
      </trkpt>
      <trkpt lat="43.22752" lon="5.49545">
        <ele>310.1</ele>
        <time>2025-10-18T14:51:42Z</time>
      </trkpt>
      <trkpt lat="43.22753" lon="5.49546">
        <ele>310</ele>
        <time>2025-10-18T14:51:43Z</time>
      </trkpt>
      <trkpt lat="43.22753" lon="5.49547">
        <ele>309.8</ele>
        <time>2025-10-18T14:51:44Z</time>
      </trkpt>
      <trkpt lat="43.22753" lon="5.49548">
        <ele>309.7</ele>
        <time>2025-10-18T14:51:45Z</time>
      </trkpt>
      <trkpt lat="43.22753" lon="5.49549">
        <ele>309.5</ele>
        <time>2025-10-18T14:51:46Z</time>
      </trkpt>
      <trkpt lat="43.22753" lon="5.4955">
        <ele>309.3</ele>
        <time>2025-10-18T14:51:47Z</time>
      </trkpt>
      <trkpt lat="43.22754" lon="5.49551">
        <ele>309.3</ele>
        <time>2025-10-18T14:51:48Z</time>
      </trkpt>
      <trkpt lat="43.22754" lon="5.49552">
        <ele>309.1</ele>
        <time>2025-10-18T14:51:49Z</time>
      </trkpt>
      <trkpt lat="43.22754" lon="5.49553">
        <ele>309</ele>
        <time>2025-10-18T14:51:50Z</time>
      </trkpt>
      <trkpt lat="43.22754" lon="5.49554">
        <ele>308.8</ele>
        <time>2025-10-18T14:51:51Z</time>
      </trkpt>
      <trkpt lat="43.22754" lon="5.49555">
        <ele>308.7</ele>
        <time>2025-10-18T14:51:52Z</time>
      </trkpt>
      <trkpt lat="43.22755" lon="5.49556">
        <ele>308.6</ele>
        <time>2025-10-18T14:51:53Z</time>
      </trkpt>
      <trkpt lat="43.22755" lon="5.49557">
        <ele>308.6</ele>
        <time>2025-10-18T14:51:54Z</time>
      </trkpt>
      <trkpt lat="43.22755" lon="5.49558">
        <ele>308.5</ele>
        <time>2025-10-18T14:51:55Z</time>
      </trkpt>
      <trkpt lat="43.22755" lon="5.49559">
        <ele>308.4</ele>
        <time>2025-10-18T14:51:56Z</time>
      </trkpt>
      <trkpt lat="43.22755" lon="5.49561">
        <ele>308.3</ele>
        <time>2025-10-18T14:51:57Z</time>
      </trkpt>
      <trkpt lat="43.22755" lon="5.49562">
        <ele>308.2</ele>
        <time>2025-10-18T14:51:58Z</time>
      </trkpt>
      <trkpt lat="43.22755" lon="5.49563">
        <ele>307.9</ele>
        <time>2025-10-18T14:51:59Z</time>
      </trkpt>
      <trkpt lat="43.22755" lon="5.49564">
        <ele>307.7</ele>
        <time>2025-10-18T14:52:00Z</time>
      </trkpt>
      <trkpt lat="43.22755" lon="5.49565">
        <ele>307.6</ele>
        <time>2025-10-18T14:52:01Z</time>
      </trkpt>
      <trkpt lat="43.22755" lon="5.49566">
        <ele>307.5</ele>
        <time>2025-10-18T14:52:02Z</time>
      </trkpt>
      <trkpt lat="43.22755" lon="5.49567">
        <ele>307.3</ele>
        <time>2025-10-18T14:52:03Z</time>
      </trkpt>
      <trkpt lat="43.22755" lon="5.49569">
        <ele>307.1</ele>
        <time>2025-10-18T14:52:04Z</time>
      </trkpt>
      <trkpt lat="43.22755" lon="5.4957">
        <ele>306.9</ele>
        <time>2025-10-18T14:52:05Z</time>
      </trkpt>
      <trkpt lat="43.22755" lon="5.49571">
        <ele>306.8</ele>
        <time>2025-10-18T14:52:06Z</time>
      </trkpt>
      <trkpt lat="43.22755" lon="5.49572">
        <ele>306.7</ele>
        <time>2025-10-18T14:52:07Z</time>
      </trkpt>
      <trkpt lat="43.22755" lon="5.49573">
        <ele>306.6</ele>
        <time>2025-10-18T14:52:08Z</time>
      </trkpt>
      <trkpt lat="43.22755" lon="5.49574">
        <ele>306.5</ele>
        <time>2025-10-18T14:52:09Z</time>
      </trkpt>
      <trkpt lat="43.22755" lon="5.49575">
        <ele>306.4</ele>
        <time>2025-10-18T14:52:10Z</time>
      </trkpt>
      <trkpt lat="43.22755" lon="5.49577">
        <ele>306.3</ele>
        <time>2025-10-18T14:52:11Z</time>
      </trkpt>
      <trkpt lat="43.22755" lon="5.49578">
        <ele>306</ele>
        <time>2025-10-18T14:52:12Z</time>
      </trkpt>
      <trkpt lat="43.22755" lon="5.49579">
        <ele>305.8</ele>
        <time>2025-10-18T14:52:13Z</time>
      </trkpt>
      <trkpt lat="43.22755" lon="5.4958">
        <ele>305.7</ele>
        <time>2025-10-18T14:52:14Z</time>
      </trkpt>
      <trkpt lat="43.22755" lon="5.49581">
        <ele>305.7</ele>
        <time>2025-10-18T14:52:15Z</time>
      </trkpt>
      <trkpt lat="43.22755" lon="5.49582">
        <ele>305.6</ele>
        <time>2025-10-18T14:52:16Z</time>
      </trkpt>
      <trkpt lat="43.22755" lon="5.49583">
        <ele>305.5</ele>
        <time>2025-10-18T14:52:17Z</time>
      </trkpt>
      <trkpt lat="43.22755" lon="5.49584">
        <ele>305.3</ele>
        <time>2025-10-18T14:52:18Z</time>
      </trkpt>
      <trkpt lat="43.22756" lon="5.49585">
        <ele>305.1</ele>
        <time>2025-10-18T14:52:19Z</time>
      </trkpt>
      <trkpt lat="43.22756" lon="5.49586">
        <ele>305</ele>
        <time>2025-10-18T14:52:20Z</time>
      </trkpt>
      <trkpt lat="43.22756" lon="5.49587">
        <ele>304.9</ele>
        <time>2025-10-18T14:52:21Z</time>
      </trkpt>
      <trkpt lat="43.22756" lon="5.49588">
        <ele>304.7</ele>
        <time>2025-10-18T14:52:22Z</time>
      </trkpt>
      <trkpt lat="43.22756" lon="5.49589">
        <ele>304.6</ele>
        <time>2025-10-18T14:52:23Z</time>
      </trkpt>
      <trkpt lat="43.22756" lon="5.4959">
        <ele>304.5</ele>
        <time>2025-10-18T14:52:24Z</time>
      </trkpt>
      <trkpt lat="43.22756" lon="5.49592">
        <ele>304.4</ele>
        <time>2025-10-18T14:52:25Z</time>
      </trkpt>
      <trkpt lat="43.22756" lon="5.49592">
        <ele>304.3</ele>
        <time>2025-10-18T14:52:26Z</time>
      </trkpt>
      <trkpt lat="43.22756" lon="5.49593">
        <ele>304.3</ele>
        <time>2025-10-18T14:52:27Z</time>
      </trkpt>
      <trkpt lat="43.22756" lon="5.49595">
        <ele>304.1</ele>
        <time>2025-10-18T14:52:28Z</time>
      </trkpt>
      <trkpt lat="43.22756" lon="5.49596">
        <ele>304</ele>
        <time>2025-10-18T14:52:29Z</time>
      </trkpt>
      <trkpt lat="43.22755" lon="5.49596">
        <ele>303.9</ele>
        <time>2025-10-18T14:52:30Z</time>
      </trkpt>
      <trkpt lat="43.22756" lon="5.49596">
        <ele>303.8</ele>
        <time>2025-10-18T14:52:31Z</time>
      </trkpt>
      <trkpt lat="43.22756" lon="5.49596">
        <ele>303.6</ele>
        <time>2025-10-18T14:52:32Z</time>
      </trkpt>
      <trkpt lat="43.22756" lon="5.49596">
        <ele>303.6</ele>
        <time>2025-10-18T14:52:33Z</time>
      </trkpt>
      <trkpt lat="43.22756" lon="5.49596">
        <ele>303.5</ele>
        <time>2025-10-18T14:52:34Z</time>
      </trkpt>
      <trkpt lat="43.22756" lon="5.49596">
        <ele>303.4</ele>
        <time>2025-10-18T14:52:35Z</time>
      </trkpt>
      <trkpt lat="43.22756" lon="5.49596">
        <ele>303.3</ele>
        <time>2025-10-18T14:52:36Z</time>
      </trkpt>
      <trkpt lat="43.22756" lon="5.49597">
        <ele>303.3</ele>
        <time>2025-10-18T14:52:37Z</time>
      </trkpt>
      <trkpt lat="43.22756" lon="5.49597">
        <ele>303.2</ele>
        <time>2025-10-18T14:52:38Z</time>
      </trkpt>
      <trkpt lat="43.22756" lon="5.49597">
        <ele>303.2</ele>
        <time>2025-10-18T14:52:39Z</time>
      </trkpt>
      <trkpt lat="43.22756" lon="5.49597">
        <ele>303.2</ele>
        <time>2025-10-18T14:52:40Z</time>
      </trkpt>
      <trkpt lat="43.22756" lon="5.49597">
        <ele>303.2</ele>
        <time>2025-10-18T14:52:41Z</time>
      </trkpt>
      <trkpt lat="43.22756" lon="5.49597">
        <ele>303.1</ele>
        <time>2025-10-18T14:52:42Z</time>
      </trkpt>
      <trkpt lat="43.22756" lon="5.49599">
        <ele>303</ele>
        <time>2025-10-18T14:52:43Z</time>
      </trkpt>
      <trkpt lat="43.22756" lon="5.496">
        <ele>303.1</ele>
        <time>2025-10-18T14:52:44Z</time>
      </trkpt>
      <trkpt lat="43.22756" lon="5.49601">
        <ele>303</ele>
        <time>2025-10-18T14:52:45Z</time>
      </trkpt>
      <trkpt lat="43.22757" lon="5.49602">
        <ele>303</ele>
        <time>2025-10-18T14:52:46Z</time>
      </trkpt>
      <trkpt lat="43.22756" lon="5.49603">
        <ele>302.8</ele>
        <time>2025-10-18T14:52:47Z</time>
      </trkpt>
      <trkpt lat="43.22756" lon="5.49604">
        <ele>302.7</ele>
        <time>2025-10-18T14:52:48Z</time>
      </trkpt>
      <trkpt lat="43.22756" lon="5.49605">
        <ele>302.6</ele>
        <time>2025-10-18T14:52:49Z</time>
      </trkpt>
      <trkpt lat="43.22756" lon="5.49607">
        <ele>302.5</ele>
        <time>2025-10-18T14:52:50Z</time>
      </trkpt>
      <trkpt lat="43.22756" lon="5.49609">
        <ele>302.4</ele>
        <time>2025-10-18T14:52:51Z</time>
      </trkpt>
      <trkpt lat="43.22756" lon="5.4961">
        <ele>302.2</ele>
        <time>2025-10-18T14:52:52Z</time>
      </trkpt>
      <trkpt lat="43.22756" lon="5.49611">
        <ele>302</ele>
        <time>2025-10-18T14:52:53Z</time>
      </trkpt>
      <trkpt lat="43.22756" lon="5.49613">
        <ele>301.9</ele>
        <time>2025-10-18T14:52:54Z</time>
      </trkpt>
      <trkpt lat="43.22756" lon="5.49614">
        <ele>301.8</ele>
        <time>2025-10-18T14:52:55Z</time>
      </trkpt>
      <trkpt lat="43.22756" lon="5.49615">
        <ele>301.7</ele>
        <time>2025-10-18T14:52:56Z</time>
      </trkpt>
      <trkpt lat="43.22756" lon="5.49617">
        <ele>301.5</ele>
        <time>2025-10-18T14:52:57Z</time>
      </trkpt>
      <trkpt lat="43.22756" lon="5.49618">
        <ele>301.3</ele>
        <time>2025-10-18T14:52:58Z</time>
      </trkpt>
      <trkpt lat="43.22756" lon="5.49619">
        <ele>301.1</ele>
        <time>2025-10-18T14:52:59Z</time>
      </trkpt>
      <trkpt lat="43.22756" lon="5.49621">
        <ele>301</ele>
        <time>2025-10-18T14:53:00Z</time>
      </trkpt>
      <trkpt lat="43.22756" lon="5.49622">
        <ele>300.8</ele>
        <time>2025-10-18T14:53:01Z</time>
      </trkpt>
      <trkpt lat="43.22756" lon="5.49623">
        <ele>300.6</ele>
        <time>2025-10-18T14:53:02Z</time>
      </trkpt>
      <trkpt lat="43.22756" lon="5.49624">
        <ele>300.4</ele>
        <time>2025-10-18T14:53:03Z</time>
      </trkpt>
      <trkpt lat="43.22756" lon="5.49625">
        <ele>300.2</ele>
        <time>2025-10-18T14:53:04Z</time>
      </trkpt>
      <trkpt lat="43.22756" lon="5.49626">
        <ele>300</ele>
        <time>2025-10-18T14:53:05Z</time>
      </trkpt>
      <trkpt lat="43.22756" lon="5.49628">
        <ele>299.9</ele>
        <time>2025-10-18T14:53:06Z</time>
      </trkpt>
      <trkpt lat="43.22756" lon="5.49629">
        <ele>299.7</ele>
        <time>2025-10-18T14:53:07Z</time>
      </trkpt>
      <trkpt lat="43.22757" lon="5.49631">
        <ele>299.5</ele>
        <time>2025-10-18T14:53:08Z</time>
      </trkpt>
      <trkpt lat="43.22756" lon="5.49632">
        <ele>299.4</ele>
        <time>2025-10-18T14:53:09Z</time>
      </trkpt>
      <trkpt lat="43.22756" lon="5.49633">
        <ele>299.2</ele>
        <time>2025-10-18T14:53:10Z</time>
      </trkpt>
      <trkpt lat="43.22755" lon="5.49635">
        <ele>299</ele>
        <time>2025-10-18T14:53:11Z</time>
      </trkpt>
      <trkpt lat="43.22756" lon="5.49636">
        <ele>298.8</ele>
        <time>2025-10-18T14:53:12Z</time>
      </trkpt>
      <trkpt lat="43.22755" lon="5.49637">
        <ele>298.7</ele>
        <time>2025-10-18T14:53:13Z</time>
      </trkpt>
      <trkpt lat="43.22755" lon="5.49638">
        <ele>298.7</ele>
        <time>2025-10-18T14:53:14Z</time>
      </trkpt>
      <trkpt lat="43.22755" lon="5.49639">
        <ele>298.6</ele>
        <time>2025-10-18T14:53:15Z</time>
      </trkpt>
      <trkpt lat="43.22755" lon="5.49639">
        <ele>298.6</ele>
        <time>2025-10-18T14:53:16Z</time>
      </trkpt>
      <trkpt lat="43.22755" lon="5.4964">
        <ele>298.5</ele>
        <time>2025-10-18T14:53:17Z</time>
      </trkpt>
      <trkpt lat="43.22755" lon="5.49641">
        <ele>298.3</ele>
        <time>2025-10-18T14:53:18Z</time>
      </trkpt>
      <trkpt lat="43.22755" lon="5.49641">
        <ele>298.3</ele>
        <time>2025-10-18T14:53:19Z</time>
      </trkpt>
      <trkpt lat="43.22755" lon="5.49642">
        <ele>298.2</ele>
        <time>2025-10-18T14:53:20Z</time>
      </trkpt>
      <trkpt lat="43.22755" lon="5.49643">
        <ele>298.1</ele>
        <time>2025-10-18T14:53:21Z</time>
      </trkpt>
      <trkpt lat="43.22755" lon="5.49645">
        <ele>298</ele>
        <time>2025-10-18T14:53:22Z</time>
      </trkpt>
      <trkpt lat="43.22755" lon="5.49646">
        <ele>297.9</ele>
        <time>2025-10-18T14:53:23Z</time>
      </trkpt>
      <trkpt lat="43.22755" lon="5.49647">
        <ele>297.7</ele>
        <time>2025-10-18T14:53:24Z</time>
      </trkpt>
      <trkpt lat="43.22755" lon="5.49648">
        <ele>297.5</ele>
        <time>2025-10-18T14:53:25Z</time>
      </trkpt>
      <trkpt lat="43.22754" lon="5.4965">
        <ele>297.3</ele>
        <time>2025-10-18T14:53:26Z</time>
      </trkpt>
      <trkpt lat="43.22754" lon="5.49651">
        <ele>297.2</ele>
        <time>2025-10-18T14:53:27Z</time>
      </trkpt>
      <trkpt lat="43.22754" lon="5.49652">
        <ele>297</ele>
        <time>2025-10-18T14:53:28Z</time>
      </trkpt>
      <trkpt lat="43.22754" lon="5.49654">
        <ele>296.9</ele>
        <time>2025-10-18T14:53:29Z</time>
      </trkpt>
      <trkpt lat="43.22754" lon="5.49655">
        <ele>296.8</ele>
        <time>2025-10-18T14:53:30Z</time>
      </trkpt>
      <trkpt lat="43.22753" lon="5.49656">
        <ele>296.7</ele>
        <time>2025-10-18T14:53:31Z</time>
      </trkpt>
      <trkpt lat="43.22753" lon="5.49657">
        <ele>296.6</ele>
        <time>2025-10-18T14:53:32Z</time>
      </trkpt>
      <trkpt lat="43.22752" lon="5.49659">
        <ele>296.4</ele>
        <time>2025-10-18T14:53:33Z</time>
      </trkpt>
      <trkpt lat="43.22752" lon="5.4966">
        <ele>296.3</ele>
        <time>2025-10-18T14:53:34Z</time>
      </trkpt>
      <trkpt lat="43.22752" lon="5.49661">
        <ele>296.2</ele>
        <time>2025-10-18T14:53:35Z</time>
      </trkpt>
      <trkpt lat="43.22751" lon="5.49663">
        <ele>296.3</ele>
        <time>2025-10-18T14:53:36Z</time>
      </trkpt>
      <trkpt lat="43.2275" lon="5.49664">
        <ele>296.2</ele>
        <time>2025-10-18T14:53:37Z</time>
      </trkpt>
      <trkpt lat="43.2275" lon="5.49666">
        <ele>296.1</ele>
        <time>2025-10-18T14:53:38Z</time>
      </trkpt>
      <trkpt lat="43.22749" lon="5.49667">
        <ele>296</ele>
        <time>2025-10-18T14:53:39Z</time>
      </trkpt>
      <trkpt lat="43.22749" lon="5.49668">
        <ele>295.9</ele>
        <time>2025-10-18T14:53:40Z</time>
      </trkpt>
      <trkpt lat="43.22749" lon="5.4967">
        <ele>295.7</ele>
        <time>2025-10-18T14:53:41Z</time>
      </trkpt>
      <trkpt lat="43.22748" lon="5.49671">
        <ele>295.6</ele>
        <time>2025-10-18T14:53:42Z</time>
      </trkpt>
      <trkpt lat="43.22748" lon="5.49673">
        <ele>295.5</ele>
        <time>2025-10-18T14:53:43Z</time>
      </trkpt>
      <trkpt lat="43.22748" lon="5.49675">
        <ele>295.4</ele>
        <time>2025-10-18T14:53:44Z</time>
      </trkpt>
      <trkpt lat="43.22748" lon="5.49676">
        <ele>295.3</ele>
        <time>2025-10-18T14:53:45Z</time>
      </trkpt>
      <trkpt lat="43.22747" lon="5.49678">
        <ele>295.2</ele>
        <time>2025-10-18T14:53:46Z</time>
      </trkpt>
      <trkpt lat="43.22747" lon="5.49679">
        <ele>295.1</ele>
        <time>2025-10-18T14:53:47Z</time>
      </trkpt>
      <trkpt lat="43.22747" lon="5.49681">
        <ele>295.1</ele>
        <time>2025-10-18T14:53:48Z</time>
      </trkpt>
      <trkpt lat="43.22747" lon="5.49682">
        <ele>294.9</ele>
        <time>2025-10-18T14:53:49Z</time>
      </trkpt>
      <trkpt lat="43.22747" lon="5.49684">
        <ele>294.8</ele>
        <time>2025-10-18T14:53:50Z</time>
      </trkpt>
      <trkpt lat="43.22746" lon="5.49686">
        <ele>294.7</ele>
        <time>2025-10-18T14:53:51Z</time>
      </trkpt>
      <trkpt lat="43.22746" lon="5.49687">
        <ele>294.5</ele>
        <time>2025-10-18T14:53:52Z</time>
      </trkpt>
      <trkpt lat="43.22746" lon="5.49689">
        <ele>294.5</ele>
        <time>2025-10-18T14:53:53Z</time>
      </trkpt>
      <trkpt lat="43.22746" lon="5.4969">
        <ele>294.6</ele>
        <time>2025-10-18T14:53:54Z</time>
      </trkpt>
      <trkpt lat="43.22745" lon="5.49692">
        <ele>294.6</ele>
        <time>2025-10-18T14:53:55Z</time>
      </trkpt>
      <trkpt lat="43.22745" lon="5.49693">
        <ele>294.6</ele>
        <time>2025-10-18T14:53:56Z</time>
      </trkpt>
      <trkpt lat="43.22745" lon="5.49695">
        <ele>294.6</ele>
        <time>2025-10-18T14:53:57Z</time>
      </trkpt>
      <trkpt lat="43.22744" lon="5.49697">
        <ele>294.7</ele>
        <time>2025-10-18T14:53:58Z</time>
      </trkpt>
      <trkpt lat="43.22744" lon="5.49699">
        <ele>294.6</ele>
        <time>2025-10-18T14:53:59Z</time>
      </trkpt>
      <trkpt lat="43.22744" lon="5.497">
        <ele>294.6</ele>
        <time>2025-10-18T14:54:00Z</time>
      </trkpt>
      <trkpt lat="43.22744" lon="5.49702">
        <ele>294.5</ele>
        <time>2025-10-18T14:54:01Z</time>
      </trkpt>
      <trkpt lat="43.22744" lon="5.49704">
        <ele>294.4</ele>
        <time>2025-10-18T14:54:02Z</time>
      </trkpt>
      <trkpt lat="43.22743" lon="5.49706">
        <ele>294.3</ele>
        <time>2025-10-18T14:54:03Z</time>
      </trkpt>
      <trkpt lat="43.22743" lon="5.49707">
        <ele>294.3</ele>
        <time>2025-10-18T14:54:04Z</time>
      </trkpt>
      <trkpt lat="43.22743" lon="5.49709">
        <ele>294.3</ele>
        <time>2025-10-18T14:54:05Z</time>
      </trkpt>
      <trkpt lat="43.22743" lon="5.4971">
        <ele>294.4</ele>
        <time>2025-10-18T14:54:06Z</time>
      </trkpt>
      <trkpt lat="43.22743" lon="5.49712">
        <ele>294.4</ele>
        <time>2025-10-18T14:54:07Z</time>
      </trkpt>
      <trkpt lat="43.22743" lon="5.49713">
        <ele>294.5</ele>
        <time>2025-10-18T14:54:08Z</time>
      </trkpt>
      <trkpt lat="43.22743" lon="5.49715">
        <ele>294.5</ele>
        <time>2025-10-18T14:54:09Z</time>
      </trkpt>
      <trkpt lat="43.22742" lon="5.49717">
        <ele>294.7</ele>
        <time>2025-10-18T14:54:10Z</time>
      </trkpt>
      <trkpt lat="43.22742" lon="5.49718">
        <ele>294.7</ele>
        <time>2025-10-18T14:54:11Z</time>
      </trkpt>
      <trkpt lat="43.22742" lon="5.4972">
        <ele>294.7</ele>
        <time>2025-10-18T14:54:12Z</time>
      </trkpt>
      <trkpt lat="43.22742" lon="5.49721">
        <ele>294.8</ele>
        <time>2025-10-18T14:54:13Z</time>
      </trkpt>
      <trkpt lat="43.22742" lon="5.49723">
        <ele>294.8</ele>
        <time>2025-10-18T14:54:14Z</time>
      </trkpt>
      <trkpt lat="43.22742" lon="5.49724">
        <ele>294.9</ele>
        <time>2025-10-18T14:54:15Z</time>
      </trkpt>
      <trkpt lat="43.22742" lon="5.49725">
        <ele>294.9</ele>
        <time>2025-10-18T14:54:16Z</time>
      </trkpt>
      <trkpt lat="43.22741" lon="5.49727">
        <ele>295</ele>
        <time>2025-10-18T14:54:17Z</time>
      </trkpt>
      <trkpt lat="43.22741" lon="5.49728">
        <ele>295.2</ele>
        <time>2025-10-18T14:54:18Z</time>
      </trkpt>
      <trkpt lat="43.22741" lon="5.4973">
        <ele>295.3</ele>
        <time>2025-10-18T14:54:19Z</time>
      </trkpt>
      <trkpt lat="43.22741" lon="5.49731">
        <ele>295.4</ele>
        <time>2025-10-18T14:54:20Z</time>
      </trkpt>
      <trkpt lat="43.2274" lon="5.49732">
        <ele>295.5</ele>
        <time>2025-10-18T14:54:21Z</time>
      </trkpt>
      <trkpt lat="43.2274" lon="5.49732">
        <ele>295.6</ele>
        <time>2025-10-18T14:54:22Z</time>
      </trkpt>
      <trkpt lat="43.2274" lon="5.49732">
        <ele>295.7</ele>
        <time>2025-10-18T14:54:23Z</time>
      </trkpt>
      <trkpt lat="43.2274" lon="5.49733">
        <ele>295.8</ele>
        <time>2025-10-18T14:54:24Z</time>
      </trkpt>
      <trkpt lat="43.2274" lon="5.49734">
        <ele>295.9</ele>
        <time>2025-10-18T14:54:25Z</time>
      </trkpt>
      <trkpt lat="43.2274" lon="5.49736">
        <ele>296</ele>
        <time>2025-10-18T14:54:26Z</time>
      </trkpt>
      <trkpt lat="43.22739" lon="5.49737">
        <ele>296.1</ele>
        <time>2025-10-18T14:54:27Z</time>
      </trkpt>
      <trkpt lat="43.22739" lon="5.49738">
        <ele>296.2</ele>
        <time>2025-10-18T14:54:28Z</time>
      </trkpt>
      <trkpt lat="43.22738" lon="5.4974">
        <ele>296.3</ele>
        <time>2025-10-18T14:54:29Z</time>
      </trkpt>
      <trkpt lat="43.22738" lon="5.49741">
        <ele>296.4</ele>
        <time>2025-10-18T14:54:30Z</time>
      </trkpt>
      <trkpt lat="43.22738" lon="5.49742">
        <ele>296.5</ele>
        <time>2025-10-18T14:54:31Z</time>
      </trkpt>
      <trkpt lat="43.22737" lon="5.49744">
        <ele>296.6</ele>
        <time>2025-10-18T14:54:32Z</time>
      </trkpt>
      <trkpt lat="43.22737" lon="5.49745">
        <ele>296.7</ele>
        <time>2025-10-18T14:54:33Z</time>
      </trkpt>
      <trkpt lat="43.22737" lon="5.49746">
        <ele>296.8</ele>
        <time>2025-10-18T14:54:34Z</time>
      </trkpt>
      <trkpt lat="43.22736" lon="5.49747">
        <ele>296.9</ele>
        <time>2025-10-18T14:54:35Z</time>
      </trkpt>
      <trkpt lat="43.22736" lon="5.49748">
        <ele>297.1</ele>
        <time>2025-10-18T14:54:36Z</time>
      </trkpt>
      <trkpt lat="43.22736" lon="5.4975">
        <ele>297.3</ele>
        <time>2025-10-18T14:54:37Z</time>
      </trkpt>
      <trkpt lat="43.22735" lon="5.49751">
        <ele>297.5</ele>
        <time>2025-10-18T14:54:38Z</time>
      </trkpt>
      <trkpt lat="43.22735" lon="5.49752">
        <ele>297.7</ele>
        <time>2025-10-18T14:54:39Z</time>
      </trkpt>
      <trkpt lat="43.22734" lon="5.49754">
        <ele>297.9</ele>
        <time>2025-10-18T14:54:40Z</time>
      </trkpt>
      <trkpt lat="43.22734" lon="5.49755">
        <ele>298</ele>
        <time>2025-10-18T14:54:41Z</time>
      </trkpt>
      <trkpt lat="43.22733" lon="5.49756">
        <ele>298.2</ele>
        <time>2025-10-18T14:54:42Z</time>
      </trkpt>
      <trkpt lat="43.22733" lon="5.49757">
        <ele>298.3</ele>
        <time>2025-10-18T14:54:43Z</time>
      </trkpt>
      <trkpt lat="43.22733" lon="5.49758">
        <ele>298.5</ele>
        <time>2025-10-18T14:54:44Z</time>
      </trkpt>
      <trkpt lat="43.22732" lon="5.4976">
        <ele>298.7</ele>
        <time>2025-10-18T14:54:45Z</time>
      </trkpt>
      <trkpt lat="43.22731" lon="5.49761">
        <ele>298.8</ele>
        <time>2025-10-18T14:54:46Z</time>
      </trkpt>
      <trkpt lat="43.2273" lon="5.49762">
        <ele>298.9</ele>
        <time>2025-10-18T14:54:47Z</time>
      </trkpt>
      <trkpt lat="43.2273" lon="5.49764">
        <ele>299.1</ele>
        <time>2025-10-18T14:54:48Z</time>
      </trkpt>
      <trkpt lat="43.22729" lon="5.49765">
        <ele>299.2</ele>
        <time>2025-10-18T14:54:49Z</time>
      </trkpt>
      <trkpt lat="43.22729" lon="5.49766">
        <ele>299.3</ele>
        <time>2025-10-18T14:54:50Z</time>
      </trkpt>
      <trkpt lat="43.22729" lon="5.49767">
        <ele>299.4</ele>
        <time>2025-10-18T14:54:51Z</time>
      </trkpt>
      <trkpt lat="43.22728" lon="5.49768">
        <ele>299.6</ele>
        <time>2025-10-18T14:54:52Z</time>
      </trkpt>
      <trkpt lat="43.22727" lon="5.4977">
        <ele>299.6</ele>
        <time>2025-10-18T14:54:53Z</time>
      </trkpt>
      <trkpt lat="43.22727" lon="5.49771">
        <ele>299.8</ele>
        <time>2025-10-18T14:54:54Z</time>
      </trkpt>
      <trkpt lat="43.22726" lon="5.49772">
        <ele>299.9</ele>
        <time>2025-10-18T14:54:55Z</time>
      </trkpt>
      <trkpt lat="43.22725" lon="5.49773">
        <ele>300.1</ele>
        <time>2025-10-18T14:54:56Z</time>
      </trkpt>
      <trkpt lat="43.22725" lon="5.49774">
        <ele>300.2</ele>
        <time>2025-10-18T14:54:57Z</time>
      </trkpt>
      <trkpt lat="43.22724" lon="5.49775">
        <ele>300.3</ele>
        <time>2025-10-18T14:54:58Z</time>
      </trkpt>
      <trkpt lat="43.22723" lon="5.49776">
        <ele>300.3</ele>
        <time>2025-10-18T14:54:59Z</time>
      </trkpt>
      <trkpt lat="43.22722" lon="5.49777">
        <ele>300.3</ele>
        <time>2025-10-18T14:55:00Z</time>
      </trkpt>
      <trkpt lat="43.22722" lon="5.49779">
        <ele>300.3</ele>
        <time>2025-10-18T14:55:01Z</time>
      </trkpt>
      <trkpt lat="43.22721" lon="5.4978">
        <ele>300.2</ele>
        <time>2025-10-18T14:55:02Z</time>
      </trkpt>
      <trkpt lat="43.2272" lon="5.49781">
        <ele>300.3</ele>
        <time>2025-10-18T14:55:03Z</time>
      </trkpt>
      <trkpt lat="43.2272" lon="5.49782">
        <ele>300.3</ele>
        <time>2025-10-18T14:55:04Z</time>
      </trkpt>
      <trkpt lat="43.22719" lon="5.49784">
        <ele>300.3</ele>
        <time>2025-10-18T14:55:05Z</time>
      </trkpt>
      <trkpt lat="43.22719" lon="5.49785">
        <ele>300.3</ele>
        <time>2025-10-18T14:55:06Z</time>
      </trkpt>
      <trkpt lat="43.22718" lon="5.49786">
        <ele>300.4</ele>
        <time>2025-10-18T14:55:07Z</time>
      </trkpt>
      <trkpt lat="43.22717" lon="5.49787">
        <ele>300.4</ele>
        <time>2025-10-18T14:55:08Z</time>
      </trkpt>
      <trkpt lat="43.22716" lon="5.49789">
        <ele>300.4</ele>
        <time>2025-10-18T14:55:09Z</time>
      </trkpt>
      <trkpt lat="43.22716" lon="5.4979">
        <ele>300.3</ele>
        <time>2025-10-18T14:55:10Z</time>
      </trkpt>
      <trkpt lat="43.22715" lon="5.49792">
        <ele>300.3</ele>
        <time>2025-10-18T14:55:11Z</time>
      </trkpt>
      <trkpt lat="43.22714" lon="5.49793">
        <ele>300.3</ele>
        <time>2025-10-18T14:55:12Z</time>
      </trkpt>
      <trkpt lat="43.22714" lon="5.49794">
        <ele>300.2</ele>
        <time>2025-10-18T14:55:13Z</time>
      </trkpt>
      <trkpt lat="43.22714" lon="5.49795">
        <ele>300.2</ele>
        <time>2025-10-18T14:55:14Z</time>
      </trkpt>
      <trkpt lat="43.22713" lon="5.49797">
        <ele>300.2</ele>
        <time>2025-10-18T14:55:15Z</time>
      </trkpt>
      <trkpt lat="43.22712" lon="5.49798">
        <ele>300.2</ele>
        <time>2025-10-18T14:55:16Z</time>
      </trkpt>
      <trkpt lat="43.22712" lon="5.49799">
        <ele>300.2</ele>
        <time>2025-10-18T14:55:17Z</time>
      </trkpt>
      <trkpt lat="43.22711" lon="5.498">
        <ele>300.2</ele>
        <time>2025-10-18T14:55:18Z</time>
      </trkpt>
      <trkpt lat="43.2271" lon="5.49801">
        <ele>300.2</ele>
        <time>2025-10-18T14:55:19Z</time>
      </trkpt>
      <trkpt lat="43.2271" lon="5.49802">
        <ele>300.2</ele>
        <time>2025-10-18T14:55:20Z</time>
      </trkpt>
      <trkpt lat="43.22709" lon="5.49803">
        <ele>300.1</ele>
        <time>2025-10-18T14:55:21Z</time>
      </trkpt>
      <trkpt lat="43.22708" lon="5.49803">
        <ele>300.1</ele>
        <time>2025-10-18T14:55:22Z</time>
      </trkpt>
      <trkpt lat="43.22708" lon="5.49804">
        <ele>300.1</ele>
        <time>2025-10-18T14:55:23Z</time>
      </trkpt>
      <trkpt lat="43.22707" lon="5.49805">
        <ele>300.1</ele>
        <time>2025-10-18T14:55:24Z</time>
      </trkpt>
      <trkpt lat="43.22707" lon="5.49806">
        <ele>300.1</ele>
        <time>2025-10-18T14:55:25Z</time>
      </trkpt>
      <trkpt lat="43.22706" lon="5.49807">
        <ele>299.9</ele>
        <time>2025-10-18T14:55:26Z</time>
      </trkpt>
      <trkpt lat="43.22706" lon="5.49809">
        <ele>299.8</ele>
        <time>2025-10-18T14:55:27Z</time>
      </trkpt>
      <trkpt lat="43.22705" lon="5.4981">
        <ele>299.8</ele>
        <time>2025-10-18T14:55:28Z</time>
      </trkpt>
      <trkpt lat="43.22705" lon="5.4981">
        <ele>299.8</ele>
        <time>2025-10-18T14:55:29Z</time>
      </trkpt>
      <trkpt lat="43.22705" lon="5.49811">
        <ele>299.8</ele>
        <time>2025-10-18T14:55:30Z</time>
      </trkpt>
      <trkpt lat="43.22704" lon="5.49812">
        <ele>299.7</ele>
        <time>2025-10-18T14:55:31Z</time>
      </trkpt>
      <trkpt lat="43.22703" lon="5.49814">
        <ele>299.6</ele>
        <time>2025-10-18T14:55:32Z</time>
      </trkpt>
      <trkpt lat="43.22703" lon="5.49815">
        <ele>299.7</ele>
        <time>2025-10-18T14:55:33Z</time>
      </trkpt>
      <trkpt lat="43.22702" lon="5.49816">
        <ele>299.7</ele>
        <time>2025-10-18T14:55:34Z</time>
      </trkpt>
      <trkpt lat="43.22701" lon="5.49817">
        <ele>299.7</ele>
        <time>2025-10-18T14:55:35Z</time>
      </trkpt>
      <trkpt lat="43.22701" lon="5.49818">
        <ele>299.7</ele>
        <time>2025-10-18T14:55:36Z</time>
      </trkpt>
      <trkpt lat="43.22701" lon="5.4982">
        <ele>299.7</ele>
        <time>2025-10-18T14:55:37Z</time>
      </trkpt>
      <trkpt lat="43.227" lon="5.49821">
        <ele>299.7</ele>
        <time>2025-10-18T14:55:38Z</time>
      </trkpt>
      <trkpt lat="43.227" lon="5.49822">
        <ele>299.6</ele>
        <time>2025-10-18T14:55:39Z</time>
      </trkpt>
      <trkpt lat="43.22699" lon="5.49823">
        <ele>299.6</ele>
        <time>2025-10-18T14:55:40Z</time>
      </trkpt>
      <trkpt lat="43.22699" lon="5.49824">
        <ele>299.5</ele>
        <time>2025-10-18T14:55:41Z</time>
      </trkpt>
      <trkpt lat="43.22698" lon="5.49826">
        <ele>299.4</ele>
        <time>2025-10-18T14:55:42Z</time>
      </trkpt>
      <trkpt lat="43.22698" lon="5.49827">
        <ele>299.3</ele>
        <time>2025-10-18T14:55:43Z</time>
      </trkpt>
      <trkpt lat="43.22697" lon="5.49828">
        <ele>299.3</ele>
        <time>2025-10-18T14:55:44Z</time>
      </trkpt>
      <trkpt lat="43.22697" lon="5.49829">
        <ele>299.2</ele>
        <time>2025-10-18T14:55:45Z</time>
      </trkpt>
      <trkpt lat="43.22696" lon="5.4983">
        <ele>299.2</ele>
        <time>2025-10-18T14:55:46Z</time>
      </trkpt>
      <trkpt lat="43.22696" lon="5.49832">
        <ele>299.2</ele>
        <time>2025-10-18T14:55:47Z</time>
      </trkpt>
      <trkpt lat="43.22695" lon="5.49832">
        <ele>299.1</ele>
        <time>2025-10-18T14:55:48Z</time>
      </trkpt>
      <trkpt lat="43.22694" lon="5.49833">
        <ele>299.2</ele>
        <time>2025-10-18T14:55:49Z</time>
      </trkpt>
      <trkpt lat="43.22694" lon="5.49835">
        <ele>299.2</ele>
        <time>2025-10-18T14:55:50Z</time>
      </trkpt>
      <trkpt lat="43.22693" lon="5.49836">
        <ele>299.2</ele>
        <time>2025-10-18T14:55:51Z</time>
      </trkpt>
      <trkpt lat="43.22693" lon="5.49837">
        <ele>299.2</ele>
        <time>2025-10-18T14:55:52Z</time>
      </trkpt>
      <trkpt lat="43.22692" lon="5.49838">
        <ele>299.2</ele>
        <time>2025-10-18T14:55:53Z</time>
      </trkpt>
      <trkpt lat="43.22692" lon="5.49839">
        <ele>299.3</ele>
        <time>2025-10-18T14:55:54Z</time>
      </trkpt>
      <trkpt lat="43.22691" lon="5.4984">
        <ele>299.2</ele>
        <time>2025-10-18T14:55:55Z</time>
      </trkpt>
      <trkpt lat="43.2269" lon="5.4984">
        <ele>299.2</ele>
        <time>2025-10-18T14:55:56Z</time>
      </trkpt>
      <trkpt lat="43.2269" lon="5.49841">
        <ele>299.1</ele>
        <time>2025-10-18T14:55:57Z</time>
      </trkpt>
      <trkpt lat="43.2269" lon="5.49842">
        <ele>299.1</ele>
        <time>2025-10-18T14:55:58Z</time>
      </trkpt>
      <trkpt lat="43.22689" lon="5.49843">
        <ele>299</ele>
        <time>2025-10-18T14:55:59Z</time>
      </trkpt>
      <trkpt lat="43.22688" lon="5.49844">
        <ele>299</ele>
        <time>2025-10-18T14:56:00Z</time>
      </trkpt>
      <trkpt lat="43.22688" lon="5.49845">
        <ele>299</ele>
        <time>2025-10-18T14:56:01Z</time>
      </trkpt>
      <trkpt lat="43.22687" lon="5.49846">
        <ele>298.9</ele>
        <time>2025-10-18T14:56:02Z</time>
      </trkpt>
      <trkpt lat="43.22687" lon="5.49847">
        <ele>298.9</ele>
        <time>2025-10-18T14:56:03Z</time>
      </trkpt>
      <trkpt lat="43.22687" lon="5.49848">
        <ele>298.9</ele>
        <time>2025-10-18T14:56:04Z</time>
      </trkpt>
      <trkpt lat="43.22686" lon="5.49849">
        <ele>298.9</ele>
        <time>2025-10-18T14:56:05Z</time>
      </trkpt>
      <trkpt lat="43.22686" lon="5.4985">
        <ele>298.9</ele>
        <time>2025-10-18T14:56:06Z</time>
      </trkpt>
      <trkpt lat="43.22686" lon="5.49851">
        <ele>298.8</ele>
        <time>2025-10-18T14:56:07Z</time>
      </trkpt>
      <trkpt lat="43.22685" lon="5.49852">
        <ele>298.8</ele>
        <time>2025-10-18T14:56:08Z</time>
      </trkpt>
      <trkpt lat="43.22685" lon="5.49853">
        <ele>298.7</ele>
        <time>2025-10-18T14:56:09Z</time>
      </trkpt>
      <trkpt lat="43.22684" lon="5.49854">
        <ele>298.6</ele>
        <time>2025-10-18T14:56:10Z</time>
      </trkpt>
      <trkpt lat="43.22684" lon="5.49855">
        <ele>298.6</ele>
        <time>2025-10-18T14:56:11Z</time>
      </trkpt>
      <trkpt lat="43.22683" lon="5.49856">
        <ele>298.6</ele>
        <time>2025-10-18T14:56:12Z</time>
      </trkpt>
      <trkpt lat="43.22683" lon="5.49857">
        <ele>298.6</ele>
        <time>2025-10-18T14:56:13Z</time>
      </trkpt>
      <trkpt lat="43.22682" lon="5.49859">
        <ele>298.7</ele>
        <time>2025-10-18T14:56:14Z</time>
      </trkpt>
      <trkpt lat="43.22682" lon="5.4986">
        <ele>298.5</ele>
        <time>2025-10-18T14:56:15Z</time>
      </trkpt>
      <trkpt lat="43.22682" lon="5.49861">
        <ele>298.5</ele>
        <time>2025-10-18T14:56:16Z</time>
      </trkpt>
      <trkpt lat="43.22682" lon="5.49863">
        <ele>298.4</ele>
        <time>2025-10-18T14:56:17Z</time>
      </trkpt>
      <trkpt lat="43.22681" lon="5.49864">
        <ele>298.4</ele>
        <time>2025-10-18T14:56:18Z</time>
      </trkpt>
      <trkpt lat="43.22681" lon="5.49865">
        <ele>298.4</ele>
        <time>2025-10-18T14:56:19Z</time>
      </trkpt>
      <trkpt lat="43.22681" lon="5.49866">
        <ele>298.4</ele>
        <time>2025-10-18T14:56:20Z</time>
      </trkpt>
      <trkpt lat="43.2268" lon="5.49867">
        <ele>298.4</ele>
        <time>2025-10-18T14:56:21Z</time>
      </trkpt>
      <trkpt lat="43.2268" lon="5.49869">
        <ele>298.4</ele>
        <time>2025-10-18T14:56:22Z</time>
      </trkpt>
      <trkpt lat="43.2268" lon="5.4987">
        <ele>298.4</ele>
        <time>2025-10-18T14:56:23Z</time>
      </trkpt>
      <trkpt lat="43.2268" lon="5.49871">
        <ele>298.6</ele>
        <time>2025-10-18T14:56:24Z</time>
      </trkpt>
      <trkpt lat="43.22679" lon="5.49872">
        <ele>298.7</ele>
        <time>2025-10-18T14:56:25Z</time>
      </trkpt>
      <trkpt lat="43.22679" lon="5.49873">
        <ele>298.8</ele>
        <time>2025-10-18T14:56:26Z</time>
      </trkpt>
      <trkpt lat="43.22679" lon="5.49875">
        <ele>298.8</ele>
        <time>2025-10-18T14:56:27Z</time>
      </trkpt>
      <trkpt lat="43.22679" lon="5.49875">
        <ele>298.8</ele>
        <time>2025-10-18T14:56:28Z</time>
      </trkpt>
      <trkpt lat="43.22678" lon="5.49877">
        <ele>298.8</ele>
        <time>2025-10-18T14:56:29Z</time>
      </trkpt>
      <trkpt lat="43.22678" lon="5.49878">
        <ele>298.8</ele>
        <time>2025-10-18T14:56:30Z</time>
      </trkpt>
      <trkpt lat="43.22678" lon="5.4988">
        <ele>298.8</ele>
        <time>2025-10-18T14:56:31Z</time>
      </trkpt>
      <trkpt lat="43.22677" lon="5.49881">
        <ele>298.8</ele>
        <time>2025-10-18T14:56:32Z</time>
      </trkpt>
      <trkpt lat="43.22677" lon="5.49882">
        <ele>298.8</ele>
        <time>2025-10-18T14:56:33Z</time>
      </trkpt>
      <trkpt lat="43.22677" lon="5.49884">
        <ele>298.8</ele>
        <time>2025-10-18T14:56:34Z</time>
      </trkpt>
      <trkpt lat="43.22677" lon="5.49885">
        <ele>298.8</ele>
        <time>2025-10-18T14:56:35Z</time>
      </trkpt>
      <trkpt lat="43.22677" lon="5.49887">
        <ele>298.8</ele>
        <time>2025-10-18T14:56:36Z</time>
      </trkpt>
      <trkpt lat="43.22677" lon="5.49888">
        <ele>298.9</ele>
        <time>2025-10-18T14:56:37Z</time>
      </trkpt>
      <trkpt lat="43.22677" lon="5.49889">
        <ele>298.9</ele>
        <time>2025-10-18T14:56:38Z</time>
      </trkpt>
      <trkpt lat="43.22677" lon="5.4989">
        <ele>298.9</ele>
        <time>2025-10-18T14:56:39Z</time>
      </trkpt>
      <trkpt lat="43.22677" lon="5.49891">
        <ele>298.9</ele>
        <time>2025-10-18T14:56:40Z</time>
      </trkpt>
      <trkpt lat="43.22677" lon="5.49893">
        <ele>298.9</ele>
        <time>2025-10-18T14:56:41Z</time>
      </trkpt>
      <trkpt lat="43.22677" lon="5.49895">
        <ele>298.9</ele>
        <time>2025-10-18T14:56:42Z</time>
      </trkpt>
      <trkpt lat="43.22676" lon="5.49896">
        <ele>298.9</ele>
        <time>2025-10-18T14:56:43Z</time>
      </trkpt>
      <trkpt lat="43.22676" lon="5.49898">
        <ele>298.9</ele>
        <time>2025-10-18T14:56:44Z</time>
      </trkpt>
      <trkpt lat="43.22677" lon="5.49899">
        <ele>298.9</ele>
        <time>2025-10-18T14:56:45Z</time>
      </trkpt>
      <trkpt lat="43.22677" lon="5.49901">
        <ele>298.9</ele>
        <time>2025-10-18T14:56:46Z</time>
      </trkpt>
      <trkpt lat="43.22676" lon="5.49902">
        <ele>298.9</ele>
        <time>2025-10-18T14:56:47Z</time>
      </trkpt>
      <trkpt lat="43.22677" lon="5.49904">
        <ele>298.9</ele>
        <time>2025-10-18T14:56:48Z</time>
      </trkpt>
      <trkpt lat="43.22677" lon="5.49906">
        <ele>298.9</ele>
        <time>2025-10-18T14:56:49Z</time>
      </trkpt>
      <trkpt lat="43.22677" lon="5.49907">
        <ele>298.9</ele>
        <time>2025-10-18T14:56:50Z</time>
      </trkpt>
      <trkpt lat="43.22677" lon="5.49908">
        <ele>298.9</ele>
        <time>2025-10-18T14:56:51Z</time>
      </trkpt>
      <trkpt lat="43.22677" lon="5.4991">
        <ele>298.8</ele>
        <time>2025-10-18T14:56:52Z</time>
      </trkpt>
      <trkpt lat="43.22677" lon="5.49911">
        <ele>298.7</ele>
        <time>2025-10-18T14:56:53Z</time>
      </trkpt>
      <trkpt lat="43.22677" lon="5.49912">
        <ele>299</ele>
        <time>2025-10-18T14:56:54Z</time>
      </trkpt>
      <trkpt lat="43.22677" lon="5.49914">
        <ele>299.1</ele>
        <time>2025-10-18T14:56:55Z</time>
      </trkpt>
      <trkpt lat="43.22678" lon="5.49915">
        <ele>299</ele>
        <time>2025-10-18T14:56:56Z</time>
      </trkpt>
      <trkpt lat="43.22678" lon="5.49916">
        <ele>298.9</ele>
        <time>2025-10-18T14:56:57Z</time>
      </trkpt>
      <trkpt lat="43.22678" lon="5.49918">
        <ele>298.9</ele>
        <time>2025-10-18T14:56:58Z</time>
      </trkpt>
      <trkpt lat="43.22678" lon="5.49919">
        <ele>298.8</ele>
        <time>2025-10-18T14:56:59Z</time>
      </trkpt>
      <trkpt lat="43.22679" lon="5.49921">
        <ele>298.8</ele>
        <time>2025-10-18T14:57:00Z</time>
      </trkpt>
      <trkpt lat="43.22679" lon="5.49922">
        <ele>298.8</ele>
        <time>2025-10-18T14:57:01Z</time>
      </trkpt>
      <trkpt lat="43.22679" lon="5.49923">
        <ele>298.8</ele>
        <time>2025-10-18T14:57:02Z</time>
      </trkpt>
      <trkpt lat="43.22679" lon="5.49925">
        <ele>298.8</ele>
        <time>2025-10-18T14:57:03Z</time>
      </trkpt>
      <trkpt lat="43.2268" lon="5.49926">
        <ele>298.8</ele>
        <time>2025-10-18T14:57:04Z</time>
      </trkpt>
      <trkpt lat="43.2268" lon="5.49927">
        <ele>298.8</ele>
        <time>2025-10-18T14:57:05Z</time>
      </trkpt>
      <trkpt lat="43.22681" lon="5.49928">
        <ele>298.8</ele>
        <time>2025-10-18T14:57:06Z</time>
      </trkpt>
      <trkpt lat="43.22681" lon="5.4993">
        <ele>298.9</ele>
        <time>2025-10-18T14:57:07Z</time>
      </trkpt>
      <trkpt lat="43.22681" lon="5.49931">
        <ele>298.9</ele>
        <time>2025-10-18T14:57:08Z</time>
      </trkpt>
      <trkpt lat="43.22682" lon="5.49933">
        <ele>298.9</ele>
        <time>2025-10-18T14:57:09Z</time>
      </trkpt>
      <trkpt lat="43.22682" lon="5.49934">
        <ele>298.9</ele>
        <time>2025-10-18T14:57:10Z</time>
      </trkpt>
      <trkpt lat="43.22683" lon="5.49935">
        <ele>299</ele>
        <time>2025-10-18T14:57:11Z</time>
      </trkpt>
      <trkpt lat="43.22683" lon="5.49936">
        <ele>299</ele>
        <time>2025-10-18T14:57:12Z</time>
      </trkpt>
      <trkpt lat="43.22683" lon="5.49938">
        <ele>299</ele>
        <time>2025-10-18T14:57:13Z</time>
      </trkpt>
      <trkpt lat="43.22684" lon="5.49939">
        <ele>299.1</ele>
        <time>2025-10-18T14:57:14Z</time>
      </trkpt>
      <trkpt lat="43.22684" lon="5.4994">
        <ele>299.1</ele>
        <time>2025-10-18T14:57:15Z</time>
      </trkpt>
      <trkpt lat="43.22684" lon="5.49942">
        <ele>299.2</ele>
        <time>2025-10-18T14:57:16Z</time>
      </trkpt>
      <trkpt lat="43.22685" lon="5.49943">
        <ele>299.1</ele>
        <time>2025-10-18T14:57:17Z</time>
      </trkpt>
      <trkpt lat="43.22685" lon="5.49944">
        <ele>299</ele>
        <time>2025-10-18T14:57:18Z</time>
      </trkpt>
      <trkpt lat="43.22686" lon="5.49946">
        <ele>299</ele>
        <time>2025-10-18T14:57:19Z</time>
      </trkpt>
      <trkpt lat="43.22686" lon="5.49947">
        <ele>298.9</ele>
        <time>2025-10-18T14:57:20Z</time>
      </trkpt>
      <trkpt lat="43.22687" lon="5.49948">
        <ele>298.9</ele>
        <time>2025-10-18T14:57:21Z</time>
      </trkpt>
      <trkpt lat="43.22687" lon="5.49949">
        <ele>298.9</ele>
        <time>2025-10-18T14:57:22Z</time>
      </trkpt>
      <trkpt lat="43.22688" lon="5.4995">
        <ele>299</ele>
        <time>2025-10-18T14:57:23Z</time>
      </trkpt>
      <trkpt lat="43.22688" lon="5.49952">
        <ele>299</ele>
        <time>2025-10-18T14:57:24Z</time>
      </trkpt>
      <trkpt lat="43.22689" lon="5.49953">
        <ele>299</ele>
        <time>2025-10-18T14:57:25Z</time>
      </trkpt>
      <trkpt lat="43.22689" lon="5.49954">
        <ele>299</ele>
        <time>2025-10-18T14:57:26Z</time>
      </trkpt>
      <trkpt lat="43.22689" lon="5.49956">
        <ele>299</ele>
        <time>2025-10-18T14:57:27Z</time>
      </trkpt>
      <trkpt lat="43.2269" lon="5.49957">
        <ele>299</ele>
        <time>2025-10-18T14:57:28Z</time>
      </trkpt>
      <trkpt lat="43.22691" lon="5.49958">
        <ele>299</ele>
        <time>2025-10-18T14:57:29Z</time>
      </trkpt>
      <trkpt lat="43.22691" lon="5.4996">
        <ele>298.9</ele>
        <time>2025-10-18T14:57:30Z</time>
      </trkpt>
      <trkpt lat="43.22692" lon="5.49961">
        <ele>298.9</ele>
        <time>2025-10-18T14:57:31Z</time>
      </trkpt>
      <trkpt lat="43.22692" lon="5.49962">
        <ele>298.9</ele>
        <time>2025-10-18T14:57:32Z</time>
      </trkpt>
      <trkpt lat="43.22693" lon="5.49964">
        <ele>299</ele>
        <time>2025-10-18T14:57:33Z</time>
      </trkpt>
      <trkpt lat="43.22693" lon="5.49965">
        <ele>299</ele>
        <time>2025-10-18T14:57:34Z</time>
      </trkpt>
      <trkpt lat="43.22694" lon="5.49966">
        <ele>299</ele>
        <time>2025-10-18T14:57:35Z</time>
      </trkpt>
      <trkpt lat="43.22694" lon="5.49967">
        <ele>298.9</ele>
        <time>2025-10-18T14:57:36Z</time>
      </trkpt>
      <trkpt lat="43.22695" lon="5.49969">
        <ele>299</ele>
        <time>2025-10-18T14:57:37Z</time>
      </trkpt>
      <trkpt lat="43.22695" lon="5.4997">
        <ele>299.1</ele>
        <time>2025-10-18T14:57:38Z</time>
      </trkpt>
      <trkpt lat="43.22696" lon="5.49971">
        <ele>299.1</ele>
        <time>2025-10-18T14:57:39Z</time>
      </trkpt>
      <trkpt lat="43.22696" lon="5.49972">
        <ele>299.1</ele>
        <time>2025-10-18T14:57:40Z</time>
      </trkpt>
      <trkpt lat="43.22697" lon="5.49973">
        <ele>299.1</ele>
        <time>2025-10-18T14:57:41Z</time>
      </trkpt>
      <trkpt lat="43.22697" lon="5.49975">
        <ele>299.1</ele>
        <time>2025-10-18T14:57:42Z</time>
      </trkpt>
      <trkpt lat="43.22698" lon="5.49976">
        <ele>299.1</ele>
        <time>2025-10-18T14:57:43Z</time>
      </trkpt>
      <trkpt lat="43.22698" lon="5.49978">
        <ele>299.2</ele>
        <time>2025-10-18T14:57:44Z</time>
      </trkpt>
      <trkpt lat="43.22699" lon="5.49979">
        <ele>299.2</ele>
        <time>2025-10-18T14:57:45Z</time>
      </trkpt>
      <trkpt lat="43.22699" lon="5.4998">
        <ele>299.2</ele>
        <time>2025-10-18T14:57:46Z</time>
      </trkpt>
      <trkpt lat="43.227" lon="5.49982">
        <ele>299.3</ele>
        <time>2025-10-18T14:57:47Z</time>
      </trkpt>
      <trkpt lat="43.227" lon="5.49983">
        <ele>299.3</ele>
        <time>2025-10-18T14:57:48Z</time>
      </trkpt>
      <trkpt lat="43.22701" lon="5.49984">
        <ele>299.4</ele>
        <time>2025-10-18T14:57:49Z</time>
      </trkpt>
      <trkpt lat="43.22701" lon="5.49985">
        <ele>299.3</ele>
        <time>2025-10-18T14:57:50Z</time>
      </trkpt>
      <trkpt lat="43.22702" lon="5.49987">
        <ele>299.3</ele>
        <time>2025-10-18T14:57:51Z</time>
      </trkpt>
      <trkpt lat="43.22702" lon="5.49988">
        <ele>299.3</ele>
        <time>2025-10-18T14:57:52Z</time>
      </trkpt>
      <trkpt lat="43.22703" lon="5.4999">
        <ele>299.3</ele>
        <time>2025-10-18T14:57:53Z</time>
      </trkpt>
      <trkpt lat="43.22703" lon="5.49991">
        <ele>299.4</ele>
        <time>2025-10-18T14:57:54Z</time>
      </trkpt>
      <trkpt lat="43.22704" lon="5.49992">
        <ele>299.4</ele>
        <time>2025-10-18T14:57:55Z</time>
      </trkpt>
      <trkpt lat="43.22705" lon="5.49993">
        <ele>299.5</ele>
        <time>2025-10-18T14:57:56Z</time>
      </trkpt>
      <trkpt lat="43.22705" lon="5.49995">
        <ele>299.5</ele>
        <time>2025-10-18T14:57:57Z</time>
      </trkpt>
      <trkpt lat="43.22705" lon="5.49996">
        <ele>299.5</ele>
        <time>2025-10-18T14:57:58Z</time>
      </trkpt>
      <trkpt lat="43.22706" lon="5.49997">
        <ele>299.5</ele>
        <time>2025-10-18T14:57:59Z</time>
      </trkpt>
      <trkpt lat="43.22706" lon="5.49999">
        <ele>299.5</ele>
        <time>2025-10-18T14:58:00Z</time>
      </trkpt>
      <trkpt lat="43.22706" lon="5.5">
        <ele>299.5</ele>
        <time>2025-10-18T14:58:01Z</time>
      </trkpt>
      <trkpt lat="43.22707" lon="5.50001">
        <ele>299.5</ele>
        <time>2025-10-18T14:58:02Z</time>
      </trkpt>
      <trkpt lat="43.22708" lon="5.50002">
        <ele>299.5</ele>
        <time>2025-10-18T14:58:03Z</time>
      </trkpt>
      <trkpt lat="43.22708" lon="5.50003">
        <ele>299.5</ele>
        <time>2025-10-18T14:58:04Z</time>
      </trkpt>
      <trkpt lat="43.22709" lon="5.50005">
        <ele>299.5</ele>
        <time>2025-10-18T14:58:05Z</time>
      </trkpt>
      <trkpt lat="43.22709" lon="5.50006">
        <ele>299.5</ele>
        <time>2025-10-18T14:58:06Z</time>
      </trkpt>
      <trkpt lat="43.22709" lon="5.50007">
        <ele>299.5</ele>
        <time>2025-10-18T14:58:07Z</time>
      </trkpt>
      <trkpt lat="43.2271" lon="5.50009">
        <ele>299.5</ele>
        <time>2025-10-18T14:58:08Z</time>
      </trkpt>
      <trkpt lat="43.22711" lon="5.5001">
        <ele>299.5</ele>
        <time>2025-10-18T14:58:09Z</time>
      </trkpt>
      <trkpt lat="43.22711" lon="5.50011">
        <ele>299.5</ele>
        <time>2025-10-18T14:58:10Z</time>
      </trkpt>
      <trkpt lat="43.22712" lon="5.50013">
        <ele>299.4</ele>
        <time>2025-10-18T14:58:11Z</time>
      </trkpt>
      <trkpt lat="43.22712" lon="5.50014">
        <ele>299.4</ele>
        <time>2025-10-18T14:58:12Z</time>
      </trkpt>
      <trkpt lat="43.22713" lon="5.50015">
        <ele>299.2</ele>
        <time>2025-10-18T14:58:13Z</time>
      </trkpt>
      <trkpt lat="43.22713" lon="5.50017">
        <ele>299.1</ele>
        <time>2025-10-18T14:58:14Z</time>
      </trkpt>
      <trkpt lat="43.22713" lon="5.50019">
        <ele>299.2</ele>
        <time>2025-10-18T14:58:15Z</time>
      </trkpt>
      <trkpt lat="43.22714" lon="5.5002">
        <ele>299.2</ele>
        <time>2025-10-18T14:58:16Z</time>
      </trkpt>
      <trkpt lat="43.22714" lon="5.50021">
        <ele>299.3</ele>
        <time>2025-10-18T14:58:17Z</time>
      </trkpt>
      <trkpt lat="43.22715" lon="5.50023">
        <ele>299.3</ele>
        <time>2025-10-18T14:58:18Z</time>
      </trkpt>
      <trkpt lat="43.22716" lon="5.50024">
        <ele>299.4</ele>
        <time>2025-10-18T14:58:19Z</time>
      </trkpt>
      <trkpt lat="43.22716" lon="5.50025">
        <ele>299.4</ele>
        <time>2025-10-18T14:58:20Z</time>
      </trkpt>
      <trkpt lat="43.22717" lon="5.50027">
        <ele>299.4</ele>
        <time>2025-10-18T14:58:21Z</time>
      </trkpt>
      <trkpt lat="43.22717" lon="5.50028">
        <ele>299.4</ele>
        <time>2025-10-18T14:58:22Z</time>
      </trkpt>
      <trkpt lat="43.22718" lon="5.5003">
        <ele>299.4</ele>
        <time>2025-10-18T14:58:23Z</time>
      </trkpt>
      <trkpt lat="43.22718" lon="5.50031">
        <ele>299.5</ele>
        <time>2025-10-18T14:58:24Z</time>
      </trkpt>
      <trkpt lat="43.22719" lon="5.50032">
        <ele>299.5</ele>
        <time>2025-10-18T14:58:25Z</time>
      </trkpt>
      <trkpt lat="43.2272" lon="5.50034">
        <ele>299.5</ele>
        <time>2025-10-18T14:58:26Z</time>
      </trkpt>
      <trkpt lat="43.2272" lon="5.50035">
        <ele>299.5</ele>
        <time>2025-10-18T14:58:27Z</time>
      </trkpt>
      <trkpt lat="43.22721" lon="5.50036">
        <ele>299.5</ele>
        <time>2025-10-18T14:58:28Z</time>
      </trkpt>
      <trkpt lat="43.22722" lon="5.50037">
        <ele>299.6</ele>
        <time>2025-10-18T14:58:29Z</time>
      </trkpt>
      <trkpt lat="43.22722" lon="5.50039">
        <ele>299.6</ele>
        <time>2025-10-18T14:58:30Z</time>
      </trkpt>
      <trkpt lat="43.22723" lon="5.5004">
        <ele>299.6</ele>
        <time>2025-10-18T14:58:31Z</time>
      </trkpt>
      <trkpt lat="43.22723" lon="5.50041">
        <ele>299.5</ele>
        <time>2025-10-18T14:58:32Z</time>
      </trkpt>
      <trkpt lat="43.22724" lon="5.50043">
        <ele>299.4</ele>
        <time>2025-10-18T14:58:33Z</time>
      </trkpt>
      <trkpt lat="43.22724" lon="5.50044">
        <ele>299.4</ele>
        <time>2025-10-18T14:58:34Z</time>
      </trkpt>
      <trkpt lat="43.22725" lon="5.50045">
        <ele>299.4</ele>
        <time>2025-10-18T14:58:35Z</time>
      </trkpt>
      <trkpt lat="43.22726" lon="5.50046">
        <ele>299.4</ele>
        <time>2025-10-18T14:58:36Z</time>
      </trkpt>
      <trkpt lat="43.22726" lon="5.50048">
        <ele>299.4</ele>
        <time>2025-10-18T14:58:37Z</time>
      </trkpt>
      <trkpt lat="43.22727" lon="5.50049">
        <ele>299.5</ele>
        <time>2025-10-18T14:58:38Z</time>
      </trkpt>
      <trkpt lat="43.22727" lon="5.5005">
        <ele>299.6</ele>
        <time>2025-10-18T14:58:39Z</time>
      </trkpt>
      <trkpt lat="43.22728" lon="5.50051">
        <ele>299.6</ele>
        <time>2025-10-18T14:58:40Z</time>
      </trkpt>
      <trkpt lat="43.22729" lon="5.50053">
        <ele>299.6</ele>
        <time>2025-10-18T14:58:41Z</time>
      </trkpt>
      <trkpt lat="43.22729" lon="5.50054">
        <ele>299.5</ele>
        <time>2025-10-18T14:58:42Z</time>
      </trkpt>
      <trkpt lat="43.2273" lon="5.50055">
        <ele>299.5</ele>
        <time>2025-10-18T14:58:43Z</time>
      </trkpt>
      <trkpt lat="43.2273" lon="5.50056">
        <ele>299.5</ele>
        <time>2025-10-18T14:58:44Z</time>
      </trkpt>
      <trkpt lat="43.22731" lon="5.50058">
        <ele>299.5</ele>
        <time>2025-10-18T14:58:45Z</time>
      </trkpt>
      <trkpt lat="43.22732" lon="5.50059">
        <ele>299.4</ele>
        <time>2025-10-18T14:58:46Z</time>
      </trkpt>
      <trkpt lat="43.22732" lon="5.5006">
        <ele>299.4</ele>
        <time>2025-10-18T14:58:47Z</time>
      </trkpt>
      <trkpt lat="43.22733" lon="5.50061">
        <ele>299.3</ele>
        <time>2025-10-18T14:58:48Z</time>
      </trkpt>
      <trkpt lat="43.22734" lon="5.50062">
        <ele>299.3</ele>
        <time>2025-10-18T14:58:49Z</time>
      </trkpt>
      <trkpt lat="43.22734" lon="5.50063">
        <ele>299.3</ele>
        <time>2025-10-18T14:58:50Z</time>
      </trkpt>
      <trkpt lat="43.22735" lon="5.50065">
        <ele>299.2</ele>
        <time>2025-10-18T14:58:51Z</time>
      </trkpt>
      <trkpt lat="43.22736" lon="5.50066">
        <ele>299.2</ele>
        <time>2025-10-18T14:58:52Z</time>
      </trkpt>
      <trkpt lat="43.22736" lon="5.50067">
        <ele>299.2</ele>
        <time>2025-10-18T14:58:53Z</time>
      </trkpt>
      <trkpt lat="43.22737" lon="5.50068">
        <ele>299.2</ele>
        <time>2025-10-18T14:58:54Z</time>
      </trkpt>
      <trkpt lat="43.22738" lon="5.50069">
        <ele>299.2</ele>
        <time>2025-10-18T14:58:55Z</time>
      </trkpt>
      <trkpt lat="43.22738" lon="5.50071">
        <ele>299.1</ele>
        <time>2025-10-18T14:58:56Z</time>
      </trkpt>
      <trkpt lat="43.22739" lon="5.50072">
        <ele>299.1</ele>
        <time>2025-10-18T14:58:57Z</time>
      </trkpt>
      <trkpt lat="43.22739" lon="5.50073">
        <ele>299.1</ele>
        <time>2025-10-18T14:58:58Z</time>
      </trkpt>
      <trkpt lat="43.2274" lon="5.50074">
        <ele>299.1</ele>
        <time>2025-10-18T14:58:59Z</time>
      </trkpt>
      <trkpt lat="43.22741" lon="5.50075">
        <ele>299.1</ele>
        <time>2025-10-18T14:59:00Z</time>
      </trkpt>
      <trkpt lat="43.22742" lon="5.50077">
        <ele>299</ele>
        <time>2025-10-18T14:59:01Z</time>
      </trkpt>
      <trkpt lat="43.22742" lon="5.50078">
        <ele>299</ele>
        <time>2025-10-18T14:59:02Z</time>
      </trkpt>
      <trkpt lat="43.22743" lon="5.50079">
        <ele>298.9</ele>
        <time>2025-10-18T14:59:03Z</time>
      </trkpt>
      <trkpt lat="43.22744" lon="5.5008">
        <ele>298.9</ele>
        <time>2025-10-18T14:59:04Z</time>
      </trkpt>
      <trkpt lat="43.22744" lon="5.50081">
        <ele>298.9</ele>
        <time>2025-10-18T14:59:05Z</time>
      </trkpt>
      <trkpt lat="43.22744" lon="5.50083">
        <ele>299</ele>
        <time>2025-10-18T14:59:06Z</time>
      </trkpt>
      <trkpt lat="43.22745" lon="5.50084">
        <ele>299</ele>
        <time>2025-10-18T14:59:07Z</time>
      </trkpt>
      <trkpt lat="43.22745" lon="5.50086">
        <ele>298.9</ele>
        <time>2025-10-18T14:59:08Z</time>
      </trkpt>
      <trkpt lat="43.22746" lon="5.50088">
        <ele>298.9</ele>
        <time>2025-10-18T14:59:09Z</time>
      </trkpt>
      <trkpt lat="43.22747" lon="5.50089">
        <ele>298.9</ele>
        <time>2025-10-18T14:59:10Z</time>
      </trkpt>
      <trkpt lat="43.22747" lon="5.5009">
        <ele>298.9</ele>
        <time>2025-10-18T14:59:11Z</time>
      </trkpt>
      <trkpt lat="43.22748" lon="5.50091">
        <ele>298.9</ele>
        <time>2025-10-18T14:59:12Z</time>
      </trkpt>
      <trkpt lat="43.22748" lon="5.50092">
        <ele>298.7</ele>
        <time>2025-10-18T14:59:13Z</time>
      </trkpt>
      <trkpt lat="43.22749" lon="5.50094">
        <ele>298.7</ele>
        <time>2025-10-18T14:59:14Z</time>
      </trkpt>
      <trkpt lat="43.22749" lon="5.50096">
        <ele>298.8</ele>
        <time>2025-10-18T14:59:15Z</time>
      </trkpt>
      <trkpt lat="43.2275" lon="5.50097">
        <ele>298.8</ele>
        <time>2025-10-18T14:59:16Z</time>
      </trkpt>
      <trkpt lat="43.22751" lon="5.50099">
        <ele>298.6</ele>
        <time>2025-10-18T14:59:17Z</time>
      </trkpt>
      <trkpt lat="43.22751" lon="5.501">
        <ele>298.6</ele>
        <time>2025-10-18T14:59:18Z</time>
      </trkpt>
      <trkpt lat="43.22752" lon="5.50102">
        <ele>298.5</ele>
        <time>2025-10-18T14:59:19Z</time>
      </trkpt>
      <trkpt lat="43.22752" lon="5.50103">
        <ele>298.5</ele>
        <time>2025-10-18T14:59:20Z</time>
      </trkpt>
      <trkpt lat="43.22753" lon="5.50104">
        <ele>298.4</ele>
        <time>2025-10-18T14:59:21Z</time>
      </trkpt>
      <trkpt lat="43.22753" lon="5.50106">
        <ele>298.4</ele>
        <time>2025-10-18T14:59:22Z</time>
      </trkpt>
      <trkpt lat="43.22754" lon="5.50107">
        <ele>298.3</ele>
        <time>2025-10-18T14:59:23Z</time>
      </trkpt>
      <trkpt lat="43.22754" lon="5.50108">
        <ele>298.3</ele>
        <time>2025-10-18T14:59:24Z</time>
      </trkpt>
      <trkpt lat="43.22755" lon="5.5011">
        <ele>298.3</ele>
        <time>2025-10-18T14:59:25Z</time>
      </trkpt>
      <trkpt lat="43.22755" lon="5.50111">
        <ele>298.2</ele>
        <time>2025-10-18T14:59:26Z</time>
      </trkpt>
      <trkpt lat="43.22756" lon="5.50113">
        <ele>298.2</ele>
        <time>2025-10-18T14:59:27Z</time>
      </trkpt>
      <trkpt lat="43.22756" lon="5.50114">
        <ele>298.2</ele>
        <time>2025-10-18T14:59:28Z</time>
      </trkpt>
      <trkpt lat="43.22757" lon="5.50115">
        <ele>298.1</ele>
        <time>2025-10-18T14:59:29Z</time>
      </trkpt>
      <trkpt lat="43.22757" lon="5.50116">
        <ele>298</ele>
        <time>2025-10-18T14:59:30Z</time>
      </trkpt>
      <trkpt lat="43.22758" lon="5.50118">
        <ele>298</ele>
        <time>2025-10-18T14:59:31Z</time>
      </trkpt>
      <trkpt lat="43.22758" lon="5.50119">
        <ele>297.7</ele>
        <time>2025-10-18T14:59:32Z</time>
      </trkpt>
      <trkpt lat="43.22759" lon="5.5012">
        <ele>297.6</ele>
        <time>2025-10-18T14:59:33Z</time>
      </trkpt>
      <trkpt lat="43.22759" lon="5.50121">
        <ele>297.5</ele>
        <time>2025-10-18T14:59:34Z</time>
      </trkpt>
      <trkpt lat="43.22759" lon="5.50122">
        <ele>297.5</ele>
        <time>2025-10-18T14:59:35Z</time>
      </trkpt>
      <trkpt lat="43.22759" lon="5.50124">
        <ele>297.4</ele>
        <time>2025-10-18T14:59:36Z</time>
      </trkpt>
      <trkpt lat="43.2276" lon="5.50125">
        <ele>297.3</ele>
        <time>2025-10-18T14:59:37Z</time>
      </trkpt>
      <trkpt lat="43.2276" lon="5.50126">
        <ele>297.2</ele>
        <time>2025-10-18T14:59:38Z</time>
      </trkpt>
      <trkpt lat="43.2276" lon="5.50128">
        <ele>297.1</ele>
        <time>2025-10-18T14:59:39Z</time>
      </trkpt>
      <trkpt lat="43.22761" lon="5.50129">
        <ele>297</ele>
        <time>2025-10-18T14:59:40Z</time>
      </trkpt>
      <trkpt lat="43.22761" lon="5.5013">
        <ele>296.9</ele>
        <time>2025-10-18T14:59:41Z</time>
      </trkpt>
      <trkpt lat="43.22761" lon="5.50131">
        <ele>296.8</ele>
        <time>2025-10-18T14:59:42Z</time>
      </trkpt>
      <trkpt lat="43.22761" lon="5.50133">
        <ele>296.8</ele>
        <time>2025-10-18T14:59:43Z</time>
      </trkpt>
      <trkpt lat="43.22761" lon="5.50134">
        <ele>296.7</ele>
        <time>2025-10-18T14:59:44Z</time>
      </trkpt>
      <trkpt lat="43.22762" lon="5.50135">
        <ele>296.7</ele>
        <time>2025-10-18T14:59:45Z</time>
      </trkpt>
      <trkpt lat="43.22762" lon="5.50137">
        <ele>296.7</ele>
        <time>2025-10-18T14:59:46Z</time>
      </trkpt>
      <trkpt lat="43.22762" lon="5.50138">
        <ele>296.6</ele>
        <time>2025-10-18T14:59:47Z</time>
      </trkpt>
      <trkpt lat="43.22762" lon="5.50139">
        <ele>296.6</ele>
        <time>2025-10-18T14:59:48Z</time>
      </trkpt>
      <trkpt lat="43.22762" lon="5.50141">
        <ele>296.5</ele>
        <time>2025-10-18T14:59:49Z</time>
      </trkpt>
      <trkpt lat="43.22762" lon="5.50142">
        <ele>296.4</ele>
        <time>2025-10-18T14:59:50Z</time>
      </trkpt>
      <trkpt lat="43.22762" lon="5.50144">
        <ele>296.3</ele>
        <time>2025-10-18T14:59:51Z</time>
      </trkpt>
      <trkpt lat="43.22762" lon="5.50145">
        <ele>296.2</ele>
        <time>2025-10-18T14:59:52Z</time>
      </trkpt>
      <trkpt lat="43.22762" lon="5.50146">
        <ele>296.1</ele>
        <time>2025-10-18T14:59:53Z</time>
      </trkpt>
      <trkpt lat="43.22763" lon="5.50147">
        <ele>296</ele>
        <time>2025-10-18T14:59:54Z</time>
      </trkpt>
      <trkpt lat="43.22763" lon="5.50149">
        <ele>295.9</ele>
        <time>2025-10-18T14:59:55Z</time>
      </trkpt>
      <trkpt lat="43.22763" lon="5.5015">
        <ele>295.8</ele>
        <time>2025-10-18T14:59:56Z</time>
      </trkpt>
      <trkpt lat="43.22763" lon="5.50152">
        <ele>295.6</ele>
        <time>2025-10-18T14:59:57Z</time>
      </trkpt>
      <trkpt lat="43.22763" lon="5.50153">
        <ele>295.4</ele>
        <time>2025-10-18T14:59:58Z</time>
      </trkpt>
      <trkpt lat="43.22763" lon="5.50154">
        <ele>295.4</ele>
        <time>2025-10-18T14:59:59Z</time>
      </trkpt>
      <trkpt lat="43.22763" lon="5.50155">
        <ele>295.2</ele>
        <time>2025-10-18T15:00:00Z</time>
      </trkpt>
      <trkpt lat="43.22764" lon="5.50156">
        <ele>295</ele>
        <time>2025-10-18T15:00:01Z</time>
      </trkpt>
      <trkpt lat="43.22764" lon="5.50157">
        <ele>294.9</ele>
        <time>2025-10-18T15:00:02Z</time>
      </trkpt>
      <trkpt lat="43.22764" lon="5.50158">
        <ele>294.8</ele>
        <time>2025-10-18T15:00:03Z</time>
      </trkpt>
      <trkpt lat="43.22764" lon="5.50159">
        <ele>294.8</ele>
        <time>2025-10-18T15:00:04Z</time>
      </trkpt>
      <trkpt lat="43.22764" lon="5.50161">
        <ele>294.7</ele>
        <time>2025-10-18T15:00:05Z</time>
      </trkpt>
      <trkpt lat="43.22765" lon="5.50162">
        <ele>294.6</ele>
        <time>2025-10-18T15:00:06Z</time>
      </trkpt>
      <trkpt lat="43.22765" lon="5.50163">
        <ele>294.6</ele>
        <time>2025-10-18T15:00:07Z</time>
      </trkpt>
      <trkpt lat="43.22765" lon="5.50165">
        <ele>294.5</ele>
        <time>2025-10-18T15:00:08Z</time>
      </trkpt>
      <trkpt lat="43.22765" lon="5.50166">
        <ele>294.4</ele>
        <time>2025-10-18T15:00:09Z</time>
      </trkpt>
      <trkpt lat="43.22765" lon="5.50167">
        <ele>294.2</ele>
        <time>2025-10-18T15:00:10Z</time>
      </trkpt>
      <trkpt lat="43.22765" lon="5.50168">
        <ele>294</ele>
        <time>2025-10-18T15:00:11Z</time>
      </trkpt>
      <trkpt lat="43.22765" lon="5.50169">
        <ele>293.9</ele>
        <time>2025-10-18T15:00:12Z</time>
      </trkpt>
      <trkpt lat="43.22766" lon="5.50171">
        <ele>293.8</ele>
        <time>2025-10-18T15:00:13Z</time>
      </trkpt>
      <trkpt lat="43.22766" lon="5.50172">
        <ele>293.6</ele>
        <time>2025-10-18T15:00:14Z</time>
      </trkpt>
      <trkpt lat="43.22766" lon="5.50173">
        <ele>293.4</ele>
        <time>2025-10-18T15:00:15Z</time>
      </trkpt>
      <trkpt lat="43.22766" lon="5.50174">
        <ele>293.2</ele>
        <time>2025-10-18T15:00:16Z</time>
      </trkpt>
      <trkpt lat="43.22766" lon="5.50176">
        <ele>293.1</ele>
        <time>2025-10-18T15:00:17Z</time>
      </trkpt>
      <trkpt lat="43.22766" lon="5.50177">
        <ele>292.9</ele>
        <time>2025-10-18T15:00:18Z</time>
      </trkpt>
      <trkpt lat="43.22766" lon="5.50178">
        <ele>292.7</ele>
        <time>2025-10-18T15:00:19Z</time>
      </trkpt>
      <trkpt lat="43.22766" lon="5.50179">
        <ele>292.5</ele>
        <time>2025-10-18T15:00:20Z</time>
      </trkpt>
      <trkpt lat="43.22766" lon="5.5018">
        <ele>292.3</ele>
        <time>2025-10-18T15:00:21Z</time>
      </trkpt>
      <trkpt lat="43.22766" lon="5.50182">
        <ele>292.2</ele>
        <time>2025-10-18T15:00:22Z</time>
      </trkpt>
      <trkpt lat="43.22766" lon="5.50183">
        <ele>292</ele>
        <time>2025-10-18T15:00:23Z</time>
      </trkpt>
      <trkpt lat="43.22766" lon="5.50185">
        <ele>291.9</ele>
        <time>2025-10-18T15:00:24Z</time>
      </trkpt>
      <trkpt lat="43.22766" lon="5.50186">
        <ele>291.8</ele>
        <time>2025-10-18T15:00:25Z</time>
      </trkpt>
      <trkpt lat="43.22766" lon="5.50187">
        <ele>291.7</ele>
        <time>2025-10-18T15:00:26Z</time>
      </trkpt>
      <trkpt lat="43.22767" lon="5.50189">
        <ele>291.7</ele>
        <time>2025-10-18T15:00:27Z</time>
      </trkpt>
      <trkpt lat="43.22766" lon="5.5019">
        <ele>291.6</ele>
        <time>2025-10-18T15:00:28Z</time>
      </trkpt>
      <trkpt lat="43.22767" lon="5.50191">
        <ele>291.5</ele>
        <time>2025-10-18T15:00:29Z</time>
      </trkpt>
      <trkpt lat="43.22767" lon="5.50192">
        <ele>291.4</ele>
        <time>2025-10-18T15:00:30Z</time>
      </trkpt>
      <trkpt lat="43.22767" lon="5.50194">
        <ele>291.3</ele>
        <time>2025-10-18T15:00:31Z</time>
      </trkpt>
      <trkpt lat="43.22767" lon="5.50195">
        <ele>291.2</ele>
        <time>2025-10-18T15:00:32Z</time>
      </trkpt>
      <trkpt lat="43.22766" lon="5.50197">
        <ele>291.2</ele>
        <time>2025-10-18T15:00:33Z</time>
      </trkpt>
      <trkpt lat="43.22766" lon="5.50198">
        <ele>291.1</ele>
        <time>2025-10-18T15:00:34Z</time>
      </trkpt>
      <trkpt lat="43.22766" lon="5.502">
        <ele>290.9</ele>
        <time>2025-10-18T15:00:35Z</time>
      </trkpt>
      <trkpt lat="43.22766" lon="5.50201">
        <ele>290.7</ele>
        <time>2025-10-18T15:00:36Z</time>
      </trkpt>
      <trkpt lat="43.22766" lon="5.50202">
        <ele>290.6</ele>
        <time>2025-10-18T15:00:37Z</time>
      </trkpt>
      <trkpt lat="43.22766" lon="5.50204">
        <ele>290.5</ele>
        <time>2025-10-18T15:00:38Z</time>
      </trkpt>
      <trkpt lat="43.22766" lon="5.50205">
        <ele>290.4</ele>
        <time>2025-10-18T15:00:39Z</time>
      </trkpt>
      <trkpt lat="43.22766" lon="5.50206">
        <ele>290.2</ele>
        <time>2025-10-18T15:00:40Z</time>
      </trkpt>
      <trkpt lat="43.22766" lon="5.50207">
        <ele>290.1</ele>
        <time>2025-10-18T15:00:41Z</time>
      </trkpt>
      <trkpt lat="43.22766" lon="5.50209">
        <ele>289.9</ele>
        <time>2025-10-18T15:00:42Z</time>
      </trkpt>
      <trkpt lat="43.22766" lon="5.5021">
        <ele>289.8</ele>
        <time>2025-10-18T15:00:43Z</time>
      </trkpt>
      <trkpt lat="43.22766" lon="5.50211">
        <ele>289.7</ele>
        <time>2025-10-18T15:00:44Z</time>
      </trkpt>
      <trkpt lat="43.22766" lon="5.50212">
        <ele>289.5</ele>
        <time>2025-10-18T15:00:45Z</time>
      </trkpt>
      <trkpt lat="43.22765" lon="5.50214">
        <ele>289.4</ele>
        <time>2025-10-18T15:00:46Z</time>
      </trkpt>
      <trkpt lat="43.22765" lon="5.50215">
        <ele>289.3</ele>
        <time>2025-10-18T15:00:47Z</time>
      </trkpt>
      <trkpt lat="43.22765" lon="5.50216">
        <ele>289.2</ele>
        <time>2025-10-18T15:00:48Z</time>
      </trkpt>
      <trkpt lat="43.22765" lon="5.50217">
        <ele>289.2</ele>
        <time>2025-10-18T15:00:49Z</time>
      </trkpt>
      <trkpt lat="43.22764" lon="5.50219">
        <ele>289.1</ele>
        <time>2025-10-18T15:00:50Z</time>
      </trkpt>
      <trkpt lat="43.22764" lon="5.5022">
        <ele>289.1</ele>
        <time>2025-10-18T15:00:51Z</time>
      </trkpt>
      <trkpt lat="43.22764" lon="5.50222">
        <ele>289</ele>
        <time>2025-10-18T15:00:52Z</time>
      </trkpt>
      <trkpt lat="43.22764" lon="5.50223">
        <ele>288.9</ele>
        <time>2025-10-18T15:00:53Z</time>
      </trkpt>
      <trkpt lat="43.22764" lon="5.50225">
        <ele>288.8</ele>
        <time>2025-10-18T15:00:54Z</time>
      </trkpt>
      <trkpt lat="43.22764" lon="5.50226">
        <ele>288.7</ele>
        <time>2025-10-18T15:00:55Z</time>
      </trkpt>
      <trkpt lat="43.22763" lon="5.50227">
        <ele>288.5</ele>
        <time>2025-10-18T15:00:56Z</time>
      </trkpt>
      <trkpt lat="43.22763" lon="5.50229">
        <ele>288.5</ele>
        <time>2025-10-18T15:00:57Z</time>
      </trkpt>
      <trkpt lat="43.22762" lon="5.5023">
        <ele>288.5</ele>
        <time>2025-10-18T15:00:58Z</time>
      </trkpt>
      <trkpt lat="43.22762" lon="5.50231">
        <ele>288.3</ele>
        <time>2025-10-18T15:00:59Z</time>
      </trkpt>
      <trkpt lat="43.22762" lon="5.50233">
        <ele>288.2</ele>
        <time>2025-10-18T15:01:00Z</time>
      </trkpt>
      <trkpt lat="43.22762" lon="5.50234">
        <ele>288.1</ele>
        <time>2025-10-18T15:01:01Z</time>
      </trkpt>
      <trkpt lat="43.22762" lon="5.50235">
        <ele>288</ele>
        <time>2025-10-18T15:01:02Z</time>
      </trkpt>
      <trkpt lat="43.22762" lon="5.50236">
        <ele>287.8</ele>
        <time>2025-10-18T15:01:03Z</time>
      </trkpt>
      <trkpt lat="43.22762" lon="5.50237">
        <ele>287.7</ele>
        <time>2025-10-18T15:01:04Z</time>
      </trkpt>
      <trkpt lat="43.22761" lon="5.50238">
        <ele>287.8</ele>
        <time>2025-10-18T15:01:05Z</time>
      </trkpt>
      <trkpt lat="43.22761" lon="5.5024">
        <ele>287.7</ele>
        <time>2025-10-18T15:01:06Z</time>
      </trkpt>
      <trkpt lat="43.2276" lon="5.5024">
        <ele>287.5</ele>
        <time>2025-10-18T15:01:07Z</time>
      </trkpt>
      <trkpt lat="43.22759" lon="5.50241">
        <ele>287.4</ele>
        <time>2025-10-18T15:01:08Z</time>
      </trkpt>
      <trkpt lat="43.22758" lon="5.50243">
        <ele>287.4</ele>
        <time>2025-10-18T15:01:09Z</time>
      </trkpt>
      <trkpt lat="43.22758" lon="5.50244">
        <ele>287.3</ele>
        <time>2025-10-18T15:01:10Z</time>
      </trkpt>
      <trkpt lat="43.22758" lon="5.50245">
        <ele>287.2</ele>
        <time>2025-10-18T15:01:11Z</time>
      </trkpt>
      <trkpt lat="43.22758" lon="5.50246">
        <ele>287</ele>
        <time>2025-10-18T15:01:12Z</time>
      </trkpt>
      <trkpt lat="43.22757" lon="5.50247">
        <ele>286.9</ele>
        <time>2025-10-18T15:01:13Z</time>
      </trkpt>
      <trkpt lat="43.22757" lon="5.50248">
        <ele>286.8</ele>
        <time>2025-10-18T15:01:14Z</time>
      </trkpt>
      <trkpt lat="43.22757" lon="5.50248">
        <ele>286.7</ele>
        <time>2025-10-18T15:01:15Z</time>
      </trkpt>
      <trkpt lat="43.22757" lon="5.50249">
        <ele>286.6</ele>
        <time>2025-10-18T15:01:16Z</time>
      </trkpt>
      <trkpt lat="43.22757" lon="5.50251">
        <ele>286.5</ele>
        <time>2025-10-18T15:01:17Z</time>
      </trkpt>
      <trkpt lat="43.22757" lon="5.50252">
        <ele>286.3</ele>
        <time>2025-10-18T15:01:18Z</time>
      </trkpt>
      <trkpt lat="43.22757" lon="5.50253">
        <ele>286.2</ele>
        <time>2025-10-18T15:01:19Z</time>
      </trkpt>
      <trkpt lat="43.22757" lon="5.50254">
        <ele>286.1</ele>
        <time>2025-10-18T15:01:20Z</time>
      </trkpt>
      <trkpt lat="43.22756" lon="5.50256">
        <ele>286</ele>
        <time>2025-10-18T15:01:21Z</time>
      </trkpt>
      <trkpt lat="43.22756" lon="5.50257">
        <ele>285.9</ele>
        <time>2025-10-18T15:01:22Z</time>
      </trkpt>
      <trkpt lat="43.22756" lon="5.50258">
        <ele>285.8</ele>
        <time>2025-10-18T15:01:23Z</time>
      </trkpt>
      <trkpt lat="43.22755" lon="5.50259">
        <ele>285.7</ele>
        <time>2025-10-18T15:01:24Z</time>
      </trkpt>
      <trkpt lat="43.22755" lon="5.50261">
        <ele>285.6</ele>
        <time>2025-10-18T15:01:25Z</time>
      </trkpt>
      <trkpt lat="43.22755" lon="5.50262">
        <ele>285.6</ele>
        <time>2025-10-18T15:01:26Z</time>
      </trkpt>
      <trkpt lat="43.22755" lon="5.50263">
        <ele>285.6</ele>
        <time>2025-10-18T15:01:27Z</time>
      </trkpt>
      <trkpt lat="43.22755" lon="5.50265">
        <ele>285.5</ele>
        <time>2025-10-18T15:01:28Z</time>
      </trkpt>
      <trkpt lat="43.22755" lon="5.50267">
        <ele>285.5</ele>
        <time>2025-10-18T15:01:29Z</time>
      </trkpt>
      <trkpt lat="43.22754" lon="5.50269">
        <ele>285.5</ele>
        <time>2025-10-18T15:01:30Z</time>
      </trkpt>
      <trkpt lat="43.22754" lon="5.5027">
        <ele>285.5</ele>
        <time>2025-10-18T15:01:31Z</time>
      </trkpt>
      <trkpt lat="43.22754" lon="5.50271">
        <ele>285.3</ele>
        <time>2025-10-18T15:01:32Z</time>
      </trkpt>
      <trkpt lat="43.22753" lon="5.50272">
        <ele>285.3</ele>
        <time>2025-10-18T15:01:33Z</time>
      </trkpt>
      <trkpt lat="43.22753" lon="5.50274">
        <ele>285.1</ele>
        <time>2025-10-18T15:01:34Z</time>
      </trkpt>
      <trkpt lat="43.22753" lon="5.50275">
        <ele>284.9</ele>
        <time>2025-10-18T15:01:35Z</time>
      </trkpt>
      <trkpt lat="43.22753" lon="5.50276">
        <ele>284.8</ele>
        <time>2025-10-18T15:01:36Z</time>
      </trkpt>
      <trkpt lat="43.22752" lon="5.50277">
        <ele>284.8</ele>
        <time>2025-10-18T15:01:37Z</time>
      </trkpt>
      <trkpt lat="43.22752" lon="5.50278">
        <ele>284.7</ele>
        <time>2025-10-18T15:01:38Z</time>
      </trkpt>
      <trkpt lat="43.22752" lon="5.5028">
        <ele>284.6</ele>
        <time>2025-10-18T15:01:39Z</time>
      </trkpt>
      <trkpt lat="43.22752" lon="5.50281">
        <ele>284.4</ele>
        <time>2025-10-18T15:01:40Z</time>
      </trkpt>
      <trkpt lat="43.22752" lon="5.50282">
        <ele>284.3</ele>
        <time>2025-10-18T15:01:41Z</time>
      </trkpt>
      <trkpt lat="43.22751" lon="5.50283">
        <ele>284.2</ele>
        <time>2025-10-18T15:01:42Z</time>
      </trkpt>
      <trkpt lat="43.22751" lon="5.50284">
        <ele>284</ele>
        <time>2025-10-18T15:01:43Z</time>
      </trkpt>
      <trkpt lat="43.22751" lon="5.50286">
        <ele>283.9</ele>
        <time>2025-10-18T15:01:44Z</time>
      </trkpt>
      <trkpt lat="43.22751" lon="5.50287">
        <ele>283.8</ele>
        <time>2025-10-18T15:01:45Z</time>
      </trkpt>
      <trkpt lat="43.22751" lon="5.50287">
        <ele>283.7</ele>
        <time>2025-10-18T15:01:46Z</time>
      </trkpt>
      <trkpt lat="43.22751" lon="5.50289">
        <ele>283.6</ele>
        <time>2025-10-18T15:01:47Z</time>
      </trkpt>
      <trkpt lat="43.22751" lon="5.5029">
        <ele>283.6</ele>
        <time>2025-10-18T15:01:48Z</time>
      </trkpt>
      <trkpt lat="43.2275" lon="5.50291">
        <ele>283.5</ele>
        <time>2025-10-18T15:01:49Z</time>
      </trkpt>
      <trkpt lat="43.2275" lon="5.50292">
        <ele>283.4</ele>
        <time>2025-10-18T15:01:50Z</time>
      </trkpt>
      <trkpt lat="43.2275" lon="5.50293">
        <ele>283.4</ele>
        <time>2025-10-18T15:01:51Z</time>
      </trkpt>
      <trkpt lat="43.2275" lon="5.50294">
        <ele>283.2</ele>
        <time>2025-10-18T15:01:52Z</time>
      </trkpt>
      <trkpt lat="43.2275" lon="5.50295">
        <ele>283.1</ele>
        <time>2025-10-18T15:01:53Z</time>
      </trkpt>
      <trkpt lat="43.2275" lon="5.50296">
        <ele>282.9</ele>
        <time>2025-10-18T15:01:54Z</time>
      </trkpt>
      <trkpt lat="43.2275" lon="5.50297">
        <ele>282.8</ele>
        <time>2025-10-18T15:01:55Z</time>
      </trkpt>
      <trkpt lat="43.2275" lon="5.50298">
        <ele>282.8</ele>
        <time>2025-10-18T15:01:56Z</time>
      </trkpt>
      <trkpt lat="43.2275" lon="5.50299">
        <ele>282.6</ele>
        <time>2025-10-18T15:01:57Z</time>
      </trkpt>
      <trkpt lat="43.22749" lon="5.50301">
        <ele>282.5</ele>
        <time>2025-10-18T15:01:58Z</time>
      </trkpt>
      <trkpt lat="43.22749" lon="5.50302">
        <ele>282.3</ele>
        <time>2025-10-18T15:01:59Z</time>
      </trkpt>
      <trkpt lat="43.22749" lon="5.50303">
        <ele>282.2</ele>
        <time>2025-10-18T15:02:00Z</time>
      </trkpt>
      <trkpt lat="43.22748" lon="5.50305">
        <ele>282.1</ele>
        <time>2025-10-18T15:02:01Z</time>
      </trkpt>
      <trkpt lat="43.22748" lon="5.50306">
        <ele>281.9</ele>
        <time>2025-10-18T15:02:02Z</time>
      </trkpt>
      <trkpt lat="43.22748" lon="5.50308">
        <ele>281.8</ele>
        <time>2025-10-18T15:02:03Z</time>
      </trkpt>
      <trkpt lat="43.22747" lon="5.50309">
        <ele>281.7</ele>
        <time>2025-10-18T15:02:04Z</time>
      </trkpt>
      <trkpt lat="43.22747" lon="5.5031">
        <ele>281.6</ele>
        <time>2025-10-18T15:02:05Z</time>
      </trkpt>
      <trkpt lat="43.22747" lon="5.50311">
        <ele>281.6</ele>
        <time>2025-10-18T15:02:06Z</time>
      </trkpt>
      <trkpt lat="43.22747" lon="5.50312">
        <ele>281.5</ele>
        <time>2025-10-18T15:02:07Z</time>
      </trkpt>
      <trkpt lat="43.22747" lon="5.50313">
        <ele>281.4</ele>
        <time>2025-10-18T15:02:08Z</time>
      </trkpt>
      <trkpt lat="43.22746" lon="5.50314">
        <ele>281.4</ele>
        <time>2025-10-18T15:02:09Z</time>
      </trkpt>
      <trkpt lat="43.22746" lon="5.50315">
        <ele>281.3</ele>
        <time>2025-10-18T15:02:10Z</time>
      </trkpt>
      <trkpt lat="43.22746" lon="5.50316">
        <ele>281.3</ele>
        <time>2025-10-18T15:02:11Z</time>
      </trkpt>
      <trkpt lat="43.22747" lon="5.50316">
        <ele>281.2</ele>
        <time>2025-10-18T15:02:12Z</time>
      </trkpt>
      <trkpt lat="43.22747" lon="5.50316">
        <ele>281.2</ele>
        <time>2025-10-18T15:02:13Z</time>
      </trkpt>
      <trkpt lat="43.22746" lon="5.50316">
        <ele>281.1</ele>
        <time>2025-10-18T15:02:14Z</time>
      </trkpt>
      <trkpt lat="43.22746" lon="5.50316">
        <ele>281</ele>
        <time>2025-10-18T15:02:15Z</time>
      </trkpt>
      <trkpt lat="43.22746" lon="5.50317">
        <ele>280.9</ele>
        <time>2025-10-18T15:02:16Z</time>
      </trkpt>
      <trkpt lat="43.22746" lon="5.50319">
        <ele>280.9</ele>
        <time>2025-10-18T15:02:17Z</time>
      </trkpt>
      <trkpt lat="43.22746" lon="5.5032">
        <ele>280.8</ele>
        <time>2025-10-18T15:02:18Z</time>
      </trkpt>
      <trkpt lat="43.22746" lon="5.50321">
        <ele>280.6</ele>
        <time>2025-10-18T15:02:19Z</time>
      </trkpt>
      <trkpt lat="43.22746" lon="5.50323">
        <ele>280.5</ele>
        <time>2025-10-18T15:02:20Z</time>
      </trkpt>
      <trkpt lat="43.22746" lon="5.50324">
        <ele>280.4</ele>
        <time>2025-10-18T15:02:21Z</time>
      </trkpt>
      <trkpt lat="43.22745" lon="5.50326">
        <ele>280.3</ele>
        <time>2025-10-18T15:02:22Z</time>
      </trkpt>
      <trkpt lat="43.22745" lon="5.50328">
        <ele>280.2</ele>
        <time>2025-10-18T15:02:23Z</time>
      </trkpt>
      <trkpt lat="43.22745" lon="5.50329">
        <ele>280.1</ele>
        <time>2025-10-18T15:02:24Z</time>
      </trkpt>
      <trkpt lat="43.22745" lon="5.50331">
        <ele>280</ele>
        <time>2025-10-18T15:02:25Z</time>
      </trkpt>
      <trkpt lat="43.22745" lon="5.50332">
        <ele>279.9</ele>
        <time>2025-10-18T15:02:26Z</time>
      </trkpt>
      <trkpt lat="43.22745" lon="5.50334">
        <ele>279.7</ele>
        <time>2025-10-18T15:02:27Z</time>
      </trkpt>
      <trkpt lat="43.22745" lon="5.50335">
        <ele>279.5</ele>
        <time>2025-10-18T15:02:28Z</time>
      </trkpt>
      <trkpt lat="43.22744" lon="5.50337">
        <ele>279.4</ele>
        <time>2025-10-18T15:02:29Z</time>
      </trkpt>
      <trkpt lat="43.22744" lon="5.50338">
        <ele>279.2</ele>
        <time>2025-10-18T15:02:30Z</time>
      </trkpt>
      <trkpt lat="43.22744" lon="5.5034">
        <ele>279</ele>
        <time>2025-10-18T15:02:31Z</time>
      </trkpt>
      <trkpt lat="43.22744" lon="5.50341">
        <ele>278.9</ele>
        <time>2025-10-18T15:02:32Z</time>
      </trkpt>
      <trkpt lat="43.22744" lon="5.50343">
        <ele>278.8</ele>
        <time>2025-10-18T15:02:33Z</time>
      </trkpt>
      <trkpt lat="43.22744" lon="5.50344">
        <ele>278.7</ele>
        <time>2025-10-18T15:02:34Z</time>
      </trkpt>
      <trkpt lat="43.22744" lon="5.50345">
        <ele>278.6</ele>
        <time>2025-10-18T15:02:35Z</time>
      </trkpt>
      <trkpt lat="43.22744" lon="5.50347">
        <ele>278.5</ele>
        <time>2025-10-18T15:02:36Z</time>
      </trkpt>
      <trkpt lat="43.22745" lon="5.50349">
        <ele>278.4</ele>
        <time>2025-10-18T15:02:37Z</time>
      </trkpt>
      <trkpt lat="43.22745" lon="5.5035">
        <ele>278.4</ele>
        <time>2025-10-18T15:02:38Z</time>
      </trkpt>
      <trkpt lat="43.22745" lon="5.50351">
        <ele>278.3</ele>
        <time>2025-10-18T15:02:39Z</time>
      </trkpt>
      <trkpt lat="43.22746" lon="5.50352">
        <ele>278.2</ele>
        <time>2025-10-18T15:02:40Z</time>
      </trkpt>
      <trkpt lat="43.22746" lon="5.50353">
        <ele>278.2</ele>
        <time>2025-10-18T15:02:41Z</time>
      </trkpt>
      <trkpt lat="43.22747" lon="5.50355">
        <ele>278.1</ele>
        <time>2025-10-18T15:02:42Z</time>
      </trkpt>
      <trkpt lat="43.22747" lon="5.50356">
        <ele>278</ele>
        <time>2025-10-18T15:02:43Z</time>
      </trkpt>
      <trkpt lat="43.22748" lon="5.50357">
        <ele>277.9</ele>
        <time>2025-10-18T15:02:44Z</time>
      </trkpt>
      <trkpt lat="43.22748" lon="5.50359">
        <ele>277.9</ele>
        <time>2025-10-18T15:02:45Z</time>
      </trkpt>
      <trkpt lat="43.22748" lon="5.5036">
        <ele>277.8</ele>
        <time>2025-10-18T15:02:46Z</time>
      </trkpt>
      <trkpt lat="43.22749" lon="5.50361">
        <ele>277.6</ele>
        <time>2025-10-18T15:02:47Z</time>
      </trkpt>
      <trkpt lat="43.22749" lon="5.50362">
        <ele>277.5</ele>
        <time>2025-10-18T15:02:48Z</time>
      </trkpt>
      <trkpt lat="43.2275" lon="5.50363">
        <ele>277.3</ele>
        <time>2025-10-18T15:02:49Z</time>
      </trkpt>
      <trkpt lat="43.2275" lon="5.50364">
        <ele>277.3</ele>
        <time>2025-10-18T15:02:50Z</time>
      </trkpt>
      <trkpt lat="43.22751" lon="5.50366">
        <ele>277.3</ele>
        <time>2025-10-18T15:02:51Z</time>
      </trkpt>
      <trkpt lat="43.22751" lon="5.50367">
        <ele>277.2</ele>
        <time>2025-10-18T15:02:52Z</time>
      </trkpt>
      <trkpt lat="43.22752" lon="5.50368">
        <ele>277.2</ele>
        <time>2025-10-18T15:02:53Z</time>
      </trkpt>
      <trkpt lat="43.22752" lon="5.5037">
        <ele>277.1</ele>
        <time>2025-10-18T15:02:54Z</time>
      </trkpt>
      <trkpt lat="43.22753" lon="5.50371">
        <ele>277</ele>
        <time>2025-10-18T15:02:55Z</time>
      </trkpt>
      <trkpt lat="43.22753" lon="5.50372">
        <ele>276.9</ele>
        <time>2025-10-18T15:02:56Z</time>
      </trkpt>
      <trkpt lat="43.22754" lon="5.50374">
        <ele>276.7</ele>
        <time>2025-10-18T15:02:57Z</time>
      </trkpt>
      <trkpt lat="43.22754" lon="5.50375">
        <ele>276.6</ele>
        <time>2025-10-18T15:02:58Z</time>
      </trkpt>
      <trkpt lat="43.22754" lon="5.50376">
        <ele>276.6</ele>
        <time>2025-10-18T15:02:59Z</time>
      </trkpt>
      <trkpt lat="43.22754" lon="5.50378">
        <ele>276.4</ele>
        <time>2025-10-18T15:03:00Z</time>
      </trkpt>
      <trkpt lat="43.22754" lon="5.50379">
        <ele>276.3</ele>
        <time>2025-10-18T15:03:01Z</time>
      </trkpt>
      <trkpt lat="43.22754" lon="5.5038">
        <ele>276.2</ele>
        <time>2025-10-18T15:03:02Z</time>
      </trkpt>
      <trkpt lat="43.22754" lon="5.50382">
        <ele>276.1</ele>
        <time>2025-10-18T15:03:03Z</time>
      </trkpt>
      <trkpt lat="43.22754" lon="5.50383">
        <ele>276</ele>
        <time>2025-10-18T15:03:04Z</time>
      </trkpt>
      <trkpt lat="43.22754" lon="5.50384">
        <ele>275.9</ele>
        <time>2025-10-18T15:03:05Z</time>
      </trkpt>
      <trkpt lat="43.22754" lon="5.50385">
        <ele>275.8</ele>
        <time>2025-10-18T15:03:06Z</time>
      </trkpt>
      <trkpt lat="43.22754" lon="5.50386">
        <ele>275.7</ele>
        <time>2025-10-18T15:03:07Z</time>
      </trkpt>
      <trkpt lat="43.22754" lon="5.50388">
        <ele>275.6</ele>
        <time>2025-10-18T15:03:08Z</time>
      </trkpt>
      <trkpt lat="43.22753" lon="5.50389">
        <ele>275.5</ele>
        <time>2025-10-18T15:03:09Z</time>
      </trkpt>
      <trkpt lat="43.22753" lon="5.5039">
        <ele>275.4</ele>
        <time>2025-10-18T15:03:10Z</time>
      </trkpt>
      <trkpt lat="43.22752" lon="5.50391">
        <ele>275.3</ele>
        <time>2025-10-18T15:03:11Z</time>
      </trkpt>
      <trkpt lat="43.22752" lon="5.50393">
        <ele>275.3</ele>
        <time>2025-10-18T15:03:12Z</time>
      </trkpt>
      <trkpt lat="43.22752" lon="5.50394">
        <ele>275.3</ele>
        <time>2025-10-18T15:03:13Z</time>
      </trkpt>
      <trkpt lat="43.22751" lon="5.50395">
        <ele>275.2</ele>
        <time>2025-10-18T15:03:14Z</time>
      </trkpt>
      <trkpt lat="43.22751" lon="5.50396">
        <ele>275.1</ele>
        <time>2025-10-18T15:03:15Z</time>
      </trkpt>
      <trkpt lat="43.2275" lon="5.50397">
        <ele>275.1</ele>
        <time>2025-10-18T15:03:16Z</time>
      </trkpt>
      <trkpt lat="43.2275" lon="5.50398">
        <ele>274.9</ele>
        <time>2025-10-18T15:03:17Z</time>
      </trkpt>
      <trkpt lat="43.22749" lon="5.50399">
        <ele>274.8</ele>
        <time>2025-10-18T15:03:18Z</time>
      </trkpt>
      <trkpt lat="43.22748" lon="5.504">
        <ele>274.7</ele>
        <time>2025-10-18T15:03:19Z</time>
      </trkpt>
      <trkpt lat="43.22748" lon="5.50401">
        <ele>274.6</ele>
        <time>2025-10-18T15:03:20Z</time>
      </trkpt>
      <trkpt lat="43.22747" lon="5.50401">
        <ele>274.6</ele>
        <time>2025-10-18T15:03:21Z</time>
      </trkpt>
      <trkpt lat="43.22746" lon="5.50403">
        <ele>274.6</ele>
        <time>2025-10-18T15:03:22Z</time>
      </trkpt>
      <trkpt lat="43.22746" lon="5.50404">
        <ele>274.5</ele>
        <time>2025-10-18T15:03:23Z</time>
      </trkpt>
      <trkpt lat="43.22745" lon="5.50404">
        <ele>274.5</ele>
        <time>2025-10-18T15:03:24Z</time>
      </trkpt>
      <trkpt lat="43.22744" lon="5.50405">
        <ele>274.5</ele>
        <time>2025-10-18T15:03:25Z</time>
      </trkpt>
      <trkpt lat="43.22744" lon="5.50406">
        <ele>274.5</ele>
        <time>2025-10-18T15:03:26Z</time>
      </trkpt>
      <trkpt lat="43.22744" lon="5.50407">
        <ele>274.5</ele>
        <time>2025-10-18T15:03:27Z</time>
      </trkpt>
      <trkpt lat="43.22743" lon="5.50409">
        <ele>274.5</ele>
        <time>2025-10-18T15:03:28Z</time>
      </trkpt>
      <trkpt lat="43.22743" lon="5.5041">
        <ele>274.5</ele>
        <time>2025-10-18T15:03:29Z</time>
      </trkpt>
      <trkpt lat="43.22743" lon="5.5041">
        <ele>274.5</ele>
        <time>2025-10-18T15:03:30Z</time>
      </trkpt>
      <trkpt lat="43.22742" lon="5.50412">
        <ele>274.5</ele>
        <time>2025-10-18T15:03:31Z</time>
      </trkpt>
      <trkpt lat="43.22742" lon="5.50413">
        <ele>274.4</ele>
        <time>2025-10-18T15:03:32Z</time>
      </trkpt>
      <trkpt lat="43.22742" lon="5.50414">
        <ele>274.4</ele>
        <time>2025-10-18T15:03:33Z</time>
      </trkpt>
      <trkpt lat="43.22742" lon="5.50416">
        <ele>274.3</ele>
        <time>2025-10-18T15:03:34Z</time>
      </trkpt>
      <trkpt lat="43.22742" lon="5.50417">
        <ele>274.3</ele>
        <time>2025-10-18T15:03:35Z</time>
      </trkpt>
      <trkpt lat="43.22742" lon="5.50418">
        <ele>274.2</ele>
        <time>2025-10-18T15:03:36Z</time>
      </trkpt>
      <trkpt lat="43.22741" lon="5.50419">
        <ele>274.1</ele>
        <time>2025-10-18T15:03:37Z</time>
      </trkpt>
      <trkpt lat="43.22742" lon="5.5042">
        <ele>274</ele>
        <time>2025-10-18T15:03:38Z</time>
      </trkpt>
      <trkpt lat="43.22742" lon="5.5042">
        <ele>273.9</ele>
        <time>2025-10-18T15:03:39Z</time>
      </trkpt>
      <trkpt lat="43.22742" lon="5.5042">
        <ele>273.8</ele>
        <time>2025-10-18T15:03:40Z</time>
      </trkpt>
      <trkpt lat="43.22742" lon="5.5042">
        <ele>273.8</ele>
        <time>2025-10-18T15:03:41Z</time>
      </trkpt>
      <trkpt lat="43.22742" lon="5.5042">
        <ele>273.7</ele>
        <time>2025-10-18T15:03:42Z</time>
      </trkpt>
      <trkpt lat="43.22742" lon="5.5042">
        <ele>273.7</ele>
        <time>2025-10-18T15:03:43Z</time>
      </trkpt>
      <trkpt lat="43.22742" lon="5.5042">
        <ele>273.8</ele>
        <time>2025-10-18T15:03:44Z</time>
      </trkpt>
      <trkpt lat="43.22742" lon="5.5042">
        <ele>273.8</ele>
        <time>2025-10-18T15:03:45Z</time>
      </trkpt>
      <trkpt lat="43.22742" lon="5.5042">
        <ele>273.8</ele>
        <time>2025-10-18T15:03:46Z</time>
      </trkpt>
      <trkpt lat="43.22742" lon="5.5042">
        <ele>273.8</ele>
        <time>2025-10-18T15:03:47Z</time>
      </trkpt>
      <trkpt lat="43.22742" lon="5.5042">
        <ele>273.8</ele>
        <time>2025-10-18T15:03:48Z</time>
      </trkpt>
      <trkpt lat="43.22742" lon="5.5042">
        <ele>273.8</ele>
        <time>2025-10-18T15:03:49Z</time>
      </trkpt>
      <trkpt lat="43.22742" lon="5.5042">
        <ele>273.9</ele>
        <time>2025-10-18T15:03:50Z</time>
      </trkpt>
      <trkpt lat="43.22742" lon="5.5042">
        <ele>273.9</ele>
        <time>2025-10-18T15:03:51Z</time>
      </trkpt>
      <trkpt lat="43.22742" lon="5.5042">
        <ele>274</ele>
        <time>2025-10-18T15:03:52Z</time>
      </trkpt>
      <trkpt lat="43.22742" lon="5.5042">
        <ele>274</ele>
        <time>2025-10-18T15:03:53Z</time>
      </trkpt>
      <trkpt lat="43.22742" lon="5.5042">
        <ele>274</ele>
        <time>2025-10-18T15:03:54Z</time>
      </trkpt>
      <trkpt lat="43.22741" lon="5.50421">
        <ele>274</ele>
        <time>2025-10-18T15:03:55Z</time>
      </trkpt>
      <trkpt lat="43.22742" lon="5.50422">
        <ele>274.1</ele>
        <time>2025-10-18T15:03:56Z</time>
      </trkpt>
      <trkpt lat="43.22742" lon="5.50423">
        <ele>274.1</ele>
        <time>2025-10-18T15:03:57Z</time>
      </trkpt>
      <trkpt lat="43.22742" lon="5.50424">
        <ele>273.9</ele>
        <time>2025-10-18T15:03:58Z</time>
      </trkpt>
      <trkpt lat="43.22742" lon="5.50426">
        <ele>273.9</ele>
        <time>2025-10-18T15:03:59Z</time>
      </trkpt>
      <trkpt lat="43.22742" lon="5.50427">
        <ele>273.9</ele>
        <time>2025-10-18T15:04:00Z</time>
      </trkpt>
      <trkpt lat="43.22743" lon="5.50427">
        <ele>273.9</ele>
        <time>2025-10-18T15:04:01Z</time>
      </trkpt>
      <trkpt lat="43.22743" lon="5.50429">
        <ele>273.9</ele>
        <time>2025-10-18T15:04:02Z</time>
      </trkpt>
      <trkpt lat="43.22744" lon="5.5043">
        <ele>273.8</ele>
        <time>2025-10-18T15:04:03Z</time>
      </trkpt>
      <trkpt lat="43.22744" lon="5.5043">
        <ele>273.8</ele>
        <time>2025-10-18T15:04:04Z</time>
      </trkpt>
      <trkpt lat="43.22744" lon="5.50431">
        <ele>273.8</ele>
        <time>2025-10-18T15:04:05Z</time>
      </trkpt>
      <trkpt lat="43.22744" lon="5.50431">
        <ele>273.8</ele>
        <time>2025-10-18T15:04:06Z</time>
      </trkpt>
      <trkpt lat="43.22744" lon="5.50431">
        <ele>273.7</ele>
        <time>2025-10-18T15:04:07Z</time>
      </trkpt>
      <trkpt lat="43.22744" lon="5.50431">
        <ele>273.7</ele>
        <time>2025-10-18T15:04:08Z</time>
      </trkpt>
      <trkpt lat="43.22744" lon="5.50431">
        <ele>273.7</ele>
        <time>2025-10-18T15:04:09Z</time>
      </trkpt>
      <trkpt lat="43.22744" lon="5.50431">
        <ele>273.7</ele>
        <time>2025-10-18T15:04:10Z</time>
      </trkpt>
      <trkpt lat="43.22744" lon="5.50431">
        <ele>273.6</ele>
        <time>2025-10-18T15:04:11Z</time>
      </trkpt>
      <trkpt lat="43.22744" lon="5.50431">
        <ele>273.6</ele>
        <time>2025-10-18T15:04:12Z</time>
      </trkpt>
      <trkpt lat="43.22744" lon="5.50432">
        <ele>273.5</ele>
        <time>2025-10-18T15:04:13Z</time>
      </trkpt>
      <trkpt lat="43.22743" lon="5.50432">
        <ele>273.6</ele>
        <time>2025-10-18T15:04:14Z</time>
      </trkpt>
      <trkpt lat="43.22743" lon="5.50432">
        <ele>273.5</ele>
        <time>2025-10-18T15:04:15Z</time>
      </trkpt>
      <trkpt lat="43.22743" lon="5.50432">
        <ele>273.5</ele>
        <time>2025-10-18T15:04:16Z</time>
      </trkpt>
      <trkpt lat="43.22743" lon="5.50432">
        <ele>273.6</ele>
        <time>2025-10-18T15:04:17Z</time>
      </trkpt>
      <trkpt lat="43.22743" lon="5.50432">
        <ele>273.7</ele>
        <time>2025-10-18T15:04:18Z</time>
      </trkpt>
      <trkpt lat="43.22743" lon="5.50432">
        <ele>273.8</ele>
        <time>2025-10-18T15:04:19Z</time>
      </trkpt>
      <trkpt lat="43.22743" lon="5.50432">
        <ele>273.9</ele>
        <time>2025-10-18T15:04:20Z</time>
      </trkpt>
      <trkpt lat="43.22743" lon="5.50432">
        <ele>273.9</ele>
        <time>2025-10-18T15:04:21Z</time>
      </trkpt>
      <trkpt lat="43.22743" lon="5.50432">
        <ele>274</ele>
        <time>2025-10-18T15:04:22Z</time>
      </trkpt>
      <trkpt lat="43.22743" lon="5.50433">
        <ele>273.8</ele>
        <time>2025-10-18T15:04:23Z</time>
      </trkpt>
      <trkpt lat="43.22744" lon="5.50434">
        <ele>273.9</ele>
        <time>2025-10-18T15:04:24Z</time>
      </trkpt>
      <trkpt lat="43.22744" lon="5.50435">
        <ele>273.9</ele>
        <time>2025-10-18T15:04:25Z</time>
      </trkpt>
      <trkpt lat="43.22745" lon="5.50436">
        <ele>273.8</ele>
        <time>2025-10-18T15:04:26Z</time>
      </trkpt>
      <trkpt lat="43.22746" lon="5.50437">
        <ele>273.7</ele>
        <time>2025-10-18T15:04:27Z</time>
      </trkpt>
      <trkpt lat="43.22746" lon="5.50438">
        <ele>273.7</ele>
        <time>2025-10-18T15:04:28Z</time>
      </trkpt>
      <trkpt lat="43.22747" lon="5.50439">
        <ele>273.6</ele>
        <time>2025-10-18T15:04:29Z</time>
      </trkpt>
      <trkpt lat="43.22748" lon="5.5044">
        <ele>273.6</ele>
        <time>2025-10-18T15:04:30Z</time>
      </trkpt>
      <trkpt lat="43.2275" lon="5.5044">
        <ele>273.5</ele>
        <time>2025-10-18T15:04:31Z</time>
      </trkpt>
      <trkpt lat="43.2275" lon="5.50441">
        <ele>273.5</ele>
        <time>2025-10-18T15:04:32Z</time>
      </trkpt>
      <trkpt lat="43.22751" lon="5.50441">
        <ele>273.3</ele>
        <time>2025-10-18T15:04:33Z</time>
      </trkpt>
      <trkpt lat="43.22752" lon="5.50442">
        <ele>273.1</ele>
        <time>2025-10-18T15:04:34Z</time>
      </trkpt>
      <trkpt lat="43.22753" lon="5.50442">
        <ele>273</ele>
        <time>2025-10-18T15:04:35Z</time>
      </trkpt>
      <trkpt lat="43.22754" lon="5.50443">
        <ele>273</ele>
        <time>2025-10-18T15:04:36Z</time>
      </trkpt>
      <trkpt lat="43.22755" lon="5.50443">
        <ele>272.9</ele>
        <time>2025-10-18T15:04:37Z</time>
      </trkpt>
      <trkpt lat="43.22756" lon="5.50444">
        <ele>272.7</ele>
        <time>2025-10-18T15:04:38Z</time>
      </trkpt>
      <trkpt lat="43.22756" lon="5.50445">
        <ele>272.6</ele>
        <time>2025-10-18T15:04:39Z</time>
      </trkpt>
      <trkpt lat="43.22758" lon="5.50445">
        <ele>272.5</ele>
        <time>2025-10-18T15:04:40Z</time>
      </trkpt>
      <trkpt lat="43.22759" lon="5.50445">
        <ele>272.4</ele>
        <time>2025-10-18T15:04:41Z</time>
      </trkpt>
      <trkpt lat="43.2276" lon="5.50445">
        <ele>272.1</ele>
        <time>2025-10-18T15:04:42Z</time>
      </trkpt>
      <trkpt lat="43.22761" lon="5.50445">
        <ele>272</ele>
        <time>2025-10-18T15:04:43Z</time>
      </trkpt>
      <trkpt lat="43.22762" lon="5.50445">
        <ele>271.8</ele>
        <time>2025-10-18T15:04:44Z</time>
      </trkpt>
      <trkpt lat="43.22763" lon="5.50445">
        <ele>271.7</ele>
        <time>2025-10-18T15:04:45Z</time>
      </trkpt>
      <trkpt lat="43.22764" lon="5.50445">
        <ele>271.5</ele>
        <time>2025-10-18T15:04:46Z</time>
      </trkpt>
      <trkpt lat="43.22765" lon="5.50445">
        <ele>271.3</ele>
        <time>2025-10-18T15:04:47Z</time>
      </trkpt>
      <trkpt lat="43.22766" lon="5.50445">
        <ele>271.1</ele>
        <time>2025-10-18T15:04:48Z</time>
      </trkpt>
      <trkpt lat="43.22766" lon="5.50445">
        <ele>271</ele>
        <time>2025-10-18T15:04:49Z</time>
      </trkpt>
      <trkpt lat="43.22767" lon="5.50445">
        <ele>270.8</ele>
        <time>2025-10-18T15:04:50Z</time>
      </trkpt>
      <trkpt lat="43.22768" lon="5.50444">
        <ele>270.7</ele>
        <time>2025-10-18T15:04:51Z</time>
      </trkpt>
      <trkpt lat="43.22769" lon="5.50443">
        <ele>270.5</ele>
        <time>2025-10-18T15:04:52Z</time>
      </trkpt>
      <trkpt lat="43.2277" lon="5.50443">
        <ele>270.4</ele>
        <time>2025-10-18T15:04:53Z</time>
      </trkpt>
      <trkpt lat="43.2277" lon="5.50443">
        <ele>270.2</ele>
        <time>2025-10-18T15:04:54Z</time>
      </trkpt>
      <trkpt lat="43.22771" lon="5.50443">
        <ele>270.1</ele>
        <time>2025-10-18T15:04:55Z</time>
      </trkpt>
      <trkpt lat="43.22772" lon="5.50443">
        <ele>270</ele>
        <time>2025-10-18T15:04:56Z</time>
      </trkpt>
      <trkpt lat="43.22773" lon="5.50443">
        <ele>269.9</ele>
        <time>2025-10-18T15:04:57Z</time>
      </trkpt>
      <trkpt lat="43.22774" lon="5.50443">
        <ele>269.6</ele>
        <time>2025-10-18T15:04:58Z</time>
      </trkpt>
      <trkpt lat="43.22775" lon="5.50442">
        <ele>269.5</ele>
        <time>2025-10-18T15:04:59Z</time>
      </trkpt>
      <trkpt lat="43.22775" lon="5.50442">
        <ele>269.4</ele>
        <time>2025-10-18T15:05:00Z</time>
      </trkpt>
      <trkpt lat="43.22776" lon="5.50442">
        <ele>269.3</ele>
        <time>2025-10-18T15:05:01Z</time>
      </trkpt>
      <trkpt lat="43.22777" lon="5.50442">
        <ele>269.2</ele>
        <time>2025-10-18T15:05:02Z</time>
      </trkpt>
      <trkpt lat="43.22778" lon="5.50441">
        <ele>269.1</ele>
        <time>2025-10-18T15:05:03Z</time>
      </trkpt>
      <trkpt lat="43.22779" lon="5.50441">
        <ele>269</ele>
        <time>2025-10-18T15:05:04Z</time>
      </trkpt>
      <trkpt lat="43.2278" lon="5.5044">
        <ele>268.8</ele>
        <time>2025-10-18T15:05:05Z</time>
      </trkpt>
      <trkpt lat="43.22781" lon="5.5044">
        <ele>268.6</ele>
        <time>2025-10-18T15:05:06Z</time>
      </trkpt>
      <trkpt lat="43.22781" lon="5.50439">
        <ele>268.5</ele>
        <time>2025-10-18T15:05:07Z</time>
      </trkpt>
      <trkpt lat="43.22782" lon="5.50439">
        <ele>268.4</ele>
        <time>2025-10-18T15:05:08Z</time>
      </trkpt>
      <trkpt lat="43.22783" lon="5.50439">
        <ele>268.2</ele>
        <time>2025-10-18T15:05:09Z</time>
      </trkpt>
      <trkpt lat="43.22784" lon="5.50438">
        <ele>268</ele>
        <time>2025-10-18T15:05:10Z</time>
      </trkpt>
      <trkpt lat="43.22785" lon="5.50438">
        <ele>267.9</ele>
        <time>2025-10-18T15:05:11Z</time>
      </trkpt>
      <trkpt lat="43.22786" lon="5.50437">
        <ele>267.8</ele>
        <time>2025-10-18T15:05:12Z</time>
      </trkpt>
      <trkpt lat="43.22787" lon="5.50437">
        <ele>267.6</ele>
        <time>2025-10-18T15:05:13Z</time>
      </trkpt>
      <trkpt lat="43.22788" lon="5.50436">
        <ele>267.4</ele>
        <time>2025-10-18T15:05:14Z</time>
      </trkpt>
      <trkpt lat="43.22789" lon="5.50436">
        <ele>267.5</ele>
        <time>2025-10-18T15:05:15Z</time>
      </trkpt>
      <trkpt lat="43.2279" lon="5.50435">
        <ele>267.4</ele>
        <time>2025-10-18T15:05:16Z</time>
      </trkpt>
      <trkpt lat="43.22791" lon="5.50435">
        <ele>267.3</ele>
        <time>2025-10-18T15:05:17Z</time>
      </trkpt>
      <trkpt lat="43.22792" lon="5.50434">
        <ele>267.2</ele>
        <time>2025-10-18T15:05:18Z</time>
      </trkpt>
      <trkpt lat="43.22793" lon="5.50434">
        <ele>267.1</ele>
        <time>2025-10-18T15:05:19Z</time>
      </trkpt>
      <trkpt lat="43.22794" lon="5.50433">
        <ele>266.9</ele>
        <time>2025-10-18T15:05:20Z</time>
      </trkpt>
      <trkpt lat="43.22795" lon="5.50433">
        <ele>266.8</ele>
        <time>2025-10-18T15:05:21Z</time>
      </trkpt>
      <trkpt lat="43.22796" lon="5.50433">
        <ele>266.7</ele>
        <time>2025-10-18T15:05:22Z</time>
      </trkpt>
      <trkpt lat="43.22797" lon="5.50433">
        <ele>266.5</ele>
        <time>2025-10-18T15:05:23Z</time>
      </trkpt>
      <trkpt lat="43.22798" lon="5.50433">
        <ele>266.4</ele>
        <time>2025-10-18T15:05:24Z</time>
      </trkpt>
      <trkpt lat="43.22799" lon="5.50433">
        <ele>266.3</ele>
        <time>2025-10-18T15:05:25Z</time>
      </trkpt>
      <trkpt lat="43.228" lon="5.50432">
        <ele>266.1</ele>
        <time>2025-10-18T15:05:26Z</time>
      </trkpt>
      <trkpt lat="43.22801" lon="5.50432">
        <ele>266</ele>
        <time>2025-10-18T15:05:27Z</time>
      </trkpt>
      <trkpt lat="43.22802" lon="5.50432">
        <ele>265.9</ele>
        <time>2025-10-18T15:05:28Z</time>
      </trkpt>
      <trkpt lat="43.22803" lon="5.50431">
        <ele>265.8</ele>
        <time>2025-10-18T15:05:29Z</time>
      </trkpt>
      <trkpt lat="43.22803" lon="5.50431">
        <ele>265.6</ele>
        <time>2025-10-18T15:05:30Z</time>
      </trkpt>
      <trkpt lat="43.22804" lon="5.50431">
        <ele>265.5</ele>
        <time>2025-10-18T15:05:31Z</time>
      </trkpt>
      <trkpt lat="43.22805" lon="5.50431">
        <ele>265.3</ele>
        <time>2025-10-18T15:05:32Z</time>
      </trkpt>
      <trkpt lat="43.22806" lon="5.50431">
        <ele>265</ele>
        <time>2025-10-18T15:05:33Z</time>
      </trkpt>
      <trkpt lat="43.22806" lon="5.50431">
        <ele>264.8</ele>
        <time>2025-10-18T15:05:34Z</time>
      </trkpt>
      <trkpt lat="43.22807" lon="5.50431">
        <ele>264.5</ele>
        <time>2025-10-18T15:05:35Z</time>
      </trkpt>
      <trkpt lat="43.22808" lon="5.50431">
        <ele>264.3</ele>
        <time>2025-10-18T15:05:36Z</time>
      </trkpt>
      <trkpt lat="43.2281" lon="5.5043">
        <ele>264.1</ele>
        <time>2025-10-18T15:05:37Z</time>
      </trkpt>
      <trkpt lat="43.2281" lon="5.50429">
        <ele>264</ele>
        <time>2025-10-18T15:05:38Z</time>
      </trkpt>
      <trkpt lat="43.22811" lon="5.50429">
        <ele>263.9</ele>
        <time>2025-10-18T15:05:39Z</time>
      </trkpt>
      <trkpt lat="43.22812" lon="5.50428">
        <ele>263.9</ele>
        <time>2025-10-18T15:05:40Z</time>
      </trkpt>
      <trkpt lat="43.22813" lon="5.50428">
        <ele>263.8</ele>
        <time>2025-10-18T15:05:41Z</time>
      </trkpt>
      <trkpt lat="43.22813" lon="5.50428">
        <ele>263.7</ele>
        <time>2025-10-18T15:05:42Z</time>
      </trkpt>
      <trkpt lat="43.22814" lon="5.50427">
        <ele>263.6</ele>
        <time>2025-10-18T15:05:43Z</time>
      </trkpt>
      <trkpt lat="43.22815" lon="5.50427">
        <ele>263.3</ele>
        <time>2025-10-18T15:05:44Z</time>
      </trkpt>
      <trkpt lat="43.22816" lon="5.50426">
        <ele>263.2</ele>
        <time>2025-10-18T15:05:45Z</time>
      </trkpt>
      <trkpt lat="43.22817" lon="5.50426">
        <ele>263</ele>
        <time>2025-10-18T15:05:46Z</time>
      </trkpt>
      <trkpt lat="43.22818" lon="5.50425">
        <ele>262.9</ele>
        <time>2025-10-18T15:05:47Z</time>
      </trkpt>
      <trkpt lat="43.22819" lon="5.50424">
        <ele>262.8</ele>
        <time>2025-10-18T15:05:48Z</time>
      </trkpt>
      <trkpt lat="43.2282" lon="5.50423">
        <ele>262.6</ele>
        <time>2025-10-18T15:05:49Z</time>
      </trkpt>
      <trkpt lat="43.2282" lon="5.50423">
        <ele>262.6</ele>
        <time>2025-10-18T15:05:50Z</time>
      </trkpt>
      <trkpt lat="43.22821" lon="5.50422">
        <ele>262.5</ele>
        <time>2025-10-18T15:05:51Z</time>
      </trkpt>
      <trkpt lat="43.22822" lon="5.50421">
        <ele>262.4</ele>
        <time>2025-10-18T15:05:52Z</time>
      </trkpt>
      <trkpt lat="43.22823" lon="5.5042">
        <ele>262.3</ele>
        <time>2025-10-18T15:05:53Z</time>
      </trkpt>
      <trkpt lat="43.22823" lon="5.50419">
        <ele>262.3</ele>
        <time>2025-10-18T15:05:54Z</time>
      </trkpt>
      <trkpt lat="43.22824" lon="5.50419">
        <ele>262.2</ele>
        <time>2025-10-18T15:05:55Z</time>
      </trkpt>
      <trkpt lat="43.22825" lon="5.50418">
        <ele>262.1</ele>
        <time>2025-10-18T15:05:56Z</time>
      </trkpt>
      <trkpt lat="43.22826" lon="5.50418">
        <ele>262</ele>
        <time>2025-10-18T15:05:57Z</time>
      </trkpt>
      <trkpt lat="43.22826" lon="5.50417">
        <ele>261.9</ele>
        <time>2025-10-18T15:05:58Z</time>
      </trkpt>
      <trkpt lat="43.22827" lon="5.50416">
        <ele>261.7</ele>
        <time>2025-10-18T15:05:59Z</time>
      </trkpt>
      <trkpt lat="43.22828" lon="5.50416">
        <ele>261.6</ele>
        <time>2025-10-18T15:06:00Z</time>
      </trkpt>
      <trkpt lat="43.22829" lon="5.50415">
        <ele>261.6</ele>
        <time>2025-10-18T15:06:01Z</time>
      </trkpt>
      <trkpt lat="43.22829" lon="5.50414">
        <ele>261.4</ele>
        <time>2025-10-18T15:06:02Z</time>
      </trkpt>
      <trkpt lat="43.2283" lon="5.50413">
        <ele>261.3</ele>
        <time>2025-10-18T15:06:03Z</time>
      </trkpt>
      <trkpt lat="43.22831" lon="5.50412">
        <ele>261.3</ele>
        <time>2025-10-18T15:06:04Z</time>
      </trkpt>
      <trkpt lat="43.22832" lon="5.50411">
        <ele>261.2</ele>
        <time>2025-10-18T15:06:05Z</time>
      </trkpt>
      <trkpt lat="43.22833" lon="5.5041">
        <ele>261.2</ele>
        <time>2025-10-18T15:06:06Z</time>
      </trkpt>
      <trkpt lat="43.22833" lon="5.5041">
        <ele>261.1</ele>
        <time>2025-10-18T15:06:07Z</time>
      </trkpt>
      <trkpt lat="43.22834" lon="5.50409">
        <ele>260.9</ele>
        <time>2025-10-18T15:06:08Z</time>
      </trkpt>
      <trkpt lat="43.22835" lon="5.50408">
        <ele>260.8</ele>
        <time>2025-10-18T15:06:09Z</time>
      </trkpt>
      <trkpt lat="43.22836" lon="5.50407">
        <ele>260.7</ele>
        <time>2025-10-18T15:06:10Z</time>
      </trkpt>
      <trkpt lat="43.22837" lon="5.50406">
        <ele>260.7</ele>
        <time>2025-10-18T15:06:11Z</time>
      </trkpt>
      <trkpt lat="43.22837" lon="5.50405">
        <ele>260.7</ele>
        <time>2025-10-18T15:06:12Z</time>
      </trkpt>
      <trkpt lat="43.22838" lon="5.50404">
        <ele>260.7</ele>
        <time>2025-10-18T15:06:13Z</time>
      </trkpt>
      <trkpt lat="43.22839" lon="5.50404">
        <ele>260.6</ele>
        <time>2025-10-18T15:06:14Z</time>
      </trkpt>
      <trkpt lat="43.22839" lon="5.50404">
        <ele>260.5</ele>
        <time>2025-10-18T15:06:15Z</time>
      </trkpt>
      <trkpt lat="43.2284" lon="5.50403">
        <ele>260.3</ele>
        <time>2025-10-18T15:06:16Z</time>
      </trkpt>
      <trkpt lat="43.22841" lon="5.50402">
        <ele>260.2</ele>
        <time>2025-10-18T15:06:17Z</time>
      </trkpt>
      <trkpt lat="43.22841" lon="5.50402">
        <ele>260.2</ele>
        <time>2025-10-18T15:06:18Z</time>
      </trkpt>
      <trkpt lat="43.22842" lon="5.50401">
        <ele>260.1</ele>
        <time>2025-10-18T15:06:19Z</time>
      </trkpt>
      <trkpt lat="43.22843" lon="5.504">
        <ele>260.1</ele>
        <time>2025-10-18T15:06:20Z</time>
      </trkpt>
      <trkpt lat="43.22843" lon="5.50399">
        <ele>260</ele>
        <time>2025-10-18T15:06:21Z</time>
      </trkpt>
      <trkpt lat="43.22844" lon="5.50398">
        <ele>259.9</ele>
        <time>2025-10-18T15:06:22Z</time>
      </trkpt>
      <trkpt lat="43.22845" lon="5.50397">
        <ele>259.9</ele>
        <time>2025-10-18T15:06:23Z</time>
      </trkpt>
      <trkpt lat="43.22846" lon="5.50397">
        <ele>259.8</ele>
        <time>2025-10-18T15:06:24Z</time>
      </trkpt>
      <trkpt lat="43.22847" lon="5.50396">
        <ele>259.7</ele>
        <time>2025-10-18T15:06:25Z</time>
      </trkpt>
      <trkpt lat="43.22847" lon="5.50396">
        <ele>259.5</ele>
        <time>2025-10-18T15:06:26Z</time>
      </trkpt>
      <trkpt lat="43.22847" lon="5.50395">
        <ele>259.6</ele>
        <time>2025-10-18T15:06:27Z</time>
      </trkpt>
      <trkpt lat="43.22848" lon="5.50395">
        <ele>259.4</ele>
        <time>2025-10-18T15:06:28Z</time>
      </trkpt>
      <trkpt lat="43.22848" lon="5.50394">
        <ele>259.3</ele>
        <time>2025-10-18T15:06:29Z</time>
      </trkpt>
      <trkpt lat="43.22849" lon="5.50394">
        <ele>259.1</ele>
        <time>2025-10-18T15:06:30Z</time>
      </trkpt>
      <trkpt lat="43.2285" lon="5.50393">
        <ele>258.9</ele>
        <time>2025-10-18T15:06:31Z</time>
      </trkpt>
      <trkpt lat="43.22851" lon="5.50392">
        <ele>258.7</ele>
        <time>2025-10-18T15:06:32Z</time>
      </trkpt>
      <trkpt lat="43.22852" lon="5.50391">
        <ele>258.5</ele>
        <time>2025-10-18T15:06:33Z</time>
      </trkpt>
      <trkpt lat="43.22852" lon="5.5039">
        <ele>258.4</ele>
        <time>2025-10-18T15:06:34Z</time>
      </trkpt>
      <trkpt lat="43.22853" lon="5.5039">
        <ele>258.3</ele>
        <time>2025-10-18T15:06:35Z</time>
      </trkpt>
      <trkpt lat="43.22853" lon="5.50389">
        <ele>258.2</ele>
        <time>2025-10-18T15:06:36Z</time>
      </trkpt>
      <trkpt lat="43.22854" lon="5.50389">
        <ele>258.1</ele>
        <time>2025-10-18T15:06:37Z</time>
      </trkpt>
      <trkpt lat="43.22855" lon="5.50388">
        <ele>258</ele>
        <time>2025-10-18T15:06:38Z</time>
      </trkpt>
      <trkpt lat="43.22855" lon="5.50387">
        <ele>257.9</ele>
        <time>2025-10-18T15:06:39Z</time>
      </trkpt>
      <trkpt lat="43.22856" lon="5.50387">
        <ele>257.8</ele>
        <time>2025-10-18T15:06:40Z</time>
      </trkpt>
      <trkpt lat="43.22856" lon="5.50387">
        <ele>257.7</ele>
        <time>2025-10-18T15:06:41Z</time>
      </trkpt>
      <trkpt lat="43.22857" lon="5.50386">
        <ele>257.7</ele>
        <time>2025-10-18T15:06:42Z</time>
      </trkpt>
      <trkpt lat="43.22858" lon="5.50385">
        <ele>257.5</ele>
        <time>2025-10-18T15:06:43Z</time>
      </trkpt>
      <trkpt lat="43.22859" lon="5.50384">
        <ele>257.4</ele>
        <time>2025-10-18T15:06:44Z</time>
      </trkpt>
      <trkpt lat="43.2286" lon="5.50384">
        <ele>257.3</ele>
        <time>2025-10-18T15:06:45Z</time>
      </trkpt>
      <trkpt lat="43.22861" lon="5.50383">
        <ele>257</ele>
        <time>2025-10-18T15:06:46Z</time>
      </trkpt>
      <trkpt lat="43.22861" lon="5.50382">
        <ele>256.9</ele>
        <time>2025-10-18T15:06:47Z</time>
      </trkpt>
      <trkpt lat="43.22862" lon="5.50382">
        <ele>256.9</ele>
        <time>2025-10-18T15:06:48Z</time>
      </trkpt>
      <trkpt lat="43.22863" lon="5.50381">
        <ele>256.8</ele>
        <time>2025-10-18T15:06:49Z</time>
      </trkpt>
      <trkpt lat="43.22864" lon="5.5038">
        <ele>256.7</ele>
        <time>2025-10-18T15:06:50Z</time>
      </trkpt>
      <trkpt lat="43.22864" lon="5.50379">
        <ele>256.6</ele>
        <time>2025-10-18T15:06:51Z</time>
      </trkpt>
      <trkpt lat="43.22865" lon="5.50378">
        <ele>256.5</ele>
        <time>2025-10-18T15:06:52Z</time>
      </trkpt>
      <trkpt lat="43.22866" lon="5.50377">
        <ele>256.4</ele>
        <time>2025-10-18T15:06:53Z</time>
      </trkpt>
      <trkpt lat="43.22866" lon="5.50377">
        <ele>256.3</ele>
        <time>2025-10-18T15:06:54Z</time>
      </trkpt>
      <trkpt lat="43.22867" lon="5.50376">
        <ele>256.3</ele>
        <time>2025-10-18T15:06:55Z</time>
      </trkpt>
      <trkpt lat="43.22868" lon="5.50375">
        <ele>256.2</ele>
        <time>2025-10-18T15:06:56Z</time>
      </trkpt>
      <trkpt lat="43.22869" lon="5.50374">
        <ele>256.1</ele>
        <time>2025-10-18T15:06:57Z</time>
      </trkpt>
      <trkpt lat="43.2287" lon="5.50374">
        <ele>256</ele>
        <time>2025-10-18T15:06:58Z</time>
      </trkpt>
      <trkpt lat="43.22871" lon="5.50374">
        <ele>256</ele>
        <time>2025-10-18T15:06:59Z</time>
      </trkpt>
      <trkpt lat="43.22872" lon="5.50373">
        <ele>255.9</ele>
        <time>2025-10-18T15:07:00Z</time>
      </trkpt>
      <trkpt lat="43.22873" lon="5.50372">
        <ele>255.9</ele>
        <time>2025-10-18T15:07:01Z</time>
      </trkpt>
      <trkpt lat="43.22873" lon="5.50371">
        <ele>255.8</ele>
        <time>2025-10-18T15:07:02Z</time>
      </trkpt>
      <trkpt lat="43.22873" lon="5.5037">
        <ele>255.8</ele>
        <time>2025-10-18T15:07:03Z</time>
      </trkpt>
      <trkpt lat="43.22874" lon="5.5037">
        <ele>255.8</ele>
        <time>2025-10-18T15:07:04Z</time>
      </trkpt>
      <trkpt lat="43.22874" lon="5.5037">
        <ele>255.8</ele>
        <time>2025-10-18T15:07:05Z</time>
      </trkpt>
      <trkpt lat="43.22874" lon="5.5037">
        <ele>255.8</ele>
        <time>2025-10-18T15:07:06Z</time>
      </trkpt>
      <trkpt lat="43.22874" lon="5.5037">
        <ele>255.7</ele>
        <time>2025-10-18T15:07:07Z</time>
      </trkpt>
      <trkpt lat="43.22874" lon="5.5037">
        <ele>255.6</ele>
        <time>2025-10-18T15:07:08Z</time>
      </trkpt>
      <trkpt lat="43.22874" lon="5.50369">
        <ele>255.6</ele>
        <time>2025-10-18T15:07:09Z</time>
      </trkpt>
      <trkpt lat="43.22874" lon="5.50369">
        <ele>255.6</ele>
        <time>2025-10-18T15:07:10Z</time>
      </trkpt>
      <trkpt lat="43.22874" lon="5.50369">
        <ele>255.6</ele>
        <time>2025-10-18T15:07:11Z</time>
      </trkpt>
      <trkpt lat="43.22873" lon="5.50369">
        <ele>255.6</ele>
        <time>2025-10-18T15:07:12Z</time>
      </trkpt>
      <trkpt lat="43.22873" lon="5.50369">
        <ele>255.5</ele>
        <time>2025-10-18T15:07:13Z</time>
      </trkpt>
      <trkpt lat="43.22873" lon="5.50369">
        <ele>255.5</ele>
        <time>2025-10-18T15:07:14Z</time>
      </trkpt>
      <trkpt lat="43.22873" lon="5.50368">
        <ele>255.5</ele>
        <time>2025-10-18T15:07:15Z</time>
      </trkpt>
      <trkpt lat="43.22874" lon="5.50368">
        <ele>255.5</ele>
        <time>2025-10-18T15:07:16Z</time>
      </trkpt>
      <trkpt lat="43.22874" lon="5.50368">
        <ele>255.4</ele>
        <time>2025-10-18T15:07:17Z</time>
      </trkpt>
      <trkpt lat="43.22874" lon="5.50368">
        <ele>255.4</ele>
        <time>2025-10-18T15:07:18Z</time>
      </trkpt>
      <trkpt lat="43.22874" lon="5.50368">
        <ele>255.3</ele>
        <time>2025-10-18T15:07:19Z</time>
      </trkpt>
      <trkpt lat="43.22874" lon="5.50368">
        <ele>255.2</ele>
        <time>2025-10-18T15:07:20Z</time>
      </trkpt>
      <trkpt lat="43.22874" lon="5.50368">
        <ele>255.2</ele>
        <time>2025-10-18T15:07:21Z</time>
      </trkpt>
      <trkpt lat="43.22875" lon="5.50367">
        <ele>255.2</ele>
        <time>2025-10-18T15:07:22Z</time>
      </trkpt>
      <trkpt lat="43.22875" lon="5.50366">
        <ele>255.2</ele>
        <time>2025-10-18T15:07:23Z</time>
      </trkpt>
      <trkpt lat="43.22876" lon="5.50365">
        <ele>255.2</ele>
        <time>2025-10-18T15:07:24Z</time>
      </trkpt>
      <trkpt lat="43.22876" lon="5.50364">
        <ele>255.2</ele>
        <time>2025-10-18T15:07:25Z</time>
      </trkpt>
      <trkpt lat="43.22877" lon="5.50363">
        <ele>255.2</ele>
        <time>2025-10-18T15:07:26Z</time>
      </trkpt>
      <trkpt lat="43.22877" lon="5.50362">
        <ele>255.2</ele>
        <time>2025-10-18T15:07:27Z</time>
      </trkpt>
      <trkpt lat="43.22877" lon="5.50361">
        <ele>255.3</ele>
        <time>2025-10-18T15:07:28Z</time>
      </trkpt>
      <trkpt lat="43.22878" lon="5.5036">
        <ele>255.3</ele>
        <time>2025-10-18T15:07:29Z</time>
      </trkpt>
      <trkpt lat="43.22878" lon="5.50359">
        <ele>255.2</ele>
        <time>2025-10-18T15:07:30Z</time>
      </trkpt>
      <trkpt lat="43.22879" lon="5.50358">
        <ele>255.2</ele>
        <time>2025-10-18T15:07:31Z</time>
      </trkpt>
      <trkpt lat="43.22879" lon="5.50357">
        <ele>255.2</ele>
        <time>2025-10-18T15:07:32Z</time>
      </trkpt>
      <trkpt lat="43.2288" lon="5.50356">
        <ele>255.2</ele>
        <time>2025-10-18T15:07:33Z</time>
      </trkpt>
      <trkpt lat="43.2288" lon="5.50355">
        <ele>254.9</ele>
        <time>2025-10-18T15:07:34Z</time>
      </trkpt>
      <trkpt lat="43.22881" lon="5.50355">
        <ele>254.8</ele>
        <time>2025-10-18T15:07:35Z</time>
      </trkpt>
      <trkpt lat="43.22881" lon="5.50354">
        <ele>254.8</ele>
        <time>2025-10-18T15:07:36Z</time>
      </trkpt>
      <trkpt lat="43.22882" lon="5.50354">
        <ele>254.8</ele>
        <time>2025-10-18T15:07:37Z</time>
      </trkpt>
      <trkpt lat="43.22883" lon="5.50353">
        <ele>254.7</ele>
        <time>2025-10-18T15:07:38Z</time>
      </trkpt>
      <trkpt lat="43.22883" lon="5.50352">
        <ele>254.6</ele>
        <time>2025-10-18T15:07:39Z</time>
      </trkpt>
      <trkpt lat="43.22883" lon="5.50352">
        <ele>254.5</ele>
        <time>2025-10-18T15:07:40Z</time>
      </trkpt>
      <trkpt lat="43.22884" lon="5.50352">
        <ele>254.5</ele>
        <time>2025-10-18T15:07:41Z</time>
      </trkpt>
      <trkpt lat="43.22884" lon="5.50351">
        <ele>254.5</ele>
        <time>2025-10-18T15:07:42Z</time>
      </trkpt>
      <trkpt lat="43.22884" lon="5.50351">
        <ele>254.4</ele>
        <time>2025-10-18T15:07:43Z</time>
      </trkpt>
      <trkpt lat="43.22884" lon="5.50351">
        <ele>254.4</ele>
        <time>2025-10-18T15:07:44Z</time>
      </trkpt>
      <trkpt lat="43.22884" lon="5.50351">
        <ele>254.4</ele>
        <time>2025-10-18T15:07:45Z</time>
      </trkpt>
      <trkpt lat="43.22884" lon="5.50351">
        <ele>254.2</ele>
        <time>2025-10-18T15:07:46Z</time>
      </trkpt>
      <trkpt lat="43.22885" lon="5.5035">
        <ele>254.1</ele>
        <time>2025-10-18T15:07:47Z</time>
      </trkpt>
      <trkpt lat="43.22885" lon="5.5035">
        <ele>253.9</ele>
        <time>2025-10-18T15:07:48Z</time>
      </trkpt>
      <trkpt lat="43.22886" lon="5.50349">
        <ele>253.8</ele>
        <time>2025-10-18T15:07:49Z</time>
      </trkpt>
      <trkpt lat="43.22887" lon="5.50348">
        <ele>253.8</ele>
        <time>2025-10-18T15:07:50Z</time>
      </trkpt>
      <trkpt lat="43.22887" lon="5.50347">
        <ele>253.7</ele>
        <time>2025-10-18T15:07:51Z</time>
      </trkpt>
      <trkpt lat="43.22888" lon="5.50346">
        <ele>253.7</ele>
        <time>2025-10-18T15:07:52Z</time>
      </trkpt>
      <trkpt lat="43.22889" lon="5.50345">
        <ele>253.6</ele>
        <time>2025-10-18T15:07:53Z</time>
      </trkpt>
      <trkpt lat="43.2289" lon="5.50344">
        <ele>253.5</ele>
        <time>2025-10-18T15:07:54Z</time>
      </trkpt>
      <trkpt lat="43.2289" lon="5.50343">
        <ele>253.2</ele>
        <time>2025-10-18T15:07:55Z</time>
      </trkpt>
      <trkpt lat="43.22891" lon="5.50343">
        <ele>253.1</ele>
        <time>2025-10-18T15:07:56Z</time>
      </trkpt>
      <trkpt lat="43.22892" lon="5.50342">
        <ele>253.1</ele>
        <time>2025-10-18T15:07:57Z</time>
      </trkpt>
      <trkpt lat="43.22893" lon="5.5034">
        <ele>253.1</ele>
        <time>2025-10-18T15:07:58Z</time>
      </trkpt>
      <trkpt lat="43.22893" lon="5.5034">
        <ele>253</ele>
        <time>2025-10-18T15:07:59Z</time>
      </trkpt>
      <trkpt lat="43.22894" lon="5.50339">
        <ele>253</ele>
        <time>2025-10-18T15:08:00Z</time>
      </trkpt>
      <trkpt lat="43.22895" lon="5.50338">
        <ele>253</ele>
        <time>2025-10-18T15:08:01Z</time>
      </trkpt>
      <trkpt lat="43.22895" lon="5.50338">
        <ele>252.9</ele>
        <time>2025-10-18T15:08:02Z</time>
      </trkpt>
      <trkpt lat="43.22896" lon="5.50337">
        <ele>252.9</ele>
        <time>2025-10-18T15:08:03Z</time>
      </trkpt>
      <trkpt lat="43.22897" lon="5.50336">
        <ele>252.9</ele>
        <time>2025-10-18T15:08:04Z</time>
      </trkpt>
      <trkpt lat="43.22898" lon="5.50335">
        <ele>252.8</ele>
        <time>2025-10-18T15:08:05Z</time>
      </trkpt>
      <trkpt lat="43.22898" lon="5.50334">
        <ele>252.7</ele>
        <time>2025-10-18T15:08:06Z</time>
      </trkpt>
      <trkpt lat="43.22899" lon="5.50333">
        <ele>252.6</ele>
        <time>2025-10-18T15:08:07Z</time>
      </trkpt>
      <trkpt lat="43.22899" lon="5.50331">
        <ele>252.5</ele>
        <time>2025-10-18T15:08:08Z</time>
      </trkpt>
      <trkpt lat="43.229" lon="5.5033">
        <ele>252.4</ele>
        <time>2025-10-18T15:08:09Z</time>
      </trkpt>
      <trkpt lat="43.229" lon="5.50328">
        <ele>252.4</ele>
        <time>2025-10-18T15:08:10Z</time>
      </trkpt>
      <trkpt lat="43.229" lon="5.50327">
        <ele>252.2</ele>
        <time>2025-10-18T15:08:11Z</time>
      </trkpt>
      <trkpt lat="43.22901" lon="5.50326">
        <ele>252</ele>
        <time>2025-10-18T15:08:12Z</time>
      </trkpt>
      <trkpt lat="43.22901" lon="5.50325">
        <ele>251.9</ele>
        <time>2025-10-18T15:08:13Z</time>
      </trkpt>
      <trkpt lat="43.22902" lon="5.50325">
        <ele>251.8</ele>
        <time>2025-10-18T15:08:14Z</time>
      </trkpt>
      <trkpt lat="43.22903" lon="5.50324">
        <ele>251.7</ele>
        <time>2025-10-18T15:08:15Z</time>
      </trkpt>
      <trkpt lat="43.22903" lon="5.50323">
        <ele>251.6</ele>
        <time>2025-10-18T15:08:16Z</time>
      </trkpt>
      <trkpt lat="43.22904" lon="5.50322">
        <ele>251.5</ele>
        <time>2025-10-18T15:08:17Z</time>
      </trkpt>
      <trkpt lat="43.22905" lon="5.50321">
        <ele>251.4</ele>
        <time>2025-10-18T15:08:18Z</time>
      </trkpt>
      <trkpt lat="43.22906" lon="5.5032">
        <ele>251.2</ele>
        <time>2025-10-18T15:08:19Z</time>
      </trkpt>
      <trkpt lat="43.22907" lon="5.50319">
        <ele>251.1</ele>
        <time>2025-10-18T15:08:20Z</time>
      </trkpt>
      <trkpt lat="43.22907" lon="5.50318">
        <ele>251</ele>
        <time>2025-10-18T15:08:21Z</time>
      </trkpt>
      <trkpt lat="43.22908" lon="5.50317">
        <ele>250.9</ele>
        <time>2025-10-18T15:08:22Z</time>
      </trkpt>
      <trkpt lat="43.22909" lon="5.50316">
        <ele>250.8</ele>
        <time>2025-10-18T15:08:23Z</time>
      </trkpt>
      <trkpt lat="43.2291" lon="5.50315">
        <ele>250.7</ele>
        <time>2025-10-18T15:08:24Z</time>
      </trkpt>
      <trkpt lat="43.2291" lon="5.50314">
        <ele>250.6</ele>
        <time>2025-10-18T15:08:25Z</time>
      </trkpt>
      <trkpt lat="43.22911" lon="5.50314">
        <ele>250.3</ele>
        <time>2025-10-18T15:08:26Z</time>
      </trkpt>
      <trkpt lat="43.22912" lon="5.50313">
        <ele>250.2</ele>
        <time>2025-10-18T15:08:27Z</time>
      </trkpt>
      <trkpt lat="43.22913" lon="5.50313">
        <ele>250.1</ele>
        <time>2025-10-18T15:08:28Z</time>
      </trkpt>
      <trkpt lat="43.22913" lon="5.50312">
        <ele>250</ele>
        <time>2025-10-18T15:08:29Z</time>
      </trkpt>
      <trkpt lat="43.22914" lon="5.50311">
        <ele>249.9</ele>
        <time>2025-10-18T15:08:30Z</time>
      </trkpt>
      <trkpt lat="43.22915" lon="5.5031">
        <ele>249.8</ele>
        <time>2025-10-18T15:08:31Z</time>
      </trkpt>
      <trkpt lat="43.22916" lon="5.50309">
        <ele>249.7</ele>
        <time>2025-10-18T15:08:32Z</time>
      </trkpt>
      <trkpt lat="43.22917" lon="5.50308">
        <ele>249.6</ele>
        <time>2025-10-18T15:08:33Z</time>
      </trkpt>
      <trkpt lat="43.22917" lon="5.50307">
        <ele>249.5</ele>
        <time>2025-10-18T15:08:34Z</time>
      </trkpt>
      <trkpt lat="43.22918" lon="5.50307">
        <ele>249.4</ele>
        <time>2025-10-18T15:08:35Z</time>
      </trkpt>
      <trkpt lat="43.22918" lon="5.50305">
        <ele>249.2</ele>
        <time>2025-10-18T15:08:36Z</time>
      </trkpt>
      <trkpt lat="43.22919" lon="5.50305">
        <ele>249.1</ele>
        <time>2025-10-18T15:08:37Z</time>
      </trkpt>
      <trkpt lat="43.22919" lon="5.50304">
        <ele>249.1</ele>
        <time>2025-10-18T15:08:38Z</time>
      </trkpt>
      <trkpt lat="43.2292" lon="5.50303">
        <ele>249</ele>
        <time>2025-10-18T15:08:39Z</time>
      </trkpt>
      <trkpt lat="43.22921" lon="5.50301">
        <ele>249</ele>
        <time>2025-10-18T15:08:40Z</time>
      </trkpt>
      <trkpt lat="43.22922" lon="5.503">
        <ele>249</ele>
        <time>2025-10-18T15:08:41Z</time>
      </trkpt>
      <trkpt lat="43.22923" lon="5.503">
        <ele>249</ele>
        <time>2025-10-18T15:08:42Z</time>
      </trkpt>
      <trkpt lat="43.22923" lon="5.50299">
        <ele>248.8</ele>
        <time>2025-10-18T15:08:43Z</time>
      </trkpt>
      <trkpt lat="43.22924" lon="5.50299">
        <ele>248.6</ele>
        <time>2025-10-18T15:08:44Z</time>
      </trkpt>
      <trkpt lat="43.22925" lon="5.50298">
        <ele>248.4</ele>
        <time>2025-10-18T15:08:45Z</time>
      </trkpt>
      <trkpt lat="43.22925" lon="5.50297">
        <ele>248.3</ele>
        <time>2025-10-18T15:08:46Z</time>
      </trkpt>
      <trkpt lat="43.22926" lon="5.50297">
        <ele>248.2</ele>
        <time>2025-10-18T15:08:47Z</time>
      </trkpt>
      <trkpt lat="43.22926" lon="5.50296">
        <ele>248.1</ele>
        <time>2025-10-18T15:08:48Z</time>
      </trkpt>
      <trkpt lat="43.22927" lon="5.50295">
        <ele>247.9</ele>
        <time>2025-10-18T15:08:49Z</time>
      </trkpt>
      <trkpt lat="43.22928" lon="5.50294">
        <ele>247.8</ele>
        <time>2025-10-18T15:08:50Z</time>
      </trkpt>
      <trkpt lat="43.22929" lon="5.50294">
        <ele>247.6</ele>
        <time>2025-10-18T15:08:51Z</time>
      </trkpt>
      <trkpt lat="43.22929" lon="5.50293">
        <ele>247.4</ele>
        <time>2025-10-18T15:08:52Z</time>
      </trkpt>
      <trkpt lat="43.2293" lon="5.50292">
        <ele>247.2</ele>
        <time>2025-10-18T15:08:53Z</time>
      </trkpt>
      <trkpt lat="43.2293" lon="5.50291">
        <ele>247</ele>
        <time>2025-10-18T15:08:54Z</time>
      </trkpt>
      <trkpt lat="43.22931" lon="5.5029">
        <ele>247</ele>
        <time>2025-10-18T15:08:55Z</time>
      </trkpt>
      <trkpt lat="43.22932" lon="5.50289">
        <ele>246.7</ele>
        <time>2025-10-18T15:08:56Z</time>
      </trkpt>
      <trkpt lat="43.22932" lon="5.50288">
        <ele>246.6</ele>
        <time>2025-10-18T15:08:57Z</time>
      </trkpt>
      <trkpt lat="43.22933" lon="5.50288">
        <ele>246.6</ele>
        <time>2025-10-18T15:08:58Z</time>
      </trkpt>
      <trkpt lat="43.22934" lon="5.50287">
        <ele>246.4</ele>
        <time>2025-10-18T15:08:59Z</time>
      </trkpt>
      <trkpt lat="43.22935" lon="5.50286">
        <ele>246.4</ele>
        <time>2025-10-18T15:09:00Z</time>
      </trkpt>
      <trkpt lat="43.22935" lon="5.50285">
        <ele>246.3</ele>
        <time>2025-10-18T15:09:01Z</time>
      </trkpt>
      <trkpt lat="43.22936" lon="5.50284">
        <ele>246.2</ele>
        <time>2025-10-18T15:09:02Z</time>
      </trkpt>
      <trkpt lat="43.22936" lon="5.50283">
        <ele>246</ele>
        <time>2025-10-18T15:09:03Z</time>
      </trkpt>
      <trkpt lat="43.22937" lon="5.50282">
        <ele>245.9</ele>
        <time>2025-10-18T15:09:04Z</time>
      </trkpt>
      <trkpt lat="43.22937" lon="5.50281">
        <ele>245.8</ele>
        <time>2025-10-18T15:09:05Z</time>
      </trkpt>
      <trkpt lat="43.22938" lon="5.5028">
        <ele>245.7</ele>
        <time>2025-10-18T15:09:06Z</time>
      </trkpt>
      <trkpt lat="43.22938" lon="5.5028">
        <ele>245.6</ele>
        <time>2025-10-18T15:09:07Z</time>
      </trkpt>
      <trkpt lat="43.22938" lon="5.50279">
        <ele>245.5</ele>
        <time>2025-10-18T15:09:08Z</time>
      </trkpt>
      <trkpt lat="43.22939" lon="5.50278">
        <ele>245.5</ele>
        <time>2025-10-18T15:09:09Z</time>
      </trkpt>
      <trkpt lat="43.2294" lon="5.50277">
        <ele>245.4</ele>
        <time>2025-10-18T15:09:10Z</time>
      </trkpt>
      <trkpt lat="43.2294" lon="5.50276">
        <ele>245.3</ele>
        <time>2025-10-18T15:09:11Z</time>
      </trkpt>
      <trkpt lat="43.2294" lon="5.50275">
        <ele>245.3</ele>
        <time>2025-10-18T15:09:12Z</time>
      </trkpt>
      <trkpt lat="43.22941" lon="5.50275">
        <ele>245.2</ele>
        <time>2025-10-18T15:09:13Z</time>
      </trkpt>
      <trkpt lat="43.22942" lon="5.50274">
        <ele>245.1</ele>
        <time>2025-10-18T15:09:14Z</time>
      </trkpt>
      <trkpt lat="43.22943" lon="5.50273">
        <ele>245</ele>
        <time>2025-10-18T15:09:15Z</time>
      </trkpt>
      <trkpt lat="43.22943" lon="5.50272">
        <ele>244.9</ele>
        <time>2025-10-18T15:09:16Z</time>
      </trkpt>
      <trkpt lat="43.22944" lon="5.50272">
        <ele>244.7</ele>
        <time>2025-10-18T15:09:17Z</time>
      </trkpt>
      <trkpt lat="43.22944" lon="5.50271">
        <ele>244.5</ele>
        <time>2025-10-18T15:09:18Z</time>
      </trkpt>
      <trkpt lat="43.22945" lon="5.5027">
        <ele>244.5</ele>
        <time>2025-10-18T15:09:19Z</time>
      </trkpt>
      <trkpt lat="43.22946" lon="5.5027">
        <ele>244.3</ele>
        <time>2025-10-18T15:09:20Z</time>
      </trkpt>
      <trkpt lat="43.22947" lon="5.50269">
        <ele>244.2</ele>
        <time>2025-10-18T15:09:21Z</time>
      </trkpt>
      <trkpt lat="43.22947" lon="5.50268">
        <ele>244</ele>
        <time>2025-10-18T15:09:22Z</time>
      </trkpt>
      <trkpt lat="43.22948" lon="5.50268">
        <ele>243.8</ele>
        <time>2025-10-18T15:09:23Z</time>
      </trkpt>
      <trkpt lat="43.22948" lon="5.50267">
        <ele>243.7</ele>
        <time>2025-10-18T15:09:24Z</time>
      </trkpt>
      <trkpt lat="43.22949" lon="5.50267">
        <ele>243.5</ele>
        <time>2025-10-18T15:09:25Z</time>
      </trkpt>
      <trkpt lat="43.2295" lon="5.50266">
        <ele>243.4</ele>
        <time>2025-10-18T15:09:26Z</time>
      </trkpt>
      <trkpt lat="43.2295" lon="5.50265">
        <ele>243.3</ele>
        <time>2025-10-18T15:09:27Z</time>
      </trkpt>
      <trkpt lat="43.22951" lon="5.50264">
        <ele>243.1</ele>
        <time>2025-10-18T15:09:28Z</time>
      </trkpt>
      <trkpt lat="43.22951" lon="5.50263">
        <ele>243</ele>
        <time>2025-10-18T15:09:29Z</time>
      </trkpt>
      <trkpt lat="43.22952" lon="5.50262">
        <ele>242.8</ele>
        <time>2025-10-18T15:09:30Z</time>
      </trkpt>
      <trkpt lat="43.22952" lon="5.50262">
        <ele>242.8</ele>
        <time>2025-10-18T15:09:31Z</time>
      </trkpt>
      <trkpt lat="43.22953" lon="5.50261">
        <ele>242.7</ele>
        <time>2025-10-18T15:09:32Z</time>
      </trkpt>
      <trkpt lat="43.22953" lon="5.5026">
        <ele>242.8</ele>
        <time>2025-10-18T15:09:33Z</time>
      </trkpt>
      <trkpt lat="43.22954" lon="5.50259">
        <ele>242.8</ele>
        <time>2025-10-18T15:09:34Z</time>
      </trkpt>
      <trkpt lat="43.22954" lon="5.50259">
        <ele>242.7</ele>
        <time>2025-10-18T15:09:35Z</time>
      </trkpt>
      <trkpt lat="43.22954" lon="5.50258">
        <ele>242.7</ele>
        <time>2025-10-18T15:09:36Z</time>
      </trkpt>
      <trkpt lat="43.22955" lon="5.50257">
        <ele>242.5</ele>
        <time>2025-10-18T15:09:37Z</time>
      </trkpt>
      <trkpt lat="43.22955" lon="5.50256">
        <ele>242.5</ele>
        <time>2025-10-18T15:09:38Z</time>
      </trkpt>
      <trkpt lat="43.22956" lon="5.50255">
        <ele>242.3</ele>
        <time>2025-10-18T15:09:39Z</time>
      </trkpt>
      <trkpt lat="43.22956" lon="5.50254">
        <ele>242.1</ele>
        <time>2025-10-18T15:09:40Z</time>
      </trkpt>
      <trkpt lat="43.22956" lon="5.50253">
        <ele>241.9</ele>
        <time>2025-10-18T15:09:41Z</time>
      </trkpt>
      <trkpt lat="43.22957" lon="5.50253">
        <ele>241.8</ele>
        <time>2025-10-18T15:09:42Z</time>
      </trkpt>
      <trkpt lat="43.22957" lon="5.50252">
        <ele>241.8</ele>
        <time>2025-10-18T15:09:43Z</time>
      </trkpt>
      <trkpt lat="43.22957" lon="5.50251">
        <ele>241.7</ele>
        <time>2025-10-18T15:09:44Z</time>
      </trkpt>
      <trkpt lat="43.22957" lon="5.50251">
        <ele>241.6</ele>
        <time>2025-10-18T15:09:45Z</time>
      </trkpt>
      <trkpt lat="43.22957" lon="5.5025">
        <ele>241.4</ele>
        <time>2025-10-18T15:09:46Z</time>
      </trkpt>
      <trkpt lat="43.22957" lon="5.50249">
        <ele>241.3</ele>
        <time>2025-10-18T15:09:47Z</time>
      </trkpt>
      <trkpt lat="43.22958" lon="5.50248">
        <ele>241.2</ele>
        <time>2025-10-18T15:09:48Z</time>
      </trkpt>
      <trkpt lat="43.22958" lon="5.50247">
        <ele>241.1</ele>
        <time>2025-10-18T15:09:49Z</time>
      </trkpt>
      <trkpt lat="43.22959" lon="5.50247">
        <ele>241</ele>
        <time>2025-10-18T15:09:50Z</time>
      </trkpt>
      <trkpt lat="43.22959" lon="5.50246">
        <ele>241</ele>
        <time>2025-10-18T15:09:51Z</time>
      </trkpt>
      <trkpt lat="43.22959" lon="5.50245">
        <ele>240.9</ele>
        <time>2025-10-18T15:09:52Z</time>
      </trkpt>
      <trkpt lat="43.2296" lon="5.50244">
        <ele>240.8</ele>
        <time>2025-10-18T15:09:53Z</time>
      </trkpt>
      <trkpt lat="43.2296" lon="5.50243">
        <ele>240.6</ele>
        <time>2025-10-18T15:09:54Z</time>
      </trkpt>
      <trkpt lat="43.22961" lon="5.50242">
        <ele>240.5</ele>
        <time>2025-10-18T15:09:55Z</time>
      </trkpt>
      <trkpt lat="43.22961" lon="5.50241">
        <ele>240.4</ele>
        <time>2025-10-18T15:09:56Z</time>
      </trkpt>
      <trkpt lat="43.22962" lon="5.5024">
        <ele>240.4</ele>
        <time>2025-10-18T15:09:57Z</time>
      </trkpt>
      <trkpt lat="43.22963" lon="5.5024">
        <ele>240.3</ele>
        <time>2025-10-18T15:09:58Z</time>
      </trkpt>
      <trkpt lat="43.22963" lon="5.50239">
        <ele>240.3</ele>
        <time>2025-10-18T15:09:59Z</time>
      </trkpt>
      <trkpt lat="43.22964" lon="5.50238">
        <ele>240.1</ele>
        <time>2025-10-18T15:10:00Z</time>
      </trkpt>
      <trkpt lat="43.22964" lon="5.50237">
        <ele>240</ele>
        <time>2025-10-18T15:10:01Z</time>
      </trkpt>
      <trkpt lat="43.22964" lon="5.50236">
        <ele>239.8</ele>
        <time>2025-10-18T15:10:02Z</time>
      </trkpt>
      <trkpt lat="43.22965" lon="5.50235">
        <ele>239.7</ele>
        <time>2025-10-18T15:10:03Z</time>
      </trkpt>
      <trkpt lat="43.22965" lon="5.50234">
        <ele>239.5</ele>
        <time>2025-10-18T15:10:04Z</time>
      </trkpt>
      <trkpt lat="43.22966" lon="5.50233">
        <ele>239.4</ele>
        <time>2025-10-18T15:10:05Z</time>
      </trkpt>
      <trkpt lat="43.22966" lon="5.50232">
        <ele>239.3</ele>
        <time>2025-10-18T15:10:06Z</time>
      </trkpt>
      <trkpt lat="43.22966" lon="5.50231">
        <ele>239.2</ele>
        <time>2025-10-18T15:10:07Z</time>
      </trkpt>
      <trkpt lat="43.22967" lon="5.5023">
        <ele>239</ele>
        <time>2025-10-18T15:10:08Z</time>
      </trkpt>
      <trkpt lat="43.22967" lon="5.50229">
        <ele>238.8</ele>
        <time>2025-10-18T15:10:09Z</time>
      </trkpt>
      <trkpt lat="43.22967" lon="5.50228">
        <ele>238.7</ele>
        <time>2025-10-18T15:10:10Z</time>
      </trkpt>
      <trkpt lat="43.22968" lon="5.50227">
        <ele>238.5</ele>
        <time>2025-10-18T15:10:11Z</time>
      </trkpt>
      <trkpt lat="43.22969" lon="5.50226">
        <ele>238.4</ele>
        <time>2025-10-18T15:10:12Z</time>
      </trkpt>
      <trkpt lat="43.22969" lon="5.50225">
        <ele>238.3</ele>
        <time>2025-10-18T15:10:13Z</time>
      </trkpt>
      <trkpt lat="43.22969" lon="5.50224">
        <ele>238.2</ele>
        <time>2025-10-18T15:10:14Z</time>
      </trkpt>
      <trkpt lat="43.22969" lon="5.50223">
        <ele>238.1</ele>
        <time>2025-10-18T15:10:15Z</time>
      </trkpt>
      <trkpt lat="43.2297" lon="5.50222">
        <ele>237.9</ele>
        <time>2025-10-18T15:10:16Z</time>
      </trkpt>
      <trkpt lat="43.2297" lon="5.50221">
        <ele>237.7</ele>
        <time>2025-10-18T15:10:17Z</time>
      </trkpt>
      <trkpt lat="43.2297" lon="5.5022">
        <ele>237.6</ele>
        <time>2025-10-18T15:10:18Z</time>
      </trkpt>
      <trkpt lat="43.22971" lon="5.5022">
        <ele>237.5</ele>
        <time>2025-10-18T15:10:19Z</time>
      </trkpt>
      <trkpt lat="43.22971" lon="5.50219">
        <ele>237.4</ele>
        <time>2025-10-18T15:10:20Z</time>
      </trkpt>
      <trkpt lat="43.22972" lon="5.50218">
        <ele>237.2</ele>
        <time>2025-10-18T15:10:21Z</time>
      </trkpt>
      <trkpt lat="43.22973" lon="5.50216">
        <ele>237.1</ele>
        <time>2025-10-18T15:10:22Z</time>
      </trkpt>
      <trkpt lat="43.22973" lon="5.50215">
        <ele>237</ele>
        <time>2025-10-18T15:10:23Z</time>
      </trkpt>
      <trkpt lat="43.22974" lon="5.50214">
        <ele>236.8</ele>
        <time>2025-10-18T15:10:24Z</time>
      </trkpt>
      <trkpt lat="43.22974" lon="5.50214">
        <ele>236.7</ele>
        <time>2025-10-18T15:10:25Z</time>
      </trkpt>
      <trkpt lat="43.22974" lon="5.50213">
        <ele>236.6</ele>
        <time>2025-10-18T15:10:26Z</time>
      </trkpt>
      <trkpt lat="43.22974" lon="5.50213">
        <ele>236.5</ele>
        <time>2025-10-18T15:10:27Z</time>
      </trkpt>
      <trkpt lat="43.22975" lon="5.50212">
        <ele>236.4</ele>
        <time>2025-10-18T15:10:28Z</time>
      </trkpt>
      <trkpt lat="43.22975" lon="5.50211">
        <ele>236.2</ele>
        <time>2025-10-18T15:10:29Z</time>
      </trkpt>
      <trkpt lat="43.22976" lon="5.5021">
        <ele>236</ele>
        <time>2025-10-18T15:10:30Z</time>
      </trkpt>
      <trkpt lat="43.22976" lon="5.50209">
        <ele>235.9</ele>
        <time>2025-10-18T15:10:31Z</time>
      </trkpt>
      <trkpt lat="43.22976" lon="5.50208">
        <ele>235.6</ele>
        <time>2025-10-18T15:10:32Z</time>
      </trkpt>
      <trkpt lat="43.22976" lon="5.50207">
        <ele>235.4</ele>
        <time>2025-10-18T15:10:33Z</time>
      </trkpt>
      <trkpt lat="43.22976" lon="5.50206">
        <ele>235.2</ele>
        <time>2025-10-18T15:10:34Z</time>
      </trkpt>
      <trkpt lat="43.22976" lon="5.50206">
        <ele>235</ele>
        <time>2025-10-18T15:10:35Z</time>
      </trkpt>
      <trkpt lat="43.22977" lon="5.50205">
        <ele>234.9</ele>
        <time>2025-10-18T15:10:36Z</time>
      </trkpt>
      <trkpt lat="43.22977" lon="5.50204">
        <ele>234.8</ele>
        <time>2025-10-18T15:10:37Z</time>
      </trkpt>
      <trkpt lat="43.22977" lon="5.50204">
        <ele>234.7</ele>
        <time>2025-10-18T15:10:38Z</time>
      </trkpt>
      <trkpt lat="43.22977" lon="5.50203">
        <ele>234.4</ele>
        <time>2025-10-18T15:10:39Z</time>
      </trkpt>
      <trkpt lat="43.22978" lon="5.50202">
        <ele>234.2</ele>
        <time>2025-10-18T15:10:40Z</time>
      </trkpt>
      <trkpt lat="43.22978" lon="5.50201">
        <ele>234</ele>
        <time>2025-10-18T15:10:41Z</time>
      </trkpt>
      <trkpt lat="43.22978" lon="5.502">
        <ele>233.8</ele>
        <time>2025-10-18T15:10:42Z</time>
      </trkpt>
      <trkpt lat="43.22978" lon="5.502">
        <ele>233.6</ele>
        <time>2025-10-18T15:10:43Z</time>
      </trkpt>
      <trkpt lat="43.22978" lon="5.50199">
        <ele>233.6</ele>
        <time>2025-10-18T15:10:44Z</time>
      </trkpt>
      <trkpt lat="43.22979" lon="5.50199">
        <ele>233.6</ele>
        <time>2025-10-18T15:10:45Z</time>
      </trkpt>
      <trkpt lat="43.22979" lon="5.50199">
        <ele>233.5</ele>
        <time>2025-10-18T15:10:46Z</time>
      </trkpt>
      <trkpt lat="43.22979" lon="5.50198">
        <ele>233.4</ele>
        <time>2025-10-18T15:10:47Z</time>
      </trkpt>
      <trkpt lat="43.22979" lon="5.50197">
        <ele>233.3</ele>
        <time>2025-10-18T15:10:48Z</time>
      </trkpt>
      <trkpt lat="43.22979" lon="5.50196">
        <ele>233.3</ele>
        <time>2025-10-18T15:10:49Z</time>
      </trkpt>
      <trkpt lat="43.22979" lon="5.50195">
        <ele>233.2</ele>
        <time>2025-10-18T15:10:50Z</time>
      </trkpt>
      <trkpt lat="43.2298" lon="5.50194">
        <ele>233.2</ele>
        <time>2025-10-18T15:10:51Z</time>
      </trkpt>
      <trkpt lat="43.2298" lon="5.50193">
        <ele>233.1</ele>
        <time>2025-10-18T15:10:52Z</time>
      </trkpt>
      <trkpt lat="43.2298" lon="5.50193">
        <ele>233</ele>
        <time>2025-10-18T15:10:53Z</time>
      </trkpt>
      <trkpt lat="43.2298" lon="5.50192">
        <ele>232.9</ele>
        <time>2025-10-18T15:10:54Z</time>
      </trkpt>
      <trkpt lat="43.2298" lon="5.50191">
        <ele>232.7</ele>
        <time>2025-10-18T15:10:55Z</time>
      </trkpt>
      <trkpt lat="43.22981" lon="5.5019">
        <ele>232.7</ele>
        <time>2025-10-18T15:10:56Z</time>
      </trkpt>
      <trkpt lat="43.22981" lon="5.5019">
        <ele>232.6</ele>
        <time>2025-10-18T15:10:57Z</time>
      </trkpt>
      <trkpt lat="43.22982" lon="5.50189">
        <ele>232.3</ele>
        <time>2025-10-18T15:10:58Z</time>
      </trkpt>
      <trkpt lat="43.22983" lon="5.50188">
        <ele>232.1</ele>
        <time>2025-10-18T15:10:59Z</time>
      </trkpt>
      <trkpt lat="43.22983" lon="5.50187">
        <ele>231.9</ele>
        <time>2025-10-18T15:11:00Z</time>
      </trkpt>
      <trkpt lat="43.22984" lon="5.50186">
        <ele>231.8</ele>
        <time>2025-10-18T15:11:01Z</time>
      </trkpt>
      <trkpt lat="43.22984" lon="5.50185">
        <ele>231.6</ele>
        <time>2025-10-18T15:11:02Z</time>
      </trkpt>
      <trkpt lat="43.22984" lon="5.50184">
        <ele>231.6</ele>
        <time>2025-10-18T15:11:03Z</time>
      </trkpt>
      <trkpt lat="43.22985" lon="5.50184">
        <ele>231.5</ele>
        <time>2025-10-18T15:11:04Z</time>
      </trkpt>
      <trkpt lat="43.22985" lon="5.50183">
        <ele>231.4</ele>
        <time>2025-10-18T15:11:05Z</time>
      </trkpt>
      <trkpt lat="43.22985" lon="5.50182">
        <ele>231.2</ele>
        <time>2025-10-18T15:11:06Z</time>
      </trkpt>
      <trkpt lat="43.22985" lon="5.50181">
        <ele>231</ele>
        <time>2025-10-18T15:11:07Z</time>
      </trkpt>
      <trkpt lat="43.22985" lon="5.5018">
        <ele>230.9</ele>
        <time>2025-10-18T15:11:08Z</time>
      </trkpt>
      <trkpt lat="43.22986" lon="5.50179">
        <ele>230.8</ele>
        <time>2025-10-18T15:11:09Z</time>
      </trkpt>
      <trkpt lat="43.22986" lon="5.50179">
        <ele>230.7</ele>
        <time>2025-10-18T15:11:10Z</time>
      </trkpt>
      <trkpt lat="43.22987" lon="5.50178">
        <ele>230.6</ele>
        <time>2025-10-18T15:11:11Z</time>
      </trkpt>
      <trkpt lat="43.22987" lon="5.50177">
        <ele>230.5</ele>
        <time>2025-10-18T15:11:12Z</time>
      </trkpt>
      <trkpt lat="43.22987" lon="5.50177">
        <ele>230.4</ele>
        <time>2025-10-18T15:11:13Z</time>
      </trkpt>
      <trkpt lat="43.22988" lon="5.50177">
        <ele>230.2</ele>
        <time>2025-10-18T15:11:14Z</time>
      </trkpt>
      <trkpt lat="43.22988" lon="5.50177">
        <ele>230.1</ele>
        <time>2025-10-18T15:11:15Z</time>
      </trkpt>
      <trkpt lat="43.22989" lon="5.50176">
        <ele>230</ele>
        <time>2025-10-18T15:11:16Z</time>
      </trkpt>
      <trkpt lat="43.22989" lon="5.50175">
        <ele>229.9</ele>
        <time>2025-10-18T15:11:17Z</time>
      </trkpt>
      <trkpt lat="43.22989" lon="5.50174">
        <ele>229.8</ele>
        <time>2025-10-18T15:11:18Z</time>
      </trkpt>
      <trkpt lat="43.2299" lon="5.50173">
        <ele>229.7</ele>
        <time>2025-10-18T15:11:19Z</time>
      </trkpt>
      <trkpt lat="43.2299" lon="5.50173">
        <ele>229.5</ele>
        <time>2025-10-18T15:11:20Z</time>
      </trkpt>
      <trkpt lat="43.2299" lon="5.50173">
        <ele>229.3</ele>
        <time>2025-10-18T15:11:21Z</time>
      </trkpt>
      <trkpt lat="43.2299" lon="5.50173">
        <ele>229.2</ele>
        <time>2025-10-18T15:11:22Z</time>
      </trkpt>
      <trkpt lat="43.2299" lon="5.50172">
        <ele>229</ele>
        <time>2025-10-18T15:11:23Z</time>
      </trkpt>
      <trkpt lat="43.2299" lon="5.50172">
        <ele>228.9</ele>
        <time>2025-10-18T15:11:24Z</time>
      </trkpt>
      <trkpt lat="43.22991" lon="5.50172">
        <ele>228.7</ele>
        <time>2025-10-18T15:11:25Z</time>
      </trkpt>
      <trkpt lat="43.22991" lon="5.50171">
        <ele>228.6</ele>
        <time>2025-10-18T15:11:26Z</time>
      </trkpt>
      <trkpt lat="43.22992" lon="5.5017">
        <ele>228.3</ele>
        <time>2025-10-18T15:11:27Z</time>
      </trkpt>
      <trkpt lat="43.22992" lon="5.5017">
        <ele>228.1</ele>
        <time>2025-10-18T15:11:28Z</time>
      </trkpt>
      <trkpt lat="43.22992" lon="5.50169">
        <ele>228</ele>
        <time>2025-10-18T15:11:29Z</time>
      </trkpt>
      <trkpt lat="43.22993" lon="5.50168">
        <ele>227.9</ele>
        <time>2025-10-18T15:11:30Z</time>
      </trkpt>
      <trkpt lat="43.22993" lon="5.50168">
        <ele>227.8</ele>
        <time>2025-10-18T15:11:31Z</time>
      </trkpt>
      <trkpt lat="43.22993" lon="5.50168">
        <ele>227.8</ele>
        <time>2025-10-18T15:11:32Z</time>
      </trkpt>
      <trkpt lat="43.22993" lon="5.50168">
        <ele>227.8</ele>
        <time>2025-10-18T15:11:33Z</time>
      </trkpt>
      <trkpt lat="43.22994" lon="5.50167">
        <ele>227.8</ele>
        <time>2025-10-18T15:11:34Z</time>
      </trkpt>
      <trkpt lat="43.22994" lon="5.50167">
        <ele>227.7</ele>
        <time>2025-10-18T15:11:35Z</time>
      </trkpt>
      <trkpt lat="43.22995" lon="5.50166">
        <ele>227.7</ele>
        <time>2025-10-18T15:11:36Z</time>
      </trkpt>
      <trkpt lat="43.22995" lon="5.50166">
        <ele>227.5</ele>
        <time>2025-10-18T15:11:37Z</time>
      </trkpt>
      <trkpt lat="43.22996" lon="5.50165">
        <ele>227.5</ele>
        <time>2025-10-18T15:11:38Z</time>
      </trkpt>
      <trkpt lat="43.22997" lon="5.50165">
        <ele>227.4</ele>
        <time>2025-10-18T15:11:39Z</time>
      </trkpt>
      <trkpt lat="43.22997" lon="5.50165">
        <ele>227.3</ele>
        <time>2025-10-18T15:11:40Z</time>
      </trkpt>
      <trkpt lat="43.22998" lon="5.50165">
        <ele>227.2</ele>
        <time>2025-10-18T15:11:41Z</time>
      </trkpt>
      <trkpt lat="43.22998" lon="5.50166">
        <ele>227.1</ele>
        <time>2025-10-18T15:11:42Z</time>
      </trkpt>
      <trkpt lat="43.22999" lon="5.50166">
        <ele>227</ele>
        <time>2025-10-18T15:11:43Z</time>
      </trkpt>
      <trkpt lat="43.22999" lon="5.50167">
        <ele>226.8</ele>
        <time>2025-10-18T15:11:44Z</time>
      </trkpt>
      <trkpt lat="43.23" lon="5.50167">
        <ele>226.7</ele>
        <time>2025-10-18T15:11:45Z</time>
      </trkpt>
      <trkpt lat="43.23001" lon="5.50167">
        <ele>226.6</ele>
        <time>2025-10-18T15:11:46Z</time>
      </trkpt>
      <trkpt lat="43.23001" lon="5.50168">
        <ele>226.5</ele>
        <time>2025-10-18T15:11:47Z</time>
      </trkpt>
      <trkpt lat="43.23001" lon="5.50167">
        <ele>226.4</ele>
        <time>2025-10-18T15:11:48Z</time>
      </trkpt>
      <trkpt lat="43.23002" lon="5.50167">
        <ele>226.3</ele>
        <time>2025-10-18T15:11:49Z</time>
      </trkpt>
      <trkpt lat="43.23002" lon="5.50167">
        <ele>226.2</ele>
        <time>2025-10-18T15:11:50Z</time>
      </trkpt>
      <trkpt lat="43.23002" lon="5.50167">
        <ele>226.1</ele>
        <time>2025-10-18T15:11:51Z</time>
      </trkpt>
      <trkpt lat="43.23003" lon="5.50167">
        <ele>226.1</ele>
        <time>2025-10-18T15:11:52Z</time>
      </trkpt>
      <trkpt lat="43.23003" lon="5.50166">
        <ele>226</ele>
        <time>2025-10-18T15:11:53Z</time>
      </trkpt>
      <trkpt lat="43.23003" lon="5.50165">
        <ele>225.8</ele>
        <time>2025-10-18T15:11:54Z</time>
      </trkpt>
      <trkpt lat="43.23004" lon="5.50165">
        <ele>225.6</ele>
        <time>2025-10-18T15:11:55Z</time>
      </trkpt>
      <trkpt lat="43.23005" lon="5.50165">
        <ele>225.5</ele>
        <time>2025-10-18T15:11:56Z</time>
      </trkpt>
      <trkpt lat="43.23005" lon="5.50164">
        <ele>225.3</ele>
        <time>2025-10-18T15:11:57Z</time>
      </trkpt>
      <trkpt lat="43.23006" lon="5.50164">
        <ele>225.1</ele>
        <time>2025-10-18T15:11:58Z</time>
      </trkpt>
      <trkpt lat="43.23006" lon="5.50164">
        <ele>224.9</ele>
        <time>2025-10-18T15:11:59Z</time>
      </trkpt>
      <trkpt lat="43.23007" lon="5.50164">
        <ele>224.7</ele>
        <time>2025-10-18T15:12:00Z</time>
      </trkpt>
      <trkpt lat="43.23008" lon="5.50163">
        <ele>224.6</ele>
        <time>2025-10-18T15:12:01Z</time>
      </trkpt>
      <trkpt lat="43.23008" lon="5.50162">
        <ele>224.4</ele>
        <time>2025-10-18T15:12:02Z</time>
      </trkpt>
      <trkpt lat="43.23009" lon="5.50162">
        <ele>224.2</ele>
        <time>2025-10-18T15:12:03Z</time>
      </trkpt>
      <trkpt lat="43.23009" lon="5.50161">
        <ele>224.1</ele>
        <time>2025-10-18T15:12:04Z</time>
      </trkpt>
      <trkpt lat="43.2301" lon="5.50161">
        <ele>223.9</ele>
        <time>2025-10-18T15:12:05Z</time>
      </trkpt>
      <trkpt lat="43.2301" lon="5.50161">
        <ele>223.8</ele>
        <time>2025-10-18T15:12:06Z</time>
      </trkpt>
      <trkpt lat="43.2301" lon="5.5016">
        <ele>223.7</ele>
        <time>2025-10-18T15:12:07Z</time>
      </trkpt>
      <trkpt lat="43.23011" lon="5.5016">
        <ele>223.6</ele>
        <time>2025-10-18T15:12:08Z</time>
      </trkpt>
      <trkpt lat="43.23011" lon="5.50159">
        <ele>223.5</ele>
        <time>2025-10-18T15:12:09Z</time>
      </trkpt>
      <trkpt lat="43.23012" lon="5.50158">
        <ele>223.4</ele>
        <time>2025-10-18T15:12:10Z</time>
      </trkpt>
      <trkpt lat="43.23012" lon="5.50157">
        <ele>223.1</ele>
        <time>2025-10-18T15:12:11Z</time>
      </trkpt>
      <trkpt lat="43.23012" lon="5.50157">
        <ele>223</ele>
        <time>2025-10-18T15:12:12Z</time>
      </trkpt>
      <trkpt lat="43.23012" lon="5.50156">
        <ele>222.8</ele>
        <time>2025-10-18T15:12:13Z</time>
      </trkpt>
      <trkpt lat="43.23013" lon="5.50156">
        <ele>222.6</ele>
        <time>2025-10-18T15:12:14Z</time>
      </trkpt>
      <trkpt lat="43.23014" lon="5.50155">
        <ele>222.5</ele>
        <time>2025-10-18T15:12:15Z</time>
      </trkpt>
      <trkpt lat="43.23015" lon="5.50155">
        <ele>222.5</ele>
        <time>2025-10-18T15:12:16Z</time>
      </trkpt>
      <trkpt lat="43.23015" lon="5.50154">
        <ele>222.5</ele>
        <time>2025-10-18T15:12:17Z</time>
      </trkpt>
      <trkpt lat="43.23016" lon="5.50154">
        <ele>222.4</ele>
        <time>2025-10-18T15:12:18Z</time>
      </trkpt>
      <trkpt lat="43.23017" lon="5.50153">
        <ele>222.3</ele>
        <time>2025-10-18T15:12:19Z</time>
      </trkpt>
      <trkpt lat="43.23017" lon="5.50153">
        <ele>222.3</ele>
        <time>2025-10-18T15:12:20Z</time>
      </trkpt>
      <trkpt lat="43.23018" lon="5.50152">
        <ele>222.1</ele>
        <time>2025-10-18T15:12:21Z</time>
      </trkpt>
      <trkpt lat="43.23018" lon="5.50151">
        <ele>222</ele>
        <time>2025-10-18T15:12:22Z</time>
      </trkpt>
      <trkpt lat="43.23019" lon="5.50151">
        <ele>221.9</ele>
        <time>2025-10-18T15:12:23Z</time>
      </trkpt>
      <trkpt lat="43.23019" lon="5.5015">
        <ele>221.9</ele>
        <time>2025-10-18T15:12:24Z</time>
      </trkpt>
      <trkpt lat="43.2302" lon="5.5015">
        <ele>221.8</ele>
        <time>2025-10-18T15:12:25Z</time>
      </trkpt>
      <trkpt lat="43.23021" lon="5.5015">
        <ele>221.7</ele>
        <time>2025-10-18T15:12:26Z</time>
      </trkpt>
      <trkpt lat="43.23021" lon="5.50149">
        <ele>221.5</ele>
        <time>2025-10-18T15:12:27Z</time>
      </trkpt>
      <trkpt lat="43.23022" lon="5.50149">
        <ele>221.4</ele>
        <time>2025-10-18T15:12:28Z</time>
      </trkpt>
      <trkpt lat="43.23023" lon="5.50148">
        <ele>221.3</ele>
        <time>2025-10-18T15:12:29Z</time>
      </trkpt>
      <trkpt lat="43.23023" lon="5.50148">
        <ele>221.2</ele>
        <time>2025-10-18T15:12:30Z</time>
      </trkpt>
      <trkpt lat="43.23024" lon="5.50148">
        <ele>221</ele>
        <time>2025-10-18T15:12:31Z</time>
      </trkpt>
      <trkpt lat="43.23025" lon="5.50147">
        <ele>221</ele>
        <time>2025-10-18T15:12:32Z</time>
      </trkpt>
      <trkpt lat="43.23025" lon="5.50146">
        <ele>220.9</ele>
        <time>2025-10-18T15:12:33Z</time>
      </trkpt>
      <trkpt lat="43.23026" lon="5.50146">
        <ele>220.7</ele>
        <time>2025-10-18T15:12:34Z</time>
      </trkpt>
      <trkpt lat="43.23026" lon="5.50146">
        <ele>220.5</ele>
        <time>2025-10-18T15:12:35Z</time>
      </trkpt>
      <trkpt lat="43.23027" lon="5.50145">
        <ele>220.3</ele>
        <time>2025-10-18T15:12:36Z</time>
      </trkpt>
      <trkpt lat="43.23028" lon="5.50145">
        <ele>220.2</ele>
        <time>2025-10-18T15:12:37Z</time>
      </trkpt>
      <trkpt lat="43.23028" lon="5.50145">
        <ele>220.1</ele>
        <time>2025-10-18T15:12:38Z</time>
      </trkpt>
      <trkpt lat="43.23029" lon="5.50145">
        <ele>219.9</ele>
        <time>2025-10-18T15:12:39Z</time>
      </trkpt>
      <trkpt lat="43.23029" lon="5.50145">
        <ele>219.8</ele>
        <time>2025-10-18T15:12:40Z</time>
      </trkpt>
      <trkpt lat="43.2303" lon="5.50145">
        <ele>219.6</ele>
        <time>2025-10-18T15:12:41Z</time>
      </trkpt>
      <trkpt lat="43.2303" lon="5.50144">
        <ele>219.5</ele>
        <time>2025-10-18T15:12:42Z</time>
      </trkpt>
      <trkpt lat="43.23031" lon="5.50144">
        <ele>219.4</ele>
        <time>2025-10-18T15:12:43Z</time>
      </trkpt>
      <trkpt lat="43.23031" lon="5.50143">
        <ele>219.3</ele>
        <time>2025-10-18T15:12:44Z</time>
      </trkpt>
      <trkpt lat="43.23032" lon="5.50143">
        <ele>219.4</ele>
        <time>2025-10-18T15:12:45Z</time>
      </trkpt>
      <trkpt lat="43.23033" lon="5.50143">
        <ele>219.4</ele>
        <time>2025-10-18T15:12:46Z</time>
      </trkpt>
      <trkpt lat="43.23034" lon="5.50142">
        <ele>219.1</ele>
        <time>2025-10-18T15:12:47Z</time>
      </trkpt>
      <trkpt lat="43.23035" lon="5.50141">
        <ele>219</ele>
        <time>2025-10-18T15:12:48Z</time>
      </trkpt>
      <trkpt lat="43.23036" lon="5.5014">
        <ele>218.8</ele>
        <time>2025-10-18T15:12:49Z</time>
      </trkpt>
      <trkpt lat="43.23036" lon="5.5014">
        <ele>218.6</ele>
        <time>2025-10-18T15:12:50Z</time>
      </trkpt>
      <trkpt lat="43.23038" lon="5.50139">
        <ele>218.5</ele>
        <time>2025-10-18T15:12:51Z</time>
      </trkpt>
      <trkpt lat="43.23038" lon="5.50138">
        <ele>218.3</ele>
        <time>2025-10-18T15:12:52Z</time>
      </trkpt>
      <trkpt lat="43.23039" lon="5.50138">
        <ele>218.1</ele>
        <time>2025-10-18T15:12:53Z</time>
      </trkpt>
      <trkpt lat="43.2304" lon="5.50137">
        <ele>217.9</ele>
        <time>2025-10-18T15:12:54Z</time>
      </trkpt>
      <trkpt lat="43.23041" lon="5.50137">
        <ele>217.8</ele>
        <time>2025-10-18T15:12:55Z</time>
      </trkpt>
      <trkpt lat="43.23042" lon="5.50136">
        <ele>217.6</ele>
        <time>2025-10-18T15:12:56Z</time>
      </trkpt>
      <trkpt lat="43.23043" lon="5.50136">
        <ele>217.6</ele>
        <time>2025-10-18T15:12:57Z</time>
      </trkpt>
      <trkpt lat="43.23043" lon="5.50135">
        <ele>217.3</ele>
        <time>2025-10-18T15:12:58Z</time>
      </trkpt>
      <trkpt lat="43.23044" lon="5.50135">
        <ele>217.1</ele>
        <time>2025-10-18T15:12:59Z</time>
      </trkpt>
      <trkpt lat="43.23045" lon="5.50134">
        <ele>217</ele>
        <time>2025-10-18T15:13:00Z</time>
      </trkpt>
      <trkpt lat="43.23047" lon="5.50134">
        <ele>216.8</ele>
        <time>2025-10-18T15:13:01Z</time>
      </trkpt>
      <trkpt lat="43.23048" lon="5.50133">
        <ele>216.6</ele>
        <time>2025-10-18T15:13:02Z</time>
      </trkpt>
      <trkpt lat="43.23048" lon="5.50132">
        <ele>216.5</ele>
        <time>2025-10-18T15:13:03Z</time>
      </trkpt>
      <trkpt lat="43.23049" lon="5.50132">
        <ele>216.4</ele>
        <time>2025-10-18T15:13:04Z</time>
      </trkpt>
      <trkpt lat="43.23051" lon="5.50131">
        <ele>216.1</ele>
        <time>2025-10-18T15:13:05Z</time>
      </trkpt>
      <trkpt lat="43.23051" lon="5.50131">
        <ele>216</ele>
        <time>2025-10-18T15:13:06Z</time>
      </trkpt>
      <trkpt lat="43.23052" lon="5.5013">
        <ele>215.9</ele>
        <time>2025-10-18T15:13:07Z</time>
      </trkpt>
      <trkpt lat="43.23053" lon="5.5013">
        <ele>215.8</ele>
        <time>2025-10-18T15:13:08Z</time>
      </trkpt>
      <trkpt lat="43.23054" lon="5.50129">
        <ele>215.7</ele>
        <time>2025-10-18T15:13:09Z</time>
      </trkpt>
      <trkpt lat="43.23055" lon="5.50129">
        <ele>215.5</ele>
        <time>2025-10-18T15:13:10Z</time>
      </trkpt>
      <trkpt lat="43.23056" lon="5.50129">
        <ele>215.3</ele>
        <time>2025-10-18T15:13:11Z</time>
      </trkpt>
      <trkpt lat="43.23057" lon="5.50128">
        <ele>215.1</ele>
        <time>2025-10-18T15:13:12Z</time>
      </trkpt>
      <trkpt lat="43.23058" lon="5.50129">
        <ele>215</ele>
        <time>2025-10-18T15:13:13Z</time>
      </trkpt>
      <trkpt lat="43.23059" lon="5.50129">
        <ele>214.8</ele>
        <time>2025-10-18T15:13:14Z</time>
      </trkpt>
      <trkpt lat="43.23059" lon="5.50129">
        <ele>214.7</ele>
        <time>2025-10-18T15:13:15Z</time>
      </trkpt>
      <trkpt lat="43.2306" lon="5.50128">
        <ele>214.6</ele>
        <time>2025-10-18T15:13:16Z</time>
      </trkpt>
      <trkpt lat="43.23061" lon="5.50128">
        <ele>214.6</ele>
        <time>2025-10-18T15:13:17Z</time>
      </trkpt>
      <trkpt lat="43.23061" lon="5.50127">
        <ele>214.5</ele>
        <time>2025-10-18T15:13:18Z</time>
      </trkpt>
      <trkpt lat="43.23062" lon="5.50126">
        <ele>214.3</ele>
        <time>2025-10-18T15:13:19Z</time>
      </trkpt>
      <trkpt lat="43.23062" lon="5.50126">
        <ele>214.2</ele>
        <time>2025-10-18T15:13:20Z</time>
      </trkpt>
      <trkpt lat="43.23063" lon="5.50125">
        <ele>214</ele>
        <time>2025-10-18T15:13:21Z</time>
      </trkpt>
      <trkpt lat="43.23064" lon="5.50124">
        <ele>213.9</ele>
        <time>2025-10-18T15:13:22Z</time>
      </trkpt>
      <trkpt lat="43.23064" lon="5.50123">
        <ele>213.8</ele>
        <time>2025-10-18T15:13:23Z</time>
      </trkpt>
      <trkpt lat="43.23065" lon="5.50123">
        <ele>213.7</ele>
        <time>2025-10-18T15:13:24Z</time>
      </trkpt>
      <trkpt lat="43.23066" lon="5.50123">
        <ele>213.8</ele>
        <time>2025-10-18T15:13:25Z</time>
      </trkpt>
      <trkpt lat="43.23066" lon="5.50123">
        <ele>213.7</ele>
        <time>2025-10-18T15:13:26Z</time>
      </trkpt>
      <trkpt lat="43.23067" lon="5.50122">
        <ele>213.5</ele>
        <time>2025-10-18T15:13:27Z</time>
      </trkpt>
      <trkpt lat="43.23067" lon="5.50122">
        <ele>213.3</ele>
        <time>2025-10-18T15:13:28Z</time>
      </trkpt>
      <trkpt lat="43.23068" lon="5.50122">
        <ele>213.1</ele>
        <time>2025-10-18T15:13:29Z</time>
      </trkpt>
      <trkpt lat="43.23069" lon="5.50122">
        <ele>213</ele>
        <time>2025-10-18T15:13:30Z</time>
      </trkpt>
      <trkpt lat="43.2307" lon="5.50121">
        <ele>212.8</ele>
        <time>2025-10-18T15:13:31Z</time>
      </trkpt>
      <trkpt lat="43.2307" lon="5.50121">
        <ele>212.6</ele>
        <time>2025-10-18T15:13:32Z</time>
      </trkpt>
      <trkpt lat="43.23071" lon="5.5012">
        <ele>212.2</ele>
        <time>2025-10-18T15:13:33Z</time>
      </trkpt>
      <trkpt lat="43.23071" lon="5.5012">
        <ele>212</ele>
        <time>2025-10-18T15:13:34Z</time>
      </trkpt>
      <trkpt lat="43.23072" lon="5.50119">
        <ele>212</ele>
        <time>2025-10-18T15:13:35Z</time>
      </trkpt>
      <trkpt lat="43.23073" lon="5.50118">
        <ele>211.9</ele>
        <time>2025-10-18T15:13:36Z</time>
      </trkpt>
      <trkpt lat="43.23073" lon="5.50118">
        <ele>211.7</ele>
        <time>2025-10-18T15:13:37Z</time>
      </trkpt>
      <trkpt lat="43.23074" lon="5.50117">
        <ele>211.5</ele>
        <time>2025-10-18T15:13:38Z</time>
      </trkpt>
      <trkpt lat="43.23074" lon="5.50117">
        <ele>211.3</ele>
        <time>2025-10-18T15:13:39Z</time>
      </trkpt>
      <trkpt lat="43.23075" lon="5.50116">
        <ele>211.2</ele>
        <time>2025-10-18T15:13:40Z</time>
      </trkpt>
      <trkpt lat="43.23075" lon="5.50115">
        <ele>210.9</ele>
        <time>2025-10-18T15:13:41Z</time>
      </trkpt>
      <trkpt lat="43.23075" lon="5.50114">
        <ele>210.6</ele>
        <time>2025-10-18T15:13:42Z</time>
      </trkpt>
      <trkpt lat="43.23076" lon="5.50114">
        <ele>210.4</ele>
        <time>2025-10-18T15:13:43Z</time>
      </trkpt>
      <trkpt lat="43.23077" lon="5.50114">
        <ele>210.4</ele>
        <time>2025-10-18T15:13:44Z</time>
      </trkpt>
      <trkpt lat="43.23078" lon="5.50114">
        <ele>210.2</ele>
        <time>2025-10-18T15:13:45Z</time>
      </trkpt>
      <trkpt lat="43.23078" lon="5.50113">
        <ele>210</ele>
        <time>2025-10-18T15:13:46Z</time>
      </trkpt>
      <trkpt lat="43.23079" lon="5.50113">
        <ele>209.8</ele>
        <time>2025-10-18T15:13:47Z</time>
      </trkpt>
      <trkpt lat="43.23079" lon="5.50112">
        <ele>209.7</ele>
        <time>2025-10-18T15:13:48Z</time>
      </trkpt>
      <trkpt lat="43.2308" lon="5.50112">
        <ele>209.5</ele>
        <time>2025-10-18T15:13:49Z</time>
      </trkpt>
      <trkpt lat="43.2308" lon="5.50112">
        <ele>209.4</ele>
        <time>2025-10-18T15:13:50Z</time>
      </trkpt>
      <trkpt lat="43.23081" lon="5.50112">
        <ele>209.3</ele>
        <time>2025-10-18T15:13:51Z</time>
      </trkpt>
      <trkpt lat="43.23082" lon="5.50112">
        <ele>209.2</ele>
        <time>2025-10-18T15:13:52Z</time>
      </trkpt>
      <trkpt lat="43.23083" lon="5.50111">
        <ele>209</ele>
        <time>2025-10-18T15:13:53Z</time>
      </trkpt>
      <trkpt lat="43.23083" lon="5.50111">
        <ele>208.9</ele>
        <time>2025-10-18T15:13:54Z</time>
      </trkpt>
      <trkpt lat="43.23084" lon="5.50111">
        <ele>208.6</ele>
        <time>2025-10-18T15:13:55Z</time>
      </trkpt>
      <trkpt lat="43.23084" lon="5.50111">
        <ele>208.4</ele>
        <time>2025-10-18T15:13:56Z</time>
      </trkpt>
      <trkpt lat="43.23085" lon="5.5011">
        <ele>208.2</ele>
        <time>2025-10-18T15:13:57Z</time>
      </trkpt>
      <trkpt lat="43.23086" lon="5.5011">
        <ele>208.1</ele>
        <time>2025-10-18T15:13:58Z</time>
      </trkpt>
      <trkpt lat="43.23086" lon="5.5011">
        <ele>207.9</ele>
        <time>2025-10-18T15:13:59Z</time>
      </trkpt>
      <trkpt lat="43.23087" lon="5.5011">
        <ele>207.8</ele>
        <time>2025-10-18T15:14:00Z</time>
      </trkpt>
      <trkpt lat="43.23088" lon="5.5011">
        <ele>207.6</ele>
        <time>2025-10-18T15:14:01Z</time>
      </trkpt>
      <trkpt lat="43.23088" lon="5.50109">
        <ele>207.5</ele>
        <time>2025-10-18T15:14:02Z</time>
      </trkpt>
      <trkpt lat="43.23089" lon="5.50109">
        <ele>207.3</ele>
        <time>2025-10-18T15:14:03Z</time>
      </trkpt>
      <trkpt lat="43.23089" lon="5.5011">
        <ele>207.1</ele>
        <time>2025-10-18T15:14:04Z</time>
      </trkpt>
      <trkpt lat="43.2309" lon="5.5011">
        <ele>207</ele>
        <time>2025-10-18T15:14:05Z</time>
      </trkpt>
      <trkpt lat="43.2309" lon="5.5011">
        <ele>206.9</ele>
        <time>2025-10-18T15:14:06Z</time>
      </trkpt>
      <trkpt lat="43.23091" lon="5.5011">
        <ele>206.9</ele>
        <time>2025-10-18T15:14:07Z</time>
      </trkpt>
      <trkpt lat="43.23091" lon="5.5011">
        <ele>206.7</ele>
        <time>2025-10-18T15:14:08Z</time>
      </trkpt>
      <trkpt lat="43.23092" lon="5.50111">
        <ele>206.4</ele>
        <time>2025-10-18T15:14:09Z</time>
      </trkpt>
      <trkpt lat="43.23092" lon="5.50111">
        <ele>206.3</ele>
        <time>2025-10-18T15:14:10Z</time>
      </trkpt>
      <trkpt lat="43.23093" lon="5.50111">
        <ele>206.1</ele>
        <time>2025-10-18T15:14:11Z</time>
      </trkpt>
      <trkpt lat="43.23093" lon="5.50111">
        <ele>206</ele>
        <time>2025-10-18T15:14:12Z</time>
      </trkpt>
      <trkpt lat="43.23093" lon="5.5011">
        <ele>206.2</ele>
        <time>2025-10-18T15:14:13Z</time>
      </trkpt>
      <trkpt lat="43.23094" lon="5.50111">
        <ele>206.1</ele>
        <time>2025-10-18T15:14:14Z</time>
      </trkpt>
      <trkpt lat="43.23095" lon="5.50111">
        <ele>206</ele>
        <time>2025-10-18T15:14:15Z</time>
      </trkpt>
      <trkpt lat="43.23095" lon="5.5011">
        <ele>205.8</ele>
        <time>2025-10-18T15:14:16Z</time>
      </trkpt>
      <trkpt lat="43.23095" lon="5.5011">
        <ele>205.6</ele>
        <time>2025-10-18T15:14:17Z</time>
      </trkpt>
      <trkpt lat="43.23096" lon="5.5011">
        <ele>205.4</ele>
        <time>2025-10-18T15:14:18Z</time>
      </trkpt>
      <trkpt lat="43.23096" lon="5.5011">
        <ele>205.2</ele>
        <time>2025-10-18T15:14:19Z</time>
      </trkpt>
      <trkpt lat="43.23097" lon="5.5011">
        <ele>204.9</ele>
        <time>2025-10-18T15:14:20Z</time>
      </trkpt>
      <trkpt lat="43.23097" lon="5.5011">
        <ele>204.6</ele>
        <time>2025-10-18T15:14:21Z</time>
      </trkpt>
      <trkpt lat="43.23098" lon="5.5011">
        <ele>204.4</ele>
        <time>2025-10-18T15:14:22Z</time>
      </trkpt>
      <trkpt lat="43.23099" lon="5.50111">
        <ele>204.3</ele>
        <time>2025-10-18T15:14:23Z</time>
      </trkpt>
      <trkpt lat="43.23099" lon="5.50112">
        <ele>204.1</ele>
        <time>2025-10-18T15:14:24Z</time>
      </trkpt>
      <trkpt lat="43.23099" lon="5.50113">
        <ele>204.1</ele>
        <time>2025-10-18T15:14:25Z</time>
      </trkpt>
      <trkpt lat="43.23099" lon="5.50113">
        <ele>204</ele>
        <time>2025-10-18T15:14:26Z</time>
      </trkpt>
      <trkpt lat="43.23099" lon="5.50114">
        <ele>203.9</ele>
        <time>2025-10-18T15:14:27Z</time>
      </trkpt>
      <trkpt lat="43.23099" lon="5.50114">
        <ele>203.8</ele>
        <time>2025-10-18T15:14:28Z</time>
      </trkpt>
      <trkpt lat="43.231" lon="5.50115">
        <ele>203.8</ele>
        <time>2025-10-18T15:14:29Z</time>
      </trkpt>
      <trkpt lat="43.231" lon="5.50116">
        <ele>203.6</ele>
        <time>2025-10-18T15:14:30Z</time>
      </trkpt>
      <trkpt lat="43.23101" lon="5.50116">
        <ele>203.4</ele>
        <time>2025-10-18T15:14:31Z</time>
      </trkpt>
      <trkpt lat="43.23101" lon="5.50117">
        <ele>203.2</ele>
        <time>2025-10-18T15:14:32Z</time>
      </trkpt>
      <trkpt lat="43.23101" lon="5.50117">
        <ele>203</ele>
        <time>2025-10-18T15:14:33Z</time>
      </trkpt>
      <trkpt lat="43.23102" lon="5.50117">
        <ele>202.8</ele>
        <time>2025-10-18T15:14:34Z</time>
      </trkpt>
      <trkpt lat="43.23102" lon="5.50118">
        <ele>202.7</ele>
        <time>2025-10-18T15:14:35Z</time>
      </trkpt>
      <trkpt lat="43.23103" lon="5.50119">
        <ele>202.6</ele>
        <time>2025-10-18T15:14:36Z</time>
      </trkpt>
      <trkpt lat="43.23104" lon="5.5012">
        <ele>202.5</ele>
        <time>2025-10-18T15:14:37Z</time>
      </trkpt>
      <trkpt lat="43.23104" lon="5.5012">
        <ele>202.4</ele>
        <time>2025-10-18T15:14:38Z</time>
      </trkpt>
      <trkpt lat="43.23105" lon="5.50121">
        <ele>202.2</ele>
        <time>2025-10-18T15:14:39Z</time>
      </trkpt>
      <trkpt lat="43.23105" lon="5.50122">
        <ele>202.1</ele>
        <time>2025-10-18T15:14:40Z</time>
      </trkpt>
      <trkpt lat="43.23106" lon="5.50122">
        <ele>202</ele>
        <time>2025-10-18T15:14:41Z</time>
      </trkpt>
      <trkpt lat="43.23106" lon="5.50123">
        <ele>201.7</ele>
        <time>2025-10-18T15:14:42Z</time>
      </trkpt>
      <trkpt lat="43.23106" lon="5.50123">
        <ele>201.6</ele>
        <time>2025-10-18T15:14:43Z</time>
      </trkpt>
      <trkpt lat="43.23106" lon="5.50123">
        <ele>201.4</ele>
        <time>2025-10-18T15:14:44Z</time>
      </trkpt>
      <trkpt lat="43.23107" lon="5.50124">
        <ele>201.3</ele>
        <time>2025-10-18T15:14:45Z</time>
      </trkpt>
      <trkpt lat="43.23107" lon="5.50124">
        <ele>201.1</ele>
        <time>2025-10-18T15:14:46Z</time>
      </trkpt>
      <trkpt lat="43.23108" lon="5.50125">
        <ele>200.9</ele>
        <time>2025-10-18T15:14:47Z</time>
      </trkpt>
      <trkpt lat="43.23108" lon="5.50125">
        <ele>200.7</ele>
        <time>2025-10-18T15:14:48Z</time>
      </trkpt>
      <trkpt lat="43.23108" lon="5.50126">
        <ele>200.5</ele>
        <time>2025-10-18T15:14:49Z</time>
      </trkpt>
      <trkpt lat="43.23109" lon="5.50126">
        <ele>200.3</ele>
        <time>2025-10-18T15:14:50Z</time>
      </trkpt>
      <trkpt lat="43.23109" lon="5.50126">
        <ele>200.1</ele>
        <time>2025-10-18T15:14:51Z</time>
      </trkpt>
      <trkpt lat="43.23109" lon="5.50126">
        <ele>199.9</ele>
        <time>2025-10-18T15:14:52Z</time>
      </trkpt>
      <trkpt lat="43.23109" lon="5.50127">
        <ele>199.8</ele>
        <time>2025-10-18T15:14:53Z</time>
      </trkpt>
      <trkpt lat="43.2311" lon="5.50127">
        <ele>199.7</ele>
        <time>2025-10-18T15:14:54Z</time>
      </trkpt>
      <trkpt lat="43.2311" lon="5.50128">
        <ele>199.7</ele>
        <time>2025-10-18T15:14:55Z</time>
      </trkpt>
      <trkpt lat="43.2311" lon="5.50128">
        <ele>199.6</ele>
        <time>2025-10-18T15:14:56Z</time>
      </trkpt>
      <trkpt lat="43.2311" lon="5.50128">
        <ele>199.3</ele>
        <time>2025-10-18T15:14:57Z</time>
      </trkpt>
      <trkpt lat="43.23111" lon="5.50128">
        <ele>199.2</ele>
        <time>2025-10-18T15:14:58Z</time>
      </trkpt>
      <trkpt lat="43.23111" lon="5.50128">
        <ele>199.1</ele>
        <time>2025-10-18T15:14:59Z</time>
      </trkpt>
      <trkpt lat="43.23112" lon="5.50128">
        <ele>198.9</ele>
        <time>2025-10-18T15:15:00Z</time>
      </trkpt>
      <trkpt lat="43.23112" lon="5.50128">
        <ele>198.6</ele>
        <time>2025-10-18T15:15:01Z</time>
      </trkpt>
      <trkpt lat="43.23112" lon="5.50129">
        <ele>198.5</ele>
        <time>2025-10-18T15:15:02Z</time>
      </trkpt>
      <trkpt lat="43.23113" lon="5.50129">
        <ele>198.4</ele>
        <time>2025-10-18T15:15:03Z</time>
      </trkpt>
      <trkpt lat="43.23114" lon="5.50129">
        <ele>198.3</ele>
        <time>2025-10-18T15:15:04Z</time>
      </trkpt>
      <trkpt lat="43.23114" lon="5.50129">
        <ele>198.2</ele>
        <time>2025-10-18T15:15:05Z</time>
      </trkpt>
      <trkpt lat="43.23114" lon="5.50128">
        <ele>198.1</ele>
        <time>2025-10-18T15:15:06Z</time>
      </trkpt>
      <trkpt lat="43.23115" lon="5.50129">
        <ele>198</ele>
        <time>2025-10-18T15:15:07Z</time>
      </trkpt>
      <trkpt lat="43.23115" lon="5.50129">
        <ele>197.9</ele>
        <time>2025-10-18T15:15:08Z</time>
      </trkpt>
      <trkpt lat="43.23115" lon="5.50128">
        <ele>197.6</ele>
        <time>2025-10-18T15:15:09Z</time>
      </trkpt>
      <trkpt lat="43.23116" lon="5.50128">
        <ele>197.6</ele>
        <time>2025-10-18T15:15:10Z</time>
      </trkpt>
      <trkpt lat="43.23116" lon="5.50129">
        <ele>197.5</ele>
        <time>2025-10-18T15:15:11Z</time>
      </trkpt>
      <trkpt lat="43.23116" lon="5.50129">
        <ele>197.4</ele>
        <time>2025-10-18T15:15:12Z</time>
      </trkpt>
      <trkpt lat="43.23117" lon="5.50128">
        <ele>197.3</ele>
        <time>2025-10-18T15:15:13Z</time>
      </trkpt>
      <trkpt lat="43.23117" lon="5.50128">
        <ele>197.2</ele>
        <time>2025-10-18T15:15:14Z</time>
      </trkpt>
      <trkpt lat="43.23117" lon="5.50128">
        <ele>197.1</ele>
        <time>2025-10-18T15:15:15Z</time>
      </trkpt>
      <trkpt lat="43.23118" lon="5.50129">
        <ele>196.9</ele>
        <time>2025-10-18T15:15:16Z</time>
      </trkpt>
      <trkpt lat="43.23118" lon="5.50129">
        <ele>196.7</ele>
        <time>2025-10-18T15:15:17Z</time>
      </trkpt>
      <trkpt lat="43.23119" lon="5.50129">
        <ele>196.5</ele>
        <time>2025-10-18T15:15:18Z</time>
      </trkpt>
      <trkpt lat="43.23119" lon="5.50129">
        <ele>196.3</ele>
        <time>2025-10-18T15:15:19Z</time>
      </trkpt>
      <trkpt lat="43.2312" lon="5.50129">
        <ele>196.1</ele>
        <time>2025-10-18T15:15:20Z</time>
      </trkpt>
      <trkpt lat="43.2312" lon="5.50129">
        <ele>196</ele>
        <time>2025-10-18T15:15:21Z</time>
      </trkpt>
      <trkpt lat="43.23121" lon="5.5013">
        <ele>195.8</ele>
        <time>2025-10-18T15:15:22Z</time>
      </trkpt>
      <trkpt lat="43.23121" lon="5.5013">
        <ele>195.7</ele>
        <time>2025-10-18T15:15:23Z</time>
      </trkpt>
      <trkpt lat="43.23122" lon="5.5013">
        <ele>195.5</ele>
        <time>2025-10-18T15:15:24Z</time>
      </trkpt>
      <trkpt lat="43.23123" lon="5.50131">
        <ele>195.4</ele>
        <time>2025-10-18T15:15:25Z</time>
      </trkpt>
      <trkpt lat="43.23124" lon="5.5013">
        <ele>195.3</ele>
        <time>2025-10-18T15:15:26Z</time>
      </trkpt>
      <trkpt lat="43.23125" lon="5.5013">
        <ele>195.2</ele>
        <time>2025-10-18T15:15:27Z</time>
      </trkpt>
      <trkpt lat="43.23126" lon="5.5013">
        <ele>195.1</ele>
        <time>2025-10-18T15:15:28Z</time>
      </trkpt>
      <trkpt lat="43.23127" lon="5.50131">
        <ele>195</ele>
        <time>2025-10-18T15:15:29Z</time>
      </trkpt>
      <trkpt lat="43.23128" lon="5.50131">
        <ele>194.9</ele>
        <time>2025-10-18T15:15:30Z</time>
      </trkpt>
      <trkpt lat="43.23129" lon="5.50131">
        <ele>194.7</ele>
        <time>2025-10-18T15:15:31Z</time>
      </trkpt>
      <trkpt lat="43.2313" lon="5.50131">
        <ele>194.5</ele>
        <time>2025-10-18T15:15:32Z</time>
      </trkpt>
      <trkpt lat="43.23131" lon="5.50131">
        <ele>194.4</ele>
        <time>2025-10-18T15:15:33Z</time>
      </trkpt>
      <trkpt lat="43.23131" lon="5.50131">
        <ele>194.3</ele>
        <time>2025-10-18T15:15:34Z</time>
      </trkpt>
      <trkpt lat="43.23132" lon="5.50131">
        <ele>194.2</ele>
        <time>2025-10-18T15:15:35Z</time>
      </trkpt>
      <trkpt lat="43.23133" lon="5.50132">
        <ele>194.1</ele>
        <time>2025-10-18T15:15:36Z</time>
      </trkpt>
      <trkpt lat="43.23133" lon="5.50131">
        <ele>194.1</ele>
        <time>2025-10-18T15:15:37Z</time>
      </trkpt>
      <trkpt lat="43.23133" lon="5.50132">
        <ele>194</ele>
        <time>2025-10-18T15:15:38Z</time>
      </trkpt>
      <trkpt lat="43.23134" lon="5.50132">
        <ele>194</ele>
        <time>2025-10-18T15:15:39Z</time>
      </trkpt>
      <trkpt lat="43.23134" lon="5.50133">
        <ele>194</ele>
        <time>2025-10-18T15:15:40Z</time>
      </trkpt>
      <trkpt lat="43.23134" lon="5.50133">
        <ele>194</ele>
        <time>2025-10-18T15:15:41Z</time>
      </trkpt>
      <trkpt lat="43.23134" lon="5.50134">
        <ele>194</ele>
        <time>2025-10-18T15:15:42Z</time>
      </trkpt>
      <trkpt lat="43.23134" lon="5.50134">
        <ele>193.9</ele>
        <time>2025-10-18T15:15:43Z</time>
      </trkpt>
      <trkpt lat="43.23134" lon="5.50134">
        <ele>194</ele>
        <time>2025-10-18T15:15:44Z</time>
      </trkpt>
      <trkpt lat="43.23134" lon="5.50134">
        <ele>194</ele>
        <time>2025-10-18T15:15:45Z</time>
      </trkpt>
      <trkpt lat="43.23134" lon="5.50134">
        <ele>194</ele>
        <time>2025-10-18T15:15:46Z</time>
      </trkpt>
      <trkpt lat="43.23134" lon="5.50134">
        <ele>194</ele>
        <time>2025-10-18T15:15:47Z</time>
      </trkpt>
      <trkpt lat="43.23134" lon="5.50135">
        <ele>193.8</ele>
        <time>2025-10-18T15:15:48Z</time>
      </trkpt>
      <trkpt lat="43.23134" lon="5.50135">
        <ele>193.8</ele>
        <time>2025-10-18T15:15:49Z</time>
      </trkpt>
      <trkpt lat="43.23134" lon="5.50135">
        <ele>193.7</ele>
        <time>2025-10-18T15:15:50Z</time>
      </trkpt>
      <trkpt lat="43.23134" lon="5.50135">
        <ele>193.7</ele>
        <time>2025-10-18T15:15:51Z</time>
      </trkpt>
      <trkpt lat="43.23134" lon="5.50135">
        <ele>193.6</ele>
        <time>2025-10-18T15:15:52Z</time>
      </trkpt>
      <trkpt lat="43.23134" lon="5.50136">
        <ele>193.7</ele>
        <time>2025-10-18T15:15:53Z</time>
      </trkpt>
      <trkpt lat="43.23134" lon="5.50136">
        <ele>193.6</ele>
        <time>2025-10-18T15:15:54Z</time>
      </trkpt>
      <trkpt lat="43.23134" lon="5.50136">
        <ele>193.7</ele>
        <time>2025-10-18T15:15:55Z</time>
      </trkpt>
      <trkpt lat="43.23135" lon="5.50136">
        <ele>193.7</ele>
        <time>2025-10-18T15:15:56Z</time>
      </trkpt>
      <trkpt lat="43.23135" lon="5.50136">
        <ele>193.8</ele>
        <time>2025-10-18T15:15:57Z</time>
      </trkpt>
      <trkpt lat="43.23135" lon="5.50136">
        <ele>193.8</ele>
        <time>2025-10-18T15:15:58Z</time>
      </trkpt>
      <trkpt lat="43.23135" lon="5.50136">
        <ele>193.8</ele>
        <time>2025-10-18T15:15:59Z</time>
      </trkpt>
      <trkpt lat="43.23135" lon="5.50136">
        <ele>193.8</ele>
        <time>2025-10-18T15:16:00Z</time>
      </trkpt>
      <trkpt lat="43.23135" lon="5.50136">
        <ele>193.8</ele>
        <time>2025-10-18T15:16:01Z</time>
      </trkpt>
      <trkpt lat="43.23135" lon="5.50136">
        <ele>193.8</ele>
        <time>2025-10-18T15:16:02Z</time>
      </trkpt>
      <trkpt lat="43.23135" lon="5.50137">
        <ele>193.7</ele>
        <time>2025-10-18T15:16:03Z</time>
      </trkpt>
      <trkpt lat="43.23135" lon="5.50136">
        <ele>193.7</ele>
        <time>2025-10-18T15:16:04Z</time>
      </trkpt>
      <trkpt lat="43.23135" lon="5.50136">
        <ele>193.7</ele>
        <time>2025-10-18T15:16:05Z</time>
      </trkpt>
      <trkpt lat="43.23135" lon="5.50137">
        <ele>193.6</ele>
        <time>2025-10-18T15:16:06Z</time>
      </trkpt>
      <trkpt lat="43.23135" lon="5.50137">
        <ele>193.6</ele>
        <time>2025-10-18T15:16:07Z</time>
      </trkpt>
      <trkpt lat="43.23135" lon="5.50137">
        <ele>193.5</ele>
        <time>2025-10-18T15:16:08Z</time>
      </trkpt>
      <trkpt lat="43.23135" lon="5.50137">
        <ele>193.5</ele>
        <time>2025-10-18T15:16:09Z</time>
      </trkpt>
      <trkpt lat="43.23136" lon="5.50137">
        <ele>193.5</ele>
        <time>2025-10-18T15:16:10Z</time>
      </trkpt>
      <trkpt lat="43.23136" lon="5.50137">
        <ele>193.6</ele>
        <time>2025-10-18T15:16:11Z</time>
      </trkpt>
      <trkpt lat="43.23136" lon="5.50137">
        <ele>193.5</ele>
        <time>2025-10-18T15:16:12Z</time>
      </trkpt>
      <trkpt lat="43.23136" lon="5.50137">
        <ele>193.6</ele>
        <time>2025-10-18T15:16:13Z</time>
      </trkpt>
      <trkpt lat="43.23136" lon="5.50137">
        <ele>193.7</ele>
        <time>2025-10-18T15:16:14Z</time>
      </trkpt>
      <trkpt lat="43.23136" lon="5.50137">
        <ele>193.7</ele>
        <time>2025-10-18T15:16:15Z</time>
      </trkpt>
      <trkpt lat="43.23136" lon="5.50137">
        <ele>193.7</ele>
        <time>2025-10-18T15:16:16Z</time>
      </trkpt>
      <trkpt lat="43.23137" lon="5.50137">
        <ele>193.7</ele>
        <time>2025-10-18T15:16:17Z</time>
      </trkpt>
      <trkpt lat="43.23137" lon="5.50137">
        <ele>193.7</ele>
        <time>2025-10-18T15:16:18Z</time>
      </trkpt>
      <trkpt lat="43.23137" lon="5.50137">
        <ele>193.7</ele>
        <time>2025-10-18T15:16:19Z</time>
      </trkpt>
      <trkpt lat="43.23137" lon="5.50137">
        <ele>193.7</ele>
        <time>2025-10-18T15:16:20Z</time>
      </trkpt>
      <trkpt lat="43.23137" lon="5.50137">
        <ele>193.7</ele>
        <time>2025-10-18T15:16:21Z</time>
      </trkpt>
      <trkpt lat="43.23137" lon="5.50137">
        <ele>193.7</ele>
        <time>2025-10-18T15:16:22Z</time>
      </trkpt>
      <trkpt lat="43.23137" lon="5.50137">
        <ele>193.9</ele>
        <time>2025-10-18T15:16:23Z</time>
      </trkpt>
      <trkpt lat="43.23137" lon="5.50137">
        <ele>194</ele>
        <time>2025-10-18T15:16:24Z</time>
      </trkpt>
      <trkpt lat="43.23137" lon="5.50136">
        <ele>194</ele>
        <time>2025-10-18T15:16:25Z</time>
      </trkpt>
      <trkpt lat="43.23137" lon="5.50137">
        <ele>194</ele>
        <time>2025-10-18T15:16:26Z</time>
      </trkpt>
      <trkpt lat="43.23137" lon="5.50137">
        <ele>194</ele>
        <time>2025-10-18T15:16:27Z</time>
      </trkpt>
      <trkpt lat="43.23137" lon="5.50137">
        <ele>194</ele>
        <time>2025-10-18T15:16:28Z</time>
      </trkpt>
      <trkpt lat="43.23137" lon="5.50137">
        <ele>194</ele>
        <time>2025-10-18T15:16:29Z</time>
      </trkpt>
      <trkpt lat="43.23137" lon="5.50137">
        <ele>194</ele>
        <time>2025-10-18T15:16:30Z</time>
      </trkpt>
      <trkpt lat="43.23137" lon="5.50137">
        <ele>194</ele>
        <time>2025-10-18T15:16:31Z</time>
      </trkpt>
      <trkpt lat="43.23137" lon="5.50137">
        <ele>193.8</ele>
        <time>2025-10-18T15:16:32Z</time>
      </trkpt>
      <trkpt lat="43.23137" lon="5.50137">
        <ele>193.7</ele>
        <time>2025-10-18T15:16:33Z</time>
      </trkpt>
      <trkpt lat="43.23137" lon="5.50137">
        <ele>193.8</ele>
        <time>2025-10-18T15:16:34Z</time>
      </trkpt>
      <trkpt lat="43.23137" lon="5.50137">
        <ele>193.8</ele>
        <time>2025-10-18T15:16:35Z</time>
      </trkpt>
      <trkpt lat="43.23137" lon="5.50136">
        <ele>193.9</ele>
        <time>2025-10-18T15:16:36Z</time>
      </trkpt>
      <trkpt lat="43.23137" lon="5.50136">
        <ele>193.9</ele>
        <time>2025-10-18T15:16:37Z</time>
      </trkpt>
      <trkpt lat="43.23137" lon="5.50136">
        <ele>193.9</ele>
        <time>2025-10-18T15:16:38Z</time>
      </trkpt>
      <trkpt lat="43.23137" lon="5.50136">
        <ele>193.9</ele>
        <time>2025-10-18T15:16:39Z</time>
      </trkpt>
      <trkpt lat="43.23137" lon="5.50136">
        <ele>193.9</ele>
        <time>2025-10-18T15:16:40Z</time>
      </trkpt>
      <trkpt lat="43.23137" lon="5.50136">
        <ele>193.9</ele>
        <time>2025-10-18T15:16:41Z</time>
      </trkpt>
      <trkpt lat="43.23137" lon="5.50136">
        <ele>194</ele>
        <time>2025-10-18T15:16:42Z</time>
      </trkpt>
      <trkpt lat="43.23137" lon="5.50136">
        <ele>194</ele>
        <time>2025-10-18T15:16:43Z</time>
      </trkpt>
      <trkpt lat="43.23137" lon="5.50136">
        <ele>194</ele>
        <time>2025-10-18T15:16:44Z</time>
      </trkpt>
      <trkpt lat="43.23137" lon="5.50135">
        <ele>193.9</ele>
        <time>2025-10-18T15:16:45Z</time>
      </trkpt>
      <trkpt lat="43.23137" lon="5.50135">
        <ele>193.9</ele>
        <time>2025-10-18T15:16:46Z</time>
      </trkpt>
      <trkpt lat="43.23137" lon="5.50135">
        <ele>193.9</ele>
        <time>2025-10-18T15:16:47Z</time>
      </trkpt>
      <trkpt lat="43.23137" lon="5.50135">
        <ele>193.8</ele>
        <time>2025-10-18T15:16:48Z</time>
      </trkpt>
      <trkpt lat="43.23137" lon="5.50135">
        <ele>193.9</ele>
        <time>2025-10-18T15:16:49Z</time>
      </trkpt>
      <trkpt lat="43.23137" lon="5.50135">
        <ele>194</ele>
        <time>2025-10-18T15:16:50Z</time>
      </trkpt>
      <trkpt lat="43.23137" lon="5.50135">
        <ele>194</ele>
        <time>2025-10-18T15:16:51Z</time>
      </trkpt>
      <trkpt lat="43.23137" lon="5.50135">
        <ele>194</ele>
        <time>2025-10-18T15:16:52Z</time>
      </trkpt>
      <trkpt lat="43.23137" lon="5.50135">
        <ele>194.1</ele>
        <time>2025-10-18T15:16:53Z</time>
      </trkpt>
      <trkpt lat="43.23136" lon="5.50134">
        <ele>194</ele>
        <time>2025-10-18T15:16:54Z</time>
      </trkpt>
      <trkpt lat="43.23136" lon="5.50134">
        <ele>194.1</ele>
        <time>2025-10-18T15:16:55Z</time>
      </trkpt>
      <trkpt lat="43.23136" lon="5.50134">
        <ele>194.1</ele>
        <time>2025-10-18T15:16:56Z</time>
      </trkpt>
      <trkpt lat="43.23136" lon="5.50134">
        <ele>194.1</ele>
        <time>2025-10-18T15:16:57Z</time>
      </trkpt>
      <trkpt lat="43.23136" lon="5.50134">
        <ele>194.1</ele>
        <time>2025-10-18T15:16:58Z</time>
      </trkpt>
      <trkpt lat="43.23136" lon="5.50134">
        <ele>194.1</ele>
        <time>2025-10-18T15:16:59Z</time>
      </trkpt>
      <trkpt lat="43.23136" lon="5.50134">
        <ele>194</ele>
        <time>2025-10-18T15:17:00Z</time>
      </trkpt>
      <trkpt lat="43.23136" lon="5.50134">
        <ele>194</ele>
        <time>2025-10-18T15:17:01Z</time>
      </trkpt>
      <trkpt lat="43.23136" lon="5.50134">
        <ele>194</ele>
        <time>2025-10-18T15:17:02Z</time>
      </trkpt>
      <trkpt lat="43.23136" lon="5.50134">
        <ele>194.1</ele>
        <time>2025-10-18T15:17:03Z</time>
      </trkpt>
      <trkpt lat="43.23136" lon="5.50134">
        <ele>194</ele>
        <time>2025-10-18T15:17:04Z</time>
      </trkpt>
      <trkpt lat="43.23136" lon="5.50134">
        <ele>194</ele>
        <time>2025-10-18T15:17:05Z</time>
      </trkpt>
      <trkpt lat="43.23136" lon="5.50134">
        <ele>194</ele>
        <time>2025-10-18T15:17:06Z</time>
      </trkpt>
      <trkpt lat="43.23136" lon="5.50134">
        <ele>194.1</ele>
        <time>2025-10-18T15:17:07Z</time>
      </trkpt>
      <trkpt lat="43.23136" lon="5.50134">
        <ele>194.1</ele>
        <time>2025-10-18T15:17:08Z</time>
      </trkpt>
      <trkpt lat="43.23135" lon="5.50134">
        <ele>194.2</ele>
        <time>2025-10-18T15:17:09Z</time>
      </trkpt>
      <trkpt lat="43.23135" lon="5.50134">
        <ele>194.2</ele>
        <time>2025-10-18T15:17:10Z</time>
      </trkpt>
      <trkpt lat="43.23135" lon="5.50134">
        <ele>194.3</ele>
        <time>2025-10-18T15:17:11Z</time>
      </trkpt>
      <trkpt lat="43.23135" lon="5.50134">
        <ele>194.4</ele>
        <time>2025-10-18T15:17:12Z</time>
      </trkpt>
      <trkpt lat="43.23135" lon="5.50134">
        <ele>194.4</ele>
        <time>2025-10-18T15:17:13Z</time>
      </trkpt>
      <trkpt lat="43.23135" lon="5.50134">
        <ele>194.4</ele>
        <time>2025-10-18T15:17:14Z</time>
      </trkpt>
      <trkpt lat="43.23135" lon="5.50134">
        <ele>194.5</ele>
        <time>2025-10-18T15:17:15Z</time>
      </trkpt>
      <trkpt lat="43.23135" lon="5.50134">
        <ele>194.5</ele>
        <time>2025-10-18T15:17:16Z</time>
      </trkpt>
      <trkpt lat="43.23135" lon="5.50134">
        <ele>194.5</ele>
        <time>2025-10-18T15:17:17Z</time>
      </trkpt>
      <trkpt lat="43.23135" lon="5.50134">
        <ele>194.5</ele>
        <time>2025-10-18T15:17:18Z</time>
      </trkpt>
      <trkpt lat="43.23135" lon="5.50134">
        <ele>194.5</ele>
        <time>2025-10-18T15:17:19Z</time>
      </trkpt>
      <trkpt lat="43.23135" lon="5.50134">
        <ele>194.5</ele>
        <time>2025-10-18T15:17:20Z</time>
      </trkpt>
      <trkpt lat="43.23135" lon="5.50134">
        <ele>194.6</ele>
        <time>2025-10-18T15:17:21Z</time>
      </trkpt>
      <trkpt lat="43.23135" lon="5.50134">
        <ele>194.5</ele>
        <time>2025-10-18T15:17:22Z</time>
      </trkpt>
      <trkpt lat="43.23135" lon="5.50134">
        <ele>194.4</ele>
        <time>2025-10-18T15:17:23Z</time>
      </trkpt>
      <trkpt lat="43.23135" lon="5.50134">
        <ele>194.2</ele>
        <time>2025-10-18T15:17:24Z</time>
      </trkpt>
      <trkpt lat="43.23135" lon="5.50134">
        <ele>194.1</ele>
        <time>2025-10-18T15:17:25Z</time>
      </trkpt>
      <trkpt lat="43.23135" lon="5.50134">
        <ele>194.1</ele>
        <time>2025-10-18T15:17:26Z</time>
      </trkpt>
      <trkpt lat="43.23135" lon="5.50135">
        <ele>194</ele>
        <time>2025-10-18T15:17:27Z</time>
      </trkpt>
      <trkpt lat="43.23135" lon="5.50134">
        <ele>193.9</ele>
        <time>2025-10-18T15:17:28Z</time>
      </trkpt>
      <trkpt lat="43.23135" lon="5.50135">
        <ele>193.9</ele>
        <time>2025-10-18T15:17:29Z</time>
      </trkpt>
      <trkpt lat="43.23136" lon="5.50135">
        <ele>193.9</ele>
        <time>2025-10-18T15:17:30Z</time>
      </trkpt>
      <trkpt lat="43.23136" lon="5.50135">
        <ele>193.9</ele>
        <time>2025-10-18T15:17:31Z</time>
      </trkpt>
      <trkpt lat="43.23136" lon="5.50135">
        <ele>194</ele>
        <time>2025-10-18T15:17:32Z</time>
      </trkpt>
      <trkpt lat="43.23136" lon="5.50135">
        <ele>194</ele>
        <time>2025-10-18T15:17:33Z</time>
      </trkpt>
      <trkpt lat="43.23136" lon="5.50135">
        <ele>194</ele>
        <time>2025-10-18T15:17:34Z</time>
      </trkpt>
      <trkpt lat="43.23135" lon="5.50135">
        <ele>193.9</ele>
        <time>2025-10-18T15:17:35Z</time>
      </trkpt>
      <trkpt lat="43.23135" lon="5.50134">
        <ele>193.9</ele>
        <time>2025-10-18T15:17:36Z</time>
      </trkpt>
      <trkpt lat="43.23135" lon="5.50134">
        <ele>193.9</ele>
        <time>2025-10-18T15:17:37Z</time>
      </trkpt>
      <trkpt lat="43.23135" lon="5.50134">
        <ele>193.8</ele>
        <time>2025-10-18T15:17:38Z</time>
      </trkpt>
      <trkpt lat="43.23135" lon="5.50134">
        <ele>193.9</ele>
        <time>2025-10-18T15:17:39Z</time>
      </trkpt>
      <trkpt lat="43.23135" lon="5.50133">
        <ele>193.9</ele>
        <time>2025-10-18T15:17:40Z</time>
      </trkpt>
      <trkpt lat="43.23135" lon="5.50133">
        <ele>193.8</ele>
        <time>2025-10-18T15:17:41Z</time>
      </trkpt>
      <trkpt lat="43.23135" lon="5.50133">
        <ele>193.8</ele>
        <time>2025-10-18T15:17:42Z</time>
      </trkpt>
      <trkpt lat="43.23135" lon="5.50132">
        <ele>193.8</ele>
        <time>2025-10-18T15:17:43Z</time>
      </trkpt>
      <trkpt lat="43.23135" lon="5.50132">
        <ele>193.8</ele>
        <time>2025-10-18T15:17:44Z</time>
      </trkpt>
      <trkpt lat="43.23135" lon="5.50132">
        <ele>193.9</ele>
        <time>2025-10-18T15:17:45Z</time>
      </trkpt>
      <trkpt lat="43.23135" lon="5.50132">
        <ele>194</ele>
        <time>2025-10-18T15:17:46Z</time>
      </trkpt>
      <trkpt lat="43.23135" lon="5.50132">
        <ele>194</ele>
        <time>2025-10-18T15:17:47Z</time>
      </trkpt>
      <trkpt lat="43.23135" lon="5.50132">
        <ele>194.1</ele>
        <time>2025-10-18T15:17:48Z</time>
      </trkpt>
      <trkpt lat="43.23135" lon="5.50132">
        <ele>194.1</ele>
        <time>2025-10-18T15:17:49Z</time>
      </trkpt>
      <trkpt lat="43.23135" lon="5.50132">
        <ele>194.1</ele>
        <time>2025-10-18T15:17:50Z</time>
      </trkpt>
      <trkpt lat="43.23135" lon="5.50132">
        <ele>194.1</ele>
        <time>2025-10-18T15:17:51Z</time>
      </trkpt>
      <trkpt lat="43.23135" lon="5.50132">
        <ele>194</ele>
        <time>2025-10-18T15:17:52Z</time>
      </trkpt>
      <trkpt lat="43.23135" lon="5.50132">
        <ele>194</ele>
        <time>2025-10-18T15:17:53Z</time>
      </trkpt>
      <trkpt lat="43.23135" lon="5.50132">
        <ele>194.1</ele>
        <time>2025-10-18T15:17:54Z</time>
      </trkpt>
      <trkpt lat="43.23135" lon="5.50132">
        <ele>194</ele>
        <time>2025-10-18T15:17:55Z</time>
      </trkpt>
      <trkpt lat="43.23136" lon="5.50132">
        <ele>194</ele>
        <time>2025-10-18T15:17:56Z</time>
      </trkpt>
      <trkpt lat="43.23136" lon="5.50132">
        <ele>194</ele>
        <time>2025-10-18T15:17:57Z</time>
      </trkpt>
      <trkpt lat="43.23136" lon="5.50132">
        <ele>194.1</ele>
        <time>2025-10-18T15:17:58Z</time>
      </trkpt>
      <trkpt lat="43.23136" lon="5.50132">
        <ele>194.1</ele>
        <time>2025-10-18T15:17:59Z</time>
      </trkpt>
      <trkpt lat="43.23136" lon="5.50132">
        <ele>194.1</ele>
        <time>2025-10-18T15:18:00Z</time>
      </trkpt>
      <trkpt lat="43.23136" lon="5.50132">
        <ele>194</ele>
        <time>2025-10-18T15:18:01Z</time>
      </trkpt>
      <trkpt lat="43.23136" lon="5.50132">
        <ele>194.1</ele>
        <time>2025-10-18T15:18:02Z</time>
      </trkpt>
      <trkpt lat="43.23136" lon="5.50132">
        <ele>194.1</ele>
        <time>2025-10-18T15:18:03Z</time>
      </trkpt>
      <trkpt lat="43.23137" lon="5.50132">
        <ele>194.2</ele>
        <time>2025-10-18T15:18:04Z</time>
      </trkpt>
      <trkpt lat="43.23137" lon="5.50132">
        <ele>194.2</ele>
        <time>2025-10-18T15:18:05Z</time>
      </trkpt>
      <trkpt lat="43.23137" lon="5.50131">
        <ele>194.2</ele>
        <time>2025-10-18T15:18:06Z</time>
      </trkpt>
      <trkpt lat="43.23137" lon="5.50131">
        <ele>194.2</ele>
        <time>2025-10-18T15:18:07Z</time>
      </trkpt>
      <trkpt lat="43.23137" lon="5.50131">
        <ele>194.2</ele>
        <time>2025-10-18T15:18:08Z</time>
      </trkpt>
      <trkpt lat="43.23137" lon="5.50131">
        <ele>194.1</ele>
        <time>2025-10-18T15:18:09Z</time>
      </trkpt>
      <trkpt lat="43.23137" lon="5.50131">
        <ele>194.1</ele>
        <time>2025-10-18T15:18:10Z</time>
      </trkpt>
      <trkpt lat="43.23137" lon="5.50131">
        <ele>194.1</ele>
        <time>2025-10-18T15:18:11Z</time>
      </trkpt>
      <trkpt lat="43.23137" lon="5.50131">
        <ele>194.2</ele>
        <time>2025-10-18T15:18:12Z</time>
      </trkpt>
      <trkpt lat="43.23137" lon="5.50131">
        <ele>194.1</ele>
        <time>2025-10-18T15:18:13Z</time>
      </trkpt>
      <trkpt lat="43.23137" lon="5.50131">
        <ele>194.1</ele>
        <time>2025-10-18T15:18:14Z</time>
      </trkpt>
      <trkpt lat="43.23137" lon="5.50131">
        <ele>194.1</ele>
        <time>2025-10-18T15:18:15Z</time>
      </trkpt>
      <trkpt lat="43.23137" lon="5.50131">
        <ele>194.1</ele>
        <time>2025-10-18T15:18:16Z</time>
      </trkpt>
      <trkpt lat="43.23137" lon="5.50131">
        <ele>194</ele>
        <time>2025-10-18T15:18:17Z</time>
      </trkpt>
      <trkpt lat="43.23138" lon="5.50131">
        <ele>194.1</ele>
        <time>2025-10-18T15:18:18Z</time>
      </trkpt>
      <trkpt lat="43.23138" lon="5.50131">
        <ele>194.1</ele>
        <time>2025-10-18T15:18:19Z</time>
      </trkpt>
      <trkpt lat="43.23138" lon="5.50131">
        <ele>194.2</ele>
        <time>2025-10-18T15:18:20Z</time>
      </trkpt>
      <trkpt lat="43.23139" lon="5.50131">
        <ele>194.2</ele>
        <time>2025-10-18T15:18:21Z</time>
      </trkpt>
      <trkpt lat="43.23139" lon="5.50131">
        <ele>194.2</ele>
        <time>2025-10-18T15:18:22Z</time>
      </trkpt>
      <trkpt lat="43.2314" lon="5.50131">
        <ele>194.3</ele>
        <time>2025-10-18T15:18:23Z</time>
      </trkpt>
      <trkpt lat="43.2314" lon="5.5013">
        <ele>194.1</ele>
        <time>2025-10-18T15:18:24Z</time>
      </trkpt>
      <trkpt lat="43.2314" lon="5.5013">
        <ele>194.1</ele>
        <time>2025-10-18T15:18:25Z</time>
      </trkpt>
      <trkpt lat="43.2314" lon="5.5013">
        <ele>194</ele>
        <time>2025-10-18T15:18:26Z</time>
      </trkpt>
      <trkpt lat="43.2314" lon="5.5013">
        <ele>193.9</ele>
        <time>2025-10-18T15:18:27Z</time>
      </trkpt>
      <trkpt lat="43.23141" lon="5.5013">
        <ele>193.9</ele>
        <time>2025-10-18T15:18:28Z</time>
      </trkpt>
      <trkpt lat="43.23141" lon="5.5013">
        <ele>193.9</ele>
        <time>2025-10-18T15:18:29Z</time>
      </trkpt>
      <trkpt lat="43.23141" lon="5.5013">
        <ele>193.9</ele>
        <time>2025-10-18T15:18:30Z</time>
      </trkpt>
      <trkpt lat="43.23141" lon="5.5013">
        <ele>194</ele>
        <time>2025-10-18T15:18:31Z</time>
      </trkpt>
      <trkpt lat="43.23141" lon="5.5013">
        <ele>194.1</ele>
        <time>2025-10-18T15:18:32Z</time>
      </trkpt>
      <trkpt lat="43.23141" lon="5.5013">
        <ele>194.1</ele>
        <time>2025-10-18T15:18:33Z</time>
      </trkpt>
      <trkpt lat="43.23141" lon="5.5013">
        <ele>194.1</ele>
        <time>2025-10-18T15:18:34Z</time>
      </trkpt>
      <trkpt lat="43.23141" lon="5.5013">
        <ele>194.1</ele>
        <time>2025-10-18T15:18:35Z</time>
      </trkpt>
      <trkpt lat="43.23141" lon="5.5013">
        <ele>194</ele>
        <time>2025-10-18T15:18:36Z</time>
      </trkpt>
      <trkpt lat="43.23141" lon="5.5013">
        <ele>193.9</ele>
        <time>2025-10-18T15:18:37Z</time>
      </trkpt>
      <trkpt lat="43.23141" lon="5.5013">
        <ele>193.9</ele>
        <time>2025-10-18T15:18:38Z</time>
      </trkpt>
      <trkpt lat="43.23141" lon="5.5013">
        <ele>193.8</ele>
        <time>2025-10-18T15:18:39Z</time>
      </trkpt>
      <trkpt lat="43.23141" lon="5.5013">
        <ele>193.8</ele>
        <time>2025-10-18T15:18:40Z</time>
      </trkpt>
      <trkpt lat="43.23141" lon="5.5013">
        <ele>193.8</ele>
        <time>2025-10-18T15:18:41Z</time>
      </trkpt>
      <trkpt lat="43.23141" lon="5.5013">
        <ele>193.8</ele>
        <time>2025-10-18T15:18:42Z</time>
      </trkpt>
      <trkpt lat="43.23141" lon="5.5013">
        <ele>193.9</ele>
        <time>2025-10-18T15:18:43Z</time>
      </trkpt>
      <trkpt lat="43.23141" lon="5.5013">
        <ele>193.9</ele>
        <time>2025-10-18T15:18:44Z</time>
      </trkpt>
      <trkpt lat="43.23142" lon="5.5013">
        <ele>193.9</ele>
        <time>2025-10-18T15:18:45Z</time>
      </trkpt>
      <trkpt lat="43.23142" lon="5.5013">
        <ele>193.8</ele>
        <time>2025-10-18T15:18:46Z</time>
      </trkpt>
      <trkpt lat="43.23142" lon="5.5013">
        <ele>193.8</ele>
        <time>2025-10-18T15:18:47Z</time>
      </trkpt>
      <trkpt lat="43.23142" lon="5.5013">
        <ele>193.8</ele>
        <time>2025-10-18T15:18:48Z</time>
      </trkpt>
      <trkpt lat="43.23142" lon="5.5013">
        <ele>193.7</ele>
        <time>2025-10-18T15:18:49Z</time>
      </trkpt>
      <trkpt lat="43.23142" lon="5.5013">
        <ele>193.7</ele>
        <time>2025-10-18T15:18:50Z</time>
      </trkpt>
      <trkpt lat="43.23142" lon="5.5013">
        <ele>193.6</ele>
        <time>2025-10-18T15:18:51Z</time>
      </trkpt>
      <trkpt lat="43.23142" lon="5.5013">
        <ele>193.6</ele>
        <time>2025-10-18T15:18:52Z</time>
      </trkpt>
      <trkpt lat="43.23142" lon="5.5013">
        <ele>193.6</ele>
        <time>2025-10-18T15:18:53Z</time>
      </trkpt>
      <trkpt lat="43.23142" lon="5.5013">
        <ele>193.6</ele>
        <time>2025-10-18T15:18:54Z</time>
      </trkpt>
      <trkpt lat="43.23142" lon="5.5013">
        <ele>193.6</ele>
        <time>2025-10-18T15:18:55Z</time>
      </trkpt>
      <trkpt lat="43.23142" lon="5.5013">
        <ele>193.6</ele>
        <time>2025-10-18T15:18:56Z</time>
      </trkpt>
      <trkpt lat="43.23142" lon="5.5013">
        <ele>193.6</ele>
        <time>2025-10-18T15:18:57Z</time>
      </trkpt>
      <trkpt lat="43.23142" lon="5.5013">
        <ele>193.6</ele>
        <time>2025-10-18T15:18:58Z</time>
      </trkpt>
      <trkpt lat="43.23142" lon="5.5013">
        <ele>193.6</ele>
        <time>2025-10-18T15:18:59Z</time>
      </trkpt>
      <trkpt lat="43.23142" lon="5.50129">
        <ele>193.6</ele>
        <time>2025-10-18T15:19:00Z</time>
      </trkpt>
      <trkpt lat="43.23143" lon="5.50129">
        <ele>193.6</ele>
        <time>2025-10-18T15:19:01Z</time>
      </trkpt>
      <trkpt lat="43.23143" lon="5.50129">
        <ele>193.6</ele>
        <time>2025-10-18T15:19:02Z</time>
      </trkpt>
      <trkpt lat="43.23143" lon="5.50129">
        <ele>193.7</ele>
        <time>2025-10-18T15:19:03Z</time>
      </trkpt>
      <trkpt lat="43.23143" lon="5.50129">
        <ele>193.7</ele>
        <time>2025-10-18T15:19:04Z</time>
      </trkpt>
      <trkpt lat="43.23143" lon="5.50129">
        <ele>193.7</ele>
        <time>2025-10-18T15:19:05Z</time>
      </trkpt>
      <trkpt lat="43.23143" lon="5.50129">
        <ele>193.8</ele>
        <time>2025-10-18T15:19:06Z</time>
      </trkpt>
      <trkpt lat="43.23143" lon="5.50129">
        <ele>193.8</ele>
        <time>2025-10-18T15:19:07Z</time>
      </trkpt>
      <trkpt lat="43.23143" lon="5.50129">
        <ele>193.8</ele>
        <time>2025-10-18T15:19:08Z</time>
      </trkpt>
      <trkpt lat="43.23143" lon="5.50129">
        <ele>193.8</ele>
        <time>2025-10-18T15:19:09Z</time>
      </trkpt>
      <trkpt lat="43.23142" lon="5.50129">
        <ele>193.7</ele>
        <time>2025-10-18T15:19:10Z</time>
      </trkpt>
      <trkpt lat="43.23142" lon="5.5013">
        <ele>193.7</ele>
        <time>2025-10-18T15:19:11Z</time>
      </trkpt>
      <trkpt lat="43.23142" lon="5.50129">
        <ele>193.7</ele>
        <time>2025-10-18T15:19:12Z</time>
      </trkpt>
      <trkpt lat="43.23142" lon="5.50129">
        <ele>193.7</ele>
        <time>2025-10-18T15:19:13Z</time>
      </trkpt>
      <trkpt lat="43.23142" lon="5.50129">
        <ele>193.7</ele>
        <time>2025-10-18T15:19:14Z</time>
      </trkpt>
      <trkpt lat="43.23142" lon="5.5013">
        <ele>193.7</ele>
        <time>2025-10-18T15:19:15Z</time>
      </trkpt>
      <trkpt lat="43.23142" lon="5.5013">
        <ele>193.8</ele>
        <time>2025-10-18T15:19:16Z</time>
      </trkpt>
      <trkpt lat="43.23142" lon="5.50129">
        <ele>193.8</ele>
        <time>2025-10-18T15:19:17Z</time>
      </trkpt>
      <trkpt lat="43.23142" lon="5.50129">
        <ele>193.8</ele>
        <time>2025-10-18T15:19:18Z</time>
      </trkpt>
      <trkpt lat="43.23143" lon="5.50129">
        <ele>193.8</ele>
        <time>2025-10-18T15:19:19Z</time>
      </trkpt>
      <trkpt lat="43.23143" lon="5.50129">
        <ele>193.8</ele>
        <time>2025-10-18T15:19:20Z</time>
      </trkpt>
      <trkpt lat="43.23143" lon="5.50129">
        <ele>193.8</ele>
        <time>2025-10-18T15:19:21Z</time>
      </trkpt>
      <trkpt lat="43.23143" lon="5.50129">
        <ele>193.8</ele>
        <time>2025-10-18T15:19:22Z</time>
      </trkpt>
      <trkpt lat="43.23143" lon="5.50129">
        <ele>193.8</ele>
        <time>2025-10-18T15:19:23Z</time>
      </trkpt>
      <trkpt lat="43.23143" lon="5.50129">
        <ele>193.9</ele>
        <time>2025-10-18T15:19:24Z</time>
      </trkpt>
      <trkpt lat="43.23143" lon="5.50129">
        <ele>193.9</ele>
        <time>2025-10-18T15:19:25Z</time>
      </trkpt>
      <trkpt lat="43.23143" lon="5.50129">
        <ele>193.9</ele>
        <time>2025-10-18T15:19:26Z</time>
      </trkpt>
      <trkpt lat="43.23143" lon="5.50129">
        <ele>193.9</ele>
        <time>2025-10-18T15:19:27Z</time>
      </trkpt>
      <trkpt lat="43.23143" lon="5.50129">
        <ele>193.9</ele>
        <time>2025-10-18T15:19:28Z</time>
      </trkpt>
      <trkpt lat="43.23143" lon="5.50129">
        <ele>194</ele>
        <time>2025-10-18T15:19:29Z</time>
      </trkpt>
      <trkpt lat="43.23143" lon="5.50129">
        <ele>194</ele>
        <time>2025-10-18T15:19:30Z</time>
      </trkpt>
      <trkpt lat="43.23143" lon="5.50129">
        <ele>194</ele>
        <time>2025-10-18T15:19:31Z</time>
      </trkpt>
      <trkpt lat="43.23143" lon="5.50129">
        <ele>194.1</ele>
        <time>2025-10-18T15:19:32Z</time>
      </trkpt>
      <trkpt lat="43.23143" lon="5.50129">
        <ele>194.1</ele>
        <time>2025-10-18T15:19:33Z</time>
      </trkpt>
      <trkpt lat="43.23143" lon="5.50129">
        <ele>194.1</ele>
        <time>2025-10-18T15:19:34Z</time>
      </trkpt>
      <trkpt lat="43.23143" lon="5.50129">
        <ele>194.2</ele>
        <time>2025-10-18T15:19:35Z</time>
      </trkpt>
      <trkpt lat="43.23143" lon="5.50129">
        <ele>194.2</ele>
        <time>2025-10-18T15:19:36Z</time>
      </trkpt>
      <trkpt lat="43.23143" lon="5.50129">
        <ele>194.2</ele>
        <time>2025-10-18T15:19:37Z</time>
      </trkpt>
      <trkpt lat="43.23143" lon="5.50129">
        <ele>194.3</ele>
        <time>2025-10-18T15:19:38Z</time>
      </trkpt>
      <trkpt lat="43.23143" lon="5.50129">
        <ele>194.3</ele>
        <time>2025-10-18T15:19:39Z</time>
      </trkpt>
      <trkpt lat="43.23143" lon="5.50129">
        <ele>194.3</ele>
        <time>2025-10-18T15:19:40Z</time>
      </trkpt>
      <trkpt lat="43.23143" lon="5.50129">
        <ele>194.3</ele>
        <time>2025-10-18T15:19:41Z</time>
      </trkpt>
      <trkpt lat="43.23143" lon="5.50129">
        <ele>194.3</ele>
        <time>2025-10-18T15:19:42Z</time>
      </trkpt>
      <trkpt lat="43.23143" lon="5.50129">
        <ele>194.3</ele>
        <time>2025-10-18T15:19:43Z</time>
      </trkpt>
      <trkpt lat="43.23143" lon="5.50129">
        <ele>194.2</ele>
        <time>2025-10-18T15:19:44Z</time>
      </trkpt>
      <trkpt lat="43.23143" lon="5.50129">
        <ele>194.1</ele>
        <time>2025-10-18T15:19:45Z</time>
      </trkpt>
      <trkpt lat="43.23143" lon="5.50129">
        <ele>194.2</ele>
        <time>2025-10-18T15:19:46Z</time>
      </trkpt>
      <trkpt lat="43.23142" lon="5.50129">
        <ele>194.2</ele>
        <time>2025-10-18T15:19:47Z</time>
      </trkpt>
      <trkpt lat="43.23142" lon="5.50129">
        <ele>194.2</ele>
        <time>2025-10-18T15:19:48Z</time>
      </trkpt>
      <trkpt lat="43.23142" lon="5.50129">
        <ele>194.2</ele>
        <time>2025-10-18T15:19:49Z</time>
      </trkpt>
      <trkpt lat="43.23141" lon="5.50129">
        <ele>194.3</ele>
        <time>2025-10-18T15:19:50Z</time>
      </trkpt>
      <trkpt lat="43.23141" lon="5.50129">
        <ele>194.2</ele>
        <time>2025-10-18T15:19:51Z</time>
      </trkpt>
      <trkpt lat="43.2314" lon="5.50129">
        <ele>194.1</ele>
        <time>2025-10-18T15:19:52Z</time>
      </trkpt>
      <trkpt lat="43.2314" lon="5.50129">
        <ele>194.1</ele>
        <time>2025-10-18T15:19:53Z</time>
      </trkpt>
      <trkpt lat="43.2314" lon="5.50129">
        <ele>194</ele>
        <time>2025-10-18T15:19:54Z</time>
      </trkpt>
      <trkpt lat="43.23139" lon="5.50129">
        <ele>194</ele>
        <time>2025-10-18T15:19:55Z</time>
      </trkpt>
      <trkpt lat="43.23139" lon="5.50129">
        <ele>193.9</ele>
        <time>2025-10-18T15:19:56Z</time>
      </trkpt>
      <trkpt lat="43.23139" lon="5.5013">
        <ele>193.9</ele>
        <time>2025-10-18T15:19:57Z</time>
      </trkpt>
      <trkpt lat="43.23139" lon="5.5013">
        <ele>193.9</ele>
        <time>2025-10-18T15:19:58Z</time>
      </trkpt>
      <trkpt lat="43.23139" lon="5.5013">
        <ele>193.9</ele>
        <time>2025-10-18T15:19:59Z</time>
      </trkpt>
      <trkpt lat="43.23139" lon="5.5013">
        <ele>193.9</ele>
        <time>2025-10-18T15:20:00Z</time>
      </trkpt>
      <trkpt lat="43.2314" lon="5.5013">
        <ele>194</ele>
        <time>2025-10-18T15:20:01Z</time>
      </trkpt>
      <trkpt lat="43.23139" lon="5.5013">
        <ele>194</ele>
        <time>2025-10-18T15:20:02Z</time>
      </trkpt>
      <trkpt lat="43.23139" lon="5.5013">
        <ele>194</ele>
        <time>2025-10-18T15:20:03Z</time>
      </trkpt>
      <trkpt lat="43.23139" lon="5.5013">
        <ele>194.1</ele>
        <time>2025-10-18T15:20:04Z</time>
      </trkpt>
      <trkpt lat="43.23139" lon="5.5013">
        <ele>194.1</ele>
        <time>2025-10-18T15:20:05Z</time>
      </trkpt>
      <trkpt lat="43.23139" lon="5.50129">
        <ele>194.1</ele>
        <time>2025-10-18T15:20:06Z</time>
      </trkpt>
      <trkpt lat="43.23138" lon="5.50129">
        <ele>194.1</ele>
        <time>2025-10-18T15:20:07Z</time>
      </trkpt>
      <trkpt lat="43.23139" lon="5.50129">
        <ele>194.1</ele>
        <time>2025-10-18T15:20:08Z</time>
      </trkpt>
      <trkpt lat="43.23139" lon="5.50129">
        <ele>194.1</ele>
        <time>2025-10-18T15:20:09Z</time>
      </trkpt>
      <trkpt lat="43.23139" lon="5.50129">
        <ele>194.1</ele>
        <time>2025-10-18T15:20:10Z</time>
      </trkpt>
      <trkpt lat="43.23139" lon="5.50129">
        <ele>194.1</ele>
        <time>2025-10-18T15:20:11Z</time>
      </trkpt>
      <trkpt lat="43.23139" lon="5.50129">
        <ele>194.1</ele>
        <time>2025-10-18T15:20:12Z</time>
      </trkpt>
      <trkpt lat="43.23139" lon="5.50129">
        <ele>194.2</ele>
        <time>2025-10-18T15:20:13Z</time>
      </trkpt>
      <trkpt lat="43.23138" lon="5.50129">
        <ele>194.3</ele>
        <time>2025-10-18T15:20:14Z</time>
      </trkpt>
      <trkpt lat="43.23138" lon="5.50129">
        <ele>194.2</ele>
        <time>2025-10-18T15:20:15Z</time>
      </trkpt>
      <trkpt lat="43.23139" lon="5.50129">
        <ele>194.2</ele>
        <time>2025-10-18T15:20:16Z</time>
      </trkpt>
      <trkpt lat="43.23139" lon="5.50129">
        <ele>194.1</ele>
        <time>2025-10-18T15:20:17Z</time>
      </trkpt>
      <trkpt lat="43.23139" lon="5.50129">
        <ele>194</ele>
        <time>2025-10-18T15:20:18Z</time>
      </trkpt>
      <trkpt lat="43.23138" lon="5.50128">
        <ele>194</ele>
        <time>2025-10-18T15:20:19Z</time>
      </trkpt>
      <trkpt lat="43.23138" lon="5.50128">
        <ele>193.9</ele>
        <time>2025-10-18T15:20:20Z</time>
      </trkpt>
      <trkpt lat="43.23138" lon="5.50128">
        <ele>193.8</ele>
        <time>2025-10-18T15:20:21Z</time>
      </trkpt>
      <trkpt lat="43.23138" lon="5.50128">
        <ele>193.8</ele>
        <time>2025-10-18T15:20:22Z</time>
      </trkpt>
      <trkpt lat="43.23138" lon="5.50128">
        <ele>193.8</ele>
        <time>2025-10-18T15:20:23Z</time>
      </trkpt>
      <trkpt lat="43.23138" lon="5.50128">
        <ele>193.7</ele>
        <time>2025-10-18T15:20:24Z</time>
      </trkpt>
      <trkpt lat="43.23138" lon="5.50127">
        <ele>193.7</ele>
        <time>2025-10-18T15:20:25Z</time>
      </trkpt>
      <trkpt lat="43.23138" lon="5.50127">
        <ele>193.8</ele>
        <time>2025-10-18T15:20:26Z</time>
      </trkpt>
      <trkpt lat="43.23138" lon="5.50127">
        <ele>193.9</ele>
        <time>2025-10-18T15:20:27Z</time>
      </trkpt>
      <trkpt lat="43.23138" lon="5.50128">
        <ele>194</ele>
        <time>2025-10-18T15:20:28Z</time>
      </trkpt>
      <trkpt lat="43.23138" lon="5.50127">
        <ele>194</ele>
        <time>2025-10-18T15:20:29Z</time>
      </trkpt>
      <trkpt lat="43.23138" lon="5.50127">
        <ele>194.1</ele>
        <time>2025-10-18T15:20:30Z</time>
      </trkpt>
      <trkpt lat="43.23138" lon="5.50127">
        <ele>194.1</ele>
        <time>2025-10-18T15:20:31Z</time>
      </trkpt>
      <trkpt lat="43.23138" lon="5.50127">
        <ele>194.1</ele>
        <time>2025-10-18T15:20:32Z</time>
      </trkpt>
      <trkpt lat="43.23137" lon="5.50127">
        <ele>194</ele>
        <time>2025-10-18T15:20:33Z</time>
      </trkpt>
      <trkpt lat="43.23137" lon="5.50127">
        <ele>194</ele>
        <time>2025-10-18T15:20:34Z</time>
      </trkpt>
      <trkpt lat="43.23137" lon="5.50127">
        <ele>194</ele>
        <time>2025-10-18T15:20:35Z</time>
      </trkpt>
      <trkpt lat="43.23137" lon="5.50127">
        <ele>194</ele>
        <time>2025-10-18T15:20:36Z</time>
      </trkpt>
      <trkpt lat="43.23137" lon="5.50127">
        <ele>194</ele>
        <time>2025-10-18T15:20:37Z</time>
      </trkpt>
      <trkpt lat="43.23137" lon="5.50127">
        <ele>193.9</ele>
        <time>2025-10-18T15:20:38Z</time>
      </trkpt>
      <trkpt lat="43.23137" lon="5.50127">
        <ele>193.9</ele>
        <time>2025-10-18T15:20:39Z</time>
      </trkpt>
      <trkpt lat="43.23137" lon="5.50127">
        <ele>193.9</ele>
        <time>2025-10-18T15:20:40Z</time>
      </trkpt>
      <trkpt lat="43.23137" lon="5.50127">
        <ele>193.9</ele>
        <time>2025-10-18T15:20:41Z</time>
      </trkpt>
      <trkpt lat="43.23137" lon="5.50128">
        <ele>193.9</ele>
        <time>2025-10-18T15:20:42Z</time>
      </trkpt>
      <trkpt lat="43.23137" lon="5.50128">
        <ele>193.9</ele>
        <time>2025-10-18T15:20:43Z</time>
      </trkpt>
      <trkpt lat="43.23136" lon="5.50128">
        <ele>193.9</ele>
        <time>2025-10-18T15:20:44Z</time>
      </trkpt>
      <trkpt lat="43.23136" lon="5.50128">
        <ele>193.9</ele>
        <time>2025-10-18T15:20:45Z</time>
      </trkpt>
      <trkpt lat="43.23136" lon="5.50128">
        <ele>193.8</ele>
        <time>2025-10-18T15:20:46Z</time>
      </trkpt>
      <trkpt lat="43.23137" lon="5.50128">
        <ele>193.8</ele>
        <time>2025-10-18T15:20:47Z</time>
      </trkpt>
      <trkpt lat="43.23136" lon="5.50129">
        <ele>193.8</ele>
        <time>2025-10-18T15:20:48Z</time>
      </trkpt>
      <trkpt lat="43.23136" lon="5.50129">
        <ele>193.8</ele>
        <time>2025-10-18T15:20:49Z</time>
      </trkpt>
      <trkpt lat="43.23136" lon="5.50129">
        <ele>193.9</ele>
        <time>2025-10-18T15:20:50Z</time>
      </trkpt>
      <trkpt lat="43.23136" lon="5.50129">
        <ele>193.9</ele>
        <time>2025-10-18T15:20:51Z</time>
      </trkpt>
      <trkpt lat="43.23136" lon="5.50129">
        <ele>193.9</ele>
        <time>2025-10-18T15:20:52Z</time>
      </trkpt>
      <trkpt lat="43.23136" lon="5.50129">
        <ele>193.9</ele>
        <time>2025-10-18T15:20:53Z</time>
      </trkpt>
      <trkpt lat="43.23136" lon="5.50129">
        <ele>193.9</ele>
        <time>2025-10-18T15:20:54Z</time>
      </trkpt>
      <trkpt lat="43.23136" lon="5.50129">
        <ele>193.8</ele>
        <time>2025-10-18T15:20:55Z</time>
      </trkpt>
      <trkpt lat="43.23136" lon="5.5013">
        <ele>193.8</ele>
        <time>2025-10-18T15:20:56Z</time>
      </trkpt>
      <trkpt lat="43.23136" lon="5.5013">
        <ele>193.8</ele>
        <time>2025-10-18T15:20:57Z</time>
      </trkpt>
      <trkpt lat="43.23136" lon="5.5013">
        <ele>193.8</ele>
        <time>2025-10-18T15:20:58Z</time>
      </trkpt>
      <trkpt lat="43.23136" lon="5.5013">
        <ele>193.8</ele>
        <time>2025-10-18T15:20:59Z</time>
      </trkpt>
      <trkpt lat="43.23136" lon="5.5013">
        <ele>193.8</ele>
        <time>2025-10-18T15:21:00Z</time>
      </trkpt>
      <trkpt lat="43.23136" lon="5.5013">
        <ele>193.8</ele>
        <time>2025-10-18T15:21:01Z</time>
      </trkpt>
      <trkpt lat="43.23136" lon="5.5013">
        <ele>193.8</ele>
        <time>2025-10-18T15:21:02Z</time>
      </trkpt>
      <trkpt lat="43.23136" lon="5.50131">
        <ele>193.9</ele>
        <time>2025-10-18T15:21:03Z</time>
      </trkpt>
      <trkpt lat="43.23136" lon="5.50131">
        <ele>193.9</ele>
        <time>2025-10-18T15:21:04Z</time>
      </trkpt>
      <trkpt lat="43.23136" lon="5.50131">
        <ele>193.9</ele>
        <time>2025-10-18T15:21:05Z</time>
      </trkpt>
      <trkpt lat="43.23136" lon="5.50131">
        <ele>193.8</ele>
        <time>2025-10-18T15:21:06Z</time>
      </trkpt>
      <trkpt lat="43.23136" lon="5.50131">
        <ele>193.7</ele>
        <time>2025-10-18T15:21:07Z</time>
      </trkpt>
      <trkpt lat="43.23136" lon="5.50131">
        <ele>193.7</ele>
        <time>2025-10-18T15:21:08Z</time>
      </trkpt>
      <trkpt lat="43.23136" lon="5.50132">
        <ele>193.7</ele>
        <time>2025-10-18T15:21:09Z</time>
      </trkpt>
      <trkpt lat="43.23136" lon="5.50132">
        <ele>193.7</ele>
        <time>2025-10-18T15:21:10Z</time>
      </trkpt>
      <trkpt lat="43.23136" lon="5.50132">
        <ele>193.7</ele>
        <time>2025-10-18T15:21:11Z</time>
      </trkpt>
      <trkpt lat="43.23136" lon="5.50132">
        <ele>193.7</ele>
        <time>2025-10-18T15:21:12Z</time>
      </trkpt>
      <trkpt lat="43.23136" lon="5.50132">
        <ele>193.7</ele>
        <time>2025-10-18T15:21:13Z</time>
      </trkpt>
      <trkpt lat="43.23136" lon="5.50132">
        <ele>193.7</ele>
        <time>2025-10-18T15:21:14Z</time>
      </trkpt>
      <trkpt lat="43.23136" lon="5.50132">
        <ele>193.7</ele>
        <time>2025-10-18T15:21:15Z</time>
      </trkpt>
      <trkpt lat="43.23136" lon="5.50132">
        <ele>193.8</ele>
        <time>2025-10-18T15:21:16Z</time>
      </trkpt>
      <trkpt lat="43.23136" lon="5.50132">
        <ele>193.8</ele>
        <time>2025-10-18T15:21:17Z</time>
      </trkpt>
      <trkpt lat="43.23136" lon="5.50132">
        <ele>193.9</ele>
        <time>2025-10-18T15:21:18Z</time>
      </trkpt>
      <trkpt lat="43.23136" lon="5.50132">
        <ele>193.8</ele>
        <time>2025-10-18T15:21:19Z</time>
      </trkpt>
      <trkpt lat="43.23136" lon="5.50133">
        <ele>193.8</ele>
        <time>2025-10-18T15:21:20Z</time>
      </trkpt>
      <trkpt lat="43.23136" lon="5.50133">
        <ele>193.8</ele>
        <time>2025-10-18T15:21:21Z</time>
      </trkpt>
      <trkpt lat="43.23135" lon="5.50133">
        <ele>193.8</ele>
        <time>2025-10-18T15:21:22Z</time>
      </trkpt>
      <trkpt lat="43.23136" lon="5.50133">
        <ele>193.8</ele>
        <time>2025-10-18T15:21:23Z</time>
      </trkpt>
      <trkpt lat="43.23135" lon="5.50133">
        <ele>193.7</ele>
        <time>2025-10-18T15:21:24Z</time>
      </trkpt>
      <trkpt lat="43.23136" lon="5.50133">
        <ele>193.7</ele>
        <time>2025-10-18T15:21:25Z</time>
      </trkpt>
      <trkpt lat="43.23136" lon="5.50133">
        <ele>193.7</ele>
        <time>2025-10-18T15:21:26Z</time>
      </trkpt>
      <trkpt lat="43.23136" lon="5.50133">
        <ele>193.7</ele>
        <time>2025-10-18T15:21:27Z</time>
      </trkpt>
      <trkpt lat="43.23136" lon="5.50133">
        <ele>193.8</ele>
        <time>2025-10-18T15:21:28Z</time>
      </trkpt>
      <trkpt lat="43.23136" lon="5.50133">
        <ele>193.9</ele>
        <time>2025-10-18T15:21:29Z</time>
      </trkpt>
      <trkpt lat="43.23136" lon="5.50133">
        <ele>193.9</ele>
        <time>2025-10-18T15:21:30Z</time>
      </trkpt>
      <trkpt lat="43.23136" lon="5.50133">
        <ele>193.8</ele>
        <time>2025-10-18T15:21:31Z</time>
      </trkpt>
      <trkpt lat="43.23136" lon="5.50133">
        <ele>193.8</ele>
        <time>2025-10-18T15:21:32Z</time>
      </trkpt>
      <trkpt lat="43.23136" lon="5.50133">
        <ele>193.7</ele>
        <time>2025-10-18T15:21:33Z</time>
      </trkpt>
      <trkpt lat="43.23137" lon="5.50134">
        <ele>193.7</ele>
        <time>2025-10-18T15:21:34Z</time>
      </trkpt>
      <trkpt lat="43.23137" lon="5.50134">
        <ele>193.7</ele>
        <time>2025-10-18T15:21:35Z</time>
      </trkpt>
      <trkpt lat="43.23138" lon="5.50135">
        <ele>193.8</ele>
        <time>2025-10-18T15:21:36Z</time>
      </trkpt>
      <trkpt lat="43.23139" lon="5.50135">
        <ele>193.8</ele>
        <time>2025-10-18T15:21:37Z</time>
      </trkpt>
      <trkpt lat="43.2314" lon="5.50135">
        <ele>193.9</ele>
        <time>2025-10-18T15:21:38Z</time>
      </trkpt>
      <trkpt lat="43.23141" lon="5.50135">
        <ele>193.9</ele>
        <time>2025-10-18T15:21:39Z</time>
      </trkpt>
      <trkpt lat="43.23141" lon="5.50135">
        <ele>194</ele>
        <time>2025-10-18T15:21:40Z</time>
      </trkpt>
      <trkpt lat="43.23142" lon="5.50135">
        <ele>194.1</ele>
        <time>2025-10-18T15:21:41Z</time>
      </trkpt>
      <trkpt lat="43.23143" lon="5.50135">
        <ele>194.1</ele>
        <time>2025-10-18T15:21:42Z</time>
      </trkpt>
      <trkpt lat="43.23144" lon="5.50134">
        <ele>194.1</ele>
        <time>2025-10-18T15:21:43Z</time>
      </trkpt>
      <trkpt lat="43.23144" lon="5.50134">
        <ele>194.1</ele>
        <time>2025-10-18T15:21:44Z</time>
      </trkpt>
      <trkpt lat="43.23145" lon="5.50134">
        <ele>194.1</ele>
        <time>2025-10-18T15:21:45Z</time>
      </trkpt>
      <trkpt lat="43.23146" lon="5.50134">
        <ele>194.1</ele>
        <time>2025-10-18T15:21:46Z</time>
      </trkpt>
      <trkpt lat="43.23147" lon="5.50135">
        <ele>194.1</ele>
        <time>2025-10-18T15:21:47Z</time>
      </trkpt>
      <trkpt lat="43.23148" lon="5.50135">
        <ele>194.2</ele>
        <time>2025-10-18T15:21:48Z</time>
      </trkpt>
      <trkpt lat="43.23149" lon="5.50135">
        <ele>194.2</ele>
        <time>2025-10-18T15:21:49Z</time>
      </trkpt>
      <trkpt lat="43.2315" lon="5.50135">
        <ele>194.2</ele>
        <time>2025-10-18T15:21:50Z</time>
      </trkpt>
      <trkpt lat="43.23151" lon="5.50135">
        <ele>194.2</ele>
        <time>2025-10-18T15:21:51Z</time>
      </trkpt>
      <trkpt lat="43.23151" lon="5.50135">
        <ele>194.2</ele>
        <time>2025-10-18T15:21:52Z</time>
      </trkpt>
      <trkpt lat="43.23152" lon="5.50136">
        <ele>194.2</ele>
        <time>2025-10-18T15:21:53Z</time>
      </trkpt>
      <trkpt lat="43.23153" lon="5.50135">
        <ele>194.2</ele>
        <time>2025-10-18T15:21:54Z</time>
      </trkpt>
      <trkpt lat="43.23154" lon="5.50135">
        <ele>194.2</ele>
        <time>2025-10-18T15:21:55Z</time>
      </trkpt>
      <trkpt lat="43.23155" lon="5.50134">
        <ele>194.3</ele>
        <time>2025-10-18T15:21:56Z</time>
      </trkpt>
      <trkpt lat="43.23156" lon="5.50134">
        <ele>194.3</ele>
        <time>2025-10-18T15:21:57Z</time>
      </trkpt>
      <trkpt lat="43.23157" lon="5.50133">
        <ele>194.2</ele>
        <time>2025-10-18T15:21:58Z</time>
      </trkpt>
      <trkpt lat="43.23158" lon="5.50134">
        <ele>194.2</ele>
        <time>2025-10-18T15:21:59Z</time>
      </trkpt>
      <trkpt lat="43.23159" lon="5.50133">
        <ele>194.2</ele>
        <time>2025-10-18T15:22:00Z</time>
      </trkpt>
      <trkpt lat="43.2316" lon="5.50132">
        <ele>194.2</ele>
        <time>2025-10-18T15:22:01Z</time>
      </trkpt>
      <trkpt lat="43.23161" lon="5.50132">
        <ele>194.2</ele>
        <time>2025-10-18T15:22:02Z</time>
      </trkpt>
      <trkpt lat="43.23162" lon="5.50132">
        <ele>194.2</ele>
        <time>2025-10-18T15:22:03Z</time>
      </trkpt>
      <trkpt lat="43.23162" lon="5.50132">
        <ele>194.2</ele>
        <time>2025-10-18T15:22:04Z</time>
      </trkpt>
      <trkpt lat="43.23163" lon="5.50132">
        <ele>194.2</ele>
        <time>2025-10-18T15:22:05Z</time>
      </trkpt>
      <trkpt lat="43.23163" lon="5.50132">
        <ele>194.2</ele>
        <time>2025-10-18T15:22:06Z</time>
      </trkpt>
      <trkpt lat="43.23163" lon="5.50133">
        <ele>194.1</ele>
        <time>2025-10-18T15:22:07Z</time>
      </trkpt>
      <trkpt lat="43.23163" lon="5.50133">
        <ele>194.1</ele>
        <time>2025-10-18T15:22:08Z</time>
      </trkpt>
      <trkpt lat="43.23163" lon="5.50133">
        <ele>194</ele>
        <time>2025-10-18T15:22:09Z</time>
      </trkpt>
      <trkpt lat="43.23163" lon="5.50134">
        <ele>194.1</ele>
        <time>2025-10-18T15:22:10Z</time>
      </trkpt>
      <trkpt lat="43.23164" lon="5.50134">
        <ele>194.1</ele>
        <time>2025-10-18T15:22:11Z</time>
      </trkpt>
      <trkpt lat="43.23164" lon="5.50134">
        <ele>194.1</ele>
        <time>2025-10-18T15:22:12Z</time>
      </trkpt>
      <trkpt lat="43.23164" lon="5.50135">
        <ele>194.1</ele>
        <time>2025-10-18T15:22:13Z</time>
      </trkpt>
      <trkpt lat="43.23164" lon="5.50135">
        <ele>194</ele>
        <time>2025-10-18T15:22:14Z</time>
      </trkpt>
      <trkpt lat="43.23164" lon="5.50135">
        <ele>194</ele>
        <time>2025-10-18T15:22:15Z</time>
      </trkpt>
      <trkpt lat="43.23165" lon="5.50134">
        <ele>193.9</ele>
        <time>2025-10-18T15:22:16Z</time>
      </trkpt>
      <trkpt lat="43.23166" lon="5.50134">
        <ele>193.8</ele>
        <time>2025-10-18T15:22:17Z</time>
      </trkpt>
      <trkpt lat="43.23167" lon="5.50134">
        <ele>193.8</ele>
        <time>2025-10-18T15:22:18Z</time>
      </trkpt>
      <trkpt lat="43.23168" lon="5.50134">
        <ele>193.7</ele>
        <time>2025-10-18T15:22:19Z</time>
      </trkpt>
      <trkpt lat="43.23169" lon="5.50134">
        <ele>193.7</ele>
        <time>2025-10-18T15:22:20Z</time>
      </trkpt>
      <trkpt lat="43.2317" lon="5.50134">
        <ele>193.7</ele>
        <time>2025-10-18T15:22:21Z</time>
      </trkpt>
      <trkpt lat="43.23171" lon="5.50134">
        <ele>193.7</ele>
        <time>2025-10-18T15:22:22Z</time>
      </trkpt>
      <trkpt lat="43.23172" lon="5.50133">
        <ele>193.8</ele>
        <time>2025-10-18T15:22:23Z</time>
      </trkpt>
      <trkpt lat="43.23173" lon="5.50133">
        <ele>193.8</ele>
        <time>2025-10-18T15:22:24Z</time>
      </trkpt>
      <trkpt lat="43.23174" lon="5.50133">
        <ele>193.8</ele>
        <time>2025-10-18T15:22:25Z</time>
      </trkpt>
      <trkpt lat="43.23175" lon="5.50133">
        <ele>193.8</ele>
        <time>2025-10-18T15:22:26Z</time>
      </trkpt>
      <trkpt lat="43.23176" lon="5.50133">
        <ele>193.9</ele>
        <time>2025-10-18T15:22:27Z</time>
      </trkpt>
      <trkpt lat="43.23177" lon="5.50133">
        <ele>193.9</ele>
        <time>2025-10-18T15:22:28Z</time>
      </trkpt>
      <trkpt lat="43.23178" lon="5.50134">
        <ele>193.9</ele>
        <time>2025-10-18T15:22:29Z</time>
      </trkpt>
      <trkpt lat="43.23179" lon="5.50134">
        <ele>194</ele>
        <time>2025-10-18T15:22:30Z</time>
      </trkpt>
      <trkpt lat="43.2318" lon="5.50133">
        <ele>194</ele>
        <time>2025-10-18T15:22:31Z</time>
      </trkpt>
      <trkpt lat="43.23181" lon="5.50133">
        <ele>194</ele>
        <time>2025-10-18T15:22:32Z</time>
      </trkpt>
      <trkpt lat="43.23181" lon="5.50133">
        <ele>194.1</ele>
        <time>2025-10-18T15:22:33Z</time>
      </trkpt>
      <trkpt lat="43.23182" lon="5.50133">
        <ele>194.2</ele>
        <time>2025-10-18T15:22:34Z</time>
      </trkpt>
      <trkpt lat="43.23183" lon="5.50134">
        <ele>194.3</ele>
        <time>2025-10-18T15:22:35Z</time>
      </trkpt>
      <trkpt lat="43.23184" lon="5.50134">
        <ele>194.3</ele>
        <time>2025-10-18T15:22:36Z</time>
      </trkpt>
      <trkpt lat="43.23185" lon="5.50133">
        <ele>194.3</ele>
        <time>2025-10-18T15:22:37Z</time>
      </trkpt>
      <trkpt lat="43.23186" lon="5.50132">
        <ele>194.4</ele>
        <time>2025-10-18T15:22:38Z</time>
      </trkpt>
      <trkpt lat="43.23187" lon="5.50132">
        <ele>194.4</ele>
        <time>2025-10-18T15:22:39Z</time>
      </trkpt>
      <trkpt lat="43.23187" lon="5.50132">
        <ele>194.4</ele>
        <time>2025-10-18T15:22:40Z</time>
      </trkpt>
      <trkpt lat="43.23187" lon="5.50131">
        <ele>194.4</ele>
        <time>2025-10-18T15:22:41Z</time>
      </trkpt>
      <trkpt lat="43.23187" lon="5.50131">
        <ele>194.4</ele>
        <time>2025-10-18T15:22:42Z</time>
      </trkpt>
      <trkpt lat="43.23187" lon="5.5013">
        <ele>194.3</ele>
        <time>2025-10-18T15:22:43Z</time>
      </trkpt>
      <trkpt lat="43.23188" lon="5.5013">
        <ele>194.3</ele>
        <time>2025-10-18T15:22:44Z</time>
      </trkpt>
      <trkpt lat="43.23188" lon="5.5013">
        <ele>194.2</ele>
        <time>2025-10-18T15:22:45Z</time>
      </trkpt>
      <trkpt lat="43.23189" lon="5.50129">
        <ele>194.2</ele>
        <time>2025-10-18T15:22:46Z</time>
      </trkpt>
      <trkpt lat="43.23191" lon="5.50129">
        <ele>194.2</ele>
        <time>2025-10-18T15:22:47Z</time>
      </trkpt>
      <trkpt lat="43.23192" lon="5.50129">
        <ele>194.3</ele>
        <time>2025-10-18T15:22:48Z</time>
      </trkpt>
      <trkpt lat="43.23193" lon="5.50129">
        <ele>194.2</ele>
        <time>2025-10-18T15:22:49Z</time>
      </trkpt>
      <trkpt lat="43.23194" lon="5.5013">
        <ele>194.3</ele>
        <time>2025-10-18T15:22:50Z</time>
      </trkpt>
      <trkpt lat="43.23195" lon="5.50131">
        <ele>194.3</ele>
        <time>2025-10-18T15:22:51Z</time>
      </trkpt>
      <trkpt lat="43.23196" lon="5.50131">
        <ele>194.3</ele>
        <time>2025-10-18T15:22:52Z</time>
      </trkpt>
      <trkpt lat="43.23197" lon="5.50131">
        <ele>194.3</ele>
        <time>2025-10-18T15:22:53Z</time>
      </trkpt>
      <trkpt lat="43.23198" lon="5.50132">
        <ele>194.3</ele>
        <time>2025-10-18T15:22:54Z</time>
      </trkpt>
      <trkpt lat="43.232" lon="5.50132">
        <ele>194.3</ele>
        <time>2025-10-18T15:22:55Z</time>
      </trkpt>
      <trkpt lat="43.23201" lon="5.50132">
        <ele>194.3</ele>
        <time>2025-10-18T15:22:56Z</time>
      </trkpt>
      <trkpt lat="43.23203" lon="5.50132">
        <ele>194.2</ele>
        <time>2025-10-18T15:22:57Z</time>
      </trkpt>
      <trkpt lat="43.23204" lon="5.50132">
        <ele>194.3</ele>
        <time>2025-10-18T15:22:58Z</time>
      </trkpt>
      <trkpt lat="43.23205" lon="5.50132">
        <ele>194.4</ele>
        <time>2025-10-18T15:22:59Z</time>
      </trkpt>
      <trkpt lat="43.23207" lon="5.50131">
        <ele>194.4</ele>
        <time>2025-10-18T15:23:00Z</time>
      </trkpt>
      <trkpt lat="43.23208" lon="5.50131">
        <ele>194.4</ele>
        <time>2025-10-18T15:23:01Z</time>
      </trkpt>
      <trkpt lat="43.23209" lon="5.50131">
        <ele>194.4</ele>
        <time>2025-10-18T15:23:02Z</time>
      </trkpt>
      <trkpt lat="43.23211" lon="5.50131">
        <ele>194.5</ele>
        <time>2025-10-18T15:23:03Z</time>
      </trkpt>
      <trkpt lat="43.23212" lon="5.50131">
        <ele>194.5</ele>
        <time>2025-10-18T15:23:04Z</time>
      </trkpt>
      <trkpt lat="43.23213" lon="5.50131">
        <ele>194.5</ele>
        <time>2025-10-18T15:23:05Z</time>
      </trkpt>
      <trkpt lat="43.23214" lon="5.5013">
        <ele>194.5</ele>
        <time>2025-10-18T15:23:06Z</time>
      </trkpt>
      <trkpt lat="43.23216" lon="5.5013">
        <ele>194.6</ele>
        <time>2025-10-18T15:23:07Z</time>
      </trkpt>
      <trkpt lat="43.23217" lon="5.50129">
        <ele>194.6</ele>
        <time>2025-10-18T15:23:08Z</time>
      </trkpt>
      <trkpt lat="43.23218" lon="5.50129">
        <ele>194.6</ele>
        <time>2025-10-18T15:23:09Z</time>
      </trkpt>
      <trkpt lat="43.23219" lon="5.50129">
        <ele>194.8</ele>
        <time>2025-10-18T15:23:10Z</time>
      </trkpt>
      <trkpt lat="43.23221" lon="5.50128">
        <ele>194.9</ele>
        <time>2025-10-18T15:23:11Z</time>
      </trkpt>
      <trkpt lat="43.23222" lon="5.50127">
        <ele>194.9</ele>
        <time>2025-10-18T15:23:12Z</time>
      </trkpt>
      <trkpt lat="43.23223" lon="5.50127">
        <ele>195</ele>
        <time>2025-10-18T15:23:13Z</time>
      </trkpt>
      <trkpt lat="43.23224" lon="5.50127">
        <ele>195</ele>
        <time>2025-10-18T15:23:14Z</time>
      </trkpt>
      <trkpt lat="43.23225" lon="5.50127">
        <ele>195</ele>
        <time>2025-10-18T15:23:15Z</time>
      </trkpt>
      <trkpt lat="43.23227" lon="5.50126">
        <ele>195</ele>
        <time>2025-10-18T15:23:16Z</time>
      </trkpt>
      <trkpt lat="43.23228" lon="5.50125">
        <ele>195</ele>
        <time>2025-10-18T15:23:17Z</time>
      </trkpt>
      <trkpt lat="43.2323" lon="5.50124">
        <ele>195</ele>
        <time>2025-10-18T15:23:18Z</time>
      </trkpt>
      <trkpt lat="43.23231" lon="5.50124">
        <ele>195.1</ele>
        <time>2025-10-18T15:23:19Z</time>
      </trkpt>
      <trkpt lat="43.23232" lon="5.50123">
        <ele>195.1</ele>
        <time>2025-10-18T15:23:20Z</time>
      </trkpt>
      <trkpt lat="43.23233" lon="5.50122">
        <ele>195.1</ele>
        <time>2025-10-18T15:23:21Z</time>
      </trkpt>
      <trkpt lat="43.23234" lon="5.50122">
        <ele>195.2</ele>
        <time>2025-10-18T15:23:22Z</time>
      </trkpt>
      <trkpt lat="43.23236" lon="5.50122">
        <ele>195.2</ele>
        <time>2025-10-18T15:23:23Z</time>
      </trkpt>
      <trkpt lat="43.23237" lon="5.50122">
        <ele>195.3</ele>
        <time>2025-10-18T15:23:24Z</time>
      </trkpt>
      <trkpt lat="43.23237" lon="5.50122">
        <ele>195.5</ele>
        <time>2025-10-18T15:23:25Z</time>
      </trkpt>
      <trkpt lat="43.23238" lon="5.50122">
        <ele>195.6</ele>
        <time>2025-10-18T15:23:26Z</time>
      </trkpt>
      <trkpt lat="43.23239" lon="5.50122">
        <ele>195.6</ele>
        <time>2025-10-18T15:23:27Z</time>
      </trkpt>
      <trkpt lat="43.2324" lon="5.50122">
        <ele>195.8</ele>
        <time>2025-10-18T15:23:28Z</time>
      </trkpt>
      <trkpt lat="43.23241" lon="5.50122">
        <ele>195.9</ele>
        <time>2025-10-18T15:23:29Z</time>
      </trkpt>
      <trkpt lat="43.23242" lon="5.50122">
        <ele>196</ele>
        <time>2025-10-18T15:23:30Z</time>
      </trkpt>
      <trkpt lat="43.23243" lon="5.50122">
        <ele>196.2</ele>
        <time>2025-10-18T15:23:31Z</time>
      </trkpt>
      <trkpt lat="43.23244" lon="5.50121">
        <ele>196.3</ele>
        <time>2025-10-18T15:23:32Z</time>
      </trkpt>
      <trkpt lat="43.23244" lon="5.50121">
        <ele>196.4</ele>
        <time>2025-10-18T15:23:33Z</time>
      </trkpt>
      <trkpt lat="43.23245" lon="5.5012">
        <ele>196.5</ele>
        <time>2025-10-18T15:23:34Z</time>
      </trkpt>
      <trkpt lat="43.23245" lon="5.5012">
        <ele>196.8</ele>
        <time>2025-10-18T15:23:35Z</time>
      </trkpt>
      <trkpt lat="43.23246" lon="5.50119">
        <ele>196.9</ele>
        <time>2025-10-18T15:23:36Z</time>
      </trkpt>
      <trkpt lat="43.23246" lon="5.50119">
        <ele>197</ele>
        <time>2025-10-18T15:23:37Z</time>
      </trkpt>
      <trkpt lat="43.23246" lon="5.50119">
        <ele>197.1</ele>
        <time>2025-10-18T15:23:38Z</time>
      </trkpt>
      <trkpt lat="43.23246" lon="5.50119">
        <ele>197.1</ele>
        <time>2025-10-18T15:23:39Z</time>
      </trkpt>
      <trkpt lat="43.23246" lon="5.50119">
        <ele>197.1</ele>
        <time>2025-10-18T15:23:40Z</time>
      </trkpt>
      <trkpt lat="43.23247" lon="5.50118">
        <ele>197.2</ele>
        <time>2025-10-18T15:23:41Z</time>
      </trkpt>
      <trkpt lat="43.23247" lon="5.50118">
        <ele>197.2</ele>
        <time>2025-10-18T15:23:42Z</time>
      </trkpt>
      <trkpt lat="43.23247" lon="5.50118">
        <ele>197.3</ele>
        <time>2025-10-18T15:23:43Z</time>
      </trkpt>
      <trkpt lat="43.23247" lon="5.50118">
        <ele>197.3</ele>
        <time>2025-10-18T15:23:44Z</time>
      </trkpt>
      <trkpt lat="43.23247" lon="5.50118">
        <ele>197.4</ele>
        <time>2025-10-18T15:23:45Z</time>
      </trkpt>
      <trkpt lat="43.23247" lon="5.50118">
        <ele>197.4</ele>
        <time>2025-10-18T15:23:46Z</time>
      </trkpt>
      <trkpt lat="43.23248" lon="5.50118">
        <ele>197.4</ele>
        <time>2025-10-18T15:23:47Z</time>
      </trkpt>
      <trkpt lat="43.23248" lon="5.50118">
        <ele>197.4</ele>
        <time>2025-10-18T15:23:48Z</time>
      </trkpt>
      <trkpt lat="43.23248" lon="5.50118">
        <ele>197.5</ele>
        <time>2025-10-18T15:23:49Z</time>
      </trkpt>
      <trkpt lat="43.23248" lon="5.50118">
        <ele>197.6</ele>
        <time>2025-10-18T15:23:50Z</time>
      </trkpt>
      <trkpt lat="43.23248" lon="5.50118">
        <ele>197.6</ele>
        <time>2025-10-18T15:23:51Z</time>
      </trkpt>
      <trkpt lat="43.23249" lon="5.50118">
        <ele>197.7</ele>
        <time>2025-10-18T15:23:52Z</time>
      </trkpt>
      <trkpt lat="43.23249" lon="5.50118">
        <ele>197.8</ele>
        <time>2025-10-18T15:23:53Z</time>
      </trkpt>
      <trkpt lat="43.23249" lon="5.50118">
        <ele>197.9</ele>
        <time>2025-10-18T15:23:54Z</time>
      </trkpt>
      <trkpt lat="43.2325" lon="5.50118">
        <ele>198.1</ele>
        <time>2025-10-18T15:23:55Z</time>
      </trkpt>
      <trkpt lat="43.2325" lon="5.50118">
        <ele>198.3</ele>
        <time>2025-10-18T15:23:56Z</time>
      </trkpt>
      <trkpt lat="43.2325" lon="5.50118">
        <ele>198.5</ele>
        <time>2025-10-18T15:23:57Z</time>
      </trkpt>
      <trkpt lat="43.23251" lon="5.50117">
        <ele>198.7</ele>
        <time>2025-10-18T15:23:58Z</time>
      </trkpt>
      <trkpt lat="43.23251" lon="5.50118">
        <ele>199</ele>
        <time>2025-10-18T15:23:59Z</time>
      </trkpt>
      <trkpt lat="43.23252" lon="5.50118">
        <ele>199.1</ele>
        <time>2025-10-18T15:24:00Z</time>
      </trkpt>
      <trkpt lat="43.23252" lon="5.50118">
        <ele>199.3</ele>
        <time>2025-10-18T15:24:01Z</time>
      </trkpt>
      <trkpt lat="43.23253" lon="5.50117">
        <ele>199.4</ele>
        <time>2025-10-18T15:24:02Z</time>
      </trkpt>
      <trkpt lat="43.23253" lon="5.50117">
        <ele>199.7</ele>
        <time>2025-10-18T15:24:03Z</time>
      </trkpt>
      <trkpt lat="43.23254" lon="5.50116">
        <ele>199.9</ele>
        <time>2025-10-18T15:24:04Z</time>
      </trkpt>
      <trkpt lat="43.23254" lon="5.50116">
        <ele>200.1</ele>
        <time>2025-10-18T15:24:05Z</time>
      </trkpt>
      <trkpt lat="43.23254" lon="5.50116">
        <ele>200.3</ele>
        <time>2025-10-18T15:24:06Z</time>
      </trkpt>
      <trkpt lat="43.23255" lon="5.50115">
        <ele>200.4</ele>
        <time>2025-10-18T15:24:07Z</time>
      </trkpt>
      <trkpt lat="43.23255" lon="5.50115">
        <ele>200.6</ele>
        <time>2025-10-18T15:24:08Z</time>
      </trkpt>
      <trkpt lat="43.23256" lon="5.50116">
        <ele>200.7</ele>
        <time>2025-10-18T15:24:09Z</time>
      </trkpt>
      <trkpt lat="43.23256" lon="5.50116">
        <ele>200.9</ele>
        <time>2025-10-18T15:24:10Z</time>
      </trkpt>
      <trkpt lat="43.23256" lon="5.50116">
        <ele>201.1</ele>
        <time>2025-10-18T15:24:11Z</time>
      </trkpt>
      <trkpt lat="43.23256" lon="5.50116">
        <ele>201.3</ele>
        <time>2025-10-18T15:24:12Z</time>
      </trkpt>
      <trkpt lat="43.23257" lon="5.50116">
        <ele>201.4</ele>
        <time>2025-10-18T15:24:13Z</time>
      </trkpt>
      <trkpt lat="43.23257" lon="5.50116">
        <ele>201.6</ele>
        <time>2025-10-18T15:24:14Z</time>
      </trkpt>
      <trkpt lat="43.23257" lon="5.50116">
        <ele>201.8</ele>
        <time>2025-10-18T15:24:15Z</time>
      </trkpt>
      <trkpt lat="43.23258" lon="5.50116">
        <ele>202</ele>
        <time>2025-10-18T15:24:16Z</time>
      </trkpt>
      <trkpt lat="43.23258" lon="5.50116">
        <ele>202.2</ele>
        <time>2025-10-18T15:24:17Z</time>
      </trkpt>
      <trkpt lat="43.23259" lon="5.50116">
        <ele>202.3</ele>
        <time>2025-10-18T15:24:18Z</time>
      </trkpt>
      <trkpt lat="43.23259" lon="5.50116">
        <ele>202.5</ele>
        <time>2025-10-18T15:24:19Z</time>
      </trkpt>
      <trkpt lat="43.23259" lon="5.50115">
        <ele>202.6</ele>
        <time>2025-10-18T15:24:20Z</time>
      </trkpt>
      <trkpt lat="43.23259" lon="5.50115">
        <ele>202.9</ele>
        <time>2025-10-18T15:24:21Z</time>
      </trkpt>
      <trkpt lat="43.23259" lon="5.50115">
        <ele>203.1</ele>
        <time>2025-10-18T15:24:22Z</time>
      </trkpt>
      <trkpt lat="43.2326" lon="5.50115">
        <ele>203.1</ele>
        <time>2025-10-18T15:24:23Z</time>
      </trkpt>
      <trkpt lat="43.2326" lon="5.50116">
        <ele>203.1</ele>
        <time>2025-10-18T15:24:24Z</time>
      </trkpt>
      <trkpt lat="43.2326" lon="5.50116">
        <ele>203.3</ele>
        <time>2025-10-18T15:24:25Z</time>
      </trkpt>
      <trkpt lat="43.2326" lon="5.50116">
        <ele>203.5</ele>
        <time>2025-10-18T15:24:26Z</time>
      </trkpt>
      <trkpt lat="43.23261" lon="5.50115">
        <ele>203.7</ele>
        <time>2025-10-18T15:24:27Z</time>
      </trkpt>
      <trkpt lat="43.23261" lon="5.50116">
        <ele>203.9</ele>
        <time>2025-10-18T15:24:28Z</time>
      </trkpt>
      <trkpt lat="43.23261" lon="5.50116">
        <ele>204</ele>
        <time>2025-10-18T15:24:29Z</time>
      </trkpt>
      <trkpt lat="43.23261" lon="5.50116">
        <ele>204.1</ele>
        <time>2025-10-18T15:24:30Z</time>
      </trkpt>
      <trkpt lat="43.23261" lon="5.50116">
        <ele>204.2</ele>
        <time>2025-10-18T15:24:31Z</time>
      </trkpt>
      <trkpt lat="43.23261" lon="5.50117">
        <ele>204.3</ele>
        <time>2025-10-18T15:24:32Z</time>
      </trkpt>
      <trkpt lat="43.23261" lon="5.50116">
        <ele>204.5</ele>
        <time>2025-10-18T15:24:33Z</time>
      </trkpt>
      <trkpt lat="43.23261" lon="5.50116">
        <ele>204.6</ele>
        <time>2025-10-18T15:24:34Z</time>
      </trkpt>
      <trkpt lat="43.23261" lon="5.50117">
        <ele>204.7</ele>
        <time>2025-10-18T15:24:35Z</time>
      </trkpt>
      <trkpt lat="43.23262" lon="5.50117">
        <ele>204.8</ele>
        <time>2025-10-18T15:24:36Z</time>
      </trkpt>
      <trkpt lat="43.23263" lon="5.50117">
        <ele>205</ele>
        <time>2025-10-18T15:24:37Z</time>
      </trkpt>
      <trkpt lat="43.23263" lon="5.50117">
        <ele>205.2</ele>
        <time>2025-10-18T15:24:38Z</time>
      </trkpt>
      <trkpt lat="43.23264" lon="5.50116">
        <ele>205.3</ele>
        <time>2025-10-18T15:24:39Z</time>
      </trkpt>
      <trkpt lat="43.23264" lon="5.50116">
        <ele>205.5</ele>
        <time>2025-10-18T15:24:40Z</time>
      </trkpt>
      <trkpt lat="43.23264" lon="5.50116">
        <ele>205.6</ele>
        <time>2025-10-18T15:24:41Z</time>
      </trkpt>
      <trkpt lat="43.23264" lon="5.50117">
        <ele>205.8</ele>
        <time>2025-10-18T15:24:42Z</time>
      </trkpt>
      <trkpt lat="43.23264" lon="5.50117">
        <ele>205.9</ele>
        <time>2025-10-18T15:24:43Z</time>
      </trkpt>
      <trkpt lat="43.23264" lon="5.50117">
        <ele>206</ele>
        <time>2025-10-18T15:24:44Z</time>
      </trkpt>
      <trkpt lat="43.23264" lon="5.50117">
        <ele>206.2</ele>
        <time>2025-10-18T15:24:45Z</time>
      </trkpt>
      <trkpt lat="43.23265" lon="5.50117">
        <ele>206.4</ele>
        <time>2025-10-18T15:24:46Z</time>
      </trkpt>
      <trkpt lat="43.23266" lon="5.50117">
        <ele>206.6</ele>
        <time>2025-10-18T15:24:47Z</time>
      </trkpt>
      <trkpt lat="43.23266" lon="5.50118">
        <ele>206.8</ele>
        <time>2025-10-18T15:24:48Z</time>
      </trkpt>
      <trkpt lat="43.23267" lon="5.50118">
        <ele>207.1</ele>
        <time>2025-10-18T15:24:49Z</time>
      </trkpt>
      <trkpt lat="43.23268" lon="5.50118">
        <ele>207.2</ele>
        <time>2025-10-18T15:24:50Z</time>
      </trkpt>
      <trkpt lat="43.23268" lon="5.50117">
        <ele>207.4</ele>
        <time>2025-10-18T15:24:51Z</time>
      </trkpt>
      <trkpt lat="43.23269" lon="5.50117">
        <ele>207.6</ele>
        <time>2025-10-18T15:24:52Z</time>
      </trkpt>
      <trkpt lat="43.2327" lon="5.50117">
        <ele>207.8</ele>
        <time>2025-10-18T15:24:53Z</time>
      </trkpt>
      <trkpt lat="43.2327" lon="5.50116">
        <ele>207.9</ele>
        <time>2025-10-18T15:24:54Z</time>
      </trkpt>
      <trkpt lat="43.2327" lon="5.50116">
        <ele>208.1</ele>
        <time>2025-10-18T15:24:55Z</time>
      </trkpt>
      <trkpt lat="43.23271" lon="5.50116">
        <ele>208.2</ele>
        <time>2025-10-18T15:24:56Z</time>
      </trkpt>
      <trkpt lat="43.23271" lon="5.50116">
        <ele>208.3</ele>
        <time>2025-10-18T15:24:57Z</time>
      </trkpt>
      <trkpt lat="43.23271" lon="5.50116">
        <ele>208.4</ele>
        <time>2025-10-18T15:24:58Z</time>
      </trkpt>
      <trkpt lat="43.23272" lon="5.50116">
        <ele>208.4</ele>
        <time>2025-10-18T15:24:59Z</time>
      </trkpt>
      <trkpt lat="43.23272" lon="5.50116">
        <ele>208.6</ele>
        <time>2025-10-18T15:25:00Z</time>
      </trkpt>
      <trkpt lat="43.23272" lon="5.50116">
        <ele>208.8</ele>
        <time>2025-10-18T15:25:01Z</time>
      </trkpt>
      <trkpt lat="43.23272" lon="5.50116">
        <ele>208.9</ele>
        <time>2025-10-18T15:25:02Z</time>
      </trkpt>
      <trkpt lat="43.23272" lon="5.50116">
        <ele>209</ele>
        <time>2025-10-18T15:25:03Z</time>
      </trkpt>
      <trkpt lat="43.23272" lon="5.50117">
        <ele>209.1</ele>
        <time>2025-10-18T15:25:04Z</time>
      </trkpt>
      <trkpt lat="43.23272" lon="5.50117">
        <ele>209.2</ele>
        <time>2025-10-18T15:25:05Z</time>
      </trkpt>
      <trkpt lat="43.23272" lon="5.50117">
        <ele>209.2</ele>
        <time>2025-10-18T15:25:06Z</time>
      </trkpt>
      <trkpt lat="43.23272" lon="5.50117">
        <ele>209.2</ele>
        <time>2025-10-18T15:25:07Z</time>
      </trkpt>
      <trkpt lat="43.23272" lon="5.50117">
        <ele>209.4</ele>
        <time>2025-10-18T15:25:08Z</time>
      </trkpt>
      <trkpt lat="43.23273" lon="5.50117">
        <ele>209.6</ele>
        <time>2025-10-18T15:25:09Z</time>
      </trkpt>
      <trkpt lat="43.23273" lon="5.50117">
        <ele>209.9</ele>
        <time>2025-10-18T15:25:10Z</time>
      </trkpt>
      <trkpt lat="43.23274" lon="5.50117">
        <ele>210</ele>
        <time>2025-10-18T15:25:11Z</time>
      </trkpt>
      <trkpt lat="43.23274" lon="5.50117">
        <ele>210.1</ele>
        <time>2025-10-18T15:25:12Z</time>
      </trkpt>
      <trkpt lat="43.23274" lon="5.50117">
        <ele>210.1</ele>
        <time>2025-10-18T15:25:13Z</time>
      </trkpt>
      <trkpt lat="43.23275" lon="5.50117">
        <ele>210.2</ele>
        <time>2025-10-18T15:25:14Z</time>
      </trkpt>
      <trkpt lat="43.23275" lon="5.50117">
        <ele>210.3</ele>
        <time>2025-10-18T15:25:15Z</time>
      </trkpt>
      <trkpt lat="43.23275" lon="5.50117">
        <ele>210.4</ele>
        <time>2025-10-18T15:25:16Z</time>
      </trkpt>
      <trkpt lat="43.23275" lon="5.50117">
        <ele>210.5</ele>
        <time>2025-10-18T15:25:17Z</time>
      </trkpt>
      <trkpt lat="43.23275" lon="5.50117">
        <ele>210.7</ele>
        <time>2025-10-18T15:25:18Z</time>
      </trkpt>
      <trkpt lat="43.23276" lon="5.50117">
        <ele>211</ele>
        <time>2025-10-18T15:25:19Z</time>
      </trkpt>
      <trkpt lat="43.23276" lon="5.50118">
        <ele>211.1</ele>
        <time>2025-10-18T15:25:20Z</time>
      </trkpt>
      <trkpt lat="43.23276" lon="5.50118">
        <ele>211.4</ele>
        <time>2025-10-18T15:25:21Z</time>
      </trkpt>
      <trkpt lat="43.23276" lon="5.50118">
        <ele>211.5</ele>
        <time>2025-10-18T15:25:22Z</time>
      </trkpt>
      <trkpt lat="43.23276" lon="5.50118">
        <ele>211.8</ele>
        <time>2025-10-18T15:25:23Z</time>
      </trkpt>
      <trkpt lat="43.23276" lon="5.50118">
        <ele>211.9</ele>
        <time>2025-10-18T15:25:24Z</time>
      </trkpt>
      <trkpt lat="43.23276" lon="5.50118">
        <ele>212.1</ele>
        <time>2025-10-18T15:25:25Z</time>
      </trkpt>
      <trkpt lat="43.23276" lon="5.50118">
        <ele>212.2</ele>
        <time>2025-10-18T15:25:26Z</time>
      </trkpt>
      <trkpt lat="43.23276" lon="5.50118">
        <ele>212.3</ele>
        <time>2025-10-18T15:25:27Z</time>
      </trkpt>
      <trkpt lat="43.23277" lon="5.50118">
        <ele>212.3</ele>
        <time>2025-10-18T15:25:28Z</time>
      </trkpt>
      <trkpt lat="43.23277" lon="5.50118">
        <ele>212.4</ele>
        <time>2025-10-18T15:25:29Z</time>
      </trkpt>
      <trkpt lat="43.23277" lon="5.50118">
        <ele>212.4</ele>
        <time>2025-10-18T15:25:30Z</time>
      </trkpt>
      <trkpt lat="43.23278" lon="5.50118">
        <ele>212.5</ele>
        <time>2025-10-18T15:25:31Z</time>
      </trkpt>
      <trkpt lat="43.23278" lon="5.50118">
        <ele>212.5</ele>
        <time>2025-10-18T15:25:32Z</time>
      </trkpt>
      <trkpt lat="43.23278" lon="5.50118">
        <ele>212.6</ele>
        <time>2025-10-18T15:25:33Z</time>
      </trkpt>
      <trkpt lat="43.23278" lon="5.50118">
        <ele>212.6</ele>
        <time>2025-10-18T15:25:34Z</time>
      </trkpt>
      <trkpt lat="43.23278" lon="5.50118">
        <ele>212.7</ele>
        <time>2025-10-18T15:25:35Z</time>
      </trkpt>
      <trkpt lat="43.23279" lon="5.50119">
        <ele>212.8</ele>
        <time>2025-10-18T15:25:36Z</time>
      </trkpt>
      <trkpt lat="43.23279" lon="5.50119">
        <ele>212.9</ele>
        <time>2025-10-18T15:25:37Z</time>
      </trkpt>
      <trkpt lat="43.23279" lon="5.50119">
        <ele>213</ele>
        <time>2025-10-18T15:25:38Z</time>
      </trkpt>
      <trkpt lat="43.23279" lon="5.5012">
        <ele>213.2</ele>
        <time>2025-10-18T15:25:39Z</time>
      </trkpt>
      <trkpt lat="43.23279" lon="5.5012">
        <ele>213.3</ele>
        <time>2025-10-18T15:25:40Z</time>
      </trkpt>
      <trkpt lat="43.23279" lon="5.50121">
        <ele>213.5</ele>
        <time>2025-10-18T15:25:41Z</time>
      </trkpt>
      <trkpt lat="43.2328" lon="5.5012">
        <ele>213.7</ele>
        <time>2025-10-18T15:25:42Z</time>
      </trkpt>
      <trkpt lat="43.2328" lon="5.5012">
        <ele>213.9</ele>
        <time>2025-10-18T15:25:43Z</time>
      </trkpt>
      <trkpt lat="43.23281" lon="5.5012">
        <ele>214.1</ele>
        <time>2025-10-18T15:25:44Z</time>
      </trkpt>
      <trkpt lat="43.23281" lon="5.5012">
        <ele>214.3</ele>
        <time>2025-10-18T15:25:45Z</time>
      </trkpt>
      <trkpt lat="43.23282" lon="5.5012">
        <ele>214.5</ele>
        <time>2025-10-18T15:25:46Z</time>
      </trkpt>
      <trkpt lat="43.23282" lon="5.5012">
        <ele>214.8</ele>
        <time>2025-10-18T15:25:47Z</time>
      </trkpt>
      <trkpt lat="43.23283" lon="5.5012">
        <ele>215</ele>
        <time>2025-10-18T15:25:48Z</time>
      </trkpt>
      <trkpt lat="43.23283" lon="5.50119">
        <ele>215.1</ele>
        <time>2025-10-18T15:25:49Z</time>
      </trkpt>
      <trkpt lat="43.23284" lon="5.50119">
        <ele>215.3</ele>
        <time>2025-10-18T15:25:50Z</time>
      </trkpt>
      <trkpt lat="43.23285" lon="5.50119">
        <ele>215.5</ele>
        <time>2025-10-18T15:25:51Z</time>
      </trkpt>
      <trkpt lat="43.23286" lon="5.50118">
        <ele>215.7</ele>
        <time>2025-10-18T15:25:52Z</time>
      </trkpt>
      <trkpt lat="43.23286" lon="5.50118">
        <ele>215.9</ele>
        <time>2025-10-18T15:25:53Z</time>
      </trkpt>
      <trkpt lat="43.23287" lon="5.50118">
        <ele>216</ele>
        <time>2025-10-18T15:25:54Z</time>
      </trkpt>
      <trkpt lat="43.23288" lon="5.50118">
        <ele>216.3</ele>
        <time>2025-10-18T15:25:55Z</time>
      </trkpt>
      <trkpt lat="43.23288" lon="5.50118">
        <ele>216.5</ele>
        <time>2025-10-18T15:25:56Z</time>
      </trkpt>
      <trkpt lat="43.23289" lon="5.50118">
        <ele>216.7</ele>
        <time>2025-10-18T15:25:57Z</time>
      </trkpt>
      <trkpt lat="43.2329" lon="5.50118">
        <ele>216.9</ele>
        <time>2025-10-18T15:25:58Z</time>
      </trkpt>
      <trkpt lat="43.2329" lon="5.50118">
        <ele>217</ele>
        <time>2025-10-18T15:25:59Z</time>
      </trkpt>
      <trkpt lat="43.23291" lon="5.50118">
        <ele>217.1</ele>
        <time>2025-10-18T15:26:00Z</time>
      </trkpt>
      <trkpt lat="43.23292" lon="5.50117">
        <ele>217.3</ele>
        <time>2025-10-18T15:26:01Z</time>
      </trkpt>
      <trkpt lat="43.23292" lon="5.50116">
        <ele>217.5</ele>
        <time>2025-10-18T15:26:02Z</time>
      </trkpt>
      <trkpt lat="43.23293" lon="5.50116">
        <ele>217.6</ele>
        <time>2025-10-18T15:26:03Z</time>
      </trkpt>
      <trkpt lat="43.23294" lon="5.50115">
        <ele>217.7</ele>
        <time>2025-10-18T15:26:04Z</time>
      </trkpt>
      <trkpt lat="43.23294" lon="5.50115">
        <ele>217.9</ele>
        <time>2025-10-18T15:26:05Z</time>
      </trkpt>
      <trkpt lat="43.23295" lon="5.50114">
        <ele>218.1</ele>
        <time>2025-10-18T15:26:06Z</time>
      </trkpt>
      <trkpt lat="43.23295" lon="5.50114">
        <ele>218.3</ele>
        <time>2025-10-18T15:26:07Z</time>
      </trkpt>
      <trkpt lat="43.23296" lon="5.50113">
        <ele>218.5</ele>
        <time>2025-10-18T15:26:08Z</time>
      </trkpt>
      <trkpt lat="43.23296" lon="5.50113">
        <ele>218.6</ele>
        <time>2025-10-18T15:26:09Z</time>
      </trkpt>
      <trkpt lat="43.23297" lon="5.50113">
        <ele>218.7</ele>
        <time>2025-10-18T15:26:10Z</time>
      </trkpt>
      <trkpt lat="43.23297" lon="5.50112">
        <ele>218.8</ele>
        <time>2025-10-18T15:26:11Z</time>
      </trkpt>
      <trkpt lat="43.23297" lon="5.50112">
        <ele>218.8</ele>
        <time>2025-10-18T15:26:12Z</time>
      </trkpt>
      <trkpt lat="43.23297" lon="5.50112">
        <ele>218.8</ele>
        <time>2025-10-18T15:26:13Z</time>
      </trkpt>
      <trkpt lat="43.23298" lon="5.50113">
        <ele>219</ele>
        <time>2025-10-18T15:26:14Z</time>
      </trkpt>
      <trkpt lat="43.23298" lon="5.50113">
        <ele>219.1</ele>
        <time>2025-10-18T15:26:15Z</time>
      </trkpt>
      <trkpt lat="43.23298" lon="5.50113">
        <ele>219.3</ele>
        <time>2025-10-18T15:26:16Z</time>
      </trkpt>
      <trkpt lat="43.23298" lon="5.50114">
        <ele>219.5</ele>
        <time>2025-10-18T15:26:17Z</time>
      </trkpt>
      <trkpt lat="43.23299" lon="5.50114">
        <ele>219.6</ele>
        <time>2025-10-18T15:26:18Z</time>
      </trkpt>
      <trkpt lat="43.23299" lon="5.50114">
        <ele>219.9</ele>
        <time>2025-10-18T15:26:19Z</time>
      </trkpt>
      <trkpt lat="43.233" lon="5.50114">
        <ele>220.1</ele>
        <time>2025-10-18T15:26:20Z</time>
      </trkpt>
      <trkpt lat="43.233" lon="5.50114">
        <ele>220.2</ele>
        <time>2025-10-18T15:26:21Z</time>
      </trkpt>
      <trkpt lat="43.23301" lon="5.50113">
        <ele>220.4</ele>
        <time>2025-10-18T15:26:22Z</time>
      </trkpt>
      <trkpt lat="43.23302" lon="5.50112">
        <ele>220.5</ele>
        <time>2025-10-18T15:26:23Z</time>
      </trkpt>
      <trkpt lat="43.23302" lon="5.50112">
        <ele>220.7</ele>
        <time>2025-10-18T15:26:24Z</time>
      </trkpt>
      <trkpt lat="43.23303" lon="5.50112">
        <ele>220.9</ele>
        <time>2025-10-18T15:26:25Z</time>
      </trkpt>
      <trkpt lat="43.23303" lon="5.50112">
        <ele>221</ele>
        <time>2025-10-18T15:26:26Z</time>
      </trkpt>
      <trkpt lat="43.23304" lon="5.50112">
        <ele>221.2</ele>
        <time>2025-10-18T15:26:27Z</time>
      </trkpt>
      <trkpt lat="43.23304" lon="5.50113">
        <ele>221.3</ele>
        <time>2025-10-18T15:26:28Z</time>
      </trkpt>
      <trkpt lat="43.23305" lon="5.50113">
        <ele>221.4</ele>
        <time>2025-10-18T15:26:29Z</time>
      </trkpt>
      <trkpt lat="43.23306" lon="5.50113">
        <ele>221.6</ele>
        <time>2025-10-18T15:26:30Z</time>
      </trkpt>
      <trkpt lat="43.23306" lon="5.50113">
        <ele>221.7</ele>
        <time>2025-10-18T15:26:31Z</time>
      </trkpt>
      <trkpt lat="43.23306" lon="5.50113">
        <ele>221.8</ele>
        <time>2025-10-18T15:26:32Z</time>
      </trkpt>
      <trkpt lat="43.23307" lon="5.50113">
        <ele>222</ele>
        <time>2025-10-18T15:26:33Z</time>
      </trkpt>
      <trkpt lat="43.23307" lon="5.50113">
        <ele>222.2</ele>
        <time>2025-10-18T15:26:34Z</time>
      </trkpt>
      <trkpt lat="43.23307" lon="5.50114">
        <ele>222.4</ele>
        <time>2025-10-18T15:26:35Z</time>
      </trkpt>
      <trkpt lat="43.23308" lon="5.50113">
        <ele>222.6</ele>
        <time>2025-10-18T15:26:36Z</time>
      </trkpt>
      <trkpt lat="43.23308" lon="5.50113">
        <ele>222.8</ele>
        <time>2025-10-18T15:26:37Z</time>
      </trkpt>
      <trkpt lat="43.23309" lon="5.50113">
        <ele>223</ele>
        <time>2025-10-18T15:26:38Z</time>
      </trkpt>
      <trkpt lat="43.23309" lon="5.50113">
        <ele>223.1</ele>
        <time>2025-10-18T15:26:39Z</time>
      </trkpt>
      <trkpt lat="43.2331" lon="5.50113">
        <ele>223.3</ele>
        <time>2025-10-18T15:26:40Z</time>
      </trkpt>
      <trkpt lat="43.2331" lon="5.50113">
        <ele>223.5</ele>
        <time>2025-10-18T15:26:41Z</time>
      </trkpt>
      <trkpt lat="43.23311" lon="5.50113">
        <ele>223.6</ele>
        <time>2025-10-18T15:26:42Z</time>
      </trkpt>
      <trkpt lat="43.23311" lon="5.50112">
        <ele>223.8</ele>
        <time>2025-10-18T15:26:43Z</time>
      </trkpt>
      <trkpt lat="43.23312" lon="5.50112">
        <ele>224</ele>
        <time>2025-10-18T15:26:44Z</time>
      </trkpt>
      <trkpt lat="43.23312" lon="5.50112">
        <ele>224.3</ele>
        <time>2025-10-18T15:26:45Z</time>
      </trkpt>
      <trkpt lat="43.23313" lon="5.50112">
        <ele>224.5</ele>
        <time>2025-10-18T15:26:46Z</time>
      </trkpt>
      <trkpt lat="43.23313" lon="5.50112">
        <ele>224.6</ele>
        <time>2025-10-18T15:26:47Z</time>
      </trkpt>
      <trkpt lat="43.23314" lon="5.50112">
        <ele>224.7</ele>
        <time>2025-10-18T15:26:48Z</time>
      </trkpt>
      <trkpt lat="43.23314" lon="5.50113">
        <ele>224.7</ele>
        <time>2025-10-18T15:26:49Z</time>
      </trkpt>
      <trkpt lat="43.23314" lon="5.50113">
        <ele>224.8</ele>
        <time>2025-10-18T15:26:50Z</time>
      </trkpt>
      <trkpt lat="43.23315" lon="5.50114">
        <ele>224.9</ele>
        <time>2025-10-18T15:26:51Z</time>
      </trkpt>
      <trkpt lat="43.23315" lon="5.50114">
        <ele>225.1</ele>
        <time>2025-10-18T15:26:52Z</time>
      </trkpt>
      <trkpt lat="43.23315" lon="5.50114">
        <ele>225.2</ele>
        <time>2025-10-18T15:26:53Z</time>
      </trkpt>
      <trkpt lat="43.23316" lon="5.50114">
        <ele>225.5</ele>
        <time>2025-10-18T15:26:54Z</time>
      </trkpt>
      <trkpt lat="43.23316" lon="5.50114">
        <ele>225.6</ele>
        <time>2025-10-18T15:26:55Z</time>
      </trkpt>
      <trkpt lat="43.23316" lon="5.50115">
        <ele>225.8</ele>
        <time>2025-10-18T15:26:56Z</time>
      </trkpt>
      <trkpt lat="43.23317" lon="5.50115">
        <ele>226.1</ele>
        <time>2025-10-18T15:26:57Z</time>
      </trkpt>
      <trkpt lat="43.23317" lon="5.50114">
        <ele>226.2</ele>
        <time>2025-10-18T15:26:58Z</time>
      </trkpt>
      <trkpt lat="43.23318" lon="5.50114">
        <ele>226.3</ele>
        <time>2025-10-18T15:26:59Z</time>
      </trkpt>
      <trkpt lat="43.23318" lon="5.50114">
        <ele>226.6</ele>
        <time>2025-10-18T15:27:00Z</time>
      </trkpt>
      <trkpt lat="43.23319" lon="5.50114">
        <ele>226.7</ele>
        <time>2025-10-18T15:27:01Z</time>
      </trkpt>
      <trkpt lat="43.2332" lon="5.50113">
        <ele>226.8</ele>
        <time>2025-10-18T15:27:02Z</time>
      </trkpt>
      <trkpt lat="43.2332" lon="5.50113">
        <ele>227</ele>
        <time>2025-10-18T15:27:03Z</time>
      </trkpt>
      <trkpt lat="43.23321" lon="5.50113">
        <ele>227.2</ele>
        <time>2025-10-18T15:27:04Z</time>
      </trkpt>
      <trkpt lat="43.23321" lon="5.50113">
        <ele>227.4</ele>
        <time>2025-10-18T15:27:05Z</time>
      </trkpt>
      <trkpt lat="43.23321" lon="5.50113">
        <ele>227.6</ele>
        <time>2025-10-18T15:27:06Z</time>
      </trkpt>
      <trkpt lat="43.23321" lon="5.50113">
        <ele>227.8</ele>
        <time>2025-10-18T15:27:07Z</time>
      </trkpt>
      <trkpt lat="43.23322" lon="5.50113">
        <ele>227.9</ele>
        <time>2025-10-18T15:27:08Z</time>
      </trkpt>
      <trkpt lat="43.23322" lon="5.50113">
        <ele>228</ele>
        <time>2025-10-18T15:27:09Z</time>
      </trkpt>
      <trkpt lat="43.23322" lon="5.50113">
        <ele>228.1</ele>
        <time>2025-10-18T15:27:10Z</time>
      </trkpt>
      <trkpt lat="43.23322" lon="5.50113">
        <ele>228.2</ele>
        <time>2025-10-18T15:27:11Z</time>
      </trkpt>
      <trkpt lat="43.23322" lon="5.50113">
        <ele>228.2</ele>
        <time>2025-10-18T15:27:12Z</time>
      </trkpt>
      <trkpt lat="43.23322" lon="5.50113">
        <ele>228.4</ele>
        <time>2025-10-18T15:27:13Z</time>
      </trkpt>
      <trkpt lat="43.23323" lon="5.50114">
        <ele>228.6</ele>
        <time>2025-10-18T15:27:14Z</time>
      </trkpt>
      <trkpt lat="43.23323" lon="5.50113">
        <ele>228.8</ele>
        <time>2025-10-18T15:27:15Z</time>
      </trkpt>
      <trkpt lat="43.23323" lon="5.50113">
        <ele>228.9</ele>
        <time>2025-10-18T15:27:16Z</time>
      </trkpt>
      <trkpt lat="43.23324" lon="5.50114">
        <ele>229.2</ele>
        <time>2025-10-18T15:27:17Z</time>
      </trkpt>
      <trkpt lat="43.23324" lon="5.50114">
        <ele>229.3</ele>
        <time>2025-10-18T15:27:18Z</time>
      </trkpt>
      <trkpt lat="43.23325" lon="5.50114">
        <ele>229.6</ele>
        <time>2025-10-18T15:27:19Z</time>
      </trkpt>
      <trkpt lat="43.23326" lon="5.50114">
        <ele>229.7</ele>
        <time>2025-10-18T15:27:20Z</time>
      </trkpt>
      <trkpt lat="43.23326" lon="5.50114">
        <ele>229.9</ele>
        <time>2025-10-18T15:27:21Z</time>
      </trkpt>
      <trkpt lat="43.23326" lon="5.50114">
        <ele>230.1</ele>
        <time>2025-10-18T15:27:22Z</time>
      </trkpt>
      <trkpt lat="43.23327" lon="5.50114">
        <ele>230.4</ele>
        <time>2025-10-18T15:27:23Z</time>
      </trkpt>
      <trkpt lat="43.23327" lon="5.50115">
        <ele>230.5</ele>
        <time>2025-10-18T15:27:24Z</time>
      </trkpt>
      <trkpt lat="43.23327" lon="5.50115">
        <ele>230.7</ele>
        <time>2025-10-18T15:27:25Z</time>
      </trkpt>
      <trkpt lat="43.23328" lon="5.50114">
        <ele>230.8</ele>
        <time>2025-10-18T15:27:26Z</time>
      </trkpt>
      <trkpt lat="43.23328" lon="5.50115">
        <ele>231</ele>
        <time>2025-10-18T15:27:27Z</time>
      </trkpt>
      <trkpt lat="43.23328" lon="5.50115">
        <ele>231.2</ele>
        <time>2025-10-18T15:27:28Z</time>
      </trkpt>
      <trkpt lat="43.23328" lon="5.50115">
        <ele>231.3</ele>
        <time>2025-10-18T15:27:29Z</time>
      </trkpt>
      <trkpt lat="43.23329" lon="5.50115">
        <ele>231.5</ele>
        <time>2025-10-18T15:27:30Z</time>
      </trkpt>
      <trkpt lat="43.23329" lon="5.50115">
        <ele>231.6</ele>
        <time>2025-10-18T15:27:31Z</time>
      </trkpt>
      <trkpt lat="43.23329" lon="5.50116">
        <ele>231.8</ele>
        <time>2025-10-18T15:27:32Z</time>
      </trkpt>
      <trkpt lat="43.23329" lon="5.50116">
        <ele>231.9</ele>
        <time>2025-10-18T15:27:33Z</time>
      </trkpt>
      <trkpt lat="43.23329" lon="5.50115">
        <ele>232.2</ele>
        <time>2025-10-18T15:27:34Z</time>
      </trkpt>
      <trkpt lat="43.23329" lon="5.50115">
        <ele>232.4</ele>
        <time>2025-10-18T15:27:35Z</time>
      </trkpt>
      <trkpt lat="43.23329" lon="5.50115">
        <ele>232.6</ele>
        <time>2025-10-18T15:27:36Z</time>
      </trkpt>
      <trkpt lat="43.23329" lon="5.50115">
        <ele>232.7</ele>
        <time>2025-10-18T15:27:37Z</time>
      </trkpt>
      <trkpt lat="43.23329" lon="5.50114">
        <ele>232.9</ele>
        <time>2025-10-18T15:27:38Z</time>
      </trkpt>
      <trkpt lat="43.2333" lon="5.50115">
        <ele>232.9</ele>
        <time>2025-10-18T15:27:39Z</time>
      </trkpt>
      <trkpt lat="43.2333" lon="5.50115">
        <ele>232.9</ele>
        <time>2025-10-18T15:27:40Z</time>
      </trkpt>
      <trkpt lat="43.2333" lon="5.50116">
        <ele>232.9</ele>
        <time>2025-10-18T15:27:41Z</time>
      </trkpt>
      <trkpt lat="43.2333" lon="5.50116">
        <ele>233.1</ele>
        <time>2025-10-18T15:27:42Z</time>
      </trkpt>
      <trkpt lat="43.23331" lon="5.50116">
        <ele>233.2</ele>
        <time>2025-10-18T15:27:43Z</time>
      </trkpt>
      <trkpt lat="43.23332" lon="5.50117">
        <ele>233.4</ele>
        <time>2025-10-18T15:27:44Z</time>
      </trkpt>
      <trkpt lat="43.23333" lon="5.50117">
        <ele>233.6</ele>
        <time>2025-10-18T15:27:45Z</time>
      </trkpt>
      <trkpt lat="43.23333" lon="5.50117">
        <ele>233.8</ele>
        <time>2025-10-18T15:27:46Z</time>
      </trkpt>
      <trkpt lat="43.23334" lon="5.50117">
        <ele>233.9</ele>
        <time>2025-10-18T15:27:47Z</time>
      </trkpt>
      <trkpt lat="43.23336" lon="5.50117">
        <ele>234.1</ele>
        <time>2025-10-18T15:27:48Z</time>
      </trkpt>
      <trkpt lat="43.23337" lon="5.50118">
        <ele>234.3</ele>
        <time>2025-10-18T15:27:49Z</time>
      </trkpt>
      <trkpt lat="43.23337" lon="5.50118">
        <ele>234.4</ele>
        <time>2025-10-18T15:27:50Z</time>
      </trkpt>
      <trkpt lat="43.23338" lon="5.50118">
        <ele>234.4</ele>
        <time>2025-10-18T15:27:51Z</time>
      </trkpt>
      <trkpt lat="43.23339" lon="5.50118">
        <ele>234.5</ele>
        <time>2025-10-18T15:27:52Z</time>
      </trkpt>
      <trkpt lat="43.2334" lon="5.50118">
        <ele>234.6</ele>
        <time>2025-10-18T15:27:53Z</time>
      </trkpt>
      <trkpt lat="43.23341" lon="5.50118">
        <ele>234.8</ele>
        <time>2025-10-18T15:27:54Z</time>
      </trkpt>
      <trkpt lat="43.23342" lon="5.50119">
        <ele>234.9</ele>
        <time>2025-10-18T15:27:55Z</time>
      </trkpt>
      <trkpt lat="43.23342" lon="5.50119">
        <ele>235.1</ele>
        <time>2025-10-18T15:27:56Z</time>
      </trkpt>
      <trkpt lat="43.23343" lon="5.50119">
        <ele>235.3</ele>
        <time>2025-10-18T15:27:57Z</time>
      </trkpt>
      <trkpt lat="43.23344" lon="5.5012">
        <ele>235.4</ele>
        <time>2025-10-18T15:27:58Z</time>
      </trkpt>
      <trkpt lat="43.23344" lon="5.50121">
        <ele>235.6</ele>
        <time>2025-10-18T15:27:59Z</time>
      </trkpt>
      <trkpt lat="43.23345" lon="5.50121">
        <ele>235.8</ele>
        <time>2025-10-18T15:28:00Z</time>
      </trkpt>
      <trkpt lat="43.23346" lon="5.50122">
        <ele>236</ele>
        <time>2025-10-18T15:28:01Z</time>
      </trkpt>
      <trkpt lat="43.23347" lon="5.50122">
        <ele>236.1</ele>
        <time>2025-10-18T15:28:02Z</time>
      </trkpt>
      <trkpt lat="43.23347" lon="5.50123">
        <ele>236.3</ele>
        <time>2025-10-18T15:28:03Z</time>
      </trkpt>
      <trkpt lat="43.23348" lon="5.50123">
        <ele>236.5</ele>
        <time>2025-10-18T15:28:04Z</time>
      </trkpt>
      <trkpt lat="43.23349" lon="5.50124">
        <ele>236.6</ele>
        <time>2025-10-18T15:28:05Z</time>
      </trkpt>
      <trkpt lat="43.2335" lon="5.50124">
        <ele>236.6</ele>
        <time>2025-10-18T15:28:06Z</time>
      </trkpt>
      <trkpt lat="43.23351" lon="5.50124">
        <ele>236.7</ele>
        <time>2025-10-18T15:28:07Z</time>
      </trkpt>
      <trkpt lat="43.23352" lon="5.50124">
        <ele>236.9</ele>
        <time>2025-10-18T15:28:08Z</time>
      </trkpt>
      <trkpt lat="43.23352" lon="5.50124">
        <ele>237</ele>
        <time>2025-10-18T15:28:09Z</time>
      </trkpt>
      <trkpt lat="43.23353" lon="5.50124">
        <ele>237.1</ele>
        <time>2025-10-18T15:28:10Z</time>
      </trkpt>
      <trkpt lat="43.23354" lon="5.50125">
        <ele>237.2</ele>
        <time>2025-10-18T15:28:11Z</time>
      </trkpt>
      <trkpt lat="43.23355" lon="5.50125">
        <ele>237.3</ele>
        <time>2025-10-18T15:28:12Z</time>
      </trkpt>
      <trkpt lat="43.23356" lon="5.50124">
        <ele>237.5</ele>
        <time>2025-10-18T15:28:13Z</time>
      </trkpt>
      <trkpt lat="43.23357" lon="5.50125">
        <ele>237.6</ele>
        <time>2025-10-18T15:28:14Z</time>
      </trkpt>
      <trkpt lat="43.23358" lon="5.50125">
        <ele>237.8</ele>
        <time>2025-10-18T15:28:15Z</time>
      </trkpt>
      <trkpt lat="43.23359" lon="5.50125">
        <ele>237.8</ele>
        <time>2025-10-18T15:28:16Z</time>
      </trkpt>
      <trkpt lat="43.23359" lon="5.50125">
        <ele>237.9</ele>
        <time>2025-10-18T15:28:17Z</time>
      </trkpt>
      <trkpt lat="43.2336" lon="5.50125">
        <ele>238</ele>
        <time>2025-10-18T15:28:18Z</time>
      </trkpt>
      <trkpt lat="43.23361" lon="5.50126">
        <ele>238.1</ele>
        <time>2025-10-18T15:28:19Z</time>
      </trkpt>
      <trkpt lat="43.23362" lon="5.50126">
        <ele>238.2</ele>
        <time>2025-10-18T15:28:20Z</time>
      </trkpt>
      <trkpt lat="43.23363" lon="5.50127">
        <ele>238.2</ele>
        <time>2025-10-18T15:28:21Z</time>
      </trkpt>
      <trkpt lat="43.23364" lon="5.50127">
        <ele>238.4</ele>
        <time>2025-10-18T15:28:22Z</time>
      </trkpt>
      <trkpt lat="43.23365" lon="5.50127">
        <ele>238.5</ele>
        <time>2025-10-18T15:28:23Z</time>
      </trkpt>
      <trkpt lat="43.23366" lon="5.50127">
        <ele>238.6</ele>
        <time>2025-10-18T15:28:24Z</time>
      </trkpt>
      <trkpt lat="43.23367" lon="5.50127">
        <ele>238.6</ele>
        <time>2025-10-18T15:28:25Z</time>
      </trkpt>
      <trkpt lat="43.23368" lon="5.50127">
        <ele>238.7</ele>
        <time>2025-10-18T15:28:26Z</time>
      </trkpt>
      <trkpt lat="43.23369" lon="5.50126">
        <ele>238.7</ele>
        <time>2025-10-18T15:28:27Z</time>
      </trkpt>
      <trkpt lat="43.2337" lon="5.50126">
        <ele>238.7</ele>
        <time>2025-10-18T15:28:28Z</time>
      </trkpt>
      <trkpt lat="43.23371" lon="5.50126">
        <ele>238.8</ele>
        <time>2025-10-18T15:28:29Z</time>
      </trkpt>
      <trkpt lat="43.23372" lon="5.50126">
        <ele>238.9</ele>
        <time>2025-10-18T15:28:30Z</time>
      </trkpt>
      <trkpt lat="43.23373" lon="5.50125">
        <ele>238.9</ele>
        <time>2025-10-18T15:28:31Z</time>
      </trkpt>
      <trkpt lat="43.23374" lon="5.50125">
        <ele>239</ele>
        <time>2025-10-18T15:28:32Z</time>
      </trkpt>
      <trkpt lat="43.23375" lon="5.50124">
        <ele>239</ele>
        <time>2025-10-18T15:28:33Z</time>
      </trkpt>
      <trkpt lat="43.23376" lon="5.50123">
        <ele>239.1</ele>
        <time>2025-10-18T15:28:34Z</time>
      </trkpt>
      <trkpt lat="43.23377" lon="5.50122">
        <ele>239.1</ele>
        <time>2025-10-18T15:28:35Z</time>
      </trkpt>
      <trkpt lat="43.23378" lon="5.50122">
        <ele>239.2</ele>
        <time>2025-10-18T15:28:36Z</time>
      </trkpt>
      <trkpt lat="43.23378" lon="5.50121">
        <ele>239.2</ele>
        <time>2025-10-18T15:28:37Z</time>
      </trkpt>
      <trkpt lat="43.23379" lon="5.50121">
        <ele>239.2</ele>
        <time>2025-10-18T15:28:38Z</time>
      </trkpt>
      <trkpt lat="43.2338" lon="5.5012">
        <ele>239.3</ele>
        <time>2025-10-18T15:28:39Z</time>
      </trkpt>
      <trkpt lat="43.23381" lon="5.5012">
        <ele>239.4</ele>
        <time>2025-10-18T15:28:40Z</time>
      </trkpt>
      <trkpt lat="43.23382" lon="5.50119">
        <ele>239.6</ele>
        <time>2025-10-18T15:28:41Z</time>
      </trkpt>
      <trkpt lat="43.23383" lon="5.50118">
        <ele>239.5</ele>
        <time>2025-10-18T15:28:42Z</time>
      </trkpt>
      <trkpt lat="43.23384" lon="5.50118">
        <ele>239.7</ele>
        <time>2025-10-18T15:28:43Z</time>
      </trkpt>
      <trkpt lat="43.23385" lon="5.50117">
        <ele>239.8</ele>
        <time>2025-10-18T15:28:44Z</time>
      </trkpt>
      <trkpt lat="43.23386" lon="5.50117">
        <ele>239.8</ele>
        <time>2025-10-18T15:28:45Z</time>
      </trkpt>
      <trkpt lat="43.23387" lon="5.50116">
        <ele>239.8</ele>
        <time>2025-10-18T15:28:46Z</time>
      </trkpt>
      <trkpt lat="43.23389" lon="5.50116">
        <ele>239.9</ele>
        <time>2025-10-18T15:28:47Z</time>
      </trkpt>
      <trkpt lat="43.2339" lon="5.50115">
        <ele>239.9</ele>
        <time>2025-10-18T15:28:48Z</time>
      </trkpt>
      <trkpt lat="43.23391" lon="5.50114">
        <ele>240</ele>
        <time>2025-10-18T15:28:49Z</time>
      </trkpt>
      <trkpt lat="43.23392" lon="5.50113">
        <ele>240</ele>
        <time>2025-10-18T15:28:50Z</time>
      </trkpt>
      <trkpt lat="43.23393" lon="5.50113">
        <ele>240.1</ele>
        <time>2025-10-18T15:28:51Z</time>
      </trkpt>
      <trkpt lat="43.23394" lon="5.50113">
        <ele>240.1</ele>
        <time>2025-10-18T15:28:52Z</time>
      </trkpt>
      <trkpt lat="43.23394" lon="5.50112">
        <ele>240.1</ele>
        <time>2025-10-18T15:28:53Z</time>
      </trkpt>
      <trkpt lat="43.23395" lon="5.50111">
        <ele>240.1</ele>
        <time>2025-10-18T15:28:54Z</time>
      </trkpt>
      <trkpt lat="43.23396" lon="5.50111">
        <ele>240.2</ele>
        <time>2025-10-18T15:28:55Z</time>
      </trkpt>
      <trkpt lat="43.23397" lon="5.50111">
        <ele>240.3</ele>
        <time>2025-10-18T15:28:56Z</time>
      </trkpt>
      <trkpt lat="43.23398" lon="5.5011">
        <ele>240.2</ele>
        <time>2025-10-18T15:28:57Z</time>
      </trkpt>
      <trkpt lat="43.23399" lon="5.50109">
        <ele>240.2</ele>
        <time>2025-10-18T15:28:58Z</time>
      </trkpt>
      <trkpt lat="43.234" lon="5.50109">
        <ele>240.2</ele>
        <time>2025-10-18T15:28:59Z</time>
      </trkpt>
      <trkpt lat="43.23401" lon="5.50108">
        <ele>240.2</ele>
        <time>2025-10-18T15:29:00Z</time>
      </trkpt>
      <trkpt lat="43.23402" lon="5.50108">
        <ele>240.2</ele>
        <time>2025-10-18T15:29:01Z</time>
      </trkpt>
      <trkpt lat="43.23403" lon="5.50107">
        <ele>240.4</ele>
        <time>2025-10-18T15:29:02Z</time>
      </trkpt>
      <trkpt lat="43.23404" lon="5.50107">
        <ele>240.4</ele>
        <time>2025-10-18T15:29:03Z</time>
      </trkpt>
      <trkpt lat="43.23405" lon="5.50106">
        <ele>240.5</ele>
        <time>2025-10-18T15:29:04Z</time>
      </trkpt>
      <trkpt lat="43.23406" lon="5.50106">
        <ele>240.6</ele>
        <time>2025-10-18T15:29:05Z</time>
      </trkpt>
      <trkpt lat="43.23407" lon="5.50105">
        <ele>240.6</ele>
        <time>2025-10-18T15:29:06Z</time>
      </trkpt>
      <trkpt lat="43.23408" lon="5.50105">
        <ele>240.6</ele>
        <time>2025-10-18T15:29:07Z</time>
      </trkpt>
      <trkpt lat="43.23409" lon="5.50104">
        <ele>240.6</ele>
        <time>2025-10-18T15:29:08Z</time>
      </trkpt>
      <trkpt lat="43.2341" lon="5.50103">
        <ele>240.6</ele>
        <time>2025-10-18T15:29:09Z</time>
      </trkpt>
      <trkpt lat="43.23411" lon="5.50102">
        <ele>240.6</ele>
        <time>2025-10-18T15:29:10Z</time>
      </trkpt>
      <trkpt lat="43.23412" lon="5.50101">
        <ele>240.6</ele>
        <time>2025-10-18T15:29:11Z</time>
      </trkpt>
      <trkpt lat="43.23412" lon="5.501">
        <ele>240.7</ele>
        <time>2025-10-18T15:29:12Z</time>
      </trkpt>
      <trkpt lat="43.23413" lon="5.50099">
        <ele>240.8</ele>
        <time>2025-10-18T15:29:13Z</time>
      </trkpt>
      <trkpt lat="43.23414" lon="5.50099">
        <ele>240.8</ele>
        <time>2025-10-18T15:29:14Z</time>
      </trkpt>
      <trkpt lat="43.23415" lon="5.50098">
        <ele>240.9</ele>
        <time>2025-10-18T15:29:15Z</time>
      </trkpt>
      <trkpt lat="43.23416" lon="5.50098">
        <ele>240.9</ele>
        <time>2025-10-18T15:29:16Z</time>
      </trkpt>
      <trkpt lat="43.23417" lon="5.50097">
        <ele>240.9</ele>
        <time>2025-10-18T15:29:17Z</time>
      </trkpt>
      <trkpt lat="43.23418" lon="5.50097">
        <ele>240.9</ele>
        <time>2025-10-18T15:29:18Z</time>
      </trkpt>
      <trkpt lat="43.23419" lon="5.50096">
        <ele>240.9</ele>
        <time>2025-10-18T15:29:19Z</time>
      </trkpt>
      <trkpt lat="43.2342" lon="5.50096">
        <ele>240.9</ele>
        <time>2025-10-18T15:29:20Z</time>
      </trkpt>
      <trkpt lat="43.23421" lon="5.50095">
        <ele>240.9</ele>
        <time>2025-10-18T15:29:21Z</time>
      </trkpt>
      <trkpt lat="43.23422" lon="5.50094">
        <ele>241</ele>
        <time>2025-10-18T15:29:22Z</time>
      </trkpt>
      <trkpt lat="43.23423" lon="5.50094">
        <ele>241</ele>
        <time>2025-10-18T15:29:23Z</time>
      </trkpt>
      <trkpt lat="43.23423" lon="5.50092">
        <ele>241.2</ele>
        <time>2025-10-18T15:29:24Z</time>
      </trkpt>
      <trkpt lat="43.23424" lon="5.50091">
        <ele>241.1</ele>
        <time>2025-10-18T15:29:25Z</time>
      </trkpt>
      <trkpt lat="43.23425" lon="5.5009">
        <ele>241.1</ele>
        <time>2025-10-18T15:29:26Z</time>
      </trkpt>
      <trkpt lat="43.23426" lon="5.5009">
        <ele>241.2</ele>
        <time>2025-10-18T15:29:27Z</time>
      </trkpt>
      <trkpt lat="43.23427" lon="5.50089">
        <ele>241.3</ele>
        <time>2025-10-18T15:29:28Z</time>
      </trkpt>
      <trkpt lat="43.23428" lon="5.50088">
        <ele>241.4</ele>
        <time>2025-10-18T15:29:29Z</time>
      </trkpt>
      <trkpt lat="43.23428" lon="5.50087">
        <ele>241.3</ele>
        <time>2025-10-18T15:29:30Z</time>
      </trkpt>
      <trkpt lat="43.23429" lon="5.50086">
        <ele>241.3</ele>
        <time>2025-10-18T15:29:31Z</time>
      </trkpt>
      <trkpt lat="43.2343" lon="5.50085">
        <ele>241.4</ele>
        <time>2025-10-18T15:29:32Z</time>
      </trkpt>
      <trkpt lat="43.23431" lon="5.50084">
        <ele>241.4</ele>
        <time>2025-10-18T15:29:33Z</time>
      </trkpt>
      <trkpt lat="43.23432" lon="5.50083">
        <ele>241.4</ele>
        <time>2025-10-18T15:29:34Z</time>
      </trkpt>
      <trkpt lat="43.23433" lon="5.50082">
        <ele>241.4</ele>
        <time>2025-10-18T15:29:35Z</time>
      </trkpt>
      <trkpt lat="43.23434" lon="5.50081">
        <ele>241.4</ele>
        <time>2025-10-18T15:29:36Z</time>
      </trkpt>
      <trkpt lat="43.23435" lon="5.50081">
        <ele>241.4</ele>
        <time>2025-10-18T15:29:37Z</time>
      </trkpt>
      <trkpt lat="43.23436" lon="5.5008">
        <ele>241.4</ele>
        <time>2025-10-18T15:29:38Z</time>
      </trkpt>
      <trkpt lat="43.23437" lon="5.5008">
        <ele>241.5</ele>
        <time>2025-10-18T15:29:39Z</time>
      </trkpt>
      <trkpt lat="43.23438" lon="5.50079">
        <ele>241.5</ele>
        <time>2025-10-18T15:29:40Z</time>
      </trkpt>
      <trkpt lat="43.23439" lon="5.50079">
        <ele>241.5</ele>
        <time>2025-10-18T15:29:41Z</time>
      </trkpt>
      <trkpt lat="43.2344" lon="5.50078">
        <ele>241.5</ele>
        <time>2025-10-18T15:29:42Z</time>
      </trkpt>
      <trkpt lat="43.23441" lon="5.50078">
        <ele>241.5</ele>
        <time>2025-10-18T15:29:43Z</time>
      </trkpt>
      <trkpt lat="43.23442" lon="5.50077">
        <ele>241.5</ele>
        <time>2025-10-18T15:29:44Z</time>
      </trkpt>
      <trkpt lat="43.23443" lon="5.50076">
        <ele>241.5</ele>
        <time>2025-10-18T15:29:45Z</time>
      </trkpt>
      <trkpt lat="43.23444" lon="5.50076">
        <ele>241.7</ele>
        <time>2025-10-18T15:29:46Z</time>
      </trkpt>
      <trkpt lat="43.23445" lon="5.50076">
        <ele>241.7</ele>
        <time>2025-10-18T15:29:47Z</time>
      </trkpt>
      <trkpt lat="43.23446" lon="5.50075">
        <ele>241.8</ele>
        <time>2025-10-18T15:29:48Z</time>
      </trkpt>
      <trkpt lat="43.23447" lon="5.50075">
        <ele>241.7</ele>
        <time>2025-10-18T15:29:49Z</time>
      </trkpt>
      <trkpt lat="43.23448" lon="5.50074">
        <ele>241.6</ele>
        <time>2025-10-18T15:29:50Z</time>
      </trkpt>
      <trkpt lat="43.23449" lon="5.50073">
        <ele>241.5</ele>
        <time>2025-10-18T15:29:51Z</time>
      </trkpt>
      <trkpt lat="43.2345" lon="5.50072">
        <ele>241.5</ele>
        <time>2025-10-18T15:29:52Z</time>
      </trkpt>
      <trkpt lat="43.23451" lon="5.50072">
        <ele>241.5</ele>
        <time>2025-10-18T15:29:53Z</time>
      </trkpt>
      <trkpt lat="43.23452" lon="5.50071">
        <ele>241.5</ele>
        <time>2025-10-18T15:29:54Z</time>
      </trkpt>
      <trkpt lat="43.23453" lon="5.5007">
        <ele>241.5</ele>
        <time>2025-10-18T15:29:55Z</time>
      </trkpt>
      <trkpt lat="43.23454" lon="5.50069">
        <ele>241.5</ele>
        <time>2025-10-18T15:29:56Z</time>
      </trkpt>
      <trkpt lat="43.23455" lon="5.50068">
        <ele>241.5</ele>
        <time>2025-10-18T15:29:57Z</time>
      </trkpt>
      <trkpt lat="43.23456" lon="5.50067">
        <ele>241.6</ele>
        <time>2025-10-18T15:29:58Z</time>
      </trkpt>
      <trkpt lat="43.23457" lon="5.50066">
        <ele>241.5</ele>
        <time>2025-10-18T15:29:59Z</time>
      </trkpt>
      <trkpt lat="43.23458" lon="5.50065">
        <ele>241.4</ele>
        <time>2025-10-18T15:30:00Z</time>
      </trkpt>
      <trkpt lat="43.23459" lon="5.50065">
        <ele>241.4</ele>
        <time>2025-10-18T15:30:01Z</time>
      </trkpt>
      <trkpt lat="43.2346" lon="5.50064">
        <ele>241.4</ele>
        <time>2025-10-18T15:30:02Z</time>
      </trkpt>
      <trkpt lat="43.23461" lon="5.50063">
        <ele>241.4</ele>
        <time>2025-10-18T15:30:03Z</time>
      </trkpt>
      <trkpt lat="43.23462" lon="5.50063">
        <ele>241.4</ele>
        <time>2025-10-18T15:30:04Z</time>
      </trkpt>
      <trkpt lat="43.23463" lon="5.50062">
        <ele>241.5</ele>
        <time>2025-10-18T15:30:05Z</time>
      </trkpt>
      <trkpt lat="43.23464" lon="5.50062">
        <ele>241.5</ele>
        <time>2025-10-18T15:30:06Z</time>
      </trkpt>
      <trkpt lat="43.23465" lon="5.50061">
        <ele>241.5</ele>
        <time>2025-10-18T15:30:07Z</time>
      </trkpt>
      <trkpt lat="43.23466" lon="5.50061">
        <ele>241.6</ele>
        <time>2025-10-18T15:30:08Z</time>
      </trkpt>
      <trkpt lat="43.23467" lon="5.5006">
        <ele>241.5</ele>
        <time>2025-10-18T15:30:09Z</time>
      </trkpt>
      <trkpt lat="43.23468" lon="5.5006">
        <ele>241.5</ele>
        <time>2025-10-18T15:30:10Z</time>
      </trkpt>
      <trkpt lat="43.23469" lon="5.50059">
        <ele>241.5</ele>
        <time>2025-10-18T15:30:11Z</time>
      </trkpt>
      <trkpt lat="43.2347" lon="5.50059">
        <ele>241.5</ele>
        <time>2025-10-18T15:30:12Z</time>
      </trkpt>
      <trkpt lat="43.23471" lon="5.50059">
        <ele>241.5</ele>
        <time>2025-10-18T15:30:13Z</time>
      </trkpt>
      <trkpt lat="43.23472" lon="5.50058">
        <ele>241.5</ele>
        <time>2025-10-18T15:30:14Z</time>
      </trkpt>
      <trkpt lat="43.23473" lon="5.50058">
        <ele>241.5</ele>
        <time>2025-10-18T15:30:15Z</time>
      </trkpt>
      <trkpt lat="43.23474" lon="5.50057">
        <ele>241.5</ele>
        <time>2025-10-18T15:30:16Z</time>
      </trkpt>
      <trkpt lat="43.23475" lon="5.50056">
        <ele>241.6</ele>
        <time>2025-10-18T15:30:17Z</time>
      </trkpt>
      <trkpt lat="43.23476" lon="5.50056">
        <ele>241.6</ele>
        <time>2025-10-18T15:30:18Z</time>
      </trkpt>
      <trkpt lat="43.23477" lon="5.50055">
        <ele>241.6</ele>
        <time>2025-10-18T15:30:19Z</time>
      </trkpt>
      <trkpt lat="43.23478" lon="5.50055">
        <ele>241.6</ele>
        <time>2025-10-18T15:30:20Z</time>
      </trkpt>
      <trkpt lat="43.23479" lon="5.50054">
        <ele>241.6</ele>
        <time>2025-10-18T15:30:21Z</time>
      </trkpt>
      <trkpt lat="43.2348" lon="5.50053">
        <ele>241.6</ele>
        <time>2025-10-18T15:30:22Z</time>
      </trkpt>
      <trkpt lat="43.23481" lon="5.50053">
        <ele>241.6</ele>
        <time>2025-10-18T15:30:23Z</time>
      </trkpt>
      <trkpt lat="43.23481" lon="5.50052">
        <ele>241.9</ele>
        <time>2025-10-18T15:30:24Z</time>
      </trkpt>
      <trkpt lat="43.23482" lon="5.50051">
        <ele>241.9</ele>
        <time>2025-10-18T15:30:25Z</time>
      </trkpt>
      <trkpt lat="43.23483" lon="5.5005">
        <ele>242</ele>
        <time>2025-10-18T15:30:26Z</time>
      </trkpt>
      <trkpt lat="43.23484" lon="5.50049">
        <ele>242</ele>
        <time>2025-10-18T15:30:27Z</time>
      </trkpt>
      <trkpt lat="43.23485" lon="5.50048">
        <ele>242.1</ele>
        <time>2025-10-18T15:30:28Z</time>
      </trkpt>
      <trkpt lat="43.23486" lon="5.50047">
        <ele>242.2</ele>
        <time>2025-10-18T15:30:29Z</time>
      </trkpt>
      <trkpt lat="43.23487" lon="5.50046">
        <ele>242.3</ele>
        <time>2025-10-18T15:30:30Z</time>
      </trkpt>
      <trkpt lat="43.23487" lon="5.50045">
        <ele>242.4</ele>
        <time>2025-10-18T15:30:31Z</time>
      </trkpt>
      <trkpt lat="43.23488" lon="5.50045">
        <ele>242.4</ele>
        <time>2025-10-18T15:30:32Z</time>
      </trkpt>
      <trkpt lat="43.23488" lon="5.50044">
        <ele>242.5</ele>
        <time>2025-10-18T15:30:33Z</time>
      </trkpt>
      <trkpt lat="43.23488" lon="5.50044">
        <ele>242.5</ele>
        <time>2025-10-18T15:30:34Z</time>
      </trkpt>
      <trkpt lat="43.23488" lon="5.50044">
        <ele>242.5</ele>
        <time>2025-10-18T15:30:35Z</time>
      </trkpt>
      <trkpt lat="43.23489" lon="5.50044">
        <ele>242.6</ele>
        <time>2025-10-18T15:30:36Z</time>
      </trkpt>
      <trkpt lat="43.2349" lon="5.50044">
        <ele>242.5</ele>
        <time>2025-10-18T15:30:37Z</time>
      </trkpt>
      <trkpt lat="43.23491" lon="5.50044">
        <ele>242.6</ele>
        <time>2025-10-18T15:30:38Z</time>
      </trkpt>
      <trkpt lat="43.23492" lon="5.50043">
        <ele>242.8</ele>
        <time>2025-10-18T15:30:39Z</time>
      </trkpt>
      <trkpt lat="43.23494" lon="5.50043">
        <ele>242.8</ele>
        <time>2025-10-18T15:30:40Z</time>
      </trkpt>
      <trkpt lat="43.23495" lon="5.50042">
        <ele>242.8</ele>
        <time>2025-10-18T15:30:41Z</time>
      </trkpt>
      <trkpt lat="43.23496" lon="5.50041">
        <ele>242.9</ele>
        <time>2025-10-18T15:30:42Z</time>
      </trkpt>
      <trkpt lat="43.23497" lon="5.50041">
        <ele>242.9</ele>
        <time>2025-10-18T15:30:43Z</time>
      </trkpt>
      <trkpt lat="43.23498" lon="5.5004">
        <ele>243</ele>
        <time>2025-10-18T15:30:44Z</time>
      </trkpt>
      <trkpt lat="43.23499" lon="5.5004">
        <ele>243.1</ele>
        <time>2025-10-18T15:30:45Z</time>
      </trkpt>
      <trkpt lat="43.235" lon="5.5004">
        <ele>243.1</ele>
        <time>2025-10-18T15:30:46Z</time>
      </trkpt>
      <trkpt lat="43.23502" lon="5.5004">
        <ele>243.2</ele>
        <time>2025-10-18T15:30:47Z</time>
      </trkpt>
      <trkpt lat="43.23503" lon="5.5004">
        <ele>243.2</ele>
        <time>2025-10-18T15:30:48Z</time>
      </trkpt>
      <trkpt lat="43.23504" lon="5.50039">
        <ele>243.2</ele>
        <time>2025-10-18T15:30:49Z</time>
      </trkpt>
      <trkpt lat="43.23505" lon="5.50038">
        <ele>243.3</ele>
        <time>2025-10-18T15:30:50Z</time>
      </trkpt>
      <trkpt lat="43.23506" lon="5.50038">
        <ele>243.3</ele>
        <time>2025-10-18T15:30:51Z</time>
      </trkpt>
      <trkpt lat="43.23508" lon="5.50037">
        <ele>243.4</ele>
        <time>2025-10-18T15:30:52Z</time>
      </trkpt>
      <trkpt lat="43.23509" lon="5.50036">
        <ele>243.4</ele>
        <time>2025-10-18T15:30:53Z</time>
      </trkpt>
      <trkpt lat="43.2351" lon="5.50035">
        <ele>243.4</ele>
        <time>2025-10-18T15:30:54Z</time>
      </trkpt>
      <trkpt lat="43.23511" lon="5.50034">
        <ele>243.5</ele>
        <time>2025-10-18T15:30:55Z</time>
      </trkpt>
      <trkpt lat="43.23512" lon="5.50034">
        <ele>243.5</ele>
        <time>2025-10-18T15:30:56Z</time>
      </trkpt>
      <trkpt lat="43.23513" lon="5.50033">
        <ele>243.5</ele>
        <time>2025-10-18T15:30:57Z</time>
      </trkpt>
      <trkpt lat="43.23514" lon="5.50033">
        <ele>243.5</ele>
        <time>2025-10-18T15:30:58Z</time>
      </trkpt>
      <trkpt lat="43.23515" lon="5.50032">
        <ele>243.5</ele>
        <time>2025-10-18T15:30:59Z</time>
      </trkpt>
      <trkpt lat="43.23517" lon="5.50031">
        <ele>243.6</ele>
        <time>2025-10-18T15:31:00Z</time>
      </trkpt>
      <trkpt lat="43.23518" lon="5.50031">
        <ele>243.6</ele>
        <time>2025-10-18T15:31:01Z</time>
      </trkpt>
      <trkpt lat="43.23519" lon="5.5003">
        <ele>243.6</ele>
        <time>2025-10-18T15:31:02Z</time>
      </trkpt>
      <trkpt lat="43.2352" lon="5.50029">
        <ele>243.6</ele>
        <time>2025-10-18T15:31:03Z</time>
      </trkpt>
      <trkpt lat="43.23521" lon="5.50028">
        <ele>243.7</ele>
        <time>2025-10-18T15:31:04Z</time>
      </trkpt>
      <trkpt lat="43.23522" lon="5.50027">
        <ele>243.7</ele>
        <time>2025-10-18T15:31:05Z</time>
      </trkpt>
      <trkpt lat="43.23524" lon="5.50027">
        <ele>243.7</ele>
        <time>2025-10-18T15:31:06Z</time>
      </trkpt>
      <trkpt lat="43.23525" lon="5.50026">
        <ele>243.8</ele>
        <time>2025-10-18T15:31:07Z</time>
      </trkpt>
      <trkpt lat="43.23526" lon="5.50025">
        <ele>243.8</ele>
        <time>2025-10-18T15:31:08Z</time>
      </trkpt>
      <trkpt lat="43.23527" lon="5.50024">
        <ele>243.9</ele>
        <time>2025-10-18T15:31:09Z</time>
      </trkpt>
      <trkpt lat="43.23528" lon="5.50023">
        <ele>243.9</ele>
        <time>2025-10-18T15:31:10Z</time>
      </trkpt>
      <trkpt lat="43.23529" lon="5.50022">
        <ele>244</ele>
        <time>2025-10-18T15:31:11Z</time>
      </trkpt>
      <trkpt lat="43.2353" lon="5.50022">
        <ele>244</ele>
        <time>2025-10-18T15:31:12Z</time>
      </trkpt>
      <trkpt lat="43.23531" lon="5.50021">
        <ele>244.1</ele>
        <time>2025-10-18T15:31:13Z</time>
      </trkpt>
      <trkpt lat="43.23532" lon="5.5002">
        <ele>244.2</ele>
        <time>2025-10-18T15:31:14Z</time>
      </trkpt>
      <trkpt lat="43.23533" lon="5.5002">
        <ele>244.5</ele>
        <time>2025-10-18T15:31:15Z</time>
      </trkpt>
      <trkpt lat="43.23535" lon="5.5002">
        <ele>244.5</ele>
        <time>2025-10-18T15:31:16Z</time>
      </trkpt>
      <trkpt lat="43.23536" lon="5.5002">
        <ele>244.5</ele>
        <time>2025-10-18T15:31:17Z</time>
      </trkpt>
      <trkpt lat="43.23537" lon="5.50019">
        <ele>244.5</ele>
        <time>2025-10-18T15:31:18Z</time>
      </trkpt>
      <trkpt lat="43.23538" lon="5.50019">
        <ele>244.5</ele>
        <time>2025-10-18T15:31:19Z</time>
      </trkpt>
      <trkpt lat="43.23539" lon="5.50018">
        <ele>244.6</ele>
        <time>2025-10-18T15:31:20Z</time>
      </trkpt>
      <trkpt lat="43.2354" lon="5.50018">
        <ele>244.7</ele>
        <time>2025-10-18T15:31:21Z</time>
      </trkpt>
      <trkpt lat="43.23542" lon="5.50017">
        <ele>244.8</ele>
        <time>2025-10-18T15:31:22Z</time>
      </trkpt>
      <trkpt lat="43.23543" lon="5.50016">
        <ele>244.8</ele>
        <time>2025-10-18T15:31:23Z</time>
      </trkpt>
      <trkpt lat="43.23543" lon="5.50015">
        <ele>244.8</ele>
        <time>2025-10-18T15:31:24Z</time>
      </trkpt>
      <trkpt lat="43.23544" lon="5.50015">
        <ele>244.7</ele>
        <time>2025-10-18T15:31:25Z</time>
      </trkpt>
      <trkpt lat="43.23545" lon="5.50014">
        <ele>244.7</ele>
        <time>2025-10-18T15:31:26Z</time>
      </trkpt>
      <trkpt lat="43.23547" lon="5.50013">
        <ele>244.8</ele>
        <time>2025-10-18T15:31:27Z</time>
      </trkpt>
      <trkpt lat="43.23548" lon="5.50013">
        <ele>244.7</ele>
        <time>2025-10-18T15:31:28Z</time>
      </trkpt>
      <trkpt lat="43.23549" lon="5.50012">
        <ele>244.7</ele>
        <time>2025-10-18T15:31:29Z</time>
      </trkpt>
      <trkpt lat="43.2355" lon="5.50012">
        <ele>244.8</ele>
        <time>2025-10-18T15:31:30Z</time>
      </trkpt>
      <trkpt lat="43.23551" lon="5.50012">
        <ele>244.9</ele>
        <time>2025-10-18T15:31:31Z</time>
      </trkpt>
      <trkpt lat="43.23552" lon="5.50012">
        <ele>245</ele>
        <time>2025-10-18T15:31:32Z</time>
      </trkpt>
      <trkpt lat="43.23553" lon="5.50011">
        <ele>245.1</ele>
        <time>2025-10-18T15:31:33Z</time>
      </trkpt>
      <trkpt lat="43.23555" lon="5.50011">
        <ele>245.1</ele>
        <time>2025-10-18T15:31:34Z</time>
      </trkpt>
      <trkpt lat="43.23556" lon="5.5001">
        <ele>245.2</ele>
        <time>2025-10-18T15:31:35Z</time>
      </trkpt>
      <trkpt lat="43.23557" lon="5.5001">
        <ele>245.2</ele>
        <time>2025-10-18T15:31:36Z</time>
      </trkpt>
      <trkpt lat="43.23557" lon="5.5001">
        <ele>245.2</ele>
        <time>2025-10-18T15:31:37Z</time>
      </trkpt>
      <trkpt lat="43.23559" lon="5.50009">
        <ele>245.2</ele>
        <time>2025-10-18T15:31:38Z</time>
      </trkpt>
      <trkpt lat="43.2356" lon="5.50009">
        <ele>245.3</ele>
        <time>2025-10-18T15:31:39Z</time>
      </trkpt>
      <trkpt lat="43.23561" lon="5.50008">
        <ele>245.4</ele>
        <time>2025-10-18T15:31:40Z</time>
      </trkpt>
      <trkpt lat="43.23562" lon="5.50008">
        <ele>245.5</ele>
        <time>2025-10-18T15:31:41Z</time>
      </trkpt>
      <trkpt lat="43.23563" lon="5.50007">
        <ele>245.5</ele>
        <time>2025-10-18T15:31:42Z</time>
      </trkpt>
      <trkpt lat="43.23564" lon="5.50006">
        <ele>245.5</ele>
        <time>2025-10-18T15:31:43Z</time>
      </trkpt>
      <trkpt lat="43.23565" lon="5.50006">
        <ele>245.6</ele>
        <time>2025-10-18T15:31:44Z</time>
      </trkpt>
      <trkpt lat="43.23566" lon="5.50006">
        <ele>245.7</ele>
        <time>2025-10-18T15:31:45Z</time>
      </trkpt>
      <trkpt lat="43.23568" lon="5.50006">
        <ele>245.8</ele>
        <time>2025-10-18T15:31:46Z</time>
      </trkpt>
      <trkpt lat="43.23568" lon="5.50006">
        <ele>245.8</ele>
        <time>2025-10-18T15:31:47Z</time>
      </trkpt>
      <trkpt lat="43.23569" lon="5.50006">
        <ele>245.9</ele>
        <time>2025-10-18T15:31:48Z</time>
      </trkpt>
      <trkpt lat="43.2357" lon="5.50006">
        <ele>245.7</ele>
        <time>2025-10-18T15:31:49Z</time>
      </trkpt>
      <trkpt lat="43.23571" lon="5.50006">
        <ele>245.7</ele>
        <time>2025-10-18T15:31:50Z</time>
      </trkpt>
      <trkpt lat="43.23572" lon="5.50005">
        <ele>245.8</ele>
        <time>2025-10-18T15:31:51Z</time>
      </trkpt>
      <trkpt lat="43.23573" lon="5.50005">
        <ele>245.8</ele>
        <time>2025-10-18T15:31:52Z</time>
      </trkpt>
      <trkpt lat="43.23575" lon="5.50004">
        <ele>245.8</ele>
        <time>2025-10-18T15:31:53Z</time>
      </trkpt>
      <trkpt lat="43.23576" lon="5.50004">
        <ele>245.9</ele>
        <time>2025-10-18T15:31:54Z</time>
      </trkpt>
      <trkpt lat="43.23577" lon="5.50003">
        <ele>246</ele>
        <time>2025-10-18T15:31:55Z</time>
      </trkpt>
      <trkpt lat="43.23578" lon="5.50003">
        <ele>246.1</ele>
        <time>2025-10-18T15:31:56Z</time>
      </trkpt>
      <trkpt lat="43.23579" lon="5.50003">
        <ele>246.1</ele>
        <time>2025-10-18T15:31:57Z</time>
      </trkpt>
      <trkpt lat="43.2358" lon="5.50003">
        <ele>246.1</ele>
        <time>2025-10-18T15:31:58Z</time>
      </trkpt>
      <trkpt lat="43.23581" lon="5.50003">
        <ele>246.1</ele>
        <time>2025-10-18T15:31:59Z</time>
      </trkpt>
      <trkpt lat="43.23582" lon="5.50002">
        <ele>246.1</ele>
        <time>2025-10-18T15:32:00Z</time>
      </trkpt>
      <trkpt lat="43.23583" lon="5.50002">
        <ele>246.2</ele>
        <time>2025-10-18T15:32:01Z</time>
      </trkpt>
      <trkpt lat="43.23584" lon="5.50002">
        <ele>246.3</ele>
        <time>2025-10-18T15:32:02Z</time>
      </trkpt>
      <trkpt lat="43.23585" lon="5.50001">
        <ele>246.3</ele>
        <time>2025-10-18T15:32:03Z</time>
      </trkpt>
      <trkpt lat="43.23586" lon="5.50001">
        <ele>246.3</ele>
        <time>2025-10-18T15:32:04Z</time>
      </trkpt>
      <trkpt lat="43.23588" lon="5.5">
        <ele>246.3</ele>
        <time>2025-10-18T15:32:05Z</time>
      </trkpt>
      <trkpt lat="43.23589" lon="5.5">
        <ele>246.4</ele>
        <time>2025-10-18T15:32:06Z</time>
      </trkpt>
      <trkpt lat="43.23589" lon="5.49999">
        <ele>246.4</ele>
        <time>2025-10-18T15:32:07Z</time>
      </trkpt>
      <trkpt lat="43.23591" lon="5.49999">
        <ele>246.5</ele>
        <time>2025-10-18T15:32:08Z</time>
      </trkpt>
      <trkpt lat="43.23592" lon="5.49999">
        <ele>246.6</ele>
        <time>2025-10-18T15:32:09Z</time>
      </trkpt>
      <trkpt lat="43.23593" lon="5.49998">
        <ele>246.7</ele>
        <time>2025-10-18T15:32:10Z</time>
      </trkpt>
      <trkpt lat="43.23594" lon="5.49998">
        <ele>246.7</ele>
        <time>2025-10-18T15:32:11Z</time>
      </trkpt>
      <trkpt lat="43.23595" lon="5.49998">
        <ele>246.7</ele>
        <time>2025-10-18T15:32:12Z</time>
      </trkpt>
      <trkpt lat="43.23596" lon="5.49998">
        <ele>246.7</ele>
        <time>2025-10-18T15:32:13Z</time>
      </trkpt>
      <trkpt lat="43.23597" lon="5.49998">
        <ele>246.7</ele>
        <time>2025-10-18T15:32:14Z</time>
      </trkpt>
      <trkpt lat="43.23598" lon="5.49997">
        <ele>246.7</ele>
        <time>2025-10-18T15:32:15Z</time>
      </trkpt>
      <trkpt lat="43.23599" lon="5.49996">
        <ele>246.7</ele>
        <time>2025-10-18T15:32:16Z</time>
      </trkpt>
      <trkpt lat="43.236" lon="5.49996">
        <ele>246.7</ele>
        <time>2025-10-18T15:32:17Z</time>
      </trkpt>
      <trkpt lat="43.23601" lon="5.49995">
        <ele>246.7</ele>
        <time>2025-10-18T15:32:18Z</time>
      </trkpt>
      <trkpt lat="43.23602" lon="5.49995">
        <ele>246.7</ele>
        <time>2025-10-18T15:32:19Z</time>
      </trkpt>
      <trkpt lat="43.23603" lon="5.49995">
        <ele>246.8</ele>
        <time>2025-10-18T15:32:20Z</time>
      </trkpt>
      <trkpt lat="43.23604" lon="5.49994">
        <ele>246.9</ele>
        <time>2025-10-18T15:32:21Z</time>
      </trkpt>
      <trkpt lat="43.23605" lon="5.49994">
        <ele>246.9</ele>
        <time>2025-10-18T15:32:22Z</time>
      </trkpt>
      <trkpt lat="43.23606" lon="5.49993">
        <ele>247</ele>
        <time>2025-10-18T15:32:23Z</time>
      </trkpt>
      <trkpt lat="43.23608" lon="5.49993">
        <ele>247</ele>
        <time>2025-10-18T15:32:24Z</time>
      </trkpt>
      <trkpt lat="43.23609" lon="5.49992">
        <ele>247</ele>
        <time>2025-10-18T15:32:25Z</time>
      </trkpt>
      <trkpt lat="43.2361" lon="5.49992">
        <ele>247.1</ele>
        <time>2025-10-18T15:32:26Z</time>
      </trkpt>
      <trkpt lat="43.23611" lon="5.49991">
        <ele>247.1</ele>
        <time>2025-10-18T15:32:27Z</time>
      </trkpt>
      <trkpt lat="43.23612" lon="5.49991">
        <ele>247.2</ele>
        <time>2025-10-18T15:32:28Z</time>
      </trkpt>
      <trkpt lat="43.23613" lon="5.49991">
        <ele>247.2</ele>
        <time>2025-10-18T15:32:29Z</time>
      </trkpt>
      <trkpt lat="43.23614" lon="5.4999">
        <ele>247.2</ele>
        <time>2025-10-18T15:32:30Z</time>
      </trkpt>
      <trkpt lat="43.23615" lon="5.49989">
        <ele>247.2</ele>
        <time>2025-10-18T15:32:31Z</time>
      </trkpt>
      <trkpt lat="43.23616" lon="5.49989">
        <ele>247.3</ele>
        <time>2025-10-18T15:32:32Z</time>
      </trkpt>
      <trkpt lat="43.23617" lon="5.49989">
        <ele>247.4</ele>
        <time>2025-10-18T15:32:33Z</time>
      </trkpt>
      <trkpt lat="43.23618" lon="5.49988">
        <ele>247.4</ele>
        <time>2025-10-18T15:32:34Z</time>
      </trkpt>
      <trkpt lat="43.2362" lon="5.49988">
        <ele>247.5</ele>
        <time>2025-10-18T15:32:35Z</time>
      </trkpt>
      <trkpt lat="43.23621" lon="5.49987">
        <ele>247.5</ele>
        <time>2025-10-18T15:32:36Z</time>
      </trkpt>
      <trkpt lat="43.23622" lon="5.49987">
        <ele>247.6</ele>
        <time>2025-10-18T15:32:37Z</time>
      </trkpt>
      <trkpt lat="43.23623" lon="5.49986">
        <ele>247.8</ele>
        <time>2025-10-18T15:32:38Z</time>
      </trkpt>
      <trkpt lat="43.23624" lon="5.49986">
        <ele>247.8</ele>
        <time>2025-10-18T15:32:39Z</time>
      </trkpt>
      <trkpt lat="43.23625" lon="5.49985">
        <ele>247.8</ele>
        <time>2025-10-18T15:32:40Z</time>
      </trkpt>
      <trkpt lat="43.23626" lon="5.49984">
        <ele>247.8</ele>
        <time>2025-10-18T15:32:41Z</time>
      </trkpt>
      <trkpt lat="43.23627" lon="5.49984">
        <ele>247.9</ele>
        <time>2025-10-18T15:32:42Z</time>
      </trkpt>
      <trkpt lat="43.23628" lon="5.49984">
        <ele>247.9</ele>
        <time>2025-10-18T15:32:43Z</time>
      </trkpt>
      <trkpt lat="43.23629" lon="5.49983">
        <ele>248</ele>
        <time>2025-10-18T15:32:44Z</time>
      </trkpt>
      <trkpt lat="43.2363" lon="5.49983">
        <ele>248</ele>
        <time>2025-10-18T15:32:45Z</time>
      </trkpt>
      <trkpt lat="43.23631" lon="5.49982">
        <ele>248</ele>
        <time>2025-10-18T15:32:46Z</time>
      </trkpt>
      <trkpt lat="43.23632" lon="5.49982">
        <ele>248</ele>
        <time>2025-10-18T15:32:47Z</time>
      </trkpt>
      <trkpt lat="43.23634" lon="5.49982">
        <ele>248</ele>
        <time>2025-10-18T15:32:48Z</time>
      </trkpt>
      <trkpt lat="43.23635" lon="5.49981">
        <ele>248.1</ele>
        <time>2025-10-18T15:32:49Z</time>
      </trkpt>
      <trkpt lat="43.23636" lon="5.49981">
        <ele>248.1</ele>
        <time>2025-10-18T15:32:50Z</time>
      </trkpt>
      <trkpt lat="43.23637" lon="5.49981">
        <ele>248.1</ele>
        <time>2025-10-18T15:32:51Z</time>
      </trkpt>
      <trkpt lat="43.23638" lon="5.4998">
        <ele>248.2</ele>
        <time>2025-10-18T15:32:52Z</time>
      </trkpt>
      <trkpt lat="43.23639" lon="5.4998">
        <ele>248.2</ele>
        <time>2025-10-18T15:32:53Z</time>
      </trkpt>
      <trkpt lat="43.2364" lon="5.49979">
        <ele>248.2</ele>
        <time>2025-10-18T15:32:54Z</time>
      </trkpt>
      <trkpt lat="43.23641" lon="5.49979">
        <ele>248.3</ele>
        <time>2025-10-18T15:32:55Z</time>
      </trkpt>
      <trkpt lat="43.23642" lon="5.49978">
        <ele>248.3</ele>
        <time>2025-10-18T15:32:56Z</time>
      </trkpt>
      <trkpt lat="43.23643" lon="5.49978">
        <ele>248.4</ele>
        <time>2025-10-18T15:32:57Z</time>
      </trkpt>
      <trkpt lat="43.23644" lon="5.49977">
        <ele>248.5</ele>
        <time>2025-10-18T15:32:58Z</time>
      </trkpt>
      <trkpt lat="43.23645" lon="5.49976">
        <ele>248.6</ele>
        <time>2025-10-18T15:32:59Z</time>
      </trkpt>
      <trkpt lat="43.23646" lon="5.49976">
        <ele>248.7</ele>
        <time>2025-10-18T15:33:00Z</time>
      </trkpt>
      <trkpt lat="43.23648" lon="5.49975">
        <ele>248.8</ele>
        <time>2025-10-18T15:33:01Z</time>
      </trkpt>
      <trkpt lat="43.23649" lon="5.49975">
        <ele>248.9</ele>
        <time>2025-10-18T15:33:02Z</time>
      </trkpt>
      <trkpt lat="43.2365" lon="5.49974">
        <ele>249</ele>
        <time>2025-10-18T15:33:03Z</time>
      </trkpt>
      <trkpt lat="43.23651" lon="5.49974">
        <ele>249</ele>
        <time>2025-10-18T15:33:04Z</time>
      </trkpt>
      <trkpt lat="43.23652" lon="5.49973">
        <ele>249.2</ele>
        <time>2025-10-18T15:33:05Z</time>
      </trkpt>
      <trkpt lat="43.23653" lon="5.49973">
        <ele>249.3</ele>
        <time>2025-10-18T15:33:06Z</time>
      </trkpt>
      <trkpt lat="43.23654" lon="5.49973">
        <ele>249.3</ele>
        <time>2025-10-18T15:33:07Z</time>
      </trkpt>
      <trkpt lat="43.23655" lon="5.49972">
        <ele>249.4</ele>
        <time>2025-10-18T15:33:08Z</time>
      </trkpt>
      <trkpt lat="43.23656" lon="5.49972">
        <ele>249.4</ele>
        <time>2025-10-18T15:33:09Z</time>
      </trkpt>
      <trkpt lat="43.23657" lon="5.49972">
        <ele>249.3</ele>
        <time>2025-10-18T15:33:10Z</time>
      </trkpt>
      <trkpt lat="43.23658" lon="5.49971">
        <ele>249.4</ele>
        <time>2025-10-18T15:33:11Z</time>
      </trkpt>
      <trkpt lat="43.23659" lon="5.49971">
        <ele>249.4</ele>
        <time>2025-10-18T15:33:12Z</time>
      </trkpt>
      <trkpt lat="43.2366" lon="5.49971">
        <ele>249.5</ele>
        <time>2025-10-18T15:33:13Z</time>
      </trkpt>
      <trkpt lat="43.23661" lon="5.49971">
        <ele>249.5</ele>
        <time>2025-10-18T15:33:14Z</time>
      </trkpt>
      <trkpt lat="43.23662" lon="5.49971">
        <ele>249.5</ele>
        <time>2025-10-18T15:33:15Z</time>
      </trkpt>
      <trkpt lat="43.23663" lon="5.49971">
        <ele>249.6</ele>
        <time>2025-10-18T15:33:16Z</time>
      </trkpt>
      <trkpt lat="43.23664" lon="5.49971">
        <ele>249.7</ele>
        <time>2025-10-18T15:33:17Z</time>
      </trkpt>
      <trkpt lat="43.23665" lon="5.4997">
        <ele>249.7</ele>
        <time>2025-10-18T15:33:18Z</time>
      </trkpt>
      <trkpt lat="43.23666" lon="5.4997">
        <ele>249.7</ele>
        <time>2025-10-18T15:33:19Z</time>
      </trkpt>
      <trkpt lat="43.23667" lon="5.4997">
        <ele>249.8</ele>
        <time>2025-10-18T15:33:20Z</time>
      </trkpt>
      <trkpt lat="43.23668" lon="5.4997">
        <ele>249.5</ele>
        <time>2025-10-18T15:33:21Z</time>
      </trkpt>
      <trkpt lat="43.23669" lon="5.49971">
        <ele>249.4</ele>
        <time>2025-10-18T15:33:22Z</time>
      </trkpt>
      <trkpt lat="43.2367" lon="5.49972">
        <ele>249.3</ele>
        <time>2025-10-18T15:33:23Z</time>
      </trkpt>
      <trkpt lat="43.23671" lon="5.49973">
        <ele>249.3</ele>
        <time>2025-10-18T15:33:24Z</time>
      </trkpt>
      <trkpt lat="43.23671" lon="5.49974">
        <ele>249.3</ele>
        <time>2025-10-18T15:33:25Z</time>
      </trkpt>
      <trkpt lat="43.23672" lon="5.49976">
        <ele>249.2</ele>
        <time>2025-10-18T15:33:26Z</time>
      </trkpt>
      <trkpt lat="43.23673" lon="5.49977">
        <ele>249.2</ele>
        <time>2025-10-18T15:33:27Z</time>
      </trkpt>
      <trkpt lat="43.23674" lon="5.49978">
        <ele>249.4</ele>
        <time>2025-10-18T15:33:28Z</time>
      </trkpt>
      <trkpt lat="43.23675" lon="5.49979">
        <ele>249.4</ele>
        <time>2025-10-18T15:33:29Z</time>
      </trkpt>
      <trkpt lat="43.23676" lon="5.49979">
        <ele>249.4</ele>
        <time>2025-10-18T15:33:30Z</time>
      </trkpt>
      <trkpt lat="43.23677" lon="5.4998">
        <ele>249.5</ele>
        <time>2025-10-18T15:33:31Z</time>
      </trkpt>
      <trkpt lat="43.23678" lon="5.49981">
        <ele>249.5</ele>
        <time>2025-10-18T15:33:32Z</time>
      </trkpt>
      <trkpt lat="43.23679" lon="5.49981">
        <ele>249.6</ele>
        <time>2025-10-18T15:33:33Z</time>
      </trkpt>
      <trkpt lat="43.23679" lon="5.49982">
        <ele>249.6</ele>
        <time>2025-10-18T15:33:34Z</time>
      </trkpt>
      <trkpt lat="43.2368" lon="5.49983">
        <ele>249.7</ele>
        <time>2025-10-18T15:33:35Z</time>
      </trkpt>
      <trkpt lat="43.23681" lon="5.49984">
        <ele>249.7</ele>
        <time>2025-10-18T15:33:36Z</time>
      </trkpt>
      <trkpt lat="43.23682" lon="5.49985">
        <ele>249.8</ele>
        <time>2025-10-18T15:33:37Z</time>
      </trkpt>
      <trkpt lat="43.23683" lon="5.49985">
        <ele>249.8</ele>
        <time>2025-10-18T15:33:38Z</time>
      </trkpt>
      <trkpt lat="43.23684" lon="5.49986">
        <ele>249.9</ele>
        <time>2025-10-18T15:33:39Z</time>
      </trkpt>
      <trkpt lat="43.23685" lon="5.49987">
        <ele>250</ele>
        <time>2025-10-18T15:33:40Z</time>
      </trkpt>
      <trkpt lat="43.23686" lon="5.49987">
        <ele>250</ele>
        <time>2025-10-18T15:33:41Z</time>
      </trkpt>
      <trkpt lat="43.23687" lon="5.49988">
        <ele>250.1</ele>
        <time>2025-10-18T15:33:42Z</time>
      </trkpt>
      <trkpt lat="43.23688" lon="5.49989">
        <ele>250</ele>
        <time>2025-10-18T15:33:43Z</time>
      </trkpt>
      <trkpt lat="43.23689" lon="5.49989">
        <ele>250.1</ele>
        <time>2025-10-18T15:33:44Z</time>
      </trkpt>
      <trkpt lat="43.2369" lon="5.49989">
        <ele>250.3</ele>
        <time>2025-10-18T15:33:45Z</time>
      </trkpt>
      <trkpt lat="43.23691" lon="5.4999">
        <ele>250.4</ele>
        <time>2025-10-18T15:33:46Z</time>
      </trkpt>
      <trkpt lat="43.23692" lon="5.4999">
        <ele>250.5</ele>
        <time>2025-10-18T15:33:47Z</time>
      </trkpt>
      <trkpt lat="43.23693" lon="5.49991">
        <ele>250.6</ele>
        <time>2025-10-18T15:33:48Z</time>
      </trkpt>
      <trkpt lat="43.23693" lon="5.49991">
        <ele>250.6</ele>
        <time>2025-10-18T15:33:49Z</time>
      </trkpt>
      <trkpt lat="43.23694" lon="5.49992">
        <ele>250.6</ele>
        <time>2025-10-18T15:33:50Z</time>
      </trkpt>
      <trkpt lat="43.23695" lon="5.49993">
        <ele>250.8</ele>
        <time>2025-10-18T15:33:51Z</time>
      </trkpt>
      <trkpt lat="43.23695" lon="5.49994">
        <ele>250.9</ele>
        <time>2025-10-18T15:33:52Z</time>
      </trkpt>
      <trkpt lat="43.23696" lon="5.49995">
        <ele>250.9</ele>
        <time>2025-10-18T15:33:53Z</time>
      </trkpt>
      <trkpt lat="43.23697" lon="5.49996">
        <ele>250.9</ele>
        <time>2025-10-18T15:33:54Z</time>
      </trkpt>
      <trkpt lat="43.23698" lon="5.49997">
        <ele>250.9</ele>
        <time>2025-10-18T15:33:55Z</time>
      </trkpt>
      <trkpt lat="43.23698" lon="5.49998">
        <ele>250.9</ele>
        <time>2025-10-18T15:33:56Z</time>
      </trkpt>
      <trkpt lat="43.23699" lon="5.49998">
        <ele>251.1</ele>
        <time>2025-10-18T15:33:57Z</time>
      </trkpt>
      <trkpt lat="43.237" lon="5.49999">
        <ele>251.1</ele>
        <time>2025-10-18T15:33:58Z</time>
      </trkpt>
      <trkpt lat="43.237" lon="5.49999">
        <ele>251.2</ele>
        <time>2025-10-18T15:33:59Z</time>
      </trkpt>
      <trkpt lat="43.23701" lon="5.5">
        <ele>251.4</ele>
        <time>2025-10-18T15:34:00Z</time>
      </trkpt>
      <trkpt lat="43.23702" lon="5.5">
        <ele>251.4</ele>
        <time>2025-10-18T15:34:01Z</time>
      </trkpt>
      <trkpt lat="43.23703" lon="5.5">
        <ele>251.4</ele>
        <time>2025-10-18T15:34:02Z</time>
      </trkpt>
      <trkpt lat="43.23704" lon="5.5">
        <ele>251.5</ele>
        <time>2025-10-18T15:34:03Z</time>
      </trkpt>
      <trkpt lat="43.23705" lon="5.5">
        <ele>251.5</ele>
        <time>2025-10-18T15:34:04Z</time>
      </trkpt>
      <trkpt lat="43.23706" lon="5.5">
        <ele>251.6</ele>
        <time>2025-10-18T15:34:05Z</time>
      </trkpt>
      <trkpt lat="43.23707" lon="5.5">
        <ele>251.6</ele>
        <time>2025-10-18T15:34:06Z</time>
      </trkpt>
      <trkpt lat="43.23708" lon="5.5">
        <ele>251.7</ele>
        <time>2025-10-18T15:34:07Z</time>
      </trkpt>
      <trkpt lat="43.23709" lon="5.5">
        <ele>251.7</ele>
        <time>2025-10-18T15:34:08Z</time>
      </trkpt>
      <trkpt lat="43.23709" lon="5.49999">
        <ele>251.7</ele>
        <time>2025-10-18T15:34:09Z</time>
      </trkpt>
      <trkpt lat="43.23709" lon="5.49999">
        <ele>251.8</ele>
        <time>2025-10-18T15:34:10Z</time>
      </trkpt>
      <trkpt lat="43.2371" lon="5.49998">
        <ele>251.8</ele>
        <time>2025-10-18T15:34:11Z</time>
      </trkpt>
      <trkpt lat="43.2371" lon="5.49998">
        <ele>251.8</ele>
        <time>2025-10-18T15:34:12Z</time>
      </trkpt>
      <trkpt lat="43.2371" lon="5.49999">
        <ele>251.8</ele>
        <time>2025-10-18T15:34:13Z</time>
      </trkpt>
      <trkpt lat="43.2371" lon="5.49999">
        <ele>251.9</ele>
        <time>2025-10-18T15:34:14Z</time>
      </trkpt>
      <trkpt lat="43.2371" lon="5.49998">
        <ele>251.9</ele>
        <time>2025-10-18T15:34:15Z</time>
      </trkpt>
      <trkpt lat="43.2371" lon="5.49998">
        <ele>251.9</ele>
        <time>2025-10-18T15:34:16Z</time>
      </trkpt>
      <trkpt lat="43.2371" lon="5.49998">
        <ele>251.9</ele>
        <time>2025-10-18T15:34:17Z</time>
      </trkpt>
      <trkpt lat="43.2371" lon="5.49999">
        <ele>251.9</ele>
        <time>2025-10-18T15:34:18Z</time>
      </trkpt>
      <trkpt lat="43.2371" lon="5.49998">
        <ele>251.9</ele>
        <time>2025-10-18T15:34:19Z</time>
      </trkpt>
      <trkpt lat="43.2371" lon="5.49998">
        <ele>252</ele>
        <time>2025-10-18T15:34:20Z</time>
      </trkpt>
      <trkpt lat="43.2371" lon="5.49997">
        <ele>251.9</ele>
        <time>2025-10-18T15:34:21Z</time>
      </trkpt>
      <trkpt lat="43.2371" lon="5.49997">
        <ele>251.9</ele>
        <time>2025-10-18T15:34:22Z</time>
      </trkpt>
      <trkpt lat="43.2371" lon="5.49997">
        <ele>251.9</ele>
        <time>2025-10-18T15:34:23Z</time>
      </trkpt>
      <trkpt lat="43.2371" lon="5.49997">
        <ele>251.9</ele>
        <time>2025-10-18T15:34:24Z</time>
      </trkpt>
      <trkpt lat="43.23711" lon="5.49997">
        <ele>251.9</ele>
        <time>2025-10-18T15:34:25Z</time>
      </trkpt>
      <trkpt lat="43.23711" lon="5.49996">
        <ele>251.9</ele>
        <time>2025-10-18T15:34:26Z</time>
      </trkpt>
      <trkpt lat="43.23711" lon="5.49996">
        <ele>251.8</ele>
        <time>2025-10-18T15:34:27Z</time>
      </trkpt>
      <trkpt lat="43.23711" lon="5.49996">
        <ele>251.8</ele>
        <time>2025-10-18T15:34:28Z</time>
      </trkpt>
      <trkpt lat="43.23711" lon="5.49996">
        <ele>251.8</ele>
        <time>2025-10-18T15:34:29Z</time>
      </trkpt>
      <trkpt lat="43.23711" lon="5.49996">
        <ele>251.8</ele>
        <time>2025-10-18T15:34:30Z</time>
      </trkpt>
      <trkpt lat="43.23711" lon="5.49996">
        <ele>251.9</ele>
        <time>2025-10-18T15:34:31Z</time>
      </trkpt>
      <trkpt lat="43.23711" lon="5.49997">
        <ele>252</ele>
        <time>2025-10-18T15:34:32Z</time>
      </trkpt>
      <trkpt lat="43.23711" lon="5.49997">
        <ele>252</ele>
        <time>2025-10-18T15:34:33Z</time>
      </trkpt>
      <trkpt lat="43.23711" lon="5.49997">
        <ele>252.1</ele>
        <time>2025-10-18T15:34:34Z</time>
      </trkpt>
      <trkpt lat="43.23711" lon="5.49997">
        <ele>252</ele>
        <time>2025-10-18T15:34:35Z</time>
      </trkpt>
      <trkpt lat="43.23711" lon="5.49997">
        <ele>252.1</ele>
        <time>2025-10-18T15:34:36Z</time>
      </trkpt>
      <trkpt lat="43.23711" lon="5.49997">
        <ele>252.1</ele>
        <time>2025-10-18T15:34:37Z</time>
      </trkpt>
      <trkpt lat="43.23711" lon="5.49997">
        <ele>252.1</ele>
        <time>2025-10-18T15:34:37Z</time>
      </trkpt>
      <trkpt lat="43.23711" lon="5.49997">
        <ele>252.1</ele>
        <time>2025-10-18T15:34:38Z</time>
      </trkpt>
      <trkpt lat="43.23711" lon="5.49997">
        <ele>252.1</ele>
        <time>2025-10-18T15:34:38Z</time>
      </trkpt>
    </trkseg>
  </trk>
</gpx>